<?xml version="1.0" encoding="UTF-8" standalone="no" ?>
<gpx xmlns="http://www.topografix.com/GPX/1/1" xmlns:xsi="http://www.w3.org/2001/XMLSchema-instance" xsi:schemaLocation="http://www.topografix.com/GPX/1/1 http://www.topografix.com/GPX/1/1/gpx.xsd" version="1.1" creator="VisuGPX - https://www.visugpx.com">
  <metadata>
    <name>2017-03-26 Les monts du Pilat</name>
    <desc><![CDATA[Superbe boucle qui passe par un énorme barrage abandonné qui menaçait de céder !
boucle au départ de Grenoble]]></desc>
  </metadata>
  <trk>
    <name><![CDATA[2017-03-26 09:42]]></name>
    <desc><![CDATA[<p>Heure de départ: 03/26/2017 09:42</p><p>Heure d'arrivée: 03/26/2017 18:35</p><p>Distance: 354,5 km (08:52)</p><p>Temps déplacement: 05:25</p><p>Vitesse moyenne: 39,94 km/h</p><p>Vitesse moyenne mouv.: 65,39 km/h</p><p>Vitesse Max.: 139,97km/h</p><p>Altitude minimale: 36 m</p><p>Altitude maximale: 1331 m</p><p>Vitesse de montée: 1330,6 m/h</p><p>Vitesse de descente: -1296,4 m/h</p><p>Gain d'altitude: 4525 m</p><p>Perte d'altitude: -4442 m</p><p>Temps de montée: 03:24</p><p>Temps de descente: 03:25</p><hr align="center" width="480" style="height: 2px; width: 517px"/>]]></desc>
    <trkseg>
      <trkpt lat="45.20104" lon="5.718">
        <ele>151.59</ele>
        <time>2017-03-26T07:42:36Z</time>
      </trkpt>
      <trkpt lat="45.20107" lon="5.71796">
        <ele>164.76</ele>
        <time>2017-03-26T07:42:37Z</time>
      </trkpt>
      <trkpt lat="45.20108" lon="5.71793">
        <ele>172.43</ele>
        <time>2017-03-26T07:42:38Z</time>
      </trkpt>
      <trkpt lat="45.20108" lon="5.71791">
        <ele>179.01</ele>
        <time>2017-03-26T07:42:39Z</time>
      </trkpt>
      <trkpt lat="45.20108" lon="5.7179">
        <ele>182.48</ele>
        <time>2017-03-26T07:42:41Z</time>
      </trkpt>
      <trkpt lat="45.20108" lon="5.71789">
        <ele>184.62</ele>
        <time>2017-03-26T07:42:42Z</time>
      </trkpt>
      <trkpt lat="45.20108" lon="5.71789">
        <ele>185.84</ele>
        <time>2017-03-26T07:42:43Z</time>
      </trkpt>
      <trkpt lat="45.20108" lon="5.71789">
        <ele>186.25</ele>
        <time>2017-03-26T07:42:44Z</time>
      </trkpt>
      <trkpt lat="45.20108" lon="5.71789">
        <ele>186.17</ele>
        <time>2017-03-26T07:42:45Z</time>
      </trkpt>
      <trkpt lat="45.20108" lon="5.71789">
        <ele>186.07</ele>
        <time>2017-03-26T07:42:46Z</time>
      </trkpt>
      <trkpt lat="45.20108" lon="5.71789">
        <ele>185.49</ele>
        <time>2017-03-26T07:42:47Z</time>
      </trkpt>
      <trkpt lat="45.20108" lon="5.71789">
        <ele>184.66</ele>
        <time>2017-03-26T07:42:48Z</time>
      </trkpt>
      <trkpt lat="45.20108" lon="5.71789">
        <ele>183.69</ele>
        <time>2017-03-26T07:42:49Z</time>
      </trkpt>
      <trkpt lat="45.20108" lon="5.71789">
        <ele>182.86</ele>
        <time>2017-03-26T07:42:49Z</time>
      </trkpt>
      <trkpt lat="45.20108" lon="5.71789">
        <ele>182.37</ele>
        <time>2017-03-26T07:42:50Z</time>
      </trkpt>
      <trkpt lat="45.20108" lon="5.71789">
        <ele>181.87</ele>
        <time>2017-03-26T07:42:50Z</time>
      </trkpt>
      <trkpt lat="45.20108" lon="5.7179">
        <ele>180.57</ele>
        <time>2017-03-26T07:42:52Z</time>
      </trkpt>
      <trkpt lat="45.20108" lon="5.7179">
        <ele>179.27</ele>
        <time>2017-03-26T07:42:53Z</time>
      </trkpt>
      <trkpt lat="45.20108" lon="5.7179">
        <ele>178.05</ele>
        <time>2017-03-26T07:42:54Z</time>
      </trkpt>
      <trkpt lat="45.20108" lon="5.7179">
        <ele>177.01</ele>
        <time>2017-03-26T07:42:55Z</time>
      </trkpt>
      <trkpt lat="45.20108" lon="5.71791">
        <ele>176.32</ele>
        <time>2017-03-26T07:42:56Z</time>
      </trkpt>
      <trkpt lat="45.20108" lon="5.7179">
        <ele>175.94</ele>
        <time>2017-03-26T07:42:57Z</time>
      </trkpt>
      <trkpt lat="45.20108" lon="5.7179">
        <ele>175.95</ele>
        <time>2017-03-26T07:42:58Z</time>
      </trkpt>
      <trkpt lat="45.20108" lon="5.7179">
        <ele>176.03</ele>
        <time>2017-03-26T07:42:59Z</time>
      </trkpt>
      <trkpt lat="45.20108" lon="5.7179">
        <ele>176.36</ele>
        <time>2017-03-26T07:43:00Z</time>
      </trkpt>
      <trkpt lat="45.20108" lon="5.7179">
        <ele>176.67</ele>
        <time>2017-03-26T07:43:01Z</time>
      </trkpt>
      <trkpt lat="45.20109" lon="5.7179">
        <ele>176.89</ele>
        <time>2017-03-26T07:43:02Z</time>
      </trkpt>
      <trkpt lat="45.20109" lon="5.71789">
        <ele>177.18</ele>
        <time>2017-03-26T07:43:03Z</time>
      </trkpt>
      <trkpt lat="45.20109" lon="5.71789">
        <ele>177.23</ele>
        <time>2017-03-26T07:43:04Z</time>
      </trkpt>
      <trkpt lat="45.20109" lon="5.71789">
        <ele>177.09</ele>
        <time>2017-03-26T07:43:05Z</time>
      </trkpt>
      <trkpt lat="45.20108" lon="5.71788">
        <ele>177.06</ele>
        <time>2017-03-26T07:43:06Z</time>
      </trkpt>
      <trkpt lat="45.20107" lon="5.71788">
        <ele>177.45</ele>
        <time>2017-03-26T07:43:07Z</time>
      </trkpt>
      <trkpt lat="45.20106" lon="5.71789">
        <ele>177.61</ele>
        <time>2017-03-26T07:43:08Z</time>
      </trkpt>
      <trkpt lat="45.20103" lon="5.71791">
        <ele>177.72</ele>
        <time>2017-03-26T07:43:09Z</time>
      </trkpt>
      <trkpt lat="45.201" lon="5.71794">
        <ele>177.74</ele>
        <time>2017-03-26T07:43:10Z</time>
      </trkpt>
      <trkpt lat="45.20097" lon="5.71797">
        <ele>177.75</ele>
        <time>2017-03-26T07:43:11Z</time>
      </trkpt>
      <trkpt lat="45.20093" lon="5.71799">
        <ele>177.67</ele>
        <time>2017-03-26T07:43:12Z</time>
      </trkpt>
      <trkpt lat="45.20089" lon="5.718">
        <ele>177.49</ele>
        <time>2017-03-26T07:43:13Z</time>
      </trkpt>
      <trkpt lat="45.20084" lon="5.71799">
        <ele>177.38</ele>
        <time>2017-03-26T07:43:14Z</time>
      </trkpt>
      <trkpt lat="45.20079" lon="5.71796">
        <ele>177.43</ele>
        <time>2017-03-26T07:43:15Z</time>
      </trkpt>
      <trkpt lat="45.20076" lon="5.7179">
        <ele>177.45</ele>
        <time>2017-03-26T07:43:16Z</time>
      </trkpt>
      <trkpt lat="45.20076" lon="5.71783">
        <ele>177.45</ele>
        <time>2017-03-26T07:43:17Z</time>
      </trkpt>
      <trkpt lat="45.20078" lon="5.71776">
        <ele>177.37</ele>
        <time>2017-03-26T07:43:18Z</time>
      </trkpt>
      <trkpt lat="45.20081" lon="5.71771">
        <ele>177.51</ele>
        <time>2017-03-26T07:43:19Z</time>
      </trkpt>
      <trkpt lat="45.20086" lon="5.71765">
        <ele>177.7</ele>
        <time>2017-03-26T07:43:20Z</time>
      </trkpt>
      <trkpt lat="45.2009" lon="5.71759">
        <ele>177.82</ele>
        <time>2017-03-26T07:43:21Z</time>
      </trkpt>
      <trkpt lat="45.20094" lon="5.71754">
        <ele>177.76</ele>
        <time>2017-03-26T07:43:22Z</time>
      </trkpt>
      <trkpt lat="45.20099" lon="5.71749">
        <ele>177.83</ele>
        <time>2017-03-26T07:43:23Z</time>
      </trkpt>
      <trkpt lat="45.20103" lon="5.71743">
        <ele>177.85</ele>
        <time>2017-03-26T07:43:24Z</time>
      </trkpt>
      <trkpt lat="45.20107" lon="5.71737">
        <ele>177.69</ele>
        <time>2017-03-26T07:43:25Z</time>
      </trkpt>
      <trkpt lat="45.2011" lon="5.71731">
        <ele>177.42</ele>
        <time>2017-03-26T07:43:26Z</time>
      </trkpt>
      <trkpt lat="45.2011" lon="5.71728">
        <ele>177.04</ele>
        <time>2017-03-26T07:43:27Z</time>
      </trkpt>
      <trkpt lat="45.20109" lon="5.71726">
        <ele>176.65</ele>
        <time>2017-03-26T07:43:28Z</time>
      </trkpt>
      <trkpt lat="45.20108" lon="5.71726">
        <ele>176.33</ele>
        <time>2017-03-26T07:43:29Z</time>
      </trkpt>
      <trkpt lat="45.20109" lon="5.71725">
        <ele>176.34</ele>
        <time>2017-03-26T07:43:30Z</time>
      </trkpt>
      <trkpt lat="45.20109" lon="5.71725">
        <ele>176.43</ele>
        <time>2017-03-26T07:43:31Z</time>
      </trkpt>
      <trkpt lat="45.20109" lon="5.71725">
        <ele>176.44</ele>
        <time>2017-03-26T07:43:32Z</time>
      </trkpt>
      <trkpt lat="45.20109" lon="5.71725">
        <ele>176.45</ele>
        <time>2017-03-26T07:43:33Z</time>
      </trkpt>
      <trkpt lat="45.20109" lon="5.71725">
        <ele>176.45</ele>
        <time>2017-03-26T07:43:34Z</time>
      </trkpt>
      <trkpt lat="45.20105" lon="5.71725">
        <ele>176.85</ele>
        <time>2017-03-26T07:43:35Z</time>
      </trkpt>
      <trkpt lat="45.20101" lon="5.71727">
        <ele>177.01</ele>
        <time>2017-03-26T07:43:36Z</time>
      </trkpt>
      <trkpt lat="45.20097" lon="5.71731">
        <ele>177.36</ele>
        <time>2017-03-26T07:43:37Z</time>
      </trkpt>
      <trkpt lat="45.20093" lon="5.71735">
        <ele>177.67</ele>
        <time>2017-03-26T07:43:38Z</time>
      </trkpt>
      <trkpt lat="45.20088" lon="5.71741">
        <ele>177.89</ele>
        <time>2017-03-26T07:43:39Z</time>
      </trkpt>
      <trkpt lat="45.20081" lon="5.71746">
        <ele>178.26</ele>
        <time>2017-03-26T07:43:40Z</time>
      </trkpt>
      <trkpt lat="45.20074" lon="5.71752">
        <ele>178.41</ele>
        <time>2017-03-26T07:43:41Z</time>
      </trkpt>
      <trkpt lat="45.20065" lon="5.71756">
        <ele>178.36</ele>
        <time>2017-03-26T07:43:42Z</time>
      </trkpt>
      <trkpt lat="45.20055" lon="5.7176">
        <ele>178.03</ele>
        <time>2017-03-26T07:43:43Z</time>
      </trkpt>
      <trkpt lat="45.20047" lon="5.71763">
        <ele>177.81</ele>
        <time>2017-03-26T07:43:44Z</time>
      </trkpt>
      <trkpt lat="45.20037" lon="5.71766">
        <ele>177.36</ele>
        <time>2017-03-26T07:43:45Z</time>
      </trkpt>
      <trkpt lat="45.20028" lon="5.71768">
        <ele>176.95</ele>
        <time>2017-03-26T07:43:46Z</time>
      </trkpt>
      <trkpt lat="45.20019" lon="5.7177">
        <ele>176.47</ele>
        <time>2017-03-26T07:43:47Z</time>
      </trkpt>
      <trkpt lat="45.2001" lon="5.71772">
        <ele>176.13</ele>
        <time>2017-03-26T07:43:48Z</time>
      </trkpt>
      <trkpt lat="45.20001" lon="5.71774">
        <ele>175.75</ele>
        <time>2017-03-26T07:43:49Z</time>
      </trkpt>
      <trkpt lat="45.19992" lon="5.71776">
        <ele>175.67</ele>
        <time>2017-03-26T07:43:50Z</time>
      </trkpt>
      <trkpt lat="45.19984" lon="5.71779">
        <ele>175.65</ele>
        <time>2017-03-26T07:43:51Z</time>
      </trkpt>
      <trkpt lat="45.19977" lon="5.7178">
        <ele>175.57</ele>
        <time>2017-03-26T07:43:52Z</time>
      </trkpt>
      <trkpt lat="45.1997" lon="5.71782">
        <ele>175.39</ele>
        <time>2017-03-26T07:43:53Z</time>
      </trkpt>
      <trkpt lat="45.19962" lon="5.71783">
        <ele>175.2</ele>
        <time>2017-03-26T07:43:54Z</time>
      </trkpt>
      <trkpt lat="45.19954" lon="5.71784">
        <ele>175</ele>
        <time>2017-03-26T07:43:55Z</time>
      </trkpt>
      <trkpt lat="45.19944" lon="5.71788">
        <ele>174.96</ele>
        <time>2017-03-26T07:43:56Z</time>
      </trkpt>
      <trkpt lat="45.19936" lon="5.71792">
        <ele>174.79</ele>
        <time>2017-03-26T07:43:57Z</time>
      </trkpt>
      <trkpt lat="45.19928" lon="5.71794">
        <ele>174.6</ele>
        <time>2017-03-26T07:43:58Z</time>
      </trkpt>
      <trkpt lat="45.19922" lon="5.71796">
        <ele>174.48</ele>
        <time>2017-03-26T07:43:59Z</time>
      </trkpt>
      <trkpt lat="45.19916" lon="5.71798">
        <ele>174.37</ele>
        <time>2017-03-26T07:44:00Z</time>
      </trkpt>
      <trkpt lat="45.19911" lon="5.718">
        <ele>174.19</ele>
        <time>2017-03-26T07:44:01Z</time>
      </trkpt>
      <trkpt lat="45.19906" lon="5.71801">
        <ele>173.84</ele>
        <time>2017-03-26T07:44:02Z</time>
      </trkpt>
      <trkpt lat="45.19902" lon="5.71802">
        <ele>173.53</ele>
        <time>2017-03-26T07:44:03Z</time>
      </trkpt>
      <trkpt lat="45.19898" lon="5.71802">
        <ele>173.38</ele>
        <time>2017-03-26T07:44:04Z</time>
      </trkpt>
      <trkpt lat="45.19894" lon="5.71798">
        <ele>173.28</ele>
        <time>2017-03-26T07:44:05Z</time>
      </trkpt>
      <trkpt lat="45.19893" lon="5.71793">
        <ele>173.09</ele>
        <time>2017-03-26T07:44:06Z</time>
      </trkpt>
      <trkpt lat="45.19894" lon="5.71787">
        <ele>172.98</ele>
        <time>2017-03-26T07:44:07Z</time>
      </trkpt>
      <trkpt lat="45.19896" lon="5.71782">
        <ele>172.87</ele>
        <time>2017-03-26T07:44:08Z</time>
      </trkpt>
      <trkpt lat="45.19897" lon="5.71777">
        <ele>172.77</ele>
        <time>2017-03-26T07:44:09Z</time>
      </trkpt>
      <trkpt lat="45.19899" lon="5.71773">
        <ele>172.67</ele>
        <time>2017-03-26T07:44:10Z</time>
      </trkpt>
      <trkpt lat="45.199" lon="5.71769">
        <ele>172.49</ele>
        <time>2017-03-26T07:44:11Z</time>
      </trkpt>
      <trkpt lat="45.19901" lon="5.71765">
        <ele>172.3</ele>
        <time>2017-03-26T07:44:12Z</time>
      </trkpt>
      <trkpt lat="45.19903" lon="5.7176">
        <ele>172.18</ele>
        <time>2017-03-26T07:44:13Z</time>
      </trkpt>
      <trkpt lat="45.19906" lon="5.71754">
        <ele>171.91</ele>
        <time>2017-03-26T07:44:14Z</time>
      </trkpt>
      <trkpt lat="45.19909" lon="5.71749">
        <ele>171.78</ele>
        <time>2017-03-26T07:44:15Z</time>
      </trkpt>
      <trkpt lat="45.19914" lon="5.71742">
        <ele>171.6</ele>
        <time>2017-03-26T07:44:16Z</time>
      </trkpt>
      <trkpt lat="45.19919" lon="5.71737">
        <ele>171.48</ele>
        <time>2017-03-26T07:44:17Z</time>
      </trkpt>
      <trkpt lat="45.19925" lon="5.71731">
        <ele>171.37</ele>
        <time>2017-03-26T07:44:18Z</time>
      </trkpt>
      <trkpt lat="45.19933" lon="5.71726">
        <ele>171.19</ele>
        <time>2017-03-26T07:44:19Z</time>
      </trkpt>
      <trkpt lat="45.19941" lon="5.7172">
        <ele>171</ele>
        <time>2017-03-26T07:44:20Z</time>
      </trkpt>
      <trkpt lat="45.19949" lon="5.71714">
        <ele>170.8</ele>
        <time>2017-03-26T07:44:21Z</time>
      </trkpt>
      <trkpt lat="45.19958" lon="5.71708">
        <ele>170.6</ele>
        <time>2017-03-26T07:44:22Z</time>
      </trkpt>
      <trkpt lat="45.19968" lon="5.717">
        <ele>170.4</ele>
        <time>2017-03-26T07:44:23Z</time>
      </trkpt>
      <trkpt lat="45.19978" lon="5.71693">
        <ele>170.28</ele>
        <time>2017-03-26T07:44:24Z</time>
      </trkpt>
      <trkpt lat="45.19989" lon="5.71686">
        <ele>170.18</ele>
        <time>2017-03-26T07:44:25Z</time>
      </trkpt>
      <trkpt lat="45.2" lon="5.71678">
        <ele>170.15</ele>
        <time>2017-03-26T07:44:26Z</time>
      </trkpt>
      <trkpt lat="45.20012" lon="5.7167">
        <ele>170.23</ele>
        <time>2017-03-26T07:44:27Z</time>
      </trkpt>
      <trkpt lat="45.20024" lon="5.71661">
        <ele>170.33</ele>
        <time>2017-03-26T07:44:28Z</time>
      </trkpt>
      <trkpt lat="45.20036" lon="5.71652">
        <ele>170.26</ele>
        <time>2017-03-26T07:44:29Z</time>
      </trkpt>
      <trkpt lat="45.20048" lon="5.71644">
        <ele>170.33</ele>
        <time>2017-03-26T07:44:30Z</time>
      </trkpt>
      <trkpt lat="45.20061" lon="5.71635">
        <ele>170.19</ele>
        <time>2017-03-26T07:44:31Z</time>
      </trkpt>
      <trkpt lat="45.20075" lon="5.71625">
        <ele>170.08</ele>
        <time>2017-03-26T07:44:32Z</time>
      </trkpt>
      <trkpt lat="45.20088" lon="5.71616">
        <ele>170.13</ele>
        <time>2017-03-26T07:44:33Z</time>
      </trkpt>
      <trkpt lat="45.20102" lon="5.71606">
        <ele>170.15</ele>
        <time>2017-03-26T07:44:34Z</time>
      </trkpt>
      <trkpt lat="45.20116" lon="5.71596">
        <ele>170.07</ele>
        <time>2017-03-26T07:44:35Z</time>
      </trkpt>
      <trkpt lat="45.20131" lon="5.71585">
        <ele>169.97</ele>
        <time>2017-03-26T07:44:36Z</time>
      </trkpt>
      <trkpt lat="45.20145" lon="5.71573">
        <ele>169.79</ele>
        <time>2017-03-26T07:44:37Z</time>
      </trkpt>
      <trkpt lat="45.20159" lon="5.71561">
        <ele>169.92</ele>
        <time>2017-03-26T07:44:38Z</time>
      </trkpt>
      <trkpt lat="45.20173" lon="5.71548">
        <ele>169.86</ele>
        <time>2017-03-26T07:44:39Z</time>
      </trkpt>
      <trkpt lat="45.20187" lon="5.71534">
        <ele>169.69</ele>
        <time>2017-03-26T07:44:40Z</time>
      </trkpt>
      <trkpt lat="45.202" lon="5.71519">
        <ele>169.82</ele>
        <time>2017-03-26T07:44:41Z</time>
      </trkpt>
      <trkpt lat="45.20214" lon="5.71505">
        <ele>170.16</ele>
        <time>2017-03-26T07:44:42Z</time>
      </trkpt>
      <trkpt lat="45.20227" lon="5.7149">
        <ele>170.31</ele>
        <time>2017-03-26T07:44:43Z</time>
      </trkpt>
      <trkpt lat="45.2024" lon="5.71474">
        <ele>170.5</ele>
        <time>2017-03-26T07:44:44Z</time>
      </trkpt>
      <trkpt lat="45.20252" lon="5.71459">
        <ele>171.18</ele>
        <time>2017-03-26T07:44:45Z</time>
      </trkpt>
      <trkpt lat="45.20265" lon="5.71443">
        <ele>171.64</ele>
        <time>2017-03-26T07:44:46Z</time>
      </trkpt>
      <trkpt lat="45.20276" lon="5.71428">
        <ele>171.89</ele>
        <time>2017-03-26T07:44:47Z</time>
      </trkpt>
      <trkpt lat="45.20288" lon="5.71412">
        <ele>171.78</ele>
        <time>2017-03-26T07:44:48Z</time>
      </trkpt>
      <trkpt lat="45.203" lon="5.71396">
        <ele>171.67</ele>
        <time>2017-03-26T07:44:49Z</time>
      </trkpt>
      <trkpt lat="45.20312" lon="5.71381">
        <ele>171.49</ele>
        <time>2017-03-26T07:44:50Z</time>
      </trkpt>
      <trkpt lat="45.20324" lon="5.71365">
        <ele>171.46</ele>
        <time>2017-03-26T07:44:51Z</time>
      </trkpt>
      <trkpt lat="45.20336" lon="5.7135">
        <ele>171.29</ele>
        <time>2017-03-26T07:44:52Z</time>
      </trkpt>
      <trkpt lat="45.20347" lon="5.71334">
        <ele>171.18</ele>
        <time>2017-03-26T07:44:53Z</time>
      </trkpt>
      <trkpt lat="45.20359" lon="5.71319">
        <ele>170.99</ele>
        <time>2017-03-26T07:44:54Z</time>
      </trkpt>
      <trkpt lat="45.20371" lon="5.71303">
        <ele>170.88</ele>
        <time>2017-03-26T07:44:55Z</time>
      </trkpt>
      <trkpt lat="45.20383" lon="5.71287">
        <ele>170.77</ele>
        <time>2017-03-26T07:44:56Z</time>
      </trkpt>
      <trkpt lat="45.20395" lon="5.71272">
        <ele>170.59</ele>
        <time>2017-03-26T07:44:57Z</time>
      </trkpt>
      <trkpt lat="45.20408" lon="5.71256">
        <ele>170.48</ele>
        <time>2017-03-26T07:44:58Z</time>
      </trkpt>
      <trkpt lat="45.2042" lon="5.7124">
        <ele>170.45</ele>
        <time>2017-03-26T07:44:59Z</time>
      </trkpt>
      <trkpt lat="45.20432" lon="5.71224">
        <ele>170.37</ele>
        <time>2017-03-26T07:45:00Z</time>
      </trkpt>
      <trkpt lat="45.20445" lon="5.71207">
        <ele>170.35</ele>
        <time>2017-03-26T07:45:01Z</time>
      </trkpt>
      <trkpt lat="45.20458" lon="5.7119">
        <ele>170.35</ele>
        <time>2017-03-26T07:45:02Z</time>
      </trkpt>
      <trkpt lat="45.2047" lon="5.71173">
        <ele>170.59</ele>
        <time>2017-03-26T07:45:03Z</time>
      </trkpt>
      <trkpt lat="45.20482" lon="5.71154">
        <ele>170.64</ele>
        <time>2017-03-26T07:45:04Z</time>
      </trkpt>
      <trkpt lat="45.20493" lon="5.71136">
        <ele>170.73</ele>
        <time>2017-03-26T07:45:05Z</time>
      </trkpt>
      <trkpt lat="45.20504" lon="5.71117">
        <ele>170.9</ele>
        <time>2017-03-26T07:45:06Z</time>
      </trkpt>
      <trkpt lat="45.20513" lon="5.71099">
        <ele>171.26</ele>
        <time>2017-03-26T07:45:07Z</time>
      </trkpt>
      <trkpt lat="45.20522" lon="5.7108">
        <ele>171.57</ele>
        <time>2017-03-26T07:45:08Z</time>
      </trkpt>
      <trkpt lat="45.20531" lon="5.7106">
        <ele>172.03</ele>
        <time>2017-03-26T07:45:09Z</time>
      </trkpt>
      <trkpt lat="45.20539" lon="5.71038">
        <ele>172.53</ele>
        <time>2017-03-26T07:45:10Z</time>
      </trkpt>
      <trkpt lat="45.20547" lon="5.71017">
        <ele>172.94</ele>
        <time>2017-03-26T07:45:11Z</time>
      </trkpt>
      <trkpt lat="45.20554" lon="5.70995">
        <ele>173.27</ele>
        <time>2017-03-26T07:45:12Z</time>
      </trkpt>
      <trkpt lat="45.20561" lon="5.70973">
        <ele>173.49</ele>
        <time>2017-03-26T07:45:13Z</time>
      </trkpt>
      <trkpt lat="45.20569" lon="5.70951">
        <ele>173.78</ele>
        <time>2017-03-26T07:45:14Z</time>
      </trkpt>
      <trkpt lat="45.20577" lon="5.7093">
        <ele>174.39</ele>
        <time>2017-03-26T07:45:15Z</time>
      </trkpt>
      <trkpt lat="45.20584" lon="5.70908">
        <ele>174.84</ele>
        <time>2017-03-26T07:45:16Z</time>
      </trkpt>
      <trkpt lat="45.20592" lon="5.70887">
        <ele>175.33</ele>
        <time>2017-03-26T07:45:17Z</time>
      </trkpt>
      <trkpt lat="45.206" lon="5.70865">
        <ele>175.82</ele>
        <time>2017-03-26T07:45:18Z</time>
      </trkpt>
      <trkpt lat="45.20607" lon="5.70844">
        <ele>176.16</ele>
        <time>2017-03-26T07:45:19Z</time>
      </trkpt>
      <trkpt lat="45.20615" lon="5.70823">
        <ele>176.55</ele>
        <time>2017-03-26T07:45:20Z</time>
      </trkpt>
      <trkpt lat="45.20623" lon="5.70801">
        <ele>176.87</ele>
        <time>2017-03-26T07:45:21Z</time>
      </trkpt>
      <trkpt lat="45.20632" lon="5.7078">
        <ele>177.17</ele>
        <time>2017-03-26T07:45:22Z</time>
      </trkpt>
      <trkpt lat="45.2064" lon="5.70758">
        <ele>177.31</ele>
        <time>2017-03-26T07:45:23Z</time>
      </trkpt>
      <trkpt lat="45.20649" lon="5.70737">
        <ele>177.5</ele>
        <time>2017-03-26T07:45:24Z</time>
      </trkpt>
      <trkpt lat="45.20657" lon="5.70715">
        <ele>177.62</ele>
        <time>2017-03-26T07:45:25Z</time>
      </trkpt>
      <trkpt lat="45.20666" lon="5.70692">
        <ele>177.88</ele>
        <time>2017-03-26T07:45:26Z</time>
      </trkpt>
      <trkpt lat="45.20676" lon="5.7067">
        <ele>178.1</ele>
        <time>2017-03-26T07:45:27Z</time>
      </trkpt>
      <trkpt lat="45.20685" lon="5.70646">
        <ele>178.22</ele>
        <time>2017-03-26T07:45:28Z</time>
      </trkpt>
      <trkpt lat="45.20695" lon="5.70621">
        <ele>178.48</ele>
        <time>2017-03-26T07:45:29Z</time>
      </trkpt>
      <trkpt lat="45.20705" lon="5.70597">
        <ele>178.62</ele>
        <time>2017-03-26T07:45:30Z</time>
      </trkpt>
      <trkpt lat="45.20715" lon="5.70572">
        <ele>178.72</ele>
        <time>2017-03-26T07:45:31Z</time>
      </trkpt>
      <trkpt lat="45.20725" lon="5.70547">
        <ele>178.74</ele>
        <time>2017-03-26T07:45:32Z</time>
      </trkpt>
      <trkpt lat="45.20735" lon="5.70523">
        <ele>178.67</ele>
        <time>2017-03-26T07:45:33Z</time>
      </trkpt>
      <trkpt lat="45.20745" lon="5.70498">
        <ele>178.49</ele>
        <time>2017-03-26T07:45:34Z</time>
      </trkpt>
      <trkpt lat="45.20756" lon="5.70473">
        <ele>178.46</ele>
        <time>2017-03-26T07:45:35Z</time>
      </trkpt>
      <trkpt lat="45.20766" lon="5.70449">
        <ele>178.53</ele>
        <time>2017-03-26T07:45:36Z</time>
      </trkpt>
      <trkpt lat="45.20776" lon="5.70424">
        <ele>178.47</ele>
        <time>2017-03-26T07:45:37Z</time>
      </trkpt>
      <trkpt lat="45.20786" lon="5.70399">
        <ele>178.21</ele>
        <time>2017-03-26T07:45:38Z</time>
      </trkpt>
      <trkpt lat="45.20796" lon="5.70375">
        <ele>177.84</ele>
        <time>2017-03-26T07:45:39Z</time>
      </trkpt>
      <trkpt lat="45.20806" lon="5.70349">
        <ele>177.37</ele>
        <time>2017-03-26T07:45:40Z</time>
      </trkpt>
      <trkpt lat="45.20816" lon="5.70324">
        <ele>176.79</ele>
        <time>2017-03-26T07:45:41Z</time>
      </trkpt>
      <trkpt lat="45.20826" lon="5.70299">
        <ele>176.28</ele>
        <time>2017-03-26T07:45:42Z</time>
      </trkpt>
      <trkpt lat="45.20836" lon="5.70273">
        <ele>175.69</ele>
        <time>2017-03-26T07:45:43Z</time>
      </trkpt>
      <trkpt lat="45.20846" lon="5.70247">
        <ele>174.94</ele>
        <time>2017-03-26T07:45:44Z</time>
      </trkpt>
      <trkpt lat="45.20857" lon="5.70222">
        <ele>174.23</ele>
        <time>2017-03-26T07:45:45Z</time>
      </trkpt>
      <trkpt lat="45.20867" lon="5.70196">
        <ele>173.6</ele>
        <time>2017-03-26T07:45:46Z</time>
      </trkpt>
      <trkpt lat="45.20878" lon="5.70171">
        <ele>173</ele>
        <time>2017-03-26T07:45:47Z</time>
      </trkpt>
      <trkpt lat="45.20888" lon="5.70145">
        <ele>172.4</ele>
        <time>2017-03-26T07:45:48Z</time>
      </trkpt>
      <trkpt lat="45.20899" lon="5.70119">
        <ele>171.8</ele>
        <time>2017-03-26T07:45:49Z</time>
      </trkpt>
      <trkpt lat="45.20909" lon="5.70093">
        <ele>171.2</ele>
        <time>2017-03-26T07:45:50Z</time>
      </trkpt>
      <trkpt lat="45.2092" lon="5.70066">
        <ele>170.68</ele>
        <time>2017-03-26T07:45:51Z</time>
      </trkpt>
      <trkpt lat="45.20931" lon="5.70039">
        <ele>170.1</ele>
        <time>2017-03-26T07:45:52Z</time>
      </trkpt>
      <trkpt lat="45.20941" lon="5.70012">
        <ele>169.5</ele>
        <time>2017-03-26T07:45:53Z</time>
      </trkpt>
      <trkpt lat="45.20951" lon="5.69984">
        <ele>168.9</ele>
        <time>2017-03-26T07:45:54Z</time>
      </trkpt>
      <trkpt lat="45.20962" lon="5.69956">
        <ele>168.38</ele>
        <time>2017-03-26T07:45:55Z</time>
      </trkpt>
      <trkpt lat="45.20971" lon="5.69928">
        <ele>167.88</ele>
        <time>2017-03-26T07:45:56Z</time>
      </trkpt>
      <trkpt lat="45.20981" lon="5.699">
        <ele>167.37</ele>
        <time>2017-03-26T07:45:57Z</time>
      </trkpt>
      <trkpt lat="45.20991" lon="5.69872">
        <ele>166.87</ele>
        <time>2017-03-26T07:45:58Z</time>
      </trkpt>
      <trkpt lat="45.21001" lon="5.69844">
        <ele>166.53</ele>
        <time>2017-03-26T07:45:59Z</time>
      </trkpt>
      <trkpt lat="45.2101" lon="5.69815">
        <ele>166.15</ele>
        <time>2017-03-26T07:46:00Z</time>
      </trkpt>
      <trkpt lat="45.21019" lon="5.69788">
        <ele>165.83</ele>
        <time>2017-03-26T07:46:01Z</time>
      </trkpt>
      <trkpt lat="45.21028" lon="5.6976">
        <ele>165.52</ele>
        <time>2017-03-26T07:46:02Z</time>
      </trkpt>
      <trkpt lat="45.21037" lon="5.69731">
        <ele>165.14</ele>
        <time>2017-03-26T07:46:03Z</time>
      </trkpt>
      <trkpt lat="45.21046" lon="5.69702">
        <ele>164.83</ele>
        <time>2017-03-26T07:46:04Z</time>
      </trkpt>
      <trkpt lat="45.21054" lon="5.69674">
        <ele>164.6</ele>
        <time>2017-03-26T07:46:05Z</time>
      </trkpt>
      <trkpt lat="45.21062" lon="5.69646">
        <ele>164.4</ele>
        <time>2017-03-26T07:46:06Z</time>
      </trkpt>
      <trkpt lat="45.2107" lon="5.69617">
        <ele>164.12</ele>
        <time>2017-03-26T07:46:07Z</time>
      </trkpt>
      <trkpt lat="45.21078" lon="5.69589">
        <ele>163.82</ele>
        <time>2017-03-26T07:46:08Z</time>
      </trkpt>
      <trkpt lat="45.21086" lon="5.6956">
        <ele>163.52</ele>
        <time>2017-03-26T07:46:09Z</time>
      </trkpt>
      <trkpt lat="45.21094" lon="5.69531">
        <ele>163.14</ele>
        <time>2017-03-26T07:46:10Z</time>
      </trkpt>
      <trkpt lat="45.21101" lon="5.69503">
        <ele>162.91</ele>
        <time>2017-03-26T07:46:11Z</time>
      </trkpt>
      <trkpt lat="45.21108" lon="5.69474">
        <ele>162.7</ele>
        <time>2017-03-26T07:46:12Z</time>
      </trkpt>
      <trkpt lat="45.21115" lon="5.69446">
        <ele>162.58</ele>
        <time>2017-03-26T07:46:13Z</time>
      </trkpt>
      <trkpt lat="45.21122" lon="5.69417">
        <ele>162.4</ele>
        <time>2017-03-26T07:46:14Z</time>
      </trkpt>
      <trkpt lat="45.21129" lon="5.69388">
        <ele>162.36</ele>
        <time>2017-03-26T07:46:15Z</time>
      </trkpt>
      <trkpt lat="45.21136" lon="5.69359">
        <ele>162.11</ele>
        <time>2017-03-26T07:46:16Z</time>
      </trkpt>
      <trkpt lat="45.21142" lon="5.6933">
        <ele>161.82</ele>
        <time>2017-03-26T07:46:17Z</time>
      </trkpt>
      <trkpt lat="45.21148" lon="5.693">
        <ele>161.52</ele>
        <time>2017-03-26T07:46:18Z</time>
      </trkpt>
      <trkpt lat="45.21154" lon="5.69271">
        <ele>161.3</ele>
        <time>2017-03-26T07:46:19Z</time>
      </trkpt>
      <trkpt lat="45.21161" lon="5.69241">
        <ele>161.1</ele>
        <time>2017-03-26T07:46:20Z</time>
      </trkpt>
      <trkpt lat="45.21167" lon="5.69211">
        <ele>161.14</ele>
        <time>2017-03-26T07:46:21Z</time>
      </trkpt>
      <trkpt lat="45.21174" lon="5.69181">
        <ele>161.07</ele>
        <time>2017-03-26T07:46:22Z</time>
      </trkpt>
      <trkpt lat="45.2118" lon="5.69151">
        <ele>160.97</ele>
        <time>2017-03-26T07:46:23Z</time>
      </trkpt>
      <trkpt lat="45.21186" lon="5.69121">
        <ele>160.87</ele>
        <time>2017-03-26T07:46:24Z</time>
      </trkpt>
      <trkpt lat="45.21193" lon="5.69091">
        <ele>160.77</ele>
        <time>2017-03-26T07:46:25Z</time>
      </trkpt>
      <trkpt lat="45.212" lon="5.6906">
        <ele>160.59</ele>
        <time>2017-03-26T07:46:26Z</time>
      </trkpt>
      <trkpt lat="45.21206" lon="5.6903">
        <ele>160.24</ele>
        <time>2017-03-26T07:46:27Z</time>
      </trkpt>
      <trkpt lat="45.21213" lon="5.69">
        <ele>159.93</ele>
        <time>2017-03-26T07:46:28Z</time>
      </trkpt>
      <trkpt lat="45.21219" lon="5.6897">
        <ele>159.62</ele>
        <time>2017-03-26T07:46:29Z</time>
      </trkpt>
      <trkpt lat="45.21226" lon="5.6894">
        <ele>159.4</ele>
        <time>2017-03-26T07:46:30Z</time>
      </trkpt>
      <trkpt lat="45.21234" lon="5.6891">
        <ele>159.28</ele>
        <time>2017-03-26T07:46:31Z</time>
      </trkpt>
      <trkpt lat="45.21241" lon="5.6888">
        <ele>158.86</ele>
        <time>2017-03-26T07:46:32Z</time>
      </trkpt>
      <trkpt lat="45.21248" lon="5.6885">
        <ele>158.45</ele>
        <time>2017-03-26T07:46:33Z</time>
      </trkpt>
      <trkpt lat="45.21256" lon="5.68819">
        <ele>158.21</ele>
        <time>2017-03-26T07:46:34Z</time>
      </trkpt>
      <trkpt lat="45.21265" lon="5.68789">
        <ele>158</ele>
        <time>2017-03-26T07:46:35Z</time>
      </trkpt>
      <trkpt lat="45.21274" lon="5.68758">
        <ele>157.96</ele>
        <time>2017-03-26T07:46:36Z</time>
      </trkpt>
      <trkpt lat="45.21284" lon="5.68728">
        <ele>157.87</ele>
        <time>2017-03-26T07:46:37Z</time>
      </trkpt>
      <trkpt lat="45.21294" lon="5.68699">
        <ele>157.85</ele>
        <time>2017-03-26T07:46:38Z</time>
      </trkpt>
      <trkpt lat="45.21304" lon="5.68669">
        <ele>157.93</ele>
        <time>2017-03-26T07:46:39Z</time>
      </trkpt>
      <trkpt lat="45.21315" lon="5.68639">
        <ele>158.03</ele>
        <time>2017-03-26T07:46:40Z</time>
      </trkpt>
      <trkpt lat="45.21326" lon="5.6861">
        <ele>158.12</ele>
        <time>2017-03-26T07:46:41Z</time>
      </trkpt>
      <trkpt lat="45.21338" lon="5.68581">
        <ele>158.22</ele>
        <time>2017-03-26T07:46:42Z</time>
      </trkpt>
      <trkpt lat="45.21349" lon="5.68552">
        <ele>158.16</ele>
        <time>2017-03-26T07:46:43Z</time>
      </trkpt>
      <trkpt lat="45.21361" lon="5.68524">
        <ele>158.07</ele>
        <time>2017-03-26T07:46:44Z</time>
      </trkpt>
      <trkpt lat="45.21373" lon="5.68496">
        <ele>158.05</ele>
        <time>2017-03-26T07:46:45Z</time>
      </trkpt>
      <trkpt lat="45.21385" lon="5.68469">
        <ele>158.05</ele>
        <time>2017-03-26T07:46:46Z</time>
      </trkpt>
      <trkpt lat="45.21397" lon="5.68442">
        <ele>158.29</ele>
        <time>2017-03-26T07:46:47Z</time>
      </trkpt>
      <trkpt lat="45.2141" lon="5.68416">
        <ele>158.42</ele>
        <time>2017-03-26T07:46:48Z</time>
      </trkpt>
      <trkpt lat="45.21422" lon="5.68389">
        <ele>158.84</ele>
        <time>2017-03-26T07:46:49Z</time>
      </trkpt>
      <trkpt lat="45.21434" lon="5.68363">
        <ele>159.25</ele>
        <time>2017-03-26T07:46:50Z</time>
      </trkpt>
      <trkpt lat="45.21446" lon="5.68337">
        <ele>159.57</ele>
        <time>2017-03-26T07:46:51Z</time>
      </trkpt>
      <trkpt lat="45.21459" lon="5.68311">
        <ele>159.79</ele>
        <time>2017-03-26T07:46:52Z</time>
      </trkpt>
      <trkpt lat="45.21471" lon="5.68285">
        <ele>159.92</ele>
        <time>2017-03-26T07:46:53Z</time>
      </trkpt>
      <trkpt lat="45.21483" lon="5.68259">
        <ele>160.02</ele>
        <time>2017-03-26T07:46:54Z</time>
      </trkpt>
      <trkpt lat="45.21495" lon="5.68233">
        <ele>160.12</ele>
        <time>2017-03-26T07:46:55Z</time>
      </trkpt>
      <trkpt lat="45.21508" lon="5.68207">
        <ele>160.14</ele>
        <time>2017-03-26T07:46:56Z</time>
      </trkpt>
      <trkpt lat="45.2152" lon="5.6818">
        <ele>159.99</ele>
        <time>2017-03-26T07:46:57Z</time>
      </trkpt>
      <trkpt lat="45.21532" lon="5.68154">
        <ele>159.8</ele>
        <time>2017-03-26T07:46:58Z</time>
      </trkpt>
      <trkpt lat="45.21544" lon="5.68127">
        <ele>159.68</ele>
        <time>2017-03-26T07:46:59Z</time>
      </trkpt>
      <trkpt lat="45.21557" lon="5.68101">
        <ele>159.57</ele>
        <time>2017-03-26T07:47:00Z</time>
      </trkpt>
      <trkpt lat="45.2157" lon="5.68074">
        <ele>159.39</ele>
        <time>2017-03-26T07:47:01Z</time>
      </trkpt>
      <trkpt lat="45.21583" lon="5.68047">
        <ele>159.28</ele>
        <time>2017-03-26T07:47:02Z</time>
      </trkpt>
      <trkpt lat="45.21595" lon="5.68021">
        <ele>159.25</ele>
        <time>2017-03-26T07:47:03Z</time>
      </trkpt>
      <trkpt lat="45.21609" lon="5.67995">
        <ele>159.09</ele>
        <time>2017-03-26T07:47:04Z</time>
      </trkpt>
      <trkpt lat="45.21622" lon="5.67969">
        <ele>158.82</ele>
        <time>2017-03-26T07:47:05Z</time>
      </trkpt>
      <trkpt lat="45.21634" lon="5.67942">
        <ele>158.76</ele>
        <time>2017-03-26T07:47:06Z</time>
      </trkpt>
      <trkpt lat="45.21648" lon="5.67916">
        <ele>158.59</ele>
        <time>2017-03-26T07:47:07Z</time>
      </trkpt>
      <trkpt lat="45.21661" lon="5.67889">
        <ele>158.32</ele>
        <time>2017-03-26T07:47:08Z</time>
      </trkpt>
      <trkpt lat="45.21674" lon="5.67863">
        <ele>158.1</ele>
        <time>2017-03-26T07:47:09Z</time>
      </trkpt>
      <trkpt lat="45.21688" lon="5.67837">
        <ele>157.9</ele>
        <time>2017-03-26T07:47:10Z</time>
      </trkpt>
      <trkpt lat="45.21701" lon="5.67811">
        <ele>157.7</ele>
        <time>2017-03-26T07:47:11Z</time>
      </trkpt>
      <trkpt lat="45.21713" lon="5.67785">
        <ele>157.58</ele>
        <time>2017-03-26T07:47:12Z</time>
      </trkpt>
      <trkpt lat="45.21726" lon="5.6776">
        <ele>157.48</ele>
        <time>2017-03-26T07:47:13Z</time>
      </trkpt>
      <trkpt lat="45.21739" lon="5.67737">
        <ele>157.37</ele>
        <time>2017-03-26T07:47:14Z</time>
      </trkpt>
      <trkpt lat="45.21753" lon="5.67713">
        <ele>157.19</ele>
        <time>2017-03-26T07:47:15Z</time>
      </trkpt>
      <trkpt lat="45.21766" lon="5.6769">
        <ele>157</ele>
        <time>2017-03-26T07:47:16Z</time>
      </trkpt>
      <trkpt lat="45.2178" lon="5.67668">
        <ele>156.96</ele>
        <time>2017-03-26T07:47:17Z</time>
      </trkpt>
      <trkpt lat="45.21795" lon="5.67645">
        <ele>156.95</ele>
        <time>2017-03-26T07:47:18Z</time>
      </trkpt>
      <trkpt lat="45.21809" lon="5.67623">
        <ele>157.19</ele>
        <time>2017-03-26T07:47:19Z</time>
      </trkpt>
      <trkpt lat="45.21824" lon="5.67601">
        <ele>157.4</ele>
        <time>2017-03-26T07:47:20Z</time>
      </trkpt>
      <trkpt lat="45.21838" lon="5.6758">
        <ele>157.44</ele>
        <time>2017-03-26T07:47:21Z</time>
      </trkpt>
      <trkpt lat="45.21853" lon="5.67558">
        <ele>157.53</ele>
        <time>2017-03-26T07:47:22Z</time>
      </trkpt>
      <trkpt lat="45.21868" lon="5.67537">
        <ele>157.78</ele>
        <time>2017-03-26T07:47:23Z</time>
      </trkpt>
      <trkpt lat="45.21883" lon="5.67516">
        <ele>157.92</ele>
        <time>2017-03-26T07:47:24Z</time>
      </trkpt>
      <trkpt lat="45.21898" lon="5.67495">
        <ele>157.94</ele>
        <time>2017-03-26T07:47:25Z</time>
      </trkpt>
      <trkpt lat="45.21913" lon="5.67475">
        <ele>157.95</ele>
        <time>2017-03-26T07:47:26Z</time>
      </trkpt>
      <trkpt lat="45.21929" lon="5.67456">
        <ele>158.11</ele>
        <time>2017-03-26T07:47:27Z</time>
      </trkpt>
      <trkpt lat="45.21944" lon="5.67437">
        <ele>158.22</ele>
        <time>2017-03-26T07:47:28Z</time>
      </trkpt>
      <trkpt lat="45.2196" lon="5.67419">
        <ele>158.4</ele>
        <time>2017-03-26T07:47:29Z</time>
      </trkpt>
      <trkpt lat="45.21976" lon="5.67401">
        <ele>158.36</ele>
        <time>2017-03-26T07:47:30Z</time>
      </trkpt>
      <trkpt lat="45.21993" lon="5.67383">
        <ele>158.35</ele>
        <time>2017-03-26T07:47:31Z</time>
      </trkpt>
      <trkpt lat="45.2201" lon="5.67366">
        <ele>158.27</ele>
        <time>2017-03-26T07:47:32Z</time>
      </trkpt>
      <trkpt lat="45.22027" lon="5.67349">
        <ele>158.33</ele>
        <time>2017-03-26T07:47:33Z</time>
      </trkpt>
      <trkpt lat="45.22045" lon="5.67332">
        <ele>158.43</ele>
        <time>2017-03-26T07:47:34Z</time>
      </trkpt>
      <trkpt lat="45.22062" lon="5.67316">
        <ele>158.44</ele>
        <time>2017-03-26T07:47:35Z</time>
      </trkpt>
      <trkpt lat="45.2208" lon="5.673">
        <ele>158.45</ele>
        <time>2017-03-26T07:47:36Z</time>
      </trkpt>
      <trkpt lat="45.22098" lon="5.67284">
        <ele>158.37</ele>
        <time>2017-03-26T07:47:37Z</time>
      </trkpt>
      <trkpt lat="45.22117" lon="5.67269">
        <ele>158.27</ele>
        <time>2017-03-26T07:47:38Z</time>
      </trkpt>
      <trkpt lat="45.22135" lon="5.67254">
        <ele>158.17</ele>
        <time>2017-03-26T07:47:39Z</time>
      </trkpt>
      <trkpt lat="45.22153" lon="5.67239">
        <ele>157.99</ele>
        <time>2017-03-26T07:47:40Z</time>
      </trkpt>
      <trkpt lat="45.22172" lon="5.67225">
        <ele>157.88</ele>
        <time>2017-03-26T07:47:41Z</time>
      </trkpt>
      <trkpt lat="45.22191" lon="5.6721">
        <ele>157.77</ele>
        <time>2017-03-26T07:47:42Z</time>
      </trkpt>
      <trkpt lat="45.22209" lon="5.67195">
        <ele>157.75</ele>
        <time>2017-03-26T07:47:43Z</time>
      </trkpt>
      <trkpt lat="45.22227" lon="5.67181">
        <ele>157.75</ele>
        <time>2017-03-26T07:47:44Z</time>
      </trkpt>
      <trkpt lat="45.22246" lon="5.67167">
        <ele>157.75</ele>
        <time>2017-03-26T07:47:45Z</time>
      </trkpt>
      <trkpt lat="45.22265" lon="5.67153">
        <ele>157.75</ele>
        <time>2017-03-26T07:47:46Z</time>
      </trkpt>
      <trkpt lat="45.22284" lon="5.67138">
        <ele>157.83</ele>
        <time>2017-03-26T07:47:47Z</time>
      </trkpt>
      <trkpt lat="45.22303" lon="5.67124">
        <ele>157.85</ele>
        <time>2017-03-26T07:47:48Z</time>
      </trkpt>
      <trkpt lat="45.22322" lon="5.6711">
        <ele>158.09</ele>
        <time>2017-03-26T07:47:49Z</time>
      </trkpt>
      <trkpt lat="45.22342" lon="5.67096">
        <ele>158.38</ele>
        <time>2017-03-26T07:47:50Z</time>
      </trkpt>
      <trkpt lat="45.22361" lon="5.67082">
        <ele>158.59</ele>
        <time>2017-03-26T07:47:51Z</time>
      </trkpt>
      <trkpt lat="45.22381" lon="5.67068">
        <ele>158.8</ele>
        <time>2017-03-26T07:47:52Z</time>
      </trkpt>
      <trkpt lat="45.22401" lon="5.67053">
        <ele>158.92</ele>
        <time>2017-03-26T07:47:53Z</time>
      </trkpt>
      <trkpt lat="45.22421" lon="5.67038">
        <ele>159.02</ele>
        <time>2017-03-26T07:47:54Z</time>
      </trkpt>
      <trkpt lat="45.22441" lon="5.67024">
        <ele>159.04</ele>
        <time>2017-03-26T07:47:55Z</time>
      </trkpt>
      <trkpt lat="45.2246" lon="5.67009">
        <ele>159.21</ele>
        <time>2017-03-26T07:47:56Z</time>
      </trkpt>
      <trkpt lat="45.2248" lon="5.66995">
        <ele>159.16</ele>
        <time>2017-03-26T07:47:57Z</time>
      </trkpt>
      <trkpt lat="45.225" lon="5.6698">
        <ele>159.23</ele>
        <time>2017-03-26T07:47:58Z</time>
      </trkpt>
      <trkpt lat="45.2252" lon="5.66965">
        <ele>159.33</ele>
        <time>2017-03-26T07:47:59Z</time>
      </trkpt>
      <trkpt lat="45.2254" lon="5.6695">
        <ele>159.42</ele>
        <time>2017-03-26T07:48:00Z</time>
      </trkpt>
      <trkpt lat="45.2256" lon="5.66935">
        <ele>159.52</ele>
        <time>2017-03-26T07:48:01Z</time>
      </trkpt>
      <trkpt lat="45.22579" lon="5.66921">
        <ele>159.46</ele>
        <time>2017-03-26T07:48:02Z</time>
      </trkpt>
      <trkpt lat="45.22599" lon="5.66905">
        <ele>159.37</ele>
        <time>2017-03-26T07:48:03Z</time>
      </trkpt>
      <trkpt lat="45.2262" lon="5.6689">
        <ele>159.19</ele>
        <time>2017-03-26T07:48:04Z</time>
      </trkpt>
      <trkpt lat="45.2264" lon="5.66875">
        <ele>159</ele>
        <time>2017-03-26T07:48:05Z</time>
      </trkpt>
      <trkpt lat="45.2266" lon="5.6686">
        <ele>158.8</ele>
        <time>2017-03-26T07:48:06Z</time>
      </trkpt>
      <trkpt lat="45.22681" lon="5.66845">
        <ele>158.52</ele>
        <time>2017-03-26T07:48:07Z</time>
      </trkpt>
      <trkpt lat="45.22702" lon="5.66829">
        <ele>158.22</ele>
        <time>2017-03-26T07:48:08Z</time>
      </trkpt>
      <trkpt lat="45.22722" lon="5.66814">
        <ele>158</ele>
        <time>2017-03-26T07:48:09Z</time>
      </trkpt>
      <trkpt lat="45.22743" lon="5.66799">
        <ele>157.72</ele>
        <time>2017-03-26T07:48:10Z</time>
      </trkpt>
      <trkpt lat="45.22764" lon="5.66783">
        <ele>157.5</ele>
        <time>2017-03-26T07:48:11Z</time>
      </trkpt>
      <trkpt lat="45.22785" lon="5.66767">
        <ele>157.3</ele>
        <time>2017-03-26T07:48:12Z</time>
      </trkpt>
      <trkpt lat="45.22805" lon="5.66751">
        <ele>157.02</ele>
        <time>2017-03-26T07:48:13Z</time>
      </trkpt>
      <trkpt lat="45.22826" lon="5.66736">
        <ele>156.8</ele>
        <time>2017-03-26T07:48:14Z</time>
      </trkpt>
      <trkpt lat="45.22848" lon="5.6672">
        <ele>156.68</ele>
        <time>2017-03-26T07:48:15Z</time>
      </trkpt>
      <trkpt lat="45.22869" lon="5.66704">
        <ele>156.58</ele>
        <time>2017-03-26T07:48:16Z</time>
      </trkpt>
      <trkpt lat="45.2289" lon="5.66689">
        <ele>156.39</ele>
        <time>2017-03-26T07:48:17Z</time>
      </trkpt>
      <trkpt lat="45.22912" lon="5.66673">
        <ele>156.28</ele>
        <time>2017-03-26T07:48:18Z</time>
      </trkpt>
      <trkpt lat="45.22933" lon="5.66658">
        <ele>156.25</ele>
        <time>2017-03-26T07:48:19Z</time>
      </trkpt>
      <trkpt lat="45.22955" lon="5.66643">
        <ele>156.25</ele>
        <time>2017-03-26T07:48:20Z</time>
      </trkpt>
      <trkpt lat="45.22976" lon="5.66627">
        <ele>156.17</ele>
        <time>2017-03-26T07:48:21Z</time>
      </trkpt>
      <trkpt lat="45.22998" lon="5.66612">
        <ele>156.07</ele>
        <time>2017-03-26T07:48:22Z</time>
      </trkpt>
      <trkpt lat="45.2302" lon="5.66597">
        <ele>155.97</ele>
        <time>2017-03-26T07:48:23Z</time>
      </trkpt>
      <trkpt lat="45.23042" lon="5.66582">
        <ele>155.87</ele>
        <time>2017-03-26T07:48:24Z</time>
      </trkpt>
      <trkpt lat="45.23064" lon="5.66567">
        <ele>155.77</ele>
        <time>2017-03-26T07:48:25Z</time>
      </trkpt>
      <trkpt lat="45.23086" lon="5.66552">
        <ele>155.67</ele>
        <time>2017-03-26T07:48:26Z</time>
      </trkpt>
      <trkpt lat="45.23109" lon="5.66538">
        <ele>155.57</ele>
        <time>2017-03-26T07:48:27Z</time>
      </trkpt>
      <trkpt lat="45.23131" lon="5.66523">
        <ele>155.39</ele>
        <time>2017-03-26T07:48:28Z</time>
      </trkpt>
      <trkpt lat="45.23154" lon="5.6651">
        <ele>155.28</ele>
        <time>2017-03-26T07:48:29Z</time>
      </trkpt>
      <trkpt lat="45.23177" lon="5.66496">
        <ele>155.17</ele>
        <time>2017-03-26T07:48:30Z</time>
      </trkpt>
      <trkpt lat="45.232" lon="5.66482">
        <ele>154.99</ele>
        <time>2017-03-26T07:48:31Z</time>
      </trkpt>
      <trkpt lat="45.23223" lon="5.66468">
        <ele>154.88</ele>
        <time>2017-03-26T07:48:32Z</time>
      </trkpt>
      <trkpt lat="45.23246" lon="5.66454">
        <ele>154.77</ele>
        <time>2017-03-26T07:48:33Z</time>
      </trkpt>
      <trkpt lat="45.23269" lon="5.66441">
        <ele>154.67</ele>
        <time>2017-03-26T07:48:34Z</time>
      </trkpt>
      <trkpt lat="45.23292" lon="5.66428">
        <ele>154.57</ele>
        <time>2017-03-26T07:48:35Z</time>
      </trkpt>
      <trkpt lat="45.23315" lon="5.66416">
        <ele>154.55</ele>
        <time>2017-03-26T07:48:36Z</time>
      </trkpt>
      <trkpt lat="45.23339" lon="5.66403">
        <ele>154.47</ele>
        <time>2017-03-26T07:48:37Z</time>
      </trkpt>
      <trkpt lat="45.23362" lon="5.6639">
        <ele>154.37</ele>
        <time>2017-03-26T07:48:38Z</time>
      </trkpt>
      <trkpt lat="45.23385" lon="5.66377">
        <ele>154.35</ele>
        <time>2017-03-26T07:48:39Z</time>
      </trkpt>
      <trkpt lat="45.23409" lon="5.66365">
        <ele>154.35</ele>
        <time>2017-03-26T07:48:40Z</time>
      </trkpt>
      <trkpt lat="45.23432" lon="5.66353">
        <ele>154.43</ele>
        <time>2017-03-26T07:48:41Z</time>
      </trkpt>
      <trkpt lat="45.23456" lon="5.66342">
        <ele>154.37</ele>
        <time>2017-03-26T07:48:42Z</time>
      </trkpt>
      <trkpt lat="45.2348" lon="5.6633">
        <ele>154.35</ele>
        <time>2017-03-26T07:48:43Z</time>
      </trkpt>
      <trkpt lat="45.23503" lon="5.66318">
        <ele>154.27</ele>
        <time>2017-03-26T07:48:44Z</time>
      </trkpt>
      <trkpt lat="45.23527" lon="5.66307">
        <ele>154.25</ele>
        <time>2017-03-26T07:48:45Z</time>
      </trkpt>
      <trkpt lat="45.23551" lon="5.66295">
        <ele>154.25</ele>
        <time>2017-03-26T07:48:46Z</time>
      </trkpt>
      <trkpt lat="45.23575" lon="5.66284">
        <ele>154.17</ele>
        <time>2017-03-26T07:48:47Z</time>
      </trkpt>
      <trkpt lat="45.23599" lon="5.66273">
        <ele>154.15</ele>
        <time>2017-03-26T07:48:48Z</time>
      </trkpt>
      <trkpt lat="45.23623" lon="5.6626">
        <ele>154.23</ele>
        <time>2017-03-26T07:48:49Z</time>
      </trkpt>
      <trkpt lat="45.23647" lon="5.66248">
        <ele>154.41</ele>
        <time>2017-03-26T07:48:50Z</time>
      </trkpt>
      <trkpt lat="45.23671" lon="5.66235">
        <ele>154.44</ele>
        <time>2017-03-26T07:48:51Z</time>
      </trkpt>
      <trkpt lat="45.23694" lon="5.66223">
        <ele>154.53</ele>
        <time>2017-03-26T07:48:52Z</time>
      </trkpt>
      <trkpt lat="45.23718" lon="5.6621">
        <ele>154.7</ele>
        <time>2017-03-26T07:48:53Z</time>
      </trkpt>
      <trkpt lat="45.23742" lon="5.66197">
        <ele>154.74</ele>
        <time>2017-03-26T07:48:54Z</time>
      </trkpt>
      <trkpt lat="45.23766" lon="5.66183">
        <ele>154.83</ele>
        <time>2017-03-26T07:48:55Z</time>
      </trkpt>
      <trkpt lat="45.2379" lon="5.6617">
        <ele>154.92</ele>
        <time>2017-03-26T07:48:56Z</time>
      </trkpt>
      <trkpt lat="45.23814" lon="5.66156">
        <ele>154.94</ele>
        <time>2017-03-26T07:48:57Z</time>
      </trkpt>
      <trkpt lat="45.23837" lon="5.66142">
        <ele>154.95</ele>
        <time>2017-03-26T07:48:58Z</time>
      </trkpt>
      <trkpt lat="45.23861" lon="5.66128">
        <ele>155.03</ele>
        <time>2017-03-26T07:48:59Z</time>
      </trkpt>
      <trkpt lat="45.23885" lon="5.66114">
        <ele>155.2</ele>
        <time>2017-03-26T07:49:00Z</time>
      </trkpt>
      <trkpt lat="45.23908" lon="5.661">
        <ele>155.32</ele>
        <time>2017-03-26T07:49:01Z</time>
      </trkpt>
      <trkpt lat="45.23932" lon="5.66085">
        <ele>155.5</ele>
        <time>2017-03-26T07:49:02Z</time>
      </trkpt>
      <trkpt lat="45.23956" lon="5.6607">
        <ele>155.62</ele>
        <time>2017-03-26T07:49:03Z</time>
      </trkpt>
      <trkpt lat="45.23979" lon="5.66054">
        <ele>155.72</ele>
        <time>2017-03-26T07:49:04Z</time>
      </trkpt>
      <trkpt lat="45.24003" lon="5.66039">
        <ele>155.74</ele>
        <time>2017-03-26T07:49:05Z</time>
      </trkpt>
      <trkpt lat="45.24027" lon="5.66023">
        <ele>155.67</ele>
        <time>2017-03-26T07:49:06Z</time>
      </trkpt>
      <trkpt lat="45.24051" lon="5.66006">
        <ele>155.57</ele>
        <time>2017-03-26T07:49:07Z</time>
      </trkpt>
      <trkpt lat="45.24075" lon="5.6599">
        <ele>155.39</ele>
        <time>2017-03-26T07:49:08Z</time>
      </trkpt>
      <trkpt lat="45.24099" lon="5.65973">
        <ele>155.36</ele>
        <time>2017-03-26T07:49:09Z</time>
      </trkpt>
      <trkpt lat="45.24123" lon="5.65956">
        <ele>155.19</ele>
        <time>2017-03-26T07:49:10Z</time>
      </trkpt>
      <trkpt lat="45.24147" lon="5.65939">
        <ele>155.08</ele>
        <time>2017-03-26T07:49:11Z</time>
      </trkpt>
      <trkpt lat="45.24171" lon="5.65921">
        <ele>154.97</ele>
        <time>2017-03-26T07:49:12Z</time>
      </trkpt>
      <trkpt lat="45.24195" lon="5.65903">
        <ele>154.71</ele>
        <time>2017-03-26T07:49:13Z</time>
      </trkpt>
      <trkpt lat="45.24219" lon="5.65886">
        <ele>154.26</ele>
        <time>2017-03-26T07:49:14Z</time>
      </trkpt>
      <trkpt lat="45.24243" lon="5.65868">
        <ele>154.17</ele>
        <time>2017-03-26T07:49:15Z</time>
      </trkpt>
      <trkpt lat="45.24268" lon="5.6585">
        <ele>154.15</ele>
        <time>2017-03-26T07:49:16Z</time>
      </trkpt>
      <trkpt lat="45.24292" lon="5.65833">
        <ele>154.23</ele>
        <time>2017-03-26T07:49:17Z</time>
      </trkpt>
      <trkpt lat="45.24316" lon="5.65815">
        <ele>154.17</ele>
        <time>2017-03-26T07:49:18Z</time>
      </trkpt>
      <trkpt lat="45.24341" lon="5.65798">
        <ele>154.07</ele>
        <time>2017-03-26T07:49:19Z</time>
      </trkpt>
      <trkpt lat="45.24365" lon="5.6578">
        <ele>154.05</ele>
        <time>2017-03-26T07:49:20Z</time>
      </trkpt>
      <trkpt lat="45.2439" lon="5.65763">
        <ele>154.05</ele>
        <time>2017-03-26T07:49:21Z</time>
      </trkpt>
      <trkpt lat="45.24414" lon="5.65745">
        <ele>154.21</ele>
        <time>2017-03-26T07:49:22Z</time>
      </trkpt>
      <trkpt lat="45.24438" lon="5.65728">
        <ele>154.4</ele>
        <time>2017-03-26T07:49:23Z</time>
      </trkpt>
      <trkpt lat="45.24462" lon="5.6571">
        <ele>154.52</ele>
        <time>2017-03-26T07:49:24Z</time>
      </trkpt>
      <trkpt lat="45.24486" lon="5.65693">
        <ele>154.46</ele>
        <time>2017-03-26T07:49:25Z</time>
      </trkpt>
      <trkpt lat="45.2451" lon="5.65675">
        <ele>154.37</ele>
        <time>2017-03-26T07:49:26Z</time>
      </trkpt>
      <trkpt lat="45.24533" lon="5.65658">
        <ele>154.35</ele>
        <time>2017-03-26T07:49:27Z</time>
      </trkpt>
      <trkpt lat="45.24557" lon="5.65641">
        <ele>154.27</ele>
        <time>2017-03-26T07:49:28Z</time>
      </trkpt>
      <trkpt lat="45.24581" lon="5.65623">
        <ele>154.17</ele>
        <time>2017-03-26T07:49:29Z</time>
      </trkpt>
      <trkpt lat="45.24605" lon="5.65606">
        <ele>154.07</ele>
        <time>2017-03-26T07:49:30Z</time>
      </trkpt>
      <trkpt lat="45.24628" lon="5.65588">
        <ele>154.05</ele>
        <time>2017-03-26T07:49:31Z</time>
      </trkpt>
      <trkpt lat="45.24652" lon="5.65571">
        <ele>154.05</ele>
        <time>2017-03-26T07:49:32Z</time>
      </trkpt>
      <trkpt lat="45.24675" lon="5.65554">
        <ele>153.97</ele>
        <time>2017-03-26T07:49:33Z</time>
      </trkpt>
      <trkpt lat="45.24698" lon="5.65537">
        <ele>153.87</ele>
        <time>2017-03-26T07:49:34Z</time>
      </trkpt>
      <trkpt lat="45.24721" lon="5.6552">
        <ele>153.77</ele>
        <time>2017-03-26T07:49:35Z</time>
      </trkpt>
      <trkpt lat="45.24745" lon="5.65502">
        <ele>153.83</ele>
        <time>2017-03-26T07:49:36Z</time>
      </trkpt>
      <trkpt lat="45.24768" lon="5.65485">
        <ele>153.85</ele>
        <time>2017-03-26T07:49:37Z</time>
      </trkpt>
      <trkpt lat="45.24791" lon="5.65466">
        <ele>154.09</ele>
        <time>2017-03-26T07:49:38Z</time>
      </trkpt>
      <trkpt lat="45.24813" lon="5.65448">
        <ele>154.22</ele>
        <time>2017-03-26T07:49:39Z</time>
      </trkpt>
      <trkpt lat="45.24836" lon="5.65429">
        <ele>154.56</ele>
        <time>2017-03-26T07:49:40Z</time>
      </trkpt>
      <trkpt lat="45.24858" lon="5.65409">
        <ele>154.55</ele>
        <time>2017-03-26T07:49:41Z</time>
      </trkpt>
      <trkpt lat="45.24881" lon="5.65389">
        <ele>154.63</ele>
        <time>2017-03-26T07:49:42Z</time>
      </trkpt>
      <trkpt lat="45.24903" lon="5.65367">
        <ele>154.57</ele>
        <time>2017-03-26T07:49:43Z</time>
      </trkpt>
      <trkpt lat="45.24924" lon="5.65345">
        <ele>154.31</ele>
        <time>2017-03-26T07:49:44Z</time>
      </trkpt>
      <trkpt lat="45.24946" lon="5.65322">
        <ele>154.34</ele>
        <time>2017-03-26T07:49:45Z</time>
      </trkpt>
      <trkpt lat="45.24967" lon="5.65299">
        <ele>154.35</ele>
        <time>2017-03-26T07:49:46Z</time>
      </trkpt>
      <trkpt lat="45.24988" lon="5.65275">
        <ele>154.11</ele>
        <time>2017-03-26T07:49:47Z</time>
      </trkpt>
      <trkpt lat="45.25008" lon="5.65251">
        <ele>153.98</ele>
        <time>2017-03-26T07:49:48Z</time>
      </trkpt>
      <trkpt lat="45.25028" lon="5.65226">
        <ele>153.88</ele>
        <time>2017-03-26T07:49:49Z</time>
      </trkpt>
      <trkpt lat="45.25048" lon="5.65201">
        <ele>153.93</ele>
        <time>2017-03-26T07:49:50Z</time>
      </trkpt>
      <trkpt lat="45.25068" lon="5.65175">
        <ele>154.03</ele>
        <time>2017-03-26T07:49:51Z</time>
      </trkpt>
      <trkpt lat="45.25088" lon="5.65149">
        <ele>153.96</ele>
        <time>2017-03-26T07:49:52Z</time>
      </trkpt>
      <trkpt lat="45.25107" lon="5.65124">
        <ele>153.87</ele>
        <time>2017-03-26T07:49:53Z</time>
      </trkpt>
      <trkpt lat="45.25127" lon="5.65098">
        <ele>153.69</ele>
        <time>2017-03-26T07:49:54Z</time>
      </trkpt>
      <trkpt lat="45.25146" lon="5.65073">
        <ele>153.66</ele>
        <time>2017-03-26T07:49:55Z</time>
      </trkpt>
      <trkpt lat="45.25165" lon="5.65048">
        <ele>153.57</ele>
        <time>2017-03-26T07:49:56Z</time>
      </trkpt>
      <trkpt lat="45.25184" lon="5.65022">
        <ele>153.55</ele>
        <time>2017-03-26T07:49:57Z</time>
      </trkpt>
      <trkpt lat="45.25203" lon="5.64997">
        <ele>153.71</ele>
        <time>2017-03-26T07:49:58Z</time>
      </trkpt>
      <trkpt lat="45.25222" lon="5.64971">
        <ele>153.9</ele>
        <time>2017-03-26T07:49:59Z</time>
      </trkpt>
      <trkpt lat="45.25241" lon="5.64946">
        <ele>154.02</ele>
        <time>2017-03-26T07:50:00Z</time>
      </trkpt>
      <trkpt lat="45.2526" lon="5.64921">
        <ele>154.28</ele>
        <time>2017-03-26T07:50:01Z</time>
      </trkpt>
      <trkpt lat="45.25279" lon="5.64895">
        <ele>154.42</ele>
        <time>2017-03-26T07:50:02Z</time>
      </trkpt>
      <trkpt lat="45.25299" lon="5.64869">
        <ele>154.52</ele>
        <time>2017-03-26T07:50:03Z</time>
      </trkpt>
      <trkpt lat="45.25318" lon="5.64844">
        <ele>154.54</ele>
        <time>2017-03-26T07:50:04Z</time>
      </trkpt>
      <trkpt lat="45.25337" lon="5.64818">
        <ele>154.63</ele>
        <time>2017-03-26T07:50:05Z</time>
      </trkpt>
      <trkpt lat="45.25356" lon="5.64792">
        <ele>154.64</ele>
        <time>2017-03-26T07:50:06Z</time>
      </trkpt>
      <trkpt lat="45.25375" lon="5.64766">
        <ele>154.65</ele>
        <time>2017-03-26T07:50:07Z</time>
      </trkpt>
      <trkpt lat="45.25394" lon="5.64741">
        <ele>154.49</ele>
        <time>2017-03-26T07:50:08Z</time>
      </trkpt>
      <trkpt lat="45.25413" lon="5.64715">
        <ele>154.22</ele>
        <time>2017-03-26T07:50:09Z</time>
      </trkpt>
      <trkpt lat="45.25431" lon="5.64689">
        <ele>154.08</ele>
        <time>2017-03-26T07:50:10Z</time>
      </trkpt>
      <trkpt lat="45.2545" lon="5.64662">
        <ele>153.9</ele>
        <time>2017-03-26T07:50:11Z</time>
      </trkpt>
      <trkpt lat="45.25468" lon="5.64635">
        <ele>153.78</ele>
        <time>2017-03-26T07:50:12Z</time>
      </trkpt>
      <trkpt lat="45.25485" lon="5.64608">
        <ele>153.67</ele>
        <time>2017-03-26T07:50:13Z</time>
      </trkpt>
      <trkpt lat="45.25502" lon="5.64581">
        <ele>153.57</ele>
        <time>2017-03-26T07:50:14Z</time>
      </trkpt>
      <trkpt lat="45.25519" lon="5.64554">
        <ele>153.39</ele>
        <time>2017-03-26T07:50:15Z</time>
      </trkpt>
      <trkpt lat="45.25536" lon="5.64526">
        <ele>153.2</ele>
        <time>2017-03-26T07:50:16Z</time>
      </trkpt>
      <trkpt lat="45.25553" lon="5.64498">
        <ele>153</ele>
        <time>2017-03-26T07:50:17Z</time>
      </trkpt>
      <trkpt lat="45.25569" lon="5.64469">
        <ele>152.88</ele>
        <time>2017-03-26T07:50:18Z</time>
      </trkpt>
      <trkpt lat="45.25586" lon="5.64441">
        <ele>152.77</ele>
        <time>2017-03-26T07:50:19Z</time>
      </trkpt>
      <trkpt lat="45.25602" lon="5.64413">
        <ele>152.67</ele>
        <time>2017-03-26T07:50:20Z</time>
      </trkpt>
      <trkpt lat="45.25618" lon="5.64384">
        <ele>152.57</ele>
        <time>2017-03-26T07:50:21Z</time>
      </trkpt>
      <trkpt lat="45.25633" lon="5.64355">
        <ele>152.63</ele>
        <time>2017-03-26T07:50:22Z</time>
      </trkpt>
      <trkpt lat="45.25648" lon="5.64327">
        <ele>152.65</ele>
        <time>2017-03-26T07:50:23Z</time>
      </trkpt>
      <trkpt lat="45.25664" lon="5.64298">
        <ele>152.65</ele>
        <time>2017-03-26T07:50:24Z</time>
      </trkpt>
      <trkpt lat="45.25679" lon="5.64269">
        <ele>152.57</ele>
        <time>2017-03-26T07:50:25Z</time>
      </trkpt>
      <trkpt lat="45.25694" lon="5.64241">
        <ele>152.47</ele>
        <time>2017-03-26T07:50:26Z</time>
      </trkpt>
      <trkpt lat="45.25709" lon="5.64212">
        <ele>152.29</ele>
        <time>2017-03-26T07:50:27Z</time>
      </trkpt>
      <trkpt lat="45.25724" lon="5.64184">
        <ele>152.18</ele>
        <time>2017-03-26T07:50:28Z</time>
      </trkpt>
      <trkpt lat="45.25739" lon="5.64155">
        <ele>152.15</ele>
        <time>2017-03-26T07:50:29Z</time>
      </trkpt>
      <trkpt lat="45.25754" lon="5.64127">
        <ele>152.07</ele>
        <time>2017-03-26T07:50:30Z</time>
      </trkpt>
      <trkpt lat="45.25769" lon="5.64099">
        <ele>152.13</ele>
        <time>2017-03-26T07:50:31Z</time>
      </trkpt>
      <trkpt lat="45.25785" lon="5.6407">
        <ele>152.07</ele>
        <time>2017-03-26T07:50:32Z</time>
      </trkpt>
      <trkpt lat="45.25801" lon="5.64042">
        <ele>151.89</ele>
        <time>2017-03-26T07:50:33Z</time>
      </trkpt>
      <trkpt lat="45.25816" lon="5.64014">
        <ele>151.78</ele>
        <time>2017-03-26T07:50:34Z</time>
      </trkpt>
      <trkpt lat="45.25832" lon="5.63987">
        <ele>151.59</ele>
        <time>2017-03-26T07:50:35Z</time>
      </trkpt>
      <trkpt lat="45.25848" lon="5.6396">
        <ele>151.48</ele>
        <time>2017-03-26T07:50:36Z</time>
      </trkpt>
      <trkpt lat="45.25864" lon="5.63932">
        <ele>151.37</ele>
        <time>2017-03-26T07:50:37Z</time>
      </trkpt>
      <trkpt lat="45.25881" lon="5.63905">
        <ele>151.43</ele>
        <time>2017-03-26T07:50:38Z</time>
      </trkpt>
      <trkpt lat="45.25898" lon="5.63879">
        <ele>151.45</ele>
        <time>2017-03-26T07:50:39Z</time>
      </trkpt>
      <trkpt lat="45.25915" lon="5.63852">
        <ele>151.53</ele>
        <time>2017-03-26T07:50:40Z</time>
      </trkpt>
      <trkpt lat="45.25932" lon="5.63827">
        <ele>151.46</ele>
        <time>2017-03-26T07:50:41Z</time>
      </trkpt>
      <trkpt lat="45.25951" lon="5.63802">
        <ele>151.45</ele>
        <time>2017-03-26T07:50:42Z</time>
      </trkpt>
      <trkpt lat="45.25969" lon="5.63777">
        <ele>151.61</ele>
        <time>2017-03-26T07:50:43Z</time>
      </trkpt>
      <trkpt lat="45.25988" lon="5.63752">
        <ele>151.72</ele>
        <time>2017-03-26T07:50:44Z</time>
      </trkpt>
      <trkpt lat="45.26007" lon="5.63727">
        <ele>151.82</ele>
        <time>2017-03-26T07:50:45Z</time>
      </trkpt>
      <trkpt lat="45.26026" lon="5.63702">
        <ele>151.92</ele>
        <time>2017-03-26T07:50:46Z</time>
      </trkpt>
      <trkpt lat="45.26045" lon="5.63677">
        <ele>152.02</ele>
        <time>2017-03-26T07:50:47Z</time>
      </trkpt>
      <trkpt lat="45.26064" lon="5.63653">
        <ele>152.12</ele>
        <time>2017-03-26T07:50:48Z</time>
      </trkpt>
      <trkpt lat="45.26083" lon="5.63628">
        <ele>152.14</ele>
        <time>2017-03-26T07:50:49Z</time>
      </trkpt>
      <trkpt lat="45.26103" lon="5.63604">
        <ele>152.23</ele>
        <time>2017-03-26T07:50:50Z</time>
      </trkpt>
      <trkpt lat="45.26123" lon="5.6358">
        <ele>152.24</ele>
        <time>2017-03-26T07:50:51Z</time>
      </trkpt>
      <trkpt lat="45.26142" lon="5.63556">
        <ele>152.25</ele>
        <time>2017-03-26T07:50:52Z</time>
      </trkpt>
      <trkpt lat="45.26162" lon="5.63532">
        <ele>152.33</ele>
        <time>2017-03-26T07:50:53Z</time>
      </trkpt>
      <trkpt lat="45.26182" lon="5.63508">
        <ele>152.34</ele>
        <time>2017-03-26T07:50:54Z</time>
      </trkpt>
      <trkpt lat="45.26202" lon="5.63484">
        <ele>152.43</ele>
        <time>2017-03-26T07:50:55Z</time>
      </trkpt>
      <trkpt lat="45.26222" lon="5.6346">
        <ele>152.6</ele>
        <time>2017-03-26T07:50:56Z</time>
      </trkpt>
      <trkpt lat="45.26241" lon="5.63436">
        <ele>152.56</ele>
        <time>2017-03-26T07:50:57Z</time>
      </trkpt>
      <trkpt lat="45.26261" lon="5.63411">
        <ele>152.63</ele>
        <time>2017-03-26T07:50:58Z</time>
      </trkpt>
      <trkpt lat="45.2628" lon="5.63387">
        <ele>152.65</ele>
        <time>2017-03-26T07:50:59Z</time>
      </trkpt>
      <trkpt lat="45.263" lon="5.63363">
        <ele>152.65</ele>
        <time>2017-03-26T07:51:00Z</time>
      </trkpt>
      <trkpt lat="45.26319" lon="5.63339">
        <ele>152.65</ele>
        <time>2017-03-26T07:51:01Z</time>
      </trkpt>
      <trkpt lat="45.26339" lon="5.63315">
        <ele>152.65</ele>
        <time>2017-03-26T07:51:02Z</time>
      </trkpt>
      <trkpt lat="45.26359" lon="5.63291">
        <ele>152.65</ele>
        <time>2017-03-26T07:51:03Z</time>
      </trkpt>
      <trkpt lat="45.26379" lon="5.63266">
        <ele>152.65</ele>
        <time>2017-03-26T07:51:04Z</time>
      </trkpt>
      <trkpt lat="45.26399" lon="5.63242">
        <ele>152.65</ele>
        <time>2017-03-26T07:51:05Z</time>
      </trkpt>
      <trkpt lat="45.26419" lon="5.63218">
        <ele>152.73</ele>
        <time>2017-03-26T07:51:06Z</time>
      </trkpt>
      <trkpt lat="45.26439" lon="5.63194">
        <ele>152.9</ele>
        <time>2017-03-26T07:51:07Z</time>
      </trkpt>
      <trkpt lat="45.26459" lon="5.63169">
        <ele>153.1</ele>
        <time>2017-03-26T07:51:08Z</time>
      </trkpt>
      <trkpt lat="45.2648" lon="5.63144">
        <ele>153.3</ele>
        <time>2017-03-26T07:51:09Z</time>
      </trkpt>
      <trkpt lat="45.265" lon="5.63119">
        <ele>153.5</ele>
        <time>2017-03-26T07:51:10Z</time>
      </trkpt>
      <trkpt lat="45.26521" lon="5.63094">
        <ele>153.78</ele>
        <time>2017-03-26T07:51:11Z</time>
      </trkpt>
      <trkpt lat="45.26543" lon="5.6307">
        <ele>153.92</ele>
        <time>2017-03-26T07:51:12Z</time>
      </trkpt>
      <trkpt lat="45.26564" lon="5.63046">
        <ele>153.94</ele>
        <time>2017-03-26T07:51:13Z</time>
      </trkpt>
      <trkpt lat="45.26586" lon="5.63023">
        <ele>154.03</ele>
        <time>2017-03-26T07:51:14Z</time>
      </trkpt>
      <trkpt lat="45.26608" lon="5.63">
        <ele>154.12</ele>
        <time>2017-03-26T07:51:15Z</time>
      </trkpt>
      <trkpt lat="45.26631" lon="5.62979">
        <ele>154.14</ele>
        <time>2017-03-26T07:51:16Z</time>
      </trkpt>
      <trkpt lat="45.26653" lon="5.62958">
        <ele>154.07</ele>
        <time>2017-03-26T07:51:17Z</time>
      </trkpt>
      <trkpt lat="45.26676" lon="5.62937">
        <ele>154.13</ele>
        <time>2017-03-26T07:51:18Z</time>
      </trkpt>
      <trkpt lat="45.26699" lon="5.62918">
        <ele>154.15</ele>
        <time>2017-03-26T07:51:19Z</time>
      </trkpt>
      <trkpt lat="45.26723" lon="5.62898">
        <ele>154.23</ele>
        <time>2017-03-26T07:51:20Z</time>
      </trkpt>
      <trkpt lat="45.26747" lon="5.6288">
        <ele>154.24</ele>
        <time>2017-03-26T07:51:21Z</time>
      </trkpt>
      <trkpt lat="45.26771" lon="5.62862">
        <ele>154.41</ele>
        <time>2017-03-26T07:51:22Z</time>
      </trkpt>
      <trkpt lat="45.26796" lon="5.62845">
        <ele>154.52</ele>
        <time>2017-03-26T07:51:23Z</time>
      </trkpt>
      <trkpt lat="45.2682" lon="5.62828">
        <ele>154.62</ele>
        <time>2017-03-26T07:51:24Z</time>
      </trkpt>
      <trkpt lat="45.26845" lon="5.62812">
        <ele>154.72</ele>
        <time>2017-03-26T07:51:25Z</time>
      </trkpt>
      <trkpt lat="45.2687" lon="5.62797">
        <ele>154.82</ele>
        <time>2017-03-26T07:51:26Z</time>
      </trkpt>
      <trkpt lat="45.26895" lon="5.62783">
        <ele>154.84</ele>
        <time>2017-03-26T07:51:27Z</time>
      </trkpt>
      <trkpt lat="45.26921" lon="5.62769">
        <ele>154.93</ele>
        <time>2017-03-26T07:51:28Z</time>
      </trkpt>
      <trkpt lat="45.26946" lon="5.62756">
        <ele>154.86</ele>
        <time>2017-03-26T07:51:29Z</time>
      </trkpt>
      <trkpt lat="45.26971" lon="5.62743">
        <ele>154.93</ele>
        <time>2017-03-26T07:51:30Z</time>
      </trkpt>
      <trkpt lat="45.26996" lon="5.62731">
        <ele>154.95</ele>
        <time>2017-03-26T07:51:31Z</time>
      </trkpt>
      <trkpt lat="45.27022" lon="5.62719">
        <ele>155.03</ele>
        <time>2017-03-26T07:51:32Z</time>
      </trkpt>
      <trkpt lat="45.27047" lon="5.62706">
        <ele>155.28</ele>
        <time>2017-03-26T07:51:33Z</time>
      </trkpt>
      <trkpt lat="45.27072" lon="5.62694">
        <ele>155.34</ele>
        <time>2017-03-26T07:51:34Z</time>
      </trkpt>
      <trkpt lat="45.27097" lon="5.62682">
        <ele>155.27</ele>
        <time>2017-03-26T07:51:35Z</time>
      </trkpt>
      <trkpt lat="45.27122" lon="5.6267">
        <ele>154.61</ele>
        <time>2017-03-26T07:51:36Z</time>
      </trkpt>
      <trkpt lat="45.27147" lon="5.62659">
        <ele>153.76</ele>
        <time>2017-03-26T07:51:37Z</time>
      </trkpt>
      <trkpt lat="45.27172" lon="5.62647">
        <ele>153.19</ele>
        <time>2017-03-26T07:51:38Z</time>
      </trkpt>
      <trkpt lat="45.27197" lon="5.62634">
        <ele>153.08</ele>
        <time>2017-03-26T07:51:39Z</time>
      </trkpt>
      <trkpt lat="45.27221" lon="5.62622">
        <ele>153.13</ele>
        <time>2017-03-26T07:51:40Z</time>
      </trkpt>
      <trkpt lat="45.27246" lon="5.6261">
        <ele>153.15</ele>
        <time>2017-03-26T07:51:41Z</time>
      </trkpt>
      <trkpt lat="45.27271" lon="5.62598">
        <ele>153.23</ele>
        <time>2017-03-26T07:51:42Z</time>
      </trkpt>
      <trkpt lat="45.27296" lon="5.62586">
        <ele>153</ele>
        <time>2017-03-26T07:51:43Z</time>
      </trkpt>
      <trkpt lat="45.27321" lon="5.62574">
        <ele>152.8</ele>
        <time>2017-03-26T07:51:44Z</time>
      </trkpt>
      <trkpt lat="45.27345" lon="5.62562">
        <ele>152.68</ele>
        <time>2017-03-26T07:51:45Z</time>
      </trkpt>
      <trkpt lat="45.2737" lon="5.6255">
        <ele>152.58</ele>
        <time>2017-03-26T07:51:46Z</time>
      </trkpt>
      <trkpt lat="45.27395" lon="5.62539">
        <ele>152.55</ele>
        <time>2017-03-26T07:51:47Z</time>
      </trkpt>
      <trkpt lat="45.27419" lon="5.62527">
        <ele>152.47</ele>
        <time>2017-03-26T07:51:48Z</time>
      </trkpt>
      <trkpt lat="45.27444" lon="5.62515">
        <ele>152.29</ele>
        <time>2017-03-26T07:51:49Z</time>
      </trkpt>
      <trkpt lat="45.27469" lon="5.62503">
        <ele>152.1</ele>
        <time>2017-03-26T07:51:50Z</time>
      </trkpt>
      <trkpt lat="45.27493" lon="5.62492">
        <ele>151.66</ele>
        <time>2017-03-26T07:51:51Z</time>
      </trkpt>
      <trkpt lat="45.27518" lon="5.6248">
        <ele>151.17</ele>
        <time>2017-03-26T07:51:52Z</time>
      </trkpt>
      <trkpt lat="45.27543" lon="5.62469">
        <ele>150.51</ele>
        <time>2017-03-26T07:51:53Z</time>
      </trkpt>
      <trkpt lat="45.27568" lon="5.62458">
        <ele>150.14</ele>
        <time>2017-03-26T07:51:54Z</time>
      </trkpt>
      <trkpt lat="45.27592" lon="5.62446">
        <ele>149.83</ele>
        <time>2017-03-26T07:51:55Z</time>
      </trkpt>
      <trkpt lat="45.27617" lon="5.62435">
        <ele>149.6</ele>
        <time>2017-03-26T07:51:56Z</time>
      </trkpt>
      <trkpt lat="45.27642" lon="5.62424">
        <ele>149.48</ele>
        <time>2017-03-26T07:51:57Z</time>
      </trkpt>
      <trkpt lat="45.27668" lon="5.62412">
        <ele>149.3</ele>
        <time>2017-03-26T07:51:58Z</time>
      </trkpt>
      <trkpt lat="45.27693" lon="5.62401">
        <ele>149.26</ele>
        <time>2017-03-26T07:51:59Z</time>
      </trkpt>
      <trkpt lat="45.27718" lon="5.6239">
        <ele>149.25</ele>
        <time>2017-03-26T07:52:00Z</time>
      </trkpt>
      <trkpt lat="45.27743" lon="5.62378">
        <ele>149.33</ele>
        <time>2017-03-26T07:52:01Z</time>
      </trkpt>
      <trkpt lat="45.27768" lon="5.62367">
        <ele>149.51</ele>
        <time>2017-03-26T07:52:02Z</time>
      </trkpt>
      <trkpt lat="45.27793" lon="5.62356">
        <ele>149.7</ele>
        <time>2017-03-26T07:52:03Z</time>
      </trkpt>
      <trkpt lat="45.27818" lon="5.62344">
        <ele>149.82</ele>
        <time>2017-03-26T07:52:04Z</time>
      </trkpt>
      <trkpt lat="45.27843" lon="5.62333">
        <ele>149.92</ele>
        <time>2017-03-26T07:52:05Z</time>
      </trkpt>
      <trkpt lat="45.27868" lon="5.62323">
        <ele>150.02</ele>
        <time>2017-03-26T07:52:06Z</time>
      </trkpt>
      <trkpt lat="45.27893" lon="5.62312">
        <ele>150.12</ele>
        <time>2017-03-26T07:52:07Z</time>
      </trkpt>
      <trkpt lat="45.27918" lon="5.62302">
        <ele>150.14</ele>
        <time>2017-03-26T07:52:08Z</time>
      </trkpt>
      <trkpt lat="45.27942" lon="5.62292">
        <ele>150.15</ele>
        <time>2017-03-26T07:52:09Z</time>
      </trkpt>
      <trkpt lat="45.27965" lon="5.62283">
        <ele>150.07</ele>
        <time>2017-03-26T07:52:10Z</time>
      </trkpt>
      <trkpt lat="45.27987" lon="5.62274">
        <ele>149.89</ele>
        <time>2017-03-26T07:52:11Z</time>
      </trkpt>
      <trkpt lat="45.2801" lon="5.62266">
        <ele>149.7</ele>
        <time>2017-03-26T07:52:12Z</time>
      </trkpt>
      <trkpt lat="45.28032" lon="5.62258">
        <ele>149.58</ele>
        <time>2017-03-26T07:52:13Z</time>
      </trkpt>
      <trkpt lat="45.28053" lon="5.6225">
        <ele>149.31</ele>
        <time>2017-03-26T07:52:14Z</time>
      </trkpt>
      <trkpt lat="45.28074" lon="5.62244">
        <ele>149.1</ele>
        <time>2017-03-26T07:52:15Z</time>
      </trkpt>
      <trkpt lat="45.28095" lon="5.62239">
        <ele>148.98</ele>
        <time>2017-03-26T07:52:16Z</time>
      </trkpt>
      <trkpt lat="45.28116" lon="5.62235">
        <ele>148.96</ele>
        <time>2017-03-26T07:52:17Z</time>
      </trkpt>
      <trkpt lat="45.28137" lon="5.62232">
        <ele>148.87</ele>
        <time>2017-03-26T07:52:18Z</time>
      </trkpt>
      <trkpt lat="45.28157" lon="5.6223">
        <ele>148.77</ele>
        <time>2017-03-26T07:52:19Z</time>
      </trkpt>
      <trkpt lat="45.28175" lon="5.62228">
        <ele>148.59</ele>
        <time>2017-03-26T07:52:20Z</time>
      </trkpt>
      <trkpt lat="45.28193" lon="5.62227">
        <ele>148.4</ele>
        <time>2017-03-26T07:52:21Z</time>
      </trkpt>
      <trkpt lat="45.28209" lon="5.62225">
        <ele>148.28</ele>
        <time>2017-03-26T07:52:22Z</time>
      </trkpt>
      <trkpt lat="45.28225" lon="5.62224">
        <ele>148.17</ele>
        <time>2017-03-26T07:52:23Z</time>
      </trkpt>
      <trkpt lat="45.2824" lon="5.62223">
        <ele>148.15</ele>
        <time>2017-03-26T07:52:24Z</time>
      </trkpt>
      <trkpt lat="45.28253" lon="5.62222">
        <ele>148.15</ele>
        <time>2017-03-26T07:52:25Z</time>
      </trkpt>
      <trkpt lat="45.28267" lon="5.62221">
        <ele>147.99</ele>
        <time>2017-03-26T07:52:26Z</time>
      </trkpt>
      <trkpt lat="45.28279" lon="5.62221">
        <ele>147.8</ele>
        <time>2017-03-26T07:52:27Z</time>
      </trkpt>
      <trkpt lat="45.28291" lon="5.6222">
        <ele>147.68</ele>
        <time>2017-03-26T07:52:28Z</time>
      </trkpt>
      <trkpt lat="45.28303" lon="5.6222">
        <ele>147.73</ele>
        <time>2017-03-26T07:52:29Z</time>
      </trkpt>
      <trkpt lat="45.28313" lon="5.62217">
        <ele>147.91</ele>
        <time>2017-03-26T07:52:30Z</time>
      </trkpt>
      <trkpt lat="45.28322" lon="5.62215">
        <ele>147.94</ele>
        <time>2017-03-26T07:52:31Z</time>
      </trkpt>
      <trkpt lat="45.2833" lon="5.62212">
        <ele>147.79</ele>
        <time>2017-03-26T07:52:32Z</time>
      </trkpt>
      <trkpt lat="45.28337" lon="5.6221">
        <ele>147.76</ele>
        <time>2017-03-26T07:52:33Z</time>
      </trkpt>
      <trkpt lat="45.28341" lon="5.62209">
        <ele>147.83</ele>
        <time>2017-03-26T07:52:34Z</time>
      </trkpt>
      <trkpt lat="45.28345" lon="5.62207">
        <ele>147.85</ele>
        <time>2017-03-26T07:52:35Z</time>
      </trkpt>
      <trkpt lat="45.28348" lon="5.62207">
        <ele>147.85</ele>
        <time>2017-03-26T07:52:36Z</time>
      </trkpt>
      <trkpt lat="45.28349" lon="5.62206">
        <ele>147.93</ele>
        <time>2017-03-26T07:52:37Z</time>
      </trkpt>
      <trkpt lat="45.2835" lon="5.62206">
        <ele>148.02</ele>
        <time>2017-03-26T07:52:38Z</time>
      </trkpt>
      <trkpt lat="45.28352" lon="5.62205">
        <ele>148.12</ele>
        <time>2017-03-26T07:52:39Z</time>
      </trkpt>
      <trkpt lat="45.28357" lon="5.62204">
        <ele>148.14</ele>
        <time>2017-03-26T07:52:40Z</time>
      </trkpt>
      <trkpt lat="45.28364" lon="5.62202">
        <ele>147.91</ele>
        <time>2017-03-26T07:52:41Z</time>
      </trkpt>
      <trkpt lat="45.28374" lon="5.62199">
        <ele>147.62</ele>
        <time>2017-03-26T07:52:42Z</time>
      </trkpt>
      <trkpt lat="45.28388" lon="5.62193">
        <ele>147.32</ele>
        <time>2017-03-26T07:52:43Z</time>
      </trkpt>
      <trkpt lat="45.28403" lon="5.62185">
        <ele>147.18</ele>
        <time>2017-03-26T07:52:44Z</time>
      </trkpt>
      <trkpt lat="45.28421" lon="5.62175">
        <ele>147</ele>
        <time>2017-03-26T07:52:45Z</time>
      </trkpt>
      <trkpt lat="45.2844" lon="5.62164">
        <ele>146.96</ele>
        <time>2017-03-26T07:52:46Z</time>
      </trkpt>
      <trkpt lat="45.2846" lon="5.62153">
        <ele>147.03</ele>
        <time>2017-03-26T07:52:47Z</time>
      </trkpt>
      <trkpt lat="45.28481" lon="5.62142">
        <ele>147.13</ele>
        <time>2017-03-26T07:52:48Z</time>
      </trkpt>
      <trkpt lat="45.28502" lon="5.6213">
        <ele>147.06</ele>
        <time>2017-03-26T07:52:49Z</time>
      </trkpt>
      <trkpt lat="45.28524" lon="5.62119">
        <ele>147.13</ele>
        <time>2017-03-26T07:52:50Z</time>
      </trkpt>
      <trkpt lat="45.28547" lon="5.62107">
        <ele>147.31</ele>
        <time>2017-03-26T07:52:51Z</time>
      </trkpt>
      <trkpt lat="45.28571" lon="5.62097">
        <ele>147.5</ele>
        <time>2017-03-26T07:52:52Z</time>
      </trkpt>
      <trkpt lat="45.28595" lon="5.62088">
        <ele>147.7</ele>
        <time>2017-03-26T07:52:53Z</time>
      </trkpt>
      <trkpt lat="45.2862" lon="5.62081">
        <ele>147.98</ele>
        <time>2017-03-26T07:52:54Z</time>
      </trkpt>
      <trkpt lat="45.28645" lon="5.62074">
        <ele>148.2</ele>
        <time>2017-03-26T07:52:55Z</time>
      </trkpt>
      <trkpt lat="45.28671" lon="5.62068">
        <ele>148.56</ele>
        <time>2017-03-26T07:52:56Z</time>
      </trkpt>
      <trkpt lat="45.28697" lon="5.62062">
        <ele>148.95</ele>
        <time>2017-03-26T07:52:57Z</time>
      </trkpt>
      <trkpt lat="45.28723" lon="5.62057">
        <ele>149.19</ele>
        <time>2017-03-26T07:52:58Z</time>
      </trkpt>
      <trkpt lat="45.28749" lon="5.62052">
        <ele>149.4</ele>
        <time>2017-03-26T07:52:59Z</time>
      </trkpt>
      <trkpt lat="45.28775" lon="5.62047">
        <ele>149.52</ele>
        <time>2017-03-26T07:53:00Z</time>
      </trkpt>
      <trkpt lat="45.28801" lon="5.62043">
        <ele>149.7</ele>
        <time>2017-03-26T07:53:01Z</time>
      </trkpt>
      <trkpt lat="45.28827" lon="5.62039">
        <ele>149.82</ele>
        <time>2017-03-26T07:53:02Z</time>
      </trkpt>
      <trkpt lat="45.28853" lon="5.62035">
        <ele>150</ele>
        <time>2017-03-26T07:53:03Z</time>
      </trkpt>
      <trkpt lat="45.28879" lon="5.62031">
        <ele>150.04</ele>
        <time>2017-03-26T07:53:04Z</time>
      </trkpt>
      <trkpt lat="45.28905" lon="5.62027">
        <ele>150.21</ele>
        <time>2017-03-26T07:53:05Z</time>
      </trkpt>
      <trkpt lat="45.28931" lon="5.62023">
        <ele>150.32</ele>
        <time>2017-03-26T07:53:06Z</time>
      </trkpt>
      <trkpt lat="45.28958" lon="5.6202">
        <ele>150.34</ele>
        <time>2017-03-26T07:53:07Z</time>
      </trkpt>
      <trkpt lat="45.28984" lon="5.62017">
        <ele>150.51</ele>
        <time>2017-03-26T07:53:08Z</time>
      </trkpt>
      <trkpt lat="45.29011" lon="5.62014">
        <ele>150.62</ele>
        <time>2017-03-26T07:53:09Z</time>
      </trkpt>
      <trkpt lat="45.29038" lon="5.62011">
        <ele>150.8</ele>
        <time>2017-03-26T07:53:10Z</time>
      </trkpt>
      <trkpt lat="45.29064" lon="5.62009">
        <ele>151.08</ele>
        <time>2017-03-26T07:53:11Z</time>
      </trkpt>
      <trkpt lat="45.29091" lon="5.62007">
        <ele>151.22</ele>
        <time>2017-03-26T07:53:12Z</time>
      </trkpt>
      <trkpt lat="45.29119" lon="5.62006">
        <ele>151.48</ele>
        <time>2017-03-26T07:53:13Z</time>
      </trkpt>
      <trkpt lat="45.29146" lon="5.62006">
        <ele>151.78</ele>
        <time>2017-03-26T07:53:14Z</time>
      </trkpt>
      <trkpt lat="45.29173" lon="5.62007">
        <ele>151.99</ele>
        <time>2017-03-26T07:53:15Z</time>
      </trkpt>
      <trkpt lat="45.29201" lon="5.62008">
        <ele>152.12</ele>
        <time>2017-03-26T07:53:16Z</time>
      </trkpt>
      <trkpt lat="45.2923" lon="5.62008">
        <ele>152.22</ele>
        <time>2017-03-26T07:53:17Z</time>
      </trkpt>
      <trkpt lat="45.2926" lon="5.62009">
        <ele>152.24</ele>
        <time>2017-03-26T07:53:18Z</time>
      </trkpt>
      <trkpt lat="45.29292" lon="5.62011">
        <ele>152.25</ele>
        <time>2017-03-26T07:53:19Z</time>
      </trkpt>
      <trkpt lat="45.29324" lon="5.62014">
        <ele>152.41</ele>
        <time>2017-03-26T07:53:20Z</time>
      </trkpt>
      <trkpt lat="45.29356" lon="5.62019">
        <ele>152.6</ele>
        <time>2017-03-26T07:53:21Z</time>
      </trkpt>
      <trkpt lat="45.29389" lon="5.62025">
        <ele>152.72</ele>
        <time>2017-03-26T07:53:22Z</time>
      </trkpt>
      <trkpt lat="45.29421" lon="5.62032">
        <ele>152.82</ele>
        <time>2017-03-26T07:53:23Z</time>
      </trkpt>
      <trkpt lat="45.29453" lon="5.62039">
        <ele>152.92</ele>
        <time>2017-03-26T07:53:24Z</time>
      </trkpt>
      <trkpt lat="45.29485" lon="5.62046">
        <ele>152.7</ele>
        <time>2017-03-26T07:53:25Z</time>
      </trkpt>
      <trkpt lat="45.29517" lon="5.62054">
        <ele>152.58</ele>
        <time>2017-03-26T07:53:26Z</time>
      </trkpt>
      <trkpt lat="45.29549" lon="5.62062">
        <ele>152.72</ele>
        <time>2017-03-26T07:53:27Z</time>
      </trkpt>
      <trkpt lat="45.2958" lon="5.6207">
        <ele>152.74</ele>
        <time>2017-03-26T07:53:28Z</time>
      </trkpt>
      <trkpt lat="45.29611" lon="5.62079">
        <ele>152.67</ele>
        <time>2017-03-26T07:53:29Z</time>
      </trkpt>
      <trkpt lat="45.29642" lon="5.62088">
        <ele>152.65</ele>
        <time>2017-03-26T07:53:30Z</time>
      </trkpt>
      <trkpt lat="45.29672" lon="5.62097">
        <ele>152.65</ele>
        <time>2017-03-26T07:53:31Z</time>
      </trkpt>
      <trkpt lat="45.29702" lon="5.62106">
        <ele>152.73</ele>
        <time>2017-03-26T07:53:32Z</time>
      </trkpt>
      <trkpt lat="45.29732" lon="5.62115">
        <ele>152.83</ele>
        <time>2017-03-26T07:53:33Z</time>
      </trkpt>
      <trkpt lat="45.29762" lon="5.62123">
        <ele>153</ele>
        <time>2017-03-26T07:53:34Z</time>
      </trkpt>
      <trkpt lat="45.29792" lon="5.62132">
        <ele>153.28</ele>
        <time>2017-03-26T07:53:35Z</time>
      </trkpt>
      <trkpt lat="45.29821" lon="5.6214">
        <ele>153.34</ele>
        <time>2017-03-26T07:53:36Z</time>
      </trkpt>
      <trkpt lat="45.29851" lon="5.62147">
        <ele>153.43</ele>
        <time>2017-03-26T07:53:37Z</time>
      </trkpt>
      <trkpt lat="45.29881" lon="5.62153">
        <ele>153.6</ele>
        <time>2017-03-26T07:53:38Z</time>
      </trkpt>
      <trkpt lat="45.29911" lon="5.62159">
        <ele>153.8</ele>
        <time>2017-03-26T07:53:39Z</time>
      </trkpt>
      <trkpt lat="45.29941" lon="5.62163">
        <ele>153.92</ele>
        <time>2017-03-26T07:53:40Z</time>
      </trkpt>
      <trkpt lat="45.29971" lon="5.62166">
        <ele>154.02</ele>
        <time>2017-03-26T07:53:41Z</time>
      </trkpt>
      <trkpt lat="45.30002" lon="5.62168">
        <ele>154.04</ele>
        <time>2017-03-26T07:53:42Z</time>
      </trkpt>
      <trkpt lat="45.30033" lon="5.6217">
        <ele>153.89</ele>
        <time>2017-03-26T07:53:43Z</time>
      </trkpt>
      <trkpt lat="45.30065" lon="5.6217">
        <ele>153.62</ele>
        <time>2017-03-26T07:53:44Z</time>
      </trkpt>
      <trkpt lat="45.30098" lon="5.6217">
        <ele>153.24</ele>
        <time>2017-03-26T07:53:45Z</time>
      </trkpt>
      <trkpt lat="45.30131" lon="5.62168">
        <ele>152.77</ele>
        <time>2017-03-26T07:53:46Z</time>
      </trkpt>
      <trkpt lat="45.30164" lon="5.62165">
        <ele>152.11</ele>
        <time>2017-03-26T07:53:47Z</time>
      </trkpt>
      <trkpt lat="45.30197" lon="5.6216">
        <ele>151.5</ele>
        <time>2017-03-26T07:53:48Z</time>
      </trkpt>
      <trkpt lat="45.3023" lon="5.62156">
        <ele>150.82</ele>
        <time>2017-03-26T07:53:49Z</time>
      </trkpt>
      <trkpt lat="45.30262" lon="5.62151">
        <ele>150.04</ele>
        <time>2017-03-26T07:53:50Z</time>
      </trkpt>
      <trkpt lat="45.30295" lon="5.62145">
        <ele>149.65</ele>
        <time>2017-03-26T07:53:51Z</time>
      </trkpt>
      <trkpt lat="45.30327" lon="5.62138">
        <ele>149.49</ele>
        <time>2017-03-26T07:53:52Z</time>
      </trkpt>
      <trkpt lat="45.30359" lon="5.62129">
        <ele>149.38</ele>
        <time>2017-03-26T07:53:53Z</time>
      </trkpt>
      <trkpt lat="45.30392" lon="5.6212">
        <ele>148.87</ele>
        <time>2017-03-26T07:53:54Z</time>
      </trkpt>
      <trkpt lat="45.30424" lon="5.6211">
        <ele>148.13</ele>
        <time>2017-03-26T07:53:55Z</time>
      </trkpt>
      <trkpt lat="45.30456" lon="5.62098">
        <ele>147.35</ele>
        <time>2017-03-26T07:53:56Z</time>
      </trkpt>
      <trkpt lat="45.30488" lon="5.62085">
        <ele>146.87</ele>
        <time>2017-03-26T07:53:57Z</time>
      </trkpt>
      <trkpt lat="45.30519" lon="5.6207">
        <ele>146.45</ele>
        <time>2017-03-26T07:53:58Z</time>
      </trkpt>
      <trkpt lat="45.30549" lon="5.62055">
        <ele>146.05</ele>
        <time>2017-03-26T07:53:59Z</time>
      </trkpt>
      <trkpt lat="45.3058" lon="5.62038">
        <ele>145.49</ele>
        <time>2017-03-26T07:54:00Z</time>
      </trkpt>
      <trkpt lat="45.3061" lon="5.62022">
        <ele>145.14</ele>
        <time>2017-03-26T07:54:01Z</time>
      </trkpt>
      <trkpt lat="45.30641" lon="5.62005">
        <ele>144.51</ele>
        <time>2017-03-26T07:54:02Z</time>
      </trkpt>
      <trkpt lat="45.30671" lon="5.61987">
        <ele>144.38</ele>
        <time>2017-03-26T07:54:03Z</time>
      </trkpt>
      <trkpt lat="45.30701" lon="5.61969">
        <ele>143.96</ele>
        <time>2017-03-26T07:54:04Z</time>
      </trkpt>
      <trkpt lat="45.30731" lon="5.6195">
        <ele>143.47</ele>
        <time>2017-03-26T07:54:05Z</time>
      </trkpt>
      <trkpt lat="45.30761" lon="5.6193">
        <ele>142.97</ele>
        <time>2017-03-26T07:54:06Z</time>
      </trkpt>
      <trkpt lat="45.30791" lon="5.6191">
        <ele>142.47</ele>
        <time>2017-03-26T07:54:07Z</time>
      </trkpt>
      <trkpt lat="45.30821" lon="5.6189">
        <ele>141.89</ele>
        <time>2017-03-26T07:54:08Z</time>
      </trkpt>
      <trkpt lat="45.30851" lon="5.61869">
        <ele>141.38</ele>
        <time>2017-03-26T07:54:09Z</time>
      </trkpt>
      <trkpt lat="45.3088" lon="5.61848">
        <ele>141.19</ele>
        <time>2017-03-26T07:54:10Z</time>
      </trkpt>
      <trkpt lat="45.3091" lon="5.61827">
        <ele>141.08</ele>
        <time>2017-03-26T07:54:11Z</time>
      </trkpt>
      <trkpt lat="45.30939" lon="5.61806">
        <ele>140.89</ele>
        <time>2017-03-26T07:54:12Z</time>
      </trkpt>
      <trkpt lat="45.30969" lon="5.61785">
        <ele>140.7</ele>
        <time>2017-03-26T07:54:13Z</time>
      </trkpt>
      <trkpt lat="45.30999" lon="5.61763">
        <ele>140.58</ele>
        <time>2017-03-26T07:54:14Z</time>
      </trkpt>
      <trkpt lat="45.31028" lon="5.61741">
        <ele>140.79</ele>
        <time>2017-03-26T07:54:15Z</time>
      </trkpt>
      <trkpt lat="45.31057" lon="5.61719">
        <ele>140.68</ele>
        <time>2017-03-26T07:54:16Z</time>
      </trkpt>
      <trkpt lat="45.31086" lon="5.61696">
        <ele>140.25</ele>
        <time>2017-03-26T07:54:17Z</time>
      </trkpt>
      <trkpt lat="45.31115" lon="5.61673">
        <ele>139.85</ele>
        <time>2017-03-26T07:54:18Z</time>
      </trkpt>
      <trkpt lat="45.31144" lon="5.6165">
        <ele>139.61</ele>
        <time>2017-03-26T07:54:19Z</time>
      </trkpt>
      <trkpt lat="45.31172" lon="5.61627">
        <ele>139.56</ele>
        <time>2017-03-26T07:54:20Z</time>
      </trkpt>
      <trkpt lat="45.31201" lon="5.61603">
        <ele>139.31</ele>
        <time>2017-03-26T07:54:21Z</time>
      </trkpt>
      <trkpt lat="45.31229" lon="5.6158">
        <ele>138.94</ele>
        <time>2017-03-26T07:54:22Z</time>
      </trkpt>
      <trkpt lat="45.31257" lon="5.61555">
        <ele>138.79</ele>
        <time>2017-03-26T07:54:23Z</time>
      </trkpt>
      <trkpt lat="45.31285" lon="5.61531">
        <ele>138.76</ele>
        <time>2017-03-26T07:54:24Z</time>
      </trkpt>
      <trkpt lat="45.31313" lon="5.61506">
        <ele>139.07</ele>
        <time>2017-03-26T07:54:25Z</time>
      </trkpt>
      <trkpt lat="45.31341" lon="5.61481">
        <ele>139.21</ele>
        <time>2017-03-26T07:54:26Z</time>
      </trkpt>
      <trkpt lat="45.31369" lon="5.61455">
        <ele>139.32</ele>
        <time>2017-03-26T07:54:27Z</time>
      </trkpt>
      <trkpt lat="45.31397" lon="5.6143">
        <ele>139.34</ele>
        <time>2017-03-26T07:54:28Z</time>
      </trkpt>
      <trkpt lat="45.31424" lon="5.61404">
        <ele>139.43</ele>
        <time>2017-03-26T07:54:29Z</time>
      </trkpt>
      <trkpt lat="45.31452" lon="5.61379">
        <ele>139.36</ele>
        <time>2017-03-26T07:54:30Z</time>
      </trkpt>
      <trkpt lat="45.31479" lon="5.61352">
        <ele>139.51</ele>
        <time>2017-03-26T07:54:31Z</time>
      </trkpt>
      <trkpt lat="45.31507" lon="5.61326">
        <ele>139.46</ele>
        <time>2017-03-26T07:54:32Z</time>
      </trkpt>
      <trkpt lat="45.31534" lon="5.61299">
        <ele>139.53</ele>
        <time>2017-03-26T07:54:33Z</time>
      </trkpt>
      <trkpt lat="45.31562" lon="5.61272">
        <ele>139.39</ele>
        <time>2017-03-26T07:54:34Z</time>
      </trkpt>
      <trkpt lat="45.31589" lon="5.61244">
        <ele>139.28</ele>
        <time>2017-03-26T07:54:35Z</time>
      </trkpt>
      <trkpt lat="45.31616" lon="5.61217">
        <ele>139.49</ele>
        <time>2017-03-26T07:54:36Z</time>
      </trkpt>
      <trkpt lat="45.31643" lon="5.61189">
        <ele>139.62</ele>
        <time>2017-03-26T07:54:37Z</time>
      </trkpt>
      <trkpt lat="45.3167" lon="5.6116">
        <ele>139.8</ele>
        <time>2017-03-26T07:54:38Z</time>
      </trkpt>
      <trkpt lat="45.31698" lon="5.61132">
        <ele>139.52</ele>
        <time>2017-03-26T07:54:39Z</time>
      </trkpt>
      <trkpt lat="45.31725" lon="5.61103">
        <ele>139.38</ele>
        <time>2017-03-26T07:54:40Z</time>
      </trkpt>
      <trkpt lat="45.31752" lon="5.61074">
        <ele>139.12</ele>
        <time>2017-03-26T07:54:41Z</time>
      </trkpt>
      <trkpt lat="45.31779" lon="5.61044">
        <ele>138.98</ele>
        <time>2017-03-26T07:54:42Z</time>
      </trkpt>
      <trkpt lat="45.31806" lon="5.61014">
        <ele>139.04</ele>
        <time>2017-03-26T07:54:43Z</time>
      </trkpt>
      <trkpt lat="45.31832" lon="5.60984">
        <ele>139.05</ele>
        <time>2017-03-26T07:54:44Z</time>
      </trkpt>
      <trkpt lat="45.31858" lon="5.60953">
        <ele>139.21</ele>
        <time>2017-03-26T07:54:45Z</time>
      </trkpt>
      <trkpt lat="45.31884" lon="5.60923">
        <ele>139.32</ele>
        <time>2017-03-26T07:54:46Z</time>
      </trkpt>
      <trkpt lat="45.3191" lon="5.60893">
        <ele>139.34</ele>
        <time>2017-03-26T07:54:47Z</time>
      </trkpt>
      <trkpt lat="45.31936" lon="5.60862">
        <ele>139.51</ele>
        <time>2017-03-26T07:54:48Z</time>
      </trkpt>
      <trkpt lat="45.31962" lon="5.60831">
        <ele>139.46</ele>
        <time>2017-03-26T07:54:49Z</time>
      </trkpt>
      <trkpt lat="45.31987" lon="5.60799">
        <ele>139.37</ele>
        <time>2017-03-26T07:54:50Z</time>
      </trkpt>
      <trkpt lat="45.32012" lon="5.60768">
        <ele>139.35</ele>
        <time>2017-03-26T07:54:51Z</time>
      </trkpt>
      <trkpt lat="45.32037" lon="5.60736">
        <ele>139.27</ele>
        <time>2017-03-26T07:54:52Z</time>
      </trkpt>
      <trkpt lat="45.32062" lon="5.60704">
        <ele>139.09</ele>
        <time>2017-03-26T07:54:53Z</time>
      </trkpt>
      <trkpt lat="45.32086" lon="5.60671">
        <ele>138.98</ele>
        <time>2017-03-26T07:54:54Z</time>
      </trkpt>
      <trkpt lat="45.3211" lon="5.60639">
        <ele>138.87</ele>
        <time>2017-03-26T07:54:55Z</time>
      </trkpt>
      <trkpt lat="45.32134" lon="5.60606">
        <ele>138.77</ele>
        <time>2017-03-26T07:54:56Z</time>
      </trkpt>
      <trkpt lat="45.32159" lon="5.60573">
        <ele>138.75</ele>
        <time>2017-03-26T07:54:57Z</time>
      </trkpt>
      <trkpt lat="45.32183" lon="5.6054">
        <ele>138.75</ele>
        <time>2017-03-26T07:54:58Z</time>
      </trkpt>
      <trkpt lat="45.32206" lon="5.60506">
        <ele>138.83</ele>
        <time>2017-03-26T07:54:59Z</time>
      </trkpt>
      <trkpt lat="45.3223" lon="5.60473">
        <ele>139.09</ele>
        <time>2017-03-26T07:55:00Z</time>
      </trkpt>
      <trkpt lat="45.32253" lon="5.60438">
        <ele>139.22</ele>
        <time>2017-03-26T07:55:01Z</time>
      </trkpt>
      <trkpt lat="45.32276" lon="5.60402">
        <ele>139.24</ele>
        <time>2017-03-26T07:55:02Z</time>
      </trkpt>
      <trkpt lat="45.32298" lon="5.60367">
        <ele>139.33</ele>
        <time>2017-03-26T07:55:03Z</time>
      </trkpt>
      <trkpt lat="45.32321" lon="5.60331">
        <ele>139.5</ele>
        <time>2017-03-26T07:55:04Z</time>
      </trkpt>
      <trkpt lat="45.32344" lon="5.60296">
        <ele>139.62</ele>
        <time>2017-03-26T07:55:05Z</time>
      </trkpt>
      <trkpt lat="45.32367" lon="5.60262">
        <ele>139.72</ele>
        <time>2017-03-26T07:55:06Z</time>
      </trkpt>
      <trkpt lat="45.3239" lon="5.60228">
        <ele>139.74</ele>
        <time>2017-03-26T07:55:07Z</time>
      </trkpt>
      <trkpt lat="45.32412" lon="5.60193">
        <ele>140.07</ele>
        <time>2017-03-26T07:55:08Z</time>
      </trkpt>
      <trkpt lat="45.32434" lon="5.60158">
        <ele>140.29</ele>
        <time>2017-03-26T07:55:09Z</time>
      </trkpt>
      <trkpt lat="45.32455" lon="5.60122">
        <ele>140.26</ele>
        <time>2017-03-26T07:55:10Z</time>
      </trkpt>
      <trkpt lat="45.32476" lon="5.60087">
        <ele>140.17</ele>
        <time>2017-03-26T07:55:11Z</time>
      </trkpt>
      <trkpt lat="45.32497" lon="5.60051">
        <ele>140.15</ele>
        <time>2017-03-26T07:55:12Z</time>
      </trkpt>
      <trkpt lat="45.32517" lon="5.60015">
        <ele>140.31</ele>
        <time>2017-03-26T07:55:13Z</time>
      </trkpt>
      <trkpt lat="45.32538" lon="5.5998">
        <ele>140.58</ele>
        <time>2017-03-26T07:55:14Z</time>
      </trkpt>
      <trkpt lat="45.32559" lon="5.59944">
        <ele>141.04</ele>
        <time>2017-03-26T07:55:15Z</time>
      </trkpt>
      <trkpt lat="45.3258" lon="5.59907">
        <ele>141.29</ele>
        <time>2017-03-26T07:55:16Z</time>
      </trkpt>
      <trkpt lat="45.32601" lon="5.5987">
        <ele>141.42</ele>
        <time>2017-03-26T07:55:17Z</time>
      </trkpt>
      <trkpt lat="45.32622" lon="5.59832">
        <ele>141.6</ele>
        <time>2017-03-26T07:55:18Z</time>
      </trkpt>
      <trkpt lat="45.32643" lon="5.59794">
        <ele>141.8</ele>
        <time>2017-03-26T07:55:19Z</time>
      </trkpt>
      <trkpt lat="45.32664" lon="5.59757">
        <ele>142</ele>
        <time>2017-03-26T07:55:20Z</time>
      </trkpt>
      <trkpt lat="45.32685" lon="5.59721">
        <ele>142.12</ele>
        <time>2017-03-26T07:55:21Z</time>
      </trkpt>
      <trkpt lat="45.32707" lon="5.59684">
        <ele>142.38</ele>
        <time>2017-03-26T07:55:22Z</time>
      </trkpt>
      <trkpt lat="45.32728" lon="5.59647">
        <ele>142.84</ele>
        <time>2017-03-26T07:55:23Z</time>
      </trkpt>
      <trkpt lat="45.32749" lon="5.5961">
        <ele>143.17</ele>
        <time>2017-03-26T07:55:24Z</time>
      </trkpt>
      <trkpt lat="45.3277" lon="5.59573">
        <ele>143.55</ele>
        <time>2017-03-26T07:55:25Z</time>
      </trkpt>
      <trkpt lat="45.32792" lon="5.59536">
        <ele>143.79</ele>
        <time>2017-03-26T07:55:26Z</time>
      </trkpt>
      <trkpt lat="45.32813" lon="5.595">
        <ele>144.08</ele>
        <time>2017-03-26T07:55:27Z</time>
      </trkpt>
      <trkpt lat="45.32835" lon="5.59465">
        <ele>144.45</ele>
        <time>2017-03-26T07:55:28Z</time>
      </trkpt>
      <trkpt lat="45.32857" lon="5.59429">
        <ele>144.61</ele>
        <time>2017-03-26T07:55:29Z</time>
      </trkpt>
      <trkpt lat="45.32879" lon="5.59394">
        <ele>144.88</ele>
        <time>2017-03-26T07:55:30Z</time>
      </trkpt>
      <trkpt lat="45.32901" lon="5.59359">
        <ele>144.94</ele>
        <time>2017-03-26T07:55:31Z</time>
      </trkpt>
      <trkpt lat="45.32924" lon="5.59324">
        <ele>145.19</ele>
        <time>2017-03-26T07:55:32Z</time>
      </trkpt>
      <trkpt lat="45.32946" lon="5.5929">
        <ele>145.24</ele>
        <time>2017-03-26T07:55:33Z</time>
      </trkpt>
      <trkpt lat="45.32969" lon="5.59255">
        <ele>145.33</ele>
        <time>2017-03-26T07:55:34Z</time>
      </trkpt>
      <trkpt lat="45.32991" lon="5.59222">
        <ele>145.5</ele>
        <time>2017-03-26T07:55:35Z</time>
      </trkpt>
      <trkpt lat="45.33014" lon="5.59189">
        <ele>145.7</ele>
        <time>2017-03-26T07:55:36Z</time>
      </trkpt>
      <trkpt lat="45.33037" lon="5.59156">
        <ele>146.06</ele>
        <time>2017-03-26T07:55:37Z</time>
      </trkpt>
      <trkpt lat="45.33059" lon="5.59123">
        <ele>146.29</ele>
        <time>2017-03-26T07:55:38Z</time>
      </trkpt>
      <trkpt lat="45.33082" lon="5.5909">
        <ele>146.58</ele>
        <time>2017-03-26T07:55:39Z</time>
      </trkpt>
      <trkpt lat="45.33104" lon="5.59056">
        <ele>147.11</ele>
        <time>2017-03-26T07:55:40Z</time>
      </trkpt>
      <trkpt lat="45.33126" lon="5.59024">
        <ele>147.22</ele>
        <time>2017-03-26T07:55:41Z</time>
      </trkpt>
      <trkpt lat="45.33149" lon="5.58991">
        <ele>147.24</ele>
        <time>2017-03-26T07:55:42Z</time>
      </trkpt>
      <trkpt lat="45.33172" lon="5.5896">
        <ele>147.25</ele>
        <time>2017-03-26T07:55:43Z</time>
      </trkpt>
      <trkpt lat="45.33194" lon="5.58928">
        <ele>147.25</ele>
        <time>2017-03-26T07:55:44Z</time>
      </trkpt>
      <trkpt lat="45.33218" lon="5.58896">
        <ele>147.33</ele>
        <time>2017-03-26T07:55:45Z</time>
      </trkpt>
      <trkpt lat="45.3324" lon="5.58864">
        <ele>147.58</ele>
        <time>2017-03-26T07:55:46Z</time>
      </trkpt>
      <trkpt lat="45.33262" lon="5.58832">
        <ele>147.8</ele>
        <time>2017-03-26T07:55:47Z</time>
      </trkpt>
      <trkpt lat="45.33284" lon="5.58798">
        <ele>148</ele>
        <time>2017-03-26T07:55:48Z</time>
      </trkpt>
      <trkpt lat="45.33306" lon="5.58765">
        <ele>148.12</ele>
        <time>2017-03-26T07:55:49Z</time>
      </trkpt>
      <trkpt lat="45.33327" lon="5.58731">
        <ele>148.14</ele>
        <time>2017-03-26T07:55:50Z</time>
      </trkpt>
      <trkpt lat="45.33348" lon="5.58697">
        <ele>148.31</ele>
        <time>2017-03-26T07:55:51Z</time>
      </trkpt>
      <trkpt lat="45.33369" lon="5.58662">
        <ele>148.18</ele>
        <time>2017-03-26T07:55:52Z</time>
      </trkpt>
      <trkpt lat="45.3339" lon="5.58627">
        <ele>148.24</ele>
        <time>2017-03-26T07:55:53Z</time>
      </trkpt>
      <trkpt lat="45.3341" lon="5.58591">
        <ele>148.41</ele>
        <time>2017-03-26T07:55:54Z</time>
      </trkpt>
      <trkpt lat="45.33429" lon="5.58556">
        <ele>148.6</ele>
        <time>2017-03-26T07:55:55Z</time>
      </trkpt>
      <trkpt lat="45.33449" lon="5.58519">
        <ele>148.72</ele>
        <time>2017-03-26T07:55:56Z</time>
      </trkpt>
      <trkpt lat="45.33468" lon="5.58483">
        <ele>148.82</ele>
        <time>2017-03-26T07:55:57Z</time>
      </trkpt>
      <trkpt lat="45.33488" lon="5.58446">
        <ele>149</ele>
        <time>2017-03-26T07:55:58Z</time>
      </trkpt>
      <trkpt lat="45.33506" lon="5.58408">
        <ele>149.28</ele>
        <time>2017-03-26T07:55:59Z</time>
      </trkpt>
      <trkpt lat="45.33525" lon="5.5837">
        <ele>149.5</ele>
        <time>2017-03-26T07:56:00Z</time>
      </trkpt>
      <trkpt lat="45.33544" lon="5.58332">
        <ele>149.86</ele>
        <time>2017-03-26T07:56:01Z</time>
      </trkpt>
      <trkpt lat="45.33562" lon="5.58293">
        <ele>150.65</ele>
        <time>2017-03-26T07:56:02Z</time>
      </trkpt>
      <trkpt lat="45.3358" lon="5.58254">
        <ele>151.29</ele>
        <time>2017-03-26T07:56:03Z</time>
      </trkpt>
      <trkpt lat="45.33597" lon="5.58215">
        <ele>152.06</ele>
        <time>2017-03-26T07:56:04Z</time>
      </trkpt>
      <trkpt lat="45.33614" lon="5.58176">
        <ele>153.17</ele>
        <time>2017-03-26T07:56:05Z</time>
      </trkpt>
      <trkpt lat="45.3363" lon="5.58137">
        <ele>154.19</ele>
        <time>2017-03-26T07:56:06Z</time>
      </trkpt>
      <trkpt lat="45.33647" lon="5.58098">
        <ele>155.04</ele>
        <time>2017-03-26T07:56:07Z</time>
      </trkpt>
      <trkpt lat="45.33664" lon="5.58059">
        <ele>156.25</ele>
        <time>2017-03-26T07:56:08Z</time>
      </trkpt>
      <trkpt lat="45.33681" lon="5.5802">
        <ele>157.61</ele>
        <time>2017-03-26T07:56:09Z</time>
      </trkpt>
      <trkpt lat="45.33699" lon="5.57983">
        <ele>158.84</ele>
        <time>2017-03-26T07:56:10Z</time>
      </trkpt>
      <trkpt lat="45.33717" lon="5.57946">
        <ele>159.97</ele>
        <time>2017-03-26T07:56:11Z</time>
      </trkpt>
      <trkpt lat="45.33735" lon="5.5791">
        <ele>160.99</ele>
        <time>2017-03-26T07:56:12Z</time>
      </trkpt>
      <trkpt lat="45.33754" lon="5.57874">
        <ele>162.16</ele>
        <time>2017-03-26T07:56:13Z</time>
      </trkpt>
      <trkpt lat="45.33773" lon="5.5784">
        <ele>163.43</ele>
        <time>2017-03-26T07:56:14Z</time>
      </trkpt>
      <trkpt lat="45.33794" lon="5.57808">
        <ele>164.81</ele>
        <time>2017-03-26T07:56:15Z</time>
      </trkpt>
      <trkpt lat="45.33816" lon="5.57778">
        <ele>166.28</ele>
        <time>2017-03-26T07:56:16Z</time>
      </trkpt>
      <trkpt lat="45.33838" lon="5.57749">
        <ele>167.7</ele>
        <time>2017-03-26T07:56:17Z</time>
      </trkpt>
      <trkpt lat="45.3386" lon="5.57721">
        <ele>169.26</ele>
        <time>2017-03-26T07:56:18Z</time>
      </trkpt>
      <trkpt lat="45.33882" lon="5.57693">
        <ele>170.69</ele>
        <time>2017-03-26T07:56:19Z</time>
      </trkpt>
      <trkpt lat="45.33904" lon="5.57665">
        <ele>172.26</ele>
        <time>2017-03-26T07:56:20Z</time>
      </trkpt>
      <trkpt lat="45.33926" lon="5.57637">
        <ele>173.85</ele>
        <time>2017-03-26T07:56:21Z</time>
      </trkpt>
      <trkpt lat="45.33948" lon="5.5761">
        <ele>175.53</ele>
        <time>2017-03-26T07:56:22Z</time>
      </trkpt>
      <trkpt lat="45.3397" lon="5.57582">
        <ele>177.23</ele>
        <time>2017-03-26T07:56:23Z</time>
      </trkpt>
      <trkpt lat="45.33993" lon="5.57553">
        <ele>178.92</ele>
        <time>2017-03-26T07:56:24Z</time>
      </trkpt>
      <trkpt lat="45.34015" lon="5.57523">
        <ele>180.7</ele>
        <time>2017-03-26T07:56:25Z</time>
      </trkpt>
      <trkpt lat="45.34037" lon="5.57491">
        <ele>182.5</ele>
        <time>2017-03-26T07:56:26Z</time>
      </trkpt>
      <trkpt lat="45.34059" lon="5.57459">
        <ele>184.22</ele>
        <time>2017-03-26T07:56:27Z</time>
      </trkpt>
      <trkpt lat="45.34081" lon="5.57424">
        <ele>185.68</ele>
        <time>2017-03-26T07:56:28Z</time>
      </trkpt>
      <trkpt lat="45.34101" lon="5.57388">
        <ele>187.34</ele>
        <time>2017-03-26T07:56:29Z</time>
      </trkpt>
      <trkpt lat="45.3412" lon="5.57349">
        <ele>189.03</ele>
        <time>2017-03-26T07:56:30Z</time>
      </trkpt>
      <trkpt lat="45.34139" lon="5.57309">
        <ele>190.72</ele>
        <time>2017-03-26T07:56:31Z</time>
      </trkpt>
      <trkpt lat="45.34158" lon="5.57269">
        <ele>192.42</ele>
        <time>2017-03-26T07:56:32Z</time>
      </trkpt>
      <trkpt lat="45.34177" lon="5.57229">
        <ele>194.36</ele>
        <time>2017-03-26T07:56:33Z</time>
      </trkpt>
      <trkpt lat="45.34196" lon="5.57188">
        <ele>196.19</ele>
        <time>2017-03-26T07:56:34Z</time>
      </trkpt>
      <trkpt lat="45.34215" lon="5.57148">
        <ele>198.08</ele>
        <time>2017-03-26T07:56:35Z</time>
      </trkpt>
      <trkpt lat="45.34233" lon="5.57107">
        <ele>199.97</ele>
        <time>2017-03-26T07:56:36Z</time>
      </trkpt>
      <trkpt lat="45.34252" lon="5.57066">
        <ele>201.87</ele>
        <time>2017-03-26T07:56:37Z</time>
      </trkpt>
      <trkpt lat="45.3427" lon="5.57025">
        <ele>203.85</ele>
        <time>2017-03-26T07:56:38Z</time>
      </trkpt>
      <trkpt lat="45.34288" lon="5.56984">
        <ele>206.01</ele>
        <time>2017-03-26T07:56:39Z</time>
      </trkpt>
      <trkpt lat="45.34306" lon="5.56943">
        <ele>207.24</ele>
        <time>2017-03-26T07:56:40Z</time>
      </trkpt>
      <trkpt lat="45.34323" lon="5.56902">
        <ele>208.93</ele>
        <time>2017-03-26T07:56:41Z</time>
      </trkpt>
      <trkpt lat="45.34341" lon="5.56861">
        <ele>210.62</ele>
        <time>2017-03-26T07:56:42Z</time>
      </trkpt>
      <trkpt lat="45.34358" lon="5.5682">
        <ele>212.4</ele>
        <time>2017-03-26T07:56:43Z</time>
      </trkpt>
      <trkpt lat="45.34375" lon="5.56779">
        <ele>214.28</ele>
        <time>2017-03-26T07:56:44Z</time>
      </trkpt>
      <trkpt lat="45.34392" lon="5.56739">
        <ele>216.1</ele>
        <time>2017-03-26T07:56:45Z</time>
      </trkpt>
      <trkpt lat="45.3441" lon="5.56699">
        <ele>217.82</ele>
        <time>2017-03-26T07:56:46Z</time>
      </trkpt>
      <trkpt lat="45.34427" lon="5.5666">
        <ele>219.6</ele>
        <time>2017-03-26T07:56:47Z</time>
      </trkpt>
      <trkpt lat="45.34445" lon="5.56621">
        <ele>221.4</ele>
        <time>2017-03-26T07:56:48Z</time>
      </trkpt>
      <trkpt lat="45.34462" lon="5.56581">
        <ele>223.36</ele>
        <time>2017-03-26T07:56:49Z</time>
      </trkpt>
      <trkpt lat="45.34478" lon="5.5654">
        <ele>225.35</ele>
        <time>2017-03-26T07:56:50Z</time>
      </trkpt>
      <trkpt lat="45.34492" lon="5.56498">
        <ele>226.47</ele>
        <time>2017-03-26T07:56:51Z</time>
      </trkpt>
      <trkpt lat="45.34506" lon="5.56455">
        <ele>227.89</ele>
        <time>2017-03-26T07:56:52Z</time>
      </trkpt>
      <trkpt lat="45.34519" lon="5.56412">
        <ele>229.46</ele>
        <time>2017-03-26T07:56:53Z</time>
      </trkpt>
      <trkpt lat="45.34531" lon="5.56368">
        <ele>231.05</ele>
        <time>2017-03-26T07:56:54Z</time>
      </trkpt>
      <trkpt lat="45.34542" lon="5.56323">
        <ele>232.65</ele>
        <time>2017-03-26T07:56:55Z</time>
      </trkpt>
      <trkpt lat="45.34553" lon="5.56278">
        <ele>234.25</ele>
        <time>2017-03-26T07:56:56Z</time>
      </trkpt>
      <trkpt lat="45.34562" lon="5.56232">
        <ele>236.17</ele>
        <time>2017-03-26T07:56:57Z</time>
      </trkpt>
      <trkpt lat="45.34571" lon="5.56186">
        <ele>238.07</ele>
        <time>2017-03-26T07:56:58Z</time>
      </trkpt>
      <trkpt lat="45.34578" lon="5.56139">
        <ele>240.13</ele>
        <time>2017-03-26T07:56:59Z</time>
      </trkpt>
      <trkpt lat="45.34584" lon="5.56092">
        <ele>242.15</ele>
        <time>2017-03-26T07:57:00Z</time>
      </trkpt>
      <trkpt lat="45.34589" lon="5.56044">
        <ele>243.19</ele>
        <time>2017-03-26T07:57:01Z</time>
      </trkpt>
      <trkpt lat="45.34595" lon="5.55997">
        <ele>244.6</ele>
        <time>2017-03-26T07:57:02Z</time>
      </trkpt>
      <trkpt lat="45.34601" lon="5.55949">
        <ele>246.24</ele>
        <time>2017-03-26T07:57:03Z</time>
      </trkpt>
      <trkpt lat="45.34606" lon="5.55902">
        <ele>247.93</ele>
        <time>2017-03-26T07:57:04Z</time>
      </trkpt>
      <trkpt lat="45.34612" lon="5.55854">
        <ele>249.78</ele>
        <time>2017-03-26T07:57:05Z</time>
      </trkpt>
      <trkpt lat="45.34618" lon="5.55807">
        <ele>251.52</ele>
        <time>2017-03-26T07:57:06Z</time>
      </trkpt>
      <trkpt lat="45.34624" lon="5.55759">
        <ele>253.3</ele>
        <time>2017-03-26T07:57:07Z</time>
      </trkpt>
      <trkpt lat="45.3463" lon="5.55711">
        <ele>255.26</ele>
        <time>2017-03-26T07:57:08Z</time>
      </trkpt>
      <trkpt lat="45.34637" lon="5.55664">
        <ele>257.09</ele>
        <time>2017-03-26T07:57:09Z</time>
      </trkpt>
      <trkpt lat="45.34643" lon="5.55616">
        <ele>259.46</ele>
        <time>2017-03-26T07:57:10Z</time>
      </trkpt>
      <trkpt lat="45.34651" lon="5.55568">
        <ele>262.01</ele>
        <time>2017-03-26T07:57:11Z</time>
      </trkpt>
      <trkpt lat="45.34658" lon="5.5552">
        <ele>264.2</ele>
        <time>2017-03-26T07:57:12Z</time>
      </trkpt>
      <trkpt lat="45.34665" lon="5.55473">
        <ele>266.4</ele>
        <time>2017-03-26T07:57:13Z</time>
      </trkpt>
      <trkpt lat="45.34674" lon="5.55426">
        <ele>268.52</ele>
        <time>2017-03-26T07:57:14Z</time>
      </trkpt>
      <trkpt lat="45.34683" lon="5.5538">
        <ele>270.7</ele>
        <time>2017-03-26T07:57:15Z</time>
      </trkpt>
      <trkpt lat="45.34693" lon="5.55334">
        <ele>272.98</ele>
        <time>2017-03-26T07:57:16Z</time>
      </trkpt>
      <trkpt lat="45.34702" lon="5.55288">
        <ele>275.04</ele>
        <time>2017-03-26T07:57:17Z</time>
      </trkpt>
      <trkpt lat="45.34712" lon="5.55242">
        <ele>275.93</ele>
        <time>2017-03-26T07:57:18Z</time>
      </trkpt>
      <trkpt lat="45.34722" lon="5.55197">
        <ele>277.38</ele>
        <time>2017-03-26T07:57:19Z</time>
      </trkpt>
      <trkpt lat="45.34733" lon="5.55151">
        <ele>279.04</ele>
        <time>2017-03-26T07:57:20Z</time>
      </trkpt>
      <trkpt lat="45.34744" lon="5.55106">
        <ele>280.65</ele>
        <time>2017-03-26T07:57:21Z</time>
      </trkpt>
      <trkpt lat="45.34755" lon="5.55061">
        <ele>282.33</ele>
        <time>2017-03-26T07:57:22Z</time>
      </trkpt>
      <trkpt lat="45.34768" lon="5.55016">
        <ele>283.94</ele>
        <time>2017-03-26T07:57:23Z</time>
      </trkpt>
      <trkpt lat="45.3478" lon="5.5497">
        <ele>285.47</ele>
        <time>2017-03-26T07:57:24Z</time>
      </trkpt>
      <trkpt lat="45.34793" lon="5.54925">
        <ele>286.89</ele>
        <time>2017-03-26T07:57:25Z</time>
      </trkpt>
      <trkpt lat="45.34807" lon="5.54881">
        <ele>288.46</ele>
        <time>2017-03-26T07:57:26Z</time>
      </trkpt>
      <trkpt lat="45.3482" lon="5.54836">
        <ele>289.89</ele>
        <time>2017-03-26T07:57:27Z</time>
      </trkpt>
      <trkpt lat="45.34834" lon="5.54791">
        <ele>291.54</ele>
        <time>2017-03-26T07:57:28Z</time>
      </trkpt>
      <trkpt lat="45.34849" lon="5.54747">
        <ele>293.15</ele>
        <time>2017-03-26T07:57:29Z</time>
      </trkpt>
      <trkpt lat="45.34864" lon="5.54702">
        <ele>294.51</ele>
        <time>2017-03-26T07:57:30Z</time>
      </trkpt>
      <trkpt lat="45.34879" lon="5.54659">
        <ele>296.06</ele>
        <time>2017-03-26T07:57:31Z</time>
      </trkpt>
      <trkpt lat="45.34895" lon="5.54615">
        <ele>297.49</ele>
        <time>2017-03-26T07:57:32Z</time>
      </trkpt>
      <trkpt lat="45.34912" lon="5.54571">
        <ele>298.58</ele>
        <time>2017-03-26T07:57:33Z</time>
      </trkpt>
      <trkpt lat="45.34929" lon="5.54527">
        <ele>299.43</ele>
        <time>2017-03-26T07:57:34Z</time>
      </trkpt>
      <trkpt lat="45.34946" lon="5.54483">
        <ele>300.41</ele>
        <time>2017-03-26T07:57:35Z</time>
      </trkpt>
      <trkpt lat="45.34963" lon="5.54439">
        <ele>301.64</ele>
        <time>2017-03-26T07:57:36Z</time>
      </trkpt>
      <trkpt lat="45.34981" lon="5.54396">
        <ele>302.85</ele>
        <time>2017-03-26T07:57:37Z</time>
      </trkpt>
      <trkpt lat="45.35" lon="5.54353">
        <ele>303.81</ele>
        <time>2017-03-26T07:57:38Z</time>
      </trkpt>
      <trkpt lat="45.35019" lon="5.54312">
        <ele>304.4</ele>
        <time>2017-03-26T07:57:39Z</time>
      </trkpt>
      <trkpt lat="45.35039" lon="5.54272">
        <ele>305.24</ele>
        <time>2017-03-26T07:57:40Z</time>
      </trkpt>
      <trkpt lat="45.3506" lon="5.54232">
        <ele>306.13</ele>
        <time>2017-03-26T07:57:41Z</time>
      </trkpt>
      <trkpt lat="45.3508" lon="5.54193">
        <ele>307.1</ele>
        <time>2017-03-26T07:57:42Z</time>
      </trkpt>
      <trkpt lat="45.35101" lon="5.54154">
        <ele>308.02</ele>
        <time>2017-03-26T07:57:43Z</time>
      </trkpt>
      <trkpt lat="45.35121" lon="5.54115">
        <ele>309</ele>
        <time>2017-03-26T07:57:44Z</time>
      </trkpt>
      <trkpt lat="45.35141" lon="5.54075">
        <ele>310</ele>
        <time>2017-03-26T07:57:45Z</time>
      </trkpt>
      <trkpt lat="45.35162" lon="5.54036">
        <ele>311.16</ele>
        <time>2017-03-26T07:57:46Z</time>
      </trkpt>
      <trkpt lat="45.35182" lon="5.53997">
        <ele>312.35</ele>
        <time>2017-03-26T07:57:47Z</time>
      </trkpt>
      <trkpt lat="45.35202" lon="5.53958">
        <ele>313.55</ele>
        <time>2017-03-26T07:57:48Z</time>
      </trkpt>
      <trkpt lat="45.35223" lon="5.53919">
        <ele>314.75</ele>
        <time>2017-03-26T07:57:49Z</time>
      </trkpt>
      <trkpt lat="45.35243" lon="5.5388">
        <ele>316.11</ele>
        <time>2017-03-26T07:57:50Z</time>
      </trkpt>
      <trkpt lat="45.35262" lon="5.53839">
        <ele>317.66</ele>
        <time>2017-03-26T07:57:51Z</time>
      </trkpt>
      <trkpt lat="45.3528" lon="5.53798">
        <ele>319.25</ele>
        <time>2017-03-26T07:57:52Z</time>
      </trkpt>
      <trkpt lat="45.35298" lon="5.53756">
        <ele>320.77</ele>
        <time>2017-03-26T07:57:53Z</time>
      </trkpt>
      <trkpt lat="45.35314" lon="5.53713">
        <ele>322.19</ele>
        <time>2017-03-26T07:57:54Z</time>
      </trkpt>
      <trkpt lat="45.35328" lon="5.53669">
        <ele>323.68</ele>
        <time>2017-03-26T07:57:55Z</time>
      </trkpt>
      <trkpt lat="45.35342" lon="5.53624">
        <ele>325.01</ele>
        <time>2017-03-26T07:57:56Z</time>
      </trkpt>
      <trkpt lat="45.35354" lon="5.53578">
        <ele>326.16</ele>
        <time>2017-03-26T07:57:57Z</time>
      </trkpt>
      <trkpt lat="45.35366" lon="5.53532">
        <ele>327.27</ele>
        <time>2017-03-26T07:57:58Z</time>
      </trkpt>
      <trkpt lat="45.35376" lon="5.53485">
        <ele>328.45</ele>
        <time>2017-03-26T07:57:59Z</time>
      </trkpt>
      <trkpt lat="45.35386" lon="5.53438">
        <ele>329.25</ele>
        <time>2017-03-26T07:58:00Z</time>
      </trkpt>
      <trkpt lat="45.35395" lon="5.53391">
        <ele>329.89</ele>
        <time>2017-03-26T07:58:01Z</time>
      </trkpt>
      <trkpt lat="45.35403" lon="5.53344">
        <ele>330.66</ele>
        <time>2017-03-26T07:58:02Z</time>
      </trkpt>
      <trkpt lat="45.3541" lon="5.53297">
        <ele>331.37</ele>
        <time>2017-03-26T07:58:03Z</time>
      </trkpt>
      <trkpt lat="45.35416" lon="5.53249">
        <ele>331.59</ele>
        <time>2017-03-26T07:58:04Z</time>
      </trkpt>
      <trkpt lat="45.35422" lon="5.53202">
        <ele>331.8</ele>
        <time>2017-03-26T07:58:05Z</time>
      </trkpt>
      <trkpt lat="45.35427" lon="5.53154">
        <ele>331.44</ele>
        <time>2017-03-26T07:58:06Z</time>
      </trkpt>
      <trkpt lat="45.35433" lon="5.53106">
        <ele>330.57</ele>
        <time>2017-03-26T07:58:07Z</time>
      </trkpt>
      <trkpt lat="45.35438" lon="5.53058">
        <ele>329.67</ele>
        <time>2017-03-26T07:58:08Z</time>
      </trkpt>
      <trkpt lat="45.35444" lon="5.5301">
        <ele>328.69</ele>
        <time>2017-03-26T07:58:09Z</time>
      </trkpt>
      <trkpt lat="45.35449" lon="5.52962">
        <ele>327.62</ele>
        <time>2017-03-26T07:58:10Z</time>
      </trkpt>
      <trkpt lat="45.35455" lon="5.52914">
        <ele>326.04</ele>
        <time>2017-03-26T07:58:11Z</time>
      </trkpt>
      <trkpt lat="45.35461" lon="5.52866">
        <ele>324.45</ele>
        <time>2017-03-26T07:58:12Z</time>
      </trkpt>
      <trkpt lat="45.35468" lon="5.52818">
        <ele>323.25</ele>
        <time>2017-03-26T07:58:13Z</time>
      </trkpt>
      <trkpt lat="45.35476" lon="5.5277">
        <ele>322.05</ele>
        <time>2017-03-26T07:58:14Z</time>
      </trkpt>
      <trkpt lat="45.35484" lon="5.52722">
        <ele>320.93</ele>
        <time>2017-03-26T07:58:15Z</time>
      </trkpt>
      <trkpt lat="45.35493" lon="5.52675">
        <ele>319.9</ele>
        <time>2017-03-26T07:58:16Z</time>
      </trkpt>
      <trkpt lat="45.35504" lon="5.52628">
        <ele>318.74</ele>
        <time>2017-03-26T07:58:17Z</time>
      </trkpt>
      <trkpt lat="45.35515" lon="5.52581">
        <ele>317.71</ele>
        <time>2017-03-26T07:58:18Z</time>
      </trkpt>
      <trkpt lat="45.35527" lon="5.52535">
        <ele>316.54</ele>
        <time>2017-03-26T07:58:19Z</time>
      </trkpt>
      <trkpt lat="45.3554" lon="5.5249">
        <ele>315.43</ele>
        <time>2017-03-26T07:58:20Z</time>
      </trkpt>
      <trkpt lat="45.35553" lon="5.52444">
        <ele>314.24</ele>
        <time>2017-03-26T07:58:21Z</time>
      </trkpt>
      <trkpt lat="45.35568" lon="5.52399">
        <ele>313.05</ele>
        <time>2017-03-26T07:58:22Z</time>
      </trkpt>
      <trkpt lat="45.35583" lon="5.52355">
        <ele>311.93</ele>
        <time>2017-03-26T07:58:23Z</time>
      </trkpt>
      <trkpt lat="45.35599" lon="5.52311">
        <ele>310.82</ele>
        <time>2017-03-26T07:58:24Z</time>
      </trkpt>
      <trkpt lat="45.35615" lon="5.52268">
        <ele>309.8</ele>
        <time>2017-03-26T07:58:25Z</time>
      </trkpt>
      <trkpt lat="45.35633" lon="5.52226">
        <ele>308.64</ele>
        <time>2017-03-26T07:58:26Z</time>
      </trkpt>
      <trkpt lat="45.35651" lon="5.52185">
        <ele>307.21</ele>
        <time>2017-03-26T07:58:27Z</time>
      </trkpt>
      <trkpt lat="45.3567" lon="5.52144">
        <ele>305.8</ele>
        <time>2017-03-26T07:58:28Z</time>
      </trkpt>
      <trkpt lat="45.35691" lon="5.52104">
        <ele>304.4</ele>
        <time>2017-03-26T07:58:29Z</time>
      </trkpt>
      <trkpt lat="45.35711" lon="5.52064">
        <ele>303.32</ele>
        <time>2017-03-26T07:58:30Z</time>
      </trkpt>
      <trkpt lat="45.35733" lon="5.52026">
        <ele>302.46</ele>
        <time>2017-03-26T07:58:31Z</time>
      </trkpt>
      <trkpt lat="45.35755" lon="5.51987">
        <ele>302.13</ele>
        <time>2017-03-26T07:58:32Z</time>
      </trkpt>
      <trkpt lat="45.35778" lon="5.5195">
        <ele>302.15</ele>
        <time>2017-03-26T07:58:33Z</time>
      </trkpt>
      <trkpt lat="45.358" lon="5.51914">
        <ele>302.31</ele>
        <time>2017-03-26T07:58:34Z</time>
      </trkpt>
      <trkpt lat="45.35823" lon="5.51879">
        <ele>302.34</ele>
        <time>2017-03-26T07:58:35Z</time>
      </trkpt>
      <trkpt lat="45.35847" lon="5.51845">
        <ele>301.55</ele>
        <time>2017-03-26T07:58:36Z</time>
      </trkpt>
      <trkpt lat="45.35871" lon="5.51812">
        <ele>301.07</ele>
        <time>2017-03-26T07:58:37Z</time>
      </trkpt>
      <trkpt lat="45.35894" lon="5.51779">
        <ele>301.29</ele>
        <time>2017-03-26T07:58:38Z</time>
      </trkpt>
      <trkpt lat="45.35918" lon="5.51747">
        <ele>302.46</ele>
        <time>2017-03-26T07:58:39Z</time>
      </trkpt>
      <trkpt lat="45.35943" lon="5.51716">
        <ele>303.25</ele>
        <time>2017-03-26T07:58:40Z</time>
      </trkpt>
      <trkpt lat="45.35967" lon="5.51686">
        <ele>304.37</ele>
        <time>2017-03-26T07:58:41Z</time>
      </trkpt>
      <trkpt lat="45.35992" lon="5.51656">
        <ele>305.63</ele>
        <time>2017-03-26T07:58:42Z</time>
      </trkpt>
      <trkpt lat="45.36017" lon="5.51626">
        <ele>306.61</ele>
        <time>2017-03-26T07:58:43Z</time>
      </trkpt>
      <trkpt lat="45.36042" lon="5.51596">
        <ele>307.6</ele>
        <time>2017-03-26T07:58:44Z</time>
      </trkpt>
      <trkpt lat="45.36067" lon="5.51567">
        <ele>308.36</ele>
        <time>2017-03-26T07:58:45Z</time>
      </trkpt>
      <trkpt lat="45.36093" lon="5.51538">
        <ele>309.23</ele>
        <time>2017-03-26T07:58:46Z</time>
      </trkpt>
      <trkpt lat="45.36119" lon="5.51508">
        <ele>309.97</ele>
        <time>2017-03-26T07:58:47Z</time>
      </trkpt>
      <trkpt lat="45.36145" lon="5.51479">
        <ele>311.15</ele>
        <time>2017-03-26T07:58:48Z</time>
      </trkpt>
      <trkpt lat="45.36171" lon="5.51449">
        <ele>312.67</ele>
        <time>2017-03-26T07:58:49Z</time>
      </trkpt>
      <trkpt lat="45.36197" lon="5.51419">
        <ele>314.41</ele>
        <time>2017-03-26T07:58:50Z</time>
      </trkpt>
      <trkpt lat="45.36223" lon="5.51389">
        <ele>316.12</ele>
        <time>2017-03-26T07:58:51Z</time>
      </trkpt>
      <trkpt lat="45.36249" lon="5.51359">
        <ele>317.98</ele>
        <time>2017-03-26T07:58:52Z</time>
      </trkpt>
      <trkpt lat="45.36274" lon="5.51328">
        <ele>320.04</ele>
        <time>2017-03-26T07:58:53Z</time>
      </trkpt>
      <trkpt lat="45.36298" lon="5.51296">
        <ele>321.97</ele>
        <time>2017-03-26T07:58:54Z</time>
      </trkpt>
      <trkpt lat="45.36322" lon="5.51263">
        <ele>323.95</ele>
        <time>2017-03-26T07:58:55Z</time>
      </trkpt>
      <trkpt lat="45.36346" lon="5.51229">
        <ele>325.87</ele>
        <time>2017-03-26T07:58:56Z</time>
      </trkpt>
      <trkpt lat="45.36369" lon="5.51195">
        <ele>327.93</ele>
        <time>2017-03-26T07:58:57Z</time>
      </trkpt>
      <trkpt lat="45.36391" lon="5.51159">
        <ele>328.99</ele>
        <time>2017-03-26T07:58:58Z</time>
      </trkpt>
      <trkpt lat="45.36413" lon="5.51123">
        <ele>330.64</ele>
        <time>2017-03-26T07:58:59Z</time>
      </trkpt>
      <trkpt lat="45.36433" lon="5.51086">
        <ele>332.57</ele>
        <time>2017-03-26T07:59:00Z</time>
      </trkpt>
      <trkpt lat="45.36453" lon="5.51048">
        <ele>334.15</ele>
        <time>2017-03-26T07:59:01Z</time>
      </trkpt>
      <trkpt lat="45.36473" lon="5.51011">
        <ele>335.99</ele>
        <time>2017-03-26T07:59:02Z</time>
      </trkpt>
      <trkpt lat="45.36491" lon="5.50972">
        <ele>337.8</ele>
        <time>2017-03-26T07:59:03Z</time>
      </trkpt>
      <trkpt lat="45.36509" lon="5.50933">
        <ele>339.2</ele>
        <time>2017-03-26T07:59:04Z</time>
      </trkpt>
      <trkpt lat="45.36526" lon="5.50893">
        <ele>340.36</ele>
        <time>2017-03-26T07:59:05Z</time>
      </trkpt>
      <trkpt lat="45.36543" lon="5.50852">
        <ele>341.55</ele>
        <time>2017-03-26T07:59:06Z</time>
      </trkpt>
      <trkpt lat="45.36559" lon="5.50811">
        <ele>342.59</ele>
        <time>2017-03-26T07:59:07Z</time>
      </trkpt>
      <trkpt lat="45.36575" lon="5.50769">
        <ele>343.68</ele>
        <time>2017-03-26T07:59:08Z</time>
      </trkpt>
      <trkpt lat="45.3659" lon="5.50727">
        <ele>344.69</ele>
        <time>2017-03-26T07:59:09Z</time>
      </trkpt>
      <trkpt lat="45.36604" lon="5.50683">
        <ele>345.78</ele>
        <time>2017-03-26T07:59:10Z</time>
      </trkpt>
      <trkpt lat="45.36617" lon="5.50639">
        <ele>346.87</ele>
        <time>2017-03-26T07:59:11Z</time>
      </trkpt>
      <trkpt lat="45.3663" lon="5.50595">
        <ele>347.97</ele>
        <time>2017-03-26T07:59:12Z</time>
      </trkpt>
      <trkpt lat="45.36643" lon="5.50551">
        <ele>348.83</ele>
        <time>2017-03-26T07:59:13Z</time>
      </trkpt>
      <trkpt lat="45.36656" lon="5.50506">
        <ele>349.65</ele>
        <time>2017-03-26T07:59:14Z</time>
      </trkpt>
      <trkpt lat="45.36669" lon="5.50462">
        <ele>350.29</ele>
        <time>2017-03-26T07:59:15Z</time>
      </trkpt>
      <trkpt lat="45.36683" lon="5.50418">
        <ele>350.9</ele>
        <time>2017-03-26T07:59:16Z</time>
      </trkpt>
      <trkpt lat="45.36697" lon="5.50375">
        <ele>350.86</ele>
        <time>2017-03-26T07:59:17Z</time>
      </trkpt>
      <trkpt lat="45.36713" lon="5.50332">
        <ele>350.77</ele>
        <time>2017-03-26T07:59:18Z</time>
      </trkpt>
      <trkpt lat="45.3673" lon="5.5029">
        <ele>350.83</ele>
        <time>2017-03-26T07:59:19Z</time>
      </trkpt>
      <trkpt lat="45.36749" lon="5.50249">
        <ele>351.25</ele>
        <time>2017-03-26T07:59:20Z</time>
      </trkpt>
      <trkpt lat="45.36769" lon="5.50211">
        <ele>351.33</ele>
        <time>2017-03-26T07:59:21Z</time>
      </trkpt>
      <trkpt lat="45.36791" lon="5.50174">
        <ele>351.34</ele>
        <time>2017-03-26T07:59:22Z</time>
      </trkpt>
      <trkpt lat="45.36813" lon="5.50138">
        <ele>351.51</ele>
        <time>2017-03-26T07:59:23Z</time>
      </trkpt>
      <trkpt lat="45.36836" lon="5.50102">
        <ele>351.7</ele>
        <time>2017-03-26T07:59:24Z</time>
      </trkpt>
      <trkpt lat="45.36859" lon="5.50067">
        <ele>351.9</ele>
        <time>2017-03-26T07:59:25Z</time>
      </trkpt>
      <trkpt lat="45.36881" lon="5.5003">
        <ele>352.26</ele>
        <time>2017-03-26T07:59:26Z</time>
      </trkpt>
      <trkpt lat="45.36902" lon="5.49993">
        <ele>352.65</ele>
        <time>2017-03-26T07:59:27Z</time>
      </trkpt>
      <trkpt lat="45.36923" lon="5.49956">
        <ele>352.73</ele>
        <time>2017-03-26T07:59:28Z</time>
      </trkpt>
      <trkpt lat="45.36943" lon="5.49918">
        <ele>352.83</ele>
        <time>2017-03-26T07:59:29Z</time>
      </trkpt>
      <trkpt lat="45.36962" lon="5.49879">
        <ele>352.92</ele>
        <time>2017-03-26T07:59:30Z</time>
      </trkpt>
      <trkpt lat="45.36979" lon="5.49839">
        <ele>352.94</ele>
        <time>2017-03-26T07:59:31Z</time>
      </trkpt>
      <trkpt lat="45.36994" lon="5.49797">
        <ele>353.19</ele>
        <time>2017-03-26T07:59:32Z</time>
      </trkpt>
      <trkpt lat="45.37007" lon="5.49754">
        <ele>353.24</ele>
        <time>2017-03-26T07:59:33Z</time>
      </trkpt>
      <trkpt lat="45.37018" lon="5.49709">
        <ele>353.09</ele>
        <time>2017-03-26T07:59:34Z</time>
      </trkpt>
      <trkpt lat="45.37028" lon="5.49664">
        <ele>352.98</ele>
        <time>2017-03-26T07:59:35Z</time>
      </trkpt>
      <trkpt lat="45.37037" lon="5.49617">
        <ele>352.87</ele>
        <time>2017-03-26T07:59:36Z</time>
      </trkpt>
      <trkpt lat="45.37045" lon="5.49571">
        <ele>352.69</ele>
        <time>2017-03-26T07:59:37Z</time>
      </trkpt>
      <trkpt lat="45.37054" lon="5.49525">
        <ele>352.5</ele>
        <time>2017-03-26T07:59:38Z</time>
      </trkpt>
      <trkpt lat="45.37063" lon="5.49479">
        <ele>352.22</ele>
        <time>2017-03-26T07:59:39Z</time>
      </trkpt>
      <trkpt lat="45.37072" lon="5.49434">
        <ele>351.92</ele>
        <time>2017-03-26T07:59:40Z</time>
      </trkpt>
      <trkpt lat="45.37082" lon="5.49388">
        <ele>351.78</ele>
        <time>2017-03-26T07:59:41Z</time>
      </trkpt>
      <trkpt lat="45.37091" lon="5.49342">
        <ele>351.68</ele>
        <time>2017-03-26T07:59:42Z</time>
      </trkpt>
      <trkpt lat="45.37101" lon="5.49297">
        <ele>351.49</ele>
        <time>2017-03-26T07:59:43Z</time>
      </trkpt>
      <trkpt lat="45.3711" lon="5.49251">
        <ele>351.54</ele>
        <time>2017-03-26T07:59:44Z</time>
      </trkpt>
      <trkpt lat="45.3712" lon="5.49206">
        <ele>351.87</ele>
        <time>2017-03-26T07:59:45Z</time>
      </trkpt>
      <trkpt lat="45.3713" lon="5.4916">
        <ele>352.49</ele>
        <time>2017-03-26T07:59:46Z</time>
      </trkpt>
      <trkpt lat="45.37139" lon="5.49114">
        <ele>353.34</ele>
        <time>2017-03-26T07:59:47Z</time>
      </trkpt>
      <trkpt lat="45.37148" lon="5.49068">
        <ele>354.31</ele>
        <time>2017-03-26T07:59:48Z</time>
      </trkpt>
      <trkpt lat="45.37158" lon="5.49023">
        <ele>355.46</ele>
        <time>2017-03-26T07:59:49Z</time>
      </trkpt>
      <trkpt lat="45.37167" lon="5.48977">
        <ele>356.65</ele>
        <time>2017-03-26T07:59:50Z</time>
      </trkpt>
      <trkpt lat="45.37178" lon="5.48932">
        <ele>357.69</ele>
        <time>2017-03-26T07:59:51Z</time>
      </trkpt>
      <trkpt lat="45.3719" lon="5.48888">
        <ele>358.78</ele>
        <time>2017-03-26T07:59:52Z</time>
      </trkpt>
      <trkpt lat="45.37203" lon="5.48845">
        <ele>359.95</ele>
        <time>2017-03-26T07:59:53Z</time>
      </trkpt>
      <trkpt lat="45.37218" lon="5.48803">
        <ele>361.31</ele>
        <time>2017-03-26T07:59:54Z</time>
      </trkpt>
      <trkpt lat="45.37233" lon="5.48761">
        <ele>362.62</ele>
        <time>2017-03-26T07:59:55Z</time>
      </trkpt>
      <trkpt lat="45.37249" lon="5.48721">
        <ele>364</ele>
        <time>2017-03-26T07:59:56Z</time>
      </trkpt>
      <trkpt lat="45.37267" lon="5.48681">
        <ele>365.32</ele>
        <time>2017-03-26T07:59:57Z</time>
      </trkpt>
      <trkpt lat="45.37285" lon="5.48643">
        <ele>366.54</ele>
        <time>2017-03-26T07:59:58Z</time>
      </trkpt>
      <trkpt lat="45.37304" lon="5.48606">
        <ele>367.83</ele>
        <time>2017-03-26T07:59:59Z</time>
      </trkpt>
      <trkpt lat="45.37324" lon="5.4857">
        <ele>369.04</ele>
        <time>2017-03-26T08:00:00Z</time>
      </trkpt>
      <trkpt lat="45.37345" lon="5.48536">
        <ele>370.33</ele>
        <time>2017-03-26T08:00:01Z</time>
      </trkpt>
      <trkpt lat="45.37367" lon="5.48502">
        <ele>371.54</ele>
        <time>2017-03-26T08:00:02Z</time>
      </trkpt>
      <trkpt lat="45.3739" lon="5.48469">
        <ele>372.99</ele>
        <time>2017-03-26T08:00:03Z</time>
      </trkpt>
      <trkpt lat="45.37415" lon="5.48438">
        <ele>374.64</ele>
        <time>2017-03-26T08:00:04Z</time>
      </trkpt>
      <trkpt lat="45.3744" lon="5.48408">
        <ele>376.33</ele>
        <time>2017-03-26T08:00:05Z</time>
      </trkpt>
      <trkpt lat="45.37466" lon="5.4838">
        <ele>378.34</ele>
        <time>2017-03-26T08:00:06Z</time>
      </trkpt>
      <trkpt lat="45.37494" lon="5.48353">
        <ele>380.35</ele>
        <time>2017-03-26T08:00:07Z</time>
      </trkpt>
      <trkpt lat="45.37523" lon="5.48328">
        <ele>382.35</ele>
        <time>2017-03-26T08:00:08Z</time>
      </trkpt>
      <trkpt lat="45.37552" lon="5.48304">
        <ele>384.27</ele>
        <time>2017-03-26T08:00:09Z</time>
      </trkpt>
      <trkpt lat="45.37582" lon="5.48281">
        <ele>386.33</ele>
        <time>2017-03-26T08:00:10Z</time>
      </trkpt>
      <trkpt lat="45.37613" lon="5.48258">
        <ele>388.35</ele>
        <time>2017-03-26T08:00:11Z</time>
      </trkpt>
      <trkpt lat="45.37643" lon="5.48237">
        <ele>390.35</ele>
        <time>2017-03-26T08:00:12Z</time>
      </trkpt>
      <trkpt lat="45.37674" lon="5.48216">
        <ele>392.27</ele>
        <time>2017-03-26T08:00:13Z</time>
      </trkpt>
      <trkpt lat="45.37704" lon="5.48195">
        <ele>394.25</ele>
        <time>2017-03-26T08:00:14Z</time>
      </trkpt>
      <trkpt lat="45.37735" lon="5.48174">
        <ele>396.09</ele>
        <time>2017-03-26T08:00:15Z</time>
      </trkpt>
      <trkpt lat="45.37765" lon="5.48154">
        <ele>397.5</ele>
        <time>2017-03-26T08:00:16Z</time>
      </trkpt>
      <trkpt lat="45.37795" lon="5.48134">
        <ele>398.82</ele>
        <time>2017-03-26T08:00:17Z</time>
      </trkpt>
      <trkpt lat="45.37825" lon="5.48114">
        <ele>399.88</ele>
        <time>2017-03-26T08:00:18Z</time>
      </trkpt>
      <trkpt lat="45.37855" lon="5.48093">
        <ele>400.9</ele>
        <time>2017-03-26T08:00:19Z</time>
      </trkpt>
      <trkpt lat="45.37885" lon="5.48072">
        <ele>402.06</ele>
        <time>2017-03-26T08:00:20Z</time>
      </trkpt>
      <trkpt lat="45.37914" lon="5.48051">
        <ele>402.85</ele>
        <time>2017-03-26T08:00:21Z</time>
      </trkpt>
      <trkpt lat="45.37943" lon="5.4803">
        <ele>403.73</ele>
        <time>2017-03-26T08:00:22Z</time>
      </trkpt>
      <trkpt lat="45.37972" lon="5.48008">
        <ele>404.31</ele>
        <time>2017-03-26T08:00:23Z</time>
      </trkpt>
      <trkpt lat="45.38" lon="5.47985">
        <ele>404.98</ele>
        <time>2017-03-26T08:00:24Z</time>
      </trkpt>
      <trkpt lat="45.38029" lon="5.47962">
        <ele>405.52</ele>
        <time>2017-03-26T08:00:25Z</time>
      </trkpt>
      <trkpt lat="45.38057" lon="5.47939">
        <ele>406.02</ele>
        <time>2017-03-26T08:00:26Z</time>
      </trkpt>
      <trkpt lat="45.38085" lon="5.47913">
        <ele>406.52</ele>
        <time>2017-03-26T08:00:27Z</time>
      </trkpt>
      <trkpt lat="45.38114" lon="5.47886">
        <ele>406.94</ele>
        <time>2017-03-26T08:00:28Z</time>
      </trkpt>
      <trkpt lat="45.38143" lon="5.47856">
        <ele>407.75</ele>
        <time>2017-03-26T08:00:29Z</time>
      </trkpt>
      <trkpt lat="45.38173" lon="5.47826">
        <ele>408.55</ele>
        <time>2017-03-26T08:00:30Z</time>
      </trkpt>
      <trkpt lat="45.38202" lon="5.47796">
        <ele>409.11</ele>
        <time>2017-03-26T08:00:31Z</time>
      </trkpt>
      <trkpt lat="45.3823" lon="5.47767">
        <ele>409.46</ele>
        <time>2017-03-26T08:00:32Z</time>
      </trkpt>
      <trkpt lat="45.38258" lon="5.4774">
        <ele>409.93</ele>
        <time>2017-03-26T08:00:33Z</time>
      </trkpt>
      <trkpt lat="45.38284" lon="5.47713">
        <ele>410.59</ele>
        <time>2017-03-26T08:00:34Z</time>
      </trkpt>
      <trkpt lat="45.3831" lon="5.47685">
        <ele>411.04</ele>
        <time>2017-03-26T08:00:35Z</time>
      </trkpt>
      <trkpt lat="45.38336" lon="5.47658">
        <ele>411.53</ele>
        <time>2017-03-26T08:00:36Z</time>
      </trkpt>
      <trkpt lat="45.38361" lon="5.47631">
        <ele>411.86</ele>
        <time>2017-03-26T08:00:37Z</time>
      </trkpt>
      <trkpt lat="45.38386" lon="5.47604">
        <ele>412.25</ele>
        <time>2017-03-26T08:00:38Z</time>
      </trkpt>
      <trkpt lat="45.3841" lon="5.47578">
        <ele>412.65</ele>
        <time>2017-03-26T08:00:39Z</time>
      </trkpt>
      <trkpt lat="45.38434" lon="5.47553">
        <ele>413.37</ele>
        <time>2017-03-26T08:00:40Z</time>
      </trkpt>
      <trkpt lat="45.38457" lon="5.47529">
        <ele>414.07</ele>
        <time>2017-03-26T08:00:41Z</time>
      </trkpt>
      <trkpt lat="45.38479" lon="5.47507">
        <ele>414.69</ele>
        <time>2017-03-26T08:00:42Z</time>
      </trkpt>
      <trkpt lat="45.38499" lon="5.47486">
        <ele>415.3</ele>
        <time>2017-03-26T08:00:43Z</time>
      </trkpt>
      <trkpt lat="45.38519" lon="5.47466">
        <ele>415.98</ele>
        <time>2017-03-26T08:00:44Z</time>
      </trkpt>
      <trkpt lat="45.38537" lon="5.47448">
        <ele>416.75</ele>
        <time>2017-03-26T08:00:45Z</time>
      </trkpt>
      <trkpt lat="45.38554" lon="5.47431">
        <ele>417.47</ele>
        <time>2017-03-26T08:00:46Z</time>
      </trkpt>
      <trkpt lat="45.3857" lon="5.47415">
        <ele>418.01</ele>
        <time>2017-03-26T08:00:47Z</time>
      </trkpt>
      <trkpt lat="45.38586" lon="5.474">
        <ele>418.6</ele>
        <time>2017-03-26T08:00:48Z</time>
      </trkpt>
      <trkpt lat="45.38602" lon="5.47386">
        <ele>418.96</ele>
        <time>2017-03-26T08:00:49Z</time>
      </trkpt>
      <trkpt lat="45.38618" lon="5.47374">
        <ele>419.51</ele>
        <time>2017-03-26T08:00:50Z</time>
      </trkpt>
      <trkpt lat="45.38636" lon="5.47365">
        <ele>420.26</ele>
        <time>2017-03-26T08:00:51Z</time>
      </trkpt>
      <trkpt lat="45.38653" lon="5.47363">
        <ele>421.37</ele>
        <time>2017-03-26T08:00:52Z</time>
      </trkpt>
      <trkpt lat="45.3867" lon="5.47364">
        <ele>422.55</ele>
        <time>2017-03-26T08:00:53Z</time>
      </trkpt>
      <trkpt lat="45.38687" lon="5.4737">
        <ele>423.83</ele>
        <time>2017-03-26T08:00:54Z</time>
      </trkpt>
      <trkpt lat="45.38702" lon="5.47377">
        <ele>424.97</ele>
        <time>2017-03-26T08:00:55Z</time>
      </trkpt>
      <trkpt lat="45.38716" lon="5.47383">
        <ele>425.99</ele>
        <time>2017-03-26T08:00:56Z</time>
      </trkpt>
      <trkpt lat="45.38731" lon="5.47389">
        <ele>426.76</ele>
        <time>2017-03-26T08:00:57Z</time>
      </trkpt>
      <trkpt lat="45.38746" lon="5.47391">
        <ele>427.71</ele>
        <time>2017-03-26T08:00:58Z</time>
      </trkpt>
      <trkpt lat="45.38761" lon="5.47389">
        <ele>428.7</ele>
        <time>2017-03-26T08:00:59Z</time>
      </trkpt>
      <trkpt lat="45.38775" lon="5.47382">
        <ele>429.7</ele>
        <time>2017-03-26T08:01:00Z</time>
      </trkpt>
      <trkpt lat="45.38787" lon="5.4737">
        <ele>430.94</ele>
        <time>2017-03-26T08:01:01Z</time>
      </trkpt>
      <trkpt lat="45.38795" lon="5.47353">
        <ele>432.15</ele>
        <time>2017-03-26T08:01:02Z</time>
      </trkpt>
      <trkpt lat="45.38799" lon="5.47333">
        <ele>432.95</ele>
        <time>2017-03-26T08:01:03Z</time>
      </trkpt>
      <trkpt lat="45.38798" lon="5.47312">
        <ele>433.03</ele>
        <time>2017-03-26T08:01:04Z</time>
      </trkpt>
      <trkpt lat="45.38794" lon="5.47291">
        <ele>432.56</ele>
        <time>2017-03-26T08:01:05Z</time>
      </trkpt>
      <trkpt lat="45.38786" lon="5.47271">
        <ele>432.31</ele>
        <time>2017-03-26T08:01:06Z</time>
      </trkpt>
      <trkpt lat="45.38777" lon="5.47252">
        <ele>432.26</ele>
        <time>2017-03-26T08:01:07Z</time>
      </trkpt>
      <trkpt lat="45.38768" lon="5.47232">
        <ele>432.09</ele>
        <time>2017-03-26T08:01:08Z</time>
      </trkpt>
      <trkpt lat="45.38759" lon="5.47213">
        <ele>431.74</ele>
        <time>2017-03-26T08:01:09Z</time>
      </trkpt>
      <trkpt lat="45.3875" lon="5.47195">
        <ele>431.27</ele>
        <time>2017-03-26T08:01:10Z</time>
      </trkpt>
      <trkpt lat="45.38741" lon="5.47177">
        <ele>431.25</ele>
        <time>2017-03-26T08:01:11Z</time>
      </trkpt>
      <trkpt lat="45.38732" lon="5.47159">
        <ele>430.77</ele>
        <time>2017-03-26T08:01:12Z</time>
      </trkpt>
      <trkpt lat="45.38721" lon="5.47142">
        <ele>430.03</ele>
        <time>2017-03-26T08:01:13Z</time>
      </trkpt>
      <trkpt lat="45.38709" lon="5.47127">
        <ele>429.25</ele>
        <time>2017-03-26T08:01:14Z</time>
      </trkpt>
      <trkpt lat="45.38695" lon="5.47114">
        <ele>428.45</ele>
        <time>2017-03-26T08:01:15Z</time>
      </trkpt>
      <trkpt lat="45.3868" lon="5.47105">
        <ele>427.57</ele>
        <time>2017-03-26T08:01:16Z</time>
      </trkpt>
      <trkpt lat="45.38665" lon="5.47101">
        <ele>426.91</ele>
        <time>2017-03-26T08:01:17Z</time>
      </trkpt>
      <trkpt lat="45.38649" lon="5.471">
        <ele>426.62</ele>
        <time>2017-03-26T08:01:18Z</time>
      </trkpt>
      <trkpt lat="45.38633" lon="5.47104">
        <ele>426.16</ele>
        <time>2017-03-26T08:01:19Z</time>
      </trkpt>
      <trkpt lat="45.38617" lon="5.47111">
        <ele>425.27</ele>
        <time>2017-03-26T08:01:20Z</time>
      </trkpt>
      <trkpt lat="45.38602" lon="5.47121">
        <ele>424.61</ele>
        <time>2017-03-26T08:01:21Z</time>
      </trkpt>
      <trkpt lat="45.38587" lon="5.47133">
        <ele>424.08</ele>
        <time>2017-03-26T08:01:22Z</time>
      </trkpt>
      <trkpt lat="45.38573" lon="5.47146">
        <ele>423.34</ele>
        <time>2017-03-26T08:01:23Z</time>
      </trkpt>
      <trkpt lat="45.38558" lon="5.47159">
        <ele>422.79</ele>
        <time>2017-03-26T08:01:24Z</time>
      </trkpt>
      <trkpt lat="45.38543" lon="5.47173">
        <ele>422.52</ele>
        <time>2017-03-26T08:01:25Z</time>
      </trkpt>
      <trkpt lat="45.38529" lon="5.47188">
        <ele>422.22</ele>
        <time>2017-03-26T08:01:26Z</time>
      </trkpt>
      <trkpt lat="45.38513" lon="5.47203">
        <ele>421.92</ele>
        <time>2017-03-26T08:01:27Z</time>
      </trkpt>
      <trkpt lat="45.38498" lon="5.47218">
        <ele>421.38</ele>
        <time>2017-03-26T08:01:28Z</time>
      </trkpt>
      <trkpt lat="45.38483" lon="5.47233">
        <ele>421.12</ele>
        <time>2017-03-26T08:01:29Z</time>
      </trkpt>
      <trkpt lat="45.38469" lon="5.47246">
        <ele>420.58</ele>
        <time>2017-03-26T08:01:30Z</time>
      </trkpt>
      <trkpt lat="45.38456" lon="5.47258">
        <ele>420.16</ele>
        <time>2017-03-26T08:01:31Z</time>
      </trkpt>
      <trkpt lat="45.38444" lon="5.47269">
        <ele>419.91</ele>
        <time>2017-03-26T08:01:32Z</time>
      </trkpt>
      <trkpt lat="45.38434" lon="5.47279">
        <ele>419.62</ele>
        <time>2017-03-26T08:01:33Z</time>
      </trkpt>
      <trkpt lat="45.38426" lon="5.47287">
        <ele>419.24</ele>
        <time>2017-03-26T08:01:34Z</time>
      </trkpt>
      <trkpt lat="45.38419" lon="5.47294">
        <ele>418.21</ele>
        <time>2017-03-26T08:01:35Z</time>
      </trkpt>
      <trkpt lat="45.38413" lon="5.473">
        <ele>417.76</ele>
        <time>2017-03-26T08:01:36Z</time>
      </trkpt>
      <trkpt lat="45.38408" lon="5.47304">
        <ele>417.51</ele>
        <time>2017-03-26T08:01:37Z</time>
      </trkpt>
      <trkpt lat="45.38404" lon="5.47307">
        <ele>417.54</ele>
        <time>2017-03-26T08:01:38Z</time>
      </trkpt>
      <trkpt lat="45.38402" lon="5.47308">
        <ele>417.39</ele>
        <time>2017-03-26T08:01:39Z</time>
      </trkpt>
      <trkpt lat="45.38401" lon="5.47309">
        <ele>417.12</ele>
        <time>2017-03-26T08:01:40Z</time>
      </trkpt>
      <trkpt lat="45.38401" lon="5.47309">
        <ele>416.66</ele>
        <time>2017-03-26T08:01:41Z</time>
      </trkpt>
      <trkpt lat="45.38401" lon="5.4731">
        <ele>416.41</ele>
        <time>2017-03-26T08:01:42Z</time>
      </trkpt>
      <trkpt lat="45.38399" lon="5.47311">
        <ele>416.2</ele>
        <time>2017-03-26T08:01:43Z</time>
      </trkpt>
      <trkpt lat="45.38397" lon="5.47314">
        <ele>416.16</ele>
        <time>2017-03-26T08:01:44Z</time>
      </trkpt>
      <trkpt lat="45.38393" lon="5.47316">
        <ele>416.23</ele>
        <time>2017-03-26T08:01:45Z</time>
      </trkpt>
      <trkpt lat="45.38388" lon="5.47319">
        <ele>416.33</ele>
        <time>2017-03-26T08:01:46Z</time>
      </trkpt>
      <trkpt lat="45.38382" lon="5.47321">
        <ele>416.26</ele>
        <time>2017-03-26T08:01:47Z</time>
      </trkpt>
      <trkpt lat="45.38377" lon="5.47325">
        <ele>416.17</ele>
        <time>2017-03-26T08:01:48Z</time>
      </trkpt>
      <trkpt lat="45.38371" lon="5.47328">
        <ele>416.07</ele>
        <time>2017-03-26T08:01:49Z</time>
      </trkpt>
      <trkpt lat="45.38365" lon="5.47332">
        <ele>415.97</ele>
        <time>2017-03-26T08:01:50Z</time>
      </trkpt>
      <trkpt lat="45.38358" lon="5.47336">
        <ele>415.95</ele>
        <time>2017-03-26T08:01:51Z</time>
      </trkpt>
      <trkpt lat="45.3835" lon="5.47342">
        <ele>415.87</ele>
        <time>2017-03-26T08:01:52Z</time>
      </trkpt>
      <trkpt lat="45.38342" lon="5.47348">
        <ele>416.01</ele>
        <time>2017-03-26T08:01:53Z</time>
      </trkpt>
      <trkpt lat="45.38333" lon="5.47355">
        <ele>416.12</ele>
        <time>2017-03-26T08:01:54Z</time>
      </trkpt>
      <trkpt lat="45.38324" lon="5.47364">
        <ele>416.3</ele>
        <time>2017-03-26T08:01:55Z</time>
      </trkpt>
      <trkpt lat="45.38315" lon="5.47372">
        <ele>416.5</ele>
        <time>2017-03-26T08:01:56Z</time>
      </trkpt>
      <trkpt lat="45.38306" lon="5.4738">
        <ele>416.78</ele>
        <time>2017-03-26T08:01:57Z</time>
      </trkpt>
      <trkpt lat="45.38297" lon="5.47389">
        <ele>417</ele>
        <time>2017-03-26T08:01:58Z</time>
      </trkpt>
      <trkpt lat="45.38288" lon="5.47397">
        <ele>417.12</ele>
        <time>2017-03-26T08:01:59Z</time>
      </trkpt>
      <trkpt lat="45.38279" lon="5.47403">
        <ele>417.3</ele>
        <time>2017-03-26T08:02:00Z</time>
      </trkpt>
      <trkpt lat="45.38268" lon="5.47405">
        <ele>417.26</ele>
        <time>2017-03-26T08:02:01Z</time>
      </trkpt>
      <trkpt lat="45.38257" lon="5.47402">
        <ele>416.93</ele>
        <time>2017-03-26T08:02:02Z</time>
      </trkpt>
      <trkpt lat="45.38247" lon="5.47394">
        <ele>416.55</ele>
        <time>2017-03-26T08:02:03Z</time>
      </trkpt>
      <trkpt lat="45.38237" lon="5.4738">
        <ele>416.31</ele>
        <time>2017-03-26T08:02:04Z</time>
      </trkpt>
      <trkpt lat="45.38228" lon="5.47362">
        <ele>415.62</ele>
        <time>2017-03-26T08:02:05Z</time>
      </trkpt>
      <trkpt lat="45.38219" lon="5.4734">
        <ele>414.44</ele>
        <time>2017-03-26T08:02:06Z</time>
      </trkpt>
      <trkpt lat="45.38209" lon="5.47318">
        <ele>413.41</ele>
        <time>2017-03-26T08:02:07Z</time>
      </trkpt>
      <trkpt lat="45.38199" lon="5.47295">
        <ele>412.48</ele>
        <time>2017-03-26T08:02:08Z</time>
      </trkpt>
      <trkpt lat="45.3819" lon="5.4727">
        <ele>411.58</ele>
        <time>2017-03-26T08:02:09Z</time>
      </trkpt>
      <trkpt lat="45.38182" lon="5.47244">
        <ele>410.67</ele>
        <time>2017-03-26T08:02:10Z</time>
      </trkpt>
      <trkpt lat="45.38175" lon="5.47216">
        <ele>409.93</ele>
        <time>2017-03-26T08:02:11Z</time>
      </trkpt>
      <trkpt lat="45.38172" lon="5.47185">
        <ele>409.15</ele>
        <time>2017-03-26T08:02:12Z</time>
      </trkpt>
      <trkpt lat="45.3817" lon="5.47154">
        <ele>408.43</ele>
        <time>2017-03-26T08:02:13Z</time>
      </trkpt>
      <trkpt lat="45.38169" lon="5.47121">
        <ele>407.96</ele>
        <time>2017-03-26T08:02:14Z</time>
      </trkpt>
      <trkpt lat="45.38168" lon="5.47086">
        <ele>407.71</ele>
        <time>2017-03-26T08:02:15Z</time>
      </trkpt>
      <trkpt lat="45.38166" lon="5.47051">
        <ele>407.34</ele>
        <time>2017-03-26T08:02:16Z</time>
      </trkpt>
      <trkpt lat="45.38163" lon="5.47016">
        <ele>407.11</ele>
        <time>2017-03-26T08:02:17Z</time>
      </trkpt>
      <trkpt lat="45.38159" lon="5.46981">
        <ele>406.66</ele>
        <time>2017-03-26T08:02:18Z</time>
      </trkpt>
      <trkpt lat="45.38155" lon="5.46946">
        <ele>406.49</ele>
        <time>2017-03-26T08:02:19Z</time>
      </trkpt>
      <trkpt lat="45.38148" lon="5.4691">
        <ele>406.62</ele>
        <time>2017-03-26T08:02:20Z</time>
      </trkpt>
      <trkpt lat="45.38141" lon="5.46876">
        <ele>406.64</ele>
        <time>2017-03-26T08:02:21Z</time>
      </trkpt>
      <trkpt lat="45.38132" lon="5.46841">
        <ele>406.81</ele>
        <time>2017-03-26T08:02:22Z</time>
      </trkpt>
      <trkpt lat="45.3812" lon="5.46808">
        <ele>407.77</ele>
        <time>2017-03-26T08:02:23Z</time>
      </trkpt>
      <trkpt lat="45.38108" lon="5.46776">
        <ele>408.36</ele>
        <time>2017-03-26T08:02:24Z</time>
      </trkpt>
      <trkpt lat="45.38094" lon="5.46745">
        <ele>408.56</ele>
        <time>2017-03-26T08:02:25Z</time>
      </trkpt>
      <trkpt lat="45.38079" lon="5.46715">
        <ele>408.76</ele>
        <time>2017-03-26T08:02:26Z</time>
      </trkpt>
      <trkpt lat="45.38062" lon="5.46687">
        <ele>408.56</ele>
        <time>2017-03-26T08:02:27Z</time>
      </trkpt>
      <trkpt lat="45.38045" lon="5.46659">
        <ele>408.28</ele>
        <time>2017-03-26T08:02:28Z</time>
      </trkpt>
      <trkpt lat="45.38028" lon="5.46631">
        <ele>408.06</ele>
        <time>2017-03-26T08:02:29Z</time>
      </trkpt>
      <trkpt lat="45.3801" lon="5.46604">
        <ele>407.78</ele>
        <time>2017-03-26T08:02:30Z</time>
      </trkpt>
      <trkpt lat="45.37992" lon="5.46577">
        <ele>407.32</ele>
        <time>2017-03-26T08:02:31Z</time>
      </trkpt>
      <trkpt lat="45.37974" lon="5.46549">
        <ele>406.83</ele>
        <time>2017-03-26T08:02:32Z</time>
      </trkpt>
      <trkpt lat="45.37956" lon="5.46522">
        <ele>406.41</ele>
        <time>2017-03-26T08:02:33Z</time>
      </trkpt>
      <trkpt lat="45.37939" lon="5.46494">
        <ele>406.17</ele>
        <time>2017-03-26T08:02:34Z</time>
      </trkpt>
      <trkpt lat="45.37921" lon="5.46467">
        <ele>405.88</ele>
        <time>2017-03-26T08:02:35Z</time>
      </trkpt>
      <trkpt lat="45.37903" lon="5.46439">
        <ele>405.5</ele>
        <time>2017-03-26T08:02:36Z</time>
      </trkpt>
      <trkpt lat="45.37886" lon="5.46411">
        <ele>405.1</ele>
        <time>2017-03-26T08:02:37Z</time>
      </trkpt>
      <trkpt lat="45.37868" lon="5.46382">
        <ele>404.79</ele>
        <time>2017-03-26T08:02:38Z</time>
      </trkpt>
      <trkpt lat="45.37851" lon="5.46352">
        <ele>404.48</ele>
        <time>2017-03-26T08:02:39Z</time>
      </trkpt>
      <trkpt lat="45.37834" lon="5.46323">
        <ele>404.02</ele>
        <time>2017-03-26T08:02:40Z</time>
      </trkpt>
      <trkpt lat="45.37817" lon="5.46295">
        <ele>403.53</ele>
        <time>2017-03-26T08:02:41Z</time>
      </trkpt>
      <trkpt lat="45.378" lon="5.46266">
        <ele>402.87</ele>
        <time>2017-03-26T08:02:42Z</time>
      </trkpt>
      <trkpt lat="45.37782" lon="5.46237">
        <ele>402.42</ele>
        <time>2017-03-26T08:02:43Z</time>
      </trkpt>
      <trkpt lat="45.37765" lon="5.46208">
        <ele>402.09</ele>
        <time>2017-03-26T08:02:44Z</time>
      </trkpt>
      <trkpt lat="45.37748" lon="5.46178">
        <ele>401.86</ele>
        <time>2017-03-26T08:02:45Z</time>
      </trkpt>
      <trkpt lat="45.37731" lon="5.46149">
        <ele>401.42</ele>
        <time>2017-03-26T08:02:46Z</time>
      </trkpt>
      <trkpt lat="45.37714" lon="5.46119">
        <ele>401.09</ele>
        <time>2017-03-26T08:02:47Z</time>
      </trkpt>
      <trkpt lat="45.37696" lon="5.4609">
        <ele>400.7</ele>
        <time>2017-03-26T08:02:48Z</time>
      </trkpt>
      <trkpt lat="45.37679" lon="5.46062">
        <ele>400.39</ele>
        <time>2017-03-26T08:02:49Z</time>
      </trkpt>
      <trkpt lat="45.37662" lon="5.46033">
        <ele>400.08</ele>
        <time>2017-03-26T08:02:50Z</time>
      </trkpt>
      <trkpt lat="45.37645" lon="5.46004">
        <ele>399.78</ele>
        <time>2017-03-26T08:02:51Z</time>
      </trkpt>
      <trkpt lat="45.37628" lon="5.45975">
        <ele>399.48</ele>
        <time>2017-03-26T08:02:52Z</time>
      </trkpt>
      <trkpt lat="45.37611" lon="5.45946">
        <ele>399.18</ele>
        <time>2017-03-26T08:02:53Z</time>
      </trkpt>
      <trkpt lat="45.37594" lon="5.45917">
        <ele>399.04</ele>
        <time>2017-03-26T08:02:54Z</time>
      </trkpt>
      <trkpt lat="45.37577" lon="5.45889">
        <ele>398.85</ele>
        <time>2017-03-26T08:02:55Z</time>
      </trkpt>
      <trkpt lat="45.3756" lon="5.4586">
        <ele>398.5</ele>
        <time>2017-03-26T08:02:56Z</time>
      </trkpt>
      <trkpt lat="45.37543" lon="5.45831">
        <ele>398.26</ele>
        <time>2017-03-26T08:02:57Z</time>
      </trkpt>
      <trkpt lat="45.37526" lon="5.45803">
        <ele>398.06</ele>
        <time>2017-03-26T08:02:58Z</time>
      </trkpt>
      <trkpt lat="45.37509" lon="5.45774">
        <ele>397.78</ele>
        <time>2017-03-26T08:02:59Z</time>
      </trkpt>
      <trkpt lat="45.37492" lon="5.45746">
        <ele>397.56</ele>
        <time>2017-03-26T08:03:00Z</time>
      </trkpt>
      <trkpt lat="45.37476" lon="5.45717">
        <ele>397.28</ele>
        <time>2017-03-26T08:03:01Z</time>
      </trkpt>
      <trkpt lat="45.37459" lon="5.45688">
        <ele>397.06</ele>
        <time>2017-03-26T08:03:02Z</time>
      </trkpt>
      <trkpt lat="45.37443" lon="5.4566">
        <ele>396.94</ele>
        <time>2017-03-26T08:03:03Z</time>
      </trkpt>
      <trkpt lat="45.37426" lon="5.45631">
        <ele>396.75</ele>
        <time>2017-03-26T08:03:04Z</time>
      </trkpt>
      <trkpt lat="45.3741" lon="5.45601">
        <ele>396.64</ele>
        <time>2017-03-26T08:03:05Z</time>
      </trkpt>
      <trkpt lat="45.37394" lon="5.45571">
        <ele>396.37</ele>
        <time>2017-03-26T08:03:06Z</time>
      </trkpt>
      <trkpt lat="45.37377" lon="5.45541">
        <ele>396.08</ele>
        <time>2017-03-26T08:03:07Z</time>
      </trkpt>
      <trkpt lat="45.37361" lon="5.45511">
        <ele>395.78</ele>
        <time>2017-03-26T08:03:08Z</time>
      </trkpt>
      <trkpt lat="45.37345" lon="5.45481">
        <ele>395.48</ele>
        <time>2017-03-26T08:03:09Z</time>
      </trkpt>
      <trkpt lat="45.37329" lon="5.4545">
        <ele>395.1</ele>
        <time>2017-03-26T08:03:10Z</time>
      </trkpt>
      <trkpt lat="45.37314" lon="5.45419">
        <ele>394.62</ele>
        <time>2017-03-26T08:03:11Z</time>
      </trkpt>
      <trkpt lat="45.37299" lon="5.45388">
        <ele>393.97</ele>
        <time>2017-03-26T08:03:12Z</time>
      </trkpt>
      <trkpt lat="45.37283" lon="5.45356">
        <ele>393.76</ele>
        <time>2017-03-26T08:03:13Z</time>
      </trkpt>
      <trkpt lat="45.37269" lon="5.45324">
        <ele>393</ele>
        <time>2017-03-26T08:03:14Z</time>
      </trkpt>
      <trkpt lat="45.37254" lon="5.45293">
        <ele>392.36</ele>
        <time>2017-03-26T08:03:15Z</time>
      </trkpt>
      <trkpt lat="45.3724" lon="5.45261">
        <ele>392.08</ele>
        <time>2017-03-26T08:03:16Z</time>
      </trkpt>
      <trkpt lat="45.37226" lon="5.45228">
        <ele>392.02</ele>
        <time>2017-03-26T08:03:17Z</time>
      </trkpt>
      <trkpt lat="45.37212" lon="5.45196">
        <ele>392.01</ele>
        <time>2017-03-26T08:03:18Z</time>
      </trkpt>
      <trkpt lat="45.37198" lon="5.45164">
        <ele>392.09</ele>
        <time>2017-03-26T08:03:19Z</time>
      </trkpt>
      <trkpt lat="45.37185" lon="5.45131">
        <ele>392.18</ele>
        <time>2017-03-26T08:03:20Z</time>
      </trkpt>
      <trkpt lat="45.37172" lon="5.45098">
        <ele>391.96</ele>
        <time>2017-03-26T08:03:21Z</time>
      </trkpt>
      <trkpt lat="45.37159" lon="5.45064">
        <ele>391.68</ele>
        <time>2017-03-26T08:03:22Z</time>
      </trkpt>
      <trkpt lat="45.37146" lon="5.4503">
        <ele>391.7</ele>
        <time>2017-03-26T08:03:23Z</time>
      </trkpt>
      <trkpt lat="45.37134" lon="5.44996">
        <ele>391.46</ele>
        <time>2017-03-26T08:03:24Z</time>
      </trkpt>
      <trkpt lat="45.37122" lon="5.44962">
        <ele>391.1</ele>
        <time>2017-03-26T08:03:25Z</time>
      </trkpt>
      <trkpt lat="45.3711" lon="5.44927">
        <ele>390.7</ele>
        <time>2017-03-26T08:03:26Z</time>
      </trkpt>
      <trkpt lat="45.37098" lon="5.44892">
        <ele>390.47</ele>
        <time>2017-03-26T08:03:27Z</time>
      </trkpt>
      <trkpt lat="45.37087" lon="5.44857">
        <ele>390.5</ele>
        <time>2017-03-26T08:03:28Z</time>
      </trkpt>
      <trkpt lat="45.37077" lon="5.44822">
        <ele>390.42</ele>
        <time>2017-03-26T08:03:29Z</time>
      </trkpt>
      <trkpt lat="45.37067" lon="5.44786">
        <ele>390.25</ele>
        <time>2017-03-26T08:03:30Z</time>
      </trkpt>
      <trkpt lat="45.37057" lon="5.44751">
        <ele>390.05</ele>
        <time>2017-03-26T08:03:31Z</time>
      </trkpt>
      <trkpt lat="45.37048" lon="5.44716">
        <ele>390.02</ele>
        <time>2017-03-26T08:03:32Z</time>
      </trkpt>
      <trkpt lat="45.37038" lon="5.4468">
        <ele>390.17</ele>
        <time>2017-03-26T08:03:33Z</time>
      </trkpt>
      <trkpt lat="45.37029" lon="5.44644">
        <ele>390.28</ele>
        <time>2017-03-26T08:03:34Z</time>
      </trkpt>
      <trkpt lat="45.3702" lon="5.44608">
        <ele>390.62</ele>
        <time>2017-03-26T08:03:35Z</time>
      </trkpt>
      <trkpt lat="45.37011" lon="5.44572">
        <ele>390.93</ele>
        <time>2017-03-26T08:03:36Z</time>
      </trkpt>
      <trkpt lat="45.37003" lon="5.44536">
        <ele>391.31</ele>
        <time>2017-03-26T08:03:37Z</time>
      </trkpt>
      <trkpt lat="45.36995" lon="5.44499">
        <ele>391.63</ele>
        <time>2017-03-26T08:03:38Z</time>
      </trkpt>
      <trkpt lat="45.36986" lon="5.44461">
        <ele>392.17</ele>
        <time>2017-03-26T08:03:39Z</time>
      </trkpt>
      <trkpt lat="45.36978" lon="5.44424">
        <ele>393</ele>
        <time>2017-03-26T08:03:40Z</time>
      </trkpt>
      <trkpt lat="45.36969" lon="5.44386">
        <ele>393.72</ele>
        <time>2017-03-26T08:03:41Z</time>
      </trkpt>
      <trkpt lat="45.36961" lon="5.44348">
        <ele>394.59</ele>
        <time>2017-03-26T08:03:42Z</time>
      </trkpt>
      <trkpt lat="45.36953" lon="5.44309">
        <ele>395.48</ele>
        <time>2017-03-26T08:03:43Z</time>
      </trkpt>
      <trkpt lat="45.36945" lon="5.44271">
        <ele>396.3</ele>
        <time>2017-03-26T08:03:44Z</time>
      </trkpt>
      <trkpt lat="45.36937" lon="5.44233">
        <ele>397.03</ele>
        <time>2017-03-26T08:03:45Z</time>
      </trkpt>
      <trkpt lat="45.3693" lon="5.44195">
        <ele>397.73</ele>
        <time>2017-03-26T08:03:46Z</time>
      </trkpt>
      <trkpt lat="45.36922" lon="5.44157">
        <ele>398.43</ele>
        <time>2017-03-26T08:03:47Z</time>
      </trkpt>
      <trkpt lat="45.36915" lon="5.44119">
        <ele>399.21</ele>
        <time>2017-03-26T08:03:48Z</time>
      </trkpt>
      <trkpt lat="45.36907" lon="5.44081">
        <ele>400.01</ele>
        <time>2017-03-26T08:03:49Z</time>
      </trkpt>
      <trkpt lat="45.369" lon="5.44043">
        <ele>400.73</ele>
        <time>2017-03-26T08:03:50Z</time>
      </trkpt>
      <trkpt lat="45.36893" lon="5.44005">
        <ele>401.03</ele>
        <time>2017-03-26T08:03:51Z</time>
      </trkpt>
      <trkpt lat="45.36885" lon="5.43967">
        <ele>401.17</ele>
        <time>2017-03-26T08:03:52Z</time>
      </trkpt>
      <trkpt lat="45.36878" lon="5.43929">
        <ele>401.52</ele>
        <time>2017-03-26T08:03:53Z</time>
      </trkpt>
      <trkpt lat="45.3687" lon="5.43892">
        <ele>401.67</ele>
        <time>2017-03-26T08:03:54Z</time>
      </trkpt>
      <trkpt lat="45.36863" lon="5.43853">
        <ele>401.62</ele>
        <time>2017-03-26T08:03:55Z</time>
      </trkpt>
      <trkpt lat="45.36855" lon="5.43816">
        <ele>401.37</ele>
        <time>2017-03-26T08:03:56Z</time>
      </trkpt>
      <trkpt lat="45.36848" lon="5.43778">
        <ele>401</ele>
        <time>2017-03-26T08:03:57Z</time>
      </trkpt>
      <trkpt lat="45.3684" lon="5.4374">
        <ele>400.84</ele>
        <time>2017-03-26T08:03:58Z</time>
      </trkpt>
      <trkpt lat="45.36833" lon="5.43702">
        <ele>400.49</ele>
        <time>2017-03-26T08:03:59Z</time>
      </trkpt>
      <trkpt lat="45.36826" lon="5.43664">
        <ele>399.94</ele>
        <time>2017-03-26T08:04:00Z</time>
      </trkpt>
      <trkpt lat="45.36819" lon="5.43627">
        <ele>399.75</ele>
        <time>2017-03-26T08:04:01Z</time>
      </trkpt>
      <trkpt lat="45.36811" lon="5.43589">
        <ele>399.48</ele>
        <time>2017-03-26T08:04:02Z</time>
      </trkpt>
      <trkpt lat="45.36804" lon="5.43552">
        <ele>399.02</ele>
        <time>2017-03-26T08:04:03Z</time>
      </trkpt>
      <trkpt lat="45.36796" lon="5.43514">
        <ele>397.89</ele>
        <time>2017-03-26T08:04:04Z</time>
      </trkpt>
      <trkpt lat="45.36788" lon="5.43477">
        <ele>396.86</ele>
        <time>2017-03-26T08:04:05Z</time>
      </trkpt>
      <trkpt lat="45.36781" lon="5.43439">
        <ele>395.7</ele>
        <time>2017-03-26T08:04:06Z</time>
      </trkpt>
      <trkpt lat="45.36773" lon="5.43401">
        <ele>394.58</ele>
        <time>2017-03-26T08:04:07Z</time>
      </trkpt>
      <trkpt lat="45.36766" lon="5.43363">
        <ele>393.24</ele>
        <time>2017-03-26T08:04:08Z</time>
      </trkpt>
      <trkpt lat="45.36759" lon="5.43324">
        <ele>392.01</ele>
        <time>2017-03-26T08:04:09Z</time>
      </trkpt>
      <trkpt lat="45.36751" lon="5.43286">
        <ele>390.97</ele>
        <time>2017-03-26T08:04:10Z</time>
      </trkpt>
      <trkpt lat="45.36743" lon="5.43247">
        <ele>389.96</ele>
        <time>2017-03-26T08:04:11Z</time>
      </trkpt>
      <trkpt lat="45.36736" lon="5.43208">
        <ele>389.12</ele>
        <time>2017-03-26T08:04:12Z</time>
      </trkpt>
      <trkpt lat="45.36728" lon="5.4317">
        <ele>388.39</ele>
        <time>2017-03-26T08:04:13Z</time>
      </trkpt>
      <trkpt lat="45.36721" lon="5.43131">
        <ele>387.84</ele>
        <time>2017-03-26T08:04:14Z</time>
      </trkpt>
      <trkpt lat="45.36713" lon="5.43092">
        <ele>387.57</ele>
        <time>2017-03-26T08:04:15Z</time>
      </trkpt>
      <trkpt lat="45.36705" lon="5.43053">
        <ele>387.52</ele>
        <time>2017-03-26T08:04:16Z</time>
      </trkpt>
      <trkpt lat="45.36697" lon="5.43014">
        <ele>387.51</ele>
        <time>2017-03-26T08:04:17Z</time>
      </trkpt>
      <trkpt lat="45.36689" lon="5.42975">
        <ele>387.27</ele>
        <time>2017-03-26T08:04:18Z</time>
      </trkpt>
      <trkpt lat="45.36681" lon="5.42936">
        <ele>387.3</ele>
        <time>2017-03-26T08:04:19Z</time>
      </trkpt>
      <trkpt lat="45.36673" lon="5.42898">
        <ele>386.98</ele>
        <time>2017-03-26T08:04:20Z</time>
      </trkpt>
      <trkpt lat="45.36665" lon="5.42859">
        <ele>386.76</ele>
        <time>2017-03-26T08:04:21Z</time>
      </trkpt>
      <trkpt lat="45.36657" lon="5.42821">
        <ele>386.72</ele>
        <time>2017-03-26T08:04:22Z</time>
      </trkpt>
      <trkpt lat="45.36649" lon="5.42782">
        <ele>386.55</ele>
        <time>2017-03-26T08:04:23Z</time>
      </trkpt>
      <trkpt lat="45.36642" lon="5.42744">
        <ele>386.35</ele>
        <time>2017-03-26T08:04:24Z</time>
      </trkpt>
      <trkpt lat="45.36634" lon="5.42705">
        <ele>386.08</ele>
        <time>2017-03-26T08:04:25Z</time>
      </trkpt>
      <trkpt lat="45.36627" lon="5.42667">
        <ele>385.7</ele>
        <time>2017-03-26T08:04:26Z</time>
      </trkpt>
      <trkpt lat="45.36619" lon="5.42629">
        <ele>385.38</ele>
        <time>2017-03-26T08:04:27Z</time>
      </trkpt>
      <trkpt lat="45.36612" lon="5.42591">
        <ele>385.08</ele>
        <time>2017-03-26T08:04:28Z</time>
      </trkpt>
      <trkpt lat="45.36604" lon="5.42553">
        <ele>384.78</ele>
        <time>2017-03-26T08:04:29Z</time>
      </trkpt>
      <trkpt lat="45.36597" lon="5.42515">
        <ele>384.48</ele>
        <time>2017-03-26T08:04:30Z</time>
      </trkpt>
      <trkpt lat="45.3659" lon="5.42477">
        <ele>384.1</ele>
        <time>2017-03-26T08:04:31Z</time>
      </trkpt>
      <trkpt lat="45.36583" lon="5.42439">
        <ele>383.86</ele>
        <time>2017-03-26T08:04:32Z</time>
      </trkpt>
      <trkpt lat="45.36576" lon="5.42401">
        <ele>383.5</ele>
        <time>2017-03-26T08:04:33Z</time>
      </trkpt>
      <trkpt lat="45.3657" lon="5.42363">
        <ele>383.42</ele>
        <time>2017-03-26T08:04:34Z</time>
      </trkpt>
      <trkpt lat="45.36563" lon="5.42325">
        <ele>383.33</ele>
        <time>2017-03-26T08:04:35Z</time>
      </trkpt>
      <trkpt lat="45.36556" lon="5.42288">
        <ele>383.23</ele>
        <time>2017-03-26T08:04:36Z</time>
      </trkpt>
      <trkpt lat="45.36549" lon="5.4225">
        <ele>382.73</ele>
        <time>2017-03-26T08:04:37Z</time>
      </trkpt>
      <trkpt lat="45.36542" lon="5.42213">
        <ele>382.47</ele>
        <time>2017-03-26T08:04:38Z</time>
      </trkpt>
      <trkpt lat="45.36535" lon="5.42175">
        <ele>382.34</ele>
        <time>2017-03-26T08:04:39Z</time>
      </trkpt>
      <trkpt lat="45.36527" lon="5.42137">
        <ele>382.23</ele>
        <time>2017-03-26T08:04:40Z</time>
      </trkpt>
      <trkpt lat="45.36519" lon="5.42099">
        <ele>382.21</ele>
        <time>2017-03-26T08:04:41Z</time>
      </trkpt>
      <trkpt lat="45.36512" lon="5.42061">
        <ele>382.29</ele>
        <time>2017-03-26T08:04:42Z</time>
      </trkpt>
      <trkpt lat="45.36504" lon="5.42023">
        <ele>382.14</ele>
        <time>2017-03-26T08:04:43Z</time>
      </trkpt>
      <trkpt lat="45.36496" lon="5.41985">
        <ele>382.19</ele>
        <time>2017-03-26T08:04:44Z</time>
      </trkpt>
      <trkpt lat="45.36489" lon="5.41947">
        <ele>382.2</ele>
        <time>2017-03-26T08:04:45Z</time>
      </trkpt>
      <trkpt lat="45.36481" lon="5.41909">
        <ele>382.37</ele>
        <time>2017-03-26T08:04:46Z</time>
      </trkpt>
      <trkpt lat="45.36473" lon="5.41871">
        <ele>382.48</ele>
        <time>2017-03-26T08:04:47Z</time>
      </trkpt>
      <trkpt lat="45.36466" lon="5.41833">
        <ele>382.42</ele>
        <time>2017-03-26T08:04:48Z</time>
      </trkpt>
      <trkpt lat="45.36458" lon="5.41795">
        <ele>382.33</ele>
        <time>2017-03-26T08:04:49Z</time>
      </trkpt>
      <trkpt lat="45.36451" lon="5.41757">
        <ele>382.15</ele>
        <time>2017-03-26T08:04:50Z</time>
      </trkpt>
      <trkpt lat="45.36443" lon="5.41718">
        <ele>381.87</ele>
        <time>2017-03-26T08:04:51Z</time>
      </trkpt>
      <trkpt lat="45.36435" lon="5.4168">
        <ele>381.98</ele>
        <time>2017-03-26T08:04:52Z</time>
      </trkpt>
      <trkpt lat="45.36428" lon="5.41642">
        <ele>381.68</ele>
        <time>2017-03-26T08:04:53Z</time>
      </trkpt>
      <trkpt lat="45.3642" lon="5.41604">
        <ele>381.3</ele>
        <time>2017-03-26T08:04:54Z</time>
      </trkpt>
      <trkpt lat="45.36412" lon="5.41566">
        <ele>380.82</ele>
        <time>2017-03-26T08:04:55Z</time>
      </trkpt>
      <trkpt lat="45.36405" lon="5.41528">
        <ele>380.49</ele>
        <time>2017-03-26T08:04:56Z</time>
      </trkpt>
      <trkpt lat="45.36397" lon="5.4149">
        <ele>380.1</ele>
        <time>2017-03-26T08:04:57Z</time>
      </trkpt>
      <trkpt lat="45.3639" lon="5.41452">
        <ele>380.03</ele>
        <time>2017-03-26T08:04:58Z</time>
      </trkpt>
      <trkpt lat="45.36382" lon="5.41414">
        <ele>380.01</ele>
        <time>2017-03-26T08:04:59Z</time>
      </trkpt>
      <trkpt lat="45.36375" lon="5.41376">
        <ele>379.69</ele>
        <time>2017-03-26T08:05:00Z</time>
      </trkpt>
      <trkpt lat="45.36368" lon="5.41338">
        <ele>379.7</ele>
        <time>2017-03-26T08:05:01Z</time>
      </trkpt>
      <trkpt lat="45.3636" lon="5.41301">
        <ele>379.79</ele>
        <time>2017-03-26T08:05:02Z</time>
      </trkpt>
      <trkpt lat="45.36352" lon="5.41263">
        <ele>379.72</ele>
        <time>2017-03-26T08:05:03Z</time>
      </trkpt>
      <trkpt lat="45.36344" lon="5.41225">
        <ele>379.39</ele>
        <time>2017-03-26T08:05:04Z</time>
      </trkpt>
      <trkpt lat="45.36337" lon="5.41187">
        <ele>379.24</ele>
        <time>2017-03-26T08:05:05Z</time>
      </trkpt>
      <trkpt lat="45.3633" lon="5.41149">
        <ele>378.89</ele>
        <time>2017-03-26T08:05:06Z</time>
      </trkpt>
      <trkpt lat="45.36322" lon="5.41111">
        <ele>378.58</ele>
        <time>2017-03-26T08:05:07Z</time>
      </trkpt>
      <trkpt lat="45.36315" lon="5.41073">
        <ele>378.36</ele>
        <time>2017-03-26T08:05:08Z</time>
      </trkpt>
      <trkpt lat="45.36309" lon="5.41035">
        <ele>378.24</ele>
        <time>2017-03-26T08:05:09Z</time>
      </trkpt>
      <trkpt lat="45.36302" lon="5.40997">
        <ele>377.97</ele>
        <time>2017-03-26T08:05:10Z</time>
      </trkpt>
      <trkpt lat="45.36295" lon="5.40959">
        <ele>378.24</ele>
        <time>2017-03-26T08:05:11Z</time>
      </trkpt>
      <trkpt lat="45.36289" lon="5.40921">
        <ele>378.45</ele>
        <time>2017-03-26T08:05:12Z</time>
      </trkpt>
      <trkpt lat="45.36283" lon="5.40882">
        <ele>378.5</ele>
        <time>2017-03-26T08:05:13Z</time>
      </trkpt>
      <trkpt lat="45.36278" lon="5.40844">
        <ele>377.86</ele>
        <time>2017-03-26T08:05:14Z</time>
      </trkpt>
      <trkpt lat="45.36274" lon="5.40805">
        <ele>377.02</ele>
        <time>2017-03-26T08:05:15Z</time>
      </trkpt>
      <trkpt lat="45.3627" lon="5.40766">
        <ele>376.53</ele>
        <time>2017-03-26T08:05:16Z</time>
      </trkpt>
      <trkpt lat="45.36266" lon="5.40727">
        <ele>376.35</ele>
        <time>2017-03-26T08:05:17Z</time>
      </trkpt>
      <trkpt lat="45.36262" lon="5.40688">
        <ele>375.91</ele>
        <time>2017-03-26T08:05:18Z</time>
      </trkpt>
      <trkpt lat="45.36259" lon="5.40648">
        <ele>375.43</ele>
        <time>2017-03-26T08:05:19Z</time>
      </trkpt>
      <trkpt lat="45.36257" lon="5.40609">
        <ele>374.69</ele>
        <time>2017-03-26T08:05:20Z</time>
      </trkpt>
      <trkpt lat="45.36255" lon="5.40569">
        <ele>374.06</ele>
        <time>2017-03-26T08:05:21Z</time>
      </trkpt>
      <trkpt lat="45.36253" lon="5.4053">
        <ele>373.86</ele>
        <time>2017-03-26T08:05:22Z</time>
      </trkpt>
      <trkpt lat="45.36251" lon="5.4049">
        <ele>373.74</ele>
        <time>2017-03-26T08:05:23Z</time>
      </trkpt>
      <trkpt lat="45.3625" lon="5.4045">
        <ele>373.55</ele>
        <time>2017-03-26T08:05:24Z</time>
      </trkpt>
      <trkpt lat="45.3625" lon="5.4041">
        <ele>373.2</ele>
        <time>2017-03-26T08:05:25Z</time>
      </trkpt>
      <trkpt lat="45.36249" lon="5.4037">
        <ele>372.72</ele>
        <time>2017-03-26T08:05:26Z</time>
      </trkpt>
      <trkpt lat="45.36248" lon="5.40329">
        <ele>372.23</ele>
        <time>2017-03-26T08:05:27Z</time>
      </trkpt>
      <trkpt lat="45.36248" lon="5.40289">
        <ele>371.81</ele>
        <time>2017-03-26T08:05:28Z</time>
      </trkpt>
      <trkpt lat="45.36247" lon="5.40249">
        <ele>371.41</ele>
        <time>2017-03-26T08:05:29Z</time>
      </trkpt>
      <trkpt lat="45.36246" lon="5.40209">
        <ele>371.17</ele>
        <time>2017-03-26T08:05:30Z</time>
      </trkpt>
      <trkpt lat="45.36245" lon="5.40169">
        <ele>370.96</ele>
        <time>2017-03-26T08:05:31Z</time>
      </trkpt>
      <trkpt lat="45.36244" lon="5.40129">
        <ele>370.52</ele>
        <time>2017-03-26T08:05:32Z</time>
      </trkpt>
      <trkpt lat="45.36243" lon="5.40089">
        <ele>370.27</ele>
        <time>2017-03-26T08:05:33Z</time>
      </trkpt>
      <trkpt lat="45.36242" lon="5.40049">
        <ele>369.9</ele>
        <time>2017-03-26T08:05:34Z</time>
      </trkpt>
      <trkpt lat="45.36241" lon="5.4001">
        <ele>369.34</ele>
        <time>2017-03-26T08:05:35Z</time>
      </trkpt>
      <trkpt lat="45.36239" lon="5.3997">
        <ele>369.07</ele>
        <time>2017-03-26T08:05:36Z</time>
      </trkpt>
      <trkpt lat="45.36238" lon="5.3993">
        <ele>369.02</ele>
        <time>2017-03-26T08:05:37Z</time>
      </trkpt>
      <trkpt lat="45.36237" lon="5.39891">
        <ele>368.69</ele>
        <time>2017-03-26T08:05:38Z</time>
      </trkpt>
      <trkpt lat="45.36235" lon="5.39852">
        <ele>368.46</ele>
        <time>2017-03-26T08:05:39Z</time>
      </trkpt>
      <trkpt lat="45.36234" lon="5.39812">
        <ele>368.42</ele>
        <time>2017-03-26T08:05:40Z</time>
      </trkpt>
      <trkpt lat="45.36233" lon="5.39773">
        <ele>368.17</ele>
        <time>2017-03-26T08:05:41Z</time>
      </trkpt>
      <trkpt lat="45.36231" lon="5.39734">
        <ele>368.04</ele>
        <time>2017-03-26T08:05:42Z</time>
      </trkpt>
      <trkpt lat="45.3623" lon="5.39695">
        <ele>367.85</ele>
        <time>2017-03-26T08:05:43Z</time>
      </trkpt>
      <trkpt lat="45.36228" lon="5.39656">
        <ele>367.58</ele>
        <time>2017-03-26T08:05:44Z</time>
      </trkpt>
      <trkpt lat="45.36226" lon="5.39617">
        <ele>367.36</ele>
        <time>2017-03-26T08:05:45Z</time>
      </trkpt>
      <trkpt lat="45.36225" lon="5.39578">
        <ele>367.08</ele>
        <time>2017-03-26T08:05:46Z</time>
      </trkpt>
      <trkpt lat="45.36223" lon="5.39539">
        <ele>366.86</ele>
        <time>2017-03-26T08:05:47Z</time>
      </trkpt>
      <trkpt lat="45.36221" lon="5.395">
        <ele>366.66</ele>
        <time>2017-03-26T08:05:48Z</time>
      </trkpt>
      <trkpt lat="45.36219" lon="5.39461">
        <ele>366.54</ele>
        <time>2017-03-26T08:05:49Z</time>
      </trkpt>
      <trkpt lat="45.36217" lon="5.39422">
        <ele>366.27</ele>
        <time>2017-03-26T08:05:50Z</time>
      </trkpt>
      <trkpt lat="45.36215" lon="5.39383">
        <ele>366.06</ele>
        <time>2017-03-26T08:05:51Z</time>
      </trkpt>
      <trkpt lat="45.36212" lon="5.39344">
        <ele>365.78</ele>
        <time>2017-03-26T08:05:52Z</time>
      </trkpt>
      <trkpt lat="45.3621" lon="5.39305">
        <ele>365.48</ele>
        <time>2017-03-26T08:05:53Z</time>
      </trkpt>
      <trkpt lat="45.36208" lon="5.39267">
        <ele>365.18</ele>
        <time>2017-03-26T08:05:54Z</time>
      </trkpt>
      <trkpt lat="45.36205" lon="5.39228">
        <ele>364.72</ele>
        <time>2017-03-26T08:05:55Z</time>
      </trkpt>
      <trkpt lat="45.36203" lon="5.39189">
        <ele>364.39</ele>
        <time>2017-03-26T08:05:56Z</time>
      </trkpt>
      <trkpt lat="45.362" lon="5.39151">
        <ele>364.08</ele>
        <time>2017-03-26T08:05:57Z</time>
      </trkpt>
      <trkpt lat="45.36197" lon="5.39112">
        <ele>363.78</ele>
        <time>2017-03-26T08:05:58Z</time>
      </trkpt>
      <trkpt lat="45.36194" lon="5.39074">
        <ele>363.56</ele>
        <time>2017-03-26T08:05:59Z</time>
      </trkpt>
      <trkpt lat="45.36191" lon="5.39035">
        <ele>363.28</ele>
        <time>2017-03-26T08:06:00Z</time>
      </trkpt>
      <trkpt lat="45.36187" lon="5.38997">
        <ele>362.98</ele>
        <time>2017-03-26T08:06:01Z</time>
      </trkpt>
      <trkpt lat="45.36184" lon="5.38958">
        <ele>362.76</ele>
        <time>2017-03-26T08:06:02Z</time>
      </trkpt>
      <trkpt lat="45.36181" lon="5.38919">
        <ele>362.48</ele>
        <time>2017-03-26T08:06:03Z</time>
      </trkpt>
      <trkpt lat="45.36178" lon="5.38881">
        <ele>362.26</ele>
        <time>2017-03-26T08:06:04Z</time>
      </trkpt>
      <trkpt lat="45.36175" lon="5.38842">
        <ele>362.06</ele>
        <time>2017-03-26T08:06:05Z</time>
      </trkpt>
      <trkpt lat="45.36171" lon="5.38803">
        <ele>361.86</ele>
        <time>2017-03-26T08:06:06Z</time>
      </trkpt>
      <trkpt lat="45.36168" lon="5.38763">
        <ele>361.66</ele>
        <time>2017-03-26T08:06:07Z</time>
      </trkpt>
      <trkpt lat="45.36164" lon="5.38724">
        <ele>361.38</ele>
        <time>2017-03-26T08:06:08Z</time>
      </trkpt>
      <trkpt lat="45.3616" lon="5.38685">
        <ele>361.16</ele>
        <time>2017-03-26T08:06:09Z</time>
      </trkpt>
      <trkpt lat="45.36156" lon="5.38646">
        <ele>360.88</ele>
        <time>2017-03-26T08:06:10Z</time>
      </trkpt>
      <trkpt lat="45.36152" lon="5.38607">
        <ele>360.5</ele>
        <time>2017-03-26T08:06:11Z</time>
      </trkpt>
      <trkpt lat="45.36148" lon="5.38567">
        <ele>360.18</ele>
        <time>2017-03-26T08:06:12Z</time>
      </trkpt>
      <trkpt lat="45.36144" lon="5.38528">
        <ele>359.88</ele>
        <time>2017-03-26T08:06:13Z</time>
      </trkpt>
      <trkpt lat="45.3614" lon="5.38488">
        <ele>359.74</ele>
        <time>2017-03-26T08:06:14Z</time>
      </trkpt>
      <trkpt lat="45.36136" lon="5.38448">
        <ele>359.55</ele>
        <time>2017-03-26T08:06:15Z</time>
      </trkpt>
      <trkpt lat="45.36131" lon="5.38409">
        <ele>359.28</ele>
        <time>2017-03-26T08:06:16Z</time>
      </trkpt>
      <trkpt lat="45.36127" lon="5.38369">
        <ele>358.82</ele>
        <time>2017-03-26T08:06:17Z</time>
      </trkpt>
      <trkpt lat="45.36122" lon="5.3833">
        <ele>358.57</ele>
        <time>2017-03-26T08:06:18Z</time>
      </trkpt>
      <trkpt lat="45.36117" lon="5.3829">
        <ele>358.36</ele>
        <time>2017-03-26T08:06:19Z</time>
      </trkpt>
      <trkpt lat="45.36112" lon="5.38251">
        <ele>358.4</ele>
        <time>2017-03-26T08:06:20Z</time>
      </trkpt>
      <trkpt lat="45.36107" lon="5.38211">
        <ele>358.16</ele>
        <time>2017-03-26T08:06:21Z</time>
      </trkpt>
      <trkpt lat="45.36102" lon="5.38171">
        <ele>357.96</ele>
        <time>2017-03-26T08:06:22Z</time>
      </trkpt>
      <trkpt lat="45.36096" lon="5.38131">
        <ele>358</ele>
        <time>2017-03-26T08:06:23Z</time>
      </trkpt>
      <trkpt lat="45.36091" lon="5.38091">
        <ele>357.92</ele>
        <time>2017-03-26T08:06:24Z</time>
      </trkpt>
      <trkpt lat="45.36085" lon="5.38051">
        <ele>357.83</ele>
        <time>2017-03-26T08:06:25Z</time>
      </trkpt>
      <trkpt lat="45.3608" lon="5.38011">
        <ele>357.49</ele>
        <time>2017-03-26T08:06:26Z</time>
      </trkpt>
      <trkpt lat="45.36074" lon="5.37971">
        <ele>357.02</ele>
        <time>2017-03-26T08:06:27Z</time>
      </trkpt>
      <trkpt lat="45.36068" lon="5.37931">
        <ele>356.53</ele>
        <time>2017-03-26T08:06:28Z</time>
      </trkpt>
      <trkpt lat="45.36063" lon="5.37891">
        <ele>356.19</ele>
        <time>2017-03-26T08:06:29Z</time>
      </trkpt>
      <trkpt lat="45.36057" lon="5.37851">
        <ele>355.8</ele>
        <time>2017-03-26T08:06:30Z</time>
      </trkpt>
      <trkpt lat="45.36051" lon="5.3781">
        <ele>355.57</ele>
        <time>2017-03-26T08:06:31Z</time>
      </trkpt>
      <trkpt lat="45.36044" lon="5.3777">
        <ele>355.28</ele>
        <time>2017-03-26T08:06:32Z</time>
      </trkpt>
      <trkpt lat="45.36038" lon="5.3773">
        <ele>355.14</ele>
        <time>2017-03-26T08:06:33Z</time>
      </trkpt>
      <trkpt lat="45.36032" lon="5.37689">
        <ele>354.95</ele>
        <time>2017-03-26T08:06:34Z</time>
      </trkpt>
      <trkpt lat="45.36025" lon="5.37649">
        <ele>354.68</ele>
        <time>2017-03-26T08:06:35Z</time>
      </trkpt>
      <trkpt lat="45.36019" lon="5.37609">
        <ele>354.38</ele>
        <time>2017-03-26T08:06:36Z</time>
      </trkpt>
      <trkpt lat="45.36013" lon="5.37568">
        <ele>354.08</ele>
        <time>2017-03-26T08:06:37Z</time>
      </trkpt>
      <trkpt lat="45.36006" lon="5.37528">
        <ele>353.94</ele>
        <time>2017-03-26T08:06:38Z</time>
      </trkpt>
      <trkpt lat="45.36" lon="5.37488">
        <ele>353.75</ele>
        <time>2017-03-26T08:06:39Z</time>
      </trkpt>
      <trkpt lat="45.35993" lon="5.37448">
        <ele>353.56</ele>
        <time>2017-03-26T08:06:40Z</time>
      </trkpt>
      <trkpt lat="45.35986" lon="5.37408">
        <ele>353.52</ele>
        <time>2017-03-26T08:06:41Z</time>
      </trkpt>
      <trkpt lat="45.35979" lon="5.37368">
        <ele>353.51</ele>
        <time>2017-03-26T08:06:42Z</time>
      </trkpt>
      <trkpt lat="45.35972" lon="5.37329">
        <ele>353.51</ele>
        <time>2017-03-26T08:06:43Z</time>
      </trkpt>
      <trkpt lat="45.35965" lon="5.3729">
        <ele>353.27</ele>
        <time>2017-03-26T08:06:44Z</time>
      </trkpt>
      <trkpt lat="45.35958" lon="5.37251">
        <ele>353.22</ele>
        <time>2017-03-26T08:06:45Z</time>
      </trkpt>
      <trkpt lat="45.35951" lon="5.37211">
        <ele>353.21</ele>
        <time>2017-03-26T08:06:46Z</time>
      </trkpt>
      <trkpt lat="45.35944" lon="5.37172">
        <ele>353.29</ele>
        <time>2017-03-26T08:06:47Z</time>
      </trkpt>
      <trkpt lat="45.35937" lon="5.37133">
        <ele>353.22</ele>
        <time>2017-03-26T08:06:48Z</time>
      </trkpt>
      <trkpt lat="45.35929" lon="5.37094">
        <ele>353.13</ele>
        <time>2017-03-26T08:06:49Z</time>
      </trkpt>
      <trkpt lat="45.35922" lon="5.37056">
        <ele>353.03</ele>
        <time>2017-03-26T08:06:50Z</time>
      </trkpt>
      <trkpt lat="45.35914" lon="5.37017">
        <ele>352.85</ele>
        <time>2017-03-26T08:06:51Z</time>
      </trkpt>
      <trkpt lat="45.35906" lon="5.36978">
        <ele>352.57</ele>
        <time>2017-03-26T08:06:52Z</time>
      </trkpt>
      <trkpt lat="45.35899" lon="5.3694">
        <ele>352.28</ele>
        <time>2017-03-26T08:06:53Z</time>
      </trkpt>
      <trkpt lat="45.35891" lon="5.36901">
        <ele>351.74</ele>
        <time>2017-03-26T08:06:54Z</time>
      </trkpt>
      <trkpt lat="45.35883" lon="5.36862">
        <ele>351.79</ele>
        <time>2017-03-26T08:06:55Z</time>
      </trkpt>
      <trkpt lat="45.35875" lon="5.36823">
        <ele>351.88</ele>
        <time>2017-03-26T08:06:56Z</time>
      </trkpt>
      <trkpt lat="45.35867" lon="5.36784">
        <ele>351.82</ele>
        <time>2017-03-26T08:06:57Z</time>
      </trkpt>
      <trkpt lat="45.35859" lon="5.36745">
        <ele>351.57</ele>
        <time>2017-03-26T08:06:58Z</time>
      </trkpt>
      <trkpt lat="45.35851" lon="5.36706">
        <ele>351.44</ele>
        <time>2017-03-26T08:06:59Z</time>
      </trkpt>
      <trkpt lat="45.35842" lon="5.36667">
        <ele>350.93</ele>
        <time>2017-03-26T08:07:00Z</time>
      </trkpt>
      <trkpt lat="45.35834" lon="5.36628">
        <ele>350.59</ele>
        <time>2017-03-26T08:07:01Z</time>
      </trkpt>
      <trkpt lat="45.35826" lon="5.36589">
        <ele>350.04</ele>
        <time>2017-03-26T08:07:02Z</time>
      </trkpt>
      <trkpt lat="45.35817" lon="5.36551">
        <ele>349.45</ele>
        <time>2017-03-26T08:07:03Z</time>
      </trkpt>
      <trkpt lat="45.35809" lon="5.36512">
        <ele>348.86</ele>
        <time>2017-03-26T08:07:04Z</time>
      </trkpt>
      <trkpt lat="45.35801" lon="5.36473">
        <ele>348.42</ele>
        <time>2017-03-26T08:07:05Z</time>
      </trkpt>
      <trkpt lat="45.35793" lon="5.36434">
        <ele>348.25</ele>
        <time>2017-03-26T08:07:06Z</time>
      </trkpt>
      <trkpt lat="45.35784" lon="5.36395">
        <ele>347.89</ele>
        <time>2017-03-26T08:07:07Z</time>
      </trkpt>
      <trkpt lat="45.35776" lon="5.36356">
        <ele>347.9</ele>
        <time>2017-03-26T08:07:08Z</time>
      </trkpt>
      <trkpt lat="45.35768" lon="5.36317">
        <ele>347.99</ele>
        <time>2017-03-26T08:07:09Z</time>
      </trkpt>
      <trkpt lat="45.3576" lon="5.36278">
        <ele>347.76</ele>
        <time>2017-03-26T08:07:10Z</time>
      </trkpt>
      <trkpt lat="45.35751" lon="5.36239">
        <ele>347.48</ele>
        <time>2017-03-26T08:07:11Z</time>
      </trkpt>
      <trkpt lat="45.35743" lon="5.362">
        <ele>347.42</ele>
        <time>2017-03-26T08:07:12Z</time>
      </trkpt>
      <trkpt lat="45.35734" lon="5.36162">
        <ele>347.41</ele>
        <time>2017-03-26T08:07:13Z</time>
      </trkpt>
      <trkpt lat="45.35726" lon="5.36123">
        <ele>347.25</ele>
        <time>2017-03-26T08:07:14Z</time>
      </trkpt>
      <trkpt lat="45.35718" lon="5.36085">
        <ele>347.05</ele>
        <time>2017-03-26T08:07:15Z</time>
      </trkpt>
      <trkpt lat="45.35709" lon="5.36046">
        <ele>346.62</ele>
        <time>2017-03-26T08:07:16Z</time>
      </trkpt>
      <trkpt lat="45.35701" lon="5.36007">
        <ele>346.05</ele>
        <time>2017-03-26T08:07:17Z</time>
      </trkpt>
      <trkpt lat="45.35692" lon="5.35968">
        <ele>345.69</ele>
        <time>2017-03-26T08:07:18Z</time>
      </trkpt>
      <trkpt lat="45.35684" lon="5.35929">
        <ele>345.3</ele>
        <time>2017-03-26T08:07:19Z</time>
      </trkpt>
      <trkpt lat="45.35675" lon="5.3589">
        <ele>344.91</ele>
        <time>2017-03-26T08:07:20Z</time>
      </trkpt>
      <trkpt lat="45.35667" lon="5.35851">
        <ele>344.83</ele>
        <time>2017-03-26T08:07:21Z</time>
      </trkpt>
      <trkpt lat="45.35659" lon="5.35812">
        <ele>344.57</ele>
        <time>2017-03-26T08:07:22Z</time>
      </trkpt>
      <trkpt lat="45.3565" lon="5.35773">
        <ele>344.28</ele>
        <time>2017-03-26T08:07:23Z</time>
      </trkpt>
      <trkpt lat="45.35642" lon="5.35734">
        <ele>343.9</ele>
        <time>2017-03-26T08:07:24Z</time>
      </trkpt>
      <trkpt lat="45.35634" lon="5.35695">
        <ele>343.58</ele>
        <time>2017-03-26T08:07:25Z</time>
      </trkpt>
      <trkpt lat="45.35626" lon="5.35657">
        <ele>343.12</ele>
        <time>2017-03-26T08:07:26Z</time>
      </trkpt>
      <trkpt lat="45.35617" lon="5.35618">
        <ele>342.79</ele>
        <time>2017-03-26T08:07:27Z</time>
      </trkpt>
      <trkpt lat="45.35609" lon="5.35579">
        <ele>342.48</ele>
        <time>2017-03-26T08:07:28Z</time>
      </trkpt>
      <trkpt lat="45.35601" lon="5.3554">
        <ele>342.02</ele>
        <time>2017-03-26T08:07:29Z</time>
      </trkpt>
      <trkpt lat="45.35593" lon="5.35501">
        <ele>341.77</ele>
        <time>2017-03-26T08:07:30Z</time>
      </trkpt>
      <trkpt lat="45.35585" lon="5.35462">
        <ele>341.56</ele>
        <time>2017-03-26T08:07:31Z</time>
      </trkpt>
      <trkpt lat="45.35576" lon="5.35424">
        <ele>341.6</ele>
        <time>2017-03-26T08:07:32Z</time>
      </trkpt>
      <trkpt lat="45.35568" lon="5.35385">
        <ele>341.6</ele>
        <time>2017-03-26T08:07:33Z</time>
      </trkpt>
      <trkpt lat="45.3556" lon="5.35347">
        <ele>341.61</ele>
        <time>2017-03-26T08:07:34Z</time>
      </trkpt>
      <trkpt lat="45.35551" lon="5.35309">
        <ele>341.69</ele>
        <time>2017-03-26T08:07:35Z</time>
      </trkpt>
      <trkpt lat="45.35543" lon="5.35271">
        <ele>341.7</ele>
        <time>2017-03-26T08:07:36Z</time>
      </trkpt>
      <trkpt lat="45.35535" lon="5.35233">
        <ele>341.47</ele>
        <time>2017-03-26T08:07:37Z</time>
      </trkpt>
      <trkpt lat="45.35527" lon="5.35194">
        <ele>341.02</ele>
        <time>2017-03-26T08:07:38Z</time>
      </trkpt>
      <trkpt lat="45.35519" lon="5.35157">
        <ele>340.45</ele>
        <time>2017-03-26T08:07:39Z</time>
      </trkpt>
      <trkpt lat="45.35511" lon="5.35119">
        <ele>340.17</ele>
        <time>2017-03-26T08:07:40Z</time>
      </trkpt>
      <trkpt lat="45.35503" lon="5.35081">
        <ele>340.12</ele>
        <time>2017-03-26T08:07:41Z</time>
      </trkpt>
      <trkpt lat="45.35496" lon="5.35043">
        <ele>339.87</ele>
        <time>2017-03-26T08:07:42Z</time>
      </trkpt>
      <trkpt lat="45.35489" lon="5.35005">
        <ele>339.82</ele>
        <time>2017-03-26T08:07:43Z</time>
      </trkpt>
      <trkpt lat="45.35483" lon="5.34967">
        <ele>339.81</ele>
        <time>2017-03-26T08:07:44Z</time>
      </trkpt>
      <trkpt lat="45.35477" lon="5.34928">
        <ele>339.73</ele>
        <time>2017-03-26T08:07:45Z</time>
      </trkpt>
      <trkpt lat="45.35471" lon="5.3489">
        <ele>339.39</ele>
        <time>2017-03-26T08:07:46Z</time>
      </trkpt>
      <trkpt lat="45.35466" lon="5.34851">
        <ele>339.24</ele>
        <time>2017-03-26T08:07:47Z</time>
      </trkpt>
      <trkpt lat="45.35462" lon="5.34812">
        <ele>339.13</ele>
        <time>2017-03-26T08:07:48Z</time>
      </trkpt>
      <trkpt lat="45.35457" lon="5.34773">
        <ele>339.35</ele>
        <time>2017-03-26T08:07:49Z</time>
      </trkpt>
      <trkpt lat="45.35453" lon="5.34734">
        <ele>339.4</ele>
        <time>2017-03-26T08:07:50Z</time>
      </trkpt>
      <trkpt lat="45.35449" lon="5.34695">
        <ele>339.4</ele>
        <time>2017-03-26T08:07:51Z</time>
      </trkpt>
      <trkpt lat="45.35446" lon="5.34656">
        <ele>339.33</ele>
        <time>2017-03-26T08:07:52Z</time>
      </trkpt>
      <trkpt lat="45.35444" lon="5.34616">
        <ele>339.23</ele>
        <time>2017-03-26T08:07:53Z</time>
      </trkpt>
      <trkpt lat="45.35441" lon="5.34577">
        <ele>338.81</ele>
        <time>2017-03-26T08:07:54Z</time>
      </trkpt>
      <trkpt lat="45.3544" lon="5.34537">
        <ele>338.41</ele>
        <time>2017-03-26T08:07:55Z</time>
      </trkpt>
      <trkpt lat="45.35438" lon="5.34498">
        <ele>338.33</ele>
        <time>2017-03-26T08:07:56Z</time>
      </trkpt>
      <trkpt lat="45.35437" lon="5.34458">
        <ele>338.31</ele>
        <time>2017-03-26T08:07:57Z</time>
      </trkpt>
      <trkpt lat="45.35437" lon="5.34419">
        <ele>338.63</ele>
        <time>2017-03-26T08:07:58Z</time>
      </trkpt>
      <trkpt lat="45.35436" lon="5.34379">
        <ele>339.01</ele>
        <time>2017-03-26T08:07:59Z</time>
      </trkpt>
      <trkpt lat="45.35436" lon="5.34339">
        <ele>339.41</ele>
        <time>2017-03-26T08:08:00Z</time>
      </trkpt>
      <trkpt lat="45.35437" lon="5.343">
        <ele>339.57</ele>
        <time>2017-03-26T08:08:01Z</time>
      </trkpt>
      <trkpt lat="45.35438" lon="5.3426">
        <ele>339.44</ele>
        <time>2017-03-26T08:08:02Z</time>
      </trkpt>
      <trkpt lat="45.35439" lon="5.34221">
        <ele>339.81</ele>
        <time>2017-03-26T08:08:03Z</time>
      </trkpt>
      <trkpt lat="45.35441" lon="5.34181">
        <ele>340.05</ele>
        <time>2017-03-26T08:08:04Z</time>
      </trkpt>
      <trkpt lat="45.35443" lon="5.34142">
        <ele>340.25</ele>
        <time>2017-03-26T08:08:05Z</time>
      </trkpt>
      <trkpt lat="45.35446" lon="5.34103">
        <ele>340.22</ele>
        <time>2017-03-26T08:08:06Z</time>
      </trkpt>
      <trkpt lat="45.3545" lon="5.34064">
        <ele>340.29</ele>
        <time>2017-03-26T08:08:07Z</time>
      </trkpt>
      <trkpt lat="45.35454" lon="5.34025">
        <ele>340.3</ele>
        <time>2017-03-26T08:08:08Z</time>
      </trkpt>
      <trkpt lat="45.35459" lon="5.33986">
        <ele>340.39</ele>
        <time>2017-03-26T08:08:09Z</time>
      </trkpt>
      <trkpt lat="45.35464" lon="5.33947">
        <ele>340.64</ele>
        <time>2017-03-26T08:08:10Z</time>
      </trkpt>
      <trkpt lat="45.35469" lon="5.33908">
        <ele>340.93</ele>
        <time>2017-03-26T08:08:11Z</time>
      </trkpt>
      <trkpt lat="45.35474" lon="5.3387">
        <ele>340.91</ele>
        <time>2017-03-26T08:08:12Z</time>
      </trkpt>
      <trkpt lat="45.3548" lon="5.33832">
        <ele>340.75</ele>
        <time>2017-03-26T08:08:13Z</time>
      </trkpt>
      <trkpt lat="45.35485" lon="5.33794">
        <ele>341.03</ele>
        <time>2017-03-26T08:08:14Z</time>
      </trkpt>
      <trkpt lat="45.35491" lon="5.33756">
        <ele>341.25</ele>
        <time>2017-03-26T08:08:15Z</time>
      </trkpt>
      <trkpt lat="45.35496" lon="5.33719">
        <ele>341.46</ele>
        <time>2017-03-26T08:08:16Z</time>
      </trkpt>
      <trkpt lat="45.35502" lon="5.33681">
        <ele>341.42</ele>
        <time>2017-03-26T08:08:17Z</time>
      </trkpt>
      <trkpt lat="45.35507" lon="5.33644">
        <ele>341.17</ele>
        <time>2017-03-26T08:08:18Z</time>
      </trkpt>
      <trkpt lat="45.35512" lon="5.33607">
        <ele>340.8</ele>
        <time>2017-03-26T08:08:19Z</time>
      </trkpt>
      <trkpt lat="45.35517" lon="5.3357">
        <ele>340.64</ele>
        <time>2017-03-26T08:08:20Z</time>
      </trkpt>
      <trkpt lat="45.35522" lon="5.33533">
        <ele>340.53</ele>
        <time>2017-03-26T08:08:21Z</time>
      </trkpt>
      <trkpt lat="45.35528" lon="5.33496">
        <ele>340.27</ele>
        <time>2017-03-26T08:08:22Z</time>
      </trkpt>
      <trkpt lat="45.35533" lon="5.3346">
        <ele>339.58</ele>
        <time>2017-03-26T08:08:23Z</time>
      </trkpt>
      <trkpt lat="45.35537" lon="5.33423">
        <ele>338.8</ele>
        <time>2017-03-26T08:08:24Z</time>
      </trkpt>
      <trkpt lat="45.35541" lon="5.33385">
        <ele>338.32</ele>
        <time>2017-03-26T08:08:25Z</time>
      </trkpt>
      <trkpt lat="45.35544" lon="5.33348">
        <ele>337.91</ele>
        <time>2017-03-26T08:08:26Z</time>
      </trkpt>
      <trkpt lat="45.35546" lon="5.3331">
        <ele>337.27</ele>
        <time>2017-03-26T08:08:27Z</time>
      </trkpt>
      <trkpt lat="45.35549" lon="5.33272">
        <ele>336.5</ele>
        <time>2017-03-26T08:08:28Z</time>
      </trkpt>
      <trkpt lat="45.35551" lon="5.33234">
        <ele>335.94</ele>
        <time>2017-03-26T08:08:29Z</time>
      </trkpt>
      <trkpt lat="45.35554" lon="5.33197">
        <ele>335.27</ele>
        <time>2017-03-26T08:08:30Z</time>
      </trkpt>
      <trkpt lat="45.35558" lon="5.33159">
        <ele>334.34</ele>
        <time>2017-03-26T08:08:31Z</time>
      </trkpt>
      <trkpt lat="45.35561" lon="5.33121">
        <ele>333.51</ele>
        <time>2017-03-26T08:08:32Z</time>
      </trkpt>
      <trkpt lat="45.35564" lon="5.33083">
        <ele>332.79</ele>
        <time>2017-03-26T08:08:33Z</time>
      </trkpt>
      <trkpt lat="45.35567" lon="5.33045">
        <ele>332.16</ele>
        <time>2017-03-26T08:08:34Z</time>
      </trkpt>
      <trkpt lat="45.3557" lon="5.33006">
        <ele>331.48</ele>
        <time>2017-03-26T08:08:35Z</time>
      </trkpt>
      <trkpt lat="45.35573" lon="5.32968">
        <ele>330.7</ele>
        <time>2017-03-26T08:08:36Z</time>
      </trkpt>
      <trkpt lat="45.35576" lon="5.32929">
        <ele>329.74</ele>
        <time>2017-03-26T08:08:37Z</time>
      </trkpt>
      <trkpt lat="45.3558" lon="5.32889">
        <ele>328.83</ele>
        <time>2017-03-26T08:08:38Z</time>
      </trkpt>
      <trkpt lat="45.35583" lon="5.3285">
        <ele>328.01</ele>
        <time>2017-03-26T08:08:39Z</time>
      </trkpt>
      <trkpt lat="45.35586" lon="5.32811">
        <ele>327.37</ele>
        <time>2017-03-26T08:08:40Z</time>
      </trkpt>
      <trkpt lat="45.35588" lon="5.32772">
        <ele>326.84</ele>
        <time>2017-03-26T08:08:41Z</time>
      </trkpt>
      <trkpt lat="45.35591" lon="5.32732">
        <ele>326.57</ele>
        <time>2017-03-26T08:08:42Z</time>
      </trkpt>
      <trkpt lat="45.35594" lon="5.32693">
        <ele>326.2</ele>
        <time>2017-03-26T08:08:43Z</time>
      </trkpt>
      <trkpt lat="45.35597" lon="5.32655">
        <ele>326.04</ele>
        <time>2017-03-26T08:08:44Z</time>
      </trkpt>
      <trkpt lat="45.356" lon="5.32616">
        <ele>325.77</ele>
        <time>2017-03-26T08:08:45Z</time>
      </trkpt>
      <trkpt lat="45.35603" lon="5.32577">
        <ele>325.72</ele>
        <time>2017-03-26T08:08:46Z</time>
      </trkpt>
      <trkpt lat="45.35607" lon="5.32539">
        <ele>325.63</ele>
        <time>2017-03-26T08:08:47Z</time>
      </trkpt>
      <trkpt lat="45.35612" lon="5.32501">
        <ele>325.61</ele>
        <time>2017-03-26T08:08:48Z</time>
      </trkpt>
      <trkpt lat="45.35617" lon="5.32463">
        <ele>325.61</ele>
        <time>2017-03-26T08:08:49Z</time>
      </trkpt>
      <trkpt lat="45.35622" lon="5.32425">
        <ele>325.45</ele>
        <time>2017-03-26T08:08:50Z</time>
      </trkpt>
      <trkpt lat="45.35629" lon="5.32388">
        <ele>325.09</ele>
        <time>2017-03-26T08:08:51Z</time>
      </trkpt>
      <trkpt lat="45.35635" lon="5.32351">
        <ele>324.78</ele>
        <time>2017-03-26T08:08:52Z</time>
      </trkpt>
      <trkpt lat="45.35643" lon="5.32314">
        <ele>324.64</ele>
        <time>2017-03-26T08:08:53Z</time>
      </trkpt>
      <trkpt lat="45.3565" lon="5.32277">
        <ele>324.69</ele>
        <time>2017-03-26T08:08:54Z</time>
      </trkpt>
      <trkpt lat="45.35658" lon="5.3224">
        <ele>324.46</ele>
        <time>2017-03-26T08:08:55Z</time>
      </trkpt>
      <trkpt lat="45.35667" lon="5.32204">
        <ele>324.18</ele>
        <time>2017-03-26T08:08:56Z</time>
      </trkpt>
      <trkpt lat="45.35675" lon="5.32168">
        <ele>324.04</ele>
        <time>2017-03-26T08:08:57Z</time>
      </trkpt>
      <trkpt lat="45.35685" lon="5.32132">
        <ele>323.77</ele>
        <time>2017-03-26T08:08:58Z</time>
      </trkpt>
      <trkpt lat="45.35694" lon="5.32096">
        <ele>323.48</ele>
        <time>2017-03-26T08:08:59Z</time>
      </trkpt>
      <trkpt lat="45.35704" lon="5.3206">
        <ele>323.26</ele>
        <time>2017-03-26T08:09:00Z</time>
      </trkpt>
      <trkpt lat="45.35715" lon="5.32024">
        <ele>323.06</ele>
        <time>2017-03-26T08:09:01Z</time>
      </trkpt>
      <trkpt lat="45.35726" lon="5.31989">
        <ele>322.86</ele>
        <time>2017-03-26T08:09:02Z</time>
      </trkpt>
      <trkpt lat="45.35737" lon="5.31953">
        <ele>322.74</ele>
        <time>2017-03-26T08:09:03Z</time>
      </trkpt>
      <trkpt lat="45.35749" lon="5.31918">
        <ele>322.55</ele>
        <time>2017-03-26T08:09:04Z</time>
      </trkpt>
      <trkpt lat="45.35761" lon="5.31883">
        <ele>322.28</ele>
        <time>2017-03-26T08:09:05Z</time>
      </trkpt>
      <trkpt lat="45.35774" lon="5.31848">
        <ele>322.22</ele>
        <time>2017-03-26T08:09:06Z</time>
      </trkpt>
      <trkpt lat="45.35787" lon="5.31813">
        <ele>322.13</ele>
        <time>2017-03-26T08:09:07Z</time>
      </trkpt>
      <trkpt lat="45.358" lon="5.31779">
        <ele>321.87</ele>
        <time>2017-03-26T08:09:08Z</time>
      </trkpt>
      <trkpt lat="45.35814" lon="5.31744">
        <ele>321.42</ele>
        <time>2017-03-26T08:09:09Z</time>
      </trkpt>
      <trkpt lat="45.35827" lon="5.3171">
        <ele>321.25</ele>
        <time>2017-03-26T08:09:10Z</time>
      </trkpt>
      <trkpt lat="45.3584" lon="5.31675">
        <ele>320.89</ele>
        <time>2017-03-26T08:09:11Z</time>
      </trkpt>
      <trkpt lat="45.35852" lon="5.3164">
        <ele>320.42</ele>
        <time>2017-03-26T08:09:12Z</time>
      </trkpt>
      <trkpt lat="45.35865" lon="5.31606">
        <ele>320.25</ele>
        <time>2017-03-26T08:09:13Z</time>
      </trkpt>
      <trkpt lat="45.35878" lon="5.31571">
        <ele>319.89</ele>
        <time>2017-03-26T08:09:14Z</time>
      </trkpt>
      <trkpt lat="45.3589" lon="5.31536">
        <ele>319.74</ele>
        <time>2017-03-26T08:09:15Z</time>
      </trkpt>
      <trkpt lat="45.35903" lon="5.31501">
        <ele>319.39</ele>
        <time>2017-03-26T08:09:16Z</time>
      </trkpt>
      <trkpt lat="45.35916" lon="5.31467">
        <ele>319.16</ele>
        <time>2017-03-26T08:09:17Z</time>
      </trkpt>
      <trkpt lat="45.35929" lon="5.31432">
        <ele>318.88</ele>
        <time>2017-03-26T08:09:18Z</time>
      </trkpt>
      <trkpt lat="45.35941" lon="5.31398">
        <ele>318.58</ele>
        <time>2017-03-26T08:09:19Z</time>
      </trkpt>
      <trkpt lat="45.35954" lon="5.31364">
        <ele>317.96</ele>
        <time>2017-03-26T08:09:20Z</time>
      </trkpt>
      <trkpt lat="45.35966" lon="5.31329">
        <ele>317.84</ele>
        <time>2017-03-26T08:09:21Z</time>
      </trkpt>
      <trkpt lat="45.35977" lon="5.31294">
        <ele>317.57</ele>
        <time>2017-03-26T08:09:22Z</time>
      </trkpt>
      <trkpt lat="45.35987" lon="5.31259">
        <ele>317.36</ele>
        <time>2017-03-26T08:09:23Z</time>
      </trkpt>
      <trkpt lat="45.35997" lon="5.31224">
        <ele>317.08</ele>
        <time>2017-03-26T08:09:24Z</time>
      </trkpt>
      <trkpt lat="45.36006" lon="5.31189">
        <ele>316.62</ele>
        <time>2017-03-26T08:09:25Z</time>
      </trkpt>
      <trkpt lat="45.36015" lon="5.31154">
        <ele>316.29</ele>
        <time>2017-03-26T08:09:26Z</time>
      </trkpt>
      <trkpt lat="45.36022" lon="5.31118">
        <ele>316.14</ele>
        <time>2017-03-26T08:09:27Z</time>
      </trkpt>
      <trkpt lat="45.3603" lon="5.31083">
        <ele>315.95</ele>
        <time>2017-03-26T08:09:28Z</time>
      </trkpt>
      <trkpt lat="45.36037" lon="5.31047">
        <ele>315.84</ele>
        <time>2017-03-26T08:09:29Z</time>
      </trkpt>
      <trkpt lat="45.36043" lon="5.3101">
        <ele>315.81</ele>
        <time>2017-03-26T08:09:30Z</time>
      </trkpt>
      <trkpt lat="45.3605" lon="5.30973">
        <ele>315.89</ele>
        <time>2017-03-26T08:09:31Z</time>
      </trkpt>
      <trkpt lat="45.36055" lon="5.30936">
        <ele>315.98</ele>
        <time>2017-03-26T08:09:32Z</time>
      </trkpt>
      <trkpt lat="45.3606" lon="5.30899">
        <ele>315.92</ele>
        <time>2017-03-26T08:09:33Z</time>
      </trkpt>
      <trkpt lat="45.36065" lon="5.30861">
        <ele>315.67</ele>
        <time>2017-03-26T08:09:34Z</time>
      </trkpt>
      <trkpt lat="45.3607" lon="5.30823">
        <ele>315.62</ele>
        <time>2017-03-26T08:09:35Z</time>
      </trkpt>
      <trkpt lat="45.36074" lon="5.30784">
        <ele>315.53</ele>
        <time>2017-03-26T08:09:36Z</time>
      </trkpt>
      <trkpt lat="45.36077" lon="5.30746">
        <ele>315.35</ele>
        <time>2017-03-26T08:09:37Z</time>
      </trkpt>
      <trkpt lat="45.3608" lon="5.30707">
        <ele>315.15</ele>
        <time>2017-03-26T08:09:38Z</time>
      </trkpt>
      <trkpt lat="45.36081" lon="5.30668">
        <ele>315.04</ele>
        <time>2017-03-26T08:09:39Z</time>
      </trkpt>
      <trkpt lat="45.36082" lon="5.30629">
        <ele>314.85</ele>
        <time>2017-03-26T08:09:40Z</time>
      </trkpt>
      <trkpt lat="45.36083" lon="5.3059">
        <ele>314.98</ele>
        <time>2017-03-26T08:09:41Z</time>
      </trkpt>
      <trkpt lat="45.36083" lon="5.30552">
        <ele>315</ele>
        <time>2017-03-26T08:09:42Z</time>
      </trkpt>
      <trkpt lat="45.36083" lon="5.30514">
        <ele>314.92</ele>
        <time>2017-03-26T08:09:43Z</time>
      </trkpt>
      <trkpt lat="45.36083" lon="5.30476">
        <ele>314.91</ele>
        <time>2017-03-26T08:09:44Z</time>
      </trkpt>
      <trkpt lat="45.36082" lon="5.3044">
        <ele>314.67</ele>
        <time>2017-03-26T08:09:45Z</time>
      </trkpt>
      <trkpt lat="45.36082" lon="5.30405">
        <ele>314.38</ele>
        <time>2017-03-26T08:09:46Z</time>
      </trkpt>
      <trkpt lat="45.36081" lon="5.30372">
        <ele>313.76</ele>
        <time>2017-03-26T08:09:47Z</time>
      </trkpt>
      <trkpt lat="45.36079" lon="5.30339">
        <ele>313.48</ele>
        <time>2017-03-26T08:09:48Z</time>
      </trkpt>
      <trkpt lat="45.36077" lon="5.30307">
        <ele>313.34</ele>
        <time>2017-03-26T08:09:49Z</time>
      </trkpt>
      <trkpt lat="45.36075" lon="5.30275">
        <ele>313.07</ele>
        <time>2017-03-26T08:09:50Z</time>
      </trkpt>
      <trkpt lat="45.36073" lon="5.30243">
        <ele>313.18</ele>
        <time>2017-03-26T08:09:51Z</time>
      </trkpt>
      <trkpt lat="45.3607" lon="5.30212">
        <ele>312.96</ele>
        <time>2017-03-26T08:09:52Z</time>
      </trkpt>
      <trkpt lat="45.36067" lon="5.3018">
        <ele>312.76</ele>
        <time>2017-03-26T08:09:53Z</time>
      </trkpt>
      <trkpt lat="45.36064" lon="5.30148">
        <ele>312.56</ele>
        <time>2017-03-26T08:09:54Z</time>
      </trkpt>
      <trkpt lat="45.3606" lon="5.30117">
        <ele>312.44</ele>
        <time>2017-03-26T08:09:55Z</time>
      </trkpt>
      <trkpt lat="45.36057" lon="5.30085">
        <ele>312.17</ele>
        <time>2017-03-26T08:09:56Z</time>
      </trkpt>
      <trkpt lat="45.36053" lon="5.30054">
        <ele>311.96</ele>
        <time>2017-03-26T08:09:57Z</time>
      </trkpt>
      <trkpt lat="45.3605" lon="5.30024">
        <ele>311.84</ele>
        <time>2017-03-26T08:09:58Z</time>
      </trkpt>
      <trkpt lat="45.36046" lon="5.29994">
        <ele>311.73</ele>
        <time>2017-03-26T08:09:59Z</time>
      </trkpt>
      <trkpt lat="45.36043" lon="5.29964">
        <ele>311.47</ele>
        <time>2017-03-26T08:10:00Z</time>
      </trkpt>
      <trkpt lat="45.36039" lon="5.29935">
        <ele>311.18</ele>
        <time>2017-03-26T08:10:01Z</time>
      </trkpt>
      <trkpt lat="45.36036" lon="5.29908">
        <ele>310.8</ele>
        <time>2017-03-26T08:10:02Z</time>
      </trkpt>
      <trkpt lat="45.36033" lon="5.29882">
        <ele>310.16</ele>
        <time>2017-03-26T08:10:03Z</time>
      </trkpt>
      <trkpt lat="45.36031" lon="5.2986">
        <ele>309.64</ele>
        <time>2017-03-26T08:10:04Z</time>
      </trkpt>
      <trkpt lat="45.36028" lon="5.29842">
        <ele>309.21</ele>
        <time>2017-03-26T08:10:05Z</time>
      </trkpt>
      <trkpt lat="45.36028" lon="5.29824">
        <ele>308.97</ele>
        <time>2017-03-26T08:10:06Z</time>
      </trkpt>
      <trkpt lat="45.3603" lon="5.29808">
        <ele>308.76</ele>
        <time>2017-03-26T08:10:07Z</time>
      </trkpt>
      <trkpt lat="45.36034" lon="5.29792">
        <ele>308.56</ele>
        <time>2017-03-26T08:10:08Z</time>
      </trkpt>
      <trkpt lat="45.36037" lon="5.29776">
        <ele>308.52</ele>
        <time>2017-03-26T08:10:09Z</time>
      </trkpt>
      <trkpt lat="45.36039" lon="5.2976">
        <ele>308.35</ele>
        <time>2017-03-26T08:10:10Z</time>
      </trkpt>
      <trkpt lat="45.36034" lon="5.29745">
        <ele>308.23</ele>
        <time>2017-03-26T08:10:11Z</time>
      </trkpt>
      <trkpt lat="45.36028" lon="5.29733">
        <ele>307.73</ele>
        <time>2017-03-26T08:10:12Z</time>
      </trkpt>
      <trkpt lat="45.36019" lon="5.29725">
        <ele>307.47</ele>
        <time>2017-03-26T08:10:13Z</time>
      </trkpt>
      <trkpt lat="45.36009" lon="5.29721">
        <ele>306.86</ele>
        <time>2017-03-26T08:10:14Z</time>
      </trkpt>
      <trkpt lat="45.35998" lon="5.29719">
        <ele>306.34</ele>
        <time>2017-03-26T08:10:15Z</time>
      </trkpt>
      <trkpt lat="45.35986" lon="5.29715">
        <ele>305.83</ele>
        <time>2017-03-26T08:10:16Z</time>
      </trkpt>
      <trkpt lat="45.35974" lon="5.29705">
        <ele>305.89</ele>
        <time>2017-03-26T08:10:17Z</time>
      </trkpt>
      <trkpt lat="45.35963" lon="5.29689">
        <ele>306.14</ele>
        <time>2017-03-26T08:10:18Z</time>
      </trkpt>
      <trkpt lat="45.35953" lon="5.29669">
        <ele>306.11</ele>
        <time>2017-03-26T08:10:19Z</time>
      </trkpt>
      <trkpt lat="45.35942" lon="5.29646">
        <ele>305.95</ele>
        <time>2017-03-26T08:10:20Z</time>
      </trkpt>
      <trkpt lat="45.3593" lon="5.29624">
        <ele>305.59</ele>
        <time>2017-03-26T08:10:21Z</time>
      </trkpt>
      <trkpt lat="45.35917" lon="5.296">
        <ele>305.28</ele>
        <time>2017-03-26T08:10:22Z</time>
      </trkpt>
      <trkpt lat="45.35905" lon="5.29576">
        <ele>304.98</ele>
        <time>2017-03-26T08:10:23Z</time>
      </trkpt>
      <trkpt lat="45.35891" lon="5.29552">
        <ele>304.76</ele>
        <time>2017-03-26T08:10:24Z</time>
      </trkpt>
      <trkpt lat="45.35878" lon="5.29527">
        <ele>304.56</ele>
        <time>2017-03-26T08:10:25Z</time>
      </trkpt>
      <trkpt lat="45.35864" lon="5.29501">
        <ele>304.36</ele>
        <time>2017-03-26T08:10:26Z</time>
      </trkpt>
      <trkpt lat="45.3585" lon="5.29476">
        <ele>304.16</ele>
        <time>2017-03-26T08:10:27Z</time>
      </trkpt>
      <trkpt lat="45.35835" lon="5.29449">
        <ele>304.12</ele>
        <time>2017-03-26T08:10:28Z</time>
      </trkpt>
      <trkpt lat="45.35821" lon="5.29423">
        <ele>303.87</ele>
        <time>2017-03-26T08:10:29Z</time>
      </trkpt>
      <trkpt lat="45.35806" lon="5.29397">
        <ele>303.42</ele>
        <time>2017-03-26T08:10:30Z</time>
      </trkpt>
      <trkpt lat="45.35792" lon="5.29371">
        <ele>302.93</ele>
        <time>2017-03-26T08:10:31Z</time>
      </trkpt>
      <trkpt lat="45.35777" lon="5.29344">
        <ele>302.67</ele>
        <time>2017-03-26T08:10:32Z</time>
      </trkpt>
      <trkpt lat="45.35761" lon="5.29318">
        <ele>302.54</ele>
        <time>2017-03-26T08:10:33Z</time>
      </trkpt>
      <trkpt lat="45.35746" lon="5.29292">
        <ele>302.51</ele>
        <time>2017-03-26T08:10:34Z</time>
      </trkpt>
      <trkpt lat="45.3573" lon="5.29266">
        <ele>302.35</ele>
        <time>2017-03-26T08:10:35Z</time>
      </trkpt>
      <trkpt lat="45.35715" lon="5.2924">
        <ele>302.23</ele>
        <time>2017-03-26T08:10:36Z</time>
      </trkpt>
      <trkpt lat="45.35699" lon="5.29214">
        <ele>302.37</ele>
        <time>2017-03-26T08:10:37Z</time>
      </trkpt>
      <trkpt lat="45.35683" lon="5.29188">
        <ele>302.48</ele>
        <time>2017-03-26T08:10:38Z</time>
      </trkpt>
      <trkpt lat="45.35666" lon="5.29162">
        <ele>302.74</ele>
        <time>2017-03-26T08:10:39Z</time>
      </trkpt>
      <trkpt lat="45.3565" lon="5.29136">
        <ele>303.03</ele>
        <time>2017-03-26T08:10:40Z</time>
      </trkpt>
      <trkpt lat="45.35634" lon="5.29111">
        <ele>303.17</ele>
        <time>2017-03-26T08:10:41Z</time>
      </trkpt>
      <trkpt lat="45.35618" lon="5.29085">
        <ele>303.12</ele>
        <time>2017-03-26T08:10:42Z</time>
      </trkpt>
      <trkpt lat="45.35601" lon="5.2906">
        <ele>302.95</ele>
        <time>2017-03-26T08:10:43Z</time>
      </trkpt>
      <trkpt lat="45.35585" lon="5.29034">
        <ele>302.91</ele>
        <time>2017-03-26T08:10:44Z</time>
      </trkpt>
      <trkpt lat="45.35568" lon="5.29009">
        <ele>302.75</ele>
        <time>2017-03-26T08:10:45Z</time>
      </trkpt>
      <trkpt lat="45.35552" lon="5.28984">
        <ele>302.63</ele>
        <time>2017-03-26T08:10:46Z</time>
      </trkpt>
      <trkpt lat="45.35535" lon="5.2896">
        <ele>302.45</ele>
        <time>2017-03-26T08:10:47Z</time>
      </trkpt>
      <trkpt lat="45.35518" lon="5.28935">
        <ele>302.18</ele>
        <time>2017-03-26T08:10:48Z</time>
      </trkpt>
      <trkpt lat="45.35501" lon="5.28911">
        <ele>302.04</ele>
        <time>2017-03-26T08:10:49Z</time>
      </trkpt>
      <trkpt lat="45.35484" lon="5.28887">
        <ele>301.93</ele>
        <time>2017-03-26T08:10:50Z</time>
      </trkpt>
      <trkpt lat="45.35467" lon="5.28862">
        <ele>301.83</ele>
        <time>2017-03-26T08:10:51Z</time>
      </trkpt>
      <trkpt lat="45.3545" lon="5.28838">
        <ele>301.89</ele>
        <time>2017-03-26T08:10:52Z</time>
      </trkpt>
      <trkpt lat="45.35432" lon="5.28815">
        <ele>301.9</ele>
        <time>2017-03-26T08:10:53Z</time>
      </trkpt>
      <trkpt lat="45.35415" lon="5.28791">
        <ele>302.07</ele>
        <time>2017-03-26T08:10:54Z</time>
      </trkpt>
      <trkpt lat="45.35398" lon="5.28767">
        <ele>302.18</ele>
        <time>2017-03-26T08:10:55Z</time>
      </trkpt>
      <trkpt lat="45.35381" lon="5.28743">
        <ele>302.12</ele>
        <time>2017-03-26T08:10:56Z</time>
      </trkpt>
      <trkpt lat="45.35364" lon="5.28719">
        <ele>302.19</ele>
        <time>2017-03-26T08:10:57Z</time>
      </trkpt>
      <trkpt lat="45.35347" lon="5.28695">
        <ele>302.12</ele>
        <time>2017-03-26T08:10:58Z</time>
      </trkpt>
      <trkpt lat="45.35329" lon="5.28671">
        <ele>302.11</ele>
        <time>2017-03-26T08:10:59Z</time>
      </trkpt>
      <trkpt lat="45.35312" lon="5.28647">
        <ele>302.11</ele>
        <time>2017-03-26T08:11:00Z</time>
      </trkpt>
      <trkpt lat="45.35295" lon="5.28623">
        <ele>302.03</ele>
        <time>2017-03-26T08:11:01Z</time>
      </trkpt>
      <trkpt lat="45.35278" lon="5.28599">
        <ele>301.85</ele>
        <time>2017-03-26T08:11:02Z</time>
      </trkpt>
      <trkpt lat="45.35261" lon="5.28575">
        <ele>301.81</ele>
        <time>2017-03-26T08:11:03Z</time>
      </trkpt>
      <trkpt lat="45.35244" lon="5.28551">
        <ele>301.49</ele>
        <time>2017-03-26T08:11:04Z</time>
      </trkpt>
      <trkpt lat="45.35227" lon="5.28527">
        <ele>301.26</ele>
        <time>2017-03-26T08:11:05Z</time>
      </trkpt>
      <trkpt lat="45.3521" lon="5.28504">
        <ele>301.46</ele>
        <time>2017-03-26T08:11:06Z</time>
      </trkpt>
      <trkpt lat="45.35194" lon="5.28482">
        <ele>301.58</ele>
        <time>2017-03-26T08:11:07Z</time>
      </trkpt>
      <trkpt lat="45.35179" lon="5.28459">
        <ele>301.76</ele>
        <time>2017-03-26T08:11:08Z</time>
      </trkpt>
      <trkpt lat="45.35163" lon="5.28438">
        <ele>301.72</ele>
        <time>2017-03-26T08:11:09Z</time>
      </trkpt>
      <trkpt lat="45.35148" lon="5.28416">
        <ele>301.79</ele>
        <time>2017-03-26T08:11:10Z</time>
      </trkpt>
      <trkpt lat="45.35134" lon="5.28394">
        <ele>301.88</ele>
        <time>2017-03-26T08:11:11Z</time>
      </trkpt>
      <trkpt lat="45.35121" lon="5.28372">
        <ele>301.74</ele>
        <time>2017-03-26T08:11:12Z</time>
      </trkpt>
      <trkpt lat="45.35108" lon="5.2835">
        <ele>301.79</ele>
        <time>2017-03-26T08:11:13Z</time>
      </trkpt>
      <trkpt lat="45.35094" lon="5.28329">
        <ele>301.88</ele>
        <time>2017-03-26T08:11:14Z</time>
      </trkpt>
      <trkpt lat="45.35081" lon="5.28308">
        <ele>301.74</ele>
        <time>2017-03-26T08:11:15Z</time>
      </trkpt>
      <trkpt lat="45.3507" lon="5.28289">
        <ele>301.71</ele>
        <time>2017-03-26T08:11:16Z</time>
      </trkpt>
      <trkpt lat="45.35059" lon="5.28271">
        <ele>301.71</ele>
        <time>2017-03-26T08:11:17Z</time>
      </trkpt>
      <trkpt lat="45.35051" lon="5.28256">
        <ele>301.87</ele>
        <time>2017-03-26T08:11:18Z</time>
      </trkpt>
      <trkpt lat="45.35045" lon="5.28244">
        <ele>301.98</ele>
        <time>2017-03-26T08:11:19Z</time>
      </trkpt>
      <trkpt lat="45.3504" lon="5.28233">
        <ele>302.24</ele>
        <time>2017-03-26T08:11:20Z</time>
      </trkpt>
      <trkpt lat="45.35037" lon="5.28223">
        <ele>302.45</ele>
        <time>2017-03-26T08:11:21Z</time>
      </trkpt>
      <trkpt lat="45.35036" lon="5.28212">
        <ele>302.82</ele>
        <time>2017-03-26T08:11:22Z</time>
      </trkpt>
      <trkpt lat="45.35035" lon="5.28199">
        <ele>302.57</ele>
        <time>2017-03-26T08:11:23Z</time>
      </trkpt>
      <trkpt lat="45.35034" lon="5.28185">
        <ele>302.52</ele>
        <time>2017-03-26T08:11:24Z</time>
      </trkpt>
      <trkpt lat="45.35031" lon="5.28171">
        <ele>303.07</ele>
        <time>2017-03-26T08:11:25Z</time>
      </trkpt>
      <trkpt lat="45.35026" lon="5.28156">
        <ele>303.42</ele>
        <time>2017-03-26T08:11:26Z</time>
      </trkpt>
      <trkpt lat="45.3502" lon="5.2814">
        <ele>303.73</ele>
        <time>2017-03-26T08:11:27Z</time>
      </trkpt>
      <trkpt lat="45.35016" lon="5.28122">
        <ele>303.71</ele>
        <time>2017-03-26T08:11:28Z</time>
      </trkpt>
      <trkpt lat="45.35015" lon="5.28102">
        <ele>303.79</ele>
        <time>2017-03-26T08:11:29Z</time>
      </trkpt>
      <trkpt lat="45.35015" lon="5.28079">
        <ele>303.64</ele>
        <time>2017-03-26T08:11:30Z</time>
      </trkpt>
      <trkpt lat="45.35015" lon="5.28055">
        <ele>302.97</ele>
        <time>2017-03-26T08:11:31Z</time>
      </trkpt>
      <trkpt lat="45.35015" lon="5.2803">
        <ele>302.52</ele>
        <time>2017-03-26T08:11:32Z</time>
      </trkpt>
      <trkpt lat="45.35013" lon="5.28004">
        <ele>302.35</ele>
        <time>2017-03-26T08:11:33Z</time>
      </trkpt>
      <trkpt lat="45.35011" lon="5.27977">
        <ele>302.31</ele>
        <time>2017-03-26T08:11:34Z</time>
      </trkpt>
      <trkpt lat="45.35009" lon="5.27951">
        <ele>302.31</ele>
        <time>2017-03-26T08:11:35Z</time>
      </trkpt>
      <trkpt lat="45.35007" lon="5.27923">
        <ele>302.55</ele>
        <time>2017-03-26T08:11:36Z</time>
      </trkpt>
      <trkpt lat="45.35005" lon="5.27896">
        <ele>302.59</ele>
        <time>2017-03-26T08:11:37Z</time>
      </trkpt>
      <trkpt lat="45.35003" lon="5.27868">
        <ele>302.6</ele>
        <time>2017-03-26T08:11:38Z</time>
      </trkpt>
      <trkpt lat="45.35001" lon="5.2784">
        <ele>302.93</ele>
        <time>2017-03-26T08:11:39Z</time>
      </trkpt>
      <trkpt lat="45.34999" lon="5.27812">
        <ele>302.91</ele>
        <time>2017-03-26T08:11:40Z</time>
      </trkpt>
      <trkpt lat="45.34997" lon="5.27783">
        <ele>302.91</ele>
        <time>2017-03-26T08:11:41Z</time>
      </trkpt>
      <trkpt lat="45.34994" lon="5.27754">
        <ele>303.07</ele>
        <time>2017-03-26T08:11:42Z</time>
      </trkpt>
      <trkpt lat="45.34992" lon="5.27726">
        <ele>303.18</ele>
        <time>2017-03-26T08:11:43Z</time>
      </trkpt>
      <trkpt lat="45.3499" lon="5.27698">
        <ele>303.2</ele>
        <time>2017-03-26T08:11:44Z</time>
      </trkpt>
      <trkpt lat="45.34988" lon="5.2767">
        <ele>303.2</ele>
        <time>2017-03-26T08:11:45Z</time>
      </trkpt>
      <trkpt lat="45.34986" lon="5.27643">
        <ele>303.37</ele>
        <time>2017-03-26T08:11:46Z</time>
      </trkpt>
      <trkpt lat="45.34983" lon="5.27616">
        <ele>303.48</ele>
        <time>2017-03-26T08:11:47Z</time>
      </trkpt>
      <trkpt lat="45.34981" lon="5.27589">
        <ele>303.9</ele>
        <time>2017-03-26T08:11:48Z</time>
      </trkpt>
      <trkpt lat="45.34979" lon="5.27562">
        <ele>304.06</ele>
        <time>2017-03-26T08:11:49Z</time>
      </trkpt>
      <trkpt lat="45.34978" lon="5.27536">
        <ele>303.62</ele>
        <time>2017-03-26T08:11:50Z</time>
      </trkpt>
      <trkpt lat="45.34977" lon="5.27509">
        <ele>303.13</ele>
        <time>2017-03-26T08:11:51Z</time>
      </trkpt>
      <trkpt lat="45.34976" lon="5.27482">
        <ele>302.87</ele>
        <time>2017-03-26T08:11:52Z</time>
      </trkpt>
      <trkpt lat="45.34974" lon="5.27456">
        <ele>302.42</ele>
        <time>2017-03-26T08:11:53Z</time>
      </trkpt>
      <trkpt lat="45.34973" lon="5.27429">
        <ele>301.85</ele>
        <time>2017-03-26T08:11:54Z</time>
      </trkpt>
      <trkpt lat="45.34971" lon="5.27401">
        <ele>301.09</ele>
        <time>2017-03-26T08:11:55Z</time>
      </trkpt>
      <trkpt lat="45.34969" lon="5.27374">
        <ele>300.3</ele>
        <time>2017-03-26T08:11:56Z</time>
      </trkpt>
      <trkpt lat="45.34967" lon="5.27347">
        <ele>299.67</ele>
        <time>2017-03-26T08:11:57Z</time>
      </trkpt>
      <trkpt lat="45.34965" lon="5.27319">
        <ele>299.3</ele>
        <time>2017-03-26T08:11:58Z</time>
      </trkpt>
      <trkpt lat="45.34962" lon="5.27292">
        <ele>299.22</ele>
        <time>2017-03-26T08:11:59Z</time>
      </trkpt>
      <trkpt lat="45.34959" lon="5.27264">
        <ele>299.21</ele>
        <time>2017-03-26T08:12:00Z</time>
      </trkpt>
      <trkpt lat="45.34956" lon="5.27236">
        <ele>299.13</ele>
        <time>2017-03-26T08:12:01Z</time>
      </trkpt>
      <trkpt lat="45.34953" lon="5.27209">
        <ele>299.03</ele>
        <time>2017-03-26T08:12:02Z</time>
      </trkpt>
      <trkpt lat="45.3495" lon="5.27181">
        <ele>298.77</ele>
        <time>2017-03-26T08:12:03Z</time>
      </trkpt>
      <trkpt lat="45.34947" lon="5.27153">
        <ele>298.48</ele>
        <time>2017-03-26T08:12:04Z</time>
      </trkpt>
      <trkpt lat="45.34945" lon="5.27125">
        <ele>298.02</ele>
        <time>2017-03-26T08:12:05Z</time>
      </trkpt>
      <trkpt lat="45.34942" lon="5.27096">
        <ele>297.77</ele>
        <time>2017-03-26T08:12:06Z</time>
      </trkpt>
      <trkpt lat="45.34938" lon="5.27068">
        <ele>297.56</ele>
        <time>2017-03-26T08:12:07Z</time>
      </trkpt>
      <trkpt lat="45.34935" lon="5.2704">
        <ele>297.44</ele>
        <time>2017-03-26T08:12:08Z</time>
      </trkpt>
      <trkpt lat="45.34932" lon="5.27011">
        <ele>297.33</ele>
        <time>2017-03-26T08:12:09Z</time>
      </trkpt>
      <trkpt lat="45.34929" lon="5.26982">
        <ele>297.15</ele>
        <time>2017-03-26T08:12:10Z</time>
      </trkpt>
      <trkpt lat="45.34925" lon="5.26953">
        <ele>297.12</ele>
        <time>2017-03-26T08:12:11Z</time>
      </trkpt>
      <trkpt lat="45.34922" lon="5.26924">
        <ele>297.11</ele>
        <time>2017-03-26T08:12:12Z</time>
      </trkpt>
      <trkpt lat="45.34919" lon="5.26895">
        <ele>297.19</ele>
        <time>2017-03-26T08:12:13Z</time>
      </trkpt>
      <trkpt lat="45.34916" lon="5.26866">
        <ele>297.2</ele>
        <time>2017-03-26T08:12:14Z</time>
      </trkpt>
      <trkpt lat="45.34913" lon="5.26838">
        <ele>297.29</ele>
        <time>2017-03-26T08:12:15Z</time>
      </trkpt>
      <trkpt lat="45.3491" lon="5.26809">
        <ele>297.46</ele>
        <time>2017-03-26T08:12:16Z</time>
      </trkpt>
      <trkpt lat="45.34907" lon="5.2678">
        <ele>297.5</ele>
        <time>2017-03-26T08:12:17Z</time>
      </trkpt>
      <trkpt lat="45.34904" lon="5.26752">
        <ele>297.74</ele>
        <time>2017-03-26T08:12:18Z</time>
      </trkpt>
      <trkpt lat="45.34901" lon="5.26725">
        <ele>297.55</ele>
        <time>2017-03-26T08:12:19Z</time>
      </trkpt>
      <trkpt lat="45.34899" lon="5.267">
        <ele>297.6</ele>
        <time>2017-03-26T08:12:20Z</time>
      </trkpt>
      <trkpt lat="45.34897" lon="5.26676">
        <ele>297.52</ele>
        <time>2017-03-26T08:12:21Z</time>
      </trkpt>
      <trkpt lat="45.34895" lon="5.26653">
        <ele>297.91</ele>
        <time>2017-03-26T08:12:22Z</time>
      </trkpt>
      <trkpt lat="45.34894" lon="5.26631">
        <ele>298.23</ele>
        <time>2017-03-26T08:12:23Z</time>
      </trkpt>
      <trkpt lat="45.34892" lon="5.26609">
        <ele>298.37</ele>
        <time>2017-03-26T08:12:24Z</time>
      </trkpt>
      <trkpt lat="45.3489" lon="5.2659">
        <ele>298.64</ele>
        <time>2017-03-26T08:12:25Z</time>
      </trkpt>
      <trkpt lat="45.34888" lon="5.26574">
        <ele>299.01</ele>
        <time>2017-03-26T08:12:26Z</time>
      </trkpt>
      <trkpt lat="45.34887" lon="5.26559">
        <ele>299.73</ele>
        <time>2017-03-26T08:12:27Z</time>
      </trkpt>
      <trkpt lat="45.34887" lon="5.26545">
        <ele>300.19</ele>
        <time>2017-03-26T08:12:28Z</time>
      </trkpt>
      <trkpt lat="45.34888" lon="5.26531">
        <ele>300.28</ele>
        <time>2017-03-26T08:12:29Z</time>
      </trkpt>
      <trkpt lat="45.34888" lon="5.26517">
        <ele>300.54</ele>
        <time>2017-03-26T08:12:30Z</time>
      </trkpt>
      <trkpt lat="45.34885" lon="5.26502">
        <ele>300.59</ele>
        <time>2017-03-26T08:12:31Z</time>
      </trkpt>
      <trkpt lat="45.34881" lon="5.26486">
        <ele>300.68</ele>
        <time>2017-03-26T08:12:32Z</time>
      </trkpt>
      <trkpt lat="45.34876" lon="5.26468">
        <ele>300.94</ele>
        <time>2017-03-26T08:12:33Z</time>
      </trkpt>
      <trkpt lat="45.34873" lon="5.26448">
        <ele>300.75</ele>
        <time>2017-03-26T08:12:34Z</time>
      </trkpt>
      <trkpt lat="45.34871" lon="5.26425">
        <ele>300.16</ele>
        <time>2017-03-26T08:12:35Z</time>
      </trkpt>
      <trkpt lat="45.34868" lon="5.264">
        <ele>299.8</ele>
        <time>2017-03-26T08:12:36Z</time>
      </trkpt>
      <trkpt lat="45.34864" lon="5.26371">
        <ele>299.64</ele>
        <time>2017-03-26T08:12:37Z</time>
      </trkpt>
      <trkpt lat="45.34859" lon="5.2634">
        <ele>299.29</ele>
        <time>2017-03-26T08:12:38Z</time>
      </trkpt>
      <trkpt lat="45.34853" lon="5.26307">
        <ele>299.06</ele>
        <time>2017-03-26T08:12:39Z</time>
      </trkpt>
      <trkpt lat="45.34847" lon="5.26273">
        <ele>299.1</ele>
        <time>2017-03-26T08:12:40Z</time>
      </trkpt>
      <trkpt lat="45.34842" lon="5.26239">
        <ele>298.86</ele>
        <time>2017-03-26T08:12:41Z</time>
      </trkpt>
      <trkpt lat="45.34837" lon="5.26204">
        <ele>298.98</ele>
        <time>2017-03-26T08:12:42Z</time>
      </trkpt>
      <trkpt lat="45.34832" lon="5.2617">
        <ele>299</ele>
        <time>2017-03-26T08:12:43Z</time>
      </trkpt>
      <trkpt lat="45.34827" lon="5.26135">
        <ele>299.16</ele>
        <time>2017-03-26T08:12:44Z</time>
      </trkpt>
      <trkpt lat="45.34822" lon="5.261">
        <ele>299.12</ele>
        <time>2017-03-26T08:12:45Z</time>
      </trkpt>
      <trkpt lat="45.34816" lon="5.26065">
        <ele>298.63</ele>
        <time>2017-03-26T08:12:46Z</time>
      </trkpt>
      <trkpt lat="45.34811" lon="5.2603">
        <ele>298.29</ele>
        <time>2017-03-26T08:12:47Z</time>
      </trkpt>
      <trkpt lat="45.34805" lon="5.25996">
        <ele>297.98</ele>
        <time>2017-03-26T08:12:48Z</time>
      </trkpt>
      <trkpt lat="45.348" lon="5.25961">
        <ele>297.6</ele>
        <time>2017-03-26T08:12:49Z</time>
      </trkpt>
      <trkpt lat="45.34795" lon="5.25926">
        <ele>296.97</ele>
        <time>2017-03-26T08:12:50Z</time>
      </trkpt>
      <trkpt lat="45.3479" lon="5.25891">
        <ele>296.68</ele>
        <time>2017-03-26T08:12:51Z</time>
      </trkpt>
      <trkpt lat="45.34785" lon="5.25857">
        <ele>296.38</ele>
        <time>2017-03-26T08:12:52Z</time>
      </trkpt>
      <trkpt lat="45.34781" lon="5.25822">
        <ele>296.16</ele>
        <time>2017-03-26T08:12:53Z</time>
      </trkpt>
      <trkpt lat="45.34776" lon="5.25788">
        <ele>295.88</ele>
        <time>2017-03-26T08:12:54Z</time>
      </trkpt>
      <trkpt lat="45.34771" lon="5.25753">
        <ele>295.58</ele>
        <time>2017-03-26T08:12:55Z</time>
      </trkpt>
      <trkpt lat="45.34766" lon="5.25719">
        <ele>295.44</ele>
        <time>2017-03-26T08:12:56Z</time>
      </trkpt>
      <trkpt lat="45.34761" lon="5.25685">
        <ele>295.41</ele>
        <time>2017-03-26T08:12:57Z</time>
      </trkpt>
      <trkpt lat="45.34756" lon="5.25651">
        <ele>295.25</ele>
        <time>2017-03-26T08:12:58Z</time>
      </trkpt>
      <trkpt lat="45.34751" lon="5.25617">
        <ele>294.89</ele>
        <time>2017-03-26T08:12:59Z</time>
      </trkpt>
      <trkpt lat="45.34746" lon="5.25584">
        <ele>294.58</ele>
        <time>2017-03-26T08:13:00Z</time>
      </trkpt>
      <trkpt lat="45.34741" lon="5.2555">
        <ele>294.36</ele>
        <time>2017-03-26T08:13:01Z</time>
      </trkpt>
      <trkpt lat="45.34736" lon="5.25517">
        <ele>294.16</ele>
        <time>2017-03-26T08:13:02Z</time>
      </trkpt>
      <trkpt lat="45.34731" lon="5.25483">
        <ele>293.8</ele>
        <time>2017-03-26T08:13:03Z</time>
      </trkpt>
      <trkpt lat="45.34726" lon="5.2545">
        <ele>293.64</ele>
        <time>2017-03-26T08:13:04Z</time>
      </trkpt>
      <trkpt lat="45.34721" lon="5.25417">
        <ele>293.61</ele>
        <time>2017-03-26T08:13:05Z</time>
      </trkpt>
      <trkpt lat="45.34716" lon="5.25384">
        <ele>293.61</ele>
        <time>2017-03-26T08:13:06Z</time>
      </trkpt>
      <trkpt lat="45.34711" lon="5.25351">
        <ele>293.69</ele>
        <time>2017-03-26T08:13:07Z</time>
      </trkpt>
      <trkpt lat="45.34706" lon="5.25319">
        <ele>293.54</ele>
        <time>2017-03-26T08:13:08Z</time>
      </trkpt>
      <trkpt lat="45.34701" lon="5.25287">
        <ele>293.43</ele>
        <time>2017-03-26T08:13:09Z</time>
      </trkpt>
      <trkpt lat="45.34696" lon="5.25255">
        <ele>293.41</ele>
        <time>2017-03-26T08:13:10Z</time>
      </trkpt>
      <trkpt lat="45.34691" lon="5.25223">
        <ele>293.41</ele>
        <time>2017-03-26T08:13:11Z</time>
      </trkpt>
      <trkpt lat="45.34686" lon="5.25192">
        <ele>293.41</ele>
        <time>2017-03-26T08:13:12Z</time>
      </trkpt>
      <trkpt lat="45.34682" lon="5.2516">
        <ele>293.33</ele>
        <time>2017-03-26T08:13:13Z</time>
      </trkpt>
      <trkpt lat="45.34677" lon="5.25128">
        <ele>293.23</ele>
        <time>2017-03-26T08:13:14Z</time>
      </trkpt>
      <trkpt lat="45.34673" lon="5.25096">
        <ele>293.21</ele>
        <time>2017-03-26T08:13:15Z</time>
      </trkpt>
      <trkpt lat="45.34668" lon="5.25065">
        <ele>293.05</ele>
        <time>2017-03-26T08:13:16Z</time>
      </trkpt>
      <trkpt lat="45.34664" lon="5.25033">
        <ele>292.93</ele>
        <time>2017-03-26T08:13:17Z</time>
      </trkpt>
      <trkpt lat="45.3466" lon="5.25002">
        <ele>292.19</ele>
        <time>2017-03-26T08:13:18Z</time>
      </trkpt>
      <trkpt lat="45.34657" lon="5.2497">
        <ele>291.8</ele>
        <time>2017-03-26T08:13:19Z</time>
      </trkpt>
      <trkpt lat="45.34655" lon="5.24938">
        <ele>291.65</ele>
        <time>2017-03-26T08:13:20Z</time>
      </trkpt>
      <trkpt lat="45.34653" lon="5.24906">
        <ele>291.53</ele>
        <time>2017-03-26T08:13:21Z</time>
      </trkpt>
      <trkpt lat="45.34652" lon="5.24873">
        <ele>291.27</ele>
        <time>2017-03-26T08:13:22Z</time>
      </trkpt>
      <trkpt lat="45.34651" lon="5.24841">
        <ele>291.06</ele>
        <time>2017-03-26T08:13:23Z</time>
      </trkpt>
      <trkpt lat="45.34651" lon="5.24808">
        <ele>290.94</ele>
        <time>2017-03-26T08:13:24Z</time>
      </trkpt>
      <trkpt lat="45.34652" lon="5.24775">
        <ele>290.83</ele>
        <time>2017-03-26T08:13:25Z</time>
      </trkpt>
      <trkpt lat="45.34653" lon="5.24743">
        <ele>290.81</ele>
        <time>2017-03-26T08:13:26Z</time>
      </trkpt>
      <trkpt lat="45.34656" lon="5.24711">
        <ele>290.73</ele>
        <time>2017-03-26T08:13:27Z</time>
      </trkpt>
      <trkpt lat="45.3466" lon="5.2468">
        <ele>290.71</ele>
        <time>2017-03-26T08:13:28Z</time>
      </trkpt>
      <trkpt lat="45.34663" lon="5.24649">
        <ele>290.63</ele>
        <time>2017-03-26T08:13:29Z</time>
      </trkpt>
      <trkpt lat="45.34666" lon="5.24618">
        <ele>290.45</ele>
        <time>2017-03-26T08:13:30Z</time>
      </trkpt>
      <trkpt lat="45.34667" lon="5.24586">
        <ele>290.41</ele>
        <time>2017-03-26T08:13:31Z</time>
      </trkpt>
      <trkpt lat="45.34668" lon="5.24553">
        <ele>290.25</ele>
        <time>2017-03-26T08:13:32Z</time>
      </trkpt>
      <trkpt lat="45.34667" lon="5.2452">
        <ele>289.89</ele>
        <time>2017-03-26T08:13:33Z</time>
      </trkpt>
      <trkpt lat="45.34665" lon="5.24487">
        <ele>289.5</ele>
        <time>2017-03-26T08:13:34Z</time>
      </trkpt>
      <trkpt lat="45.34661" lon="5.24454">
        <ele>289.11</ele>
        <time>2017-03-26T08:13:35Z</time>
      </trkpt>
      <trkpt lat="45.34657" lon="5.24421">
        <ele>288.71</ele>
        <time>2017-03-26T08:13:36Z</time>
      </trkpt>
      <trkpt lat="45.34652" lon="5.24388">
        <ele>288.39</ele>
        <time>2017-03-26T08:13:37Z</time>
      </trkpt>
      <trkpt lat="45.34648" lon="5.24354">
        <ele>288.08</ele>
        <time>2017-03-26T08:13:38Z</time>
      </trkpt>
      <trkpt lat="45.34644" lon="5.24321">
        <ele>287.86</ele>
        <time>2017-03-26T08:13:39Z</time>
      </trkpt>
      <trkpt lat="45.34639" lon="5.24288">
        <ele>287.66</ele>
        <time>2017-03-26T08:13:40Z</time>
      </trkpt>
      <trkpt lat="45.34634" lon="5.24255">
        <ele>287.46</ele>
        <time>2017-03-26T08:13:41Z</time>
      </trkpt>
      <trkpt lat="45.34628" lon="5.24222">
        <ele>287.26</ele>
        <time>2017-03-26T08:13:42Z</time>
      </trkpt>
      <trkpt lat="45.34622" lon="5.24189">
        <ele>287.06</ele>
        <time>2017-03-26T08:13:43Z</time>
      </trkpt>
      <trkpt lat="45.34616" lon="5.24156">
        <ele>286.86</ele>
        <time>2017-03-26T08:13:44Z</time>
      </trkpt>
      <trkpt lat="45.3461" lon="5.24124">
        <ele>286.74</ele>
        <time>2017-03-26T08:13:45Z</time>
      </trkpt>
      <trkpt lat="45.34604" lon="5.24091">
        <ele>286.55</ele>
        <time>2017-03-26T08:13:46Z</time>
      </trkpt>
      <trkpt lat="45.34598" lon="5.24059">
        <ele>286.44</ele>
        <time>2017-03-26T08:13:47Z</time>
      </trkpt>
      <trkpt lat="45.34592" lon="5.24027">
        <ele>286.41</ele>
        <time>2017-03-26T08:13:48Z</time>
      </trkpt>
      <trkpt lat="45.34586" lon="5.23994">
        <ele>286.41</ele>
        <time>2017-03-26T08:13:49Z</time>
      </trkpt>
      <trkpt lat="45.3458" lon="5.23962">
        <ele>286.33</ele>
        <time>2017-03-26T08:13:50Z</time>
      </trkpt>
      <trkpt lat="45.34575" lon="5.2393">
        <ele>286.15</ele>
        <time>2017-03-26T08:13:51Z</time>
      </trkpt>
      <trkpt lat="45.3457" lon="5.23897">
        <ele>286.03</ele>
        <time>2017-03-26T08:13:52Z</time>
      </trkpt>
      <trkpt lat="45.34565" lon="5.23864">
        <ele>285.93</ele>
        <time>2017-03-26T08:13:53Z</time>
      </trkpt>
      <trkpt lat="45.34561" lon="5.23831">
        <ele>285.99</ele>
        <time>2017-03-26T08:13:54Z</time>
      </trkpt>
      <trkpt lat="45.34557" lon="5.23797">
        <ele>285.92</ele>
        <time>2017-03-26T08:13:55Z</time>
      </trkpt>
      <trkpt lat="45.34554" lon="5.23764">
        <ele>285.83</ele>
        <time>2017-03-26T08:13:56Z</time>
      </trkpt>
      <trkpt lat="45.3455" lon="5.2373">
        <ele>285.57</ele>
        <time>2017-03-26T08:13:57Z</time>
      </trkpt>
      <trkpt lat="45.34546" lon="5.23697">
        <ele>285.44</ele>
        <time>2017-03-26T08:13:58Z</time>
      </trkpt>
      <trkpt lat="45.34542" lon="5.23663">
        <ele>285.33</ele>
        <time>2017-03-26T08:13:59Z</time>
      </trkpt>
      <trkpt lat="45.34538" lon="5.2363">
        <ele>285.15</ele>
        <time>2017-03-26T08:14:00Z</time>
      </trkpt>
      <trkpt lat="45.34534" lon="5.23596">
        <ele>285.04</ele>
        <time>2017-03-26T08:14:01Z</time>
      </trkpt>
      <trkpt lat="45.3453" lon="5.23562">
        <ele>284.85</ele>
        <time>2017-03-26T08:14:02Z</time>
      </trkpt>
      <trkpt lat="45.34527" lon="5.23529">
        <ele>284.74</ele>
        <time>2017-03-26T08:14:03Z</time>
      </trkpt>
      <trkpt lat="45.34523" lon="5.23495">
        <ele>284.71</ele>
        <time>2017-03-26T08:14:04Z</time>
      </trkpt>
      <trkpt lat="45.3452" lon="5.23462">
        <ele>284.39</ele>
        <time>2017-03-26T08:14:05Z</time>
      </trkpt>
      <trkpt lat="45.34517" lon="5.23428">
        <ele>284.08</ele>
        <time>2017-03-26T08:14:06Z</time>
      </trkpt>
      <trkpt lat="45.34514" lon="5.23395">
        <ele>283.94</ele>
        <time>2017-03-26T08:14:07Z</time>
      </trkpt>
      <trkpt lat="45.34511" lon="5.23361">
        <ele>283.83</ele>
        <time>2017-03-26T08:14:08Z</time>
      </trkpt>
      <trkpt lat="45.34508" lon="5.23328">
        <ele>283.57</ele>
        <time>2017-03-26T08:14:09Z</time>
      </trkpt>
      <trkpt lat="45.34505" lon="5.23294">
        <ele>283.44</ele>
        <time>2017-03-26T08:14:10Z</time>
      </trkpt>
      <trkpt lat="45.34502" lon="5.23261">
        <ele>283.33</ele>
        <time>2017-03-26T08:14:11Z</time>
      </trkpt>
      <trkpt lat="45.34499" lon="5.23227">
        <ele>283.23</ele>
        <time>2017-03-26T08:14:12Z</time>
      </trkpt>
      <trkpt lat="45.34496" lon="5.23194">
        <ele>283.05</ele>
        <time>2017-03-26T08:14:13Z</time>
      </trkpt>
      <trkpt lat="45.34493" lon="5.2316">
        <ele>282.94</ele>
        <time>2017-03-26T08:14:14Z</time>
      </trkpt>
      <trkpt lat="45.3449" lon="5.23126">
        <ele>282.67</ele>
        <time>2017-03-26T08:14:15Z</time>
      </trkpt>
      <trkpt lat="45.34486" lon="5.23092">
        <ele>282.46</ele>
        <time>2017-03-26T08:14:16Z</time>
      </trkpt>
      <trkpt lat="45.34483" lon="5.23058">
        <ele>282.26</ele>
        <time>2017-03-26T08:14:17Z</time>
      </trkpt>
      <trkpt lat="45.3448" lon="5.23024">
        <ele>282.14</ele>
        <time>2017-03-26T08:14:18Z</time>
      </trkpt>
      <trkpt lat="45.34476" lon="5.2299">
        <ele>281.95</ele>
        <time>2017-03-26T08:14:19Z</time>
      </trkpt>
      <trkpt lat="45.34472" lon="5.22956">
        <ele>281.76</ele>
        <time>2017-03-26T08:14:20Z</time>
      </trkpt>
      <trkpt lat="45.34469" lon="5.22922">
        <ele>281.56</ele>
        <time>2017-03-26T08:14:21Z</time>
      </trkpt>
      <trkpt lat="45.34465" lon="5.22888">
        <ele>281.36</ele>
        <time>2017-03-26T08:14:22Z</time>
      </trkpt>
      <trkpt lat="45.34461" lon="5.22853">
        <ele>281.08</ele>
        <time>2017-03-26T08:14:23Z</time>
      </trkpt>
      <trkpt lat="45.34458" lon="5.22819">
        <ele>280.86</ele>
        <time>2017-03-26T08:14:24Z</time>
      </trkpt>
      <trkpt lat="45.34454" lon="5.22785">
        <ele>280.66</ele>
        <time>2017-03-26T08:14:25Z</time>
      </trkpt>
      <trkpt lat="45.3445" lon="5.22751">
        <ele>280.46</ele>
        <time>2017-03-26T08:14:26Z</time>
      </trkpt>
      <trkpt lat="45.34447" lon="5.22716">
        <ele>280.26</ele>
        <time>2017-03-26T08:14:27Z</time>
      </trkpt>
      <trkpt lat="45.34443" lon="5.22681">
        <ele>280.06</ele>
        <time>2017-03-26T08:14:28Z</time>
      </trkpt>
      <trkpt lat="45.34439" lon="5.22647">
        <ele>279.94</ele>
        <time>2017-03-26T08:14:29Z</time>
      </trkpt>
      <trkpt lat="45.34436" lon="5.22612">
        <ele>279.75</ele>
        <time>2017-03-26T08:14:30Z</time>
      </trkpt>
      <trkpt lat="45.34432" lon="5.22577">
        <ele>279.48</ele>
        <time>2017-03-26T08:14:31Z</time>
      </trkpt>
      <trkpt lat="45.34428" lon="5.22542">
        <ele>279.26</ele>
        <time>2017-03-26T08:14:32Z</time>
      </trkpt>
      <trkpt lat="45.34424" lon="5.22507">
        <ele>279.06</ele>
        <time>2017-03-26T08:14:33Z</time>
      </trkpt>
      <trkpt lat="45.34419" lon="5.22472">
        <ele>278.78</ele>
        <time>2017-03-26T08:14:34Z</time>
      </trkpt>
      <trkpt lat="45.34415" lon="5.22437">
        <ele>278.8</ele>
        <time>2017-03-26T08:14:35Z</time>
      </trkpt>
      <trkpt lat="45.3441" lon="5.22402">
        <ele>278.8</ele>
        <time>2017-03-26T08:14:36Z</time>
      </trkpt>
      <trkpt lat="45.34405" lon="5.22368">
        <ele>278.65</ele>
        <time>2017-03-26T08:14:37Z</time>
      </trkpt>
      <trkpt lat="45.34401" lon="5.22333">
        <ele>278.61</ele>
        <time>2017-03-26T08:14:38Z</time>
      </trkpt>
      <trkpt lat="45.34396" lon="5.22299">
        <ele>278.53</ele>
        <time>2017-03-26T08:14:39Z</time>
      </trkpt>
      <trkpt lat="45.34392" lon="5.22264">
        <ele>278.43</ele>
        <time>2017-03-26T08:14:40Z</time>
      </trkpt>
      <trkpt lat="45.34388" lon="5.2223">
        <ele>278.25</ele>
        <time>2017-03-26T08:14:41Z</time>
      </trkpt>
      <trkpt lat="45.34384" lon="5.22197">
        <ele>278.05</ele>
        <time>2017-03-26T08:14:42Z</time>
      </trkpt>
      <trkpt lat="45.34379" lon="5.22163">
        <ele>277.86</ele>
        <time>2017-03-26T08:14:43Z</time>
      </trkpt>
      <trkpt lat="45.34375" lon="5.2213">
        <ele>277.66</ele>
        <time>2017-03-26T08:14:44Z</time>
      </trkpt>
      <trkpt lat="45.34371" lon="5.22096">
        <ele>277.46</ele>
        <time>2017-03-26T08:14:45Z</time>
      </trkpt>
      <trkpt lat="45.34366" lon="5.22063">
        <ele>277.26</ele>
        <time>2017-03-26T08:14:46Z</time>
      </trkpt>
      <trkpt lat="45.34362" lon="5.2203">
        <ele>277.06</ele>
        <time>2017-03-26T08:14:47Z</time>
      </trkpt>
      <trkpt lat="45.34358" lon="5.21997">
        <ele>276.86</ele>
        <time>2017-03-26T08:14:48Z</time>
      </trkpt>
      <trkpt lat="45.34354" lon="5.21964">
        <ele>276.58</ele>
        <time>2017-03-26T08:14:49Z</time>
      </trkpt>
      <trkpt lat="45.3435" lon="5.21931">
        <ele>276.36</ele>
        <time>2017-03-26T08:14:50Z</time>
      </trkpt>
      <trkpt lat="45.34346" lon="5.21898">
        <ele>276.16</ele>
        <time>2017-03-26T08:14:51Z</time>
      </trkpt>
      <trkpt lat="45.34342" lon="5.21865">
        <ele>275.8</ele>
        <time>2017-03-26T08:14:52Z</time>
      </trkpt>
      <trkpt lat="45.34338" lon="5.21832">
        <ele>275.48</ele>
        <time>2017-03-26T08:14:53Z</time>
      </trkpt>
      <trkpt lat="45.34333" lon="5.218">
        <ele>275.47</ele>
        <time>2017-03-26T08:14:54Z</time>
      </trkpt>
      <trkpt lat="45.34329" lon="5.21767">
        <ele>275.31</ele>
        <time>2017-03-26T08:14:55Z</time>
      </trkpt>
      <trkpt lat="45.34325" lon="5.21734">
        <ele>275.12</ele>
        <time>2017-03-26T08:14:56Z</time>
      </trkpt>
      <trkpt lat="45.34322" lon="5.21701">
        <ele>275</ele>
        <time>2017-03-26T08:14:57Z</time>
      </trkpt>
      <trkpt lat="45.34318" lon="5.21667">
        <ele>274.97</ele>
        <time>2017-03-26T08:14:58Z</time>
      </trkpt>
      <trkpt lat="45.34314" lon="5.21634">
        <ele>274.89</ele>
        <time>2017-03-26T08:14:59Z</time>
      </trkpt>
      <trkpt lat="45.3431" lon="5.21601">
        <ele>274.87</ele>
        <time>2017-03-26T08:15:00Z</time>
      </trkpt>
      <trkpt lat="45.34307" lon="5.21567">
        <ele>274.87</ele>
        <time>2017-03-26T08:15:01Z</time>
      </trkpt>
      <trkpt lat="45.34303" lon="5.21534">
        <ele>274.79</ele>
        <time>2017-03-26T08:15:02Z</time>
      </trkpt>
      <trkpt lat="45.34299" lon="5.215">
        <ele>274.69</ele>
        <time>2017-03-26T08:15:03Z</time>
      </trkpt>
      <trkpt lat="45.34295" lon="5.21466">
        <ele>274.59</ele>
        <time>2017-03-26T08:15:04Z</time>
      </trkpt>
      <trkpt lat="45.34291" lon="5.21433">
        <ele>274.33</ele>
        <time>2017-03-26T08:15:05Z</time>
      </trkpt>
      <trkpt lat="45.34288" lon="5.21399">
        <ele>274.28</ele>
        <time>2017-03-26T08:15:06Z</time>
      </trkpt>
      <trkpt lat="45.34284" lon="5.21365">
        <ele>274.11</ele>
        <time>2017-03-26T08:15:07Z</time>
      </trkpt>
      <trkpt lat="45.34281" lon="5.21331">
        <ele>274</ele>
        <time>2017-03-26T08:15:08Z</time>
      </trkpt>
      <trkpt lat="45.34277" lon="5.21297">
        <ele>273.89</ele>
        <time>2017-03-26T08:15:09Z</time>
      </trkpt>
      <trkpt lat="45.34273" lon="5.21263">
        <ele>273.79</ele>
        <time>2017-03-26T08:15:10Z</time>
      </trkpt>
      <trkpt lat="45.3427" lon="5.2123">
        <ele>273.53</ele>
        <time>2017-03-26T08:15:11Z</time>
      </trkpt>
      <trkpt lat="45.34266" lon="5.21196">
        <ele>273.32</ele>
        <time>2017-03-26T08:15:12Z</time>
      </trkpt>
      <trkpt lat="45.34263" lon="5.21161">
        <ele>273.2</ele>
        <time>2017-03-26T08:15:13Z</time>
      </trkpt>
      <trkpt lat="45.34259" lon="5.21127">
        <ele>272.93</ele>
        <time>2017-03-26T08:15:14Z</time>
      </trkpt>
      <trkpt lat="45.34256" lon="5.21093">
        <ele>272.64</ele>
        <time>2017-03-26T08:15:15Z</time>
      </trkpt>
      <trkpt lat="45.34252" lon="5.2106">
        <ele>272.42</ele>
        <time>2017-03-26T08:15:16Z</time>
      </trkpt>
      <trkpt lat="45.34248" lon="5.21026">
        <ele>272.22</ele>
        <time>2017-03-26T08:15:17Z</time>
      </trkpt>
      <trkpt lat="45.34244" lon="5.20992">
        <ele>271.94</ele>
        <time>2017-03-26T08:15:18Z</time>
      </trkpt>
      <trkpt lat="45.34241" lon="5.20959">
        <ele>271.72</ele>
        <time>2017-03-26T08:15:19Z</time>
      </trkpt>
      <trkpt lat="45.34237" lon="5.20926">
        <ele>271.52</ele>
        <time>2017-03-26T08:15:20Z</time>
      </trkpt>
      <trkpt lat="45.34234" lon="5.20895">
        <ele>271.24</ele>
        <time>2017-03-26T08:15:21Z</time>
      </trkpt>
      <trkpt lat="45.34231" lon="5.20865">
        <ele>270.86</ele>
        <time>2017-03-26T08:15:22Z</time>
      </trkpt>
      <trkpt lat="45.34228" lon="5.20837">
        <ele>270.39</ele>
        <time>2017-03-26T08:15:23Z</time>
      </trkpt>
      <trkpt lat="45.34225" lon="5.20809">
        <ele>270.13</ele>
        <time>2017-03-26T08:15:24Z</time>
      </trkpt>
      <trkpt lat="45.34222" lon="5.20783">
        <ele>269.92</ele>
        <time>2017-03-26T08:15:25Z</time>
      </trkpt>
      <trkpt lat="45.3422" lon="5.20759">
        <ele>269.64</ele>
        <time>2017-03-26T08:15:26Z</time>
      </trkpt>
      <trkpt lat="45.34218" lon="5.20738">
        <ele>269.42</ele>
        <time>2017-03-26T08:15:27Z</time>
      </trkpt>
      <trkpt lat="45.34216" lon="5.20718">
        <ele>269.22</ele>
        <time>2017-03-26T08:15:28Z</time>
      </trkpt>
      <trkpt lat="45.34216" lon="5.20701">
        <ele>268.94</ele>
        <time>2017-03-26T08:15:29Z</time>
      </trkpt>
      <trkpt lat="45.34218" lon="5.20686">
        <ele>268.48</ele>
        <time>2017-03-26T08:15:30Z</time>
      </trkpt>
      <trkpt lat="45.34221" lon="5.20672">
        <ele>268.15</ele>
        <time>2017-03-26T08:15:31Z</time>
      </trkpt>
      <trkpt lat="45.34223" lon="5.20659">
        <ele>267.92</ele>
        <time>2017-03-26T08:15:32Z</time>
      </trkpt>
      <trkpt lat="45.34224" lon="5.20645">
        <ele>267.8</ele>
        <time>2017-03-26T08:15:33Z</time>
      </trkpt>
      <trkpt lat="45.34221" lon="5.20632">
        <ele>267.53</ele>
        <time>2017-03-26T08:15:34Z</time>
      </trkpt>
      <trkpt lat="45.34216" lon="5.20621">
        <ele>267.48</ele>
        <time>2017-03-26T08:15:35Z</time>
      </trkpt>
      <trkpt lat="45.3421" lon="5.20609">
        <ele>267.79</ele>
        <time>2017-03-26T08:15:36Z</time>
      </trkpt>
      <trkpt lat="45.34204" lon="5.20594">
        <ele>268.01</ele>
        <time>2017-03-26T08:15:37Z</time>
      </trkpt>
      <trkpt lat="45.342" lon="5.20575">
        <ele>268.06</ele>
        <time>2017-03-26T08:15:38Z</time>
      </trkpt>
      <trkpt lat="45.34195" lon="5.20551">
        <ele>268.22</ele>
        <time>2017-03-26T08:15:39Z</time>
      </trkpt>
      <trkpt lat="45.34192" lon="5.20525">
        <ele>268.34</ele>
        <time>2017-03-26T08:15:40Z</time>
      </trkpt>
      <trkpt lat="45.34189" lon="5.20496">
        <ele>268.28</ele>
        <time>2017-03-26T08:15:41Z</time>
      </trkpt>
      <trkpt lat="45.34187" lon="5.20468">
        <ele>268.19</ele>
        <time>2017-03-26T08:15:42Z</time>
      </trkpt>
      <trkpt lat="45.34184" lon="5.20439">
        <ele>267.93</ele>
        <time>2017-03-26T08:15:43Z</time>
      </trkpt>
      <trkpt lat="45.34181" lon="5.20409">
        <ele>267.88</ele>
        <time>2017-03-26T08:15:44Z</time>
      </trkpt>
      <trkpt lat="45.34179" lon="5.20379">
        <ele>267.63</ele>
        <time>2017-03-26T08:15:45Z</time>
      </trkpt>
      <trkpt lat="45.34176" lon="5.20348">
        <ele>267.42</ele>
        <time>2017-03-26T08:15:46Z</time>
      </trkpt>
      <trkpt lat="45.34174" lon="5.20317">
        <ele>267.22</ele>
        <time>2017-03-26T08:15:47Z</time>
      </trkpt>
      <trkpt lat="45.34172" lon="5.20285">
        <ele>266.94</ele>
        <time>2017-03-26T08:15:48Z</time>
      </trkpt>
      <trkpt lat="45.34169" lon="5.20254">
        <ele>266.64</ele>
        <time>2017-03-26T08:15:49Z</time>
      </trkpt>
      <trkpt lat="45.34167" lon="5.20222">
        <ele>266.42</ele>
        <time>2017-03-26T08:15:50Z</time>
      </trkpt>
      <trkpt lat="45.34164" lon="5.2019">
        <ele>266.3</ele>
        <time>2017-03-26T08:15:51Z</time>
      </trkpt>
      <trkpt lat="45.34162" lon="5.20158">
        <ele>266.19</ele>
        <time>2017-03-26T08:15:52Z</time>
      </trkpt>
      <trkpt lat="45.3416" lon="5.20126">
        <ele>266.09</ele>
        <time>2017-03-26T08:15:53Z</time>
      </trkpt>
      <trkpt lat="45.34157" lon="5.20094">
        <ele>265.75</ele>
        <time>2017-03-26T08:15:54Z</time>
      </trkpt>
      <trkpt lat="45.34155" lon="5.20062">
        <ele>265.44</ele>
        <time>2017-03-26T08:15:55Z</time>
      </trkpt>
      <trkpt lat="45.34152" lon="5.2003">
        <ele>265.22</ele>
        <time>2017-03-26T08:15:56Z</time>
      </trkpt>
      <trkpt lat="45.34149" lon="5.19998">
        <ele>264.94</ele>
        <time>2017-03-26T08:15:57Z</time>
      </trkpt>
      <trkpt lat="45.34145" lon="5.19967">
        <ele>264.48</ele>
        <time>2017-03-26T08:15:58Z</time>
      </trkpt>
      <trkpt lat="45.34142" lon="5.19936">
        <ele>263.99</ele>
        <time>2017-03-26T08:15:59Z</time>
      </trkpt>
      <trkpt lat="45.34137" lon="5.19905">
        <ele>263.65</ele>
        <time>2017-03-26T08:16:00Z</time>
      </trkpt>
      <trkpt lat="45.34132" lon="5.19875">
        <ele>263.34</ele>
        <time>2017-03-26T08:16:01Z</time>
      </trkpt>
      <trkpt lat="45.34127" lon="5.19845">
        <ele>262.96</ele>
        <time>2017-03-26T08:16:02Z</time>
      </trkpt>
      <trkpt lat="45.34122" lon="5.19817">
        <ele>262.89</ele>
        <time>2017-03-26T08:16:03Z</time>
      </trkpt>
      <trkpt lat="45.34115" lon="5.1979">
        <ele>262.47</ele>
        <time>2017-03-26T08:16:04Z</time>
      </trkpt>
      <trkpt lat="45.34108" lon="5.19765">
        <ele>262.07</ele>
        <time>2017-03-26T08:16:05Z</time>
      </trkpt>
      <trkpt lat="45.34101" lon="5.19743">
        <ele>261.51</ele>
        <time>2017-03-26T08:16:06Z</time>
      </trkpt>
      <trkpt lat="45.34095" lon="5.19723">
        <ele>261.08</ele>
        <time>2017-03-26T08:16:07Z</time>
      </trkpt>
      <trkpt lat="45.34092" lon="5.19706">
        <ele>260.83</ele>
        <time>2017-03-26T08:16:08Z</time>
      </trkpt>
      <trkpt lat="45.34091" lon="5.1969">
        <ele>261.34</ele>
        <time>2017-03-26T08:16:09Z</time>
      </trkpt>
      <trkpt lat="45.34094" lon="5.19676">
        <ele>261.6</ele>
        <time>2017-03-26T08:16:10Z</time>
      </trkpt>
      <trkpt lat="45.34094" lon="5.19662">
        <ele>262.13</ele>
        <time>2017-03-26T08:16:11Z</time>
      </trkpt>
      <trkpt lat="45.3409" lon="5.19651">
        <ele>262.64</ele>
        <time>2017-03-26T08:16:12Z</time>
      </trkpt>
      <trkpt lat="45.34083" lon="5.19643">
        <ele>262.74</ele>
        <time>2017-03-26T08:16:13Z</time>
      </trkpt>
      <trkpt lat="45.34072" lon="5.19638">
        <ele>262.76</ele>
        <time>2017-03-26T08:16:14Z</time>
      </trkpt>
      <trkpt lat="45.3406" lon="5.19636">
        <ele>262.45</ele>
        <time>2017-03-26T08:16:15Z</time>
      </trkpt>
      <trkpt lat="45.34047" lon="5.1963">
        <ele>262.38</ele>
        <time>2017-03-26T08:16:16Z</time>
      </trkpt>
      <trkpt lat="45.34033" lon="5.19617">
        <ele>263.33</ele>
        <time>2017-03-26T08:16:17Z</time>
      </trkpt>
      <trkpt lat="45.3402" lon="5.19599">
        <ele>263.84</ele>
        <time>2017-03-26T08:16:18Z</time>
      </trkpt>
      <trkpt lat="45.34008" lon="5.19578">
        <ele>264.1</ele>
        <time>2017-03-26T08:16:19Z</time>
      </trkpt>
      <trkpt lat="45.33994" lon="5.19556">
        <ele>264.15</ele>
        <time>2017-03-26T08:16:20Z</time>
      </trkpt>
      <trkpt lat="45.33979" lon="5.19533">
        <ele>264.24</ele>
        <time>2017-03-26T08:16:21Z</time>
      </trkpt>
      <trkpt lat="45.33964" lon="5.19511">
        <ele>264.1</ele>
        <time>2017-03-26T08:16:22Z</time>
      </trkpt>
      <trkpt lat="45.33948" lon="5.19488">
        <ele>263.99</ele>
        <time>2017-03-26T08:16:23Z</time>
      </trkpt>
      <trkpt lat="45.33931" lon="5.19464">
        <ele>263.89</ele>
        <time>2017-03-26T08:16:24Z</time>
      </trkpt>
      <trkpt lat="45.33914" lon="5.1944">
        <ele>263.71</ele>
        <time>2017-03-26T08:16:25Z</time>
      </trkpt>
      <trkpt lat="45.33897" lon="5.19415">
        <ele>263.68</ele>
        <time>2017-03-26T08:16:26Z</time>
      </trkpt>
      <trkpt lat="45.3388" lon="5.1939">
        <ele>263.51</ele>
        <time>2017-03-26T08:16:27Z</time>
      </trkpt>
      <trkpt lat="45.33863" lon="5.19365">
        <ele>263.4</ele>
        <time>2017-03-26T08:16:28Z</time>
      </trkpt>
      <trkpt lat="45.33846" lon="5.1934">
        <ele>263.21</ele>
        <time>2017-03-26T08:16:29Z</time>
      </trkpt>
      <trkpt lat="45.33829" lon="5.19315">
        <ele>263.1</ele>
        <time>2017-03-26T08:16:30Z</time>
      </trkpt>
      <trkpt lat="45.33813" lon="5.19288">
        <ele>262.91</ele>
        <time>2017-03-26T08:16:31Z</time>
      </trkpt>
      <trkpt lat="45.33798" lon="5.19261">
        <ele>262.8</ele>
        <time>2017-03-26T08:16:32Z</time>
      </trkpt>
      <trkpt lat="45.33783" lon="5.19233">
        <ele>262.77</ele>
        <time>2017-03-26T08:16:33Z</time>
      </trkpt>
      <trkpt lat="45.33769" lon="5.19204">
        <ele>262.69</ele>
        <time>2017-03-26T08:16:34Z</time>
      </trkpt>
      <trkpt lat="45.33757" lon="5.19174">
        <ele>262.43</ele>
        <time>2017-03-26T08:16:35Z</time>
      </trkpt>
      <trkpt lat="45.33745" lon="5.19143">
        <ele>262.22</ele>
        <time>2017-03-26T08:16:36Z</time>
      </trkpt>
      <trkpt lat="45.33734" lon="5.19111">
        <ele>262.1</ele>
        <time>2017-03-26T08:16:37Z</time>
      </trkpt>
      <trkpt lat="45.33724" lon="5.19078">
        <ele>262.07</ele>
        <time>2017-03-26T08:16:38Z</time>
      </trkpt>
      <trkpt lat="45.33716" lon="5.19045">
        <ele>262.15</ele>
        <time>2017-03-26T08:16:39Z</time>
      </trkpt>
      <trkpt lat="45.33708" lon="5.1901">
        <ele>262.16</ele>
        <time>2017-03-26T08:16:40Z</time>
      </trkpt>
      <trkpt lat="45.33702" lon="5.18975">
        <ele>262.09</ele>
        <time>2017-03-26T08:16:41Z</time>
      </trkpt>
      <trkpt lat="45.33697" lon="5.1894">
        <ele>261.59</ele>
        <time>2017-03-26T08:16:42Z</time>
      </trkpt>
      <trkpt lat="45.33693" lon="5.18907">
        <ele>261.01</ele>
        <time>2017-03-26T08:16:43Z</time>
      </trkpt>
      <trkpt lat="45.3369" lon="5.18874">
        <ele>260.5</ele>
        <time>2017-03-26T08:16:44Z</time>
      </trkpt>
      <trkpt lat="45.33688" lon="5.18845">
        <ele>260.15</ele>
        <time>2017-03-26T08:16:45Z</time>
      </trkpt>
      <trkpt lat="45.33686" lon="5.18818">
        <ele>259.76</ele>
        <time>2017-03-26T08:16:46Z</time>
      </trkpt>
      <trkpt lat="45.33685" lon="5.18793">
        <ele>259.53</ele>
        <time>2017-03-26T08:16:47Z</time>
      </trkpt>
      <trkpt lat="45.33685" lon="5.18772">
        <ele>259.16</ele>
        <time>2017-03-26T08:16:48Z</time>
      </trkpt>
      <trkpt lat="45.33687" lon="5.18753">
        <ele>259.17</ele>
        <time>2017-03-26T08:16:49Z</time>
      </trkpt>
      <trkpt lat="45.3369" lon="5.18736">
        <ele>259.01</ele>
        <time>2017-03-26T08:16:50Z</time>
      </trkpt>
      <trkpt lat="45.3369" lon="5.1872">
        <ele>259.45</ele>
        <time>2017-03-26T08:16:51Z</time>
      </trkpt>
      <trkpt lat="45.33686" lon="5.18704">
        <ele>259.7</ele>
        <time>2017-03-26T08:16:52Z</time>
      </trkpt>
      <trkpt lat="45.3368" lon="5.18688">
        <ele>259.35</ele>
        <time>2017-03-26T08:16:53Z</time>
      </trkpt>
      <trkpt lat="45.33673" lon="5.18668">
        <ele>259.2</ele>
        <time>2017-03-26T08:16:54Z</time>
      </trkpt>
      <trkpt lat="45.33668" lon="5.18644">
        <ele>259.09</ele>
        <time>2017-03-26T08:16:55Z</time>
      </trkpt>
      <trkpt lat="45.33666" lon="5.18617">
        <ele>258.83</ele>
        <time>2017-03-26T08:16:56Z</time>
      </trkpt>
      <trkpt lat="45.33663" lon="5.18588">
        <ele>258.06</ele>
        <time>2017-03-26T08:16:57Z</time>
      </trkpt>
      <trkpt lat="45.33659" lon="5.18557">
        <ele>257.51</ele>
        <time>2017-03-26T08:16:58Z</time>
      </trkpt>
      <trkpt lat="45.33656" lon="5.18525">
        <ele>256.91</ele>
        <time>2017-03-26T08:16:59Z</time>
      </trkpt>
      <trkpt lat="45.33652" lon="5.18493">
        <ele>256.72</ele>
        <time>2017-03-26T08:17:00Z</time>
      </trkpt>
      <trkpt lat="45.33648" lon="5.1846">
        <ele>256.6</ele>
        <time>2017-03-26T08:17:01Z</time>
      </trkpt>
      <trkpt lat="45.33645" lon="5.18426">
        <ele>256.41</ele>
        <time>2017-03-26T08:17:02Z</time>
      </trkpt>
      <trkpt lat="45.33642" lon="5.18393">
        <ele>256.22</ele>
        <time>2017-03-26T08:17:03Z</time>
      </trkpt>
      <trkpt lat="45.33638" lon="5.18359">
        <ele>256.02</ele>
        <time>2017-03-26T08:17:04Z</time>
      </trkpt>
      <trkpt lat="45.33635" lon="5.18326">
        <ele>255.82</ele>
        <time>2017-03-26T08:17:05Z</time>
      </trkpt>
      <trkpt lat="45.33631" lon="5.18293">
        <ele>255.62</ele>
        <time>2017-03-26T08:17:06Z</time>
      </trkpt>
      <trkpt lat="45.33627" lon="5.18261">
        <ele>255.42</ele>
        <time>2017-03-26T08:17:07Z</time>
      </trkpt>
      <trkpt lat="45.33623" lon="5.18229">
        <ele>255.3</ele>
        <time>2017-03-26T08:17:08Z</time>
      </trkpt>
      <trkpt lat="45.3362" lon="5.18198">
        <ele>255.19</ele>
        <time>2017-03-26T08:17:09Z</time>
      </trkpt>
      <trkpt lat="45.33616" lon="5.18169">
        <ele>255.09</ele>
        <time>2017-03-26T08:17:10Z</time>
      </trkpt>
      <trkpt lat="45.33612" lon="5.18142">
        <ele>255.07</ele>
        <time>2017-03-26T08:17:11Z</time>
      </trkpt>
      <trkpt lat="45.33608" lon="5.18118">
        <ele>254.99</ele>
        <time>2017-03-26T08:17:12Z</time>
      </trkpt>
      <trkpt lat="45.33606" lon="5.18097">
        <ele>255.05</ele>
        <time>2017-03-26T08:17:13Z</time>
      </trkpt>
      <trkpt lat="45.33607" lon="5.18079">
        <ele>254.66</ele>
        <time>2017-03-26T08:17:14Z</time>
      </trkpt>
      <trkpt lat="45.3361" lon="5.18063">
        <ele>254.59</ele>
        <time>2017-03-26T08:17:15Z</time>
      </trkpt>
      <trkpt lat="45.33613" lon="5.18048">
        <ele>254.65</ele>
        <time>2017-03-26T08:17:16Z</time>
      </trkpt>
      <trkpt lat="45.33612" lon="5.18033">
        <ele>254.9</ele>
        <time>2017-03-26T08:17:17Z</time>
      </trkpt>
      <trkpt lat="45.33608" lon="5.18016">
        <ele>254.79</ele>
        <time>2017-03-26T08:17:18Z</time>
      </trkpt>
      <trkpt lat="45.33603" lon="5.17997">
        <ele>253.89</ele>
        <time>2017-03-26T08:17:19Z</time>
      </trkpt>
      <trkpt lat="45.336" lon="5.17975">
        <ele>252.43</ele>
        <time>2017-03-26T08:17:20Z</time>
      </trkpt>
      <trkpt lat="45.33599" lon="5.17949">
        <ele>251.9</ele>
        <time>2017-03-26T08:17:21Z</time>
      </trkpt>
      <trkpt lat="45.33599" lon="5.1792">
        <ele>251.71</ele>
        <time>2017-03-26T08:17:22Z</time>
      </trkpt>
      <trkpt lat="45.336" lon="5.1789">
        <ele>251.68</ele>
        <time>2017-03-26T08:17:23Z</time>
      </trkpt>
      <trkpt lat="45.336" lon="5.17858">
        <ele>251.67</ele>
        <time>2017-03-26T08:17:24Z</time>
      </trkpt>
      <trkpt lat="45.33601" lon="5.17826">
        <ele>251.59</ele>
        <time>2017-03-26T08:17:25Z</time>
      </trkpt>
      <trkpt lat="45.33603" lon="5.17794">
        <ele>251.41</ele>
        <time>2017-03-26T08:17:26Z</time>
      </trkpt>
      <trkpt lat="45.33604" lon="5.1776">
        <ele>251.14</ele>
        <time>2017-03-26T08:17:27Z</time>
      </trkpt>
      <trkpt lat="45.33607" lon="5.17726">
        <ele>250.84</ele>
        <time>2017-03-26T08:17:28Z</time>
      </trkpt>
      <trkpt lat="45.3361" lon="5.17692">
        <ele>250.62</ele>
        <time>2017-03-26T08:17:29Z</time>
      </trkpt>
      <trkpt lat="45.33614" lon="5.17657">
        <ele>250.34</ele>
        <time>2017-03-26T08:17:30Z</time>
      </trkpt>
      <trkpt lat="45.3362" lon="5.17623">
        <ele>250.04</ele>
        <time>2017-03-26T08:17:31Z</time>
      </trkpt>
      <trkpt lat="45.33627" lon="5.17589">
        <ele>249.58</ele>
        <time>2017-03-26T08:17:32Z</time>
      </trkpt>
      <trkpt lat="45.33636" lon="5.17556">
        <ele>249.09</ele>
        <time>2017-03-26T08:17:33Z</time>
      </trkpt>
      <trkpt lat="45.33646" lon="5.17522">
        <ele>248.75</ele>
        <time>2017-03-26T08:17:34Z</time>
      </trkpt>
      <trkpt lat="45.33657" lon="5.17489">
        <ele>248.52</ele>
        <time>2017-03-26T08:17:35Z</time>
      </trkpt>
      <trkpt lat="45.33669" lon="5.17456">
        <ele>248.4</ele>
        <time>2017-03-26T08:17:36Z</time>
      </trkpt>
      <trkpt lat="45.33682" lon="5.17423">
        <ele>248.45</ele>
        <time>2017-03-26T08:17:37Z</time>
      </trkpt>
      <trkpt lat="45.33695" lon="5.17391">
        <ele>248.62</ele>
        <time>2017-03-26T08:17:38Z</time>
      </trkpt>
      <trkpt lat="45.33708" lon="5.17358">
        <ele>248.82</ele>
        <time>2017-03-26T08:17:39Z</time>
      </trkpt>
      <trkpt lat="45.33721" lon="5.17325">
        <ele>249.1</ele>
        <time>2017-03-26T08:17:40Z</time>
      </trkpt>
      <trkpt lat="45.33733" lon="5.17293">
        <ele>249.47</ele>
        <time>2017-03-26T08:17:41Z</time>
      </trkpt>
      <trkpt lat="45.33745" lon="5.17263">
        <ele>249.87</ele>
        <time>2017-03-26T08:17:42Z</time>
      </trkpt>
      <trkpt lat="45.33756" lon="5.17234">
        <ele>250.43</ele>
        <time>2017-03-26T08:17:43Z</time>
      </trkpt>
      <trkpt lat="45.33766" lon="5.17208">
        <ele>251.1</ele>
        <time>2017-03-26T08:17:44Z</time>
      </trkpt>
      <trkpt lat="45.33775" lon="5.17183">
        <ele>251.71</ele>
        <time>2017-03-26T08:17:45Z</time>
      </trkpt>
      <trkpt lat="45.33783" lon="5.17158">
        <ele>252.16</ele>
        <time>2017-03-26T08:17:46Z</time>
      </trkpt>
      <trkpt lat="45.3379" lon="5.17135">
        <ele>251.68</ele>
        <time>2017-03-26T08:17:47Z</time>
      </trkpt>
      <trkpt lat="45.33795" lon="5.17112">
        <ele>251.43</ele>
        <time>2017-03-26T08:17:48Z</time>
      </trkpt>
      <trkpt lat="45.338" lon="5.17091">
        <ele>251.38</ele>
        <time>2017-03-26T08:17:49Z</time>
      </trkpt>
      <trkpt lat="45.33807" lon="5.17074">
        <ele>251.61</ele>
        <time>2017-03-26T08:17:50Z</time>
      </trkpt>
      <trkpt lat="45.33815" lon="5.17059">
        <ele>251.9</ele>
        <time>2017-03-26T08:17:51Z</time>
      </trkpt>
      <trkpt lat="45.33824" lon="5.17048">
        <ele>252.03</ele>
        <time>2017-03-26T08:17:52Z</time>
      </trkpt>
      <trkpt lat="45.33832" lon="5.17037">
        <ele>251.5</ele>
        <time>2017-03-26T08:17:53Z</time>
      </trkpt>
      <trkpt lat="45.33836" lon="5.17024">
        <ele>250.51</ele>
        <time>2017-03-26T08:17:54Z</time>
      </trkpt>
      <trkpt lat="45.33836" lon="5.17008">
        <ele>249.84</ele>
        <time>2017-03-26T08:17:55Z</time>
      </trkpt>
      <trkpt lat="45.33832" lon="5.1699">
        <ele>249.38</ele>
        <time>2017-03-26T08:17:56Z</time>
      </trkpt>
      <trkpt lat="45.33828" lon="5.16971">
        <ele>248.97</ele>
        <time>2017-03-26T08:17:57Z</time>
      </trkpt>
      <trkpt lat="45.33826" lon="5.16949">
        <ele>248.33</ele>
        <time>2017-03-26T08:17:58Z</time>
      </trkpt>
      <trkpt lat="45.33825" lon="5.16924">
        <ele>247.8</ele>
        <time>2017-03-26T08:17:59Z</time>
      </trkpt>
      <trkpt lat="45.33824" lon="5.16898">
        <ele>247.61</ele>
        <time>2017-03-26T08:18:00Z</time>
      </trkpt>
      <trkpt lat="45.3382" lon="5.16871">
        <ele>247.42</ele>
        <time>2017-03-26T08:18:01Z</time>
      </trkpt>
      <trkpt lat="45.33817" lon="5.16843">
        <ele>246.9</ele>
        <time>2017-03-26T08:18:02Z</time>
      </trkpt>
      <trkpt lat="45.33812" lon="5.16814">
        <ele>246.79</ele>
        <time>2017-03-26T08:18:03Z</time>
      </trkpt>
      <trkpt lat="45.33807" lon="5.16785">
        <ele>246.69</ele>
        <time>2017-03-26T08:18:04Z</time>
      </trkpt>
      <trkpt lat="45.33802" lon="5.16755">
        <ele>246.67</ele>
        <time>2017-03-26T08:18:05Z</time>
      </trkpt>
      <trkpt lat="45.33798" lon="5.16724">
        <ele>246.59</ele>
        <time>2017-03-26T08:18:06Z</time>
      </trkpt>
      <trkpt lat="45.33793" lon="5.16693">
        <ele>246.49</ele>
        <time>2017-03-26T08:18:07Z</time>
      </trkpt>
      <trkpt lat="45.33788" lon="5.16662">
        <ele>246.47</ele>
        <time>2017-03-26T08:18:08Z</time>
      </trkpt>
      <trkpt lat="45.33783" lon="5.1663">
        <ele>246.47</ele>
        <time>2017-03-26T08:18:09Z</time>
      </trkpt>
      <trkpt lat="45.33778" lon="5.16599">
        <ele>246.31</ele>
        <time>2017-03-26T08:18:10Z</time>
      </trkpt>
      <trkpt lat="45.33773" lon="5.16567">
        <ele>246.12</ele>
        <time>2017-03-26T08:18:11Z</time>
      </trkpt>
      <trkpt lat="45.33768" lon="5.16535">
        <ele>246</ele>
        <time>2017-03-26T08:18:12Z</time>
      </trkpt>
      <trkpt lat="45.33763" lon="5.16503">
        <ele>245.81</ele>
        <time>2017-03-26T08:18:13Z</time>
      </trkpt>
      <trkpt lat="45.33758" lon="5.16471">
        <ele>245.7</ele>
        <time>2017-03-26T08:18:14Z</time>
      </trkpt>
      <trkpt lat="45.33753" lon="5.16439">
        <ele>245.59</ele>
        <time>2017-03-26T08:18:15Z</time>
      </trkpt>
      <trkpt lat="45.33748" lon="5.16406">
        <ele>245.57</ele>
        <time>2017-03-26T08:18:16Z</time>
      </trkpt>
      <trkpt lat="45.33743" lon="5.16374">
        <ele>245.49</ele>
        <time>2017-03-26T08:18:17Z</time>
      </trkpt>
      <trkpt lat="45.33738" lon="5.16341">
        <ele>245.47</ele>
        <time>2017-03-26T08:18:18Z</time>
      </trkpt>
      <trkpt lat="45.33734" lon="5.16309">
        <ele>245.39</ele>
        <time>2017-03-26T08:18:19Z</time>
      </trkpt>
      <trkpt lat="45.3373" lon="5.16276">
        <ele>245.37</ele>
        <time>2017-03-26T08:18:20Z</time>
      </trkpt>
      <trkpt lat="45.33726" lon="5.16243">
        <ele>245.21</ele>
        <time>2017-03-26T08:18:21Z</time>
      </trkpt>
      <trkpt lat="45.33722" lon="5.1621">
        <ele>245.1</ele>
        <time>2017-03-26T08:18:22Z</time>
      </trkpt>
      <trkpt lat="45.33718" lon="5.16178">
        <ele>244.99</ele>
        <time>2017-03-26T08:18:23Z</time>
      </trkpt>
      <trkpt lat="45.33714" lon="5.16145">
        <ele>244.89</ele>
        <time>2017-03-26T08:18:24Z</time>
      </trkpt>
      <trkpt lat="45.3371" lon="5.16113">
        <ele>244.87</ele>
        <time>2017-03-26T08:18:25Z</time>
      </trkpt>
      <trkpt lat="45.33706" lon="5.1608">
        <ele>244.71</ele>
        <time>2017-03-26T08:18:26Z</time>
      </trkpt>
      <trkpt lat="45.33702" lon="5.16047">
        <ele>244.6</ele>
        <time>2017-03-26T08:18:27Z</time>
      </trkpt>
      <trkpt lat="45.33699" lon="5.16015">
        <ele>244.41</ele>
        <time>2017-03-26T08:18:28Z</time>
      </trkpt>
      <trkpt lat="45.33696" lon="5.15983">
        <ele>244.38</ele>
        <time>2017-03-26T08:18:29Z</time>
      </trkpt>
      <trkpt lat="45.33692" lon="5.1595">
        <ele>244.29</ele>
        <time>2017-03-26T08:18:30Z</time>
      </trkpt>
      <trkpt lat="45.33689" lon="5.15918">
        <ele>244.27</ele>
        <time>2017-03-26T08:18:31Z</time>
      </trkpt>
      <trkpt lat="45.33686" lon="5.15886">
        <ele>244.11</ele>
        <time>2017-03-26T08:18:32Z</time>
      </trkpt>
      <trkpt lat="45.33683" lon="5.15853">
        <ele>244.08</ele>
        <time>2017-03-26T08:18:33Z</time>
      </trkpt>
      <trkpt lat="45.33679" lon="5.15819">
        <ele>243.99</ele>
        <time>2017-03-26T08:18:34Z</time>
      </trkpt>
      <trkpt lat="45.33676" lon="5.15785">
        <ele>243.89</ele>
        <time>2017-03-26T08:18:35Z</time>
      </trkpt>
      <trkpt lat="45.33672" lon="5.15751">
        <ele>243.71</ele>
        <time>2017-03-26T08:18:36Z</time>
      </trkpt>
      <trkpt lat="45.33669" lon="5.15716">
        <ele>243.6</ele>
        <time>2017-03-26T08:18:37Z</time>
      </trkpt>
      <trkpt lat="45.33665" lon="5.15682">
        <ele>243.49</ele>
        <time>2017-03-26T08:18:38Z</time>
      </trkpt>
      <trkpt lat="45.33663" lon="5.15647">
        <ele>243.31</ele>
        <time>2017-03-26T08:18:39Z</time>
      </trkpt>
      <trkpt lat="45.33661" lon="5.15612">
        <ele>243.2</ele>
        <time>2017-03-26T08:18:40Z</time>
      </trkpt>
      <trkpt lat="45.33658" lon="5.15578">
        <ele>243.01</ele>
        <time>2017-03-26T08:18:41Z</time>
      </trkpt>
      <trkpt lat="45.33656" lon="5.15544">
        <ele>242.82</ele>
        <time>2017-03-26T08:18:42Z</time>
      </trkpt>
      <trkpt lat="45.33653" lon="5.1551">
        <ele>242.7</ele>
        <time>2017-03-26T08:18:43Z</time>
      </trkpt>
      <trkpt lat="45.3365" lon="5.15476">
        <ele>242.59</ele>
        <time>2017-03-26T08:18:44Z</time>
      </trkpt>
      <trkpt lat="45.33646" lon="5.15443">
        <ele>242.49</ele>
        <time>2017-03-26T08:18:45Z</time>
      </trkpt>
      <trkpt lat="45.33642" lon="5.15409">
        <ele>242.39</ele>
        <time>2017-03-26T08:18:46Z</time>
      </trkpt>
      <trkpt lat="45.33638" lon="5.15376">
        <ele>242.37</ele>
        <time>2017-03-26T08:18:47Z</time>
      </trkpt>
      <trkpt lat="45.33635" lon="5.15342">
        <ele>242.29</ele>
        <time>2017-03-26T08:18:48Z</time>
      </trkpt>
      <trkpt lat="45.33631" lon="5.15308">
        <ele>242.11</ele>
        <time>2017-03-26T08:18:49Z</time>
      </trkpt>
      <trkpt lat="45.33628" lon="5.15273">
        <ele>241.92</ele>
        <time>2017-03-26T08:18:50Z</time>
      </trkpt>
      <trkpt lat="45.33626" lon="5.15238">
        <ele>241.64</ele>
        <time>2017-03-26T08:18:51Z</time>
      </trkpt>
      <trkpt lat="45.33624" lon="5.15204">
        <ele>241.42</ele>
        <time>2017-03-26T08:18:52Z</time>
      </trkpt>
      <trkpt lat="45.33623" lon="5.15169">
        <ele>241.22</ele>
        <time>2017-03-26T08:18:53Z</time>
      </trkpt>
      <trkpt lat="45.33623" lon="5.15133">
        <ele>240.94</ele>
        <time>2017-03-26T08:18:54Z</time>
      </trkpt>
      <trkpt lat="45.33621" lon="5.15098">
        <ele>240.72</ele>
        <time>2017-03-26T08:18:55Z</time>
      </trkpt>
      <trkpt lat="45.3362" lon="5.15063">
        <ele>240.52</ele>
        <time>2017-03-26T08:18:56Z</time>
      </trkpt>
      <trkpt lat="45.33619" lon="5.15028">
        <ele>240.24</ele>
        <time>2017-03-26T08:18:57Z</time>
      </trkpt>
      <trkpt lat="45.33618" lon="5.14994">
        <ele>240.1</ele>
        <time>2017-03-26T08:18:58Z</time>
      </trkpt>
      <trkpt lat="45.33617" lon="5.14959">
        <ele>239.99</ele>
        <time>2017-03-26T08:18:59Z</time>
      </trkpt>
      <trkpt lat="45.33617" lon="5.14924">
        <ele>239.73</ele>
        <time>2017-03-26T08:19:00Z</time>
      </trkpt>
      <trkpt lat="45.33618" lon="5.1489">
        <ele>239.52</ele>
        <time>2017-03-26T08:19:01Z</time>
      </trkpt>
      <trkpt lat="45.33619" lon="5.14856">
        <ele>239.32</ele>
        <time>2017-03-26T08:19:02Z</time>
      </trkpt>
      <trkpt lat="45.33621" lon="5.14823">
        <ele>239.12</ele>
        <time>2017-03-26T08:19:03Z</time>
      </trkpt>
      <trkpt lat="45.33622" lon="5.14789">
        <ele>238.84</ele>
        <time>2017-03-26T08:19:04Z</time>
      </trkpt>
      <trkpt lat="45.33624" lon="5.14756">
        <ele>238.7</ele>
        <time>2017-03-26T08:19:05Z</time>
      </trkpt>
      <trkpt lat="45.33625" lon="5.14723">
        <ele>238.43</ele>
        <time>2017-03-26T08:19:06Z</time>
      </trkpt>
      <trkpt lat="45.33626" lon="5.14689">
        <ele>238.38</ele>
        <time>2017-03-26T08:19:07Z</time>
      </trkpt>
      <trkpt lat="45.33627" lon="5.14656">
        <ele>238.29</ele>
        <time>2017-03-26T08:19:08Z</time>
      </trkpt>
      <trkpt lat="45.33628" lon="5.14623">
        <ele>238.19</ele>
        <time>2017-03-26T08:19:09Z</time>
      </trkpt>
      <trkpt lat="45.33628" lon="5.14589">
        <ele>238.09</ele>
        <time>2017-03-26T08:19:10Z</time>
      </trkpt>
      <trkpt lat="45.33629" lon="5.14555">
        <ele>237.99</ele>
        <time>2017-03-26T08:19:11Z</time>
      </trkpt>
      <trkpt lat="45.33629" lon="5.14521">
        <ele>237.97</ele>
        <time>2017-03-26T08:19:12Z</time>
      </trkpt>
      <trkpt lat="45.3363" lon="5.14488">
        <ele>237.89</ele>
        <time>2017-03-26T08:19:13Z</time>
      </trkpt>
      <trkpt lat="45.33631" lon="5.14454">
        <ele>237.79</ele>
        <time>2017-03-26T08:19:14Z</time>
      </trkpt>
      <trkpt lat="45.33633" lon="5.1442">
        <ele>237.61</ele>
        <time>2017-03-26T08:19:15Z</time>
      </trkpt>
      <trkpt lat="45.33636" lon="5.14387">
        <ele>237.5</ele>
        <time>2017-03-26T08:19:16Z</time>
      </trkpt>
      <trkpt lat="45.33641" lon="5.14355">
        <ele>237.39</ele>
        <time>2017-03-26T08:19:17Z</time>
      </trkpt>
      <trkpt lat="45.33647" lon="5.14323">
        <ele>237.13</ele>
        <time>2017-03-26T08:19:18Z</time>
      </trkpt>
      <trkpt lat="45.33652" lon="5.14291">
        <ele>236.92</ele>
        <time>2017-03-26T08:19:19Z</time>
      </trkpt>
      <trkpt lat="45.33658" lon="5.14259">
        <ele>236.72</ele>
        <time>2017-03-26T08:19:20Z</time>
      </trkpt>
      <trkpt lat="45.33663" lon="5.14227">
        <ele>236.44</ele>
        <time>2017-03-26T08:19:21Z</time>
      </trkpt>
      <trkpt lat="45.33666" lon="5.14194">
        <ele>236.22</ele>
        <time>2017-03-26T08:19:22Z</time>
      </trkpt>
      <trkpt lat="45.33669" lon="5.14161">
        <ele>236.02</ele>
        <time>2017-03-26T08:19:23Z</time>
      </trkpt>
      <trkpt lat="45.33672" lon="5.14127">
        <ele>235.82</ele>
        <time>2017-03-26T08:19:24Z</time>
      </trkpt>
      <trkpt lat="45.33674" lon="5.14093">
        <ele>235.7</ele>
        <time>2017-03-26T08:19:25Z</time>
      </trkpt>
      <trkpt lat="45.33677" lon="5.14059">
        <ele>235.59</ele>
        <time>2017-03-26T08:19:26Z</time>
      </trkpt>
      <trkpt lat="45.3368" lon="5.14025">
        <ele>235.49</ele>
        <time>2017-03-26T08:19:27Z</time>
      </trkpt>
      <trkpt lat="45.33683" lon="5.13991">
        <ele>235.31</ele>
        <time>2017-03-26T08:19:28Z</time>
      </trkpt>
      <trkpt lat="45.33685" lon="5.13957">
        <ele>235.28</ele>
        <time>2017-03-26T08:19:29Z</time>
      </trkpt>
      <trkpt lat="45.33688" lon="5.13924">
        <ele>235.27</ele>
        <time>2017-03-26T08:19:30Z</time>
      </trkpt>
      <trkpt lat="45.3369" lon="5.1389">
        <ele>235.19</ele>
        <time>2017-03-26T08:19:31Z</time>
      </trkpt>
      <trkpt lat="45.33693" lon="5.13857">
        <ele>235.17</ele>
        <time>2017-03-26T08:19:32Z</time>
      </trkpt>
      <trkpt lat="45.33695" lon="5.13823">
        <ele>235.09</ele>
        <time>2017-03-26T08:19:33Z</time>
      </trkpt>
      <trkpt lat="45.33698" lon="5.1379">
        <ele>234.99</ele>
        <time>2017-03-26T08:19:34Z</time>
      </trkpt>
      <trkpt lat="45.337" lon="5.13757">
        <ele>234.89</ele>
        <time>2017-03-26T08:19:35Z</time>
      </trkpt>
      <trkpt lat="45.33703" lon="5.13723">
        <ele>234.79</ele>
        <time>2017-03-26T08:19:36Z</time>
      </trkpt>
      <trkpt lat="45.33705" lon="5.1369">
        <ele>234.69</ele>
        <time>2017-03-26T08:19:37Z</time>
      </trkpt>
      <trkpt lat="45.33706" lon="5.13657">
        <ele>234.67</ele>
        <time>2017-03-26T08:19:38Z</time>
      </trkpt>
      <trkpt lat="45.33707" lon="5.13625">
        <ele>234.67</ele>
        <time>2017-03-26T08:19:39Z</time>
      </trkpt>
      <trkpt lat="45.33706" lon="5.13592">
        <ele>234.59</ele>
        <time>2017-03-26T08:19:40Z</time>
      </trkpt>
      <trkpt lat="45.33706" lon="5.1356">
        <ele>234.57</ele>
        <time>2017-03-26T08:19:41Z</time>
      </trkpt>
      <trkpt lat="45.33706" lon="5.13528">
        <ele>234.49</ele>
        <time>2017-03-26T08:19:42Z</time>
      </trkpt>
      <trkpt lat="45.33706" lon="5.13495">
        <ele>234.31</ele>
        <time>2017-03-26T08:19:43Z</time>
      </trkpt>
      <trkpt lat="45.33705" lon="5.13463">
        <ele>234.12</ele>
        <time>2017-03-26T08:19:44Z</time>
      </trkpt>
      <trkpt lat="45.33705" lon="5.13431">
        <ele>233.76</ele>
        <time>2017-03-26T08:19:45Z</time>
      </trkpt>
      <trkpt lat="45.33704" lon="5.13399">
        <ele>233.44</ele>
        <time>2017-03-26T08:19:46Z</time>
      </trkpt>
      <trkpt lat="45.33703" lon="5.13367">
        <ele>233.3</ele>
        <time>2017-03-26T08:19:47Z</time>
      </trkpt>
      <trkpt lat="45.33702" lon="5.13336">
        <ele>233.19</ele>
        <time>2017-03-26T08:19:48Z</time>
      </trkpt>
      <trkpt lat="45.33701" lon="5.13304">
        <ele>233.01</ele>
        <time>2017-03-26T08:19:49Z</time>
      </trkpt>
      <trkpt lat="45.337" lon="5.13272">
        <ele>232.82</ele>
        <time>2017-03-26T08:19:50Z</time>
      </trkpt>
      <trkpt lat="45.337" lon="5.1324">
        <ele>232.7</ele>
        <time>2017-03-26T08:19:51Z</time>
      </trkpt>
      <trkpt lat="45.33699" lon="5.13208">
        <ele>232.51</ele>
        <time>2017-03-26T08:19:52Z</time>
      </trkpt>
      <trkpt lat="45.33698" lon="5.13177">
        <ele>232.16</ele>
        <time>2017-03-26T08:19:53Z</time>
      </trkpt>
      <trkpt lat="45.33697" lon="5.13147">
        <ele>231.84</ele>
        <time>2017-03-26T08:19:54Z</time>
      </trkpt>
      <trkpt lat="45.33696" lon="5.13119">
        <ele>231.54</ele>
        <time>2017-03-26T08:19:55Z</time>
      </trkpt>
      <trkpt lat="45.33694" lon="5.13095">
        <ele>231.32</ele>
        <time>2017-03-26T08:19:56Z</time>
      </trkpt>
      <trkpt lat="45.33691" lon="5.13075">
        <ele>231.2</ele>
        <time>2017-03-26T08:19:57Z</time>
      </trkpt>
      <trkpt lat="45.33688" lon="5.13058">
        <ele>230.69</ele>
        <time>2017-03-26T08:19:58Z</time>
      </trkpt>
      <trkpt lat="45.33685" lon="5.13045">
        <ele>229.71</ele>
        <time>2017-03-26T08:19:59Z</time>
      </trkpt>
      <trkpt lat="45.33685" lon="5.13034">
        <ele>228.4</ele>
        <time>2017-03-26T08:20:00Z</time>
      </trkpt>
      <trkpt lat="45.33688" lon="5.13024">
        <ele>227.49</ele>
        <time>2017-03-26T08:20:01Z</time>
      </trkpt>
      <trkpt lat="45.33692" lon="5.13015">
        <ele>226.99</ele>
        <time>2017-03-26T08:20:02Z</time>
      </trkpt>
      <trkpt lat="45.33696" lon="5.13005">
        <ele>226.97</ele>
        <time>2017-03-26T08:20:03Z</time>
      </trkpt>
      <trkpt lat="45.33698" lon="5.12994">
        <ele>226.81</ele>
        <time>2017-03-26T08:20:04Z</time>
      </trkpt>
      <trkpt lat="45.33696" lon="5.12982">
        <ele>226.7</ele>
        <time>2017-03-26T08:20:05Z</time>
      </trkpt>
      <trkpt lat="45.33692" lon="5.12971">
        <ele>226.59</ele>
        <time>2017-03-26T08:20:06Z</time>
      </trkpt>
      <trkpt lat="45.33687" lon="5.1296">
        <ele>226.33</ele>
        <time>2017-03-26T08:20:07Z</time>
      </trkpt>
      <trkpt lat="45.33683" lon="5.12947">
        <ele>226.12</ele>
        <time>2017-03-26T08:20:08Z</time>
      </trkpt>
      <trkpt lat="45.33682" lon="5.12932">
        <ele>226.16</ele>
        <time>2017-03-26T08:20:09Z</time>
      </trkpt>
      <trkpt lat="45.33683" lon="5.12917">
        <ele>226.01</ele>
        <time>2017-03-26T08:20:10Z</time>
      </trkpt>
      <trkpt lat="45.33683" lon="5.12906">
        <ele>225.65</ele>
        <time>2017-03-26T08:20:11Z</time>
      </trkpt>
      <trkpt lat="45.33682" lon="5.12899">
        <ele>225.42</ele>
        <time>2017-03-26T08:20:12Z</time>
      </trkpt>
      <trkpt lat="45.33679" lon="5.12897">
        <ele>224.82</ele>
        <time>2017-03-26T08:20:13Z</time>
      </trkpt>
      <trkpt lat="45.33676" lon="5.12897">
        <ele>224.7</ele>
        <time>2017-03-26T08:20:14Z</time>
      </trkpt>
      <trkpt lat="45.33673" lon="5.12901">
        <ele>226.19</ele>
        <time>2017-03-26T08:20:15Z</time>
      </trkpt>
      <trkpt lat="45.33671" lon="5.12908">
        <ele>227.53</ele>
        <time>2017-03-26T08:20:16Z</time>
      </trkpt>
      <trkpt lat="45.3367" lon="5.12918">
        <ele>228.28</ele>
        <time>2017-03-26T08:20:17Z</time>
      </trkpt>
      <trkpt lat="45.3367" lon="5.12929">
        <ele>229.15</ele>
        <time>2017-03-26T08:20:18Z</time>
      </trkpt>
      <trkpt lat="45.3367" lon="5.12941">
        <ele>229.88</ele>
        <time>2017-03-26T08:20:19Z</time>
      </trkpt>
      <trkpt lat="45.33668" lon="5.12954">
        <ele>230.43</ele>
        <time>2017-03-26T08:20:20Z</time>
      </trkpt>
      <trkpt lat="45.33663" lon="5.12967">
        <ele>231.02</ele>
        <time>2017-03-26T08:20:21Z</time>
      </trkpt>
      <trkpt lat="45.33658" lon="5.12978">
        <ele>231.62</ele>
        <time>2017-03-26T08:20:22Z</time>
      </trkpt>
      <trkpt lat="45.33654" lon="5.12991">
        <ele>232.22</ele>
        <time>2017-03-26T08:20:23Z</time>
      </trkpt>
      <trkpt lat="45.33654" lon="5.13004">
        <ele>232.5</ele>
        <time>2017-03-26T08:20:24Z</time>
      </trkpt>
      <trkpt lat="45.33656" lon="5.13016">
        <ele>232.55</ele>
        <time>2017-03-26T08:20:25Z</time>
      </trkpt>
      <trkpt lat="45.33661" lon="5.13024">
        <ele>232.48</ele>
        <time>2017-03-26T08:20:26Z</time>
      </trkpt>
      <trkpt lat="45.3367" lon="5.13028">
        <ele>232.07</ele>
        <time>2017-03-26T08:20:27Z</time>
      </trkpt>
      <trkpt lat="45.33679" lon="5.13028">
        <ele>231.59</ele>
        <time>2017-03-26T08:20:28Z</time>
      </trkpt>
      <trkpt lat="45.33688" lon="5.13025">
        <ele>231.01</ele>
        <time>2017-03-26T08:20:29Z</time>
      </trkpt>
      <trkpt lat="45.33697" lon="5.13017">
        <ele>231.22</ele>
        <time>2017-03-26T08:20:30Z</time>
      </trkpt>
      <trkpt lat="45.33707" lon="5.13008">
        <ele>231.34</ele>
        <time>2017-03-26T08:20:31Z</time>
      </trkpt>
      <trkpt lat="45.33718" lon="5.12998">
        <ele>231.68</ele>
        <time>2017-03-26T08:20:32Z</time>
      </trkpt>
      <trkpt lat="45.33729" lon="5.12985">
        <ele>232.07</ele>
        <time>2017-03-26T08:20:33Z</time>
      </trkpt>
      <trkpt lat="45.3374" lon="5.12969">
        <ele>232.39</ele>
        <time>2017-03-26T08:20:34Z</time>
      </trkpt>
      <trkpt lat="45.33751" lon="5.12949">
        <ele>232.53</ele>
        <time>2017-03-26T08:20:35Z</time>
      </trkpt>
      <trkpt lat="45.33764" lon="5.12929">
        <ele>232.8</ele>
        <time>2017-03-26T08:20:36Z</time>
      </trkpt>
      <trkpt lat="45.33777" lon="5.12907">
        <ele>233.09</ele>
        <time>2017-03-26T08:20:37Z</time>
      </trkpt>
      <trkpt lat="45.3379" lon="5.12885">
        <ele>233.23</ele>
        <time>2017-03-26T08:20:38Z</time>
      </trkpt>
      <trkpt lat="45.33803" lon="5.12862">
        <ele>233.26</ele>
        <time>2017-03-26T08:20:39Z</time>
      </trkpt>
      <trkpt lat="45.33816" lon="5.12839">
        <ele>233.27</ele>
        <time>2017-03-26T08:20:40Z</time>
      </trkpt>
      <trkpt lat="45.3383" lon="5.12814">
        <ele>233.35</ele>
        <time>2017-03-26T08:20:41Z</time>
      </trkpt>
      <trkpt lat="45.33844" lon="5.12789">
        <ele>233.36</ele>
        <time>2017-03-26T08:20:42Z</time>
      </trkpt>
      <trkpt lat="45.33857" lon="5.12762">
        <ele>233.37</ele>
        <time>2017-03-26T08:20:43Z</time>
      </trkpt>
      <trkpt lat="45.33871" lon="5.12735">
        <ele>233.37</ele>
        <time>2017-03-26T08:20:44Z</time>
      </trkpt>
      <trkpt lat="45.33885" lon="5.12707">
        <ele>233.45</ele>
        <time>2017-03-26T08:20:45Z</time>
      </trkpt>
      <trkpt lat="45.33899" lon="5.1268">
        <ele>233.46</ele>
        <time>2017-03-26T08:20:46Z</time>
      </trkpt>
      <trkpt lat="45.33914" lon="5.12654">
        <ele>233.47</ele>
        <time>2017-03-26T08:20:47Z</time>
      </trkpt>
      <trkpt lat="45.3393" lon="5.12627">
        <ele>233.47</ele>
        <time>2017-03-26T08:20:48Z</time>
      </trkpt>
      <trkpt lat="45.33945" lon="5.12601">
        <ele>233.47</ele>
        <time>2017-03-26T08:20:49Z</time>
      </trkpt>
      <trkpt lat="45.3396" lon="5.12574">
        <ele>233.39</ele>
        <time>2017-03-26T08:20:50Z</time>
      </trkpt>
      <trkpt lat="45.33975" lon="5.12548">
        <ele>233.37</ele>
        <time>2017-03-26T08:20:51Z</time>
      </trkpt>
      <trkpt lat="45.3399" lon="5.12522">
        <ele>233.53</ele>
        <time>2017-03-26T08:20:52Z</time>
      </trkpt>
      <trkpt lat="45.34005" lon="5.12496">
        <ele>233.8</ele>
        <time>2017-03-26T08:20:53Z</time>
      </trkpt>
      <trkpt lat="45.34019" lon="5.12471">
        <ele>233.93</ele>
        <time>2017-03-26T08:20:54Z</time>
      </trkpt>
      <trkpt lat="45.34033" lon="5.12446">
        <ele>234.12</ele>
        <time>2017-03-26T08:20:55Z</time>
      </trkpt>
      <trkpt lat="45.34047" lon="5.12421">
        <ele>234.4</ele>
        <time>2017-03-26T08:20:56Z</time>
      </trkpt>
      <trkpt lat="45.3406" lon="5.12396">
        <ele>234.69</ele>
        <time>2017-03-26T08:20:57Z</time>
      </trkpt>
      <trkpt lat="45.34072" lon="5.12371">
        <ele>234.99</ele>
        <time>2017-03-26T08:20:58Z</time>
      </trkpt>
      <trkpt lat="45.34084" lon="5.12344">
        <ele>235.29</ele>
        <time>2017-03-26T08:20:59Z</time>
      </trkpt>
      <trkpt lat="45.34095" lon="5.12316">
        <ele>235.43</ele>
        <time>2017-03-26T08:21:00Z</time>
      </trkpt>
      <trkpt lat="45.34105" lon="5.12287">
        <ele>235.38</ele>
        <time>2017-03-26T08:21:01Z</time>
      </trkpt>
      <trkpt lat="45.34115" lon="5.12258">
        <ele>234.97</ele>
        <time>2017-03-26T08:21:02Z</time>
      </trkpt>
      <trkpt lat="45.34123" lon="5.12228">
        <ele>234.57</ele>
        <time>2017-03-26T08:21:03Z</time>
      </trkpt>
      <trkpt lat="45.34132" lon="5.12198">
        <ele>234.25</ele>
        <time>2017-03-26T08:21:04Z</time>
      </trkpt>
      <trkpt lat="45.34141" lon="5.12168">
        <ele>233.94</ele>
        <time>2017-03-26T08:21:05Z</time>
      </trkpt>
      <trkpt lat="45.34149" lon="5.12138">
        <ele>233.64</ele>
        <time>2017-03-26T08:21:06Z</time>
      </trkpt>
      <trkpt lat="45.34158" lon="5.12108">
        <ele>233.34</ele>
        <time>2017-03-26T08:21:07Z</time>
      </trkpt>
      <trkpt lat="45.34167" lon="5.12077">
        <ele>233.04</ele>
        <time>2017-03-26T08:21:08Z</time>
      </trkpt>
      <trkpt lat="45.34177" lon="5.12046">
        <ele>232.82</ele>
        <time>2017-03-26T08:21:09Z</time>
      </trkpt>
      <trkpt lat="45.34185" lon="5.12016">
        <ele>232.7</ele>
        <time>2017-03-26T08:21:10Z</time>
      </trkpt>
      <trkpt lat="45.34194" lon="5.11985">
        <ele>232.67</ele>
        <time>2017-03-26T08:21:11Z</time>
      </trkpt>
      <trkpt lat="45.34203" lon="5.11955">
        <ele>232.67</ele>
        <time>2017-03-26T08:21:12Z</time>
      </trkpt>
      <trkpt lat="45.34212" lon="5.11925">
        <ele>232.59</ele>
        <time>2017-03-26T08:21:13Z</time>
      </trkpt>
      <trkpt lat="45.34222" lon="5.11897">
        <ele>232.49</ele>
        <time>2017-03-26T08:21:14Z</time>
      </trkpt>
      <trkpt lat="45.34233" lon="5.11869">
        <ele>232.31</ele>
        <time>2017-03-26T08:21:15Z</time>
      </trkpt>
      <trkpt lat="45.34245" lon="5.11842">
        <ele>232.12</ele>
        <time>2017-03-26T08:21:16Z</time>
      </trkpt>
      <trkpt lat="45.34257" lon="5.11815">
        <ele>231.92</ele>
        <time>2017-03-26T08:21:17Z</time>
      </trkpt>
      <trkpt lat="45.3427" lon="5.11788">
        <ele>231.96</ele>
        <time>2017-03-26T08:21:18Z</time>
      </trkpt>
      <trkpt lat="45.34282" lon="5.11762">
        <ele>231.96</ele>
        <time>2017-03-26T08:21:19Z</time>
      </trkpt>
      <trkpt lat="45.34295" lon="5.11735">
        <ele>231.73</ele>
        <time>2017-03-26T08:21:20Z</time>
      </trkpt>
      <trkpt lat="45.34307" lon="5.11708">
        <ele>231.52</ele>
        <time>2017-03-26T08:21:21Z</time>
      </trkpt>
      <trkpt lat="45.3432" lon="5.11681">
        <ele>231.08</ele>
        <time>2017-03-26T08:21:22Z</time>
      </trkpt>
      <trkpt lat="45.34331" lon="5.11653">
        <ele>230.75</ele>
        <time>2017-03-26T08:21:23Z</time>
      </trkpt>
      <trkpt lat="45.34341" lon="5.11624">
        <ele>230.44</ele>
        <time>2017-03-26T08:21:24Z</time>
      </trkpt>
      <trkpt lat="45.34349" lon="5.11594">
        <ele>230.22</ele>
        <time>2017-03-26T08:21:25Z</time>
      </trkpt>
      <trkpt lat="45.34357" lon="5.11564">
        <ele>230.02</ele>
        <time>2017-03-26T08:21:26Z</time>
      </trkpt>
      <trkpt lat="45.34364" lon="5.11533">
        <ele>229.82</ele>
        <time>2017-03-26T08:21:27Z</time>
      </trkpt>
      <trkpt lat="45.34372" lon="5.11503">
        <ele>229.62</ele>
        <time>2017-03-26T08:21:28Z</time>
      </trkpt>
      <trkpt lat="45.34382" lon="5.11474">
        <ele>229.42</ele>
        <time>2017-03-26T08:21:29Z</time>
      </trkpt>
      <trkpt lat="45.34394" lon="5.11447">
        <ele>229.38</ele>
        <time>2017-03-26T08:21:30Z</time>
      </trkpt>
      <trkpt lat="45.34408" lon="5.11421">
        <ele>229.45</ele>
        <time>2017-03-26T08:21:31Z</time>
      </trkpt>
      <trkpt lat="45.34422" lon="5.11396">
        <ele>229.3</ele>
        <time>2017-03-26T08:21:32Z</time>
      </trkpt>
      <trkpt lat="45.34436" lon="5.11371">
        <ele>228.87</ele>
        <time>2017-03-26T08:21:33Z</time>
      </trkpt>
      <trkpt lat="45.34449" lon="5.11347">
        <ele>228.47</ele>
        <time>2017-03-26T08:21:34Z</time>
      </trkpt>
      <trkpt lat="45.34461" lon="5.11321">
        <ele>228.23</ele>
        <time>2017-03-26T08:21:35Z</time>
      </trkpt>
      <trkpt lat="45.34472" lon="5.11296">
        <ele>227.7</ele>
        <time>2017-03-26T08:21:36Z</time>
      </trkpt>
      <trkpt lat="45.34483" lon="5.11269">
        <ele>227.35</ele>
        <time>2017-03-26T08:21:37Z</time>
      </trkpt>
      <trkpt lat="45.34492" lon="5.11242">
        <ele>226.96</ele>
        <time>2017-03-26T08:21:38Z</time>
      </trkpt>
      <trkpt lat="45.34501" lon="5.11214">
        <ele>226.49</ele>
        <time>2017-03-26T08:21:39Z</time>
      </trkpt>
      <trkpt lat="45.34509" lon="5.11186">
        <ele>226.07</ele>
        <time>2017-03-26T08:21:40Z</time>
      </trkpt>
      <trkpt lat="45.34518" lon="5.11159">
        <ele>225.59</ele>
        <time>2017-03-26T08:21:41Z</time>
      </trkpt>
      <trkpt lat="45.34527" lon="5.11132">
        <ele>225.09</ele>
        <time>2017-03-26T08:21:42Z</time>
      </trkpt>
      <trkpt lat="45.34535" lon="5.11104">
        <ele>224.67</ele>
        <time>2017-03-26T08:21:43Z</time>
      </trkpt>
      <trkpt lat="45.34543" lon="5.11077">
        <ele>224.43</ele>
        <time>2017-03-26T08:21:44Z</time>
      </trkpt>
      <trkpt lat="45.34552" lon="5.1105">
        <ele>224.22</ele>
        <time>2017-03-26T08:21:45Z</time>
      </trkpt>
      <trkpt lat="45.3456" lon="5.11023">
        <ele>223.86</ele>
        <time>2017-03-26T08:21:46Z</time>
      </trkpt>
      <trkpt lat="45.34569" lon="5.10996">
        <ele>223.63</ele>
        <time>2017-03-26T08:21:47Z</time>
      </trkpt>
      <trkpt lat="45.34577" lon="5.10969">
        <ele>223.34</ele>
        <time>2017-03-26T08:21:48Z</time>
      </trkpt>
      <trkpt lat="45.34586" lon="5.10942">
        <ele>223.2</ele>
        <time>2017-03-26T08:21:49Z</time>
      </trkpt>
      <trkpt lat="45.34594" lon="5.10916">
        <ele>223.09</ele>
        <time>2017-03-26T08:21:50Z</time>
      </trkpt>
      <trkpt lat="45.34603" lon="5.10889">
        <ele>223.15</ele>
        <time>2017-03-26T08:21:51Z</time>
      </trkpt>
      <trkpt lat="45.34611" lon="5.10862">
        <ele>223.16</ele>
        <time>2017-03-26T08:21:52Z</time>
      </trkpt>
      <trkpt lat="45.34619" lon="5.10836">
        <ele>223.49</ele>
        <time>2017-03-26T08:21:53Z</time>
      </trkpt>
      <trkpt lat="45.34627" lon="5.1081">
        <ele>223.71</ele>
        <time>2017-03-26T08:21:54Z</time>
      </trkpt>
      <trkpt lat="45.34635" lon="5.10783">
        <ele>223.76</ele>
        <time>2017-03-26T08:21:55Z</time>
      </trkpt>
      <trkpt lat="45.34643" lon="5.10759">
        <ele>223.52</ele>
        <time>2017-03-26T08:21:56Z</time>
      </trkpt>
      <trkpt lat="45.34651" lon="5.10735">
        <ele>223.32</ele>
        <time>2017-03-26T08:21:57Z</time>
      </trkpt>
      <trkpt lat="45.34658" lon="5.10713">
        <ele>223.12</ele>
        <time>2017-03-26T08:21:58Z</time>
      </trkpt>
      <trkpt lat="45.34664" lon="5.10691">
        <ele>222.92</ele>
        <time>2017-03-26T08:21:59Z</time>
      </trkpt>
      <trkpt lat="45.34671" lon="5.1067">
        <ele>222.8</ele>
        <time>2017-03-26T08:22:00Z</time>
      </trkpt>
      <trkpt lat="45.34678" lon="5.10649">
        <ele>222.69</ele>
        <time>2017-03-26T08:22:01Z</time>
      </trkpt>
      <trkpt lat="45.34684" lon="5.10627">
        <ele>222.59</ele>
        <time>2017-03-26T08:22:02Z</time>
      </trkpt>
      <trkpt lat="45.34691" lon="5.10607">
        <ele>222.49</ele>
        <time>2017-03-26T08:22:03Z</time>
      </trkpt>
      <trkpt lat="45.34697" lon="5.10586">
        <ele>222.47</ele>
        <time>2017-03-26T08:22:04Z</time>
      </trkpt>
      <trkpt lat="45.34704" lon="5.10566">
        <ele>222.47</ele>
        <time>2017-03-26T08:22:05Z</time>
      </trkpt>
      <trkpt lat="45.3471" lon="5.10545">
        <ele>222.55</ele>
        <time>2017-03-26T08:22:06Z</time>
      </trkpt>
      <trkpt lat="45.34717" lon="5.10525">
        <ele>222.4</ele>
        <time>2017-03-26T08:22:07Z</time>
      </trkpt>
      <trkpt lat="45.34723" lon="5.10504">
        <ele>222.37</ele>
        <time>2017-03-26T08:22:08Z</time>
      </trkpt>
      <trkpt lat="45.3473" lon="5.10483">
        <ele>222.37</ele>
        <time>2017-03-26T08:22:09Z</time>
      </trkpt>
      <trkpt lat="45.34736" lon="5.10462">
        <ele>222.21</ele>
        <time>2017-03-26T08:22:10Z</time>
      </trkpt>
      <trkpt lat="45.34742" lon="5.1044">
        <ele>222.1</ele>
        <time>2017-03-26T08:22:11Z</time>
      </trkpt>
      <trkpt lat="45.34748" lon="5.10418">
        <ele>221.99</ele>
        <time>2017-03-26T08:22:12Z</time>
      </trkpt>
      <trkpt lat="45.34753" lon="5.10395">
        <ele>221.97</ele>
        <time>2017-03-26T08:22:13Z</time>
      </trkpt>
      <trkpt lat="45.34758" lon="5.10371">
        <ele>222.13</ele>
        <time>2017-03-26T08:22:14Z</time>
      </trkpt>
      <trkpt lat="45.34762" lon="5.10348">
        <ele>222.48</ele>
        <time>2017-03-26T08:22:15Z</time>
      </trkpt>
      <trkpt lat="45.34765" lon="5.10325">
        <ele>222.71</ele>
        <time>2017-03-26T08:22:16Z</time>
      </trkpt>
      <trkpt lat="45.34767" lon="5.10303">
        <ele>223.24</ele>
        <time>2017-03-26T08:22:17Z</time>
      </trkpt>
      <trkpt lat="45.34768" lon="5.10282">
        <ele>223.82</ele>
        <time>2017-03-26T08:22:18Z</time>
      </trkpt>
      <trkpt lat="45.3477" lon="5.10261">
        <ele>224.42</ele>
        <time>2017-03-26T08:22:19Z</time>
      </trkpt>
      <trkpt lat="45.3477" lon="5.1024">
        <ele>224.86</ele>
        <time>2017-03-26T08:22:20Z</time>
      </trkpt>
      <trkpt lat="45.34771" lon="5.10219">
        <ele>224.95</ele>
        <time>2017-03-26T08:22:21Z</time>
      </trkpt>
      <trkpt lat="45.34771" lon="5.10198">
        <ele>225.04</ele>
        <time>2017-03-26T08:22:22Z</time>
      </trkpt>
      <trkpt lat="45.34771" lon="5.10176">
        <ele>225.14</ele>
        <time>2017-03-26T08:22:23Z</time>
      </trkpt>
      <trkpt lat="45.34771" lon="5.10154">
        <ele>225.08</ele>
        <time>2017-03-26T08:22:24Z</time>
      </trkpt>
      <trkpt lat="45.34771" lon="5.10133">
        <ele>224.99</ele>
        <time>2017-03-26T08:22:25Z</time>
      </trkpt>
      <trkpt lat="45.34771" lon="5.10111">
        <ele>224.81</ele>
        <time>2017-03-26T08:22:26Z</time>
      </trkpt>
      <trkpt lat="45.34771" lon="5.10089">
        <ele>224.54</ele>
        <time>2017-03-26T08:22:27Z</time>
      </trkpt>
      <trkpt lat="45.34772" lon="5.10066">
        <ele>224.4</ele>
        <time>2017-03-26T08:22:28Z</time>
      </trkpt>
      <trkpt lat="45.34773" lon="5.10043">
        <ele>224.05</ele>
        <time>2017-03-26T08:22:29Z</time>
      </trkpt>
      <trkpt lat="45.34773" lon="5.10019">
        <ele>223.26</ele>
        <time>2017-03-26T08:22:30Z</time>
      </trkpt>
      <trkpt lat="45.34773" lon="5.09996">
        <ele>222.31</ele>
        <time>2017-03-26T08:22:31Z</time>
      </trkpt>
      <trkpt lat="45.34773" lon="5.09972">
        <ele>221.39</ele>
        <time>2017-03-26T08:22:32Z</time>
      </trkpt>
      <trkpt lat="45.34772" lon="5.09948">
        <ele>220.73</ele>
        <time>2017-03-26T08:22:33Z</time>
      </trkpt>
      <trkpt lat="45.34772" lon="5.09924">
        <ele>220.36</ele>
        <time>2017-03-26T08:22:34Z</time>
      </trkpt>
      <trkpt lat="45.34772" lon="5.099">
        <ele>220.21</ele>
        <time>2017-03-26T08:22:35Z</time>
      </trkpt>
      <trkpt lat="45.34773" lon="5.09876">
        <ele>220.09</ele>
        <time>2017-03-26T08:22:36Z</time>
      </trkpt>
      <trkpt lat="45.34774" lon="5.09852">
        <ele>219.99</ele>
        <time>2017-03-26T08:22:37Z</time>
      </trkpt>
      <trkpt lat="45.34776" lon="5.09828">
        <ele>219.73</ele>
        <time>2017-03-26T08:22:38Z</time>
      </trkpt>
      <trkpt lat="45.34778" lon="5.09804">
        <ele>219.44</ele>
        <time>2017-03-26T08:22:39Z</time>
      </trkpt>
      <trkpt lat="45.34779" lon="5.0978">
        <ele>219.38</ele>
        <time>2017-03-26T08:22:40Z</time>
      </trkpt>
      <trkpt lat="45.34781" lon="5.09758">
        <ele>219.53</ele>
        <time>2017-03-26T08:22:41Z</time>
      </trkpt>
      <trkpt lat="45.34783" lon="5.09736">
        <ele>219.72</ele>
        <time>2017-03-26T08:22:42Z</time>
      </trkpt>
      <trkpt lat="45.34785" lon="5.09714">
        <ele>219.92</ele>
        <time>2017-03-26T08:22:43Z</time>
      </trkpt>
      <trkpt lat="45.34787" lon="5.09692">
        <ele>220.04</ele>
        <time>2017-03-26T08:22:44Z</time>
      </trkpt>
      <trkpt lat="45.34789" lon="5.0967">
        <ele>220.14</ele>
        <time>2017-03-26T08:22:45Z</time>
      </trkpt>
      <trkpt lat="45.3479" lon="5.0965">
        <ele>220.48</ele>
        <time>2017-03-26T08:22:46Z</time>
      </trkpt>
      <trkpt lat="45.34791" lon="5.09629">
        <ele>221.11</ele>
        <time>2017-03-26T08:22:47Z</time>
      </trkpt>
      <trkpt lat="45.34793" lon="5.09609">
        <ele>221.88</ele>
        <time>2017-03-26T08:22:48Z</time>
      </trkpt>
      <trkpt lat="45.34794" lon="5.09589">
        <ele>222.67</ele>
        <time>2017-03-26T08:22:49Z</time>
      </trkpt>
      <trkpt lat="45.34795" lon="5.09569">
        <ele>223.23</ele>
        <time>2017-03-26T08:22:50Z</time>
      </trkpt>
      <trkpt lat="45.34796" lon="5.09549">
        <ele>223.34</ele>
        <time>2017-03-26T08:22:51Z</time>
      </trkpt>
      <trkpt lat="45.34797" lon="5.09529">
        <ele>223.2</ele>
        <time>2017-03-26T08:22:52Z</time>
      </trkpt>
      <trkpt lat="45.34798" lon="5.09508">
        <ele>223.41</ele>
        <time>2017-03-26T08:22:53Z</time>
      </trkpt>
      <trkpt lat="45.34798" lon="5.09488">
        <ele>223.54</ele>
        <time>2017-03-26T08:22:54Z</time>
      </trkpt>
      <trkpt lat="45.34797" lon="5.09467">
        <ele>223.16</ele>
        <time>2017-03-26T08:22:55Z</time>
      </trkpt>
      <trkpt lat="45.34797" lon="5.09446">
        <ele>222.21</ele>
        <time>2017-03-26T08:22:56Z</time>
      </trkpt>
      <trkpt lat="45.34795" lon="5.09424">
        <ele>221.77</ele>
        <time>2017-03-26T08:22:57Z</time>
      </trkpt>
      <trkpt lat="45.34792" lon="5.09402">
        <ele>221.45</ele>
        <time>2017-03-26T08:22:58Z</time>
      </trkpt>
      <trkpt lat="45.34789" lon="5.09381">
        <ele>221.14</ele>
        <time>2017-03-26T08:22:59Z</time>
      </trkpt>
      <trkpt lat="45.34786" lon="5.09359">
        <ele>220.84</ele>
        <time>2017-03-26T08:23:00Z</time>
      </trkpt>
      <trkpt lat="45.34783" lon="5.09338">
        <ele>220.38</ele>
        <time>2017-03-26T08:23:01Z</time>
      </trkpt>
      <trkpt lat="45.34779" lon="5.09317">
        <ele>220.21</ele>
        <time>2017-03-26T08:23:02Z</time>
      </trkpt>
      <trkpt lat="45.34775" lon="5.09296">
        <ele>220.1</ele>
        <time>2017-03-26T08:23:03Z</time>
      </trkpt>
      <trkpt lat="45.34771" lon="5.09275">
        <ele>220.07</ele>
        <time>2017-03-26T08:23:04Z</time>
      </trkpt>
      <trkpt lat="45.34766" lon="5.09254">
        <ele>219.99</ele>
        <time>2017-03-26T08:23:05Z</time>
      </trkpt>
      <trkpt lat="45.34762" lon="5.09234">
        <ele>219.89</ele>
        <time>2017-03-26T08:23:06Z</time>
      </trkpt>
      <trkpt lat="45.34757" lon="5.09214">
        <ele>219.71</ele>
        <time>2017-03-26T08:23:07Z</time>
      </trkpt>
      <trkpt lat="45.34753" lon="5.09195">
        <ele>219.6</ele>
        <time>2017-03-26T08:23:08Z</time>
      </trkpt>
      <trkpt lat="45.34749" lon="5.09176">
        <ele>219.33</ele>
        <time>2017-03-26T08:23:09Z</time>
      </trkpt>
      <trkpt lat="45.34745" lon="5.09157">
        <ele>218.96</ele>
        <time>2017-03-26T08:23:10Z</time>
      </trkpt>
      <trkpt lat="45.34742" lon="5.09139">
        <ele>218.65</ele>
        <time>2017-03-26T08:23:11Z</time>
      </trkpt>
      <trkpt lat="45.3474" lon="5.0912">
        <ele>218.1</ele>
        <time>2017-03-26T08:23:12Z</time>
      </trkpt>
      <trkpt lat="45.34738" lon="5.09102">
        <ele>217.59</ele>
        <time>2017-03-26T08:23:13Z</time>
      </trkpt>
      <trkpt lat="45.34735" lon="5.09083">
        <ele>217.25</ele>
        <time>2017-03-26T08:23:14Z</time>
      </trkpt>
      <trkpt lat="45.34732" lon="5.09062">
        <ele>217.1</ele>
        <time>2017-03-26T08:23:15Z</time>
      </trkpt>
      <trkpt lat="45.34729" lon="5.0904">
        <ele>216.75</ele>
        <time>2017-03-26T08:23:16Z</time>
      </trkpt>
      <trkpt lat="45.34727" lon="5.09016">
        <ele>216.12</ele>
        <time>2017-03-26T08:23:17Z</time>
      </trkpt>
      <trkpt lat="45.34724" lon="5.0899">
        <ele>215.6</ele>
        <time>2017-03-26T08:23:18Z</time>
      </trkpt>
      <trkpt lat="45.34722" lon="5.08964">
        <ele>215.49</ele>
        <time>2017-03-26T08:23:19Z</time>
      </trkpt>
      <trkpt lat="45.3472" lon="5.08939">
        <ele>215.47</ele>
        <time>2017-03-26T08:23:20Z</time>
      </trkpt>
      <trkpt lat="45.34718" lon="5.08916">
        <ele>215.55</ele>
        <time>2017-03-26T08:23:21Z</time>
      </trkpt>
      <trkpt lat="45.34717" lon="5.08894">
        <ele>215.88</ele>
        <time>2017-03-26T08:23:22Z</time>
      </trkpt>
      <trkpt lat="45.34716" lon="5.08872">
        <ele>216.19</ele>
        <time>2017-03-26T08:23:23Z</time>
      </trkpt>
      <trkpt lat="45.34716" lon="5.08852">
        <ele>216.41</ele>
        <time>2017-03-26T08:23:24Z</time>
      </trkpt>
      <trkpt lat="45.34716" lon="5.08834">
        <ele>216.78</ele>
        <time>2017-03-26T08:23:25Z</time>
      </trkpt>
      <trkpt lat="45.34716" lon="5.08817">
        <ele>216.93</ele>
        <time>2017-03-26T08:23:26Z</time>
      </trkpt>
      <trkpt lat="45.34716" lon="5.08803">
        <ele>217.12</ele>
        <time>2017-03-26T08:23:27Z</time>
      </trkpt>
      <trkpt lat="45.34716" lon="5.08791">
        <ele>217.4</ele>
        <time>2017-03-26T08:23:28Z</time>
      </trkpt>
      <trkpt lat="45.34716" lon="5.08781">
        <ele>217.85</ele>
        <time>2017-03-26T08:23:29Z</time>
      </trkpt>
      <trkpt lat="45.34715" lon="5.08773">
        <ele>218.02</ele>
        <time>2017-03-26T08:23:30Z</time>
      </trkpt>
      <trkpt lat="45.34715" lon="5.08766">
        <ele>217.9</ele>
        <time>2017-03-26T08:23:31Z</time>
      </trkpt>
      <trkpt lat="45.34715" lon="5.08759">
        <ele>217.87</ele>
        <time>2017-03-26T08:23:32Z</time>
      </trkpt>
      <trkpt lat="45.34716" lon="5.08751">
        <ele>217.95</ele>
        <time>2017-03-26T08:23:33Z</time>
      </trkpt>
      <trkpt lat="45.34716" lon="5.08741">
        <ele>217.96</ele>
        <time>2017-03-26T08:23:34Z</time>
      </trkpt>
      <trkpt lat="45.34717" lon="5.08728">
        <ele>217.81</ele>
        <time>2017-03-26T08:23:35Z</time>
      </trkpt>
      <trkpt lat="45.34718" lon="5.08711">
        <ele>217.61</ele>
        <time>2017-03-26T08:23:36Z</time>
      </trkpt>
      <trkpt lat="45.34718" lon="5.08693">
        <ele>217.58</ele>
        <time>2017-03-26T08:23:37Z</time>
      </trkpt>
      <trkpt lat="45.34716" lon="5.08674">
        <ele>217.73</ele>
        <time>2017-03-26T08:23:38Z</time>
      </trkpt>
      <trkpt lat="45.34714" lon="5.08654">
        <ele>217.84</ele>
        <time>2017-03-26T08:23:39Z</time>
      </trkpt>
      <trkpt lat="45.34712" lon="5.08635">
        <ele>217.94</ele>
        <time>2017-03-26T08:23:40Z</time>
      </trkpt>
      <trkpt lat="45.34708" lon="5.08615">
        <ele>218.28</ele>
        <time>2017-03-26T08:23:41Z</time>
      </trkpt>
      <trkpt lat="45.34704" lon="5.08595">
        <ele>218.51</ele>
        <time>2017-03-26T08:23:42Z</time>
      </trkpt>
      <trkpt lat="45.34701" lon="5.08576">
        <ele>218.4</ele>
        <time>2017-03-26T08:23:43Z</time>
      </trkpt>
      <trkpt lat="45.34697" lon="5.08557">
        <ele>218.37</ele>
        <time>2017-03-26T08:23:44Z</time>
      </trkpt>
      <trkpt lat="45.34694" lon="5.08537">
        <ele>218.69</ele>
        <time>2017-03-26T08:23:45Z</time>
      </trkpt>
      <trkpt lat="45.3469" lon="5.08519">
        <ele>218.83</ele>
        <time>2017-03-26T08:23:46Z</time>
      </trkpt>
      <trkpt lat="45.34687" lon="5.085">
        <ele>218.62</ele>
        <time>2017-03-26T08:23:47Z</time>
      </trkpt>
      <trkpt lat="45.34684" lon="5.08481">
        <ele>218.74</ele>
        <time>2017-03-26T08:23:48Z</time>
      </trkpt>
      <trkpt lat="45.3468" lon="5.08462">
        <ele>218.76</ele>
        <time>2017-03-26T08:23:49Z</time>
      </trkpt>
      <trkpt lat="45.34677" lon="5.08443">
        <ele>218.69</ele>
        <time>2017-03-26T08:23:50Z</time>
      </trkpt>
      <trkpt lat="45.34672" lon="5.08424">
        <ele>218.67</ele>
        <time>2017-03-26T08:23:51Z</time>
      </trkpt>
      <trkpt lat="45.34665" lon="5.08406">
        <ele>218.67</ele>
        <time>2017-03-26T08:23:52Z</time>
      </trkpt>
      <trkpt lat="45.34659" lon="5.08388">
        <ele>218.59</ele>
        <time>2017-03-26T08:23:53Z</time>
      </trkpt>
      <trkpt lat="45.34653" lon="5.08369">
        <ele>218.49</ele>
        <time>2017-03-26T08:23:54Z</time>
      </trkpt>
      <trkpt lat="45.34649" lon="5.0835">
        <ele>218.47</ele>
        <time>2017-03-26T08:23:55Z</time>
      </trkpt>
      <trkpt lat="45.34645" lon="5.08331">
        <ele>218.39</ele>
        <time>2017-03-26T08:23:56Z</time>
      </trkpt>
      <trkpt lat="45.34641" lon="5.08312">
        <ele>218.21</ele>
        <time>2017-03-26T08:23:57Z</time>
      </trkpt>
      <trkpt lat="45.34638" lon="5.08294">
        <ele>218.02</ele>
        <time>2017-03-26T08:23:58Z</time>
      </trkpt>
      <trkpt lat="45.34635" lon="5.08276">
        <ele>217.82</ele>
        <time>2017-03-26T08:23:59Z</time>
      </trkpt>
      <trkpt lat="45.34634" lon="5.08259">
        <ele>217.62</ele>
        <time>2017-03-26T08:24:00Z</time>
      </trkpt>
      <trkpt lat="45.34633" lon="5.08243">
        <ele>217.42</ele>
        <time>2017-03-26T08:24:01Z</time>
      </trkpt>
      <trkpt lat="45.34633" lon="5.08226">
        <ele>217.22</ele>
        <time>2017-03-26T08:24:02Z</time>
      </trkpt>
      <trkpt lat="45.34634" lon="5.08209">
        <ele>217.02</ele>
        <time>2017-03-26T08:24:03Z</time>
      </trkpt>
      <trkpt lat="45.34634" lon="5.08192">
        <ele>216.82</ele>
        <time>2017-03-26T08:24:04Z</time>
      </trkpt>
      <trkpt lat="45.34634" lon="5.08174">
        <ele>216.54</ele>
        <time>2017-03-26T08:24:05Z</time>
      </trkpt>
      <trkpt lat="45.34634" lon="5.08156">
        <ele>216.48</ele>
        <time>2017-03-26T08:24:06Z</time>
      </trkpt>
      <trkpt lat="45.34636" lon="5.08138">
        <ele>216.31</ele>
        <time>2017-03-26T08:24:07Z</time>
      </trkpt>
      <trkpt lat="45.34638" lon="5.0812">
        <ele>216.28</ele>
        <time>2017-03-26T08:24:08Z</time>
      </trkpt>
      <trkpt lat="45.3464" lon="5.08102">
        <ele>216.11</ele>
        <time>2017-03-26T08:24:09Z</time>
      </trkpt>
      <trkpt lat="45.34643" lon="5.08084">
        <ele>216.24</ele>
        <time>2017-03-26T08:24:10Z</time>
      </trkpt>
      <trkpt lat="45.34644" lon="5.08067">
        <ele>216.34</ele>
        <time>2017-03-26T08:24:11Z</time>
      </trkpt>
      <trkpt lat="45.34646" lon="5.0805">
        <ele>216.44</ele>
        <time>2017-03-26T08:24:12Z</time>
      </trkpt>
      <trkpt lat="45.34646" lon="5.08033">
        <ele>216.46</ele>
        <time>2017-03-26T08:24:13Z</time>
      </trkpt>
      <trkpt lat="45.34646" lon="5.08015">
        <ele>216.39</ele>
        <time>2017-03-26T08:24:14Z</time>
      </trkpt>
      <trkpt lat="45.34644" lon="5.07996">
        <ele>215.89</ele>
        <time>2017-03-26T08:24:15Z</time>
      </trkpt>
      <trkpt lat="45.34642" lon="5.07977">
        <ele>215.63</ele>
        <time>2017-03-26T08:24:16Z</time>
      </trkpt>
      <trkpt lat="45.3464" lon="5.07957">
        <ele>215.34</ele>
        <time>2017-03-26T08:24:17Z</time>
      </trkpt>
      <trkpt lat="45.34638" lon="5.07938">
        <ele>214.88</ele>
        <time>2017-03-26T08:24:18Z</time>
      </trkpt>
      <trkpt lat="45.34636" lon="5.07918">
        <ele>214.47</ele>
        <time>2017-03-26T08:24:19Z</time>
      </trkpt>
      <trkpt lat="45.34633" lon="5.07899">
        <ele>214.15</ele>
        <time>2017-03-26T08:24:20Z</time>
      </trkpt>
      <trkpt lat="45.34631" lon="5.07879">
        <ele>213.76</ele>
        <time>2017-03-26T08:24:21Z</time>
      </trkpt>
      <trkpt lat="45.34628" lon="5.0786">
        <ele>213.61</ele>
        <time>2017-03-26T08:24:22Z</time>
      </trkpt>
      <trkpt lat="45.34626" lon="5.07841">
        <ele>213.57</ele>
        <time>2017-03-26T08:24:23Z</time>
      </trkpt>
      <trkpt lat="45.34622" lon="5.07823">
        <ele>213.57</ele>
        <time>2017-03-26T08:24:24Z</time>
      </trkpt>
      <trkpt lat="45.34619" lon="5.07805">
        <ele>213.57</ele>
        <time>2017-03-26T08:24:25Z</time>
      </trkpt>
      <trkpt lat="45.34615" lon="5.07789">
        <ele>213.57</ele>
        <time>2017-03-26T08:24:26Z</time>
      </trkpt>
      <trkpt lat="45.34613" lon="5.07772">
        <ele>213.25</ele>
        <time>2017-03-26T08:24:27Z</time>
      </trkpt>
      <trkpt lat="45.34611" lon="5.07755">
        <ele>212.78</ele>
        <time>2017-03-26T08:24:28Z</time>
      </trkpt>
      <trkpt lat="45.34609" lon="5.07736">
        <ele>212.29</ele>
        <time>2017-03-26T08:24:29Z</time>
      </trkpt>
      <trkpt lat="45.34606" lon="5.07717">
        <ele>211.79</ele>
        <time>2017-03-26T08:24:30Z</time>
      </trkpt>
      <trkpt lat="45.34603" lon="5.07698">
        <ele>211.53</ele>
        <time>2017-03-26T08:24:31Z</time>
      </trkpt>
      <trkpt lat="45.34598" lon="5.07678">
        <ele>211.4</ele>
        <time>2017-03-26T08:24:32Z</time>
      </trkpt>
      <trkpt lat="45.34595" lon="5.07658">
        <ele>211.21</ele>
        <time>2017-03-26T08:24:33Z</time>
      </trkpt>
      <trkpt lat="45.34591" lon="5.07638">
        <ele>211.1</ele>
        <time>2017-03-26T08:24:34Z</time>
      </trkpt>
      <trkpt lat="45.34587" lon="5.07618">
        <ele>210.83</ele>
        <time>2017-03-26T08:24:35Z</time>
      </trkpt>
      <trkpt lat="45.34583" lon="5.07598">
        <ele>210.7</ele>
        <time>2017-03-26T08:24:36Z</time>
      </trkpt>
      <trkpt lat="45.34578" lon="5.07577">
        <ele>210.43</ele>
        <time>2017-03-26T08:24:37Z</time>
      </trkpt>
      <trkpt lat="45.34574" lon="5.07557">
        <ele>210.22</ele>
        <time>2017-03-26T08:24:38Z</time>
      </trkpt>
      <trkpt lat="45.3457" lon="5.07537">
        <ele>209.86</ele>
        <time>2017-03-26T08:24:39Z</time>
      </trkpt>
      <trkpt lat="45.34566" lon="5.07517">
        <ele>209.47</ele>
        <time>2017-03-26T08:24:40Z</time>
      </trkpt>
      <trkpt lat="45.3456" lon="5.07497">
        <ele>209.07</ele>
        <time>2017-03-26T08:24:41Z</time>
      </trkpt>
      <trkpt lat="45.34556" lon="5.07477">
        <ele>208.91</ele>
        <time>2017-03-26T08:24:42Z</time>
      </trkpt>
      <trkpt lat="45.34551" lon="5.07457">
        <ele>208.87</ele>
        <time>2017-03-26T08:24:43Z</time>
      </trkpt>
      <trkpt lat="45.34546" lon="5.07436">
        <ele>208.95</ele>
        <time>2017-03-26T08:24:44Z</time>
      </trkpt>
      <trkpt lat="45.34541" lon="5.07416">
        <ele>209.04</ele>
        <time>2017-03-26T08:24:45Z</time>
      </trkpt>
      <trkpt lat="45.34536" lon="5.07397">
        <ele>208.98</ele>
        <time>2017-03-26T08:24:46Z</time>
      </trkpt>
      <trkpt lat="45.34531" lon="5.07377">
        <ele>209.05</ele>
        <time>2017-03-26T08:24:47Z</time>
      </trkpt>
      <trkpt lat="45.34525" lon="5.07358">
        <ele>208.98</ele>
        <time>2017-03-26T08:24:48Z</time>
      </trkpt>
      <trkpt lat="45.34519" lon="5.07339">
        <ele>209.05</ele>
        <time>2017-03-26T08:24:49Z</time>
      </trkpt>
      <trkpt lat="45.34512" lon="5.0732">
        <ele>209.22</ele>
        <time>2017-03-26T08:24:50Z</time>
      </trkpt>
      <trkpt lat="45.34504" lon="5.07301">
        <ele>209.42</ele>
        <time>2017-03-26T08:24:51Z</time>
      </trkpt>
      <trkpt lat="45.34497" lon="5.07283">
        <ele>209.38</ele>
        <time>2017-03-26T08:24:52Z</time>
      </trkpt>
      <trkpt lat="45.3449" lon="5.07264">
        <ele>209.29</ele>
        <time>2017-03-26T08:24:53Z</time>
      </trkpt>
      <trkpt lat="45.34482" lon="5.07246">
        <ele>209.19</ele>
        <time>2017-03-26T08:24:54Z</time>
      </trkpt>
      <trkpt lat="45.34475" lon="5.07227">
        <ele>209.17</ele>
        <time>2017-03-26T08:24:55Z</time>
      </trkpt>
      <trkpt lat="45.34468" lon="5.0721">
        <ele>208.93</ele>
        <time>2017-03-26T08:24:56Z</time>
      </trkpt>
      <trkpt lat="45.34461" lon="5.07191">
        <ele>208.88</ele>
        <time>2017-03-26T08:24:57Z</time>
      </trkpt>
      <trkpt lat="45.34453" lon="5.07173">
        <ele>208.71</ele>
        <time>2017-03-26T08:24:58Z</time>
      </trkpt>
      <trkpt lat="45.34446" lon="5.07155">
        <ele>208.44</ele>
        <time>2017-03-26T08:24:59Z</time>
      </trkpt>
      <trkpt lat="45.34439" lon="5.07138">
        <ele>208.38</ele>
        <time>2017-03-26T08:25:00Z</time>
      </trkpt>
      <trkpt lat="45.34433" lon="5.0712">
        <ele>208.05</ele>
        <time>2017-03-26T08:25:01Z</time>
      </trkpt>
      <trkpt lat="45.34426" lon="5.07102">
        <ele>207.74</ele>
        <time>2017-03-26T08:25:02Z</time>
      </trkpt>
      <trkpt lat="45.34419" lon="5.07084">
        <ele>207.44</ele>
        <time>2017-03-26T08:25:03Z</time>
      </trkpt>
      <trkpt lat="45.34412" lon="5.07066">
        <ele>207.14</ele>
        <time>2017-03-26T08:25:04Z</time>
      </trkpt>
      <trkpt lat="45.34404" lon="5.07048">
        <ele>207</ele>
        <time>2017-03-26T08:25:05Z</time>
      </trkpt>
      <trkpt lat="45.34397" lon="5.0703">
        <ele>206.81</ele>
        <time>2017-03-26T08:25:06Z</time>
      </trkpt>
      <trkpt lat="45.3439" lon="5.07012">
        <ele>206.38</ele>
        <time>2017-03-26T08:25:07Z</time>
      </trkpt>
      <trkpt lat="45.34383" lon="5.06993">
        <ele>206.05</ele>
        <time>2017-03-26T08:25:08Z</time>
      </trkpt>
      <trkpt lat="45.34375" lon="5.06975">
        <ele>205.82</ele>
        <time>2017-03-26T08:25:09Z</time>
      </trkpt>
      <trkpt lat="45.34369" lon="5.06956">
        <ele>205.62</ele>
        <time>2017-03-26T08:25:10Z</time>
      </trkpt>
      <trkpt lat="45.34361" lon="5.06937">
        <ele>205.58</ele>
        <time>2017-03-26T08:25:11Z</time>
      </trkpt>
      <trkpt lat="45.34354" lon="5.06918">
        <ele>205.57</ele>
        <time>2017-03-26T08:25:12Z</time>
      </trkpt>
      <trkpt lat="45.34347" lon="5.06898">
        <ele>205.81</ele>
        <time>2017-03-26T08:25:13Z</time>
      </trkpt>
      <trkpt lat="45.34339" lon="5.06879">
        <ele>205.78</ele>
        <time>2017-03-26T08:25:14Z</time>
      </trkpt>
      <trkpt lat="45.34332" lon="5.06859">
        <ele>206.01</ele>
        <time>2017-03-26T08:25:15Z</time>
      </trkpt>
      <trkpt lat="45.34324" lon="5.0684">
        <ele>205.98</ele>
        <time>2017-03-26T08:25:16Z</time>
      </trkpt>
      <trkpt lat="45.34316" lon="5.06821">
        <ele>206.05</ele>
        <time>2017-03-26T08:25:17Z</time>
      </trkpt>
      <trkpt lat="45.34309" lon="5.06801">
        <ele>205.9</ele>
        <time>2017-03-26T08:25:18Z</time>
      </trkpt>
      <trkpt lat="45.34302" lon="5.06782">
        <ele>205.55</ele>
        <time>2017-03-26T08:25:19Z</time>
      </trkpt>
      <trkpt lat="45.34295" lon="5.06764">
        <ele>204.92</ele>
        <time>2017-03-26T08:25:20Z</time>
      </trkpt>
      <trkpt lat="45.34287" lon="5.06745">
        <ele>204.56</ele>
        <time>2017-03-26T08:25:21Z</time>
      </trkpt>
      <trkpt lat="45.3428" lon="5.06727">
        <ele>204.01</ele>
        <time>2017-03-26T08:25:22Z</time>
      </trkpt>
      <trkpt lat="45.34273" lon="5.06708">
        <ele>203.73</ele>
        <time>2017-03-26T08:25:23Z</time>
      </trkpt>
      <trkpt lat="45.34266" lon="5.06689">
        <ele>203.84</ele>
        <time>2017-03-26T08:25:24Z</time>
      </trkpt>
      <trkpt lat="45.34258" lon="5.0667">
        <ele>203.62</ele>
        <time>2017-03-26T08:25:25Z</time>
      </trkpt>
      <trkpt lat="45.34251" lon="5.0665">
        <ele>203.42</ele>
        <time>2017-03-26T08:25:26Z</time>
      </trkpt>
      <trkpt lat="45.34244" lon="5.06631">
        <ele>203.14</ele>
        <time>2017-03-26T08:25:27Z</time>
      </trkpt>
      <trkpt lat="45.34237" lon="5.06612">
        <ele>203.08</ele>
        <time>2017-03-26T08:25:28Z</time>
      </trkpt>
      <trkpt lat="45.3423" lon="5.06594">
        <ele>202.91</ele>
        <time>2017-03-26T08:25:29Z</time>
      </trkpt>
      <trkpt lat="45.34223" lon="5.06575">
        <ele>202.56</ele>
        <time>2017-03-26T08:25:30Z</time>
      </trkpt>
      <trkpt lat="45.34215" lon="5.06556">
        <ele>202.48</ele>
        <time>2017-03-26T08:25:31Z</time>
      </trkpt>
      <trkpt lat="45.34208" lon="5.06537">
        <ele>202.23</ele>
        <time>2017-03-26T08:25:32Z</time>
      </trkpt>
      <trkpt lat="45.34201" lon="5.06518">
        <ele>202.02</ele>
        <time>2017-03-26T08:25:33Z</time>
      </trkpt>
      <trkpt lat="45.34193" lon="5.06499">
        <ele>201.9</ele>
        <time>2017-03-26T08:25:34Z</time>
      </trkpt>
      <trkpt lat="45.34186" lon="5.0648">
        <ele>201.55</ele>
        <time>2017-03-26T08:25:35Z</time>
      </trkpt>
      <trkpt lat="45.34179" lon="5.06461">
        <ele>201.56</ele>
        <time>2017-03-26T08:25:36Z</time>
      </trkpt>
      <trkpt lat="45.34172" lon="5.06443">
        <ele>201.49</ele>
        <time>2017-03-26T08:25:37Z</time>
      </trkpt>
      <trkpt lat="45.34165" lon="5.06424">
        <ele>201.23</ele>
        <time>2017-03-26T08:25:38Z</time>
      </trkpt>
      <trkpt lat="45.34158" lon="5.06405">
        <ele>201.34</ele>
        <time>2017-03-26T08:25:39Z</time>
      </trkpt>
      <trkpt lat="45.34151" lon="5.06386">
        <ele>201.28</ele>
        <time>2017-03-26T08:25:40Z</time>
      </trkpt>
      <trkpt lat="45.34144" lon="5.06367">
        <ele>201.51</ele>
        <time>2017-03-26T08:25:41Z</time>
      </trkpt>
      <trkpt lat="45.34138" lon="5.06349">
        <ele>201.48</ele>
        <time>2017-03-26T08:25:42Z</time>
      </trkpt>
      <trkpt lat="45.3413" lon="5.0633">
        <ele>201.87</ele>
        <time>2017-03-26T08:25:43Z</time>
      </trkpt>
      <trkpt lat="45.34123" lon="5.06312">
        <ele>202.35</ele>
        <time>2017-03-26T08:25:44Z</time>
      </trkpt>
      <trkpt lat="45.34115" lon="5.06293">
        <ele>202.68</ele>
        <time>2017-03-26T08:25:45Z</time>
      </trkpt>
      <trkpt lat="45.34108" lon="5.06275">
        <ele>202.83</ele>
        <time>2017-03-26T08:25:46Z</time>
      </trkpt>
      <trkpt lat="45.34101" lon="5.06256">
        <ele>202.86</ele>
        <time>2017-03-26T08:25:47Z</time>
      </trkpt>
      <trkpt lat="45.34094" lon="5.06238">
        <ele>202.71</ele>
        <time>2017-03-26T08:25:48Z</time>
      </trkpt>
      <trkpt lat="45.34087" lon="5.06221">
        <ele>202.75</ele>
        <time>2017-03-26T08:25:49Z</time>
      </trkpt>
      <trkpt lat="45.3408" lon="5.06204">
        <ele>202.84</ele>
        <time>2017-03-26T08:25:50Z</time>
      </trkpt>
      <trkpt lat="45.34073" lon="5.06187">
        <ele>202.86</ele>
        <time>2017-03-26T08:25:51Z</time>
      </trkpt>
      <trkpt lat="45.34067" lon="5.0617">
        <ele>202.71</ele>
        <time>2017-03-26T08:25:52Z</time>
      </trkpt>
      <trkpt lat="45.3406" lon="5.06152">
        <ele>202.67</ele>
        <time>2017-03-26T08:25:53Z</time>
      </trkpt>
      <trkpt lat="45.34053" lon="5.06135">
        <ele>202.51</ele>
        <time>2017-03-26T08:25:54Z</time>
      </trkpt>
      <trkpt lat="45.34046" lon="5.06117">
        <ele>202</ele>
        <time>2017-03-26T08:25:55Z</time>
      </trkpt>
      <trkpt lat="45.34039" lon="5.06099">
        <ele>201.49</ele>
        <time>2017-03-26T08:25:56Z</time>
      </trkpt>
      <trkpt lat="45.34032" lon="5.06082">
        <ele>201.31</ele>
        <time>2017-03-26T08:25:57Z</time>
      </trkpt>
      <trkpt lat="45.34025" lon="5.06064">
        <ele>201.2</ele>
        <time>2017-03-26T08:25:58Z</time>
      </trkpt>
      <trkpt lat="45.34018" lon="5.06046">
        <ele>200.85</ele>
        <time>2017-03-26T08:25:59Z</time>
      </trkpt>
      <trkpt lat="45.34012" lon="5.06029">
        <ele>200.54</ele>
        <time>2017-03-26T08:26:00Z</time>
      </trkpt>
      <trkpt lat="45.34005" lon="5.06011">
        <ele>200.32</ele>
        <time>2017-03-26T08:26:01Z</time>
      </trkpt>
      <trkpt lat="45.33998" lon="5.05995">
        <ele>200.28</ele>
        <time>2017-03-26T08:26:02Z</time>
      </trkpt>
      <trkpt lat="45.33991" lon="5.05979">
        <ele>200.51</ele>
        <time>2017-03-26T08:26:03Z</time>
      </trkpt>
      <trkpt lat="45.33984" lon="5.05963">
        <ele>200.64</ele>
        <time>2017-03-26T08:26:04Z</time>
      </trkpt>
      <trkpt lat="45.33978" lon="5.05947">
        <ele>201.06</ele>
        <time>2017-03-26T08:26:05Z</time>
      </trkpt>
      <trkpt lat="45.33973" lon="5.05932">
        <ele>201.15</ele>
        <time>2017-03-26T08:26:06Z</time>
      </trkpt>
      <trkpt lat="45.33967" lon="5.05917">
        <ele>201</ele>
        <time>2017-03-26T08:26:07Z</time>
      </trkpt>
      <trkpt lat="45.33962" lon="5.05903">
        <ele>200.89</ele>
        <time>2017-03-26T08:26:08Z</time>
      </trkpt>
      <trkpt lat="45.33957" lon="5.05889">
        <ele>200.71</ele>
        <time>2017-03-26T08:26:09Z</time>
      </trkpt>
      <trkpt lat="45.33953" lon="5.05876">
        <ele>200.6</ele>
        <time>2017-03-26T08:26:10Z</time>
      </trkpt>
      <trkpt lat="45.33948" lon="5.05863">
        <ele>200.57</ele>
        <time>2017-03-26T08:26:11Z</time>
      </trkpt>
      <trkpt lat="45.33942" lon="5.05851">
        <ele>200.65</ele>
        <time>2017-03-26T08:26:12Z</time>
      </trkpt>
      <trkpt lat="45.33936" lon="5.05838">
        <ele>200.58</ele>
        <time>2017-03-26T08:26:13Z</time>
      </trkpt>
      <trkpt lat="45.33931" lon="5.05826">
        <ele>200.73</ele>
        <time>2017-03-26T08:26:14Z</time>
      </trkpt>
      <trkpt lat="45.33927" lon="5.05813">
        <ele>200.68</ele>
        <time>2017-03-26T08:26:15Z</time>
      </trkpt>
      <trkpt lat="45.33922" lon="5.05801">
        <ele>200.67</ele>
        <time>2017-03-26T08:26:16Z</time>
      </trkpt>
      <trkpt lat="45.33917" lon="5.05789">
        <ele>200.51</ele>
        <time>2017-03-26T08:26:17Z</time>
      </trkpt>
      <trkpt lat="45.33912" lon="5.05778">
        <ele>200.48</ele>
        <time>2017-03-26T08:26:18Z</time>
      </trkpt>
      <trkpt lat="45.33909" lon="5.05766">
        <ele>200.55</ele>
        <time>2017-03-26T08:26:19Z</time>
      </trkpt>
      <trkpt lat="45.33906" lon="5.05755">
        <ele>200.56</ele>
        <time>2017-03-26T08:26:20Z</time>
      </trkpt>
      <trkpt lat="45.33904" lon="5.05746">
        <ele>200.41</ele>
        <time>2017-03-26T08:26:21Z</time>
      </trkpt>
      <trkpt lat="45.33901" lon="5.05737">
        <ele>200.21</ele>
        <time>2017-03-26T08:26:22Z</time>
      </trkpt>
      <trkpt lat="45.33899" lon="5.0573">
        <ele>200.1</ele>
        <time>2017-03-26T08:26:23Z</time>
      </trkpt>
      <trkpt lat="45.33897" lon="5.05723">
        <ele>199.99</ele>
        <time>2017-03-26T08:26:24Z</time>
      </trkpt>
      <trkpt lat="45.33895" lon="5.05717">
        <ele>199.73</ele>
        <time>2017-03-26T08:26:25Z</time>
      </trkpt>
      <trkpt lat="45.33892" lon="5.05712">
        <ele>199.76</ele>
        <time>2017-03-26T08:26:26Z</time>
      </trkpt>
      <trkpt lat="45.33892" lon="5.05705">
        <ele>199.69</ele>
        <time>2017-03-26T08:26:27Z</time>
      </trkpt>
      <trkpt lat="45.33892" lon="5.05698">
        <ele>199.43</ele>
        <time>2017-03-26T08:26:28Z</time>
      </trkpt>
      <trkpt lat="45.33891" lon="5.05692">
        <ele>199.46</ele>
        <time>2017-03-26T08:26:29Z</time>
      </trkpt>
      <trkpt lat="45.33891" lon="5.05686">
        <ele>199.55</ele>
        <time>2017-03-26T08:26:30Z</time>
      </trkpt>
      <trkpt lat="45.33891" lon="5.0568">
        <ele>199.48</ele>
        <time>2017-03-26T08:26:31Z</time>
      </trkpt>
      <trkpt lat="45.33892" lon="5.05676">
        <ele>199.47</ele>
        <time>2017-03-26T08:26:32Z</time>
      </trkpt>
      <trkpt lat="45.33891" lon="5.05672">
        <ele>199.39</ele>
        <time>2017-03-26T08:26:33Z</time>
      </trkpt>
      <trkpt lat="45.33891" lon="5.05668">
        <ele>199.37</ele>
        <time>2017-03-26T08:26:34Z</time>
      </trkpt>
      <trkpt lat="45.33891" lon="5.05665">
        <ele>199.37</ele>
        <time>2017-03-26T08:26:35Z</time>
      </trkpt>
      <trkpt lat="45.33891" lon="5.05662">
        <ele>199.45</ele>
        <time>2017-03-26T08:26:36Z</time>
      </trkpt>
      <trkpt lat="45.33892" lon="5.05658">
        <ele>199.54</ele>
        <time>2017-03-26T08:26:37Z</time>
      </trkpt>
      <trkpt lat="45.33892" lon="5.05655">
        <ele>199.8</ele>
        <time>2017-03-26T08:26:38Z</time>
      </trkpt>
      <trkpt lat="45.33891" lon="5.05651">
        <ele>200.01</ele>
        <time>2017-03-26T08:26:39Z</time>
      </trkpt>
      <trkpt lat="45.3389" lon="5.05648">
        <ele>200.3</ele>
        <time>2017-03-26T08:26:40Z</time>
      </trkpt>
      <trkpt lat="45.33889" lon="5.05644">
        <ele>200.67</ele>
        <time>2017-03-26T08:26:41Z</time>
      </trkpt>
      <trkpt lat="45.33889" lon="5.05639">
        <ele>201.07</ele>
        <time>2017-03-26T08:26:42Z</time>
      </trkpt>
      <trkpt lat="45.33889" lon="5.05633">
        <ele>201.63</ele>
        <time>2017-03-26T08:26:43Z</time>
      </trkpt>
      <trkpt lat="45.33889" lon="5.05628">
        <ele>202.06</ele>
        <time>2017-03-26T08:26:44Z</time>
      </trkpt>
      <trkpt lat="45.33889" lon="5.05622">
        <ele>202.39</ele>
        <time>2017-03-26T08:26:45Z</time>
      </trkpt>
      <trkpt lat="45.33888" lon="5.05616">
        <ele>202.69</ele>
        <time>2017-03-26T08:26:46Z</time>
      </trkpt>
      <trkpt lat="45.33887" lon="5.0561">
        <ele>202.91</ele>
        <time>2017-03-26T08:26:47Z</time>
      </trkpt>
      <trkpt lat="45.33886" lon="5.05604">
        <ele>203.12</ele>
        <time>2017-03-26T08:26:48Z</time>
      </trkpt>
      <trkpt lat="45.33885" lon="5.05599">
        <ele>203.32</ele>
        <time>2017-03-26T08:26:49Z</time>
      </trkpt>
      <trkpt lat="45.33885" lon="5.05593">
        <ele>203.76</ele>
        <time>2017-03-26T08:26:50Z</time>
      </trkpt>
      <trkpt lat="45.33886" lon="5.05587">
        <ele>203.92</ele>
        <time>2017-03-26T08:26:51Z</time>
      </trkpt>
      <trkpt lat="45.33885" lon="5.05581">
        <ele>204.2</ele>
        <time>2017-03-26T08:26:52Z</time>
      </trkpt>
      <trkpt lat="45.33885" lon="5.05576">
        <ele>204.41</ele>
        <time>2017-03-26T08:26:53Z</time>
      </trkpt>
      <trkpt lat="45.33884" lon="5.05571">
        <ele>204.54</ele>
        <time>2017-03-26T08:26:54Z</time>
      </trkpt>
      <trkpt lat="45.33884" lon="5.05565">
        <ele>204.88</ele>
        <time>2017-03-26T08:26:55Z</time>
      </trkpt>
      <trkpt lat="45.33884" lon="5.05559">
        <ele>205.11</ele>
        <time>2017-03-26T08:26:56Z</time>
      </trkpt>
      <trkpt lat="45.33883" lon="5.05554">
        <ele>205.32</ele>
        <time>2017-03-26T08:26:57Z</time>
      </trkpt>
      <trkpt lat="45.33883" lon="5.05549">
        <ele>205.6</ele>
        <time>2017-03-26T08:26:58Z</time>
      </trkpt>
      <trkpt lat="45.33882" lon="5.05544">
        <ele>205.81</ele>
        <time>2017-03-26T08:26:59Z</time>
      </trkpt>
      <trkpt lat="45.33881" lon="5.0554">
        <ele>206.02</ele>
        <time>2017-03-26T08:27:00Z</time>
      </trkpt>
      <trkpt lat="45.3388" lon="5.05535">
        <ele>206.3</ele>
        <time>2017-03-26T08:27:01Z</time>
      </trkpt>
      <trkpt lat="45.3388" lon="5.0553">
        <ele>206.59</ele>
        <time>2017-03-26T08:27:02Z</time>
      </trkpt>
      <trkpt lat="45.3388" lon="5.05525">
        <ele>207.05</ele>
        <time>2017-03-26T08:27:03Z</time>
      </trkpt>
      <trkpt lat="45.3388" lon="5.05522">
        <ele>207.38</ele>
        <time>2017-03-26T08:27:04Z</time>
      </trkpt>
      <trkpt lat="45.3388" lon="5.05518">
        <ele>207.69</ele>
        <time>2017-03-26T08:27:05Z</time>
      </trkpt>
      <trkpt lat="45.33881" lon="5.05515">
        <ele>207.91</ele>
        <time>2017-03-26T08:27:06Z</time>
      </trkpt>
      <trkpt lat="45.33881" lon="5.05512">
        <ele>208.28</ele>
        <time>2017-03-26T08:27:07Z</time>
      </trkpt>
      <trkpt lat="45.33881" lon="5.0551">
        <ele>208.51</ele>
        <time>2017-03-26T08:27:08Z</time>
      </trkpt>
      <trkpt lat="45.3388" lon="5.0551">
        <ele>208.24</ele>
        <time>2017-03-26T08:27:09Z</time>
      </trkpt>
      <trkpt lat="45.3388" lon="5.0551">
        <ele>208.26</ele>
        <time>2017-03-26T08:27:10Z</time>
      </trkpt>
      <trkpt lat="45.3388" lon="5.0551">
        <ele>208.27</ele>
        <time>2017-03-26T08:27:11Z</time>
      </trkpt>
      <trkpt lat="45.3388" lon="5.0551">
        <ele>208.27</ele>
        <time>2017-03-26T08:27:12Z</time>
      </trkpt>
      <trkpt lat="45.33878" lon="5.05503">
        <ele>208.59</ele>
        <time>2017-03-26T08:27:13Z</time>
      </trkpt>
      <trkpt lat="45.33878" lon="5.055">
        <ele>208.57</ele>
        <time>2017-03-26T08:27:14Z</time>
      </trkpt>
      <trkpt lat="45.33878" lon="5.05497">
        <ele>208.65</ele>
        <time>2017-03-26T08:27:15Z</time>
      </trkpt>
      <trkpt lat="45.33877" lon="5.05495">
        <ele>208.66</ele>
        <time>2017-03-26T08:27:16Z</time>
      </trkpt>
      <trkpt lat="45.33877" lon="5.05493">
        <ele>208.59</ele>
        <time>2017-03-26T08:27:17Z</time>
      </trkpt>
      <trkpt lat="45.33878" lon="5.05492">
        <ele>208.57</ele>
        <time>2017-03-26T08:27:18Z</time>
      </trkpt>
      <trkpt lat="45.33878" lon="5.05489">
        <ele>208.65</ele>
        <time>2017-03-26T08:27:19Z</time>
      </trkpt>
      <trkpt lat="45.33877" lon="5.05487">
        <ele>208.5</ele>
        <time>2017-03-26T08:27:20Z</time>
      </trkpt>
      <trkpt lat="45.33877" lon="5.05484">
        <ele>208.55</ele>
        <time>2017-03-26T08:27:21Z</time>
      </trkpt>
      <trkpt lat="45.33877" lon="5.0548">
        <ele>208.72</ele>
        <time>2017-03-26T08:27:22Z</time>
      </trkpt>
      <trkpt lat="45.33875" lon="5.05477">
        <ele>209.64</ele>
        <time>2017-03-26T08:27:23Z</time>
      </trkpt>
      <trkpt lat="45.33874" lon="5.05473">
        <ele>210.14</ele>
        <time>2017-03-26T08:27:24Z</time>
      </trkpt>
      <trkpt lat="45.33871" lon="5.05468">
        <ele>210.4</ele>
        <time>2017-03-26T08:27:25Z</time>
      </trkpt>
      <trkpt lat="45.33869" lon="5.05462">
        <ele>210.85</ele>
        <time>2017-03-26T08:27:26Z</time>
      </trkpt>
      <trkpt lat="45.33866" lon="5.05455">
        <ele>211.18</ele>
        <time>2017-03-26T08:27:27Z</time>
      </trkpt>
      <trkpt lat="45.33864" lon="5.05447">
        <ele>211.41</ele>
        <time>2017-03-26T08:27:28Z</time>
      </trkpt>
      <trkpt lat="45.33862" lon="5.05437">
        <ele>211.62</ele>
        <time>2017-03-26T08:27:29Z</time>
      </trkpt>
      <trkpt lat="45.33862" lon="5.05425">
        <ele>211.98</ele>
        <time>2017-03-26T08:27:30Z</time>
      </trkpt>
      <trkpt lat="45.33861" lon="5.05415">
        <ele>212.29</ele>
        <time>2017-03-26T08:27:31Z</time>
      </trkpt>
      <trkpt lat="45.33861" lon="5.05405">
        <ele>212.59</ele>
        <time>2017-03-26T08:27:32Z</time>
      </trkpt>
      <trkpt lat="45.33859" lon="5.05397">
        <ele>212.73</ele>
        <time>2017-03-26T08:27:33Z</time>
      </trkpt>
      <trkpt lat="45.33859" lon="5.05388">
        <ele>212.84</ele>
        <time>2017-03-26T08:27:34Z</time>
      </trkpt>
      <trkpt lat="45.33857" lon="5.0538">
        <ele>212.86</ele>
        <time>2017-03-26T08:27:35Z</time>
      </trkpt>
      <trkpt lat="45.33856" lon="5.05373">
        <ele>212.95</ele>
        <time>2017-03-26T08:27:36Z</time>
      </trkpt>
      <trkpt lat="45.33857" lon="5.05364">
        <ele>213.52</ele>
        <time>2017-03-26T08:27:37Z</time>
      </trkpt>
      <trkpt lat="45.33857" lon="5.05355">
        <ele>213.72</ele>
        <time>2017-03-26T08:27:38Z</time>
      </trkpt>
      <trkpt lat="45.33857" lon="5.05349">
        <ele>214.08</ele>
        <time>2017-03-26T08:27:39Z</time>
      </trkpt>
      <trkpt lat="45.33857" lon="5.05342">
        <ele>214.23</ele>
        <time>2017-03-26T08:27:40Z</time>
      </trkpt>
      <trkpt lat="45.33857" lon="5.05336">
        <ele>214.34</ele>
        <time>2017-03-26T08:27:41Z</time>
      </trkpt>
      <trkpt lat="45.33858" lon="5.0533">
        <ele>214.52</ele>
        <time>2017-03-26T08:27:42Z</time>
      </trkpt>
      <trkpt lat="45.33859" lon="5.05325">
        <ele>214.64</ele>
        <time>2017-03-26T08:27:43Z</time>
      </trkpt>
      <trkpt lat="45.33861" lon="5.05321">
        <ele>214.74</ele>
        <time>2017-03-26T08:27:44Z</time>
      </trkpt>
      <trkpt lat="45.33865" lon="5.05318">
        <ele>214.84</ele>
        <time>2017-03-26T08:27:45Z</time>
      </trkpt>
      <trkpt lat="45.3387" lon="5.05314">
        <ele>214.94</ele>
        <time>2017-03-26T08:27:46Z</time>
      </trkpt>
      <trkpt lat="45.33876" lon="5.05312">
        <ele>214.96</ele>
        <time>2017-03-26T08:27:47Z</time>
      </trkpt>
      <trkpt lat="45.33882" lon="5.05309">
        <ele>215.05</ele>
        <time>2017-03-26T08:27:48Z</time>
      </trkpt>
      <trkpt lat="45.33888" lon="5.05306">
        <ele>215.14</ele>
        <time>2017-03-26T08:27:49Z</time>
      </trkpt>
      <trkpt lat="45.33894" lon="5.05302">
        <ele>215.4</ele>
        <time>2017-03-26T08:27:50Z</time>
      </trkpt>
      <trkpt lat="45.339" lon="5.05298">
        <ele>215.61</ele>
        <time>2017-03-26T08:27:51Z</time>
      </trkpt>
      <trkpt lat="45.33908" lon="5.05294">
        <ele>215.66</ele>
        <time>2017-03-26T08:27:52Z</time>
      </trkpt>
      <trkpt lat="45.33915" lon="5.0529">
        <ele>215.66</ele>
        <time>2017-03-26T08:27:53Z</time>
      </trkpt>
      <trkpt lat="45.33923" lon="5.05286">
        <ele>215.83</ele>
        <time>2017-03-26T08:27:54Z</time>
      </trkpt>
      <trkpt lat="45.33931" lon="5.05281">
        <ele>216.02</ele>
        <time>2017-03-26T08:27:55Z</time>
      </trkpt>
      <trkpt lat="45.33939" lon="5.05278">
        <ele>216.3</ele>
        <time>2017-03-26T08:27:56Z</time>
      </trkpt>
      <trkpt lat="45.33947" lon="5.05274">
        <ele>216.59</ele>
        <time>2017-03-26T08:27:57Z</time>
      </trkpt>
      <trkpt lat="45.33954" lon="5.0527">
        <ele>216.81</ele>
        <time>2017-03-26T08:27:58Z</time>
      </trkpt>
      <trkpt lat="45.33961" lon="5.05266">
        <ele>217.02</ele>
        <time>2017-03-26T08:27:59Z</time>
      </trkpt>
      <trkpt lat="45.33969" lon="5.05262">
        <ele>217.3</ele>
        <time>2017-03-26T08:28:00Z</time>
      </trkpt>
      <trkpt lat="45.33977" lon="5.05257">
        <ele>217.43</ele>
        <time>2017-03-26T08:28:01Z</time>
      </trkpt>
      <trkpt lat="45.33987" lon="5.05253">
        <ele>217.7</ele>
        <time>2017-03-26T08:28:02Z</time>
      </trkpt>
      <trkpt lat="45.33996" lon="5.05247">
        <ele>217.99</ele>
        <time>2017-03-26T08:28:03Z</time>
      </trkpt>
      <trkpt lat="45.34004" lon="5.05238">
        <ele>218.29</ele>
        <time>2017-03-26T08:28:04Z</time>
      </trkpt>
      <trkpt lat="45.34011" lon="5.05228">
        <ele>218.51</ele>
        <time>2017-03-26T08:28:05Z</time>
      </trkpt>
      <trkpt lat="45.34019" lon="5.05217">
        <ele>218.96</ele>
        <time>2017-03-26T08:28:06Z</time>
      </trkpt>
      <trkpt lat="45.34023" lon="5.05205">
        <ele>219.36</ele>
        <time>2017-03-26T08:28:07Z</time>
      </trkpt>
      <trkpt lat="45.34024" lon="5.05192">
        <ele>219.45</ele>
        <time>2017-03-26T08:28:08Z</time>
      </trkpt>
      <trkpt lat="45.34022" lon="5.0518">
        <ele>219.7</ele>
        <time>2017-03-26T08:28:09Z</time>
      </trkpt>
      <trkpt lat="45.34016" lon="5.05168">
        <ele>220.07</ele>
        <time>2017-03-26T08:28:10Z</time>
      </trkpt>
      <trkpt lat="45.34007" lon="5.05158">
        <ele>221.03</ele>
        <time>2017-03-26T08:28:11Z</time>
      </trkpt>
      <trkpt lat="45.33997" lon="5.0515">
        <ele>221.78</ele>
        <time>2017-03-26T08:28:12Z</time>
      </trkpt>
      <trkpt lat="45.33987" lon="5.05141">
        <ele>222.49</ele>
        <time>2017-03-26T08:28:13Z</time>
      </trkpt>
      <trkpt lat="45.33978" lon="5.05132">
        <ele>223.11</ele>
        <time>2017-03-26T08:28:14Z</time>
      </trkpt>
      <trkpt lat="45.33971" lon="5.05122">
        <ele>223.8</ele>
        <time>2017-03-26T08:28:15Z</time>
      </trkpt>
      <trkpt lat="45.33965" lon="5.0511">
        <ele>224.49</ele>
        <time>2017-03-26T08:28:16Z</time>
      </trkpt>
      <trkpt lat="45.33962" lon="5.05097">
        <ele>225.03</ele>
        <time>2017-03-26T08:28:17Z</time>
      </trkpt>
      <trkpt lat="45.33959" lon="5.05083">
        <ele>225.78</ele>
        <time>2017-03-26T08:28:18Z</time>
      </trkpt>
      <trkpt lat="45.33958" lon="5.05068">
        <ele>226.65</ele>
        <time>2017-03-26T08:28:19Z</time>
      </trkpt>
      <trkpt lat="45.33957" lon="5.05052">
        <ele>227.54</ele>
        <time>2017-03-26T08:28:20Z</time>
      </trkpt>
      <trkpt lat="45.33956" lon="5.05036">
        <ele>228.36</ele>
        <time>2017-03-26T08:28:21Z</time>
      </trkpt>
      <trkpt lat="45.33957" lon="5.0502">
        <ele>229.17</ele>
        <time>2017-03-26T08:28:22Z</time>
      </trkpt>
      <trkpt lat="45.3396" lon="5.05004">
        <ele>229.97</ele>
        <time>2017-03-26T08:28:23Z</time>
      </trkpt>
      <trkpt lat="45.33964" lon="5.04988">
        <ele>231.01</ele>
        <time>2017-03-26T08:28:24Z</time>
      </trkpt>
      <trkpt lat="45.3397" lon="5.04976">
        <ele>232.57</ele>
        <time>2017-03-26T08:28:25Z</time>
      </trkpt>
      <trkpt lat="45.33977" lon="5.04964">
        <ele>233.53</ele>
        <time>2017-03-26T08:28:26Z</time>
      </trkpt>
      <trkpt lat="45.33984" lon="5.04954">
        <ele>234.44</ele>
        <time>2017-03-26T08:28:27Z</time>
      </trkpt>
      <trkpt lat="45.33991" lon="5.04944">
        <ele>235.18</ele>
        <time>2017-03-26T08:28:28Z</time>
      </trkpt>
      <trkpt lat="45.33998" lon="5.04934">
        <ele>235.65</ele>
        <time>2017-03-26T08:28:29Z</time>
      </trkpt>
      <trkpt lat="45.34005" lon="5.04924">
        <ele>236.14</ele>
        <time>2017-03-26T08:28:30Z</time>
      </trkpt>
      <trkpt lat="45.34011" lon="5.04915">
        <ele>236.8</ele>
        <time>2017-03-26T08:28:31Z</time>
      </trkpt>
      <trkpt lat="45.34017" lon="5.04906">
        <ele>237.25</ele>
        <time>2017-03-26T08:28:32Z</time>
      </trkpt>
      <trkpt lat="45.34023" lon="5.04898">
        <ele>237.66</ele>
        <time>2017-03-26T08:28:33Z</time>
      </trkpt>
      <trkpt lat="45.34028" lon="5.04889">
        <ele>237.83</ele>
        <time>2017-03-26T08:28:34Z</time>
      </trkpt>
      <trkpt lat="45.34031" lon="5.04878">
        <ele>237.94</ele>
        <time>2017-03-26T08:28:35Z</time>
      </trkpt>
      <trkpt lat="45.34033" lon="5.04866">
        <ele>238.12</ele>
        <time>2017-03-26T08:28:36Z</time>
      </trkpt>
      <trkpt lat="45.34036" lon="5.04852">
        <ele>238.48</ele>
        <time>2017-03-26T08:28:37Z</time>
      </trkpt>
      <trkpt lat="45.3404" lon="5.04838">
        <ele>238.79</ele>
        <time>2017-03-26T08:28:38Z</time>
      </trkpt>
      <trkpt lat="45.34044" lon="5.04822">
        <ele>239.01</ele>
        <time>2017-03-26T08:28:39Z</time>
      </trkpt>
      <trkpt lat="45.34049" lon="5.04805">
        <ele>239.3</ele>
        <time>2017-03-26T08:28:40Z</time>
      </trkpt>
      <trkpt lat="45.34053" lon="5.04788">
        <ele>239.59</ele>
        <time>2017-03-26T08:28:41Z</time>
      </trkpt>
      <trkpt lat="45.34058" lon="5.04769">
        <ele>239.73</ele>
        <time>2017-03-26T08:28:42Z</time>
      </trkpt>
      <trkpt lat="45.34064" lon="5.0475">
        <ele>239.84</ele>
        <time>2017-03-26T08:28:43Z</time>
      </trkpt>
      <trkpt lat="45.34071" lon="5.0473">
        <ele>239.86</ele>
        <time>2017-03-26T08:28:44Z</time>
      </trkpt>
      <trkpt lat="45.34079" lon="5.04709">
        <ele>240.03</ele>
        <time>2017-03-26T08:28:45Z</time>
      </trkpt>
      <trkpt lat="45.34088" lon="5.04687">
        <ele>240.22</ele>
        <time>2017-03-26T08:28:46Z</time>
      </trkpt>
      <trkpt lat="45.34097" lon="5.04663">
        <ele>240.02</ele>
        <time>2017-03-26T08:28:47Z</time>
      </trkpt>
      <trkpt lat="45.34105" lon="5.04638">
        <ele>239.66</ele>
        <time>2017-03-26T08:28:48Z</time>
      </trkpt>
      <trkpt lat="45.34112" lon="5.04612">
        <ele>239.51</ele>
        <time>2017-03-26T08:28:49Z</time>
      </trkpt>
      <trkpt lat="45.34117" lon="5.04585">
        <ele>239.31</ele>
        <time>2017-03-26T08:28:50Z</time>
      </trkpt>
      <trkpt lat="45.34119" lon="5.04558">
        <ele>239.28</ele>
        <time>2017-03-26T08:28:51Z</time>
      </trkpt>
      <trkpt lat="45.3412" lon="5.04531">
        <ele>239.19</ele>
        <time>2017-03-26T08:28:52Z</time>
      </trkpt>
      <trkpt lat="45.34121" lon="5.04504">
        <ele>239.01</ele>
        <time>2017-03-26T08:28:53Z</time>
      </trkpt>
      <trkpt lat="45.34121" lon="5.04478">
        <ele>238.82</ele>
        <time>2017-03-26T08:28:54Z</time>
      </trkpt>
      <trkpt lat="45.34121" lon="5.04452">
        <ele>238.46</ele>
        <time>2017-03-26T08:28:55Z</time>
      </trkpt>
      <trkpt lat="45.34121" lon="5.04425">
        <ele>238.22</ele>
        <time>2017-03-26T08:28:56Z</time>
      </trkpt>
      <trkpt lat="45.34119" lon="5.04398">
        <ele>237.94</ele>
        <time>2017-03-26T08:28:57Z</time>
      </trkpt>
      <trkpt lat="45.34118" lon="5.04371">
        <ele>237.88</ele>
        <time>2017-03-26T08:28:58Z</time>
      </trkpt>
      <trkpt lat="45.34117" lon="5.04344">
        <ele>237.95</ele>
        <time>2017-03-26T08:28:59Z</time>
      </trkpt>
      <trkpt lat="45.34117" lon="5.04316">
        <ele>238.04</ele>
        <time>2017-03-26T08:29:00Z</time>
      </trkpt>
      <trkpt lat="45.34117" lon="5.04289">
        <ele>237.98</ele>
        <time>2017-03-26T08:29:01Z</time>
      </trkpt>
      <trkpt lat="45.34119" lon="5.0426">
        <ele>237.81</ele>
        <time>2017-03-26T08:29:02Z</time>
      </trkpt>
      <trkpt lat="45.34121" lon="5.04232">
        <ele>237.7</ele>
        <time>2017-03-26T08:29:03Z</time>
      </trkpt>
      <trkpt lat="45.34123" lon="5.04204">
        <ele>237.27</ele>
        <time>2017-03-26T08:29:04Z</time>
      </trkpt>
      <trkpt lat="45.34126" lon="5.04176">
        <ele>237.19</ele>
        <time>2017-03-26T08:29:05Z</time>
      </trkpt>
      <trkpt lat="45.34129" lon="5.04148">
        <ele>237.01</ele>
        <time>2017-03-26T08:29:06Z</time>
      </trkpt>
      <trkpt lat="45.34133" lon="5.0412">
        <ele>236.82</ele>
        <time>2017-03-26T08:29:07Z</time>
      </trkpt>
      <trkpt lat="45.34139" lon="5.04093">
        <ele>235.98</ele>
        <time>2017-03-26T08:29:08Z</time>
      </trkpt>
      <trkpt lat="45.34148" lon="5.04065">
        <ele>236.05</ele>
        <time>2017-03-26T08:29:09Z</time>
      </trkpt>
      <trkpt lat="45.34158" lon="5.04037">
        <ele>235.74</ele>
        <time>2017-03-26T08:29:10Z</time>
      </trkpt>
      <trkpt lat="45.34166" lon="5.04006">
        <ele>235.6</ele>
        <time>2017-03-26T08:29:11Z</time>
      </trkpt>
      <trkpt lat="45.34171" lon="5.03973">
        <ele>235.25</ele>
        <time>2017-03-26T08:29:12Z</time>
      </trkpt>
      <trkpt lat="45.34173" lon="5.03938">
        <ele>235.26</ele>
        <time>2017-03-26T08:29:13Z</time>
      </trkpt>
      <trkpt lat="45.34173" lon="5.03902">
        <ele>235.35</ele>
        <time>2017-03-26T08:29:14Z</time>
      </trkpt>
      <trkpt lat="45.34174" lon="5.03866">
        <ele>235.2</ele>
        <time>2017-03-26T08:29:15Z</time>
      </trkpt>
      <trkpt lat="45.34174" lon="5.0383">
        <ele>235.33</ele>
        <time>2017-03-26T08:29:16Z</time>
      </trkpt>
      <trkpt lat="45.34175" lon="5.03796">
        <ele>235.12</ele>
        <time>2017-03-26T08:29:17Z</time>
      </trkpt>
      <trkpt lat="45.34176" lon="5.03762">
        <ele>235.16</ele>
        <time>2017-03-26T08:29:18Z</time>
      </trkpt>
      <trkpt lat="45.34179" lon="5.03729">
        <ele>235.09</ele>
        <time>2017-03-26T08:29:19Z</time>
      </trkpt>
      <trkpt lat="45.34183" lon="5.03696">
        <ele>234.83</ele>
        <time>2017-03-26T08:29:20Z</time>
      </trkpt>
      <trkpt lat="45.34187" lon="5.03663">
        <ele>234.62</ele>
        <time>2017-03-26T08:29:21Z</time>
      </trkpt>
      <trkpt lat="45.3419" lon="5.0363">
        <ele>234.58</ele>
        <time>2017-03-26T08:29:22Z</time>
      </trkpt>
      <trkpt lat="45.3419" lon="5.03597">
        <ele>234.57</ele>
        <time>2017-03-26T08:29:23Z</time>
      </trkpt>
      <trkpt lat="45.34189" lon="5.03565">
        <ele>234.65</ele>
        <time>2017-03-26T08:29:24Z</time>
      </trkpt>
      <trkpt lat="45.34188" lon="5.03532">
        <ele>234.18</ele>
        <time>2017-03-26T08:29:25Z</time>
      </trkpt>
      <trkpt lat="45.34186" lon="5.035">
        <ele>233.53</ele>
        <time>2017-03-26T08:29:26Z</time>
      </trkpt>
      <trkpt lat="45.34184" lon="5.03467">
        <ele>233.16</ele>
        <time>2017-03-26T08:29:27Z</time>
      </trkpt>
      <trkpt lat="45.34183" lon="5.03434">
        <ele>232.77</ele>
        <time>2017-03-26T08:29:28Z</time>
      </trkpt>
      <trkpt lat="45.34182" lon="5.034">
        <ele>232.53</ele>
        <time>2017-03-26T08:29:29Z</time>
      </trkpt>
      <trkpt lat="45.34183" lon="5.03367">
        <ele>232.24</ele>
        <time>2017-03-26T08:29:30Z</time>
      </trkpt>
      <trkpt lat="45.34184" lon="5.03333">
        <ele>231.86</ele>
        <time>2017-03-26T08:29:31Z</time>
      </trkpt>
      <trkpt lat="45.34186" lon="5.033">
        <ele>231.55</ele>
        <time>2017-03-26T08:29:32Z</time>
      </trkpt>
      <trkpt lat="45.34188" lon="5.03266">
        <ele>231.24</ele>
        <time>2017-03-26T08:29:33Z</time>
      </trkpt>
      <trkpt lat="45.34192" lon="5.03233">
        <ele>231.02</ele>
        <time>2017-03-26T08:29:34Z</time>
      </trkpt>
      <trkpt lat="45.34195" lon="5.03199">
        <ele>230.82</ele>
        <time>2017-03-26T08:29:35Z</time>
      </trkpt>
      <trkpt lat="45.342" lon="5.03166">
        <ele>230.7</ele>
        <time>2017-03-26T08:29:36Z</time>
      </trkpt>
      <trkpt lat="45.34205" lon="5.03134">
        <ele>230.51</ele>
        <time>2017-03-26T08:29:37Z</time>
      </trkpt>
      <trkpt lat="45.34211" lon="5.03102">
        <ele>230.24</ele>
        <time>2017-03-26T08:29:38Z</time>
      </trkpt>
      <trkpt lat="45.34219" lon="5.0307">
        <ele>230.02</ele>
        <time>2017-03-26T08:29:39Z</time>
      </trkpt>
      <trkpt lat="45.34229" lon="5.03039">
        <ele>229.66</ele>
        <time>2017-03-26T08:29:40Z</time>
      </trkpt>
      <trkpt lat="45.34239" lon="5.03008">
        <ele>229.43</ele>
        <time>2017-03-26T08:29:41Z</time>
      </trkpt>
      <trkpt lat="45.3425" lon="5.02977">
        <ele>228.9</ele>
        <time>2017-03-26T08:29:42Z</time>
      </trkpt>
      <trkpt lat="45.34261" lon="5.02945">
        <ele>228.39</ele>
        <time>2017-03-26T08:29:43Z</time>
      </trkpt>
      <trkpt lat="45.34272" lon="5.02913">
        <ele>227.97</ele>
        <time>2017-03-26T08:29:44Z</time>
      </trkpt>
      <trkpt lat="45.34282" lon="5.02881">
        <ele>227.73</ele>
        <time>2017-03-26T08:29:45Z</time>
      </trkpt>
      <trkpt lat="45.34292" lon="5.02849">
        <ele>227.68</ele>
        <time>2017-03-26T08:29:46Z</time>
      </trkpt>
      <trkpt lat="45.34303" lon="5.02817">
        <ele>227.51</ele>
        <time>2017-03-26T08:29:47Z</time>
      </trkpt>
      <trkpt lat="45.34313" lon="5.02785">
        <ele>227.16</ele>
        <time>2017-03-26T08:29:48Z</time>
      </trkpt>
      <trkpt lat="45.34324" lon="5.02753">
        <ele>226.68</ele>
        <time>2017-03-26T08:29:49Z</time>
      </trkpt>
      <trkpt lat="45.34335" lon="5.02721">
        <ele>226.35</ele>
        <time>2017-03-26T08:29:50Z</time>
      </trkpt>
      <trkpt lat="45.34345" lon="5.02689">
        <ele>225.96</ele>
        <time>2017-03-26T08:29:51Z</time>
      </trkpt>
      <trkpt lat="45.34355" lon="5.02657">
        <ele>225.49</ele>
        <time>2017-03-26T08:29:52Z</time>
      </trkpt>
      <trkpt lat="45.34365" lon="5.02624">
        <ele>225.07</ele>
        <time>2017-03-26T08:29:53Z</time>
      </trkpt>
      <trkpt lat="45.34374" lon="5.02592">
        <ele>224.91</ele>
        <time>2017-03-26T08:29:54Z</time>
      </trkpt>
      <trkpt lat="45.34383" lon="5.02559">
        <ele>224.96</ele>
        <time>2017-03-26T08:29:55Z</time>
      </trkpt>
      <trkpt lat="45.34392" lon="5.02526">
        <ele>224.96</ele>
        <time>2017-03-26T08:29:56Z</time>
      </trkpt>
      <trkpt lat="45.344" lon="5.02493">
        <ele>224.49</ele>
        <time>2017-03-26T08:29:57Z</time>
      </trkpt>
      <trkpt lat="45.34408" lon="5.0246">
        <ele>224.15</ele>
        <time>2017-03-26T08:29:58Z</time>
      </trkpt>
      <trkpt lat="45.34416" lon="5.02427">
        <ele>223.76</ele>
        <time>2017-03-26T08:29:59Z</time>
      </trkpt>
      <trkpt lat="45.34423" lon="5.02394">
        <ele>223.53</ele>
        <time>2017-03-26T08:30:00Z</time>
      </trkpt>
      <trkpt lat="45.34431" lon="5.02361">
        <ele>223.32</ele>
        <time>2017-03-26T08:30:01Z</time>
      </trkpt>
      <trkpt lat="45.34438" lon="5.02328">
        <ele>222.96</ele>
        <time>2017-03-26T08:30:02Z</time>
      </trkpt>
      <trkpt lat="45.34445" lon="5.02296">
        <ele>222.73</ele>
        <time>2017-03-26T08:30:03Z</time>
      </trkpt>
      <trkpt lat="45.34453" lon="5.02264">
        <ele>222.44</ele>
        <time>2017-03-26T08:30:04Z</time>
      </trkpt>
      <trkpt lat="45.3446" lon="5.02232">
        <ele>222.22</ele>
        <time>2017-03-26T08:30:05Z</time>
      </trkpt>
      <trkpt lat="45.34467" lon="5.022">
        <ele>222.02</ele>
        <time>2017-03-26T08:30:06Z</time>
      </trkpt>
      <trkpt lat="45.34475" lon="5.02168">
        <ele>221.9</ele>
        <time>2017-03-26T08:30:07Z</time>
      </trkpt>
      <trkpt lat="45.34482" lon="5.02137">
        <ele>221.95</ele>
        <time>2017-03-26T08:30:08Z</time>
      </trkpt>
      <trkpt lat="45.3449" lon="5.02106">
        <ele>221.96</ele>
        <time>2017-03-26T08:30:09Z</time>
      </trkpt>
      <trkpt lat="45.34499" lon="5.02075">
        <ele>221.73</ele>
        <time>2017-03-26T08:30:10Z</time>
      </trkpt>
      <trkpt lat="45.3451" lon="5.02044">
        <ele>221.6</ele>
        <time>2017-03-26T08:30:11Z</time>
      </trkpt>
      <trkpt lat="45.34521" lon="5.02015">
        <ele>221.33</ele>
        <time>2017-03-26T08:30:12Z</time>
      </trkpt>
      <trkpt lat="45.34533" lon="5.01985">
        <ele>221.04</ele>
        <time>2017-03-26T08:30:13Z</time>
      </trkpt>
      <trkpt lat="45.34546" lon="5.01956">
        <ele>220.34</ele>
        <time>2017-03-26T08:30:14Z</time>
      </trkpt>
      <trkpt lat="45.34559" lon="5.01928">
        <ele>219.72</ele>
        <time>2017-03-26T08:30:15Z</time>
      </trkpt>
      <trkpt lat="45.34572" lon="5.01899">
        <ele>219.28</ele>
        <time>2017-03-26T08:30:16Z</time>
      </trkpt>
      <trkpt lat="45.34585" lon="5.0187">
        <ele>219.03</ele>
        <time>2017-03-26T08:30:17Z</time>
      </trkpt>
      <trkpt lat="45.34598" lon="5.01841">
        <ele>218.5</ele>
        <time>2017-03-26T08:30:18Z</time>
      </trkpt>
      <trkpt lat="45.3461" lon="5.01811">
        <ele>218.15</ele>
        <time>2017-03-26T08:30:19Z</time>
      </trkpt>
      <trkpt lat="45.34621" lon="5.0178">
        <ele>217.92</ele>
        <time>2017-03-26T08:30:20Z</time>
      </trkpt>
      <trkpt lat="45.34631" lon="5.01749">
        <ele>217.64</ele>
        <time>2017-03-26T08:30:21Z</time>
      </trkpt>
      <trkpt lat="45.3464" lon="5.01718">
        <ele>217.42</ele>
        <time>2017-03-26T08:30:22Z</time>
      </trkpt>
      <trkpt lat="45.34649" lon="5.01687">
        <ele>217.06</ele>
        <time>2017-03-26T08:30:23Z</time>
      </trkpt>
      <trkpt lat="45.34657" lon="5.01656">
        <ele>216.91</ele>
        <time>2017-03-26T08:30:24Z</time>
      </trkpt>
      <trkpt lat="45.34665" lon="5.01625">
        <ele>216.55</ele>
        <time>2017-03-26T08:30:25Z</time>
      </trkpt>
      <trkpt lat="45.34673" lon="5.01595">
        <ele>216.32</ele>
        <time>2017-03-26T08:30:26Z</time>
      </trkpt>
      <trkpt lat="45.34681" lon="5.01565">
        <ele>216.28</ele>
        <time>2017-03-26T08:30:27Z</time>
      </trkpt>
      <trkpt lat="45.3469" lon="5.01536">
        <ele>216.35</ele>
        <time>2017-03-26T08:30:28Z</time>
      </trkpt>
      <trkpt lat="45.34699" lon="5.01506">
        <ele>216.12</ele>
        <time>2017-03-26T08:30:29Z</time>
      </trkpt>
      <trkpt lat="45.34707" lon="5.01477">
        <ele>215.84</ele>
        <time>2017-03-26T08:30:30Z</time>
      </trkpt>
      <trkpt lat="45.34716" lon="5.01447">
        <ele>215.62</ele>
        <time>2017-03-26T08:30:31Z</time>
      </trkpt>
      <trkpt lat="45.34725" lon="5.01418">
        <ele>215.5</ele>
        <time>2017-03-26T08:30:32Z</time>
      </trkpt>
      <trkpt lat="45.34734" lon="5.01388">
        <ele>215.47</ele>
        <time>2017-03-26T08:30:33Z</time>
      </trkpt>
      <trkpt lat="45.34744" lon="5.0136">
        <ele>215.39</ele>
        <time>2017-03-26T08:30:34Z</time>
      </trkpt>
      <trkpt lat="45.34753" lon="5.01332">
        <ele>215.13</ele>
        <time>2017-03-26T08:30:35Z</time>
      </trkpt>
      <trkpt lat="45.34763" lon="5.01304">
        <ele>214.76</ele>
        <time>2017-03-26T08:30:36Z</time>
      </trkpt>
      <trkpt lat="45.34774" lon="5.01277">
        <ele>214.37</ele>
        <time>2017-03-26T08:30:37Z</time>
      </trkpt>
      <trkpt lat="45.34786" lon="5.0125">
        <ele>213.97</ele>
        <time>2017-03-26T08:30:38Z</time>
      </trkpt>
      <trkpt lat="45.34798" lon="5.01224">
        <ele>213.33</ele>
        <time>2017-03-26T08:30:39Z</time>
      </trkpt>
      <trkpt lat="45.34811" lon="5.01198">
        <ele>212.8</ele>
        <time>2017-03-26T08:30:40Z</time>
      </trkpt>
      <trkpt lat="45.34823" lon="5.01171">
        <ele>213.09</ele>
        <time>2017-03-26T08:30:41Z</time>
      </trkpt>
      <trkpt lat="45.34836" lon="5.01144">
        <ele>213.47</ele>
        <time>2017-03-26T08:30:42Z</time>
      </trkpt>
      <trkpt lat="45.34848" lon="5.01116">
        <ele>213.63</ele>
        <time>2017-03-26T08:30:43Z</time>
      </trkpt>
      <trkpt lat="45.34859" lon="5.01088">
        <ele>213.9</ele>
        <time>2017-03-26T08:30:44Z</time>
      </trkpt>
      <trkpt lat="45.34869" lon="5.0106">
        <ele>214.91</ele>
        <time>2017-03-26T08:30:45Z</time>
      </trkpt>
      <trkpt lat="45.3488" lon="5.0103">
        <ele>215.84</ele>
        <time>2017-03-26T08:30:46Z</time>
      </trkpt>
      <trkpt lat="45.3489" lon="5.01001">
        <ele>216.34</ele>
        <time>2017-03-26T08:30:47Z</time>
      </trkpt>
      <trkpt lat="45.349" lon="5.00972">
        <ele>216.52</ele>
        <time>2017-03-26T08:30:48Z</time>
      </trkpt>
      <trkpt lat="45.34911" lon="5.00943">
        <ele>216.64</ele>
        <time>2017-03-26T08:30:49Z</time>
      </trkpt>
      <trkpt lat="45.34921" lon="5.00914">
        <ele>216.5</ele>
        <time>2017-03-26T08:30:50Z</time>
      </trkpt>
      <trkpt lat="45.34931" lon="5.00885">
        <ele>216.31</ele>
        <time>2017-03-26T08:30:51Z</time>
      </trkpt>
      <trkpt lat="45.34941" lon="5.00856">
        <ele>216.2</ele>
        <time>2017-03-26T08:30:52Z</time>
      </trkpt>
      <trkpt lat="45.3495" lon="5.00826">
        <ele>216.17</ele>
        <time>2017-03-26T08:30:53Z</time>
      </trkpt>
      <trkpt lat="45.3496" lon="5.00797">
        <ele>216.01</ele>
        <time>2017-03-26T08:30:54Z</time>
      </trkpt>
      <trkpt lat="45.34969" lon="5.00767">
        <ele>215.58</ele>
        <time>2017-03-26T08:30:55Z</time>
      </trkpt>
      <trkpt lat="45.34978" lon="5.00738">
        <ele>215.17</ele>
        <time>2017-03-26T08:30:56Z</time>
      </trkpt>
      <trkpt lat="45.34987" lon="5.00709">
        <ele>215.09</ele>
        <time>2017-03-26T08:30:57Z</time>
      </trkpt>
      <trkpt lat="45.34996" lon="5.00681">
        <ele>214.83</ele>
        <time>2017-03-26T08:30:58Z</time>
      </trkpt>
      <trkpt lat="45.35005" lon="5.00652">
        <ele>214.46</ele>
        <time>2017-03-26T08:30:59Z</time>
      </trkpt>
      <trkpt lat="45.35013" lon="5.00623">
        <ele>214.31</ele>
        <time>2017-03-26T08:31:00Z</time>
      </trkpt>
      <trkpt lat="45.3502" lon="5.00593">
        <ele>213.95</ele>
        <time>2017-03-26T08:31:01Z</time>
      </trkpt>
      <trkpt lat="45.35026" lon="5.00563">
        <ele>213.96</ele>
        <time>2017-03-26T08:31:02Z</time>
      </trkpt>
      <trkpt lat="45.35032" lon="5.00532">
        <ele>214.29</ele>
        <time>2017-03-26T08:31:03Z</time>
      </trkpt>
      <trkpt lat="45.35037" lon="5.00501">
        <ele>214.99</ele>
        <time>2017-03-26T08:31:04Z</time>
      </trkpt>
      <trkpt lat="45.35041" lon="5.00471">
        <ele>215.53</ele>
        <time>2017-03-26T08:31:05Z</time>
      </trkpt>
      <trkpt lat="45.35046" lon="5.0044">
        <ele>216.28</ele>
        <time>2017-03-26T08:31:06Z</time>
      </trkpt>
      <trkpt lat="45.3505" lon="5.0041">
        <ele>217.23</ele>
        <time>2017-03-26T08:31:07Z</time>
      </trkpt>
      <trkpt lat="45.35053" lon="5.00379">
        <ele>218.06</ele>
        <time>2017-03-26T08:31:08Z</time>
      </trkpt>
      <trkpt lat="45.35056" lon="5.00349">
        <ele>218.87</ele>
        <time>2017-03-26T08:31:09Z</time>
      </trkpt>
      <trkpt lat="45.35059" lon="5.00319">
        <ele>219.67</ele>
        <time>2017-03-26T08:31:10Z</time>
      </trkpt>
      <trkpt lat="45.35062" lon="5.00288">
        <ele>220.15</ele>
        <time>2017-03-26T08:31:11Z</time>
      </trkpt>
      <trkpt lat="45.35065" lon="5.00258">
        <ele>220.32</ele>
        <time>2017-03-26T08:31:12Z</time>
      </trkpt>
      <trkpt lat="45.35068" lon="5.00228">
        <ele>220.28</ele>
        <time>2017-03-26T08:31:13Z</time>
      </trkpt>
      <trkpt lat="45.35071" lon="5.00198">
        <ele>220.27</ele>
        <time>2017-03-26T08:31:14Z</time>
      </trkpt>
      <trkpt lat="45.35074" lon="5.00167">
        <ele>220.11</ele>
        <time>2017-03-26T08:31:15Z</time>
      </trkpt>
      <trkpt lat="45.35078" lon="5.00136">
        <ele>219.92</ele>
        <time>2017-03-26T08:31:16Z</time>
      </trkpt>
      <trkpt lat="45.35081" lon="5.00106">
        <ele>219.72</ele>
        <time>2017-03-26T08:31:17Z</time>
      </trkpt>
      <trkpt lat="45.35085" lon="5.00075">
        <ele>219.2</ele>
        <time>2017-03-26T08:31:18Z</time>
      </trkpt>
      <trkpt lat="45.35089" lon="5.00044">
        <ele>218.61</ele>
        <time>2017-03-26T08:31:19Z</time>
      </trkpt>
      <trkpt lat="45.35093" lon="5.00013">
        <ele>217.78</ele>
        <time>2017-03-26T08:31:20Z</time>
      </trkpt>
      <trkpt lat="45.35097" lon="4.99982">
        <ele>216.73</ele>
        <time>2017-03-26T08:31:21Z</time>
      </trkpt>
      <trkpt lat="45.35102" lon="4.9995">
        <ele>215.56</ele>
        <time>2017-03-26T08:31:22Z</time>
      </trkpt>
      <trkpt lat="45.35106" lon="4.99918">
        <ele>214.53</ele>
        <time>2017-03-26T08:31:23Z</time>
      </trkpt>
      <trkpt lat="45.35109" lon="4.99887">
        <ele>213.52</ele>
        <time>2017-03-26T08:31:24Z</time>
      </trkpt>
      <trkpt lat="45.35113" lon="4.99855">
        <ele>212.44</ele>
        <time>2017-03-26T08:31:25Z</time>
      </trkpt>
      <trkpt lat="45.35117" lon="4.99824">
        <ele>211.5</ele>
        <time>2017-03-26T08:31:26Z</time>
      </trkpt>
      <trkpt lat="45.35121" lon="4.99794">
        <ele>210.67</ele>
        <time>2017-03-26T08:31:27Z</time>
      </trkpt>
      <trkpt lat="45.35125" lon="4.99764">
        <ele>210.11</ele>
        <time>2017-03-26T08:31:28Z</time>
      </trkpt>
      <trkpt lat="45.35129" lon="4.99734">
        <ele>209.84</ele>
        <time>2017-03-26T08:31:29Z</time>
      </trkpt>
      <trkpt lat="45.35133" lon="4.99705">
        <ele>209.3</ele>
        <time>2017-03-26T08:31:30Z</time>
      </trkpt>
      <trkpt lat="45.35137" lon="4.99676">
        <ele>209.51</ele>
        <time>2017-03-26T08:31:31Z</time>
      </trkpt>
      <trkpt lat="45.35141" lon="4.99649">
        <ele>209.56</ele>
        <time>2017-03-26T08:31:32Z</time>
      </trkpt>
      <trkpt lat="45.35146" lon="4.99623">
        <ele>209.56</ele>
        <time>2017-03-26T08:31:33Z</time>
      </trkpt>
      <trkpt lat="45.35155" lon="4.99598">
        <ele>209.65</ele>
        <time>2017-03-26T08:31:34Z</time>
      </trkpt>
      <trkpt lat="45.35166" lon="4.99575">
        <ele>209.82</ele>
        <time>2017-03-26T08:31:35Z</time>
      </trkpt>
      <trkpt lat="45.35179" lon="4.99554">
        <ele>209.94</ele>
        <time>2017-03-26T08:31:36Z</time>
      </trkpt>
      <trkpt lat="45.35193" lon="4.99537">
        <ele>209.96</ele>
        <time>2017-03-26T08:31:37Z</time>
      </trkpt>
      <trkpt lat="45.35209" lon="4.99524">
        <ele>209.73</ele>
        <time>2017-03-26T08:31:38Z</time>
      </trkpt>
      <trkpt lat="45.35225" lon="4.99515">
        <ele>209.44</ele>
        <time>2017-03-26T08:31:39Z</time>
      </trkpt>
      <trkpt lat="45.35241" lon="4.99508">
        <ele>208.98</ele>
        <time>2017-03-26T08:31:40Z</time>
      </trkpt>
      <trkpt lat="45.35257" lon="4.99502">
        <ele>208.57</ele>
        <time>2017-03-26T08:31:41Z</time>
      </trkpt>
      <trkpt lat="45.3527" lon="4.99497">
        <ele>208.17</ele>
        <time>2017-03-26T08:31:42Z</time>
      </trkpt>
      <trkpt lat="45.35282" lon="4.99491">
        <ele>207.85</ele>
        <time>2017-03-26T08:31:43Z</time>
      </trkpt>
      <trkpt lat="45.35291" lon="4.99487">
        <ele>207.7</ele>
        <time>2017-03-26T08:31:44Z</time>
      </trkpt>
      <trkpt lat="45.35297" lon="4.99484">
        <ele>207.67</ele>
        <time>2017-03-26T08:31:45Z</time>
      </trkpt>
      <trkpt lat="45.35302" lon="4.99482">
        <ele>207.59</ele>
        <time>2017-03-26T08:31:46Z</time>
      </trkpt>
      <trkpt lat="45.35304" lon="4.99482">
        <ele>207.57</ele>
        <time>2017-03-26T08:31:47Z</time>
      </trkpt>
      <trkpt lat="45.35305" lon="4.99482">
        <ele>207.57</ele>
        <time>2017-03-26T08:31:48Z</time>
      </trkpt>
      <trkpt lat="45.35305" lon="4.99482">
        <ele>207.65</ele>
        <time>2017-03-26T08:31:49Z</time>
      </trkpt>
      <trkpt lat="45.35305" lon="4.99482">
        <ele>207.82</ele>
        <time>2017-03-26T08:31:50Z</time>
      </trkpt>
      <trkpt lat="45.35305" lon="4.99482">
        <ele>207.86</ele>
        <time>2017-03-26T08:31:51Z</time>
      </trkpt>
      <trkpt lat="45.35305" lon="4.99482">
        <ele>207.87</ele>
        <time>2017-03-26T08:31:52Z</time>
      </trkpt>
      <trkpt lat="45.35305" lon="4.99482">
        <ele>207.87</ele>
        <time>2017-03-26T08:31:53Z</time>
      </trkpt>
      <trkpt lat="45.35305" lon="4.99482">
        <ele>207.87</ele>
        <time>2017-03-26T08:31:54Z</time>
      </trkpt>
      <trkpt lat="45.35305" lon="4.99482">
        <ele>207.87</ele>
        <time>2017-03-26T08:31:55Z</time>
      </trkpt>
      <trkpt lat="45.35305" lon="4.99482">
        <ele>207.87</ele>
        <time>2017-03-26T08:31:56Z</time>
      </trkpt>
      <trkpt lat="45.35305" lon="4.99482">
        <ele>207.87</ele>
        <time>2017-03-26T08:31:57Z</time>
      </trkpt>
      <trkpt lat="45.35305" lon="4.99478">
        <ele>208.19</ele>
        <time>2017-03-26T08:31:58Z</time>
      </trkpt>
      <trkpt lat="45.35304" lon="4.99471">
        <ele>208.25</ele>
        <time>2017-03-26T08:31:59Z</time>
      </trkpt>
      <trkpt lat="45.35303" lon="4.99463">
        <ele>208.18</ele>
        <time>2017-03-26T08:32:00Z</time>
      </trkpt>
      <trkpt lat="45.35302" lon="4.99456">
        <ele>208.17</ele>
        <time>2017-03-26T08:32:01Z</time>
      </trkpt>
      <trkpt lat="45.35301" lon="4.99452">
        <ele>208.09</ele>
        <time>2017-03-26T08:32:02Z</time>
      </trkpt>
      <trkpt lat="45.353" lon="4.99449">
        <ele>208.15</ele>
        <time>2017-03-26T08:32:03Z</time>
      </trkpt>
      <trkpt lat="45.35299" lon="4.99447">
        <ele>208.24</ele>
        <time>2017-03-26T08:32:04Z</time>
      </trkpt>
      <trkpt lat="45.35298" lon="4.99446">
        <ele>208.26</ele>
        <time>2017-03-26T08:32:05Z</time>
      </trkpt>
      <trkpt lat="45.35298" lon="4.99445">
        <ele>208.27</ele>
        <time>2017-03-26T08:32:06Z</time>
      </trkpt>
      <trkpt lat="45.35298" lon="4.99445">
        <ele>208.35</ele>
        <time>2017-03-26T08:32:07Z</time>
      </trkpt>
      <trkpt lat="45.35298" lon="4.99445">
        <ele>208.36</ele>
        <time>2017-03-26T08:32:08Z</time>
      </trkpt>
      <trkpt lat="45.35298" lon="4.99445">
        <ele>208.37</ele>
        <time>2017-03-26T08:32:09Z</time>
      </trkpt>
      <trkpt lat="45.35297" lon="4.99441">
        <ele>208.29</ele>
        <time>2017-03-26T08:32:10Z</time>
      </trkpt>
      <trkpt lat="45.35295" lon="4.99433">
        <ele>208.27</ele>
        <time>2017-03-26T08:32:11Z</time>
      </trkpt>
      <trkpt lat="45.35292" lon="4.99425">
        <ele>208.27</ele>
        <time>2017-03-26T08:32:12Z</time>
      </trkpt>
      <trkpt lat="45.3529" lon="4.99415">
        <ele>208.27</ele>
        <time>2017-03-26T08:32:13Z</time>
      </trkpt>
      <trkpt lat="45.35288" lon="4.99403">
        <ele>208.35</ele>
        <time>2017-03-26T08:32:14Z</time>
      </trkpt>
      <trkpt lat="45.35287" lon="4.9939">
        <ele>208.28</ele>
        <time>2017-03-26T08:32:15Z</time>
      </trkpt>
      <trkpt lat="45.35285" lon="4.99377">
        <ele>208.27</ele>
        <time>2017-03-26T08:32:16Z</time>
      </trkpt>
      <trkpt lat="45.35283" lon="4.99364">
        <ele>208.27</ele>
        <time>2017-03-26T08:32:17Z</time>
      </trkpt>
      <trkpt lat="45.35282" lon="4.9935">
        <ele>208.27</ele>
        <time>2017-03-26T08:32:18Z</time>
      </trkpt>
      <trkpt lat="45.3528" lon="4.99337">
        <ele>208.19</ele>
        <time>2017-03-26T08:32:19Z</time>
      </trkpt>
      <trkpt lat="45.35278" lon="4.99324">
        <ele>208.01</ele>
        <time>2017-03-26T08:32:20Z</time>
      </trkpt>
      <trkpt lat="45.35276" lon="4.99311">
        <ele>207.98</ele>
        <time>2017-03-26T08:32:21Z</time>
      </trkpt>
      <trkpt lat="45.35274" lon="4.99299">
        <ele>207.73</ele>
        <time>2017-03-26T08:32:22Z</time>
      </trkpt>
      <trkpt lat="45.35273" lon="4.99287">
        <ele>207.6</ele>
        <time>2017-03-26T08:32:23Z</time>
      </trkpt>
      <trkpt lat="45.35272" lon="4.99276">
        <ele>207.49</ele>
        <time>2017-03-26T08:32:24Z</time>
      </trkpt>
      <trkpt lat="45.35271" lon="4.99263">
        <ele>207.39</ele>
        <time>2017-03-26T08:32:25Z</time>
      </trkpt>
      <trkpt lat="45.3527" lon="4.99249">
        <ele>207.29</ele>
        <time>2017-03-26T08:32:26Z</time>
      </trkpt>
      <trkpt lat="45.3527" lon="4.99235">
        <ele>207.27</ele>
        <time>2017-03-26T08:32:27Z</time>
      </trkpt>
      <trkpt lat="45.35271" lon="4.99221">
        <ele>207.27</ele>
        <time>2017-03-26T08:32:28Z</time>
      </trkpt>
      <trkpt lat="45.35271" lon="4.99205">
        <ele>207.27</ele>
        <time>2017-03-26T08:32:29Z</time>
      </trkpt>
      <trkpt lat="45.35273" lon="4.9919">
        <ele>207.27</ele>
        <time>2017-03-26T08:32:30Z</time>
      </trkpt>
      <trkpt lat="45.35274" lon="4.99174">
        <ele>207.19</ele>
        <time>2017-03-26T08:32:31Z</time>
      </trkpt>
      <trkpt lat="45.35276" lon="4.99158">
        <ele>207.25</ele>
        <time>2017-03-26T08:32:32Z</time>
      </trkpt>
      <trkpt lat="45.35277" lon="4.99142">
        <ele>207.34</ele>
        <time>2017-03-26T08:32:33Z</time>
      </trkpt>
      <trkpt lat="45.35279" lon="4.99126">
        <ele>207.36</ele>
        <time>2017-03-26T08:32:34Z</time>
      </trkpt>
      <trkpt lat="45.3528" lon="4.9911">
        <ele>207.37</ele>
        <time>2017-03-26T08:32:35Z</time>
      </trkpt>
      <trkpt lat="45.35282" lon="4.99095">
        <ele>207.45</ele>
        <time>2017-03-26T08:32:36Z</time>
      </trkpt>
      <trkpt lat="45.35284" lon="4.99081">
        <ele>207.46</ele>
        <time>2017-03-26T08:32:37Z</time>
      </trkpt>
      <trkpt lat="45.35285" lon="4.99069">
        <ele>207.87</ele>
        <time>2017-03-26T08:32:38Z</time>
      </trkpt>
      <trkpt lat="45.35286" lon="4.99056">
        <ele>208.11</ele>
        <time>2017-03-26T08:32:39Z</time>
      </trkpt>
      <trkpt lat="45.35288" lon="4.99044">
        <ele>208.23</ele>
        <time>2017-03-26T08:32:40Z</time>
      </trkpt>
      <trkpt lat="45.35289" lon="4.99032">
        <ele>208.5</ele>
        <time>2017-03-26T08:32:41Z</time>
      </trkpt>
      <trkpt lat="45.3529" lon="4.9902">
        <ele>208.63</ele>
        <time>2017-03-26T08:32:42Z</time>
      </trkpt>
      <trkpt lat="45.3529" lon="4.99009">
        <ele>208.66</ele>
        <time>2017-03-26T08:32:43Z</time>
      </trkpt>
      <trkpt lat="45.3529" lon="4.98997">
        <ele>208.75</ele>
        <time>2017-03-26T08:32:44Z</time>
      </trkpt>
      <trkpt lat="45.35289" lon="4.98987">
        <ele>208.76</ele>
        <time>2017-03-26T08:32:45Z</time>
      </trkpt>
      <trkpt lat="45.35288" lon="4.98976">
        <ele>208.93</ele>
        <time>2017-03-26T08:32:46Z</time>
      </trkpt>
      <trkpt lat="45.35287" lon="4.98967">
        <ele>209.04</ele>
        <time>2017-03-26T08:32:47Z</time>
      </trkpt>
      <trkpt lat="45.35286" lon="4.98957">
        <ele>209.22</ele>
        <time>2017-03-26T08:32:48Z</time>
      </trkpt>
      <trkpt lat="45.35285" lon="4.98948">
        <ele>209.1</ele>
        <time>2017-03-26T08:32:49Z</time>
      </trkpt>
      <trkpt lat="45.35284" lon="4.98938">
        <ele>208.99</ele>
        <time>2017-03-26T08:32:50Z</time>
      </trkpt>
      <trkpt lat="45.35282" lon="4.98927">
        <ele>208.89</ele>
        <time>2017-03-26T08:32:51Z</time>
      </trkpt>
      <trkpt lat="45.35281" lon="4.98916">
        <ele>208.87</ele>
        <time>2017-03-26T08:32:52Z</time>
      </trkpt>
      <trkpt lat="45.3528" lon="4.98905">
        <ele>208.95</ele>
        <time>2017-03-26T08:32:53Z</time>
      </trkpt>
      <trkpt lat="45.3528" lon="4.98894">
        <ele>208.96</ele>
        <time>2017-03-26T08:32:54Z</time>
      </trkpt>
      <trkpt lat="45.35281" lon="4.98882">
        <ele>208.97</ele>
        <time>2017-03-26T08:32:55Z</time>
      </trkpt>
      <trkpt lat="45.35282" lon="4.9887">
        <ele>208.97</ele>
        <time>2017-03-26T08:32:56Z</time>
      </trkpt>
      <trkpt lat="45.35283" lon="4.98857">
        <ele>208.97</ele>
        <time>2017-03-26T08:32:57Z</time>
      </trkpt>
      <trkpt lat="45.35284" lon="4.98844">
        <ele>208.97</ele>
        <time>2017-03-26T08:32:58Z</time>
      </trkpt>
      <trkpt lat="45.35286" lon="4.9883">
        <ele>209.21</ele>
        <time>2017-03-26T08:32:59Z</time>
      </trkpt>
      <trkpt lat="45.35288" lon="4.98817">
        <ele>209.18</ele>
        <time>2017-03-26T08:33:00Z</time>
      </trkpt>
      <trkpt lat="45.3529" lon="4.98804">
        <ele>209.25</ele>
        <time>2017-03-26T08:33:01Z</time>
      </trkpt>
      <trkpt lat="45.35293" lon="4.98791">
        <ele>209.26</ele>
        <time>2017-03-26T08:33:02Z</time>
      </trkpt>
      <trkpt lat="45.35297" lon="4.98779">
        <ele>209.99</ele>
        <time>2017-03-26T08:33:03Z</time>
      </trkpt>
      <trkpt lat="45.35302" lon="4.98767">
        <ele>210.21</ele>
        <time>2017-03-26T08:33:04Z</time>
      </trkpt>
      <trkpt lat="45.35309" lon="4.98753">
        <ele>210.42</ele>
        <time>2017-03-26T08:33:05Z</time>
      </trkpt>
      <trkpt lat="45.35315" lon="4.9874">
        <ele>210.54</ele>
        <time>2017-03-26T08:33:06Z</time>
      </trkpt>
      <trkpt lat="45.3532" lon="4.98726">
        <ele>210.88</ele>
        <time>2017-03-26T08:33:07Z</time>
      </trkpt>
      <trkpt lat="45.35326" lon="4.98712">
        <ele>211.03</ele>
        <time>2017-03-26T08:33:08Z</time>
      </trkpt>
      <trkpt lat="45.35332" lon="4.98698">
        <ele>211.22</ele>
        <time>2017-03-26T08:33:09Z</time>
      </trkpt>
      <trkpt lat="45.35338" lon="4.98684">
        <ele>211.1</ele>
        <time>2017-03-26T08:33:10Z</time>
      </trkpt>
      <trkpt lat="45.35343" lon="4.9867">
        <ele>211.15</ele>
        <time>2017-03-26T08:33:11Z</time>
      </trkpt>
      <trkpt lat="45.35349" lon="4.98657">
        <ele>211</ele>
        <time>2017-03-26T08:33:12Z</time>
      </trkpt>
      <trkpt lat="45.35354" lon="4.98645">
        <ele>211.05</ele>
        <time>2017-03-26T08:33:13Z</time>
      </trkpt>
      <trkpt lat="45.35358" lon="4.98635">
        <ele>211.22</ele>
        <time>2017-03-26T08:33:14Z</time>
      </trkpt>
      <trkpt lat="45.35362" lon="4.98625">
        <ele>211.42</ele>
        <time>2017-03-26T08:33:15Z</time>
      </trkpt>
      <trkpt lat="45.35365" lon="4.98615">
        <ele>211.7</ele>
        <time>2017-03-26T08:33:16Z</time>
      </trkpt>
      <trkpt lat="45.35367" lon="4.98606">
        <ele>211.83</ele>
        <time>2017-03-26T08:33:17Z</time>
      </trkpt>
      <trkpt lat="45.35369" lon="4.98599">
        <ele>212.18</ele>
        <time>2017-03-26T08:33:18Z</time>
      </trkpt>
      <trkpt lat="45.35371" lon="4.98593">
        <ele>212.49</ele>
        <time>2017-03-26T08:33:19Z</time>
      </trkpt>
      <trkpt lat="45.35373" lon="4.98589">
        <ele>212.79</ele>
        <time>2017-03-26T08:33:20Z</time>
      </trkpt>
      <trkpt lat="45.35375" lon="4.98587">
        <ele>212.77</ele>
        <time>2017-03-26T08:33:21Z</time>
      </trkpt>
      <trkpt lat="45.35377" lon="4.98585">
        <ele>212.85</ele>
        <time>2017-03-26T08:33:22Z</time>
      </trkpt>
      <trkpt lat="45.35378" lon="4.98584">
        <ele>213.1</ele>
        <time>2017-03-26T08:33:23Z</time>
      </trkpt>
      <trkpt lat="45.35378" lon="4.98584">
        <ele>213.23</ele>
        <time>2017-03-26T08:33:24Z</time>
      </trkpt>
      <trkpt lat="45.35378" lon="4.98584">
        <ele>213.34</ele>
        <time>2017-03-26T08:33:25Z</time>
      </trkpt>
      <trkpt lat="45.35378" lon="4.98584">
        <ele>213.36</ele>
        <time>2017-03-26T08:33:26Z</time>
      </trkpt>
      <trkpt lat="45.35378" lon="4.98584">
        <ele>213.37</ele>
        <time>2017-03-26T08:33:27Z</time>
      </trkpt>
      <trkpt lat="45.35378" lon="4.98584">
        <ele>213.37</ele>
        <time>2017-03-26T08:33:28Z</time>
      </trkpt>
      <trkpt lat="45.35378" lon="4.98584">
        <ele>213.37</ele>
        <time>2017-03-26T08:33:29Z</time>
      </trkpt>
      <trkpt lat="45.35378" lon="4.98584">
        <ele>213.37</ele>
        <time>2017-03-26T08:33:30Z</time>
      </trkpt>
      <trkpt lat="45.35378" lon="4.98584">
        <ele>213.37</ele>
        <time>2017-03-26T08:33:31Z</time>
      </trkpt>
      <trkpt lat="45.35378" lon="4.98584">
        <ele>213.37</ele>
        <time>2017-03-26T08:33:32Z</time>
      </trkpt>
      <trkpt lat="45.35378" lon="4.98584">
        <ele>213.37</ele>
        <time>2017-03-26T08:33:33Z</time>
      </trkpt>
      <trkpt lat="45.35378" lon="4.98584">
        <ele>213.37</ele>
        <time>2017-03-26T08:33:34Z</time>
      </trkpt>
      <trkpt lat="45.35378" lon="4.98584">
        <ele>213.37</ele>
        <time>2017-03-26T08:33:35Z</time>
      </trkpt>
      <trkpt lat="45.35378" lon="4.98584">
        <ele>213.37</ele>
        <time>2017-03-26T08:33:36Z</time>
      </trkpt>
      <trkpt lat="45.35378" lon="4.98584">
        <ele>213.37</ele>
        <time>2017-03-26T08:33:37Z</time>
      </trkpt>
      <trkpt lat="45.35378" lon="4.98584">
        <ele>213.37</ele>
        <time>2017-03-26T08:33:38Z</time>
      </trkpt>
      <trkpt lat="45.35378" lon="4.98584">
        <ele>213.37</ele>
        <time>2017-03-26T08:33:39Z</time>
      </trkpt>
      <trkpt lat="45.35378" lon="4.98584">
        <ele>213.37</ele>
        <time>2017-03-26T08:33:40Z</time>
      </trkpt>
      <trkpt lat="45.35378" lon="4.98584">
        <ele>213.37</ele>
        <time>2017-03-26T08:33:41Z</time>
      </trkpt>
      <trkpt lat="45.35378" lon="4.98584">
        <ele>213.37</ele>
        <time>2017-03-26T08:33:42Z</time>
      </trkpt>
      <trkpt lat="45.35378" lon="4.98584">
        <ele>213.37</ele>
        <time>2017-03-26T08:33:43Z</time>
      </trkpt>
      <trkpt lat="45.35378" lon="4.98584">
        <ele>213.37</ele>
        <time>2017-03-26T08:33:44Z</time>
      </trkpt>
      <trkpt lat="45.35378" lon="4.98584">
        <ele>213.37</ele>
        <time>2017-03-26T08:33:45Z</time>
      </trkpt>
      <trkpt lat="45.35378" lon="4.98584">
        <ele>213.37</ele>
        <time>2017-03-26T08:33:46Z</time>
      </trkpt>
      <trkpt lat="45.35378" lon="4.98584">
        <ele>213.37</ele>
        <time>2017-03-26T08:33:47Z</time>
      </trkpt>
      <trkpt lat="45.35378" lon="4.98584">
        <ele>213.37</ele>
        <time>2017-03-26T08:33:48Z</time>
      </trkpt>
      <trkpt lat="45.35378" lon="4.98584">
        <ele>213.37</ele>
        <time>2017-03-26T08:33:49Z</time>
      </trkpt>
      <trkpt lat="45.35378" lon="4.98584">
        <ele>213.37</ele>
        <time>2017-03-26T08:33:50Z</time>
      </trkpt>
      <trkpt lat="45.35378" lon="4.98584">
        <ele>213.37</ele>
        <time>2017-03-26T08:33:51Z</time>
      </trkpt>
      <trkpt lat="45.35378" lon="4.98584">
        <ele>213.37</ele>
        <time>2017-03-26T08:33:52Z</time>
      </trkpt>
      <trkpt lat="45.35378" lon="4.98584">
        <ele>213.37</ele>
        <time>2017-03-26T08:33:53Z</time>
      </trkpt>
      <trkpt lat="45.35378" lon="4.98584">
        <ele>213.37</ele>
        <time>2017-03-26T08:33:54Z</time>
      </trkpt>
      <trkpt lat="45.35378" lon="4.98584">
        <ele>213.37</ele>
        <time>2017-03-26T08:33:55Z</time>
      </trkpt>
      <trkpt lat="45.35378" lon="4.98584">
        <ele>213.37</ele>
        <time>2017-03-26T08:33:56Z</time>
      </trkpt>
      <trkpt lat="45.35378" lon="4.98584">
        <ele>213.37</ele>
        <time>2017-03-26T08:33:57Z</time>
      </trkpt>
      <trkpt lat="45.35378" lon="4.98584">
        <ele>213.37</ele>
        <time>2017-03-26T08:33:58Z</time>
      </trkpt>
      <trkpt lat="45.35378" lon="4.98584">
        <ele>213.37</ele>
        <time>2017-03-26T08:33:59Z</time>
      </trkpt>
      <trkpt lat="45.35378" lon="4.98584">
        <ele>213.37</ele>
        <time>2017-03-26T08:34:00Z</time>
      </trkpt>
      <trkpt lat="45.35378" lon="4.98584">
        <ele>213.37</ele>
        <time>2017-03-26T08:34:01Z</time>
      </trkpt>
      <trkpt lat="45.35378" lon="4.98584">
        <ele>213.37</ele>
        <time>2017-03-26T08:34:02Z</time>
      </trkpt>
      <trkpt lat="45.35378" lon="4.98584">
        <ele>213.37</ele>
        <time>2017-03-26T08:34:03Z</time>
      </trkpt>
      <trkpt lat="45.35378" lon="4.98584">
        <ele>213.37</ele>
        <time>2017-03-26T08:34:04Z</time>
      </trkpt>
      <trkpt lat="45.35378" lon="4.98584">
        <ele>213.37</ele>
        <time>2017-03-26T08:34:05Z</time>
      </trkpt>
      <trkpt lat="45.35378" lon="4.98584">
        <ele>213.37</ele>
        <time>2017-03-26T08:34:06Z</time>
      </trkpt>
      <trkpt lat="45.35378" lon="4.98584">
        <ele>213.37</ele>
        <time>2017-03-26T08:34:07Z</time>
      </trkpt>
      <trkpt lat="45.35378" lon="4.98584">
        <ele>213.37</ele>
        <time>2017-03-26T08:34:08Z</time>
      </trkpt>
      <trkpt lat="45.35378" lon="4.98584">
        <ele>213.37</ele>
        <time>2017-03-26T08:34:09Z</time>
      </trkpt>
      <trkpt lat="45.35378" lon="4.98584">
        <ele>213.37</ele>
        <time>2017-03-26T08:34:10Z</time>
      </trkpt>
      <trkpt lat="45.35378" lon="4.98584">
        <ele>213.37</ele>
        <time>2017-03-26T08:34:11Z</time>
      </trkpt>
      <trkpt lat="45.35378" lon="4.98584">
        <ele>213.37</ele>
        <time>2017-03-26T08:34:12Z</time>
      </trkpt>
      <trkpt lat="45.35378" lon="4.98584">
        <ele>213.37</ele>
        <time>2017-03-26T08:34:13Z</time>
      </trkpt>
      <trkpt lat="45.35378" lon="4.98584">
        <ele>213.37</ele>
        <time>2017-03-26T08:34:14Z</time>
      </trkpt>
      <trkpt lat="45.35378" lon="4.98584">
        <ele>213.37</ele>
        <time>2017-03-26T08:34:15Z</time>
      </trkpt>
      <trkpt lat="45.35378" lon="4.98584">
        <ele>213.37</ele>
        <time>2017-03-26T08:34:16Z</time>
      </trkpt>
      <trkpt lat="45.35378" lon="4.98584">
        <ele>213.37</ele>
        <time>2017-03-26T08:34:17Z</time>
      </trkpt>
      <trkpt lat="45.35378" lon="4.98584">
        <ele>213.37</ele>
        <time>2017-03-26T08:34:18Z</time>
      </trkpt>
      <trkpt lat="45.35378" lon="4.98584">
        <ele>213.37</ele>
        <time>2017-03-26T08:34:19Z</time>
      </trkpt>
      <trkpt lat="45.35378" lon="4.98584">
        <ele>213.37</ele>
        <time>2017-03-26T08:34:20Z</time>
      </trkpt>
      <trkpt lat="45.35378" lon="4.98584">
        <ele>213.37</ele>
        <time>2017-03-26T08:34:21Z</time>
      </trkpt>
      <trkpt lat="45.35378" lon="4.98584">
        <ele>213.37</ele>
        <time>2017-03-26T08:34:22Z</time>
      </trkpt>
      <trkpt lat="45.35378" lon="4.98584">
        <ele>213.37</ele>
        <time>2017-03-26T08:34:23Z</time>
      </trkpt>
      <trkpt lat="45.35378" lon="4.98584">
        <ele>213.37</ele>
        <time>2017-03-26T08:34:24Z</time>
      </trkpt>
      <trkpt lat="45.35378" lon="4.98584">
        <ele>213.37</ele>
        <time>2017-03-26T08:34:25Z</time>
      </trkpt>
      <trkpt lat="45.35378" lon="4.98584">
        <ele>213.37</ele>
        <time>2017-03-26T08:34:26Z</time>
      </trkpt>
      <trkpt lat="45.35378" lon="4.98584">
        <ele>213.37</ele>
        <time>2017-03-26T08:34:27Z</time>
      </trkpt>
      <trkpt lat="45.35378" lon="4.98584">
        <ele>213.37</ele>
        <time>2017-03-26T08:34:28Z</time>
      </trkpt>
      <trkpt lat="45.35378" lon="4.98584">
        <ele>213.37</ele>
        <time>2017-03-26T08:34:29Z</time>
      </trkpt>
      <trkpt lat="45.35378" lon="4.98584">
        <ele>213.37</ele>
        <time>2017-03-26T08:34:30Z</time>
      </trkpt>
      <trkpt lat="45.35378" lon="4.98584">
        <ele>213.37</ele>
        <time>2017-03-26T08:34:31Z</time>
      </trkpt>
      <trkpt lat="45.35378" lon="4.98584">
        <ele>213.37</ele>
        <time>2017-03-26T08:34:32Z</time>
      </trkpt>
      <trkpt lat="45.35378" lon="4.98584">
        <ele>213.37</ele>
        <time>2017-03-26T08:34:33Z</time>
      </trkpt>
      <trkpt lat="45.35378" lon="4.98584">
        <ele>213.37</ele>
        <time>2017-03-26T08:34:34Z</time>
      </trkpt>
      <trkpt lat="45.35378" lon="4.98584">
        <ele>213.37</ele>
        <time>2017-03-26T08:34:35Z</time>
      </trkpt>
      <trkpt lat="45.35378" lon="4.98584">
        <ele>213.37</ele>
        <time>2017-03-26T08:34:36Z</time>
      </trkpt>
      <trkpt lat="45.35378" lon="4.98584">
        <ele>213.37</ele>
        <time>2017-03-26T08:34:37Z</time>
      </trkpt>
      <trkpt lat="45.35378" lon="4.98584">
        <ele>213.37</ele>
        <time>2017-03-26T08:34:38Z</time>
      </trkpt>
      <trkpt lat="45.35378" lon="4.98584">
        <ele>213.37</ele>
        <time>2017-03-26T08:34:39Z</time>
      </trkpt>
      <trkpt lat="45.35378" lon="4.98584">
        <ele>213.37</ele>
        <time>2017-03-26T08:34:40Z</time>
      </trkpt>
      <trkpt lat="45.35378" lon="4.98584">
        <ele>213.37</ele>
        <time>2017-03-26T08:34:41Z</time>
      </trkpt>
      <trkpt lat="45.35378" lon="4.98584">
        <ele>213.37</ele>
        <time>2017-03-26T08:34:42Z</time>
      </trkpt>
      <trkpt lat="45.35378" lon="4.98584">
        <ele>213.37</ele>
        <time>2017-03-26T08:34:43Z</time>
      </trkpt>
      <trkpt lat="45.35378" lon="4.98584">
        <ele>213.37</ele>
        <time>2017-03-26T08:34:44Z</time>
      </trkpt>
      <trkpt lat="45.35378" lon="4.98584">
        <ele>213.37</ele>
        <time>2017-03-26T08:34:45Z</time>
      </trkpt>
      <trkpt lat="45.35378" lon="4.98584">
        <ele>213.37</ele>
        <time>2017-03-26T08:34:46Z</time>
      </trkpt>
      <trkpt lat="45.35378" lon="4.98584">
        <ele>213.37</ele>
        <time>2017-03-26T08:34:47Z</time>
      </trkpt>
      <trkpt lat="45.35378" lon="4.98584">
        <ele>213.37</ele>
        <time>2017-03-26T08:34:48Z</time>
      </trkpt>
      <trkpt lat="45.35378" lon="4.98584">
        <ele>213.37</ele>
        <time>2017-03-26T08:34:49Z</time>
      </trkpt>
      <trkpt lat="45.35378" lon="4.98584">
        <ele>213.37</ele>
        <time>2017-03-26T08:34:50Z</time>
      </trkpt>
      <trkpt lat="45.35378" lon="4.98584">
        <ele>213.37</ele>
        <time>2017-03-26T08:34:51Z</time>
      </trkpt>
      <trkpt lat="45.35378" lon="4.98584">
        <ele>213.37</ele>
        <time>2017-03-26T08:34:52Z</time>
      </trkpt>
      <trkpt lat="45.35378" lon="4.98584">
        <ele>213.37</ele>
        <time>2017-03-26T08:34:53Z</time>
      </trkpt>
      <trkpt lat="45.35378" lon="4.98584">
        <ele>213.37</ele>
        <time>2017-03-26T08:34:54Z</time>
      </trkpt>
      <trkpt lat="45.35378" lon="4.98584">
        <ele>213.37</ele>
        <time>2017-03-26T08:34:55Z</time>
      </trkpt>
      <trkpt lat="45.35378" lon="4.98584">
        <ele>213.37</ele>
        <time>2017-03-26T08:34:56Z</time>
      </trkpt>
      <trkpt lat="45.35378" lon="4.98584">
        <ele>213.37</ele>
        <time>2017-03-26T08:34:57Z</time>
      </trkpt>
      <trkpt lat="45.35378" lon="4.98584">
        <ele>213.37</ele>
        <time>2017-03-26T08:34:58Z</time>
      </trkpt>
      <trkpt lat="45.35378" lon="4.98584">
        <ele>213.37</ele>
        <time>2017-03-26T08:34:59Z</time>
      </trkpt>
      <trkpt lat="45.35378" lon="4.98584">
        <ele>213.37</ele>
        <time>2017-03-26T08:35:00Z</time>
      </trkpt>
      <trkpt lat="45.35378" lon="4.98584">
        <ele>213.37</ele>
        <time>2017-03-26T08:35:01Z</time>
      </trkpt>
      <trkpt lat="45.35378" lon="4.98584">
        <ele>213.37</ele>
        <time>2017-03-26T08:35:02Z</time>
      </trkpt>
      <trkpt lat="45.35378" lon="4.98584">
        <ele>213.37</ele>
        <time>2017-03-26T08:35:03Z</time>
      </trkpt>
      <trkpt lat="45.35378" lon="4.98584">
        <ele>213.37</ele>
        <time>2017-03-26T08:35:04Z</time>
      </trkpt>
      <trkpt lat="45.35378" lon="4.98584">
        <ele>213.37</ele>
        <time>2017-03-26T08:35:05Z</time>
      </trkpt>
      <trkpt lat="45.35378" lon="4.98584">
        <ele>213.37</ele>
        <time>2017-03-26T08:35:06Z</time>
      </trkpt>
      <trkpt lat="45.35378" lon="4.98584">
        <ele>213.37</ele>
        <time>2017-03-26T08:35:07Z</time>
      </trkpt>
      <trkpt lat="45.35378" lon="4.98584">
        <ele>213.37</ele>
        <time>2017-03-26T08:35:08Z</time>
      </trkpt>
      <trkpt lat="45.35378" lon="4.98584">
        <ele>213.37</ele>
        <time>2017-03-26T08:35:09Z</time>
      </trkpt>
      <trkpt lat="45.35378" lon="4.98584">
        <ele>213.37</ele>
        <time>2017-03-26T08:35:10Z</time>
      </trkpt>
      <trkpt lat="45.35378" lon="4.98584">
        <ele>213.37</ele>
        <time>2017-03-26T08:35:11Z</time>
      </trkpt>
      <trkpt lat="45.35378" lon="4.98584">
        <ele>213.37</ele>
        <time>2017-03-26T08:35:12Z</time>
      </trkpt>
      <trkpt lat="45.35378" lon="4.98584">
        <ele>213.37</ele>
        <time>2017-03-26T08:35:13Z</time>
      </trkpt>
      <trkpt lat="45.35378" lon="4.98584">
        <ele>213.37</ele>
        <time>2017-03-26T08:35:14Z</time>
      </trkpt>
      <trkpt lat="45.35378" lon="4.98584">
        <ele>213.37</ele>
        <time>2017-03-26T08:35:15Z</time>
      </trkpt>
      <trkpt lat="45.35378" lon="4.98584">
        <ele>213.37</ele>
        <time>2017-03-26T08:35:16Z</time>
      </trkpt>
      <trkpt lat="45.35378" lon="4.98584">
        <ele>213.37</ele>
        <time>2017-03-26T08:35:17Z</time>
      </trkpt>
      <trkpt lat="45.35378" lon="4.98584">
        <ele>213.37</ele>
        <time>2017-03-26T08:35:18Z</time>
      </trkpt>
      <trkpt lat="45.35378" lon="4.98584">
        <ele>213.37</ele>
        <time>2017-03-26T08:35:19Z</time>
      </trkpt>
      <trkpt lat="45.35378" lon="4.98584">
        <ele>213.37</ele>
        <time>2017-03-26T08:35:20Z</time>
      </trkpt>
      <trkpt lat="45.35378" lon="4.98584">
        <ele>213.37</ele>
        <time>2017-03-26T08:35:21Z</time>
      </trkpt>
      <trkpt lat="45.35378" lon="4.98584">
        <ele>213.37</ele>
        <time>2017-03-26T08:35:22Z</time>
      </trkpt>
      <trkpt lat="45.35378" lon="4.98584">
        <ele>213.37</ele>
        <time>2017-03-26T08:35:23Z</time>
      </trkpt>
      <trkpt lat="45.35378" lon="4.98584">
        <ele>213.37</ele>
        <time>2017-03-26T08:35:24Z</time>
      </trkpt>
      <trkpt lat="45.35378" lon="4.98584">
        <ele>213.37</ele>
        <time>2017-03-26T08:35:25Z</time>
      </trkpt>
      <trkpt lat="45.35378" lon="4.98584">
        <ele>213.37</ele>
        <time>2017-03-26T08:35:26Z</time>
      </trkpt>
      <trkpt lat="45.35378" lon="4.98584">
        <ele>213.37</ele>
        <time>2017-03-26T08:35:27Z</time>
      </trkpt>
      <trkpt lat="45.35378" lon="4.98584">
        <ele>213.37</ele>
        <time>2017-03-26T08:35:28Z</time>
      </trkpt>
      <trkpt lat="45.35378" lon="4.98584">
        <ele>213.37</ele>
        <time>2017-03-26T08:35:29Z</time>
      </trkpt>
      <trkpt lat="45.35378" lon="4.98584">
        <ele>213.37</ele>
        <time>2017-03-26T08:35:30Z</time>
      </trkpt>
      <trkpt lat="45.35378" lon="4.98584">
        <ele>213.37</ele>
        <time>2017-03-26T08:35:31Z</time>
      </trkpt>
      <trkpt lat="45.35378" lon="4.98584">
        <ele>213.37</ele>
        <time>2017-03-26T08:35:32Z</time>
      </trkpt>
      <trkpt lat="45.35378" lon="4.98584">
        <ele>213.37</ele>
        <time>2017-03-26T08:35:33Z</time>
      </trkpt>
      <trkpt lat="45.35378" lon="4.98584">
        <ele>213.37</ele>
        <time>2017-03-26T08:35:34Z</time>
      </trkpt>
      <trkpt lat="45.35378" lon="4.98584">
        <ele>213.37</ele>
        <time>2017-03-26T08:35:35Z</time>
      </trkpt>
      <trkpt lat="45.35378" lon="4.98584">
        <ele>213.37</ele>
        <time>2017-03-26T08:35:36Z</time>
      </trkpt>
      <trkpt lat="45.35378" lon="4.98584">
        <ele>213.37</ele>
        <time>2017-03-26T08:35:37Z</time>
      </trkpt>
      <trkpt lat="45.35378" lon="4.98584">
        <ele>213.37</ele>
        <time>2017-03-26T08:35:38Z</time>
      </trkpt>
      <trkpt lat="45.35378" lon="4.98584">
        <ele>213.37</ele>
        <time>2017-03-26T08:35:39Z</time>
      </trkpt>
      <trkpt lat="45.35378" lon="4.98584">
        <ele>213.37</ele>
        <time>2017-03-26T08:35:40Z</time>
      </trkpt>
      <trkpt lat="45.35378" lon="4.98584">
        <ele>213.37</ele>
        <time>2017-03-26T08:35:41Z</time>
      </trkpt>
      <trkpt lat="45.35378" lon="4.98584">
        <ele>213.37</ele>
        <time>2017-03-26T08:35:42Z</time>
      </trkpt>
      <trkpt lat="45.35378" lon="4.98584">
        <ele>213.37</ele>
        <time>2017-03-26T08:35:43Z</time>
      </trkpt>
      <trkpt lat="45.35378" lon="4.98584">
        <ele>213.37</ele>
        <time>2017-03-26T08:35:44Z</time>
      </trkpt>
      <trkpt lat="45.35378" lon="4.98584">
        <ele>213.37</ele>
        <time>2017-03-26T08:35:45Z</time>
      </trkpt>
      <trkpt lat="45.35378" lon="4.98584">
        <ele>213.37</ele>
        <time>2017-03-26T08:35:46Z</time>
      </trkpt>
      <trkpt lat="45.35378" lon="4.98584">
        <ele>213.37</ele>
        <time>2017-03-26T08:35:47Z</time>
      </trkpt>
      <trkpt lat="45.35378" lon="4.98584">
        <ele>213.37</ele>
        <time>2017-03-26T08:35:48Z</time>
      </trkpt>
      <trkpt lat="45.35378" lon="4.98584">
        <ele>213.37</ele>
        <time>2017-03-26T08:35:49Z</time>
      </trkpt>
      <trkpt lat="45.35378" lon="4.98584">
        <ele>213.37</ele>
        <time>2017-03-26T08:35:50Z</time>
      </trkpt>
      <trkpt lat="45.35378" lon="4.98584">
        <ele>213.37</ele>
        <time>2017-03-26T08:35:51Z</time>
      </trkpt>
      <trkpt lat="45.35378" lon="4.98584">
        <ele>213.37</ele>
        <time>2017-03-26T08:35:52Z</time>
      </trkpt>
      <trkpt lat="45.35378" lon="4.98584">
        <ele>213.37</ele>
        <time>2017-03-26T08:35:53Z</time>
      </trkpt>
      <trkpt lat="45.35378" lon="4.98584">
        <ele>213.37</ele>
        <time>2017-03-26T08:35:54Z</time>
      </trkpt>
      <trkpt lat="45.35378" lon="4.98584">
        <ele>213.37</ele>
        <time>2017-03-26T08:35:55Z</time>
      </trkpt>
      <trkpt lat="45.35378" lon="4.98584">
        <ele>213.37</ele>
        <time>2017-03-26T08:35:56Z</time>
      </trkpt>
      <trkpt lat="45.35378" lon="4.98584">
        <ele>213.37</ele>
        <time>2017-03-26T08:35:57Z</time>
      </trkpt>
      <trkpt lat="45.35378" lon="4.98584">
        <ele>213.37</ele>
        <time>2017-03-26T08:35:58Z</time>
      </trkpt>
      <trkpt lat="45.35378" lon="4.98584">
        <ele>213.37</ele>
        <time>2017-03-26T08:35:59Z</time>
      </trkpt>
      <trkpt lat="45.35378" lon="4.98584">
        <ele>213.37</ele>
        <time>2017-03-26T08:36:00Z</time>
      </trkpt>
      <trkpt lat="45.35378" lon="4.98584">
        <ele>213.37</ele>
        <time>2017-03-26T08:36:01Z</time>
      </trkpt>
      <trkpt lat="45.35378" lon="4.98584">
        <ele>213.37</ele>
        <time>2017-03-26T08:36:02Z</time>
      </trkpt>
      <trkpt lat="45.35378" lon="4.98584">
        <ele>213.37</ele>
        <time>2017-03-26T08:36:03Z</time>
      </trkpt>
      <trkpt lat="45.35378" lon="4.98584">
        <ele>213.37</ele>
        <time>2017-03-26T08:36:04Z</time>
      </trkpt>
      <trkpt lat="45.35378" lon="4.98584">
        <ele>213.37</ele>
        <time>2017-03-26T08:36:05Z</time>
      </trkpt>
      <trkpt lat="45.35378" lon="4.98584">
        <ele>213.37</ele>
        <time>2017-03-26T08:36:06Z</time>
      </trkpt>
      <trkpt lat="45.35378" lon="4.98584">
        <ele>213.37</ele>
        <time>2017-03-26T08:36:07Z</time>
      </trkpt>
      <trkpt lat="45.35378" lon="4.98584">
        <ele>213.37</ele>
        <time>2017-03-26T08:36:08Z</time>
      </trkpt>
      <trkpt lat="45.35378" lon="4.98584">
        <ele>213.37</ele>
        <time>2017-03-26T08:36:09Z</time>
      </trkpt>
      <trkpt lat="45.35378" lon="4.98584">
        <ele>213.37</ele>
        <time>2017-03-26T08:36:10Z</time>
      </trkpt>
      <trkpt lat="45.35378" lon="4.98584">
        <ele>213.37</ele>
        <time>2017-03-26T08:36:11Z</time>
      </trkpt>
      <trkpt lat="45.35378" lon="4.98584">
        <ele>213.37</ele>
        <time>2017-03-26T08:36:12Z</time>
      </trkpt>
      <trkpt lat="45.35378" lon="4.98584">
        <ele>213.37</ele>
        <time>2017-03-26T08:36:13Z</time>
      </trkpt>
      <trkpt lat="45.35378" lon="4.98584">
        <ele>213.37</ele>
        <time>2017-03-26T08:36:14Z</time>
      </trkpt>
      <trkpt lat="45.35378" lon="4.98584">
        <ele>213.37</ele>
        <time>2017-03-26T08:36:15Z</time>
      </trkpt>
      <trkpt lat="45.35378" lon="4.98584">
        <ele>213.37</ele>
        <time>2017-03-26T08:36:16Z</time>
      </trkpt>
      <trkpt lat="45.35378" lon="4.98584">
        <ele>213.37</ele>
        <time>2017-03-26T08:36:17Z</time>
      </trkpt>
      <trkpt lat="45.35378" lon="4.98584">
        <ele>213.37</ele>
        <time>2017-03-26T08:36:18Z</time>
      </trkpt>
      <trkpt lat="45.35378" lon="4.98584">
        <ele>213.37</ele>
        <time>2017-03-26T08:36:19Z</time>
      </trkpt>
      <trkpt lat="45.35378" lon="4.98584">
        <ele>213.37</ele>
        <time>2017-03-26T08:36:20Z</time>
      </trkpt>
      <trkpt lat="45.35378" lon="4.98584">
        <ele>213.37</ele>
        <time>2017-03-26T08:36:21Z</time>
      </trkpt>
      <trkpt lat="45.35378" lon="4.98584">
        <ele>213.37</ele>
        <time>2017-03-26T08:36:22Z</time>
      </trkpt>
      <trkpt lat="45.35378" lon="4.98584">
        <ele>213.37</ele>
        <time>2017-03-26T08:36:23Z</time>
      </trkpt>
      <trkpt lat="45.35378" lon="4.98584">
        <ele>213.37</ele>
        <time>2017-03-26T08:36:24Z</time>
      </trkpt>
      <trkpt lat="45.35378" lon="4.98584">
        <ele>213.37</ele>
        <time>2017-03-26T08:36:25Z</time>
      </trkpt>
      <trkpt lat="45.35378" lon="4.98584">
        <ele>213.37</ele>
        <time>2017-03-26T08:36:26Z</time>
      </trkpt>
      <trkpt lat="45.35378" lon="4.98584">
        <ele>213.37</ele>
        <time>2017-03-26T08:36:27Z</time>
      </trkpt>
      <trkpt lat="45.35378" lon="4.98584">
        <ele>213.37</ele>
        <time>2017-03-26T08:36:28Z</time>
      </trkpt>
      <trkpt lat="45.35378" lon="4.98584">
        <ele>213.37</ele>
        <time>2017-03-26T08:36:29Z</time>
      </trkpt>
      <trkpt lat="45.35378" lon="4.98584">
        <ele>213.37</ele>
        <time>2017-03-26T08:36:30Z</time>
      </trkpt>
      <trkpt lat="45.35378" lon="4.98584">
        <ele>213.37</ele>
        <time>2017-03-26T08:36:31Z</time>
      </trkpt>
      <trkpt lat="45.35378" lon="4.98584">
        <ele>213.37</ele>
        <time>2017-03-26T08:36:32Z</time>
      </trkpt>
      <trkpt lat="45.35378" lon="4.98584">
        <ele>213.37</ele>
        <time>2017-03-26T08:36:33Z</time>
      </trkpt>
      <trkpt lat="45.35378" lon="4.98584">
        <ele>213.37</ele>
        <time>2017-03-26T08:36:34Z</time>
      </trkpt>
      <trkpt lat="45.35378" lon="4.98584">
        <ele>213.37</ele>
        <time>2017-03-26T08:36:35Z</time>
      </trkpt>
      <trkpt lat="45.35378" lon="4.98584">
        <ele>213.37</ele>
        <time>2017-03-26T08:36:36Z</time>
      </trkpt>
      <trkpt lat="45.35378" lon="4.98584">
        <ele>213.37</ele>
        <time>2017-03-26T08:36:37Z</time>
      </trkpt>
      <trkpt lat="45.35378" lon="4.98584">
        <ele>213.37</ele>
        <time>2017-03-26T08:36:38Z</time>
      </trkpt>
      <trkpt lat="45.35378" lon="4.98584">
        <ele>213.37</ele>
        <time>2017-03-26T08:36:39Z</time>
      </trkpt>
      <trkpt lat="45.35378" lon="4.98584">
        <ele>213.37</ele>
        <time>2017-03-26T08:36:40Z</time>
      </trkpt>
      <trkpt lat="45.35378" lon="4.98584">
        <ele>213.37</ele>
        <time>2017-03-26T08:36:41Z</time>
      </trkpt>
      <trkpt lat="45.35378" lon="4.98584">
        <ele>213.37</ele>
        <time>2017-03-26T08:36:42Z</time>
      </trkpt>
      <trkpt lat="45.35378" lon="4.98584">
        <ele>213.37</ele>
        <time>2017-03-26T08:36:43Z</time>
      </trkpt>
      <trkpt lat="45.35378" lon="4.98584">
        <ele>213.37</ele>
        <time>2017-03-26T08:36:44Z</time>
      </trkpt>
      <trkpt lat="45.35378" lon="4.98584">
        <ele>213.37</ele>
        <time>2017-03-26T08:36:45Z</time>
      </trkpt>
      <trkpt lat="45.35378" lon="4.98584">
        <ele>213.37</ele>
        <time>2017-03-26T08:36:46Z</time>
      </trkpt>
      <trkpt lat="45.35378" lon="4.98584">
        <ele>213.37</ele>
        <time>2017-03-26T08:36:47Z</time>
      </trkpt>
      <trkpt lat="45.35378" lon="4.98584">
        <ele>213.37</ele>
        <time>2017-03-26T08:36:48Z</time>
      </trkpt>
      <trkpt lat="45.35378" lon="4.98584">
        <ele>213.37</ele>
        <time>2017-03-26T08:36:49Z</time>
      </trkpt>
      <trkpt lat="45.35378" lon="4.98584">
        <ele>213.37</ele>
        <time>2017-03-26T08:36:50Z</time>
      </trkpt>
      <trkpt lat="45.35378" lon="4.98584">
        <ele>213.37</ele>
        <time>2017-03-26T08:36:51Z</time>
      </trkpt>
      <trkpt lat="45.35378" lon="4.98584">
        <ele>213.37</ele>
        <time>2017-03-26T08:36:52Z</time>
      </trkpt>
      <trkpt lat="45.35378" lon="4.98584">
        <ele>213.37</ele>
        <time>2017-03-26T08:36:53Z</time>
      </trkpt>
      <trkpt lat="45.35378" lon="4.98584">
        <ele>213.37</ele>
        <time>2017-03-26T08:36:54Z</time>
      </trkpt>
      <trkpt lat="45.35378" lon="4.98584">
        <ele>213.37</ele>
        <time>2017-03-26T08:36:55Z</time>
      </trkpt>
      <trkpt lat="45.35378" lon="4.98584">
        <ele>213.37</ele>
        <time>2017-03-26T08:36:56Z</time>
      </trkpt>
      <trkpt lat="45.35378" lon="4.98584">
        <ele>213.37</ele>
        <time>2017-03-26T08:36:57Z</time>
      </trkpt>
      <trkpt lat="45.35378" lon="4.98584">
        <ele>213.37</ele>
        <time>2017-03-26T08:36:58Z</time>
      </trkpt>
      <trkpt lat="45.35378" lon="4.98584">
        <ele>213.37</ele>
        <time>2017-03-26T08:36:59Z</time>
      </trkpt>
      <trkpt lat="45.35378" lon="4.98584">
        <ele>213.37</ele>
        <time>2017-03-26T08:37:00Z</time>
      </trkpt>
      <trkpt lat="45.35378" lon="4.98584">
        <ele>213.37</ele>
        <time>2017-03-26T08:37:01Z</time>
      </trkpt>
      <trkpt lat="45.35378" lon="4.98584">
        <ele>213.37</ele>
        <time>2017-03-26T08:37:02Z</time>
      </trkpt>
      <trkpt lat="45.35378" lon="4.98584">
        <ele>213.37</ele>
        <time>2017-03-26T08:37:03Z</time>
      </trkpt>
      <trkpt lat="45.35378" lon="4.98584">
        <ele>213.37</ele>
        <time>2017-03-26T08:37:04Z</time>
      </trkpt>
      <trkpt lat="45.35378" lon="4.98584">
        <ele>213.37</ele>
        <time>2017-03-26T08:37:05Z</time>
      </trkpt>
      <trkpt lat="45.35378" lon="4.98584">
        <ele>213.37</ele>
        <time>2017-03-26T08:37:06Z</time>
      </trkpt>
      <trkpt lat="45.35378" lon="4.98584">
        <ele>213.37</ele>
        <time>2017-03-26T08:37:07Z</time>
      </trkpt>
      <trkpt lat="45.35378" lon="4.98584">
        <ele>213.37</ele>
        <time>2017-03-26T08:37:08Z</time>
      </trkpt>
      <trkpt lat="45.35378" lon="4.98584">
        <ele>213.37</ele>
        <time>2017-03-26T08:37:09Z</time>
      </trkpt>
      <trkpt lat="45.35378" lon="4.98584">
        <ele>213.37</ele>
        <time>2017-03-26T08:37:10Z</time>
      </trkpt>
      <trkpt lat="45.35378" lon="4.98584">
        <ele>213.37</ele>
        <time>2017-03-26T08:37:11Z</time>
      </trkpt>
      <trkpt lat="45.35378" lon="4.98584">
        <ele>213.37</ele>
        <time>2017-03-26T08:37:12Z</time>
      </trkpt>
      <trkpt lat="45.35378" lon="4.98584">
        <ele>213.37</ele>
        <time>2017-03-26T08:37:13Z</time>
      </trkpt>
      <trkpt lat="45.35378" lon="4.98584">
        <ele>213.37</ele>
        <time>2017-03-26T08:37:14Z</time>
      </trkpt>
      <trkpt lat="45.35378" lon="4.98584">
        <ele>213.37</ele>
        <time>2017-03-26T08:37:15Z</time>
      </trkpt>
      <trkpt lat="45.35378" lon="4.98584">
        <ele>213.37</ele>
        <time>2017-03-26T08:37:16Z</time>
      </trkpt>
      <trkpt lat="45.35378" lon="4.98584">
        <ele>213.37</ele>
        <time>2017-03-26T08:37:17Z</time>
      </trkpt>
      <trkpt lat="45.35378" lon="4.98584">
        <ele>213.37</ele>
        <time>2017-03-26T08:37:18Z</time>
      </trkpt>
      <trkpt lat="45.35378" lon="4.98584">
        <ele>213.37</ele>
        <time>2017-03-26T08:37:19Z</time>
      </trkpt>
      <trkpt lat="45.35378" lon="4.98584">
        <ele>213.37</ele>
        <time>2017-03-26T08:37:20Z</time>
      </trkpt>
      <trkpt lat="45.35378" lon="4.98584">
        <ele>213.37</ele>
        <time>2017-03-26T08:37:21Z</time>
      </trkpt>
      <trkpt lat="45.35378" lon="4.98584">
        <ele>213.37</ele>
        <time>2017-03-26T08:37:22Z</time>
      </trkpt>
      <trkpt lat="45.35378" lon="4.98584">
        <ele>213.37</ele>
        <time>2017-03-26T08:37:23Z</time>
      </trkpt>
      <trkpt lat="45.35378" lon="4.98584">
        <ele>213.37</ele>
        <time>2017-03-26T08:37:24Z</time>
      </trkpt>
      <trkpt lat="45.35378" lon="4.98584">
        <ele>213.37</ele>
        <time>2017-03-26T08:37:25Z</time>
      </trkpt>
      <trkpt lat="45.35378" lon="4.98584">
        <ele>213.37</ele>
        <time>2017-03-26T08:37:26Z</time>
      </trkpt>
      <trkpt lat="45.35378" lon="4.98584">
        <ele>213.37</ele>
        <time>2017-03-26T08:37:27Z</time>
      </trkpt>
      <trkpt lat="45.35378" lon="4.98584">
        <ele>213.37</ele>
        <time>2017-03-26T08:37:28Z</time>
      </trkpt>
      <trkpt lat="45.35378" lon="4.98584">
        <ele>213.37</ele>
        <time>2017-03-26T08:37:29Z</time>
      </trkpt>
      <trkpt lat="45.35378" lon="4.98584">
        <ele>213.37</ele>
        <time>2017-03-26T08:37:30Z</time>
      </trkpt>
      <trkpt lat="45.35378" lon="4.98584">
        <ele>213.37</ele>
        <time>2017-03-26T08:37:31Z</time>
      </trkpt>
      <trkpt lat="45.35378" lon="4.98584">
        <ele>213.37</ele>
        <time>2017-03-26T08:37:32Z</time>
      </trkpt>
      <trkpt lat="45.35378" lon="4.98584">
        <ele>213.37</ele>
        <time>2017-03-26T08:37:33Z</time>
      </trkpt>
      <trkpt lat="45.35378" lon="4.98584">
        <ele>213.37</ele>
        <time>2017-03-26T08:37:34Z</time>
      </trkpt>
      <trkpt lat="45.35378" lon="4.98584">
        <ele>213.37</ele>
        <time>2017-03-26T08:37:35Z</time>
      </trkpt>
      <trkpt lat="45.35378" lon="4.98584">
        <ele>213.37</ele>
        <time>2017-03-26T08:37:36Z</time>
      </trkpt>
      <trkpt lat="45.35378" lon="4.98584">
        <ele>213.37</ele>
        <time>2017-03-26T08:37:37Z</time>
      </trkpt>
      <trkpt lat="45.35378" lon="4.98584">
        <ele>213.37</ele>
        <time>2017-03-26T08:37:38Z</time>
      </trkpt>
      <trkpt lat="45.35378" lon="4.98584">
        <ele>213.37</ele>
        <time>2017-03-26T08:37:39Z</time>
      </trkpt>
      <trkpt lat="45.35378" lon="4.98584">
        <ele>213.37</ele>
        <time>2017-03-26T08:37:40Z</time>
      </trkpt>
      <trkpt lat="45.35382" lon="4.9858">
        <ele>214.41</ele>
        <time>2017-03-26T08:37:41Z</time>
      </trkpt>
      <trkpt lat="45.35386" lon="4.98575">
        <ele>214.62</ele>
        <time>2017-03-26T08:37:42Z</time>
      </trkpt>
      <trkpt lat="45.35391" lon="4.98569">
        <ele>214.66</ele>
        <time>2017-03-26T08:37:43Z</time>
      </trkpt>
      <trkpt lat="45.35398" lon="4.98562">
        <ele>214.58</ele>
        <time>2017-03-26T08:37:44Z</time>
      </trkpt>
      <trkpt lat="45.35406" lon="4.98555">
        <ele>214.65</ele>
        <time>2017-03-26T08:37:45Z</time>
      </trkpt>
      <trkpt lat="45.35414" lon="4.98549">
        <ele>214.66</ele>
        <time>2017-03-26T08:37:46Z</time>
      </trkpt>
      <trkpt lat="45.35423" lon="4.98544">
        <ele>214.67</ele>
        <time>2017-03-26T08:37:47Z</time>
      </trkpt>
      <trkpt lat="45.35432" lon="4.98539">
        <ele>214.67</ele>
        <time>2017-03-26T08:37:48Z</time>
      </trkpt>
      <trkpt lat="45.35443" lon="4.98536">
        <ele>214.51</ele>
        <time>2017-03-26T08:37:49Z</time>
      </trkpt>
      <trkpt lat="45.35454" lon="4.98533">
        <ele>214.39</ele>
        <time>2017-03-26T08:37:50Z</time>
      </trkpt>
      <trkpt lat="45.35466" lon="4.98531">
        <ele>214.29</ele>
        <time>2017-03-26T08:37:51Z</time>
      </trkpt>
      <trkpt lat="45.35477" lon="4.98528">
        <ele>214.27</ele>
        <time>2017-03-26T08:37:52Z</time>
      </trkpt>
      <trkpt lat="45.3549" lon="4.98526">
        <ele>214.43</ele>
        <time>2017-03-26T08:37:53Z</time>
      </trkpt>
      <trkpt lat="45.35503" lon="4.98523">
        <ele>214.3</ele>
        <time>2017-03-26T08:37:54Z</time>
      </trkpt>
      <trkpt lat="45.35516" lon="4.9852">
        <ele>214.27</ele>
        <time>2017-03-26T08:37:55Z</time>
      </trkpt>
      <trkpt lat="45.35529" lon="4.98516">
        <ele>214.27</ele>
        <time>2017-03-26T08:37:56Z</time>
      </trkpt>
      <trkpt lat="45.35542" lon="4.98511">
        <ele>214.27</ele>
        <time>2017-03-26T08:37:57Z</time>
      </trkpt>
      <trkpt lat="45.35556" lon="4.98507">
        <ele>214.19</ele>
        <time>2017-03-26T08:37:58Z</time>
      </trkpt>
      <trkpt lat="45.3557" lon="4.98503">
        <ele>214.01</ele>
        <time>2017-03-26T08:37:59Z</time>
      </trkpt>
      <trkpt lat="45.35585" lon="4.985">
        <ele>213.98</ele>
        <time>2017-03-26T08:38:00Z</time>
      </trkpt>
      <trkpt lat="45.35599" lon="4.98498">
        <ele>213.81</ele>
        <time>2017-03-26T08:38:01Z</time>
      </trkpt>
      <trkpt lat="45.35614" lon="4.98496">
        <ele>213.86</ele>
        <time>2017-03-26T08:38:02Z</time>
      </trkpt>
      <trkpt lat="45.35628" lon="4.98494">
        <ele>214.26</ele>
        <time>2017-03-26T08:38:03Z</time>
      </trkpt>
      <trkpt lat="45.35641" lon="4.98492">
        <ele>214.43</ele>
        <time>2017-03-26T08:38:04Z</time>
      </trkpt>
      <trkpt lat="45.35654" lon="4.98488">
        <ele>214.22</ele>
        <time>2017-03-26T08:38:05Z</time>
      </trkpt>
      <trkpt lat="45.35667" lon="4.98482">
        <ele>214.18</ele>
        <time>2017-03-26T08:38:06Z</time>
      </trkpt>
      <trkpt lat="45.35679" lon="4.98473">
        <ele>214.33</ele>
        <time>2017-03-26T08:38:07Z</time>
      </trkpt>
      <trkpt lat="45.35691" lon="4.98462">
        <ele>214.84</ele>
        <time>2017-03-26T08:38:08Z</time>
      </trkpt>
      <trkpt lat="45.35703" lon="4.9845">
        <ele>215.34</ele>
        <time>2017-03-26T08:38:09Z</time>
      </trkpt>
      <trkpt lat="45.35716" lon="4.98439">
        <ele>215.68</ele>
        <time>2017-03-26T08:38:10Z</time>
      </trkpt>
      <trkpt lat="45.35729" lon="4.98428">
        <ele>215.83</ele>
        <time>2017-03-26T08:38:11Z</time>
      </trkpt>
      <trkpt lat="45.35742" lon="4.98418">
        <ele>216.02</ele>
        <time>2017-03-26T08:38:12Z</time>
      </trkpt>
      <trkpt lat="45.35756" lon="4.98407">
        <ele>216.22</ele>
        <time>2017-03-26T08:38:13Z</time>
      </trkpt>
      <trkpt lat="45.35769" lon="4.98396">
        <ele>216.5</ele>
        <time>2017-03-26T08:38:14Z</time>
      </trkpt>
      <trkpt lat="45.35782" lon="4.98384">
        <ele>217.19</ele>
        <time>2017-03-26T08:38:15Z</time>
      </trkpt>
      <trkpt lat="45.35794" lon="4.98371">
        <ele>217.73</ele>
        <time>2017-03-26T08:38:16Z</time>
      </trkpt>
      <trkpt lat="45.35807" lon="4.98358">
        <ele>218.32</ele>
        <time>2017-03-26T08:38:17Z</time>
      </trkpt>
      <trkpt lat="45.3582" lon="4.98344">
        <ele>219.08</ele>
        <time>2017-03-26T08:38:18Z</time>
      </trkpt>
      <trkpt lat="45.35832" lon="4.9833">
        <ele>220.03</ele>
        <time>2017-03-26T08:38:19Z</time>
      </trkpt>
      <trkpt lat="45.35843" lon="4.98315">
        <ele>221.02</ele>
        <time>2017-03-26T08:38:20Z</time>
      </trkpt>
      <trkpt lat="45.35854" lon="4.98299">
        <ele>222.26</ele>
        <time>2017-03-26T08:38:21Z</time>
      </trkpt>
      <trkpt lat="45.35863" lon="4.98283">
        <ele>223.39</ele>
        <time>2017-03-26T08:38:22Z</time>
      </trkpt>
      <trkpt lat="45.35873" lon="4.98267">
        <ele>224.49</ele>
        <time>2017-03-26T08:38:23Z</time>
      </trkpt>
      <trkpt lat="45.35883" lon="4.98252">
        <ele>225.43</ele>
        <time>2017-03-26T08:38:24Z</time>
      </trkpt>
      <trkpt lat="45.35895" lon="4.98237">
        <ele>226.34</ele>
        <time>2017-03-26T08:38:25Z</time>
      </trkpt>
      <trkpt lat="45.35909" lon="4.98223">
        <ele>227.08</ele>
        <time>2017-03-26T08:38:26Z</time>
      </trkpt>
      <trkpt lat="45.35923" lon="4.98209">
        <ele>227.71</ele>
        <time>2017-03-26T08:38:27Z</time>
      </trkpt>
      <trkpt lat="45.35939" lon="4.98195">
        <ele>228.4</ele>
        <time>2017-03-26T08:38:28Z</time>
      </trkpt>
      <trkpt lat="45.35955" lon="4.98181">
        <ele>229.09</ele>
        <time>2017-03-26T08:38:29Z</time>
      </trkpt>
      <trkpt lat="45.35971" lon="4.98167">
        <ele>229.95</ele>
        <time>2017-03-26T08:38:30Z</time>
      </trkpt>
      <trkpt lat="45.35987" lon="4.98152">
        <ele>230.76</ele>
        <time>2017-03-26T08:38:31Z</time>
      </trkpt>
      <trkpt lat="45.36003" lon="4.98138">
        <ele>231.81</ele>
        <time>2017-03-26T08:38:32Z</time>
      </trkpt>
      <trkpt lat="45.36018" lon="4.98124">
        <ele>232.81</ele>
        <time>2017-03-26T08:38:33Z</time>
      </trkpt>
      <trkpt lat="45.36033" lon="4.9811">
        <ele>233.74</ele>
        <time>2017-03-26T08:38:34Z</time>
      </trkpt>
      <trkpt lat="45.36049" lon="4.98096">
        <ele>234.48</ele>
        <time>2017-03-26T08:38:35Z</time>
      </trkpt>
      <trkpt lat="45.36064" lon="4.98082">
        <ele>235.27</ele>
        <time>2017-03-26T08:38:36Z</time>
      </trkpt>
      <trkpt lat="45.36079" lon="4.98068">
        <ele>236.23</ele>
        <time>2017-03-26T08:38:37Z</time>
      </trkpt>
      <trkpt lat="45.36094" lon="4.98054">
        <ele>237.06</ele>
        <time>2017-03-26T08:38:38Z</time>
      </trkpt>
      <trkpt lat="45.3611" lon="4.98041">
        <ele>237.79</ele>
        <time>2017-03-26T08:38:39Z</time>
      </trkpt>
      <trkpt lat="45.36126" lon="4.98029">
        <ele>238.33</ele>
        <time>2017-03-26T08:38:40Z</time>
      </trkpt>
      <trkpt lat="45.36143" lon="4.98017">
        <ele>238.76</ele>
        <time>2017-03-26T08:38:41Z</time>
      </trkpt>
      <trkpt lat="45.3616" lon="4.98005">
        <ele>239.01</ele>
        <time>2017-03-26T08:38:42Z</time>
      </trkpt>
      <trkpt lat="45.36177" lon="4.97993">
        <ele>239.13</ele>
        <time>2017-03-26T08:38:43Z</time>
      </trkpt>
      <trkpt lat="45.36194" lon="4.9798">
        <ele>239.08</ele>
        <time>2017-03-26T08:38:44Z</time>
      </trkpt>
      <trkpt lat="45.3621" lon="4.97968">
        <ele>238.91</ele>
        <time>2017-03-26T08:38:45Z</time>
      </trkpt>
      <trkpt lat="45.36227" lon="4.97955">
        <ele>238.8</ele>
        <time>2017-03-26T08:38:46Z</time>
      </trkpt>
      <trkpt lat="45.36244" lon="4.97942">
        <ele>238.77</ele>
        <time>2017-03-26T08:38:47Z</time>
      </trkpt>
      <trkpt lat="45.36262" lon="4.9793">
        <ele>238.77</ele>
        <time>2017-03-26T08:38:48Z</time>
      </trkpt>
      <trkpt lat="45.3628" lon="4.97918">
        <ele>238.61</ele>
        <time>2017-03-26T08:38:49Z</time>
      </trkpt>
      <trkpt lat="45.36298" lon="4.97907">
        <ele>238.26</ele>
        <time>2017-03-26T08:38:50Z</time>
      </trkpt>
      <trkpt lat="45.36316" lon="4.97896">
        <ele>237.78</ele>
        <time>2017-03-26T08:38:51Z</time>
      </trkpt>
      <trkpt lat="45.36335" lon="4.97886">
        <ele>237.29</ele>
        <time>2017-03-26T08:38:52Z</time>
      </trkpt>
      <trkpt lat="45.36354" lon="4.97877">
        <ele>236.63</ele>
        <time>2017-03-26T08:38:53Z</time>
      </trkpt>
      <trkpt lat="45.36372" lon="4.97868">
        <ele>235.7</ele>
        <time>2017-03-26T08:38:54Z</time>
      </trkpt>
      <trkpt lat="45.36391" lon="4.9786">
        <ele>234.63</ele>
        <time>2017-03-26T08:38:55Z</time>
      </trkpt>
      <trkpt lat="45.36409" lon="4.97852">
        <ele>233.78</ele>
        <time>2017-03-26T08:38:56Z</time>
      </trkpt>
      <trkpt lat="45.36426" lon="4.9784">
        <ele>234.09</ele>
        <time>2017-03-26T08:38:57Z</time>
      </trkpt>
      <trkpt lat="45.36441" lon="4.97826">
        <ele>234.95</ele>
        <time>2017-03-26T08:38:58Z</time>
      </trkpt>
      <trkpt lat="45.36454" lon="4.97808">
        <ele>235.68</ele>
        <time>2017-03-26T08:38:59Z</time>
      </trkpt>
      <trkpt lat="45.36468" lon="4.9779">
        <ele>236.31</ele>
        <time>2017-03-26T08:39:00Z</time>
      </trkpt>
      <trkpt lat="45.36481" lon="4.97772">
        <ele>236.84</ele>
        <time>2017-03-26T08:39:01Z</time>
      </trkpt>
      <trkpt lat="45.36496" lon="4.97754">
        <ele>237.26</ele>
        <time>2017-03-26T08:39:02Z</time>
      </trkpt>
      <trkpt lat="45.3651" lon="4.97736">
        <ele>237.35</ele>
        <time>2017-03-26T08:39:03Z</time>
      </trkpt>
      <trkpt lat="45.36524" lon="4.97717">
        <ele>237.36</ele>
        <time>2017-03-26T08:39:04Z</time>
      </trkpt>
      <trkpt lat="45.36538" lon="4.97698">
        <ele>237.29</ele>
        <time>2017-03-26T08:39:05Z</time>
      </trkpt>
      <trkpt lat="45.36553" lon="4.97679">
        <ele>237.11</ele>
        <time>2017-03-26T08:39:06Z</time>
      </trkpt>
      <trkpt lat="45.36567" lon="4.97659">
        <ele>236.92</ele>
        <time>2017-03-26T08:39:07Z</time>
      </trkpt>
      <trkpt lat="45.36581" lon="4.9764">
        <ele>237.04</ele>
        <time>2017-03-26T08:39:08Z</time>
      </trkpt>
      <trkpt lat="45.36596" lon="4.97619">
        <ele>237.38</ele>
        <time>2017-03-26T08:39:09Z</time>
      </trkpt>
      <trkpt lat="45.3661" lon="4.97598">
        <ele>237.53</ele>
        <time>2017-03-26T08:39:10Z</time>
      </trkpt>
      <trkpt lat="45.36623" lon="4.97577">
        <ele>237.72</ele>
        <time>2017-03-26T08:39:11Z</time>
      </trkpt>
      <trkpt lat="45.36636" lon="4.97555">
        <ele>237.68</ele>
        <time>2017-03-26T08:39:12Z</time>
      </trkpt>
      <trkpt lat="45.36647" lon="4.97532">
        <ele>237.43</ele>
        <time>2017-03-26T08:39:13Z</time>
      </trkpt>
      <trkpt lat="45.36658" lon="4.97508">
        <ele>236.74</ele>
        <time>2017-03-26T08:39:14Z</time>
      </trkpt>
      <trkpt lat="45.36668" lon="4.97484">
        <ele>235.96</ele>
        <time>2017-03-26T08:39:15Z</time>
      </trkpt>
      <trkpt lat="45.36678" lon="4.97459">
        <ele>235.01</ele>
        <time>2017-03-26T08:39:16Z</time>
      </trkpt>
      <trkpt lat="45.36687" lon="4.97434">
        <ele>233.93</ele>
        <time>2017-03-26T08:39:17Z</time>
      </trkpt>
      <trkpt lat="45.36696" lon="4.97408">
        <ele>233.16</ele>
        <time>2017-03-26T08:39:18Z</time>
      </trkpt>
      <trkpt lat="45.36704" lon="4.97383">
        <ele>232.37</ele>
        <time>2017-03-26T08:39:19Z</time>
      </trkpt>
      <trkpt lat="45.36711" lon="4.97359">
        <ele>231.89</ele>
        <time>2017-03-26T08:39:20Z</time>
      </trkpt>
      <trkpt lat="45.36719" lon="4.97336">
        <ele>231.55</ele>
        <time>2017-03-26T08:39:21Z</time>
      </trkpt>
      <trkpt lat="45.36728" lon="4.97317">
        <ele>231.32</ele>
        <time>2017-03-26T08:39:22Z</time>
      </trkpt>
      <trkpt lat="45.36738" lon="4.97299">
        <ele>231.28</ele>
        <time>2017-03-26T08:39:23Z</time>
      </trkpt>
      <trkpt lat="45.36749" lon="4.97286">
        <ele>231.19</ele>
        <time>2017-03-26T08:39:24Z</time>
      </trkpt>
      <trkpt lat="45.36762" lon="4.97274">
        <ele>231.01</ele>
        <time>2017-03-26T08:39:25Z</time>
      </trkpt>
      <trkpt lat="45.36777" lon="4.97264">
        <ele>230.9</ele>
        <time>2017-03-26T08:39:26Z</time>
      </trkpt>
      <trkpt lat="45.36793" lon="4.97256">
        <ele>230.87</ele>
        <time>2017-03-26T08:39:27Z</time>
      </trkpt>
      <trkpt lat="45.3681" lon="4.97248">
        <ele>231.43</ele>
        <time>2017-03-26T08:39:28Z</time>
      </trkpt>
      <trkpt lat="45.36828" lon="4.97241">
        <ele>232.02</ele>
        <time>2017-03-26T08:39:29Z</time>
      </trkpt>
      <trkpt lat="45.36846" lon="4.97234">
        <ele>232.54</ele>
        <time>2017-03-26T08:39:30Z</time>
      </trkpt>
      <trkpt lat="45.36864" lon="4.97227">
        <ele>232.88</ele>
        <time>2017-03-26T08:39:31Z</time>
      </trkpt>
      <trkpt lat="45.36882" lon="4.97219">
        <ele>233.35</ele>
        <time>2017-03-26T08:39:32Z</time>
      </trkpt>
      <trkpt lat="45.369" lon="4.9721">
        <ele>233.92</ele>
        <time>2017-03-26T08:39:33Z</time>
      </trkpt>
      <trkpt lat="45.36919" lon="4.97201">
        <ele>234.52</ele>
        <time>2017-03-26T08:39:34Z</time>
      </trkpt>
      <trkpt lat="45.36937" lon="4.97191">
        <ele>234.72</ele>
        <time>2017-03-26T08:39:35Z</time>
      </trkpt>
      <trkpt lat="45.36956" lon="4.97181">
        <ele>234.68</ele>
        <time>2017-03-26T08:39:36Z</time>
      </trkpt>
      <trkpt lat="45.36974" lon="4.9717">
        <ele>234.75</ele>
        <time>2017-03-26T08:39:37Z</time>
      </trkpt>
      <trkpt lat="45.36992" lon="4.97158">
        <ele>235</ele>
        <time>2017-03-26T08:39:38Z</time>
      </trkpt>
      <trkpt lat="45.37009" lon="4.97146">
        <ele>235.13</ele>
        <time>2017-03-26T08:39:39Z</time>
      </trkpt>
      <trkpt lat="45.37027" lon="4.97133">
        <ele>235.16</ele>
        <time>2017-03-26T08:39:40Z</time>
      </trkpt>
      <trkpt lat="45.37045" lon="4.97121">
        <ele>235.25</ele>
        <time>2017-03-26T08:39:41Z</time>
      </trkpt>
      <trkpt lat="45.37062" lon="4.97109">
        <ele>235.5</ele>
        <time>2017-03-26T08:39:42Z</time>
      </trkpt>
      <trkpt lat="45.3708" lon="4.97096">
        <ele>235.63</ele>
        <time>2017-03-26T08:39:43Z</time>
      </trkpt>
      <trkpt lat="45.37098" lon="4.97084">
        <ele>235.66</ele>
        <time>2017-03-26T08:39:44Z</time>
      </trkpt>
      <trkpt lat="45.37115" lon="4.97071">
        <ele>236.15</ele>
        <time>2017-03-26T08:39:45Z</time>
      </trkpt>
      <trkpt lat="45.37134" lon="4.9706">
        <ele>236.48</ele>
        <time>2017-03-26T08:39:46Z</time>
      </trkpt>
      <trkpt lat="45.37152" lon="4.97049">
        <ele>236.79</ele>
        <time>2017-03-26T08:39:47Z</time>
      </trkpt>
      <trkpt lat="45.3717" lon="4.9704">
        <ele>237.09</ele>
        <time>2017-03-26T08:39:48Z</time>
      </trkpt>
      <trkpt lat="45.37189" lon="4.97031">
        <ele>237.39</ele>
        <time>2017-03-26T08:39:49Z</time>
      </trkpt>
      <trkpt lat="45.37209" lon="4.97024">
        <ele>237.21</ele>
        <time>2017-03-26T08:39:50Z</time>
      </trkpt>
      <trkpt lat="45.37229" lon="4.97018">
        <ele>237.42</ele>
        <time>2017-03-26T08:39:51Z</time>
      </trkpt>
      <trkpt lat="45.37249" lon="4.97012">
        <ele>237.78</ele>
        <time>2017-03-26T08:39:52Z</time>
      </trkpt>
      <trkpt lat="45.37269" lon="4.97008">
        <ele>237.77</ele>
        <time>2017-03-26T08:39:53Z</time>
      </trkpt>
      <trkpt lat="45.3729" lon="4.97005">
        <ele>237.77</ele>
        <time>2017-03-26T08:39:54Z</time>
      </trkpt>
      <trkpt lat="45.37309" lon="4.97006">
        <ele>238.25</ele>
        <time>2017-03-26T08:39:55Z</time>
      </trkpt>
      <trkpt lat="45.37329" lon="4.9701">
        <ele>238.42</ele>
        <time>2017-03-26T08:39:56Z</time>
      </trkpt>
      <trkpt lat="45.37348" lon="4.97015">
        <ele>238.54</ele>
        <time>2017-03-26T08:39:57Z</time>
      </trkpt>
      <trkpt lat="45.37367" lon="4.97019">
        <ele>239.2</ele>
        <time>2017-03-26T08:39:58Z</time>
      </trkpt>
      <trkpt lat="45.37386" lon="4.97019">
        <ele>240.29</ele>
        <time>2017-03-26T08:39:59Z</time>
      </trkpt>
      <trkpt lat="45.37406" lon="4.97015">
        <ele>241.47</ele>
        <time>2017-03-26T08:40:00Z</time>
      </trkpt>
      <trkpt lat="45.37425" lon="4.9701">
        <ele>242.11</ele>
        <time>2017-03-26T08:40:01Z</time>
      </trkpt>
      <trkpt lat="45.37444" lon="4.97005">
        <ele>242.4</ele>
        <time>2017-03-26T08:40:02Z</time>
      </trkpt>
      <trkpt lat="45.37464" lon="4.97002">
        <ele>242.53</ele>
        <time>2017-03-26T08:40:03Z</time>
      </trkpt>
      <trkpt lat="45.37483" lon="4.97">
        <ele>242.56</ele>
        <time>2017-03-26T08:40:04Z</time>
      </trkpt>
      <trkpt lat="45.37503" lon="4.96999">
        <ele>242.73</ele>
        <time>2017-03-26T08:40:05Z</time>
      </trkpt>
      <trkpt lat="45.37522" lon="4.96999">
        <ele>242.92</ele>
        <time>2017-03-26T08:40:06Z</time>
      </trkpt>
      <trkpt lat="45.37539" lon="4.96998">
        <ele>243.28</ele>
        <time>2017-03-26T08:40:07Z</time>
      </trkpt>
      <trkpt lat="45.37555" lon="4.96997">
        <ele>243.51</ele>
        <time>2017-03-26T08:40:08Z</time>
      </trkpt>
      <trkpt lat="45.37567" lon="4.96993">
        <ele>244.44</ele>
        <time>2017-03-26T08:40:09Z</time>
      </trkpt>
      <trkpt lat="45.37577" lon="4.96986">
        <ele>245.34</ele>
        <time>2017-03-26T08:40:10Z</time>
      </trkpt>
      <trkpt lat="45.37586" lon="4.96975">
        <ele>245.92</ele>
        <time>2017-03-26T08:40:11Z</time>
      </trkpt>
      <trkpt lat="45.3759" lon="4.96957">
        <ele>246.36</ele>
        <time>2017-03-26T08:40:12Z</time>
      </trkpt>
      <trkpt lat="45.37596" lon="4.96938">
        <ele>246.93</ele>
        <time>2017-03-26T08:40:13Z</time>
      </trkpt>
      <trkpt lat="45.37603" lon="4.9692">
        <ele>247.28</ele>
        <time>2017-03-26T08:40:14Z</time>
      </trkpt>
      <trkpt lat="45.3761" lon="4.96903">
        <ele>247.75</ele>
        <time>2017-03-26T08:40:15Z</time>
      </trkpt>
      <trkpt lat="45.37617" lon="4.96886">
        <ele>248.08</ele>
        <time>2017-03-26T08:40:16Z</time>
      </trkpt>
      <trkpt lat="45.37624" lon="4.9687">
        <ele>248.31</ele>
        <time>2017-03-26T08:40:17Z</time>
      </trkpt>
      <trkpt lat="45.37632" lon="4.96854">
        <ele>248.52</ele>
        <time>2017-03-26T08:40:18Z</time>
      </trkpt>
      <trkpt lat="45.37639" lon="4.9684">
        <ele>248.72</ele>
        <time>2017-03-26T08:40:19Z</time>
      </trkpt>
      <trkpt lat="45.37647" lon="4.96826">
        <ele>248.84</ele>
        <time>2017-03-26T08:40:20Z</time>
      </trkpt>
      <trkpt lat="45.37654" lon="4.96816">
        <ele>249.1</ele>
        <time>2017-03-26T08:40:21Z</time>
      </trkpt>
      <trkpt lat="45.3766" lon="4.96807">
        <ele>249.55</ele>
        <time>2017-03-26T08:40:22Z</time>
      </trkpt>
      <trkpt lat="45.37665" lon="4.96801">
        <ele>250.04</ele>
        <time>2017-03-26T08:40:23Z</time>
      </trkpt>
      <trkpt lat="45.37668" lon="4.96797">
        <ele>250.38</ele>
        <time>2017-03-26T08:40:24Z</time>
      </trkpt>
      <trkpt lat="45.37668" lon="4.96796">
        <ele>250.69</ele>
        <time>2017-03-26T08:40:25Z</time>
      </trkpt>
      <trkpt lat="45.37668" lon="4.96796">
        <ele>250.67</ele>
        <time>2017-03-26T08:40:26Z</time>
      </trkpt>
      <trkpt lat="45.37667" lon="4.96797">
        <ele>250.27</ele>
        <time>2017-03-26T08:40:27Z</time>
      </trkpt>
      <trkpt lat="45.37667" lon="4.96797">
        <ele>250.11</ele>
        <time>2017-03-26T08:40:28Z</time>
      </trkpt>
      <trkpt lat="45.37667" lon="4.96797">
        <ele>250.08</ele>
        <time>2017-03-26T08:40:29Z</time>
      </trkpt>
      <trkpt lat="45.37667" lon="4.96797">
        <ele>250.07</ele>
        <time>2017-03-26T08:40:30Z</time>
      </trkpt>
      <trkpt lat="45.37667" lon="4.96797">
        <ele>250.07</ele>
        <time>2017-03-26T08:40:31Z</time>
      </trkpt>
      <trkpt lat="45.37667" lon="4.96797">
        <ele>250.07</ele>
        <time>2017-03-26T08:40:32Z</time>
      </trkpt>
      <trkpt lat="45.37667" lon="4.96797">
        <ele>250.07</ele>
        <time>2017-03-26T08:40:33Z</time>
      </trkpt>
      <trkpt lat="45.37667" lon="4.96797">
        <ele>250.07</ele>
        <time>2017-03-26T08:40:34Z</time>
      </trkpt>
      <trkpt lat="45.37667" lon="4.96797">
        <ele>250.07</ele>
        <time>2017-03-26T08:40:35Z</time>
      </trkpt>
      <trkpt lat="45.37667" lon="4.96797">
        <ele>250.07</ele>
        <time>2017-03-26T08:40:36Z</time>
      </trkpt>
      <trkpt lat="45.37667" lon="4.96797">
        <ele>250.07</ele>
        <time>2017-03-26T08:40:37Z</time>
      </trkpt>
      <trkpt lat="45.37667" lon="4.96797">
        <ele>250.07</ele>
        <time>2017-03-26T08:40:38Z</time>
      </trkpt>
      <trkpt lat="45.37667" lon="4.96797">
        <ele>250.07</ele>
        <time>2017-03-26T08:40:39Z</time>
      </trkpt>
      <trkpt lat="45.37667" lon="4.96797">
        <ele>250.07</ele>
        <time>2017-03-26T08:40:40Z</time>
      </trkpt>
      <trkpt lat="45.37667" lon="4.96797">
        <ele>250.07</ele>
        <time>2017-03-26T08:40:41Z</time>
      </trkpt>
      <trkpt lat="45.37667" lon="4.96797">
        <ele>250.07</ele>
        <time>2017-03-26T08:40:42Z</time>
      </trkpt>
      <trkpt lat="45.37667" lon="4.96797">
        <ele>250.07</ele>
        <time>2017-03-26T08:40:43Z</time>
      </trkpt>
      <trkpt lat="45.37667" lon="4.96797">
        <ele>250.07</ele>
        <time>2017-03-26T08:40:44Z</time>
      </trkpt>
      <trkpt lat="45.37667" lon="4.96797">
        <ele>250.07</ele>
        <time>2017-03-26T08:40:45Z</time>
      </trkpt>
      <trkpt lat="45.37667" lon="4.96797">
        <ele>250.07</ele>
        <time>2017-03-26T08:40:46Z</time>
      </trkpt>
      <trkpt lat="45.37667" lon="4.96797">
        <ele>250.07</ele>
        <time>2017-03-26T08:40:47Z</time>
      </trkpt>
      <trkpt lat="45.37667" lon="4.96797">
        <ele>250.07</ele>
        <time>2017-03-26T08:40:48Z</time>
      </trkpt>
      <trkpt lat="45.37667" lon="4.96797">
        <ele>250.07</ele>
        <time>2017-03-26T08:40:49Z</time>
      </trkpt>
      <trkpt lat="45.37667" lon="4.96797">
        <ele>250.07</ele>
        <time>2017-03-26T08:40:50Z</time>
      </trkpt>
      <trkpt lat="45.37667" lon="4.96797">
        <ele>250.07</ele>
        <time>2017-03-26T08:40:51Z</time>
      </trkpt>
      <trkpt lat="45.37667" lon="4.96797">
        <ele>250.07</ele>
        <time>2017-03-26T08:40:52Z</time>
      </trkpt>
      <trkpt lat="45.37667" lon="4.96797">
        <ele>250.07</ele>
        <time>2017-03-26T08:40:53Z</time>
      </trkpt>
      <trkpt lat="45.37667" lon="4.96797">
        <ele>250.07</ele>
        <time>2017-03-26T08:40:54Z</time>
      </trkpt>
      <trkpt lat="45.37667" lon="4.96797">
        <ele>250.07</ele>
        <time>2017-03-26T08:40:55Z</time>
      </trkpt>
      <trkpt lat="45.37667" lon="4.96797">
        <ele>250.07</ele>
        <time>2017-03-26T08:40:56Z</time>
      </trkpt>
      <trkpt lat="45.37667" lon="4.96797">
        <ele>250.07</ele>
        <time>2017-03-26T08:40:57Z</time>
      </trkpt>
      <trkpt lat="45.37666" lon="4.96792">
        <ele>250.39</ele>
        <time>2017-03-26T08:40:58Z</time>
      </trkpt>
      <trkpt lat="45.37666" lon="4.96787">
        <ele>250.45</ele>
        <time>2017-03-26T08:40:59Z</time>
      </trkpt>
      <trkpt lat="45.37665" lon="4.96779">
        <ele>250.46</ele>
        <time>2017-03-26T08:41:00Z</time>
      </trkpt>
      <trkpt lat="45.37657" lon="4.96764">
        <ele>250.47</ele>
        <time>2017-03-26T08:41:01Z</time>
      </trkpt>
      <trkpt lat="45.37652" lon="4.96751">
        <ele>250.23</ele>
        <time>2017-03-26T08:41:02Z</time>
      </trkpt>
      <trkpt lat="45.37645" lon="4.96735">
        <ele>249.94</ele>
        <time>2017-03-26T08:41:03Z</time>
      </trkpt>
      <trkpt lat="45.37638" lon="4.96719">
        <ele>249.72</ele>
        <time>2017-03-26T08:41:04Z</time>
      </trkpt>
      <trkpt lat="45.37631" lon="4.96701">
        <ele>249.68</ele>
        <time>2017-03-26T08:41:05Z</time>
      </trkpt>
      <trkpt lat="45.37624" lon="4.96683">
        <ele>249.51</ele>
        <time>2017-03-26T08:41:06Z</time>
      </trkpt>
      <trkpt lat="45.37616" lon="4.96665">
        <ele>249.32</ele>
        <time>2017-03-26T08:41:07Z</time>
      </trkpt>
      <trkpt lat="45.37608" lon="4.96646">
        <ele>249.2</ele>
        <time>2017-03-26T08:41:08Z</time>
      </trkpt>
      <trkpt lat="45.376" lon="4.96626">
        <ele>249.49</ele>
        <time>2017-03-26T08:41:09Z</time>
      </trkpt>
      <trkpt lat="45.37592" lon="4.96605">
        <ele>249.63</ele>
        <time>2017-03-26T08:41:10Z</time>
      </trkpt>
      <trkpt lat="45.37584" lon="4.96584">
        <ele>249.66</ele>
        <time>2017-03-26T08:41:11Z</time>
      </trkpt>
      <trkpt lat="45.37577" lon="4.96562">
        <ele>249.75</ele>
        <time>2017-03-26T08:41:12Z</time>
      </trkpt>
      <trkpt lat="45.37572" lon="4.96539">
        <ele>250</ele>
        <time>2017-03-26T08:41:13Z</time>
      </trkpt>
      <trkpt lat="45.37569" lon="4.96514">
        <ele>250.21</ele>
        <time>2017-03-26T08:41:14Z</time>
      </trkpt>
      <trkpt lat="45.37568" lon="4.9649">
        <ele>250.58</ele>
        <time>2017-03-26T08:41:15Z</time>
      </trkpt>
      <trkpt lat="45.37568" lon="4.96465">
        <ele>250.81</ele>
        <time>2017-03-26T08:41:16Z</time>
      </trkpt>
      <trkpt lat="45.37569" lon="4.9644">
        <ele>251.1</ele>
        <time>2017-03-26T08:41:17Z</time>
      </trkpt>
      <trkpt lat="45.37571" lon="4.96416">
        <ele>251.55</ele>
        <time>2017-03-26T08:41:18Z</time>
      </trkpt>
      <trkpt lat="45.37572" lon="4.96395">
        <ele>252.04</ele>
        <time>2017-03-26T08:41:19Z</time>
      </trkpt>
      <trkpt lat="45.37573" lon="4.96378">
        <ele>252.22</ele>
        <time>2017-03-26T08:41:20Z</time>
      </trkpt>
      <trkpt lat="45.37576" lon="4.96366">
        <ele>251.78</ele>
        <time>2017-03-26T08:41:21Z</time>
      </trkpt>
      <trkpt lat="45.37578" lon="4.96358">
        <ele>251.77</ele>
        <time>2017-03-26T08:41:22Z</time>
      </trkpt>
      <trkpt lat="45.37581" lon="4.96352">
        <ele>252.01</ele>
        <time>2017-03-26T08:41:23Z</time>
      </trkpt>
      <trkpt lat="45.37586" lon="4.96347">
        <ele>252.3</ele>
        <time>2017-03-26T08:41:24Z</time>
      </trkpt>
      <trkpt lat="45.37592" lon="4.96344">
        <ele>252.67</ele>
        <time>2017-03-26T08:41:25Z</time>
      </trkpt>
      <trkpt lat="45.376" lon="4.96341">
        <ele>252.91</ele>
        <time>2017-03-26T08:41:26Z</time>
      </trkpt>
      <trkpt lat="45.37608" lon="4.96339">
        <ele>253.2</ele>
        <time>2017-03-26T08:41:27Z</time>
      </trkpt>
      <trkpt lat="45.37617" lon="4.96337">
        <ele>253.41</ele>
        <time>2017-03-26T08:41:28Z</time>
      </trkpt>
      <trkpt lat="45.37627" lon="4.96336">
        <ele>253.86</ele>
        <time>2017-03-26T08:41:29Z</time>
      </trkpt>
      <trkpt lat="45.37638" lon="4.96334">
        <ele>254.58</ele>
        <time>2017-03-26T08:41:30Z</time>
      </trkpt>
      <trkpt lat="45.37649" lon="4.96332">
        <ele>255.21</ele>
        <time>2017-03-26T08:41:31Z</time>
      </trkpt>
      <trkpt lat="45.37662" lon="4.9633">
        <ele>255.74</ele>
        <time>2017-03-26T08:41:32Z</time>
      </trkpt>
      <trkpt lat="45.37676" lon="4.96327">
        <ele>256.24</ele>
        <time>2017-03-26T08:41:33Z</time>
      </trkpt>
      <trkpt lat="45.37691" lon="4.96325">
        <ele>257.14</ele>
        <time>2017-03-26T08:41:34Z</time>
      </trkpt>
      <trkpt lat="45.37708" lon="4.96322">
        <ele>257.96</ele>
        <time>2017-03-26T08:41:35Z</time>
      </trkpt>
      <trkpt lat="45.37724" lon="4.96318">
        <ele>258.77</ele>
        <time>2017-03-26T08:41:36Z</time>
      </trkpt>
      <trkpt lat="45.37742" lon="4.96314">
        <ele>259.73</ele>
        <time>2017-03-26T08:41:37Z</time>
      </trkpt>
      <trkpt lat="45.37761" lon="4.9631">
        <ele>260.88</ele>
        <time>2017-03-26T08:41:38Z</time>
      </trkpt>
      <trkpt lat="45.37779" lon="4.96306">
        <ele>261.83</ele>
        <time>2017-03-26T08:41:39Z</time>
      </trkpt>
      <trkpt lat="45.37798" lon="4.96301">
        <ele>262.98</ele>
        <time>2017-03-26T08:41:40Z</time>
      </trkpt>
      <trkpt lat="45.37816" lon="4.96296">
        <ele>264.25</ele>
        <time>2017-03-26T08:41:41Z</time>
      </trkpt>
      <trkpt lat="45.37834" lon="4.9629">
        <ele>265.38</ele>
        <time>2017-03-26T08:41:42Z</time>
      </trkpt>
      <trkpt lat="45.37852" lon="4.96284">
        <ele>266.57</ele>
        <time>2017-03-26T08:41:43Z</time>
      </trkpt>
      <trkpt lat="45.37867" lon="4.96276">
        <ele>268.17</ele>
        <time>2017-03-26T08:41:44Z</time>
      </trkpt>
      <trkpt lat="45.37882" lon="4.96265">
        <ele>269.53</ele>
        <time>2017-03-26T08:41:45Z</time>
      </trkpt>
      <trkpt lat="45.37895" lon="4.96252">
        <ele>270.68</ele>
        <time>2017-03-26T08:41:46Z</time>
      </trkpt>
      <trkpt lat="45.37905" lon="4.96235">
        <ele>271.87</ele>
        <time>2017-03-26T08:41:47Z</time>
      </trkpt>
      <trkpt lat="45.37913" lon="4.96212">
        <ele>273.15</ele>
        <time>2017-03-26T08:41:48Z</time>
      </trkpt>
      <trkpt lat="45.37916" lon="4.96183">
        <ele>274.28</ele>
        <time>2017-03-26T08:41:49Z</time>
      </trkpt>
      <trkpt lat="45.3792" lon="4.96158">
        <ele>275.47</ele>
        <time>2017-03-26T08:41:50Z</time>
      </trkpt>
      <trkpt lat="45.37925" lon="4.96133">
        <ele>276.59</ele>
        <time>2017-03-26T08:41:51Z</time>
      </trkpt>
      <trkpt lat="45.3793" lon="4.9611">
        <ele>277.37</ele>
        <time>2017-03-26T08:41:52Z</time>
      </trkpt>
      <trkpt lat="45.37934" lon="4.9609">
        <ele>278.25</ele>
        <time>2017-03-26T08:41:53Z</time>
      </trkpt>
      <trkpt lat="45.37936" lon="4.96071">
        <ele>279.06</ele>
        <time>2017-03-26T08:41:54Z</time>
      </trkpt>
      <trkpt lat="45.37935" lon="4.96053">
        <ele>279.79</ele>
        <time>2017-03-26T08:41:55Z</time>
      </trkpt>
      <trkpt lat="45.3793" lon="4.96036">
        <ele>280.09</ele>
        <time>2017-03-26T08:41:56Z</time>
      </trkpt>
      <trkpt lat="45.37924" lon="4.96019">
        <ele>280.71</ele>
        <time>2017-03-26T08:41:57Z</time>
      </trkpt>
      <trkpt lat="45.37919" lon="4.96003">
        <ele>281.08</ele>
        <time>2017-03-26T08:41:58Z</time>
      </trkpt>
      <trkpt lat="45.37916" lon="4.9599">
        <ele>281.39</ele>
        <time>2017-03-26T08:41:59Z</time>
      </trkpt>
      <trkpt lat="45.37919" lon="4.95978">
        <ele>282.01</ele>
        <time>2017-03-26T08:42:00Z</time>
      </trkpt>
      <trkpt lat="45.37923" lon="4.95968">
        <ele>282.62</ele>
        <time>2017-03-26T08:42:01Z</time>
      </trkpt>
      <trkpt lat="45.37928" lon="4.95962">
        <ele>283.38</ele>
        <time>2017-03-26T08:42:02Z</time>
      </trkpt>
      <trkpt lat="45.37934" lon="4.95959">
        <ele>284.01</ele>
        <time>2017-03-26T08:42:03Z</time>
      </trkpt>
      <trkpt lat="45.37938" lon="4.95958">
        <ele>284.78</ele>
        <time>2017-03-26T08:42:04Z</time>
      </trkpt>
      <trkpt lat="45.37941" lon="4.9596">
        <ele>285.41</ele>
        <time>2017-03-26T08:42:05Z</time>
      </trkpt>
      <trkpt lat="45.37945" lon="4.95963">
        <ele>286.18</ele>
        <time>2017-03-26T08:42:06Z</time>
      </trkpt>
      <trkpt lat="45.3795" lon="4.9597">
        <ele>286.89</ele>
        <time>2017-03-26T08:42:07Z</time>
      </trkpt>
      <trkpt lat="45.37955" lon="4.95978">
        <ele>287.91</ele>
        <time>2017-03-26T08:42:08Z</time>
      </trkpt>
      <trkpt lat="45.37961" lon="4.95986">
        <ele>288.76</ele>
        <time>2017-03-26T08:42:09Z</time>
      </trkpt>
      <trkpt lat="45.37966" lon="4.95996">
        <ele>289.56</ele>
        <time>2017-03-26T08:42:10Z</time>
      </trkpt>
      <trkpt lat="45.37973" lon="4.96007">
        <ele>290.29</ele>
        <time>2017-03-26T08:42:11Z</time>
      </trkpt>
      <trkpt lat="45.3798" lon="4.96017">
        <ele>290.91</ele>
        <time>2017-03-26T08:42:12Z</time>
      </trkpt>
      <trkpt lat="45.37986" lon="4.96025">
        <ele>291.52</ele>
        <time>2017-03-26T08:42:13Z</time>
      </trkpt>
      <trkpt lat="45.37993" lon="4.96032">
        <ele>291.96</ele>
        <time>2017-03-26T08:42:14Z</time>
      </trkpt>
      <trkpt lat="45.38" lon="4.96035">
        <ele>292.52</ele>
        <time>2017-03-26T08:42:15Z</time>
      </trkpt>
      <trkpt lat="45.38007" lon="4.96034">
        <ele>293.04</ele>
        <time>2017-03-26T08:42:16Z</time>
      </trkpt>
      <trkpt lat="45.38014" lon="4.9603">
        <ele>293.54</ele>
        <time>2017-03-26T08:42:17Z</time>
      </trkpt>
      <trkpt lat="45.38023" lon="4.96024">
        <ele>294.04</ele>
        <time>2017-03-26T08:42:18Z</time>
      </trkpt>
      <trkpt lat="45.38031" lon="4.96017">
        <ele>294.54</ele>
        <time>2017-03-26T08:42:19Z</time>
      </trkpt>
      <trkpt lat="45.3804" lon="4.9601">
        <ele>294.88</ele>
        <time>2017-03-26T08:42:20Z</time>
      </trkpt>
      <trkpt lat="45.38048" lon="4.96002">
        <ele>295.51</ele>
        <time>2017-03-26T08:42:21Z</time>
      </trkpt>
      <trkpt lat="45.38057" lon="4.95993">
        <ele>296.12</ele>
        <time>2017-03-26T08:42:22Z</time>
      </trkpt>
      <trkpt lat="45.38067" lon="4.95983">
        <ele>297.04</ele>
        <time>2017-03-26T08:42:23Z</time>
      </trkpt>
      <trkpt lat="45.38078" lon="4.95973">
        <ele>297.86</ele>
        <time>2017-03-26T08:42:24Z</time>
      </trkpt>
      <trkpt lat="45.38089" lon="4.95961">
        <ele>298.59</ele>
        <time>2017-03-26T08:42:25Z</time>
      </trkpt>
      <trkpt lat="45.38101" lon="4.95949">
        <ele>299.37</ele>
        <time>2017-03-26T08:42:26Z</time>
      </trkpt>
      <trkpt lat="45.38113" lon="4.95938">
        <ele>300.33</ele>
        <time>2017-03-26T08:42:27Z</time>
      </trkpt>
      <trkpt lat="45.38125" lon="4.95927">
        <ele>301.16</ele>
        <time>2017-03-26T08:42:28Z</time>
      </trkpt>
      <trkpt lat="45.38137" lon="4.95916">
        <ele>302.13</ele>
        <time>2017-03-26T08:42:29Z</time>
      </trkpt>
      <trkpt lat="45.3815" lon="4.95907">
        <ele>303.2</ele>
        <time>2017-03-26T08:42:30Z</time>
      </trkpt>
      <trkpt lat="45.38163" lon="4.959">
        <ele>304.37</ele>
        <time>2017-03-26T08:42:31Z</time>
      </trkpt>
      <trkpt lat="45.38177" lon="4.95893">
        <ele>305.57</ele>
        <time>2017-03-26T08:42:32Z</time>
      </trkpt>
      <trkpt lat="45.3819" lon="4.95887">
        <ele>306.93</ele>
        <time>2017-03-26T08:42:33Z</time>
      </trkpt>
      <trkpt lat="45.38202" lon="4.95878">
        <ele>308.48</ele>
        <time>2017-03-26T08:42:34Z</time>
      </trkpt>
      <trkpt lat="45.38214" lon="4.95867">
        <ele>309.99</ele>
        <time>2017-03-26T08:42:35Z</time>
      </trkpt>
      <trkpt lat="45.3822" lon="4.95851">
        <ele>311.33</ele>
        <time>2017-03-26T08:42:36Z</time>
      </trkpt>
      <trkpt lat="45.38224" lon="4.95832">
        <ele>312.64</ele>
        <time>2017-03-26T08:42:37Z</time>
      </trkpt>
      <trkpt lat="45.38225" lon="4.95812">
        <ele>313.94</ele>
        <time>2017-03-26T08:42:38Z</time>
      </trkpt>
      <trkpt lat="45.38223" lon="4.95791">
        <ele>315.32</ele>
        <time>2017-03-26T08:42:39Z</time>
      </trkpt>
      <trkpt lat="45.38216" lon="4.95768">
        <ele>316.56</ele>
        <time>2017-03-26T08:42:40Z</time>
      </trkpt>
      <trkpt lat="45.38208" lon="4.95746">
        <ele>317.69</ele>
        <time>2017-03-26T08:42:41Z</time>
      </trkpt>
      <trkpt lat="45.38199" lon="4.95723">
        <ele>318.87</ele>
        <time>2017-03-26T08:42:42Z</time>
      </trkpt>
      <trkpt lat="45.3819" lon="4.95701">
        <ele>319.99</ele>
        <time>2017-03-26T08:42:43Z</time>
      </trkpt>
      <trkpt lat="45.3818" lon="4.95678">
        <ele>321.01</ele>
        <time>2017-03-26T08:42:44Z</time>
      </trkpt>
      <trkpt lat="45.38171" lon="4.95656">
        <ele>321.94</ele>
        <time>2017-03-26T08:42:45Z</time>
      </trkpt>
      <trkpt lat="45.38162" lon="4.95634">
        <ele>322.84</ele>
        <time>2017-03-26T08:42:46Z</time>
      </trkpt>
      <trkpt lat="45.38153" lon="4.95611">
        <ele>323.66</ele>
        <time>2017-03-26T08:42:47Z</time>
      </trkpt>
      <trkpt lat="45.38145" lon="4.95589">
        <ele>324.63</ele>
        <time>2017-03-26T08:42:48Z</time>
      </trkpt>
      <trkpt lat="45.38136" lon="4.95568">
        <ele>325.7</ele>
        <time>2017-03-26T08:42:49Z</time>
      </trkpt>
      <trkpt lat="45.38128" lon="4.95547">
        <ele>326.79</ele>
        <time>2017-03-26T08:42:50Z</time>
      </trkpt>
      <trkpt lat="45.38119" lon="4.95526">
        <ele>327.97</ele>
        <time>2017-03-26T08:42:51Z</time>
      </trkpt>
      <trkpt lat="45.38111" lon="4.95506">
        <ele>329.09</ele>
        <time>2017-03-26T08:42:52Z</time>
      </trkpt>
      <trkpt lat="45.38104" lon="4.95487">
        <ele>330.03</ele>
        <time>2017-03-26T08:42:53Z</time>
      </trkpt>
      <trkpt lat="45.38098" lon="4.9547">
        <ele>331.1</ele>
        <time>2017-03-26T08:42:54Z</time>
      </trkpt>
      <trkpt lat="45.38095" lon="4.95457">
        <ele>331.39</ele>
        <time>2017-03-26T08:42:55Z</time>
      </trkpt>
      <trkpt lat="45.38095" lon="4.95448">
        <ele>332.09</ele>
        <time>2017-03-26T08:42:56Z</time>
      </trkpt>
      <trkpt lat="45.38095" lon="4.95443">
        <ele>332.71</ele>
        <time>2017-03-26T08:42:57Z</time>
      </trkpt>
      <trkpt lat="45.38095" lon="4.9544">
        <ele>333.16</ele>
        <time>2017-03-26T08:42:58Z</time>
      </trkpt>
      <trkpt lat="45.38096" lon="4.95439">
        <ele>333.64</ele>
        <time>2017-03-26T08:42:59Z</time>
      </trkpt>
      <trkpt lat="45.38096" lon="4.9544">
        <ele>333.9</ele>
        <time>2017-03-26T08:43:00Z</time>
      </trkpt>
      <trkpt lat="45.38097" lon="4.9544">
        <ele>332.83</ele>
        <time>2017-03-26T08:43:01Z</time>
      </trkpt>
      <trkpt lat="45.38097" lon="4.9544">
        <ele>332.62</ele>
        <time>2017-03-26T08:43:02Z</time>
      </trkpt>
      <trkpt lat="45.38097" lon="4.9544">
        <ele>332.58</ele>
        <time>2017-03-26T08:43:03Z</time>
      </trkpt>
      <trkpt lat="45.38097" lon="4.9544">
        <ele>332.57</ele>
        <time>2017-03-26T08:43:04Z</time>
      </trkpt>
      <trkpt lat="45.38099" lon="4.9544">
        <ele>332.01</ele>
        <time>2017-03-26T08:43:05Z</time>
      </trkpt>
      <trkpt lat="45.38103" lon="4.95437">
        <ele>331.9</ele>
        <time>2017-03-26T08:43:06Z</time>
      </trkpt>
      <trkpt lat="45.38109" lon="4.95434">
        <ele>331.79</ele>
        <time>2017-03-26T08:43:07Z</time>
      </trkpt>
      <trkpt lat="45.38116" lon="4.95431">
        <ele>331.85</ele>
        <time>2017-03-26T08:43:08Z</time>
      </trkpt>
      <trkpt lat="45.38126" lon="4.95431">
        <ele>331.7</ele>
        <time>2017-03-26T08:43:09Z</time>
      </trkpt>
      <trkpt lat="45.38137" lon="4.95431">
        <ele>331.51</ele>
        <time>2017-03-26T08:43:10Z</time>
      </trkpt>
      <trkpt lat="45.3815" lon="4.95432">
        <ele>331.64</ele>
        <time>2017-03-26T08:43:11Z</time>
      </trkpt>
      <trkpt lat="45.38162" lon="4.95434">
        <ele>331.9</ele>
        <time>2017-03-26T08:43:12Z</time>
      </trkpt>
      <trkpt lat="45.38175" lon="4.95435">
        <ele>332.03</ele>
        <time>2017-03-26T08:43:13Z</time>
      </trkpt>
      <trkpt lat="45.38187" lon="4.95436">
        <ele>332.22</ele>
        <time>2017-03-26T08:43:14Z</time>
      </trkpt>
      <trkpt lat="45.38199" lon="4.95437">
        <ele>332.42</ele>
        <time>2017-03-26T08:43:15Z</time>
      </trkpt>
      <trkpt lat="45.38211" lon="4.95438">
        <ele>333.02</ele>
        <time>2017-03-26T08:43:16Z</time>
      </trkpt>
      <trkpt lat="45.38221" lon="4.95439">
        <ele>333.46</ele>
        <time>2017-03-26T08:43:17Z</time>
      </trkpt>
      <trkpt lat="45.38229" lon="4.95439">
        <ele>333.95</ele>
        <time>2017-03-26T08:43:18Z</time>
      </trkpt>
      <trkpt lat="45.38238" lon="4.95439">
        <ele>334.2</ele>
        <time>2017-03-26T08:43:19Z</time>
      </trkpt>
      <trkpt lat="45.38246" lon="4.95438">
        <ele>334.41</ele>
        <time>2017-03-26T08:43:20Z</time>
      </trkpt>
      <trkpt lat="45.38255" lon="4.95437">
        <ele>334.46</ele>
        <time>2017-03-26T08:43:21Z</time>
      </trkpt>
      <trkpt lat="45.38263" lon="4.95436">
        <ele>334.62</ele>
        <time>2017-03-26T08:43:22Z</time>
      </trkpt>
      <trkpt lat="45.38271" lon="4.95433">
        <ele>334.82</ele>
        <time>2017-03-26T08:43:23Z</time>
      </trkpt>
      <trkpt lat="45.38278" lon="4.95427">
        <ele>334.7</ele>
        <time>2017-03-26T08:43:24Z</time>
      </trkpt>
      <trkpt lat="45.38282" lon="4.95418">
        <ele>334.27</ele>
        <time>2017-03-26T08:43:25Z</time>
      </trkpt>
      <trkpt lat="45.38284" lon="4.95405">
        <ele>333.71</ele>
        <time>2017-03-26T08:43:26Z</time>
      </trkpt>
      <trkpt lat="45.38285" lon="4.95388">
        <ele>333.68</ele>
        <time>2017-03-26T08:43:27Z</time>
      </trkpt>
      <trkpt lat="45.38284" lon="4.95369">
        <ele>333.51</ele>
        <time>2017-03-26T08:43:28Z</time>
      </trkpt>
      <trkpt lat="45.38284" lon="4.95347">
        <ele>333.16</ele>
        <time>2017-03-26T08:43:29Z</time>
      </trkpt>
      <trkpt lat="45.38283" lon="4.95323">
        <ele>332.52</ele>
        <time>2017-03-26T08:43:30Z</time>
      </trkpt>
      <trkpt lat="45.38281" lon="4.95298">
        <ele>331.68</ele>
        <time>2017-03-26T08:43:31Z</time>
      </trkpt>
      <trkpt lat="45.3828" lon="4.95273">
        <ele>331.03</ele>
        <time>2017-03-26T08:43:32Z</time>
      </trkpt>
      <trkpt lat="45.38278" lon="4.95247">
        <ele>330.26</ele>
        <time>2017-03-26T08:43:33Z</time>
      </trkpt>
      <trkpt lat="45.38277" lon="4.9522">
        <ele>329.15</ele>
        <time>2017-03-26T08:43:34Z</time>
      </trkpt>
      <trkpt lat="45.38276" lon="4.95193">
        <ele>328.2</ele>
        <time>2017-03-26T08:43:35Z</time>
      </trkpt>
      <trkpt lat="45.38274" lon="4.95165">
        <ele>327.21</ele>
        <time>2017-03-26T08:43:36Z</time>
      </trkpt>
      <trkpt lat="45.38273" lon="4.95137">
        <ele>325.98</ele>
        <time>2017-03-26T08:43:37Z</time>
      </trkpt>
      <trkpt lat="45.38272" lon="4.9511">
        <ele>324.85</ele>
        <time>2017-03-26T08:43:38Z</time>
      </trkpt>
      <trkpt lat="45.38271" lon="4.95082">
        <ele>323.82</ele>
        <time>2017-03-26T08:43:39Z</time>
      </trkpt>
      <trkpt lat="45.3827" lon="4.95053">
        <ele>322.9</ele>
        <time>2017-03-26T08:43:40Z</time>
      </trkpt>
      <trkpt lat="45.38269" lon="4.95025">
        <ele>321.99</ele>
        <time>2017-03-26T08:43:41Z</time>
      </trkpt>
      <trkpt lat="45.38268" lon="4.94997">
        <ele>320.85</ele>
        <time>2017-03-26T08:43:42Z</time>
      </trkpt>
      <trkpt lat="45.38267" lon="4.94969">
        <ele>319.58</ele>
        <time>2017-03-26T08:43:43Z</time>
      </trkpt>
      <trkpt lat="45.38266" lon="4.94942">
        <ele>318.21</ele>
        <time>2017-03-26T08:43:44Z</time>
      </trkpt>
      <trkpt lat="45.38265" lon="4.94917">
        <ele>317.06</ele>
        <time>2017-03-26T08:43:45Z</time>
      </trkpt>
      <trkpt lat="45.38263" lon="4.94893">
        <ele>315.78</ele>
        <time>2017-03-26T08:43:46Z</time>
      </trkpt>
      <trkpt lat="45.38263" lon="4.94871">
        <ele>314.57</ele>
        <time>2017-03-26T08:43:47Z</time>
      </trkpt>
      <trkpt lat="45.38262" lon="4.9485">
        <ele>313.53</ele>
        <time>2017-03-26T08:43:48Z</time>
      </trkpt>
      <trkpt lat="45.38263" lon="4.94827">
        <ele>312.52</ele>
        <time>2017-03-26T08:43:49Z</time>
      </trkpt>
      <trkpt lat="45.38263" lon="4.94803">
        <ele>311.44</ele>
        <time>2017-03-26T08:43:50Z</time>
      </trkpt>
      <trkpt lat="45.38264" lon="4.94778">
        <ele>310.26</ele>
        <time>2017-03-26T08:43:51Z</time>
      </trkpt>
      <trkpt lat="45.38265" lon="4.94752">
        <ele>309.07</ele>
        <time>2017-03-26T08:43:52Z</time>
      </trkpt>
      <trkpt lat="45.38267" lon="4.94726">
        <ele>308.11</ele>
        <time>2017-03-26T08:43:53Z</time>
      </trkpt>
      <trkpt lat="45.38268" lon="4.94699">
        <ele>306.87</ele>
        <time>2017-03-26T08:43:54Z</time>
      </trkpt>
      <trkpt lat="45.3827" lon="4.94671">
        <ele>305.91</ele>
        <time>2017-03-26T08:43:55Z</time>
      </trkpt>
      <trkpt lat="45.38271" lon="4.94644">
        <ele>305.72</ele>
        <time>2017-03-26T08:43:56Z</time>
      </trkpt>
      <trkpt lat="45.38272" lon="4.94616">
        <ele>306.08</ele>
        <time>2017-03-26T08:43:57Z</time>
      </trkpt>
      <trkpt lat="45.38273" lon="4.9459">
        <ele>306.23</ele>
        <time>2017-03-26T08:43:58Z</time>
      </trkpt>
      <trkpt lat="45.38274" lon="4.94564">
        <ele>306.5</ele>
        <time>2017-03-26T08:43:59Z</time>
      </trkpt>
      <trkpt lat="45.38274" lon="4.9454">
        <ele>306.79</ele>
        <time>2017-03-26T08:44:00Z</time>
      </trkpt>
      <trkpt lat="45.38272" lon="4.94518">
        <ele>307.09</ele>
        <time>2017-03-26T08:44:01Z</time>
      </trkpt>
      <trkpt lat="45.38269" lon="4.94496">
        <ele>307.63</ele>
        <time>2017-03-26T08:44:02Z</time>
      </trkpt>
      <trkpt lat="45.38266" lon="4.94476">
        <ele>307.98</ele>
        <time>2017-03-26T08:44:03Z</time>
      </trkpt>
      <trkpt lat="45.38265" lon="4.94459">
        <ele>308.29</ele>
        <time>2017-03-26T08:44:04Z</time>
      </trkpt>
      <trkpt lat="45.38265" lon="4.94442">
        <ele>308.59</ele>
        <time>2017-03-26T08:44:05Z</time>
      </trkpt>
      <trkpt lat="45.38268" lon="4.94424">
        <ele>308.81</ele>
        <time>2017-03-26T08:44:06Z</time>
      </trkpt>
      <trkpt lat="45.38273" lon="4.94403">
        <ele>308.94</ele>
        <time>2017-03-26T08:44:07Z</time>
      </trkpt>
      <trkpt lat="45.38279" lon="4.9438">
        <ele>308.96</ele>
        <time>2017-03-26T08:44:08Z</time>
      </trkpt>
      <trkpt lat="45.38284" lon="4.94355">
        <ele>308.81</ele>
        <time>2017-03-26T08:44:09Z</time>
      </trkpt>
      <trkpt lat="45.3829" lon="4.9433">
        <ele>308.61</ele>
        <time>2017-03-26T08:44:10Z</time>
      </trkpt>
      <trkpt lat="45.38296" lon="4.94303">
        <ele>308.74</ele>
        <time>2017-03-26T08:44:11Z</time>
      </trkpt>
      <trkpt lat="45.38302" lon="4.94276">
        <ele>308.6</ele>
        <time>2017-03-26T08:44:12Z</time>
      </trkpt>
      <trkpt lat="45.38308" lon="4.94249">
        <ele>308.25</ele>
        <time>2017-03-26T08:44:13Z</time>
      </trkpt>
      <trkpt lat="45.38314" lon="4.94222">
        <ele>308.18</ele>
        <time>2017-03-26T08:44:14Z</time>
      </trkpt>
      <trkpt lat="45.3832" lon="4.94196">
        <ele>308.33</ele>
        <time>2017-03-26T08:44:15Z</time>
      </trkpt>
      <trkpt lat="45.38326" lon="4.94171">
        <ele>308.28</ele>
        <time>2017-03-26T08:44:16Z</time>
      </trkpt>
      <trkpt lat="45.38331" lon="4.94147">
        <ele>307.71</ele>
        <time>2017-03-26T08:44:17Z</time>
      </trkpt>
      <trkpt lat="45.38338" lon="4.94123">
        <ele>306.96</ele>
        <time>2017-03-26T08:44:18Z</time>
      </trkpt>
      <trkpt lat="45.38345" lon="4.94099">
        <ele>305.92</ele>
        <time>2017-03-26T08:44:19Z</time>
      </trkpt>
      <trkpt lat="45.38352" lon="4.94076">
        <ele>305.24</ele>
        <time>2017-03-26T08:44:20Z</time>
      </trkpt>
      <trkpt lat="45.38359" lon="4.94053">
        <ele>304.3</ele>
        <time>2017-03-26T08:44:21Z</time>
      </trkpt>
      <trkpt lat="45.38368" lon="4.9403">
        <ele>303.55</ele>
        <time>2017-03-26T08:44:22Z</time>
      </trkpt>
      <trkpt lat="45.38379" lon="4.94011">
        <ele>302.84</ele>
        <time>2017-03-26T08:44:23Z</time>
      </trkpt>
      <trkpt lat="45.38392" lon="4.93993">
        <ele>302.78</ele>
        <time>2017-03-26T08:44:24Z</time>
      </trkpt>
      <trkpt lat="45.38405" lon="4.93975">
        <ele>302.93</ele>
        <time>2017-03-26T08:44:25Z</time>
      </trkpt>
      <trkpt lat="45.38419" lon="4.93958">
        <ele>302.72</ele>
        <time>2017-03-26T08:44:26Z</time>
      </trkpt>
      <trkpt lat="45.38431" lon="4.9394">
        <ele>302.84</ele>
        <time>2017-03-26T08:44:27Z</time>
      </trkpt>
      <trkpt lat="45.38444" lon="4.93922">
        <ele>302.86</ele>
        <time>2017-03-26T08:44:28Z</time>
      </trkpt>
      <trkpt lat="45.38455" lon="4.93905">
        <ele>302.63</ele>
        <time>2017-03-26T08:44:29Z</time>
      </trkpt>
      <trkpt lat="45.38466" lon="4.93887">
        <ele>302.26</ele>
        <time>2017-03-26T08:44:30Z</time>
      </trkpt>
      <trkpt lat="45.38475" lon="4.9387">
        <ele>301.63</ele>
        <time>2017-03-26T08:44:31Z</time>
      </trkpt>
      <trkpt lat="45.38482" lon="4.93854">
        <ele>300.78</ele>
        <time>2017-03-26T08:44:32Z</time>
      </trkpt>
      <trkpt lat="45.38489" lon="4.93839">
        <ele>299.97</ele>
        <time>2017-03-26T08:44:33Z</time>
      </trkpt>
      <trkpt lat="45.38496" lon="4.93827">
        <ele>299.25</ele>
        <time>2017-03-26T08:44:34Z</time>
      </trkpt>
      <trkpt lat="45.38503" lon="4.93822">
        <ele>298.38</ele>
        <time>2017-03-26T08:44:35Z</time>
      </trkpt>
      <trkpt lat="45.3851" lon="4.93821">
        <ele>297.81</ele>
        <time>2017-03-26T08:44:36Z</time>
      </trkpt>
      <trkpt lat="45.38516" lon="4.93825">
        <ele>297.14</ele>
        <time>2017-03-26T08:44:37Z</time>
      </trkpt>
      <trkpt lat="45.38524" lon="4.9383">
        <ele>296.44</ele>
        <time>2017-03-26T08:44:38Z</time>
      </trkpt>
      <trkpt lat="45.38533" lon="4.93833">
        <ele>295.98</ele>
        <time>2017-03-26T08:44:39Z</time>
      </trkpt>
      <trkpt lat="45.38541" lon="4.93833">
        <ele>295.41</ele>
        <time>2017-03-26T08:44:40Z</time>
      </trkpt>
      <trkpt lat="45.3855" lon="4.93827">
        <ele>294.9</ele>
        <time>2017-03-26T08:44:41Z</time>
      </trkpt>
      <trkpt lat="45.38558" lon="4.93815">
        <ele>294.15</ele>
        <time>2017-03-26T08:44:42Z</time>
      </trkpt>
      <trkpt lat="45.38561" lon="4.93799">
        <ele>293.52</ele>
        <time>2017-03-26T08:44:43Z</time>
      </trkpt>
      <trkpt lat="45.38565" lon="4.93781">
        <ele>292.92</ele>
        <time>2017-03-26T08:44:44Z</time>
      </trkpt>
      <trkpt lat="45.38569" lon="4.93763">
        <ele>292.16</ele>
        <time>2017-03-26T08:44:45Z</time>
      </trkpt>
      <trkpt lat="45.38566" lon="4.93742">
        <ele>291.53</ele>
        <time>2017-03-26T08:44:46Z</time>
      </trkpt>
      <trkpt lat="45.38564" lon="4.93723">
        <ele>290.84</ele>
        <time>2017-03-26T08:44:47Z</time>
      </trkpt>
      <trkpt lat="45.3856" lon="4.93704">
        <ele>290.14</ele>
        <time>2017-03-26T08:44:48Z</time>
      </trkpt>
      <trkpt lat="45.38559" lon="4.93684">
        <ele>289.44</ele>
        <time>2017-03-26T08:44:49Z</time>
      </trkpt>
      <trkpt lat="45.38562" lon="4.93663">
        <ele>288.66</ele>
        <time>2017-03-26T08:44:50Z</time>
      </trkpt>
      <trkpt lat="45.38566" lon="4.93641">
        <ele>287.87</ele>
        <time>2017-03-26T08:44:51Z</time>
      </trkpt>
      <trkpt lat="45.38572" lon="4.93618">
        <ele>287.07</ele>
        <time>2017-03-26T08:44:52Z</time>
      </trkpt>
      <trkpt lat="45.38585" lon="4.93597">
        <ele>286.43</ele>
        <time>2017-03-26T08:44:53Z</time>
      </trkpt>
      <trkpt lat="45.38596" lon="4.93573">
        <ele>285.98</ele>
        <time>2017-03-26T08:44:54Z</time>
      </trkpt>
      <trkpt lat="45.38607" lon="4.93549">
        <ele>285.49</ele>
        <time>2017-03-26T08:44:55Z</time>
      </trkpt>
      <trkpt lat="45.38619" lon="4.93525">
        <ele>285.23</ele>
        <time>2017-03-26T08:44:56Z</time>
      </trkpt>
      <trkpt lat="45.3863" lon="4.935">
        <ele>285.1</ele>
        <time>2017-03-26T08:44:57Z</time>
      </trkpt>
      <trkpt lat="45.38641" lon="4.93476">
        <ele>284.67</ele>
        <time>2017-03-26T08:44:58Z</time>
      </trkpt>
      <trkpt lat="45.3865" lon="4.9345">
        <ele>283.95</ele>
        <time>2017-03-26T08:44:59Z</time>
      </trkpt>
      <trkpt lat="45.3866" lon="4.93424">
        <ele>283.24</ele>
        <time>2017-03-26T08:45:00Z</time>
      </trkpt>
      <trkpt lat="45.38668" lon="4.93396">
        <ele>282.46</ele>
        <time>2017-03-26T08:45:01Z</time>
      </trkpt>
      <trkpt lat="45.38677" lon="4.93367">
        <ele>282.71</ele>
        <time>2017-03-26T08:45:02Z</time>
      </trkpt>
      <trkpt lat="45.38685" lon="4.93337">
        <ele>282.91</ele>
        <time>2017-03-26T08:45:03Z</time>
      </trkpt>
      <trkpt lat="45.38693" lon="4.93308">
        <ele>283.12</ele>
        <time>2017-03-26T08:45:04Z</time>
      </trkpt>
      <trkpt lat="45.38702" lon="4.9328">
        <ele>283.88</ele>
        <time>2017-03-26T08:45:05Z</time>
      </trkpt>
      <trkpt lat="45.38711" lon="4.93251">
        <ele>284.59</ele>
        <time>2017-03-26T08:45:06Z</time>
      </trkpt>
      <trkpt lat="45.38721" lon="4.93225">
        <ele>285.37</ele>
        <time>2017-03-26T08:45:07Z</time>
      </trkpt>
      <trkpt lat="45.38732" lon="4.932">
        <ele>285.61</ele>
        <time>2017-03-26T08:45:08Z</time>
      </trkpt>
      <trkpt lat="45.38742" lon="4.93175">
        <ele>285.9</ele>
        <time>2017-03-26T08:45:09Z</time>
      </trkpt>
      <trkpt lat="45.38749" lon="4.93151">
        <ele>286.27</ele>
        <time>2017-03-26T08:45:10Z</time>
      </trkpt>
      <trkpt lat="45.38756" lon="4.9313">
        <ele>286.35</ele>
        <time>2017-03-26T08:45:11Z</time>
      </trkpt>
      <trkpt lat="45.38763" lon="4.93113">
        <ele>286.28</ele>
        <time>2017-03-26T08:45:12Z</time>
      </trkpt>
      <trkpt lat="45.38772" lon="4.931">
        <ele>286.27</ele>
        <time>2017-03-26T08:45:13Z</time>
      </trkpt>
      <trkpt lat="45.38783" lon="4.93093">
        <ele>286.11</ele>
        <time>2017-03-26T08:45:14Z</time>
      </trkpt>
      <trkpt lat="45.38802" lon="4.93095">
        <ele>286.16</ele>
        <time>2017-03-26T08:45:15Z</time>
      </trkpt>
      <trkpt lat="45.38821" lon="4.931">
        <ele>286.08</ele>
        <time>2017-03-26T08:45:16Z</time>
      </trkpt>
      <trkpt lat="45.38841" lon="4.93105">
        <ele>285.67</ele>
        <time>2017-03-26T08:45:17Z</time>
      </trkpt>
      <trkpt lat="45.38861" lon="4.93111">
        <ele>284.79</ele>
        <time>2017-03-26T08:45:18Z</time>
      </trkpt>
      <trkpt lat="45.3888" lon="4.93117">
        <ele>282.85</ele>
        <time>2017-03-26T08:45:19Z</time>
      </trkpt>
      <trkpt lat="45.38899" lon="4.93124">
        <ele>281.5</ele>
        <time>2017-03-26T08:45:20Z</time>
      </trkpt>
      <trkpt lat="45.38916" lon="4.93131">
        <ele>280.27</ele>
        <time>2017-03-26T08:45:21Z</time>
      </trkpt>
      <trkpt lat="45.38931" lon="4.93142">
        <ele>279.31</ele>
        <time>2017-03-26T08:45:22Z</time>
      </trkpt>
      <trkpt lat="45.38944" lon="4.93153">
        <ele>278.56</ele>
        <time>2017-03-26T08:45:23Z</time>
      </trkpt>
      <trkpt lat="45.38955" lon="4.93162">
        <ele>277.68</ele>
        <time>2017-03-26T08:45:24Z</time>
      </trkpt>
      <trkpt lat="45.38966" lon="4.93165">
        <ele>277.27</ele>
        <time>2017-03-26T08:45:25Z</time>
      </trkpt>
      <trkpt lat="45.38976" lon="4.93163">
        <ele>276.79</ele>
        <time>2017-03-26T08:45:26Z</time>
      </trkpt>
      <trkpt lat="45.38983" lon="4.93153">
        <ele>276.85</ele>
        <time>2017-03-26T08:45:27Z</time>
      </trkpt>
      <trkpt lat="45.38987" lon="4.93138">
        <ele>276.94</ele>
        <time>2017-03-26T08:45:28Z</time>
      </trkpt>
      <trkpt lat="45.3899" lon="4.93124">
        <ele>276.72</ele>
        <time>2017-03-26T08:45:29Z</time>
      </trkpt>
      <trkpt lat="45.3899" lon="4.93106">
        <ele>276.68</ele>
        <time>2017-03-26T08:45:30Z</time>
      </trkpt>
      <trkpt lat="45.38983" lon="4.93086">
        <ele>276.75</ele>
        <time>2017-03-26T08:45:31Z</time>
      </trkpt>
      <trkpt lat="45.38971" lon="4.93063">
        <ele>276.6</ele>
        <time>2017-03-26T08:45:32Z</time>
      </trkpt>
      <trkpt lat="45.38955" lon="4.93038">
        <ele>276.97</ele>
        <time>2017-03-26T08:45:33Z</time>
      </trkpt>
      <trkpt lat="45.38942" lon="4.93014">
        <ele>277.53</ele>
        <time>2017-03-26T08:45:34Z</time>
      </trkpt>
      <trkpt lat="45.38931" lon="4.9299">
        <ele>278.28</ele>
        <time>2017-03-26T08:45:35Z</time>
      </trkpt>
      <trkpt lat="45.38923" lon="4.92965">
        <ele>279.07</ele>
        <time>2017-03-26T08:45:36Z</time>
      </trkpt>
      <trkpt lat="45.38918" lon="4.92939">
        <ele>280.03</ele>
        <time>2017-03-26T08:45:37Z</time>
      </trkpt>
      <trkpt lat="45.38916" lon="4.92912">
        <ele>280.38</ele>
        <time>2017-03-26T08:45:38Z</time>
      </trkpt>
      <trkpt lat="45.3892" lon="4.92886">
        <ele>280.93</ele>
        <time>2017-03-26T08:45:39Z</time>
      </trkpt>
      <trkpt lat="45.38926" lon="4.92862">
        <ele>281.28</ele>
        <time>2017-03-26T08:45:40Z</time>
      </trkpt>
      <trkpt lat="45.38932" lon="4.92838">
        <ele>282.07</ele>
        <time>2017-03-26T08:45:41Z</time>
      </trkpt>
      <trkpt lat="45.38936" lon="4.92815">
        <ele>282.87</ele>
        <time>2017-03-26T08:45:42Z</time>
      </trkpt>
      <trkpt lat="45.38936" lon="4.92791">
        <ele>283.35</ele>
        <time>2017-03-26T08:45:43Z</time>
      </trkpt>
      <trkpt lat="45.38932" lon="4.92766">
        <ele>284</ele>
        <time>2017-03-26T08:45:44Z</time>
      </trkpt>
      <trkpt lat="45.38925" lon="4.9274">
        <ele>284.77</ele>
        <time>2017-03-26T08:45:45Z</time>
      </trkpt>
      <trkpt lat="45.38917" lon="4.92713">
        <ele>285.17</ele>
        <time>2017-03-26T08:45:46Z</time>
      </trkpt>
      <trkpt lat="45.38911" lon="4.92686">
        <ele>285.89</ele>
        <time>2017-03-26T08:45:47Z</time>
      </trkpt>
      <trkpt lat="45.38907" lon="4.92657">
        <ele>286.67</ele>
        <time>2017-03-26T08:45:48Z</time>
      </trkpt>
      <trkpt lat="45.38906" lon="4.92628">
        <ele>287.15</ele>
        <time>2017-03-26T08:45:49Z</time>
      </trkpt>
      <trkpt lat="45.38911" lon="4.92599">
        <ele>287.64</ele>
        <time>2017-03-26T08:45:50Z</time>
      </trkpt>
      <trkpt lat="45.38917" lon="4.9257">
        <ele>288.46</ele>
        <time>2017-03-26T08:45:51Z</time>
      </trkpt>
      <trkpt lat="45.38922" lon="4.92543">
        <ele>289.19</ele>
        <time>2017-03-26T08:45:52Z</time>
      </trkpt>
      <trkpt lat="45.38926" lon="4.92516">
        <ele>289.73</ele>
        <time>2017-03-26T08:45:53Z</time>
      </trkpt>
      <trkpt lat="45.38927" lon="4.92491">
        <ele>289.68</ele>
        <time>2017-03-26T08:45:54Z</time>
      </trkpt>
      <trkpt lat="45.38927" lon="4.92467">
        <ele>289.91</ele>
        <time>2017-03-26T08:45:55Z</time>
      </trkpt>
      <trkpt lat="45.38927" lon="4.92446">
        <ele>290.44</ele>
        <time>2017-03-26T08:45:56Z</time>
      </trkpt>
      <trkpt lat="45.38925" lon="4.92425">
        <ele>290.86</ele>
        <time>2017-03-26T08:45:57Z</time>
      </trkpt>
      <trkpt lat="45.38923" lon="4.92405">
        <ele>291.03</ele>
        <time>2017-03-26T08:45:58Z</time>
      </trkpt>
      <trkpt lat="45.38921" lon="4.92385">
        <ele>291.3</ele>
        <time>2017-03-26T08:45:59Z</time>
      </trkpt>
      <trkpt lat="45.38921" lon="4.92365">
        <ele>291.11</ele>
        <time>2017-03-26T08:46:00Z</time>
      </trkpt>
      <trkpt lat="45.38924" lon="4.92345">
        <ele>291.08</ele>
        <time>2017-03-26T08:46:01Z</time>
      </trkpt>
      <trkpt lat="45.38929" lon="4.92327">
        <ele>291.23</ele>
        <time>2017-03-26T08:46:02Z</time>
      </trkpt>
      <trkpt lat="45.3894" lon="4.92317">
        <ele>290.78</ele>
        <time>2017-03-26T08:46:03Z</time>
      </trkpt>
      <trkpt lat="45.38949" lon="4.92307">
        <ele>289.97</ele>
        <time>2017-03-26T08:46:04Z</time>
      </trkpt>
      <trkpt lat="45.38956" lon="4.92295">
        <ele>289.33</ele>
        <time>2017-03-26T08:46:05Z</time>
      </trkpt>
      <trkpt lat="45.38959" lon="4.9228">
        <ele>288.64</ele>
        <time>2017-03-26T08:46:06Z</time>
      </trkpt>
      <trkpt lat="45.38956" lon="4.92263">
        <ele>288.42</ele>
        <time>2017-03-26T08:46:07Z</time>
      </trkpt>
      <trkpt lat="45.38949" lon="4.92247">
        <ele>287.58</ele>
        <time>2017-03-26T08:46:08Z</time>
      </trkpt>
      <trkpt lat="45.38941" lon="4.92231">
        <ele>286.61</ele>
        <time>2017-03-26T08:46:09Z</time>
      </trkpt>
      <trkpt lat="45.38932" lon="4.92215">
        <ele>285.62</ele>
        <time>2017-03-26T08:46:10Z</time>
      </trkpt>
      <trkpt lat="45.38925" lon="4.922">
        <ele>284.78</ele>
        <time>2017-03-26T08:46:11Z</time>
      </trkpt>
      <trkpt lat="45.38921" lon="4.92183">
        <ele>283.97</ele>
        <time>2017-03-26T08:46:12Z</time>
      </trkpt>
      <trkpt lat="45.38919" lon="4.92166">
        <ele>283.17</ele>
        <time>2017-03-26T08:46:13Z</time>
      </trkpt>
      <trkpt lat="45.38919" lon="4.92146">
        <ele>282.45</ele>
        <time>2017-03-26T08:46:14Z</time>
      </trkpt>
      <trkpt lat="45.38922" lon="4.92127">
        <ele>281.66</ele>
        <time>2017-03-26T08:46:15Z</time>
      </trkpt>
      <trkpt lat="45.38925" lon="4.92106">
        <ele>281.03</ele>
        <time>2017-03-26T08:46:16Z</time>
      </trkpt>
      <trkpt lat="45.38928" lon="4.92084">
        <ele>280.26</ele>
        <time>2017-03-26T08:46:17Z</time>
      </trkpt>
      <trkpt lat="45.38932" lon="4.92062">
        <ele>279.55</ele>
        <time>2017-03-26T08:46:18Z</time>
      </trkpt>
      <trkpt lat="45.38935" lon="4.92039">
        <ele>278.84</ele>
        <time>2017-03-26T08:46:19Z</time>
      </trkpt>
      <trkpt lat="45.38939" lon="4.92015">
        <ele>278.54</ele>
        <time>2017-03-26T08:46:20Z</time>
      </trkpt>
      <trkpt lat="45.38944" lon="4.9199">
        <ele>278.08</ele>
        <time>2017-03-26T08:46:21Z</time>
      </trkpt>
      <trkpt lat="45.38948" lon="4.91966">
        <ele>277.67</ele>
        <time>2017-03-26T08:46:22Z</time>
      </trkpt>
      <trkpt lat="45.38952" lon="4.91943">
        <ele>277.03</ele>
        <time>2017-03-26T08:46:23Z</time>
      </trkpt>
      <trkpt lat="45.38956" lon="4.91921">
        <ele>276.5</ele>
        <time>2017-03-26T08:46:24Z</time>
      </trkpt>
      <trkpt lat="45.3896" lon="4.91899">
        <ele>275.91</ele>
        <time>2017-03-26T08:46:25Z</time>
      </trkpt>
      <trkpt lat="45.38966" lon="4.91879">
        <ele>275.16</ele>
        <time>2017-03-26T08:46:26Z</time>
      </trkpt>
      <trkpt lat="45.38974" lon="4.91858">
        <ele>274.36</ele>
        <time>2017-03-26T08:46:27Z</time>
      </trkpt>
      <trkpt lat="45.38982" lon="4.91838">
        <ele>273.73</ele>
        <time>2017-03-26T08:46:28Z</time>
      </trkpt>
      <trkpt lat="45.3899" lon="4.91816">
        <ele>273.12</ele>
        <time>2017-03-26T08:46:29Z</time>
      </trkpt>
      <trkpt lat="45.38999" lon="4.91795">
        <ele>272.28</ele>
        <time>2017-03-26T08:46:30Z</time>
      </trkpt>
      <trkpt lat="45.39007" lon="4.91773">
        <ele>271.31</ele>
        <time>2017-03-26T08:46:31Z</time>
      </trkpt>
      <trkpt lat="45.39016" lon="4.91752">
        <ele>270.24</ele>
        <time>2017-03-26T08:46:32Z</time>
      </trkpt>
      <trkpt lat="45.39024" lon="4.91733">
        <ele>269.22</ele>
        <time>2017-03-26T08:46:33Z</time>
      </trkpt>
      <trkpt lat="45.39031" lon="4.91718">
        <ele>268.06</ele>
        <time>2017-03-26T08:46:34Z</time>
      </trkpt>
      <trkpt lat="45.39037" lon="4.91704">
        <ele>266.71</ele>
        <time>2017-03-26T08:46:35Z</time>
      </trkpt>
      <trkpt lat="45.39038" lon="4.91692">
        <ele>266.03</ele>
        <time>2017-03-26T08:46:36Z</time>
      </trkpt>
      <trkpt lat="45.39038" lon="4.91681">
        <ele>265.1</ele>
        <time>2017-03-26T08:46:37Z</time>
      </trkpt>
      <trkpt lat="45.39035" lon="4.91672">
        <ele>264.19</ele>
        <time>2017-03-26T08:46:38Z</time>
      </trkpt>
      <trkpt lat="45.39029" lon="4.91666">
        <ele>263.21</ele>
        <time>2017-03-26T08:46:39Z</time>
      </trkpt>
      <trkpt lat="45.39022" lon="4.91666">
        <ele>262.06</ele>
        <time>2017-03-26T08:46:40Z</time>
      </trkpt>
      <trkpt lat="45.39013" lon="4.91673">
        <ele>260.78</ele>
        <time>2017-03-26T08:46:41Z</time>
      </trkpt>
      <trkpt lat="45.39001" lon="4.91683">
        <ele>259.49</ele>
        <time>2017-03-26T08:46:42Z</time>
      </trkpt>
      <trkpt lat="45.38989" lon="4.91695">
        <ele>258.27</ele>
        <time>2017-03-26T08:46:43Z</time>
      </trkpt>
      <trkpt lat="45.38977" lon="4.91708">
        <ele>256.83</ele>
        <time>2017-03-26T08:46:44Z</time>
      </trkpt>
      <trkpt lat="45.38964" lon="4.91722">
        <ele>255.58</ele>
        <time>2017-03-26T08:46:45Z</time>
      </trkpt>
      <trkpt lat="45.38953" lon="4.91733">
        <ele>254.21</ele>
        <time>2017-03-26T08:46:46Z</time>
      </trkpt>
      <trkpt lat="45.38942" lon="4.91741">
        <ele>253.3</ele>
        <time>2017-03-26T08:46:47Z</time>
      </trkpt>
      <trkpt lat="45.38931" lon="4.91744">
        <ele>252.47</ele>
        <time>2017-03-26T08:46:48Z</time>
      </trkpt>
      <trkpt lat="45.38921" lon="4.91739">
        <ele>251.67</ele>
        <time>2017-03-26T08:46:49Z</time>
      </trkpt>
      <trkpt lat="45.38915" lon="4.91729">
        <ele>250.55</ele>
        <time>2017-03-26T08:46:50Z</time>
      </trkpt>
      <trkpt lat="45.38912" lon="4.91713">
        <ele>249.2</ele>
        <time>2017-03-26T08:46:51Z</time>
      </trkpt>
      <trkpt lat="45.38913" lon="4.91695">
        <ele>248.13</ele>
        <time>2017-03-26T08:46:52Z</time>
      </trkpt>
      <trkpt lat="45.38922" lon="4.91677">
        <ele>247.04</ele>
        <time>2017-03-26T08:46:53Z</time>
      </trkpt>
      <trkpt lat="45.38933" lon="4.91659">
        <ele>245.86</ele>
        <time>2017-03-26T08:46:54Z</time>
      </trkpt>
      <trkpt lat="45.38947" lon="4.91642">
        <ele>244.59</ele>
        <time>2017-03-26T08:46:55Z</time>
      </trkpt>
      <trkpt lat="45.38961" lon="4.91625">
        <ele>243.21</ele>
        <time>2017-03-26T08:46:56Z</time>
      </trkpt>
      <trkpt lat="45.38973" lon="4.91609">
        <ele>241.66</ele>
        <time>2017-03-26T08:46:57Z</time>
      </trkpt>
      <trkpt lat="45.38983" lon="4.91594">
        <ele>240.22</ele>
        <time>2017-03-26T08:46:58Z</time>
      </trkpt>
      <trkpt lat="45.3899" lon="4.91579">
        <ele>239.06</ele>
        <time>2017-03-26T08:46:59Z</time>
      </trkpt>
      <trkpt lat="45.38995" lon="4.91563">
        <ele>237.87</ele>
        <time>2017-03-26T08:47:00Z</time>
      </trkpt>
      <trkpt lat="45.38999" lon="4.91545">
        <ele>236.67</ele>
        <time>2017-03-26T08:47:01Z</time>
      </trkpt>
      <trkpt lat="45.39" lon="4.91524">
        <ele>235.39</ele>
        <time>2017-03-26T08:47:02Z</time>
      </trkpt>
      <trkpt lat="45.38999" lon="4.91502">
        <ele>234.09</ele>
        <time>2017-03-26T08:47:03Z</time>
      </trkpt>
      <trkpt lat="45.38996" lon="4.9148">
        <ele>232.87</ele>
        <time>2017-03-26T08:47:04Z</time>
      </trkpt>
      <trkpt lat="45.38994" lon="4.91459">
        <ele>231.51</ele>
        <time>2017-03-26T08:47:05Z</time>
      </trkpt>
      <trkpt lat="45.38993" lon="4.91438">
        <ele>230.12</ele>
        <time>2017-03-26T08:47:06Z</time>
      </trkpt>
      <trkpt lat="45.38996" lon="4.91418">
        <ele>228.8</ele>
        <time>2017-03-26T08:47:07Z</time>
      </trkpt>
      <trkpt lat="45.39001" lon="4.91397">
        <ele>227.49</ele>
        <time>2017-03-26T08:47:08Z</time>
      </trkpt>
      <trkpt lat="45.39008" lon="4.91374">
        <ele>226.27</ele>
        <time>2017-03-26T08:47:09Z</time>
      </trkpt>
      <trkpt lat="45.39015" lon="4.9135">
        <ele>224.83</ele>
        <time>2017-03-26T08:47:10Z</time>
      </trkpt>
      <trkpt lat="45.39021" lon="4.91323">
        <ele>223.42</ele>
        <time>2017-03-26T08:47:11Z</time>
      </trkpt>
      <trkpt lat="45.39027" lon="4.91296">
        <ele>222.02</ele>
        <time>2017-03-26T08:47:12Z</time>
      </trkpt>
      <trkpt lat="45.39032" lon="4.91269">
        <ele>221.26</ele>
        <time>2017-03-26T08:47:13Z</time>
      </trkpt>
      <trkpt lat="45.39035" lon="4.91243">
        <ele>220.39</ele>
        <time>2017-03-26T08:47:14Z</time>
      </trkpt>
      <trkpt lat="45.39038" lon="4.91218">
        <ele>219.41</ele>
        <time>2017-03-26T08:47:15Z</time>
      </trkpt>
      <trkpt lat="45.39041" lon="4.91194">
        <ele>218.1</ele>
        <time>2017-03-26T08:47:16Z</time>
      </trkpt>
      <trkpt lat="45.39045" lon="4.91171">
        <ele>216.79</ele>
        <time>2017-03-26T08:47:17Z</time>
      </trkpt>
      <trkpt lat="45.39049" lon="4.9115">
        <ele>215.73</ele>
        <time>2017-03-26T08:47:18Z</time>
      </trkpt>
      <trkpt lat="45.39054" lon="4.91131">
        <ele>214.48</ele>
        <time>2017-03-26T08:47:19Z</time>
      </trkpt>
      <trkpt lat="45.3906" lon="4.91114">
        <ele>213.11</ele>
        <time>2017-03-26T08:47:20Z</time>
      </trkpt>
      <trkpt lat="45.39066" lon="4.91097">
        <ele>211.72</ele>
        <time>2017-03-26T08:47:21Z</time>
      </trkpt>
      <trkpt lat="45.3907" lon="4.91079">
        <ele>210.88</ele>
        <time>2017-03-26T08:47:22Z</time>
      </trkpt>
      <trkpt lat="45.39075" lon="4.91061">
        <ele>210.87</ele>
        <time>2017-03-26T08:47:23Z</time>
      </trkpt>
      <trkpt lat="45.39079" lon="4.91043">
        <ele>211.11</ele>
        <time>2017-03-26T08:47:24Z</time>
      </trkpt>
      <trkpt lat="45.39083" lon="4.91025">
        <ele>211.16</ele>
        <time>2017-03-26T08:47:25Z</time>
      </trkpt>
      <trkpt lat="45.39086" lon="4.91007">
        <ele>211.16</ele>
        <time>2017-03-26T08:47:26Z</time>
      </trkpt>
      <trkpt lat="45.39089" lon="4.9099">
        <ele>211.01</ele>
        <time>2017-03-26T08:47:27Z</time>
      </trkpt>
      <trkpt lat="45.39091" lon="4.90974">
        <ele>211.05</ele>
        <time>2017-03-26T08:47:28Z</time>
      </trkpt>
      <trkpt lat="45.39094" lon="4.90959">
        <ele>210.74</ele>
        <time>2017-03-26T08:47:29Z</time>
      </trkpt>
      <trkpt lat="45.39097" lon="4.90944">
        <ele>210.52</ele>
        <time>2017-03-26T08:47:30Z</time>
      </trkpt>
      <trkpt lat="45.39099" lon="4.90932">
        <ele>210.56</ele>
        <time>2017-03-26T08:47:31Z</time>
      </trkpt>
      <trkpt lat="45.391" lon="4.90922">
        <ele>210.89</ele>
        <time>2017-03-26T08:47:32Z</time>
      </trkpt>
      <trkpt lat="45.39102" lon="4.90914">
        <ele>211.27</ele>
        <time>2017-03-26T08:47:33Z</time>
      </trkpt>
      <trkpt lat="45.39103" lon="4.90909">
        <ele>211.59</ele>
        <time>2017-03-26T08:47:34Z</time>
      </trkpt>
      <trkpt lat="45.39105" lon="4.90908">
        <ele>212.29</ele>
        <time>2017-03-26T08:47:35Z</time>
      </trkpt>
      <trkpt lat="45.39106" lon="4.90907">
        <ele>212.51</ele>
        <time>2017-03-26T08:47:36Z</time>
      </trkpt>
      <trkpt lat="45.39106" lon="4.90907">
        <ele>212.96</ele>
        <time>2017-03-26T08:47:37Z</time>
      </trkpt>
      <trkpt lat="45.39106" lon="4.90908">
        <ele>213.52</ele>
        <time>2017-03-26T08:47:38Z</time>
      </trkpt>
      <trkpt lat="45.39106" lon="4.90908">
        <ele>213.64</ele>
        <time>2017-03-26T08:47:39Z</time>
      </trkpt>
      <trkpt lat="45.39106" lon="4.90908">
        <ele>213.66</ele>
        <time>2017-03-26T08:47:40Z</time>
      </trkpt>
      <trkpt lat="45.39106" lon="4.90908">
        <ele>213.67</ele>
        <time>2017-03-26T08:47:41Z</time>
      </trkpt>
      <trkpt lat="45.39106" lon="4.90908">
        <ele>213.67</ele>
        <time>2017-03-26T08:47:42Z</time>
      </trkpt>
      <trkpt lat="45.39106" lon="4.90908">
        <ele>213.67</ele>
        <time>2017-03-26T08:47:43Z</time>
      </trkpt>
      <trkpt lat="45.39106" lon="4.90908">
        <ele>213.67</ele>
        <time>2017-03-26T08:47:44Z</time>
      </trkpt>
      <trkpt lat="45.39106" lon="4.90908">
        <ele>213.67</ele>
        <time>2017-03-26T08:47:45Z</time>
      </trkpt>
      <trkpt lat="45.39106" lon="4.90908">
        <ele>213.67</ele>
        <time>2017-03-26T08:47:46Z</time>
      </trkpt>
      <trkpt lat="45.39106" lon="4.90908">
        <ele>213.67</ele>
        <time>2017-03-26T08:47:47Z</time>
      </trkpt>
      <trkpt lat="45.39106" lon="4.90908">
        <ele>213.67</ele>
        <time>2017-03-26T08:47:48Z</time>
      </trkpt>
      <trkpt lat="45.39106" lon="4.90908">
        <ele>213.67</ele>
        <time>2017-03-26T08:47:49Z</time>
      </trkpt>
      <trkpt lat="45.39106" lon="4.90908">
        <ele>213.67</ele>
        <time>2017-03-26T08:47:50Z</time>
      </trkpt>
      <trkpt lat="45.39106" lon="4.90908">
        <ele>213.67</ele>
        <time>2017-03-26T08:47:51Z</time>
      </trkpt>
      <trkpt lat="45.39106" lon="4.90908">
        <ele>213.67</ele>
        <time>2017-03-26T08:47:52Z</time>
      </trkpt>
      <trkpt lat="45.39106" lon="4.90908">
        <ele>213.67</ele>
        <time>2017-03-26T08:47:53Z</time>
      </trkpt>
      <trkpt lat="45.39106" lon="4.90908">
        <ele>213.67</ele>
        <time>2017-03-26T08:47:54Z</time>
      </trkpt>
      <trkpt lat="45.39106" lon="4.90908">
        <ele>213.67</ele>
        <time>2017-03-26T08:47:55Z</time>
      </trkpt>
      <trkpt lat="45.39106" lon="4.90908">
        <ele>213.67</ele>
        <time>2017-03-26T08:47:56Z</time>
      </trkpt>
      <trkpt lat="45.39106" lon="4.90908">
        <ele>213.67</ele>
        <time>2017-03-26T08:47:57Z</time>
      </trkpt>
      <trkpt lat="45.39106" lon="4.90908">
        <ele>213.67</ele>
        <time>2017-03-26T08:47:58Z</time>
      </trkpt>
      <trkpt lat="45.39106" lon="4.90908">
        <ele>213.67</ele>
        <time>2017-03-26T08:47:59Z</time>
      </trkpt>
      <trkpt lat="45.39106" lon="4.90908">
        <ele>213.67</ele>
        <time>2017-03-26T08:48:00Z</time>
      </trkpt>
      <trkpt lat="45.39106" lon="4.90908">
        <ele>213.67</ele>
        <time>2017-03-26T08:48:01Z</time>
      </trkpt>
      <trkpt lat="45.39106" lon="4.90908">
        <ele>213.67</ele>
        <time>2017-03-26T08:48:02Z</time>
      </trkpt>
      <trkpt lat="45.39106" lon="4.90908">
        <ele>213.67</ele>
        <time>2017-03-26T08:48:03Z</time>
      </trkpt>
      <trkpt lat="45.39106" lon="4.90908">
        <ele>213.67</ele>
        <time>2017-03-26T08:48:04Z</time>
      </trkpt>
      <trkpt lat="45.39107" lon="4.90906">
        <ele>214.63</ele>
        <time>2017-03-26T08:48:05Z</time>
      </trkpt>
      <trkpt lat="45.39111" lon="4.90902">
        <ele>214.82</ele>
        <time>2017-03-26T08:48:06Z</time>
      </trkpt>
      <trkpt lat="45.39115" lon="4.90896">
        <ele>215.02</ele>
        <time>2017-03-26T08:48:07Z</time>
      </trkpt>
      <trkpt lat="45.3912" lon="4.90889">
        <ele>215.38</ele>
        <time>2017-03-26T08:48:08Z</time>
      </trkpt>
      <trkpt lat="45.39127" lon="4.90881">
        <ele>215.77</ele>
        <time>2017-03-26T08:48:09Z</time>
      </trkpt>
      <trkpt lat="45.39134" lon="4.90871">
        <ele>216.41</ele>
        <time>2017-03-26T08:48:10Z</time>
      </trkpt>
      <trkpt lat="45.39142" lon="4.9086">
        <ele>217.1</ele>
        <time>2017-03-26T08:48:11Z</time>
      </trkpt>
      <trkpt lat="45.39151" lon="4.90849">
        <ele>218.35</ele>
        <time>2017-03-26T08:48:12Z</time>
      </trkpt>
      <trkpt lat="45.3916" lon="4.90837">
        <ele>219.32</ele>
        <time>2017-03-26T08:48:13Z</time>
      </trkpt>
      <trkpt lat="45.3917" lon="4.90825">
        <ele>220.56</ele>
        <time>2017-03-26T08:48:14Z</time>
      </trkpt>
      <trkpt lat="45.39182" lon="4.90813">
        <ele>221.93</ele>
        <time>2017-03-26T08:48:15Z</time>
      </trkpt>
      <trkpt lat="45.39194" lon="4.90803">
        <ele>223.64</ele>
        <time>2017-03-26T08:48:16Z</time>
      </trkpt>
      <trkpt lat="45.39207" lon="4.90793">
        <ele>225.34</ele>
        <time>2017-03-26T08:48:17Z</time>
      </trkpt>
      <trkpt lat="45.39219" lon="4.90784">
        <ele>226.72</ele>
        <time>2017-03-26T08:48:18Z</time>
      </trkpt>
      <trkpt lat="45.39231" lon="4.90775">
        <ele>228.36</ele>
        <time>2017-03-26T08:48:19Z</time>
      </trkpt>
      <trkpt lat="45.39243" lon="4.90767">
        <ele>229.81</ele>
        <time>2017-03-26T08:48:20Z</time>
      </trkpt>
      <trkpt lat="45.39255" lon="4.9076">
        <ele>231.05</ele>
        <time>2017-03-26T08:48:21Z</time>
      </trkpt>
      <trkpt lat="45.39268" lon="4.90755">
        <ele>232.02</ele>
        <time>2017-03-26T08:48:22Z</time>
      </trkpt>
      <trkpt lat="45.3928" lon="4.90752">
        <ele>232.94</ele>
        <time>2017-03-26T08:48:23Z</time>
      </trkpt>
      <trkpt lat="45.39293" lon="4.90754">
        <ele>234.08</ele>
        <time>2017-03-26T08:48:24Z</time>
      </trkpt>
      <trkpt lat="45.39307" lon="4.90758">
        <ele>235.11</ele>
        <time>2017-03-26T08:48:25Z</time>
      </trkpt>
      <trkpt lat="45.3932" lon="4.90763">
        <ele>235.96</ele>
        <time>2017-03-26T08:48:26Z</time>
      </trkpt>
      <trkpt lat="45.39333" lon="4.90766">
        <ele>237.08</ele>
        <time>2017-03-26T08:48:27Z</time>
      </trkpt>
      <trkpt lat="45.39346" lon="4.90767">
        <ele>238.19</ele>
        <time>2017-03-26T08:48:28Z</time>
      </trkpt>
      <trkpt lat="45.39359" lon="4.90765">
        <ele>239.45</ele>
        <time>2017-03-26T08:48:29Z</time>
      </trkpt>
      <trkpt lat="45.39372" lon="4.90762">
        <ele>240.74</ele>
        <time>2017-03-26T08:48:30Z</time>
      </trkpt>
      <trkpt lat="45.39385" lon="4.90758">
        <ele>242.2</ele>
        <time>2017-03-26T08:48:31Z</time>
      </trkpt>
      <trkpt lat="45.39397" lon="4.90751">
        <ele>243.53</ele>
        <time>2017-03-26T08:48:32Z</time>
      </trkpt>
      <trkpt lat="45.39409" lon="4.90743">
        <ele>244.92</ele>
        <time>2017-03-26T08:48:33Z</time>
      </trkpt>
      <trkpt lat="45.39423" lon="4.90732">
        <ele>246.56</ele>
        <time>2017-03-26T08:48:34Z</time>
      </trkpt>
      <trkpt lat="45.39437" lon="4.90721">
        <ele>248.25</ele>
        <time>2017-03-26T08:48:35Z</time>
      </trkpt>
      <trkpt lat="45.39452" lon="4.90712">
        <ele>249.94</ele>
        <time>2017-03-26T08:48:36Z</time>
      </trkpt>
      <trkpt lat="45.39467" lon="4.90704">
        <ele>251.72</ele>
        <time>2017-03-26T08:48:37Z</time>
      </trkpt>
      <trkpt lat="45.39483" lon="4.90698">
        <ele>253.6</ele>
        <time>2017-03-26T08:48:38Z</time>
      </trkpt>
      <trkpt lat="45.39498" lon="4.90693">
        <ele>255.49</ele>
        <time>2017-03-26T08:48:39Z</time>
      </trkpt>
      <trkpt lat="45.39512" lon="4.90688">
        <ele>257.39</ele>
        <time>2017-03-26T08:48:40Z</time>
      </trkpt>
      <trkpt lat="45.39524" lon="4.90682">
        <ele>259.37</ele>
        <time>2017-03-26T08:48:41Z</time>
      </trkpt>
      <trkpt lat="45.39536" lon="4.90676">
        <ele>261.05</ele>
        <time>2017-03-26T08:48:42Z</time>
      </trkpt>
      <trkpt lat="45.39549" lon="4.9067">
        <ele>262.5</ele>
        <time>2017-03-26T08:48:43Z</time>
      </trkpt>
      <trkpt lat="45.39561" lon="4.90664">
        <ele>264.07</ele>
        <time>2017-03-26T08:48:44Z</time>
      </trkpt>
      <trkpt lat="45.39573" lon="4.90658">
        <ele>265.75</ele>
        <time>2017-03-26T08:48:45Z</time>
      </trkpt>
      <trkpt lat="45.39584" lon="4.90651">
        <ele>267.36</ele>
        <time>2017-03-26T08:48:46Z</time>
      </trkpt>
      <trkpt lat="45.39593" lon="4.90644">
        <ele>268.49</ele>
        <time>2017-03-26T08:48:47Z</time>
      </trkpt>
      <trkpt lat="45.39601" lon="4.90638">
        <ele>269.67</ele>
        <time>2017-03-26T08:48:48Z</time>
      </trkpt>
      <trkpt lat="45.39606" lon="4.90634">
        <ele>271.03</ele>
        <time>2017-03-26T08:48:49Z</time>
      </trkpt>
      <trkpt lat="45.39609" lon="4.90629">
        <ele>272.02</ele>
        <time>2017-03-26T08:48:50Z</time>
      </trkpt>
      <trkpt lat="45.3961" lon="4.90622">
        <ele>272.86</ele>
        <time>2017-03-26T08:48:51Z</time>
      </trkpt>
      <trkpt lat="45.3961" lon="4.90613">
        <ele>273.59</ele>
        <time>2017-03-26T08:48:52Z</time>
      </trkpt>
      <trkpt lat="45.3961" lon="4.90602">
        <ele>274.05</ele>
        <time>2017-03-26T08:48:53Z</time>
      </trkpt>
      <trkpt lat="45.39609" lon="4.90591">
        <ele>274.86</ele>
        <time>2017-03-26T08:48:54Z</time>
      </trkpt>
      <trkpt lat="45.39607" lon="4.9058">
        <ele>275.67</ele>
        <time>2017-03-26T08:48:55Z</time>
      </trkpt>
      <trkpt lat="45.39606" lon="4.90569">
        <ele>276.39</ele>
        <time>2017-03-26T08:48:56Z</time>
      </trkpt>
      <trkpt lat="45.39605" lon="4.90558">
        <ele>277.17</ele>
        <time>2017-03-26T08:48:57Z</time>
      </trkpt>
      <trkpt lat="45.39606" lon="4.90548">
        <ele>278.13</ele>
        <time>2017-03-26T08:48:58Z</time>
      </trkpt>
      <trkpt lat="45.39608" lon="4.90539">
        <ele>278.96</ele>
        <time>2017-03-26T08:48:59Z</time>
      </trkpt>
      <trkpt lat="45.39611" lon="4.90531">
        <ele>279.69</ele>
        <time>2017-03-26T08:49:00Z</time>
      </trkpt>
      <trkpt lat="45.39614" lon="4.90524">
        <ele>280.39</ele>
        <time>2017-03-26T08:49:01Z</time>
      </trkpt>
      <trkpt lat="45.39618" lon="4.90518">
        <ele>281.01</ele>
        <time>2017-03-26T08:49:02Z</time>
      </trkpt>
      <trkpt lat="45.39621" lon="4.90513">
        <ele>281.3</ele>
        <time>2017-03-26T08:49:03Z</time>
      </trkpt>
      <trkpt lat="45.39624" lon="4.9051">
        <ele>281.51</ele>
        <time>2017-03-26T08:49:04Z</time>
      </trkpt>
      <trkpt lat="45.39628" lon="4.90507">
        <ele>281.96</ele>
        <time>2017-03-26T08:49:05Z</time>
      </trkpt>
      <trkpt lat="45.39632" lon="4.90502">
        <ele>282.6</ele>
        <time>2017-03-26T08:49:06Z</time>
      </trkpt>
      <trkpt lat="45.39638" lon="4.90495">
        <ele>283.45</ele>
        <time>2017-03-26T08:49:07Z</time>
      </trkpt>
      <trkpt lat="45.39644" lon="4.90488">
        <ele>283.94</ele>
        <time>2017-03-26T08:49:08Z</time>
      </trkpt>
      <trkpt lat="45.39652" lon="4.9048">
        <ele>284.36</ele>
        <time>2017-03-26T08:49:09Z</time>
      </trkpt>
      <trkpt lat="45.39662" lon="4.90471">
        <ele>284.93</ele>
        <time>2017-03-26T08:49:10Z</time>
      </trkpt>
      <trkpt lat="45.39674" lon="4.90465">
        <ele>285.68</ele>
        <time>2017-03-26T08:49:11Z</time>
      </trkpt>
      <trkpt lat="45.39688" lon="4.90459">
        <ele>286.55</ele>
        <time>2017-03-26T08:49:12Z</time>
      </trkpt>
      <trkpt lat="45.39703" lon="4.90455">
        <ele>287.44</ele>
        <time>2017-03-26T08:49:13Z</time>
      </trkpt>
      <trkpt lat="45.39718" lon="4.9045">
        <ele>288.58</ele>
        <time>2017-03-26T08:49:14Z</time>
      </trkpt>
      <trkpt lat="45.39734" lon="4.90444">
        <ele>289.77</ele>
        <time>2017-03-26T08:49:15Z</time>
      </trkpt>
      <trkpt lat="45.3975" lon="4.90437">
        <ele>291.05</ele>
        <time>2017-03-26T08:49:16Z</time>
      </trkpt>
      <trkpt lat="45.39766" lon="4.90429">
        <ele>292.34</ele>
        <time>2017-03-26T08:49:17Z</time>
      </trkpt>
      <trkpt lat="45.39782" lon="4.90421">
        <ele>293.64</ele>
        <time>2017-03-26T08:49:18Z</time>
      </trkpt>
      <trkpt lat="45.39798" lon="4.90413">
        <ele>295.34</ele>
        <time>2017-03-26T08:49:19Z</time>
      </trkpt>
      <trkpt lat="45.39815" lon="4.90405">
        <ele>296.96</ele>
        <time>2017-03-26T08:49:20Z</time>
      </trkpt>
      <trkpt lat="45.39831" lon="4.90397">
        <ele>298.57</ele>
        <time>2017-03-26T08:49:21Z</time>
      </trkpt>
      <trkpt lat="45.39847" lon="4.90388">
        <ele>300.49</ele>
        <time>2017-03-26T08:49:22Z</time>
      </trkpt>
      <trkpt lat="45.39863" lon="4.90378">
        <ele>302.15</ele>
        <time>2017-03-26T08:49:23Z</time>
      </trkpt>
      <trkpt lat="45.39878" lon="4.90367">
        <ele>303.92</ele>
        <time>2017-03-26T08:49:24Z</time>
      </trkpt>
      <trkpt lat="45.39893" lon="4.90358">
        <ele>305.64</ele>
        <time>2017-03-26T08:49:25Z</time>
      </trkpt>
      <trkpt lat="45.39909" lon="4.9035">
        <ele>307.26</ele>
        <time>2017-03-26T08:49:26Z</time>
      </trkpt>
      <trkpt lat="45.39926" lon="4.90342">
        <ele>308.63</ele>
        <time>2017-03-26T08:49:27Z</time>
      </trkpt>
      <trkpt lat="45.39942" lon="4.90334">
        <ele>310.1</ele>
        <time>2017-03-26T08:49:28Z</time>
      </trkpt>
      <trkpt lat="45.39959" lon="4.90326">
        <ele>311.59</ele>
        <time>2017-03-26T08:49:29Z</time>
      </trkpt>
      <trkpt lat="45.39977" lon="4.90318">
        <ele>313.09</ele>
        <time>2017-03-26T08:49:30Z</time>
      </trkpt>
      <trkpt lat="45.39995" lon="4.9031">
        <ele>314.59</ele>
        <time>2017-03-26T08:49:31Z</time>
      </trkpt>
      <trkpt lat="45.40014" lon="4.90305">
        <ele>315.93</ele>
        <time>2017-03-26T08:49:32Z</time>
      </trkpt>
      <trkpt lat="45.40034" lon="4.90302">
        <ele>317.24</ele>
        <time>2017-03-26T08:49:33Z</time>
      </trkpt>
      <trkpt lat="45.40054" lon="4.90296">
        <ele>318.86</ele>
        <time>2017-03-26T08:49:34Z</time>
      </trkpt>
      <trkpt lat="45.40075" lon="4.90288">
        <ele>320.47</ele>
        <time>2017-03-26T08:49:35Z</time>
      </trkpt>
      <trkpt lat="45.40096" lon="4.90278">
        <ele>321.99</ele>
        <time>2017-03-26T08:49:36Z</time>
      </trkpt>
      <trkpt lat="45.40118" lon="4.90266">
        <ele>323.25</ele>
        <time>2017-03-26T08:49:37Z</time>
      </trkpt>
      <trkpt lat="45.4014" lon="4.90253">
        <ele>324.06</ele>
        <time>2017-03-26T08:49:38Z</time>
      </trkpt>
      <trkpt lat="45.4016" lon="4.9024">
        <ele>325.19</ele>
        <time>2017-03-26T08:49:39Z</time>
      </trkpt>
      <trkpt lat="45.4018" lon="4.90225">
        <ele>326.45</ele>
        <time>2017-03-26T08:49:40Z</time>
      </trkpt>
      <trkpt lat="45.40198" lon="4.9021">
        <ele>327.9</ele>
        <time>2017-03-26T08:49:41Z</time>
      </trkpt>
      <trkpt lat="45.40216" lon="4.90198">
        <ele>329.31</ele>
        <time>2017-03-26T08:49:42Z</time>
      </trkpt>
      <trkpt lat="45.40234" lon="4.90187">
        <ele>330.72</ele>
        <time>2017-03-26T08:49:43Z</time>
      </trkpt>
      <trkpt lat="45.4025" lon="4.90178">
        <ele>331.96</ele>
        <time>2017-03-26T08:49:44Z</time>
      </trkpt>
      <trkpt lat="45.40261" lon="4.90171">
        <ele>333.08</ele>
        <time>2017-03-26T08:49:45Z</time>
      </trkpt>
      <trkpt lat="45.4027" lon="4.90168">
        <ele>334.11</ele>
        <time>2017-03-26T08:49:46Z</time>
      </trkpt>
      <trkpt lat="45.40277" lon="4.9017">
        <ele>334.96</ele>
        <time>2017-03-26T08:49:47Z</time>
      </trkpt>
      <trkpt lat="45.4028" lon="4.90178">
        <ele>335.84</ele>
        <time>2017-03-26T08:49:48Z</time>
      </trkpt>
      <trkpt lat="45.40282" lon="4.90192">
        <ele>335.94</ele>
        <time>2017-03-26T08:49:49Z</time>
      </trkpt>
      <trkpt lat="45.40284" lon="4.90209">
        <ele>335.72</ele>
        <time>2017-03-26T08:49:50Z</time>
      </trkpt>
      <trkpt lat="45.40287" lon="4.90227">
        <ele>335.92</ele>
        <time>2017-03-26T08:49:51Z</time>
      </trkpt>
      <trkpt lat="45.40292" lon="4.90246">
        <ele>336.52</ele>
        <time>2017-03-26T08:49:52Z</time>
      </trkpt>
      <trkpt lat="45.40298" lon="4.90266">
        <ele>337.2</ele>
        <time>2017-03-26T08:49:53Z</time>
      </trkpt>
      <trkpt lat="45.40305" lon="4.90287">
        <ele>337.57</ele>
        <time>2017-03-26T08:49:54Z</time>
      </trkpt>
      <trkpt lat="45.40312" lon="4.9031">
        <ele>337.73</ele>
        <time>2017-03-26T08:49:55Z</time>
      </trkpt>
      <trkpt lat="45.40318" lon="4.90333">
        <ele>338</ele>
        <time>2017-03-26T08:49:56Z</time>
      </trkpt>
      <trkpt lat="45.40325" lon="4.90356">
        <ele>338.13</ele>
        <time>2017-03-26T08:49:57Z</time>
      </trkpt>
      <trkpt lat="45.40333" lon="4.90378">
        <ele>338.16</ele>
        <time>2017-03-26T08:49:58Z</time>
      </trkpt>
      <trkpt lat="45.4034" lon="4.904">
        <ele>338.01</ele>
        <time>2017-03-26T08:49:59Z</time>
      </trkpt>
      <trkpt lat="45.40348" lon="4.90421">
        <ele>337.73</ele>
        <time>2017-03-26T08:50:00Z</time>
      </trkpt>
      <trkpt lat="45.40357" lon="4.90439">
        <ele>337.68</ele>
        <time>2017-03-26T08:50:01Z</time>
      </trkpt>
      <trkpt lat="45.40365" lon="4.90457">
        <ele>337.75</ele>
        <time>2017-03-26T08:50:02Z</time>
      </trkpt>
      <trkpt lat="45.40375" lon="4.90474">
        <ele>337.6</ele>
        <time>2017-03-26T08:50:03Z</time>
      </trkpt>
      <trkpt lat="45.40385" lon="4.90492">
        <ele>337.49</ele>
        <time>2017-03-26T08:50:04Z</time>
      </trkpt>
      <trkpt lat="45.40396" lon="4.9051">
        <ele>337.47</ele>
        <time>2017-03-26T08:50:05Z</time>
      </trkpt>
      <trkpt lat="45.40406" lon="4.90527">
        <ele>337.39</ele>
        <time>2017-03-26T08:50:06Z</time>
      </trkpt>
      <trkpt lat="45.40416" lon="4.90544">
        <ele>337.29</ele>
        <time>2017-03-26T08:50:07Z</time>
      </trkpt>
      <trkpt lat="45.40427" lon="4.9056">
        <ele>337.03</ele>
        <time>2017-03-26T08:50:08Z</time>
      </trkpt>
      <trkpt lat="45.40436" lon="4.90575">
        <ele>337.06</ele>
        <time>2017-03-26T08:50:09Z</time>
      </trkpt>
      <trkpt lat="45.40445" lon="4.90588">
        <ele>337.31</ele>
        <time>2017-03-26T08:50:10Z</time>
      </trkpt>
      <trkpt lat="45.40453" lon="4.90598">
        <ele>337.59</ele>
        <time>2017-03-26T08:50:11Z</time>
      </trkpt>
      <trkpt lat="45.40461" lon="4.90606">
        <ele>337.65</ele>
        <time>2017-03-26T08:50:12Z</time>
      </trkpt>
      <trkpt lat="45.40468" lon="4.90609">
        <ele>337.82</ele>
        <time>2017-03-26T08:50:13Z</time>
      </trkpt>
      <trkpt lat="45.40475" lon="4.9061">
        <ele>338.1</ele>
        <time>2017-03-26T08:50:14Z</time>
      </trkpt>
      <trkpt lat="45.40483" lon="4.9061">
        <ele>338.07</ele>
        <time>2017-03-26T08:50:15Z</time>
      </trkpt>
      <trkpt lat="45.40492" lon="4.90609">
        <ele>338.15</ele>
        <time>2017-03-26T08:50:16Z</time>
      </trkpt>
      <trkpt lat="45.40503" lon="4.90609">
        <ele>337.92</ele>
        <time>2017-03-26T08:50:17Z</time>
      </trkpt>
      <trkpt lat="45.40516" lon="4.90608">
        <ele>337.48</ele>
        <time>2017-03-26T08:50:18Z</time>
      </trkpt>
      <trkpt lat="45.40529" lon="4.90607">
        <ele>337.47</ele>
        <time>2017-03-26T08:50:19Z</time>
      </trkpt>
      <trkpt lat="45.40544" lon="4.90607">
        <ele>337.39</ele>
        <time>2017-03-26T08:50:20Z</time>
      </trkpt>
      <trkpt lat="45.40559" lon="4.90606">
        <ele>337.37</ele>
        <time>2017-03-26T08:50:21Z</time>
      </trkpt>
      <trkpt lat="45.40575" lon="4.90606">
        <ele>337.29</ele>
        <time>2017-03-26T08:50:22Z</time>
      </trkpt>
      <trkpt lat="45.40593" lon="4.90604">
        <ele>337.35</ele>
        <time>2017-03-26T08:50:23Z</time>
      </trkpt>
      <trkpt lat="45.40611" lon="4.90603">
        <ele>336.96</ele>
        <time>2017-03-26T08:50:24Z</time>
      </trkpt>
      <trkpt lat="45.4063" lon="4.90601">
        <ele>336.41</ele>
        <time>2017-03-26T08:50:25Z</time>
      </trkpt>
      <trkpt lat="45.40649" lon="4.90598">
        <ele>335.73</ele>
        <time>2017-03-26T08:50:26Z</time>
      </trkpt>
      <trkpt lat="45.40668" lon="4.90596">
        <ele>335.04</ele>
        <time>2017-03-26T08:50:27Z</time>
      </trkpt>
      <trkpt lat="45.40687" lon="4.90594">
        <ele>334.5</ele>
        <time>2017-03-26T08:50:28Z</time>
      </trkpt>
      <trkpt lat="45.40705" lon="4.90593">
        <ele>333.99</ele>
        <time>2017-03-26T08:50:29Z</time>
      </trkpt>
      <trkpt lat="45.40724" lon="4.90593">
        <ele>333.49</ele>
        <time>2017-03-26T08:50:30Z</time>
      </trkpt>
      <trkpt lat="45.40742" lon="4.90592">
        <ele>332.91</ele>
        <time>2017-03-26T08:50:31Z</time>
      </trkpt>
      <trkpt lat="45.40761" lon="4.90589">
        <ele>332.56</ele>
        <time>2017-03-26T08:50:32Z</time>
      </trkpt>
      <trkpt lat="45.4078" lon="4.90582">
        <ele>331.84</ele>
        <time>2017-03-26T08:50:33Z</time>
      </trkpt>
      <trkpt lat="45.408" lon="4.90573">
        <ele>330.98</ele>
        <time>2017-03-26T08:50:34Z</time>
      </trkpt>
      <trkpt lat="45.4082" lon="4.90564">
        <ele>329.69</ele>
        <time>2017-03-26T08:50:35Z</time>
      </trkpt>
      <trkpt lat="45.4084" lon="4.90554">
        <ele>328.87</ele>
        <time>2017-03-26T08:50:36Z</time>
      </trkpt>
      <trkpt lat="45.4086" lon="4.90544">
        <ele>328.07</ele>
        <time>2017-03-26T08:50:37Z</time>
      </trkpt>
      <trkpt lat="45.4088" lon="4.90534">
        <ele>327.35</ele>
        <time>2017-03-26T08:50:38Z</time>
      </trkpt>
      <trkpt lat="45.40899" lon="4.90525">
        <ele>326.72</ele>
        <time>2017-03-26T08:50:39Z</time>
      </trkpt>
      <trkpt lat="45.40918" lon="4.90515">
        <ele>326.44</ele>
        <time>2017-03-26T08:50:40Z</time>
      </trkpt>
      <trkpt lat="45.40935" lon="4.90505">
        <ele>326.54</ele>
        <time>2017-03-26T08:50:41Z</time>
      </trkpt>
      <trkpt lat="45.40952" lon="4.90495">
        <ele>326.56</ele>
        <time>2017-03-26T08:50:42Z</time>
      </trkpt>
      <trkpt lat="45.40967" lon="4.90485">
        <ele>326.65</ele>
        <time>2017-03-26T08:50:43Z</time>
      </trkpt>
      <trkpt lat="45.40981" lon="4.90476">
        <ele>326.58</ele>
        <time>2017-03-26T08:50:44Z</time>
      </trkpt>
      <trkpt lat="45.40995" lon="4.90469">
        <ele>326.49</ele>
        <time>2017-03-26T08:50:45Z</time>
      </trkpt>
      <trkpt lat="45.41009" lon="4.90465">
        <ele>326.39</ele>
        <time>2017-03-26T08:50:46Z</time>
      </trkpt>
      <trkpt lat="45.41023" lon="4.90464">
        <ele>326.61</ele>
        <time>2017-03-26T08:50:47Z</time>
      </trkpt>
      <trkpt lat="45.41037" lon="4.90462">
        <ele>327.14</ele>
        <time>2017-03-26T08:50:48Z</time>
      </trkpt>
      <trkpt lat="45.41052" lon="4.9046">
        <ele>327</ele>
        <time>2017-03-26T08:50:49Z</time>
      </trkpt>
      <trkpt lat="45.41067" lon="4.90457">
        <ele>326.73</ele>
        <time>2017-03-26T08:50:50Z</time>
      </trkpt>
      <trkpt lat="45.41082" lon="4.90453">
        <ele>325.96</ele>
        <time>2017-03-26T08:50:51Z</time>
      </trkpt>
      <trkpt lat="45.41095" lon="4.90448">
        <ele>324.77</ele>
        <time>2017-03-26T08:50:52Z</time>
      </trkpt>
      <trkpt lat="45.41108" lon="4.90441">
        <ele>323.25</ele>
        <time>2017-03-26T08:50:53Z</time>
      </trkpt>
      <trkpt lat="45.41121" lon="4.90434">
        <ele>321.82</ele>
        <time>2017-03-26T08:50:54Z</time>
      </trkpt>
      <trkpt lat="45.41133" lon="4.90427">
        <ele>320.42</ele>
        <time>2017-03-26T08:50:55Z</time>
      </trkpt>
      <trkpt lat="45.41145" lon="4.9042">
        <ele>319.02</ele>
        <time>2017-03-26T08:50:56Z</time>
      </trkpt>
      <trkpt lat="45.41156" lon="4.90414">
        <ele>317.78</ele>
        <time>2017-03-26T08:50:57Z</time>
      </trkpt>
      <trkpt lat="45.41167" lon="4.9041">
        <ele>316.89</ele>
        <time>2017-03-26T08:50:58Z</time>
      </trkpt>
      <trkpt lat="45.41178" lon="4.90407">
        <ele>315.91</ele>
        <time>2017-03-26T08:50:59Z</time>
      </trkpt>
      <trkpt lat="45.41189" lon="4.90405">
        <ele>315</ele>
        <time>2017-03-26T08:51:00Z</time>
      </trkpt>
      <trkpt lat="45.41201" lon="4.90404">
        <ele>314.01</ele>
        <time>2017-03-26T08:51:01Z</time>
      </trkpt>
      <trkpt lat="45.41212" lon="4.90404">
        <ele>312.94</ele>
        <time>2017-03-26T08:51:02Z</time>
      </trkpt>
      <trkpt lat="45.41223" lon="4.90403">
        <ele>312.08</ele>
        <time>2017-03-26T08:51:03Z</time>
      </trkpt>
      <trkpt lat="45.4123" lon="4.90405">
        <ele>311.91</ele>
        <time>2017-03-26T08:51:04Z</time>
      </trkpt>
      <trkpt lat="45.41235" lon="4.90406">
        <ele>311.56</ele>
        <time>2017-03-26T08:51:05Z</time>
      </trkpt>
      <trkpt lat="45.41237" lon="4.90409">
        <ele>311.24</ele>
        <time>2017-03-26T08:51:06Z</time>
      </trkpt>
      <trkpt lat="45.41239" lon="4.9041">
        <ele>310.94</ele>
        <time>2017-03-26T08:51:07Z</time>
      </trkpt>
      <trkpt lat="45.41239" lon="4.90411">
        <ele>310.56</ele>
        <time>2017-03-26T08:51:08Z</time>
      </trkpt>
      <trkpt lat="45.41239" lon="4.90411">
        <ele>310.25</ele>
        <time>2017-03-26T08:51:09Z</time>
      </trkpt>
      <trkpt lat="45.41239" lon="4.90411">
        <ele>310.74</ele>
        <time>2017-03-26T08:51:10Z</time>
      </trkpt>
      <trkpt lat="45.41239" lon="4.90411">
        <ele>310.84</ele>
        <time>2017-03-26T08:51:11Z</time>
      </trkpt>
      <trkpt lat="45.41239" lon="4.90411">
        <ele>310.86</ele>
        <time>2017-03-26T08:51:12Z</time>
      </trkpt>
      <trkpt lat="45.41239" lon="4.90411">
        <ele>310.87</ele>
        <time>2017-03-26T08:51:13Z</time>
      </trkpt>
      <trkpt lat="45.41239" lon="4.90411">
        <ele>310.87</ele>
        <time>2017-03-26T08:51:14Z</time>
      </trkpt>
      <trkpt lat="45.41239" lon="4.90411">
        <ele>310.87</ele>
        <time>2017-03-26T08:51:15Z</time>
      </trkpt>
      <trkpt lat="45.41239" lon="4.90411">
        <ele>310.87</ele>
        <time>2017-03-26T08:51:16Z</time>
      </trkpt>
      <trkpt lat="45.41239" lon="4.90411">
        <ele>310.87</ele>
        <time>2017-03-26T08:51:17Z</time>
      </trkpt>
      <trkpt lat="45.41239" lon="4.90411">
        <ele>310.87</ele>
        <time>2017-03-26T08:51:18Z</time>
      </trkpt>
      <trkpt lat="45.41239" lon="4.90411">
        <ele>310.87</ele>
        <time>2017-03-26T08:51:19Z</time>
      </trkpt>
      <trkpt lat="45.41239" lon="4.90411">
        <ele>310.87</ele>
        <time>2017-03-26T08:51:20Z</time>
      </trkpt>
      <trkpt lat="45.41239" lon="4.90411">
        <ele>310.87</ele>
        <time>2017-03-26T08:51:21Z</time>
      </trkpt>
      <trkpt lat="45.41239" lon="4.90411">
        <ele>310.87</ele>
        <time>2017-03-26T08:51:22Z</time>
      </trkpt>
      <trkpt lat="45.41239" lon="4.90411">
        <ele>310.87</ele>
        <time>2017-03-26T08:51:23Z</time>
      </trkpt>
      <trkpt lat="45.41239" lon="4.90411">
        <ele>310.87</ele>
        <time>2017-03-26T08:51:24Z</time>
      </trkpt>
      <trkpt lat="45.41239" lon="4.90411">
        <ele>310.87</ele>
        <time>2017-03-26T08:51:25Z</time>
      </trkpt>
      <trkpt lat="45.41239" lon="4.90411">
        <ele>310.87</ele>
        <time>2017-03-26T08:51:26Z</time>
      </trkpt>
      <trkpt lat="45.41239" lon="4.90411">
        <ele>310.87</ele>
        <time>2017-03-26T08:51:27Z</time>
      </trkpt>
      <trkpt lat="45.41239" lon="4.90411">
        <ele>310.87</ele>
        <time>2017-03-26T08:51:28Z</time>
      </trkpt>
      <trkpt lat="45.41239" lon="4.90411">
        <ele>310.87</ele>
        <time>2017-03-26T08:51:29Z</time>
      </trkpt>
      <trkpt lat="45.41239" lon="4.90411">
        <ele>310.87</ele>
        <time>2017-03-26T08:51:30Z</time>
      </trkpt>
      <trkpt lat="45.41239" lon="4.90411">
        <ele>310.87</ele>
        <time>2017-03-26T08:51:31Z</time>
      </trkpt>
      <trkpt lat="45.41239" lon="4.90411">
        <ele>310.87</ele>
        <time>2017-03-26T08:51:32Z</time>
      </trkpt>
      <trkpt lat="45.41239" lon="4.90411">
        <ele>310.87</ele>
        <time>2017-03-26T08:51:33Z</time>
      </trkpt>
      <trkpt lat="45.41239" lon="4.90411">
        <ele>310.87</ele>
        <time>2017-03-26T08:51:34Z</time>
      </trkpt>
      <trkpt lat="45.41239" lon="4.90411">
        <ele>310.87</ele>
        <time>2017-03-26T08:51:35Z</time>
      </trkpt>
      <trkpt lat="45.41239" lon="4.90411">
        <ele>310.87</ele>
        <time>2017-03-26T08:51:36Z</time>
      </trkpt>
      <trkpt lat="45.41239" lon="4.90411">
        <ele>310.87</ele>
        <time>2017-03-26T08:51:37Z</time>
      </trkpt>
      <trkpt lat="45.41239" lon="4.90411">
        <ele>310.87</ele>
        <time>2017-03-26T08:51:38Z</time>
      </trkpt>
      <trkpt lat="45.41239" lon="4.90411">
        <ele>310.87</ele>
        <time>2017-03-26T08:51:39Z</time>
      </trkpt>
      <trkpt lat="45.41239" lon="4.90411">
        <ele>310.87</ele>
        <time>2017-03-26T08:51:40Z</time>
      </trkpt>
      <trkpt lat="45.41239" lon="4.90411">
        <ele>310.87</ele>
        <time>2017-03-26T08:51:41Z</time>
      </trkpt>
      <trkpt lat="45.41239" lon="4.90411">
        <ele>310.87</ele>
        <time>2017-03-26T08:51:42Z</time>
      </trkpt>
      <trkpt lat="45.41239" lon="4.90411">
        <ele>310.87</ele>
        <time>2017-03-26T08:51:43Z</time>
      </trkpt>
      <trkpt lat="45.41239" lon="4.90411">
        <ele>310.87</ele>
        <time>2017-03-26T08:51:44Z</time>
      </trkpt>
      <trkpt lat="45.41239" lon="4.90411">
        <ele>310.87</ele>
        <time>2017-03-26T08:51:45Z</time>
      </trkpt>
      <trkpt lat="45.41239" lon="4.90411">
        <ele>310.87</ele>
        <time>2017-03-26T08:51:46Z</time>
      </trkpt>
      <trkpt lat="45.41239" lon="4.90411">
        <ele>310.87</ele>
        <time>2017-03-26T08:51:47Z</time>
      </trkpt>
      <trkpt lat="45.41239" lon="4.90411">
        <ele>310.87</ele>
        <time>2017-03-26T08:51:48Z</time>
      </trkpt>
      <trkpt lat="45.41239" lon="4.90411">
        <ele>310.87</ele>
        <time>2017-03-26T08:51:49Z</time>
      </trkpt>
      <trkpt lat="45.41239" lon="4.90411">
        <ele>310.87</ele>
        <time>2017-03-26T08:51:50Z</time>
      </trkpt>
      <trkpt lat="45.41239" lon="4.90411">
        <ele>310.87</ele>
        <time>2017-03-26T08:51:51Z</time>
      </trkpt>
      <trkpt lat="45.41239" lon="4.90411">
        <ele>310.87</ele>
        <time>2017-03-26T08:51:52Z</time>
      </trkpt>
      <trkpt lat="45.41239" lon="4.90411">
        <ele>310.87</ele>
        <time>2017-03-26T08:51:53Z</time>
      </trkpt>
      <trkpt lat="45.41239" lon="4.90411">
        <ele>310.87</ele>
        <time>2017-03-26T08:51:54Z</time>
      </trkpt>
      <trkpt lat="45.41239" lon="4.90411">
        <ele>310.87</ele>
        <time>2017-03-26T08:51:55Z</time>
      </trkpt>
      <trkpt lat="45.41239" lon="4.90411">
        <ele>310.87</ele>
        <time>2017-03-26T08:51:56Z</time>
      </trkpt>
      <trkpt lat="45.41239" lon="4.90411">
        <ele>310.87</ele>
        <time>2017-03-26T08:51:57Z</time>
      </trkpt>
      <trkpt lat="45.41239" lon="4.90411">
        <ele>310.87</ele>
        <time>2017-03-26T08:51:58Z</time>
      </trkpt>
      <trkpt lat="45.41239" lon="4.90411">
        <ele>310.87</ele>
        <time>2017-03-26T08:51:59Z</time>
      </trkpt>
      <trkpt lat="45.41239" lon="4.90411">
        <ele>310.87</ele>
        <time>2017-03-26T08:52:00Z</time>
      </trkpt>
      <trkpt lat="45.41239" lon="4.90411">
        <ele>310.87</ele>
        <time>2017-03-26T08:52:01Z</time>
      </trkpt>
      <trkpt lat="45.41239" lon="4.90411">
        <ele>310.87</ele>
        <time>2017-03-26T08:52:02Z</time>
      </trkpt>
      <trkpt lat="45.41239" lon="4.90411">
        <ele>310.87</ele>
        <time>2017-03-26T08:52:03Z</time>
      </trkpt>
      <trkpt lat="45.41239" lon="4.90411">
        <ele>310.87</ele>
        <time>2017-03-26T08:52:04Z</time>
      </trkpt>
      <trkpt lat="45.41239" lon="4.90411">
        <ele>310.87</ele>
        <time>2017-03-26T08:52:05Z</time>
      </trkpt>
      <trkpt lat="45.41239" lon="4.90411">
        <ele>310.87</ele>
        <time>2017-03-26T08:52:06Z</time>
      </trkpt>
      <trkpt lat="45.41239" lon="4.90411">
        <ele>310.87</ele>
        <time>2017-03-26T08:52:07Z</time>
      </trkpt>
      <trkpt lat="45.41239" lon="4.90411">
        <ele>310.87</ele>
        <time>2017-03-26T08:52:08Z</time>
      </trkpt>
      <trkpt lat="45.41239" lon="4.90411">
        <ele>310.87</ele>
        <time>2017-03-26T08:52:09Z</time>
      </trkpt>
      <trkpt lat="45.41238" lon="4.90415">
        <ele>311.19</ele>
        <time>2017-03-26T08:52:10Z</time>
      </trkpt>
      <trkpt lat="45.41238" lon="4.90418">
        <ele>311.17</ele>
        <time>2017-03-26T08:52:11Z</time>
      </trkpt>
      <trkpt lat="45.41237" lon="4.90421">
        <ele>311.09</ele>
        <time>2017-03-26T08:52:12Z</time>
      </trkpt>
      <trkpt lat="45.41237" lon="4.90425">
        <ele>310.91</ele>
        <time>2017-03-26T08:52:13Z</time>
      </trkpt>
      <trkpt lat="45.41237" lon="4.90427">
        <ele>310.8</ele>
        <time>2017-03-26T08:52:14Z</time>
      </trkpt>
      <trkpt lat="45.41237" lon="4.90429">
        <ele>310.61</ele>
        <time>2017-03-26T08:52:15Z</time>
      </trkpt>
      <trkpt lat="45.41236" lon="4.90429">
        <ele>310.5</ele>
        <time>2017-03-26T08:52:16Z</time>
      </trkpt>
      <trkpt lat="45.41237" lon="4.90429">
        <ele>310.63</ele>
        <time>2017-03-26T08:52:17Z</time>
      </trkpt>
      <trkpt lat="45.41237" lon="4.90429">
        <ele>310.66</ele>
        <time>2017-03-26T08:52:18Z</time>
      </trkpt>
      <trkpt lat="45.41237" lon="4.90429">
        <ele>310.67</ele>
        <time>2017-03-26T08:52:19Z</time>
      </trkpt>
      <trkpt lat="45.41237" lon="4.90429">
        <ele>310.67</ele>
        <time>2017-03-26T08:52:20Z</time>
      </trkpt>
      <trkpt lat="45.41237" lon="4.90429">
        <ele>310.67</ele>
        <time>2017-03-26T08:52:21Z</time>
      </trkpt>
      <trkpt lat="45.41237" lon="4.90429">
        <ele>310.67</ele>
        <time>2017-03-26T08:52:22Z</time>
      </trkpt>
      <trkpt lat="45.41237" lon="4.90429">
        <ele>310.67</ele>
        <time>2017-03-26T08:52:23Z</time>
      </trkpt>
      <trkpt lat="45.41237" lon="4.90429">
        <ele>310.67</ele>
        <time>2017-03-26T08:52:24Z</time>
      </trkpt>
      <trkpt lat="45.41237" lon="4.90429">
        <ele>310.67</ele>
        <time>2017-03-26T08:52:25Z</time>
      </trkpt>
      <trkpt lat="45.41237" lon="4.90429">
        <ele>310.67</ele>
        <time>2017-03-26T08:52:26Z</time>
      </trkpt>
      <trkpt lat="45.41237" lon="4.90429">
        <ele>310.67</ele>
        <time>2017-03-26T08:52:27Z</time>
      </trkpt>
      <trkpt lat="45.41237" lon="4.90429">
        <ele>310.67</ele>
        <time>2017-03-26T08:52:28Z</time>
      </trkpt>
      <trkpt lat="45.41237" lon="4.90429">
        <ele>310.67</ele>
        <time>2017-03-26T08:52:29Z</time>
      </trkpt>
      <trkpt lat="45.41237" lon="4.90429">
        <ele>310.67</ele>
        <time>2017-03-26T08:52:30Z</time>
      </trkpt>
      <trkpt lat="45.41237" lon="4.90429">
        <ele>310.67</ele>
        <time>2017-03-26T08:52:31Z</time>
      </trkpt>
      <trkpt lat="45.41237" lon="4.90429">
        <ele>310.67</ele>
        <time>2017-03-26T08:52:32Z</time>
      </trkpt>
      <trkpt lat="45.41237" lon="4.90429">
        <ele>310.67</ele>
        <time>2017-03-26T08:52:33Z</time>
      </trkpt>
      <trkpt lat="45.41237" lon="4.90429">
        <ele>310.67</ele>
        <time>2017-03-26T08:52:34Z</time>
      </trkpt>
      <trkpt lat="45.41237" lon="4.90429">
        <ele>310.67</ele>
        <time>2017-03-26T08:52:35Z</time>
      </trkpt>
      <trkpt lat="45.41237" lon="4.90429">
        <ele>310.67</ele>
        <time>2017-03-26T08:52:36Z</time>
      </trkpt>
      <trkpt lat="45.41237" lon="4.90429">
        <ele>310.67</ele>
        <time>2017-03-26T08:52:37Z</time>
      </trkpt>
      <trkpt lat="45.41237" lon="4.90429">
        <ele>310.67</ele>
        <time>2017-03-26T08:52:38Z</time>
      </trkpt>
      <trkpt lat="45.41237" lon="4.90429">
        <ele>310.67</ele>
        <time>2017-03-26T08:52:39Z</time>
      </trkpt>
      <trkpt lat="45.41237" lon="4.90429">
        <ele>310.67</ele>
        <time>2017-03-26T08:52:40Z</time>
      </trkpt>
      <trkpt lat="45.41237" lon="4.90429">
        <ele>310.67</ele>
        <time>2017-03-26T08:52:41Z</time>
      </trkpt>
      <trkpt lat="45.41237" lon="4.90429">
        <ele>310.67</ele>
        <time>2017-03-26T08:52:42Z</time>
      </trkpt>
      <trkpt lat="45.41237" lon="4.90429">
        <ele>310.67</ele>
        <time>2017-03-26T08:52:43Z</time>
      </trkpt>
      <trkpt lat="45.41237" lon="4.90429">
        <ele>310.67</ele>
        <time>2017-03-26T08:52:44Z</time>
      </trkpt>
      <trkpt lat="45.41237" lon="4.90429">
        <ele>310.67</ele>
        <time>2017-03-26T08:52:45Z</time>
      </trkpt>
      <trkpt lat="45.41237" lon="4.90429">
        <ele>310.67</ele>
        <time>2017-03-26T08:52:46Z</time>
      </trkpt>
      <trkpt lat="45.41237" lon="4.90429">
        <ele>310.67</ele>
        <time>2017-03-26T08:52:47Z</time>
      </trkpt>
      <trkpt lat="45.41237" lon="4.90429">
        <ele>310.67</ele>
        <time>2017-03-26T08:52:48Z</time>
      </trkpt>
      <trkpt lat="45.41236" lon="4.90436">
        <ele>310.67</ele>
        <time>2017-03-26T08:52:49Z</time>
      </trkpt>
      <trkpt lat="45.41235" lon="4.9044">
        <ele>310.59</ele>
        <time>2017-03-26T08:52:50Z</time>
      </trkpt>
      <trkpt lat="45.41233" lon="4.90446">
        <ele>310.49</ele>
        <time>2017-03-26T08:52:51Z</time>
      </trkpt>
      <trkpt lat="45.41231" lon="4.90453">
        <ele>310.31</ele>
        <time>2017-03-26T08:52:52Z</time>
      </trkpt>
      <trkpt lat="45.41229" lon="4.90462">
        <ele>309.96</ele>
        <time>2017-03-26T08:52:53Z</time>
      </trkpt>
      <trkpt lat="45.41226" lon="4.90473">
        <ele>309.56</ele>
        <time>2017-03-26T08:52:54Z</time>
      </trkpt>
      <trkpt lat="45.41223" lon="4.90486">
        <ele>309.09</ele>
        <time>2017-03-26T08:52:55Z</time>
      </trkpt>
      <trkpt lat="45.41221" lon="4.905">
        <ele>308.43</ele>
        <time>2017-03-26T08:52:56Z</time>
      </trkpt>
      <trkpt lat="45.41218" lon="4.90515">
        <ele>307.66</ele>
        <time>2017-03-26T08:52:57Z</time>
      </trkpt>
      <trkpt lat="45.41215" lon="4.90531">
        <ele>306.79</ele>
        <time>2017-03-26T08:52:58Z</time>
      </trkpt>
      <trkpt lat="45.41212" lon="4.90547">
        <ele>305.81</ele>
        <time>2017-03-26T08:52:59Z</time>
      </trkpt>
      <trkpt lat="45.41208" lon="4.90563">
        <ele>304.66</ele>
        <time>2017-03-26T08:53:00Z</time>
      </trkpt>
      <trkpt lat="45.41205" lon="4.9058">
        <ele>303.54</ele>
        <time>2017-03-26T08:53:01Z</time>
      </trkpt>
      <trkpt lat="45.41202" lon="4.90595">
        <ele>302.44</ele>
        <time>2017-03-26T08:53:02Z</time>
      </trkpt>
      <trkpt lat="45.41199" lon="4.90611">
        <ele>301.34</ele>
        <time>2017-03-26T08:53:03Z</time>
      </trkpt>
      <trkpt lat="45.41197" lon="4.90626">
        <ele>300.48</ele>
        <time>2017-03-26T08:53:04Z</time>
      </trkpt>
      <trkpt lat="45.41198" lon="4.90639">
        <ele>299.43</ele>
        <time>2017-03-26T08:53:05Z</time>
      </trkpt>
      <trkpt lat="45.412" lon="4.90651">
        <ele>298.18</ele>
        <time>2017-03-26T08:53:06Z</time>
      </trkpt>
      <trkpt lat="45.41205" lon="4.9066">
        <ele>297.53</ele>
        <time>2017-03-26T08:53:07Z</time>
      </trkpt>
      <trkpt lat="45.41212" lon="4.90664">
        <ele>296.84</ele>
        <time>2017-03-26T08:53:08Z</time>
      </trkpt>
      <trkpt lat="45.41219" lon="4.90665">
        <ele>295.74</ele>
        <time>2017-03-26T08:53:09Z</time>
      </trkpt>
      <trkpt lat="45.41227" lon="4.90662">
        <ele>294</ele>
        <time>2017-03-26T08:53:10Z</time>
      </trkpt>
      <trkpt lat="45.41236" lon="4.90658">
        <ele>292.29</ele>
        <time>2017-03-26T08:53:11Z</time>
      </trkpt>
      <trkpt lat="45.41247" lon="4.90654">
        <ele>290.51</ele>
        <time>2017-03-26T08:53:12Z</time>
      </trkpt>
      <trkpt lat="45.41258" lon="4.90649">
        <ele>288.32</ele>
        <time>2017-03-26T08:53:13Z</time>
      </trkpt>
      <trkpt lat="45.4127" lon="4.90645">
        <ele>286.28</ele>
        <time>2017-03-26T08:53:14Z</time>
      </trkpt>
      <trkpt lat="45.41281" lon="4.90641">
        <ele>284.27</ele>
        <time>2017-03-26T08:53:15Z</time>
      </trkpt>
      <trkpt lat="45.41294" lon="4.90638">
        <ele>281.95</ele>
        <time>2017-03-26T08:53:16Z</time>
      </trkpt>
      <trkpt lat="45.41305" lon="4.90635">
        <ele>279.48</ele>
        <time>2017-03-26T08:53:17Z</time>
      </trkpt>
      <trkpt lat="45.41317" lon="4.90631">
        <ele>278.27</ele>
        <time>2017-03-26T08:53:18Z</time>
      </trkpt>
      <trkpt lat="45.41328" lon="4.90627">
        <ele>276.43</ele>
        <time>2017-03-26T08:53:19Z</time>
      </trkpt>
      <trkpt lat="45.41339" lon="4.90623">
        <ele>274.62</ele>
        <time>2017-03-26T08:53:20Z</time>
      </trkpt>
      <trkpt lat="45.4135" lon="4.90617">
        <ele>272.9</ele>
        <time>2017-03-26T08:53:21Z</time>
      </trkpt>
      <trkpt lat="45.41362" lon="4.9061">
        <ele>270.79</ele>
        <time>2017-03-26T08:53:22Z</time>
      </trkpt>
      <trkpt lat="45.41373" lon="4.90602">
        <ele>268.69</ele>
        <time>2017-03-26T08:53:23Z</time>
      </trkpt>
      <trkpt lat="45.41384" lon="4.90594">
        <ele>266.43</ele>
        <time>2017-03-26T08:53:24Z</time>
      </trkpt>
      <trkpt lat="45.41396" lon="4.90587">
        <ele>266.54</ele>
        <time>2017-03-26T08:53:25Z</time>
      </trkpt>
      <trkpt lat="45.41407" lon="4.90578">
        <ele>265.36</ele>
        <time>2017-03-26T08:53:26Z</time>
      </trkpt>
      <trkpt lat="45.41418" lon="4.90569">
        <ele>264.01</ele>
        <time>2017-03-26T08:53:27Z</time>
      </trkpt>
      <trkpt lat="45.4143" lon="4.90561">
        <ele>262.61</ele>
        <time>2017-03-26T08:53:28Z</time>
      </trkpt>
      <trkpt lat="45.4144" lon="4.90553">
        <ele>261.14</ele>
        <time>2017-03-26T08:53:29Z</time>
      </trkpt>
      <trkpt lat="45.4145" lon="4.90546">
        <ele>259.72</ele>
        <time>2017-03-26T08:53:30Z</time>
      </trkpt>
      <trkpt lat="45.41461" lon="4.90541">
        <ele>259.52</ele>
        <time>2017-03-26T08:53:31Z</time>
      </trkpt>
      <trkpt lat="45.41471" lon="4.90534">
        <ele>258.6</ele>
        <time>2017-03-26T08:53:32Z</time>
      </trkpt>
      <trkpt lat="45.41482" lon="4.90527">
        <ele>257.53</ele>
        <time>2017-03-26T08:53:33Z</time>
      </trkpt>
      <trkpt lat="45.41492" lon="4.9052">
        <ele>256.36</ele>
        <time>2017-03-26T08:53:34Z</time>
      </trkpt>
      <trkpt lat="45.41503" lon="4.90512">
        <ele>255.17</ele>
        <time>2017-03-26T08:53:35Z</time>
      </trkpt>
      <trkpt lat="45.41516" lon="4.90501">
        <ele>253.25</ele>
        <time>2017-03-26T08:53:36Z</time>
      </trkpt>
      <trkpt lat="45.41528" lon="4.90492">
        <ele>251.5</ele>
        <time>2017-03-26T08:53:37Z</time>
      </trkpt>
      <trkpt lat="45.41539" lon="4.90485">
        <ele>250.03</ele>
        <time>2017-03-26T08:53:38Z</time>
      </trkpt>
      <trkpt lat="45.4155" lon="4.9048">
        <ele>248.62</ele>
        <time>2017-03-26T08:53:39Z</time>
      </trkpt>
      <trkpt lat="45.4156" lon="4.90478">
        <ele>247.38</ele>
        <time>2017-03-26T08:53:40Z</time>
      </trkpt>
      <trkpt lat="45.4157" lon="4.90482">
        <ele>246.17</ele>
        <time>2017-03-26T08:53:41Z</time>
      </trkpt>
      <trkpt lat="45.41581" lon="4.90487">
        <ele>244.97</ele>
        <time>2017-03-26T08:53:42Z</time>
      </trkpt>
      <trkpt lat="45.41592" lon="4.90494">
        <ele>243.69</ele>
        <time>2017-03-26T08:53:43Z</time>
      </trkpt>
      <trkpt lat="45.41601" lon="4.90498">
        <ele>242.07</ele>
        <time>2017-03-26T08:53:44Z</time>
      </trkpt>
      <trkpt lat="45.41611" lon="4.90501">
        <ele>240.55</ele>
        <time>2017-03-26T08:53:45Z</time>
      </trkpt>
      <trkpt lat="45.41622" lon="4.90502">
        <ele>238.8</ele>
        <time>2017-03-26T08:53:46Z</time>
      </trkpt>
      <trkpt lat="45.41632" lon="4.90501">
        <ele>237.17</ele>
        <time>2017-03-26T08:53:47Z</time>
      </trkpt>
      <trkpt lat="45.41643" lon="4.905">
        <ele>235.25</ele>
        <time>2017-03-26T08:53:48Z</time>
      </trkpt>
      <trkpt lat="45.41655" lon="4.90498">
        <ele>233.58</ele>
        <time>2017-03-26T08:53:49Z</time>
      </trkpt>
      <trkpt lat="45.41667" lon="4.90495">
        <ele>232.13</ele>
        <time>2017-03-26T08:53:50Z</time>
      </trkpt>
      <trkpt lat="45.41678" lon="4.90492">
        <ele>230.64</ele>
        <time>2017-03-26T08:53:51Z</time>
      </trkpt>
      <trkpt lat="45.41689" lon="4.9049">
        <ele>229.14</ele>
        <time>2017-03-26T08:53:52Z</time>
      </trkpt>
      <trkpt lat="45.41701" lon="4.90488">
        <ele>227.48</ele>
        <time>2017-03-26T08:53:53Z</time>
      </trkpt>
      <trkpt lat="45.41712" lon="4.90487">
        <ele>225.79</ele>
        <time>2017-03-26T08:53:54Z</time>
      </trkpt>
      <trkpt lat="45.41722" lon="4.90487">
        <ele>224.17</ele>
        <time>2017-03-26T08:53:55Z</time>
      </trkpt>
      <trkpt lat="45.41732" lon="4.90488">
        <ele>222.57</ele>
        <time>2017-03-26T08:53:56Z</time>
      </trkpt>
      <trkpt lat="45.41739" lon="4.90489">
        <ele>220.97</ele>
        <time>2017-03-26T08:53:57Z</time>
      </trkpt>
      <trkpt lat="45.41745" lon="4.90491">
        <ele>219.29</ele>
        <time>2017-03-26T08:53:58Z</time>
      </trkpt>
      <trkpt lat="45.41749" lon="4.90492">
        <ele>217.75</ele>
        <time>2017-03-26T08:53:59Z</time>
      </trkpt>
      <trkpt lat="45.41754" lon="4.90492">
        <ele>216.32</ele>
        <time>2017-03-26T08:54:00Z</time>
      </trkpt>
      <trkpt lat="45.41759" lon="4.90491">
        <ele>215.24</ele>
        <time>2017-03-26T08:54:01Z</time>
      </trkpt>
      <trkpt lat="45.41766" lon="4.9049">
        <ele>214.38</ele>
        <time>2017-03-26T08:54:02Z</time>
      </trkpt>
      <trkpt lat="45.41773" lon="4.90489">
        <ele>213.17</ele>
        <time>2017-03-26T08:54:03Z</time>
      </trkpt>
      <trkpt lat="45.41783" lon="4.9049">
        <ele>212.29</ele>
        <time>2017-03-26T08:54:04Z</time>
      </trkpt>
      <trkpt lat="45.41795" lon="4.90493">
        <ele>211.23</ele>
        <time>2017-03-26T08:54:05Z</time>
      </trkpt>
      <trkpt lat="45.41807" lon="4.90497">
        <ele>209.66</ele>
        <time>2017-03-26T08:54:06Z</time>
      </trkpt>
      <trkpt lat="45.4182" lon="4.90502">
        <ele>208.15</ele>
        <time>2017-03-26T08:54:07Z</time>
      </trkpt>
      <trkpt lat="45.41834" lon="4.90506">
        <ele>206.56</ele>
        <time>2017-03-26T08:54:08Z</time>
      </trkpt>
      <trkpt lat="45.41849" lon="4.9051">
        <ele>205.21</ele>
        <time>2017-03-26T08:54:09Z</time>
      </trkpt>
      <trkpt lat="45.41863" lon="4.90515">
        <ele>204.13</ele>
        <time>2017-03-26T08:54:10Z</time>
      </trkpt>
      <trkpt lat="45.41878" lon="4.90519">
        <ele>203.44</ele>
        <time>2017-03-26T08:54:11Z</time>
      </trkpt>
      <trkpt lat="45.41891" lon="4.90523">
        <ele>202.66</ele>
        <time>2017-03-26T08:54:12Z</time>
      </trkpt>
      <trkpt lat="45.41904" lon="4.90527">
        <ele>202.35</ele>
        <time>2017-03-26T08:54:13Z</time>
      </trkpt>
      <trkpt lat="45.41916" lon="4.9053">
        <ele>202.04</ele>
        <time>2017-03-26T08:54:14Z</time>
      </trkpt>
      <trkpt lat="45.41929" lon="4.90534">
        <ele>201.82</ele>
        <time>2017-03-26T08:54:15Z</time>
      </trkpt>
      <trkpt lat="45.4194" lon="4.90537">
        <ele>201.7</ele>
        <time>2017-03-26T08:54:16Z</time>
      </trkpt>
      <trkpt lat="45.41952" lon="4.9054">
        <ele>201.59</ele>
        <time>2017-03-26T08:54:17Z</time>
      </trkpt>
      <trkpt lat="45.41963" lon="4.90543">
        <ele>201.33</ele>
        <time>2017-03-26T08:54:18Z</time>
      </trkpt>
      <trkpt lat="45.41975" lon="4.90546">
        <ele>201.12</ele>
        <time>2017-03-26T08:54:19Z</time>
      </trkpt>
      <trkpt lat="45.41986" lon="4.90549">
        <ele>201.24</ele>
        <time>2017-03-26T08:54:20Z</time>
      </trkpt>
      <trkpt lat="45.41999" lon="4.90552">
        <ele>201.34</ele>
        <time>2017-03-26T08:54:21Z</time>
      </trkpt>
      <trkpt lat="45.42012" lon="4.90556">
        <ele>201.44</ele>
        <time>2017-03-26T08:54:22Z</time>
      </trkpt>
      <trkpt lat="45.42028" lon="4.90561">
        <ele>201.7</ele>
        <time>2017-03-26T08:54:23Z</time>
      </trkpt>
      <trkpt lat="45.42044" lon="4.90565">
        <ele>201.83</ele>
        <time>2017-03-26T08:54:24Z</time>
      </trkpt>
      <trkpt lat="45.42061" lon="4.90569">
        <ele>202.02</ele>
        <time>2017-03-26T08:54:25Z</time>
      </trkpt>
      <trkpt lat="45.42077" lon="4.90573">
        <ele>202.22</ele>
        <time>2017-03-26T08:54:26Z</time>
      </trkpt>
      <trkpt lat="45.42093" lon="4.90577">
        <ele>202.26</ele>
        <time>2017-03-26T08:54:27Z</time>
      </trkpt>
      <trkpt lat="45.42109" lon="4.90579">
        <ele>202.43</ele>
        <time>2017-03-26T08:54:28Z</time>
      </trkpt>
      <trkpt lat="45.42123" lon="4.90581">
        <ele>202.46</ele>
        <time>2017-03-26T08:54:29Z</time>
      </trkpt>
      <trkpt lat="45.42136" lon="4.90583">
        <ele>202.55</ele>
        <time>2017-03-26T08:54:30Z</time>
      </trkpt>
      <trkpt lat="45.42148" lon="4.90584">
        <ele>202.4</ele>
        <time>2017-03-26T08:54:31Z</time>
      </trkpt>
      <trkpt lat="45.42158" lon="4.90584">
        <ele>202.45</ele>
        <time>2017-03-26T08:54:32Z</time>
      </trkpt>
      <trkpt lat="45.42166" lon="4.90583">
        <ele>202.94</ele>
        <time>2017-03-26T08:54:33Z</time>
      </trkpt>
      <trkpt lat="45.42173" lon="4.90582">
        <ele>203.36</ele>
        <time>2017-03-26T08:54:34Z</time>
      </trkpt>
      <trkpt lat="45.42177" lon="4.90581">
        <ele>203.93</ele>
        <time>2017-03-26T08:54:35Z</time>
      </trkpt>
      <trkpt lat="45.42179" lon="4.9058">
        <ele>204.44</ele>
        <time>2017-03-26T08:54:36Z</time>
      </trkpt>
      <trkpt lat="45.42182" lon="4.9058">
        <ele>204.62</ele>
        <time>2017-03-26T08:54:37Z</time>
      </trkpt>
      <trkpt lat="45.42181" lon="4.90579">
        <ele>204.74</ele>
        <time>2017-03-26T08:54:38Z</time>
      </trkpt>
      <trkpt lat="45.4218" lon="4.90579">
        <ele>204.84</ele>
        <time>2017-03-26T08:54:39Z</time>
      </trkpt>
      <trkpt lat="45.4218" lon="4.9058">
        <ele>204.62</ele>
        <time>2017-03-26T08:54:40Z</time>
      </trkpt>
      <trkpt lat="45.4218" lon="4.9058">
        <ele>204.58</ele>
        <time>2017-03-26T08:54:41Z</time>
      </trkpt>
      <trkpt lat="45.4218" lon="4.9058">
        <ele>204.57</ele>
        <time>2017-03-26T08:54:42Z</time>
      </trkpt>
      <trkpt lat="45.4218" lon="4.9058">
        <ele>204.57</ele>
        <time>2017-03-26T08:54:43Z</time>
      </trkpt>
      <trkpt lat="45.4218" lon="4.9058">
        <ele>204.57</ele>
        <time>2017-03-26T08:54:44Z</time>
      </trkpt>
      <trkpt lat="45.4218" lon="4.9058">
        <ele>204.57</ele>
        <time>2017-03-26T08:54:45Z</time>
      </trkpt>
      <trkpt lat="45.4218" lon="4.9058">
        <ele>204.57</ele>
        <time>2017-03-26T08:54:46Z</time>
      </trkpt>
      <trkpt lat="45.4218" lon="4.9058">
        <ele>204.57</ele>
        <time>2017-03-26T08:54:47Z</time>
      </trkpt>
      <trkpt lat="45.4218" lon="4.9058">
        <ele>204.57</ele>
        <time>2017-03-26T08:54:48Z</time>
      </trkpt>
      <trkpt lat="45.4218" lon="4.9058">
        <ele>204.57</ele>
        <time>2017-03-26T08:54:49Z</time>
      </trkpt>
      <trkpt lat="45.4218" lon="4.9058">
        <ele>204.57</ele>
        <time>2017-03-26T08:54:50Z</time>
      </trkpt>
      <trkpt lat="45.4218" lon="4.9058">
        <ele>204.57</ele>
        <time>2017-03-26T08:54:51Z</time>
      </trkpt>
      <trkpt lat="45.4218" lon="4.9058">
        <ele>204.57</ele>
        <time>2017-03-26T08:54:52Z</time>
      </trkpt>
      <trkpt lat="45.4218" lon="4.9058">
        <ele>204.57</ele>
        <time>2017-03-26T08:54:53Z</time>
      </trkpt>
      <trkpt lat="45.4218" lon="4.9058">
        <ele>204.57</ele>
        <time>2017-03-26T08:54:54Z</time>
      </trkpt>
      <trkpt lat="45.4218" lon="4.90587">
        <ele>204.25</ele>
        <time>2017-03-26T08:54:55Z</time>
      </trkpt>
      <trkpt lat="45.42181" lon="4.90595">
        <ele>204.1</ele>
        <time>2017-03-26T08:54:56Z</time>
      </trkpt>
      <trkpt lat="45.42185" lon="4.90605">
        <ele>203.99</ele>
        <time>2017-03-26T08:54:57Z</time>
      </trkpt>
      <trkpt lat="45.42188" lon="4.90618">
        <ele>203.97</ele>
        <time>2017-03-26T08:54:58Z</time>
      </trkpt>
      <trkpt lat="45.42192" lon="4.90633">
        <ele>204.05</ele>
        <time>2017-03-26T08:54:59Z</time>
      </trkpt>
      <trkpt lat="45.42196" lon="4.9065">
        <ele>204.06</ele>
        <time>2017-03-26T08:55:00Z</time>
      </trkpt>
      <trkpt lat="45.42201" lon="4.90667">
        <ele>203.99</ele>
        <time>2017-03-26T08:55:01Z</time>
      </trkpt>
      <trkpt lat="45.42206" lon="4.90685">
        <ele>204.05</ele>
        <time>2017-03-26T08:55:02Z</time>
      </trkpt>
      <trkpt lat="45.42212" lon="4.90704">
        <ele>204.06</ele>
        <time>2017-03-26T08:55:03Z</time>
      </trkpt>
      <trkpt lat="45.42216" lon="4.90724">
        <ele>204.31</ele>
        <time>2017-03-26T08:55:04Z</time>
      </trkpt>
      <trkpt lat="45.42221" lon="4.90745">
        <ele>204.75</ele>
        <time>2017-03-26T08:55:05Z</time>
      </trkpt>
      <trkpt lat="45.42226" lon="4.90766">
        <ele>205</ele>
        <time>2017-03-26T08:55:06Z</time>
      </trkpt>
      <trkpt lat="45.42231" lon="4.90788">
        <ele>205.53</ele>
        <time>2017-03-26T08:55:07Z</time>
      </trkpt>
      <trkpt lat="45.42235" lon="4.90809">
        <ele>206.2</ele>
        <time>2017-03-26T08:55:08Z</time>
      </trkpt>
      <trkpt lat="45.42239" lon="4.9083">
        <ele>206.65</ele>
        <time>2017-03-26T08:55:09Z</time>
      </trkpt>
      <trkpt lat="45.42244" lon="4.90851">
        <ele>207.22</ele>
        <time>2017-03-26T08:55:10Z</time>
      </trkpt>
      <trkpt lat="45.42249" lon="4.90872">
        <ele>207.42</ele>
        <time>2017-03-26T08:55:11Z</time>
      </trkpt>
      <trkpt lat="45.42254" lon="4.90894">
        <ele>207.62</ele>
        <time>2017-03-26T08:55:12Z</time>
      </trkpt>
      <trkpt lat="45.42259" lon="4.90916">
        <ele>207.58</ele>
        <time>2017-03-26T08:55:13Z</time>
      </trkpt>
      <trkpt lat="45.42264" lon="4.9094">
        <ele>207.57</ele>
        <time>2017-03-26T08:55:14Z</time>
      </trkpt>
      <trkpt lat="45.4227" lon="4.90966">
        <ele>207.73</ele>
        <time>2017-03-26T08:55:15Z</time>
      </trkpt>
      <trkpt lat="45.42275" lon="4.90992">
        <ele>208</ele>
        <time>2017-03-26T08:55:16Z</time>
      </trkpt>
      <trkpt lat="45.42281" lon="4.9102">
        <ele>208.37</ele>
        <time>2017-03-26T08:55:17Z</time>
      </trkpt>
      <trkpt lat="45.42287" lon="4.91048">
        <ele>208.69</ele>
        <time>2017-03-26T08:55:18Z</time>
      </trkpt>
      <trkpt lat="45.42293" lon="4.91076">
        <ele>208.83</ele>
        <time>2017-03-26T08:55:19Z</time>
      </trkpt>
      <trkpt lat="45.423" lon="4.91106">
        <ele>209.1</ele>
        <time>2017-03-26T08:55:20Z</time>
      </trkpt>
      <trkpt lat="45.42307" lon="4.91135">
        <ele>209.31</ele>
        <time>2017-03-26T08:55:21Z</time>
      </trkpt>
      <trkpt lat="45.42314" lon="4.91166">
        <ele>209.6</ele>
        <time>2017-03-26T08:55:22Z</time>
      </trkpt>
      <trkpt lat="45.42322" lon="4.91196">
        <ele>209.89</ele>
        <time>2017-03-26T08:55:23Z</time>
      </trkpt>
      <trkpt lat="45.42329" lon="4.91227">
        <ele>209.63</ele>
        <time>2017-03-26T08:55:24Z</time>
      </trkpt>
      <trkpt lat="45.42337" lon="4.91258">
        <ele>209.58</ele>
        <time>2017-03-26T08:55:25Z</time>
      </trkpt>
      <trkpt lat="45.42344" lon="4.91288">
        <ele>209.97</ele>
        <time>2017-03-26T08:55:26Z</time>
      </trkpt>
      <trkpt lat="45.42351" lon="4.91319">
        <ele>210.53</ele>
        <time>2017-03-26T08:55:27Z</time>
      </trkpt>
      <trkpt lat="45.42358" lon="4.9135">
        <ele>211.12</ele>
        <time>2017-03-26T08:55:28Z</time>
      </trkpt>
      <trkpt lat="45.42365" lon="4.9138">
        <ele>211.48</ele>
        <time>2017-03-26T08:55:29Z</time>
      </trkpt>
      <trkpt lat="45.42371" lon="4.91411">
        <ele>211.71</ele>
        <time>2017-03-26T08:55:30Z</time>
      </trkpt>
      <trkpt lat="45.42378" lon="4.91441">
        <ele>211.76</ele>
        <time>2017-03-26T08:55:31Z</time>
      </trkpt>
      <trkpt lat="45.42384" lon="4.91471">
        <ele>212</ele>
        <time>2017-03-26T08:55:32Z</time>
      </trkpt>
      <trkpt lat="45.42388" lon="4.91501">
        <ele>212.05</ele>
        <time>2017-03-26T08:55:33Z</time>
      </trkpt>
      <trkpt lat="45.42391" lon="4.91531">
        <ele>211.74</ele>
        <time>2017-03-26T08:55:34Z</time>
      </trkpt>
      <trkpt lat="45.42394" lon="4.91562">
        <ele>211.36</ele>
        <time>2017-03-26T08:55:35Z</time>
      </trkpt>
      <trkpt lat="45.42398" lon="4.91592">
        <ele>211.21</ele>
        <time>2017-03-26T08:55:36Z</time>
      </trkpt>
      <trkpt lat="45.42404" lon="4.91623">
        <ele>211.09</ele>
        <time>2017-03-26T08:55:37Z</time>
      </trkpt>
      <trkpt lat="45.4241" lon="4.91654">
        <ele>210.91</ele>
        <time>2017-03-26T08:55:38Z</time>
      </trkpt>
      <trkpt lat="45.42417" lon="4.91686">
        <ele>210.96</ele>
        <time>2017-03-26T08:55:39Z</time>
      </trkpt>
      <trkpt lat="45.42423" lon="4.91718">
        <ele>210.96</ele>
        <time>2017-03-26T08:55:40Z</time>
      </trkpt>
      <trkpt lat="45.4243" lon="4.91749">
        <ele>210.97</ele>
        <time>2017-03-26T08:55:41Z</time>
      </trkpt>
      <trkpt lat="45.42437" lon="4.91781">
        <ele>210.89</ele>
        <time>2017-03-26T08:55:42Z</time>
      </trkpt>
      <trkpt lat="45.42444" lon="4.91813">
        <ele>210.87</ele>
        <time>2017-03-26T08:55:43Z</time>
      </trkpt>
      <trkpt lat="45.42451" lon="4.91845">
        <ele>211.03</ele>
        <time>2017-03-26T08:55:44Z</time>
      </trkpt>
      <trkpt lat="45.42458" lon="4.91877">
        <ele>211.3</ele>
        <time>2017-03-26T08:55:45Z</time>
      </trkpt>
      <trkpt lat="45.42465" lon="4.91908">
        <ele>211.75</ele>
        <time>2017-03-26T08:55:46Z</time>
      </trkpt>
      <trkpt lat="45.42472" lon="4.9194">
        <ele>212</ele>
        <time>2017-03-26T08:55:47Z</time>
      </trkpt>
      <trkpt lat="45.4248" lon="4.91971">
        <ele>212.37</ele>
        <time>2017-03-26T08:55:48Z</time>
      </trkpt>
      <trkpt lat="45.42488" lon="4.92001">
        <ele>212.61</ele>
        <time>2017-03-26T08:55:49Z</time>
      </trkpt>
      <trkpt lat="45.42498" lon="4.92031">
        <ele>212.82</ele>
        <time>2017-03-26T08:55:50Z</time>
      </trkpt>
      <trkpt lat="45.42508" lon="4.92059">
        <ele>213.02</ele>
        <time>2017-03-26T08:55:51Z</time>
      </trkpt>
      <trkpt lat="45.42519" lon="4.92088">
        <ele>213.06</ele>
        <time>2017-03-26T08:55:52Z</time>
      </trkpt>
      <trkpt lat="45.4253" lon="4.92116">
        <ele>213.14</ele>
        <time>2017-03-26T08:55:53Z</time>
      </trkpt>
      <trkpt lat="45.42541" lon="4.92144">
        <ele>213.8</ele>
        <time>2017-03-26T08:55:54Z</time>
      </trkpt>
      <trkpt lat="45.42551" lon="4.92172">
        <ele>214.09</ele>
        <time>2017-03-26T08:55:55Z</time>
      </trkpt>
      <trkpt lat="45.42562" lon="4.922">
        <ele>214.31</ele>
        <time>2017-03-26T08:55:56Z</time>
      </trkpt>
      <trkpt lat="45.42573" lon="4.92228">
        <ele>214.44</ele>
        <time>2017-03-26T08:55:57Z</time>
      </trkpt>
      <trkpt lat="45.42583" lon="4.92256">
        <ele>214.54</ele>
        <time>2017-03-26T08:55:58Z</time>
      </trkpt>
      <trkpt lat="45.42594" lon="4.92283">
        <ele>214.72</ele>
        <time>2017-03-26T08:55:59Z</time>
      </trkpt>
      <trkpt lat="45.42605" lon="4.92309">
        <ele>215.56</ele>
        <time>2017-03-26T08:56:00Z</time>
      </trkpt>
      <trkpt lat="45.42616" lon="4.92335">
        <ele>216.05</ele>
        <time>2017-03-26T08:56:01Z</time>
      </trkpt>
      <trkpt lat="45.42627" lon="4.92359">
        <ele>216.38</ele>
        <time>2017-03-26T08:56:02Z</time>
      </trkpt>
      <trkpt lat="45.42638" lon="4.92383">
        <ele>216.53</ele>
        <time>2017-03-26T08:56:03Z</time>
      </trkpt>
      <trkpt lat="45.42648" lon="4.92406">
        <ele>216.4</ele>
        <time>2017-03-26T08:56:04Z</time>
      </trkpt>
      <trkpt lat="45.42658" lon="4.92428">
        <ele>216.37</ele>
        <time>2017-03-26T08:56:05Z</time>
      </trkpt>
      <trkpt lat="45.42667" lon="4.9245">
        <ele>216.37</ele>
        <time>2017-03-26T08:56:06Z</time>
      </trkpt>
      <trkpt lat="45.42676" lon="4.92472">
        <ele>216.45</ele>
        <time>2017-03-26T08:56:07Z</time>
      </trkpt>
      <trkpt lat="45.42685" lon="4.92492">
        <ele>216.38</ele>
        <time>2017-03-26T08:56:08Z</time>
      </trkpt>
      <trkpt lat="45.42695" lon="4.92512">
        <ele>216.13</ele>
        <time>2017-03-26T08:56:09Z</time>
      </trkpt>
      <trkpt lat="45.42704" lon="4.92533">
        <ele>216</ele>
        <time>2017-03-26T08:56:10Z</time>
      </trkpt>
      <trkpt lat="45.42714" lon="4.92555">
        <ele>216.13</ele>
        <time>2017-03-26T08:56:11Z</time>
      </trkpt>
      <trkpt lat="45.42723" lon="4.92577">
        <ele>216.32</ele>
        <time>2017-03-26T08:56:12Z</time>
      </trkpt>
      <trkpt lat="45.42733" lon="4.92599">
        <ele>216.2</ele>
        <time>2017-03-26T08:56:13Z</time>
      </trkpt>
      <trkpt lat="45.42743" lon="4.92621">
        <ele>216.33</ele>
        <time>2017-03-26T08:56:14Z</time>
      </trkpt>
      <trkpt lat="45.42754" lon="4.92643">
        <ele>216.44</ele>
        <time>2017-03-26T08:56:15Z</time>
      </trkpt>
      <trkpt lat="45.42764" lon="4.92665">
        <ele>216.54</ele>
        <time>2017-03-26T08:56:16Z</time>
      </trkpt>
      <trkpt lat="45.42774" lon="4.92687">
        <ele>216.56</ele>
        <time>2017-03-26T08:56:17Z</time>
      </trkpt>
      <trkpt lat="45.42783" lon="4.92708">
        <ele>216.81</ele>
        <time>2017-03-26T08:56:18Z</time>
      </trkpt>
      <trkpt lat="45.42793" lon="4.9273">
        <ele>217.25</ele>
        <time>2017-03-26T08:56:19Z</time>
      </trkpt>
      <trkpt lat="45.42802" lon="4.92752">
        <ele>217.66</ele>
        <time>2017-03-26T08:56:20Z</time>
      </trkpt>
      <trkpt lat="45.42812" lon="4.92773">
        <ele>218.31</ele>
        <time>2017-03-26T08:56:21Z</time>
      </trkpt>
      <trkpt lat="45.42821" lon="4.92794">
        <ele>219.07</ele>
        <time>2017-03-26T08:56:22Z</time>
      </trkpt>
      <trkpt lat="45.4283" lon="4.92814">
        <ele>219.87</ele>
        <time>2017-03-26T08:56:23Z</time>
      </trkpt>
      <trkpt lat="45.42839" lon="4.92834">
        <ele>220.35</ele>
        <time>2017-03-26T08:56:24Z</time>
      </trkpt>
      <trkpt lat="45.42848" lon="4.92854">
        <ele>220.44</ele>
        <time>2017-03-26T08:56:25Z</time>
      </trkpt>
      <trkpt lat="45.42857" lon="4.92874">
        <ele>220.38</ele>
        <time>2017-03-26T08:56:26Z</time>
      </trkpt>
      <trkpt lat="45.42866" lon="4.92895">
        <ele>220.29</ele>
        <time>2017-03-26T08:56:27Z</time>
      </trkpt>
      <trkpt lat="45.42875" lon="4.92916">
        <ele>220.27</ele>
        <time>2017-03-26T08:56:28Z</time>
      </trkpt>
      <trkpt lat="45.42885" lon="4.92937">
        <ele>220.27</ele>
        <time>2017-03-26T08:56:29Z</time>
      </trkpt>
      <trkpt lat="45.42894" lon="4.92959">
        <ele>220.27</ele>
        <time>2017-03-26T08:56:30Z</time>
      </trkpt>
      <trkpt lat="45.42904" lon="4.92981">
        <ele>220.51</ele>
        <time>2017-03-26T08:56:31Z</time>
      </trkpt>
      <trkpt lat="45.42914" lon="4.93003">
        <ele>220.8</ele>
        <time>2017-03-26T08:56:32Z</time>
      </trkpt>
      <trkpt lat="45.42924" lon="4.93026">
        <ele>221.01</ele>
        <time>2017-03-26T08:56:33Z</time>
      </trkpt>
      <trkpt lat="45.42934" lon="4.93048">
        <ele>221.22</ele>
        <time>2017-03-26T08:56:34Z</time>
      </trkpt>
      <trkpt lat="45.42943" lon="4.93071">
        <ele>221.5</ele>
        <time>2017-03-26T08:56:35Z</time>
      </trkpt>
      <trkpt lat="45.42953" lon="4.93094">
        <ele>221.63</ele>
        <time>2017-03-26T08:56:36Z</time>
      </trkpt>
      <trkpt lat="45.42963" lon="4.93117">
        <ele>221.58</ele>
        <time>2017-03-26T08:56:37Z</time>
      </trkpt>
      <trkpt lat="45.42973" lon="4.9314">
        <ele>221.89</ele>
        <time>2017-03-26T08:56:38Z</time>
      </trkpt>
      <trkpt lat="45.42983" lon="4.93163">
        <ele>222.35</ele>
        <time>2017-03-26T08:56:39Z</time>
      </trkpt>
      <trkpt lat="45.42993" lon="4.93186">
        <ele>222.44</ele>
        <time>2017-03-26T08:56:40Z</time>
      </trkpt>
      <trkpt lat="45.43003" lon="4.93209">
        <ele>222.46</ele>
        <time>2017-03-26T08:56:41Z</time>
      </trkpt>
      <trkpt lat="45.43013" lon="4.93231">
        <ele>222.47</ele>
        <time>2017-03-26T08:56:42Z</time>
      </trkpt>
      <trkpt lat="45.43023" lon="4.93253">
        <ele>222.31</ele>
        <time>2017-03-26T08:56:43Z</time>
      </trkpt>
      <trkpt lat="45.43032" lon="4.93272">
        <ele>222.19</ele>
        <time>2017-03-26T08:56:44Z</time>
      </trkpt>
      <trkpt lat="45.43038" lon="4.93287">
        <ele>222.49</ele>
        <time>2017-03-26T08:56:45Z</time>
      </trkpt>
      <trkpt lat="45.43043" lon="4.93299">
        <ele>222.39</ele>
        <time>2017-03-26T08:56:46Z</time>
      </trkpt>
      <trkpt lat="45.43045" lon="4.93304">
        <ele>222.53</ele>
        <time>2017-03-26T08:56:47Z</time>
      </trkpt>
      <trkpt lat="45.43047" lon="4.93308">
        <ele>222.24</ele>
        <time>2017-03-26T08:56:48Z</time>
      </trkpt>
      <trkpt lat="45.43047" lon="4.93309">
        <ele>222.02</ele>
        <time>2017-03-26T08:56:49Z</time>
      </trkpt>
      <trkpt lat="45.43047" lon="4.93309">
        <ele>221.98</ele>
        <time>2017-03-26T08:56:50Z</time>
      </trkpt>
      <trkpt lat="45.43047" lon="4.93309">
        <ele>222.45</ele>
        <time>2017-03-26T08:56:51Z</time>
      </trkpt>
      <trkpt lat="45.43047" lon="4.93309">
        <ele>222.86</ele>
        <time>2017-03-26T08:56:52Z</time>
      </trkpt>
      <trkpt lat="45.43047" lon="4.93309">
        <ele>222.95</ele>
        <time>2017-03-26T08:56:53Z</time>
      </trkpt>
      <trkpt lat="45.43047" lon="4.93309">
        <ele>222.96</ele>
        <time>2017-03-26T08:56:54Z</time>
      </trkpt>
      <trkpt lat="45.43047" lon="4.93309">
        <ele>222.97</ele>
        <time>2017-03-26T08:56:55Z</time>
      </trkpt>
      <trkpt lat="45.43047" lon="4.93309">
        <ele>222.97</ele>
        <time>2017-03-26T08:56:56Z</time>
      </trkpt>
      <trkpt lat="45.43047" lon="4.93309">
        <ele>222.97</ele>
        <time>2017-03-26T08:56:57Z</time>
      </trkpt>
      <trkpt lat="45.43052" lon="4.93308">
        <ele>223.29</ele>
        <time>2017-03-26T08:56:58Z</time>
      </trkpt>
      <trkpt lat="45.43055" lon="4.93303">
        <ele>223.27</ele>
        <time>2017-03-26T08:56:59Z</time>
      </trkpt>
      <trkpt lat="45.43059" lon="4.93296">
        <ele>223.35</ele>
        <time>2017-03-26T08:57:00Z</time>
      </trkpt>
      <trkpt lat="45.43064" lon="4.93287">
        <ele>223.44</ele>
        <time>2017-03-26T08:57:01Z</time>
      </trkpt>
      <trkpt lat="45.4307" lon="4.93279">
        <ele>223.46</ele>
        <time>2017-03-26T08:57:02Z</time>
      </trkpt>
      <trkpt lat="45.43077" lon="4.93269">
        <ele>223.55</ele>
        <time>2017-03-26T08:57:03Z</time>
      </trkpt>
      <trkpt lat="45.43086" lon="4.93261">
        <ele>223.56</ele>
        <time>2017-03-26T08:57:04Z</time>
      </trkpt>
      <trkpt lat="45.43109" lon="4.93258">
        <ele>223.57</ele>
        <time>2017-03-26T08:57:05Z</time>
      </trkpt>
      <trkpt lat="45.43128" lon="4.93256">
        <ele>223.57</ele>
        <time>2017-03-26T08:57:06Z</time>
      </trkpt>
      <trkpt lat="45.43148" lon="4.93255">
        <ele>223.57</ele>
        <time>2017-03-26T08:57:07Z</time>
      </trkpt>
      <trkpt lat="45.43169" lon="4.93254">
        <ele>223.57</ele>
        <time>2017-03-26T08:57:08Z</time>
      </trkpt>
      <trkpt lat="45.43188" lon="4.93252">
        <ele>223.57</ele>
        <time>2017-03-26T08:57:09Z</time>
      </trkpt>
      <trkpt lat="45.43208" lon="4.9325">
        <ele>223.57</ele>
        <time>2017-03-26T08:57:10Z</time>
      </trkpt>
      <trkpt lat="45.43226" lon="4.93246">
        <ele>223.65</ele>
        <time>2017-03-26T08:57:11Z</time>
      </trkpt>
      <trkpt lat="45.43244" lon="4.9324">
        <ele>223.74</ele>
        <time>2017-03-26T08:57:12Z</time>
      </trkpt>
      <trkpt lat="45.43258" lon="4.93229">
        <ele>224.08</ele>
        <time>2017-03-26T08:57:13Z</time>
      </trkpt>
      <trkpt lat="45.43272" lon="4.93215">
        <ele>224.47</ele>
        <time>2017-03-26T08:57:14Z</time>
      </trkpt>
      <trkpt lat="45.43288" lon="4.93203">
        <ele>224.79</ele>
        <time>2017-03-26T08:57:15Z</time>
      </trkpt>
      <trkpt lat="45.43305" lon="4.93192">
        <ele>225.17</ele>
        <time>2017-03-26T08:57:16Z</time>
      </trkpt>
      <trkpt lat="45.43323" lon="4.93184">
        <ele>225.49</ele>
        <time>2017-03-26T08:57:17Z</time>
      </trkpt>
      <trkpt lat="45.43342" lon="4.93179">
        <ele>225.87</ele>
        <time>2017-03-26T08:57:18Z</time>
      </trkpt>
      <trkpt lat="45.43362" lon="4.93175">
        <ele>226.27</ele>
        <time>2017-03-26T08:57:19Z</time>
      </trkpt>
      <trkpt lat="45.43381" lon="4.93171">
        <ele>226.59</ele>
        <time>2017-03-26T08:57:20Z</time>
      </trkpt>
      <trkpt lat="45.43399" lon="4.93168">
        <ele>226.97</ele>
        <time>2017-03-26T08:57:21Z</time>
      </trkpt>
      <trkpt lat="45.43416" lon="4.93164">
        <ele>227.37</ele>
        <time>2017-03-26T08:57:22Z</time>
      </trkpt>
      <trkpt lat="45.43435" lon="4.93165">
        <ele>228.01</ele>
        <time>2017-03-26T08:57:23Z</time>
      </trkpt>
      <trkpt lat="45.43452" lon="4.93172">
        <ele>228.78</ele>
        <time>2017-03-26T08:57:24Z</time>
      </trkpt>
      <trkpt lat="45.4346" lon="4.93184">
        <ele>229.41</ele>
        <time>2017-03-26T08:57:25Z</time>
      </trkpt>
      <trkpt lat="45.43474" lon="4.93188">
        <ele>229.78</ele>
        <time>2017-03-26T08:57:26Z</time>
      </trkpt>
      <trkpt lat="45.43485" lon="4.93186">
        <ele>230.25</ele>
        <time>2017-03-26T08:57:27Z</time>
      </trkpt>
      <trkpt lat="45.43498" lon="4.9318">
        <ele>230.5</ele>
        <time>2017-03-26T08:57:28Z</time>
      </trkpt>
      <trkpt lat="45.4351" lon="4.93175">
        <ele>230.71</ele>
        <time>2017-03-26T08:57:29Z</time>
      </trkpt>
      <trkpt lat="45.43521" lon="4.93178">
        <ele>231.32</ele>
        <time>2017-03-26T08:57:30Z</time>
      </trkpt>
      <trkpt lat="45.43535" lon="4.93185">
        <ele>232.08</ele>
        <time>2017-03-26T08:57:31Z</time>
      </trkpt>
      <trkpt lat="45.43547" lon="4.93191">
        <ele>233.19</ele>
        <time>2017-03-26T08:57:32Z</time>
      </trkpt>
      <trkpt lat="45.43563" lon="4.93189">
        <ele>234.05</ele>
        <time>2017-03-26T08:57:33Z</time>
      </trkpt>
      <trkpt lat="45.4358" lon="4.93187">
        <ele>234.78</ele>
        <time>2017-03-26T08:57:34Z</time>
      </trkpt>
      <trkpt lat="45.43598" lon="4.9319">
        <ele>235.57</ele>
        <time>2017-03-26T08:57:35Z</time>
      </trkpt>
      <trkpt lat="45.43616" lon="4.932">
        <ele>236.61</ele>
        <time>2017-03-26T08:57:36Z</time>
      </trkpt>
      <trkpt lat="45.43633" lon="4.9321">
        <ele>237.62</ele>
        <time>2017-03-26T08:57:37Z</time>
      </trkpt>
      <trkpt lat="45.43654" lon="4.93219">
        <ele>239.02</ele>
        <time>2017-03-26T08:57:38Z</time>
      </trkpt>
      <trkpt lat="45.43674" lon="4.93223">
        <ele>239.94</ele>
        <time>2017-03-26T08:57:39Z</time>
      </trkpt>
      <trkpt lat="45.43693" lon="4.93225">
        <ele>240.84</ele>
        <time>2017-03-26T08:57:40Z</time>
      </trkpt>
      <trkpt lat="45.43712" lon="4.93225">
        <ele>241.58</ele>
        <time>2017-03-26T08:57:41Z</time>
      </trkpt>
      <trkpt lat="45.43729" lon="4.93221">
        <ele>242.45</ele>
        <time>2017-03-26T08:57:42Z</time>
      </trkpt>
      <trkpt lat="45.43744" lon="4.93211">
        <ele>243.26</ele>
        <time>2017-03-26T08:57:43Z</time>
      </trkpt>
      <trkpt lat="45.43751" lon="4.93191">
        <ele>244.55</ele>
        <time>2017-03-26T08:57:44Z</time>
      </trkpt>
      <trkpt lat="45.4376" lon="4.93174">
        <ele>245.44</ele>
        <time>2017-03-26T08:57:45Z</time>
      </trkpt>
      <trkpt lat="45.4377" lon="4.9316">
        <ele>246.34</ele>
        <time>2017-03-26T08:57:46Z</time>
      </trkpt>
      <trkpt lat="45.43781" lon="4.93153">
        <ele>247.24</ele>
        <time>2017-03-26T08:57:47Z</time>
      </trkpt>
      <trkpt lat="45.43794" lon="4.93151">
        <ele>248.22</ele>
        <time>2017-03-26T08:57:48Z</time>
      </trkpt>
      <trkpt lat="45.43808" lon="4.93153">
        <ele>249.3</ele>
        <time>2017-03-26T08:57:49Z</time>
      </trkpt>
      <trkpt lat="45.43826" lon="4.93162">
        <ele>250.39</ele>
        <time>2017-03-26T08:57:50Z</time>
      </trkpt>
      <trkpt lat="45.43844" lon="4.93171">
        <ele>251.41</ele>
        <time>2017-03-26T08:57:51Z</time>
      </trkpt>
      <trkpt lat="45.43863" lon="4.93183">
        <ele>252.34</ele>
        <time>2017-03-26T08:57:52Z</time>
      </trkpt>
      <trkpt lat="45.43881" lon="4.93194">
        <ele>253.24</ele>
        <time>2017-03-26T08:57:53Z</time>
      </trkpt>
      <trkpt lat="45.43898" lon="4.93201">
        <ele>254.22</ele>
        <time>2017-03-26T08:57:54Z</time>
      </trkpt>
      <trkpt lat="45.43914" lon="4.93204">
        <ele>255.14</ele>
        <time>2017-03-26T08:57:55Z</time>
      </trkpt>
      <trkpt lat="45.4393" lon="4.93204">
        <ele>256.04</ele>
        <time>2017-03-26T08:57:56Z</time>
      </trkpt>
      <trkpt lat="45.43946" lon="4.932">
        <ele>256.86</ele>
        <time>2017-03-26T08:57:57Z</time>
      </trkpt>
      <trkpt lat="45.43961" lon="4.93195">
        <ele>257.83</ele>
        <time>2017-03-26T08:57:58Z</time>
      </trkpt>
      <trkpt lat="45.43974" lon="4.93194">
        <ele>258.66</ele>
        <time>2017-03-26T08:57:59Z</time>
      </trkpt>
      <trkpt lat="45.43986" lon="4.93197">
        <ele>259.47</ele>
        <time>2017-03-26T08:58:00Z</time>
      </trkpt>
      <trkpt lat="45.43999" lon="4.93207">
        <ele>260.19</ele>
        <time>2017-03-26T08:58:01Z</time>
      </trkpt>
      <trkpt lat="45.44011" lon="4.93218">
        <ele>260.97</ele>
        <time>2017-03-26T08:58:02Z</time>
      </trkpt>
      <trkpt lat="45.44025" lon="4.93225">
        <ele>262.01</ele>
        <time>2017-03-26T08:58:03Z</time>
      </trkpt>
      <trkpt lat="45.44041" lon="4.93227">
        <ele>262.86</ele>
        <time>2017-03-26T08:58:04Z</time>
      </trkpt>
      <trkpt lat="45.44058" lon="4.93228">
        <ele>263.5</ele>
        <time>2017-03-26T08:58:05Z</time>
      </trkpt>
      <trkpt lat="45.44074" lon="4.93232">
        <ele>264.03</ele>
        <time>2017-03-26T08:58:06Z</time>
      </trkpt>
      <trkpt lat="45.44092" lon="4.93242">
        <ele>264.94</ele>
        <time>2017-03-26T08:58:07Z</time>
      </trkpt>
      <trkpt lat="45.44109" lon="4.93252">
        <ele>266.24</ele>
        <time>2017-03-26T08:58:08Z</time>
      </trkpt>
      <trkpt lat="45.44127" lon="4.9326">
        <ele>267.7</ele>
        <time>2017-03-26T08:58:09Z</time>
      </trkpt>
      <trkpt lat="45.44145" lon="4.9326">
        <ele>269.03</ele>
        <time>2017-03-26T08:58:10Z</time>
      </trkpt>
      <trkpt lat="45.44163" lon="4.93258">
        <ele>269.94</ele>
        <time>2017-03-26T08:58:11Z</time>
      </trkpt>
      <trkpt lat="45.44182" lon="4.93256">
        <ele>270.84</ele>
        <time>2017-03-26T08:58:12Z</time>
      </trkpt>
      <trkpt lat="45.44201" lon="4.93257">
        <ele>271.58</ele>
        <time>2017-03-26T08:58:13Z</time>
      </trkpt>
      <trkpt lat="45.44218" lon="4.93259">
        <ele>272.53</ele>
        <time>2017-03-26T08:58:14Z</time>
      </trkpt>
      <trkpt lat="45.44235" lon="4.93258">
        <ele>273.36</ele>
        <time>2017-03-26T08:58:15Z</time>
      </trkpt>
      <trkpt lat="45.44251" lon="4.93252">
        <ele>274.49</ele>
        <time>2017-03-26T08:58:16Z</time>
      </trkpt>
      <trkpt lat="45.44268" lon="4.93242">
        <ele>275.91</ele>
        <time>2017-03-26T08:58:17Z</time>
      </trkpt>
      <trkpt lat="45.44286" lon="4.93236">
        <ele>276.92</ele>
        <time>2017-03-26T08:58:18Z</time>
      </trkpt>
      <trkpt lat="45.44304" lon="4.93234">
        <ele>277.84</ele>
        <time>2017-03-26T08:58:19Z</time>
      </trkpt>
      <trkpt lat="45.44322" lon="4.93233">
        <ele>278.58</ele>
        <time>2017-03-26T08:58:20Z</time>
      </trkpt>
      <trkpt lat="45.44339" lon="4.93227">
        <ele>279.45</ele>
        <time>2017-03-26T08:58:21Z</time>
      </trkpt>
      <trkpt lat="45.44356" lon="4.93218">
        <ele>280.26</ele>
        <time>2017-03-26T08:58:22Z</time>
      </trkpt>
      <trkpt lat="45.44373" lon="4.93206">
        <ele>280.99</ele>
        <time>2017-03-26T08:58:23Z</time>
      </trkpt>
      <trkpt lat="45.44389" lon="4.93194">
        <ele>281.77</ele>
        <time>2017-03-26T08:58:24Z</time>
      </trkpt>
      <trkpt lat="45.44405" lon="4.93183">
        <ele>282.57</ele>
        <time>2017-03-26T08:58:25Z</time>
      </trkpt>
      <trkpt lat="45.44422" lon="4.93175">
        <ele>283.29</ele>
        <time>2017-03-26T08:58:26Z</time>
      </trkpt>
      <trkpt lat="45.44438" lon="4.93172">
        <ele>283.99</ele>
        <time>2017-03-26T08:58:27Z</time>
      </trkpt>
      <trkpt lat="45.44456" lon="4.9317">
        <ele>284.61</ele>
        <time>2017-03-26T08:58:28Z</time>
      </trkpt>
      <trkpt lat="45.44473" lon="4.9317">
        <ele>285.14</ele>
        <time>2017-03-26T08:58:29Z</time>
      </trkpt>
      <trkpt lat="45.4449" lon="4.9317">
        <ele>285.72</ele>
        <time>2017-03-26T08:58:30Z</time>
      </trkpt>
      <trkpt lat="45.44506" lon="4.9317">
        <ele>286.32</ele>
        <time>2017-03-26T08:58:31Z</time>
      </trkpt>
      <trkpt lat="45.44521" lon="4.9317">
        <ele>286.84</ele>
        <time>2017-03-26T08:58:32Z</time>
      </trkpt>
      <trkpt lat="45.44535" lon="4.93169">
        <ele>287.42</ele>
        <time>2017-03-26T08:58:33Z</time>
      </trkpt>
      <trkpt lat="45.44547" lon="4.93167">
        <ele>288.26</ele>
        <time>2017-03-26T08:58:34Z</time>
      </trkpt>
      <trkpt lat="45.44559" lon="4.93164">
        <ele>288.75</ele>
        <time>2017-03-26T08:58:35Z</time>
      </trkpt>
      <trkpt lat="45.44569" lon="4.9316">
        <ele>289.24</ele>
        <time>2017-03-26T08:58:36Z</time>
      </trkpt>
      <trkpt lat="45.44578" lon="4.93156">
        <ele>289.74</ele>
        <time>2017-03-26T08:58:37Z</time>
      </trkpt>
      <trkpt lat="45.44586" lon="4.93152">
        <ele>290.24</ele>
        <time>2017-03-26T08:58:38Z</time>
      </trkpt>
      <trkpt lat="45.44594" lon="4.93149">
        <ele>290.74</ele>
        <time>2017-03-26T08:58:39Z</time>
      </trkpt>
      <trkpt lat="45.44601" lon="4.93145">
        <ele>291</ele>
        <time>2017-03-26T08:58:40Z</time>
      </trkpt>
      <trkpt lat="45.44608" lon="4.93142">
        <ele>292.01</ele>
        <time>2017-03-26T08:58:41Z</time>
      </trkpt>
      <trkpt lat="45.44615" lon="4.93139">
        <ele>293.5</ele>
        <time>2017-03-26T08:58:42Z</time>
      </trkpt>
      <trkpt lat="45.44623" lon="4.93137">
        <ele>294.91</ele>
        <time>2017-03-26T08:58:43Z</time>
      </trkpt>
      <trkpt lat="45.44631" lon="4.93133">
        <ele>296.16</ele>
        <time>2017-03-26T08:58:44Z</time>
      </trkpt>
      <trkpt lat="45.4464" lon="4.93129">
        <ele>297.04</ele>
        <time>2017-03-26T08:58:45Z</time>
      </trkpt>
      <trkpt lat="45.44649" lon="4.93124">
        <ele>297.78</ele>
        <time>2017-03-26T08:58:46Z</time>
      </trkpt>
      <trkpt lat="45.44659" lon="4.93121">
        <ele>297.93</ele>
        <time>2017-03-26T08:58:47Z</time>
      </trkpt>
      <trkpt lat="45.44669" lon="4.93119">
        <ele>298.44</ele>
        <time>2017-03-26T08:58:48Z</time>
      </trkpt>
      <trkpt lat="45.44679" lon="4.93117">
        <ele>299.18</ele>
        <time>2017-03-26T08:58:49Z</time>
      </trkpt>
      <trkpt lat="45.44689" lon="4.93116">
        <ele>299.65</ele>
        <time>2017-03-26T08:58:50Z</time>
      </trkpt>
      <trkpt lat="45.44699" lon="4.93115">
        <ele>300.22</ele>
        <time>2017-03-26T08:58:51Z</time>
      </trkpt>
      <trkpt lat="45.4471" lon="4.93115">
        <ele>300.74</ele>
        <time>2017-03-26T08:58:52Z</time>
      </trkpt>
      <trkpt lat="45.44722" lon="4.93114">
        <ele>301.08</ele>
        <time>2017-03-26T08:58:53Z</time>
      </trkpt>
      <trkpt lat="45.44733" lon="4.93114">
        <ele>301.55</ele>
        <time>2017-03-26T08:58:54Z</time>
      </trkpt>
      <trkpt lat="45.44747" lon="4.93113">
        <ele>301.96</ele>
        <time>2017-03-26T08:58:55Z</time>
      </trkpt>
      <trkpt lat="45.44762" lon="4.93113">
        <ele>302.61</ele>
        <time>2017-03-26T08:58:56Z</time>
      </trkpt>
      <trkpt lat="45.44777" lon="4.93112">
        <ele>303.21</ele>
        <time>2017-03-26T08:58:57Z</time>
      </trkpt>
      <trkpt lat="45.44793" lon="4.93112">
        <ele>303.66</ele>
        <time>2017-03-26T08:58:58Z</time>
      </trkpt>
      <trkpt lat="45.44811" lon="4.93111">
        <ele>304.38</ele>
        <time>2017-03-26T08:58:59Z</time>
      </trkpt>
      <trkpt lat="45.44829" lon="4.93109">
        <ele>305.01</ele>
        <time>2017-03-26T08:59:00Z</time>
      </trkpt>
      <trkpt lat="45.44847" lon="4.93106">
        <ele>305.78</ele>
        <time>2017-03-26T08:59:01Z</time>
      </trkpt>
      <trkpt lat="45.44866" lon="4.93104">
        <ele>306.49</ele>
        <time>2017-03-26T08:59:02Z</time>
      </trkpt>
      <trkpt lat="45.44885" lon="4.93101">
        <ele>307.11</ele>
        <time>2017-03-26T08:59:03Z</time>
      </trkpt>
      <trkpt lat="45.44905" lon="4.93097">
        <ele>307.88</ele>
        <time>2017-03-26T08:59:04Z</time>
      </trkpt>
      <trkpt lat="45.44925" lon="4.93094">
        <ele>308.75</ele>
        <time>2017-03-26T08:59:05Z</time>
      </trkpt>
      <trkpt lat="45.44946" lon="4.9309">
        <ele>309.72</ele>
        <time>2017-03-26T08:59:06Z</time>
      </trkpt>
      <trkpt lat="45.44967" lon="4.93085">
        <ele>311.04</ele>
        <time>2017-03-26T08:59:07Z</time>
      </trkpt>
      <trkpt lat="45.44989" lon="4.93078">
        <ele>312.42</ele>
        <time>2017-03-26T08:59:08Z</time>
      </trkpt>
      <trkpt lat="45.45009" lon="4.93069">
        <ele>313.58</ele>
        <time>2017-03-26T08:59:09Z</time>
      </trkpt>
      <trkpt lat="45.4503" lon="4.93059">
        <ele>314.69</ele>
        <time>2017-03-26T08:59:10Z</time>
      </trkpt>
      <trkpt lat="45.4505" lon="4.93048">
        <ele>315.79</ele>
        <time>2017-03-26T08:59:11Z</time>
      </trkpt>
      <trkpt lat="45.4507" lon="4.93038">
        <ele>316.73</ele>
        <time>2017-03-26T08:59:12Z</time>
      </trkpt>
      <trkpt lat="45.4509" lon="4.93028">
        <ele>317.72</ele>
        <time>2017-03-26T08:59:13Z</time>
      </trkpt>
      <trkpt lat="45.45108" lon="4.93019">
        <ele>318.64</ele>
        <time>2017-03-26T08:59:14Z</time>
      </trkpt>
      <trkpt lat="45.45127" lon="4.93012">
        <ele>319.54</ele>
        <time>2017-03-26T08:59:15Z</time>
      </trkpt>
      <trkpt lat="45.45146" lon="4.93007">
        <ele>320.68</ele>
        <time>2017-03-26T08:59:16Z</time>
      </trkpt>
      <trkpt lat="45.45164" lon="4.93007">
        <ele>321.79</ele>
        <time>2017-03-26T08:59:17Z</time>
      </trkpt>
      <trkpt lat="45.45184" lon="4.93011">
        <ele>323.05</ele>
        <time>2017-03-26T08:59:18Z</time>
      </trkpt>
      <trkpt lat="45.45203" lon="4.93018">
        <ele>324.34</ele>
        <time>2017-03-26T08:59:19Z</time>
      </trkpt>
      <trkpt lat="45.45223" lon="4.93028">
        <ele>325.48</ele>
        <time>2017-03-26T08:59:20Z</time>
      </trkpt>
      <trkpt lat="45.45243" lon="4.93038">
        <ele>326.67</ele>
        <time>2017-03-26T08:59:21Z</time>
      </trkpt>
      <trkpt lat="45.45261" lon="4.9305">
        <ele>327.63</ele>
        <time>2017-03-26T08:59:22Z</time>
      </trkpt>
      <trkpt lat="45.45277" lon="4.93062">
        <ele>328.22</ele>
        <time>2017-03-26T08:59:23Z</time>
      </trkpt>
      <trkpt lat="45.45292" lon="4.93076">
        <ele>328.98</ele>
        <time>2017-03-26T08:59:24Z</time>
      </trkpt>
      <trkpt lat="45.45305" lon="4.93093">
        <ele>329.61</ele>
        <time>2017-03-26T08:59:25Z</time>
      </trkpt>
      <trkpt lat="45.45317" lon="4.93112">
        <ele>330.46</ele>
        <time>2017-03-26T08:59:26Z</time>
      </trkpt>
      <trkpt lat="45.45328" lon="4.93133">
        <ele>331.34</ele>
        <time>2017-03-26T08:59:27Z</time>
      </trkpt>
      <trkpt lat="45.45339" lon="4.93153">
        <ele>332.24</ele>
        <time>2017-03-26T08:59:28Z</time>
      </trkpt>
      <trkpt lat="45.45351" lon="4.93172">
        <ele>333.14</ele>
        <time>2017-03-26T08:59:29Z</time>
      </trkpt>
      <trkpt lat="45.45366" lon="4.93188">
        <ele>334.2</ele>
        <time>2017-03-26T08:59:30Z</time>
      </trkpt>
      <trkpt lat="45.45382" lon="4.93203">
        <ele>335.05</ele>
        <time>2017-03-26T08:59:31Z</time>
      </trkpt>
      <trkpt lat="45.45398" lon="4.93218">
        <ele>335.78</ele>
        <time>2017-03-26T08:59:32Z</time>
      </trkpt>
      <trkpt lat="45.45415" lon="4.93232">
        <ele>336.57</ele>
        <time>2017-03-26T08:59:33Z</time>
      </trkpt>
      <trkpt lat="45.45431" lon="4.93244">
        <ele>337.29</ele>
        <time>2017-03-26T08:59:34Z</time>
      </trkpt>
      <trkpt lat="45.4545" lon="4.93255">
        <ele>338.15</ele>
        <time>2017-03-26T08:59:35Z</time>
      </trkpt>
      <trkpt lat="45.45468" lon="4.93266">
        <ele>338.72</ele>
        <time>2017-03-26T08:59:36Z</time>
      </trkpt>
      <trkpt lat="45.45484" lon="4.93277">
        <ele>339.16</ele>
        <time>2017-03-26T08:59:37Z</time>
      </trkpt>
      <trkpt lat="45.45501" lon="4.93288">
        <ele>339.65</ele>
        <time>2017-03-26T08:59:38Z</time>
      </trkpt>
      <trkpt lat="45.45518" lon="4.93297">
        <ele>340.22</ele>
        <time>2017-03-26T08:59:39Z</time>
      </trkpt>
      <trkpt lat="45.45537" lon="4.93305">
        <ele>340.98</ele>
        <time>2017-03-26T08:59:40Z</time>
      </trkpt>
      <trkpt lat="45.45556" lon="4.93312">
        <ele>341.53</ele>
        <time>2017-03-26T08:59:41Z</time>
      </trkpt>
      <trkpt lat="45.45575" lon="4.93318">
        <ele>342.04</ele>
        <time>2017-03-26T08:59:42Z</time>
      </trkpt>
      <trkpt lat="45.45595" lon="4.93323">
        <ele>342.46</ele>
        <time>2017-03-26T08:59:43Z</time>
      </trkpt>
      <trkpt lat="45.45616" lon="4.9333">
        <ele>342.95</ele>
        <time>2017-03-26T08:59:44Z</time>
      </trkpt>
      <trkpt lat="45.45635" lon="4.93336">
        <ele>343.44</ele>
        <time>2017-03-26T08:59:45Z</time>
      </trkpt>
      <trkpt lat="45.45654" lon="4.93341">
        <ele>344.02</ele>
        <time>2017-03-26T08:59:46Z</time>
      </trkpt>
      <trkpt lat="45.45673" lon="4.93345">
        <ele>344.54</ele>
        <time>2017-03-26T08:59:47Z</time>
      </trkpt>
      <trkpt lat="45.45693" lon="4.93346">
        <ele>345.2</ele>
        <time>2017-03-26T08:59:48Z</time>
      </trkpt>
      <trkpt lat="45.45712" lon="4.93345">
        <ele>345.89</ele>
        <time>2017-03-26T08:59:49Z</time>
      </trkpt>
      <trkpt lat="45.45731" lon="4.93342">
        <ele>346.59</ele>
        <time>2017-03-26T08:59:50Z</time>
      </trkpt>
      <trkpt lat="45.45751" lon="4.93337">
        <ele>347.21</ele>
        <time>2017-03-26T08:59:51Z</time>
      </trkpt>
      <trkpt lat="45.4577" lon="4.9333">
        <ele>347.82</ele>
        <time>2017-03-26T08:59:52Z</time>
      </trkpt>
      <trkpt lat="45.4579" lon="4.93323">
        <ele>348.34</ele>
        <time>2017-03-26T08:59:53Z</time>
      </trkpt>
      <trkpt lat="45.4581" lon="4.93316">
        <ele>348.76</ele>
        <time>2017-03-26T08:59:54Z</time>
      </trkpt>
      <trkpt lat="45.45829" lon="4.93311">
        <ele>349.33</ele>
        <time>2017-03-26T08:59:55Z</time>
      </trkpt>
      <trkpt lat="45.45849" lon="4.93307">
        <ele>349.92</ele>
        <time>2017-03-26T08:59:56Z</time>
      </trkpt>
      <trkpt lat="45.45869" lon="4.93305">
        <ele>350.52</ele>
        <time>2017-03-26T08:59:57Z</time>
      </trkpt>
      <trkpt lat="45.45889" lon="4.93304">
        <ele>351.12</ele>
        <time>2017-03-26T08:59:58Z</time>
      </trkpt>
      <trkpt lat="45.45908" lon="4.93304">
        <ele>351.56</ele>
        <time>2017-03-26T08:59:59Z</time>
      </trkpt>
      <trkpt lat="45.45927" lon="4.93305">
        <ele>351.96</ele>
        <time>2017-03-26T09:00:00Z</time>
      </trkpt>
      <trkpt lat="45.45944" lon="4.93305">
        <ele>352.45</ele>
        <time>2017-03-26T09:00:01Z</time>
      </trkpt>
      <trkpt lat="45.4596" lon="4.93306">
        <ele>352.94</ele>
        <time>2017-03-26T09:00:02Z</time>
      </trkpt>
      <trkpt lat="45.45977" lon="4.93305">
        <ele>353.76</ele>
        <time>2017-03-26T09:00:03Z</time>
      </trkpt>
      <trkpt lat="45.45992" lon="4.93303">
        <ele>354.65</ele>
        <time>2017-03-26T09:00:04Z</time>
      </trkpt>
      <trkpt lat="45.46006" lon="4.93298">
        <ele>355.62</ele>
        <time>2017-03-26T09:00:05Z</time>
      </trkpt>
      <trkpt lat="45.46019" lon="4.93287">
        <ele>356.46</ele>
        <time>2017-03-26T09:00:06Z</time>
      </trkpt>
      <trkpt lat="45.46033" lon="4.93275">
        <ele>357.27</ele>
        <time>2017-03-26T09:00:07Z</time>
      </trkpt>
      <trkpt lat="45.46048" lon="4.93263">
        <ele>357.83</ele>
        <time>2017-03-26T09:00:08Z</time>
      </trkpt>
      <trkpt lat="45.46063" lon="4.9325">
        <ele>358.66</ele>
        <time>2017-03-26T09:00:09Z</time>
      </trkpt>
      <trkpt lat="45.46079" lon="4.93239">
        <ele>359.79</ele>
        <time>2017-03-26T09:00:10Z</time>
      </trkpt>
      <trkpt lat="45.46095" lon="4.93229">
        <ele>360.49</ele>
        <time>2017-03-26T09:00:11Z</time>
      </trkpt>
      <trkpt lat="45.46113" lon="4.93219">
        <ele>360.63</ele>
        <time>2017-03-26T09:00:12Z</time>
      </trkpt>
      <trkpt lat="45.46131" lon="4.9321">
        <ele>360.1</ele>
        <time>2017-03-26T09:00:13Z</time>
      </trkpt>
      <trkpt lat="45.46149" lon="4.93201">
        <ele>359.51</ele>
        <time>2017-03-26T09:00:14Z</time>
      </trkpt>
      <trkpt lat="45.46167" lon="4.93191">
        <ele>358.84</ele>
        <time>2017-03-26T09:00:15Z</time>
      </trkpt>
      <trkpt lat="45.46185" lon="4.93181">
        <ele>358.14</ele>
        <time>2017-03-26T09:00:16Z</time>
      </trkpt>
      <trkpt lat="45.46201" lon="4.93172">
        <ele>357.76</ele>
        <time>2017-03-26T09:00:17Z</time>
      </trkpt>
      <trkpt lat="45.46217" lon="4.93161">
        <ele>357.21</ele>
        <time>2017-03-26T09:00:18Z</time>
      </trkpt>
      <trkpt lat="45.46233" lon="4.93148">
        <ele>356.37</ele>
        <time>2017-03-26T09:00:19Z</time>
      </trkpt>
      <trkpt lat="45.46248" lon="4.93135">
        <ele>355.33</ele>
        <time>2017-03-26T09:00:20Z</time>
      </trkpt>
      <trkpt lat="45.46262" lon="4.93121">
        <ele>354.48</ele>
        <time>2017-03-26T09:00:21Z</time>
      </trkpt>
      <trkpt lat="45.46276" lon="4.93107">
        <ele>354.15</ele>
        <time>2017-03-26T09:00:22Z</time>
      </trkpt>
      <trkpt lat="45.46289" lon="4.93092">
        <ele>353.76</ele>
        <time>2017-03-26T09:00:23Z</time>
      </trkpt>
      <trkpt lat="45.46302" lon="4.93078">
        <ele>353.21</ele>
        <time>2017-03-26T09:00:24Z</time>
      </trkpt>
      <trkpt lat="45.46314" lon="4.93065">
        <ele>352.85</ele>
        <time>2017-03-26T09:00:25Z</time>
      </trkpt>
      <trkpt lat="45.46324" lon="4.93052">
        <ele>352.54</ele>
        <time>2017-03-26T09:00:26Z</time>
      </trkpt>
      <trkpt lat="45.46332" lon="4.9304">
        <ele>352.4</ele>
        <time>2017-03-26T09:00:27Z</time>
      </trkpt>
      <trkpt lat="45.46337" lon="4.9303">
        <ele>352.29</ele>
        <time>2017-03-26T09:00:28Z</time>
      </trkpt>
      <trkpt lat="45.46341" lon="4.93021">
        <ele>352.11</ele>
        <time>2017-03-26T09:00:29Z</time>
      </trkpt>
      <trkpt lat="45.46344" lon="4.93015">
        <ele>351.92</ele>
        <time>2017-03-26T09:00:30Z</time>
      </trkpt>
      <trkpt lat="45.46345" lon="4.93011">
        <ele>351.56</ele>
        <time>2017-03-26T09:00:31Z</time>
      </trkpt>
      <trkpt lat="45.46346" lon="4.93008">
        <ele>351.32</ele>
        <time>2017-03-26T09:00:32Z</time>
      </trkpt>
      <trkpt lat="45.46346" lon="4.93007">
        <ele>351.28</ele>
        <time>2017-03-26T09:00:33Z</time>
      </trkpt>
      <trkpt lat="45.46346" lon="4.93008">
        <ele>351.51</ele>
        <time>2017-03-26T09:00:34Z</time>
      </trkpt>
      <trkpt lat="45.46345" lon="4.93008">
        <ele>351.96</ele>
        <time>2017-03-26T09:00:35Z</time>
      </trkpt>
      <trkpt lat="45.46345" lon="4.93008">
        <ele>352.04</ele>
        <time>2017-03-26T09:00:36Z</time>
      </trkpt>
      <trkpt lat="45.46345" lon="4.93008">
        <ele>352.06</ele>
        <time>2017-03-26T09:00:37Z</time>
      </trkpt>
      <trkpt lat="45.46345" lon="4.93008">
        <ele>352.07</ele>
        <time>2017-03-26T09:00:38Z</time>
      </trkpt>
      <trkpt lat="45.46345" lon="4.93008">
        <ele>352.07</ele>
        <time>2017-03-26T09:00:39Z</time>
      </trkpt>
      <trkpt lat="45.46345" lon="4.93008">
        <ele>352.07</ele>
        <time>2017-03-26T09:00:40Z</time>
      </trkpt>
      <trkpt lat="45.46345" lon="4.93008">
        <ele>352.07</ele>
        <time>2017-03-26T09:00:41Z</time>
      </trkpt>
      <trkpt lat="45.46345" lon="4.93008">
        <ele>352.07</ele>
        <time>2017-03-26T09:00:42Z</time>
      </trkpt>
      <trkpt lat="45.46345" lon="4.93008">
        <ele>352.07</ele>
        <time>2017-03-26T09:00:43Z</time>
      </trkpt>
      <trkpt lat="45.46345" lon="4.93008">
        <ele>352.07</ele>
        <time>2017-03-26T09:00:44Z</time>
      </trkpt>
      <trkpt lat="45.46345" lon="4.93008">
        <ele>352.07</ele>
        <time>2017-03-26T09:00:45Z</time>
      </trkpt>
      <trkpt lat="45.46345" lon="4.93008">
        <ele>352.07</ele>
        <time>2017-03-26T09:00:46Z</time>
      </trkpt>
      <trkpt lat="45.46345" lon="4.93008">
        <ele>352.07</ele>
        <time>2017-03-26T09:00:47Z</time>
      </trkpt>
      <trkpt lat="45.46345" lon="4.93008">
        <ele>352.07</ele>
        <time>2017-03-26T09:00:48Z</time>
      </trkpt>
      <trkpt lat="45.46345" lon="4.93008">
        <ele>352.07</ele>
        <time>2017-03-26T09:00:49Z</time>
      </trkpt>
      <trkpt lat="45.46345" lon="4.93008">
        <ele>352.07</ele>
        <time>2017-03-26T09:00:50Z</time>
      </trkpt>
      <trkpt lat="45.46345" lon="4.93008">
        <ele>352.07</ele>
        <time>2017-03-26T09:00:51Z</time>
      </trkpt>
      <trkpt lat="45.46345" lon="4.93002">
        <ele>352.63</ele>
        <time>2017-03-26T09:00:52Z</time>
      </trkpt>
      <trkpt lat="45.46345" lon="4.92996">
        <ele>352.58</ele>
        <time>2017-03-26T09:00:53Z</time>
      </trkpt>
      <trkpt lat="45.46347" lon="4.92987">
        <ele>352.49</ele>
        <time>2017-03-26T09:00:54Z</time>
      </trkpt>
      <trkpt lat="45.4635" lon="4.92976">
        <ele>352.39</ele>
        <time>2017-03-26T09:00:55Z</time>
      </trkpt>
      <trkpt lat="45.46354" lon="4.92963">
        <ele>352.13</ele>
        <time>2017-03-26T09:00:56Z</time>
      </trkpt>
      <trkpt lat="45.46359" lon="4.92948">
        <ele>351.92</ele>
        <time>2017-03-26T09:00:57Z</time>
      </trkpt>
      <trkpt lat="45.46363" lon="4.92932">
        <ele>351.56</ele>
        <time>2017-03-26T09:00:58Z</time>
      </trkpt>
      <trkpt lat="45.46369" lon="4.92915">
        <ele>351.09</ele>
        <time>2017-03-26T09:00:59Z</time>
      </trkpt>
      <trkpt lat="45.46374" lon="4.92897">
        <ele>350.59</ele>
        <time>2017-03-26T09:01:00Z</time>
      </trkpt>
      <trkpt lat="45.4638" lon="4.92879">
        <ele>350.17</ele>
        <time>2017-03-26T09:01:01Z</time>
      </trkpt>
      <trkpt lat="45.46387" lon="4.92861">
        <ele>349.61</ele>
        <time>2017-03-26T09:01:02Z</time>
      </trkpt>
      <trkpt lat="45.46395" lon="4.92843">
        <ele>349.02</ele>
        <time>2017-03-26T09:01:03Z</time>
      </trkpt>
      <trkpt lat="45.46404" lon="4.92825">
        <ele>348.42</ele>
        <time>2017-03-26T09:01:04Z</time>
      </trkpt>
      <trkpt lat="45.46414" lon="4.92808">
        <ele>347.82</ele>
        <time>2017-03-26T09:01:05Z</time>
      </trkpt>
      <trkpt lat="45.46425" lon="4.92791">
        <ele>347.22</ele>
        <time>2017-03-26T09:01:06Z</time>
      </trkpt>
      <trkpt lat="45.46436" lon="4.92774">
        <ele>346.78</ele>
        <time>2017-03-26T09:01:07Z</time>
      </trkpt>
      <trkpt lat="45.46447" lon="4.92757">
        <ele>346.37</ele>
        <time>2017-03-26T09:01:08Z</time>
      </trkpt>
      <trkpt lat="45.46458" lon="4.92739">
        <ele>346.13</ele>
        <time>2017-03-26T09:01:09Z</time>
      </trkpt>
      <trkpt lat="45.46469" lon="4.92721">
        <ele>345.76</ele>
        <time>2017-03-26T09:01:10Z</time>
      </trkpt>
      <trkpt lat="45.46481" lon="4.92703">
        <ele>345.53</ele>
        <time>2017-03-26T09:01:11Z</time>
      </trkpt>
      <trkpt lat="45.46493" lon="4.92685">
        <ele>345.24</ele>
        <time>2017-03-26T09:01:12Z</time>
      </trkpt>
      <trkpt lat="45.46505" lon="4.92666">
        <ele>344.78</ele>
        <time>2017-03-26T09:01:13Z</time>
      </trkpt>
      <trkpt lat="45.46518" lon="4.92648">
        <ele>344.29</ele>
        <time>2017-03-26T09:01:14Z</time>
      </trkpt>
      <trkpt lat="45.46531" lon="4.9263">
        <ele>343.95</ele>
        <time>2017-03-26T09:01:15Z</time>
      </trkpt>
      <trkpt lat="45.46544" lon="4.92613">
        <ele>343.64</ele>
        <time>2017-03-26T09:01:16Z</time>
      </trkpt>
      <trkpt lat="45.46559" lon="4.92597">
        <ele>343.5</ele>
        <time>2017-03-26T09:01:17Z</time>
      </trkpt>
      <trkpt lat="45.46574" lon="4.92583">
        <ele>343.47</ele>
        <time>2017-03-26T09:01:18Z</time>
      </trkpt>
      <trkpt lat="45.4659" lon="4.92569">
        <ele>343.39</ele>
        <time>2017-03-26T09:01:19Z</time>
      </trkpt>
      <trkpt lat="45.46606" lon="4.92554">
        <ele>343.21</ele>
        <time>2017-03-26T09:01:20Z</time>
      </trkpt>
      <trkpt lat="45.46622" lon="4.92541">
        <ele>343.02</ele>
        <time>2017-03-26T09:01:21Z</time>
      </trkpt>
      <trkpt lat="45.46639" lon="4.92528">
        <ele>343.14</ele>
        <time>2017-03-26T09:01:22Z</time>
      </trkpt>
      <trkpt lat="45.46656" lon="4.92516">
        <ele>343.16</ele>
        <time>2017-03-26T09:01:23Z</time>
      </trkpt>
      <trkpt lat="45.46674" lon="4.92505">
        <ele>343.41</ele>
        <time>2017-03-26T09:01:24Z</time>
      </trkpt>
      <trkpt lat="45.46692" lon="4.92495">
        <ele>343.37</ele>
        <time>2017-03-26T09:01:25Z</time>
      </trkpt>
      <trkpt lat="45.46709" lon="4.92486">
        <ele>343.45</ele>
        <time>2017-03-26T09:01:26Z</time>
      </trkpt>
      <trkpt lat="45.46727" lon="4.92477">
        <ele>343.54</ele>
        <time>2017-03-26T09:01:27Z</time>
      </trkpt>
      <trkpt lat="45.46745" lon="4.92469">
        <ele>343.56</ele>
        <time>2017-03-26T09:01:28Z</time>
      </trkpt>
      <trkpt lat="45.46762" lon="4.9246">
        <ele>343.89</ele>
        <time>2017-03-26T09:01:29Z</time>
      </trkpt>
      <trkpt lat="45.4678" lon="4.92452">
        <ele>344.27</ele>
        <time>2017-03-26T09:01:30Z</time>
      </trkpt>
      <trkpt lat="45.46798" lon="4.92442">
        <ele>344.75</ele>
        <time>2017-03-26T09:01:31Z</time>
      </trkpt>
      <trkpt lat="45.46815" lon="4.92432">
        <ele>345</ele>
        <time>2017-03-26T09:01:32Z</time>
      </trkpt>
      <trkpt lat="45.46832" lon="4.92421">
        <ele>345.13</ele>
        <time>2017-03-26T09:01:33Z</time>
      </trkpt>
      <trkpt lat="45.46849" lon="4.92409">
        <ele>345.32</ele>
        <time>2017-03-26T09:01:34Z</time>
      </trkpt>
      <trkpt lat="45.46867" lon="4.92398">
        <ele>345.6</ele>
        <time>2017-03-26T09:01:35Z</time>
      </trkpt>
      <trkpt lat="45.46884" lon="4.92387">
        <ele>345.97</ele>
        <time>2017-03-26T09:01:36Z</time>
      </trkpt>
      <trkpt lat="45.46902" lon="4.92377">
        <ele>346.29</ele>
        <time>2017-03-26T09:01:37Z</time>
      </trkpt>
      <trkpt lat="45.46921" lon="4.9237">
        <ele>347.15</ele>
        <time>2017-03-26T09:01:38Z</time>
      </trkpt>
      <trkpt lat="45.46939" lon="4.92365">
        <ele>347.88</ele>
        <time>2017-03-26T09:01:39Z</time>
      </trkpt>
      <trkpt lat="45.46959" lon="4.92362">
        <ele>348.59</ele>
        <time>2017-03-26T09:01:40Z</time>
      </trkpt>
      <trkpt lat="45.46978" lon="4.92361">
        <ele>349.45</ele>
        <time>2017-03-26T09:01:41Z</time>
      </trkpt>
      <trkpt lat="45.46997" lon="4.92361">
        <ele>350.26</ele>
        <time>2017-03-26T09:01:42Z</time>
      </trkpt>
      <trkpt lat="45.47018" lon="4.92363">
        <ele>351.07</ele>
        <time>2017-03-26T09:01:43Z</time>
      </trkpt>
      <trkpt lat="45.47037" lon="4.92363">
        <ele>351.71</ele>
        <time>2017-03-26T09:01:44Z</time>
      </trkpt>
      <trkpt lat="45.47057" lon="4.92362">
        <ele>352.23</ele>
        <time>2017-03-26T09:01:45Z</time>
      </trkpt>
      <trkpt lat="45.47076" lon="4.9236">
        <ele>352.5</ele>
        <time>2017-03-26T09:01:46Z</time>
      </trkpt>
      <trkpt lat="45.47095" lon="4.92357">
        <ele>352.79</ele>
        <time>2017-03-26T09:01:47Z</time>
      </trkpt>
      <trkpt lat="45.47114" lon="4.92353">
        <ele>352.93</ele>
        <time>2017-03-26T09:01:48Z</time>
      </trkpt>
      <trkpt lat="45.47134" lon="4.92348">
        <ele>353.12</ele>
        <time>2017-03-26T09:01:49Z</time>
      </trkpt>
      <trkpt lat="45.47153" lon="4.92343">
        <ele>353.32</ele>
        <time>2017-03-26T09:01:50Z</time>
      </trkpt>
      <trkpt lat="45.47172" lon="4.92337">
        <ele>353.2</ele>
        <time>2017-03-26T09:01:51Z</time>
      </trkpt>
      <trkpt lat="45.4719" lon="4.92329">
        <ele>353.33</ele>
        <time>2017-03-26T09:01:52Z</time>
      </trkpt>
      <trkpt lat="45.47208" lon="4.92318">
        <ele>353.44</ele>
        <time>2017-03-26T09:01:53Z</time>
      </trkpt>
      <trkpt lat="45.47226" lon="4.92305">
        <ele>353.62</ele>
        <time>2017-03-26T09:01:54Z</time>
      </trkpt>
      <trkpt lat="45.47244" lon="4.9229">
        <ele>353.58</ele>
        <time>2017-03-26T09:01:55Z</time>
      </trkpt>
      <trkpt lat="45.47262" lon="4.92276">
        <ele>353.81</ele>
        <time>2017-03-26T09:01:56Z</time>
      </trkpt>
      <trkpt lat="45.4728" lon="4.92261">
        <ele>353.78</ele>
        <time>2017-03-26T09:01:57Z</time>
      </trkpt>
      <trkpt lat="45.47297" lon="4.92246">
        <ele>353.53</ele>
        <time>2017-03-26T09:01:58Z</time>
      </trkpt>
      <trkpt lat="45.47315" lon="4.92231">
        <ele>353.16</ele>
        <time>2017-03-26T09:01:59Z</time>
      </trkpt>
      <trkpt lat="45.47332" lon="4.92217">
        <ele>352.93</ele>
        <time>2017-03-26T09:02:00Z</time>
      </trkpt>
      <trkpt lat="45.4735" lon="4.92202">
        <ele>352.72</ele>
        <time>2017-03-26T09:02:01Z</time>
      </trkpt>
      <trkpt lat="45.47367" lon="4.92187">
        <ele>352.92</ele>
        <time>2017-03-26T09:02:02Z</time>
      </trkpt>
      <trkpt lat="45.47385" lon="4.92173">
        <ele>353.2</ele>
        <time>2017-03-26T09:02:03Z</time>
      </trkpt>
      <trkpt lat="45.47402" lon="4.92159">
        <ele>353.49</ele>
        <time>2017-03-26T09:02:04Z</time>
      </trkpt>
      <trkpt lat="45.47419" lon="4.92146">
        <ele>353.95</ele>
        <time>2017-03-26T09:02:05Z</time>
      </trkpt>
      <trkpt lat="45.47436" lon="4.92133">
        <ele>354.2</ele>
        <time>2017-03-26T09:02:06Z</time>
      </trkpt>
      <trkpt lat="45.47452" lon="4.9212">
        <ele>354.33</ele>
        <time>2017-03-26T09:02:07Z</time>
      </trkpt>
      <trkpt lat="45.47468" lon="4.92108">
        <ele>353.88</ele>
        <time>2017-03-26T09:02:08Z</time>
      </trkpt>
      <trkpt lat="45.47484" lon="4.92094">
        <ele>352.99</ele>
        <time>2017-03-26T09:02:09Z</time>
      </trkpt>
      <trkpt lat="45.475" lon="4.92081">
        <ele>352.41</ele>
        <time>2017-03-26T09:02:10Z</time>
      </trkpt>
      <trkpt lat="45.47514" lon="4.92069">
        <ele>351.82</ele>
        <time>2017-03-26T09:02:11Z</time>
      </trkpt>
      <trkpt lat="45.47528" lon="4.92058">
        <ele>351.78</ele>
        <time>2017-03-26T09:02:12Z</time>
      </trkpt>
      <trkpt lat="45.4754" lon="4.92044">
        <ele>351.53</ele>
        <time>2017-03-26T09:02:13Z</time>
      </trkpt>
      <trkpt lat="45.47551" lon="4.92027">
        <ele>351.16</ele>
        <time>2017-03-26T09:02:14Z</time>
      </trkpt>
      <trkpt lat="45.47558" lon="4.92007">
        <ele>351.17</ele>
        <time>2017-03-26T09:02:15Z</time>
      </trkpt>
      <trkpt lat="45.47562" lon="4.91983">
        <ele>350.61</ele>
        <time>2017-03-26T09:02:16Z</time>
      </trkpt>
      <trkpt lat="45.47566" lon="4.91958">
        <ele>349.69</ele>
        <time>2017-03-26T09:02:17Z</time>
      </trkpt>
      <trkpt lat="45.4757" lon="4.91932">
        <ele>348.95</ele>
        <time>2017-03-26T09:02:18Z</time>
      </trkpt>
      <trkpt lat="45.47574" lon="4.91907">
        <ele>348.16</ele>
        <time>2017-03-26T09:02:19Z</time>
      </trkpt>
      <trkpt lat="45.47579" lon="4.91882">
        <ele>347.21</ele>
        <time>2017-03-26T09:02:20Z</time>
      </trkpt>
      <trkpt lat="45.47583" lon="4.91857">
        <ele>346.21</ele>
        <time>2017-03-26T09:02:21Z</time>
      </trkpt>
      <trkpt lat="45.47587" lon="4.91832">
        <ele>345.3</ele>
        <time>2017-03-26T09:02:22Z</time>
      </trkpt>
      <trkpt lat="45.47591" lon="4.91806">
        <ele>344.31</ele>
        <time>2017-03-26T09:02:23Z</time>
      </trkpt>
      <trkpt lat="45.47595" lon="4.9178">
        <ele>343.48</ele>
        <time>2017-03-26T09:02:24Z</time>
      </trkpt>
      <trkpt lat="45.47599" lon="4.91754">
        <ele>342.43</ele>
        <time>2017-03-26T09:02:25Z</time>
      </trkpt>
      <trkpt lat="45.47602" lon="4.91727">
        <ele>341.18</ele>
        <time>2017-03-26T09:02:26Z</time>
      </trkpt>
      <trkpt lat="45.47606" lon="4.917">
        <ele>339.97</ele>
        <time>2017-03-26T09:02:27Z</time>
      </trkpt>
      <trkpt lat="45.4761" lon="4.91672">
        <ele>338.85</ele>
        <time>2017-03-26T09:02:28Z</time>
      </trkpt>
      <trkpt lat="45.47614" lon="4.91645">
        <ele>337.74</ele>
        <time>2017-03-26T09:02:29Z</time>
      </trkpt>
      <trkpt lat="45.47618" lon="4.91617">
        <ele>336.64</ele>
        <time>2017-03-26T09:02:30Z</time>
      </trkpt>
      <trkpt lat="45.47621" lon="4.9159">
        <ele>335.78</ele>
        <time>2017-03-26T09:02:31Z</time>
      </trkpt>
      <trkpt lat="45.47625" lon="4.91562">
        <ele>335.21</ele>
        <time>2017-03-26T09:02:32Z</time>
      </trkpt>
      <trkpt lat="45.47629" lon="4.91535">
        <ele>334.78</ele>
        <time>2017-03-26T09:02:33Z</time>
      </trkpt>
      <trkpt lat="45.47634" lon="4.91507">
        <ele>334.61</ele>
        <time>2017-03-26T09:02:34Z</time>
      </trkpt>
      <trkpt lat="45.4764" lon="4.91479">
        <ele>335.38</ele>
        <time>2017-03-26T09:02:35Z</time>
      </trkpt>
      <trkpt lat="45.47644" lon="4.91452">
        <ele>335.45</ele>
        <time>2017-03-26T09:02:36Z</time>
      </trkpt>
      <trkpt lat="45.47649" lon="4.91425">
        <ele>335.86</ele>
        <time>2017-03-26T09:02:37Z</time>
      </trkpt>
      <trkpt lat="45.47653" lon="4.91398">
        <ele>335.95</ele>
        <time>2017-03-26T09:02:38Z</time>
      </trkpt>
      <trkpt lat="45.47658" lon="4.91372">
        <ele>336.28</ele>
        <time>2017-03-26T09:02:39Z</time>
      </trkpt>
      <trkpt lat="45.47662" lon="4.91346">
        <ele>336.59</ele>
        <time>2017-03-26T09:02:40Z</time>
      </trkpt>
      <trkpt lat="45.47667" lon="4.9132">
        <ele>337.13</ele>
        <time>2017-03-26T09:02:41Z</time>
      </trkpt>
      <trkpt lat="45.47672" lon="4.91295">
        <ele>336.84</ele>
        <time>2017-03-26T09:02:42Z</time>
      </trkpt>
      <trkpt lat="45.47677" lon="4.91271">
        <ele>336.06</ele>
        <time>2017-03-26T09:02:43Z</time>
      </trkpt>
      <trkpt lat="45.47681" lon="4.91247">
        <ele>335.19</ele>
        <time>2017-03-26T09:02:44Z</time>
      </trkpt>
      <trkpt lat="45.47685" lon="4.91223">
        <ele>333.97</ele>
        <time>2017-03-26T09:02:45Z</time>
      </trkpt>
      <trkpt lat="45.47689" lon="4.91199">
        <ele>332.85</ele>
        <time>2017-03-26T09:02:46Z</time>
      </trkpt>
      <trkpt lat="45.47693" lon="4.91173">
        <ele>331.58</ele>
        <time>2017-03-26T09:02:47Z</time>
      </trkpt>
      <trkpt lat="45.47696" lon="4.91148">
        <ele>330.45</ele>
        <time>2017-03-26T09:02:48Z</time>
      </trkpt>
      <trkpt lat="45.477" lon="4.91121">
        <ele>329.58</ele>
        <time>2017-03-26T09:02:49Z</time>
      </trkpt>
      <trkpt lat="45.47704" lon="4.91094">
        <ele>328.85</ele>
        <time>2017-03-26T09:02:50Z</time>
      </trkpt>
      <trkpt lat="45.47709" lon="4.91067">
        <ele>328.22</ele>
        <time>2017-03-26T09:02:51Z</time>
      </trkpt>
      <trkpt lat="45.47714" lon="4.91039">
        <ele>328.5</ele>
        <time>2017-03-26T09:02:52Z</time>
      </trkpt>
      <trkpt lat="45.47719" lon="4.91011">
        <ele>328.71</ele>
        <time>2017-03-26T09:02:53Z</time>
      </trkpt>
      <trkpt lat="45.47724" lon="4.90983">
        <ele>329.32</ele>
        <time>2017-03-26T09:02:54Z</time>
      </trkpt>
      <trkpt lat="45.4773" lon="4.90954">
        <ele>330.32</ele>
        <time>2017-03-26T09:02:55Z</time>
      </trkpt>
      <trkpt lat="45.47735" lon="4.90925">
        <ele>331.08</ele>
        <time>2017-03-26T09:02:56Z</time>
      </trkpt>
      <trkpt lat="45.4774" lon="4.90896">
        <ele>332.11</ele>
        <time>2017-03-26T09:02:57Z</time>
      </trkpt>
      <trkpt lat="45.47745" lon="4.90866">
        <ele>333.52</ele>
        <time>2017-03-26T09:02:58Z</time>
      </trkpt>
      <trkpt lat="45.47751" lon="4.90838">
        <ele>334.68</ele>
        <time>2017-03-26T09:02:59Z</time>
      </trkpt>
      <trkpt lat="45.47756" lon="4.90809">
        <ele>335.23</ele>
        <time>2017-03-26T09:03:00Z</time>
      </trkpt>
      <trkpt lat="45.47762" lon="4.90781">
        <ele>335.26</ele>
        <time>2017-03-26T09:03:01Z</time>
      </trkpt>
      <trkpt lat="45.47767" lon="4.90752">
        <ele>335.27</ele>
        <time>2017-03-26T09:03:02Z</time>
      </trkpt>
      <trkpt lat="45.47772" lon="4.90724">
        <ele>335.59</ele>
        <time>2017-03-26T09:03:03Z</time>
      </trkpt>
      <trkpt lat="45.47778" lon="4.90695">
        <ele>335.97</ele>
        <time>2017-03-26T09:03:04Z</time>
      </trkpt>
      <trkpt lat="45.47783" lon="4.90667">
        <ele>336.61</ele>
        <time>2017-03-26T09:03:05Z</time>
      </trkpt>
      <trkpt lat="45.47788" lon="4.90641">
        <ele>337.14</ele>
        <time>2017-03-26T09:03:06Z</time>
      </trkpt>
      <trkpt lat="45.47793" lon="4.90616">
        <ele>337.48</ele>
        <time>2017-03-26T09:03:07Z</time>
      </trkpt>
      <trkpt lat="45.47797" lon="4.90593">
        <ele>337.63</ele>
        <time>2017-03-26T09:03:08Z</time>
      </trkpt>
      <trkpt lat="45.47801" lon="4.90573">
        <ele>337.66</ele>
        <time>2017-03-26T09:03:09Z</time>
      </trkpt>
      <trkpt lat="45.47805" lon="4.90553">
        <ele>337.51</ele>
        <time>2017-03-26T09:03:10Z</time>
      </trkpt>
      <trkpt lat="45.47809" lon="4.90535">
        <ele>337.47</ele>
        <time>2017-03-26T09:03:11Z</time>
      </trkpt>
      <trkpt lat="45.47812" lon="4.90518">
        <ele>337.87</ele>
        <time>2017-03-26T09:03:12Z</time>
      </trkpt>
      <trkpt lat="45.47815" lon="4.90501">
        <ele>337.95</ele>
        <time>2017-03-26T09:03:13Z</time>
      </trkpt>
      <trkpt lat="45.47818" lon="4.90486">
        <ele>338.2</ele>
        <time>2017-03-26T09:03:14Z</time>
      </trkpt>
      <trkpt lat="45.47821" lon="4.90471">
        <ele>338.49</ele>
        <time>2017-03-26T09:03:15Z</time>
      </trkpt>
      <trkpt lat="45.47824" lon="4.90457">
        <ele>338.55</ele>
        <time>2017-03-26T09:03:16Z</time>
      </trkpt>
      <trkpt lat="45.47827" lon="4.90442">
        <ele>338.64</ele>
        <time>2017-03-26T09:03:17Z</time>
      </trkpt>
      <trkpt lat="45.47829" lon="4.90429">
        <ele>338.66</ele>
        <time>2017-03-26T09:03:18Z</time>
      </trkpt>
      <trkpt lat="45.4783" lon="4.90419">
        <ele>338.83</ele>
        <time>2017-03-26T09:03:19Z</time>
      </trkpt>
      <trkpt lat="45.47832" lon="4.90411">
        <ele>339.26</ele>
        <time>2017-03-26T09:03:20Z</time>
      </trkpt>
      <trkpt lat="45.47833" lon="4.90407">
        <ele>340.07</ele>
        <time>2017-03-26T09:03:21Z</time>
      </trkpt>
      <trkpt lat="45.47834" lon="4.90405">
        <ele>340.63</ele>
        <time>2017-03-26T09:03:22Z</time>
      </trkpt>
      <trkpt lat="45.47836" lon="4.90404">
        <ele>341.54</ele>
        <time>2017-03-26T09:03:23Z</time>
      </trkpt>
      <trkpt lat="45.47836" lon="4.90403">
        <ele>342.44</ele>
        <time>2017-03-26T09:03:24Z</time>
      </trkpt>
      <trkpt lat="45.47837" lon="4.90403">
        <ele>343.26</ele>
        <time>2017-03-26T09:03:25Z</time>
      </trkpt>
      <trkpt lat="45.47837" lon="4.90403">
        <ele>343.43</ele>
        <time>2017-03-26T09:03:26Z</time>
      </trkpt>
      <trkpt lat="45.47837" lon="4.90403">
        <ele>343.46</ele>
        <time>2017-03-26T09:03:27Z</time>
      </trkpt>
      <trkpt lat="45.47837" lon="4.90403">
        <ele>343.47</ele>
        <time>2017-03-26T09:03:28Z</time>
      </trkpt>
      <trkpt lat="45.47837" lon="4.90403">
        <ele>343.47</ele>
        <time>2017-03-26T09:03:29Z</time>
      </trkpt>
      <trkpt lat="45.47837" lon="4.90403">
        <ele>343.47</ele>
        <time>2017-03-26T09:03:30Z</time>
      </trkpt>
      <trkpt lat="45.47837" lon="4.90403">
        <ele>343.47</ele>
        <time>2017-03-26T09:03:31Z</time>
      </trkpt>
      <trkpt lat="45.47837" lon="4.90403">
        <ele>343.47</ele>
        <time>2017-03-26T09:03:32Z</time>
      </trkpt>
      <trkpt lat="45.47837" lon="4.90403">
        <ele>343.47</ele>
        <time>2017-03-26T09:03:33Z</time>
      </trkpt>
      <trkpt lat="45.47837" lon="4.90403">
        <ele>343.47</ele>
        <time>2017-03-26T09:03:34Z</time>
      </trkpt>
      <trkpt lat="45.47837" lon="4.90403">
        <ele>343.47</ele>
        <time>2017-03-26T09:03:35Z</time>
      </trkpt>
      <trkpt lat="45.47836" lon="4.90397">
        <ele>344.11</ele>
        <time>2017-03-26T09:03:36Z</time>
      </trkpt>
      <trkpt lat="45.47836" lon="4.9039">
        <ele>344.23</ele>
        <time>2017-03-26T09:03:37Z</time>
      </trkpt>
      <trkpt lat="45.47837" lon="4.90381">
        <ele>344.18</ele>
        <time>2017-03-26T09:03:38Z</time>
      </trkpt>
      <trkpt lat="45.47838" lon="4.90371">
        <ele>344.17</ele>
        <time>2017-03-26T09:03:39Z</time>
      </trkpt>
      <trkpt lat="45.4784" lon="4.9036">
        <ele>344.09</ele>
        <time>2017-03-26T09:03:40Z</time>
      </trkpt>
      <trkpt lat="45.47841" lon="4.90347">
        <ele>344.23</ele>
        <time>2017-03-26T09:03:41Z</time>
      </trkpt>
      <trkpt lat="45.47843" lon="4.90333">
        <ele>344.26</ele>
        <time>2017-03-26T09:03:42Z</time>
      </trkpt>
      <trkpt lat="45.47846" lon="4.90318">
        <ele>344.59</ele>
        <time>2017-03-26T09:03:43Z</time>
      </trkpt>
      <trkpt lat="45.47848" lon="4.90302">
        <ele>344.57</ele>
        <time>2017-03-26T09:03:44Z</time>
      </trkpt>
      <trkpt lat="45.47851" lon="4.90284">
        <ele>344.57</ele>
        <time>2017-03-26T09:03:45Z</time>
      </trkpt>
      <trkpt lat="45.47854" lon="4.90265">
        <ele>344.41</ele>
        <time>2017-03-26T09:03:46Z</time>
      </trkpt>
      <trkpt lat="45.47858" lon="4.90247">
        <ele>344.38</ele>
        <time>2017-03-26T09:03:47Z</time>
      </trkpt>
      <trkpt lat="45.47862" lon="4.9023">
        <ele>344.21</ele>
        <time>2017-03-26T09:03:48Z</time>
      </trkpt>
      <trkpt lat="45.47868" lon="4.90213">
        <ele>343.86</ele>
        <time>2017-03-26T09:03:49Z</time>
      </trkpt>
      <trkpt lat="45.47875" lon="4.90196">
        <ele>343.46</ele>
        <time>2017-03-26T09:03:50Z</time>
      </trkpt>
      <trkpt lat="45.47882" lon="4.9018">
        <ele>342.91</ele>
        <time>2017-03-26T09:03:51Z</time>
      </trkpt>
      <trkpt lat="45.47889" lon="4.90163">
        <ele>342.39</ele>
        <time>2017-03-26T09:03:52Z</time>
      </trkpt>
      <trkpt lat="45.47897" lon="4.90146">
        <ele>341.97</ele>
        <time>2017-03-26T09:03:53Z</time>
      </trkpt>
      <trkpt lat="45.47904" lon="4.90128">
        <ele>341.57</ele>
        <time>2017-03-26T09:03:54Z</time>
      </trkpt>
      <trkpt lat="45.47911" lon="4.9011">
        <ele>341.17</ele>
        <time>2017-03-26T09:03:55Z</time>
      </trkpt>
      <trkpt lat="45.47919" lon="4.90092">
        <ele>341.01</ele>
        <time>2017-03-26T09:03:56Z</time>
      </trkpt>
      <trkpt lat="45.47927" lon="4.90073">
        <ele>340.74</ele>
        <time>2017-03-26T09:03:57Z</time>
      </trkpt>
      <trkpt lat="45.47936" lon="4.90054">
        <ele>340.6</ele>
        <time>2017-03-26T09:03:58Z</time>
      </trkpt>
      <trkpt lat="45.47945" lon="4.90034">
        <ele>340.25</ele>
        <time>2017-03-26T09:03:59Z</time>
      </trkpt>
      <trkpt lat="45.47954" lon="4.90015">
        <ele>339.78</ele>
        <time>2017-03-26T09:04:00Z</time>
      </trkpt>
      <trkpt lat="45.47963" lon="4.89996">
        <ele>339.37</ele>
        <time>2017-03-26T09:04:01Z</time>
      </trkpt>
      <trkpt lat="45.47972" lon="4.89979">
        <ele>339.05</ele>
        <time>2017-03-26T09:04:02Z</time>
      </trkpt>
      <trkpt lat="45.47983" lon="4.89962">
        <ele>338.98</ele>
        <time>2017-03-26T09:04:03Z</time>
      </trkpt>
      <trkpt lat="45.47997" lon="4.89949">
        <ele>338.97</ele>
        <time>2017-03-26T09:04:04Z</time>
      </trkpt>
      <trkpt lat="45.48013" lon="4.89939">
        <ele>338.81</ele>
        <time>2017-03-26T09:04:05Z</time>
      </trkpt>
      <trkpt lat="45.4803" lon="4.89934">
        <ele>338.7</ele>
        <time>2017-03-26T09:04:06Z</time>
      </trkpt>
      <trkpt lat="45.48048" lon="4.8993">
        <ele>338.83</ele>
        <time>2017-03-26T09:04:07Z</time>
      </trkpt>
      <trkpt lat="45.48067" lon="4.89927">
        <ele>339.02</ele>
        <time>2017-03-26T09:04:08Z</time>
      </trkpt>
      <trkpt lat="45.48086" lon="4.89923">
        <ele>339.46</ele>
        <time>2017-03-26T09:04:09Z</time>
      </trkpt>
      <trkpt lat="45.48106" lon="4.8992">
        <ele>339.95</ele>
        <time>2017-03-26T09:04:10Z</time>
      </trkpt>
      <trkpt lat="45.48125" lon="4.89917">
        <ele>340.28</ele>
        <time>2017-03-26T09:04:11Z</time>
      </trkpt>
      <trkpt lat="45.48143" lon="4.89913">
        <ele>340.75</ele>
        <time>2017-03-26T09:04:12Z</time>
      </trkpt>
      <trkpt lat="45.48162" lon="4.8991">
        <ele>341.16</ele>
        <time>2017-03-26T09:04:13Z</time>
      </trkpt>
      <trkpt lat="45.48181" lon="4.89905">
        <ele>341.57</ele>
        <time>2017-03-26T09:04:14Z</time>
      </trkpt>
      <trkpt lat="45.482" lon="4.89899">
        <ele>341.97</ele>
        <time>2017-03-26T09:04:15Z</time>
      </trkpt>
      <trkpt lat="45.48219" lon="4.89892">
        <ele>342.29</ele>
        <time>2017-03-26T09:04:16Z</time>
      </trkpt>
      <trkpt lat="45.48237" lon="4.89881">
        <ele>342.59</ele>
        <time>2017-03-26T09:04:17Z</time>
      </trkpt>
      <trkpt lat="45.48254" lon="4.89869">
        <ele>343.13</ele>
        <time>2017-03-26T09:04:18Z</time>
      </trkpt>
      <trkpt lat="45.48271" lon="4.89854">
        <ele>343.88</ele>
        <time>2017-03-26T09:04:19Z</time>
      </trkpt>
      <trkpt lat="45.48289" lon="4.8984">
        <ele>344.67</ele>
        <time>2017-03-26T09:04:20Z</time>
      </trkpt>
      <trkpt lat="45.48306" lon="4.89825">
        <ele>345.55</ele>
        <time>2017-03-26T09:04:21Z</time>
      </trkpt>
      <trkpt lat="45.48323" lon="4.89809">
        <ele>346.28</ele>
        <time>2017-03-26T09:04:22Z</time>
      </trkpt>
      <trkpt lat="45.4834" lon="4.89794">
        <ele>346.51</ele>
        <time>2017-03-26T09:04:23Z</time>
      </trkpt>
      <trkpt lat="45.48357" lon="4.89778">
        <ele>346.64</ele>
        <time>2017-03-26T09:04:24Z</time>
      </trkpt>
      <trkpt lat="45.48374" lon="4.89762">
        <ele>346.66</ele>
        <time>2017-03-26T09:04:25Z</time>
      </trkpt>
      <trkpt lat="45.48392" lon="4.89745">
        <ele>346.51</ele>
        <time>2017-03-26T09:04:26Z</time>
      </trkpt>
      <trkpt lat="45.4841" lon="4.89728">
        <ele>346.15</ele>
        <time>2017-03-26T09:04:27Z</time>
      </trkpt>
      <trkpt lat="45.48429" lon="4.89711">
        <ele>346</ele>
        <time>2017-03-26T09:04:28Z</time>
      </trkpt>
      <trkpt lat="45.48447" lon="4.89693">
        <ele>345.89</ele>
        <time>2017-03-26T09:04:29Z</time>
      </trkpt>
      <trkpt lat="45.48466" lon="4.89676">
        <ele>345.87</ele>
        <time>2017-03-26T09:04:30Z</time>
      </trkpt>
      <trkpt lat="45.48485" lon="4.89659">
        <ele>346.27</ele>
        <time>2017-03-26T09:04:31Z</time>
      </trkpt>
      <trkpt lat="45.48503" lon="4.89642">
        <ele>346.51</ele>
        <time>2017-03-26T09:04:32Z</time>
      </trkpt>
      <trkpt lat="45.48521" lon="4.89625">
        <ele>346.64</ele>
        <time>2017-03-26T09:04:33Z</time>
      </trkpt>
      <trkpt lat="45.48539" lon="4.89608">
        <ele>346.58</ele>
        <time>2017-03-26T09:04:34Z</time>
      </trkpt>
      <trkpt lat="45.48557" lon="4.89591">
        <ele>346.57</ele>
        <time>2017-03-26T09:04:35Z</time>
      </trkpt>
      <trkpt lat="45.48575" lon="4.89575">
        <ele>346.57</ele>
        <time>2017-03-26T09:04:36Z</time>
      </trkpt>
      <trkpt lat="45.48593" lon="4.89558">
        <ele>346.65</ele>
        <time>2017-03-26T09:04:37Z</time>
      </trkpt>
      <trkpt lat="45.48612" lon="4.89543">
        <ele>346.58</ele>
        <time>2017-03-26T09:04:38Z</time>
      </trkpt>
      <trkpt lat="45.4863" lon="4.89527">
        <ele>346.89</ele>
        <time>2017-03-26T09:04:39Z</time>
      </trkpt>
      <trkpt lat="45.48646" lon="4.89511">
        <ele>348.23</ele>
        <time>2017-03-26T09:04:40Z</time>
      </trkpt>
      <trkpt lat="45.48663" lon="4.89495">
        <ele>349.22</ele>
        <time>2017-03-26T09:04:41Z</time>
      </trkpt>
      <trkpt lat="45.4868" lon="4.89481">
        <ele>349.74</ele>
        <time>2017-03-26T09:04:42Z</time>
      </trkpt>
      <trkpt lat="45.48696" lon="4.89466">
        <ele>350.08</ele>
        <time>2017-03-26T09:04:43Z</time>
      </trkpt>
      <trkpt lat="45.48712" lon="4.89452">
        <ele>350.15</ele>
        <time>2017-03-26T09:04:44Z</time>
      </trkpt>
      <trkpt lat="45.48729" lon="4.89439">
        <ele>350.16</ele>
        <time>2017-03-26T09:04:45Z</time>
      </trkpt>
      <trkpt lat="45.48746" lon="4.89427">
        <ele>350.25</ele>
        <time>2017-03-26T09:04:46Z</time>
      </trkpt>
      <trkpt lat="45.48765" lon="4.8942">
        <ele>349.78</ele>
        <time>2017-03-26T09:04:47Z</time>
      </trkpt>
      <trkpt lat="45.48784" lon="4.89416">
        <ele>349.45</ele>
        <time>2017-03-26T09:04:48Z</time>
      </trkpt>
      <trkpt lat="45.48805" lon="4.89416">
        <ele>349.06</ele>
        <time>2017-03-26T09:04:49Z</time>
      </trkpt>
      <trkpt lat="45.48826" lon="4.89419">
        <ele>349.31</ele>
        <time>2017-03-26T09:04:50Z</time>
      </trkpt>
      <trkpt lat="45.48848" lon="4.89424">
        <ele>349.75</ele>
        <time>2017-03-26T09:04:51Z</time>
      </trkpt>
      <trkpt lat="45.48869" lon="4.8943">
        <ele>350.24</ele>
        <time>2017-03-26T09:04:52Z</time>
      </trkpt>
      <trkpt lat="45.4889" lon="4.89435">
        <ele>350.1</ele>
        <time>2017-03-26T09:04:53Z</time>
      </trkpt>
      <trkpt lat="45.48908" lon="4.89442">
        <ele>349.99</ele>
        <time>2017-03-26T09:04:54Z</time>
      </trkpt>
      <trkpt lat="45.48925" lon="4.89452">
        <ele>350.21</ele>
        <time>2017-03-26T09:04:55Z</time>
      </trkpt>
      <trkpt lat="45.48942" lon="4.89465">
        <ele>350.26</ele>
        <time>2017-03-26T09:04:56Z</time>
      </trkpt>
      <trkpt lat="45.48957" lon="4.89479">
        <ele>350.02</ele>
        <time>2017-03-26T09:04:57Z</time>
      </trkpt>
      <trkpt lat="45.48973" lon="4.89492">
        <ele>349.66</ele>
        <time>2017-03-26T09:04:58Z</time>
      </trkpt>
      <trkpt lat="45.48988" lon="4.89504">
        <ele>349.83</ele>
        <time>2017-03-26T09:04:59Z</time>
      </trkpt>
      <trkpt lat="45.49003" lon="4.89513">
        <ele>349.7</ele>
        <time>2017-03-26T09:05:00Z</time>
      </trkpt>
      <trkpt lat="45.49018" lon="4.89521">
        <ele>349.83</ele>
        <time>2017-03-26T09:05:01Z</time>
      </trkpt>
      <trkpt lat="45.49035" lon="4.89525">
        <ele>349.62</ele>
        <time>2017-03-26T09:05:02Z</time>
      </trkpt>
      <trkpt lat="45.49052" lon="4.89528">
        <ele>349.5</ele>
        <time>2017-03-26T09:05:03Z</time>
      </trkpt>
      <trkpt lat="45.49072" lon="4.89527">
        <ele>349.15</ele>
        <time>2017-03-26T09:05:04Z</time>
      </trkpt>
      <trkpt lat="45.49092" lon="4.89527">
        <ele>348.92</ele>
        <time>2017-03-26T09:05:05Z</time>
      </trkpt>
      <trkpt lat="45.49112" lon="4.89527">
        <ele>348.72</ele>
        <time>2017-03-26T09:05:06Z</time>
      </trkpt>
      <trkpt lat="45.49132" lon="4.89527">
        <ele>348.84</ele>
        <time>2017-03-26T09:05:07Z</time>
      </trkpt>
      <trkpt lat="45.49153" lon="4.89527">
        <ele>349.26</ele>
        <time>2017-03-26T09:05:08Z</time>
      </trkpt>
      <trkpt lat="45.49174" lon="4.89527">
        <ele>349.43</ele>
        <time>2017-03-26T09:05:09Z</time>
      </trkpt>
      <trkpt lat="45.49194" lon="4.89527">
        <ele>349.78</ele>
        <time>2017-03-26T09:05:10Z</time>
      </trkpt>
      <trkpt lat="45.49215" lon="4.89527">
        <ele>349.93</ele>
        <time>2017-03-26T09:05:11Z</time>
      </trkpt>
      <trkpt lat="45.49235" lon="4.89526">
        <ele>349.8</ele>
        <time>2017-03-26T09:05:12Z</time>
      </trkpt>
      <trkpt lat="45.49255" lon="4.89526">
        <ele>349.61</ele>
        <time>2017-03-26T09:05:13Z</time>
      </trkpt>
      <trkpt lat="45.49275" lon="4.89525">
        <ele>349.42</ele>
        <time>2017-03-26T09:05:14Z</time>
      </trkpt>
      <trkpt lat="45.49294" lon="4.89525">
        <ele>349.38</ele>
        <time>2017-03-26T09:05:15Z</time>
      </trkpt>
      <trkpt lat="45.49311" lon="4.89525">
        <ele>349.45</ele>
        <time>2017-03-26T09:05:16Z</time>
      </trkpt>
      <trkpt lat="45.49326" lon="4.89525">
        <ele>349.22</ele>
        <time>2017-03-26T09:05:17Z</time>
      </trkpt>
      <trkpt lat="45.4934" lon="4.89525">
        <ele>349.02</ele>
        <time>2017-03-26T09:05:18Z</time>
      </trkpt>
      <trkpt lat="45.49353" lon="4.89525">
        <ele>348.5</ele>
        <time>2017-03-26T09:05:19Z</time>
      </trkpt>
      <trkpt lat="45.49365" lon="4.89524">
        <ele>347.91</ele>
        <time>2017-03-26T09:05:20Z</time>
      </trkpt>
      <trkpt lat="45.49377" lon="4.89524">
        <ele>347.4</ele>
        <time>2017-03-26T09:05:21Z</time>
      </trkpt>
      <trkpt lat="45.4939" lon="4.89522">
        <ele>346.73</ele>
        <time>2017-03-26T09:05:22Z</time>
      </trkpt>
      <trkpt lat="45.49404" lon="4.89519">
        <ele>346.12</ele>
        <time>2017-03-26T09:05:23Z</time>
      </trkpt>
      <trkpt lat="45.49419" lon="4.89513">
        <ele>345.92</ele>
        <time>2017-03-26T09:05:24Z</time>
      </trkpt>
      <trkpt lat="45.49435" lon="4.89505">
        <ele>345.72</ele>
        <time>2017-03-26T09:05:25Z</time>
      </trkpt>
      <trkpt lat="45.4945" lon="4.89495">
        <ele>345.44</ele>
        <time>2017-03-26T09:05:26Z</time>
      </trkpt>
      <trkpt lat="45.49466" lon="4.89482">
        <ele>344.82</ele>
        <time>2017-03-26T09:05:27Z</time>
      </trkpt>
      <trkpt lat="45.49481" lon="4.89468">
        <ele>344.06</ele>
        <time>2017-03-26T09:05:28Z</time>
      </trkpt>
      <trkpt lat="45.49496" lon="4.89455">
        <ele>343.19</ele>
        <time>2017-03-26T09:05:29Z</time>
      </trkpt>
      <trkpt lat="45.49511" lon="4.89441">
        <ele>342.69</ele>
        <time>2017-03-26T09:05:30Z</time>
      </trkpt>
      <trkpt lat="45.49527" lon="4.89426">
        <ele>342.51</ele>
        <time>2017-03-26T09:05:31Z</time>
      </trkpt>
      <trkpt lat="45.49543" lon="4.89411">
        <ele>342.56</ele>
        <time>2017-03-26T09:05:32Z</time>
      </trkpt>
      <trkpt lat="45.49558" lon="4.89397">
        <ele>342.56</ele>
        <time>2017-03-26T09:05:33Z</time>
      </trkpt>
      <trkpt lat="45.49574" lon="4.89383">
        <ele>342.97</ele>
        <time>2017-03-26T09:05:34Z</time>
      </trkpt>
      <trkpt lat="45.49589" lon="4.89369">
        <ele>343.53</ele>
        <time>2017-03-26T09:05:35Z</time>
      </trkpt>
      <trkpt lat="45.49603" lon="4.89356">
        <ele>344.2</ele>
        <time>2017-03-26T09:05:36Z</time>
      </trkpt>
      <trkpt lat="45.49618" lon="4.89343">
        <ele>344.57</ele>
        <time>2017-03-26T09:05:37Z</time>
      </trkpt>
      <trkpt lat="45.4963" lon="4.8933">
        <ele>344.73</ele>
        <time>2017-03-26T09:05:38Z</time>
      </trkpt>
      <trkpt lat="45.49641" lon="4.89318">
        <ele>345</ele>
        <time>2017-03-26T09:05:39Z</time>
      </trkpt>
      <trkpt lat="45.4965" lon="4.89306">
        <ele>344.73</ele>
        <time>2017-03-26T09:05:40Z</time>
      </trkpt>
      <trkpt lat="45.49658" lon="4.89296">
        <ele>344.68</ele>
        <time>2017-03-26T09:05:41Z</time>
      </trkpt>
      <trkpt lat="45.49663" lon="4.89287">
        <ele>344.67</ele>
        <time>2017-03-26T09:05:42Z</time>
      </trkpt>
      <trkpt lat="45.49667" lon="4.89282">
        <ele>344.75</ele>
        <time>2017-03-26T09:05:43Z</time>
      </trkpt>
      <trkpt lat="45.49667" lon="4.89281">
        <ele>345</ele>
        <time>2017-03-26T09:05:44Z</time>
      </trkpt>
      <trkpt lat="45.49665" lon="4.89283">
        <ele>344.97</ele>
        <time>2017-03-26T09:05:45Z</time>
      </trkpt>
      <trkpt lat="45.49662" lon="4.89286">
        <ele>344.97</ele>
        <time>2017-03-26T09:05:46Z</time>
      </trkpt>
      <trkpt lat="45.49661" lon="4.89288">
        <ele>344.89</ele>
        <time>2017-03-26T09:05:47Z</time>
      </trkpt>
      <trkpt lat="45.4966" lon="4.89289">
        <ele>344.79</ele>
        <time>2017-03-26T09:05:48Z</time>
      </trkpt>
      <trkpt lat="45.4966" lon="4.89289">
        <ele>344.77</ele>
        <time>2017-03-26T09:05:49Z</time>
      </trkpt>
      <trkpt lat="45.4966" lon="4.89289">
        <ele>344.77</ele>
        <time>2017-03-26T09:05:50Z</time>
      </trkpt>
      <trkpt lat="45.4966" lon="4.89289">
        <ele>344.77</ele>
        <time>2017-03-26T09:05:51Z</time>
      </trkpt>
      <trkpt lat="45.4966" lon="4.89289">
        <ele>344.77</ele>
        <time>2017-03-26T09:05:52Z</time>
      </trkpt>
      <trkpt lat="45.4966" lon="4.89289">
        <ele>344.77</ele>
        <time>2017-03-26T09:05:53Z</time>
      </trkpt>
      <trkpt lat="45.4966" lon="4.89289">
        <ele>344.77</ele>
        <time>2017-03-26T09:05:54Z</time>
      </trkpt>
      <trkpt lat="45.4966" lon="4.89289">
        <ele>344.77</ele>
        <time>2017-03-26T09:05:55Z</time>
      </trkpt>
      <trkpt lat="45.4966" lon="4.89289">
        <ele>344.77</ele>
        <time>2017-03-26T09:05:56Z</time>
      </trkpt>
      <trkpt lat="45.4966" lon="4.89289">
        <ele>344.77</ele>
        <time>2017-03-26T09:05:57Z</time>
      </trkpt>
      <trkpt lat="45.4966" lon="4.89289">
        <ele>344.77</ele>
        <time>2017-03-26T09:05:58Z</time>
      </trkpt>
      <trkpt lat="45.4966" lon="4.89289">
        <ele>344.77</ele>
        <time>2017-03-26T09:05:59Z</time>
      </trkpt>
      <trkpt lat="45.4966" lon="4.89289">
        <ele>344.77</ele>
        <time>2017-03-26T09:06:00Z</time>
      </trkpt>
      <trkpt lat="45.4966" lon="4.89289">
        <ele>344.77</ele>
        <time>2017-03-26T09:06:01Z</time>
      </trkpt>
      <trkpt lat="45.4966" lon="4.89289">
        <ele>344.77</ele>
        <time>2017-03-26T09:06:02Z</time>
      </trkpt>
      <trkpt lat="45.4966" lon="4.89289">
        <ele>344.77</ele>
        <time>2017-03-26T09:06:03Z</time>
      </trkpt>
      <trkpt lat="45.4966" lon="4.89289">
        <ele>344.77</ele>
        <time>2017-03-26T09:06:04Z</time>
      </trkpt>
      <trkpt lat="45.4966" lon="4.89289">
        <ele>344.77</ele>
        <time>2017-03-26T09:06:05Z</time>
      </trkpt>
      <trkpt lat="45.4966" lon="4.89289">
        <ele>344.77</ele>
        <time>2017-03-26T09:06:06Z</time>
      </trkpt>
      <trkpt lat="45.4966" lon="4.89289">
        <ele>344.77</ele>
        <time>2017-03-26T09:06:07Z</time>
      </trkpt>
      <trkpt lat="45.4966" lon="4.89289">
        <ele>344.77</ele>
        <time>2017-03-26T09:06:08Z</time>
      </trkpt>
      <trkpt lat="45.4966" lon="4.89289">
        <ele>344.77</ele>
        <time>2017-03-26T09:06:09Z</time>
      </trkpt>
      <trkpt lat="45.4966" lon="4.89286">
        <ele>344.37</ele>
        <time>2017-03-26T09:06:10Z</time>
      </trkpt>
      <trkpt lat="45.49662" lon="4.89278">
        <ele>344.13</ele>
        <time>2017-03-26T09:06:11Z</time>
      </trkpt>
      <trkpt lat="45.49666" lon="4.89267">
        <ele>343.92</ele>
        <time>2017-03-26T09:06:12Z</time>
      </trkpt>
      <trkpt lat="45.49671" lon="4.89253">
        <ele>343.32</ele>
        <time>2017-03-26T09:06:13Z</time>
      </trkpt>
      <trkpt lat="45.49674" lon="4.89236">
        <ele>342.72</ele>
        <time>2017-03-26T09:06:14Z</time>
      </trkpt>
      <trkpt lat="45.49678" lon="4.89217">
        <ele>342.28</ele>
        <time>2017-03-26T09:06:15Z</time>
      </trkpt>
      <trkpt lat="45.49681" lon="4.89196">
        <ele>341.79</ele>
        <time>2017-03-26T09:06:16Z</time>
      </trkpt>
      <trkpt lat="45.49684" lon="4.89174">
        <ele>341.29</ele>
        <time>2017-03-26T09:06:17Z</time>
      </trkpt>
      <trkpt lat="45.49688" lon="4.89152">
        <ele>340.79</ele>
        <time>2017-03-26T09:06:18Z</time>
      </trkpt>
      <trkpt lat="45.49691" lon="4.89128">
        <ele>340.21</ele>
        <time>2017-03-26T09:06:19Z</time>
      </trkpt>
      <trkpt lat="45.49695" lon="4.89104">
        <ele>339.62</ele>
        <time>2017-03-26T09:06:20Z</time>
      </trkpt>
      <trkpt lat="45.49698" lon="4.89079">
        <ele>339.1</ele>
        <time>2017-03-26T09:06:21Z</time>
      </trkpt>
      <trkpt lat="45.49702" lon="4.89054">
        <ele>338.83</ele>
        <time>2017-03-26T09:06:22Z</time>
      </trkpt>
      <trkpt lat="45.49705" lon="4.89028">
        <ele>338.62</ele>
        <time>2017-03-26T09:06:23Z</time>
      </trkpt>
      <trkpt lat="45.49709" lon="4.89002">
        <ele>338.5</ele>
        <time>2017-03-26T09:06:24Z</time>
      </trkpt>
      <trkpt lat="45.49713" lon="4.88976">
        <ele>338.31</ele>
        <time>2017-03-26T09:06:25Z</time>
      </trkpt>
      <trkpt lat="45.49716" lon="4.8895">
        <ele>337.56</ele>
        <time>2017-03-26T09:06:26Z</time>
      </trkpt>
      <trkpt lat="45.4972" lon="4.88924">
        <ele>337.08</ele>
        <time>2017-03-26T09:06:27Z</time>
      </trkpt>
      <trkpt lat="45.49725" lon="4.88898">
        <ele>336.59</ele>
        <time>2017-03-26T09:06:28Z</time>
      </trkpt>
      <trkpt lat="45.49732" lon="4.88871">
        <ele>336.25</ele>
        <time>2017-03-26T09:06:29Z</time>
      </trkpt>
      <trkpt lat="45.4974" lon="4.88846">
        <ele>335.78</ele>
        <time>2017-03-26T09:06:30Z</time>
      </trkpt>
      <trkpt lat="45.4975" lon="4.8882">
        <ele>335.53</ele>
        <time>2017-03-26T09:06:31Z</time>
      </trkpt>
      <trkpt lat="45.49759" lon="4.88794">
        <ele>335.64</ele>
        <time>2017-03-26T09:06:32Z</time>
      </trkpt>
      <trkpt lat="45.49769" lon="4.88768">
        <ele>335.82</ele>
        <time>2017-03-26T09:06:33Z</time>
      </trkpt>
      <trkpt lat="45.49778" lon="4.88742">
        <ele>336.1</ele>
        <time>2017-03-26T09:06:34Z</time>
      </trkpt>
      <trkpt lat="45.49788" lon="4.88716">
        <ele>336.23</ele>
        <time>2017-03-26T09:06:35Z</time>
      </trkpt>
      <trkpt lat="45.49798" lon="4.8869">
        <ele>335.86</ele>
        <time>2017-03-26T09:06:36Z</time>
      </trkpt>
      <trkpt lat="45.49808" lon="4.88664">
        <ele>335.87</ele>
        <time>2017-03-26T09:06:37Z</time>
      </trkpt>
      <trkpt lat="45.49819" lon="4.88638">
        <ele>335.79</ele>
        <time>2017-03-26T09:06:38Z</time>
      </trkpt>
      <trkpt lat="45.49829" lon="4.88611">
        <ele>335.61</ele>
        <time>2017-03-26T09:06:39Z</time>
      </trkpt>
      <trkpt lat="45.49839" lon="4.88585">
        <ele>335.5</ele>
        <time>2017-03-26T09:06:40Z</time>
      </trkpt>
      <trkpt lat="45.49849" lon="4.88559">
        <ele>335.55</ele>
        <time>2017-03-26T09:06:41Z</time>
      </trkpt>
      <trkpt lat="45.49859" lon="4.88535">
        <ele>335.56</ele>
        <time>2017-03-26T09:06:42Z</time>
      </trkpt>
      <trkpt lat="45.49868" lon="4.88511">
        <ele>335.65</ele>
        <time>2017-03-26T09:06:43Z</time>
      </trkpt>
      <trkpt lat="45.49877" lon="4.88489">
        <ele>335.58</ele>
        <time>2017-03-26T09:06:44Z</time>
      </trkpt>
      <trkpt lat="45.49887" lon="4.88466">
        <ele>335.49</ele>
        <time>2017-03-26T09:06:45Z</time>
      </trkpt>
      <trkpt lat="45.49895" lon="4.88444">
        <ele>335.39</ele>
        <time>2017-03-26T09:06:46Z</time>
      </trkpt>
      <trkpt lat="45.49904" lon="4.88423">
        <ele>335.45</ele>
        <time>2017-03-26T09:06:47Z</time>
      </trkpt>
      <trkpt lat="45.49911" lon="4.88403">
        <ele>335.78</ele>
        <time>2017-03-26T09:06:48Z</time>
      </trkpt>
      <trkpt lat="45.49918" lon="4.88384">
        <ele>336.09</ele>
        <time>2017-03-26T09:06:49Z</time>
      </trkpt>
      <trkpt lat="45.49925" lon="4.88366">
        <ele>335.99</ele>
        <time>2017-03-26T09:06:50Z</time>
      </trkpt>
      <trkpt lat="45.49932" lon="4.88349">
        <ele>335.57</ele>
        <time>2017-03-26T09:06:51Z</time>
      </trkpt>
      <trkpt lat="45.49941" lon="4.88332">
        <ele>335.01</ele>
        <time>2017-03-26T09:06:52Z</time>
      </trkpt>
      <trkpt lat="45.49951" lon="4.88315">
        <ele>334.66</ele>
        <time>2017-03-26T09:06:53Z</time>
      </trkpt>
      <trkpt lat="45.49963" lon="4.88299">
        <ele>334.34</ele>
        <time>2017-03-26T09:06:54Z</time>
      </trkpt>
      <trkpt lat="45.49976" lon="4.88283">
        <ele>334.12</ele>
        <time>2017-03-26T09:06:55Z</time>
      </trkpt>
      <trkpt lat="45.49992" lon="4.8827">
        <ele>334.08</ele>
        <time>2017-03-26T09:06:56Z</time>
      </trkpt>
      <trkpt lat="45.5001" lon="4.8826">
        <ele>333.91</ele>
        <time>2017-03-26T09:06:57Z</time>
      </trkpt>
      <trkpt lat="45.50028" lon="4.8825">
        <ele>333.88</ele>
        <time>2017-03-26T09:06:58Z</time>
      </trkpt>
      <trkpt lat="45.50047" lon="4.88242">
        <ele>333.79</ele>
        <time>2017-03-26T09:06:59Z</time>
      </trkpt>
      <trkpt lat="45.50065" lon="4.88234">
        <ele>333.69</ele>
        <time>2017-03-26T09:07:00Z</time>
      </trkpt>
      <trkpt lat="45.50083" lon="4.88226">
        <ele>333.59</ele>
        <time>2017-03-26T09:07:01Z</time>
      </trkpt>
      <trkpt lat="45.501" lon="4.88218">
        <ele>333.65</ele>
        <time>2017-03-26T09:07:02Z</time>
      </trkpt>
      <trkpt lat="45.50117" lon="4.88211">
        <ele>333.66</ele>
        <time>2017-03-26T09:07:03Z</time>
      </trkpt>
      <trkpt lat="45.50134" lon="4.88203">
        <ele>333.75</ele>
        <time>2017-03-26T09:07:04Z</time>
      </trkpt>
      <trkpt lat="45.50151" lon="4.88195">
        <ele>333.68</ele>
        <time>2017-03-26T09:07:05Z</time>
      </trkpt>
      <trkpt lat="45.50168" lon="4.88187">
        <ele>333.35</ele>
        <time>2017-03-26T09:07:06Z</time>
      </trkpt>
      <trkpt lat="45.50185" lon="4.88175">
        <ele>332.88</ele>
        <time>2017-03-26T09:07:07Z</time>
      </trkpt>
      <trkpt lat="45.50201" lon="4.88161">
        <ele>331.83</ele>
        <time>2017-03-26T09:07:08Z</time>
      </trkpt>
      <trkpt lat="45.50217" lon="4.88145">
        <ele>330.9</ele>
        <time>2017-03-26T09:07:09Z</time>
      </trkpt>
      <trkpt lat="45.50233" lon="4.88128">
        <ele>329.67</ele>
        <time>2017-03-26T09:07:10Z</time>
      </trkpt>
      <trkpt lat="45.50249" lon="4.8811">
        <ele>328.47</ele>
        <time>2017-03-26T09:07:11Z</time>
      </trkpt>
      <trkpt lat="45.50264" lon="4.88093">
        <ele>327.99</ele>
        <time>2017-03-26T09:07:12Z</time>
      </trkpt>
      <trkpt lat="45.50277" lon="4.88075">
        <ele>328.29</ele>
        <time>2017-03-26T09:07:13Z</time>
      </trkpt>
      <trkpt lat="45.50291" lon="4.88058">
        <ele>329.23</ele>
        <time>2017-03-26T09:07:14Z</time>
      </trkpt>
      <trkpt lat="45.50304" lon="4.88041">
        <ele>330.46</ele>
        <time>2017-03-26T09:07:15Z</time>
      </trkpt>
      <trkpt lat="45.50316" lon="4.88024">
        <ele>331.67</ele>
        <time>2017-03-26T09:07:16Z</time>
      </trkpt>
      <trkpt lat="45.50328" lon="4.88008">
        <ele>332.63</ele>
        <time>2017-03-26T09:07:17Z</time>
      </trkpt>
      <trkpt lat="45.5034" lon="4.87992">
        <ele>333.38</ele>
        <time>2017-03-26T09:07:18Z</time>
      </trkpt>
      <trkpt lat="45.50352" lon="4.87976">
        <ele>333.37</ele>
        <time>2017-03-26T09:07:19Z</time>
      </trkpt>
      <trkpt lat="45.50362" lon="4.87959">
        <ele>332.73</ele>
        <time>2017-03-26T09:07:20Z</time>
      </trkpt>
      <trkpt lat="45.50372" lon="4.87939">
        <ele>332.2</ele>
        <time>2017-03-26T09:07:21Z</time>
      </trkpt>
      <trkpt lat="45.5038" lon="4.87918">
        <ele>331.53</ele>
        <time>2017-03-26T09:07:22Z</time>
      </trkpt>
      <trkpt lat="45.50388" lon="4.87895">
        <ele>330.76</ele>
        <time>2017-03-26T09:07:23Z</time>
      </trkpt>
      <trkpt lat="45.50396" lon="4.87872">
        <ele>330.29</ele>
        <time>2017-03-26T09:07:24Z</time>
      </trkpt>
      <trkpt lat="45.50404" lon="4.87848">
        <ele>329.79</ele>
        <time>2017-03-26T09:07:25Z</time>
      </trkpt>
      <trkpt lat="45.50412" lon="4.87826">
        <ele>329.45</ele>
        <time>2017-03-26T09:07:26Z</time>
      </trkpt>
      <trkpt lat="45.50419" lon="4.87805">
        <ele>329.14</ele>
        <time>2017-03-26T09:07:27Z</time>
      </trkpt>
      <trkpt lat="45.50426" lon="4.87785">
        <ele>328.76</ele>
        <time>2017-03-26T09:07:28Z</time>
      </trkpt>
      <trkpt lat="45.50433" lon="4.87767">
        <ele>328.69</ele>
        <time>2017-03-26T09:07:29Z</time>
      </trkpt>
      <trkpt lat="45.5044" lon="4.87751">
        <ele>328.35</ele>
        <time>2017-03-26T09:07:30Z</time>
      </trkpt>
      <trkpt lat="45.50447" lon="4.87735">
        <ele>328.12</ele>
        <time>2017-03-26T09:07:31Z</time>
      </trkpt>
      <trkpt lat="45.50455" lon="4.87721">
        <ele>327.92</ele>
        <time>2017-03-26T09:07:32Z</time>
      </trkpt>
      <trkpt lat="45.50464" lon="4.87709">
        <ele>327.72</ele>
        <time>2017-03-26T09:07:33Z</time>
      </trkpt>
      <trkpt lat="45.50473" lon="4.877">
        <ele>327.44</ele>
        <time>2017-03-26T09:07:34Z</time>
      </trkpt>
      <trkpt lat="45.50483" lon="4.87694">
        <ele>327.14</ele>
        <time>2017-03-26T09:07:35Z</time>
      </trkpt>
      <trkpt lat="45.50495" lon="4.87689">
        <ele>326.84</ele>
        <time>2017-03-26T09:07:36Z</time>
      </trkpt>
      <trkpt lat="45.50508" lon="4.87685">
        <ele>326.54</ele>
        <time>2017-03-26T09:07:37Z</time>
      </trkpt>
      <trkpt lat="45.50521" lon="4.87681">
        <ele>326.16</ele>
        <time>2017-03-26T09:07:38Z</time>
      </trkpt>
      <trkpt lat="45.50536" lon="4.87676">
        <ele>325.77</ele>
        <time>2017-03-26T09:07:39Z</time>
      </trkpt>
      <trkpt lat="45.5055" lon="4.87671">
        <ele>325.29</ele>
        <time>2017-03-26T09:07:40Z</time>
      </trkpt>
      <trkpt lat="45.50565" lon="4.87665">
        <ele>324.71</ele>
        <time>2017-03-26T09:07:41Z</time>
      </trkpt>
      <trkpt lat="45.50581" lon="4.8766">
        <ele>324.12</ele>
        <time>2017-03-26T09:07:42Z</time>
      </trkpt>
      <trkpt lat="45.50598" lon="4.87654">
        <ele>323.6</ele>
        <time>2017-03-26T09:07:43Z</time>
      </trkpt>
      <trkpt lat="45.50614" lon="4.87648">
        <ele>323.09</ele>
        <time>2017-03-26T09:07:44Z</time>
      </trkpt>
      <trkpt lat="45.50628" lon="4.87641">
        <ele>322.51</ele>
        <time>2017-03-26T09:07:45Z</time>
      </trkpt>
      <trkpt lat="45.50641" lon="4.87635">
        <ele>321.84</ele>
        <time>2017-03-26T09:07:46Z</time>
      </trkpt>
      <trkpt lat="45.50654" lon="4.87627">
        <ele>321.3</ele>
        <time>2017-03-26T09:07:47Z</time>
      </trkpt>
      <trkpt lat="45.50665" lon="4.87616">
        <ele>320.79</ele>
        <time>2017-03-26T09:07:48Z</time>
      </trkpt>
      <trkpt lat="45.50676" lon="4.87604">
        <ele>320.21</ele>
        <time>2017-03-26T09:07:49Z</time>
      </trkpt>
      <trkpt lat="45.50686" lon="4.87593">
        <ele>319.54</ele>
        <time>2017-03-26T09:07:50Z</time>
      </trkpt>
      <trkpt lat="45.50696" lon="4.87582">
        <ele>318.92</ele>
        <time>2017-03-26T09:07:51Z</time>
      </trkpt>
      <trkpt lat="45.50709" lon="4.87574">
        <ele>318.24</ele>
        <time>2017-03-26T09:07:52Z</time>
      </trkpt>
      <trkpt lat="45.50725" lon="4.8757">
        <ele>317.54</ele>
        <time>2017-03-26T09:07:53Z</time>
      </trkpt>
      <trkpt lat="45.50739" lon="4.87563">
        <ele>316.76</ele>
        <time>2017-03-26T09:07:54Z</time>
      </trkpt>
      <trkpt lat="45.50752" lon="4.87553">
        <ele>315.73</ele>
        <time>2017-03-26T09:07:55Z</time>
      </trkpt>
      <trkpt lat="45.50764" lon="4.87541">
        <ele>314.48</ele>
        <time>2017-03-26T09:07:56Z</time>
      </trkpt>
      <trkpt lat="45.50775" lon="4.87525">
        <ele>313.19</ele>
        <time>2017-03-26T09:07:57Z</time>
      </trkpt>
      <trkpt lat="45.50783" lon="4.87507">
        <ele>311.97</ele>
        <time>2017-03-26T09:07:58Z</time>
      </trkpt>
      <trkpt lat="45.50792" lon="4.87488">
        <ele>310.85</ele>
        <time>2017-03-26T09:07:59Z</time>
      </trkpt>
      <trkpt lat="45.50801" lon="4.87468">
        <ele>309.74</ele>
        <time>2017-03-26T09:08:00Z</time>
      </trkpt>
      <trkpt lat="45.50807" lon="4.87449">
        <ele>308.56</ele>
        <time>2017-03-26T09:08:01Z</time>
      </trkpt>
      <trkpt lat="45.50814" lon="4.8743">
        <ele>307.45</ele>
        <time>2017-03-26T09:08:02Z</time>
      </trkpt>
      <trkpt lat="45.50821" lon="4.87412">
        <ele>306.26</ele>
        <time>2017-03-26T09:08:03Z</time>
      </trkpt>
      <trkpt lat="45.50829" lon="4.87394">
        <ele>305.15</ele>
        <time>2017-03-26T09:08:04Z</time>
      </trkpt>
      <trkpt lat="45.50836" lon="4.87377">
        <ele>304.04</ele>
        <time>2017-03-26T09:08:05Z</time>
      </trkpt>
      <trkpt lat="45.50844" lon="4.87362">
        <ele>302.86</ele>
        <time>2017-03-26T09:08:06Z</time>
      </trkpt>
      <trkpt lat="45.50852" lon="4.8735">
        <ele>301.51</ele>
        <time>2017-03-26T09:08:07Z</time>
      </trkpt>
      <trkpt lat="45.50862" lon="4.8734">
        <ele>299.55</ele>
        <time>2017-03-26T09:08:08Z</time>
      </trkpt>
      <trkpt lat="45.50873" lon="4.87333">
        <ele>297.56</ele>
        <time>2017-03-26T09:08:09Z</time>
      </trkpt>
      <trkpt lat="45.50883" lon="4.87325">
        <ele>295.25</ele>
        <time>2017-03-26T09:08:10Z</time>
      </trkpt>
      <trkpt lat="45.50894" lon="4.87319">
        <ele>293.34</ele>
        <time>2017-03-26T09:08:11Z</time>
      </trkpt>
      <trkpt lat="45.50905" lon="4.87313">
        <ele>291.84</ele>
        <time>2017-03-26T09:08:12Z</time>
      </trkpt>
      <trkpt lat="45.50916" lon="4.87309">
        <ele>289.94</ele>
        <time>2017-03-26T09:08:13Z</time>
      </trkpt>
      <trkpt lat="45.50929" lon="4.87307">
        <ele>287.96</ele>
        <time>2017-03-26T09:08:14Z</time>
      </trkpt>
      <trkpt lat="45.50942" lon="4.87306">
        <ele>287.09</ele>
        <time>2017-03-26T09:08:15Z</time>
      </trkpt>
      <trkpt lat="45.50954" lon="4.87306">
        <ele>285.47</ele>
        <time>2017-03-26T09:08:16Z</time>
      </trkpt>
      <trkpt lat="45.50968" lon="4.87307">
        <ele>284.03</ele>
        <time>2017-03-26T09:08:17Z</time>
      </trkpt>
      <trkpt lat="45.50982" lon="4.87307">
        <ele>282.54</ele>
        <time>2017-03-26T09:08:18Z</time>
      </trkpt>
      <trkpt lat="45.50996" lon="4.87308">
        <ele>281.12</ele>
        <time>2017-03-26T09:08:19Z</time>
      </trkpt>
      <trkpt lat="45.51011" lon="4.8731">
        <ele>279.72</ele>
        <time>2017-03-26T09:08:20Z</time>
      </trkpt>
      <trkpt lat="45.51025" lon="4.87311">
        <ele>278.32</ele>
        <time>2017-03-26T09:08:21Z</time>
      </trkpt>
      <trkpt lat="45.51039" lon="4.87312">
        <ele>277</ele>
        <time>2017-03-26T09:08:22Z</time>
      </trkpt>
      <trkpt lat="45.51053" lon="4.87312">
        <ele>275.61</ele>
        <time>2017-03-26T09:08:23Z</time>
      </trkpt>
      <trkpt lat="45.51067" lon="4.87312">
        <ele>274.38</ele>
        <time>2017-03-26T09:08:24Z</time>
      </trkpt>
      <trkpt lat="45.5108" lon="4.87313">
        <ele>273.09</ele>
        <time>2017-03-26T09:08:25Z</time>
      </trkpt>
      <trkpt lat="45.51093" lon="4.87314">
        <ele>271.71</ele>
        <time>2017-03-26T09:08:26Z</time>
      </trkpt>
      <trkpt lat="45.51106" lon="4.87314">
        <ele>270.48</ele>
        <time>2017-03-26T09:08:27Z</time>
      </trkpt>
      <trkpt lat="45.51117" lon="4.87314">
        <ele>269.11</ele>
        <time>2017-03-26T09:08:28Z</time>
      </trkpt>
      <trkpt lat="45.51129" lon="4.87313">
        <ele>267.8</ele>
        <time>2017-03-26T09:08:29Z</time>
      </trkpt>
      <trkpt lat="45.51141" lon="4.87313">
        <ele>266.57</ele>
        <time>2017-03-26T09:08:30Z</time>
      </trkpt>
      <trkpt lat="45.51152" lon="4.87313">
        <ele>265.29</ele>
        <time>2017-03-26T09:08:31Z</time>
      </trkpt>
      <trkpt lat="45.51162" lon="4.87313">
        <ele>264.15</ele>
        <time>2017-03-26T09:08:32Z</time>
      </trkpt>
      <trkpt lat="45.5117" lon="4.87314">
        <ele>263.12</ele>
        <time>2017-03-26T09:08:33Z</time>
      </trkpt>
      <trkpt lat="45.51175" lon="4.87317">
        <ele>262.28</ele>
        <time>2017-03-26T09:08:34Z</time>
      </trkpt>
      <trkpt lat="45.5118" lon="4.87319">
        <ele>261.39</ele>
        <time>2017-03-26T09:08:35Z</time>
      </trkpt>
      <trkpt lat="45.51186" lon="4.87319">
        <ele>260.57</ele>
        <time>2017-03-26T09:08:36Z</time>
      </trkpt>
      <trkpt lat="45.51191" lon="4.87316">
        <ele>259.61</ele>
        <time>2017-03-26T09:08:37Z</time>
      </trkpt>
      <trkpt lat="45.51198" lon="4.87312">
        <ele>258.54</ele>
        <time>2017-03-26T09:08:38Z</time>
      </trkpt>
      <trkpt lat="45.51208" lon="4.87309">
        <ele>257.36</ele>
        <time>2017-03-26T09:08:39Z</time>
      </trkpt>
      <trkpt lat="45.51218" lon="4.87307">
        <ele>256.41</ele>
        <time>2017-03-26T09:08:40Z</time>
      </trkpt>
      <trkpt lat="45.5123" lon="4.87304">
        <ele>255.33</ele>
        <time>2017-03-26T09:08:41Z</time>
      </trkpt>
      <trkpt lat="45.51243" lon="4.87302">
        <ele>254.32</ele>
        <time>2017-03-26T09:08:42Z</time>
      </trkpt>
      <trkpt lat="45.51256" lon="4.87298">
        <ele>253.24</ele>
        <time>2017-03-26T09:08:43Z</time>
      </trkpt>
      <trkpt lat="45.5127" lon="4.87294">
        <ele>252.22</ele>
        <time>2017-03-26T09:08:44Z</time>
      </trkpt>
      <trkpt lat="45.51284" lon="4.8729">
        <ele>251.22</ele>
        <time>2017-03-26T09:08:45Z</time>
      </trkpt>
      <trkpt lat="45.51298" lon="4.87287">
        <ele>250.22</ele>
        <time>2017-03-26T09:08:46Z</time>
      </trkpt>
      <trkpt lat="45.51313" lon="4.87282">
        <ele>249.22</ele>
        <time>2017-03-26T09:08:47Z</time>
      </trkpt>
      <trkpt lat="45.51328" lon="4.87278">
        <ele>248.06</ele>
        <time>2017-03-26T09:08:48Z</time>
      </trkpt>
      <trkpt lat="45.51343" lon="4.87277">
        <ele>247.02</ele>
        <time>2017-03-26T09:08:49Z</time>
      </trkpt>
      <trkpt lat="45.51358" lon="4.87276">
        <ele>246.02</ele>
        <time>2017-03-26T09:08:50Z</time>
      </trkpt>
      <trkpt lat="45.51373" lon="4.87277">
        <ele>245.02</ele>
        <time>2017-03-26T09:08:51Z</time>
      </trkpt>
      <trkpt lat="45.51388" lon="4.87279">
        <ele>244.02</ele>
        <time>2017-03-26T09:08:52Z</time>
      </trkpt>
      <trkpt lat="45.51402" lon="4.87282">
        <ele>243.02</ele>
        <time>2017-03-26T09:08:53Z</time>
      </trkpt>
      <trkpt lat="45.51417" lon="4.87285">
        <ele>242.02</ele>
        <time>2017-03-26T09:08:54Z</time>
      </trkpt>
      <trkpt lat="45.51431" lon="4.87287">
        <ele>241.1</ele>
        <time>2017-03-26T09:08:55Z</time>
      </trkpt>
      <trkpt lat="45.51445" lon="4.87288">
        <ele>240.03</ele>
        <time>2017-03-26T09:08:56Z</time>
      </trkpt>
      <trkpt lat="45.5146" lon="4.87291">
        <ele>238.86</ele>
        <time>2017-03-26T09:08:57Z</time>
      </trkpt>
      <trkpt lat="45.51475" lon="4.87293">
        <ele>237.75</ele>
        <time>2017-03-26T09:08:58Z</time>
      </trkpt>
      <trkpt lat="45.51489" lon="4.87295">
        <ele>236.72</ele>
        <time>2017-03-26T09:08:59Z</time>
      </trkpt>
      <trkpt lat="45.51504" lon="4.87296">
        <ele>235.72</ele>
        <time>2017-03-26T09:09:00Z</time>
      </trkpt>
      <trkpt lat="45.51518" lon="4.87296">
        <ele>234.8</ele>
        <time>2017-03-26T09:09:01Z</time>
      </trkpt>
      <trkpt lat="45.51532" lon="4.87295">
        <ele>233.73</ele>
        <time>2017-03-26T09:09:02Z</time>
      </trkpt>
      <trkpt lat="45.51545" lon="4.87293">
        <ele>232.64</ele>
        <time>2017-03-26T09:09:03Z</time>
      </trkpt>
      <trkpt lat="45.51558" lon="4.87291">
        <ele>231.62</ele>
        <time>2017-03-26T09:09:04Z</time>
      </trkpt>
      <trkpt lat="45.5157" lon="4.87291">
        <ele>230.62</ele>
        <time>2017-03-26T09:09:05Z</time>
      </trkpt>
      <trkpt lat="45.51577" lon="4.87295">
        <ele>229.7</ele>
        <time>2017-03-26T09:09:06Z</time>
      </trkpt>
      <trkpt lat="45.51585" lon="4.87301">
        <ele>228.63</ele>
        <time>2017-03-26T09:09:07Z</time>
      </trkpt>
      <trkpt lat="45.51593" lon="4.87311">
        <ele>227.78</ele>
        <time>2017-03-26T09:09:08Z</time>
      </trkpt>
      <trkpt lat="45.516" lon="4.87322">
        <ele>226.97</ele>
        <time>2017-03-26T09:09:09Z</time>
      </trkpt>
      <trkpt lat="45.51608" lon="4.87332">
        <ele>226.17</ele>
        <time>2017-03-26T09:09:10Z</time>
      </trkpt>
      <trkpt lat="45.51616" lon="4.8734">
        <ele>225.13</ele>
        <time>2017-03-26T09:09:11Z</time>
      </trkpt>
      <trkpt lat="45.51625" lon="4.87346">
        <ele>224.12</ele>
        <time>2017-03-26T09:09:12Z</time>
      </trkpt>
      <trkpt lat="45.51633" lon="4.8735">
        <ele>223.2</ele>
        <time>2017-03-26T09:09:13Z</time>
      </trkpt>
      <trkpt lat="45.51642" lon="4.8735">
        <ele>222.05</ele>
        <time>2017-03-26T09:09:14Z</time>
      </trkpt>
      <trkpt lat="45.5165" lon="4.8735">
        <ele>220.78</ele>
        <time>2017-03-26T09:09:15Z</time>
      </trkpt>
      <trkpt lat="45.51657" lon="4.87349">
        <ele>219.73</ele>
        <time>2017-03-26T09:09:16Z</time>
      </trkpt>
      <trkpt lat="45.51664" lon="4.87347">
        <ele>218.72</ele>
        <time>2017-03-26T09:09:17Z</time>
      </trkpt>
      <trkpt lat="45.51671" lon="4.87346">
        <ele>217.72</ele>
        <time>2017-03-26T09:09:18Z</time>
      </trkpt>
      <trkpt lat="45.51678" lon="4.87345">
        <ele>216.64</ele>
        <time>2017-03-26T09:09:19Z</time>
      </trkpt>
      <trkpt lat="45.51685" lon="4.87345">
        <ele>215.54</ele>
        <time>2017-03-26T09:09:20Z</time>
      </trkpt>
      <trkpt lat="45.51693" lon="4.87345">
        <ele>214.6</ele>
        <time>2017-03-26T09:09:21Z</time>
      </trkpt>
      <trkpt lat="45.51702" lon="4.87345">
        <ele>213.45</ele>
        <time>2017-03-26T09:09:22Z</time>
      </trkpt>
      <trkpt lat="45.51709" lon="4.87345">
        <ele>212.58</ele>
        <time>2017-03-26T09:09:23Z</time>
      </trkpt>
      <trkpt lat="45.51715" lon="4.87346">
        <ele>212.01</ele>
        <time>2017-03-26T09:09:24Z</time>
      </trkpt>
      <trkpt lat="45.51721" lon="4.87346">
        <ele>211.1</ele>
        <time>2017-03-26T09:09:25Z</time>
      </trkpt>
      <trkpt lat="45.51727" lon="4.87346">
        <ele>210.27</ele>
        <time>2017-03-26T09:09:26Z</time>
      </trkpt>
      <trkpt lat="45.51733" lon="4.87347">
        <ele>209.79</ele>
        <time>2017-03-26T09:09:27Z</time>
      </trkpt>
      <trkpt lat="45.5174" lon="4.87348">
        <ele>209.13</ele>
        <time>2017-03-26T09:09:28Z</time>
      </trkpt>
      <trkpt lat="45.51747" lon="4.87349">
        <ele>208.44</ele>
        <time>2017-03-26T09:09:29Z</time>
      </trkpt>
      <trkpt lat="45.51753" lon="4.87351">
        <ele>207.74</ele>
        <time>2017-03-26T09:09:30Z</time>
      </trkpt>
      <trkpt lat="45.5176" lon="4.87355">
        <ele>206.96</ele>
        <time>2017-03-26T09:09:31Z</time>
      </trkpt>
      <trkpt lat="45.51767" lon="4.87359">
        <ele>206.41</ele>
        <time>2017-03-26T09:09:32Z</time>
      </trkpt>
      <trkpt lat="45.51775" lon="4.87364">
        <ele>205.89</ele>
        <time>2017-03-26T09:09:33Z</time>
      </trkpt>
      <trkpt lat="45.51782" lon="4.87368">
        <ele>205.23</ele>
        <time>2017-03-26T09:09:34Z</time>
      </trkpt>
      <trkpt lat="45.5179" lon="4.87372">
        <ele>205.02</ele>
        <time>2017-03-26T09:09:35Z</time>
      </trkpt>
      <trkpt lat="45.51798" lon="4.87376">
        <ele>204.5</ele>
        <time>2017-03-26T09:09:36Z</time>
      </trkpt>
      <trkpt lat="45.51805" lon="4.87379">
        <ele>203.91</ele>
        <time>2017-03-26T09:09:37Z</time>
      </trkpt>
      <trkpt lat="45.51812" lon="4.87382">
        <ele>203.4</ele>
        <time>2017-03-26T09:09:38Z</time>
      </trkpt>
      <trkpt lat="45.51819" lon="4.87385">
        <ele>203.05</ele>
        <time>2017-03-26T09:09:39Z</time>
      </trkpt>
      <trkpt lat="45.51824" lon="4.87387">
        <ele>202.42</ele>
        <time>2017-03-26T09:09:40Z</time>
      </trkpt>
      <trkpt lat="45.5183" lon="4.87391">
        <ele>201.98</ele>
        <time>2017-03-26T09:09:41Z</time>
      </trkpt>
      <trkpt lat="45.51836" lon="4.87394">
        <ele>201.33</ele>
        <time>2017-03-26T09:09:42Z</time>
      </trkpt>
      <trkpt lat="45.51841" lon="4.87397">
        <ele>200.8</ele>
        <time>2017-03-26T09:09:43Z</time>
      </trkpt>
      <trkpt lat="45.51846" lon="4.87399">
        <ele>200.45</ele>
        <time>2017-03-26T09:09:44Z</time>
      </trkpt>
      <trkpt lat="45.51851" lon="4.87402">
        <ele>199.9</ele>
        <time>2017-03-26T09:09:45Z</time>
      </trkpt>
      <trkpt lat="45.51855" lon="4.87404">
        <ele>199.63</ele>
        <time>2017-03-26T09:09:46Z</time>
      </trkpt>
      <trkpt lat="45.51859" lon="4.87407">
        <ele>199.34</ele>
        <time>2017-03-26T09:09:47Z</time>
      </trkpt>
      <trkpt lat="45.51862" lon="4.87409">
        <ele>199.04</ele>
        <time>2017-03-26T09:09:48Z</time>
      </trkpt>
      <trkpt lat="45.51865" lon="4.8741">
        <ele>199.06</ele>
        <time>2017-03-26T09:09:49Z</time>
      </trkpt>
      <trkpt lat="45.51866" lon="4.87411">
        <ele>198.99</ele>
        <time>2017-03-26T09:09:50Z</time>
      </trkpt>
      <trkpt lat="45.51867" lon="4.87412">
        <ele>198.89</ele>
        <time>2017-03-26T09:09:51Z</time>
      </trkpt>
      <trkpt lat="45.51867" lon="4.87412">
        <ele>198.87</ele>
        <time>2017-03-26T09:09:52Z</time>
      </trkpt>
      <trkpt lat="45.51867" lon="4.87412">
        <ele>199.19</ele>
        <time>2017-03-26T09:09:53Z</time>
      </trkpt>
      <trkpt lat="45.51867" lon="4.87412">
        <ele>199.25</ele>
        <time>2017-03-26T09:09:54Z</time>
      </trkpt>
      <trkpt lat="45.51867" lon="4.87412">
        <ele>199.26</ele>
        <time>2017-03-26T09:09:55Z</time>
      </trkpt>
      <trkpt lat="45.51867" lon="4.87412">
        <ele>199.27</ele>
        <time>2017-03-26T09:09:56Z</time>
      </trkpt>
      <trkpt lat="45.51867" lon="4.87412">
        <ele>199.27</ele>
        <time>2017-03-26T09:09:57Z</time>
      </trkpt>
      <trkpt lat="45.51867" lon="4.87412">
        <ele>199.27</ele>
        <time>2017-03-26T09:09:58Z</time>
      </trkpt>
      <trkpt lat="45.51867" lon="4.87412">
        <ele>199.27</ele>
        <time>2017-03-26T09:09:59Z</time>
      </trkpt>
      <trkpt lat="45.51867" lon="4.87412">
        <ele>199.27</ele>
        <time>2017-03-26T09:10:00Z</time>
      </trkpt>
      <trkpt lat="45.51867" lon="4.87412">
        <ele>199.27</ele>
        <time>2017-03-26T09:10:01Z</time>
      </trkpt>
      <trkpt lat="45.51867" lon="4.87412">
        <ele>199.27</ele>
        <time>2017-03-26T09:10:02Z</time>
      </trkpt>
      <trkpt lat="45.51867" lon="4.87412">
        <ele>199.27</ele>
        <time>2017-03-26T09:10:03Z</time>
      </trkpt>
      <trkpt lat="45.51867" lon="4.87412">
        <ele>199.27</ele>
        <time>2017-03-26T09:10:04Z</time>
      </trkpt>
      <trkpt lat="45.51867" lon="4.87412">
        <ele>199.27</ele>
        <time>2017-03-26T09:10:05Z</time>
      </trkpt>
      <trkpt lat="45.51867" lon="4.87412">
        <ele>199.27</ele>
        <time>2017-03-26T09:10:06Z</time>
      </trkpt>
      <trkpt lat="45.51867" lon="4.87412">
        <ele>199.27</ele>
        <time>2017-03-26T09:10:07Z</time>
      </trkpt>
      <trkpt lat="45.51867" lon="4.87412">
        <ele>199.27</ele>
        <time>2017-03-26T09:10:08Z</time>
      </trkpt>
      <trkpt lat="45.51867" lon="4.87412">
        <ele>199.27</ele>
        <time>2017-03-26T09:10:09Z</time>
      </trkpt>
      <trkpt lat="45.51867" lon="4.87412">
        <ele>199.27</ele>
        <time>2017-03-26T09:10:10Z</time>
      </trkpt>
      <trkpt lat="45.51867" lon="4.87412">
        <ele>199.27</ele>
        <time>2017-03-26T09:10:11Z</time>
      </trkpt>
      <trkpt lat="45.51867" lon="4.87412">
        <ele>199.27</ele>
        <time>2017-03-26T09:10:12Z</time>
      </trkpt>
      <trkpt lat="45.51867" lon="4.87412">
        <ele>199.27</ele>
        <time>2017-03-26T09:10:13Z</time>
      </trkpt>
      <trkpt lat="45.51867" lon="4.87412">
        <ele>199.27</ele>
        <time>2017-03-26T09:10:14Z</time>
      </trkpt>
      <trkpt lat="45.51867" lon="4.87412">
        <ele>199.27</ele>
        <time>2017-03-26T09:10:15Z</time>
      </trkpt>
      <trkpt lat="45.51867" lon="4.87412">
        <ele>199.27</ele>
        <time>2017-03-26T09:10:16Z</time>
      </trkpt>
      <trkpt lat="45.51867" lon="4.87412">
        <ele>199.27</ele>
        <time>2017-03-26T09:10:17Z</time>
      </trkpt>
      <trkpt lat="45.51867" lon="4.87412">
        <ele>199.27</ele>
        <time>2017-03-26T09:10:18Z</time>
      </trkpt>
      <trkpt lat="45.51867" lon="4.87412">
        <ele>199.27</ele>
        <time>2017-03-26T09:10:19Z</time>
      </trkpt>
      <trkpt lat="45.51867" lon="4.87412">
        <ele>199.27</ele>
        <time>2017-03-26T09:10:20Z</time>
      </trkpt>
      <trkpt lat="45.51867" lon="4.87412">
        <ele>199.27</ele>
        <time>2017-03-26T09:10:21Z</time>
      </trkpt>
      <trkpt lat="45.51869" lon="4.87415">
        <ele>199.67</ele>
        <time>2017-03-26T09:10:22Z</time>
      </trkpt>
      <trkpt lat="45.51871" lon="4.87417">
        <ele>199.75</ele>
        <time>2017-03-26T09:10:23Z</time>
      </trkpt>
      <trkpt lat="45.51873" lon="4.87419">
        <ele>199.68</ele>
        <time>2017-03-26T09:10:24Z</time>
      </trkpt>
      <trkpt lat="45.51875" lon="4.87421">
        <ele>199.59</ele>
        <time>2017-03-26T09:10:25Z</time>
      </trkpt>
      <trkpt lat="45.51878" lon="4.87423">
        <ele>199.33</ele>
        <time>2017-03-26T09:10:26Z</time>
      </trkpt>
      <trkpt lat="45.5188" lon="4.87424">
        <ele>199.04</ele>
        <time>2017-03-26T09:10:27Z</time>
      </trkpt>
      <trkpt lat="45.51883" lon="4.87426">
        <ele>198.74</ele>
        <time>2017-03-26T09:10:28Z</time>
      </trkpt>
      <trkpt lat="45.51886" lon="4.87429">
        <ele>198.36</ele>
        <time>2017-03-26T09:10:29Z</time>
      </trkpt>
      <trkpt lat="45.51889" lon="4.87431">
        <ele>198.45</ele>
        <time>2017-03-26T09:10:30Z</time>
      </trkpt>
      <trkpt lat="45.51892" lon="4.87435">
        <ele>198.46</ele>
        <time>2017-03-26T09:10:31Z</time>
      </trkpt>
      <trkpt lat="45.51896" lon="4.87439">
        <ele>197.99</ele>
        <time>2017-03-26T09:10:32Z</time>
      </trkpt>
      <trkpt lat="45.519" lon="4.87444">
        <ele>197.49</ele>
        <time>2017-03-26T09:10:33Z</time>
      </trkpt>
      <trkpt lat="45.51904" lon="4.87448">
        <ele>197.07</ele>
        <time>2017-03-26T09:10:34Z</time>
      </trkpt>
      <trkpt lat="45.51908" lon="4.87453">
        <ele>196.75</ele>
        <time>2017-03-26T09:10:35Z</time>
      </trkpt>
      <trkpt lat="45.51912" lon="4.87458">
        <ele>196.52</ele>
        <time>2017-03-26T09:10:36Z</time>
      </trkpt>
      <trkpt lat="45.51916" lon="4.87462">
        <ele>196.32</ele>
        <time>2017-03-26T09:10:37Z</time>
      </trkpt>
      <trkpt lat="45.5192" lon="4.87463">
        <ele>196.28</ele>
        <time>2017-03-26T09:10:38Z</time>
      </trkpt>
      <trkpt lat="45.51923" lon="4.87461">
        <ele>196.19</ele>
        <time>2017-03-26T09:10:39Z</time>
      </trkpt>
      <trkpt lat="45.51924" lon="4.87458">
        <ele>196.01</ele>
        <time>2017-03-26T09:10:40Z</time>
      </trkpt>
      <trkpt lat="45.51924" lon="4.87455">
        <ele>195.66</ele>
        <time>2017-03-26T09:10:41Z</time>
      </trkpt>
      <trkpt lat="45.51924" lon="4.87453">
        <ele>195.42</ele>
        <time>2017-03-26T09:10:42Z</time>
      </trkpt>
      <trkpt lat="45.51923" lon="4.87451">
        <ele>195.22</ele>
        <time>2017-03-26T09:10:43Z</time>
      </trkpt>
      <trkpt lat="45.51921" lon="4.87449">
        <ele>195.02</ele>
        <time>2017-03-26T09:10:44Z</time>
      </trkpt>
      <trkpt lat="45.51919" lon="4.87447">
        <ele>194.9</ele>
        <time>2017-03-26T09:10:45Z</time>
      </trkpt>
      <trkpt lat="45.51917" lon="4.87445">
        <ele>194.71</ele>
        <time>2017-03-26T09:10:46Z</time>
      </trkpt>
      <trkpt lat="45.51915" lon="4.87442">
        <ele>194.36</ele>
        <time>2017-03-26T09:10:47Z</time>
      </trkpt>
      <trkpt lat="45.51912" lon="4.87439">
        <ele>194.12</ele>
        <time>2017-03-26T09:10:48Z</time>
      </trkpt>
      <trkpt lat="45.51909" lon="4.87436">
        <ele>193.84</ele>
        <time>2017-03-26T09:10:49Z</time>
      </trkpt>
      <trkpt lat="45.51906" lon="4.87432">
        <ele>193.54</ele>
        <time>2017-03-26T09:10:50Z</time>
      </trkpt>
      <trkpt lat="45.51902" lon="4.87427">
        <ele>193.08</ele>
        <time>2017-03-26T09:10:51Z</time>
      </trkpt>
      <trkpt lat="45.51898" lon="4.87422">
        <ele>192.75</ele>
        <time>2017-03-26T09:10:52Z</time>
      </trkpt>
      <trkpt lat="45.51893" lon="4.87416">
        <ele>192.36</ele>
        <time>2017-03-26T09:10:53Z</time>
      </trkpt>
      <trkpt lat="45.51887" lon="4.87409">
        <ele>191.73</ele>
        <time>2017-03-26T09:10:54Z</time>
      </trkpt>
      <trkpt lat="45.51881" lon="4.87402">
        <ele>191.04</ele>
        <time>2017-03-26T09:10:55Z</time>
      </trkpt>
      <trkpt lat="45.51874" lon="4.87395">
        <ele>190.1</ele>
        <time>2017-03-26T09:10:56Z</time>
      </trkpt>
      <trkpt lat="45.51868" lon="4.87387">
        <ele>189.35</ele>
        <time>2017-03-26T09:10:57Z</time>
      </trkpt>
      <trkpt lat="45.51861" lon="4.87379">
        <ele>188.48</ele>
        <time>2017-03-26T09:10:58Z</time>
      </trkpt>
      <trkpt lat="45.51855" lon="4.87371">
        <ele>187.51</ele>
        <time>2017-03-26T09:10:59Z</time>
      </trkpt>
      <trkpt lat="45.51849" lon="4.87363">
        <ele>186.2</ele>
        <time>2017-03-26T09:11:00Z</time>
      </trkpt>
      <trkpt lat="45.51842" lon="4.87356">
        <ele>184.97</ele>
        <time>2017-03-26T09:11:01Z</time>
      </trkpt>
      <trkpt lat="45.51834" lon="4.8735">
        <ele>183.85</ele>
        <time>2017-03-26T09:11:02Z</time>
      </trkpt>
      <trkpt lat="45.51826" lon="4.87344">
        <ele>182.66</ele>
        <time>2017-03-26T09:11:03Z</time>
      </trkpt>
      <trkpt lat="45.51817" lon="4.87338">
        <ele>182.11</ele>
        <time>2017-03-26T09:11:04Z</time>
      </trkpt>
      <trkpt lat="45.51808" lon="4.87332">
        <ele>181.51</ele>
        <time>2017-03-26T09:11:05Z</time>
      </trkpt>
      <trkpt lat="45.51799" lon="4.87326">
        <ele>180.76</ele>
        <time>2017-03-26T09:11:06Z</time>
      </trkpt>
      <trkpt lat="45.51791" lon="4.8732">
        <ele>180.12</ele>
        <time>2017-03-26T09:11:07Z</time>
      </trkpt>
      <trkpt lat="45.51784" lon="4.87315">
        <ele>179.6</ele>
        <time>2017-03-26T09:11:08Z</time>
      </trkpt>
      <trkpt lat="45.51777" lon="4.8731">
        <ele>179.01</ele>
        <time>2017-03-26T09:11:09Z</time>
      </trkpt>
      <trkpt lat="45.51772" lon="4.87306">
        <ele>178.1</ele>
        <time>2017-03-26T09:11:10Z</time>
      </trkpt>
      <trkpt lat="45.5177" lon="4.87303">
        <ele>176.95</ele>
        <time>2017-03-26T09:11:11Z</time>
      </trkpt>
      <trkpt lat="45.51773" lon="4.87301">
        <ele>177.28</ele>
        <time>2017-03-26T09:11:12Z</time>
      </trkpt>
      <trkpt lat="45.51775" lon="4.87302">
        <ele>176.95</ele>
        <time>2017-03-26T09:11:13Z</time>
      </trkpt>
      <trkpt lat="45.5178" lon="4.87305">
        <ele>176</ele>
        <time>2017-03-26T09:11:14Z</time>
      </trkpt>
      <trkpt lat="45.51787" lon="4.8731">
        <ele>175.09</ele>
        <time>2017-03-26T09:11:15Z</time>
      </trkpt>
      <trkpt lat="45.51795" lon="4.87315">
        <ele>174.19</ele>
        <time>2017-03-26T09:11:16Z</time>
      </trkpt>
      <trkpt lat="45.51803" lon="4.8732">
        <ele>173.53</ele>
        <time>2017-03-26T09:11:17Z</time>
      </trkpt>
      <trkpt lat="45.51812" lon="4.87324">
        <ele>172.76</ele>
        <time>2017-03-26T09:11:18Z</time>
      </trkpt>
      <trkpt lat="45.51821" lon="4.87328">
        <ele>171.89</ele>
        <time>2017-03-26T09:11:19Z</time>
      </trkpt>
      <trkpt lat="45.5183" lon="4.87332">
        <ele>171.15</ele>
        <time>2017-03-26T09:11:20Z</time>
      </trkpt>
      <trkpt lat="45.5184" lon="4.87336">
        <ele>170.04</ele>
        <time>2017-03-26T09:11:21Z</time>
      </trkpt>
      <trkpt lat="45.51849" lon="4.8734">
        <ele>169.18</ele>
        <time>2017-03-26T09:11:22Z</time>
      </trkpt>
      <trkpt lat="45.51858" lon="4.87344">
        <ele>168.21</ele>
        <time>2017-03-26T09:11:23Z</time>
      </trkpt>
      <trkpt lat="45.51867" lon="4.87348">
        <ele>167.3</ele>
        <time>2017-03-26T09:11:24Z</time>
      </trkpt>
      <trkpt lat="45.51876" lon="4.87353">
        <ele>166.39</ele>
        <time>2017-03-26T09:11:25Z</time>
      </trkpt>
      <trkpt lat="45.51885" lon="4.87357">
        <ele>165.09</ele>
        <time>2017-03-26T09:11:26Z</time>
      </trkpt>
      <trkpt lat="45.51894" lon="4.8736">
        <ele>163.79</ele>
        <time>2017-03-26T09:11:27Z</time>
      </trkpt>
      <trkpt lat="45.51902" lon="4.87365">
        <ele>162.33</ele>
        <time>2017-03-26T09:11:28Z</time>
      </trkpt>
      <trkpt lat="45.5191" lon="4.87368">
        <ele>161.32</ele>
        <time>2017-03-26T09:11:29Z</time>
      </trkpt>
      <trkpt lat="45.51919" lon="4.87372">
        <ele>160.32</ele>
        <time>2017-03-26T09:11:30Z</time>
      </trkpt>
      <trkpt lat="45.51927" lon="4.87376">
        <ele>158.84</ele>
        <time>2017-03-26T09:11:31Z</time>
      </trkpt>
      <trkpt lat="45.51934" lon="4.8738">
        <ele>157.58</ele>
        <time>2017-03-26T09:11:32Z</time>
      </trkpt>
      <trkpt lat="45.51942" lon="4.87384">
        <ele>156.53</ele>
        <time>2017-03-26T09:11:33Z</time>
      </trkpt>
      <trkpt lat="45.51951" lon="4.87388">
        <ele>155.28</ele>
        <time>2017-03-26T09:11:34Z</time>
      </trkpt>
      <trkpt lat="45.51959" lon="4.87391">
        <ele>154.23</ele>
        <time>2017-03-26T09:11:35Z</time>
      </trkpt>
      <trkpt lat="45.51967" lon="4.87394">
        <ele>153.14</ele>
        <time>2017-03-26T09:11:36Z</time>
      </trkpt>
      <trkpt lat="45.51976" lon="4.87399">
        <ele>152.2</ele>
        <time>2017-03-26T09:11:37Z</time>
      </trkpt>
      <trkpt lat="45.51984" lon="4.87404">
        <ele>151.29</ele>
        <time>2017-03-26T09:11:38Z</time>
      </trkpt>
      <trkpt lat="45.51992" lon="4.87411">
        <ele>150.39</ele>
        <time>2017-03-26T09:11:39Z</time>
      </trkpt>
      <trkpt lat="45.51999" lon="4.87419">
        <ele>149.57</ele>
        <time>2017-03-26T09:11:40Z</time>
      </trkpt>
      <trkpt lat="45.52006" lon="4.87427">
        <ele>148.61</ele>
        <time>2017-03-26T09:11:41Z</time>
      </trkpt>
      <trkpt lat="45.52013" lon="4.87434">
        <ele>147.78</ele>
        <time>2017-03-26T09:11:42Z</time>
      </trkpt>
      <trkpt lat="45.52018" lon="4.87441">
        <ele>147.21</ele>
        <time>2017-03-26T09:11:43Z</time>
      </trkpt>
      <trkpt lat="45.52024" lon="4.87448">
        <ele>146.78</ele>
        <time>2017-03-26T09:11:44Z</time>
      </trkpt>
      <trkpt lat="45.5203" lon="4.87456">
        <ele>146.21</ele>
        <time>2017-03-26T09:11:45Z</time>
      </trkpt>
      <trkpt lat="45.52036" lon="4.87464">
        <ele>145.46</ele>
        <time>2017-03-26T09:11:46Z</time>
      </trkpt>
      <trkpt lat="45.52043" lon="4.87474">
        <ele>144.74</ele>
        <time>2017-03-26T09:11:47Z</time>
      </trkpt>
      <trkpt lat="45.5205" lon="4.87483">
        <ele>144.04</ele>
        <time>2017-03-26T09:11:48Z</time>
      </trkpt>
      <trkpt lat="45.52058" lon="4.87492">
        <ele>143.5</ele>
        <time>2017-03-26T09:11:49Z</time>
      </trkpt>
      <trkpt lat="45.52065" lon="4.875">
        <ele>142.75</ele>
        <time>2017-03-26T09:11:50Z</time>
      </trkpt>
      <trkpt lat="45.52073" lon="4.87507">
        <ele>142.04</ele>
        <time>2017-03-26T09:11:51Z</time>
      </trkpt>
      <trkpt lat="45.52081" lon="4.87512">
        <ele>141.26</ele>
        <time>2017-03-26T09:11:52Z</time>
      </trkpt>
      <trkpt lat="45.52089" lon="4.87515">
        <ele>140.55</ele>
        <time>2017-03-26T09:11:53Z</time>
      </trkpt>
      <trkpt lat="45.52097" lon="4.87516">
        <ele>139.92</ele>
        <time>2017-03-26T09:11:54Z</time>
      </trkpt>
      <trkpt lat="45.52105" lon="4.87517">
        <ele>139.4</ele>
        <time>2017-03-26T09:11:55Z</time>
      </trkpt>
      <trkpt lat="45.52114" lon="4.8752">
        <ele>138.81</ele>
        <time>2017-03-26T09:11:56Z</time>
      </trkpt>
      <trkpt lat="45.52122" lon="4.87524">
        <ele>137.98</ele>
        <time>2017-03-26T09:11:57Z</time>
      </trkpt>
      <trkpt lat="45.52129" lon="4.8753">
        <ele>137.25</ele>
        <time>2017-03-26T09:11:58Z</time>
      </trkpt>
      <trkpt lat="45.52136" lon="4.87537">
        <ele>136.54</ele>
        <time>2017-03-26T09:11:59Z</time>
      </trkpt>
      <trkpt lat="45.52142" lon="4.87543">
        <ele>135.92</ele>
        <time>2017-03-26T09:12:00Z</time>
      </trkpt>
      <trkpt lat="45.52149" lon="4.87547">
        <ele>135.32</ele>
        <time>2017-03-26T09:12:01Z</time>
      </trkpt>
      <trkpt lat="45.52157" lon="4.87551">
        <ele>134.64</ele>
        <time>2017-03-26T09:12:02Z</time>
      </trkpt>
      <trkpt lat="45.52163" lon="4.87545">
        <ele>134.02</ele>
        <time>2017-03-26T09:12:03Z</time>
      </trkpt>
      <trkpt lat="45.52169" lon="4.8754">
        <ele>133.58</ele>
        <time>2017-03-26T09:12:04Z</time>
      </trkpt>
      <trkpt lat="45.52176" lon="4.87537">
        <ele>133.09</ele>
        <time>2017-03-26T09:12:05Z</time>
      </trkpt>
      <trkpt lat="45.52185" lon="4.87536">
        <ele>132.59</ele>
        <time>2017-03-26T09:12:06Z</time>
      </trkpt>
      <trkpt lat="45.52192" lon="4.87536">
        <ele>131.93</ele>
        <time>2017-03-26T09:12:07Z</time>
      </trkpt>
      <trkpt lat="45.522" lon="4.87536">
        <ele>131.24</ele>
        <time>2017-03-26T09:12:08Z</time>
      </trkpt>
      <trkpt lat="45.52213" lon="4.87536">
        <ele>130.46</ele>
        <time>2017-03-26T09:12:09Z</time>
      </trkpt>
      <trkpt lat="45.52224" lon="4.87536">
        <ele>129.67</ele>
        <time>2017-03-26T09:12:10Z</time>
      </trkpt>
      <trkpt lat="45.52234" lon="4.87537">
        <ele>128.87</ele>
        <time>2017-03-26T09:12:11Z</time>
      </trkpt>
      <trkpt lat="45.52244" lon="4.87537">
        <ele>127.99</ele>
        <time>2017-03-26T09:12:12Z</time>
      </trkpt>
      <trkpt lat="45.52253" lon="4.87538">
        <ele>127.17</ele>
        <time>2017-03-26T09:12:13Z</time>
      </trkpt>
      <trkpt lat="45.52262" lon="4.8754">
        <ele>126.37</ele>
        <time>2017-03-26T09:12:14Z</time>
      </trkpt>
      <trkpt lat="45.52271" lon="4.87542">
        <ele>125.65</ele>
        <time>2017-03-26T09:12:15Z</time>
      </trkpt>
      <trkpt lat="45.52277" lon="4.87545">
        <ele>124.86</ele>
        <time>2017-03-26T09:12:16Z</time>
      </trkpt>
      <trkpt lat="45.52283" lon="4.87549">
        <ele>124.07</ele>
        <time>2017-03-26T09:12:17Z</time>
      </trkpt>
      <trkpt lat="45.52288" lon="4.87553">
        <ele>123.35</ele>
        <time>2017-03-26T09:12:18Z</time>
      </trkpt>
      <trkpt lat="45.52291" lon="4.87555">
        <ele>122.56</ele>
        <time>2017-03-26T09:12:19Z</time>
      </trkpt>
      <trkpt lat="45.52291" lon="4.87555">
        <ele>121.85</ele>
        <time>2017-03-26T09:12:20Z</time>
      </trkpt>
      <trkpt lat="45.52291" lon="4.87555">
        <ele>121.3</ele>
        <time>2017-03-26T09:12:21Z</time>
      </trkpt>
      <trkpt lat="45.52292" lon="4.87555">
        <ele>120.79</ele>
        <time>2017-03-26T09:12:22Z</time>
      </trkpt>
      <trkpt lat="45.52292" lon="4.87554">
        <ele>120.37</ele>
        <time>2017-03-26T09:12:23Z</time>
      </trkpt>
      <trkpt lat="45.52292" lon="4.87554">
        <ele>120.29</ele>
        <time>2017-03-26T09:12:24Z</time>
      </trkpt>
      <trkpt lat="45.52292" lon="4.87554">
        <ele>120.27</ele>
        <time>2017-03-26T09:12:25Z</time>
      </trkpt>
      <trkpt lat="45.52292" lon="4.87554">
        <ele>120.27</ele>
        <time>2017-03-26T09:12:26Z</time>
      </trkpt>
      <trkpt lat="45.52292" lon="4.87554">
        <ele>120.27</ele>
        <time>2017-03-26T09:12:27Z</time>
      </trkpt>
      <trkpt lat="45.52292" lon="4.87554">
        <ele>120.27</ele>
        <time>2017-03-26T09:12:28Z</time>
      </trkpt>
      <trkpt lat="45.52292" lon="4.87554">
        <ele>120.27</ele>
        <time>2017-03-26T09:12:29Z</time>
      </trkpt>
      <trkpt lat="45.52292" lon="4.87554">
        <ele>120.27</ele>
        <time>2017-03-26T09:12:30Z</time>
      </trkpt>
      <trkpt lat="45.52292" lon="4.87554">
        <ele>120.27</ele>
        <time>2017-03-26T09:12:31Z</time>
      </trkpt>
      <trkpt lat="45.52292" lon="4.87554">
        <ele>120.27</ele>
        <time>2017-03-26T09:12:32Z</time>
      </trkpt>
      <trkpt lat="45.52292" lon="4.87554">
        <ele>120.27</ele>
        <time>2017-03-26T09:12:33Z</time>
      </trkpt>
      <trkpt lat="45.52292" lon="4.87554">
        <ele>120.27</ele>
        <time>2017-03-26T09:12:34Z</time>
      </trkpt>
      <trkpt lat="45.52292" lon="4.87554">
        <ele>120.27</ele>
        <time>2017-03-26T09:12:35Z</time>
      </trkpt>
      <trkpt lat="45.52292" lon="4.87554">
        <ele>120.27</ele>
        <time>2017-03-26T09:12:36Z</time>
      </trkpt>
      <trkpt lat="45.52292" lon="4.87554">
        <ele>120.27</ele>
        <time>2017-03-26T09:12:37Z</time>
      </trkpt>
      <trkpt lat="45.52292" lon="4.87554">
        <ele>120.27</ele>
        <time>2017-03-26T09:12:38Z</time>
      </trkpt>
      <trkpt lat="45.52292" lon="4.87554">
        <ele>120.27</ele>
        <time>2017-03-26T09:12:39Z</time>
      </trkpt>
      <trkpt lat="45.52292" lon="4.87554">
        <ele>120.27</ele>
        <time>2017-03-26T09:12:40Z</time>
      </trkpt>
      <trkpt lat="45.52292" lon="4.87554">
        <ele>120.27</ele>
        <time>2017-03-26T09:12:41Z</time>
      </trkpt>
      <trkpt lat="45.52292" lon="4.87554">
        <ele>120.27</ele>
        <time>2017-03-26T09:12:42Z</time>
      </trkpt>
      <trkpt lat="45.52292" lon="4.87554">
        <ele>120.27</ele>
        <time>2017-03-26T09:12:43Z</time>
      </trkpt>
      <trkpt lat="45.52292" lon="4.87554">
        <ele>120.27</ele>
        <time>2017-03-26T09:12:44Z</time>
      </trkpt>
      <trkpt lat="45.52292" lon="4.87554">
        <ele>120.27</ele>
        <time>2017-03-26T09:12:45Z</time>
      </trkpt>
      <trkpt lat="45.52292" lon="4.87554">
        <ele>120.27</ele>
        <time>2017-03-26T09:12:46Z</time>
      </trkpt>
      <trkpt lat="45.52292" lon="4.87554">
        <ele>120.27</ele>
        <time>2017-03-26T09:12:47Z</time>
      </trkpt>
      <trkpt lat="45.52292" lon="4.87554">
        <ele>120.27</ele>
        <time>2017-03-26T09:12:48Z</time>
      </trkpt>
      <trkpt lat="45.52292" lon="4.87554">
        <ele>120.27</ele>
        <time>2017-03-26T09:12:49Z</time>
      </trkpt>
      <trkpt lat="45.52292" lon="4.87554">
        <ele>120.27</ele>
        <time>2017-03-26T09:12:50Z</time>
      </trkpt>
      <trkpt lat="45.52292" lon="4.87554">
        <ele>120.27</ele>
        <time>2017-03-26T09:12:51Z</time>
      </trkpt>
      <trkpt lat="45.52292" lon="4.87554">
        <ele>120.27</ele>
        <time>2017-03-26T09:12:52Z</time>
      </trkpt>
      <trkpt lat="45.52292" lon="4.87554">
        <ele>120.27</ele>
        <time>2017-03-26T09:12:53Z</time>
      </trkpt>
      <trkpt lat="45.52292" lon="4.87554">
        <ele>120.27</ele>
        <time>2017-03-26T09:12:54Z</time>
      </trkpt>
      <trkpt lat="45.52292" lon="4.87554">
        <ele>120.27</ele>
        <time>2017-03-26T09:12:55Z</time>
      </trkpt>
      <trkpt lat="45.52292" lon="4.87554">
        <ele>120.27</ele>
        <time>2017-03-26T09:12:56Z</time>
      </trkpt>
      <trkpt lat="45.52295" lon="4.87554">
        <ele>120.19</ele>
        <time>2017-03-26T09:12:57Z</time>
      </trkpt>
      <trkpt lat="45.52297" lon="4.87555">
        <ele>120.09</ele>
        <time>2017-03-26T09:12:58Z</time>
      </trkpt>
      <trkpt lat="45.523" lon="4.87555">
        <ele>119.99</ele>
        <time>2017-03-26T09:12:59Z</time>
      </trkpt>
      <trkpt lat="45.52302" lon="4.87554">
        <ele>119.97</ele>
        <time>2017-03-26T09:13:00Z</time>
      </trkpt>
      <trkpt lat="45.52302" lon="4.87552">
        <ele>119.81</ele>
        <time>2017-03-26T09:13:01Z</time>
      </trkpt>
      <trkpt lat="45.52301" lon="4.8755">
        <ele>119.7</ele>
        <time>2017-03-26T09:13:02Z</time>
      </trkpt>
      <trkpt lat="45.52299" lon="4.87547">
        <ele>119.59</ele>
        <time>2017-03-26T09:13:03Z</time>
      </trkpt>
      <trkpt lat="45.52295" lon="4.87544">
        <ele>119.57</ele>
        <time>2017-03-26T09:13:04Z</time>
      </trkpt>
      <trkpt lat="45.52291" lon="4.87541">
        <ele>119.41</ele>
        <time>2017-03-26T09:13:05Z</time>
      </trkpt>
      <trkpt lat="45.52286" lon="4.87538">
        <ele>119.3</ele>
        <time>2017-03-26T09:13:06Z</time>
      </trkpt>
      <trkpt lat="45.52281" lon="4.87532">
        <ele>119.11</ele>
        <time>2017-03-26T09:13:07Z</time>
      </trkpt>
      <trkpt lat="45.52274" lon="4.87526">
        <ele>119</ele>
        <time>2017-03-26T09:13:08Z</time>
      </trkpt>
      <trkpt lat="45.52267" lon="4.87519">
        <ele>118.81</ele>
        <time>2017-03-26T09:13:09Z</time>
      </trkpt>
      <trkpt lat="45.52258" lon="4.87512">
        <ele>118.78</ele>
        <time>2017-03-26T09:13:10Z</time>
      </trkpt>
      <trkpt lat="45.5225" lon="4.87504">
        <ele>118.61</ele>
        <time>2017-03-26T09:13:11Z</time>
      </trkpt>
      <trkpt lat="45.52242" lon="4.87496">
        <ele>118.5</ele>
        <time>2017-03-26T09:13:12Z</time>
      </trkpt>
      <trkpt lat="45.52233" lon="4.87489">
        <ele>118.31</ele>
        <time>2017-03-26T09:13:13Z</time>
      </trkpt>
      <trkpt lat="45.52225" lon="4.87481">
        <ele>118.2</ele>
        <time>2017-03-26T09:13:14Z</time>
      </trkpt>
      <trkpt lat="45.52217" lon="4.87475">
        <ele>118.09</ele>
        <time>2017-03-26T09:13:15Z</time>
      </trkpt>
      <trkpt lat="45.52209" lon="4.87469">
        <ele>117.83</ele>
        <time>2017-03-26T09:13:16Z</time>
      </trkpt>
      <trkpt lat="45.52201" lon="4.87462">
        <ele>117.54</ele>
        <time>2017-03-26T09:13:17Z</time>
      </trkpt>
      <trkpt lat="45.52194" lon="4.87456">
        <ele>117.24</ele>
        <time>2017-03-26T09:13:18Z</time>
      </trkpt>
      <trkpt lat="45.52187" lon="4.8745">
        <ele>116.94</ele>
        <time>2017-03-26T09:13:19Z</time>
      </trkpt>
      <trkpt lat="45.52181" lon="4.87445">
        <ele>116.4</ele>
        <time>2017-03-26T09:13:20Z</time>
      </trkpt>
      <trkpt lat="45.52177" lon="4.8744">
        <ele>115.89</ele>
        <time>2017-03-26T09:13:21Z</time>
      </trkpt>
      <trkpt lat="45.52173" lon="4.87437">
        <ele>115.47</ele>
        <time>2017-03-26T09:13:22Z</time>
      </trkpt>
      <trkpt lat="45.52171" lon="4.87435">
        <ele>115.07</ele>
        <time>2017-03-26T09:13:23Z</time>
      </trkpt>
      <trkpt lat="45.52171" lon="4.87434">
        <ele>114.83</ele>
        <time>2017-03-26T09:13:24Z</time>
      </trkpt>
      <trkpt lat="45.52171" lon="4.87433">
        <ele>114.54</ele>
        <time>2017-03-26T09:13:25Z</time>
      </trkpt>
      <trkpt lat="45.5217" lon="4.87433">
        <ele>114.8</ele>
        <time>2017-03-26T09:13:26Z</time>
      </trkpt>
      <trkpt lat="45.5217" lon="4.87433">
        <ele>114.93</ele>
        <time>2017-03-26T09:13:27Z</time>
      </trkpt>
      <trkpt lat="45.5217" lon="4.87433">
        <ele>114.96</ele>
        <time>2017-03-26T09:13:28Z</time>
      </trkpt>
      <trkpt lat="45.5217" lon="4.87433">
        <ele>114.97</ele>
        <time>2017-03-26T09:13:29Z</time>
      </trkpt>
      <trkpt lat="45.5217" lon="4.87433">
        <ele>114.97</ele>
        <time>2017-03-26T09:13:30Z</time>
      </trkpt>
      <trkpt lat="45.5217" lon="4.87433">
        <ele>114.97</ele>
        <time>2017-03-26T09:13:31Z</time>
      </trkpt>
      <trkpt lat="45.5217" lon="4.87433">
        <ele>114.97</ele>
        <time>2017-03-26T09:13:32Z</time>
      </trkpt>
      <trkpt lat="45.5217" lon="4.87433">
        <ele>114.97</ele>
        <time>2017-03-26T09:13:33Z</time>
      </trkpt>
      <trkpt lat="45.5217" lon="4.87433">
        <ele>114.97</ele>
        <time>2017-03-26T09:13:34Z</time>
      </trkpt>
      <trkpt lat="45.5217" lon="4.87433">
        <ele>114.97</ele>
        <time>2017-03-26T09:13:35Z</time>
      </trkpt>
      <trkpt lat="45.5217" lon="4.87433">
        <ele>114.97</ele>
        <time>2017-03-26T09:13:36Z</time>
      </trkpt>
      <trkpt lat="45.5217" lon="4.87433">
        <ele>114.97</ele>
        <time>2017-03-26T09:13:37Z</time>
      </trkpt>
      <trkpt lat="45.5217" lon="4.87433">
        <ele>114.97</ele>
        <time>2017-03-26T09:13:38Z</time>
      </trkpt>
      <trkpt lat="45.5217" lon="4.87433">
        <ele>114.97</ele>
        <time>2017-03-26T09:13:39Z</time>
      </trkpt>
      <trkpt lat="45.5217" lon="4.87433">
        <ele>114.97</ele>
        <time>2017-03-26T09:13:40Z</time>
      </trkpt>
      <trkpt lat="45.5217" lon="4.87433">
        <ele>114.97</ele>
        <time>2017-03-26T09:13:41Z</time>
      </trkpt>
      <trkpt lat="45.5217" lon="4.87433">
        <ele>114.97</ele>
        <time>2017-03-26T09:13:42Z</time>
      </trkpt>
      <trkpt lat="45.52168" lon="4.8743">
        <ele>114.73</ele>
        <time>2017-03-26T09:13:43Z</time>
      </trkpt>
      <trkpt lat="45.52164" lon="4.87427">
        <ele>114.76</ele>
        <time>2017-03-26T09:13:44Z</time>
      </trkpt>
      <trkpt lat="45.5216" lon="4.87422">
        <ele>114.77</ele>
        <time>2017-03-26T09:13:45Z</time>
      </trkpt>
      <trkpt lat="45.52156" lon="4.87418">
        <ele>114.77</ele>
        <time>2017-03-26T09:13:46Z</time>
      </trkpt>
      <trkpt lat="45.52153" lon="4.87413">
        <ele>114.85</ele>
        <time>2017-03-26T09:13:47Z</time>
      </trkpt>
      <trkpt lat="45.52152" lon="4.87405">
        <ele>114.86</ele>
        <time>2017-03-26T09:13:48Z</time>
      </trkpt>
      <trkpt lat="45.52152" lon="4.87397">
        <ele>114.87</ele>
        <time>2017-03-26T09:13:49Z</time>
      </trkpt>
      <trkpt lat="45.52154" lon="4.87387">
        <ele>114.87</ele>
        <time>2017-03-26T09:13:50Z</time>
      </trkpt>
      <trkpt lat="45.52155" lon="4.87378">
        <ele>114.87</ele>
        <time>2017-03-26T09:13:51Z</time>
      </trkpt>
      <trkpt lat="45.52156" lon="4.87368">
        <ele>114.87</ele>
        <time>2017-03-26T09:13:52Z</time>
      </trkpt>
      <trkpt lat="45.52156" lon="4.87358">
        <ele>114.87</ele>
        <time>2017-03-26T09:13:53Z</time>
      </trkpt>
      <trkpt lat="45.52158" lon="4.87349">
        <ele>114.87</ele>
        <time>2017-03-26T09:13:54Z</time>
      </trkpt>
      <trkpt lat="45.52159" lon="4.87338">
        <ele>114.87</ele>
        <time>2017-03-26T09:13:55Z</time>
      </trkpt>
      <trkpt lat="45.52161" lon="4.87327">
        <ele>114.87</ele>
        <time>2017-03-26T09:13:56Z</time>
      </trkpt>
      <trkpt lat="45.52164" lon="4.87315">
        <ele>114.87</ele>
        <time>2017-03-26T09:13:57Z</time>
      </trkpt>
      <trkpt lat="45.52166" lon="4.87303">
        <ele>114.87</ele>
        <time>2017-03-26T09:13:58Z</time>
      </trkpt>
      <trkpt lat="45.52169" lon="4.8729">
        <ele>114.87</ele>
        <time>2017-03-26T09:13:59Z</time>
      </trkpt>
      <trkpt lat="45.52172" lon="4.87276">
        <ele>114.79</ele>
        <time>2017-03-26T09:14:00Z</time>
      </trkpt>
      <trkpt lat="45.52175" lon="4.87261">
        <ele>114.69</ele>
        <time>2017-03-26T09:14:01Z</time>
      </trkpt>
      <trkpt lat="45.52177" lon="4.87246">
        <ele>114.67</ele>
        <time>2017-03-26T09:14:02Z</time>
      </trkpt>
      <trkpt lat="45.5218" lon="4.8723">
        <ele>114.51</ele>
        <time>2017-03-26T09:14:03Z</time>
      </trkpt>
      <trkpt lat="45.52185" lon="4.87214">
        <ele>114.32</ele>
        <time>2017-03-26T09:14:04Z</time>
      </trkpt>
      <trkpt lat="45.52188" lon="4.87198">
        <ele>114.12</ele>
        <time>2017-03-26T09:14:05Z</time>
      </trkpt>
      <trkpt lat="45.52191" lon="4.87182">
        <ele>113.92</ele>
        <time>2017-03-26T09:14:06Z</time>
      </trkpt>
      <trkpt lat="45.52195" lon="4.87167">
        <ele>113.72</ele>
        <time>2017-03-26T09:14:07Z</time>
      </trkpt>
      <trkpt lat="45.52197" lon="4.87152">
        <ele>113.52</ele>
        <time>2017-03-26T09:14:08Z</time>
      </trkpt>
      <trkpt lat="45.522" lon="4.87136">
        <ele>113.32</ele>
        <time>2017-03-26T09:14:09Z</time>
      </trkpt>
      <trkpt lat="45.52203" lon="4.8712">
        <ele>113.12</ele>
        <time>2017-03-26T09:14:10Z</time>
      </trkpt>
      <trkpt lat="45.52205" lon="4.87104">
        <ele>113</ele>
        <time>2017-03-26T09:14:11Z</time>
      </trkpt>
      <trkpt lat="45.52209" lon="4.87088">
        <ele>112.97</ele>
        <time>2017-03-26T09:14:12Z</time>
      </trkpt>
      <trkpt lat="45.52212" lon="4.87072">
        <ele>112.81</ele>
        <time>2017-03-26T09:14:13Z</time>
      </trkpt>
      <trkpt lat="45.52215" lon="4.87056">
        <ele>112.78</ele>
        <time>2017-03-26T09:14:14Z</time>
      </trkpt>
      <trkpt lat="45.52219" lon="4.8704">
        <ele>112.61</ele>
        <time>2017-03-26T09:14:15Z</time>
      </trkpt>
      <trkpt lat="45.52222" lon="4.87025">
        <ele>112.5</ele>
        <time>2017-03-26T09:14:16Z</time>
      </trkpt>
      <trkpt lat="45.52225" lon="4.8701">
        <ele>112.31</ele>
        <time>2017-03-26T09:14:17Z</time>
      </trkpt>
      <trkpt lat="45.52228" lon="4.86996">
        <ele>112.12</ele>
        <time>2017-03-26T09:14:18Z</time>
      </trkpt>
      <trkpt lat="45.5223" lon="4.86984">
        <ele>111.92</ele>
        <time>2017-03-26T09:14:19Z</time>
      </trkpt>
      <trkpt lat="45.52233" lon="4.86975">
        <ele>111.72</ele>
        <time>2017-03-26T09:14:20Z</time>
      </trkpt>
      <trkpt lat="45.52235" lon="4.86969">
        <ele>111.6</ele>
        <time>2017-03-26T09:14:21Z</time>
      </trkpt>
      <trkpt lat="45.52237" lon="4.86965">
        <ele>111.49</ele>
        <time>2017-03-26T09:14:22Z</time>
      </trkpt>
      <trkpt lat="45.52237" lon="4.86966">
        <ele>111.31</ele>
        <time>2017-03-26T09:14:23Z</time>
      </trkpt>
      <trkpt lat="45.52238" lon="4.86966">
        <ele>111.04</ele>
        <time>2017-03-26T09:14:24Z</time>
      </trkpt>
      <trkpt lat="45.52239" lon="4.86967">
        <ele>110.82</ele>
        <time>2017-03-26T09:14:25Z</time>
      </trkpt>
      <trkpt lat="45.52239" lon="4.86967">
        <ele>110.78</ele>
        <time>2017-03-26T09:14:26Z</time>
      </trkpt>
      <trkpt lat="45.52239" lon="4.86967">
        <ele>110.77</ele>
        <time>2017-03-26T09:14:27Z</time>
      </trkpt>
      <trkpt lat="45.52239" lon="4.86967">
        <ele>110.77</ele>
        <time>2017-03-26T09:14:28Z</time>
      </trkpt>
      <trkpt lat="45.52239" lon="4.86967">
        <ele>110.77</ele>
        <time>2017-03-26T09:14:29Z</time>
      </trkpt>
      <trkpt lat="45.52239" lon="4.86967">
        <ele>110.77</ele>
        <time>2017-03-26T09:14:30Z</time>
      </trkpt>
      <trkpt lat="45.52239" lon="4.86967">
        <ele>110.77</ele>
        <time>2017-03-26T09:14:31Z</time>
      </trkpt>
      <trkpt lat="45.52239" lon="4.86967">
        <ele>110.77</ele>
        <time>2017-03-26T09:14:32Z</time>
      </trkpt>
      <trkpt lat="45.52239" lon="4.86967">
        <ele>110.77</ele>
        <time>2017-03-26T09:14:33Z</time>
      </trkpt>
      <trkpt lat="45.52239" lon="4.86967">
        <ele>110.77</ele>
        <time>2017-03-26T09:14:34Z</time>
      </trkpt>
      <trkpt lat="45.52239" lon="4.86967">
        <ele>110.77</ele>
        <time>2017-03-26T09:14:35Z</time>
      </trkpt>
      <trkpt lat="45.52239" lon="4.86967">
        <ele>110.77</ele>
        <time>2017-03-26T09:14:36Z</time>
      </trkpt>
      <trkpt lat="45.52239" lon="4.86967">
        <ele>110.77</ele>
        <time>2017-03-26T09:14:37Z</time>
      </trkpt>
      <trkpt lat="45.52239" lon="4.86967">
        <ele>110.77</ele>
        <time>2017-03-26T09:14:38Z</time>
      </trkpt>
      <trkpt lat="45.52239" lon="4.86967">
        <ele>110.77</ele>
        <time>2017-03-26T09:14:39Z</time>
      </trkpt>
      <trkpt lat="45.52239" lon="4.86967">
        <ele>110.77</ele>
        <time>2017-03-26T09:14:40Z</time>
      </trkpt>
      <trkpt lat="45.52239" lon="4.86967">
        <ele>110.77</ele>
        <time>2017-03-26T09:14:41Z</time>
      </trkpt>
      <trkpt lat="45.52239" lon="4.86967">
        <ele>110.77</ele>
        <time>2017-03-26T09:14:42Z</time>
      </trkpt>
      <trkpt lat="45.52239" lon="4.86967">
        <ele>110.77</ele>
        <time>2017-03-26T09:14:43Z</time>
      </trkpt>
      <trkpt lat="45.52239" lon="4.86967">
        <ele>110.77</ele>
        <time>2017-03-26T09:14:44Z</time>
      </trkpt>
      <trkpt lat="45.52239" lon="4.86967">
        <ele>110.77</ele>
        <time>2017-03-26T09:14:45Z</time>
      </trkpt>
      <trkpt lat="45.52239" lon="4.86967">
        <ele>110.77</ele>
        <time>2017-03-26T09:14:46Z</time>
      </trkpt>
      <trkpt lat="45.52239" lon="4.86967">
        <ele>110.77</ele>
        <time>2017-03-26T09:14:47Z</time>
      </trkpt>
      <trkpt lat="45.52239" lon="4.86967">
        <ele>110.77</ele>
        <time>2017-03-26T09:14:48Z</time>
      </trkpt>
      <trkpt lat="45.52239" lon="4.86967">
        <ele>110.77</ele>
        <time>2017-03-26T09:14:49Z</time>
      </trkpt>
      <trkpt lat="45.52239" lon="4.86967">
        <ele>110.77</ele>
        <time>2017-03-26T09:14:50Z</time>
      </trkpt>
      <trkpt lat="45.52239" lon="4.86967">
        <ele>110.77</ele>
        <time>2017-03-26T09:14:51Z</time>
      </trkpt>
      <trkpt lat="45.52239" lon="4.86967">
        <ele>110.77</ele>
        <time>2017-03-26T09:14:52Z</time>
      </trkpt>
      <trkpt lat="45.52239" lon="4.86967">
        <ele>110.77</ele>
        <time>2017-03-26T09:14:53Z</time>
      </trkpt>
      <trkpt lat="45.52239" lon="4.86967">
        <ele>110.77</ele>
        <time>2017-03-26T09:14:54Z</time>
      </trkpt>
      <trkpt lat="45.52239" lon="4.86967">
        <ele>110.77</ele>
        <time>2017-03-26T09:14:55Z</time>
      </trkpt>
      <trkpt lat="45.52239" lon="4.86967">
        <ele>110.77</ele>
        <time>2017-03-26T09:14:56Z</time>
      </trkpt>
      <trkpt lat="45.52239" lon="4.86967">
        <ele>110.77</ele>
        <time>2017-03-26T09:14:57Z</time>
      </trkpt>
      <trkpt lat="45.52239" lon="4.86967">
        <ele>110.77</ele>
        <time>2017-03-26T09:14:58Z</time>
      </trkpt>
      <trkpt lat="45.52239" lon="4.86967">
        <ele>110.77</ele>
        <time>2017-03-26T09:14:59Z</time>
      </trkpt>
      <trkpt lat="45.52239" lon="4.86967">
        <ele>110.77</ele>
        <time>2017-03-26T09:15:00Z</time>
      </trkpt>
      <trkpt lat="45.52239" lon="4.86967">
        <ele>110.77</ele>
        <time>2017-03-26T09:15:01Z</time>
      </trkpt>
      <trkpt lat="45.52239" lon="4.86967">
        <ele>110.77</ele>
        <time>2017-03-26T09:15:02Z</time>
      </trkpt>
      <trkpt lat="45.52239" lon="4.86967">
        <ele>110.77</ele>
        <time>2017-03-26T09:15:03Z</time>
      </trkpt>
      <trkpt lat="45.52239" lon="4.86967">
        <ele>110.77</ele>
        <time>2017-03-26T09:15:04Z</time>
      </trkpt>
      <trkpt lat="45.52241" lon="4.86968">
        <ele>110.21</ele>
        <time>2017-03-26T09:15:05Z</time>
      </trkpt>
      <trkpt lat="45.52243" lon="4.86967">
        <ele>110.01</ele>
        <time>2017-03-26T09:15:06Z</time>
      </trkpt>
      <trkpt lat="45.52248" lon="4.86966">
        <ele>109.98</ele>
        <time>2017-03-26T09:15:07Z</time>
      </trkpt>
      <trkpt lat="45.52255" lon="4.86966">
        <ele>110.13</ele>
        <time>2017-03-26T09:15:08Z</time>
      </trkpt>
      <trkpt lat="45.52263" lon="4.86969">
        <ele>110.24</ele>
        <time>2017-03-26T09:15:09Z</time>
      </trkpt>
      <trkpt lat="45.52271" lon="4.86973">
        <ele>110.26</ele>
        <time>2017-03-26T09:15:10Z</time>
      </trkpt>
      <trkpt lat="45.5228" lon="4.86979">
        <ele>110.27</ele>
        <time>2017-03-26T09:15:11Z</time>
      </trkpt>
      <trkpt lat="45.52289" lon="4.86986">
        <ele>110.35</ele>
        <time>2017-03-26T09:15:12Z</time>
      </trkpt>
      <trkpt lat="45.52299" lon="4.86994">
        <ele>110.44</ele>
        <time>2017-03-26T09:15:13Z</time>
      </trkpt>
      <trkpt lat="45.52309" lon="4.87001">
        <ele>110.62</ele>
        <time>2017-03-26T09:15:14Z</time>
      </trkpt>
      <trkpt lat="45.52319" lon="4.87009">
        <ele>110.66</ele>
        <time>2017-03-26T09:15:15Z</time>
      </trkpt>
      <trkpt lat="45.52329" lon="4.87016">
        <ele>110.83</ele>
        <time>2017-03-26T09:15:16Z</time>
      </trkpt>
      <trkpt lat="45.52339" lon="4.87024">
        <ele>110.78</ele>
        <time>2017-03-26T09:15:17Z</time>
      </trkpt>
      <trkpt lat="45.52349" lon="4.87032">
        <ele>110.77</ele>
        <time>2017-03-26T09:15:18Z</time>
      </trkpt>
      <trkpt lat="45.52358" lon="4.8704">
        <ele>110.61</ele>
        <time>2017-03-26T09:15:19Z</time>
      </trkpt>
      <trkpt lat="45.52367" lon="4.87047">
        <ele>110.74</ele>
        <time>2017-03-26T09:15:20Z</time>
      </trkpt>
      <trkpt lat="45.52376" lon="4.87054">
        <ele>110.76</ele>
        <time>2017-03-26T09:15:21Z</time>
      </trkpt>
      <trkpt lat="45.52385" lon="4.8706">
        <ele>110.93</ele>
        <time>2017-03-26T09:15:22Z</time>
      </trkpt>
      <trkpt lat="45.52393" lon="4.87066">
        <ele>111.12</ele>
        <time>2017-03-26T09:15:23Z</time>
      </trkpt>
      <trkpt lat="45.524" lon="4.87072">
        <ele>111</ele>
        <time>2017-03-26T09:15:24Z</time>
      </trkpt>
      <trkpt lat="45.52406" lon="4.87078">
        <ele>110.73</ele>
        <time>2017-03-26T09:15:25Z</time>
      </trkpt>
      <trkpt lat="45.52412" lon="4.87083">
        <ele>110.6</ele>
        <time>2017-03-26T09:15:26Z</time>
      </trkpt>
      <trkpt lat="45.52418" lon="4.87087">
        <ele>110.57</ele>
        <time>2017-03-26T09:15:27Z</time>
      </trkpt>
      <trkpt lat="45.52423" lon="4.87091">
        <ele>110.65</ele>
        <time>2017-03-26T09:15:28Z</time>
      </trkpt>
      <trkpt lat="45.52428" lon="4.87095">
        <ele>110.58</ele>
        <time>2017-03-26T09:15:29Z</time>
      </trkpt>
      <trkpt lat="45.52431" lon="4.87098">
        <ele>110.97</ele>
        <time>2017-03-26T09:15:30Z</time>
      </trkpt>
      <trkpt lat="45.52434" lon="4.871">
        <ele>111.29</ele>
        <time>2017-03-26T09:15:31Z</time>
      </trkpt>
      <trkpt lat="45.52435" lon="4.87102">
        <ele>111.27</ele>
        <time>2017-03-26T09:15:32Z</time>
      </trkpt>
      <trkpt lat="45.52435" lon="4.87102">
        <ele>111.19</ele>
        <time>2017-03-26T09:15:33Z</time>
      </trkpt>
      <trkpt lat="45.52435" lon="4.87103">
        <ele>110.69</ele>
        <time>2017-03-26T09:15:34Z</time>
      </trkpt>
      <trkpt lat="45.52435" lon="4.87103">
        <ele>110.59</ele>
        <time>2017-03-26T09:15:35Z</time>
      </trkpt>
      <trkpt lat="45.52435" lon="4.87103">
        <ele>110.57</ele>
        <time>2017-03-26T09:15:36Z</time>
      </trkpt>
      <trkpt lat="45.52435" lon="4.87103">
        <ele>110.57</ele>
        <time>2017-03-26T09:15:37Z</time>
      </trkpt>
      <trkpt lat="45.52435" lon="4.87103">
        <ele>110.57</ele>
        <time>2017-03-26T09:15:38Z</time>
      </trkpt>
      <trkpt lat="45.52435" lon="4.87103">
        <ele>110.57</ele>
        <time>2017-03-26T09:15:39Z</time>
      </trkpt>
      <trkpt lat="45.52435" lon="4.87103">
        <ele>110.57</ele>
        <time>2017-03-26T09:15:40Z</time>
      </trkpt>
      <trkpt lat="45.52435" lon="4.87103">
        <ele>110.57</ele>
        <time>2017-03-26T09:15:41Z</time>
      </trkpt>
      <trkpt lat="45.52435" lon="4.87103">
        <ele>110.57</ele>
        <time>2017-03-26T09:15:42Z</time>
      </trkpt>
      <trkpt lat="45.52438" lon="4.87105">
        <ele>110.25</ele>
        <time>2017-03-26T09:15:43Z</time>
      </trkpt>
      <trkpt lat="45.52443" lon="4.87108">
        <ele>110.42</ele>
        <time>2017-03-26T09:15:44Z</time>
      </trkpt>
      <trkpt lat="45.52448" lon="4.87111">
        <ele>110.7</ele>
        <time>2017-03-26T09:15:45Z</time>
      </trkpt>
      <trkpt lat="45.52454" lon="4.87116">
        <ele>110.91</ele>
        <time>2017-03-26T09:15:46Z</time>
      </trkpt>
      <trkpt lat="45.52461" lon="4.8712">
        <ele>111.12</ele>
        <time>2017-03-26T09:15:47Z</time>
      </trkpt>
      <trkpt lat="45.52468" lon="4.87126">
        <ele>111</ele>
        <time>2017-03-26T09:15:48Z</time>
      </trkpt>
      <trkpt lat="45.52475" lon="4.87131">
        <ele>111.05</ele>
        <time>2017-03-26T09:15:49Z</time>
      </trkpt>
      <trkpt lat="45.52483" lon="4.87137">
        <ele>111.14</ele>
        <time>2017-03-26T09:15:50Z</time>
      </trkpt>
      <trkpt lat="45.52491" lon="4.87143">
        <ele>111.4</ele>
        <time>2017-03-26T09:15:51Z</time>
      </trkpt>
      <trkpt lat="45.525" lon="4.8715">
        <ele>111.29</ele>
        <time>2017-03-26T09:15:52Z</time>
      </trkpt>
      <trkpt lat="45.52509" lon="4.87157">
        <ele>111.27</ele>
        <time>2017-03-26T09:15:53Z</time>
      </trkpt>
      <trkpt lat="45.52519" lon="4.87164">
        <ele>111.27</ele>
        <time>2017-03-26T09:15:54Z</time>
      </trkpt>
      <trkpt lat="45.52528" lon="4.87172">
        <ele>111.35</ele>
        <time>2017-03-26T09:15:55Z</time>
      </trkpt>
      <trkpt lat="45.52538" lon="4.87179">
        <ele>111.28</ele>
        <time>2017-03-26T09:15:56Z</time>
      </trkpt>
      <trkpt lat="45.52548" lon="4.87187">
        <ele>111.19</ele>
        <time>2017-03-26T09:15:57Z</time>
      </trkpt>
      <trkpt lat="45.52558" lon="4.87194">
        <ele>111.17</ele>
        <time>2017-03-26T09:15:58Z</time>
      </trkpt>
      <trkpt lat="45.52568" lon="4.87202">
        <ele>110.93</ele>
        <time>2017-03-26T09:15:59Z</time>
      </trkpt>
      <trkpt lat="45.52578" lon="4.87209">
        <ele>111.04</ele>
        <time>2017-03-26T09:16:00Z</time>
      </trkpt>
      <trkpt lat="45.52588" lon="4.87216">
        <ele>110.98</ele>
        <time>2017-03-26T09:16:01Z</time>
      </trkpt>
      <trkpt lat="45.52598" lon="4.87223">
        <ele>110.97</ele>
        <time>2017-03-26T09:16:02Z</time>
      </trkpt>
      <trkpt lat="45.52608" lon="4.8723">
        <ele>110.65</ele>
        <time>2017-03-26T09:16:03Z</time>
      </trkpt>
      <trkpt lat="45.52618" lon="4.87238">
        <ele>110.42</ele>
        <time>2017-03-26T09:16:04Z</time>
      </trkpt>
      <trkpt lat="45.52627" lon="4.87245">
        <ele>110.22</ele>
        <time>2017-03-26T09:16:05Z</time>
      </trkpt>
      <trkpt lat="45.52637" lon="4.87252">
        <ele>109.86</ele>
        <time>2017-03-26T09:16:06Z</time>
      </trkpt>
      <trkpt lat="45.52647" lon="4.8726">
        <ele>109.47</ele>
        <time>2017-03-26T09:16:07Z</time>
      </trkpt>
      <trkpt lat="45.52657" lon="4.87267">
        <ele>109.07</ele>
        <time>2017-03-26T09:16:08Z</time>
      </trkpt>
      <trkpt lat="45.52666" lon="4.87274">
        <ele>108.35</ele>
        <time>2017-03-26T09:16:09Z</time>
      </trkpt>
      <trkpt lat="45.52674" lon="4.8728">
        <ele>107.56</ele>
        <time>2017-03-26T09:16:10Z</time>
      </trkpt>
      <trkpt lat="45.5268" lon="4.87285">
        <ele>107.09</ele>
        <time>2017-03-26T09:16:11Z</time>
      </trkpt>
      <trkpt lat="45.52686" lon="4.87289">
        <ele>106.75</ele>
        <time>2017-03-26T09:16:12Z</time>
      </trkpt>
      <trkpt lat="45.52689" lon="4.87291">
        <ele>106.52</ele>
        <time>2017-03-26T09:16:13Z</time>
      </trkpt>
      <trkpt lat="45.5269" lon="4.87293">
        <ele>106.16</ele>
        <time>2017-03-26T09:16:14Z</time>
      </trkpt>
      <trkpt lat="45.52691" lon="4.87293">
        <ele>105.85</ele>
        <time>2017-03-26T09:16:15Z</time>
      </trkpt>
      <trkpt lat="45.52691" lon="4.87294">
        <ele>105.46</ele>
        <time>2017-03-26T09:16:16Z</time>
      </trkpt>
      <trkpt lat="45.52691" lon="4.87294">
        <ele>105.55</ele>
        <time>2017-03-26T09:16:17Z</time>
      </trkpt>
      <trkpt lat="45.52691" lon="4.87294">
        <ele>105.56</ele>
        <time>2017-03-26T09:16:18Z</time>
      </trkpt>
      <trkpt lat="45.52691" lon="4.87294">
        <ele>105.57</ele>
        <time>2017-03-26T09:16:19Z</time>
      </trkpt>
      <trkpt lat="45.52691" lon="4.87294">
        <ele>105.57</ele>
        <time>2017-03-26T09:16:20Z</time>
      </trkpt>
      <trkpt lat="45.52691" lon="4.87294">
        <ele>105.57</ele>
        <time>2017-03-26T09:16:21Z</time>
      </trkpt>
      <trkpt lat="45.52691" lon="4.87294">
        <ele>105.57</ele>
        <time>2017-03-26T09:16:22Z</time>
      </trkpt>
      <trkpt lat="45.52691" lon="4.87294">
        <ele>105.57</ele>
        <time>2017-03-26T09:16:23Z</time>
      </trkpt>
      <trkpt lat="45.52691" lon="4.87294">
        <ele>105.57</ele>
        <time>2017-03-26T09:16:24Z</time>
      </trkpt>
      <trkpt lat="45.52691" lon="4.87294">
        <ele>105.57</ele>
        <time>2017-03-26T09:16:25Z</time>
      </trkpt>
      <trkpt lat="45.52691" lon="4.87294">
        <ele>105.57</ele>
        <time>2017-03-26T09:16:26Z</time>
      </trkpt>
      <trkpt lat="45.52691" lon="4.87294">
        <ele>105.57</ele>
        <time>2017-03-26T09:16:27Z</time>
      </trkpt>
      <trkpt lat="45.52691" lon="4.87294">
        <ele>105.57</ele>
        <time>2017-03-26T09:16:28Z</time>
      </trkpt>
      <trkpt lat="45.52691" lon="4.87294">
        <ele>105.57</ele>
        <time>2017-03-26T09:16:29Z</time>
      </trkpt>
      <trkpt lat="45.52691" lon="4.87294">
        <ele>105.57</ele>
        <time>2017-03-26T09:16:30Z</time>
      </trkpt>
      <trkpt lat="45.52691" lon="4.87294">
        <ele>105.57</ele>
        <time>2017-03-26T09:16:31Z</time>
      </trkpt>
      <trkpt lat="45.52691" lon="4.87294">
        <ele>105.57</ele>
        <time>2017-03-26T09:16:32Z</time>
      </trkpt>
      <trkpt lat="45.52691" lon="4.87294">
        <ele>105.57</ele>
        <time>2017-03-26T09:16:33Z</time>
      </trkpt>
      <trkpt lat="45.52691" lon="4.87294">
        <ele>105.57</ele>
        <time>2017-03-26T09:16:34Z</time>
      </trkpt>
      <trkpt lat="45.52691" lon="4.87294">
        <ele>105.57</ele>
        <time>2017-03-26T09:16:35Z</time>
      </trkpt>
      <trkpt lat="45.52694" lon="4.87298">
        <ele>105.17</ele>
        <time>2017-03-26T09:16:36Z</time>
      </trkpt>
      <trkpt lat="45.52699" lon="4.87302">
        <ele>105.09</ele>
        <time>2017-03-26T09:16:37Z</time>
      </trkpt>
      <trkpt lat="45.52706" lon="4.87308">
        <ele>104.99</ele>
        <time>2017-03-26T09:16:38Z</time>
      </trkpt>
      <trkpt lat="45.52714" lon="4.87314">
        <ele>105.13</ele>
        <time>2017-03-26T09:16:39Z</time>
      </trkpt>
      <trkpt lat="45.52722" lon="4.87321">
        <ele>105.08</ele>
        <time>2017-03-26T09:16:40Z</time>
      </trkpt>
      <trkpt lat="45.5273" lon="4.87328">
        <ele>105.15</ele>
        <time>2017-03-26T09:16:41Z</time>
      </trkpt>
      <trkpt lat="45.52738" lon="4.87334">
        <ele>105.08</ele>
        <time>2017-03-26T09:16:42Z</time>
      </trkpt>
      <trkpt lat="45.52746" lon="4.8734">
        <ele>105.31</ele>
        <time>2017-03-26T09:16:43Z</time>
      </trkpt>
      <trkpt lat="45.52752" lon="4.87345">
        <ele>105.44</ele>
        <time>2017-03-26T09:16:44Z</time>
      </trkpt>
      <trkpt lat="45.52757" lon="4.87349">
        <ele>105.78</ele>
        <time>2017-03-26T09:16:45Z</time>
      </trkpt>
      <trkpt lat="45.52762" lon="4.87352">
        <ele>105.93</ele>
        <time>2017-03-26T09:16:46Z</time>
      </trkpt>
      <trkpt lat="45.52764" lon="4.87354">
        <ele>106.2</ele>
        <time>2017-03-26T09:16:47Z</time>
      </trkpt>
      <trkpt lat="45.52766" lon="4.87355">
        <ele>106.17</ele>
        <time>2017-03-26T09:16:48Z</time>
      </trkpt>
      <trkpt lat="45.52768" lon="4.87356">
        <ele>106.25</ele>
        <time>2017-03-26T09:16:49Z</time>
      </trkpt>
      <trkpt lat="45.5277" lon="4.87357">
        <ele>106.34</ele>
        <time>2017-03-26T09:16:50Z</time>
      </trkpt>
      <trkpt lat="45.52773" lon="4.8736">
        <ele>106.44</ele>
        <time>2017-03-26T09:16:51Z</time>
      </trkpt>
      <trkpt lat="45.52777" lon="4.87363">
        <ele>106.54</ele>
        <time>2017-03-26T09:16:52Z</time>
      </trkpt>
      <trkpt lat="45.52781" lon="4.87367">
        <ele>106.64</ele>
        <time>2017-03-26T09:16:53Z</time>
      </trkpt>
      <trkpt lat="45.52787" lon="4.87371">
        <ele>106.66</ele>
        <time>2017-03-26T09:16:54Z</time>
      </trkpt>
      <trkpt lat="45.52792" lon="4.87375">
        <ele>106.75</ele>
        <time>2017-03-26T09:16:55Z</time>
      </trkpt>
      <trkpt lat="45.52798" lon="4.87378">
        <ele>106.76</ele>
        <time>2017-03-26T09:16:56Z</time>
      </trkpt>
      <trkpt lat="45.52803" lon="4.8738">
        <ele>106.61</ele>
        <time>2017-03-26T09:16:57Z</time>
      </trkpt>
      <trkpt lat="45.52808" lon="4.87381">
        <ele>106.65</ele>
        <time>2017-03-26T09:16:58Z</time>
      </trkpt>
      <trkpt lat="45.52812" lon="4.87379">
        <ele>106.66</ele>
        <time>2017-03-26T09:16:59Z</time>
      </trkpt>
      <trkpt lat="45.52815" lon="4.87376">
        <ele>106.51</ele>
        <time>2017-03-26T09:17:00Z</time>
      </trkpt>
      <trkpt lat="45.52816" lon="4.87373">
        <ele>106.31</ele>
        <time>2017-03-26T09:17:01Z</time>
      </trkpt>
      <trkpt lat="45.52816" lon="4.8737">
        <ele>106.6</ele>
        <time>2017-03-26T09:17:02Z</time>
      </trkpt>
      <trkpt lat="45.52816" lon="4.87369">
        <ele>106.65</ele>
        <time>2017-03-26T09:17:03Z</time>
      </trkpt>
      <trkpt lat="45.52816" lon="4.87368">
        <ele>106.66</ele>
        <time>2017-03-26T09:17:04Z</time>
      </trkpt>
      <trkpt lat="45.52816" lon="4.87368">
        <ele>106.67</ele>
        <time>2017-03-26T09:17:05Z</time>
      </trkpt>
      <trkpt lat="45.52816" lon="4.87368">
        <ele>106.67</ele>
        <time>2017-03-26T09:17:06Z</time>
      </trkpt>
      <trkpt lat="45.52816" lon="4.87368">
        <ele>106.67</ele>
        <time>2017-03-26T09:17:07Z</time>
      </trkpt>
      <trkpt lat="45.52816" lon="4.87368">
        <ele>106.67</ele>
        <time>2017-03-26T09:17:08Z</time>
      </trkpt>
      <trkpt lat="45.52816" lon="4.87368">
        <ele>106.67</ele>
        <time>2017-03-26T09:17:09Z</time>
      </trkpt>
      <trkpt lat="45.52816" lon="4.87368">
        <ele>106.67</ele>
        <time>2017-03-26T09:17:10Z</time>
      </trkpt>
      <trkpt lat="45.52816" lon="4.87368">
        <ele>106.67</ele>
        <time>2017-03-26T09:17:11Z</time>
      </trkpt>
      <trkpt lat="45.52816" lon="4.87368">
        <ele>106.67</ele>
        <time>2017-03-26T09:17:12Z</time>
      </trkpt>
      <trkpt lat="45.52816" lon="4.87368">
        <ele>106.67</ele>
        <time>2017-03-26T09:17:13Z</time>
      </trkpt>
      <trkpt lat="45.52816" lon="4.87368">
        <ele>106.67</ele>
        <time>2017-03-26T09:17:14Z</time>
      </trkpt>
      <trkpt lat="45.52816" lon="4.87368">
        <ele>106.67</ele>
        <time>2017-03-26T09:17:15Z</time>
      </trkpt>
      <trkpt lat="45.52816" lon="4.87368">
        <ele>106.67</ele>
        <time>2017-03-26T09:17:16Z</time>
      </trkpt>
      <trkpt lat="45.52817" lon="4.87364">
        <ele>106.67</ele>
        <time>2017-03-26T09:17:17Z</time>
      </trkpt>
      <trkpt lat="45.52818" lon="4.87358">
        <ele>106.75</ele>
        <time>2017-03-26T09:17:18Z</time>
      </trkpt>
      <trkpt lat="45.52819" lon="4.8735">
        <ele>106.76</ele>
        <time>2017-03-26T09:17:19Z</time>
      </trkpt>
      <trkpt lat="45.5282" lon="4.87343">
        <ele>106.69</ele>
        <time>2017-03-26T09:17:20Z</time>
      </trkpt>
      <trkpt lat="45.52821" lon="4.87334">
        <ele>106.67</ele>
        <time>2017-03-26T09:17:21Z</time>
      </trkpt>
      <trkpt lat="45.52823" lon="4.87324">
        <ele>106.67</ele>
        <time>2017-03-26T09:17:22Z</time>
      </trkpt>
      <trkpt lat="45.52825" lon="4.87314">
        <ele>106.83</ele>
        <time>2017-03-26T09:17:23Z</time>
      </trkpt>
      <trkpt lat="45.52827" lon="4.87303">
        <ele>107.1</ele>
        <time>2017-03-26T09:17:24Z</time>
      </trkpt>
      <trkpt lat="45.5283" lon="4.87293">
        <ele>107.31</ele>
        <time>2017-03-26T09:17:25Z</time>
      </trkpt>
      <trkpt lat="45.52832" lon="4.87282">
        <ele>107.44</ele>
        <time>2017-03-26T09:17:26Z</time>
      </trkpt>
      <trkpt lat="45.52835" lon="4.87271">
        <ele>107.7</ele>
        <time>2017-03-26T09:17:27Z</time>
      </trkpt>
      <trkpt lat="45.52837" lon="4.87259">
        <ele>107.83</ele>
        <time>2017-03-26T09:17:28Z</time>
      </trkpt>
      <trkpt lat="45.52839" lon="4.87247">
        <ele>107.94</ele>
        <time>2017-03-26T09:17:29Z</time>
      </trkpt>
      <trkpt lat="45.52842" lon="4.87235">
        <ele>107.88</ele>
        <time>2017-03-26T09:17:30Z</time>
      </trkpt>
      <trkpt lat="45.52844" lon="4.87223">
        <ele>107.63</ele>
        <time>2017-03-26T09:17:31Z</time>
      </trkpt>
      <trkpt lat="45.52847" lon="4.8721">
        <ele>107.34</ele>
        <time>2017-03-26T09:17:32Z</time>
      </trkpt>
      <trkpt lat="45.52849" lon="4.87197">
        <ele>107.04</ele>
        <time>2017-03-26T09:17:33Z</time>
      </trkpt>
      <trkpt lat="45.52852" lon="4.87183">
        <ele>106.66</ele>
        <time>2017-03-26T09:17:34Z</time>
      </trkpt>
      <trkpt lat="45.52855" lon="4.87169">
        <ele>106.43</ele>
        <time>2017-03-26T09:17:35Z</time>
      </trkpt>
      <trkpt lat="45.52858" lon="4.87154">
        <ele>106.22</ele>
        <time>2017-03-26T09:17:36Z</time>
      </trkpt>
      <trkpt lat="45.52861" lon="4.87139">
        <ele>105.86</ele>
        <time>2017-03-26T09:17:37Z</time>
      </trkpt>
      <trkpt lat="45.52864" lon="4.87125">
        <ele>105.63</ele>
        <time>2017-03-26T09:17:38Z</time>
      </trkpt>
      <trkpt lat="45.52867" lon="4.8711">
        <ele>105.26</ele>
        <time>2017-03-26T09:17:39Z</time>
      </trkpt>
      <trkpt lat="45.52871" lon="4.87096">
        <ele>104.87</ele>
        <time>2017-03-26T09:17:40Z</time>
      </trkpt>
      <trkpt lat="45.52874" lon="4.87083">
        <ele>104.47</ele>
        <time>2017-03-26T09:17:41Z</time>
      </trkpt>
      <trkpt lat="45.52877" lon="4.8707">
        <ele>104.07</ele>
        <time>2017-03-26T09:17:42Z</time>
      </trkpt>
      <trkpt lat="45.52879" lon="4.87058">
        <ele>103.67</ele>
        <time>2017-03-26T09:17:43Z</time>
      </trkpt>
      <trkpt lat="45.52883" lon="4.87046">
        <ele>104.23</ele>
        <time>2017-03-26T09:17:44Z</time>
      </trkpt>
      <trkpt lat="45.52887" lon="4.87033">
        <ele>105.14</ele>
        <time>2017-03-26T09:17:45Z</time>
      </trkpt>
      <trkpt lat="45.52891" lon="4.87019">
        <ele>105.64</ele>
        <time>2017-03-26T09:17:46Z</time>
      </trkpt>
      <trkpt lat="45.52894" lon="4.87005">
        <ele>105.58</ele>
        <time>2017-03-26T09:17:47Z</time>
      </trkpt>
      <trkpt lat="45.52897" lon="4.8699">
        <ele>105.65</ele>
        <time>2017-03-26T09:17:48Z</time>
      </trkpt>
      <trkpt lat="45.529" lon="4.86975">
        <ele>105.58</ele>
        <time>2017-03-26T09:17:49Z</time>
      </trkpt>
      <trkpt lat="45.52903" lon="4.86961">
        <ele>105.49</ele>
        <time>2017-03-26T09:17:50Z</time>
      </trkpt>
      <trkpt lat="45.52906" lon="4.86949">
        <ele>105.23</ele>
        <time>2017-03-26T09:17:51Z</time>
      </trkpt>
      <trkpt lat="45.52909" lon="4.86936">
        <ele>105.1</ele>
        <time>2017-03-26T09:17:52Z</time>
      </trkpt>
      <trkpt lat="45.52911" lon="4.86926">
        <ele>105.07</ele>
        <time>2017-03-26T09:17:53Z</time>
      </trkpt>
      <trkpt lat="45.52913" lon="4.86917">
        <ele>105.15</ele>
        <time>2017-03-26T09:17:54Z</time>
      </trkpt>
      <trkpt lat="45.52915" lon="4.86909">
        <ele>105.08</ele>
        <time>2017-03-26T09:17:55Z</time>
      </trkpt>
      <trkpt lat="45.52917" lon="4.86901">
        <ele>104.99</ele>
        <time>2017-03-26T09:17:56Z</time>
      </trkpt>
      <trkpt lat="45.52918" lon="4.86892">
        <ele>104.89</ele>
        <time>2017-03-26T09:17:57Z</time>
      </trkpt>
      <trkpt lat="45.52921" lon="4.86882">
        <ele>104.63</ele>
        <time>2017-03-26T09:17:58Z</time>
      </trkpt>
      <trkpt lat="45.52923" lon="4.86871">
        <ele>104.42</ele>
        <time>2017-03-26T09:17:59Z</time>
      </trkpt>
      <trkpt lat="45.52925" lon="4.86859">
        <ele>104.22</ele>
        <time>2017-03-26T09:18:00Z</time>
      </trkpt>
      <trkpt lat="45.52928" lon="4.86846">
        <ele>103.94</ele>
        <time>2017-03-26T09:18:01Z</time>
      </trkpt>
      <trkpt lat="45.5293" lon="4.86832">
        <ele>103.72</ele>
        <time>2017-03-26T09:18:02Z</time>
      </trkpt>
      <trkpt lat="45.52933" lon="4.86818">
        <ele>103.52</ele>
        <time>2017-03-26T09:18:03Z</time>
      </trkpt>
      <trkpt lat="45.52936" lon="4.86803">
        <ele>103.32</ele>
        <time>2017-03-26T09:18:04Z</time>
      </trkpt>
      <trkpt lat="45.5294" lon="4.86788">
        <ele>103.04</ele>
        <time>2017-03-26T09:18:05Z</time>
      </trkpt>
      <trkpt lat="45.52943" lon="4.86772">
        <ele>102.58</ele>
        <time>2017-03-26T09:18:06Z</time>
      </trkpt>
      <trkpt lat="45.52947" lon="4.86757">
        <ele>102.09</ele>
        <time>2017-03-26T09:18:07Z</time>
      </trkpt>
      <trkpt lat="45.5295" lon="4.8674">
        <ele>101.35</ele>
        <time>2017-03-26T09:18:08Z</time>
      </trkpt>
      <trkpt lat="45.52954" lon="4.86723">
        <ele>100.88</ele>
        <time>2017-03-26T09:18:09Z</time>
      </trkpt>
      <trkpt lat="45.52957" lon="4.86706">
        <ele>100.47</ele>
        <time>2017-03-26T09:18:10Z</time>
      </trkpt>
      <trkpt lat="45.52961" lon="4.8669">
        <ele>100.07</ele>
        <time>2017-03-26T09:18:11Z</time>
      </trkpt>
      <trkpt lat="45.52965" lon="4.86674">
        <ele>99.67</ele>
        <time>2017-03-26T09:18:12Z</time>
      </trkpt>
      <trkpt lat="45.52968" lon="4.86658">
        <ele>99.27</ele>
        <time>2017-03-26T09:18:13Z</time>
      </trkpt>
      <trkpt lat="45.52971" lon="4.86643">
        <ele>99.19</ele>
        <time>2017-03-26T09:18:14Z</time>
      </trkpt>
      <trkpt lat="45.52973" lon="4.86629">
        <ele>99.17</ele>
        <time>2017-03-26T09:18:15Z</time>
      </trkpt>
      <trkpt lat="45.52976" lon="4.86615">
        <ele>99.57</ele>
        <time>2017-03-26T09:18:16Z</time>
      </trkpt>
      <trkpt lat="45.52978" lon="4.86602">
        <ele>99.81</ele>
        <time>2017-03-26T09:18:17Z</time>
      </trkpt>
      <trkpt lat="45.5298" lon="4.86589">
        <ele>99.86</ele>
        <time>2017-03-26T09:18:18Z</time>
      </trkpt>
      <trkpt lat="45.52981" lon="4.86575">
        <ele>99.94</ele>
        <time>2017-03-26T09:18:19Z</time>
      </trkpt>
      <trkpt lat="45.52982" lon="4.86562">
        <ele>100.04</ele>
        <time>2017-03-26T09:18:20Z</time>
      </trkpt>
      <trkpt lat="45.52983" lon="4.8655">
        <ele>100.38</ele>
        <time>2017-03-26T09:18:21Z</time>
      </trkpt>
      <trkpt lat="45.52983" lon="4.8654">
        <ele>100.85</ele>
        <time>2017-03-26T09:18:22Z</time>
      </trkpt>
      <trkpt lat="45.52983" lon="4.86533">
        <ele>101.26</ele>
        <time>2017-03-26T09:18:23Z</time>
      </trkpt>
      <trkpt lat="45.52983" lon="4.86528">
        <ele>101.35</ele>
        <time>2017-03-26T09:18:24Z</time>
      </trkpt>
      <trkpt lat="45.52983" lon="4.86527">
        <ele>101.2</ele>
        <time>2017-03-26T09:18:25Z</time>
      </trkpt>
      <trkpt lat="45.52983" lon="4.86527">
        <ele>100.93</ele>
        <time>2017-03-26T09:18:26Z</time>
      </trkpt>
      <trkpt lat="45.52983" lon="4.86528">
        <ele>100.88</ele>
        <time>2017-03-26T09:18:27Z</time>
      </trkpt>
      <trkpt lat="45.52983" lon="4.86528">
        <ele>100.87</ele>
        <time>2017-03-26T09:18:28Z</time>
      </trkpt>
      <trkpt lat="45.52983" lon="4.86528">
        <ele>100.87</ele>
        <time>2017-03-26T09:18:29Z</time>
      </trkpt>
      <trkpt lat="45.52983" lon="4.86528">
        <ele>100.87</ele>
        <time>2017-03-26T09:18:30Z</time>
      </trkpt>
      <trkpt lat="45.52983" lon="4.86528">
        <ele>100.87</ele>
        <time>2017-03-26T09:18:31Z</time>
      </trkpt>
      <trkpt lat="45.52983" lon="4.86528">
        <ele>100.87</ele>
        <time>2017-03-26T09:18:32Z</time>
      </trkpt>
      <trkpt lat="45.52983" lon="4.86528">
        <ele>100.87</ele>
        <time>2017-03-26T09:18:33Z</time>
      </trkpt>
      <trkpt lat="45.52983" lon="4.86528">
        <ele>100.87</ele>
        <time>2017-03-26T09:18:34Z</time>
      </trkpt>
      <trkpt lat="45.52983" lon="4.86528">
        <ele>100.87</ele>
        <time>2017-03-26T09:18:35Z</time>
      </trkpt>
      <trkpt lat="45.52983" lon="4.86528">
        <ele>100.87</ele>
        <time>2017-03-26T09:18:36Z</time>
      </trkpt>
      <trkpt lat="45.52983" lon="4.86528">
        <ele>100.87</ele>
        <time>2017-03-26T09:18:37Z</time>
      </trkpt>
      <trkpt lat="45.52983" lon="4.86528">
        <ele>100.87</ele>
        <time>2017-03-26T09:18:38Z</time>
      </trkpt>
      <trkpt lat="45.52983" lon="4.86528">
        <ele>100.87</ele>
        <time>2017-03-26T09:18:39Z</time>
      </trkpt>
      <trkpt lat="45.52983" lon="4.86528">
        <ele>100.87</ele>
        <time>2017-03-26T09:18:40Z</time>
      </trkpt>
      <trkpt lat="45.52983" lon="4.86528">
        <ele>100.87</ele>
        <time>2017-03-26T09:18:41Z</time>
      </trkpt>
      <trkpt lat="45.52983" lon="4.86528">
        <ele>100.87</ele>
        <time>2017-03-26T09:18:42Z</time>
      </trkpt>
      <trkpt lat="45.52983" lon="4.86528">
        <ele>100.87</ele>
        <time>2017-03-26T09:18:43Z</time>
      </trkpt>
      <trkpt lat="45.52983" lon="4.86528">
        <ele>100.87</ele>
        <time>2017-03-26T09:18:44Z</time>
      </trkpt>
      <trkpt lat="45.52983" lon="4.86528">
        <ele>100.87</ele>
        <time>2017-03-26T09:18:45Z</time>
      </trkpt>
      <trkpt lat="45.52983" lon="4.86528">
        <ele>100.87</ele>
        <time>2017-03-26T09:18:46Z</time>
      </trkpt>
      <trkpt lat="45.52983" lon="4.86528">
        <ele>100.87</ele>
        <time>2017-03-26T09:18:47Z</time>
      </trkpt>
      <trkpt lat="45.52983" lon="4.86528">
        <ele>100.87</ele>
        <time>2017-03-26T09:18:48Z</time>
      </trkpt>
      <trkpt lat="45.52983" lon="4.86528">
        <ele>100.87</ele>
        <time>2017-03-26T09:18:49Z</time>
      </trkpt>
      <trkpt lat="45.52983" lon="4.86528">
        <ele>100.87</ele>
        <time>2017-03-26T09:18:50Z</time>
      </trkpt>
      <trkpt lat="45.52983" lon="4.86528">
        <ele>100.87</ele>
        <time>2017-03-26T09:18:51Z</time>
      </trkpt>
      <trkpt lat="45.52983" lon="4.86528">
        <ele>100.87</ele>
        <time>2017-03-26T09:18:52Z</time>
      </trkpt>
      <trkpt lat="45.52983" lon="4.86528">
        <ele>100.87</ele>
        <time>2017-03-26T09:18:53Z</time>
      </trkpt>
      <trkpt lat="45.52983" lon="4.86528">
        <ele>100.87</ele>
        <time>2017-03-26T09:18:54Z</time>
      </trkpt>
      <trkpt lat="45.52983" lon="4.86528">
        <ele>100.87</ele>
        <time>2017-03-26T09:18:55Z</time>
      </trkpt>
      <trkpt lat="45.52983" lon="4.86528">
        <ele>100.87</ele>
        <time>2017-03-26T09:18:56Z</time>
      </trkpt>
      <trkpt lat="45.52983" lon="4.86528">
        <ele>100.87</ele>
        <time>2017-03-26T09:18:57Z</time>
      </trkpt>
      <trkpt lat="45.52983" lon="4.86528">
        <ele>100.87</ele>
        <time>2017-03-26T09:18:58Z</time>
      </trkpt>
      <trkpt lat="45.52983" lon="4.86528">
        <ele>100.87</ele>
        <time>2017-03-26T09:18:59Z</time>
      </trkpt>
      <trkpt lat="45.52982" lon="4.86526">
        <ele>101.27</ele>
        <time>2017-03-26T09:19:00Z</time>
      </trkpt>
      <trkpt lat="45.52981" lon="4.86521">
        <ele>101.43</ele>
        <time>2017-03-26T09:19:01Z</time>
      </trkpt>
      <trkpt lat="45.52982" lon="4.86514">
        <ele>101.46</ele>
        <time>2017-03-26T09:19:02Z</time>
      </trkpt>
      <trkpt lat="45.52984" lon="4.86507">
        <ele>101.55</ele>
        <time>2017-03-26T09:19:03Z</time>
      </trkpt>
      <trkpt lat="45.52986" lon="4.86501">
        <ele>101.64</ele>
        <time>2017-03-26T09:19:04Z</time>
      </trkpt>
      <trkpt lat="45.52988" lon="4.86495">
        <ele>101.74</ele>
        <time>2017-03-26T09:19:05Z</time>
      </trkpt>
      <trkpt lat="45.52989" lon="4.86488">
        <ele>101.68</ele>
        <time>2017-03-26T09:19:06Z</time>
      </trkpt>
      <trkpt lat="45.5299" lon="4.8648">
        <ele>101.67</ele>
        <time>2017-03-26T09:19:07Z</time>
      </trkpt>
      <trkpt lat="45.52989" lon="4.86473">
        <ele>101.51</ele>
        <time>2017-03-26T09:19:08Z</time>
      </trkpt>
      <trkpt lat="45.52987" lon="4.86467">
        <ele>101.56</ele>
        <time>2017-03-26T09:19:09Z</time>
      </trkpt>
      <trkpt lat="45.52983" lon="4.86464">
        <ele>101.24</ele>
        <time>2017-03-26T09:19:10Z</time>
      </trkpt>
      <trkpt lat="45.52979" lon="4.86461">
        <ele>101.18</ele>
        <time>2017-03-26T09:19:11Z</time>
      </trkpt>
      <trkpt lat="45.52974" lon="4.86462">
        <ele>101.25</ele>
        <time>2017-03-26T09:19:12Z</time>
      </trkpt>
      <trkpt lat="45.5297" lon="4.86465">
        <ele>101.34</ele>
        <time>2017-03-26T09:19:13Z</time>
      </trkpt>
      <trkpt lat="45.52965" lon="4.8647">
        <ele>101.28</ele>
        <time>2017-03-26T09:19:14Z</time>
      </trkpt>
      <trkpt lat="45.52963" lon="4.86478">
        <ele>101.27</ele>
        <time>2017-03-26T09:19:15Z</time>
      </trkpt>
      <trkpt lat="45.52961" lon="4.86486">
        <ele>101.19</ele>
        <time>2017-03-26T09:19:16Z</time>
      </trkpt>
      <trkpt lat="45.52963" lon="4.86493">
        <ele>101.17</ele>
        <time>2017-03-26T09:19:17Z</time>
      </trkpt>
      <trkpt lat="45.52965" lon="4.86499">
        <ele>101.09</ele>
        <time>2017-03-26T09:19:18Z</time>
      </trkpt>
      <trkpt lat="45.52969" lon="4.86503">
        <ele>101.07</ele>
        <time>2017-03-26T09:19:19Z</time>
      </trkpt>
      <trkpt lat="45.52974" lon="4.86504">
        <ele>101.07</ele>
        <time>2017-03-26T09:19:20Z</time>
      </trkpt>
      <trkpt lat="45.52978" lon="4.86503">
        <ele>100.99</ele>
        <time>2017-03-26T09:19:21Z</time>
      </trkpt>
      <trkpt lat="45.52982" lon="4.86501">
        <ele>100.97</ele>
        <time>2017-03-26T09:19:22Z</time>
      </trkpt>
      <trkpt lat="45.52987" lon="4.86493">
        <ele>100.81</ele>
        <time>2017-03-26T09:19:23Z</time>
      </trkpt>
      <trkpt lat="45.5299" lon="4.86483">
        <ele>100.7</ele>
        <time>2017-03-26T09:19:24Z</time>
      </trkpt>
      <trkpt lat="45.52994" lon="4.86472">
        <ele>100.43</ele>
        <time>2017-03-26T09:19:25Z</time>
      </trkpt>
      <trkpt lat="45.52998" lon="4.86462">
        <ele>100.22</ele>
        <time>2017-03-26T09:19:26Z</time>
      </trkpt>
      <trkpt lat="45.53005" lon="4.86453">
        <ele>100.1</ele>
        <time>2017-03-26T09:19:27Z</time>
      </trkpt>
      <trkpt lat="45.53012" lon="4.86447">
        <ele>99.91</ele>
        <time>2017-03-26T09:19:28Z</time>
      </trkpt>
      <trkpt lat="45.53021" lon="4.86441">
        <ele>99.8</ele>
        <time>2017-03-26T09:19:29Z</time>
      </trkpt>
      <trkpt lat="45.53031" lon="4.86434">
        <ele>99.69</ele>
        <time>2017-03-26T09:19:30Z</time>
      </trkpt>
      <trkpt lat="45.53041" lon="4.86428">
        <ele>99.75</ele>
        <time>2017-03-26T09:19:31Z</time>
      </trkpt>
      <trkpt lat="45.53052" lon="4.86421">
        <ele>99.76</ele>
        <time>2017-03-26T09:19:32Z</time>
      </trkpt>
      <trkpt lat="45.53063" lon="4.86414">
        <ele>99.85</ele>
        <time>2017-03-26T09:19:33Z</time>
      </trkpt>
      <trkpt lat="45.53075" lon="4.86406">
        <ele>100.26</ele>
        <time>2017-03-26T09:19:34Z</time>
      </trkpt>
      <trkpt lat="45.53087" lon="4.86398">
        <ele>100.51</ele>
        <time>2017-03-26T09:19:35Z</time>
      </trkpt>
      <trkpt lat="45.53098" lon="4.8639">
        <ele>100.63</ele>
        <time>2017-03-26T09:19:36Z</time>
      </trkpt>
      <trkpt lat="45.53108" lon="4.86383">
        <ele>100.74</ele>
        <time>2017-03-26T09:19:37Z</time>
      </trkpt>
      <trkpt lat="45.53118" lon="4.86375">
        <ele>100.84</ele>
        <time>2017-03-26T09:19:38Z</time>
      </trkpt>
      <trkpt lat="45.53129" lon="4.86368">
        <ele>100.86</ele>
        <time>2017-03-26T09:19:39Z</time>
      </trkpt>
      <trkpt lat="45.5314" lon="4.8636">
        <ele>100.95</ele>
        <time>2017-03-26T09:19:40Z</time>
      </trkpt>
      <trkpt lat="45.53151" lon="4.86353">
        <ele>101.04</ele>
        <time>2017-03-26T09:19:41Z</time>
      </trkpt>
      <trkpt lat="45.53162" lon="4.86345">
        <ele>100.9</ele>
        <time>2017-03-26T09:19:42Z</time>
      </trkpt>
      <trkpt lat="45.53174" lon="4.86336">
        <ele>100.87</ele>
        <time>2017-03-26T09:19:43Z</time>
      </trkpt>
      <trkpt lat="45.53187" lon="4.86328">
        <ele>100.63</ele>
        <time>2017-03-26T09:19:44Z</time>
      </trkpt>
      <trkpt lat="45.53199" lon="4.86319">
        <ele>100.5</ele>
        <time>2017-03-26T09:19:45Z</time>
      </trkpt>
      <trkpt lat="45.53211" lon="4.8631">
        <ele>100.55</ele>
        <time>2017-03-26T09:19:46Z</time>
      </trkpt>
      <trkpt lat="45.53223" lon="4.86301">
        <ele>100.64</ele>
        <time>2017-03-26T09:19:47Z</time>
      </trkpt>
      <trkpt lat="45.53235" lon="4.86293">
        <ele>100.66</ele>
        <time>2017-03-26T09:19:48Z</time>
      </trkpt>
      <trkpt lat="45.53248" lon="4.86284">
        <ele>100.67</ele>
        <time>2017-03-26T09:19:49Z</time>
      </trkpt>
      <trkpt lat="45.5326" lon="4.86275">
        <ele>100.67</ele>
        <time>2017-03-26T09:19:50Z</time>
      </trkpt>
      <trkpt lat="45.53273" lon="4.86266">
        <ele>100.59</ele>
        <time>2017-03-26T09:19:51Z</time>
      </trkpt>
      <trkpt lat="45.53285" lon="4.86257">
        <ele>100.57</ele>
        <time>2017-03-26T09:19:52Z</time>
      </trkpt>
      <trkpt lat="45.53296" lon="4.86248">
        <ele>100.57</ele>
        <time>2017-03-26T09:19:53Z</time>
      </trkpt>
      <trkpt lat="45.53308" lon="4.86241">
        <ele>100.57</ele>
        <time>2017-03-26T09:19:54Z</time>
      </trkpt>
      <trkpt lat="45.5332" lon="4.86235">
        <ele>100.73</ele>
        <time>2017-03-26T09:19:55Z</time>
      </trkpt>
      <trkpt lat="45.53332" lon="4.8623">
        <ele>100.76</ele>
        <time>2017-03-26T09:19:56Z</time>
      </trkpt>
      <trkpt lat="45.53343" lon="4.86225">
        <ele>100.85</ele>
        <time>2017-03-26T09:19:57Z</time>
      </trkpt>
      <trkpt lat="45.53354" lon="4.8622">
        <ele>100.78</ele>
        <time>2017-03-26T09:19:58Z</time>
      </trkpt>
      <trkpt lat="45.53365" lon="4.86216">
        <ele>100.77</ele>
        <time>2017-03-26T09:19:59Z</time>
      </trkpt>
      <trkpt lat="45.53374" lon="4.86211">
        <ele>100.61</ele>
        <time>2017-03-26T09:20:00Z</time>
      </trkpt>
      <trkpt lat="45.53382" lon="4.86203">
        <ele>100.18</ele>
        <time>2017-03-26T09:20:01Z</time>
      </trkpt>
      <trkpt lat="45.53389" lon="4.86192">
        <ele>99.93</ele>
        <time>2017-03-26T09:20:02Z</time>
      </trkpt>
      <trkpt lat="45.53395" lon="4.86178">
        <ele>99.72</ele>
        <time>2017-03-26T09:20:03Z</time>
      </trkpt>
      <trkpt lat="45.534" lon="4.86164">
        <ele>99.6</ele>
        <time>2017-03-26T09:20:04Z</time>
      </trkpt>
      <trkpt lat="45.53405" lon="4.86148">
        <ele>99.41</ele>
        <time>2017-03-26T09:20:05Z</time>
      </trkpt>
      <trkpt lat="45.53408" lon="4.86133">
        <ele>99.46</ele>
        <time>2017-03-26T09:20:06Z</time>
      </trkpt>
      <trkpt lat="45.53412" lon="4.86118">
        <ele>99.38</ele>
        <time>2017-03-26T09:20:07Z</time>
      </trkpt>
      <trkpt lat="45.53417" lon="4.86105">
        <ele>99.37</ele>
        <time>2017-03-26T09:20:08Z</time>
      </trkpt>
      <trkpt lat="45.53424" lon="4.86095">
        <ele>99.53</ele>
        <time>2017-03-26T09:20:09Z</time>
      </trkpt>
      <trkpt lat="45.53432" lon="4.86085">
        <ele>99.8</ele>
        <time>2017-03-26T09:20:10Z</time>
      </trkpt>
      <trkpt lat="45.53441" lon="4.86078">
        <ele>99.85</ele>
        <time>2017-03-26T09:20:11Z</time>
      </trkpt>
      <trkpt lat="45.53451" lon="4.86072">
        <ele>100.02</ele>
        <time>2017-03-26T09:20:12Z</time>
      </trkpt>
      <trkpt lat="45.53461" lon="4.86066">
        <ele>100.14</ele>
        <time>2017-03-26T09:20:13Z</time>
      </trkpt>
      <trkpt lat="45.5347" lon="4.8606">
        <ele>100.32</ele>
        <time>2017-03-26T09:20:14Z</time>
      </trkpt>
      <trkpt lat="45.53479" lon="4.86053">
        <ele>100.28</ele>
        <time>2017-03-26T09:20:15Z</time>
      </trkpt>
      <trkpt lat="45.53486" lon="4.86047">
        <ele>100.43</ele>
        <time>2017-03-26T09:20:16Z</time>
      </trkpt>
      <trkpt lat="45.53493" lon="4.8604">
        <ele>100.7</ele>
        <time>2017-03-26T09:20:17Z</time>
      </trkpt>
      <trkpt lat="45.53498" lon="4.86032">
        <ele>100.75</ele>
        <time>2017-03-26T09:20:18Z</time>
      </trkpt>
      <trkpt lat="45.53501" lon="4.86024">
        <ele>100.76</ele>
        <time>2017-03-26T09:20:19Z</time>
      </trkpt>
      <trkpt lat="45.53501" lon="4.86017">
        <ele>100.69</ele>
        <time>2017-03-26T09:20:20Z</time>
      </trkpt>
      <trkpt lat="45.53498" lon="4.86011">
        <ele>100.91</ele>
        <time>2017-03-26T09:20:21Z</time>
      </trkpt>
      <trkpt lat="45.53493" lon="4.86004">
        <ele>101.44</ele>
        <time>2017-03-26T09:20:22Z</time>
      </trkpt>
      <trkpt lat="45.53488" lon="4.85995">
        <ele>101.86</ele>
        <time>2017-03-26T09:20:23Z</time>
      </trkpt>
      <trkpt lat="45.53484" lon="4.85985">
        <ele>102.19</ele>
        <time>2017-03-26T09:20:24Z</time>
      </trkpt>
      <trkpt lat="45.53483" lon="4.85973">
        <ele>102.81</ele>
        <time>2017-03-26T09:20:25Z</time>
      </trkpt>
      <trkpt lat="45.53484" lon="4.85961">
        <ele>103.34</ele>
        <time>2017-03-26T09:20:26Z</time>
      </trkpt>
      <trkpt lat="45.53488" lon="4.8595">
        <ele>104</ele>
        <time>2017-03-26T09:20:27Z</time>
      </trkpt>
      <trkpt lat="45.53496" lon="4.85939">
        <ele>104.53</ele>
        <time>2017-03-26T09:20:28Z</time>
      </trkpt>
      <trkpt lat="45.53503" lon="4.85929">
        <ele>105.28</ele>
        <time>2017-03-26T09:20:29Z</time>
      </trkpt>
      <trkpt lat="45.5351" lon="4.85917">
        <ele>105.83</ele>
        <time>2017-03-26T09:20:30Z</time>
      </trkpt>
      <trkpt lat="45.53517" lon="4.85907">
        <ele>106.18</ele>
        <time>2017-03-26T09:20:31Z</time>
      </trkpt>
      <trkpt lat="45.53524" lon="4.85896">
        <ele>106.49</ele>
        <time>2017-03-26T09:20:32Z</time>
      </trkpt>
      <trkpt lat="45.53531" lon="4.85886">
        <ele>106.87</ele>
        <time>2017-03-26T09:20:33Z</time>
      </trkpt>
      <trkpt lat="45.53537" lon="4.85876">
        <ele>107.27</ele>
        <time>2017-03-26T09:20:34Z</time>
      </trkpt>
      <trkpt lat="45.53544" lon="4.85867">
        <ele>107.99</ele>
        <time>2017-03-26T09:20:35Z</time>
      </trkpt>
      <trkpt lat="45.53549" lon="4.85858">
        <ele>108.21</ele>
        <time>2017-03-26T09:20:36Z</time>
      </trkpt>
      <trkpt lat="45.53555" lon="4.85849">
        <ele>108.42</ele>
        <time>2017-03-26T09:20:37Z</time>
      </trkpt>
      <trkpt lat="45.53559" lon="4.85838">
        <ele>109.42</ele>
        <time>2017-03-26T09:20:38Z</time>
      </trkpt>
      <trkpt lat="45.53565" lon="4.85823">
        <ele>110.02</ele>
        <time>2017-03-26T09:20:39Z</time>
      </trkpt>
      <trkpt lat="45.53571" lon="4.85806">
        <ele>110.78</ele>
        <time>2017-03-26T09:20:40Z</time>
      </trkpt>
      <trkpt lat="45.53576" lon="4.85789">
        <ele>111.41</ele>
        <time>2017-03-26T09:20:41Z</time>
      </trkpt>
      <trkpt lat="45.53581" lon="4.85772">
        <ele>112.1</ele>
        <time>2017-03-26T09:20:42Z</time>
      </trkpt>
      <trkpt lat="45.53585" lon="4.85756">
        <ele>112.71</ele>
        <time>2017-03-26T09:20:43Z</time>
      </trkpt>
      <trkpt lat="45.53588" lon="4.85739">
        <ele>113.24</ele>
        <time>2017-03-26T09:20:44Z</time>
      </trkpt>
      <trkpt lat="45.53592" lon="4.85723">
        <ele>114.14</ele>
        <time>2017-03-26T09:20:45Z</time>
      </trkpt>
      <trkpt lat="45.53595" lon="4.85707">
        <ele>115.12</ele>
        <time>2017-03-26T09:20:46Z</time>
      </trkpt>
      <trkpt lat="45.53597" lon="4.85692">
        <ele>116.04</ele>
        <time>2017-03-26T09:20:47Z</time>
      </trkpt>
      <trkpt lat="45.53598" lon="4.85677">
        <ele>116.7</ele>
        <time>2017-03-26T09:20:48Z</time>
      </trkpt>
      <trkpt lat="45.53598" lon="4.85661">
        <ele>117.63</ele>
        <time>2017-03-26T09:20:49Z</time>
      </trkpt>
      <trkpt lat="45.53595" lon="4.85646">
        <ele>118.86</ele>
        <time>2017-03-26T09:20:50Z</time>
      </trkpt>
      <trkpt lat="45.53591" lon="4.85632">
        <ele>119.75</ele>
        <time>2017-03-26T09:20:51Z</time>
      </trkpt>
      <trkpt lat="45.53585" lon="4.85619">
        <ele>120.56</ele>
        <time>2017-03-26T09:20:52Z</time>
      </trkpt>
      <trkpt lat="45.53578" lon="4.85609">
        <ele>121.37</ele>
        <time>2017-03-26T09:20:53Z</time>
      </trkpt>
      <trkpt lat="45.53566" lon="4.85601">
        <ele>122.01</ele>
        <time>2017-03-26T09:20:54Z</time>
      </trkpt>
      <trkpt lat="45.53555" lon="4.85597">
        <ele>122.93</ele>
        <time>2017-03-26T09:20:55Z</time>
      </trkpt>
      <trkpt lat="45.53542" lon="4.85595">
        <ele>123.6</ele>
        <time>2017-03-26T09:20:56Z</time>
      </trkpt>
      <trkpt lat="45.5353" lon="4.85596">
        <ele>124.13</ele>
        <time>2017-03-26T09:20:57Z</time>
      </trkpt>
      <trkpt lat="45.5352" lon="4.85602">
        <ele>124.8</ele>
        <time>2017-03-26T09:20:58Z</time>
      </trkpt>
      <trkpt lat="45.53511" lon="4.85612">
        <ele>125.41</ele>
        <time>2017-03-26T09:20:59Z</time>
      </trkpt>
      <trkpt lat="45.53503" lon="4.85625">
        <ele>126.1</ele>
        <time>2017-03-26T09:21:00Z</time>
      </trkpt>
      <trkpt lat="45.53494" lon="4.8564">
        <ele>126.79</ele>
        <time>2017-03-26T09:21:01Z</time>
      </trkpt>
      <trkpt lat="45.53487" lon="4.85654">
        <ele>127.65</ele>
        <time>2017-03-26T09:21:02Z</time>
      </trkpt>
      <trkpt lat="45.5348" lon="4.85669">
        <ele>128.38</ele>
        <time>2017-03-26T09:21:03Z</time>
      </trkpt>
      <trkpt lat="45.53472" lon="4.85683">
        <ele>129.09</ele>
        <time>2017-03-26T09:21:04Z</time>
      </trkpt>
      <trkpt lat="45.53465" lon="4.85697">
        <ele>129.79</ele>
        <time>2017-03-26T09:21:05Z</time>
      </trkpt>
      <trkpt lat="45.53456" lon="4.85711">
        <ele>130.57</ele>
        <time>2017-03-26T09:21:06Z</time>
      </trkpt>
      <trkpt lat="45.53447" lon="4.85724">
        <ele>131.29</ele>
        <time>2017-03-26T09:21:07Z</time>
      </trkpt>
      <trkpt lat="45.53436" lon="4.85733">
        <ele>131.83</ele>
        <time>2017-03-26T09:21:08Z</time>
      </trkpt>
      <trkpt lat="45.53421" lon="4.85742">
        <ele>132.9</ele>
        <time>2017-03-26T09:21:09Z</time>
      </trkpt>
      <trkpt lat="45.53407" lon="4.85743">
        <ele>134.07</ele>
        <time>2017-03-26T09:21:10Z</time>
      </trkpt>
      <trkpt lat="45.53394" lon="4.8574">
        <ele>135.03</ele>
        <time>2017-03-26T09:21:11Z</time>
      </trkpt>
      <trkpt lat="45.53379" lon="4.85738">
        <ele>135.7</ele>
        <time>2017-03-26T09:21:12Z</time>
      </trkpt>
      <trkpt lat="45.53362" lon="4.8574">
        <ele>136.71</ele>
        <time>2017-03-26T09:21:13Z</time>
      </trkpt>
      <trkpt lat="45.53344" lon="4.85744">
        <ele>137.64</ele>
        <time>2017-03-26T09:21:14Z</time>
      </trkpt>
      <trkpt lat="45.53326" lon="4.8575">
        <ele>138.46</ele>
        <time>2017-03-26T09:21:15Z</time>
      </trkpt>
      <trkpt lat="45.53307" lon="4.85756">
        <ele>139.43</ele>
        <time>2017-03-26T09:21:16Z</time>
      </trkpt>
      <trkpt lat="45.53288" lon="4.8576">
        <ele>140.26</ele>
        <time>2017-03-26T09:21:17Z</time>
      </trkpt>
      <trkpt lat="45.53269" lon="4.85764">
        <ele>141.15</ele>
        <time>2017-03-26T09:21:18Z</time>
      </trkpt>
      <trkpt lat="45.53251" lon="4.85767">
        <ele>142.12</ele>
        <time>2017-03-26T09:21:19Z</time>
      </trkpt>
      <trkpt lat="45.53234" lon="4.85765">
        <ele>143.04</ele>
        <time>2017-03-26T09:21:20Z</time>
      </trkpt>
      <trkpt lat="45.53217" lon="4.85758">
        <ele>143.94</ele>
        <time>2017-03-26T09:21:21Z</time>
      </trkpt>
      <trkpt lat="45.53201" lon="4.85747">
        <ele>144.84</ele>
        <time>2017-03-26T09:21:22Z</time>
      </trkpt>
      <trkpt lat="45.53185" lon="4.85735">
        <ele>145.82</ele>
        <time>2017-03-26T09:21:23Z</time>
      </trkpt>
      <trkpt lat="45.53172" lon="4.85724">
        <ele>146.74</ele>
        <time>2017-03-26T09:21:24Z</time>
      </trkpt>
      <trkpt lat="45.53159" lon="4.85715">
        <ele>147.72</ele>
        <time>2017-03-26T09:21:25Z</time>
      </trkpt>
      <trkpt lat="45.53148" lon="4.85709">
        <ele>148.72</ele>
        <time>2017-03-26T09:21:26Z</time>
      </trkpt>
      <trkpt lat="45.53138" lon="4.85709">
        <ele>149.8</ele>
        <time>2017-03-26T09:21:27Z</time>
      </trkpt>
      <trkpt lat="45.53133" lon="4.85714">
        <ele>150.89</ele>
        <time>2017-03-26T09:21:28Z</time>
      </trkpt>
      <trkpt lat="45.53131" lon="4.85723">
        <ele>151.91</ele>
        <time>2017-03-26T09:21:29Z</time>
      </trkpt>
      <trkpt lat="45.53133" lon="4.85736">
        <ele>153.4</ele>
        <time>2017-03-26T09:21:30Z</time>
      </trkpt>
      <trkpt lat="45.53138" lon="4.8575">
        <ele>154.81</ele>
        <time>2017-03-26T09:21:31Z</time>
      </trkpt>
      <trkpt lat="45.53143" lon="4.85765">
        <ele>156.06</ele>
        <time>2017-03-26T09:21:32Z</time>
      </trkpt>
      <trkpt lat="45.53147" lon="4.85782">
        <ele>157.18</ele>
        <time>2017-03-26T09:21:33Z</time>
      </trkpt>
      <trkpt lat="45.53148" lon="4.85801">
        <ele>158.77</ele>
        <time>2017-03-26T09:21:34Z</time>
      </trkpt>
      <trkpt lat="45.53145" lon="4.85818">
        <ele>160.21</ele>
        <time>2017-03-26T09:21:35Z</time>
      </trkpt>
      <trkpt lat="45.53139" lon="4.85834">
        <ele>161.54</ele>
        <time>2017-03-26T09:21:36Z</time>
      </trkpt>
      <trkpt lat="45.53132" lon="4.85848">
        <ele>162.68</ele>
        <time>2017-03-26T09:21:37Z</time>
      </trkpt>
      <trkpt lat="45.53122" lon="4.85859">
        <ele>163.87</ele>
        <time>2017-03-26T09:21:38Z</time>
      </trkpt>
      <trkpt lat="45.53109" lon="4.85868">
        <ele>164.83</ele>
        <time>2017-03-26T09:21:39Z</time>
      </trkpt>
      <trkpt lat="45.53093" lon="4.85876">
        <ele>165.9</ele>
        <time>2017-03-26T09:21:40Z</time>
      </trkpt>
      <trkpt lat="45.53078" lon="4.85882">
        <ele>166.91</ele>
        <time>2017-03-26T09:21:41Z</time>
      </trkpt>
      <trkpt lat="45.53064" lon="4.85888">
        <ele>168.16</ele>
        <time>2017-03-26T09:21:42Z</time>
      </trkpt>
      <trkpt lat="45.53051" lon="4.85892">
        <ele>169.44</ele>
        <time>2017-03-26T09:21:43Z</time>
      </trkpt>
      <trkpt lat="45.53038" lon="4.85895">
        <ele>170.42</ele>
        <time>2017-03-26T09:21:44Z</time>
      </trkpt>
      <trkpt lat="45.53025" lon="4.85895">
        <ele>171.26</ele>
        <time>2017-03-26T09:21:45Z</time>
      </trkpt>
      <trkpt lat="45.53013" lon="4.85891">
        <ele>172.47</ele>
        <time>2017-03-26T09:21:46Z</time>
      </trkpt>
      <trkpt lat="45.53003" lon="4.85885">
        <ele>173.35</ele>
        <time>2017-03-26T09:21:47Z</time>
      </trkpt>
      <trkpt lat="45.52994" lon="4.85873">
        <ele>174.32</ele>
        <time>2017-03-26T09:21:48Z</time>
      </trkpt>
      <trkpt lat="45.52987" lon="4.85859">
        <ele>175.4</ele>
        <time>2017-03-26T09:21:49Z</time>
      </trkpt>
      <trkpt lat="45.52979" lon="4.85844">
        <ele>176.97</ele>
        <time>2017-03-26T09:21:50Z</time>
      </trkpt>
      <trkpt lat="45.52971" lon="4.85829">
        <ele>178.17</ele>
        <time>2017-03-26T09:21:51Z</time>
      </trkpt>
      <trkpt lat="45.5296" lon="4.85813">
        <ele>179.37</ele>
        <time>2017-03-26T09:21:52Z</time>
      </trkpt>
      <trkpt lat="45.52949" lon="4.85798">
        <ele>180.81</ele>
        <time>2017-03-26T09:21:53Z</time>
      </trkpt>
      <trkpt lat="45.52936" lon="4.85785">
        <ele>181.9</ele>
        <time>2017-03-26T09:21:54Z</time>
      </trkpt>
      <trkpt lat="45.52922" lon="4.85774">
        <ele>183.07</ele>
        <time>2017-03-26T09:21:55Z</time>
      </trkpt>
      <trkpt lat="45.52908" lon="4.85766">
        <ele>184.03</ele>
        <time>2017-03-26T09:21:56Z</time>
      </trkpt>
      <trkpt lat="45.52892" lon="4.85763">
        <ele>185.42</ele>
        <time>2017-03-26T09:21:57Z</time>
      </trkpt>
      <trkpt lat="45.52877" lon="4.85761">
        <ele>186.82</ele>
        <time>2017-03-26T09:21:58Z</time>
      </trkpt>
      <trkpt lat="45.52863" lon="4.8576">
        <ele>188.78</ele>
        <time>2017-03-26T09:21:59Z</time>
      </trkpt>
      <trkpt lat="45.52849" lon="4.85755">
        <ele>190.61</ele>
        <time>2017-03-26T09:22:00Z</time>
      </trkpt>
      <trkpt lat="45.52838" lon="4.85744">
        <ele>192.5</ele>
        <time>2017-03-26T09:22:01Z</time>
      </trkpt>
      <trkpt lat="45.52827" lon="4.85731">
        <ele>194.39</ele>
        <time>2017-03-26T09:22:02Z</time>
      </trkpt>
      <trkpt lat="45.52823" lon="4.85713">
        <ele>196.45</ele>
        <time>2017-03-26T09:22:03Z</time>
      </trkpt>
      <trkpt lat="45.52822" lon="4.85693">
        <ele>198.54</ele>
        <time>2017-03-26T09:22:04Z</time>
      </trkpt>
      <trkpt lat="45.52826" lon="4.85672">
        <ele>200.64</ele>
        <time>2017-03-26T09:22:05Z</time>
      </trkpt>
      <trkpt lat="45.52835" lon="4.85652">
        <ele>202.58</ele>
        <time>2017-03-26T09:22:06Z</time>
      </trkpt>
      <trkpt lat="45.52848" lon="4.85635">
        <ele>204.49</ele>
        <time>2017-03-26T09:22:07Z</time>
      </trkpt>
      <trkpt lat="45.52864" lon="4.85621">
        <ele>206.23</ele>
        <time>2017-03-26T09:22:08Z</time>
      </trkpt>
      <trkpt lat="45.52882" lon="4.85609">
        <ele>208.18</ele>
        <time>2017-03-26T09:22:09Z</time>
      </trkpt>
      <trkpt lat="45.529" lon="4.85597">
        <ele>210.01</ele>
        <time>2017-03-26T09:22:10Z</time>
      </trkpt>
      <trkpt lat="45.52918" lon="4.85586">
        <ele>211.58</ele>
        <time>2017-03-26T09:22:11Z</time>
      </trkpt>
      <trkpt lat="45.52934" lon="4.85574">
        <ele>213.01</ele>
        <time>2017-03-26T09:22:12Z</time>
      </trkpt>
      <trkpt lat="45.52948" lon="4.85561">
        <ele>214.42</ele>
        <time>2017-03-26T09:22:13Z</time>
      </trkpt>
      <trkpt lat="45.52961" lon="4.85544">
        <ele>215.42</ele>
        <time>2017-03-26T09:22:14Z</time>
      </trkpt>
      <trkpt lat="45.52967" lon="4.85524">
        <ele>216.5</ele>
        <time>2017-03-26T09:22:15Z</time>
      </trkpt>
      <trkpt lat="45.5297" lon="4.85501">
        <ele>216.71</ele>
        <time>2017-03-26T09:22:16Z</time>
      </trkpt>
      <trkpt lat="45.52971" lon="4.85478">
        <ele>217.32</ele>
        <time>2017-03-26T09:22:17Z</time>
      </trkpt>
      <trkpt lat="45.52972" lon="4.85455">
        <ele>218.16</ele>
        <time>2017-03-26T09:22:18Z</time>
      </trkpt>
      <trkpt lat="45.52977" lon="4.85436">
        <ele>219.04</ele>
        <time>2017-03-26T09:22:19Z</time>
      </trkpt>
      <trkpt lat="45.52983" lon="4.85421">
        <ele>220.02</ele>
        <time>2017-03-26T09:22:20Z</time>
      </trkpt>
      <trkpt lat="45.52992" lon="4.85413">
        <ele>221.02</ele>
        <time>2017-03-26T09:22:21Z</time>
      </trkpt>
      <trkpt lat="45.53003" lon="4.85412">
        <ele>221.86</ele>
        <time>2017-03-26T09:22:22Z</time>
      </trkpt>
      <trkpt lat="45.53017" lon="4.85414">
        <ele>222.75</ele>
        <time>2017-03-26T09:22:23Z</time>
      </trkpt>
      <trkpt lat="45.53031" lon="4.85415">
        <ele>223.64</ele>
        <time>2017-03-26T09:22:24Z</time>
      </trkpt>
      <trkpt lat="45.53046" lon="4.8541">
        <ele>224.46</ele>
        <time>2017-03-26T09:22:25Z</time>
      </trkpt>
      <trkpt lat="45.53061" lon="4.85402">
        <ele>224.95</ele>
        <time>2017-03-26T09:22:26Z</time>
      </trkpt>
      <trkpt lat="45.53076" lon="4.85391">
        <ele>225.68</ele>
        <time>2017-03-26T09:22:27Z</time>
      </trkpt>
      <trkpt lat="45.53091" lon="4.85379">
        <ele>226.55</ele>
        <time>2017-03-26T09:22:28Z</time>
      </trkpt>
      <trkpt lat="45.53105" lon="4.85368">
        <ele>227.28</ele>
        <time>2017-03-26T09:22:29Z</time>
      </trkpt>
      <trkpt lat="45.53118" lon="4.85358">
        <ele>228.15</ele>
        <time>2017-03-26T09:22:30Z</time>
      </trkpt>
      <trkpt lat="45.53131" lon="4.85347">
        <ele>229.2</ele>
        <time>2017-03-26T09:22:31Z</time>
      </trkpt>
      <trkpt lat="45.53141" lon="4.85334">
        <ele>230.13</ele>
        <time>2017-03-26T09:22:32Z</time>
      </trkpt>
      <trkpt lat="45.53149" lon="4.85319">
        <ele>231.04</ele>
        <time>2017-03-26T09:22:33Z</time>
      </trkpt>
      <trkpt lat="45.53154" lon="4.85301">
        <ele>231.38</ele>
        <time>2017-03-26T09:22:34Z</time>
      </trkpt>
      <trkpt lat="45.53155" lon="4.85282">
        <ele>231.61</ele>
        <time>2017-03-26T09:22:35Z</time>
      </trkpt>
      <trkpt lat="45.53152" lon="4.85262">
        <ele>232.22</ele>
        <time>2017-03-26T09:22:36Z</time>
      </trkpt>
      <trkpt lat="45.53147" lon="4.85243">
        <ele>232.82</ele>
        <time>2017-03-26T09:22:37Z</time>
      </trkpt>
      <trkpt lat="45.53142" lon="4.85224">
        <ele>233.5</ele>
        <time>2017-03-26T09:22:38Z</time>
      </trkpt>
      <trkpt lat="45.5314" lon="4.85206">
        <ele>234.19</ele>
        <time>2017-03-26T09:22:39Z</time>
      </trkpt>
      <trkpt lat="45.53141" lon="4.85188">
        <ele>234.65</ele>
        <time>2017-03-26T09:22:40Z</time>
      </trkpt>
      <trkpt lat="45.53146" lon="4.85173">
        <ele>235.46</ele>
        <time>2017-03-26T09:22:41Z</time>
      </trkpt>
      <trkpt lat="45.53155" lon="4.85162">
        <ele>236.27</ele>
        <time>2017-03-26T09:22:42Z</time>
      </trkpt>
      <trkpt lat="45.53164" lon="4.85153">
        <ele>237.31</ele>
        <time>2017-03-26T09:22:43Z</time>
      </trkpt>
      <trkpt lat="45.53175" lon="4.85145">
        <ele>238.07</ele>
        <time>2017-03-26T09:22:44Z</time>
      </trkpt>
      <trkpt lat="45.53185" lon="4.85137">
        <ele>238.71</ele>
        <time>2017-03-26T09:22:45Z</time>
      </trkpt>
      <trkpt lat="45.53194" lon="4.85127">
        <ele>239.32</ele>
        <time>2017-03-26T09:22:46Z</time>
      </trkpt>
      <trkpt lat="45.53201" lon="4.85116">
        <ele>240</ele>
        <time>2017-03-26T09:22:47Z</time>
      </trkpt>
      <trkpt lat="45.53203" lon="4.85102">
        <ele>240.61</ele>
        <time>2017-03-26T09:22:48Z</time>
      </trkpt>
      <trkpt lat="45.53202" lon="4.85085">
        <ele>241.38</ele>
        <time>2017-03-26T09:22:49Z</time>
      </trkpt>
      <trkpt lat="45.53198" lon="4.85066">
        <ele>242.33</ele>
        <time>2017-03-26T09:22:50Z</time>
      </trkpt>
      <trkpt lat="45.53191" lon="4.85042">
        <ele>243.16</ele>
        <time>2017-03-26T09:22:51Z</time>
      </trkpt>
      <trkpt lat="45.53184" lon="4.85016">
        <ele>243.89</ele>
        <time>2017-03-26T09:22:52Z</time>
      </trkpt>
      <trkpt lat="45.53178" lon="4.84989">
        <ele>244.75</ele>
        <time>2017-03-26T09:22:53Z</time>
      </trkpt>
      <trkpt lat="45.53174" lon="4.84962">
        <ele>245.48</ele>
        <time>2017-03-26T09:22:54Z</time>
      </trkpt>
      <trkpt lat="45.5317" lon="4.84934">
        <ele>246.27</ele>
        <time>2017-03-26T09:22:55Z</time>
      </trkpt>
      <trkpt lat="45.53167" lon="4.84908">
        <ele>246.91</ele>
        <time>2017-03-26T09:22:56Z</time>
      </trkpt>
      <trkpt lat="45.53163" lon="4.84881">
        <ele>246.96</ele>
        <time>2017-03-26T09:22:57Z</time>
      </trkpt>
      <trkpt lat="45.53159" lon="4.84856">
        <ele>247.36</ele>
        <time>2017-03-26T09:22:58Z</time>
      </trkpt>
      <trkpt lat="45.53152" lon="4.84832">
        <ele>247.77</ele>
        <time>2017-03-26T09:22:59Z</time>
      </trkpt>
      <trkpt lat="45.53144" lon="4.84809">
        <ele>248.09</ele>
        <time>2017-03-26T09:23:00Z</time>
      </trkpt>
      <trkpt lat="45.53133" lon="4.84788">
        <ele>248.07</ele>
        <time>2017-03-26T09:23:01Z</time>
      </trkpt>
      <trkpt lat="45.53121" lon="4.84767">
        <ele>248.23</ele>
        <time>2017-03-26T09:23:02Z</time>
      </trkpt>
      <trkpt lat="45.53109" lon="4.84746">
        <ele>248.42</ele>
        <time>2017-03-26T09:23:03Z</time>
      </trkpt>
      <trkpt lat="45.53098" lon="4.84725">
        <ele>248.62</ele>
        <time>2017-03-26T09:23:04Z</time>
      </trkpt>
      <trkpt lat="45.53088" lon="4.84702">
        <ele>248.82</ele>
        <time>2017-03-26T09:23:05Z</time>
      </trkpt>
      <trkpt lat="45.53078" lon="4.84676">
        <ele>249.26</ele>
        <time>2017-03-26T09:23:06Z</time>
      </trkpt>
      <trkpt lat="45.53069" lon="4.84648">
        <ele>249.82</ele>
        <time>2017-03-26T09:23:07Z</time>
      </trkpt>
      <trkpt lat="45.5306" lon="4.84619">
        <ele>250.34</ele>
        <time>2017-03-26T09:23:08Z</time>
      </trkpt>
      <trkpt lat="45.53052" lon="4.84589">
        <ele>251.08</ele>
        <time>2017-03-26T09:23:09Z</time>
      </trkpt>
      <trkpt lat="45.53042" lon="4.84557">
        <ele>251.79</ele>
        <time>2017-03-26T09:23:10Z</time>
      </trkpt>
      <trkpt lat="45.53033" lon="4.84524">
        <ele>252.57</ele>
        <time>2017-03-26T09:23:11Z</time>
      </trkpt>
      <trkpt lat="45.53023" lon="4.84491">
        <ele>253.37</ele>
        <time>2017-03-26T09:23:12Z</time>
      </trkpt>
      <trkpt lat="45.53012" lon="4.84458">
        <ele>254.25</ele>
        <time>2017-03-26T09:23:13Z</time>
      </trkpt>
      <trkpt lat="45.53" lon="4.84425">
        <ele>255.22</ele>
        <time>2017-03-26T09:23:14Z</time>
      </trkpt>
      <trkpt lat="45.52987" lon="4.84392">
        <ele>255.98</ele>
        <time>2017-03-26T09:23:15Z</time>
      </trkpt>
      <trkpt lat="45.52974" lon="4.8436">
        <ele>256.85</ele>
        <time>2017-03-26T09:23:16Z</time>
      </trkpt>
      <trkpt lat="45.52961" lon="4.84329">
        <ele>257.74</ele>
        <time>2017-03-26T09:23:17Z</time>
      </trkpt>
      <trkpt lat="45.52948" lon="4.84298">
        <ele>258.96</ele>
        <time>2017-03-26T09:23:18Z</time>
      </trkpt>
      <trkpt lat="45.52935" lon="4.84266">
        <ele>260.33</ele>
        <time>2017-03-26T09:23:19Z</time>
      </trkpt>
      <trkpt lat="45.52921" lon="4.84235">
        <ele>261.72</ele>
        <time>2017-03-26T09:23:20Z</time>
      </trkpt>
      <trkpt lat="45.52908" lon="4.84204">
        <ele>263.04</ele>
        <time>2017-03-26T09:23:21Z</time>
      </trkpt>
      <trkpt lat="45.52895" lon="4.84173">
        <ele>264.5</ele>
        <time>2017-03-26T09:23:22Z</time>
      </trkpt>
      <trkpt lat="45.52881" lon="4.84142">
        <ele>265.91</ele>
        <time>2017-03-26T09:23:23Z</time>
      </trkpt>
      <trkpt lat="45.52867" lon="4.84111">
        <ele>267.24</ele>
        <time>2017-03-26T09:23:24Z</time>
      </trkpt>
      <trkpt lat="45.52854" lon="4.8408">
        <ele>268.54</ele>
        <time>2017-03-26T09:23:25Z</time>
      </trkpt>
      <trkpt lat="45.5284" lon="4.8405">
        <ele>269.92</ele>
        <time>2017-03-26T09:23:26Z</time>
      </trkpt>
      <trkpt lat="45.52827" lon="4.84019">
        <ele>271.32</ele>
        <time>2017-03-26T09:23:27Z</time>
      </trkpt>
      <trkpt lat="45.52814" lon="4.83988">
        <ele>272.56</ele>
        <time>2017-03-26T09:23:28Z</time>
      </trkpt>
      <trkpt lat="45.528" lon="4.83957">
        <ele>274.01</ele>
        <time>2017-03-26T09:23:29Z</time>
      </trkpt>
      <trkpt lat="45.52787" lon="4.83927">
        <ele>275.33</ele>
        <time>2017-03-26T09:23:30Z</time>
      </trkpt>
      <trkpt lat="45.52774" lon="4.83897">
        <ele>276.64</ele>
        <time>2017-03-26T09:23:31Z</time>
      </trkpt>
      <trkpt lat="45.52761" lon="4.83868">
        <ele>278.18</ele>
        <time>2017-03-26T09:23:32Z</time>
      </trkpt>
      <trkpt lat="45.5275" lon="4.83838">
        <ele>279.53</ele>
        <time>2017-03-26T09:23:33Z</time>
      </trkpt>
      <trkpt lat="45.52741" lon="4.8381">
        <ele>280.6</ele>
        <time>2017-03-26T09:23:34Z</time>
      </trkpt>
      <trkpt lat="45.52735" lon="4.83781">
        <ele>280.97</ele>
        <time>2017-03-26T09:23:35Z</time>
      </trkpt>
      <trkpt lat="45.52734" lon="4.8375">
        <ele>281.61</ele>
        <time>2017-03-26T09:23:36Z</time>
      </trkpt>
      <trkpt lat="45.52734" lon="4.83718">
        <ele>282.54</ele>
        <time>2017-03-26T09:23:37Z</time>
      </trkpt>
      <trkpt lat="45.52735" lon="4.83685">
        <ele>283.36</ele>
        <time>2017-03-26T09:23:38Z</time>
      </trkpt>
      <trkpt lat="45.52736" lon="4.83652">
        <ele>284.25</ele>
        <time>2017-03-26T09:23:39Z</time>
      </trkpt>
      <trkpt lat="45.52737" lon="4.83618">
        <ele>285.22</ele>
        <time>2017-03-26T09:23:40Z</time>
      </trkpt>
      <trkpt lat="45.52739" lon="4.83584">
        <ele>286.3</ele>
        <time>2017-03-26T09:23:41Z</time>
      </trkpt>
      <trkpt lat="45.5274" lon="4.83552">
        <ele>287.55</ele>
        <time>2017-03-26T09:23:42Z</time>
      </trkpt>
      <trkpt lat="45.52741" lon="4.83519">
        <ele>288.92</ele>
        <time>2017-03-26T09:23:43Z</time>
      </trkpt>
      <trkpt lat="45.52743" lon="4.83488">
        <ele>290.4</ele>
        <time>2017-03-26T09:23:44Z</time>
      </trkpt>
      <trkpt lat="45.52745" lon="4.83457">
        <ele>291.89</ele>
        <time>2017-03-26T09:23:45Z</time>
      </trkpt>
      <trkpt lat="45.52747" lon="4.83428">
        <ele>293.31</ele>
        <time>2017-03-26T09:23:46Z</time>
      </trkpt>
      <trkpt lat="45.52748" lon="4.834">
        <ele>294.64</ele>
        <time>2017-03-26T09:23:47Z</time>
      </trkpt>
      <trkpt lat="45.5275" lon="4.83372">
        <ele>295.94</ele>
        <time>2017-03-26T09:23:48Z</time>
      </trkpt>
      <trkpt lat="45.52751" lon="4.83343">
        <ele>297.4</ele>
        <time>2017-03-26T09:23:49Z</time>
      </trkpt>
      <trkpt lat="45.52752" lon="4.83315">
        <ele>298.65</ele>
        <time>2017-03-26T09:23:50Z</time>
      </trkpt>
      <trkpt lat="45.52753" lon="4.83286">
        <ele>299.78</ele>
        <time>2017-03-26T09:23:51Z</time>
      </trkpt>
      <trkpt lat="45.52753" lon="4.83258">
        <ele>300.73</ele>
        <time>2017-03-26T09:23:52Z</time>
      </trkpt>
      <trkpt lat="45.52752" lon="4.8323">
        <ele>301.64</ele>
        <time>2017-03-26T09:23:53Z</time>
      </trkpt>
      <trkpt lat="45.52749" lon="4.83203">
        <ele>302.54</ele>
        <time>2017-03-26T09:23:54Z</time>
      </trkpt>
      <trkpt lat="45.52745" lon="4.83177">
        <ele>303.36</ele>
        <time>2017-03-26T09:23:55Z</time>
      </trkpt>
      <trkpt lat="45.52741" lon="4.83153">
        <ele>304.25</ele>
        <time>2017-03-26T09:23:56Z</time>
      </trkpt>
      <trkpt lat="45.5274" lon="4.8313">
        <ele>304.82</ele>
        <time>2017-03-26T09:23:57Z</time>
      </trkpt>
      <trkpt lat="45.52744" lon="4.83108">
        <ele>305.5</ele>
        <time>2017-03-26T09:23:58Z</time>
      </trkpt>
      <trkpt lat="45.52752" lon="4.83088">
        <ele>306.19</ele>
        <time>2017-03-26T09:23:59Z</time>
      </trkpt>
      <trkpt lat="45.52764" lon="4.83073">
        <ele>306.57</ele>
        <time>2017-03-26T09:24:00Z</time>
      </trkpt>
      <trkpt lat="45.5278" lon="4.83063">
        <ele>307.37</ele>
        <time>2017-03-26T09:24:01Z</time>
      </trkpt>
      <trkpt lat="45.52796" lon="4.83055">
        <ele>307.93</ele>
        <time>2017-03-26T09:24:02Z</time>
      </trkpt>
      <trkpt lat="45.52813" lon="4.83044">
        <ele>308.52</ele>
        <time>2017-03-26T09:24:03Z</time>
      </trkpt>
      <trkpt lat="45.52826" lon="4.83029">
        <ele>309.12</ele>
        <time>2017-03-26T09:24:04Z</time>
      </trkpt>
      <trkpt lat="45.52837" lon="4.8301">
        <ele>309.8</ele>
        <time>2017-03-26T09:24:05Z</time>
      </trkpt>
      <trkpt lat="45.52843" lon="4.82986">
        <ele>310.57</ele>
        <time>2017-03-26T09:24:06Z</time>
      </trkpt>
      <trkpt lat="45.52846" lon="4.82957">
        <ele>310.97</ele>
        <time>2017-03-26T09:24:07Z</time>
      </trkpt>
      <trkpt lat="45.52847" lon="4.82927">
        <ele>311.61</ele>
        <time>2017-03-26T09:24:08Z</time>
      </trkpt>
      <trkpt lat="45.52848" lon="4.82895">
        <ele>312.14</ele>
        <time>2017-03-26T09:24:09Z</time>
      </trkpt>
      <trkpt lat="45.52849" lon="4.82862">
        <ele>312.48</ele>
        <time>2017-03-26T09:24:10Z</time>
      </trkpt>
      <trkpt lat="45.52851" lon="4.8283">
        <ele>312.79</ele>
        <time>2017-03-26T09:24:11Z</time>
      </trkpt>
      <trkpt lat="45.52853" lon="4.82798">
        <ele>313.41</ele>
        <time>2017-03-26T09:24:12Z</time>
      </trkpt>
      <trkpt lat="45.52854" lon="4.82766">
        <ele>313.7</ele>
        <time>2017-03-26T09:24:13Z</time>
      </trkpt>
      <trkpt lat="45.52855" lon="4.82735">
        <ele>313.99</ele>
        <time>2017-03-26T09:24:14Z</time>
      </trkpt>
      <trkpt lat="45.52857" lon="4.82703">
        <ele>314.13</ele>
        <time>2017-03-26T09:24:15Z</time>
      </trkpt>
      <trkpt lat="45.52857" lon="4.82672">
        <ele>313.92</ele>
        <time>2017-03-26T09:24:16Z</time>
      </trkpt>
      <trkpt lat="45.52859" lon="4.8264">
        <ele>313.56</ele>
        <time>2017-03-26T09:24:17Z</time>
      </trkpt>
      <trkpt lat="45.5286" lon="4.82608">
        <ele>312.93</ele>
        <time>2017-03-26T09:24:18Z</time>
      </trkpt>
      <trkpt lat="45.52861" lon="4.82575">
        <ele>312.4</ele>
        <time>2017-03-26T09:24:19Z</time>
      </trkpt>
      <trkpt lat="45.52863" lon="4.82543">
        <ele>311.73</ele>
        <time>2017-03-26T09:24:20Z</time>
      </trkpt>
      <trkpt lat="45.52867" lon="4.82511">
        <ele>310.88</ele>
        <time>2017-03-26T09:24:21Z</time>
      </trkpt>
      <trkpt lat="45.52876" lon="4.8248">
        <ele>309.99</ele>
        <time>2017-03-26T09:24:22Z</time>
      </trkpt>
      <trkpt lat="45.52889" lon="4.82451">
        <ele>309.09</ele>
        <time>2017-03-26T09:24:23Z</time>
      </trkpt>
      <trkpt lat="45.52904" lon="4.82423">
        <ele>308.59</ele>
        <time>2017-03-26T09:24:24Z</time>
      </trkpt>
      <trkpt lat="45.5292" lon="4.82397">
        <ele>308.41</ele>
        <time>2017-03-26T09:24:25Z</time>
      </trkpt>
      <trkpt lat="45.52938" lon="4.82371">
        <ele>308.38</ele>
        <time>2017-03-26T09:24:26Z</time>
      </trkpt>
      <trkpt lat="45.52955" lon="4.82344">
        <ele>308.69</ele>
        <time>2017-03-26T09:24:27Z</time>
      </trkpt>
      <trkpt lat="45.52971" lon="4.82315">
        <ele>309.23</ele>
        <time>2017-03-26T09:24:28Z</time>
      </trkpt>
      <trkpt lat="45.52984" lon="4.82284">
        <ele>309.82</ele>
        <time>2017-03-26T09:24:29Z</time>
      </trkpt>
      <trkpt lat="45.52994" lon="4.82251">
        <ele>310.66</ele>
        <time>2017-03-26T09:24:30Z</time>
      </trkpt>
      <trkpt lat="45.53004" lon="4.82217">
        <ele>311.79</ele>
        <time>2017-03-26T09:24:31Z</time>
      </trkpt>
      <trkpt lat="45.53013" lon="4.82183">
        <ele>312.81</ele>
        <time>2017-03-26T09:24:32Z</time>
      </trkpt>
      <trkpt lat="45.53023" lon="4.82149">
        <ele>313.74</ele>
        <time>2017-03-26T09:24:33Z</time>
      </trkpt>
      <trkpt lat="45.53033" lon="4.82116">
        <ele>314.48</ele>
        <time>2017-03-26T09:24:34Z</time>
      </trkpt>
      <trkpt lat="45.53044" lon="4.82082">
        <ele>314.79</ele>
        <time>2017-03-26T09:24:35Z</time>
      </trkpt>
      <trkpt lat="45.53055" lon="4.82048">
        <ele>315.09</ele>
        <time>2017-03-26T09:24:36Z</time>
      </trkpt>
      <trkpt lat="45.53065" lon="4.82013">
        <ele>315.55</ele>
        <time>2017-03-26T09:24:37Z</time>
      </trkpt>
      <trkpt lat="45.53076" lon="4.81978">
        <ele>316.12</ele>
        <time>2017-03-26T09:24:38Z</time>
      </trkpt>
      <trkpt lat="45.53086" lon="4.81942">
        <ele>317.36</ele>
        <time>2017-03-26T09:24:39Z</time>
      </trkpt>
      <trkpt lat="45.53094" lon="4.81906">
        <ele>318.41</ele>
        <time>2017-03-26T09:24:40Z</time>
      </trkpt>
      <trkpt lat="45.53101" lon="4.81869">
        <ele>319.73</ele>
        <time>2017-03-26T09:24:41Z</time>
      </trkpt>
      <trkpt lat="45.53106" lon="4.81832">
        <ele>320.96</ele>
        <time>2017-03-26T09:24:42Z</time>
      </trkpt>
      <trkpt lat="45.53112" lon="4.81795">
        <ele>322.65</ele>
        <time>2017-03-26T09:24:43Z</time>
      </trkpt>
      <trkpt lat="45.53118" lon="4.81758">
        <ele>324.26</ele>
        <time>2017-03-26T09:24:44Z</time>
      </trkpt>
      <trkpt lat="45.53123" lon="4.81721">
        <ele>325.87</ele>
        <time>2017-03-26T09:24:45Z</time>
      </trkpt>
      <trkpt lat="45.53128" lon="4.81684">
        <ele>327.47</ele>
        <time>2017-03-26T09:24:46Z</time>
      </trkpt>
      <trkpt lat="45.53133" lon="4.81647">
        <ele>329.23</ele>
        <time>2017-03-26T09:24:47Z</time>
      </trkpt>
      <trkpt lat="45.53139" lon="4.81611">
        <ele>331.02</ele>
        <time>2017-03-26T09:24:48Z</time>
      </trkpt>
      <trkpt lat="45.53145" lon="4.81575">
        <ele>332.98</ele>
        <time>2017-03-26T09:24:49Z</time>
      </trkpt>
      <trkpt lat="45.5315" lon="4.81539">
        <ele>335.05</ele>
        <time>2017-03-26T09:24:50Z</time>
      </trkpt>
      <trkpt lat="45.53155" lon="4.81504">
        <ele>336.98</ele>
        <time>2017-03-26T09:24:51Z</time>
      </trkpt>
      <trkpt lat="45.5316" lon="4.81471">
        <ele>338.97</ele>
        <time>2017-03-26T09:24:52Z</time>
      </trkpt>
      <trkpt lat="45.53165" lon="4.8144">
        <ele>341.13</ele>
        <time>2017-03-26T09:24:53Z</time>
      </trkpt>
      <trkpt lat="45.53169" lon="4.81409">
        <ele>343.16</ele>
        <time>2017-03-26T09:24:54Z</time>
      </trkpt>
      <trkpt lat="45.53172" lon="4.81377">
        <ele>345.25</ele>
        <time>2017-03-26T09:24:55Z</time>
      </trkpt>
      <trkpt lat="45.53171" lon="4.81345">
        <ele>346.78</ele>
        <time>2017-03-26T09:24:56Z</time>
      </trkpt>
      <trkpt lat="45.53169" lon="4.81313">
        <ele>348.13</ele>
        <time>2017-03-26T09:24:57Z</time>
      </trkpt>
      <trkpt lat="45.53164" lon="4.81285">
        <ele>349.28</ele>
        <time>2017-03-26T09:24:58Z</time>
      </trkpt>
      <trkpt lat="45.53161" lon="4.81259">
        <ele>350.39</ele>
        <time>2017-03-26T09:24:59Z</time>
      </trkpt>
      <trkpt lat="45.53162" lon="4.81235">
        <ele>351.41</ele>
        <time>2017-03-26T09:25:00Z</time>
      </trkpt>
      <trkpt lat="45.53163" lon="4.81213">
        <ele>352.42</ele>
        <time>2017-03-26T09:25:01Z</time>
      </trkpt>
      <trkpt lat="45.53161" lon="4.81193">
        <ele>353.58</ele>
        <time>2017-03-26T09:25:02Z</time>
      </trkpt>
      <trkpt lat="45.53155" lon="4.81172">
        <ele>354.53</ele>
        <time>2017-03-26T09:25:03Z</time>
      </trkpt>
      <trkpt lat="45.53145" lon="4.81153">
        <ele>355.28</ele>
        <time>2017-03-26T09:25:04Z</time>
      </trkpt>
      <trkpt lat="45.53135" lon="4.81135">
        <ele>355.83</ele>
        <time>2017-03-26T09:25:05Z</time>
      </trkpt>
      <trkpt lat="45.53123" lon="4.81119">
        <ele>356.26</ele>
        <time>2017-03-26T09:25:06Z</time>
      </trkpt>
      <trkpt lat="45.53102" lon="4.81113">
        <ele>356.67</ele>
        <time>2017-03-26T09:25:07Z</time>
      </trkpt>
      <trkpt lat="45.53084" lon="4.81101">
        <ele>357.39</ele>
        <time>2017-03-26T09:25:08Z</time>
      </trkpt>
      <trkpt lat="45.53066" lon="4.81087">
        <ele>358.17</ele>
        <time>2017-03-26T09:25:09Z</time>
      </trkpt>
      <trkpt lat="45.53048" lon="4.81073">
        <ele>358.97</ele>
        <time>2017-03-26T09:25:10Z</time>
      </trkpt>
      <trkpt lat="45.5303" lon="4.81061">
        <ele>359.77</ele>
        <time>2017-03-26T09:25:11Z</time>
      </trkpt>
      <trkpt lat="45.53012" lon="4.81051">
        <ele>360.89</ele>
        <time>2017-03-26T09:25:12Z</time>
      </trkpt>
      <trkpt lat="45.52993" lon="4.81041">
        <ele>361.99</ele>
        <time>2017-03-26T09:25:13Z</time>
      </trkpt>
      <trkpt lat="45.52976" lon="4.81027">
        <ele>362.85</ele>
        <time>2017-03-26T09:25:14Z</time>
      </trkpt>
      <trkpt lat="45.52959" lon="4.81011">
        <ele>363.82</ele>
        <time>2017-03-26T09:25:15Z</time>
      </trkpt>
      <trkpt lat="45.52951" lon="4.8099">
        <ele>364.74</ele>
        <time>2017-03-26T09:25:16Z</time>
      </trkpt>
      <trkpt lat="45.52946" lon="4.80971">
        <ele>366.2</ele>
        <time>2017-03-26T09:25:17Z</time>
      </trkpt>
      <trkpt lat="45.52949" lon="4.80953">
        <ele>367.61</ele>
        <time>2017-03-26T09:25:18Z</time>
      </trkpt>
      <trkpt lat="45.52956" lon="4.80939">
        <ele>368.86</ele>
        <time>2017-03-26T09:25:19Z</time>
      </trkpt>
      <trkpt lat="45.52966" lon="4.80927">
        <ele>370.22</ele>
        <time>2017-03-26T09:25:20Z</time>
      </trkpt>
      <trkpt lat="45.52977" lon="4.80917">
        <ele>371.62</ele>
        <time>2017-03-26T09:25:21Z</time>
      </trkpt>
      <trkpt lat="45.52992" lon="4.80907">
        <ele>372.86</ele>
        <time>2017-03-26T09:25:22Z</time>
      </trkpt>
      <trkpt lat="45.53006" lon="4.80897">
        <ele>373.99</ele>
        <time>2017-03-26T09:25:23Z</time>
      </trkpt>
      <trkpt lat="45.53018" lon="4.80886">
        <ele>375.09</ele>
        <time>2017-03-26T09:25:24Z</time>
      </trkpt>
      <trkpt lat="45.53023" lon="4.8087">
        <ele>376.11</ele>
        <time>2017-03-26T09:25:25Z</time>
      </trkpt>
      <trkpt lat="45.53025" lon="4.80854">
        <ele>377.12</ele>
        <time>2017-03-26T09:25:26Z</time>
      </trkpt>
      <trkpt lat="45.5302" lon="4.80836">
        <ele>377.64</ele>
        <time>2017-03-26T09:25:27Z</time>
      </trkpt>
      <trkpt lat="45.53013" lon="4.80817">
        <ele>378.06</ele>
        <time>2017-03-26T09:25:28Z</time>
      </trkpt>
      <trkpt lat="45.53009" lon="4.80796">
        <ele>378.55</ele>
        <time>2017-03-26T09:25:29Z</time>
      </trkpt>
      <trkpt lat="45.53008" lon="4.80776">
        <ele>379.28</ele>
        <time>2017-03-26T09:25:30Z</time>
      </trkpt>
      <trkpt lat="45.53012" lon="4.80756">
        <ele>380.39</ele>
        <time>2017-03-26T09:25:31Z</time>
      </trkpt>
      <trkpt lat="45.53021" lon="4.80739">
        <ele>381.57</ele>
        <time>2017-03-26T09:25:32Z</time>
      </trkpt>
      <trkpt lat="45.53031" lon="4.80723">
        <ele>382.69</ele>
        <time>2017-03-26T09:25:33Z</time>
      </trkpt>
      <trkpt lat="45.53041" lon="4.80705">
        <ele>383.55</ele>
        <time>2017-03-26T09:25:34Z</time>
      </trkpt>
      <trkpt lat="45.53046" lon="4.80685">
        <ele>384.2</ele>
        <time>2017-03-26T09:25:35Z</time>
      </trkpt>
      <trkpt lat="45.53049" lon="4.80664">
        <ele>384.81</ele>
        <time>2017-03-26T09:25:36Z</time>
      </trkpt>
      <trkpt lat="45.53056" lon="4.80645">
        <ele>385.34</ele>
        <time>2017-03-26T09:25:37Z</time>
      </trkpt>
      <trkpt lat="45.53065" lon="4.80628">
        <ele>385.84</ele>
        <time>2017-03-26T09:25:38Z</time>
      </trkpt>
      <trkpt lat="45.53075" lon="4.8061">
        <ele>386.34</ele>
        <time>2017-03-26T09:25:39Z</time>
      </trkpt>
      <trkpt lat="45.53082" lon="4.8059">
        <ele>387</ele>
        <time>2017-03-26T09:25:40Z</time>
      </trkpt>
      <trkpt lat="45.53084" lon="4.80568">
        <ele>387.69</ele>
        <time>2017-03-26T09:25:41Z</time>
      </trkpt>
      <trkpt lat="45.53081" lon="4.80543">
        <ele>388.23</ele>
        <time>2017-03-26T09:25:42Z</time>
      </trkpt>
      <trkpt lat="45.53076" lon="4.80517">
        <ele>388.74</ele>
        <time>2017-03-26T09:25:43Z</time>
      </trkpt>
      <trkpt lat="45.53074" lon="4.8049">
        <ele>389.4</ele>
        <time>2017-03-26T09:25:44Z</time>
      </trkpt>
      <trkpt lat="45.53074" lon="4.80461">
        <ele>390.81</ele>
        <time>2017-03-26T09:25:45Z</time>
      </trkpt>
      <trkpt lat="45.53073" lon="4.80434">
        <ele>392.62</ele>
        <time>2017-03-26T09:25:46Z</time>
      </trkpt>
      <trkpt lat="45.53069" lon="4.80406">
        <ele>394.26</ele>
        <time>2017-03-26T09:25:47Z</time>
      </trkpt>
      <trkpt lat="45.53062" lon="4.8038">
        <ele>395.86</ele>
        <time>2017-03-26T09:25:48Z</time>
      </trkpt>
      <trkpt lat="45.53054" lon="4.80354">
        <ele>397.15</ele>
        <time>2017-03-26T09:25:49Z</time>
      </trkpt>
      <trkpt lat="45.53047" lon="4.8033">
        <ele>398.04</ele>
        <time>2017-03-26T09:25:50Z</time>
      </trkpt>
      <trkpt lat="45.5304" lon="4.80307">
        <ele>398.78</ele>
        <time>2017-03-26T09:25:51Z</time>
      </trkpt>
      <trkpt lat="45.53033" lon="4.80285">
        <ele>399.41</ele>
        <time>2017-03-26T09:25:52Z</time>
      </trkpt>
      <trkpt lat="45.53026" lon="4.80262">
        <ele>400.02</ele>
        <time>2017-03-26T09:25:53Z</time>
      </trkpt>
      <trkpt lat="45.5302" lon="4.80241">
        <ele>400.7</ele>
        <time>2017-03-26T09:25:54Z</time>
      </trkpt>
      <trkpt lat="45.53014" lon="4.8022">
        <ele>401.63</ele>
        <time>2017-03-26T09:25:55Z</time>
      </trkpt>
      <trkpt lat="45.53007" lon="4.80197">
        <ele>402.54</ele>
        <time>2017-03-26T09:25:56Z</time>
      </trkpt>
      <trkpt lat="45.53001" lon="4.80175">
        <ele>403.36</ele>
        <time>2017-03-26T09:25:57Z</time>
      </trkpt>
      <trkpt lat="45.52996" lon="4.80152">
        <ele>404.09</ele>
        <time>2017-03-26T09:25:58Z</time>
      </trkpt>
      <trkpt lat="45.52992" lon="4.80131">
        <ele>404.79</ele>
        <time>2017-03-26T09:25:59Z</time>
      </trkpt>
      <trkpt lat="45.52989" lon="4.80114">
        <ele>405.33</ele>
        <time>2017-03-26T09:26:00Z</time>
      </trkpt>
      <trkpt lat="45.52987" lon="4.80102">
        <ele>405.76</ele>
        <time>2017-03-26T09:26:01Z</time>
      </trkpt>
      <trkpt lat="45.52986" lon="4.80094">
        <ele>405.85</ele>
        <time>2017-03-26T09:26:02Z</time>
      </trkpt>
      <trkpt lat="45.52985" lon="4.80088">
        <ele>406.02</ele>
        <time>2017-03-26T09:26:03Z</time>
      </trkpt>
      <trkpt lat="45.52984" lon="4.80086">
        <ele>406.06</ele>
        <time>2017-03-26T09:26:04Z</time>
      </trkpt>
      <trkpt lat="45.52984" lon="4.80086">
        <ele>406.15</ele>
        <time>2017-03-26T09:26:05Z</time>
      </trkpt>
      <trkpt lat="45.52984" lon="4.80086">
        <ele>406.24</ele>
        <time>2017-03-26T09:26:06Z</time>
      </trkpt>
      <trkpt lat="45.52984" lon="4.80086">
        <ele>406.26</ele>
        <time>2017-03-26T09:26:07Z</time>
      </trkpt>
      <trkpt lat="45.52984" lon="4.80086">
        <ele>406.27</ele>
        <time>2017-03-26T09:26:08Z</time>
      </trkpt>
      <trkpt lat="45.52984" lon="4.80086">
        <ele>406.27</ele>
        <time>2017-03-26T09:26:09Z</time>
      </trkpt>
      <trkpt lat="45.52984" lon="4.80086">
        <ele>406.27</ele>
        <time>2017-03-26T09:26:10Z</time>
      </trkpt>
      <trkpt lat="45.52984" lon="4.80086">
        <ele>406.27</ele>
        <time>2017-03-26T09:26:11Z</time>
      </trkpt>
      <trkpt lat="45.52984" lon="4.80086">
        <ele>406.27</ele>
        <time>2017-03-26T09:26:12Z</time>
      </trkpt>
      <trkpt lat="45.52984" lon="4.80086">
        <ele>406.27</ele>
        <time>2017-03-26T09:26:13Z</time>
      </trkpt>
      <trkpt lat="45.52984" lon="4.80086">
        <ele>406.27</ele>
        <time>2017-03-26T09:26:14Z</time>
      </trkpt>
      <trkpt lat="45.52984" lon="4.80086">
        <ele>406.27</ele>
        <time>2017-03-26T09:26:15Z</time>
      </trkpt>
      <trkpt lat="45.52984" lon="4.80086">
        <ele>406.27</ele>
        <time>2017-03-26T09:26:16Z</time>
      </trkpt>
      <trkpt lat="45.52984" lon="4.80086">
        <ele>406.27</ele>
        <time>2017-03-26T09:26:17Z</time>
      </trkpt>
      <trkpt lat="45.52984" lon="4.80086">
        <ele>406.27</ele>
        <time>2017-03-26T09:26:18Z</time>
      </trkpt>
      <trkpt lat="45.52984" lon="4.80086">
        <ele>406.27</ele>
        <time>2017-03-26T09:26:19Z</time>
      </trkpt>
      <trkpt lat="45.52984" lon="4.80086">
        <ele>406.27</ele>
        <time>2017-03-26T09:26:20Z</time>
      </trkpt>
      <trkpt lat="45.52984" lon="4.80086">
        <ele>406.27</ele>
        <time>2017-03-26T09:26:21Z</time>
      </trkpt>
      <trkpt lat="45.52984" lon="4.80086">
        <ele>406.27</ele>
        <time>2017-03-26T09:26:22Z</time>
      </trkpt>
      <trkpt lat="45.52984" lon="4.80086">
        <ele>406.27</ele>
        <time>2017-03-26T09:26:23Z</time>
      </trkpt>
      <trkpt lat="45.52984" lon="4.80086">
        <ele>406.27</ele>
        <time>2017-03-26T09:26:24Z</time>
      </trkpt>
      <trkpt lat="45.52984" lon="4.80086">
        <ele>406.27</ele>
        <time>2017-03-26T09:26:25Z</time>
      </trkpt>
      <trkpt lat="45.52984" lon="4.80086">
        <ele>406.27</ele>
        <time>2017-03-26T09:26:26Z</time>
      </trkpt>
      <trkpt lat="45.52984" lon="4.80086">
        <ele>406.27</ele>
        <time>2017-03-26T09:26:27Z</time>
      </trkpt>
      <trkpt lat="45.52984" lon="4.80086">
        <ele>406.27</ele>
        <time>2017-03-26T09:26:28Z</time>
      </trkpt>
      <trkpt lat="45.52984" lon="4.80086">
        <ele>406.27</ele>
        <time>2017-03-26T09:26:29Z</time>
      </trkpt>
      <trkpt lat="45.52984" lon="4.80086">
        <ele>406.27</ele>
        <time>2017-03-26T09:26:30Z</time>
      </trkpt>
      <trkpt lat="45.52984" lon="4.80086">
        <ele>406.27</ele>
        <time>2017-03-26T09:26:31Z</time>
      </trkpt>
      <trkpt lat="45.52983" lon="4.80082">
        <ele>406.43</ele>
        <time>2017-03-26T09:26:32Z</time>
      </trkpt>
      <trkpt lat="45.52982" lon="4.80075">
        <ele>406.46</ele>
        <time>2017-03-26T09:26:33Z</time>
      </trkpt>
      <trkpt lat="45.52981" lon="4.80067">
        <ele>406.55</ele>
        <time>2017-03-26T09:26:34Z</time>
      </trkpt>
      <trkpt lat="45.52979" lon="4.80059">
        <ele>406.64</ele>
        <time>2017-03-26T09:26:35Z</time>
      </trkpt>
      <trkpt lat="45.52977" lon="4.80048">
        <ele>407.06</ele>
        <time>2017-03-26T09:26:36Z</time>
      </trkpt>
      <trkpt lat="45.52976" lon="4.80035">
        <ele>407.39</ele>
        <time>2017-03-26T09:26:37Z</time>
      </trkpt>
      <trkpt lat="45.52975" lon="4.8002">
        <ele>407.77</ele>
        <time>2017-03-26T09:26:38Z</time>
      </trkpt>
      <trkpt lat="45.52974" lon="4.80003">
        <ele>408.41</ele>
        <time>2017-03-26T09:26:39Z</time>
      </trkpt>
      <trkpt lat="45.52973" lon="4.79985">
        <ele>409.26</ele>
        <time>2017-03-26T09:26:40Z</time>
      </trkpt>
      <trkpt lat="45.52973" lon="4.79966">
        <ele>410.14</ele>
        <time>2017-03-26T09:26:41Z</time>
      </trkpt>
      <trkpt lat="45.52972" lon="4.79947">
        <ele>410.96</ele>
        <time>2017-03-26T09:26:42Z</time>
      </trkpt>
      <trkpt lat="45.5297" lon="4.79926">
        <ele>412.01</ele>
        <time>2017-03-26T09:26:43Z</time>
      </trkpt>
      <trkpt lat="45.52965" lon="4.79905">
        <ele>413.17</ele>
        <time>2017-03-26T09:26:44Z</time>
      </trkpt>
      <trkpt lat="45.52959" lon="4.79884">
        <ele>414.21</ele>
        <time>2017-03-26T09:26:45Z</time>
      </trkpt>
      <trkpt lat="45.52952" lon="4.79863">
        <ele>415.06</ele>
        <time>2017-03-26T09:26:46Z</time>
      </trkpt>
      <trkpt lat="45.52944" lon="4.79842">
        <ele>416.02</ele>
        <time>2017-03-26T09:26:47Z</time>
      </trkpt>
      <trkpt lat="45.52937" lon="4.7982">
        <ele>417.02</ele>
        <time>2017-03-26T09:26:48Z</time>
      </trkpt>
      <trkpt lat="45.52929" lon="4.79798">
        <ele>417.94</ele>
        <time>2017-03-26T09:26:49Z</time>
      </trkpt>
      <trkpt lat="45.52921" lon="4.79776">
        <ele>418.92</ele>
        <time>2017-03-26T09:26:50Z</time>
      </trkpt>
      <trkpt lat="45.52913" lon="4.79753">
        <ele>420</ele>
        <time>2017-03-26T09:26:51Z</time>
      </trkpt>
      <trkpt lat="45.52906" lon="4.7973">
        <ele>421.09</ele>
        <time>2017-03-26T09:26:52Z</time>
      </trkpt>
      <trkpt lat="45.529" lon="4.79706">
        <ele>422.35</ele>
        <time>2017-03-26T09:26:53Z</time>
      </trkpt>
      <trkpt lat="45.52896" lon="4.79682">
        <ele>423.72</ele>
        <time>2017-03-26T09:26:54Z</time>
      </trkpt>
      <trkpt lat="45.52893" lon="4.79657">
        <ele>425.12</ele>
        <time>2017-03-26T09:26:55Z</time>
      </trkpt>
      <trkpt lat="45.52891" lon="4.79631">
        <ele>426.44</ele>
        <time>2017-03-26T09:26:56Z</time>
      </trkpt>
      <trkpt lat="45.52891" lon="4.79606">
        <ele>427.74</ele>
        <time>2017-03-26T09:26:57Z</time>
      </trkpt>
      <trkpt lat="45.5289" lon="4.79581">
        <ele>428.72</ele>
        <time>2017-03-26T09:26:58Z</time>
      </trkpt>
      <trkpt lat="45.52886" lon="4.79556">
        <ele>429.48</ele>
        <time>2017-03-26T09:26:59Z</time>
      </trkpt>
      <trkpt lat="45.5288" lon="4.79531">
        <ele>430.11</ele>
        <time>2017-03-26T09:27:00Z</time>
      </trkpt>
      <trkpt lat="45.52872" lon="4.79507">
        <ele>430.72</ele>
        <time>2017-03-26T09:27:01Z</time>
      </trkpt>
      <trkpt lat="45.52863" lon="4.79483">
        <ele>431.4</ele>
        <time>2017-03-26T09:27:02Z</time>
      </trkpt>
      <trkpt lat="45.52852" lon="4.79462">
        <ele>432.17</ele>
        <time>2017-03-26T09:27:03Z</time>
      </trkpt>
      <trkpt lat="45.52841" lon="4.79441">
        <ele>433.13</ele>
        <time>2017-03-26T09:27:04Z</time>
      </trkpt>
      <trkpt lat="45.52828" lon="4.79422">
        <ele>434.04</ele>
        <time>2017-03-26T09:27:05Z</time>
      </trkpt>
      <trkpt lat="45.52815" lon="4.79405">
        <ele>434.94</ele>
        <time>2017-03-26T09:27:06Z</time>
      </trkpt>
      <trkpt lat="45.52801" lon="4.79389">
        <ele>435.76</ele>
        <time>2017-03-26T09:27:07Z</time>
      </trkpt>
      <trkpt lat="45.52786" lon="4.79375">
        <ele>436.65</ele>
        <time>2017-03-26T09:27:08Z</time>
      </trkpt>
      <trkpt lat="45.5277" lon="4.79362">
        <ele>437.62</ele>
        <time>2017-03-26T09:27:09Z</time>
      </trkpt>
      <trkpt lat="45.52756" lon="4.7935">
        <ele>438.78</ele>
        <time>2017-03-26T09:27:10Z</time>
      </trkpt>
      <trkpt lat="45.52742" lon="4.79339">
        <ele>439.89</ele>
        <time>2017-03-26T09:27:11Z</time>
      </trkpt>
      <trkpt lat="45.5273" lon="4.79327">
        <ele>440.91</ele>
        <time>2017-03-26T09:27:12Z</time>
      </trkpt>
      <trkpt lat="45.52724" lon="4.79312">
        <ele>441.92</ele>
        <time>2017-03-26T09:27:13Z</time>
      </trkpt>
      <trkpt lat="45.5272" lon="4.79296">
        <ele>443</ele>
        <time>2017-03-26T09:27:14Z</time>
      </trkpt>
      <trkpt lat="45.52718" lon="4.79279">
        <ele>444.09</ele>
        <time>2017-03-26T09:27:15Z</time>
      </trkpt>
      <trkpt lat="45.5272" lon="4.79255">
        <ele>444.95</ele>
        <time>2017-03-26T09:27:16Z</time>
      </trkpt>
      <trkpt lat="45.52719" lon="4.79232">
        <ele>445.76</ele>
        <time>2017-03-26T09:27:17Z</time>
      </trkpt>
      <trkpt lat="45.52717" lon="4.7921">
        <ele>446.49</ele>
        <time>2017-03-26T09:27:18Z</time>
      </trkpt>
      <trkpt lat="45.52712" lon="4.79189">
        <ele>447.11</ele>
        <time>2017-03-26T09:27:19Z</time>
      </trkpt>
      <trkpt lat="45.52706" lon="4.79171">
        <ele>447.8</ele>
        <time>2017-03-26T09:27:20Z</time>
      </trkpt>
      <trkpt lat="45.52696" lon="4.79154">
        <ele>448.33</ele>
        <time>2017-03-26T09:27:21Z</time>
      </trkpt>
      <trkpt lat="45.52684" lon="4.79138">
        <ele>448.92</ele>
        <time>2017-03-26T09:27:22Z</time>
      </trkpt>
      <trkpt lat="45.52671" lon="4.79123">
        <ele>449.76</ele>
        <time>2017-03-26T09:27:23Z</time>
      </trkpt>
      <trkpt lat="45.52657" lon="4.7911">
        <ele>450.49</ele>
        <time>2017-03-26T09:27:24Z</time>
      </trkpt>
      <trkpt lat="45.52645" lon="4.79095">
        <ele>451.35</ele>
        <time>2017-03-26T09:27:25Z</time>
      </trkpt>
      <trkpt lat="45.52633" lon="4.79079">
        <ele>452.16</ele>
        <time>2017-03-26T09:27:26Z</time>
      </trkpt>
      <trkpt lat="45.52624" lon="4.79061">
        <ele>452.89</ele>
        <time>2017-03-26T09:27:27Z</time>
      </trkpt>
      <trkpt lat="45.52616" lon="4.79042">
        <ele>453.75</ele>
        <time>2017-03-26T09:27:28Z</time>
      </trkpt>
      <trkpt lat="45.52616" lon="4.79017">
        <ele>454.56</ele>
        <time>2017-03-26T09:27:29Z</time>
      </trkpt>
      <trkpt lat="45.52621" lon="4.7899">
        <ele>454.97</ele>
        <time>2017-03-26T09:27:30Z</time>
      </trkpt>
      <trkpt lat="45.52626" lon="4.78964">
        <ele>455.37</ele>
        <time>2017-03-26T09:27:31Z</time>
      </trkpt>
      <trkpt lat="45.52633" lon="4.7894">
        <ele>456.01</ele>
        <time>2017-03-26T09:27:32Z</time>
      </trkpt>
      <trkpt lat="45.52643" lon="4.78917">
        <ele>456.77</ele>
        <time>2017-03-26T09:27:33Z</time>
      </trkpt>
      <trkpt lat="45.52654" lon="4.789">
        <ele>457.57</ele>
        <time>2017-03-26T09:27:34Z</time>
      </trkpt>
      <trkpt lat="45.52668" lon="4.78888">
        <ele>458.29</ele>
        <time>2017-03-26T09:27:35Z</time>
      </trkpt>
      <trkpt lat="45.52684" lon="4.78878">
        <ele>458.67</ele>
        <time>2017-03-26T09:27:36Z</time>
      </trkpt>
      <trkpt lat="45.52702" lon="4.7887">
        <ele>459.07</ele>
        <time>2017-03-26T09:27:37Z</time>
      </trkpt>
      <trkpt lat="45.52719" lon="4.78859">
        <ele>459.55</ele>
        <time>2017-03-26T09:27:38Z</time>
      </trkpt>
      <trkpt lat="45.52736" lon="4.78846">
        <ele>459.96</ele>
        <time>2017-03-26T09:27:39Z</time>
      </trkpt>
      <trkpt lat="45.52753" lon="4.78829">
        <ele>460.21</ele>
        <time>2017-03-26T09:27:40Z</time>
      </trkpt>
      <trkpt lat="45.52768" lon="4.78809">
        <ele>460.57</ele>
        <time>2017-03-26T09:27:41Z</time>
      </trkpt>
      <trkpt lat="45.52784" lon="4.78788">
        <ele>460.49</ele>
        <time>2017-03-26T09:27:42Z</time>
      </trkpt>
      <trkpt lat="45.52799" lon="4.78766">
        <ele>460.39</ele>
        <time>2017-03-26T09:27:43Z</time>
      </trkpt>
      <trkpt lat="45.52815" lon="4.78746">
        <ele>460.45</ele>
        <time>2017-03-26T09:27:44Z</time>
      </trkpt>
      <trkpt lat="45.52833" lon="4.78729">
        <ele>460.06</ele>
        <time>2017-03-26T09:27:45Z</time>
      </trkpt>
      <trkpt lat="45.52852" lon="4.78714">
        <ele>459.67</ele>
        <time>2017-03-26T09:27:46Z</time>
      </trkpt>
      <trkpt lat="45.52871" lon="4.78701">
        <ele>459.27</ele>
        <time>2017-03-26T09:27:47Z</time>
      </trkpt>
      <trkpt lat="45.52888" lon="4.78688">
        <ele>459.03</ele>
        <time>2017-03-26T09:27:48Z</time>
      </trkpt>
      <trkpt lat="45.52904" lon="4.78676">
        <ele>458.82</ele>
        <time>2017-03-26T09:27:49Z</time>
      </trkpt>
      <trkpt lat="45.52917" lon="4.78663">
        <ele>458.54</ele>
        <time>2017-03-26T09:27:50Z</time>
      </trkpt>
      <trkpt lat="45.52929" lon="4.78648">
        <ele>458.16</ele>
        <time>2017-03-26T09:27:51Z</time>
      </trkpt>
      <trkpt lat="45.52936" lon="4.78629">
        <ele>457.53</ele>
        <time>2017-03-26T09:27:52Z</time>
      </trkpt>
      <trkpt lat="45.52935" lon="4.78608">
        <ele>455.72</ele>
        <time>2017-03-26T09:27:53Z</time>
      </trkpt>
      <trkpt lat="45.52933" lon="4.78588">
        <ele>454.24</ele>
        <time>2017-03-26T09:27:54Z</time>
      </trkpt>
      <trkpt lat="45.52923" lon="4.78566">
        <ele>453.38</ele>
        <time>2017-03-26T09:27:55Z</time>
      </trkpt>
      <trkpt lat="45.52913" lon="4.78543">
        <ele>452.33</ele>
        <time>2017-03-26T09:27:56Z</time>
      </trkpt>
      <trkpt lat="45.52901" lon="4.7852">
        <ele>451.16</ele>
        <time>2017-03-26T09:27:57Z</time>
      </trkpt>
      <trkpt lat="45.5289" lon="4.78496">
        <ele>450.05</ele>
        <time>2017-03-26T09:27:58Z</time>
      </trkpt>
      <trkpt lat="45.52879" lon="4.78472">
        <ele>448.86</ele>
        <time>2017-03-26T09:27:59Z</time>
      </trkpt>
      <trkpt lat="45.52868" lon="4.78449">
        <ele>447.75</ele>
        <time>2017-03-26T09:28:00Z</time>
      </trkpt>
      <trkpt lat="45.52857" lon="4.78428">
        <ele>446.64</ele>
        <time>2017-03-26T09:28:01Z</time>
      </trkpt>
      <trkpt lat="45.52845" lon="4.78407">
        <ele>445.46</ele>
        <time>2017-03-26T09:28:02Z</time>
      </trkpt>
      <trkpt lat="45.52832" lon="4.78386">
        <ele>444.35</ele>
        <time>2017-03-26T09:28:03Z</time>
      </trkpt>
      <trkpt lat="45.52819" lon="4.78367">
        <ele>443.32</ele>
        <time>2017-03-26T09:28:04Z</time>
      </trkpt>
      <trkpt lat="45.52803" lon="4.78351">
        <ele>442</ele>
        <time>2017-03-26T09:28:05Z</time>
      </trkpt>
      <trkpt lat="45.52789" lon="4.78335">
        <ele>440.69</ele>
        <time>2017-03-26T09:28:06Z</time>
      </trkpt>
      <trkpt lat="45.52774" lon="4.7832">
        <ele>439.47</ele>
        <time>2017-03-26T09:28:07Z</time>
      </trkpt>
      <trkpt lat="45.5276" lon="4.78303">
        <ele>438.35</ele>
        <time>2017-03-26T09:28:08Z</time>
      </trkpt>
      <trkpt lat="45.52746" lon="4.78284">
        <ele>437.24</ele>
        <time>2017-03-26T09:28:09Z</time>
      </trkpt>
      <trkpt lat="45.52733" lon="4.78262">
        <ele>436.06</ele>
        <time>2017-03-26T09:28:10Z</time>
      </trkpt>
      <trkpt lat="45.52721" lon="4.78238">
        <ele>434.87</ele>
        <time>2017-03-26T09:28:11Z</time>
      </trkpt>
      <trkpt lat="45.52711" lon="4.78214">
        <ele>433.67</ele>
        <time>2017-03-26T09:28:12Z</time>
      </trkpt>
      <trkpt lat="45.52702" lon="4.78189">
        <ele>432.47</ele>
        <time>2017-03-26T09:28:13Z</time>
      </trkpt>
      <trkpt lat="45.52693" lon="4.78165">
        <ele>431.35</ele>
        <time>2017-03-26T09:28:14Z</time>
      </trkpt>
      <trkpt lat="45.52683" lon="4.78143">
        <ele>430.48</ele>
        <time>2017-03-26T09:28:15Z</time>
      </trkpt>
      <trkpt lat="45.52672" lon="4.78122">
        <ele>429.51</ele>
        <time>2017-03-26T09:28:16Z</time>
      </trkpt>
      <trkpt lat="45.52659" lon="4.78102">
        <ele>428.44</ele>
        <time>2017-03-26T09:28:17Z</time>
      </trkpt>
      <trkpt lat="45.52646" lon="4.78084">
        <ele>427.26</ele>
        <time>2017-03-26T09:28:18Z</time>
      </trkpt>
      <trkpt lat="45.5263" lon="4.78068">
        <ele>426.07</ele>
        <time>2017-03-26T09:28:19Z</time>
      </trkpt>
      <trkpt lat="45.52614" lon="4.78054">
        <ele>424.79</ele>
        <time>2017-03-26T09:28:20Z</time>
      </trkpt>
      <trkpt lat="45.52597" lon="4.78042">
        <ele>423.65</ele>
        <time>2017-03-26T09:28:21Z</time>
      </trkpt>
      <trkpt lat="45.5258" lon="4.78032">
        <ele>422.46</ele>
        <time>2017-03-26T09:28:22Z</time>
      </trkpt>
      <trkpt lat="45.52564" lon="4.78021">
        <ele>421.43</ele>
        <time>2017-03-26T09:28:23Z</time>
      </trkpt>
      <trkpt lat="45.5255" lon="4.78009">
        <ele>420.5</ele>
        <time>2017-03-26T09:28:24Z</time>
      </trkpt>
      <trkpt lat="45.52537" lon="4.77994">
        <ele>419.67</ele>
        <time>2017-03-26T09:28:25Z</time>
      </trkpt>
      <trkpt lat="45.52528" lon="4.77975">
        <ele>418.87</ele>
        <time>2017-03-26T09:28:26Z</time>
      </trkpt>
      <trkpt lat="45.52521" lon="4.77952">
        <ele>417.91</ele>
        <time>2017-03-26T09:28:27Z</time>
      </trkpt>
      <trkpt lat="45.52518" lon="4.77926">
        <ele>417.16</ele>
        <time>2017-03-26T09:28:28Z</time>
      </trkpt>
      <trkpt lat="45.52517" lon="4.77899">
        <ele>416.36</ele>
        <time>2017-03-26T09:28:29Z</time>
      </trkpt>
      <trkpt lat="45.52517" lon="4.77873">
        <ele>415.73</ele>
        <time>2017-03-26T09:28:30Z</time>
      </trkpt>
      <trkpt lat="45.52518" lon="4.77849">
        <ele>415.36</ele>
        <time>2017-03-26T09:28:31Z</time>
      </trkpt>
      <trkpt lat="45.5252" lon="4.77828">
        <ele>415.29</ele>
        <time>2017-03-26T09:28:32Z</time>
      </trkpt>
      <trkpt lat="45.52521" lon="4.77809">
        <ele>415.43</ele>
        <time>2017-03-26T09:28:33Z</time>
      </trkpt>
      <trkpt lat="45.5252" lon="4.77792">
        <ele>415.06</ele>
        <time>2017-03-26T09:28:34Z</time>
      </trkpt>
      <trkpt lat="45.52517" lon="4.77777">
        <ele>414.51</ele>
        <time>2017-03-26T09:28:35Z</time>
      </trkpt>
      <trkpt lat="45.52512" lon="4.77762">
        <ele>413.91</ele>
        <time>2017-03-26T09:28:36Z</time>
      </trkpt>
      <trkpt lat="45.52505" lon="4.77748">
        <ele>413.08</ele>
        <time>2017-03-26T09:28:37Z</time>
      </trkpt>
      <trkpt lat="45.52495" lon="4.77734">
        <ele>411.87</ele>
        <time>2017-03-26T09:28:38Z</time>
      </trkpt>
      <trkpt lat="45.52482" lon="4.77721">
        <ele>410.51</ele>
        <time>2017-03-26T09:28:39Z</time>
      </trkpt>
      <trkpt lat="45.52468" lon="4.77708">
        <ele>409.44</ele>
        <time>2017-03-26T09:28:40Z</time>
      </trkpt>
      <trkpt lat="45.52454" lon="4.77693">
        <ele>408.74</ele>
        <time>2017-03-26T09:28:41Z</time>
      </trkpt>
      <trkpt lat="45.5244" lon="4.77678">
        <ele>407.88</ele>
        <time>2017-03-26T09:28:42Z</time>
      </trkpt>
      <trkpt lat="45.52428" lon="4.7766">
        <ele>406.83</ele>
        <time>2017-03-26T09:28:43Z</time>
      </trkpt>
      <trkpt lat="45.52418" lon="4.7764">
        <ele>405.9</ele>
        <time>2017-03-26T09:28:44Z</time>
      </trkpt>
      <trkpt lat="45.52411" lon="4.77618">
        <ele>405.23</ele>
        <time>2017-03-26T09:28:45Z</time>
      </trkpt>
      <trkpt lat="45.52407" lon="4.77595">
        <ele>404.7</ele>
        <time>2017-03-26T09:28:46Z</time>
      </trkpt>
      <trkpt lat="45.52404" lon="4.77571">
        <ele>404.43</ele>
        <time>2017-03-26T09:28:47Z</time>
      </trkpt>
      <trkpt lat="45.52402" lon="4.77547">
        <ele>404.22</ele>
        <time>2017-03-26T09:28:48Z</time>
      </trkpt>
      <trkpt lat="45.52402" lon="4.77522">
        <ele>404.18</ele>
        <time>2017-03-26T09:28:49Z</time>
      </trkpt>
      <trkpt lat="45.52403" lon="4.77498">
        <ele>404.09</ele>
        <time>2017-03-26T09:28:50Z</time>
      </trkpt>
      <trkpt lat="45.52404" lon="4.77473">
        <ele>404.31</ele>
        <time>2017-03-26T09:28:51Z</time>
      </trkpt>
      <trkpt lat="45.52405" lon="4.77447">
        <ele>404.28</ele>
        <time>2017-03-26T09:28:52Z</time>
      </trkpt>
      <trkpt lat="45.52406" lon="4.77422">
        <ele>403.95</ele>
        <time>2017-03-26T09:28:53Z</time>
      </trkpt>
      <trkpt lat="45.52406" lon="4.77397">
        <ele>402.92</ele>
        <time>2017-03-26T09:28:54Z</time>
      </trkpt>
      <trkpt lat="45.52405" lon="4.77373">
        <ele>401.92</ele>
        <time>2017-03-26T09:28:55Z</time>
      </trkpt>
      <trkpt lat="45.52404" lon="4.77349">
        <ele>400.84</ele>
        <time>2017-03-26T09:28:56Z</time>
      </trkpt>
      <trkpt lat="45.52402" lon="4.77325">
        <ele>400.14</ele>
        <time>2017-03-26T09:28:57Z</time>
      </trkpt>
      <trkpt lat="45.52401" lon="4.77301">
        <ele>399.36</ele>
        <time>2017-03-26T09:28:58Z</time>
      </trkpt>
      <trkpt lat="45.52399" lon="4.77277">
        <ele>398.49</ele>
        <time>2017-03-26T09:28:59Z</time>
      </trkpt>
      <trkpt lat="45.52397" lon="4.77253">
        <ele>397.67</ele>
        <time>2017-03-26T09:29:00Z</time>
      </trkpt>
      <trkpt lat="45.52396" lon="4.77228">
        <ele>396.95</ele>
        <time>2017-03-26T09:29:01Z</time>
      </trkpt>
      <trkpt lat="45.52394" lon="4.77202">
        <ele>396.88</ele>
        <time>2017-03-26T09:29:02Z</time>
      </trkpt>
      <trkpt lat="45.52392" lon="4.77176">
        <ele>396.87</ele>
        <time>2017-03-26T09:29:03Z</time>
      </trkpt>
      <trkpt lat="45.5239" lon="4.77149">
        <ele>396.87</ele>
        <time>2017-03-26T09:29:04Z</time>
      </trkpt>
      <trkpt lat="45.52389" lon="4.77123">
        <ele>396.71</ele>
        <time>2017-03-26T09:29:05Z</time>
      </trkpt>
      <trkpt lat="45.52387" lon="4.77096">
        <ele>396.28</ele>
        <time>2017-03-26T09:29:06Z</time>
      </trkpt>
      <trkpt lat="45.52385" lon="4.77069">
        <ele>395.79</ele>
        <time>2017-03-26T09:29:07Z</time>
      </trkpt>
      <trkpt lat="45.52383" lon="4.77042">
        <ele>395.37</ele>
        <time>2017-03-26T09:29:08Z</time>
      </trkpt>
      <trkpt lat="45.52381" lon="4.77015">
        <ele>395.05</ele>
        <time>2017-03-26T09:29:09Z</time>
      </trkpt>
      <trkpt lat="45.52379" lon="4.76987">
        <ele>394.82</ele>
        <time>2017-03-26T09:29:10Z</time>
      </trkpt>
      <trkpt lat="45.52377" lon="4.7696">
        <ele>394.94</ele>
        <time>2017-03-26T09:29:11Z</time>
      </trkpt>
      <trkpt lat="45.52375" lon="4.76933">
        <ele>395.68</ele>
        <time>2017-03-26T09:29:12Z</time>
      </trkpt>
      <trkpt lat="45.52373" lon="4.76906">
        <ele>396.39</ele>
        <time>2017-03-26T09:29:13Z</time>
      </trkpt>
      <trkpt lat="45.52372" lon="4.7688">
        <ele>397.33</ele>
        <time>2017-03-26T09:29:14Z</time>
      </trkpt>
      <trkpt lat="45.52372" lon="4.76854">
        <ele>398.4</ele>
        <time>2017-03-26T09:29:15Z</time>
      </trkpt>
      <trkpt lat="45.52373" lon="4.76828">
        <ele>399.57</ele>
        <time>2017-03-26T09:29:16Z</time>
      </trkpt>
      <trkpt lat="45.52378" lon="4.76804">
        <ele>400.53</ele>
        <time>2017-03-26T09:29:17Z</time>
      </trkpt>
      <trkpt lat="45.52385" lon="4.76779">
        <ele>401.6</ele>
        <time>2017-03-26T09:29:18Z</time>
      </trkpt>
      <trkpt lat="45.52392" lon="4.76754">
        <ele>402.69</ele>
        <time>2017-03-26T09:29:19Z</time>
      </trkpt>
      <trkpt lat="45.52399" lon="4.76728">
        <ele>403.71</ele>
        <time>2017-03-26T09:29:20Z</time>
      </trkpt>
      <trkpt lat="45.52405" lon="4.767">
        <ele>404.4</ele>
        <time>2017-03-26T09:29:21Z</time>
      </trkpt>
      <trkpt lat="45.52409" lon="4.76671">
        <ele>404.93</ele>
        <time>2017-03-26T09:29:22Z</time>
      </trkpt>
      <trkpt lat="45.52411" lon="4.76641">
        <ele>404.72</ele>
        <time>2017-03-26T09:29:23Z</time>
      </trkpt>
      <trkpt lat="45.5241" lon="4.76612">
        <ele>404.36</ele>
        <time>2017-03-26T09:29:24Z</time>
      </trkpt>
      <trkpt lat="45.52409" lon="4.76584">
        <ele>404.37</ele>
        <time>2017-03-26T09:29:25Z</time>
      </trkpt>
      <trkpt lat="45.52409" lon="4.76557">
        <ele>404.37</ele>
        <time>2017-03-26T09:29:26Z</time>
      </trkpt>
      <trkpt lat="45.52413" lon="4.76532">
        <ele>404.61</ele>
        <time>2017-03-26T09:29:27Z</time>
      </trkpt>
      <trkpt lat="45.52419" lon="4.76507">
        <ele>404.65</ele>
        <time>2017-03-26T09:29:28Z</time>
      </trkpt>
      <trkpt lat="45.52427" lon="4.76482">
        <ele>404.58</ele>
        <time>2017-03-26T09:29:29Z</time>
      </trkpt>
      <trkpt lat="45.52439" lon="4.76456">
        <ele>404.41</ele>
        <time>2017-03-26T09:29:30Z</time>
      </trkpt>
      <trkpt lat="45.52452" lon="4.7643">
        <ele>404.14</ele>
        <time>2017-03-26T09:29:31Z</time>
      </trkpt>
      <trkpt lat="45.52465" lon="4.76402">
        <ele>403.92</ele>
        <time>2017-03-26T09:29:32Z</time>
      </trkpt>
      <trkpt lat="45.52478" lon="4.76375">
        <ele>403.8</ele>
        <time>2017-03-26T09:29:33Z</time>
      </trkpt>
      <trkpt lat="45.52492" lon="4.76347">
        <ele>403.93</ele>
        <time>2017-03-26T09:29:34Z</time>
      </trkpt>
      <trkpt lat="45.52505" lon="4.76318">
        <ele>404.12</ele>
        <time>2017-03-26T09:29:35Z</time>
      </trkpt>
      <trkpt lat="45.52518" lon="4.76289">
        <ele>404.08</ele>
        <time>2017-03-26T09:29:36Z</time>
      </trkpt>
      <trkpt lat="45.52532" lon="4.7626">
        <ele>403.59</ele>
        <time>2017-03-26T09:29:37Z</time>
      </trkpt>
      <trkpt lat="45.52545" lon="4.7623">
        <ele>403.17</ele>
        <time>2017-03-26T09:29:38Z</time>
      </trkpt>
      <trkpt lat="45.52558" lon="4.76201">
        <ele>402.69</ele>
        <time>2017-03-26T09:29:39Z</time>
      </trkpt>
      <trkpt lat="45.52572" lon="4.76171">
        <ele>402.51</ele>
        <time>2017-03-26T09:29:40Z</time>
      </trkpt>
      <trkpt lat="45.52585" lon="4.76142">
        <ele>402.96</ele>
        <time>2017-03-26T09:29:41Z</time>
      </trkpt>
      <trkpt lat="45.52599" lon="4.76114">
        <ele>403.36</ele>
        <time>2017-03-26T09:29:42Z</time>
      </trkpt>
      <trkpt lat="45.52612" lon="4.76086">
        <ele>404.01</ele>
        <time>2017-03-26T09:29:43Z</time>
      </trkpt>
      <trkpt lat="45.52624" lon="4.76059">
        <ele>404.77</ele>
        <time>2017-03-26T09:29:44Z</time>
      </trkpt>
      <trkpt lat="45.52636" lon="4.76033">
        <ele>405.57</ele>
        <time>2017-03-26T09:29:45Z</time>
      </trkpt>
      <trkpt lat="45.52647" lon="4.76008">
        <ele>406.21</ele>
        <time>2017-03-26T09:29:46Z</time>
      </trkpt>
      <trkpt lat="45.52656" lon="4.75987">
        <ele>407.06</ele>
        <time>2017-03-26T09:29:47Z</time>
      </trkpt>
      <trkpt lat="45.52664" lon="4.75967">
        <ele>407.78</ele>
        <time>2017-03-26T09:29:48Z</time>
      </trkpt>
      <trkpt lat="45.5267" lon="4.75949">
        <ele>408.57</ele>
        <time>2017-03-26T09:29:49Z</time>
      </trkpt>
      <trkpt lat="45.52672" lon="4.7593">
        <ele>409.45</ele>
        <time>2017-03-26T09:29:50Z</time>
      </trkpt>
      <trkpt lat="45.52669" lon="4.75911">
        <ele>410.18</ele>
        <time>2017-03-26T09:29:51Z</time>
      </trkpt>
      <trkpt lat="45.52662" lon="4.75893">
        <ele>411.05</ele>
        <time>2017-03-26T09:29:52Z</time>
      </trkpt>
      <trkpt lat="45.52653" lon="4.75875">
        <ele>412.18</ele>
        <time>2017-03-26T09:29:53Z</time>
      </trkpt>
      <trkpt lat="45.52642" lon="4.75855">
        <ele>413.37</ele>
        <time>2017-03-26T09:29:54Z</time>
      </trkpt>
      <trkpt lat="45.52631" lon="4.75834">
        <ele>414.57</ele>
        <time>2017-03-26T09:29:55Z</time>
      </trkpt>
      <trkpt lat="45.52619" lon="4.75813">
        <ele>416.01</ele>
        <time>2017-03-26T09:29:56Z</time>
      </trkpt>
      <trkpt lat="45.52608" lon="4.75792">
        <ele>417.42</ele>
        <time>2017-03-26T09:29:57Z</time>
      </trkpt>
      <trkpt lat="45.52596" lon="4.7577">
        <ele>418.82</ele>
        <time>2017-03-26T09:29:58Z</time>
      </trkpt>
      <trkpt lat="45.52584" lon="4.75749">
        <ele>419.98</ele>
        <time>2017-03-26T09:29:59Z</time>
      </trkpt>
      <trkpt lat="45.52573" lon="4.75729">
        <ele>421.01</ele>
        <time>2017-03-26T09:30:00Z</time>
      </trkpt>
      <trkpt lat="45.52562" lon="4.75709">
        <ele>421.78</ele>
        <time>2017-03-26T09:30:01Z</time>
      </trkpt>
      <trkpt lat="45.52554" lon="4.7569">
        <ele>422.25</ele>
        <time>2017-03-26T09:30:02Z</time>
      </trkpt>
      <trkpt lat="45.52551" lon="4.75671">
        <ele>422.58</ele>
        <time>2017-03-26T09:30:03Z</time>
      </trkpt>
      <trkpt lat="45.52552" lon="4.75651">
        <ele>422.73</ele>
        <time>2017-03-26T09:30:04Z</time>
      </trkpt>
      <trkpt lat="45.52558" lon="4.75632">
        <ele>422.84</ele>
        <time>2017-03-26T09:30:05Z</time>
      </trkpt>
      <trkpt lat="45.52567" lon="4.75612">
        <ele>423.02</ele>
        <time>2017-03-26T09:30:06Z</time>
      </trkpt>
      <trkpt lat="45.52578" lon="4.75593">
        <ele>423.3</ele>
        <time>2017-03-26T09:30:07Z</time>
      </trkpt>
      <trkpt lat="45.52589" lon="4.75574">
        <ele>423.67</ele>
        <time>2017-03-26T09:30:08Z</time>
      </trkpt>
      <trkpt lat="45.52598" lon="4.75557">
        <ele>424.23</ele>
        <time>2017-03-26T09:30:09Z</time>
      </trkpt>
      <trkpt lat="45.52604" lon="4.75538">
        <ele>424.42</ele>
        <time>2017-03-26T09:30:10Z</time>
      </trkpt>
      <trkpt lat="45.52605" lon="4.75519">
        <ele>424.54</ele>
        <time>2017-03-26T09:30:11Z</time>
      </trkpt>
      <trkpt lat="45.52603" lon="4.755">
        <ele>424.72</ele>
        <time>2017-03-26T09:30:12Z</time>
      </trkpt>
      <trkpt lat="45.52603" lon="4.75481">
        <ele>424.92</ele>
        <time>2017-03-26T09:30:13Z</time>
      </trkpt>
      <trkpt lat="45.52605" lon="4.75464">
        <ele>425.28</ele>
        <time>2017-03-26T09:30:14Z</time>
      </trkpt>
      <trkpt lat="45.52609" lon="4.75448">
        <ele>425.75</ele>
        <time>2017-03-26T09:30:15Z</time>
      </trkpt>
      <trkpt lat="45.52618" lon="4.75433">
        <ele>426.08</ele>
        <time>2017-03-26T09:30:16Z</time>
      </trkpt>
      <trkpt lat="45.52626" lon="4.75415">
        <ele>426.47</ele>
        <time>2017-03-26T09:30:17Z</time>
      </trkpt>
      <trkpt lat="45.52628" lon="4.75392">
        <ele>426.39</ele>
        <time>2017-03-26T09:30:18Z</time>
      </trkpt>
      <trkpt lat="45.52625" lon="4.75369">
        <ele>426.77</ele>
        <time>2017-03-26T09:30:19Z</time>
      </trkpt>
      <trkpt lat="45.52619" lon="4.75347">
        <ele>426.93</ele>
        <time>2017-03-26T09:30:20Z</time>
      </trkpt>
      <trkpt lat="45.52611" lon="4.75328">
        <ele>426.88</ele>
        <time>2017-03-26T09:30:21Z</time>
      </trkpt>
      <trkpt lat="45.52604" lon="4.75309">
        <ele>426.63</ele>
        <time>2017-03-26T09:30:22Z</time>
      </trkpt>
      <trkpt lat="45.52602" lon="4.7529">
        <ele>426.42</ele>
        <time>2017-03-26T09:30:23Z</time>
      </trkpt>
      <trkpt lat="45.52604" lon="4.75271">
        <ele>426.22</ele>
        <time>2017-03-26T09:30:24Z</time>
      </trkpt>
      <trkpt lat="45.52611" lon="4.75252">
        <ele>426.1</ele>
        <time>2017-03-26T09:30:25Z</time>
      </trkpt>
      <trkpt lat="45.52618" lon="4.75232">
        <ele>425.75</ele>
        <time>2017-03-26T09:30:26Z</time>
      </trkpt>
      <trkpt lat="45.52621" lon="4.7521">
        <ele>425.52</ele>
        <time>2017-03-26T09:30:27Z</time>
      </trkpt>
      <trkpt lat="45.52623" lon="4.75187">
        <ele>425.4</ele>
        <time>2017-03-26T09:30:28Z</time>
      </trkpt>
      <trkpt lat="45.52623" lon="4.75162">
        <ele>425.29</ele>
        <time>2017-03-26T09:30:29Z</time>
      </trkpt>
      <trkpt lat="45.52621" lon="4.75138">
        <ele>425.19</ele>
        <time>2017-03-26T09:30:30Z</time>
      </trkpt>
      <trkpt lat="45.52616" lon="4.75116">
        <ele>425.17</ele>
        <time>2017-03-26T09:30:31Z</time>
      </trkpt>
      <trkpt lat="45.5261" lon="4.75095">
        <ele>425.25</ele>
        <time>2017-03-26T09:30:32Z</time>
      </trkpt>
      <trkpt lat="45.52607" lon="4.75075">
        <ele>425.5</ele>
        <time>2017-03-26T09:30:33Z</time>
      </trkpt>
      <trkpt lat="45.52609" lon="4.75055">
        <ele>425.95</ele>
        <time>2017-03-26T09:30:34Z</time>
      </trkpt>
      <trkpt lat="45.52613" lon="4.75034">
        <ele>426.04</ele>
        <time>2017-03-26T09:30:35Z</time>
      </trkpt>
      <trkpt lat="45.52618" lon="4.75012">
        <ele>426.22</ele>
        <time>2017-03-26T09:30:36Z</time>
      </trkpt>
      <trkpt lat="45.52622" lon="4.7499">
        <ele>426.74</ele>
        <time>2017-03-26T09:30:37Z</time>
      </trkpt>
      <trkpt lat="45.52622" lon="4.74969">
        <ele>427.16</ele>
        <time>2017-03-26T09:30:38Z</time>
      </trkpt>
      <trkpt lat="45.52617" lon="4.74952">
        <ele>427.57</ele>
        <time>2017-03-26T09:30:39Z</time>
      </trkpt>
      <trkpt lat="45.5261" lon="4.74938">
        <ele>427.73</ele>
        <time>2017-03-26T09:30:40Z</time>
      </trkpt>
      <trkpt lat="45.52598" lon="4.7493">
        <ele>427.84</ele>
        <time>2017-03-26T09:30:41Z</time>
      </trkpt>
      <trkpt lat="45.52585" lon="4.74926">
        <ele>428.1</ele>
        <time>2017-03-26T09:30:42Z</time>
      </trkpt>
      <trkpt lat="45.52572" lon="4.7492">
        <ele>428.47</ele>
        <time>2017-03-26T09:30:43Z</time>
      </trkpt>
      <trkpt lat="45.5256" lon="4.74907">
        <ele>428.79</ele>
        <time>2017-03-26T09:30:44Z</time>
      </trkpt>
      <trkpt lat="45.52548" lon="4.74891">
        <ele>429.17</ele>
        <time>2017-03-26T09:30:45Z</time>
      </trkpt>
      <trkpt lat="45.52534" lon="4.74875">
        <ele>429.41</ele>
        <time>2017-03-26T09:30:46Z</time>
      </trkpt>
      <trkpt lat="45.52516" lon="4.74863">
        <ele>429.78</ele>
        <time>2017-03-26T09:30:47Z</time>
      </trkpt>
      <trkpt lat="45.52498" lon="4.74851">
        <ele>430.17</ele>
        <time>2017-03-26T09:30:48Z</time>
      </trkpt>
      <trkpt lat="45.52483" lon="4.74837">
        <ele>430.81</ele>
        <time>2017-03-26T09:30:49Z</time>
      </trkpt>
      <trkpt lat="45.5247" lon="4.74821">
        <ele>431.5</ele>
        <time>2017-03-26T09:30:50Z</time>
      </trkpt>
      <trkpt lat="45.5246" lon="4.74802">
        <ele>432.27</ele>
        <time>2017-03-26T09:30:51Z</time>
      </trkpt>
      <trkpt lat="45.52453" lon="4.74782">
        <ele>432.83</ele>
        <time>2017-03-26T09:30:52Z</time>
      </trkpt>
      <trkpt lat="45.52447" lon="4.7476">
        <ele>433.66</ele>
        <time>2017-03-26T09:30:53Z</time>
      </trkpt>
      <trkpt lat="45.52445" lon="4.74733">
        <ele>434.39</ele>
        <time>2017-03-26T09:30:54Z</time>
      </trkpt>
      <trkpt lat="45.52441" lon="4.74708">
        <ele>435.09</ele>
        <time>2017-03-26T09:30:55Z</time>
      </trkpt>
      <trkpt lat="45.52435" lon="4.74683">
        <ele>435.63</ele>
        <time>2017-03-26T09:30:56Z</time>
      </trkpt>
      <trkpt lat="45.52427" lon="4.74659">
        <ele>436.3</ele>
        <time>2017-03-26T09:30:57Z</time>
      </trkpt>
      <trkpt lat="45.52416" lon="4.74639">
        <ele>436.83</ele>
        <time>2017-03-26T09:30:58Z</time>
      </trkpt>
      <trkpt lat="45.52404" lon="4.74621">
        <ele>437.26</ele>
        <time>2017-03-26T09:30:59Z</time>
      </trkpt>
      <trkpt lat="45.52387" lon="4.74607">
        <ele>437.67</ele>
        <time>2017-03-26T09:31:00Z</time>
      </trkpt>
      <trkpt lat="45.52367" lon="4.74596">
        <ele>438.15</ele>
        <time>2017-03-26T09:31:01Z</time>
      </trkpt>
      <trkpt lat="45.52346" lon="4.74585">
        <ele>438.64</ele>
        <time>2017-03-26T09:31:02Z</time>
      </trkpt>
      <trkpt lat="45.52327" lon="4.74573">
        <ele>438.98</ele>
        <time>2017-03-26T09:31:03Z</time>
      </trkpt>
      <trkpt lat="45.5231" lon="4.74561">
        <ele>439.37</ele>
        <time>2017-03-26T09:31:04Z</time>
      </trkpt>
      <trkpt lat="45.52295" lon="4.7455">
        <ele>440.01</ele>
        <time>2017-03-26T09:31:05Z</time>
      </trkpt>
      <trkpt lat="45.5228" lon="4.74537">
        <ele>440.7</ele>
        <time>2017-03-26T09:31:06Z</time>
      </trkpt>
      <trkpt lat="45.52269" lon="4.7452">
        <ele>441.47</ele>
        <time>2017-03-26T09:31:07Z</time>
      </trkpt>
      <trkpt lat="45.52259" lon="4.745">
        <ele>442.75</ele>
        <time>2017-03-26T09:31:08Z</time>
      </trkpt>
      <trkpt lat="45.52253" lon="4.74478">
        <ele>443.56</ele>
        <time>2017-03-26T09:31:09Z</time>
      </trkpt>
      <trkpt lat="45.52248" lon="4.74454">
        <ele>443.97</ele>
        <time>2017-03-26T09:31:10Z</time>
      </trkpt>
      <trkpt lat="45.52245" lon="4.74432">
        <ele>444.05</ele>
        <time>2017-03-26T09:31:11Z</time>
      </trkpt>
      <trkpt lat="45.52241" lon="4.74412">
        <ele>443.98</ele>
        <time>2017-03-26T09:31:12Z</time>
      </trkpt>
      <trkpt lat="45.52239" lon="4.74395">
        <ele>444.05</ele>
        <time>2017-03-26T09:31:13Z</time>
      </trkpt>
      <trkpt lat="45.52237" lon="4.7438">
        <ele>444.06</ele>
        <time>2017-03-26T09:31:14Z</time>
      </trkpt>
      <trkpt lat="45.52235" lon="4.74368">
        <ele>444.23</ele>
        <time>2017-03-26T09:31:15Z</time>
      </trkpt>
      <trkpt lat="45.52234" lon="4.74358">
        <ele>444.74</ele>
        <time>2017-03-26T09:31:16Z</time>
      </trkpt>
      <trkpt lat="45.52233" lon="4.74352">
        <ele>445.32</ele>
        <time>2017-03-26T09:31:17Z</time>
      </trkpt>
      <trkpt lat="45.52233" lon="4.74349">
        <ele>445.84</ele>
        <time>2017-03-26T09:31:18Z</time>
      </trkpt>
      <trkpt lat="45.52234" lon="4.74348">
        <ele>446.34</ele>
        <time>2017-03-26T09:31:19Z</time>
      </trkpt>
      <trkpt lat="45.52234" lon="4.74349">
        <ele>446.84</ele>
        <time>2017-03-26T09:31:20Z</time>
      </trkpt>
      <trkpt lat="45.52233" lon="4.74349">
        <ele>447.1</ele>
        <time>2017-03-26T09:31:21Z</time>
      </trkpt>
      <trkpt lat="45.52233" lon="4.74349">
        <ele>447.15</ele>
        <time>2017-03-26T09:31:22Z</time>
      </trkpt>
      <trkpt lat="45.52233" lon="4.74349">
        <ele>447.16</ele>
        <time>2017-03-26T09:31:23Z</time>
      </trkpt>
      <trkpt lat="45.52233" lon="4.74349">
        <ele>447.17</ele>
        <time>2017-03-26T09:31:24Z</time>
      </trkpt>
      <trkpt lat="45.52233" lon="4.74349">
        <ele>447.17</ele>
        <time>2017-03-26T09:31:25Z</time>
      </trkpt>
      <trkpt lat="45.52233" lon="4.74349">
        <ele>447.17</ele>
        <time>2017-03-26T09:31:26Z</time>
      </trkpt>
      <trkpt lat="45.52233" lon="4.74349">
        <ele>447.17</ele>
        <time>2017-03-26T09:31:27Z</time>
      </trkpt>
      <trkpt lat="45.52233" lon="4.74349">
        <ele>447.17</ele>
        <time>2017-03-26T09:31:28Z</time>
      </trkpt>
      <trkpt lat="45.52233" lon="4.74349">
        <ele>447.17</ele>
        <time>2017-03-26T09:31:29Z</time>
      </trkpt>
      <trkpt lat="45.52233" lon="4.74349">
        <ele>447.17</ele>
        <time>2017-03-26T09:31:30Z</time>
      </trkpt>
      <trkpt lat="45.52233" lon="4.74349">
        <ele>447.17</ele>
        <time>2017-03-26T09:31:31Z</time>
      </trkpt>
      <trkpt lat="45.52233" lon="4.74349">
        <ele>447.17</ele>
        <time>2017-03-26T09:31:32Z</time>
      </trkpt>
      <trkpt lat="45.52233" lon="4.74349">
        <ele>447.17</ele>
        <time>2017-03-26T09:31:33Z</time>
      </trkpt>
      <trkpt lat="45.52233" lon="4.74349">
        <ele>447.17</ele>
        <time>2017-03-26T09:31:34Z</time>
      </trkpt>
      <trkpt lat="45.52233" lon="4.74349">
        <ele>447.17</ele>
        <time>2017-03-26T09:31:35Z</time>
      </trkpt>
      <trkpt lat="45.52233" lon="4.74349">
        <ele>447.17</ele>
        <time>2017-03-26T09:31:36Z</time>
      </trkpt>
      <trkpt lat="45.52233" lon="4.74349">
        <ele>447.17</ele>
        <time>2017-03-26T09:31:37Z</time>
      </trkpt>
      <trkpt lat="45.52233" lon="4.74349">
        <ele>447.17</ele>
        <time>2017-03-26T09:31:38Z</time>
      </trkpt>
      <trkpt lat="45.52233" lon="4.74349">
        <ele>447.17</ele>
        <time>2017-03-26T09:31:39Z</time>
      </trkpt>
      <trkpt lat="45.52233" lon="4.74349">
        <ele>447.17</ele>
        <time>2017-03-26T09:31:40Z</time>
      </trkpt>
      <trkpt lat="45.52233" lon="4.74349">
        <ele>447.17</ele>
        <time>2017-03-26T09:31:41Z</time>
      </trkpt>
      <trkpt lat="45.52233" lon="4.74349">
        <ele>447.17</ele>
        <time>2017-03-26T09:31:42Z</time>
      </trkpt>
      <trkpt lat="45.52233" lon="4.74349">
        <ele>447.17</ele>
        <time>2017-03-26T09:31:43Z</time>
      </trkpt>
      <trkpt lat="45.52233" lon="4.74349">
        <ele>447.17</ele>
        <time>2017-03-26T09:31:44Z</time>
      </trkpt>
      <trkpt lat="45.52233" lon="4.74349">
        <ele>447.17</ele>
        <time>2017-03-26T09:31:45Z</time>
      </trkpt>
      <trkpt lat="45.52233" lon="4.74349">
        <ele>447.17</ele>
        <time>2017-03-26T09:31:46Z</time>
      </trkpt>
      <trkpt lat="45.52233" lon="4.74349">
        <ele>447.17</ele>
        <time>2017-03-26T09:31:47Z</time>
      </trkpt>
      <trkpt lat="45.52233" lon="4.74349">
        <ele>447.17</ele>
        <time>2017-03-26T09:31:48Z</time>
      </trkpt>
      <trkpt lat="45.52233" lon="4.74349">
        <ele>447.17</ele>
        <time>2017-03-26T09:31:49Z</time>
      </trkpt>
      <trkpt lat="45.52233" lon="4.74349">
        <ele>447.17</ele>
        <time>2017-03-26T09:31:50Z</time>
      </trkpt>
      <trkpt lat="45.52233" lon="4.74349">
        <ele>447.17</ele>
        <time>2017-03-26T09:31:51Z</time>
      </trkpt>
      <trkpt lat="45.52233" lon="4.74349">
        <ele>447.17</ele>
        <time>2017-03-26T09:31:52Z</time>
      </trkpt>
      <trkpt lat="45.52233" lon="4.74349">
        <ele>447.17</ele>
        <time>2017-03-26T09:31:53Z</time>
      </trkpt>
      <trkpt lat="45.52233" lon="4.74349">
        <ele>447.17</ele>
        <time>2017-03-26T09:31:54Z</time>
      </trkpt>
      <trkpt lat="45.52233" lon="4.74349">
        <ele>447.17</ele>
        <time>2017-03-26T09:31:55Z</time>
      </trkpt>
      <trkpt lat="45.52233" lon="4.74349">
        <ele>447.17</ele>
        <time>2017-03-26T09:31:56Z</time>
      </trkpt>
      <trkpt lat="45.52233" lon="4.74349">
        <ele>447.17</ele>
        <time>2017-03-26T09:31:57Z</time>
      </trkpt>
      <trkpt lat="45.52233" lon="4.74349">
        <ele>447.17</ele>
        <time>2017-03-26T09:31:58Z</time>
      </trkpt>
      <trkpt lat="45.52233" lon="4.74349">
        <ele>447.17</ele>
        <time>2017-03-26T09:31:59Z</time>
      </trkpt>
      <trkpt lat="45.52233" lon="4.74349">
        <ele>447.17</ele>
        <time>2017-03-26T09:32:00Z</time>
      </trkpt>
      <trkpt lat="45.52233" lon="4.74349">
        <ele>447.17</ele>
        <time>2017-03-26T09:32:01Z</time>
      </trkpt>
      <trkpt lat="45.52233" lon="4.74349">
        <ele>447.17</ele>
        <time>2017-03-26T09:32:02Z</time>
      </trkpt>
      <trkpt lat="45.52233" lon="4.74349">
        <ele>447.17</ele>
        <time>2017-03-26T09:32:03Z</time>
      </trkpt>
      <trkpt lat="45.52233" lon="4.74349">
        <ele>447.17</ele>
        <time>2017-03-26T09:32:04Z</time>
      </trkpt>
      <trkpt lat="45.52233" lon="4.74349">
        <ele>447.17</ele>
        <time>2017-03-26T09:32:05Z</time>
      </trkpt>
      <trkpt lat="45.52233" lon="4.74349">
        <ele>447.17</ele>
        <time>2017-03-26T09:32:06Z</time>
      </trkpt>
      <trkpt lat="45.52233" lon="4.74349">
        <ele>447.17</ele>
        <time>2017-03-26T09:32:07Z</time>
      </trkpt>
      <trkpt lat="45.52233" lon="4.74349">
        <ele>447.17</ele>
        <time>2017-03-26T09:32:08Z</time>
      </trkpt>
      <trkpt lat="45.52233" lon="4.74349">
        <ele>447.17</ele>
        <time>2017-03-26T09:32:09Z</time>
      </trkpt>
      <trkpt lat="45.52233" lon="4.74349">
        <ele>447.17</ele>
        <time>2017-03-26T09:32:10Z</time>
      </trkpt>
      <trkpt lat="45.52233" lon="4.74349">
        <ele>447.17</ele>
        <time>2017-03-26T09:32:11Z</time>
      </trkpt>
      <trkpt lat="45.52233" lon="4.74349">
        <ele>447.17</ele>
        <time>2017-03-26T09:32:12Z</time>
      </trkpt>
      <trkpt lat="45.52233" lon="4.74349">
        <ele>447.17</ele>
        <time>2017-03-26T09:32:13Z</time>
      </trkpt>
      <trkpt lat="45.52233" lon="4.74349">
        <ele>447.17</ele>
        <time>2017-03-26T09:32:14Z</time>
      </trkpt>
      <trkpt lat="45.52233" lon="4.74349">
        <ele>447.17</ele>
        <time>2017-03-26T09:32:15Z</time>
      </trkpt>
      <trkpt lat="45.52233" lon="4.74349">
        <ele>447.17</ele>
        <time>2017-03-26T09:32:16Z</time>
      </trkpt>
      <trkpt lat="45.52233" lon="4.74349">
        <ele>447.17</ele>
        <time>2017-03-26T09:32:17Z</time>
      </trkpt>
      <trkpt lat="45.52233" lon="4.74349">
        <ele>447.17</ele>
        <time>2017-03-26T09:32:18Z</time>
      </trkpt>
      <trkpt lat="45.52233" lon="4.74349">
        <ele>447.17</ele>
        <time>2017-03-26T09:32:19Z</time>
      </trkpt>
      <trkpt lat="45.52233" lon="4.74349">
        <ele>447.17</ele>
        <time>2017-03-26T09:32:20Z</time>
      </trkpt>
      <trkpt lat="45.52233" lon="4.74349">
        <ele>447.17</ele>
        <time>2017-03-26T09:32:21Z</time>
      </trkpt>
      <trkpt lat="45.52233" lon="4.74349">
        <ele>447.17</ele>
        <time>2017-03-26T09:32:22Z</time>
      </trkpt>
      <trkpt lat="45.52233" lon="4.74349">
        <ele>447.17</ele>
        <time>2017-03-26T09:32:23Z</time>
      </trkpt>
      <trkpt lat="45.52233" lon="4.74349">
        <ele>447.17</ele>
        <time>2017-03-26T09:32:24Z</time>
      </trkpt>
      <trkpt lat="45.52233" lon="4.74349">
        <ele>447.17</ele>
        <time>2017-03-26T09:32:25Z</time>
      </trkpt>
      <trkpt lat="45.52233" lon="4.74349">
        <ele>447.17</ele>
        <time>2017-03-26T09:32:26Z</time>
      </trkpt>
      <trkpt lat="45.52233" lon="4.74349">
        <ele>447.17</ele>
        <time>2017-03-26T09:32:27Z</time>
      </trkpt>
      <trkpt lat="45.52233" lon="4.74349">
        <ele>447.17</ele>
        <time>2017-03-26T09:32:28Z</time>
      </trkpt>
      <trkpt lat="45.52233" lon="4.74349">
        <ele>447.17</ele>
        <time>2017-03-26T09:32:29Z</time>
      </trkpt>
      <trkpt lat="45.52233" lon="4.74349">
        <ele>447.17</ele>
        <time>2017-03-26T09:32:30Z</time>
      </trkpt>
      <trkpt lat="45.52233" lon="4.74349">
        <ele>447.17</ele>
        <time>2017-03-26T09:32:31Z</time>
      </trkpt>
      <trkpt lat="45.52233" lon="4.74349">
        <ele>447.17</ele>
        <time>2017-03-26T09:32:32Z</time>
      </trkpt>
      <trkpt lat="45.52233" lon="4.74349">
        <ele>447.17</ele>
        <time>2017-03-26T09:32:33Z</time>
      </trkpt>
      <trkpt lat="45.52233" lon="4.74349">
        <ele>447.17</ele>
        <time>2017-03-26T09:32:34Z</time>
      </trkpt>
      <trkpt lat="45.52233" lon="4.74349">
        <ele>447.17</ele>
        <time>2017-03-26T09:32:35Z</time>
      </trkpt>
      <trkpt lat="45.52233" lon="4.74349">
        <ele>447.17</ele>
        <time>2017-03-26T09:32:36Z</time>
      </trkpt>
      <trkpt lat="45.52233" lon="4.74349">
        <ele>447.17</ele>
        <time>2017-03-26T09:32:37Z</time>
      </trkpt>
      <trkpt lat="45.52233" lon="4.74349">
        <ele>447.17</ele>
        <time>2017-03-26T09:32:38Z</time>
      </trkpt>
      <trkpt lat="45.52233" lon="4.74349">
        <ele>447.17</ele>
        <time>2017-03-26T09:32:39Z</time>
      </trkpt>
      <trkpt lat="45.52233" lon="4.74349">
        <ele>447.17</ele>
        <time>2017-03-26T09:32:40Z</time>
      </trkpt>
      <trkpt lat="45.52233" lon="4.74349">
        <ele>447.17</ele>
        <time>2017-03-26T09:32:41Z</time>
      </trkpt>
      <trkpt lat="45.52233" lon="4.74349">
        <ele>447.17</ele>
        <time>2017-03-26T09:32:42Z</time>
      </trkpt>
      <trkpt lat="45.52233" lon="4.74349">
        <ele>447.17</ele>
        <time>2017-03-26T09:32:43Z</time>
      </trkpt>
      <trkpt lat="45.52233" lon="4.74349">
        <ele>447.17</ele>
        <time>2017-03-26T09:32:44Z</time>
      </trkpt>
      <trkpt lat="45.52233" lon="4.74349">
        <ele>447.17</ele>
        <time>2017-03-26T09:32:45Z</time>
      </trkpt>
      <trkpt lat="45.52233" lon="4.74349">
        <ele>447.17</ele>
        <time>2017-03-26T09:32:46Z</time>
      </trkpt>
      <trkpt lat="45.52233" lon="4.74349">
        <ele>447.17</ele>
        <time>2017-03-26T09:32:47Z</time>
      </trkpt>
      <trkpt lat="45.52233" lon="4.74349">
        <ele>447.17</ele>
        <time>2017-03-26T09:32:48Z</time>
      </trkpt>
      <trkpt lat="45.52233" lon="4.74349">
        <ele>447.17</ele>
        <time>2017-03-26T09:32:49Z</time>
      </trkpt>
      <trkpt lat="45.52232" lon="4.74348">
        <ele>447.25</ele>
        <time>2017-03-26T09:32:50Z</time>
      </trkpt>
      <trkpt lat="45.5223" lon="4.74345">
        <ele>447.1</ele>
        <time>2017-03-26T09:32:51Z</time>
      </trkpt>
      <trkpt lat="45.52227" lon="4.74343">
        <ele>446.99</ele>
        <time>2017-03-26T09:32:52Z</time>
      </trkpt>
      <trkpt lat="45.52221" lon="4.74342">
        <ele>447.13</ele>
        <time>2017-03-26T09:32:53Z</time>
      </trkpt>
      <trkpt lat="45.52214" lon="4.74341">
        <ele>447.08</ele>
        <time>2017-03-26T09:32:54Z</time>
      </trkpt>
      <trkpt lat="45.52207" lon="4.74342">
        <ele>447.07</ele>
        <time>2017-03-26T09:32:55Z</time>
      </trkpt>
      <trkpt lat="45.52199" lon="4.74341">
        <ele>447.15</ele>
        <time>2017-03-26T09:32:56Z</time>
      </trkpt>
      <trkpt lat="45.5219" lon="4.74341">
        <ele>447.16</ele>
        <time>2017-03-26T09:32:57Z</time>
      </trkpt>
      <trkpt lat="45.52181" lon="4.74341">
        <ele>447.25</ele>
        <time>2017-03-26T09:32:58Z</time>
      </trkpt>
      <trkpt lat="45.52172" lon="4.74341">
        <ele>446.94</ele>
        <time>2017-03-26T09:32:59Z</time>
      </trkpt>
      <trkpt lat="45.52162" lon="4.74341">
        <ele>446.72</ele>
        <time>2017-03-26T09:33:00Z</time>
      </trkpt>
      <trkpt lat="45.52152" lon="4.7434">
        <ele>446.44</ele>
        <time>2017-03-26T09:33:01Z</time>
      </trkpt>
      <trkpt lat="45.52141" lon="4.7434">
        <ele>446.22</ele>
        <time>2017-03-26T09:33:02Z</time>
      </trkpt>
      <trkpt lat="45.52129" lon="4.74339">
        <ele>446.02</ele>
        <time>2017-03-26T09:33:03Z</time>
      </trkpt>
      <trkpt lat="45.52116" lon="4.74337">
        <ele>445.58</ele>
        <time>2017-03-26T09:33:04Z</time>
      </trkpt>
      <trkpt lat="45.52103" lon="4.74336">
        <ele>445.17</ele>
        <time>2017-03-26T09:33:05Z</time>
      </trkpt>
      <trkpt lat="45.52089" lon="4.74334">
        <ele>444.85</ele>
        <time>2017-03-26T09:33:06Z</time>
      </trkpt>
      <trkpt lat="45.52073" lon="4.74332">
        <ele>444.46</ele>
        <time>2017-03-26T09:33:07Z</time>
      </trkpt>
      <trkpt lat="45.52058" lon="4.7433">
        <ele>444.07</ele>
        <time>2017-03-26T09:33:08Z</time>
      </trkpt>
      <trkpt lat="45.52041" lon="4.74329">
        <ele>443.59</ele>
        <time>2017-03-26T09:33:09Z</time>
      </trkpt>
      <trkpt lat="45.52024" lon="4.74327">
        <ele>443.09</ele>
        <time>2017-03-26T09:33:10Z</time>
      </trkpt>
      <trkpt lat="45.52007" lon="4.74327">
        <ele>442.27</ele>
        <time>2017-03-26T09:33:11Z</time>
      </trkpt>
      <trkpt lat="45.51989" lon="4.74328">
        <ele>441.23</ele>
        <time>2017-03-26T09:33:12Z</time>
      </trkpt>
      <trkpt lat="45.51972" lon="4.7433">
        <ele>440.46</ele>
        <time>2017-03-26T09:33:13Z</time>
      </trkpt>
      <trkpt lat="45.51956" lon="4.74335">
        <ele>439.75</ele>
        <time>2017-03-26T09:33:14Z</time>
      </trkpt>
      <trkpt lat="45.51941" lon="4.74339">
        <ele>438.96</ele>
        <time>2017-03-26T09:33:15Z</time>
      </trkpt>
      <trkpt lat="45.51926" lon="4.74343">
        <ele>438.01</ele>
        <time>2017-03-26T09:33:16Z</time>
      </trkpt>
      <trkpt lat="45.51912" lon="4.74345">
        <ele>437.01</ele>
        <time>2017-03-26T09:33:17Z</time>
      </trkpt>
      <trkpt lat="45.51899" lon="4.74343">
        <ele>435.94</ele>
        <time>2017-03-26T09:33:18Z</time>
      </trkpt>
      <trkpt lat="45.51886" lon="4.74342">
        <ele>434.76</ele>
        <time>2017-03-26T09:33:19Z</time>
      </trkpt>
      <trkpt lat="45.51873" lon="4.74341">
        <ele>433.65</ele>
        <time>2017-03-26T09:33:20Z</time>
      </trkpt>
      <trkpt lat="45.51862" lon="4.74345">
        <ele>432.78</ele>
        <time>2017-03-26T09:33:21Z</time>
      </trkpt>
      <trkpt lat="45.51853" lon="4.74353">
        <ele>431.97</ele>
        <time>2017-03-26T09:33:22Z</time>
      </trkpt>
      <trkpt lat="45.51844" lon="4.74366">
        <ele>431.09</ele>
        <time>2017-03-26T09:33:23Z</time>
      </trkpt>
      <trkpt lat="45.51837" lon="4.74385">
        <ele>430.75</ele>
        <time>2017-03-26T09:33:24Z</time>
      </trkpt>
      <trkpt lat="45.51829" lon="4.74402">
        <ele>430.36</ele>
        <time>2017-03-26T09:33:25Z</time>
      </trkpt>
      <trkpt lat="45.51819" lon="4.74417">
        <ele>430.05</ele>
        <time>2017-03-26T09:33:26Z</time>
      </trkpt>
      <trkpt lat="45.51808" lon="4.74427">
        <ele>429.5</ele>
        <time>2017-03-26T09:33:27Z</time>
      </trkpt>
      <trkpt lat="45.51795" lon="4.74432">
        <ele>428.91</ele>
        <time>2017-03-26T09:33:28Z</time>
      </trkpt>
      <trkpt lat="45.51781" lon="4.74433">
        <ele>427.6</ele>
        <time>2017-03-26T09:33:29Z</time>
      </trkpt>
      <trkpt lat="45.51767" lon="4.74434">
        <ele>425.97</ele>
        <time>2017-03-26T09:33:30Z</time>
      </trkpt>
      <trkpt lat="45.51753" lon="4.74438">
        <ele>424.69</ele>
        <time>2017-03-26T09:33:31Z</time>
      </trkpt>
      <trkpt lat="45.51741" lon="4.74448">
        <ele>424.03</ele>
        <time>2017-03-26T09:33:32Z</time>
      </trkpt>
      <trkpt lat="45.51731" lon="4.74462">
        <ele>423.82</ele>
        <time>2017-03-26T09:33:33Z</time>
      </trkpt>
      <trkpt lat="45.51723" lon="4.74479">
        <ele>423.7</ele>
        <time>2017-03-26T09:33:34Z</time>
      </trkpt>
      <trkpt lat="45.51714" lon="4.74495">
        <ele>423.35</ele>
        <time>2017-03-26T09:33:35Z</time>
      </trkpt>
      <trkpt lat="45.51705" lon="4.74509">
        <ele>422.96</ele>
        <time>2017-03-26T09:33:36Z</time>
      </trkpt>
      <trkpt lat="45.51695" lon="4.7452">
        <ele>422.25</ele>
        <time>2017-03-26T09:33:37Z</time>
      </trkpt>
      <trkpt lat="45.51683" lon="4.74528">
        <ele>421.54</ele>
        <time>2017-03-26T09:33:38Z</time>
      </trkpt>
      <trkpt lat="45.5167" lon="4.74534">
        <ele>420.84</ele>
        <time>2017-03-26T09:33:39Z</time>
      </trkpt>
      <trkpt lat="45.51656" lon="4.74536">
        <ele>420.38</ele>
        <time>2017-03-26T09:33:40Z</time>
      </trkpt>
      <trkpt lat="45.51641" lon="4.74537">
        <ele>419.65</ele>
        <time>2017-03-26T09:33:41Z</time>
      </trkpt>
      <trkpt lat="45.51624" lon="4.74538">
        <ele>418.78</ele>
        <time>2017-03-26T09:33:42Z</time>
      </trkpt>
      <trkpt lat="45.51607" lon="4.7454">
        <ele>417.89</ele>
        <time>2017-03-26T09:33:43Z</time>
      </trkpt>
      <trkpt lat="45.51589" lon="4.74542">
        <ele>416.99</ele>
        <time>2017-03-26T09:33:44Z</time>
      </trkpt>
      <trkpt lat="45.51571" lon="4.74544">
        <ele>416.17</ele>
        <time>2017-03-26T09:33:45Z</time>
      </trkpt>
      <trkpt lat="45.51554" lon="4.74544">
        <ele>415.13</ele>
        <time>2017-03-26T09:33:46Z</time>
      </trkpt>
      <trkpt lat="45.51538" lon="4.74541">
        <ele>413.4</ele>
        <time>2017-03-26T09:33:47Z</time>
      </trkpt>
      <trkpt lat="45.51522" lon="4.74536">
        <ele>411.85</ele>
        <time>2017-03-26T09:33:48Z</time>
      </trkpt>
      <trkpt lat="45.51507" lon="4.74529">
        <ele>410.42</ele>
        <time>2017-03-26T09:33:49Z</time>
      </trkpt>
      <trkpt lat="45.51492" lon="4.74519">
        <ele>409.18</ele>
        <time>2017-03-26T09:33:50Z</time>
      </trkpt>
      <trkpt lat="45.5148" lon="4.74508">
        <ele>407.97</ele>
        <time>2017-03-26T09:33:51Z</time>
      </trkpt>
      <trkpt lat="45.51475" lon="4.7449">
        <ele>406.85</ele>
        <time>2017-03-26T09:33:52Z</time>
      </trkpt>
      <trkpt lat="45.51471" lon="4.74474">
        <ele>405.74</ele>
        <time>2017-03-26T09:33:53Z</time>
      </trkpt>
      <trkpt lat="45.51471" lon="4.74457">
        <ele>404.08</ele>
        <time>2017-03-26T09:33:54Z</time>
      </trkpt>
      <trkpt lat="45.51473" lon="4.74439">
        <ele>402.55</ele>
        <time>2017-03-26T09:33:55Z</time>
      </trkpt>
      <trkpt lat="45.51477" lon="4.74422">
        <ele>401.36</ele>
        <time>2017-03-26T09:33:56Z</time>
      </trkpt>
      <trkpt lat="45.51479" lon="4.74405">
        <ele>400.09</ele>
        <time>2017-03-26T09:33:57Z</time>
      </trkpt>
      <trkpt lat="45.51477" lon="4.74391">
        <ele>398.79</ele>
        <time>2017-03-26T09:33:58Z</time>
      </trkpt>
      <trkpt lat="45.5147" lon="4.74379">
        <ele>397.57</ele>
        <time>2017-03-26T09:33:59Z</time>
      </trkpt>
      <trkpt lat="45.51461" lon="4.74368">
        <ele>396.45</ele>
        <time>2017-03-26T09:34:00Z</time>
      </trkpt>
      <trkpt lat="45.51453" lon="4.74356">
        <ele>395.5</ele>
        <time>2017-03-26T09:34:01Z</time>
      </trkpt>
      <trkpt lat="45.51445" lon="4.74343">
        <ele>394.51</ele>
        <time>2017-03-26T09:34:02Z</time>
      </trkpt>
      <trkpt lat="45.51441" lon="4.74326">
        <ele>393.52</ele>
        <time>2017-03-26T09:34:03Z</time>
      </trkpt>
      <trkpt lat="45.51437" lon="4.74309">
        <ele>392.28</ele>
        <time>2017-03-26T09:34:04Z</time>
      </trkpt>
      <trkpt lat="45.51434" lon="4.7429">
        <ele>390.99</ele>
        <time>2017-03-26T09:34:05Z</time>
      </trkpt>
      <trkpt lat="45.51428" lon="4.74276">
        <ele>389.77</ele>
        <time>2017-03-26T09:34:06Z</time>
      </trkpt>
      <trkpt lat="45.51421" lon="4.74265">
        <ele>388.57</ele>
        <time>2017-03-26T09:34:07Z</time>
      </trkpt>
      <trkpt lat="45.51415" lon="4.74259">
        <ele>387.37</ele>
        <time>2017-03-26T09:34:08Z</time>
      </trkpt>
      <trkpt lat="45.51407" lon="4.7426">
        <ele>386.33</ele>
        <time>2017-03-26T09:34:09Z</time>
      </trkpt>
      <trkpt lat="45.51398" lon="4.74267">
        <ele>385.32</ele>
        <time>2017-03-26T09:34:10Z</time>
      </trkpt>
      <trkpt lat="45.51387" lon="4.7428">
        <ele>384.4</ele>
        <time>2017-03-26T09:34:11Z</time>
      </trkpt>
      <trkpt lat="45.51375" lon="4.74291">
        <ele>383.09</ele>
        <time>2017-03-26T09:34:12Z</time>
      </trkpt>
      <trkpt lat="45.51363" lon="4.74301">
        <ele>381.71</ele>
        <time>2017-03-26T09:34:13Z</time>
      </trkpt>
      <trkpt lat="45.51349" lon="4.74309">
        <ele>380.08</ele>
        <time>2017-03-26T09:34:14Z</time>
      </trkpt>
      <trkpt lat="45.51334" lon="4.74314">
        <ele>378.55</ele>
        <time>2017-03-26T09:34:15Z</time>
      </trkpt>
      <trkpt lat="45.51318" lon="4.74318">
        <ele>377.2</ele>
        <time>2017-03-26T09:34:16Z</time>
      </trkpt>
      <trkpt lat="45.51301" lon="4.74321">
        <ele>375.97</ele>
        <time>2017-03-26T09:34:17Z</time>
      </trkpt>
      <trkpt lat="45.51285" lon="4.74323">
        <ele>374.77</ele>
        <time>2017-03-26T09:34:18Z</time>
      </trkpt>
      <trkpt lat="45.51268" lon="4.74324">
        <ele>373.81</ele>
        <time>2017-03-26T09:34:19Z</time>
      </trkpt>
      <trkpt lat="45.51252" lon="4.74324">
        <ele>372.66</ele>
        <time>2017-03-26T09:34:20Z</time>
      </trkpt>
      <trkpt lat="45.51236" lon="4.74322">
        <ele>371.54</ele>
        <time>2017-03-26T09:34:21Z</time>
      </trkpt>
      <trkpt lat="45.51221" lon="4.74321">
        <ele>370.28</ele>
        <time>2017-03-26T09:34:22Z</time>
      </trkpt>
      <trkpt lat="45.51205" lon="4.74322">
        <ele>369.07</ele>
        <time>2017-03-26T09:34:23Z</time>
      </trkpt>
      <trkpt lat="45.51189" lon="4.74326">
        <ele>367.79</ele>
        <time>2017-03-26T09:34:24Z</time>
      </trkpt>
      <trkpt lat="45.51172" lon="4.74333">
        <ele>366.41</ele>
        <time>2017-03-26T09:34:25Z</time>
      </trkpt>
      <trkpt lat="45.51155" lon="4.7434">
        <ele>365.1</ele>
        <time>2017-03-26T09:34:26Z</time>
      </trkpt>
      <trkpt lat="45.51138" lon="4.74345">
        <ele>363.79</ele>
        <time>2017-03-26T09:34:27Z</time>
      </trkpt>
      <trkpt lat="45.5112" lon="4.74349">
        <ele>362.25</ele>
        <time>2017-03-26T09:34:28Z</time>
      </trkpt>
      <trkpt lat="45.51103" lon="4.74351">
        <ele>360.9</ele>
        <time>2017-03-26T09:34:29Z</time>
      </trkpt>
      <trkpt lat="45.51086" lon="4.74351">
        <ele>359.59</ele>
        <time>2017-03-26T09:34:30Z</time>
      </trkpt>
      <trkpt lat="45.51068" lon="4.74352">
        <ele>358.29</ele>
        <time>2017-03-26T09:34:31Z</time>
      </trkpt>
      <trkpt lat="45.51051" lon="4.74353">
        <ele>357.07</ele>
        <time>2017-03-26T09:34:32Z</time>
      </trkpt>
      <trkpt lat="45.51033" lon="4.74354">
        <ele>355.71</ele>
        <time>2017-03-26T09:34:33Z</time>
      </trkpt>
      <trkpt lat="45.51015" lon="4.74355">
        <ele>354.32</ele>
        <time>2017-03-26T09:34:34Z</time>
      </trkpt>
      <trkpt lat="45.50998" lon="4.74357">
        <ele>352.92</ele>
        <time>2017-03-26T09:34:35Z</time>
      </trkpt>
      <trkpt lat="45.5098" lon="4.74358">
        <ele>351.44</ele>
        <time>2017-03-26T09:34:36Z</time>
      </trkpt>
      <trkpt lat="45.50963" lon="4.74358">
        <ele>350.26</ele>
        <time>2017-03-26T09:34:37Z</time>
      </trkpt>
      <trkpt lat="45.50945" lon="4.74357">
        <ele>349.31</ele>
        <time>2017-03-26T09:34:38Z</time>
      </trkpt>
      <trkpt lat="45.50929" lon="4.74353">
        <ele>348.23</ele>
        <time>2017-03-26T09:34:39Z</time>
      </trkpt>
      <trkpt lat="45.50913" lon="4.74348">
        <ele>347.54</ele>
        <time>2017-03-26T09:34:40Z</time>
      </trkpt>
      <trkpt lat="45.50897" lon="4.74343">
        <ele>347</ele>
        <time>2017-03-26T09:34:41Z</time>
      </trkpt>
      <trkpt lat="45.5088" lon="4.74341">
        <ele>346.33</ele>
        <time>2017-03-26T09:34:42Z</time>
      </trkpt>
      <trkpt lat="45.50863" lon="4.74342">
        <ele>345.56</ele>
        <time>2017-03-26T09:34:43Z</time>
      </trkpt>
      <trkpt lat="45.50846" lon="4.74346">
        <ele>344.53</ele>
        <time>2017-03-26T09:34:44Z</time>
      </trkpt>
      <trkpt lat="45.50829" lon="4.74353">
        <ele>343.84</ele>
        <time>2017-03-26T09:34:45Z</time>
      </trkpt>
      <trkpt lat="45.50813" lon="4.74361">
        <ele>342.98</ele>
        <time>2017-03-26T09:34:46Z</time>
      </trkpt>
      <trkpt lat="45.50797" lon="4.74371">
        <ele>342.09</ele>
        <time>2017-03-26T09:34:47Z</time>
      </trkpt>
      <trkpt lat="45.50781" lon="4.74383">
        <ele>341.11</ele>
        <time>2017-03-26T09:34:48Z</time>
      </trkpt>
      <trkpt lat="45.50766" lon="4.74396">
        <ele>340.2</ele>
        <time>2017-03-26T09:34:49Z</time>
      </trkpt>
      <trkpt lat="45.50752" lon="4.74409">
        <ele>339.37</ele>
        <time>2017-03-26T09:34:50Z</time>
      </trkpt>
      <trkpt lat="45.50738" lon="4.74424">
        <ele>338.49</ele>
        <time>2017-03-26T09:34:51Z</time>
      </trkpt>
      <trkpt lat="45.50725" lon="4.74438">
        <ele>337.51</ele>
        <time>2017-03-26T09:34:52Z</time>
      </trkpt>
      <trkpt lat="45.50712" lon="4.7445">
        <ele>336.68</ele>
        <time>2017-03-26T09:34:53Z</time>
      </trkpt>
      <trkpt lat="45.50699" lon="4.74461">
        <ele>335.79</ele>
        <time>2017-03-26T09:34:54Z</time>
      </trkpt>
      <trkpt lat="45.50685" lon="4.74471">
        <ele>334.97</ele>
        <time>2017-03-26T09:34:55Z</time>
      </trkpt>
      <trkpt lat="45.50671" lon="4.74479">
        <ele>334.25</ele>
        <time>2017-03-26T09:34:56Z</time>
      </trkpt>
      <trkpt lat="45.50656" lon="4.74486">
        <ele>334.02</ele>
        <time>2017-03-26T09:34:57Z</time>
      </trkpt>
      <trkpt lat="45.5064" lon="4.74493">
        <ele>333.82</ele>
        <time>2017-03-26T09:34:58Z</time>
      </trkpt>
      <trkpt lat="45.50626" lon="4.745">
        <ele>333.7</ele>
        <time>2017-03-26T09:34:59Z</time>
      </trkpt>
      <trkpt lat="45.50612" lon="4.74508">
        <ele>333.35</ele>
        <time>2017-03-26T09:35:00Z</time>
      </trkpt>
      <trkpt lat="45.50598" lon="4.74517">
        <ele>332.88</ele>
        <time>2017-03-26T09:35:01Z</time>
      </trkpt>
      <trkpt lat="45.50586" lon="4.74526">
        <ele>332.39</ele>
        <time>2017-03-26T09:35:02Z</time>
      </trkpt>
      <trkpt lat="45.50575" lon="4.74534">
        <ele>332.13</ele>
        <time>2017-03-26T09:35:03Z</time>
      </trkpt>
      <trkpt lat="45.50564" lon="4.74542">
        <ele>331.84</ele>
        <time>2017-03-26T09:35:04Z</time>
      </trkpt>
      <trkpt lat="45.50554" lon="4.74551">
        <ele>331.62</ele>
        <time>2017-03-26T09:35:05Z</time>
      </trkpt>
      <trkpt lat="45.50545" lon="4.74559">
        <ele>331.42</ele>
        <time>2017-03-26T09:35:06Z</time>
      </trkpt>
      <trkpt lat="45.50536" lon="4.74568">
        <ele>330.98</ele>
        <time>2017-03-26T09:35:07Z</time>
      </trkpt>
      <trkpt lat="45.5053" lon="4.74575">
        <ele>330.81</ele>
        <time>2017-03-26T09:35:08Z</time>
      </trkpt>
      <trkpt lat="45.50523" lon="4.74581">
        <ele>330.46</ele>
        <time>2017-03-26T09:35:09Z</time>
      </trkpt>
      <trkpt lat="45.50518" lon="4.74585">
        <ele>329.98</ele>
        <time>2017-03-26T09:35:10Z</time>
      </trkpt>
      <trkpt lat="45.50515" lon="4.74586">
        <ele>329.49</ele>
        <time>2017-03-26T09:35:11Z</time>
      </trkpt>
      <trkpt lat="45.50513" lon="4.74585">
        <ele>329.47</ele>
        <time>2017-03-26T09:35:12Z</time>
      </trkpt>
      <trkpt lat="45.50515" lon="4.74581">
        <ele>329.39</ele>
        <time>2017-03-26T09:35:13Z</time>
      </trkpt>
      <trkpt lat="45.50516" lon="4.7458">
        <ele>329.61</ele>
        <time>2017-03-26T09:35:14Z</time>
      </trkpt>
      <trkpt lat="45.50518" lon="4.74579">
        <ele>330.54</ele>
        <time>2017-03-26T09:35:15Z</time>
      </trkpt>
      <trkpt lat="45.50519" lon="4.74578">
        <ele>331.04</ele>
        <time>2017-03-26T09:35:16Z</time>
      </trkpt>
      <trkpt lat="45.50519" lon="4.74578">
        <ele>331.14</ele>
        <time>2017-03-26T09:35:17Z</time>
      </trkpt>
      <trkpt lat="45.50519" lon="4.74578">
        <ele>331.16</ele>
        <time>2017-03-26T09:35:18Z</time>
      </trkpt>
      <trkpt lat="45.50519" lon="4.74578">
        <ele>331.17</ele>
        <time>2017-03-26T09:35:19Z</time>
      </trkpt>
      <trkpt lat="45.50519" lon="4.74578">
        <ele>331.17</ele>
        <time>2017-03-26T09:35:20Z</time>
      </trkpt>
      <trkpt lat="45.50519" lon="4.74578">
        <ele>331.17</ele>
        <time>2017-03-26T09:35:21Z</time>
      </trkpt>
      <trkpt lat="45.50519" lon="4.74578">
        <ele>331.17</ele>
        <time>2017-03-26T09:35:22Z</time>
      </trkpt>
      <trkpt lat="45.50519" lon="4.74578">
        <ele>331.17</ele>
        <time>2017-03-26T09:35:23Z</time>
      </trkpt>
      <trkpt lat="45.50519" lon="4.74578">
        <ele>331.17</ele>
        <time>2017-03-26T09:35:24Z</time>
      </trkpt>
      <trkpt lat="45.50519" lon="4.74578">
        <ele>331.17</ele>
        <time>2017-03-26T09:35:25Z</time>
      </trkpt>
      <trkpt lat="45.50519" lon="4.74578">
        <ele>331.17</ele>
        <time>2017-03-26T09:35:26Z</time>
      </trkpt>
      <trkpt lat="45.50519" lon="4.74578">
        <ele>331.17</ele>
        <time>2017-03-26T09:35:27Z</time>
      </trkpt>
      <trkpt lat="45.50519" lon="4.74578">
        <ele>331.17</ele>
        <time>2017-03-26T09:35:28Z</time>
      </trkpt>
      <trkpt lat="45.50519" lon="4.74578">
        <ele>331.17</ele>
        <time>2017-03-26T09:35:29Z</time>
      </trkpt>
      <trkpt lat="45.50519" lon="4.74578">
        <ele>331.17</ele>
        <time>2017-03-26T09:35:30Z</time>
      </trkpt>
      <trkpt lat="45.50519" lon="4.74578">
        <ele>331.17</ele>
        <time>2017-03-26T09:35:31Z</time>
      </trkpt>
      <trkpt lat="45.50519" lon="4.74578">
        <ele>331.17</ele>
        <time>2017-03-26T09:35:32Z</time>
      </trkpt>
      <trkpt lat="45.50519" lon="4.74578">
        <ele>331.17</ele>
        <time>2017-03-26T09:35:33Z</time>
      </trkpt>
      <trkpt lat="45.50519" lon="4.74578">
        <ele>331.17</ele>
        <time>2017-03-26T09:35:34Z</time>
      </trkpt>
      <trkpt lat="45.50519" lon="4.74578">
        <ele>331.17</ele>
        <time>2017-03-26T09:35:35Z</time>
      </trkpt>
      <trkpt lat="45.50519" lon="4.74578">
        <ele>331.17</ele>
        <time>2017-03-26T09:35:36Z</time>
      </trkpt>
      <trkpt lat="45.50519" lon="4.74578">
        <ele>331.17</ele>
        <time>2017-03-26T09:35:37Z</time>
      </trkpt>
      <trkpt lat="45.50519" lon="4.74578">
        <ele>331.17</ele>
        <time>2017-03-26T09:35:38Z</time>
      </trkpt>
      <trkpt lat="45.50519" lon="4.74578">
        <ele>331.17</ele>
        <time>2017-03-26T09:35:39Z</time>
      </trkpt>
      <trkpt lat="45.50519" lon="4.74578">
        <ele>331.17</ele>
        <time>2017-03-26T09:35:40Z</time>
      </trkpt>
      <trkpt lat="45.50519" lon="4.74578">
        <ele>331.17</ele>
        <time>2017-03-26T09:35:41Z</time>
      </trkpt>
      <trkpt lat="45.50519" lon="4.74578">
        <ele>331.17</ele>
        <time>2017-03-26T09:35:42Z</time>
      </trkpt>
      <trkpt lat="45.50519" lon="4.74578">
        <ele>331.17</ele>
        <time>2017-03-26T09:35:43Z</time>
      </trkpt>
      <trkpt lat="45.50519" lon="4.74578">
        <ele>331.17</ele>
        <time>2017-03-26T09:35:44Z</time>
      </trkpt>
      <trkpt lat="45.50519" lon="4.74578">
        <ele>331.17</ele>
        <time>2017-03-26T09:35:45Z</time>
      </trkpt>
      <trkpt lat="45.50519" lon="4.74578">
        <ele>331.17</ele>
        <time>2017-03-26T09:35:46Z</time>
      </trkpt>
      <trkpt lat="45.50519" lon="4.74578">
        <ele>331.17</ele>
        <time>2017-03-26T09:35:47Z</time>
      </trkpt>
      <trkpt lat="45.50519" lon="4.74578">
        <ele>331.17</ele>
        <time>2017-03-26T09:35:48Z</time>
      </trkpt>
      <trkpt lat="45.50519" lon="4.74578">
        <ele>331.17</ele>
        <time>2017-03-26T09:35:49Z</time>
      </trkpt>
      <trkpt lat="45.50519" lon="4.74578">
        <ele>331.17</ele>
        <time>2017-03-26T09:35:50Z</time>
      </trkpt>
      <trkpt lat="45.50519" lon="4.74578">
        <ele>331.17</ele>
        <time>2017-03-26T09:35:51Z</time>
      </trkpt>
      <trkpt lat="45.50519" lon="4.74578">
        <ele>331.17</ele>
        <time>2017-03-26T09:35:52Z</time>
      </trkpt>
      <trkpt lat="45.50519" lon="4.74578">
        <ele>331.17</ele>
        <time>2017-03-26T09:35:53Z</time>
      </trkpt>
      <trkpt lat="45.50519" lon="4.74578">
        <ele>331.17</ele>
        <time>2017-03-26T09:35:54Z</time>
      </trkpt>
      <trkpt lat="45.50519" lon="4.74578">
        <ele>331.17</ele>
        <time>2017-03-26T09:35:55Z</time>
      </trkpt>
      <trkpt lat="45.50519" lon="4.74578">
        <ele>331.17</ele>
        <time>2017-03-26T09:35:56Z</time>
      </trkpt>
      <trkpt lat="45.50519" lon="4.74578">
        <ele>331.17</ele>
        <time>2017-03-26T09:35:57Z</time>
      </trkpt>
      <trkpt lat="45.50519" lon="4.74578">
        <ele>331.17</ele>
        <time>2017-03-26T09:35:58Z</time>
      </trkpt>
      <trkpt lat="45.50519" lon="4.74578">
        <ele>331.17</ele>
        <time>2017-03-26T09:35:59Z</time>
      </trkpt>
      <trkpt lat="45.50519" lon="4.74578">
        <ele>331.17</ele>
        <time>2017-03-26T09:36:00Z</time>
      </trkpt>
      <trkpt lat="45.50519" lon="4.74578">
        <ele>331.17</ele>
        <time>2017-03-26T09:36:01Z</time>
      </trkpt>
      <trkpt lat="45.50519" lon="4.74578">
        <ele>331.17</ele>
        <time>2017-03-26T09:36:02Z</time>
      </trkpt>
      <trkpt lat="45.50519" lon="4.74578">
        <ele>331.17</ele>
        <time>2017-03-26T09:36:03Z</time>
      </trkpt>
      <trkpt lat="45.50519" lon="4.74578">
        <ele>331.17</ele>
        <time>2017-03-26T09:36:04Z</time>
      </trkpt>
      <trkpt lat="45.50519" lon="4.74578">
        <ele>331.17</ele>
        <time>2017-03-26T09:36:05Z</time>
      </trkpt>
      <trkpt lat="45.50519" lon="4.74578">
        <ele>331.17</ele>
        <time>2017-03-26T09:36:06Z</time>
      </trkpt>
      <trkpt lat="45.50519" lon="4.74578">
        <ele>331.17</ele>
        <time>2017-03-26T09:36:07Z</time>
      </trkpt>
      <trkpt lat="45.50519" lon="4.74578">
        <ele>331.17</ele>
        <time>2017-03-26T09:36:08Z</time>
      </trkpt>
      <trkpt lat="45.50519" lon="4.74578">
        <ele>331.17</ele>
        <time>2017-03-26T09:36:09Z</time>
      </trkpt>
      <trkpt lat="45.50519" lon="4.74578">
        <ele>331.17</ele>
        <time>2017-03-26T09:36:10Z</time>
      </trkpt>
      <trkpt lat="45.50519" lon="4.74578">
        <ele>331.17</ele>
        <time>2017-03-26T09:36:11Z</time>
      </trkpt>
      <trkpt lat="45.50519" lon="4.74578">
        <ele>331.17</ele>
        <time>2017-03-26T09:36:12Z</time>
      </trkpt>
      <trkpt lat="45.50519" lon="4.74578">
        <ele>331.17</ele>
        <time>2017-03-26T09:36:13Z</time>
      </trkpt>
      <trkpt lat="45.50519" lon="4.74578">
        <ele>331.17</ele>
        <time>2017-03-26T09:36:14Z</time>
      </trkpt>
      <trkpt lat="45.50519" lon="4.74578">
        <ele>331.17</ele>
        <time>2017-03-26T09:36:15Z</time>
      </trkpt>
      <trkpt lat="45.50519" lon="4.74578">
        <ele>331.17</ele>
        <time>2017-03-26T09:36:16Z</time>
      </trkpt>
      <trkpt lat="45.50519" lon="4.74578">
        <ele>331.17</ele>
        <time>2017-03-26T09:36:17Z</time>
      </trkpt>
      <trkpt lat="45.50519" lon="4.74578">
        <ele>331.17</ele>
        <time>2017-03-26T09:36:18Z</time>
      </trkpt>
      <trkpt lat="45.50519" lon="4.74578">
        <ele>331.17</ele>
        <time>2017-03-26T09:36:19Z</time>
      </trkpt>
      <trkpt lat="45.50519" lon="4.74578">
        <ele>331.17</ele>
        <time>2017-03-26T09:36:20Z</time>
      </trkpt>
      <trkpt lat="45.50519" lon="4.74578">
        <ele>331.17</ele>
        <time>2017-03-26T09:36:21Z</time>
      </trkpt>
      <trkpt lat="45.50519" lon="4.74578">
        <ele>331.17</ele>
        <time>2017-03-26T09:36:22Z</time>
      </trkpt>
      <trkpt lat="45.50519" lon="4.74578">
        <ele>331.17</ele>
        <time>2017-03-26T09:36:23Z</time>
      </trkpt>
      <trkpt lat="45.50519" lon="4.74578">
        <ele>331.17</ele>
        <time>2017-03-26T09:36:24Z</time>
      </trkpt>
      <trkpt lat="45.50519" lon="4.74578">
        <ele>331.17</ele>
        <time>2017-03-26T09:36:25Z</time>
      </trkpt>
      <trkpt lat="45.50519" lon="4.74578">
        <ele>331.17</ele>
        <time>2017-03-26T09:36:26Z</time>
      </trkpt>
      <trkpt lat="45.50519" lon="4.74578">
        <ele>331.17</ele>
        <time>2017-03-26T09:36:27Z</time>
      </trkpt>
      <trkpt lat="45.50519" lon="4.74578">
        <ele>331.17</ele>
        <time>2017-03-26T09:36:28Z</time>
      </trkpt>
      <trkpt lat="45.50519" lon="4.74578">
        <ele>331.17</ele>
        <time>2017-03-26T09:36:29Z</time>
      </trkpt>
      <trkpt lat="45.50519" lon="4.74578">
        <ele>331.17</ele>
        <time>2017-03-26T09:36:30Z</time>
      </trkpt>
      <trkpt lat="45.50519" lon="4.74578">
        <ele>331.17</ele>
        <time>2017-03-26T09:36:31Z</time>
      </trkpt>
      <trkpt lat="45.50519" lon="4.74578">
        <ele>331.17</ele>
        <time>2017-03-26T09:36:32Z</time>
      </trkpt>
      <trkpt lat="45.50519" lon="4.74578">
        <ele>331.17</ele>
        <time>2017-03-26T09:36:33Z</time>
      </trkpt>
      <trkpt lat="45.50519" lon="4.74578">
        <ele>331.17</ele>
        <time>2017-03-26T09:36:34Z</time>
      </trkpt>
      <trkpt lat="45.50519" lon="4.74578">
        <ele>331.17</ele>
        <time>2017-03-26T09:36:35Z</time>
      </trkpt>
      <trkpt lat="45.50519" lon="4.74578">
        <ele>331.17</ele>
        <time>2017-03-26T09:36:36Z</time>
      </trkpt>
      <trkpt lat="45.50519" lon="4.74578">
        <ele>331.17</ele>
        <time>2017-03-26T09:36:37Z</time>
      </trkpt>
      <trkpt lat="45.50519" lon="4.74578">
        <ele>331.17</ele>
        <time>2017-03-26T09:36:38Z</time>
      </trkpt>
      <trkpt lat="45.50519" lon="4.74578">
        <ele>331.17</ele>
        <time>2017-03-26T09:36:39Z</time>
      </trkpt>
      <trkpt lat="45.50519" lon="4.74578">
        <ele>331.17</ele>
        <time>2017-03-26T09:36:40Z</time>
      </trkpt>
      <trkpt lat="45.50519" lon="4.74578">
        <ele>331.17</ele>
        <time>2017-03-26T09:36:41Z</time>
      </trkpt>
      <trkpt lat="45.50519" lon="4.74578">
        <ele>331.17</ele>
        <time>2017-03-26T09:36:42Z</time>
      </trkpt>
      <trkpt lat="45.50519" lon="4.74578">
        <ele>331.17</ele>
        <time>2017-03-26T09:36:43Z</time>
      </trkpt>
      <trkpt lat="45.50519" lon="4.74578">
        <ele>331.17</ele>
        <time>2017-03-26T09:36:44Z</time>
      </trkpt>
      <trkpt lat="45.50519" lon="4.74578">
        <ele>331.17</ele>
        <time>2017-03-26T09:36:45Z</time>
      </trkpt>
      <trkpt lat="45.50519" lon="4.74578">
        <ele>331.17</ele>
        <time>2017-03-26T09:36:46Z</time>
      </trkpt>
      <trkpt lat="45.50519" lon="4.74578">
        <ele>331.17</ele>
        <time>2017-03-26T09:36:47Z</time>
      </trkpt>
      <trkpt lat="45.50519" lon="4.74578">
        <ele>331.17</ele>
        <time>2017-03-26T09:36:48Z</time>
      </trkpt>
      <trkpt lat="45.50519" lon="4.74578">
        <ele>331.17</ele>
        <time>2017-03-26T09:36:49Z</time>
      </trkpt>
      <trkpt lat="45.50519" lon="4.74578">
        <ele>331.17</ele>
        <time>2017-03-26T09:36:50Z</time>
      </trkpt>
      <trkpt lat="45.50519" lon="4.74578">
        <ele>331.17</ele>
        <time>2017-03-26T09:36:51Z</time>
      </trkpt>
      <trkpt lat="45.50519" lon="4.74578">
        <ele>331.17</ele>
        <time>2017-03-26T09:36:52Z</time>
      </trkpt>
      <trkpt lat="45.50519" lon="4.74578">
        <ele>331.17</ele>
        <time>2017-03-26T09:36:53Z</time>
      </trkpt>
      <trkpt lat="45.50519" lon="4.74578">
        <ele>331.17</ele>
        <time>2017-03-26T09:36:54Z</time>
      </trkpt>
      <trkpt lat="45.50519" lon="4.74578">
        <ele>331.17</ele>
        <time>2017-03-26T09:36:55Z</time>
      </trkpt>
      <trkpt lat="45.50519" lon="4.74578">
        <ele>331.17</ele>
        <time>2017-03-26T09:36:56Z</time>
      </trkpt>
      <trkpt lat="45.50519" lon="4.74578">
        <ele>331.17</ele>
        <time>2017-03-26T09:36:57Z</time>
      </trkpt>
      <trkpt lat="45.50519" lon="4.74578">
        <ele>331.17</ele>
        <time>2017-03-26T09:36:58Z</time>
      </trkpt>
      <trkpt lat="45.50519" lon="4.74578">
        <ele>331.17</ele>
        <time>2017-03-26T09:36:59Z</time>
      </trkpt>
      <trkpt lat="45.50519" lon="4.74578">
        <ele>331.17</ele>
        <time>2017-03-26T09:37:00Z</time>
      </trkpt>
      <trkpt lat="45.50519" lon="4.74578">
        <ele>331.17</ele>
        <time>2017-03-26T09:37:01Z</time>
      </trkpt>
      <trkpt lat="45.50519" lon="4.74578">
        <ele>331.17</ele>
        <time>2017-03-26T09:37:02Z</time>
      </trkpt>
      <trkpt lat="45.50519" lon="4.74578">
        <ele>331.17</ele>
        <time>2017-03-26T09:37:03Z</time>
      </trkpt>
      <trkpt lat="45.50519" lon="4.74578">
        <ele>331.17</ele>
        <time>2017-03-26T09:37:04Z</time>
      </trkpt>
      <trkpt lat="45.50519" lon="4.74578">
        <ele>331.17</ele>
        <time>2017-03-26T09:37:05Z</time>
      </trkpt>
      <trkpt lat="45.50519" lon="4.74578">
        <ele>331.17</ele>
        <time>2017-03-26T09:37:06Z</time>
      </trkpt>
      <trkpt lat="45.50519" lon="4.74578">
        <ele>331.17</ele>
        <time>2017-03-26T09:37:07Z</time>
      </trkpt>
      <trkpt lat="45.50519" lon="4.74578">
        <ele>331.17</ele>
        <time>2017-03-26T09:37:08Z</time>
      </trkpt>
      <trkpt lat="45.50519" lon="4.74578">
        <ele>331.17</ele>
        <time>2017-03-26T09:37:09Z</time>
      </trkpt>
      <trkpt lat="45.50519" lon="4.74578">
        <ele>331.17</ele>
        <time>2017-03-26T09:37:10Z</time>
      </trkpt>
      <trkpt lat="45.50519" lon="4.74578">
        <ele>331.17</ele>
        <time>2017-03-26T09:37:11Z</time>
      </trkpt>
      <trkpt lat="45.50519" lon="4.74578">
        <ele>331.17</ele>
        <time>2017-03-26T09:37:12Z</time>
      </trkpt>
      <trkpt lat="45.50519" lon="4.74578">
        <ele>331.17</ele>
        <time>2017-03-26T09:37:13Z</time>
      </trkpt>
      <trkpt lat="45.50519" lon="4.74578">
        <ele>331.17</ele>
        <time>2017-03-26T09:37:14Z</time>
      </trkpt>
      <trkpt lat="45.50519" lon="4.74578">
        <ele>331.17</ele>
        <time>2017-03-26T09:37:15Z</time>
      </trkpt>
      <trkpt lat="45.50519" lon="4.74578">
        <ele>331.17</ele>
        <time>2017-03-26T09:37:16Z</time>
      </trkpt>
      <trkpt lat="45.50519" lon="4.74578">
        <ele>331.17</ele>
        <time>2017-03-26T09:37:17Z</time>
      </trkpt>
      <trkpt lat="45.50519" lon="4.74578">
        <ele>331.17</ele>
        <time>2017-03-26T09:37:18Z</time>
      </trkpt>
      <trkpt lat="45.50519" lon="4.74578">
        <ele>331.17</ele>
        <time>2017-03-26T09:37:19Z</time>
      </trkpt>
      <trkpt lat="45.50519" lon="4.74578">
        <ele>331.17</ele>
        <time>2017-03-26T09:37:20Z</time>
      </trkpt>
      <trkpt lat="45.50519" lon="4.74578">
        <ele>331.17</ele>
        <time>2017-03-26T09:37:21Z</time>
      </trkpt>
      <trkpt lat="45.50519" lon="4.74578">
        <ele>331.17</ele>
        <time>2017-03-26T09:37:22Z</time>
      </trkpt>
      <trkpt lat="45.50519" lon="4.74578">
        <ele>331.17</ele>
        <time>2017-03-26T09:37:23Z</time>
      </trkpt>
      <trkpt lat="45.50519" lon="4.74578">
        <ele>331.17</ele>
        <time>2017-03-26T09:37:24Z</time>
      </trkpt>
      <trkpt lat="45.50519" lon="4.74578">
        <ele>331.17</ele>
        <time>2017-03-26T09:37:25Z</time>
      </trkpt>
      <trkpt lat="45.50519" lon="4.74578">
        <ele>331.17</ele>
        <time>2017-03-26T09:37:26Z</time>
      </trkpt>
      <trkpt lat="45.50519" lon="4.74578">
        <ele>331.17</ele>
        <time>2017-03-26T09:37:27Z</time>
      </trkpt>
      <trkpt lat="45.50519" lon="4.74578">
        <ele>331.17</ele>
        <time>2017-03-26T09:37:28Z</time>
      </trkpt>
      <trkpt lat="45.50519" lon="4.74578">
        <ele>331.17</ele>
        <time>2017-03-26T09:37:29Z</time>
      </trkpt>
      <trkpt lat="45.50519" lon="4.74578">
        <ele>331.17</ele>
        <time>2017-03-26T09:37:30Z</time>
      </trkpt>
      <trkpt lat="45.50519" lon="4.74578">
        <ele>331.17</ele>
        <time>2017-03-26T09:37:31Z</time>
      </trkpt>
      <trkpt lat="45.50519" lon="4.74578">
        <ele>331.17</ele>
        <time>2017-03-26T09:37:32Z</time>
      </trkpt>
      <trkpt lat="45.50519" lon="4.74578">
        <ele>331.17</ele>
        <time>2017-03-26T09:37:33Z</time>
      </trkpt>
      <trkpt lat="45.50519" lon="4.74578">
        <ele>331.17</ele>
        <time>2017-03-26T09:37:34Z</time>
      </trkpt>
      <trkpt lat="45.50519" lon="4.74578">
        <ele>331.17</ele>
        <time>2017-03-26T09:37:35Z</time>
      </trkpt>
      <trkpt lat="45.50519" lon="4.74578">
        <ele>331.17</ele>
        <time>2017-03-26T09:37:36Z</time>
      </trkpt>
      <trkpt lat="45.50519" lon="4.74578">
        <ele>331.17</ele>
        <time>2017-03-26T09:37:37Z</time>
      </trkpt>
      <trkpt lat="45.50519" lon="4.74578">
        <ele>331.17</ele>
        <time>2017-03-26T09:37:38Z</time>
      </trkpt>
      <trkpt lat="45.50519" lon="4.74578">
        <ele>331.17</ele>
        <time>2017-03-26T09:37:39Z</time>
      </trkpt>
      <trkpt lat="45.50519" lon="4.74578">
        <ele>331.17</ele>
        <time>2017-03-26T09:37:40Z</time>
      </trkpt>
      <trkpt lat="45.50519" lon="4.74578">
        <ele>331.17</ele>
        <time>2017-03-26T09:37:41Z</time>
      </trkpt>
      <trkpt lat="45.50519" lon="4.74578">
        <ele>331.17</ele>
        <time>2017-03-26T09:37:42Z</time>
      </trkpt>
      <trkpt lat="45.50519" lon="4.74578">
        <ele>331.17</ele>
        <time>2017-03-26T09:37:43Z</time>
      </trkpt>
      <trkpt lat="45.50519" lon="4.74578">
        <ele>331.17</ele>
        <time>2017-03-26T09:37:44Z</time>
      </trkpt>
      <trkpt lat="45.50519" lon="4.74578">
        <ele>331.17</ele>
        <time>2017-03-26T09:37:45Z</time>
      </trkpt>
      <trkpt lat="45.50519" lon="4.74578">
        <ele>331.17</ele>
        <time>2017-03-26T09:37:46Z</time>
      </trkpt>
      <trkpt lat="45.50519" lon="4.74578">
        <ele>331.17</ele>
        <time>2017-03-26T09:37:47Z</time>
      </trkpt>
      <trkpt lat="45.50519" lon="4.74578">
        <ele>331.17</ele>
        <time>2017-03-26T09:37:48Z</time>
      </trkpt>
      <trkpt lat="45.50519" lon="4.74578">
        <ele>331.17</ele>
        <time>2017-03-26T09:37:49Z</time>
      </trkpt>
      <trkpt lat="45.50519" lon="4.74578">
        <ele>331.17</ele>
        <time>2017-03-26T09:37:50Z</time>
      </trkpt>
      <trkpt lat="45.50519" lon="4.74578">
        <ele>331.17</ele>
        <time>2017-03-26T09:37:51Z</time>
      </trkpt>
      <trkpt lat="45.50519" lon="4.74578">
        <ele>331.17</ele>
        <time>2017-03-26T09:37:52Z</time>
      </trkpt>
      <trkpt lat="45.50519" lon="4.74578">
        <ele>331.17</ele>
        <time>2017-03-26T09:37:53Z</time>
      </trkpt>
      <trkpt lat="45.50519" lon="4.74578">
        <ele>331.17</ele>
        <time>2017-03-26T09:37:54Z</time>
      </trkpt>
      <trkpt lat="45.50519" lon="4.74578">
        <ele>331.17</ele>
        <time>2017-03-26T09:37:55Z</time>
      </trkpt>
      <trkpt lat="45.50519" lon="4.74578">
        <ele>331.17</ele>
        <time>2017-03-26T09:37:56Z</time>
      </trkpt>
      <trkpt lat="45.50519" lon="4.74578">
        <ele>331.17</ele>
        <time>2017-03-26T09:37:57Z</time>
      </trkpt>
      <trkpt lat="45.50519" lon="4.74578">
        <ele>331.17</ele>
        <time>2017-03-26T09:37:58Z</time>
      </trkpt>
      <trkpt lat="45.50519" lon="4.74578">
        <ele>331.17</ele>
        <time>2017-03-26T09:37:59Z</time>
      </trkpt>
      <trkpt lat="45.50519" lon="4.74578">
        <ele>331.17</ele>
        <time>2017-03-26T09:38:00Z</time>
      </trkpt>
      <trkpt lat="45.50519" lon="4.74578">
        <ele>331.17</ele>
        <time>2017-03-26T09:38:01Z</time>
      </trkpt>
      <trkpt lat="45.50519" lon="4.74578">
        <ele>331.17</ele>
        <time>2017-03-26T09:38:02Z</time>
      </trkpt>
      <trkpt lat="45.50519" lon="4.74578">
        <ele>331.17</ele>
        <time>2017-03-26T09:38:03Z</time>
      </trkpt>
      <trkpt lat="45.50519" lon="4.74578">
        <ele>331.17</ele>
        <time>2017-03-26T09:38:04Z</time>
      </trkpt>
      <trkpt lat="45.50519" lon="4.74578">
        <ele>331.17</ele>
        <time>2017-03-26T09:38:05Z</time>
      </trkpt>
      <trkpt lat="45.50519" lon="4.74578">
        <ele>331.17</ele>
        <time>2017-03-26T09:38:06Z</time>
      </trkpt>
      <trkpt lat="45.50519" lon="4.74578">
        <ele>331.17</ele>
        <time>2017-03-26T09:38:07Z</time>
      </trkpt>
      <trkpt lat="45.50519" lon="4.74578">
        <ele>331.17</ele>
        <time>2017-03-26T09:38:08Z</time>
      </trkpt>
      <trkpt lat="45.50519" lon="4.74578">
        <ele>331.17</ele>
        <time>2017-03-26T09:38:09Z</time>
      </trkpt>
      <trkpt lat="45.50519" lon="4.74578">
        <ele>331.17</ele>
        <time>2017-03-26T09:38:10Z</time>
      </trkpt>
      <trkpt lat="45.50519" lon="4.74578">
        <ele>331.17</ele>
        <time>2017-03-26T09:38:11Z</time>
      </trkpt>
      <trkpt lat="45.50519" lon="4.74578">
        <ele>331.17</ele>
        <time>2017-03-26T09:38:12Z</time>
      </trkpt>
      <trkpt lat="45.50519" lon="4.74578">
        <ele>331.17</ele>
        <time>2017-03-26T09:38:13Z</time>
      </trkpt>
      <trkpt lat="45.50519" lon="4.74578">
        <ele>331.17</ele>
        <time>2017-03-26T09:38:14Z</time>
      </trkpt>
      <trkpt lat="45.50519" lon="4.74573">
        <ele>331.89</ele>
        <time>2017-03-26T09:38:15Z</time>
      </trkpt>
      <trkpt lat="45.50519" lon="4.74566">
        <ele>331.87</ele>
        <time>2017-03-26T09:38:16Z</time>
      </trkpt>
      <trkpt lat="45.5052" lon="4.74557">
        <ele>331.71</ele>
        <time>2017-03-26T09:38:17Z</time>
      </trkpt>
      <trkpt lat="45.50521" lon="4.74546">
        <ele>331.68</ele>
        <time>2017-03-26T09:38:18Z</time>
      </trkpt>
      <trkpt lat="45.50522" lon="4.74534">
        <ele>331.91</ele>
        <time>2017-03-26T09:38:19Z</time>
      </trkpt>
      <trkpt lat="45.50523" lon="4.74523">
        <ele>332.04</ele>
        <time>2017-03-26T09:38:20Z</time>
      </trkpt>
      <trkpt lat="45.50524" lon="4.74512">
        <ele>332.14</ele>
        <time>2017-03-26T09:38:21Z</time>
      </trkpt>
      <trkpt lat="45.50525" lon="4.74503">
        <ele>331.92</ele>
        <time>2017-03-26T09:38:22Z</time>
      </trkpt>
      <trkpt lat="45.50526" lon="4.74493">
        <ele>331.8</ele>
        <time>2017-03-26T09:38:23Z</time>
      </trkpt>
      <trkpt lat="45.50528" lon="4.74484">
        <ele>331.61</ele>
        <time>2017-03-26T09:38:24Z</time>
      </trkpt>
      <trkpt lat="45.50529" lon="4.74476">
        <ele>331.42</ele>
        <time>2017-03-26T09:38:25Z</time>
      </trkpt>
      <trkpt lat="45.50531" lon="4.74467">
        <ele>331.3</ele>
        <time>2017-03-26T09:38:26Z</time>
      </trkpt>
      <trkpt lat="45.50533" lon="4.74458">
        <ele>331.03</ele>
        <time>2017-03-26T09:38:27Z</time>
      </trkpt>
      <trkpt lat="45.50535" lon="4.74449">
        <ele>330.82</ele>
        <time>2017-03-26T09:38:28Z</time>
      </trkpt>
      <trkpt lat="45.50537" lon="4.7444">
        <ele>330.54</ele>
        <time>2017-03-26T09:38:29Z</time>
      </trkpt>
      <trkpt lat="45.5054" lon="4.74431">
        <ele>330.24</ele>
        <time>2017-03-26T09:38:30Z</time>
      </trkpt>
      <trkpt lat="45.50544" lon="4.74422">
        <ele>330.02</ele>
        <time>2017-03-26T09:38:31Z</time>
      </trkpt>
      <trkpt lat="45.50548" lon="4.74414">
        <ele>329.66</ele>
        <time>2017-03-26T09:38:32Z</time>
      </trkpt>
      <trkpt lat="45.50553" lon="4.74405">
        <ele>329.35</ele>
        <time>2017-03-26T09:38:33Z</time>
      </trkpt>
      <trkpt lat="45.50558" lon="4.74398">
        <ele>328.88</ele>
        <time>2017-03-26T09:38:34Z</time>
      </trkpt>
      <trkpt lat="45.50564" lon="4.7439">
        <ele>328.31</ele>
        <time>2017-03-26T09:38:35Z</time>
      </trkpt>
      <trkpt lat="45.5057" lon="4.74383">
        <ele>327.72</ele>
        <time>2017-03-26T09:38:36Z</time>
      </trkpt>
      <trkpt lat="45.50577" lon="4.74377">
        <ele>326.96</ele>
        <time>2017-03-26T09:38:37Z</time>
      </trkpt>
      <trkpt lat="45.50584" lon="4.74371">
        <ele>326.32</ele>
        <time>2017-03-26T09:38:38Z</time>
      </trkpt>
      <trkpt lat="45.50591" lon="4.74366">
        <ele>325.4</ele>
        <time>2017-03-26T09:38:39Z</time>
      </trkpt>
      <trkpt lat="45.506" lon="4.7436">
        <ele>324.57</ele>
        <time>2017-03-26T09:38:40Z</time>
      </trkpt>
      <trkpt lat="45.50608" lon="4.74354">
        <ele>323.85</ele>
        <time>2017-03-26T09:38:41Z</time>
      </trkpt>
      <trkpt lat="45.50617" lon="4.74346">
        <ele>323.14</ele>
        <time>2017-03-26T09:38:42Z</time>
      </trkpt>
      <trkpt lat="45.50625" lon="4.74335">
        <ele>322.12</ele>
        <time>2017-03-26T09:38:43Z</time>
      </trkpt>
      <trkpt lat="45.50632" lon="4.74322">
        <ele>321.12</ele>
        <time>2017-03-26T09:38:44Z</time>
      </trkpt>
      <trkpt lat="45.50635" lon="4.74306">
        <ele>320.28</ele>
        <time>2017-03-26T09:38:45Z</time>
      </trkpt>
      <trkpt lat="45.50638" lon="4.7429">
        <ele>319.07</ele>
        <time>2017-03-26T09:38:46Z</time>
      </trkpt>
      <trkpt lat="45.50641" lon="4.74272">
        <ele>317.87</ele>
        <time>2017-03-26T09:38:47Z</time>
      </trkpt>
      <trkpt lat="45.50644" lon="4.74254">
        <ele>316.67</ele>
        <time>2017-03-26T09:38:48Z</time>
      </trkpt>
      <trkpt lat="45.50649" lon="4.74236">
        <ele>315.87</ele>
        <time>2017-03-26T09:38:49Z</time>
      </trkpt>
      <trkpt lat="45.50657" lon="4.74221">
        <ele>315.39</ele>
        <time>2017-03-26T09:38:50Z</time>
      </trkpt>
      <trkpt lat="45.50665" lon="4.74207">
        <ele>314.97</ele>
        <time>2017-03-26T09:38:51Z</time>
      </trkpt>
      <trkpt lat="45.50675" lon="4.74194">
        <ele>314.57</ele>
        <time>2017-03-26T09:38:52Z</time>
      </trkpt>
      <trkpt lat="45.50684" lon="4.74182">
        <ele>314.09</ele>
        <time>2017-03-26T09:38:53Z</time>
      </trkpt>
      <trkpt lat="45.50692" lon="4.7417">
        <ele>313.67</ele>
        <time>2017-03-26T09:38:54Z</time>
      </trkpt>
      <trkpt lat="45.50695" lon="4.74154">
        <ele>313.43</ele>
        <time>2017-03-26T09:38:55Z</time>
      </trkpt>
      <trkpt lat="45.50694" lon="4.74138">
        <ele>313.22</ele>
        <time>2017-03-26T09:38:56Z</time>
      </trkpt>
      <trkpt lat="45.50692" lon="4.74123">
        <ele>312.94</ele>
        <time>2017-03-26T09:38:57Z</time>
      </trkpt>
      <trkpt lat="45.50689" lon="4.74107">
        <ele>312.88</ele>
        <time>2017-03-26T09:38:58Z</time>
      </trkpt>
      <trkpt lat="45.5069" lon="4.74091">
        <ele>312.71</ele>
        <time>2017-03-26T09:38:59Z</time>
      </trkpt>
      <trkpt lat="45.50692" lon="4.74074">
        <ele>312.52</ele>
        <time>2017-03-26T09:39:00Z</time>
      </trkpt>
      <trkpt lat="45.50696" lon="4.74056">
        <ele>312.32</ele>
        <time>2017-03-26T09:39:01Z</time>
      </trkpt>
      <trkpt lat="45.507" lon="4.74039">
        <ele>312.2</ele>
        <time>2017-03-26T09:39:02Z</time>
      </trkpt>
      <trkpt lat="45.50699" lon="4.74021">
        <ele>312.33</ele>
        <time>2017-03-26T09:39:03Z</time>
      </trkpt>
      <trkpt lat="45.50695" lon="4.74006">
        <ele>312.2</ele>
        <time>2017-03-26T09:39:04Z</time>
      </trkpt>
      <trkpt lat="45.50685" lon="4.73997">
        <ele>312.01</ele>
        <time>2017-03-26T09:39:05Z</time>
      </trkpt>
      <trkpt lat="45.50676" lon="4.73992">
        <ele>311.9</ele>
        <time>2017-03-26T09:39:06Z</time>
      </trkpt>
      <trkpt lat="45.50667" lon="4.73988">
        <ele>311.55</ele>
        <time>2017-03-26T09:39:07Z</time>
      </trkpt>
      <trkpt lat="45.50654" lon="4.73998">
        <ele>311.56</ele>
        <time>2017-03-26T09:39:08Z</time>
      </trkpt>
      <trkpt lat="45.50643" lon="4.74007">
        <ele>311.41</ele>
        <time>2017-03-26T09:39:09Z</time>
      </trkpt>
      <trkpt lat="45.50632" lon="4.74015">
        <ele>311.21</ele>
        <time>2017-03-26T09:39:10Z</time>
      </trkpt>
      <trkpt lat="45.50623" lon="4.74019">
        <ele>310.94</ele>
        <time>2017-03-26T09:39:11Z</time>
      </trkpt>
      <trkpt lat="45.50617" lon="4.74016">
        <ele>310.64</ele>
        <time>2017-03-26T09:39:12Z</time>
      </trkpt>
      <trkpt lat="45.50611" lon="4.7401">
        <ele>310.42</ele>
        <time>2017-03-26T09:39:13Z</time>
      </trkpt>
      <trkpt lat="45.50609" lon="4.74">
        <ele>310.38</ele>
        <time>2017-03-26T09:39:14Z</time>
      </trkpt>
      <trkpt lat="45.50608" lon="4.73988">
        <ele>310.37</ele>
        <time>2017-03-26T09:39:15Z</time>
      </trkpt>
      <trkpt lat="45.50608" lon="4.73973">
        <ele>310.53</ele>
        <time>2017-03-26T09:39:16Z</time>
      </trkpt>
      <trkpt lat="45.5061" lon="4.73958">
        <ele>311.04</ele>
        <time>2017-03-26T09:39:17Z</time>
      </trkpt>
      <trkpt lat="45.50614" lon="4.73943">
        <ele>312.02</ele>
        <time>2017-03-26T09:39:18Z</time>
      </trkpt>
      <trkpt lat="45.5062" lon="4.73928">
        <ele>312.54</ele>
        <time>2017-03-26T09:39:19Z</time>
      </trkpt>
      <trkpt lat="45.5063" lon="4.73917">
        <ele>313.44</ele>
        <time>2017-03-26T09:39:20Z</time>
      </trkpt>
      <trkpt lat="45.50642" lon="4.73907">
        <ele>314.26</ele>
        <time>2017-03-26T09:39:21Z</time>
      </trkpt>
      <trkpt lat="45.50656" lon="4.73897">
        <ele>315.15</ele>
        <time>2017-03-26T09:39:22Z</time>
      </trkpt>
      <trkpt lat="45.50671" lon="4.73888">
        <ele>316.04</ele>
        <time>2017-03-26T09:39:23Z</time>
      </trkpt>
      <trkpt lat="45.50686" lon="4.73878">
        <ele>317.02</ele>
        <time>2017-03-26T09:39:24Z</time>
      </trkpt>
      <trkpt lat="45.50701" lon="4.73868">
        <ele>318.18</ele>
        <time>2017-03-26T09:39:25Z</time>
      </trkpt>
      <trkpt lat="45.50715" lon="4.73858">
        <ele>319.37</ele>
        <time>2017-03-26T09:39:26Z</time>
      </trkpt>
      <trkpt lat="45.50727" lon="4.73849">
        <ele>320.65</ele>
        <time>2017-03-26T09:39:27Z</time>
      </trkpt>
      <trkpt lat="45.50737" lon="4.73839">
        <ele>321.78</ele>
        <time>2017-03-26T09:39:28Z</time>
      </trkpt>
      <trkpt lat="45.50746" lon="4.73828">
        <ele>322.89</ele>
        <time>2017-03-26T09:39:29Z</time>
      </trkpt>
      <trkpt lat="45.5075" lon="4.73812">
        <ele>323.91</ele>
        <time>2017-03-26T09:39:30Z</time>
      </trkpt>
      <trkpt lat="45.50755" lon="4.73795">
        <ele>324.68</ele>
        <time>2017-03-26T09:39:31Z</time>
      </trkpt>
      <trkpt lat="45.5076" lon="4.73778">
        <ele>325.15</ele>
        <time>2017-03-26T09:39:32Z</time>
      </trkpt>
      <trkpt lat="45.50766" lon="4.7376">
        <ele>325.56</ele>
        <time>2017-03-26T09:39:33Z</time>
      </trkpt>
      <trkpt lat="45.50775" lon="4.73742">
        <ele>326.05</ele>
        <time>2017-03-26T09:39:34Z</time>
      </trkpt>
      <trkpt lat="45.50784" lon="4.73723">
        <ele>326.54</ele>
        <time>2017-03-26T09:39:35Z</time>
      </trkpt>
      <trkpt lat="45.50794" lon="4.73704">
        <ele>327.12</ele>
        <time>2017-03-26T09:39:36Z</time>
      </trkpt>
      <trkpt lat="45.50803" lon="4.73686">
        <ele>327.64</ele>
        <time>2017-03-26T09:39:37Z</time>
      </trkpt>
      <trkpt lat="45.50812" lon="4.73669">
        <ele>328.06</ele>
        <time>2017-03-26T09:39:38Z</time>
      </trkpt>
      <trkpt lat="45.50819" lon="4.73653">
        <ele>328.55</ele>
        <time>2017-03-26T09:39:39Z</time>
      </trkpt>
      <trkpt lat="45.50823" lon="4.73636">
        <ele>328.72</ele>
        <time>2017-03-26T09:39:40Z</time>
      </trkpt>
      <trkpt lat="45.50823" lon="4.7362">
        <ele>328.6</ele>
        <time>2017-03-26T09:39:41Z</time>
      </trkpt>
      <trkpt lat="45.50819" lon="4.73605">
        <ele>328.81</ele>
        <time>2017-03-26T09:39:42Z</time>
      </trkpt>
      <trkpt lat="45.50812" lon="4.7359">
        <ele>329.1</ele>
        <time>2017-03-26T09:39:43Z</time>
      </trkpt>
      <trkpt lat="45.50804" lon="4.73576">
        <ele>329.23</ele>
        <time>2017-03-26T09:39:44Z</time>
      </trkpt>
      <trkpt lat="45.50798" lon="4.73561">
        <ele>329.34</ele>
        <time>2017-03-26T09:39:45Z</time>
      </trkpt>
      <trkpt lat="45.50795" lon="4.73543">
        <ele>329.36</ele>
        <time>2017-03-26T09:39:46Z</time>
      </trkpt>
      <trkpt lat="45.50792" lon="4.73524">
        <ele>329.61</ele>
        <time>2017-03-26T09:39:47Z</time>
      </trkpt>
      <trkpt lat="45.50791" lon="4.73505">
        <ele>329.57</ele>
        <time>2017-03-26T09:39:48Z</time>
      </trkpt>
      <trkpt lat="45.5079" lon="4.73484">
        <ele>329.33</ele>
        <time>2017-03-26T09:39:49Z</time>
      </trkpt>
      <trkpt lat="45.50788" lon="4.73463">
        <ele>328.88</ele>
        <time>2017-03-26T09:39:50Z</time>
      </trkpt>
      <trkpt lat="45.50787" lon="4.73443">
        <ele>328.39</ele>
        <time>2017-03-26T09:39:51Z</time>
      </trkpt>
      <trkpt lat="45.50785" lon="4.73424">
        <ele>327.81</ele>
        <time>2017-03-26T09:39:52Z</time>
      </trkpt>
      <trkpt lat="45.50785" lon="4.73406">
        <ele>327.38</ele>
        <time>2017-03-26T09:39:53Z</time>
      </trkpt>
      <trkpt lat="45.50787" lon="4.73388">
        <ele>326.73</ele>
        <time>2017-03-26T09:39:54Z</time>
      </trkpt>
      <trkpt lat="45.50791" lon="4.7337">
        <ele>326.2</ele>
        <time>2017-03-26T09:39:55Z</time>
      </trkpt>
      <trkpt lat="45.50797" lon="4.73351">
        <ele>325.69</ele>
        <time>2017-03-26T09:39:56Z</time>
      </trkpt>
      <trkpt lat="45.50804" lon="4.73334">
        <ele>325.03</ele>
        <time>2017-03-26T09:39:57Z</time>
      </trkpt>
      <trkpt lat="45.50813" lon="4.73317">
        <ele>324.42</ele>
        <time>2017-03-26T09:39:58Z</time>
      </trkpt>
      <trkpt lat="45.50823" lon="4.73302">
        <ele>323.82</ele>
        <time>2017-03-26T09:39:59Z</time>
      </trkpt>
      <trkpt lat="45.50835" lon="4.73289">
        <ele>323.06</ele>
        <time>2017-03-26T09:40:00Z</time>
      </trkpt>
      <trkpt lat="45.50848" lon="4.73279">
        <ele>322.35</ele>
        <time>2017-03-26T09:40:01Z</time>
      </trkpt>
      <trkpt lat="45.50861" lon="4.73271">
        <ele>321.56</ele>
        <time>2017-03-26T09:40:02Z</time>
      </trkpt>
      <trkpt lat="45.50875" lon="4.73266">
        <ele>320.69</ele>
        <time>2017-03-26T09:40:03Z</time>
      </trkpt>
      <trkpt lat="45.50888" lon="4.73265">
        <ele>319.71</ele>
        <time>2017-03-26T09:40:04Z</time>
      </trkpt>
      <trkpt lat="45.50901" lon="4.73265">
        <ele>318.8</ele>
        <time>2017-03-26T09:40:05Z</time>
      </trkpt>
      <trkpt lat="45.50913" lon="4.73264">
        <ele>317.89</ele>
        <time>2017-03-26T09:40:06Z</time>
      </trkpt>
      <trkpt lat="45.50924" lon="4.73261">
        <ele>317.15</ele>
        <time>2017-03-26T09:40:07Z</time>
      </trkpt>
      <trkpt lat="45.50933" lon="4.73254">
        <ele>316.44</ele>
        <time>2017-03-26T09:40:08Z</time>
      </trkpt>
      <trkpt lat="45.50941" lon="4.73248">
        <ele>315.74</ele>
        <time>2017-03-26T09:40:09Z</time>
      </trkpt>
      <trkpt lat="45.50941" lon="4.73235">
        <ele>315.12</ele>
        <time>2017-03-26T09:40:10Z</time>
      </trkpt>
      <trkpt lat="45.50937" lon="4.73221">
        <ele>314.52</ele>
        <time>2017-03-26T09:40:11Z</time>
      </trkpt>
      <trkpt lat="45.50933" lon="4.73206">
        <ele>313.76</ele>
        <time>2017-03-26T09:40:12Z</time>
      </trkpt>
      <trkpt lat="45.50925" lon="4.73193">
        <ele>312.97</ele>
        <time>2017-03-26T09:40:13Z</time>
      </trkpt>
      <trkpt lat="45.50914" lon="4.73179">
        <ele>312.41</ele>
        <time>2017-03-26T09:40:14Z</time>
      </trkpt>
      <trkpt lat="45.50904" lon="4.73166">
        <ele>311.89</ele>
        <time>2017-03-26T09:40:15Z</time>
      </trkpt>
      <trkpt lat="45.50897" lon="4.73154">
        <ele>311.63</ele>
        <time>2017-03-26T09:40:16Z</time>
      </trkpt>
      <trkpt lat="45.50893" lon="4.7314">
        <ele>311.34</ele>
        <time>2017-03-26T09:40:17Z</time>
      </trkpt>
      <trkpt lat="45.50892" lon="4.73126">
        <ele>311.04</ele>
        <time>2017-03-26T09:40:18Z</time>
      </trkpt>
      <trkpt lat="45.50897" lon="4.73111">
        <ele>310.66</ele>
        <time>2017-03-26T09:40:19Z</time>
      </trkpt>
      <trkpt lat="45.50904" lon="4.73094">
        <ele>310.35</ele>
        <time>2017-03-26T09:40:20Z</time>
      </trkpt>
      <trkpt lat="45.50913" lon="4.73077">
        <ele>309.96</ele>
        <time>2017-03-26T09:40:21Z</time>
      </trkpt>
      <trkpt lat="45.50922" lon="4.73059">
        <ele>309.57</ele>
        <time>2017-03-26T09:40:22Z</time>
      </trkpt>
      <trkpt lat="45.50932" lon="4.73041">
        <ele>309.09</ele>
        <time>2017-03-26T09:40:23Z</time>
      </trkpt>
      <trkpt lat="45.50941" lon="4.73023">
        <ele>308.75</ele>
        <time>2017-03-26T09:40:24Z</time>
      </trkpt>
      <trkpt lat="45.50951" lon="4.73007">
        <ele>308.36</ele>
        <time>2017-03-26T09:40:25Z</time>
      </trkpt>
      <trkpt lat="45.5096" lon="4.72993">
        <ele>307.97</ele>
        <time>2017-03-26T09:40:26Z</time>
      </trkpt>
      <trkpt lat="45.50968" lon="4.72981">
        <ele>307.73</ele>
        <time>2017-03-26T09:40:27Z</time>
      </trkpt>
      <trkpt lat="45.50975" lon="4.72971">
        <ele>307.36</ele>
        <time>2017-03-26T09:40:28Z</time>
      </trkpt>
      <trkpt lat="45.5098" lon="4.72965">
        <ele>307.21</ele>
        <time>2017-03-26T09:40:29Z</time>
      </trkpt>
      <trkpt lat="45.50983" lon="4.72962">
        <ele>307.17</ele>
        <time>2017-03-26T09:40:30Z</time>
      </trkpt>
      <trkpt lat="45.50985" lon="4.72961">
        <ele>307.09</ele>
        <time>2017-03-26T09:40:31Z</time>
      </trkpt>
      <trkpt lat="45.50985" lon="4.72962">
        <ele>307.07</ele>
        <time>2017-03-26T09:40:32Z</time>
      </trkpt>
      <trkpt lat="45.50986" lon="4.72962">
        <ele>306.99</ele>
        <time>2017-03-26T09:40:33Z</time>
      </trkpt>
      <trkpt lat="45.50986" lon="4.72963">
        <ele>306.89</ele>
        <time>2017-03-26T09:40:34Z</time>
      </trkpt>
      <trkpt lat="45.50986" lon="4.72963">
        <ele>306.87</ele>
        <time>2017-03-26T09:40:35Z</time>
      </trkpt>
      <trkpt lat="45.50986" lon="4.72963">
        <ele>306.87</ele>
        <time>2017-03-26T09:40:36Z</time>
      </trkpt>
      <trkpt lat="45.50986" lon="4.72963">
        <ele>306.87</ele>
        <time>2017-03-26T09:40:37Z</time>
      </trkpt>
      <trkpt lat="45.50986" lon="4.72963">
        <ele>306.87</ele>
        <time>2017-03-26T09:40:38Z</time>
      </trkpt>
      <trkpt lat="45.50986" lon="4.72963">
        <ele>306.87</ele>
        <time>2017-03-26T09:40:39Z</time>
      </trkpt>
      <trkpt lat="45.50986" lon="4.72963">
        <ele>306.87</ele>
        <time>2017-03-26T09:40:40Z</time>
      </trkpt>
      <trkpt lat="45.50986" lon="4.72963">
        <ele>306.87</ele>
        <time>2017-03-26T09:40:41Z</time>
      </trkpt>
      <trkpt lat="45.50986" lon="4.72963">
        <ele>306.87</ele>
        <time>2017-03-26T09:40:42Z</time>
      </trkpt>
      <trkpt lat="45.50986" lon="4.72963">
        <ele>306.87</ele>
        <time>2017-03-26T09:40:43Z</time>
      </trkpt>
      <trkpt lat="45.50986" lon="4.72963">
        <ele>306.87</ele>
        <time>2017-03-26T09:40:44Z</time>
      </trkpt>
      <trkpt lat="45.50986" lon="4.72963">
        <ele>306.87</ele>
        <time>2017-03-26T09:40:45Z</time>
      </trkpt>
      <trkpt lat="45.50986" lon="4.72963">
        <ele>306.87</ele>
        <time>2017-03-26T09:40:46Z</time>
      </trkpt>
      <trkpt lat="45.50986" lon="4.72963">
        <ele>306.87</ele>
        <time>2017-03-26T09:40:47Z</time>
      </trkpt>
      <trkpt lat="45.50986" lon="4.72963">
        <ele>306.87</ele>
        <time>2017-03-26T09:40:48Z</time>
      </trkpt>
      <trkpt lat="45.50986" lon="4.72963">
        <ele>306.87</ele>
        <time>2017-03-26T09:40:49Z</time>
      </trkpt>
      <trkpt lat="45.50986" lon="4.72963">
        <ele>306.87</ele>
        <time>2017-03-26T09:40:50Z</time>
      </trkpt>
      <trkpt lat="45.50986" lon="4.72963">
        <ele>306.87</ele>
        <time>2017-03-26T09:40:51Z</time>
      </trkpt>
      <trkpt lat="45.50986" lon="4.72963">
        <ele>306.87</ele>
        <time>2017-03-26T09:40:52Z</time>
      </trkpt>
      <trkpt lat="45.50986" lon="4.72963">
        <ele>306.87</ele>
        <time>2017-03-26T09:40:53Z</time>
      </trkpt>
      <trkpt lat="45.50986" lon="4.72963">
        <ele>306.87</ele>
        <time>2017-03-26T09:40:54Z</time>
      </trkpt>
      <trkpt lat="45.50986" lon="4.72963">
        <ele>306.87</ele>
        <time>2017-03-26T09:40:55Z</time>
      </trkpt>
      <trkpt lat="45.50986" lon="4.72963">
        <ele>306.87</ele>
        <time>2017-03-26T09:40:56Z</time>
      </trkpt>
      <trkpt lat="45.50986" lon="4.72963">
        <ele>306.87</ele>
        <time>2017-03-26T09:40:57Z</time>
      </trkpt>
      <trkpt lat="45.50986" lon="4.72963">
        <ele>306.87</ele>
        <time>2017-03-26T09:40:58Z</time>
      </trkpt>
      <trkpt lat="45.50986" lon="4.72963">
        <ele>306.87</ele>
        <time>2017-03-26T09:40:59Z</time>
      </trkpt>
      <trkpt lat="45.50986" lon="4.72963">
        <ele>306.87</ele>
        <time>2017-03-26T09:41:00Z</time>
      </trkpt>
      <trkpt lat="45.50986" lon="4.72963">
        <ele>306.87</ele>
        <time>2017-03-26T09:41:01Z</time>
      </trkpt>
      <trkpt lat="45.50986" lon="4.72963">
        <ele>306.87</ele>
        <time>2017-03-26T09:41:03Z</time>
      </trkpt>
      <trkpt lat="45.50986" lon="4.72963">
        <ele>306.87</ele>
        <time>2017-03-26T09:41:04Z</time>
      </trkpt>
      <trkpt lat="45.50986" lon="4.72963">
        <ele>306.87</ele>
        <time>2017-03-26T09:41:05Z</time>
      </trkpt>
      <trkpt lat="45.50986" lon="4.72963">
        <ele>306.87</ele>
        <time>2017-03-26T09:41:06Z</time>
      </trkpt>
      <trkpt lat="45.50986" lon="4.72963">
        <ele>306.87</ele>
        <time>2017-03-26T09:41:07Z</time>
      </trkpt>
      <trkpt lat="45.50986" lon="4.72963">
        <ele>306.87</ele>
        <time>2017-03-26T09:41:08Z</time>
      </trkpt>
      <trkpt lat="45.50986" lon="4.72963">
        <ele>306.87</ele>
        <time>2017-03-26T09:41:09Z</time>
      </trkpt>
      <trkpt lat="45.50986" lon="4.72963">
        <ele>306.87</ele>
        <time>2017-03-26T09:41:10Z</time>
      </trkpt>
      <trkpt lat="45.50986" lon="4.72963">
        <ele>306.87</ele>
        <time>2017-03-26T09:41:11Z</time>
      </trkpt>
      <trkpt lat="45.50986" lon="4.72963">
        <ele>306.87</ele>
        <time>2017-03-26T09:41:12Z</time>
      </trkpt>
      <trkpt lat="45.50986" lon="4.72963">
        <ele>306.87</ele>
        <time>2017-03-26T09:41:13Z</time>
      </trkpt>
      <trkpt lat="45.50986" lon="4.72963">
        <ele>306.87</ele>
        <time>2017-03-26T09:41:14Z</time>
      </trkpt>
      <trkpt lat="45.50986" lon="4.72963">
        <ele>306.87</ele>
        <time>2017-03-26T09:41:15Z</time>
      </trkpt>
      <trkpt lat="45.50986" lon="4.72963">
        <ele>306.87</ele>
        <time>2017-03-26T09:41:16Z</time>
      </trkpt>
      <trkpt lat="45.50986" lon="4.72963">
        <ele>306.87</ele>
        <time>2017-03-26T09:41:17Z</time>
      </trkpt>
      <trkpt lat="45.50986" lon="4.72963">
        <ele>306.87</ele>
        <time>2017-03-26T09:41:18Z</time>
      </trkpt>
      <trkpt lat="45.50986" lon="4.72963">
        <ele>306.87</ele>
        <time>2017-03-26T09:41:19Z</time>
      </trkpt>
      <trkpt lat="45.50986" lon="4.72963">
        <ele>306.87</ele>
        <time>2017-03-26T09:41:20Z</time>
      </trkpt>
      <trkpt lat="45.50986" lon="4.72963">
        <ele>306.87</ele>
        <time>2017-03-26T09:41:21Z</time>
      </trkpt>
      <trkpt lat="45.50986" lon="4.72963">
        <ele>306.87</ele>
        <time>2017-03-26T09:41:22Z</time>
      </trkpt>
      <trkpt lat="45.50986" lon="4.72963">
        <ele>306.87</ele>
        <time>2017-03-26T09:41:23Z</time>
      </trkpt>
      <trkpt lat="45.50986" lon="4.72963">
        <ele>306.87</ele>
        <time>2017-03-26T09:41:24Z</time>
      </trkpt>
      <trkpt lat="45.50986" lon="4.72963">
        <ele>306.87</ele>
        <time>2017-03-26T09:41:25Z</time>
      </trkpt>
      <trkpt lat="45.50986" lon="4.72963">
        <ele>306.87</ele>
        <time>2017-03-26T09:41:26Z</time>
      </trkpt>
      <trkpt lat="45.50986" lon="4.72963">
        <ele>306.87</ele>
        <time>2017-03-26T09:41:27Z</time>
      </trkpt>
      <trkpt lat="45.50986" lon="4.72963">
        <ele>306.87</ele>
        <time>2017-03-26T09:41:28Z</time>
      </trkpt>
      <trkpt lat="45.50986" lon="4.72963">
        <ele>306.87</ele>
        <time>2017-03-26T09:41:29Z</time>
      </trkpt>
      <trkpt lat="45.50986" lon="4.72963">
        <ele>306.87</ele>
        <time>2017-03-26T09:41:30Z</time>
      </trkpt>
      <trkpt lat="45.50986" lon="4.72963">
        <ele>306.87</ele>
        <time>2017-03-26T09:41:31Z</time>
      </trkpt>
      <trkpt lat="45.50986" lon="4.72963">
        <ele>306.87</ele>
        <time>2017-03-26T09:41:32Z</time>
      </trkpt>
      <trkpt lat="45.50986" lon="4.72963">
        <ele>306.87</ele>
        <time>2017-03-26T09:41:33Z</time>
      </trkpt>
      <trkpt lat="45.50986" lon="4.72963">
        <ele>306.87</ele>
        <time>2017-03-26T09:41:34Z</time>
      </trkpt>
      <trkpt lat="45.50986" lon="4.72963">
        <ele>306.87</ele>
        <time>2017-03-26T09:41:35Z</time>
      </trkpt>
      <trkpt lat="45.50986" lon="4.72963">
        <ele>306.87</ele>
        <time>2017-03-26T09:41:36Z</time>
      </trkpt>
      <trkpt lat="45.50986" lon="4.72963">
        <ele>306.87</ele>
        <time>2017-03-26T09:41:37Z</time>
      </trkpt>
      <trkpt lat="45.50986" lon="4.72963">
        <ele>306.87</ele>
        <time>2017-03-26T09:41:38Z</time>
      </trkpt>
      <trkpt lat="45.50986" lon="4.72963">
        <ele>306.87</ele>
        <time>2017-03-26T09:41:39Z</time>
      </trkpt>
      <trkpt lat="45.50986" lon="4.72963">
        <ele>306.87</ele>
        <time>2017-03-26T09:41:40Z</time>
      </trkpt>
      <trkpt lat="45.50986" lon="4.72963">
        <ele>306.87</ele>
        <time>2017-03-26T09:41:41Z</time>
      </trkpt>
      <trkpt lat="45.50986" lon="4.72963">
        <ele>306.87</ele>
        <time>2017-03-26T09:41:42Z</time>
      </trkpt>
      <trkpt lat="45.50986" lon="4.72963">
        <ele>306.87</ele>
        <time>2017-03-26T09:41:43Z</time>
      </trkpt>
      <trkpt lat="45.50986" lon="4.72963">
        <ele>306.87</ele>
        <time>2017-03-26T09:41:44Z</time>
      </trkpt>
      <trkpt lat="45.50986" lon="4.72963">
        <ele>306.87</ele>
        <time>2017-03-26T09:41:45Z</time>
      </trkpt>
      <trkpt lat="45.50986" lon="4.72963">
        <ele>306.87</ele>
        <time>2017-03-26T09:41:46Z</time>
      </trkpt>
      <trkpt lat="45.50986" lon="4.72963">
        <ele>306.87</ele>
        <time>2017-03-26T09:41:47Z</time>
      </trkpt>
      <trkpt lat="45.50986" lon="4.72963">
        <ele>306.87</ele>
        <time>2017-03-26T09:41:48Z</time>
      </trkpt>
      <trkpt lat="45.50986" lon="4.72963">
        <ele>306.87</ele>
        <time>2017-03-26T09:41:49Z</time>
      </trkpt>
      <trkpt lat="45.50986" lon="4.72963">
        <ele>306.87</ele>
        <time>2017-03-26T09:41:50Z</time>
      </trkpt>
      <trkpt lat="45.50986" lon="4.72963">
        <ele>306.87</ele>
        <time>2017-03-26T09:41:51Z</time>
      </trkpt>
      <trkpt lat="45.50986" lon="4.72963">
        <ele>306.87</ele>
        <time>2017-03-26T09:41:52Z</time>
      </trkpt>
      <trkpt lat="45.50986" lon="4.72963">
        <ele>306.87</ele>
        <time>2017-03-26T09:41:53Z</time>
      </trkpt>
      <trkpt lat="45.50986" lon="4.72963">
        <ele>306.87</ele>
        <time>2017-03-26T09:41:54Z</time>
      </trkpt>
      <trkpt lat="45.50986" lon="4.72963">
        <ele>306.87</ele>
        <time>2017-03-26T09:41:55Z</time>
      </trkpt>
      <trkpt lat="45.50986" lon="4.72963">
        <ele>306.87</ele>
        <time>2017-03-26T09:41:56Z</time>
      </trkpt>
      <trkpt lat="45.50986" lon="4.72963">
        <ele>306.87</ele>
        <time>2017-03-26T09:41:57Z</time>
      </trkpt>
      <trkpt lat="45.50986" lon="4.72963">
        <ele>306.87</ele>
        <time>2017-03-26T09:41:58Z</time>
      </trkpt>
      <trkpt lat="45.50986" lon="4.72963">
        <ele>306.87</ele>
        <time>2017-03-26T09:41:59Z</time>
      </trkpt>
      <trkpt lat="45.50986" lon="4.72963">
        <ele>306.87</ele>
        <time>2017-03-26T09:42:00Z</time>
      </trkpt>
      <trkpt lat="45.50986" lon="4.72963">
        <ele>306.87</ele>
        <time>2017-03-26T09:42:01Z</time>
      </trkpt>
      <trkpt lat="45.50986" lon="4.72963">
        <ele>306.87</ele>
        <time>2017-03-26T09:42:02Z</time>
      </trkpt>
      <trkpt lat="45.50986" lon="4.72963">
        <ele>306.87</ele>
        <time>2017-03-26T09:42:03Z</time>
      </trkpt>
      <trkpt lat="45.50986" lon="4.72963">
        <ele>306.87</ele>
        <time>2017-03-26T09:42:04Z</time>
      </trkpt>
      <trkpt lat="45.50986" lon="4.72963">
        <ele>306.87</ele>
        <time>2017-03-26T09:42:05Z</time>
      </trkpt>
      <trkpt lat="45.50986" lon="4.72963">
        <ele>306.87</ele>
        <time>2017-03-26T09:42:06Z</time>
      </trkpt>
      <trkpt lat="45.50986" lon="4.72963">
        <ele>306.87</ele>
        <time>2017-03-26T09:42:07Z</time>
      </trkpt>
      <trkpt lat="45.50986" lon="4.72963">
        <ele>306.87</ele>
        <time>2017-03-26T09:42:08Z</time>
      </trkpt>
      <trkpt lat="45.50986" lon="4.72963">
        <ele>306.87</ele>
        <time>2017-03-26T09:42:09Z</time>
      </trkpt>
      <trkpt lat="45.50986" lon="4.72963">
        <ele>306.87</ele>
        <time>2017-03-26T09:42:10Z</time>
      </trkpt>
      <trkpt lat="45.50986" lon="4.72963">
        <ele>306.87</ele>
        <time>2017-03-26T09:42:11Z</time>
      </trkpt>
      <trkpt lat="45.50986" lon="4.72963">
        <ele>306.87</ele>
        <time>2017-03-26T09:42:12Z</time>
      </trkpt>
      <trkpt lat="45.50986" lon="4.72963">
        <ele>306.87</ele>
        <time>2017-03-26T09:42:13Z</time>
      </trkpt>
      <trkpt lat="45.50986" lon="4.72963">
        <ele>306.87</ele>
        <time>2017-03-26T09:42:14Z</time>
      </trkpt>
      <trkpt lat="45.50986" lon="4.72963">
        <ele>306.87</ele>
        <time>2017-03-26T09:42:15Z</time>
      </trkpt>
      <trkpt lat="45.50986" lon="4.72963">
        <ele>306.87</ele>
        <time>2017-03-26T09:42:16Z</time>
      </trkpt>
      <trkpt lat="45.50986" lon="4.72963">
        <ele>306.87</ele>
        <time>2017-03-26T09:42:17Z</time>
      </trkpt>
      <trkpt lat="45.50986" lon="4.72963">
        <ele>306.87</ele>
        <time>2017-03-26T09:42:18Z</time>
      </trkpt>
      <trkpt lat="45.50986" lon="4.72963">
        <ele>306.87</ele>
        <time>2017-03-26T09:42:19Z</time>
      </trkpt>
      <trkpt lat="45.50986" lon="4.72963">
        <ele>306.87</ele>
        <time>2017-03-26T09:42:20Z</time>
      </trkpt>
      <trkpt lat="45.50986" lon="4.72963">
        <ele>306.87</ele>
        <time>2017-03-26T09:42:21Z</time>
      </trkpt>
      <trkpt lat="45.50986" lon="4.72963">
        <ele>306.87</ele>
        <time>2017-03-26T09:42:22Z</time>
      </trkpt>
      <trkpt lat="45.50986" lon="4.72963">
        <ele>306.87</ele>
        <time>2017-03-26T09:42:23Z</time>
      </trkpt>
      <trkpt lat="45.50986" lon="4.72963">
        <ele>306.87</ele>
        <time>2017-03-26T09:42:24Z</time>
      </trkpt>
      <trkpt lat="45.50989" lon="4.72962">
        <ele>306.15</ele>
        <time>2017-03-26T09:42:25Z</time>
      </trkpt>
      <trkpt lat="45.50991" lon="4.72958">
        <ele>305.84</ele>
        <time>2017-03-26T09:42:26Z</time>
      </trkpt>
      <trkpt lat="45.50993" lon="4.72953">
        <ele>305.62</ele>
        <time>2017-03-26T09:42:27Z</time>
      </trkpt>
      <trkpt lat="45.50994" lon="4.72946">
        <ele>305.34</ele>
        <time>2017-03-26T09:42:28Z</time>
      </trkpt>
      <trkpt lat="45.50996" lon="4.72938">
        <ele>305.12</ele>
        <time>2017-03-26T09:42:29Z</time>
      </trkpt>
      <trkpt lat="45.50998" lon="4.7293">
        <ele>304.84</ele>
        <time>2017-03-26T09:42:30Z</time>
      </trkpt>
      <trkpt lat="45.51003" lon="4.72921">
        <ele>304.62</ele>
        <time>2017-03-26T09:42:31Z</time>
      </trkpt>
      <trkpt lat="45.51012" lon="4.7291">
        <ele>304.42</ele>
        <time>2017-03-26T09:42:32Z</time>
      </trkpt>
      <trkpt lat="45.51021" lon="4.729">
        <ele>304.14</ele>
        <time>2017-03-26T09:42:33Z</time>
      </trkpt>
      <trkpt lat="45.51044" lon="4.72889">
        <ele>303.92</ele>
        <time>2017-03-26T09:42:34Z</time>
      </trkpt>
      <trkpt lat="45.5106" lon="4.72874">
        <ele>303.64</ele>
        <time>2017-03-26T09:42:35Z</time>
      </trkpt>
      <trkpt lat="45.51073" lon="4.72857">
        <ele>303.34</ele>
        <time>2017-03-26T09:42:36Z</time>
      </trkpt>
      <trkpt lat="45.51086" lon="4.72838">
        <ele>303.04</ele>
        <time>2017-03-26T09:42:37Z</time>
      </trkpt>
      <trkpt lat="45.51099" lon="4.72817">
        <ele>302.74</ele>
        <time>2017-03-26T09:42:38Z</time>
      </trkpt>
      <trkpt lat="45.51111" lon="4.72795">
        <ele>302.44</ele>
        <time>2017-03-26T09:42:39Z</time>
      </trkpt>
      <trkpt lat="45.51124" lon="4.72773">
        <ele>302.14</ele>
        <time>2017-03-26T09:42:40Z</time>
      </trkpt>
      <trkpt lat="45.51136" lon="4.7275">
        <ele>301.92</ele>
        <time>2017-03-26T09:42:41Z</time>
      </trkpt>
      <trkpt lat="45.51149" lon="4.72727">
        <ele>301.64</ele>
        <time>2017-03-26T09:42:42Z</time>
      </trkpt>
      <trkpt lat="45.51161" lon="4.72704">
        <ele>301.34</ele>
        <time>2017-03-26T09:42:43Z</time>
      </trkpt>
      <trkpt lat="45.51174" lon="4.72681">
        <ele>301.12</ele>
        <time>2017-03-26T09:42:44Z</time>
      </trkpt>
      <trkpt lat="45.51187" lon="4.72657">
        <ele>300.92</ele>
        <time>2017-03-26T09:42:45Z</time>
      </trkpt>
      <trkpt lat="45.512" lon="4.72632">
        <ele>300.72</ele>
        <time>2017-03-26T09:42:46Z</time>
      </trkpt>
      <trkpt lat="45.51213" lon="4.72607">
        <ele>300.6</ele>
        <time>2017-03-26T09:42:47Z</time>
      </trkpt>
      <trkpt lat="45.51227" lon="4.72582">
        <ele>300.73</ele>
        <time>2017-03-26T09:42:48Z</time>
      </trkpt>
      <trkpt lat="45.51242" lon="4.72558">
        <ele>301</ele>
        <time>2017-03-26T09:42:49Z</time>
      </trkpt>
      <trkpt lat="45.51257" lon="4.72535">
        <ele>301.61</ele>
        <time>2017-03-26T09:42:50Z</time>
      </trkpt>
      <trkpt lat="45.51273" lon="4.72514">
        <ele>302.38</ele>
        <time>2017-03-26T09:42:51Z</time>
      </trkpt>
      <trkpt lat="45.51289" lon="4.72494">
        <ele>303.09</ele>
        <time>2017-03-26T09:42:52Z</time>
      </trkpt>
      <trkpt lat="45.51307" lon="4.72475">
        <ele>303.79</ele>
        <time>2017-03-26T09:42:53Z</time>
      </trkpt>
      <trkpt lat="45.51323" lon="4.72456">
        <ele>304.73</ele>
        <time>2017-03-26T09:42:54Z</time>
      </trkpt>
      <trkpt lat="45.51339" lon="4.72437">
        <ele>305.72</ele>
        <time>2017-03-26T09:42:55Z</time>
      </trkpt>
      <trkpt lat="45.51354" lon="4.72418">
        <ele>306.64</ele>
        <time>2017-03-26T09:42:56Z</time>
      </trkpt>
      <trkpt lat="45.51369" lon="4.72399">
        <ele>307.62</ele>
        <time>2017-03-26T09:42:57Z</time>
      </trkpt>
      <trkpt lat="45.51384" lon="4.7238">
        <ele>308.94</ele>
        <time>2017-03-26T09:42:58Z</time>
      </trkpt>
      <trkpt lat="45.51397" lon="4.72361">
        <ele>310.32</ele>
        <time>2017-03-26T09:42:59Z</time>
      </trkpt>
      <trkpt lat="45.5141" lon="4.72343">
        <ele>311.72</ele>
        <time>2017-03-26T09:43:00Z</time>
      </trkpt>
      <trkpt lat="45.51422" lon="4.72327">
        <ele>313.04</ele>
        <time>2017-03-26T09:43:01Z</time>
      </trkpt>
      <trkpt lat="45.51434" lon="4.72312">
        <ele>314.42</ele>
        <time>2017-03-26T09:43:02Z</time>
      </trkpt>
      <trkpt lat="45.51444" lon="4.72298">
        <ele>315.82</ele>
        <time>2017-03-26T09:43:03Z</time>
      </trkpt>
      <trkpt lat="45.51453" lon="4.72285">
        <ele>317.22</ele>
        <time>2017-03-26T09:43:04Z</time>
      </trkpt>
      <trkpt lat="45.51463" lon="4.72273">
        <ele>318.7</ele>
        <time>2017-03-26T09:43:05Z</time>
      </trkpt>
      <trkpt lat="45.51473" lon="4.7226">
        <ele>320.19</ele>
        <time>2017-03-26T09:43:06Z</time>
      </trkpt>
      <trkpt lat="45.51483" lon="4.72247">
        <ele>321.69</ele>
        <time>2017-03-26T09:43:07Z</time>
      </trkpt>
      <trkpt lat="45.51492" lon="4.72234">
        <ele>322.95</ele>
        <time>2017-03-26T09:43:08Z</time>
      </trkpt>
      <trkpt lat="45.51501" lon="4.72221">
        <ele>324.24</ele>
        <time>2017-03-26T09:43:09Z</time>
      </trkpt>
      <trkpt lat="45.5151" lon="4.72208">
        <ele>325.54</ele>
        <time>2017-03-26T09:43:10Z</time>
      </trkpt>
      <trkpt lat="45.51518" lon="4.72196">
        <ele>326.76</ele>
        <time>2017-03-26T09:43:11Z</time>
      </trkpt>
      <trkpt lat="45.51525" lon="4.72185">
        <ele>328.05</ele>
        <time>2017-03-26T09:43:12Z</time>
      </trkpt>
      <trkpt lat="45.51532" lon="4.72174">
        <ele>329.18</ele>
        <time>2017-03-26T09:43:13Z</time>
      </trkpt>
      <trkpt lat="45.51538" lon="4.72165">
        <ele>330.29</ele>
        <time>2017-03-26T09:43:14Z</time>
      </trkpt>
      <trkpt lat="45.51544" lon="4.72156">
        <ele>331.47</ele>
        <time>2017-03-26T09:43:15Z</time>
      </trkpt>
      <trkpt lat="45.5155" lon="4.72146">
        <ele>332.51</ele>
        <time>2017-03-26T09:43:16Z</time>
      </trkpt>
      <trkpt lat="45.51555" lon="4.72136">
        <ele>333.68</ele>
        <time>2017-03-26T09:43:17Z</time>
      </trkpt>
      <trkpt lat="45.5156" lon="4.72127">
        <ele>334.79</ele>
        <time>2017-03-26T09:43:18Z</time>
      </trkpt>
      <trkpt lat="45.51565" lon="4.72117">
        <ele>335.89</ele>
        <time>2017-03-26T09:43:19Z</time>
      </trkpt>
      <trkpt lat="45.5157" lon="4.72107">
        <ele>336.99</ele>
        <time>2017-03-26T09:43:20Z</time>
      </trkpt>
      <trkpt lat="45.51576" lon="4.72096">
        <ele>338.01</ele>
        <time>2017-03-26T09:43:21Z</time>
      </trkpt>
      <trkpt lat="45.51582" lon="4.72085">
        <ele>339.1</ele>
        <time>2017-03-26T09:43:22Z</time>
      </trkpt>
      <trkpt lat="45.51587" lon="4.72074">
        <ele>340.11</ele>
        <time>2017-03-26T09:43:23Z</time>
      </trkpt>
      <trkpt lat="45.51594" lon="4.72062">
        <ele>341.2</ele>
        <time>2017-03-26T09:43:24Z</time>
      </trkpt>
      <trkpt lat="45.516" lon="4.7205">
        <ele>342.29</ele>
        <time>2017-03-26T09:43:25Z</time>
      </trkpt>
      <trkpt lat="45.51605" lon="4.72037">
        <ele>343.47</ele>
        <time>2017-03-26T09:43:26Z</time>
      </trkpt>
      <trkpt lat="45.5161" lon="4.72024">
        <ele>344.43</ele>
        <time>2017-03-26T09:43:27Z</time>
      </trkpt>
      <trkpt lat="45.51617" lon="4.72011">
        <ele>345.34</ele>
        <time>2017-03-26T09:43:28Z</time>
      </trkpt>
      <trkpt lat="45.51623" lon="4.71998">
        <ele>346.16</ele>
        <time>2017-03-26T09:43:29Z</time>
      </trkpt>
      <trkpt lat="45.51629" lon="4.71984">
        <ele>346.81</ele>
        <time>2017-03-26T09:43:30Z</time>
      </trkpt>
      <trkpt lat="45.51635" lon="4.71969">
        <ele>347.57</ele>
        <time>2017-03-26T09:43:31Z</time>
      </trkpt>
      <trkpt lat="45.51641" lon="4.71954">
        <ele>348.13</ele>
        <time>2017-03-26T09:43:32Z</time>
      </trkpt>
      <trkpt lat="45.51647" lon="4.71938">
        <ele>348.4</ele>
        <time>2017-03-26T09:43:33Z</time>
      </trkpt>
      <trkpt lat="45.51653" lon="4.71921">
        <ele>348.61</ele>
        <time>2017-03-26T09:43:34Z</time>
      </trkpt>
      <trkpt lat="45.51659" lon="4.71903">
        <ele>348.98</ele>
        <time>2017-03-26T09:43:35Z</time>
      </trkpt>
      <trkpt lat="45.51665" lon="4.71883">
        <ele>349.37</ele>
        <time>2017-03-26T09:43:36Z</time>
      </trkpt>
      <trkpt lat="45.51669" lon="4.71861">
        <ele>349.85</ele>
        <time>2017-03-26T09:43:37Z</time>
      </trkpt>
      <trkpt lat="45.51673" lon="4.71837">
        <ele>350.26</ele>
        <time>2017-03-26T09:43:38Z</time>
      </trkpt>
      <trkpt lat="45.51674" lon="4.71812">
        <ele>350.59</ele>
        <time>2017-03-26T09:43:39Z</time>
      </trkpt>
      <trkpt lat="45.51672" lon="4.71786">
        <ele>350.46</ele>
        <time>2017-03-26T09:43:40Z</time>
      </trkpt>
      <trkpt lat="45.51668" lon="4.71761">
        <ele>350.36</ele>
        <time>2017-03-26T09:43:41Z</time>
      </trkpt>
      <trkpt lat="45.51662" lon="4.71735">
        <ele>350.1</ele>
        <time>2017-03-26T09:43:42Z</time>
      </trkpt>
      <trkpt lat="45.51653" lon="4.7171">
        <ele>349.96</ele>
        <time>2017-03-26T09:43:43Z</time>
      </trkpt>
      <trkpt lat="45.51645" lon="4.71686">
        <ele>349.78</ele>
        <time>2017-03-26T09:43:44Z</time>
      </trkpt>
      <trkpt lat="45.51638" lon="4.71661">
        <ele>349.42</ele>
        <time>2017-03-26T09:43:45Z</time>
      </trkpt>
      <trkpt lat="45.51633" lon="4.71635">
        <ele>349.11</ele>
        <time>2017-03-26T09:43:46Z</time>
      </trkpt>
      <trkpt lat="45.51633" lon="4.71607">
        <ele>349.45</ele>
        <time>2017-03-26T09:43:47Z</time>
      </trkpt>
      <trkpt lat="45.51636" lon="4.71579">
        <ele>349.91</ele>
        <time>2017-03-26T09:43:48Z</time>
      </trkpt>
      <trkpt lat="45.51642" lon="4.71551">
        <ele>350.57</ele>
        <time>2017-03-26T09:43:49Z</time>
      </trkpt>
      <trkpt lat="45.5165" lon="4.71525">
        <ele>350.94</ele>
        <time>2017-03-26T09:43:50Z</time>
      </trkpt>
      <trkpt lat="45.51659" lon="4.71498">
        <ele>351.25</ele>
        <time>2017-03-26T09:43:51Z</time>
      </trkpt>
      <trkpt lat="45.51667" lon="4.71471">
        <ele>351.71</ele>
        <time>2017-03-26T09:43:52Z</time>
      </trkpt>
      <trkpt lat="45.51673" lon="4.71443">
        <ele>351.89</ele>
        <time>2017-03-26T09:43:53Z</time>
      </trkpt>
      <trkpt lat="45.51678" lon="4.71414">
        <ele>351.44</ele>
        <time>2017-03-26T09:43:54Z</time>
      </trkpt>
      <trkpt lat="45.51683" lon="4.71386">
        <ele>350.95</ele>
        <time>2017-03-26T09:43:55Z</time>
      </trkpt>
      <trkpt lat="45.51686" lon="4.71358">
        <ele>350.53</ele>
        <time>2017-03-26T09:43:56Z</time>
      </trkpt>
      <trkpt lat="45.51687" lon="4.71332">
        <ele>350.05</ele>
        <time>2017-03-26T09:43:57Z</time>
      </trkpt>
      <trkpt lat="45.51685" lon="4.71309">
        <ele>349.15</ele>
        <time>2017-03-26T09:43:58Z</time>
      </trkpt>
      <trkpt lat="45.51678" lon="4.71287">
        <ele>348.41</ele>
        <time>2017-03-26T09:43:59Z</time>
      </trkpt>
      <trkpt lat="45.51667" lon="4.71266">
        <ele>347.55</ele>
        <time>2017-03-26T09:44:00Z</time>
      </trkpt>
      <trkpt lat="45.51654" lon="4.71247">
        <ele>346.73</ele>
        <time>2017-03-26T09:44:01Z</time>
      </trkpt>
      <trkpt lat="45.51638" lon="4.7123">
        <ele>345.69</ele>
        <time>2017-03-26T09:44:02Z</time>
      </trkpt>
      <trkpt lat="45.51622" lon="4.71212">
        <ele>344.6</ele>
        <time>2017-03-26T09:44:03Z</time>
      </trkpt>
      <trkpt lat="45.51607" lon="4.71191">
        <ele>343.66</ele>
        <time>2017-03-26T09:44:04Z</time>
      </trkpt>
      <trkpt lat="45.51595" lon="4.71168">
        <ele>343.4</ele>
        <time>2017-03-26T09:44:05Z</time>
      </trkpt>
      <trkpt lat="45.51587" lon="4.71142">
        <ele>343.58</ele>
        <time>2017-03-26T09:44:06Z</time>
      </trkpt>
      <trkpt lat="45.5158" lon="4.71116">
        <ele>343.86</ele>
        <time>2017-03-26T09:44:07Z</time>
      </trkpt>
      <trkpt lat="45.51574" lon="4.71091">
        <ele>344.16</ele>
        <time>2017-03-26T09:44:08Z</time>
      </trkpt>
      <trkpt lat="45.5157" lon="4.71069">
        <ele>344.46</ele>
        <time>2017-03-26T09:44:09Z</time>
      </trkpt>
      <trkpt lat="45.51569" lon="4.71047">
        <ele>344.84</ele>
        <time>2017-03-26T09:44:10Z</time>
      </trkpt>
      <trkpt lat="45.51572" lon="4.71027">
        <ele>345.31</ele>
        <time>2017-03-26T09:44:11Z</time>
      </trkpt>
      <trkpt lat="45.51578" lon="4.7101">
        <ele>346.13</ele>
        <time>2017-03-26T09:44:12Z</time>
      </trkpt>
      <trkpt lat="45.51589" lon="4.70999">
        <ele>346.85</ele>
        <time>2017-03-26T09:44:13Z</time>
      </trkpt>
      <trkpt lat="45.51604" lon="4.70991">
        <ele>347.79</ele>
        <time>2017-03-26T09:44:14Z</time>
      </trkpt>
      <trkpt lat="45.51623" lon="4.70987">
        <ele>348.38</ele>
        <time>2017-03-26T09:44:15Z</time>
      </trkpt>
      <trkpt lat="45.51636" lon="4.70976">
        <ele>348.74</ele>
        <time>2017-03-26T09:44:16Z</time>
      </trkpt>
      <trkpt lat="45.51646" lon="4.70962">
        <ele>348.89</ele>
        <time>2017-03-26T09:44:17Z</time>
      </trkpt>
      <trkpt lat="45.51654" lon="4.70945">
        <ele>349.24</ele>
        <time>2017-03-26T09:44:18Z</time>
      </trkpt>
      <trkpt lat="45.51652" lon="4.70921">
        <ele>349.39</ele>
        <time>2017-03-26T09:44:19Z</time>
      </trkpt>
      <trkpt lat="45.51648" lon="4.70898">
        <ele>349.74</ele>
        <time>2017-03-26T09:44:20Z</time>
      </trkpt>
      <trkpt lat="45.51641" lon="4.70875">
        <ele>349.65</ele>
        <time>2017-03-26T09:44:21Z</time>
      </trkpt>
      <trkpt lat="45.51634" lon="4.70853">
        <ele>349.63</ele>
        <time>2017-03-26T09:44:22Z</time>
      </trkpt>
      <trkpt lat="45.51629" lon="4.70831">
        <ele>349.79</ele>
        <time>2017-03-26T09:44:23Z</time>
      </trkpt>
      <trkpt lat="45.51625" lon="4.70811">
        <ele>349.74</ele>
        <time>2017-03-26T09:44:24Z</time>
      </trkpt>
      <trkpt lat="45.51621" lon="4.70794">
        <ele>349.81</ele>
        <time>2017-03-26T09:44:25Z</time>
      </trkpt>
      <trkpt lat="45.51619" lon="4.70781">
        <ele>350.23</ele>
        <time>2017-03-26T09:44:26Z</time>
      </trkpt>
      <trkpt lat="45.51617" lon="4.70771">
        <ele>350.47</ele>
        <time>2017-03-26T09:44:27Z</time>
      </trkpt>
      <trkpt lat="45.51614" lon="4.70765">
        <ele>350.84</ele>
        <time>2017-03-26T09:44:28Z</time>
      </trkpt>
      <trkpt lat="45.51612" lon="4.7076">
        <ele>351.31</ele>
        <time>2017-03-26T09:44:29Z</time>
      </trkpt>
      <trkpt lat="45.51609" lon="4.70755">
        <ele>351.57</ele>
        <time>2017-03-26T09:44:30Z</time>
      </trkpt>
      <trkpt lat="45.51604" lon="4.70749">
        <ele>351.78</ele>
        <time>2017-03-26T09:44:31Z</time>
      </trkpt>
      <trkpt lat="45.516" lon="4.7074">
        <ele>352.22</ele>
        <time>2017-03-26T09:44:32Z</time>
      </trkpt>
      <trkpt lat="45.51595" lon="4.70729">
        <ele>352.71</ele>
        <time>2017-03-26T09:44:33Z</time>
      </trkpt>
      <trkpt lat="45.51589" lon="4.70716">
        <ele>353.13</ele>
        <time>2017-03-26T09:44:34Z</time>
      </trkpt>
      <trkpt lat="45.51583" lon="4.70702">
        <ele>353.61</ele>
        <time>2017-03-26T09:44:35Z</time>
      </trkpt>
      <trkpt lat="45.51577" lon="4.70687">
        <ele>353.95</ele>
        <time>2017-03-26T09:44:36Z</time>
      </trkpt>
      <trkpt lat="45.51569" lon="4.70672">
        <ele>354.01</ele>
        <time>2017-03-26T09:44:37Z</time>
      </trkpt>
      <trkpt lat="45.5156" lon="4.70655">
        <ele>353.95</ele>
        <time>2017-03-26T09:44:38Z</time>
      </trkpt>
      <trkpt lat="45.51551" lon="4.70637">
        <ele>354.17</ele>
        <time>2017-03-26T09:44:39Z</time>
      </trkpt>
      <trkpt lat="45.51541" lon="4.70617">
        <ele>354.3</ele>
        <time>2017-03-26T09:44:40Z</time>
      </trkpt>
      <trkpt lat="45.51531" lon="4.70597">
        <ele>354.56</ele>
        <time>2017-03-26T09:44:41Z</time>
      </trkpt>
      <trkpt lat="45.5152" lon="4.70576">
        <ele>354.94</ele>
        <time>2017-03-26T09:44:42Z</time>
      </trkpt>
      <trkpt lat="45.51508" lon="4.70555">
        <ele>355.57</ele>
        <time>2017-03-26T09:44:43Z</time>
      </trkpt>
      <trkpt lat="45.51495" lon="4.70533">
        <ele>356.26</ele>
        <time>2017-03-26T09:44:44Z</time>
      </trkpt>
      <trkpt lat="45.51482" lon="4.70512">
        <ele>357.2</ele>
        <time>2017-03-26T09:44:45Z</time>
      </trkpt>
      <trkpt lat="45.51469" lon="4.70491">
        <ele>357.94</ele>
        <time>2017-03-26T09:44:46Z</time>
      </trkpt>
      <trkpt lat="45.51456" lon="4.7047">
        <ele>358.49</ele>
        <time>2017-03-26T09:44:47Z</time>
      </trkpt>
      <trkpt lat="45.51443" lon="4.70451">
        <ele>359.16</ele>
        <time>2017-03-26T09:44:48Z</time>
      </trkpt>
      <trkpt lat="45.51429" lon="4.70432">
        <ele>359.94</ele>
        <time>2017-03-26T09:44:49Z</time>
      </trkpt>
      <trkpt lat="45.51415" lon="4.70414">
        <ele>360.41</ele>
        <time>2017-03-26T09:44:50Z</time>
      </trkpt>
      <trkpt lat="45.51399" lon="4.70397">
        <ele>360.27</ele>
        <time>2017-03-26T09:44:51Z</time>
      </trkpt>
      <trkpt lat="45.51384" lon="4.7038">
        <ele>360.08</ele>
        <time>2017-03-26T09:44:52Z</time>
      </trkpt>
      <trkpt lat="45.51369" lon="4.70364">
        <ele>359.8</ele>
        <time>2017-03-26T09:44:53Z</time>
      </trkpt>
      <trkpt lat="45.51355" lon="4.70347">
        <ele>359.74</ele>
        <time>2017-03-26T09:44:54Z</time>
      </trkpt>
      <trkpt lat="45.51341" lon="4.7033">
        <ele>359.41</ele>
        <time>2017-03-26T09:44:55Z</time>
      </trkpt>
      <trkpt lat="45.51326" lon="4.70314">
        <ele>359.19</ele>
        <time>2017-03-26T09:44:56Z</time>
      </trkpt>
      <trkpt lat="45.51311" lon="4.70297">
        <ele>359.06</ele>
        <time>2017-03-26T09:44:57Z</time>
      </trkpt>
      <trkpt lat="45.51295" lon="4.7028">
        <ele>358.88</ele>
        <time>2017-03-26T09:44:58Z</time>
      </trkpt>
      <trkpt lat="45.5128" lon="4.70262">
        <ele>358.68</ele>
        <time>2017-03-26T09:44:59Z</time>
      </trkpt>
      <trkpt lat="45.51264" lon="4.70244">
        <ele>358.56</ele>
        <time>2017-03-26T09:45:00Z</time>
      </trkpt>
      <trkpt lat="45.51249" lon="4.70226">
        <ele>358.86</ele>
        <time>2017-03-26T09:45:01Z</time>
      </trkpt>
      <trkpt lat="45.51233" lon="4.70208">
        <ele>359.08</ele>
        <time>2017-03-26T09:45:02Z</time>
      </trkpt>
      <trkpt lat="45.51218" lon="4.7019">
        <ele>359.28</ele>
        <time>2017-03-26T09:45:03Z</time>
      </trkpt>
      <trkpt lat="45.51203" lon="4.70174">
        <ele>359.16</ele>
        <time>2017-03-26T09:45:04Z</time>
      </trkpt>
      <trkpt lat="45.51188" lon="4.70159">
        <ele>359.06</ele>
        <time>2017-03-26T09:45:05Z</time>
      </trkpt>
      <trkpt lat="45.51173" lon="4.70147">
        <ele>358.96</ele>
        <time>2017-03-26T09:45:06Z</time>
      </trkpt>
      <trkpt lat="45.51157" lon="4.70137">
        <ele>359.1</ele>
        <time>2017-03-26T09:45:07Z</time>
      </trkpt>
      <trkpt lat="45.5114" lon="4.7013">
        <ele>359.12</ele>
        <time>2017-03-26T09:45:08Z</time>
      </trkpt>
      <trkpt lat="45.51123" lon="4.70124">
        <ele>359.21</ele>
        <time>2017-03-26T09:45:09Z</time>
      </trkpt>
      <trkpt lat="45.51106" lon="4.7012">
        <ele>359.23</ele>
        <time>2017-03-26T09:45:10Z</time>
      </trkpt>
      <trkpt lat="45.51089" lon="4.70117">
        <ele>359.23</ele>
        <time>2017-03-26T09:45:11Z</time>
      </trkpt>
      <trkpt lat="45.51074" lon="4.70115">
        <ele>359.47</ele>
        <time>2017-03-26T09:45:12Z</time>
      </trkpt>
      <trkpt lat="45.5106" lon="4.70115">
        <ele>359.76</ele>
        <time>2017-03-26T09:45:13Z</time>
      </trkpt>
      <trkpt lat="45.51048" lon="4.70116">
        <ele>361.1</ele>
        <time>2017-03-26T09:45:14Z</time>
      </trkpt>
      <trkpt lat="45.51037" lon="4.70117">
        <ele>361.84</ele>
        <time>2017-03-26T09:45:15Z</time>
      </trkpt>
      <trkpt lat="45.51029" lon="4.70118">
        <ele>362.31</ele>
        <time>2017-03-26T09:45:16Z</time>
      </trkpt>
      <trkpt lat="45.51025" lon="4.70118">
        <ele>363.05</ele>
        <time>2017-03-26T09:45:17Z</time>
      </trkpt>
      <trkpt lat="45.51022" lon="4.70119">
        <ele>363.67</ele>
        <time>2017-03-26T09:45:18Z</time>
      </trkpt>
      <trkpt lat="45.51021" lon="4.7012">
        <ele>364.28</ele>
        <time>2017-03-26T09:45:19Z</time>
      </trkpt>
      <trkpt lat="45.51018" lon="4.70121">
        <ele>364.8</ele>
        <time>2017-03-26T09:45:20Z</time>
      </trkpt>
      <trkpt lat="45.51016" lon="4.70121">
        <ele>364.98</ele>
        <time>2017-03-26T09:45:21Z</time>
      </trkpt>
      <trkpt lat="45.51012" lon="4.70121">
        <ele>365.1</ele>
        <time>2017-03-26T09:45:22Z</time>
      </trkpt>
      <trkpt lat="45.51005" lon="4.70119">
        <ele>365.76</ele>
        <time>2017-03-26T09:45:23Z</time>
      </trkpt>
      <trkpt lat="45.50996" lon="4.70114">
        <ele>366.22</ele>
        <time>2017-03-26T09:45:24Z</time>
      </trkpt>
      <trkpt lat="45.50987" lon="4.70106">
        <ele>366.79</ele>
        <time>2017-03-26T09:45:25Z</time>
      </trkpt>
      <trkpt lat="45.50977" lon="4.70096">
        <ele>367.38</ele>
        <time>2017-03-26T09:45:26Z</time>
      </trkpt>
      <trkpt lat="45.50968" lon="4.70084">
        <ele>367.98</ele>
        <time>2017-03-26T09:45:27Z</time>
      </trkpt>
      <trkpt lat="45.50957" lon="4.70071">
        <ele>368.34</ele>
        <time>2017-03-26T09:45:28Z</time>
      </trkpt>
      <trkpt lat="45.50946" lon="4.70059">
        <ele>368.81</ele>
        <time>2017-03-26T09:45:29Z</time>
      </trkpt>
      <trkpt lat="45.50935" lon="4.70045">
        <ele>369.23</ele>
        <time>2017-03-26T09:45:30Z</time>
      </trkpt>
      <trkpt lat="45.50925" lon="4.7003">
        <ele>369.71</ele>
        <time>2017-03-26T09:45:31Z</time>
      </trkpt>
      <trkpt lat="45.50916" lon="4.70011">
        <ele>369.97</ele>
        <time>2017-03-26T09:45:32Z</time>
      </trkpt>
      <trkpt lat="45.50909" lon="4.6999">
        <ele>370.18</ele>
        <time>2017-03-26T09:45:33Z</time>
      </trkpt>
      <trkpt lat="45.50903" lon="4.69966">
        <ele>370.54</ele>
        <time>2017-03-26T09:45:34Z</time>
      </trkpt>
      <trkpt lat="45.50896" lon="4.69943">
        <ele>371.01</ele>
        <time>2017-03-26T09:45:35Z</time>
      </trkpt>
      <trkpt lat="45.50889" lon="4.69921">
        <ele>371.51</ele>
        <time>2017-03-26T09:45:36Z</time>
      </trkpt>
      <trkpt lat="45.5088" lon="4.699">
        <ele>372.17</ele>
        <time>2017-03-26T09:45:37Z</time>
      </trkpt>
      <trkpt lat="45.5087" lon="4.69881">
        <ele>372.86</ele>
        <time>2017-03-26T09:45:38Z</time>
      </trkpt>
      <trkpt lat="45.50859" lon="4.69862">
        <ele>373.88</ele>
        <time>2017-03-26T09:45:39Z</time>
      </trkpt>
      <trkpt lat="45.50848" lon="4.69842">
        <ele>374.56</ele>
        <time>2017-03-26T09:45:40Z</time>
      </trkpt>
      <trkpt lat="45.50838" lon="4.6982">
        <ele>375.5</ele>
        <time>2017-03-26T09:45:41Z</time>
      </trkpt>
      <trkpt lat="45.50828" lon="4.69797">
        <ele>376</ele>
        <time>2017-03-26T09:45:42Z</time>
      </trkpt>
      <trkpt lat="45.50817" lon="4.69774">
        <ele>376.42</ele>
        <time>2017-03-26T09:45:43Z</time>
      </trkpt>
      <trkpt lat="45.50807" lon="4.69752">
        <ele>376.75</ele>
        <time>2017-03-26T09:45:44Z</time>
      </trkpt>
      <trkpt lat="45.50798" lon="4.69731">
        <ele>376.89</ele>
        <time>2017-03-26T09:45:45Z</time>
      </trkpt>
      <trkpt lat="45.5079" lon="4.69709">
        <ele>376.68</ele>
        <time>2017-03-26T09:45:46Z</time>
      </trkpt>
      <trkpt lat="45.50781" lon="4.69686">
        <ele>376.16</ele>
        <time>2017-03-26T09:45:47Z</time>
      </trkpt>
      <trkpt lat="45.50772" lon="4.69664">
        <ele>375.66</ele>
        <time>2017-03-26T09:45:48Z</time>
      </trkpt>
      <trkpt lat="45.50763" lon="4.69642">
        <ele>375.32</ele>
        <time>2017-03-26T09:45:49Z</time>
      </trkpt>
      <trkpt lat="45.50755" lon="4.6962">
        <ele>374.53</ele>
        <time>2017-03-26T09:45:50Z</time>
      </trkpt>
      <trkpt lat="45.50749" lon="4.69598">
        <ele>373.49</ele>
        <time>2017-03-26T09:45:51Z</time>
      </trkpt>
      <trkpt lat="45.50744" lon="4.69575">
        <ele>372.24</ele>
        <time>2017-03-26T09:45:52Z</time>
      </trkpt>
      <trkpt lat="45.5074" lon="4.69552">
        <ele>370.87</ele>
        <time>2017-03-26T09:45:53Z</time>
      </trkpt>
      <trkpt lat="45.50736" lon="4.6953">
        <ele>369.72</ele>
        <time>2017-03-26T09:45:54Z</time>
      </trkpt>
      <trkpt lat="45.50732" lon="4.6951">
        <ele>368.69</ele>
        <time>2017-03-26T09:45:55Z</time>
      </trkpt>
      <trkpt lat="45.50727" lon="4.69493">
        <ele>367.68</ele>
        <time>2017-03-26T09:45:56Z</time>
      </trkpt>
      <trkpt lat="45.50721" lon="4.6948">
        <ele>366.44</ele>
        <time>2017-03-26T09:45:57Z</time>
      </trkpt>
      <trkpt lat="45.50713" lon="4.6947">
        <ele>365.31</ele>
        <time>2017-03-26T09:45:58Z</time>
      </trkpt>
      <trkpt lat="45.50705" lon="4.69467">
        <ele>364.37</ele>
        <time>2017-03-26T09:45:59Z</time>
      </trkpt>
      <trkpt lat="45.50697" lon="4.69472">
        <ele>363.22</ele>
        <time>2017-03-26T09:46:00Z</time>
      </trkpt>
      <trkpt lat="45.50688" lon="4.69484">
        <ele>362.11</ele>
        <time>2017-03-26T09:46:01Z</time>
      </trkpt>
      <trkpt lat="45.50679" lon="4.695">
        <ele>360.93</ele>
        <time>2017-03-26T09:46:02Z</time>
      </trkpt>
      <trkpt lat="45.50671" lon="4.69519">
        <ele>359.65</ele>
        <time>2017-03-26T09:46:03Z</time>
      </trkpt>
      <trkpt lat="45.50663" lon="4.69539">
        <ele>358.43</ele>
        <time>2017-03-26T09:46:04Z</time>
      </trkpt>
      <trkpt lat="45.50655" lon="4.6956">
        <ele>357.39</ele>
        <time>2017-03-26T09:46:05Z</time>
      </trkpt>
      <trkpt lat="45.50649" lon="4.69581">
        <ele>356.78</ele>
        <time>2017-03-26T09:46:06Z</time>
      </trkpt>
      <trkpt lat="45.50642" lon="4.696">
        <ele>355.78</ele>
        <time>2017-03-26T09:46:07Z</time>
      </trkpt>
      <trkpt lat="45.50634" lon="4.69619">
        <ele>354.7</ele>
        <time>2017-03-26T09:46:08Z</time>
      </trkpt>
      <trkpt lat="45.50626" lon="4.69638">
        <ele>353.6</ele>
        <time>2017-03-26T09:46:09Z</time>
      </trkpt>
      <trkpt lat="45.50617" lon="4.69658">
        <ele>352.42</ele>
        <time>2017-03-26T09:46:10Z</time>
      </trkpt>
      <trkpt lat="45.50609" lon="4.69677">
        <ele>351.39</ele>
        <time>2017-03-26T09:46:11Z</time>
      </trkpt>
      <trkpt lat="45.50601" lon="4.69695">
        <ele>350.22</ele>
        <time>2017-03-26T09:46:12Z</time>
      </trkpt>
      <trkpt lat="45.50593" lon="4.69711">
        <ele>349.11</ele>
        <time>2017-03-26T09:46:13Z</time>
      </trkpt>
      <trkpt lat="45.50583" lon="4.69723">
        <ele>347.53</ele>
        <time>2017-03-26T09:46:14Z</time>
      </trkpt>
      <trkpt lat="45.50572" lon="4.6973">
        <ele>346.17</ele>
        <time>2017-03-26T09:46:15Z</time>
      </trkpt>
      <trkpt lat="45.50562" lon="4.6973">
        <ele>345.18</ele>
        <time>2017-03-26T09:46:16Z</time>
      </trkpt>
      <trkpt lat="45.50552" lon="4.69724">
        <ele>344.9</ele>
        <time>2017-03-26T09:46:17Z</time>
      </trkpt>
      <trkpt lat="45.50545" lon="4.69713">
        <ele>345</ele>
        <time>2017-03-26T09:46:18Z</time>
      </trkpt>
      <trkpt lat="45.5054" lon="4.69699">
        <ele>345.18</ele>
        <time>2017-03-26T09:46:19Z</time>
      </trkpt>
      <trkpt lat="45.50539" lon="4.6968">
        <ele>345.62</ele>
        <time>2017-03-26T09:46:20Z</time>
      </trkpt>
      <trkpt lat="45.50542" lon="4.69659">
        <ele>345.71</ele>
        <time>2017-03-26T09:46:21Z</time>
      </trkpt>
      <trkpt lat="45.50547" lon="4.69636">
        <ele>346.21</ele>
        <time>2017-03-26T09:46:22Z</time>
      </trkpt>
      <trkpt lat="45.50551" lon="4.69612">
        <ele>346.55</ele>
        <time>2017-03-26T09:46:23Z</time>
      </trkpt>
      <trkpt lat="45.50555" lon="4.69588">
        <ele>346.77</ele>
        <time>2017-03-26T09:46:24Z</time>
      </trkpt>
      <trkpt lat="45.50559" lon="4.69564">
        <ele>347.38</ele>
        <time>2017-03-26T09:46:25Z</time>
      </trkpt>
      <trkpt lat="45.50562" lon="4.6954">
        <ele>347.66</ele>
        <time>2017-03-26T09:46:26Z</time>
      </trkpt>
      <trkpt lat="45.50563" lon="4.69517">
        <ele>348.28</ele>
        <time>2017-03-26T09:46:27Z</time>
      </trkpt>
      <trkpt lat="45.50561" lon="4.69494">
        <ele>349.12</ele>
        <time>2017-03-26T09:46:28Z</time>
      </trkpt>
      <trkpt lat="45.50558" lon="4.69472">
        <ele>350.01</ele>
        <time>2017-03-26T09:46:29Z</time>
      </trkpt>
      <trkpt lat="45.50553" lon="4.69452">
        <ele>350.99</ele>
        <time>2017-03-26T09:46:30Z</time>
      </trkpt>
      <trkpt lat="45.50546" lon="4.69435">
        <ele>352.22</ele>
        <time>2017-03-26T09:46:31Z</time>
      </trkpt>
      <trkpt lat="45.50536" lon="4.69422">
        <ele>353.59</ele>
        <time>2017-03-26T09:46:32Z</time>
      </trkpt>
      <trkpt lat="45.50525" lon="4.69409">
        <ele>354.9</ele>
        <time>2017-03-26T09:46:33Z</time>
      </trkpt>
      <trkpt lat="45.50512" lon="4.69398">
        <ele>355.88</ele>
        <time>2017-03-26T09:46:34Z</time>
      </trkpt>
      <trkpt lat="45.50499" lon="4.69387">
        <ele>356.8</ele>
        <time>2017-03-26T09:46:35Z</time>
      </trkpt>
      <trkpt lat="45.50486" lon="4.69376">
        <ele>357.38</ele>
        <time>2017-03-26T09:46:36Z</time>
      </trkpt>
      <trkpt lat="45.50474" lon="4.69365">
        <ele>358.06</ele>
        <time>2017-03-26T09:46:37Z</time>
      </trkpt>
      <trkpt lat="45.50461" lon="4.69354">
        <ele>358.6</ele>
        <time>2017-03-26T09:46:38Z</time>
      </trkpt>
      <trkpt lat="45.50447" lon="4.69346">
        <ele>359.18</ele>
        <time>2017-03-26T09:46:39Z</time>
      </trkpt>
      <trkpt lat="45.50431" lon="4.69338">
        <ele>359.54</ele>
        <time>2017-03-26T09:46:40Z</time>
      </trkpt>
      <trkpt lat="45.50415" lon="4.69332">
        <ele>359.69</ele>
        <time>2017-03-26T09:46:41Z</time>
      </trkpt>
      <trkpt lat="45.50399" lon="4.69325">
        <ele>359.8</ele>
        <time>2017-03-26T09:46:42Z</time>
      </trkpt>
      <trkpt lat="45.50382" lon="4.69319">
        <ele>359.98</ele>
        <time>2017-03-26T09:46:43Z</time>
      </trkpt>
      <trkpt lat="45.50365" lon="4.69312">
        <ele>359.94</ele>
        <time>2017-03-26T09:46:44Z</time>
      </trkpt>
      <trkpt lat="45.50349" lon="4.69306">
        <ele>359.77</ele>
        <time>2017-03-26T09:46:45Z</time>
      </trkpt>
      <trkpt lat="45.50333" lon="4.69301">
        <ele>359.66</ele>
        <time>2017-03-26T09:46:46Z</time>
      </trkpt>
      <trkpt lat="45.5032" lon="4.69297">
        <ele>359.64</ele>
        <time>2017-03-26T09:46:47Z</time>
      </trkpt>
      <trkpt lat="45.50308" lon="4.69293">
        <ele>359.87</ele>
        <time>2017-03-26T09:46:48Z</time>
      </trkpt>
      <trkpt lat="45.50298" lon="4.69288">
        <ele>359.92</ele>
        <time>2017-03-26T09:46:49Z</time>
      </trkpt>
      <trkpt lat="45.50291" lon="4.69281">
        <ele>360.25</ele>
        <time>2017-03-26T09:46:50Z</time>
      </trkpt>
      <trkpt lat="45.50291" lon="4.69271">
        <ele>360.55</ele>
        <time>2017-03-26T09:46:51Z</time>
      </trkpt>
      <trkpt lat="45.50297" lon="4.69261">
        <ele>360.69</ele>
        <time>2017-03-26T09:46:52Z</time>
      </trkpt>
      <trkpt lat="45.50308" lon="4.6925">
        <ele>361.2</ele>
        <time>2017-03-26T09:46:53Z</time>
      </trkpt>
      <trkpt lat="45.50321" lon="4.69239">
        <ele>361.62</ele>
        <time>2017-03-26T09:46:54Z</time>
      </trkpt>
      <trkpt lat="45.50335" lon="4.69228">
        <ele>362.19</ele>
        <time>2017-03-26T09:46:55Z</time>
      </trkpt>
      <trkpt lat="45.50349" lon="4.69217">
        <ele>362.7</ele>
        <time>2017-03-26T09:46:56Z</time>
      </trkpt>
      <trkpt lat="45.50364" lon="4.69205">
        <ele>363.2</ele>
        <time>2017-03-26T09:46:57Z</time>
      </trkpt>
      <trkpt lat="45.50377" lon="4.69193">
        <ele>363.78</ele>
        <time>2017-03-26T09:46:58Z</time>
      </trkpt>
      <trkpt lat="45.5039" lon="4.69181">
        <ele>364.06</ele>
        <time>2017-03-26T09:46:59Z</time>
      </trkpt>
      <trkpt lat="45.504" lon="4.69168">
        <ele>364.84</ele>
        <time>2017-03-26T09:47:00Z</time>
      </trkpt>
      <trkpt lat="45.50408" lon="4.69152">
        <ele>365.87</ele>
        <time>2017-03-26T09:47:01Z</time>
      </trkpt>
      <trkpt lat="45.50413" lon="4.69134">
        <ele>366.72</ele>
        <time>2017-03-26T09:47:02Z</time>
      </trkpt>
      <trkpt lat="45.50417" lon="4.69116">
        <ele>367.53</ele>
        <time>2017-03-26T09:47:03Z</time>
      </trkpt>
      <trkpt lat="45.50422" lon="4.691">
        <ele>367.77</ele>
        <time>2017-03-26T09:47:04Z</time>
      </trkpt>
      <trkpt lat="45.50429" lon="4.6909">
        <ele>368.38</ele>
        <time>2017-03-26T09:47:05Z</time>
      </trkpt>
      <trkpt lat="45.50438" lon="4.69087">
        <ele>369.06</ele>
        <time>2017-03-26T09:47:06Z</time>
      </trkpt>
      <trkpt lat="45.50447" lon="4.6909">
        <ele>369.68</ele>
        <time>2017-03-26T09:47:07Z</time>
      </trkpt>
      <trkpt lat="45.50456" lon="4.69097">
        <ele>369.96</ele>
        <time>2017-03-26T09:47:08Z</time>
      </trkpt>
      <trkpt lat="45.50467" lon="4.69104">
        <ele>370.58</ele>
        <time>2017-03-26T09:47:09Z</time>
      </trkpt>
      <trkpt lat="45.50477" lon="4.69109">
        <ele>371.26</ele>
        <time>2017-03-26T09:47:10Z</time>
      </trkpt>
      <trkpt lat="45.50487" lon="4.69109">
        <ele>371.88</ele>
        <time>2017-03-26T09:47:11Z</time>
      </trkpt>
      <trkpt lat="45.50494" lon="4.69104">
        <ele>372.8</ele>
        <time>2017-03-26T09:47:12Z</time>
      </trkpt>
      <trkpt lat="45.505" lon="4.69096">
        <ele>373.7</ele>
        <time>2017-03-26T09:47:13Z</time>
      </trkpt>
      <trkpt lat="45.505" lon="4.69084">
        <ele>374.36</ele>
        <time>2017-03-26T09:47:14Z</time>
      </trkpt>
      <trkpt lat="45.505" lon="4.6907">
        <ele>374.9</ele>
        <time>2017-03-26T09:47:15Z</time>
      </trkpt>
      <trkpt lat="45.50501" lon="4.69054">
        <ele>375.24</ele>
        <time>2017-03-26T09:47:16Z</time>
      </trkpt>
      <trkpt lat="45.50502" lon="4.69036">
        <ele>375.55</ele>
        <time>2017-03-26T09:47:17Z</time>
      </trkpt>
      <trkpt lat="45.50503" lon="4.69019">
        <ele>375.93</ele>
        <time>2017-03-26T09:47:18Z</time>
      </trkpt>
      <trkpt lat="45.50504" lon="4.69003">
        <ele>376.41</ele>
        <time>2017-03-26T09:47:19Z</time>
      </trkpt>
      <trkpt lat="45.50506" lon="4.68988">
        <ele>376.83</ele>
        <time>2017-03-26T09:47:20Z</time>
      </trkpt>
      <trkpt lat="45.50506" lon="4.68977">
        <ele>377.39</ele>
        <time>2017-03-26T09:47:21Z</time>
      </trkpt>
      <trkpt lat="45.50507" lon="4.68968">
        <ele>377.9</ele>
        <time>2017-03-26T09:47:22Z</time>
      </trkpt>
      <trkpt lat="45.50508" lon="4.68959">
        <ele>378.32</ele>
        <time>2017-03-26T09:47:23Z</time>
      </trkpt>
      <trkpt lat="45.50507" lon="4.68951">
        <ele>378.81</ele>
        <time>2017-03-26T09:47:24Z</time>
      </trkpt>
      <trkpt lat="45.50507" lon="4.68943">
        <ele>379.15</ele>
        <time>2017-03-26T09:47:25Z</time>
      </trkpt>
      <trkpt lat="45.50505" lon="4.68935">
        <ele>379.53</ele>
        <time>2017-03-26T09:47:26Z</time>
      </trkpt>
      <trkpt lat="45.50503" lon="4.68927">
        <ele>379.93</ele>
        <time>2017-03-26T09:47:27Z</time>
      </trkpt>
      <trkpt lat="45.50501" lon="4.68918">
        <ele>380.25</ele>
        <time>2017-03-26T09:47:28Z</time>
      </trkpt>
      <trkpt lat="45.50499" lon="4.68908">
        <ele>380.63</ele>
        <time>2017-03-26T09:47:29Z</time>
      </trkpt>
      <trkpt lat="45.50497" lon="4.68898">
        <ele>380.95</ele>
        <time>2017-03-26T09:47:30Z</time>
      </trkpt>
      <trkpt lat="45.50496" lon="4.68889">
        <ele>381.33</ele>
        <time>2017-03-26T09:47:31Z</time>
      </trkpt>
      <trkpt lat="45.50494" lon="4.6888">
        <ele>381.73</ele>
        <time>2017-03-26T09:47:32Z</time>
      </trkpt>
      <trkpt lat="45.50493" lon="4.68873">
        <ele>382.13</ele>
        <time>2017-03-26T09:47:33Z</time>
      </trkpt>
      <trkpt lat="45.50492" lon="4.68867">
        <ele>382.61</ele>
        <time>2017-03-26T09:47:34Z</time>
      </trkpt>
      <trkpt lat="45.5049" lon="4.68861">
        <ele>383.19</ele>
        <time>2017-03-26T09:47:35Z</time>
      </trkpt>
      <trkpt lat="45.50488" lon="4.68856">
        <ele>383.78</ele>
        <time>2017-03-26T09:47:36Z</time>
      </trkpt>
      <trkpt lat="45.50487" lon="4.68849">
        <ele>384.38</ele>
        <time>2017-03-26T09:47:37Z</time>
      </trkpt>
      <trkpt lat="45.50487" lon="4.68843">
        <ele>384.9</ele>
        <time>2017-03-26T09:47:38Z</time>
      </trkpt>
      <trkpt lat="45.50485" lon="4.68836">
        <ele>385.4</ele>
        <time>2017-03-26T09:47:39Z</time>
      </trkpt>
      <trkpt lat="45.50484" lon="4.68831">
        <ele>385.74</ele>
        <time>2017-03-26T09:47:40Z</time>
      </trkpt>
      <trkpt lat="45.50483" lon="4.68827">
        <ele>386.13</ele>
        <time>2017-03-26T09:47:41Z</time>
      </trkpt>
      <trkpt lat="45.50483" lon="4.68824">
        <ele>386.45</ele>
        <time>2017-03-26T09:47:42Z</time>
      </trkpt>
      <trkpt lat="45.50482" lon="4.68822">
        <ele>386.83</ele>
        <time>2017-03-26T09:47:43Z</time>
      </trkpt>
      <trkpt lat="45.50482" lon="4.68822">
        <ele>387.39</ele>
        <time>2017-03-26T09:47:44Z</time>
      </trkpt>
      <trkpt lat="45.50483" lon="4.68822">
        <ele>387.98</ele>
        <time>2017-03-26T09:47:45Z</time>
      </trkpt>
      <trkpt lat="45.50483" lon="4.68823">
        <ele>388.5</ele>
        <time>2017-03-26T09:47:46Z</time>
      </trkpt>
      <trkpt lat="45.50483" lon="4.68823">
        <ele>388.6</ele>
        <time>2017-03-26T09:47:47Z</time>
      </trkpt>
      <trkpt lat="45.50483" lon="4.68823">
        <ele>388.62</ele>
        <time>2017-03-26T09:47:48Z</time>
      </trkpt>
      <trkpt lat="45.50483" lon="4.68823">
        <ele>388.63</ele>
        <time>2017-03-26T09:47:49Z</time>
      </trkpt>
      <trkpt lat="45.50483" lon="4.68823">
        <ele>388.63</ele>
        <time>2017-03-26T09:47:50Z</time>
      </trkpt>
      <trkpt lat="45.50483" lon="4.68823">
        <ele>388.63</ele>
        <time>2017-03-26T09:47:51Z</time>
      </trkpt>
      <trkpt lat="45.50483" lon="4.68823">
        <ele>388.63</ele>
        <time>2017-03-26T09:47:52Z</time>
      </trkpt>
      <trkpt lat="45.50483" lon="4.68823">
        <ele>388.63</ele>
        <time>2017-03-26T09:47:53Z</time>
      </trkpt>
      <trkpt lat="45.50483" lon="4.68823">
        <ele>388.63</ele>
        <time>2017-03-26T09:47:54Z</time>
      </trkpt>
      <trkpt lat="45.50483" lon="4.68823">
        <ele>388.63</ele>
        <time>2017-03-26T09:47:55Z</time>
      </trkpt>
      <trkpt lat="45.50483" lon="4.68823">
        <ele>388.63</ele>
        <time>2017-03-26T09:47:56Z</time>
      </trkpt>
      <trkpt lat="45.50483" lon="4.68823">
        <ele>388.63</ele>
        <time>2017-03-26T09:47:57Z</time>
      </trkpt>
      <trkpt lat="45.50483" lon="4.68823">
        <ele>388.63</ele>
        <time>2017-03-26T09:47:58Z</time>
      </trkpt>
      <trkpt lat="45.50483" lon="4.68823">
        <ele>388.63</ele>
        <time>2017-03-26T09:47:59Z</time>
      </trkpt>
      <trkpt lat="45.50483" lon="4.68823">
        <ele>388.63</ele>
        <time>2017-03-26T09:48:00Z</time>
      </trkpt>
      <trkpt lat="45.50483" lon="4.68823">
        <ele>388.63</ele>
        <time>2017-03-26T09:48:01Z</time>
      </trkpt>
      <trkpt lat="45.50483" lon="4.68823">
        <ele>388.63</ele>
        <time>2017-03-26T09:48:02Z</time>
      </trkpt>
      <trkpt lat="45.50483" lon="4.68823">
        <ele>388.63</ele>
        <time>2017-03-26T09:48:03Z</time>
      </trkpt>
      <trkpt lat="45.50483" lon="4.68823">
        <ele>388.63</ele>
        <time>2017-03-26T09:48:04Z</time>
      </trkpt>
      <trkpt lat="45.50483" lon="4.68823">
        <ele>388.63</ele>
        <time>2017-03-26T09:48:05Z</time>
      </trkpt>
      <trkpt lat="45.50483" lon="4.68823">
        <ele>388.63</ele>
        <time>2017-03-26T09:48:06Z</time>
      </trkpt>
      <trkpt lat="45.50483" lon="4.68823">
        <ele>388.63</ele>
        <time>2017-03-26T09:48:07Z</time>
      </trkpt>
      <trkpt lat="45.50483" lon="4.68823">
        <ele>388.63</ele>
        <time>2017-03-26T09:48:08Z</time>
      </trkpt>
      <trkpt lat="45.50483" lon="4.68823">
        <ele>388.63</ele>
        <time>2017-03-26T09:48:09Z</time>
      </trkpt>
      <trkpt lat="45.50483" lon="4.68823">
        <ele>388.63</ele>
        <time>2017-03-26T09:48:10Z</time>
      </trkpt>
      <trkpt lat="45.50483" lon="4.68823">
        <ele>388.63</ele>
        <time>2017-03-26T09:48:11Z</time>
      </trkpt>
      <trkpt lat="45.50483" lon="4.68823">
        <ele>388.63</ele>
        <time>2017-03-26T09:48:12Z</time>
      </trkpt>
      <trkpt lat="45.50483" lon="4.68823">
        <ele>388.63</ele>
        <time>2017-03-26T09:48:13Z</time>
      </trkpt>
      <trkpt lat="45.50483" lon="4.68823">
        <ele>388.63</ele>
        <time>2017-03-26T09:48:14Z</time>
      </trkpt>
      <trkpt lat="45.50483" lon="4.68823">
        <ele>388.63</ele>
        <time>2017-03-26T09:48:15Z</time>
      </trkpt>
      <trkpt lat="45.50483" lon="4.68823">
        <ele>388.63</ele>
        <time>2017-03-26T09:48:16Z</time>
      </trkpt>
      <trkpt lat="45.50483" lon="4.68823">
        <ele>388.63</ele>
        <time>2017-03-26T09:48:17Z</time>
      </trkpt>
      <trkpt lat="45.50483" lon="4.68823">
        <ele>388.63</ele>
        <time>2017-03-26T09:48:18Z</time>
      </trkpt>
      <trkpt lat="45.50486" lon="4.68821">
        <ele>389.83</ele>
        <time>2017-03-26T09:48:19Z</time>
      </trkpt>
      <trkpt lat="45.50489" lon="4.68817">
        <ele>390.07</ele>
        <time>2017-03-26T09:48:20Z</time>
      </trkpt>
      <trkpt lat="45.50494" lon="4.68812">
        <ele>390.12</ele>
        <time>2017-03-26T09:48:21Z</time>
      </trkpt>
      <trkpt lat="45.50499" lon="4.68806">
        <ele>390.13</ele>
        <time>2017-03-26T09:48:22Z</time>
      </trkpt>
      <trkpt lat="45.50505" lon="4.688">
        <ele>390.13</ele>
        <time>2017-03-26T09:48:23Z</time>
      </trkpt>
      <trkpt lat="45.50512" lon="4.68793">
        <ele>390.13</ele>
        <time>2017-03-26T09:48:24Z</time>
      </trkpt>
      <trkpt lat="45.50518" lon="4.68786">
        <ele>390.13</ele>
        <time>2017-03-26T09:48:25Z</time>
      </trkpt>
      <trkpt lat="45.50525" lon="4.6878">
        <ele>390.05</ele>
        <time>2017-03-26T09:48:26Z</time>
      </trkpt>
      <trkpt lat="45.50533" lon="4.68775">
        <ele>390.03</ele>
        <time>2017-03-26T09:48:27Z</time>
      </trkpt>
      <trkpt lat="45.50543" lon="4.6877">
        <ele>390.03</ele>
        <time>2017-03-26T09:48:28Z</time>
      </trkpt>
      <trkpt lat="45.50554" lon="4.68764">
        <ele>389.79</ele>
        <time>2017-03-26T09:48:29Z</time>
      </trkpt>
      <trkpt lat="45.50565" lon="4.68758">
        <ele>389.58</ele>
        <time>2017-03-26T09:48:30Z</time>
      </trkpt>
      <trkpt lat="45.50577" lon="4.68754">
        <ele>389.3</ele>
        <time>2017-03-26T09:48:31Z</time>
      </trkpt>
      <trkpt lat="45.50589" lon="4.6875">
        <ele>389.08</ele>
        <time>2017-03-26T09:48:32Z</time>
      </trkpt>
      <trkpt lat="45.506" lon="4.68746">
        <ele>388.96</ele>
        <time>2017-03-26T09:48:33Z</time>
      </trkpt>
      <trkpt lat="45.50612" lon="4.68742">
        <ele>388.7</ele>
        <time>2017-03-26T09:48:34Z</time>
      </trkpt>
      <trkpt lat="45.50623" lon="4.68738">
        <ele>388.48</ele>
        <time>2017-03-26T09:48:35Z</time>
      </trkpt>
      <trkpt lat="45.50635" lon="4.68734">
        <ele>388.36</ele>
        <time>2017-03-26T09:48:36Z</time>
      </trkpt>
      <trkpt lat="45.50648" lon="4.6873">
        <ele>388.18</ele>
        <time>2017-03-26T09:48:37Z</time>
      </trkpt>
      <trkpt lat="45.50661" lon="4.68726">
        <ele>387.82</ele>
        <time>2017-03-26T09:48:38Z</time>
      </trkpt>
      <trkpt lat="45.50676" lon="4.68721">
        <ele>387.35</ele>
        <time>2017-03-26T09:48:39Z</time>
      </trkpt>
      <trkpt lat="45.5069" lon="4.68716">
        <ele>386.77</ele>
        <time>2017-03-26T09:48:40Z</time>
      </trkpt>
      <trkpt lat="45.50705" lon="4.68711">
        <ele>386.18</ele>
        <time>2017-03-26T09:48:41Z</time>
      </trkpt>
      <trkpt lat="45.50719" lon="4.68706">
        <ele>385.74</ele>
        <time>2017-03-26T09:48:42Z</time>
      </trkpt>
      <trkpt lat="45.50732" lon="4.687">
        <ele>385.25</ele>
        <time>2017-03-26T09:48:43Z</time>
      </trkpt>
      <trkpt lat="45.50745" lon="4.68694">
        <ele>384.91</ele>
        <time>2017-03-26T09:48:44Z</time>
      </trkpt>
      <trkpt lat="45.50756" lon="4.68686">
        <ele>384.21</ele>
        <time>2017-03-26T09:48:45Z</time>
      </trkpt>
      <trkpt lat="45.50765" lon="4.68676">
        <ele>383.59</ele>
        <time>2017-03-26T09:48:46Z</time>
      </trkpt>
      <trkpt lat="45.50772" lon="4.68663">
        <ele>383.06</ele>
        <time>2017-03-26T09:48:47Z</time>
      </trkpt>
      <trkpt lat="45.50777" lon="4.68645">
        <ele>382.4</ele>
        <time>2017-03-26T09:48:48Z</time>
      </trkpt>
      <trkpt lat="45.50778" lon="4.68625">
        <ele>381.46</ele>
        <time>2017-03-26T09:48:49Z</time>
      </trkpt>
      <trkpt lat="45.50776" lon="4.68604">
        <ele>380.72</ele>
        <time>2017-03-26T09:48:50Z</time>
      </trkpt>
      <trkpt lat="45.50768" lon="4.6858">
        <ele>379.85</ele>
        <time>2017-03-26T09:48:51Z</time>
      </trkpt>
      <trkpt lat="45.50762" lon="4.68555">
        <ele>378.87</ele>
        <time>2017-03-26T09:48:52Z</time>
      </trkpt>
      <trkpt lat="45.50755" lon="4.68529">
        <ele>377.88</ele>
        <time>2017-03-26T09:48:53Z</time>
      </trkpt>
      <trkpt lat="45.50749" lon="4.68503">
        <ele>376.88</ele>
        <time>2017-03-26T09:48:54Z</time>
      </trkpt>
      <trkpt lat="45.50743" lon="4.68477">
        <ele>375.88</ele>
        <time>2017-03-26T09:48:55Z</time>
      </trkpt>
      <trkpt lat="45.50737" lon="4.68452">
        <ele>374.96</ele>
        <time>2017-03-26T09:48:56Z</time>
      </trkpt>
      <trkpt lat="45.50731" lon="4.68427">
        <ele>373.98</ele>
        <time>2017-03-26T09:48:57Z</time>
      </trkpt>
      <trkpt lat="45.50726" lon="4.68402">
        <ele>372.9</ele>
        <time>2017-03-26T09:48:58Z</time>
      </trkpt>
      <trkpt lat="45.5072" lon="4.68379">
        <ele>371.88</ele>
        <time>2017-03-26T09:48:59Z</time>
      </trkpt>
      <trkpt lat="45.50716" lon="4.68355">
        <ele>370.88</ele>
        <time>2017-03-26T09:49:00Z</time>
      </trkpt>
      <trkpt lat="45.50712" lon="4.6833">
        <ele>369.72</ele>
        <time>2017-03-26T09:49:01Z</time>
      </trkpt>
      <trkpt lat="45.5071" lon="4.68305">
        <ele>368.45</ele>
        <time>2017-03-26T09:49:02Z</time>
      </trkpt>
      <trkpt lat="45.50708" lon="4.68278">
        <ele>367.07</ele>
        <time>2017-03-26T09:49:03Z</time>
      </trkpt>
      <trkpt lat="45.50709" lon="4.68251">
        <ele>365.6</ele>
        <time>2017-03-26T09:49:04Z</time>
      </trkpt>
      <trkpt lat="45.5071" lon="4.68224">
        <ele>364.02</ele>
        <time>2017-03-26T09:49:05Z</time>
      </trkpt>
      <trkpt lat="45.50713" lon="4.68197">
        <ele>362.19</ele>
        <time>2017-03-26T09:49:06Z</time>
      </trkpt>
      <trkpt lat="45.50715" lon="4.6817">
        <ele>360.54</ele>
        <time>2017-03-26T09:49:07Z</time>
      </trkpt>
      <trkpt lat="45.50718" lon="4.68145">
        <ele>359.41</ele>
        <time>2017-03-26T09:49:08Z</time>
      </trkpt>
      <trkpt lat="45.50721" lon="4.68122">
        <ele>358.39</ele>
        <time>2017-03-26T09:49:09Z</time>
      </trkpt>
      <trkpt lat="45.50728" lon="4.681">
        <ele>357.94</ele>
        <time>2017-03-26T09:49:10Z</time>
      </trkpt>
      <trkpt lat="45.50737" lon="4.68078">
        <ele>357.53</ele>
        <time>2017-03-26T09:49:11Z</time>
      </trkpt>
      <trkpt lat="45.50748" lon="4.68057">
        <ele>356.81</ele>
        <time>2017-03-26T09:49:12Z</time>
      </trkpt>
      <trkpt lat="45.5076" lon="4.68035">
        <ele>356.11</ele>
        <time>2017-03-26T09:49:13Z</time>
      </trkpt>
      <trkpt lat="45.50772" lon="4.68012">
        <ele>355.25</ele>
        <time>2017-03-26T09:49:14Z</time>
      </trkpt>
      <trkpt lat="45.50784" lon="4.6799">
        <ele>353.47</ele>
        <time>2017-03-26T09:49:15Z</time>
      </trkpt>
      <trkpt lat="45.50796" lon="4.67969">
        <ele>352</ele>
        <time>2017-03-26T09:49:16Z</time>
      </trkpt>
      <trkpt lat="45.5081" lon="4.6795">
        <ele>350.9</ele>
        <time>2017-03-26T09:49:17Z</time>
      </trkpt>
      <trkpt lat="45.50824" lon="4.67934">
        <ele>349.72</ele>
        <time>2017-03-26T09:49:18Z</time>
      </trkpt>
      <trkpt lat="45.50843" lon="4.67924">
        <ele>348.93</ele>
        <time>2017-03-26T09:49:19Z</time>
      </trkpt>
      <trkpt lat="45.50863" lon="4.67917">
        <ele>347.97</ele>
        <time>2017-03-26T09:49:20Z</time>
      </trkpt>
      <trkpt lat="45.50883" lon="4.67912">
        <ele>346.5</ele>
        <time>2017-03-26T09:49:21Z</time>
      </trkpt>
      <trkpt lat="45.50905" lon="4.67906">
        <ele>345.24</ele>
        <time>2017-03-26T09:49:22Z</time>
      </trkpt>
      <trkpt lat="45.50925" lon="4.679">
        <ele>344.27</ele>
        <time>2017-03-26T09:49:23Z</time>
      </trkpt>
      <trkpt lat="45.50945" lon="4.67894">
        <ele>343.36</ele>
        <time>2017-03-26T09:49:24Z</time>
      </trkpt>
      <trkpt lat="45.50963" lon="4.67889">
        <ele>342.3</ele>
        <time>2017-03-26T09:49:25Z</time>
      </trkpt>
      <trkpt lat="45.50982" lon="4.67884">
        <ele>341.2</ele>
        <time>2017-03-26T09:49:26Z</time>
      </trkpt>
      <trkpt lat="45.50998" lon="4.6788">
        <ele>340.02</ele>
        <time>2017-03-26T09:49:27Z</time>
      </trkpt>
      <trkpt lat="45.51014" lon="4.67875">
        <ele>338.75</ele>
        <time>2017-03-26T09:49:28Z</time>
      </trkpt>
      <trkpt lat="45.51027" lon="4.67871">
        <ele>337.61</ele>
        <time>2017-03-26T09:49:29Z</time>
      </trkpt>
      <trkpt lat="45.51037" lon="4.67865">
        <ele>336.43</ele>
        <time>2017-03-26T09:49:30Z</time>
      </trkpt>
      <trkpt lat="45.51043" lon="4.67858">
        <ele>335.07</ele>
        <time>2017-03-26T09:49:31Z</time>
      </trkpt>
      <trkpt lat="45.51046" lon="4.67847">
        <ele>333.92</ele>
        <time>2017-03-26T09:49:32Z</time>
      </trkpt>
      <trkpt lat="45.51043" lon="4.67836">
        <ele>332.25</ele>
        <time>2017-03-26T09:49:33Z</time>
      </trkpt>
      <trkpt lat="45.51036" lon="4.67826">
        <ele>330.71</ele>
        <time>2017-03-26T09:49:34Z</time>
      </trkpt>
      <trkpt lat="45.51027" lon="4.67821">
        <ele>329.13</ele>
        <time>2017-03-26T09:49:35Z</time>
      </trkpt>
      <trkpt lat="45.51012" lon="4.67819">
        <ele>327.53</ele>
        <time>2017-03-26T09:49:36Z</time>
      </trkpt>
      <trkpt lat="45.50996" lon="4.67817">
        <ele>326.01</ele>
        <time>2017-03-26T09:49:37Z</time>
      </trkpt>
      <trkpt lat="45.50979" lon="4.67817">
        <ele>324.51</ele>
        <time>2017-03-26T09:49:38Z</time>
      </trkpt>
      <trkpt lat="45.5096" lon="4.67818">
        <ele>322.69</ele>
        <time>2017-03-26T09:49:39Z</time>
      </trkpt>
      <trkpt lat="45.50943" lon="4.67819">
        <ele>321.12</ele>
        <time>2017-03-26T09:49:40Z</time>
      </trkpt>
      <trkpt lat="45.50926" lon="4.67817">
        <ele>319.93</ele>
        <time>2017-03-26T09:49:41Z</time>
      </trkpt>
      <trkpt lat="45.50911" lon="4.67812">
        <ele>318.73</ele>
        <time>2017-03-26T09:49:42Z</time>
      </trkpt>
      <trkpt lat="45.50896" lon="4.67802">
        <ele>317.85</ele>
        <time>2017-03-26T09:49:43Z</time>
      </trkpt>
      <trkpt lat="45.50883" lon="4.6779">
        <ele>317.11</ele>
        <time>2017-03-26T09:49:44Z</time>
      </trkpt>
      <trkpt lat="45.50868" lon="4.67779">
        <ele>316.25</ele>
        <time>2017-03-26T09:49:45Z</time>
      </trkpt>
      <trkpt lat="45.5085" lon="4.67771">
        <ele>315.11</ele>
        <time>2017-03-26T09:49:46Z</time>
      </trkpt>
      <trkpt lat="45.50832" lon="4.67767">
        <ele>313.93</ele>
        <time>2017-03-26T09:49:47Z</time>
      </trkpt>
      <trkpt lat="45.50813" lon="4.67766">
        <ele>312.73</ele>
        <time>2017-03-26T09:49:48Z</time>
      </trkpt>
      <trkpt lat="45.50794" lon="4.67767">
        <ele>311.37</ele>
        <time>2017-03-26T09:49:49Z</time>
      </trkpt>
      <trkpt lat="45.50777" lon="4.67769">
        <ele>310.14</ele>
        <time>2017-03-26T09:49:50Z</time>
      </trkpt>
      <trkpt lat="45.50763" lon="4.6777">
        <ele>309.17</ele>
        <time>2017-03-26T09:49:51Z</time>
      </trkpt>
      <trkpt lat="45.50751" lon="4.67766">
        <ele>308.18</ele>
        <time>2017-03-26T09:49:52Z</time>
      </trkpt>
      <trkpt lat="45.50744" lon="4.67756">
        <ele>307.26</ele>
        <time>2017-03-26T09:49:53Z</time>
      </trkpt>
      <trkpt lat="45.50741" lon="4.67744">
        <ele>306.84</ele>
        <time>2017-03-26T09:49:54Z</time>
      </trkpt>
      <trkpt lat="45.50745" lon="4.67732">
        <ele>306.59</ele>
        <time>2017-03-26T09:49:55Z</time>
      </trkpt>
      <trkpt lat="45.50754" lon="4.67721">
        <ele>306.22</ele>
        <time>2017-03-26T09:49:56Z</time>
      </trkpt>
      <trkpt lat="45.50766" lon="4.67711">
        <ele>305.75</ele>
        <time>2017-03-26T09:49:57Z</time>
      </trkpt>
      <trkpt lat="45.50784" lon="4.67703">
        <ele>305.41</ele>
        <time>2017-03-26T09:49:58Z</time>
      </trkpt>
      <trkpt lat="45.50804" lon="4.67696">
        <ele>305.11</ele>
        <time>2017-03-26T09:49:59Z</time>
      </trkpt>
      <trkpt lat="45.50825" lon="4.67689">
        <ele>304.65</ele>
        <time>2017-03-26T09:50:00Z</time>
      </trkpt>
      <trkpt lat="45.50848" lon="4.67683">
        <ele>303.99</ele>
        <time>2017-03-26T09:50:01Z</time>
      </trkpt>
      <trkpt lat="45.50871" lon="4.67677">
        <ele>303.38</ele>
        <time>2017-03-26T09:50:02Z</time>
      </trkpt>
      <trkpt lat="45.50892" lon="4.6767">
        <ele>303.1</ele>
        <time>2017-03-26T09:50:03Z</time>
      </trkpt>
      <trkpt lat="45.50913" lon="4.67663">
        <ele>303.28</ele>
        <time>2017-03-26T09:50:04Z</time>
      </trkpt>
      <trkpt lat="45.50933" lon="4.67654">
        <ele>303.32</ele>
        <time>2017-03-26T09:50:05Z</time>
      </trkpt>
      <trkpt lat="45.50951" lon="4.67642">
        <ele>303.41</ele>
        <time>2017-03-26T09:50:06Z</time>
      </trkpt>
      <trkpt lat="45.50968" lon="4.67632">
        <ele>303.75</ele>
        <time>2017-03-26T09:50:07Z</time>
      </trkpt>
      <trkpt lat="45.50986" lon="4.67627">
        <ele>303.89</ele>
        <time>2017-03-26T09:50:08Z</time>
      </trkpt>
      <trkpt lat="45.51005" lon="4.67622">
        <ele>304.24</ele>
        <time>2017-03-26T09:50:09Z</time>
      </trkpt>
      <trkpt lat="45.51024" lon="4.67616">
        <ele>304.55</ele>
        <time>2017-03-26T09:50:10Z</time>
      </trkpt>
      <trkpt lat="45.51043" lon="4.67607">
        <ele>305.01</ele>
        <time>2017-03-26T09:50:11Z</time>
      </trkpt>
      <trkpt lat="45.51063" lon="4.67596">
        <ele>305.59</ele>
        <time>2017-03-26T09:50:12Z</time>
      </trkpt>
      <trkpt lat="45.51084" lon="4.67584">
        <ele>306.98</ele>
        <time>2017-03-26T09:50:13Z</time>
      </trkpt>
      <trkpt lat="45.51104" lon="4.67571">
        <ele>308.46</ele>
        <time>2017-03-26T09:50:14Z</time>
      </trkpt>
      <trkpt lat="45.51123" lon="4.67556">
        <ele>309.88</ele>
        <time>2017-03-26T09:50:15Z</time>
      </trkpt>
      <trkpt lat="45.51144" lon="4.67542">
        <ele>311.28</ele>
        <time>2017-03-26T09:50:16Z</time>
      </trkpt>
      <trkpt lat="45.51164" lon="4.67527">
        <ele>312.52</ele>
        <time>2017-03-26T09:50:17Z</time>
      </trkpt>
      <trkpt lat="45.51184" lon="4.67511">
        <ele>313.89</ele>
        <time>2017-03-26T09:50:18Z</time>
      </trkpt>
      <trkpt lat="45.51204" lon="4.67493">
        <ele>315.28</ele>
        <time>2017-03-26T09:50:19Z</time>
      </trkpt>
      <trkpt lat="45.51224" lon="4.67477">
        <ele>316.76</ele>
        <time>2017-03-26T09:50:20Z</time>
      </trkpt>
      <trkpt lat="45.51243" lon="4.67462">
        <ele>317.78</ele>
        <time>2017-03-26T09:50:21Z</time>
      </trkpt>
      <trkpt lat="45.51261" lon="4.67449">
        <ele>318.78</ele>
        <time>2017-03-26T09:50:22Z</time>
      </trkpt>
      <trkpt lat="45.51278" lon="4.67437">
        <ele>319.54</ele>
        <time>2017-03-26T09:50:23Z</time>
      </trkpt>
      <trkpt lat="45.51292" lon="4.67424">
        <ele>320.17</ele>
        <time>2017-03-26T09:50:24Z</time>
      </trkpt>
      <trkpt lat="45.51303" lon="4.67409">
        <ele>320.46</ele>
        <time>2017-03-26T09:50:25Z</time>
      </trkpt>
      <trkpt lat="45.51309" lon="4.67389">
        <ele>320.04</ele>
        <time>2017-03-26T09:50:26Z</time>
      </trkpt>
      <trkpt lat="45.5131" lon="4.67367">
        <ele>319.39</ele>
        <time>2017-03-26T09:50:27Z</time>
      </trkpt>
      <trkpt lat="45.51307" lon="4.67343">
        <ele>318.86</ele>
        <time>2017-03-26T09:50:28Z</time>
      </trkpt>
      <trkpt lat="45.513" lon="4.67319">
        <ele>318.04</ele>
        <time>2017-03-26T09:50:29Z</time>
      </trkpt>
      <trkpt lat="45.5129" lon="4.67294">
        <ele>317.47</ele>
        <time>2017-03-26T09:50:30Z</time>
      </trkpt>
      <trkpt lat="45.51278" lon="4.6727">
        <ele>316.8</ele>
        <time>2017-03-26T09:50:31Z</time>
      </trkpt>
      <trkpt lat="45.51265" lon="4.67245">
        <ele>316.26</ele>
        <time>2017-03-26T09:50:32Z</time>
      </trkpt>
      <trkpt lat="45.51252" lon="4.67221">
        <ele>315.76</ele>
        <time>2017-03-26T09:50:33Z</time>
      </trkpt>
      <trkpt lat="45.51238" lon="4.67199">
        <ele>315.1</ele>
        <time>2017-03-26T09:50:34Z</time>
      </trkpt>
      <trkpt lat="45.51224" lon="4.67179">
        <ele>314.16</ele>
        <time>2017-03-26T09:50:35Z</time>
      </trkpt>
      <trkpt lat="45.51211" lon="4.67159">
        <ele>313.5</ele>
        <time>2017-03-26T09:50:36Z</time>
      </trkpt>
      <trkpt lat="45.51199" lon="4.67138">
        <ele>312.56</ele>
        <time>2017-03-26T09:50:37Z</time>
      </trkpt>
      <trkpt lat="45.51188" lon="4.67114">
        <ele>311.58</ele>
        <time>2017-03-26T09:50:38Z</time>
      </trkpt>
      <trkpt lat="45.51177" lon="4.67091">
        <ele>310.82</ele>
        <time>2017-03-26T09:50:39Z</time>
      </trkpt>
      <trkpt lat="45.51166" lon="4.67069">
        <ele>310.03</ele>
        <time>2017-03-26T09:50:40Z</time>
      </trkpt>
      <trkpt lat="45.51155" lon="4.67049">
        <ele>309.31</ele>
        <time>2017-03-26T09:50:41Z</time>
      </trkpt>
      <trkpt lat="45.51147" lon="4.6703">
        <ele>308.61</ele>
        <time>2017-03-26T09:50:42Z</time>
      </trkpt>
      <trkpt lat="45.5114" lon="4.67013">
        <ele>307.99</ele>
        <time>2017-03-26T09:50:43Z</time>
      </trkpt>
      <trkpt lat="45.51136" lon="4.66998">
        <ele>307.38</ele>
        <time>2017-03-26T09:50:44Z</time>
      </trkpt>
      <trkpt lat="45.51137" lon="4.66985">
        <ele>306.78</ele>
        <time>2017-03-26T09:50:45Z</time>
      </trkpt>
      <trkpt lat="45.51139" lon="4.66974">
        <ele>306.1</ele>
        <time>2017-03-26T09:50:46Z</time>
      </trkpt>
      <trkpt lat="45.51147" lon="4.6697">
        <ele>305.56</ele>
        <time>2017-03-26T09:50:47Z</time>
      </trkpt>
      <trkpt lat="45.51156" lon="4.66973">
        <ele>305.22</ele>
        <time>2017-03-26T09:50:48Z</time>
      </trkpt>
      <trkpt lat="45.51166" lon="4.66981">
        <ele>304.75</ele>
        <time>2017-03-26T09:50:49Z</time>
      </trkpt>
      <trkpt lat="45.51177" lon="4.66992">
        <ele>304.17</ele>
        <time>2017-03-26T09:50:50Z</time>
      </trkpt>
      <trkpt lat="45.5119" lon="4.67004">
        <ele>303.82</ele>
        <time>2017-03-26T09:50:51Z</time>
      </trkpt>
      <trkpt lat="45.51204" lon="4.67019">
        <ele>303.27</ele>
        <time>2017-03-26T09:50:52Z</time>
      </trkpt>
      <trkpt lat="45.51219" lon="4.67033">
        <ele>302.6</ele>
        <time>2017-03-26T09:50:53Z</time>
      </trkpt>
      <trkpt lat="45.51234" lon="4.67046">
        <ele>302.06</ele>
        <time>2017-03-26T09:50:54Z</time>
      </trkpt>
      <trkpt lat="45.5125" lon="4.67056">
        <ele>301.8</ele>
        <time>2017-03-26T09:50:55Z</time>
      </trkpt>
      <trkpt lat="45.51265" lon="4.67063">
        <ele>301.42</ele>
        <time>2017-03-26T09:50:56Z</time>
      </trkpt>
      <trkpt lat="45.51278" lon="4.67063">
        <ele>301.27</ele>
        <time>2017-03-26T09:50:57Z</time>
      </trkpt>
      <trkpt lat="45.51291" lon="4.6706">
        <ele>301.08</ele>
        <time>2017-03-26T09:50:58Z</time>
      </trkpt>
      <trkpt lat="45.51303" lon="4.67056">
        <ele>300.88</ele>
        <time>2017-03-26T09:50:59Z</time>
      </trkpt>
      <trkpt lat="45.51312" lon="4.67059">
        <ele>300.92</ele>
        <time>2017-03-26T09:51:00Z</time>
      </trkpt>
      <trkpt lat="45.51321" lon="4.67067">
        <ele>300.85</ele>
        <time>2017-03-26T09:51:01Z</time>
      </trkpt>
      <trkpt lat="45.51328" lon="4.6708">
        <ele>300.51</ele>
        <time>2017-03-26T09:51:02Z</time>
      </trkpt>
      <trkpt lat="45.51336" lon="4.67095">
        <ele>300.61</ele>
        <time>2017-03-26T09:51:03Z</time>
      </trkpt>
      <trkpt lat="45.51347" lon="4.67111">
        <ele>301.11</ele>
        <time>2017-03-26T09:51:04Z</time>
      </trkpt>
      <trkpt lat="45.51361" lon="4.67123">
        <ele>301.37</ele>
        <time>2017-03-26T09:51:05Z</time>
      </trkpt>
      <trkpt lat="45.51376" lon="4.6713">
        <ele>301.5</ele>
        <time>2017-03-26T09:51:06Z</time>
      </trkpt>
      <trkpt lat="45.51393" lon="4.67132">
        <ele>301.52</ele>
        <time>2017-03-26T09:51:07Z</time>
      </trkpt>
      <trkpt lat="45.51409" lon="4.67136">
        <ele>301.85</ele>
        <time>2017-03-26T09:51:08Z</time>
      </trkpt>
      <trkpt lat="45.51424" lon="4.67145">
        <ele>303.19</ele>
        <time>2017-03-26T09:51:09Z</time>
      </trkpt>
      <trkpt lat="45.51435" lon="4.67161">
        <ele>304.66</ele>
        <time>2017-03-26T09:51:10Z</time>
      </trkpt>
      <trkpt lat="45.51447" lon="4.67179">
        <ele>305.6</ele>
        <time>2017-03-26T09:51:11Z</time>
      </trkpt>
      <trkpt lat="45.51459" lon="4.67196">
        <ele>306.58</ele>
        <time>2017-03-26T09:51:12Z</time>
      </trkpt>
      <trkpt lat="45.51474" lon="4.67209">
        <ele>308.22</ele>
        <time>2017-03-26T09:51:13Z</time>
      </trkpt>
      <trkpt lat="45.51489" lon="4.67218">
        <ele>309.43</ele>
        <time>2017-03-26T09:51:14Z</time>
      </trkpt>
      <trkpt lat="45.51507" lon="4.67222">
        <ele>310.71</ele>
        <time>2017-03-26T09:51:15Z</time>
      </trkpt>
      <trkpt lat="45.51525" lon="4.6722">
        <ele>311.69</ele>
        <time>2017-03-26T09:51:16Z</time>
      </trkpt>
      <trkpt lat="45.51543" lon="4.67211">
        <ele>312.52</ele>
        <time>2017-03-26T09:51:17Z</time>
      </trkpt>
      <trkpt lat="45.5156" lon="4.67197">
        <ele>313.33</ele>
        <time>2017-03-26T09:51:18Z</time>
      </trkpt>
      <trkpt lat="45.51576" lon="4.67178">
        <ele>314.21</ele>
        <time>2017-03-26T09:51:19Z</time>
      </trkpt>
      <trkpt lat="45.51591" lon="4.67155">
        <ele>314.87</ele>
        <time>2017-03-26T09:51:20Z</time>
      </trkpt>
      <trkpt lat="45.51604" lon="4.67131">
        <ele>315.48</ele>
        <time>2017-03-26T09:51:21Z</time>
      </trkpt>
      <trkpt lat="45.51615" lon="4.67105">
        <ele>316.56</ele>
        <time>2017-03-26T09:51:22Z</time>
      </trkpt>
      <trkpt lat="45.51622" lon="4.67078">
        <ele>317.42</ele>
        <time>2017-03-26T09:51:23Z</time>
      </trkpt>
      <trkpt lat="45.51626" lon="4.67048">
        <ele>318.07</ele>
        <time>2017-03-26T09:51:24Z</time>
      </trkpt>
      <trkpt lat="45.51629" lon="4.67016">
        <ele>318.52</ele>
        <time>2017-03-26T09:51:25Z</time>
      </trkpt>
      <trkpt lat="45.5163" lon="4.66986">
        <ele>318.93</ele>
        <time>2017-03-26T09:51:26Z</time>
      </trkpt>
      <trkpt lat="45.51632" lon="4.66958">
        <ele>319.65</ele>
        <time>2017-03-26T09:51:27Z</time>
      </trkpt>
      <trkpt lat="45.51634" lon="4.66934">
        <ele>320.43</ele>
        <time>2017-03-26T09:51:28Z</time>
      </trkpt>
      <trkpt lat="45.51638" lon="4.66915">
        <ele>321.87</ele>
        <time>2017-03-26T09:51:29Z</time>
      </trkpt>
      <trkpt lat="45.51646" lon="4.66903">
        <ele>323.04</ele>
        <time>2017-03-26T09:51:30Z</time>
      </trkpt>
      <trkpt lat="45.51655" lon="4.66899">
        <ele>324.95</ele>
        <time>2017-03-26T09:51:31Z</time>
      </trkpt>
      <trkpt lat="45.51665" lon="4.66902">
        <ele>327.25</ele>
        <time>2017-03-26T09:51:32Z</time>
      </trkpt>
      <trkpt lat="45.51674" lon="4.66913">
        <ele>330.11</ele>
        <time>2017-03-26T09:51:33Z</time>
      </trkpt>
      <trkpt lat="45.51682" lon="4.6693">
        <ele>332.85</ele>
        <time>2017-03-26T09:51:34Z</time>
      </trkpt>
      <trkpt lat="45.51691" lon="4.66949">
        <ele>335.31</ele>
        <time>2017-03-26T09:51:35Z</time>
      </trkpt>
      <trkpt lat="45.51702" lon="4.66969">
        <ele>337.57</ele>
        <time>2017-03-26T09:51:36Z</time>
      </trkpt>
      <trkpt lat="45.51716" lon="4.6699">
        <ele>339.62</ele>
        <time>2017-03-26T09:51:37Z</time>
      </trkpt>
      <trkpt lat="45.5173" lon="4.67009">
        <ele>342.11</ele>
        <time>2017-03-26T09:51:38Z</time>
      </trkpt>
      <trkpt lat="45.51746" lon="4.67026">
        <ele>344.29</ele>
        <time>2017-03-26T09:51:39Z</time>
      </trkpt>
      <trkpt lat="45.51763" lon="4.67039">
        <ele>346.48</ele>
        <time>2017-03-26T09:51:40Z</time>
      </trkpt>
      <trkpt lat="45.51779" lon="4.67048">
        <ele>348.2</ele>
        <time>2017-03-26T09:51:41Z</time>
      </trkpt>
      <trkpt lat="45.51795" lon="4.67052">
        <ele>349.74</ele>
        <time>2017-03-26T09:51:42Z</time>
      </trkpt>
      <trkpt lat="45.51809" lon="4.67051">
        <ele>351.01</ele>
        <time>2017-03-26T09:51:43Z</time>
      </trkpt>
      <trkpt lat="45.51821" lon="4.67043">
        <ele>352.23</ele>
        <time>2017-03-26T09:51:44Z</time>
      </trkpt>
      <trkpt lat="45.51832" lon="4.67029">
        <ele>353.35</ele>
        <time>2017-03-26T09:51:45Z</time>
      </trkpt>
      <trkpt lat="45.51842" lon="4.67012">
        <ele>354.29</ele>
        <time>2017-03-26T09:51:46Z</time>
      </trkpt>
      <trkpt lat="45.5185" lon="4.66993">
        <ele>355.2</ele>
        <time>2017-03-26T09:51:47Z</time>
      </trkpt>
      <trkpt lat="45.51852" lon="4.66968">
        <ele>355.62</ele>
        <time>2017-03-26T09:51:48Z</time>
      </trkpt>
      <trkpt lat="45.51854" lon="4.66943">
        <ele>356.75</ele>
        <time>2017-03-26T09:51:49Z</time>
      </trkpt>
      <trkpt lat="45.51857" lon="4.66918">
        <ele>357.85</ele>
        <time>2017-03-26T09:51:50Z</time>
      </trkpt>
      <trkpt lat="45.5186" lon="4.66891">
        <ele>359.11</ele>
        <time>2017-03-26T09:51:51Z</time>
      </trkpt>
      <trkpt lat="45.51863" lon="4.66864">
        <ele>360.65</ele>
        <time>2017-03-26T09:51:52Z</time>
      </trkpt>
      <trkpt lat="45.51865" lon="4.66838">
        <ele>362.71</ele>
        <time>2017-03-26T09:51:53Z</time>
      </trkpt>
      <trkpt lat="45.51867" lon="4.66813">
        <ele>364.33</ele>
        <time>2017-03-26T09:51:54Z</time>
      </trkpt>
      <trkpt lat="45.5187" lon="4.6679">
        <ele>365.69</ele>
        <time>2017-03-26T09:51:55Z</time>
      </trkpt>
      <trkpt lat="45.51873" lon="4.6677">
        <ele>366.84</ele>
        <time>2017-03-26T09:51:56Z</time>
      </trkpt>
      <trkpt lat="45.51875" lon="4.6675">
        <ele>368.11</ele>
        <time>2017-03-26T09:51:57Z</time>
      </trkpt>
      <trkpt lat="45.51877" lon="4.66733">
        <ele>369.33</ele>
        <time>2017-03-26T09:51:58Z</time>
      </trkpt>
      <trkpt lat="45.5188" lon="4.66716">
        <ele>370.45</ele>
        <time>2017-03-26T09:51:59Z</time>
      </trkpt>
      <trkpt lat="45.51882" lon="4.66699">
        <ele>371.47</ele>
        <time>2017-03-26T09:52:00Z</time>
      </trkpt>
      <trkpt lat="45.51884" lon="4.66682">
        <ele>372.24</ele>
        <time>2017-03-26T09:52:01Z</time>
      </trkpt>
      <trkpt lat="45.51887" lon="4.66666">
        <ele>373.11</ele>
        <time>2017-03-26T09:52:02Z</time>
      </trkpt>
      <trkpt lat="45.51889" lon="4.66651">
        <ele>373.77</ele>
        <time>2017-03-26T09:52:03Z</time>
      </trkpt>
      <trkpt lat="45.51892" lon="4.66639">
        <ele>374.38</ele>
        <time>2017-03-26T09:52:04Z</time>
      </trkpt>
      <trkpt lat="45.51893" lon="4.66632">
        <ele>375.46</ele>
        <time>2017-03-26T09:52:05Z</time>
      </trkpt>
      <trkpt lat="45.51894" lon="4.66627">
        <ele>376.32</ele>
        <time>2017-03-26T09:52:06Z</time>
      </trkpt>
      <trkpt lat="45.51895" lon="4.66626">
        <ele>377.13</ele>
        <time>2017-03-26T09:52:07Z</time>
      </trkpt>
      <trkpt lat="45.51895" lon="4.66625">
        <ele>378.01</ele>
        <time>2017-03-26T09:52:08Z</time>
      </trkpt>
      <trkpt lat="45.51896" lon="4.66626">
        <ele>378.67</ele>
        <time>2017-03-26T09:52:09Z</time>
      </trkpt>
      <trkpt lat="45.51896" lon="4.66626">
        <ele>379.28</ele>
        <time>2017-03-26T09:52:10Z</time>
      </trkpt>
      <trkpt lat="45.51896" lon="4.66626">
        <ele>379.4</ele>
        <time>2017-03-26T09:52:11Z</time>
      </trkpt>
      <trkpt lat="45.51896" lon="4.66626">
        <ele>379.42</ele>
        <time>2017-03-26T09:52:12Z</time>
      </trkpt>
      <trkpt lat="45.51896" lon="4.66626">
        <ele>379.43</ele>
        <time>2017-03-26T09:52:13Z</time>
      </trkpt>
      <trkpt lat="45.51896" lon="4.66626">
        <ele>379.43</ele>
        <time>2017-03-26T09:52:14Z</time>
      </trkpt>
      <trkpt lat="45.51896" lon="4.66626">
        <ele>379.43</ele>
        <time>2017-03-26T09:52:15Z</time>
      </trkpt>
      <trkpt lat="45.51896" lon="4.66626">
        <ele>379.43</ele>
        <time>2017-03-26T09:52:16Z</time>
      </trkpt>
      <trkpt lat="45.51896" lon="4.66626">
        <ele>379.43</ele>
        <time>2017-03-26T09:52:17Z</time>
      </trkpt>
      <trkpt lat="45.51896" lon="4.66626">
        <ele>379.43</ele>
        <time>2017-03-26T09:52:18Z</time>
      </trkpt>
      <trkpt lat="45.51896" lon="4.66626">
        <ele>379.43</ele>
        <time>2017-03-26T09:52:19Z</time>
      </trkpt>
      <trkpt lat="45.51896" lon="4.66626">
        <ele>379.43</ele>
        <time>2017-03-26T09:52:20Z</time>
      </trkpt>
      <trkpt lat="45.51896" lon="4.66626">
        <ele>379.43</ele>
        <time>2017-03-26T09:52:21Z</time>
      </trkpt>
      <trkpt lat="45.51896" lon="4.66626">
        <ele>379.43</ele>
        <time>2017-03-26T09:52:22Z</time>
      </trkpt>
      <trkpt lat="45.51896" lon="4.66626">
        <ele>379.43</ele>
        <time>2017-03-26T09:52:23Z</time>
      </trkpt>
      <trkpt lat="45.51896" lon="4.66626">
        <ele>379.43</ele>
        <time>2017-03-26T09:52:24Z</time>
      </trkpt>
      <trkpt lat="45.51896" lon="4.66626">
        <ele>379.43</ele>
        <time>2017-03-26T09:52:25Z</time>
      </trkpt>
      <trkpt lat="45.51896" lon="4.66626">
        <ele>379.43</ele>
        <time>2017-03-26T09:52:26Z</time>
      </trkpt>
      <trkpt lat="45.51896" lon="4.66626">
        <ele>379.43</ele>
        <time>2017-03-26T09:52:27Z</time>
      </trkpt>
      <trkpt lat="45.51896" lon="4.66626">
        <ele>379.43</ele>
        <time>2017-03-26T09:52:28Z</time>
      </trkpt>
      <trkpt lat="45.51896" lon="4.66626">
        <ele>379.43</ele>
        <time>2017-03-26T09:52:29Z</time>
      </trkpt>
      <trkpt lat="45.51896" lon="4.66618">
        <ele>379.35</ele>
        <time>2017-03-26T09:52:30Z</time>
      </trkpt>
      <trkpt lat="45.51897" lon="4.66608">
        <ele>378.85</ele>
        <time>2017-03-26T09:52:31Z</time>
      </trkpt>
      <trkpt lat="45.51898" lon="4.66595">
        <ele>378.19</ele>
        <time>2017-03-26T09:52:32Z</time>
      </trkpt>
      <trkpt lat="45.519" lon="4.66582">
        <ele>377.5</ele>
        <time>2017-03-26T09:52:33Z</time>
      </trkpt>
      <trkpt lat="45.51903" lon="4.66567">
        <ele>376.88</ele>
        <time>2017-03-26T09:52:34Z</time>
      </trkpt>
      <trkpt lat="45.51906" lon="4.66551">
        <ele>376.36</ele>
        <time>2017-03-26T09:52:35Z</time>
      </trkpt>
      <trkpt lat="45.51911" lon="4.66534">
        <ele>375.86</ele>
        <time>2017-03-26T09:52:36Z</time>
      </trkpt>
      <trkpt lat="45.51917" lon="4.66517">
        <ele>375.68</ele>
        <time>2017-03-26T09:52:37Z</time>
      </trkpt>
      <trkpt lat="45.51923" lon="4.665">
        <ele>375.4</ele>
        <time>2017-03-26T09:52:38Z</time>
      </trkpt>
      <trkpt lat="45.5193" lon="4.66483">
        <ele>375.26</ele>
        <time>2017-03-26T09:52:39Z</time>
      </trkpt>
      <trkpt lat="45.51938" lon="4.66467">
        <ele>375.32</ele>
        <time>2017-03-26T09:52:40Z</time>
      </trkpt>
      <trkpt lat="45.51946" lon="4.66452">
        <ele>375.49</ele>
        <time>2017-03-26T09:52:41Z</time>
      </trkpt>
      <trkpt lat="45.51954" lon="4.66438">
        <ele>375.6</ele>
        <time>2017-03-26T09:52:42Z</time>
      </trkpt>
      <trkpt lat="45.51962" lon="4.66426">
        <ele>375.46</ele>
        <time>2017-03-26T09:52:43Z</time>
      </trkpt>
      <trkpt lat="45.51971" lon="4.66414">
        <ele>375.12</ele>
        <time>2017-03-26T09:52:44Z</time>
      </trkpt>
      <trkpt lat="45.5198" lon="4.66402">
        <ele>374.81</ele>
        <time>2017-03-26T09:52:45Z</time>
      </trkpt>
      <trkpt lat="45.5199" lon="4.6639">
        <ele>374.51</ele>
        <time>2017-03-26T09:52:46Z</time>
      </trkpt>
      <trkpt lat="45.52" lon="4.66377">
        <ele>373.89</ele>
        <time>2017-03-26T09:52:47Z</time>
      </trkpt>
      <trkpt lat="45.52009" lon="4.66366">
        <ele>373.28</ele>
        <time>2017-03-26T09:52:48Z</time>
      </trkpt>
      <trkpt lat="45.52018" lon="4.66354">
        <ele>372.52</ele>
        <time>2017-03-26T09:52:49Z</time>
      </trkpt>
      <trkpt lat="45.52027" lon="4.66343">
        <ele>372.45</ele>
        <time>2017-03-26T09:52:50Z</time>
      </trkpt>
      <trkpt lat="45.52036" lon="4.66333">
        <ele>372.51</ele>
        <time>2017-03-26T09:52:51Z</time>
      </trkpt>
      <trkpt lat="45.52045" lon="4.66324">
        <ele>372.37</ele>
        <time>2017-03-26T09:52:52Z</time>
      </trkpt>
      <trkpt lat="45.52054" lon="4.66317">
        <ele>371.94</ele>
        <time>2017-03-26T09:52:53Z</time>
      </trkpt>
      <trkpt lat="45.52063" lon="4.66311">
        <ele>371.53</ele>
        <time>2017-03-26T09:52:54Z</time>
      </trkpt>
      <trkpt lat="45.52072" lon="4.66306">
        <ele>370.97</ele>
        <time>2017-03-26T09:52:55Z</time>
      </trkpt>
      <trkpt lat="45.52081" lon="4.66301">
        <ele>370.46</ele>
        <time>2017-03-26T09:52:56Z</time>
      </trkpt>
      <trkpt lat="45.5209" lon="4.66295">
        <ele>370.04</ele>
        <time>2017-03-26T09:52:57Z</time>
      </trkpt>
      <trkpt lat="45.521" lon="4.66289">
        <ele>369.63</ele>
        <time>2017-03-26T09:52:58Z</time>
      </trkpt>
      <trkpt lat="45.52109" lon="4.66283">
        <ele>369.31</ele>
        <time>2017-03-26T09:52:59Z</time>
      </trkpt>
      <trkpt lat="45.52119" lon="4.66277">
        <ele>369.01</ele>
        <time>2017-03-26T09:53:00Z</time>
      </trkpt>
      <trkpt lat="45.52129" lon="4.6627">
        <ele>368.71</ele>
        <time>2017-03-26T09:53:01Z</time>
      </trkpt>
      <trkpt lat="45.52139" lon="4.66263">
        <ele>368.57</ele>
        <time>2017-03-26T09:53:02Z</time>
      </trkpt>
      <trkpt lat="45.52149" lon="4.66254">
        <ele>368.46</ele>
        <time>2017-03-26T09:53:03Z</time>
      </trkpt>
      <trkpt lat="45.5216" lon="4.66245">
        <ele>368.28</ele>
        <time>2017-03-26T09:53:04Z</time>
      </trkpt>
      <trkpt lat="45.52171" lon="4.66235">
        <ele>368.24</ele>
        <time>2017-03-26T09:53:05Z</time>
      </trkpt>
      <trkpt lat="45.52183" lon="4.66222">
        <ele>368.23</ele>
        <time>2017-03-26T09:53:06Z</time>
      </trkpt>
      <trkpt lat="45.52195" lon="4.66208">
        <ele>368.07</ele>
        <time>2017-03-26T09:53:07Z</time>
      </trkpt>
      <trkpt lat="45.52207" lon="4.66193">
        <ele>367.8</ele>
        <time>2017-03-26T09:53:08Z</time>
      </trkpt>
      <trkpt lat="45.52219" lon="4.66178">
        <ele>367.34</ele>
        <time>2017-03-26T09:53:09Z</time>
      </trkpt>
      <trkpt lat="45.5223" lon="4.66162">
        <ele>367.17</ele>
        <time>2017-03-26T09:53:10Z</time>
      </trkpt>
      <trkpt lat="45.52241" lon="4.66146">
        <ele>366.34</ele>
        <time>2017-03-26T09:53:11Z</time>
      </trkpt>
      <trkpt lat="45.52252" lon="4.66132">
        <ele>366.01</ele>
        <time>2017-03-26T09:53:12Z</time>
      </trkpt>
      <trkpt lat="45.52263" lon="4.66118">
        <ele>365.63</ele>
        <time>2017-03-26T09:53:13Z</time>
      </trkpt>
      <trkpt lat="45.52273" lon="4.66104">
        <ele>365.39</ele>
        <time>2017-03-26T09:53:14Z</time>
      </trkpt>
      <trkpt lat="45.52283" lon="4.66089">
        <ele>365.18</ele>
        <time>2017-03-26T09:53:15Z</time>
      </trkpt>
      <trkpt lat="45.52291" lon="4.66072">
        <ele>364.58</ele>
        <time>2017-03-26T09:53:16Z</time>
      </trkpt>
      <trkpt lat="45.52296" lon="4.66052">
        <ele>363.98</ele>
        <time>2017-03-26T09:53:17Z</time>
      </trkpt>
      <trkpt lat="45.523" lon="4.66031">
        <ele>363.54</ele>
        <time>2017-03-26T09:53:18Z</time>
      </trkpt>
      <trkpt lat="45.52303" lon="4.66008">
        <ele>362.89</ele>
        <time>2017-03-26T09:53:19Z</time>
      </trkpt>
      <trkpt lat="45.52304" lon="4.65984">
        <ele>362.28</ele>
        <time>2017-03-26T09:53:20Z</time>
      </trkpt>
      <trkpt lat="45.52303" lon="4.6596">
        <ele>361.52</ele>
        <time>2017-03-26T09:53:21Z</time>
      </trkpt>
      <trkpt lat="45.52302" lon="4.65936">
        <ele>360.65</ele>
        <time>2017-03-26T09:53:22Z</time>
      </trkpt>
      <trkpt lat="45.523" lon="4.65913">
        <ele>359.75</ele>
        <time>2017-03-26T09:53:23Z</time>
      </trkpt>
      <trkpt lat="45.52296" lon="4.65891">
        <ele>358.93</ele>
        <time>2017-03-26T09:53:24Z</time>
      </trkpt>
      <trkpt lat="45.5229" lon="4.65868">
        <ele>358.13</ele>
        <time>2017-03-26T09:53:25Z</time>
      </trkpt>
      <trkpt lat="45.52283" lon="4.65845">
        <ele>357.49</ele>
        <time>2017-03-26T09:53:26Z</time>
      </trkpt>
      <trkpt lat="45.52275" lon="4.65822">
        <ele>356.64</ele>
        <time>2017-03-26T09:53:27Z</time>
      </trkpt>
      <trkpt lat="45.52266" lon="4.65799">
        <ele>355.99</ele>
        <time>2017-03-26T09:53:28Z</time>
      </trkpt>
      <trkpt lat="45.52256" lon="4.65777">
        <ele>355.22</ele>
        <time>2017-03-26T09:53:29Z</time>
      </trkpt>
      <trkpt lat="45.52245" lon="4.65757">
        <ele>354.59</ele>
        <time>2017-03-26T09:53:30Z</time>
      </trkpt>
      <trkpt lat="45.52232" lon="4.65737">
        <ele>354.14</ele>
        <time>2017-03-26T09:53:31Z</time>
      </trkpt>
      <trkpt lat="45.52219" lon="4.65719">
        <ele>353.73</ele>
        <time>2017-03-26T09:53:32Z</time>
      </trkpt>
      <trkpt lat="45.52205" lon="4.65702">
        <ele>353.25</ele>
        <time>2017-03-26T09:53:33Z</time>
      </trkpt>
      <trkpt lat="45.5219" lon="4.65687">
        <ele>352.27</ele>
        <time>2017-03-26T09:53:34Z</time>
      </trkpt>
      <trkpt lat="45.52174" lon="4.65674">
        <ele>350.96</ele>
        <time>2017-03-26T09:53:35Z</time>
      </trkpt>
      <trkpt lat="45.52157" lon="4.65664">
        <ele>349.9</ele>
        <time>2017-03-26T09:53:36Z</time>
      </trkpt>
      <trkpt lat="45.5214" lon="4.65654">
        <ele>348.64</ele>
        <time>2017-03-26T09:53:37Z</time>
      </trkpt>
      <trkpt lat="45.52124" lon="4.65642">
        <ele>347.43</ele>
        <time>2017-03-26T09:53:38Z</time>
      </trkpt>
      <trkpt lat="45.52111" lon="4.65625">
        <ele>346.63</ele>
        <time>2017-03-26T09:53:39Z</time>
      </trkpt>
      <trkpt lat="45.52099" lon="4.65606">
        <ele>345.91</ele>
        <time>2017-03-26T09:53:40Z</time>
      </trkpt>
      <trkpt lat="45.52087" lon="4.65586">
        <ele>345.13</ele>
        <time>2017-03-26T09:53:41Z</time>
      </trkpt>
      <trkpt lat="45.52075" lon="4.65565">
        <ele>344.25</ele>
        <time>2017-03-26T09:53:42Z</time>
      </trkpt>
      <trkpt lat="45.52062" lon="4.65547">
        <ele>343.35</ele>
        <time>2017-03-26T09:53:43Z</time>
      </trkpt>
      <trkpt lat="45.52048" lon="4.65531">
        <ele>342.61</ele>
        <time>2017-03-26T09:53:44Z</time>
      </trkpt>
      <trkpt lat="45.52034" lon="4.65519">
        <ele>342.31</ele>
        <time>2017-03-26T09:53:45Z</time>
      </trkpt>
      <trkpt lat="45.52019" lon="4.65511">
        <ele>342.17</ele>
        <time>2017-03-26T09:53:46Z</time>
      </trkpt>
      <trkpt lat="45.52006" lon="4.65503">
        <ele>341.98</ele>
        <time>2017-03-26T09:53:47Z</time>
      </trkpt>
      <trkpt lat="45.51993" lon="4.65493">
        <ele>341.62</ele>
        <time>2017-03-26T09:53:48Z</time>
      </trkpt>
      <trkpt lat="45.51985" lon="4.6548">
        <ele>341.23</ele>
        <time>2017-03-26T09:53:49Z</time>
      </trkpt>
      <trkpt lat="45.51981" lon="4.65466">
        <ele>341.31</ele>
        <time>2017-03-26T09:53:50Z</time>
      </trkpt>
      <trkpt lat="45.51982" lon="4.65453">
        <ele>341.33</ele>
        <time>2017-03-26T09:53:51Z</time>
      </trkpt>
      <trkpt lat="45.51986" lon="4.65439">
        <ele>341.33</ele>
        <time>2017-03-26T09:53:52Z</time>
      </trkpt>
      <trkpt lat="45.51993" lon="4.65426">
        <ele>341.73</ele>
        <time>2017-03-26T09:53:53Z</time>
      </trkpt>
      <trkpt lat="45.52002" lon="4.65414">
        <ele>342.45</ele>
        <time>2017-03-26T09:53:54Z</time>
      </trkpt>
      <trkpt lat="45.52023" lon="4.65407">
        <ele>342.59</ele>
        <time>2017-03-26T09:53:55Z</time>
      </trkpt>
      <trkpt lat="45.52041" lon="4.65396">
        <ele>342.3</ele>
        <time>2017-03-26T09:53:56Z</time>
      </trkpt>
      <trkpt lat="45.5206" lon="4.65385">
        <ele>341.92</ele>
        <time>2017-03-26T09:53:57Z</time>
      </trkpt>
      <trkpt lat="45.5208" lon="4.65373">
        <ele>341.37</ele>
        <time>2017-03-26T09:53:58Z</time>
      </trkpt>
      <trkpt lat="45.521" lon="4.65361">
        <ele>341.02</ele>
        <time>2017-03-26T09:53:59Z</time>
      </trkpt>
      <trkpt lat="45.5212" lon="4.65349">
        <ele>340.87</ele>
        <time>2017-03-26T09:54:00Z</time>
      </trkpt>
      <trkpt lat="45.52139" lon="4.65336">
        <ele>340.84</ele>
        <time>2017-03-26T09:54:01Z</time>
      </trkpt>
      <trkpt lat="45.52156" lon="4.65323">
        <ele>340.75</ele>
        <time>2017-03-26T09:54:02Z</time>
      </trkpt>
      <trkpt lat="45.52173" lon="4.6531">
        <ele>340.89</ele>
        <time>2017-03-26T09:54:03Z</time>
      </trkpt>
      <trkpt lat="45.52187" lon="4.65296">
        <ele>340.84</ele>
        <time>2017-03-26T09:54:04Z</time>
      </trkpt>
      <trkpt lat="45.52198" lon="4.65279">
        <ele>340.83</ele>
        <time>2017-03-26T09:54:05Z</time>
      </trkpt>
      <trkpt lat="45.52206" lon="4.65258">
        <ele>340.67</ele>
        <time>2017-03-26T09:54:06Z</time>
      </trkpt>
      <trkpt lat="45.52212" lon="4.65237">
        <ele>340.48</ele>
        <time>2017-03-26T09:54:07Z</time>
      </trkpt>
      <trkpt lat="45.52215" lon="4.65213">
        <ele>339.8</ele>
        <time>2017-03-26T09:54:08Z</time>
      </trkpt>
      <trkpt lat="45.52217" lon="4.65188">
        <ele>338.3</ele>
        <time>2017-03-26T09:54:09Z</time>
      </trkpt>
      <trkpt lat="45.52219" lon="4.65163">
        <ele>337.04</ele>
        <time>2017-03-26T09:54:10Z</time>
      </trkpt>
      <trkpt lat="45.52221" lon="4.65138">
        <ele>335.99</ele>
        <time>2017-03-26T09:54:11Z</time>
      </trkpt>
      <trkpt lat="45.52223" lon="4.65112">
        <ele>335.14</ele>
        <time>2017-03-26T09:54:12Z</time>
      </trkpt>
      <trkpt lat="45.52225" lon="4.65086">
        <ele>334.17</ele>
        <time>2017-03-26T09:54:13Z</time>
      </trkpt>
      <trkpt lat="45.52227" lon="4.65061">
        <ele>333.26</ele>
        <time>2017-03-26T09:54:14Z</time>
      </trkpt>
      <trkpt lat="45.52229" lon="4.65035">
        <ele>332.6</ele>
        <time>2017-03-26T09:54:15Z</time>
      </trkpt>
      <trkpt lat="45.5223" lon="4.65008">
        <ele>331.9</ele>
        <time>2017-03-26T09:54:16Z</time>
      </trkpt>
      <trkpt lat="45.52231" lon="4.64981">
        <ele>331.28</ele>
        <time>2017-03-26T09:54:17Z</time>
      </trkpt>
      <trkpt lat="45.52231" lon="4.64955">
        <ele>330.6</ele>
        <time>2017-03-26T09:54:18Z</time>
      </trkpt>
      <trkpt lat="45.5223" lon="4.64928">
        <ele>329.9</ele>
        <time>2017-03-26T09:54:19Z</time>
      </trkpt>
      <trkpt lat="45.52231" lon="4.64902">
        <ele>329.12</ele>
        <time>2017-03-26T09:54:20Z</time>
      </trkpt>
      <trkpt lat="45.52234" lon="4.64874">
        <ele>328.89</ele>
        <time>2017-03-26T09:54:21Z</time>
      </trkpt>
      <trkpt lat="45.5224" lon="4.64847">
        <ele>329.24</ele>
        <time>2017-03-26T09:54:22Z</time>
      </trkpt>
      <trkpt lat="45.52248" lon="4.64819">
        <ele>329.23</ele>
        <time>2017-03-26T09:54:23Z</time>
      </trkpt>
      <trkpt lat="45.52255" lon="4.64791">
        <ele>328.59</ele>
        <time>2017-03-26T09:54:24Z</time>
      </trkpt>
      <trkpt lat="45.52261" lon="4.64762">
        <ele>327.42</ele>
        <time>2017-03-26T09:54:25Z</time>
      </trkpt>
      <trkpt lat="45.52266" lon="4.64734">
        <ele>326.47</ele>
        <time>2017-03-26T09:54:26Z</time>
      </trkpt>
      <trkpt lat="45.52271" lon="4.64707">
        <ele>325.72</ele>
        <time>2017-03-26T09:54:27Z</time>
      </trkpt>
      <trkpt lat="45.52276" lon="4.64679">
        <ele>325.17</ele>
        <time>2017-03-26T09:54:28Z</time>
      </trkpt>
      <trkpt lat="45.52281" lon="4.64652">
        <ele>324.66</ele>
        <time>2017-03-26T09:54:29Z</time>
      </trkpt>
      <trkpt lat="45.52286" lon="4.64625">
        <ele>324.32</ele>
        <time>2017-03-26T09:54:30Z</time>
      </trkpt>
      <trkpt lat="45.52293" lon="4.64599">
        <ele>323.93</ele>
        <time>2017-03-26T09:54:31Z</time>
      </trkpt>
      <trkpt lat="45.523" lon="4.64573">
        <ele>323.69</ele>
        <time>2017-03-26T09:54:32Z</time>
      </trkpt>
      <trkpt lat="45.52309" lon="4.64549">
        <ele>323.8</ele>
        <time>2017-03-26T09:54:33Z</time>
      </trkpt>
      <trkpt lat="45.52317" lon="4.64526">
        <ele>323.82</ele>
        <time>2017-03-26T09:54:34Z</time>
      </trkpt>
      <trkpt lat="45.52326" lon="4.64504">
        <ele>323.51</ele>
        <time>2017-03-26T09:54:35Z</time>
      </trkpt>
      <trkpt lat="45.52335" lon="4.64484">
        <ele>323.13</ele>
        <time>2017-03-26T09:54:36Z</time>
      </trkpt>
      <trkpt lat="45.52345" lon="4.64466">
        <ele>323.13</ele>
        <time>2017-03-26T09:54:37Z</time>
      </trkpt>
      <trkpt lat="45.52354" lon="4.64448">
        <ele>322.89</ele>
        <time>2017-03-26T09:54:38Z</time>
      </trkpt>
      <trkpt lat="45.52362" lon="4.64429">
        <ele>322.6</ele>
        <time>2017-03-26T09:54:39Z</time>
      </trkpt>
      <trkpt lat="45.52368" lon="4.64411">
        <ele>321.98</ele>
        <time>2017-03-26T09:54:40Z</time>
      </trkpt>
      <trkpt lat="45.52372" lon="4.64391">
        <ele>321.38</ele>
        <time>2017-03-26T09:54:41Z</time>
      </trkpt>
      <trkpt lat="45.52375" lon="4.64371">
        <ele>320.46</ele>
        <time>2017-03-26T09:54:42Z</time>
      </trkpt>
      <trkpt lat="45.52378" lon="4.6435">
        <ele>319.4</ele>
        <time>2017-03-26T09:54:43Z</time>
      </trkpt>
      <trkpt lat="45.52381" lon="4.64329">
        <ele>318.46</ele>
        <time>2017-03-26T09:54:44Z</time>
      </trkpt>
      <trkpt lat="45.52383" lon="4.64307">
        <ele>317.56</ele>
        <time>2017-03-26T09:54:45Z</time>
      </trkpt>
      <trkpt lat="45.52385" lon="4.64286">
        <ele>316.66</ele>
        <time>2017-03-26T09:54:46Z</time>
      </trkpt>
      <trkpt lat="45.52386" lon="4.64265">
        <ele>315.52</ele>
        <time>2017-03-26T09:54:47Z</time>
      </trkpt>
      <trkpt lat="45.52387" lon="4.64245">
        <ele>314.17</ele>
        <time>2017-03-26T09:54:48Z</time>
      </trkpt>
      <trkpt lat="45.52389" lon="4.64226">
        <ele>312.86</ele>
        <time>2017-03-26T09:54:49Z</time>
      </trkpt>
      <trkpt lat="45.5239" lon="4.64207">
        <ele>311.4</ele>
        <time>2017-03-26T09:54:50Z</time>
      </trkpt>
      <trkpt lat="45.52393" lon="4.64187">
        <ele>309.9</ele>
        <time>2017-03-26T09:54:51Z</time>
      </trkpt>
      <trkpt lat="45.52396" lon="4.64168">
        <ele>308.88</ele>
        <time>2017-03-26T09:54:52Z</time>
      </trkpt>
      <trkpt lat="45.52399" lon="4.64149">
        <ele>307.96</ele>
        <time>2017-03-26T09:54:53Z</time>
      </trkpt>
      <trkpt lat="45.52403" lon="4.64131">
        <ele>306.98</ele>
        <time>2017-03-26T09:54:54Z</time>
      </trkpt>
      <trkpt lat="45.52406" lon="4.64114">
        <ele>306.46</ele>
        <time>2017-03-26T09:54:55Z</time>
      </trkpt>
      <trkpt lat="45.52409" lon="4.641">
        <ele>305.88</ele>
        <time>2017-03-26T09:54:56Z</time>
      </trkpt>
      <trkpt lat="45.52413" lon="4.64088">
        <ele>305.92</ele>
        <time>2017-03-26T09:54:57Z</time>
      </trkpt>
      <trkpt lat="45.52417" lon="4.64079">
        <ele>305.93</ele>
        <time>2017-03-26T09:54:58Z</time>
      </trkpt>
      <trkpt lat="45.5242" lon="4.64073">
        <ele>306.17</ele>
        <time>2017-03-26T09:54:59Z</time>
      </trkpt>
      <trkpt lat="45.52424" lon="4.64068">
        <ele>306.3</ele>
        <time>2017-03-26T09:55:00Z</time>
      </trkpt>
      <trkpt lat="45.52427" lon="4.64064">
        <ele>306.16</ele>
        <time>2017-03-26T09:55:01Z</time>
      </trkpt>
      <trkpt lat="45.52431" lon="4.6406">
        <ele>305.98</ele>
        <time>2017-03-26T09:55:02Z</time>
      </trkpt>
      <trkpt lat="45.52435" lon="4.64055">
        <ele>305.62</ele>
        <time>2017-03-26T09:55:03Z</time>
      </trkpt>
      <trkpt lat="45.52439" lon="4.64051">
        <ele>304.59</ele>
        <time>2017-03-26T09:55:04Z</time>
      </trkpt>
      <trkpt lat="45.52445" lon="4.64046">
        <ele>303.98</ele>
        <time>2017-03-26T09:55:05Z</time>
      </trkpt>
      <trkpt lat="45.52451" lon="4.64042">
        <ele>303.62</ele>
        <time>2017-03-26T09:55:06Z</time>
      </trkpt>
      <trkpt lat="45.52459" lon="4.6404">
        <ele>303.39</ele>
        <time>2017-03-26T09:55:07Z</time>
      </trkpt>
      <trkpt lat="45.52467" lon="4.6404">
        <ele>303.18</ele>
        <time>2017-03-26T09:55:08Z</time>
      </trkpt>
      <trkpt lat="45.52476" lon="4.6404">
        <ele>302.58</ele>
        <time>2017-03-26T09:55:09Z</time>
      </trkpt>
      <trkpt lat="45.52483" lon="4.64041">
        <ele>302.06</ele>
        <time>2017-03-26T09:55:10Z</time>
      </trkpt>
      <trkpt lat="45.52489" lon="4.64042">
        <ele>301.48</ele>
        <time>2017-03-26T09:55:11Z</time>
      </trkpt>
      <trkpt lat="45.52493" lon="4.64043">
        <ele>300.96</ele>
        <time>2017-03-26T09:55:12Z</time>
      </trkpt>
      <trkpt lat="45.52494" lon="4.64044">
        <ele>300.62</ele>
        <time>2017-03-26T09:55:13Z</time>
      </trkpt>
      <trkpt lat="45.52495" lon="4.64044">
        <ele>300.07</ele>
        <time>2017-03-26T09:55:14Z</time>
      </trkpt>
      <trkpt lat="45.52495" lon="4.64045">
        <ele>299.88</ele>
        <time>2017-03-26T09:55:15Z</time>
      </trkpt>
      <trkpt lat="45.52494" lon="4.64045">
        <ele>299.52</ele>
        <time>2017-03-26T09:55:16Z</time>
      </trkpt>
      <trkpt lat="45.52494" lon="4.64045">
        <ele>299.45</ele>
        <time>2017-03-26T09:55:17Z</time>
      </trkpt>
      <trkpt lat="45.52494" lon="4.64045">
        <ele>299.43</ele>
        <time>2017-03-26T09:55:18Z</time>
      </trkpt>
      <trkpt lat="45.52494" lon="4.64045">
        <ele>299.43</ele>
        <time>2017-03-26T09:55:19Z</time>
      </trkpt>
      <trkpt lat="45.52494" lon="4.64045">
        <ele>299.43</ele>
        <time>2017-03-26T09:55:20Z</time>
      </trkpt>
      <trkpt lat="45.52494" lon="4.64045">
        <ele>299.43</ele>
        <time>2017-03-26T09:55:21Z</time>
      </trkpt>
      <trkpt lat="45.52494" lon="4.64045">
        <ele>299.43</ele>
        <time>2017-03-26T09:55:22Z</time>
      </trkpt>
      <trkpt lat="45.52494" lon="4.64045">
        <ele>299.43</ele>
        <time>2017-03-26T09:55:23Z</time>
      </trkpt>
      <trkpt lat="45.52494" lon="4.64045">
        <ele>299.43</ele>
        <time>2017-03-26T09:55:24Z</time>
      </trkpt>
      <trkpt lat="45.52494" lon="4.64045">
        <ele>299.43</ele>
        <time>2017-03-26T09:55:25Z</time>
      </trkpt>
      <trkpt lat="45.52494" lon="4.64045">
        <ele>299.43</ele>
        <time>2017-03-26T09:55:26Z</time>
      </trkpt>
      <trkpt lat="45.52494" lon="4.64045">
        <ele>299.43</ele>
        <time>2017-03-26T09:55:27Z</time>
      </trkpt>
      <trkpt lat="45.52494" lon="4.64045">
        <ele>299.43</ele>
        <time>2017-03-26T09:55:28Z</time>
      </trkpt>
      <trkpt lat="45.52494" lon="4.64045">
        <ele>299.43</ele>
        <time>2017-03-26T09:55:29Z</time>
      </trkpt>
      <trkpt lat="45.52494" lon="4.64045">
        <ele>299.43</ele>
        <time>2017-03-26T09:55:30Z</time>
      </trkpt>
      <trkpt lat="45.52494" lon="4.64045">
        <ele>299.43</ele>
        <time>2017-03-26T09:55:31Z</time>
      </trkpt>
      <trkpt lat="45.52494" lon="4.64045">
        <ele>299.43</ele>
        <time>2017-03-26T09:55:32Z</time>
      </trkpt>
      <trkpt lat="45.52494" lon="4.64045">
        <ele>299.43</ele>
        <time>2017-03-26T09:55:33Z</time>
      </trkpt>
      <trkpt lat="45.52494" lon="4.64045">
        <ele>299.43</ele>
        <time>2017-03-26T09:55:34Z</time>
      </trkpt>
      <trkpt lat="45.52494" lon="4.64045">
        <ele>299.43</ele>
        <time>2017-03-26T09:55:35Z</time>
      </trkpt>
      <trkpt lat="45.52494" lon="4.64045">
        <ele>299.43</ele>
        <time>2017-03-26T09:55:36Z</time>
      </trkpt>
      <trkpt lat="45.52494" lon="4.64045">
        <ele>299.43</ele>
        <time>2017-03-26T09:55:37Z</time>
      </trkpt>
      <trkpt lat="45.52494" lon="4.64045">
        <ele>299.43</ele>
        <time>2017-03-26T09:55:38Z</time>
      </trkpt>
      <trkpt lat="45.52494" lon="4.64045">
        <ele>299.43</ele>
        <time>2017-03-26T09:55:39Z</time>
      </trkpt>
      <trkpt lat="45.52494" lon="4.64045">
        <ele>299.43</ele>
        <time>2017-03-26T09:55:40Z</time>
      </trkpt>
      <trkpt lat="45.52494" lon="4.64045">
        <ele>299.43</ele>
        <time>2017-03-26T09:55:41Z</time>
      </trkpt>
      <trkpt lat="45.52494" lon="4.64045">
        <ele>299.43</ele>
        <time>2017-03-26T09:55:42Z</time>
      </trkpt>
      <trkpt lat="45.52494" lon="4.64045">
        <ele>299.43</ele>
        <time>2017-03-26T09:55:43Z</time>
      </trkpt>
      <trkpt lat="45.52494" lon="4.64045">
        <ele>299.43</ele>
        <time>2017-03-26T09:55:44Z</time>
      </trkpt>
      <trkpt lat="45.52494" lon="4.64045">
        <ele>299.43</ele>
        <time>2017-03-26T09:55:45Z</time>
      </trkpt>
      <trkpt lat="45.52494" lon="4.64045">
        <ele>299.43</ele>
        <time>2017-03-26T09:55:46Z</time>
      </trkpt>
      <trkpt lat="45.52495" lon="4.64041">
        <ele>298.87</ele>
        <time>2017-03-26T09:55:47Z</time>
      </trkpt>
      <trkpt lat="45.52493" lon="4.6404">
        <ele>298.68</ele>
        <time>2017-03-26T09:55:48Z</time>
      </trkpt>
      <trkpt lat="45.5249" lon="4.6404">
        <ele>298.64</ele>
        <time>2017-03-26T09:55:49Z</time>
      </trkpt>
      <trkpt lat="45.52485" lon="4.64041">
        <ele>298.55</ele>
        <time>2017-03-26T09:55:50Z</time>
      </trkpt>
      <trkpt lat="45.5248" lon="4.64042">
        <ele>298.45</ele>
        <time>2017-03-26T09:55:51Z</time>
      </trkpt>
      <trkpt lat="45.52473" lon="4.64042">
        <ele>298.35</ele>
        <time>2017-03-26T09:55:52Z</time>
      </trkpt>
      <trkpt lat="45.52466" lon="4.64043">
        <ele>298.33</ele>
        <time>2017-03-26T09:55:53Z</time>
      </trkpt>
      <trkpt lat="45.52458" lon="4.64044">
        <ele>298.33</ele>
        <time>2017-03-26T09:55:54Z</time>
      </trkpt>
      <trkpt lat="45.5245" lon="4.64045">
        <ele>298.33</ele>
        <time>2017-03-26T09:55:55Z</time>
      </trkpt>
      <trkpt lat="45.52443" lon="4.64048">
        <ele>298.33</ele>
        <time>2017-03-26T09:55:56Z</time>
      </trkpt>
      <trkpt lat="45.52435" lon="4.64052">
        <ele>298.49</ele>
        <time>2017-03-26T09:55:57Z</time>
      </trkpt>
      <trkpt lat="45.52428" lon="4.64057">
        <ele>298.6</ele>
        <time>2017-03-26T09:55:58Z</time>
      </trkpt>
      <trkpt lat="45.52422" lon="4.64064">
        <ele>298.94</ele>
        <time>2017-03-26T09:55:59Z</time>
      </trkpt>
      <trkpt lat="45.52418" lon="4.6407">
        <ele>299.25</ele>
        <time>2017-03-26T09:56:00Z</time>
      </trkpt>
      <trkpt lat="45.52413" lon="4.64074">
        <ele>299.39</ele>
        <time>2017-03-26T09:56:01Z</time>
      </trkpt>
      <trkpt lat="45.52409" lon="4.64076">
        <ele>299.5</ele>
        <time>2017-03-26T09:56:02Z</time>
      </trkpt>
      <trkpt lat="45.52404" lon="4.64077">
        <ele>299.68</ele>
        <time>2017-03-26T09:56:03Z</time>
      </trkpt>
      <trkpt lat="45.52402" lon="4.64077">
        <ele>299.8</ele>
        <time>2017-03-26T09:56:04Z</time>
      </trkpt>
      <trkpt lat="45.524" lon="4.64078">
        <ele>299.98</ele>
        <time>2017-03-26T09:56:05Z</time>
      </trkpt>
      <trkpt lat="45.52399" lon="4.64078">
        <ele>300.18</ele>
        <time>2017-03-26T09:56:06Z</time>
      </trkpt>
      <trkpt lat="45.524" lon="4.64078">
        <ele>300.46</ele>
        <time>2017-03-26T09:56:07Z</time>
      </trkpt>
      <trkpt lat="45.524" lon="4.64078">
        <ele>300.6</ele>
        <time>2017-03-26T09:56:08Z</time>
      </trkpt>
      <trkpt lat="45.524" lon="4.64078">
        <ele>300.62</ele>
        <time>2017-03-26T09:56:09Z</time>
      </trkpt>
      <trkpt lat="45.524" lon="4.64078">
        <ele>300.63</ele>
        <time>2017-03-26T09:56:10Z</time>
      </trkpt>
      <trkpt lat="45.524" lon="4.64078">
        <ele>300.63</ele>
        <time>2017-03-26T09:56:11Z</time>
      </trkpt>
      <trkpt lat="45.524" lon="4.64078">
        <ele>300.63</ele>
        <time>2017-03-26T09:56:12Z</time>
      </trkpt>
      <trkpt lat="45.524" lon="4.64078">
        <ele>300.63</ele>
        <time>2017-03-26T09:56:13Z</time>
      </trkpt>
      <trkpt lat="45.52397" lon="4.64077">
        <ele>301.19</ele>
        <time>2017-03-26T09:56:14Z</time>
      </trkpt>
      <trkpt lat="45.52393" lon="4.64077">
        <ele>301.46</ele>
        <time>2017-03-26T09:56:15Z</time>
      </trkpt>
      <trkpt lat="45.52386" lon="4.64077">
        <ele>302</ele>
        <time>2017-03-26T09:56:16Z</time>
      </trkpt>
      <trkpt lat="45.52377" lon="4.64077">
        <ele>302.58</ele>
        <time>2017-03-26T09:56:17Z</time>
      </trkpt>
      <trkpt lat="45.52367" lon="4.64077">
        <ele>303.02</ele>
        <time>2017-03-26T09:56:18Z</time>
      </trkpt>
      <trkpt lat="45.52355" lon="4.64078">
        <ele>303.43</ele>
        <time>2017-03-26T09:56:19Z</time>
      </trkpt>
      <trkpt lat="45.52341" lon="4.64078">
        <ele>303.99</ele>
        <time>2017-03-26T09:56:20Z</time>
      </trkpt>
      <trkpt lat="45.52328" lon="4.64078">
        <ele>304.74</ele>
        <time>2017-03-26T09:56:21Z</time>
      </trkpt>
      <trkpt lat="45.52315" lon="4.6408">
        <ele>305.61</ele>
        <time>2017-03-26T09:56:22Z</time>
      </trkpt>
      <trkpt lat="45.52301" lon="4.64082">
        <ele>306.19</ele>
        <time>2017-03-26T09:56:23Z</time>
      </trkpt>
      <trkpt lat="45.52286" lon="4.64085">
        <ele>306.62</ele>
        <time>2017-03-26T09:56:24Z</time>
      </trkpt>
      <trkpt lat="45.52271" lon="4.64088">
        <ele>306.79</ele>
        <time>2017-03-26T09:56:25Z</time>
      </trkpt>
      <trkpt lat="45.52256" lon="4.64091">
        <ele>307.3</ele>
        <time>2017-03-26T09:56:26Z</time>
      </trkpt>
      <trkpt lat="45.52241" lon="4.64096">
        <ele>307.64</ele>
        <time>2017-03-26T09:56:27Z</time>
      </trkpt>
      <trkpt lat="45.52226" lon="4.64102">
        <ele>308.11</ele>
        <time>2017-03-26T09:56:28Z</time>
      </trkpt>
      <trkpt lat="45.52211" lon="4.64109">
        <ele>308.45</ele>
        <time>2017-03-26T09:56:29Z</time>
      </trkpt>
      <trkpt lat="45.52196" lon="4.64116">
        <ele>309.07</ele>
        <time>2017-03-26T09:56:30Z</time>
      </trkpt>
      <trkpt lat="45.52181" lon="4.64124">
        <ele>309.6</ele>
        <time>2017-03-26T09:56:31Z</time>
      </trkpt>
      <trkpt lat="45.52166" lon="4.64131">
        <ele>309.78</ele>
        <time>2017-03-26T09:56:32Z</time>
      </trkpt>
      <trkpt lat="45.52151" lon="4.64138">
        <ele>309.74</ele>
        <time>2017-03-26T09:56:33Z</time>
      </trkpt>
      <trkpt lat="45.52136" lon="4.64145">
        <ele>309.65</ele>
        <time>2017-03-26T09:56:34Z</time>
      </trkpt>
      <trkpt lat="45.52121" lon="4.64152">
        <ele>309.39</ele>
        <time>2017-03-26T09:56:35Z</time>
      </trkpt>
      <trkpt lat="45.52106" lon="4.64158">
        <ele>308.94</ele>
        <time>2017-03-26T09:56:36Z</time>
      </trkpt>
      <trkpt lat="45.52092" lon="4.64163">
        <ele>308.53</ele>
        <time>2017-03-26T09:56:37Z</time>
      </trkpt>
      <trkpt lat="45.52079" lon="4.64169">
        <ele>308.53</ele>
        <time>2017-03-26T09:56:38Z</time>
      </trkpt>
      <trkpt lat="45.52067" lon="4.64174">
        <ele>308.53</ele>
        <time>2017-03-26T09:56:39Z</time>
      </trkpt>
      <trkpt lat="45.52057" lon="4.64177">
        <ele>309.09</ele>
        <time>2017-03-26T09:56:40Z</time>
      </trkpt>
      <trkpt lat="45.52048" lon="4.64177">
        <ele>309.6</ele>
        <time>2017-03-26T09:56:41Z</time>
      </trkpt>
      <trkpt lat="45.5204" lon="4.64176">
        <ele>309.7</ele>
        <time>2017-03-26T09:56:42Z</time>
      </trkpt>
      <trkpt lat="45.52036" lon="4.64169">
        <ele>310.12</ele>
        <time>2017-03-26T09:56:43Z</time>
      </trkpt>
      <trkpt lat="45.52037" lon="4.64157">
        <ele>310.13</ele>
        <time>2017-03-26T09:56:44Z</time>
      </trkpt>
      <trkpt lat="45.52039" lon="4.64145">
        <ele>310.05</ele>
        <time>2017-03-26T09:56:45Z</time>
      </trkpt>
      <trkpt lat="45.52041" lon="4.64132">
        <ele>310.19</ele>
        <time>2017-03-26T09:56:46Z</time>
      </trkpt>
      <trkpt lat="45.52042" lon="4.64116">
        <ele>310.46</ele>
        <time>2017-03-26T09:56:47Z</time>
      </trkpt>
      <trkpt lat="45.52039" lon="4.64098">
        <ele>310.36</ele>
        <time>2017-03-26T09:56:48Z</time>
      </trkpt>
      <trkpt lat="45.52034" lon="4.6408">
        <ele>310.18</ele>
        <time>2017-03-26T09:56:49Z</time>
      </trkpt>
      <trkpt lat="45.52028" lon="4.6406">
        <ele>309.98</ele>
        <time>2017-03-26T09:56:50Z</time>
      </trkpt>
      <trkpt lat="45.52021" lon="4.64041">
        <ele>309.94</ele>
        <time>2017-03-26T09:56:51Z</time>
      </trkpt>
      <trkpt lat="45.52014" lon="4.64023">
        <ele>310.25</ele>
        <time>2017-03-26T09:56:52Z</time>
      </trkpt>
      <trkpt lat="45.52006" lon="4.64007">
        <ele>310.79</ele>
        <time>2017-03-26T09:56:53Z</time>
      </trkpt>
      <trkpt lat="45.51996" lon="4.63993">
        <ele>311.14</ele>
        <time>2017-03-26T09:56:54Z</time>
      </trkpt>
      <trkpt lat="45.51985" lon="4.63981">
        <ele>311.53</ele>
        <time>2017-03-26T09:56:55Z</time>
      </trkpt>
      <trkpt lat="45.51973" lon="4.63971">
        <ele>310.73</ele>
        <time>2017-03-26T09:56:56Z</time>
      </trkpt>
      <trkpt lat="45.5196" lon="4.63963">
        <ele>310.57</ele>
        <time>2017-03-26T09:56:57Z</time>
      </trkpt>
      <trkpt lat="45.51946" lon="4.63957">
        <ele>310.14</ele>
        <time>2017-03-26T09:56:58Z</time>
      </trkpt>
      <trkpt lat="45.51933" lon="4.63951">
        <ele>309.65</ele>
        <time>2017-03-26T09:56:59Z</time>
      </trkpt>
      <trkpt lat="45.51921" lon="4.63945">
        <ele>309.55</ele>
        <time>2017-03-26T09:57:00Z</time>
      </trkpt>
      <trkpt lat="45.51912" lon="4.63939">
        <ele>309.29</ele>
        <time>2017-03-26T09:57:01Z</time>
      </trkpt>
      <trkpt lat="45.51905" lon="4.63933">
        <ele>309</ele>
        <time>2017-03-26T09:57:02Z</time>
      </trkpt>
      <trkpt lat="45.51905" lon="4.63922">
        <ele>309.1</ele>
        <time>2017-03-26T09:57:03Z</time>
      </trkpt>
      <trkpt lat="45.51908" lon="4.63912">
        <ele>309.28</ele>
        <time>2017-03-26T09:57:04Z</time>
      </trkpt>
      <trkpt lat="45.51912" lon="4.63903">
        <ele>309.32</ele>
        <time>2017-03-26T09:57:05Z</time>
      </trkpt>
      <trkpt lat="45.51918" lon="4.63893">
        <ele>309.33</ele>
        <time>2017-03-26T09:57:06Z</time>
      </trkpt>
      <trkpt lat="45.51923" lon="4.63882">
        <ele>309.33</ele>
        <time>2017-03-26T09:57:07Z</time>
      </trkpt>
      <trkpt lat="45.51928" lon="4.63871">
        <ele>309.17</ele>
        <time>2017-03-26T09:57:08Z</time>
      </trkpt>
      <trkpt lat="45.51933" lon="4.63859">
        <ele>308.9</ele>
        <time>2017-03-26T09:57:09Z</time>
      </trkpt>
      <trkpt lat="45.51937" lon="4.63846">
        <ele>308.68</ele>
        <time>2017-03-26T09:57:10Z</time>
      </trkpt>
      <trkpt lat="45.5194" lon="4.63832">
        <ele>308.4</ele>
        <time>2017-03-26T09:57:11Z</time>
      </trkpt>
      <trkpt lat="45.51943" lon="4.63817">
        <ele>308.1</ele>
        <time>2017-03-26T09:57:12Z</time>
      </trkpt>
      <trkpt lat="45.51945" lon="4.63801">
        <ele>307.8</ele>
        <time>2017-03-26T09:57:13Z</time>
      </trkpt>
      <trkpt lat="45.51947" lon="4.63785">
        <ele>307.58</ele>
        <time>2017-03-26T09:57:14Z</time>
      </trkpt>
      <trkpt lat="45.5195" lon="4.6377">
        <ele>307.46</ele>
        <time>2017-03-26T09:57:15Z</time>
      </trkpt>
      <trkpt lat="45.51953" lon="4.63754">
        <ele>307.52</ele>
        <time>2017-03-26T09:57:16Z</time>
      </trkpt>
      <trkpt lat="45.51956" lon="4.63739">
        <ele>307.53</ele>
        <time>2017-03-26T09:57:17Z</time>
      </trkpt>
      <trkpt lat="45.51958" lon="4.63724">
        <ele>307.45</ele>
        <time>2017-03-26T09:57:18Z</time>
      </trkpt>
      <trkpt lat="45.51959" lon="4.63709">
        <ele>307.27</ele>
        <time>2017-03-26T09:57:19Z</time>
      </trkpt>
      <trkpt lat="45.51956" lon="4.63698">
        <ele>307.24</ele>
        <time>2017-03-26T09:57:20Z</time>
      </trkpt>
      <trkpt lat="45.5195" lon="4.63687">
        <ele>308.19</ele>
        <time>2017-03-26T09:57:21Z</time>
      </trkpt>
      <trkpt lat="45.51945" lon="4.63678">
        <ele>309.18</ele>
        <time>2017-03-26T09:57:22Z</time>
      </trkpt>
      <trkpt lat="45.51941" lon="4.63672">
        <ele>309.86</ele>
        <time>2017-03-26T09:57:23Z</time>
      </trkpt>
      <trkpt lat="45.51938" lon="4.63668">
        <ele>310.24</ele>
        <time>2017-03-26T09:57:24Z</time>
      </trkpt>
      <trkpt lat="45.51937" lon="4.63667">
        <ele>310.63</ele>
        <time>2017-03-26T09:57:25Z</time>
      </trkpt>
      <trkpt lat="45.51936" lon="4.63667">
        <ele>310.79</ele>
        <time>2017-03-26T09:57:26Z</time>
      </trkpt>
      <trkpt lat="45.51936" lon="4.63667">
        <ele>311.14</ele>
        <time>2017-03-26T09:57:27Z</time>
      </trkpt>
      <trkpt lat="45.51937" lon="4.63667">
        <ele>311.37</ele>
        <time>2017-03-26T09:57:28Z</time>
      </trkpt>
      <trkpt lat="45.51937" lon="4.63667">
        <ele>311.42</ele>
        <time>2017-03-26T09:57:29Z</time>
      </trkpt>
      <trkpt lat="45.51937" lon="4.63667">
        <ele>311.43</ele>
        <time>2017-03-26T09:57:30Z</time>
      </trkpt>
      <trkpt lat="45.51937" lon="4.63667">
        <ele>311.43</ele>
        <time>2017-03-26T09:57:31Z</time>
      </trkpt>
      <trkpt lat="45.51937" lon="4.63667">
        <ele>311.43</ele>
        <time>2017-03-26T09:57:32Z</time>
      </trkpt>
      <trkpt lat="45.51937" lon="4.63667">
        <ele>311.43</ele>
        <time>2017-03-26T09:57:33Z</time>
      </trkpt>
      <trkpt lat="45.51937" lon="4.63667">
        <ele>311.43</ele>
        <time>2017-03-26T09:57:34Z</time>
      </trkpt>
      <trkpt lat="45.51937" lon="4.63667">
        <ele>311.43</ele>
        <time>2017-03-26T09:57:35Z</time>
      </trkpt>
      <trkpt lat="45.51937" lon="4.63667">
        <ele>311.43</ele>
        <time>2017-03-26T09:57:36Z</time>
      </trkpt>
      <trkpt lat="45.51937" lon="4.63667">
        <ele>311.43</ele>
        <time>2017-03-26T09:57:37Z</time>
      </trkpt>
      <trkpt lat="45.51937" lon="4.63667">
        <ele>311.43</ele>
        <time>2017-03-26T09:57:38Z</time>
      </trkpt>
      <trkpt lat="45.51937" lon="4.63667">
        <ele>311.43</ele>
        <time>2017-03-26T09:57:39Z</time>
      </trkpt>
      <trkpt lat="45.51937" lon="4.63667">
        <ele>311.43</ele>
        <time>2017-03-26T09:57:40Z</time>
      </trkpt>
      <trkpt lat="45.51937" lon="4.63667">
        <ele>311.43</ele>
        <time>2017-03-26T09:57:41Z</time>
      </trkpt>
      <trkpt lat="45.51937" lon="4.63667">
        <ele>311.43</ele>
        <time>2017-03-26T09:57:42Z</time>
      </trkpt>
      <trkpt lat="45.51937" lon="4.63667">
        <ele>311.43</ele>
        <time>2017-03-26T09:57:43Z</time>
      </trkpt>
      <trkpt lat="45.51937" lon="4.63667">
        <ele>311.43</ele>
        <time>2017-03-26T09:57:44Z</time>
      </trkpt>
      <trkpt lat="45.51933" lon="4.63667">
        <ele>311.91</ele>
        <time>2017-03-26T09:57:45Z</time>
      </trkpt>
      <trkpt lat="45.5193" lon="4.63669">
        <ele>312.01</ele>
        <time>2017-03-26T09:57:46Z</time>
      </trkpt>
      <trkpt lat="45.51927" lon="4.63673">
        <ele>312.11</ele>
        <time>2017-03-26T09:57:47Z</time>
      </trkpt>
      <trkpt lat="45.51922" lon="4.63678">
        <ele>312.21</ele>
        <time>2017-03-26T09:57:48Z</time>
      </trkpt>
      <trkpt lat="45.51916" lon="4.63684">
        <ele>312.31</ele>
        <time>2017-03-26T09:57:49Z</time>
      </trkpt>
      <trkpt lat="45.5191" lon="4.63691">
        <ele>312.4</ele>
        <time>2017-03-26T09:57:50Z</time>
      </trkpt>
      <trkpt lat="45.51903" lon="4.63696">
        <ele>312.51</ele>
        <time>2017-03-26T09:57:51Z</time>
      </trkpt>
      <trkpt lat="45.51896" lon="4.63701">
        <ele>312.61</ele>
        <time>2017-03-26T09:57:52Z</time>
      </trkpt>
      <trkpt lat="45.51887" lon="4.63706">
        <ele>312.79</ele>
        <time>2017-03-26T09:57:53Z</time>
      </trkpt>
      <trkpt lat="45.51878" lon="4.63709">
        <ele>313.06</ele>
        <time>2017-03-26T09:57:54Z</time>
      </trkpt>
      <trkpt lat="45.51869" lon="4.63713">
        <ele>313.36</ele>
        <time>2017-03-26T09:57:55Z</time>
      </trkpt>
      <trkpt lat="45.51859" lon="4.63715">
        <ele>313.74</ele>
        <time>2017-03-26T09:57:56Z</time>
      </trkpt>
      <trkpt lat="45.51849" lon="4.63715">
        <ele>314.05</ele>
        <time>2017-03-26T09:57:57Z</time>
      </trkpt>
      <trkpt lat="45.51838" lon="4.63714">
        <ele>314.35</ele>
        <time>2017-03-26T09:57:58Z</time>
      </trkpt>
      <trkpt lat="45.51826" lon="4.63711">
        <ele>314.73</ele>
        <time>2017-03-26T09:57:59Z</time>
      </trkpt>
      <trkpt lat="45.51814" lon="4.63707">
        <ele>315.37</ele>
        <time>2017-03-26T09:58:00Z</time>
      </trkpt>
      <trkpt lat="45.51802" lon="4.63704">
        <ele>316.3</ele>
        <time>2017-03-26T09:58:01Z</time>
      </trkpt>
      <trkpt lat="45.5179" lon="4.637">
        <ele>317.36</ele>
        <time>2017-03-26T09:58:02Z</time>
      </trkpt>
      <trkpt lat="45.51778" lon="4.63696">
        <ele>318.54</ele>
        <time>2017-03-26T09:58:03Z</time>
      </trkpt>
      <trkpt lat="45.51766" lon="4.63691">
        <ele>319.49</ele>
        <time>2017-03-26T09:58:04Z</time>
      </trkpt>
      <trkpt lat="45.51754" lon="4.63686">
        <ele>320.56</ele>
        <time>2017-03-26T09:58:05Z</time>
      </trkpt>
      <trkpt lat="45.51741" lon="4.63682">
        <ele>321.58</ele>
        <time>2017-03-26T09:58:06Z</time>
      </trkpt>
      <trkpt lat="45.51728" lon="4.63679">
        <ele>323.06</ele>
        <time>2017-03-26T09:58:07Z</time>
      </trkpt>
      <trkpt lat="45.51715" lon="4.63676">
        <ele>324.56</ele>
        <time>2017-03-26T09:58:08Z</time>
      </trkpt>
      <trkpt lat="45.51701" lon="4.63674">
        <ele>325.74</ele>
        <time>2017-03-26T09:58:09Z</time>
      </trkpt>
      <trkpt lat="45.51688" lon="4.63673">
        <ele>327.25</ele>
        <time>2017-03-26T09:58:10Z</time>
      </trkpt>
      <trkpt lat="45.51673" lon="4.63672">
        <ele>328.59</ele>
        <time>2017-03-26T09:58:11Z</time>
      </trkpt>
      <trkpt lat="45.51659" lon="4.63671">
        <ele>329.74</ele>
        <time>2017-03-26T09:58:12Z</time>
      </trkpt>
      <trkpt lat="45.51646" lon="4.6367">
        <ele>331.01</ele>
        <time>2017-03-26T09:58:13Z</time>
      </trkpt>
      <trkpt lat="45.51633" lon="4.63669">
        <ele>332.15</ele>
        <time>2017-03-26T09:58:14Z</time>
      </trkpt>
      <trkpt lat="45.51621" lon="4.63668">
        <ele>333.41</ele>
        <time>2017-03-26T09:58:15Z</time>
      </trkpt>
      <trkpt lat="45.51611" lon="4.63667">
        <ele>334.95</ele>
        <time>2017-03-26T09:58:16Z</time>
      </trkpt>
      <trkpt lat="45.51604" lon="4.63665">
        <ele>336.05</ele>
        <time>2017-03-26T09:58:17Z</time>
      </trkpt>
      <trkpt lat="45.51598" lon="4.63664">
        <ele>337.07</ele>
        <time>2017-03-26T09:58:18Z</time>
      </trkpt>
      <trkpt lat="45.51594" lon="4.63664">
        <ele>337.52</ele>
        <time>2017-03-26T09:58:19Z</time>
      </trkpt>
      <trkpt lat="45.51593" lon="4.63664">
        <ele>337.61</ele>
        <time>2017-03-26T09:58:20Z</time>
      </trkpt>
      <trkpt lat="45.51593" lon="4.63664">
        <ele>338.03</ele>
        <time>2017-03-26T09:58:21Z</time>
      </trkpt>
      <trkpt lat="45.51593" lon="4.63664">
        <ele>338.67</ele>
        <time>2017-03-26T09:58:22Z</time>
      </trkpt>
      <trkpt lat="45.51593" lon="4.63665">
        <ele>338.72</ele>
        <time>2017-03-26T09:58:23Z</time>
      </trkpt>
      <trkpt lat="45.51593" lon="4.63665">
        <ele>338.73</ele>
        <time>2017-03-26T09:58:24Z</time>
      </trkpt>
      <trkpt lat="45.51593" lon="4.63665">
        <ele>338.73</ele>
        <time>2017-03-26T09:58:25Z</time>
      </trkpt>
      <trkpt lat="45.51593" lon="4.63665">
        <ele>338.73</ele>
        <time>2017-03-26T09:58:26Z</time>
      </trkpt>
      <trkpt lat="45.51593" lon="4.63665">
        <ele>338.73</ele>
        <time>2017-03-26T09:58:27Z</time>
      </trkpt>
      <trkpt lat="45.51593" lon="4.63665">
        <ele>338.73</ele>
        <time>2017-03-26T09:58:28Z</time>
      </trkpt>
      <trkpt lat="45.51593" lon="4.63665">
        <ele>338.73</ele>
        <time>2017-03-26T09:58:29Z</time>
      </trkpt>
      <trkpt lat="45.51593" lon="4.63665">
        <ele>338.73</ele>
        <time>2017-03-26T09:58:30Z</time>
      </trkpt>
      <trkpt lat="45.51593" lon="4.63665">
        <ele>338.73</ele>
        <time>2017-03-26T09:58:31Z</time>
      </trkpt>
      <trkpt lat="45.51593" lon="4.63665">
        <ele>338.73</ele>
        <time>2017-03-26T09:58:32Z</time>
      </trkpt>
      <trkpt lat="45.51593" lon="4.63665">
        <ele>338.73</ele>
        <time>2017-03-26T09:58:33Z</time>
      </trkpt>
      <trkpt lat="45.51593" lon="4.63665">
        <ele>338.73</ele>
        <time>2017-03-26T09:58:34Z</time>
      </trkpt>
      <trkpt lat="45.51593" lon="4.63665">
        <ele>338.73</ele>
        <time>2017-03-26T09:58:35Z</time>
      </trkpt>
      <trkpt lat="45.51593" lon="4.63665">
        <ele>338.73</ele>
        <time>2017-03-26T09:58:36Z</time>
      </trkpt>
      <trkpt lat="45.51593" lon="4.63665">
        <ele>338.73</ele>
        <time>2017-03-26T09:58:37Z</time>
      </trkpt>
      <trkpt lat="45.51593" lon="4.63665">
        <ele>338.73</ele>
        <time>2017-03-26T09:58:38Z</time>
      </trkpt>
      <trkpt lat="45.51593" lon="4.63665">
        <ele>338.73</ele>
        <time>2017-03-26T09:58:39Z</time>
      </trkpt>
      <trkpt lat="45.51593" lon="4.63665">
        <ele>338.73</ele>
        <time>2017-03-26T09:58:40Z</time>
      </trkpt>
      <trkpt lat="45.51593" lon="4.63665">
        <ele>338.73</ele>
        <time>2017-03-26T09:58:41Z</time>
      </trkpt>
      <trkpt lat="45.51593" lon="4.63665">
        <ele>338.73</ele>
        <time>2017-03-26T09:58:42Z</time>
      </trkpt>
      <trkpt lat="45.51593" lon="4.63665">
        <ele>338.73</ele>
        <time>2017-03-26T09:58:43Z</time>
      </trkpt>
      <trkpt lat="45.51593" lon="4.63665">
        <ele>338.73</ele>
        <time>2017-03-26T09:58:44Z</time>
      </trkpt>
      <trkpt lat="45.51593" lon="4.63665">
        <ele>338.73</ele>
        <time>2017-03-26T09:58:45Z</time>
      </trkpt>
      <trkpt lat="45.51593" lon="4.63665">
        <ele>338.73</ele>
        <time>2017-03-26T09:58:46Z</time>
      </trkpt>
      <trkpt lat="45.51593" lon="4.63665">
        <ele>338.73</ele>
        <time>2017-03-26T09:58:47Z</time>
      </trkpt>
      <trkpt lat="45.51593" lon="4.63665">
        <ele>338.73</ele>
        <time>2017-03-26T09:58:48Z</time>
      </trkpt>
      <trkpt lat="45.51593" lon="4.63665">
        <ele>338.73</ele>
        <time>2017-03-26T09:58:49Z</time>
      </trkpt>
      <trkpt lat="45.51593" lon="4.63665">
        <ele>338.73</ele>
        <time>2017-03-26T09:58:50Z</time>
      </trkpt>
      <trkpt lat="45.51593" lon="4.63665">
        <ele>338.73</ele>
        <time>2017-03-26T09:58:51Z</time>
      </trkpt>
      <trkpt lat="45.51593" lon="4.63665">
        <ele>338.73</ele>
        <time>2017-03-26T09:58:52Z</time>
      </trkpt>
      <trkpt lat="45.51593" lon="4.63665">
        <ele>338.73</ele>
        <time>2017-03-26T09:58:53Z</time>
      </trkpt>
      <trkpt lat="45.51593" lon="4.63665">
        <ele>338.73</ele>
        <time>2017-03-26T09:58:54Z</time>
      </trkpt>
      <trkpt lat="45.51593" lon="4.63665">
        <ele>338.73</ele>
        <time>2017-03-26T09:58:55Z</time>
      </trkpt>
      <trkpt lat="45.51593" lon="4.63665">
        <ele>338.73</ele>
        <time>2017-03-26T09:58:56Z</time>
      </trkpt>
      <trkpt lat="45.51593" lon="4.63665">
        <ele>338.73</ele>
        <time>2017-03-26T09:58:57Z</time>
      </trkpt>
      <trkpt lat="45.51593" lon="4.63665">
        <ele>338.73</ele>
        <time>2017-03-26T09:58:58Z</time>
      </trkpt>
      <trkpt lat="45.51593" lon="4.63665">
        <ele>338.73</ele>
        <time>2017-03-26T09:58:59Z</time>
      </trkpt>
      <trkpt lat="45.51593" lon="4.63665">
        <ele>338.73</ele>
        <time>2017-03-26T09:59:00Z</time>
      </trkpt>
      <trkpt lat="45.51593" lon="4.63665">
        <ele>338.73</ele>
        <time>2017-03-26T09:59:01Z</time>
      </trkpt>
      <trkpt lat="45.51593" lon="4.63665">
        <ele>338.73</ele>
        <time>2017-03-26T09:59:02Z</time>
      </trkpt>
      <trkpt lat="45.51593" lon="4.63665">
        <ele>338.73</ele>
        <time>2017-03-26T09:59:03Z</time>
      </trkpt>
      <trkpt lat="45.51593" lon="4.63665">
        <ele>338.73</ele>
        <time>2017-03-26T09:59:04Z</time>
      </trkpt>
      <trkpt lat="45.51593" lon="4.63665">
        <ele>338.73</ele>
        <time>2017-03-26T09:59:05Z</time>
      </trkpt>
      <trkpt lat="45.51593" lon="4.63665">
        <ele>338.73</ele>
        <time>2017-03-26T09:59:06Z</time>
      </trkpt>
      <trkpt lat="45.51593" lon="4.63665">
        <ele>338.73</ele>
        <time>2017-03-26T09:59:07Z</time>
      </trkpt>
      <trkpt lat="45.51593" lon="4.63665">
        <ele>338.73</ele>
        <time>2017-03-26T09:59:08Z</time>
      </trkpt>
      <trkpt lat="45.51593" lon="4.63665">
        <ele>338.73</ele>
        <time>2017-03-26T09:59:09Z</time>
      </trkpt>
      <trkpt lat="45.51593" lon="4.63665">
        <ele>338.73</ele>
        <time>2017-03-26T09:59:10Z</time>
      </trkpt>
      <trkpt lat="45.51593" lon="4.63665">
        <ele>338.73</ele>
        <time>2017-03-26T09:59:11Z</time>
      </trkpt>
      <trkpt lat="45.51593" lon="4.63665">
        <ele>338.73</ele>
        <time>2017-03-26T09:59:12Z</time>
      </trkpt>
      <trkpt lat="45.51593" lon="4.63665">
        <ele>338.73</ele>
        <time>2017-03-26T09:59:13Z</time>
      </trkpt>
      <trkpt lat="45.51593" lon="4.63665">
        <ele>338.73</ele>
        <time>2017-03-26T09:59:14Z</time>
      </trkpt>
      <trkpt lat="45.51593" lon="4.63665">
        <ele>338.73</ele>
        <time>2017-03-26T09:59:15Z</time>
      </trkpt>
      <trkpt lat="45.51593" lon="4.63665">
        <ele>338.73</ele>
        <time>2017-03-26T09:59:16Z</time>
      </trkpt>
      <trkpt lat="45.51593" lon="4.63665">
        <ele>338.73</ele>
        <time>2017-03-26T09:59:17Z</time>
      </trkpt>
      <trkpt lat="45.51593" lon="4.63665">
        <ele>338.73</ele>
        <time>2017-03-26T09:59:18Z</time>
      </trkpt>
      <trkpt lat="45.51593" lon="4.63665">
        <ele>338.73</ele>
        <time>2017-03-26T09:59:19Z</time>
      </trkpt>
      <trkpt lat="45.51593" lon="4.63665">
        <ele>338.73</ele>
        <time>2017-03-26T09:59:20Z</time>
      </trkpt>
      <trkpt lat="45.51593" lon="4.63665">
        <ele>338.73</ele>
        <time>2017-03-26T09:59:21Z</time>
      </trkpt>
      <trkpt lat="45.51593" lon="4.63665">
        <ele>338.73</ele>
        <time>2017-03-26T09:59:22Z</time>
      </trkpt>
      <trkpt lat="45.51593" lon="4.63665">
        <ele>338.73</ele>
        <time>2017-03-26T09:59:23Z</time>
      </trkpt>
      <trkpt lat="45.51593" lon="4.63665">
        <ele>338.73</ele>
        <time>2017-03-26T09:59:24Z</time>
      </trkpt>
      <trkpt lat="45.51593" lon="4.63665">
        <ele>338.73</ele>
        <time>2017-03-26T09:59:25Z</time>
      </trkpt>
      <trkpt lat="45.51593" lon="4.63665">
        <ele>338.73</ele>
        <time>2017-03-26T09:59:26Z</time>
      </trkpt>
      <trkpt lat="45.51593" lon="4.63665">
        <ele>338.73</ele>
        <time>2017-03-26T09:59:27Z</time>
      </trkpt>
      <trkpt lat="45.51593" lon="4.63665">
        <ele>338.73</ele>
        <time>2017-03-26T09:59:28Z</time>
      </trkpt>
      <trkpt lat="45.51593" lon="4.63665">
        <ele>338.73</ele>
        <time>2017-03-26T09:59:29Z</time>
      </trkpt>
      <trkpt lat="45.51593" lon="4.63665">
        <ele>338.73</ele>
        <time>2017-03-26T09:59:30Z</time>
      </trkpt>
      <trkpt lat="45.51593" lon="4.63665">
        <ele>338.73</ele>
        <time>2017-03-26T09:59:31Z</time>
      </trkpt>
      <trkpt lat="45.51593" lon="4.63665">
        <ele>338.73</ele>
        <time>2017-03-26T09:59:32Z</time>
      </trkpt>
      <trkpt lat="45.51593" lon="4.63665">
        <ele>338.73</ele>
        <time>2017-03-26T09:59:33Z</time>
      </trkpt>
      <trkpt lat="45.51593" lon="4.63665">
        <ele>338.73</ele>
        <time>2017-03-26T09:59:34Z</time>
      </trkpt>
      <trkpt lat="45.51593" lon="4.63665">
        <ele>338.73</ele>
        <time>2017-03-26T09:59:35Z</time>
      </trkpt>
      <trkpt lat="45.51593" lon="4.63665">
        <ele>338.73</ele>
        <time>2017-03-26T09:59:36Z</time>
      </trkpt>
      <trkpt lat="45.51593" lon="4.63665">
        <ele>338.73</ele>
        <time>2017-03-26T09:59:37Z</time>
      </trkpt>
      <trkpt lat="45.51593" lon="4.63665">
        <ele>338.73</ele>
        <time>2017-03-26T09:59:38Z</time>
      </trkpt>
      <trkpt lat="45.51593" lon="4.63665">
        <ele>338.73</ele>
        <time>2017-03-26T09:59:39Z</time>
      </trkpt>
      <trkpt lat="45.51593" lon="4.63665">
        <ele>338.73</ele>
        <time>2017-03-26T09:59:40Z</time>
      </trkpt>
      <trkpt lat="45.51593" lon="4.63665">
        <ele>338.73</ele>
        <time>2017-03-26T09:59:41Z</time>
      </trkpt>
      <trkpt lat="45.51593" lon="4.63665">
        <ele>338.73</ele>
        <time>2017-03-26T09:59:42Z</time>
      </trkpt>
      <trkpt lat="45.51593" lon="4.63665">
        <ele>338.73</ele>
        <time>2017-03-26T09:59:43Z</time>
      </trkpt>
      <trkpt lat="45.51593" lon="4.63665">
        <ele>338.73</ele>
        <time>2017-03-26T09:59:44Z</time>
      </trkpt>
      <trkpt lat="45.51593" lon="4.63665">
        <ele>338.73</ele>
        <time>2017-03-26T09:59:45Z</time>
      </trkpt>
      <trkpt lat="45.51593" lon="4.63665">
        <ele>338.73</ele>
        <time>2017-03-26T09:59:46Z</time>
      </trkpt>
      <trkpt lat="45.51593" lon="4.63665">
        <ele>338.73</ele>
        <time>2017-03-26T09:59:47Z</time>
      </trkpt>
      <trkpt lat="45.51593" lon="4.63665">
        <ele>338.73</ele>
        <time>2017-03-26T09:59:48Z</time>
      </trkpt>
      <trkpt lat="45.51593" lon="4.63665">
        <ele>338.73</ele>
        <time>2017-03-26T09:59:49Z</time>
      </trkpt>
      <trkpt lat="45.51593" lon="4.63665">
        <ele>338.73</ele>
        <time>2017-03-26T09:59:50Z</time>
      </trkpt>
      <trkpt lat="45.51593" lon="4.63665">
        <ele>338.73</ele>
        <time>2017-03-26T09:59:51Z</time>
      </trkpt>
      <trkpt lat="45.51593" lon="4.63665">
        <ele>338.73</ele>
        <time>2017-03-26T09:59:52Z</time>
      </trkpt>
      <trkpt lat="45.51592" lon="4.63666">
        <ele>339.13</ele>
        <time>2017-03-26T09:59:53Z</time>
      </trkpt>
      <trkpt lat="45.5159" lon="4.63668">
        <ele>339.21</ele>
        <time>2017-03-26T09:59:54Z</time>
      </trkpt>
      <trkpt lat="45.51588" lon="4.63669">
        <ele>339.31</ele>
        <time>2017-03-26T09:59:55Z</time>
      </trkpt>
      <trkpt lat="45.51585" lon="4.6367">
        <ele>339.41</ele>
        <time>2017-03-26T09:59:56Z</time>
      </trkpt>
      <trkpt lat="45.51581" lon="4.63671">
        <ele>339.51</ele>
        <time>2017-03-26T09:59:57Z</time>
      </trkpt>
      <trkpt lat="45.51576" lon="4.63672">
        <ele>339.61</ele>
        <time>2017-03-26T09:59:58Z</time>
      </trkpt>
      <trkpt lat="45.51571" lon="4.63673">
        <ele>339.7</ele>
        <time>2017-03-26T09:59:59Z</time>
      </trkpt>
      <trkpt lat="45.51566" lon="4.63674">
        <ele>339.73</ele>
        <time>2017-03-26T10:00:00Z</time>
      </trkpt>
      <trkpt lat="45.51561" lon="4.63675">
        <ele>339.81</ele>
        <time>2017-03-26T10:00:01Z</time>
      </trkpt>
      <trkpt lat="45.51555" lon="4.63675">
        <ele>339.91</ele>
        <time>2017-03-26T10:00:02Z</time>
      </trkpt>
      <trkpt lat="45.51549" lon="4.63675">
        <ele>340.09</ele>
        <time>2017-03-26T10:00:03Z</time>
      </trkpt>
      <trkpt lat="45.51543" lon="4.63675">
        <ele>340.2</ele>
        <time>2017-03-26T10:00:04Z</time>
      </trkpt>
      <trkpt lat="45.51537" lon="4.63675">
        <ele>340.3</ele>
        <time>2017-03-26T10:00:05Z</time>
      </trkpt>
      <trkpt lat="45.5153" lon="4.63675">
        <ele>340.4</ele>
        <time>2017-03-26T10:00:06Z</time>
      </trkpt>
      <trkpt lat="45.51525" lon="4.63679">
        <ele>340.5</ele>
        <time>2017-03-26T10:00:07Z</time>
      </trkpt>
      <trkpt lat="45.51519" lon="4.63682">
        <ele>340.68</ele>
        <time>2017-03-26T10:00:08Z</time>
      </trkpt>
      <trkpt lat="45.51514" lon="4.63686">
        <ele>340.8</ele>
        <time>2017-03-26T10:00:09Z</time>
      </trkpt>
      <trkpt lat="45.51517" lon="4.63693">
        <ele>340.98</ele>
        <time>2017-03-26T10:00:10Z</time>
      </trkpt>
      <trkpt lat="45.51519" lon="4.63698">
        <ele>341.18</ele>
        <time>2017-03-26T10:00:11Z</time>
      </trkpt>
      <trkpt lat="45.51522" lon="4.63702">
        <ele>341.3</ele>
        <time>2017-03-26T10:00:12Z</time>
      </trkpt>
      <trkpt lat="45.51526" lon="4.63706">
        <ele>341.4</ele>
        <time>2017-03-26T10:00:13Z</time>
      </trkpt>
      <trkpt lat="45.51531" lon="4.6371">
        <ele>341.58</ele>
        <time>2017-03-26T10:00:14Z</time>
      </trkpt>
      <trkpt lat="45.51535" lon="4.63716">
        <ele>341.7</ele>
        <time>2017-03-26T10:00:15Z</time>
      </trkpt>
      <trkpt lat="45.51538" lon="4.63722">
        <ele>341.88</ele>
        <time>2017-03-26T10:00:16Z</time>
      </trkpt>
      <trkpt lat="45.51542" lon="4.63729">
        <ele>342</ele>
        <time>2017-03-26T10:00:17Z</time>
      </trkpt>
      <trkpt lat="45.51545" lon="4.63735">
        <ele>342.1</ele>
        <time>2017-03-26T10:00:18Z</time>
      </trkpt>
      <trkpt lat="45.51549" lon="4.63742">
        <ele>342.28</ele>
        <time>2017-03-26T10:00:19Z</time>
      </trkpt>
      <trkpt lat="45.51552" lon="4.63749">
        <ele>342.4</ele>
        <time>2017-03-26T10:00:20Z</time>
      </trkpt>
      <trkpt lat="45.51555" lon="4.63756">
        <ele>342.58</ele>
        <time>2017-03-26T10:00:21Z</time>
      </trkpt>
      <trkpt lat="45.51557" lon="4.63764">
        <ele>342.7</ele>
        <time>2017-03-26T10:00:22Z</time>
      </trkpt>
      <trkpt lat="45.51559" lon="4.63772">
        <ele>342.88</ele>
        <time>2017-03-26T10:00:23Z</time>
      </trkpt>
      <trkpt lat="45.51561" lon="4.63781">
        <ele>343.08</ele>
        <time>2017-03-26T10:00:24Z</time>
      </trkpt>
      <trkpt lat="45.51562" lon="4.63789">
        <ele>343.2</ele>
        <time>2017-03-26T10:00:25Z</time>
      </trkpt>
      <trkpt lat="45.51563" lon="4.63798">
        <ele>343.38</ele>
        <time>2017-03-26T10:00:26Z</time>
      </trkpt>
      <trkpt lat="45.51564" lon="4.63807">
        <ele>343.58</ele>
        <time>2017-03-26T10:00:27Z</time>
      </trkpt>
      <trkpt lat="45.51564" lon="4.63815">
        <ele>343.78</ele>
        <time>2017-03-26T10:00:28Z</time>
      </trkpt>
      <trkpt lat="45.51563" lon="4.63824">
        <ele>343.98</ele>
        <time>2017-03-26T10:00:29Z</time>
      </trkpt>
      <trkpt lat="45.51562" lon="4.63834">
        <ele>344.18</ele>
        <time>2017-03-26T10:00:30Z</time>
      </trkpt>
      <trkpt lat="45.51561" lon="4.63841">
        <ele>344.38</ele>
        <time>2017-03-26T10:00:31Z</time>
      </trkpt>
      <trkpt lat="45.5156" lon="4.63849">
        <ele>344.58</ele>
        <time>2017-03-26T10:00:32Z</time>
      </trkpt>
      <trkpt lat="45.51559" lon="4.63855">
        <ele>344.86</ele>
        <time>2017-03-26T10:00:33Z</time>
      </trkpt>
      <trkpt lat="45.51559" lon="4.6386">
        <ele>345.08</ele>
        <time>2017-03-26T10:00:34Z</time>
      </trkpt>
      <trkpt lat="45.51558" lon="4.63863">
        <ele>345.28</ele>
        <time>2017-03-26T10:00:35Z</time>
      </trkpt>
      <trkpt lat="45.51558" lon="4.63864">
        <ele>345.48</ele>
        <time>2017-03-26T10:00:36Z</time>
      </trkpt>
      <trkpt lat="45.51558" lon="4.63865">
        <ele>345.76</ele>
        <time>2017-03-26T10:00:37Z</time>
      </trkpt>
      <trkpt lat="45.51558" lon="4.63865">
        <ele>345.98</ele>
        <time>2017-03-26T10:00:38Z</time>
      </trkpt>
      <trkpt lat="45.51558" lon="4.63865">
        <ele>346.18</ele>
        <time>2017-03-26T10:00:39Z</time>
      </trkpt>
      <trkpt lat="45.51558" lon="4.63865">
        <ele>346.22</ele>
        <time>2017-03-26T10:00:40Z</time>
      </trkpt>
      <trkpt lat="45.51558" lon="4.63865">
        <ele>346.23</ele>
        <time>2017-03-26T10:00:41Z</time>
      </trkpt>
      <trkpt lat="45.51558" lon="4.63865">
        <ele>346.23</ele>
        <time>2017-03-26T10:00:42Z</time>
      </trkpt>
      <trkpt lat="45.51558" lon="4.63865">
        <ele>346.23</ele>
        <time>2017-03-26T10:00:43Z</time>
      </trkpt>
      <trkpt lat="45.51558" lon="4.63865">
        <ele>346.23</ele>
        <time>2017-03-26T10:00:44Z</time>
      </trkpt>
      <trkpt lat="45.51558" lon="4.63865">
        <ele>346.23</ele>
        <time>2017-03-26T10:00:45Z</time>
      </trkpt>
      <trkpt lat="45.51558" lon="4.63865">
        <ele>346.23</ele>
        <time>2017-03-26T10:00:46Z</time>
      </trkpt>
      <trkpt lat="45.51558" lon="4.63865">
        <ele>346.23</ele>
        <time>2017-03-26T10:00:47Z</time>
      </trkpt>
      <trkpt lat="45.51559" lon="4.63852">
        <ele>346.71</ele>
        <time>2017-03-26T10:00:48Z</time>
      </trkpt>
      <trkpt lat="45.5156" lon="4.63849">
        <ele>346.73</ele>
        <time>2017-03-26T10:00:49Z</time>
      </trkpt>
      <trkpt lat="45.5156" lon="4.63845">
        <ele>346.65</ele>
        <time>2017-03-26T10:00:50Z</time>
      </trkpt>
      <trkpt lat="45.51561" lon="4.6384">
        <ele>346.47</ele>
        <time>2017-03-26T10:00:51Z</time>
      </trkpt>
      <trkpt lat="45.51562" lon="4.63835">
        <ele>346.36</ele>
        <time>2017-03-26T10:00:52Z</time>
      </trkpt>
      <trkpt lat="45.51563" lon="4.6383">
        <ele>346.18</ele>
        <time>2017-03-26T10:00:53Z</time>
      </trkpt>
      <trkpt lat="45.51564" lon="4.63824">
        <ele>346.06</ele>
        <time>2017-03-26T10:00:54Z</time>
      </trkpt>
      <trkpt lat="45.51564" lon="4.63819">
        <ele>345.96</ele>
        <time>2017-03-26T10:00:55Z</time>
      </trkpt>
      <trkpt lat="45.51564" lon="4.63814">
        <ele>345.78</ele>
        <time>2017-03-26T10:00:56Z</time>
      </trkpt>
      <trkpt lat="45.51565" lon="4.63809">
        <ele>345.66</ele>
        <time>2017-03-26T10:00:57Z</time>
      </trkpt>
      <trkpt lat="45.51565" lon="4.63805">
        <ele>345.64</ele>
        <time>2017-03-26T10:00:58Z</time>
      </trkpt>
      <trkpt lat="45.51565" lon="4.63801">
        <ele>345.63</ele>
        <time>2017-03-26T10:00:59Z</time>
      </trkpt>
      <trkpt lat="45.51565" lon="4.63797">
        <ele>345.79</ele>
        <time>2017-03-26T10:01:00Z</time>
      </trkpt>
      <trkpt lat="45.51565" lon="4.63794">
        <ele>345.82</ele>
        <time>2017-03-26T10:01:01Z</time>
      </trkpt>
      <trkpt lat="45.51564" lon="4.6379">
        <ele>345.75</ele>
        <time>2017-03-26T10:01:02Z</time>
      </trkpt>
      <trkpt lat="45.51564" lon="4.63785">
        <ele>345.81</ele>
        <time>2017-03-26T10:01:03Z</time>
      </trkpt>
      <trkpt lat="45.51563" lon="4.6378">
        <ele>345.91</ele>
        <time>2017-03-26T10:01:04Z</time>
      </trkpt>
      <trkpt lat="45.51562" lon="4.63775">
        <ele>346.01</ele>
        <time>2017-03-26T10:01:05Z</time>
      </trkpt>
      <trkpt lat="45.51562" lon="4.63771">
        <ele>346.03</ele>
        <time>2017-03-26T10:01:06Z</time>
      </trkpt>
      <trkpt lat="45.51561" lon="4.63767">
        <ele>346.03</ele>
        <time>2017-03-26T10:01:07Z</time>
      </trkpt>
      <trkpt lat="45.51559" lon="4.63763">
        <ele>345.95</ele>
        <time>2017-03-26T10:01:08Z</time>
      </trkpt>
      <trkpt lat="45.51557" lon="4.63758">
        <ele>345.85</ele>
        <time>2017-03-26T10:01:09Z</time>
      </trkpt>
      <trkpt lat="45.51555" lon="4.63754">
        <ele>345.75</ele>
        <time>2017-03-26T10:01:10Z</time>
      </trkpt>
      <trkpt lat="45.51553" lon="4.63749">
        <ele>345.73</ele>
        <time>2017-03-26T10:01:11Z</time>
      </trkpt>
      <trkpt lat="45.51552" lon="4.63744">
        <ele>345.73</ele>
        <time>2017-03-26T10:01:12Z</time>
      </trkpt>
      <trkpt lat="45.5155" lon="4.63739">
        <ele>345.73</ele>
        <time>2017-03-26T10:01:13Z</time>
      </trkpt>
      <trkpt lat="45.51547" lon="4.63734">
        <ele>345.73</ele>
        <time>2017-03-26T10:01:14Z</time>
      </trkpt>
      <trkpt lat="45.51545" lon="4.63729">
        <ele>345.65</ele>
        <time>2017-03-26T10:01:15Z</time>
      </trkpt>
      <trkpt lat="45.51543" lon="4.63725">
        <ele>345.55</ele>
        <time>2017-03-26T10:01:16Z</time>
      </trkpt>
      <trkpt lat="45.51541" lon="4.63722">
        <ele>345.37</ele>
        <time>2017-03-26T10:01:17Z</time>
      </trkpt>
      <trkpt lat="45.51539" lon="4.63719">
        <ele>345.26</ele>
        <time>2017-03-26T10:01:18Z</time>
      </trkpt>
      <trkpt lat="45.51537" lon="4.63716">
        <ele>345.16</ele>
        <time>2017-03-26T10:01:19Z</time>
      </trkpt>
      <trkpt lat="45.51535" lon="4.63714">
        <ele>345.14</ele>
        <time>2017-03-26T10:01:20Z</time>
      </trkpt>
      <trkpt lat="45.51533" lon="4.63711">
        <ele>345.21</ele>
        <time>2017-03-26T10:01:21Z</time>
      </trkpt>
      <trkpt lat="45.51531" lon="4.63709">
        <ele>345.31</ele>
        <time>2017-03-26T10:01:22Z</time>
      </trkpt>
      <trkpt lat="45.51528" lon="4.63707">
        <ele>345.41</ele>
        <time>2017-03-26T10:01:23Z</time>
      </trkpt>
      <trkpt lat="45.51525" lon="4.63705">
        <ele>345.59</ele>
        <time>2017-03-26T10:01:24Z</time>
      </trkpt>
      <trkpt lat="45.51523" lon="4.63704">
        <ele>345.78</ele>
        <time>2017-03-26T10:01:25Z</time>
      </trkpt>
      <trkpt lat="45.5152" lon="4.63702">
        <ele>345.9</ele>
        <time>2017-03-26T10:01:26Z</time>
      </trkpt>
      <trkpt lat="45.51517" lon="4.63699">
        <ele>346.08</ele>
        <time>2017-03-26T10:01:27Z</time>
      </trkpt>
      <trkpt lat="45.51515" lon="4.63695">
        <ele>346.52</ele>
        <time>2017-03-26T10:01:28Z</time>
      </trkpt>
      <trkpt lat="45.51516" lon="4.6369">
        <ele>346.85</ele>
        <time>2017-03-26T10:01:29Z</time>
      </trkpt>
      <trkpt lat="45.51516" lon="4.63686">
        <ele>346.99</ele>
        <time>2017-03-26T10:01:30Z</time>
      </trkpt>
      <trkpt lat="45.51519" lon="4.63682">
        <ele>347.18</ele>
        <time>2017-03-26T10:01:31Z</time>
      </trkpt>
      <trkpt lat="45.51521" lon="4.63679">
        <ele>347.22</ele>
        <time>2017-03-26T10:01:32Z</time>
      </trkpt>
      <trkpt lat="45.51527" lon="4.63681">
        <ele>347.39</ele>
        <time>2017-03-26T10:01:33Z</time>
      </trkpt>
      <trkpt lat="45.51532" lon="4.63681">
        <ele>347.42</ele>
        <time>2017-03-26T10:01:34Z</time>
      </trkpt>
      <trkpt lat="45.51537" lon="4.63681">
        <ele>347.43</ele>
        <time>2017-03-26T10:01:35Z</time>
      </trkpt>
      <trkpt lat="45.51542" lon="4.63681">
        <ele>347.43</ele>
        <time>2017-03-26T10:01:36Z</time>
      </trkpt>
      <trkpt lat="45.51547" lon="4.63681">
        <ele>347.51</ele>
        <time>2017-03-26T10:01:37Z</time>
      </trkpt>
      <trkpt lat="45.51552" lon="4.6368">
        <ele>347.61</ele>
        <time>2017-03-26T10:01:38Z</time>
      </trkpt>
      <trkpt lat="45.51558" lon="4.63679">
        <ele>347.71</ele>
        <time>2017-03-26T10:01:39Z</time>
      </trkpt>
      <trkpt lat="45.51562" lon="4.63679">
        <ele>347.89</ele>
        <time>2017-03-26T10:01:40Z</time>
      </trkpt>
      <trkpt lat="45.51568" lon="4.63678">
        <ele>348.08</ele>
        <time>2017-03-26T10:01:41Z</time>
      </trkpt>
      <trkpt lat="45.51573" lon="4.63678">
        <ele>348.2</ele>
        <time>2017-03-26T10:01:42Z</time>
      </trkpt>
      <trkpt lat="45.51578" lon="4.63677">
        <ele>348.38</ele>
        <time>2017-03-26T10:01:43Z</time>
      </trkpt>
      <trkpt lat="45.51584" lon="4.63676">
        <ele>348.66</ele>
        <time>2017-03-26T10:01:44Z</time>
      </trkpt>
      <trkpt lat="45.51589" lon="4.63675">
        <ele>348.8</ele>
        <time>2017-03-26T10:01:45Z</time>
      </trkpt>
      <trkpt lat="45.51594" lon="4.63674">
        <ele>348.9</ele>
        <time>2017-03-26T10:01:46Z</time>
      </trkpt>
      <trkpt lat="45.51599" lon="4.63673">
        <ele>349</ele>
        <time>2017-03-26T10:01:47Z</time>
      </trkpt>
      <trkpt lat="45.51602" lon="4.63672">
        <ele>349.1</ele>
        <time>2017-03-26T10:01:48Z</time>
      </trkpt>
      <trkpt lat="45.51605" lon="4.63671">
        <ele>349.2</ele>
        <time>2017-03-26T10:01:49Z</time>
      </trkpt>
      <trkpt lat="45.51603" lon="4.63668">
        <ele>349.23</ele>
        <time>2017-03-26T10:01:50Z</time>
      </trkpt>
      <trkpt lat="45.51602" lon="4.63666">
        <ele>348.99</ele>
        <time>2017-03-26T10:01:51Z</time>
      </trkpt>
      <trkpt lat="45.51599" lon="4.63665">
        <ele>348.94</ele>
        <time>2017-03-26T10:01:52Z</time>
      </trkpt>
      <trkpt lat="45.51595" lon="4.63664">
        <ele>348.85</ele>
        <time>2017-03-26T10:01:53Z</time>
      </trkpt>
      <trkpt lat="45.51589" lon="4.63663">
        <ele>348.83</ele>
        <time>2017-03-26T10:01:54Z</time>
      </trkpt>
      <trkpt lat="45.51582" lon="4.63662">
        <ele>348.83</ele>
        <time>2017-03-26T10:01:55Z</time>
      </trkpt>
      <trkpt lat="45.51574" lon="4.6366">
        <ele>348.67</ele>
        <time>2017-03-26T10:01:56Z</time>
      </trkpt>
      <trkpt lat="45.51565" lon="4.63658">
        <ele>348.64</ele>
        <time>2017-03-26T10:01:57Z</time>
      </trkpt>
      <trkpt lat="45.51556" lon="4.63656">
        <ele>348.71</ele>
        <time>2017-03-26T10:01:58Z</time>
      </trkpt>
      <trkpt lat="45.51546" lon="4.63654">
        <ele>348.81</ele>
        <time>2017-03-26T10:01:59Z</time>
      </trkpt>
      <trkpt lat="45.51536" lon="4.63652">
        <ele>348.75</ele>
        <time>2017-03-26T10:02:00Z</time>
      </trkpt>
      <trkpt lat="45.51526" lon="4.6365">
        <ele>348.65</ele>
        <time>2017-03-26T10:02:01Z</time>
      </trkpt>
      <trkpt lat="45.51516" lon="4.63649">
        <ele>348.47</ele>
        <time>2017-03-26T10:02:02Z</time>
      </trkpt>
      <trkpt lat="45.51506" lon="4.63648">
        <ele>348.36</ele>
        <time>2017-03-26T10:02:03Z</time>
      </trkpt>
      <trkpt lat="45.51495" lon="4.63648">
        <ele>348.42</ele>
        <time>2017-03-26T10:02:04Z</time>
      </trkpt>
      <trkpt lat="45.51485" lon="4.63648">
        <ele>348.51</ele>
        <time>2017-03-26T10:02:05Z</time>
      </trkpt>
      <trkpt lat="45.51475" lon="4.63648">
        <ele>348.45</ele>
        <time>2017-03-26T10:02:06Z</time>
      </trkpt>
      <trkpt lat="45.51464" lon="4.63649">
        <ele>348.35</ele>
        <time>2017-03-26T10:02:07Z</time>
      </trkpt>
      <trkpt lat="45.51454" lon="4.63651">
        <ele>348.57</ele>
        <time>2017-03-26T10:02:08Z</time>
      </trkpt>
      <trkpt lat="45.51444" lon="4.63654">
        <ele>348.7</ele>
        <time>2017-03-26T10:02:09Z</time>
      </trkpt>
      <trkpt lat="45.51435" lon="4.63658">
        <ele>348.64</ele>
        <time>2017-03-26T10:02:10Z</time>
      </trkpt>
      <trkpt lat="45.51427" lon="4.63661">
        <ele>348.71</ele>
        <time>2017-03-26T10:02:11Z</time>
      </trkpt>
      <trkpt lat="45.5142" lon="4.63663">
        <ele>348.97</ele>
        <time>2017-03-26T10:02:12Z</time>
      </trkpt>
      <trkpt lat="45.51414" lon="4.63666">
        <ele>349.18</ele>
        <time>2017-03-26T10:02:13Z</time>
      </trkpt>
      <trkpt lat="45.51408" lon="4.63668">
        <ele>349.46</ele>
        <time>2017-03-26T10:02:14Z</time>
      </trkpt>
      <trkpt lat="45.51402" lon="4.63671">
        <ele>349.6</ele>
        <time>2017-03-26T10:02:15Z</time>
      </trkpt>
      <trkpt lat="45.51395" lon="4.63673">
        <ele>349.94</ele>
        <time>2017-03-26T10:02:16Z</time>
      </trkpt>
      <trkpt lat="45.51387" lon="4.63675">
        <ele>349.93</ele>
        <time>2017-03-26T10:02:17Z</time>
      </trkpt>
      <trkpt lat="45.51379" lon="4.63676">
        <ele>350.01</ele>
        <time>2017-03-26T10:02:18Z</time>
      </trkpt>
      <trkpt lat="45.51372" lon="4.63678">
        <ele>349.95</ele>
        <time>2017-03-26T10:02:19Z</time>
      </trkpt>
      <trkpt lat="45.51365" lon="4.63679">
        <ele>350.01</ele>
        <time>2017-03-26T10:02:20Z</time>
      </trkpt>
      <trkpt lat="45.51359" lon="4.6368">
        <ele>350.11</ele>
        <time>2017-03-26T10:02:21Z</time>
      </trkpt>
      <trkpt lat="45.51355" lon="4.6368">
        <ele>350.61</ele>
        <time>2017-03-26T10:02:22Z</time>
      </trkpt>
      <trkpt lat="45.51353" lon="4.63681">
        <ele>351.43</ele>
        <time>2017-03-26T10:02:23Z</time>
      </trkpt>
      <trkpt lat="45.51352" lon="4.63681">
        <ele>351.99</ele>
        <time>2017-03-26T10:02:24Z</time>
      </trkpt>
      <trkpt lat="45.5135" lon="4.63681">
        <ele>352.74</ele>
        <time>2017-03-26T10:02:25Z</time>
      </trkpt>
      <trkpt lat="45.51349" lon="4.63681">
        <ele>353.37</ele>
        <time>2017-03-26T10:02:26Z</time>
      </trkpt>
      <trkpt lat="45.51349" lon="4.63681">
        <ele>353.74</ele>
        <time>2017-03-26T10:02:27Z</time>
      </trkpt>
      <trkpt lat="45.51348" lon="4.63682">
        <ele>354.05</ele>
        <time>2017-03-26T10:02:28Z</time>
      </trkpt>
      <trkpt lat="45.51351" lon="4.63682">
        <ele>354.83</ele>
        <time>2017-03-26T10:02:29Z</time>
      </trkpt>
      <trkpt lat="45.51352" lon="4.63683">
        <ele>355.79</ele>
        <time>2017-03-26T10:02:30Z</time>
      </trkpt>
      <trkpt lat="45.51352" lon="4.63683">
        <ele>355.98</ele>
        <time>2017-03-26T10:02:31Z</time>
      </trkpt>
      <trkpt lat="45.51352" lon="4.63683">
        <ele>356.02</ele>
        <time>2017-03-26T10:02:32Z</time>
      </trkpt>
      <trkpt lat="45.51352" lon="4.63683">
        <ele>356.03</ele>
        <time>2017-03-26T10:02:33Z</time>
      </trkpt>
      <trkpt lat="45.51352" lon="4.63683">
        <ele>356.03</ele>
        <time>2017-03-26T10:02:34Z</time>
      </trkpt>
      <trkpt lat="45.51352" lon="4.63683">
        <ele>356.03</ele>
        <time>2017-03-26T10:02:35Z</time>
      </trkpt>
      <trkpt lat="45.51352" lon="4.63683">
        <ele>356.03</ele>
        <time>2017-03-26T10:02:36Z</time>
      </trkpt>
      <trkpt lat="45.51352" lon="4.63683">
        <ele>356.03</ele>
        <time>2017-03-26T10:02:37Z</time>
      </trkpt>
      <trkpt lat="45.51352" lon="4.63683">
        <ele>356.03</ele>
        <time>2017-03-26T10:02:38Z</time>
      </trkpt>
      <trkpt lat="45.51352" lon="4.63683">
        <ele>356.03</ele>
        <time>2017-03-26T10:02:39Z</time>
      </trkpt>
      <trkpt lat="45.51352" lon="4.63683">
        <ele>356.03</ele>
        <time>2017-03-26T10:02:40Z</time>
      </trkpt>
      <trkpt lat="45.51352" lon="4.63683">
        <ele>356.03</ele>
        <time>2017-03-26T10:02:41Z</time>
      </trkpt>
      <trkpt lat="45.51352" lon="4.63683">
        <ele>356.03</ele>
        <time>2017-03-26T10:02:42Z</time>
      </trkpt>
      <trkpt lat="45.51352" lon="4.63683">
        <ele>356.03</ele>
        <time>2017-03-26T10:02:43Z</time>
      </trkpt>
      <trkpt lat="45.51352" lon="4.63683">
        <ele>356.03</ele>
        <time>2017-03-26T10:02:44Z</time>
      </trkpt>
      <trkpt lat="45.51352" lon="4.63683">
        <ele>356.03</ele>
        <time>2017-03-26T10:02:45Z</time>
      </trkpt>
      <trkpt lat="45.51352" lon="4.63683">
        <ele>356.03</ele>
        <time>2017-03-26T10:02:46Z</time>
      </trkpt>
      <trkpt lat="45.51352" lon="4.63683">
        <ele>356.03</ele>
        <time>2017-03-26T10:02:47Z</time>
      </trkpt>
      <trkpt lat="45.51352" lon="4.63683">
        <ele>356.03</ele>
        <time>2017-03-26T10:02:48Z</time>
      </trkpt>
      <trkpt lat="45.51352" lon="4.63683">
        <ele>356.03</ele>
        <time>2017-03-26T10:02:49Z</time>
      </trkpt>
      <trkpt lat="45.51352" lon="4.63683">
        <ele>356.03</ele>
        <time>2017-03-26T10:02:50Z</time>
      </trkpt>
      <trkpt lat="45.51352" lon="4.63683">
        <ele>356.03</ele>
        <time>2017-03-26T10:02:51Z</time>
      </trkpt>
      <trkpt lat="45.51352" lon="4.63683">
        <ele>356.03</ele>
        <time>2017-03-26T10:02:52Z</time>
      </trkpt>
      <trkpt lat="45.51352" lon="4.63683">
        <ele>356.03</ele>
        <time>2017-03-26T10:02:53Z</time>
      </trkpt>
      <trkpt lat="45.51352" lon="4.63683">
        <ele>356.03</ele>
        <time>2017-03-26T10:02:54Z</time>
      </trkpt>
      <trkpt lat="45.51349" lon="4.63683">
        <ele>356.35</ele>
        <time>2017-03-26T10:02:55Z</time>
      </trkpt>
      <trkpt lat="45.51347" lon="4.63683">
        <ele>356.49</ele>
        <time>2017-03-26T10:02:56Z</time>
      </trkpt>
      <trkpt lat="45.51345" lon="4.63684">
        <ele>356.52</ele>
        <time>2017-03-26T10:02:57Z</time>
      </trkpt>
      <trkpt lat="45.51343" lon="4.63684">
        <ele>356.53</ele>
        <time>2017-03-26T10:02:58Z</time>
      </trkpt>
      <trkpt lat="45.5134" lon="4.63685">
        <ele>356.61</ele>
        <time>2017-03-26T10:02:59Z</time>
      </trkpt>
      <trkpt lat="45.51337" lon="4.63686">
        <ele>356.63</ele>
        <time>2017-03-26T10:03:00Z</time>
      </trkpt>
      <trkpt lat="45.51334" lon="4.63686">
        <ele>356.71</ele>
        <time>2017-03-26T10:03:01Z</time>
      </trkpt>
      <trkpt lat="45.5133" lon="4.63686">
        <ele>356.73</ele>
        <time>2017-03-26T10:03:02Z</time>
      </trkpt>
      <trkpt lat="45.51324" lon="4.63687">
        <ele>356.81</ele>
        <time>2017-03-26T10:03:03Z</time>
      </trkpt>
      <trkpt lat="45.51318" lon="4.63687">
        <ele>356.83</ele>
        <time>2017-03-26T10:03:04Z</time>
      </trkpt>
      <trkpt lat="45.51312" lon="4.63687">
        <ele>356.83</ele>
        <time>2017-03-26T10:03:05Z</time>
      </trkpt>
      <trkpt lat="45.51306" lon="4.63687">
        <ele>356.91</ele>
        <time>2017-03-26T10:03:06Z</time>
      </trkpt>
      <trkpt lat="45.51297" lon="4.63685">
        <ele>356.93</ele>
        <time>2017-03-26T10:03:07Z</time>
      </trkpt>
      <trkpt lat="45.51288" lon="4.63683">
        <ele>356.93</ele>
        <time>2017-03-26T10:03:08Z</time>
      </trkpt>
      <trkpt lat="45.51281" lon="4.63678">
        <ele>357.01</ele>
        <time>2017-03-26T10:03:09Z</time>
      </trkpt>
      <trkpt lat="45.51275" lon="4.63673">
        <ele>357.03</ele>
        <time>2017-03-26T10:03:10Z</time>
      </trkpt>
      <trkpt lat="45.51272" lon="4.63665">
        <ele>357.11</ele>
        <time>2017-03-26T10:03:11Z</time>
      </trkpt>
      <trkpt lat="45.5127" lon="4.63656">
        <ele>357.13</ele>
        <time>2017-03-26T10:03:12Z</time>
      </trkpt>
      <trkpt lat="45.51268" lon="4.63647">
        <ele>357.21</ele>
        <time>2017-03-26T10:03:13Z</time>
      </trkpt>
      <trkpt lat="45.51266" lon="4.63637">
        <ele>357.23</ele>
        <time>2017-03-26T10:03:14Z</time>
      </trkpt>
      <trkpt lat="45.51263" lon="4.63627">
        <ele>357.31</ele>
        <time>2017-03-26T10:03:15Z</time>
      </trkpt>
      <trkpt lat="45.5126" lon="4.63618">
        <ele>357.33</ele>
        <time>2017-03-26T10:03:16Z</time>
      </trkpt>
      <trkpt lat="45.51255" lon="4.63607">
        <ele>357.41</ele>
        <time>2017-03-26T10:03:17Z</time>
      </trkpt>
      <trkpt lat="45.51248" lon="4.63591">
        <ele>357.35</ele>
        <time>2017-03-26T10:03:18Z</time>
      </trkpt>
      <trkpt lat="45.51241" lon="4.63577">
        <ele>357.33</ele>
        <time>2017-03-26T10:03:19Z</time>
      </trkpt>
      <trkpt lat="45.51234" lon="4.63568">
        <ele>357.41</ele>
        <time>2017-03-26T10:03:20Z</time>
      </trkpt>
      <trkpt lat="45.51227" lon="4.63562">
        <ele>357.43</ele>
        <time>2017-03-26T10:03:21Z</time>
      </trkpt>
      <trkpt lat="45.51219" lon="4.63557">
        <ele>357.43</ele>
        <time>2017-03-26T10:03:22Z</time>
      </trkpt>
      <trkpt lat="45.51212" lon="4.63554">
        <ele>357.43</ele>
        <time>2017-03-26T10:03:23Z</time>
      </trkpt>
      <trkpt lat="45.51205" lon="4.63551">
        <ele>357.51</ele>
        <time>2017-03-26T10:03:24Z</time>
      </trkpt>
      <trkpt lat="45.51196" lon="4.6355">
        <ele>357.61</ele>
        <time>2017-03-26T10:03:25Z</time>
      </trkpt>
      <trkpt lat="45.51188" lon="4.63549">
        <ele>357.55</ele>
        <time>2017-03-26T10:03:26Z</time>
      </trkpt>
      <trkpt lat="45.51179" lon="4.63548">
        <ele>357.61</ele>
        <time>2017-03-26T10:03:27Z</time>
      </trkpt>
      <trkpt lat="45.5117" lon="4.63546">
        <ele>357.63</ele>
        <time>2017-03-26T10:03:28Z</time>
      </trkpt>
      <trkpt lat="45.51162" lon="4.63543">
        <ele>357.71</ele>
        <time>2017-03-26T10:03:29Z</time>
      </trkpt>
      <trkpt lat="45.51153" lon="4.63539">
        <ele>357.81</ele>
        <time>2017-03-26T10:03:30Z</time>
      </trkpt>
      <trkpt lat="45.51145" lon="4.63535">
        <ele>357.91</ele>
        <time>2017-03-26T10:03:31Z</time>
      </trkpt>
      <trkpt lat="45.51136" lon="4.63529">
        <ele>357.93</ele>
        <time>2017-03-26T10:03:32Z</time>
      </trkpt>
      <trkpt lat="45.51127" lon="4.63524">
        <ele>357.93</ele>
        <time>2017-03-26T10:03:33Z</time>
      </trkpt>
      <trkpt lat="45.51119" lon="4.63518">
        <ele>358.01</ele>
        <time>2017-03-26T10:03:34Z</time>
      </trkpt>
      <trkpt lat="45.5111" lon="4.63513">
        <ele>358.03</ele>
        <time>2017-03-26T10:03:35Z</time>
      </trkpt>
      <trkpt lat="45.511" lon="4.63508">
        <ele>358.11</ele>
        <time>2017-03-26T10:03:36Z</time>
      </trkpt>
      <trkpt lat="45.5109" lon="4.63503">
        <ele>358.13</ele>
        <time>2017-03-26T10:03:37Z</time>
      </trkpt>
      <trkpt lat="45.51081" lon="4.63498">
        <ele>358.21</ele>
        <time>2017-03-26T10:03:38Z</time>
      </trkpt>
      <trkpt lat="45.51071" lon="4.63493">
        <ele>358.31</ele>
        <time>2017-03-26T10:03:39Z</time>
      </trkpt>
      <trkpt lat="45.5106" lon="4.63489">
        <ele>358.41</ele>
        <time>2017-03-26T10:03:40Z</time>
      </trkpt>
      <trkpt lat="45.5105" lon="4.63485">
        <ele>358.59</ele>
        <time>2017-03-26T10:03:41Z</time>
      </trkpt>
      <trkpt lat="45.51039" lon="4.63481">
        <ele>358.7</ele>
        <time>2017-03-26T10:03:42Z</time>
      </trkpt>
      <trkpt lat="45.51028" lon="4.63476">
        <ele>358.96</ele>
        <time>2017-03-26T10:03:43Z</time>
      </trkpt>
      <trkpt lat="45.51017" lon="4.63472">
        <ele>359.26</ele>
        <time>2017-03-26T10:03:44Z</time>
      </trkpt>
      <trkpt lat="45.51005" lon="4.63468">
        <ele>359.4</ele>
        <time>2017-03-26T10:03:45Z</time>
      </trkpt>
      <trkpt lat="45.50994" lon="4.63463">
        <ele>359.66</ele>
        <time>2017-03-26T10:03:46Z</time>
      </trkpt>
      <trkpt lat="45.50983" lon="4.63458">
        <ele>359.88</ele>
        <time>2017-03-26T10:03:47Z</time>
      </trkpt>
      <trkpt lat="45.50972" lon="4.63453">
        <ele>360.32</ele>
        <time>2017-03-26T10:03:48Z</time>
      </trkpt>
      <trkpt lat="45.50962" lon="4.63447">
        <ele>360.57</ele>
        <time>2017-03-26T10:03:49Z</time>
      </trkpt>
      <trkpt lat="45.50951" lon="4.63441">
        <ele>360.94</ele>
        <time>2017-03-26T10:03:50Z</time>
      </trkpt>
      <trkpt lat="45.50942" lon="4.63436">
        <ele>361.25</ele>
        <time>2017-03-26T10:03:51Z</time>
      </trkpt>
      <trkpt lat="45.50933" lon="4.6343">
        <ele>361.47</ele>
        <time>2017-03-26T10:03:52Z</time>
      </trkpt>
      <trkpt lat="45.50924" lon="4.63425">
        <ele>361.52</ele>
        <time>2017-03-26T10:03:53Z</time>
      </trkpt>
      <trkpt lat="45.50915" lon="4.6342">
        <ele>361.69</ele>
        <time>2017-03-26T10:03:54Z</time>
      </trkpt>
      <trkpt lat="45.50906" lon="4.63417">
        <ele>361.64</ele>
        <time>2017-03-26T10:03:55Z</time>
      </trkpt>
      <trkpt lat="45.50897" lon="4.63413">
        <ele>361.55</ele>
        <time>2017-03-26T10:03:56Z</time>
      </trkpt>
      <trkpt lat="45.50888" lon="4.6341">
        <ele>361.53</ele>
        <time>2017-03-26T10:03:57Z</time>
      </trkpt>
      <trkpt lat="45.50879" lon="4.63407">
        <ele>361.53</ele>
        <time>2017-03-26T10:03:58Z</time>
      </trkpt>
      <trkpt lat="45.5087" lon="4.63405">
        <ele>361.21</ele>
        <time>2017-03-26T10:03:59Z</time>
      </trkpt>
      <trkpt lat="45.50861" lon="4.63403">
        <ele>361.07</ele>
        <time>2017-03-26T10:04:00Z</time>
      </trkpt>
      <trkpt lat="45.50853" lon="4.63401">
        <ele>360.96</ele>
        <time>2017-03-26T10:04:01Z</time>
      </trkpt>
      <trkpt lat="45.50845" lon="4.63398">
        <ele>361.1</ele>
        <time>2017-03-26T10:04:02Z</time>
      </trkpt>
      <trkpt lat="45.50838" lon="4.63396">
        <ele>360.96</ele>
        <time>2017-03-26T10:04:03Z</time>
      </trkpt>
      <trkpt lat="45.50831" lon="4.63395">
        <ele>360.54</ele>
        <time>2017-03-26T10:04:04Z</time>
      </trkpt>
      <trkpt lat="45.50824" lon="4.63394">
        <ele>360.45</ele>
        <time>2017-03-26T10:04:05Z</time>
      </trkpt>
      <trkpt lat="45.50816" lon="4.63394">
        <ele>360.43</ele>
        <time>2017-03-26T10:04:06Z</time>
      </trkpt>
      <trkpt lat="45.50808" lon="4.63394">
        <ele>360.27</ele>
        <time>2017-03-26T10:04:07Z</time>
      </trkpt>
      <trkpt lat="45.50802" lon="4.63395">
        <ele>360.4</ele>
        <time>2017-03-26T10:04:08Z</time>
      </trkpt>
      <trkpt lat="45.50794" lon="4.63395">
        <ele>360.5</ele>
        <time>2017-03-26T10:04:09Z</time>
      </trkpt>
      <trkpt lat="45.50786" lon="4.63395">
        <ele>360.44</ele>
        <time>2017-03-26T10:04:10Z</time>
      </trkpt>
      <trkpt lat="45.50778" lon="4.63396">
        <ele>360.43</ele>
        <time>2017-03-26T10:04:11Z</time>
      </trkpt>
      <trkpt lat="45.5077" lon="4.63397">
        <ele>360.35</ele>
        <time>2017-03-26T10:04:12Z</time>
      </trkpt>
      <trkpt lat="45.50763" lon="4.63397">
        <ele>360.25</ele>
        <time>2017-03-26T10:04:13Z</time>
      </trkpt>
      <trkpt lat="45.50756" lon="4.63398">
        <ele>360.23</ele>
        <time>2017-03-26T10:04:14Z</time>
      </trkpt>
      <trkpt lat="45.50749" lon="4.63398">
        <ele>360.31</ele>
        <time>2017-03-26T10:04:15Z</time>
      </trkpt>
      <trkpt lat="45.50743" lon="4.63398">
        <ele>360.33</ele>
        <time>2017-03-26T10:04:16Z</time>
      </trkpt>
      <trkpt lat="45.50737" lon="4.63398">
        <ele>360.33</ele>
        <time>2017-03-26T10:04:17Z</time>
      </trkpt>
      <trkpt lat="45.50731" lon="4.63399">
        <ele>360.25</ele>
        <time>2017-03-26T10:04:18Z</time>
      </trkpt>
      <trkpt lat="45.50725" lon="4.63399">
        <ele>360.31</ele>
        <time>2017-03-26T10:04:19Z</time>
      </trkpt>
      <trkpt lat="45.50721" lon="4.634">
        <ele>360.25</ele>
        <time>2017-03-26T10:04:20Z</time>
      </trkpt>
      <trkpt lat="45.50716" lon="4.634">
        <ele>360.07</ele>
        <time>2017-03-26T10:04:21Z</time>
      </trkpt>
      <trkpt lat="45.50712" lon="4.634">
        <ele>360.04</ele>
        <time>2017-03-26T10:04:22Z</time>
      </trkpt>
      <trkpt lat="45.5071" lon="4.63399">
        <ele>359.95</ele>
        <time>2017-03-26T10:04:23Z</time>
      </trkpt>
      <trkpt lat="45.5071" lon="4.63399">
        <ele>360.17</ele>
        <time>2017-03-26T10:04:24Z</time>
      </trkpt>
      <trkpt lat="45.50711" lon="4.63399">
        <ele>360.3</ele>
        <time>2017-03-26T10:04:25Z</time>
      </trkpt>
      <trkpt lat="45.50711" lon="4.63399">
        <ele>360.32</ele>
        <time>2017-03-26T10:04:26Z</time>
      </trkpt>
      <trkpt lat="45.50712" lon="4.63399">
        <ele>360.41</ele>
        <time>2017-03-26T10:04:27Z</time>
      </trkpt>
      <trkpt lat="45.50712" lon="4.63399">
        <ele>360.43</ele>
        <time>2017-03-26T10:04:28Z</time>
      </trkpt>
      <trkpt lat="45.50712" lon="4.63399">
        <ele>360.43</ele>
        <time>2017-03-26T10:04:29Z</time>
      </trkpt>
      <trkpt lat="45.50712" lon="4.63399">
        <ele>360.43</ele>
        <time>2017-03-26T10:04:30Z</time>
      </trkpt>
      <trkpt lat="45.50712" lon="4.63399">
        <ele>360.43</ele>
        <time>2017-03-26T10:04:31Z</time>
      </trkpt>
      <trkpt lat="45.50712" lon="4.63399">
        <ele>360.43</ele>
        <time>2017-03-26T10:04:32Z</time>
      </trkpt>
      <trkpt lat="45.50712" lon="4.63399">
        <ele>360.43</ele>
        <time>2017-03-26T10:04:33Z</time>
      </trkpt>
      <trkpt lat="45.50712" lon="4.63399">
        <ele>360.43</ele>
        <time>2017-03-26T10:04:34Z</time>
      </trkpt>
      <trkpt lat="45.50712" lon="4.63399">
        <ele>360.43</ele>
        <time>2017-03-26T10:04:35Z</time>
      </trkpt>
      <trkpt lat="45.50712" lon="4.63399">
        <ele>360.43</ele>
        <time>2017-03-26T10:04:36Z</time>
      </trkpt>
      <trkpt lat="45.50712" lon="4.63399">
        <ele>360.43</ele>
        <time>2017-03-26T10:04:37Z</time>
      </trkpt>
      <trkpt lat="45.50712" lon="4.63399">
        <ele>360.43</ele>
        <time>2017-03-26T10:04:38Z</time>
      </trkpt>
      <trkpt lat="45.50712" lon="4.63399">
        <ele>360.43</ele>
        <time>2017-03-26T10:04:39Z</time>
      </trkpt>
      <trkpt lat="45.50712" lon="4.63399">
        <ele>360.43</ele>
        <time>2017-03-26T10:04:40Z</time>
      </trkpt>
      <trkpt lat="45.50712" lon="4.63399">
        <ele>360.43</ele>
        <time>2017-03-26T10:04:41Z</time>
      </trkpt>
      <trkpt lat="45.50712" lon="4.63399">
        <ele>360.43</ele>
        <time>2017-03-26T10:04:42Z</time>
      </trkpt>
      <trkpt lat="45.50712" lon="4.63399">
        <ele>360.43</ele>
        <time>2017-03-26T10:04:43Z</time>
      </trkpt>
      <trkpt lat="45.50712" lon="4.63399">
        <ele>360.43</ele>
        <time>2017-03-26T10:04:44Z</time>
      </trkpt>
      <trkpt lat="45.50712" lon="4.63399">
        <ele>360.43</ele>
        <time>2017-03-26T10:04:45Z</time>
      </trkpt>
      <trkpt lat="45.50712" lon="4.63399">
        <ele>360.43</ele>
        <time>2017-03-26T10:04:46Z</time>
      </trkpt>
      <trkpt lat="45.50712" lon="4.63399">
        <ele>360.43</ele>
        <time>2017-03-26T10:04:47Z</time>
      </trkpt>
      <trkpt lat="45.50712" lon="4.63399">
        <ele>360.43</ele>
        <time>2017-03-26T10:04:48Z</time>
      </trkpt>
      <trkpt lat="45.50712" lon="4.63399">
        <ele>360.43</ele>
        <time>2017-03-26T10:04:49Z</time>
      </trkpt>
      <trkpt lat="45.50712" lon="4.63399">
        <ele>360.43</ele>
        <time>2017-03-26T10:04:50Z</time>
      </trkpt>
      <trkpt lat="45.50712" lon="4.63399">
        <ele>360.43</ele>
        <time>2017-03-26T10:04:51Z</time>
      </trkpt>
      <trkpt lat="45.50712" lon="4.63399">
        <ele>360.43</ele>
        <time>2017-03-26T10:04:52Z</time>
      </trkpt>
      <trkpt lat="45.50709" lon="4.63399">
        <ele>360.43</ele>
        <time>2017-03-26T10:04:53Z</time>
      </trkpt>
      <trkpt lat="45.50704" lon="4.634">
        <ele>360.59</ele>
        <time>2017-03-26T10:04:54Z</time>
      </trkpt>
      <trkpt lat="45.50698" lon="4.634">
        <ele>360.7</ele>
        <time>2017-03-26T10:04:55Z</time>
      </trkpt>
      <trkpt lat="45.50693" lon="4.63401">
        <ele>360.88</ele>
        <time>2017-03-26T10:04:56Z</time>
      </trkpt>
      <trkpt lat="45.50687" lon="4.63401">
        <ele>361</ele>
        <time>2017-03-26T10:04:57Z</time>
      </trkpt>
      <trkpt lat="45.50682" lon="4.63401">
        <ele>361.18</ele>
        <time>2017-03-26T10:04:58Z</time>
      </trkpt>
      <trkpt lat="45.50676" lon="4.634">
        <ele>361.38</ele>
        <time>2017-03-26T10:04:59Z</time>
      </trkpt>
      <trkpt lat="45.5067" lon="4.634">
        <ele>361.5</ele>
        <time>2017-03-26T10:05:00Z</time>
      </trkpt>
      <trkpt lat="45.50666" lon="4.63401">
        <ele>361.68</ele>
        <time>2017-03-26T10:05:01Z</time>
      </trkpt>
      <trkpt lat="45.5066" lon="4.63403">
        <ele>361.88</ele>
        <time>2017-03-26T10:05:02Z</time>
      </trkpt>
      <trkpt lat="45.50655" lon="4.63405">
        <ele>362</ele>
        <time>2017-03-26T10:05:03Z</time>
      </trkpt>
      <trkpt lat="45.5065" lon="4.63408">
        <ele>362.18</ele>
        <time>2017-03-26T10:05:04Z</time>
      </trkpt>
      <trkpt lat="45.50645" lon="4.63411">
        <ele>362.3</ele>
        <time>2017-03-26T10:05:05Z</time>
      </trkpt>
      <trkpt lat="45.5064" lon="4.63414">
        <ele>362.48</ele>
        <time>2017-03-26T10:05:06Z</time>
      </trkpt>
      <trkpt lat="45.50635" lon="4.63418">
        <ele>362.6</ele>
        <time>2017-03-26T10:05:07Z</time>
      </trkpt>
      <trkpt lat="45.5063" lon="4.63423">
        <ele>362.78</ele>
        <time>2017-03-26T10:05:08Z</time>
      </trkpt>
      <trkpt lat="45.50625" lon="4.63429">
        <ele>362.98</ele>
        <time>2017-03-26T10:05:09Z</time>
      </trkpt>
      <trkpt lat="45.50622" lon="4.63435">
        <ele>363.1</ele>
        <time>2017-03-26T10:05:10Z</time>
      </trkpt>
      <trkpt lat="45.50618" lon="4.63443">
        <ele>363.28</ele>
        <time>2017-03-26T10:05:11Z</time>
      </trkpt>
      <trkpt lat="45.50614" lon="4.63451">
        <ele>363.4</ele>
        <time>2017-03-26T10:05:12Z</time>
      </trkpt>
      <trkpt lat="45.50611" lon="4.63459">
        <ele>363.58</ele>
        <time>2017-03-26T10:05:13Z</time>
      </trkpt>
      <trkpt lat="45.50608" lon="4.63467">
        <ele>363.7</ele>
        <time>2017-03-26T10:05:14Z</time>
      </trkpt>
      <trkpt lat="45.50605" lon="4.63475">
        <ele>363.88</ele>
        <time>2017-03-26T10:05:15Z</time>
      </trkpt>
      <trkpt lat="45.50602" lon="4.63483">
        <ele>364</ele>
        <time>2017-03-26T10:05:16Z</time>
      </trkpt>
      <trkpt lat="45.506" lon="4.63492">
        <ele>364.18</ele>
        <time>2017-03-26T10:05:17Z</time>
      </trkpt>
      <trkpt lat="45.50598" lon="4.635">
        <ele>364.3</ele>
        <time>2017-03-26T10:05:18Z</time>
      </trkpt>
      <trkpt lat="45.50596" lon="4.6351">
        <ele>364.4</ele>
        <time>2017-03-26T10:05:19Z</time>
      </trkpt>
      <trkpt lat="45.50595" lon="4.6352">
        <ele>364.58</ele>
        <time>2017-03-26T10:05:20Z</time>
      </trkpt>
      <trkpt lat="45.50594" lon="4.6353">
        <ele>364.7</ele>
        <time>2017-03-26T10:05:21Z</time>
      </trkpt>
      <trkpt lat="45.50594" lon="4.6354">
        <ele>364.88</ele>
        <time>2017-03-26T10:05:22Z</time>
      </trkpt>
      <trkpt lat="45.50593" lon="4.63549">
        <ele>365</ele>
        <time>2017-03-26T10:05:23Z</time>
      </trkpt>
      <trkpt lat="45.50592" lon="4.63558">
        <ele>365.1</ele>
        <time>2017-03-26T10:05:24Z</time>
      </trkpt>
      <trkpt lat="45.50591" lon="4.63566">
        <ele>365.28</ele>
        <time>2017-03-26T10:05:25Z</time>
      </trkpt>
      <trkpt lat="45.5059" lon="4.63575">
        <ele>365.4</ele>
        <time>2017-03-26T10:05:26Z</time>
      </trkpt>
      <trkpt lat="45.50589" lon="4.63583">
        <ele>365.5</ele>
        <time>2017-03-26T10:05:27Z</time>
      </trkpt>
      <trkpt lat="45.50589" lon="4.63591">
        <ele>365.68</ele>
        <time>2017-03-26T10:05:28Z</time>
      </trkpt>
      <trkpt lat="45.50589" lon="4.63598">
        <ele>365.8</ele>
        <time>2017-03-26T10:05:29Z</time>
      </trkpt>
      <trkpt lat="45.5059" lon="4.63605">
        <ele>365.98</ele>
        <time>2017-03-26T10:05:30Z</time>
      </trkpt>
      <trkpt lat="45.50591" lon="4.63612">
        <ele>366.1</ele>
        <time>2017-03-26T10:05:31Z</time>
      </trkpt>
      <trkpt lat="45.50592" lon="4.63619">
        <ele>366.28</ele>
        <time>2017-03-26T10:05:32Z</time>
      </trkpt>
      <trkpt lat="45.50594" lon="4.63625">
        <ele>366.4</ele>
        <time>2017-03-26T10:05:33Z</time>
      </trkpt>
      <trkpt lat="45.50596" lon="4.63632">
        <ele>366.5</ele>
        <time>2017-03-26T10:05:34Z</time>
      </trkpt>
      <trkpt lat="45.50599" lon="4.63637">
        <ele>366.68</ele>
        <time>2017-03-26T10:05:35Z</time>
      </trkpt>
      <trkpt lat="45.50601" lon="4.63642">
        <ele>366.8</ele>
        <time>2017-03-26T10:05:36Z</time>
      </trkpt>
      <trkpt lat="45.50604" lon="4.63647">
        <ele>366.9</ele>
        <time>2017-03-26T10:05:37Z</time>
      </trkpt>
      <trkpt lat="45.50608" lon="4.63653">
        <ele>367.08</ele>
        <time>2017-03-26T10:05:38Z</time>
      </trkpt>
      <trkpt lat="45.50611" lon="4.63658">
        <ele>367.2</ele>
        <time>2017-03-26T10:05:39Z</time>
      </trkpt>
      <trkpt lat="45.50613" lon="4.63663">
        <ele>367.3</ele>
        <time>2017-03-26T10:05:40Z</time>
      </trkpt>
      <trkpt lat="45.50616" lon="4.6367">
        <ele>367.48</ele>
        <time>2017-03-26T10:05:41Z</time>
      </trkpt>
      <trkpt lat="45.50618" lon="4.63676">
        <ele>367.6</ele>
        <time>2017-03-26T10:05:42Z</time>
      </trkpt>
      <trkpt lat="45.50619" lon="4.63683">
        <ele>367.78</ele>
        <time>2017-03-26T10:05:43Z</time>
      </trkpt>
      <trkpt lat="45.50619" lon="4.63689">
        <ele>367.9</ele>
        <time>2017-03-26T10:05:44Z</time>
      </trkpt>
      <trkpt lat="45.50618" lon="4.63694">
        <ele>368</ele>
        <time>2017-03-26T10:05:45Z</time>
      </trkpt>
      <trkpt lat="45.50617" lon="4.63697">
        <ele>368.18</ele>
        <time>2017-03-26T10:05:46Z</time>
      </trkpt>
      <trkpt lat="45.50616" lon="4.63699">
        <ele>368.3</ele>
        <time>2017-03-26T10:05:47Z</time>
      </trkpt>
      <trkpt lat="45.50616" lon="4.63701">
        <ele>368.4</ele>
        <time>2017-03-26T10:05:48Z</time>
      </trkpt>
      <trkpt lat="45.50616" lon="4.63701">
        <ele>368.5</ele>
        <time>2017-03-26T10:05:49Z</time>
      </trkpt>
      <trkpt lat="45.50616" lon="4.63702">
        <ele>368.6</ele>
        <time>2017-03-26T10:05:50Z</time>
      </trkpt>
      <trkpt lat="45.50615" lon="4.63702">
        <ele>368.7</ele>
        <time>2017-03-26T10:05:51Z</time>
      </trkpt>
      <trkpt lat="45.50615" lon="4.63702">
        <ele>368.73</ele>
        <time>2017-03-26T10:05:52Z</time>
      </trkpt>
      <trkpt lat="45.50615" lon="4.63702">
        <ele>368.73</ele>
        <time>2017-03-26T10:05:53Z</time>
      </trkpt>
      <trkpt lat="45.50615" lon="4.63702">
        <ele>368.73</ele>
        <time>2017-03-26T10:05:54Z</time>
      </trkpt>
      <trkpt lat="45.50615" lon="4.63702">
        <ele>368.73</ele>
        <time>2017-03-26T10:05:55Z</time>
      </trkpt>
      <trkpt lat="45.50615" lon="4.63702">
        <ele>368.73</ele>
        <time>2017-03-26T10:05:56Z</time>
      </trkpt>
      <trkpt lat="45.50615" lon="4.63702">
        <ele>368.73</ele>
        <time>2017-03-26T10:05:57Z</time>
      </trkpt>
      <trkpt lat="45.50615" lon="4.63702">
        <ele>368.73</ele>
        <time>2017-03-26T10:05:58Z</time>
      </trkpt>
      <trkpt lat="45.50615" lon="4.63702">
        <ele>368.73</ele>
        <time>2017-03-26T10:05:59Z</time>
      </trkpt>
      <trkpt lat="45.50615" lon="4.63702">
        <ele>368.73</ele>
        <time>2017-03-26T10:06:00Z</time>
      </trkpt>
      <trkpt lat="45.50615" lon="4.63702">
        <ele>368.73</ele>
        <time>2017-03-26T10:06:01Z</time>
      </trkpt>
      <trkpt lat="45.50615" lon="4.63702">
        <ele>368.73</ele>
        <time>2017-03-26T10:06:02Z</time>
      </trkpt>
      <trkpt lat="45.50615" lon="4.63702">
        <ele>368.73</ele>
        <time>2017-03-26T10:06:03Z</time>
      </trkpt>
      <trkpt lat="45.50615" lon="4.63702">
        <ele>368.73</ele>
        <time>2017-03-26T10:06:04Z</time>
      </trkpt>
      <trkpt lat="45.50615" lon="4.63702">
        <ele>368.73</ele>
        <time>2017-03-26T10:06:05Z</time>
      </trkpt>
      <trkpt lat="45.50615" lon="4.63702">
        <ele>368.73</ele>
        <time>2017-03-26T10:06:06Z</time>
      </trkpt>
      <trkpt lat="45.50615" lon="4.63702">
        <ele>368.73</ele>
        <time>2017-03-26T10:06:07Z</time>
      </trkpt>
      <trkpt lat="45.50615" lon="4.63702">
        <ele>368.73</ele>
        <time>2017-03-26T10:06:08Z</time>
      </trkpt>
      <trkpt lat="45.50615" lon="4.63702">
        <ele>368.73</ele>
        <time>2017-03-26T10:06:09Z</time>
      </trkpt>
      <trkpt lat="45.50615" lon="4.63702">
        <ele>368.73</ele>
        <time>2017-03-26T10:06:10Z</time>
      </trkpt>
      <trkpt lat="45.50615" lon="4.63702">
        <ele>368.73</ele>
        <time>2017-03-26T10:06:11Z</time>
      </trkpt>
      <trkpt lat="45.50615" lon="4.63702">
        <ele>368.73</ele>
        <time>2017-03-26T10:06:12Z</time>
      </trkpt>
      <trkpt lat="45.5061" lon="4.6371">
        <ele>368.57</ele>
        <time>2017-03-26T10:06:13Z</time>
      </trkpt>
      <trkpt lat="45.50607" lon="4.63714">
        <ele>368.54</ele>
        <time>2017-03-26T10:06:14Z</time>
      </trkpt>
      <trkpt lat="45.50603" lon="4.63719">
        <ele>368.45</ele>
        <time>2017-03-26T10:06:15Z</time>
      </trkpt>
      <trkpt lat="45.506" lon="4.63723">
        <ele>368.43</ele>
        <time>2017-03-26T10:06:16Z</time>
      </trkpt>
      <trkpt lat="45.50596" lon="4.63728">
        <ele>368.43</ele>
        <time>2017-03-26T10:06:17Z</time>
      </trkpt>
      <trkpt lat="45.50592" lon="4.63733">
        <ele>368.43</ele>
        <time>2017-03-26T10:06:18Z</time>
      </trkpt>
      <trkpt lat="45.50588" lon="4.63738">
        <ele>368.35</ele>
        <time>2017-03-26T10:06:19Z</time>
      </trkpt>
      <trkpt lat="45.50585" lon="4.63743">
        <ele>368.33</ele>
        <time>2017-03-26T10:06:20Z</time>
      </trkpt>
      <trkpt lat="45.50583" lon="4.63746">
        <ele>368.33</ele>
        <time>2017-03-26T10:06:21Z</time>
      </trkpt>
      <trkpt lat="45.50581" lon="4.63749">
        <ele>368.33</ele>
        <time>2017-03-26T10:06:22Z</time>
      </trkpt>
      <trkpt lat="45.50579" lon="4.63752">
        <ele>368.33</ele>
        <time>2017-03-26T10:06:23Z</time>
      </trkpt>
      <trkpt lat="45.50577" lon="4.63755">
        <ele>368.25</ele>
        <time>2017-03-26T10:06:24Z</time>
      </trkpt>
      <trkpt lat="45.50575" lon="4.63758">
        <ele>368.23</ele>
        <time>2017-03-26T10:06:25Z</time>
      </trkpt>
      <trkpt lat="45.50573" lon="4.63761">
        <ele>368.23</ele>
        <time>2017-03-26T10:06:26Z</time>
      </trkpt>
      <trkpt lat="45.50571" lon="4.63764">
        <ele>368.23</ele>
        <time>2017-03-26T10:06:27Z</time>
      </trkpt>
      <trkpt lat="45.50569" lon="4.63767">
        <ele>368.15</ele>
        <time>2017-03-26T10:06:28Z</time>
      </trkpt>
      <trkpt lat="45.50569" lon="4.63771">
        <ele>368.13</ele>
        <time>2017-03-26T10:06:29Z</time>
      </trkpt>
      <trkpt lat="45.50567" lon="4.63776">
        <ele>368.13</ele>
        <time>2017-03-26T10:06:30Z</time>
      </trkpt>
      <trkpt lat="45.50567" lon="4.63781">
        <ele>368.05</ele>
        <time>2017-03-26T10:06:31Z</time>
      </trkpt>
      <trkpt lat="45.50567" lon="4.63786">
        <ele>368.03</ele>
        <time>2017-03-26T10:06:32Z</time>
      </trkpt>
      <trkpt lat="45.50566" lon="4.63793">
        <ele>367.95</ele>
        <time>2017-03-26T10:06:33Z</time>
      </trkpt>
      <trkpt lat="45.50565" lon="4.638">
        <ele>367.93</ele>
        <time>2017-03-26T10:06:34Z</time>
      </trkpt>
      <trkpt lat="45.50564" lon="4.63809">
        <ele>367.93</ele>
        <time>2017-03-26T10:06:35Z</time>
      </trkpt>
      <trkpt lat="45.50562" lon="4.63819">
        <ele>367.93</ele>
        <time>2017-03-26T10:06:36Z</time>
      </trkpt>
      <trkpt lat="45.50563" lon="4.63829">
        <ele>367.85</ele>
        <time>2017-03-26T10:06:37Z</time>
      </trkpt>
      <trkpt lat="45.50562" lon="4.63839">
        <ele>367.83</ele>
        <time>2017-03-26T10:06:38Z</time>
      </trkpt>
      <trkpt lat="45.50564" lon="4.6385">
        <ele>367.83</ele>
        <time>2017-03-26T10:06:39Z</time>
      </trkpt>
      <trkpt lat="45.50564" lon="4.6386">
        <ele>367.83</ele>
        <time>2017-03-26T10:06:40Z</time>
      </trkpt>
      <trkpt lat="45.50563" lon="4.63871">
        <ele>367.83</ele>
        <time>2017-03-26T10:06:41Z</time>
      </trkpt>
      <trkpt lat="45.50562" lon="4.63881">
        <ele>367.75</ele>
        <time>2017-03-26T10:06:42Z</time>
      </trkpt>
      <trkpt lat="45.50562" lon="4.6389">
        <ele>367.73</ele>
        <time>2017-03-26T10:06:43Z</time>
      </trkpt>
      <trkpt lat="45.50562" lon="4.63898">
        <ele>367.73</ele>
        <time>2017-03-26T10:06:44Z</time>
      </trkpt>
      <trkpt lat="45.50562" lon="4.63905">
        <ele>367.57</ele>
        <time>2017-03-26T10:06:45Z</time>
      </trkpt>
      <trkpt lat="45.50562" lon="4.63908">
        <ele>367.54</ele>
        <time>2017-03-26T10:06:46Z</time>
      </trkpt>
      <trkpt lat="45.50563" lon="4.63911">
        <ele>367.53</ele>
        <time>2017-03-26T10:06:47Z</time>
      </trkpt>
      <trkpt lat="45.50563" lon="4.63911">
        <ele>367.37</ele>
        <time>2017-03-26T10:06:48Z</time>
      </trkpt>
      <trkpt lat="45.50563" lon="4.63911">
        <ele>367.1</ele>
        <time>2017-03-26T10:06:49Z</time>
      </trkpt>
      <trkpt lat="45.50563" lon="4.63912">
        <ele>366.88</ele>
        <time>2017-03-26T10:06:50Z</time>
      </trkpt>
      <trkpt lat="45.50563" lon="4.63912">
        <ele>366.84</ele>
        <time>2017-03-26T10:06:51Z</time>
      </trkpt>
      <trkpt lat="45.50563" lon="4.63912">
        <ele>366.83</ele>
        <time>2017-03-26T10:06:52Z</time>
      </trkpt>
      <trkpt lat="45.50563" lon="4.63912">
        <ele>366.83</ele>
        <time>2017-03-26T10:06:53Z</time>
      </trkpt>
      <trkpt lat="45.50563" lon="4.63912">
        <ele>366.83</ele>
        <time>2017-03-26T10:06:54Z</time>
      </trkpt>
      <trkpt lat="45.50563" lon="4.63912">
        <ele>366.83</ele>
        <time>2017-03-26T10:06:55Z</time>
      </trkpt>
      <trkpt lat="45.50563" lon="4.63912">
        <ele>366.83</ele>
        <time>2017-03-26T10:06:56Z</time>
      </trkpt>
      <trkpt lat="45.50563" lon="4.63912">
        <ele>366.83</ele>
        <time>2017-03-26T10:06:57Z</time>
      </trkpt>
      <trkpt lat="45.50563" lon="4.63912">
        <ele>366.83</ele>
        <time>2017-03-26T10:06:58Z</time>
      </trkpt>
      <trkpt lat="45.50563" lon="4.63912">
        <ele>366.83</ele>
        <time>2017-03-26T10:06:59Z</time>
      </trkpt>
      <trkpt lat="45.50563" lon="4.63912">
        <ele>366.83</ele>
        <time>2017-03-26T10:07:00Z</time>
      </trkpt>
      <trkpt lat="45.50563" lon="4.63912">
        <ele>366.83</ele>
        <time>2017-03-26T10:07:01Z</time>
      </trkpt>
      <trkpt lat="45.50563" lon="4.63912">
        <ele>366.83</ele>
        <time>2017-03-26T10:07:02Z</time>
      </trkpt>
      <trkpt lat="45.50563" lon="4.63912">
        <ele>366.83</ele>
        <time>2017-03-26T10:07:03Z</time>
      </trkpt>
      <trkpt lat="45.50563" lon="4.63912">
        <ele>366.83</ele>
        <time>2017-03-26T10:07:04Z</time>
      </trkpt>
      <trkpt lat="45.50563" lon="4.63912">
        <ele>366.83</ele>
        <time>2017-03-26T10:07:05Z</time>
      </trkpt>
      <trkpt lat="45.50563" lon="4.63918">
        <ele>366.35</ele>
        <time>2017-03-26T10:07:06Z</time>
      </trkpt>
      <trkpt lat="45.50564" lon="4.63922">
        <ele>366.25</ele>
        <time>2017-03-26T10:07:07Z</time>
      </trkpt>
      <trkpt lat="45.50564" lon="4.63924">
        <ele>366.31</ele>
        <time>2017-03-26T10:07:08Z</time>
      </trkpt>
      <trkpt lat="45.50566" lon="4.63929">
        <ele>366.33</ele>
        <time>2017-03-26T10:07:09Z</time>
      </trkpt>
      <trkpt lat="45.50568" lon="4.63935">
        <ele>366.33</ele>
        <time>2017-03-26T10:07:10Z</time>
      </trkpt>
      <trkpt lat="45.50569" lon="4.63939">
        <ele>366.33</ele>
        <time>2017-03-26T10:07:11Z</time>
      </trkpt>
      <trkpt lat="45.50569" lon="4.63943">
        <ele>366.41</ele>
        <time>2017-03-26T10:07:12Z</time>
      </trkpt>
      <trkpt lat="45.5057" lon="4.63946">
        <ele>366.43</ele>
        <time>2017-03-26T10:07:13Z</time>
      </trkpt>
      <trkpt lat="45.5057" lon="4.63949">
        <ele>366.43</ele>
        <time>2017-03-26T10:07:14Z</time>
      </trkpt>
      <trkpt lat="45.50571" lon="4.63953">
        <ele>366.35</ele>
        <time>2017-03-26T10:07:15Z</time>
      </trkpt>
      <trkpt lat="45.50571" lon="4.63955">
        <ele>366.33</ele>
        <time>2017-03-26T10:07:16Z</time>
      </trkpt>
      <trkpt lat="45.50571" lon="4.63957">
        <ele>366.33</ele>
        <time>2017-03-26T10:07:17Z</time>
      </trkpt>
      <trkpt lat="45.50572" lon="4.63959">
        <ele>366.33</ele>
        <time>2017-03-26T10:07:18Z</time>
      </trkpt>
      <trkpt lat="45.50572" lon="4.6396">
        <ele>366.25</ele>
        <time>2017-03-26T10:07:19Z</time>
      </trkpt>
      <trkpt lat="45.50571" lon="4.63961">
        <ele>366.23</ele>
        <time>2017-03-26T10:07:20Z</time>
      </trkpt>
      <trkpt lat="45.50571" lon="4.63962">
        <ele>366.23</ele>
        <time>2017-03-26T10:07:21Z</time>
      </trkpt>
      <trkpt lat="45.50571" lon="4.63962">
        <ele>366.23</ele>
        <time>2017-03-26T10:07:22Z</time>
      </trkpt>
      <trkpt lat="45.50571" lon="4.63962">
        <ele>366.23</ele>
        <time>2017-03-26T10:07:23Z</time>
      </trkpt>
      <trkpt lat="45.50571" lon="4.63962">
        <ele>366.23</ele>
        <time>2017-03-26T10:07:24Z</time>
      </trkpt>
      <trkpt lat="45.50571" lon="4.63962">
        <ele>366.23</ele>
        <time>2017-03-26T10:07:25Z</time>
      </trkpt>
      <trkpt lat="45.50571" lon="4.63962">
        <ele>366.23</ele>
        <time>2017-03-26T10:07:26Z</time>
      </trkpt>
      <trkpt lat="45.50571" lon="4.63962">
        <ele>366.23</ele>
        <time>2017-03-26T10:07:27Z</time>
      </trkpt>
      <trkpt lat="45.50571" lon="4.63962">
        <ele>366.23</ele>
        <time>2017-03-26T10:07:28Z</time>
      </trkpt>
      <trkpt lat="45.50571" lon="4.63962">
        <ele>366.23</ele>
        <time>2017-03-26T10:07:29Z</time>
      </trkpt>
      <trkpt lat="45.50571" lon="4.63962">
        <ele>366.23</ele>
        <time>2017-03-26T10:07:30Z</time>
      </trkpt>
      <trkpt lat="45.50562" lon="4.63965">
        <ele>366.07</ele>
        <time>2017-03-26T10:07:31Z</time>
      </trkpt>
      <trkpt lat="45.50563" lon="4.63966">
        <ele>366.2</ele>
        <time>2017-03-26T10:07:32Z</time>
      </trkpt>
      <trkpt lat="45.50562" lon="4.63965">
        <ele>366.22</ele>
        <time>2017-03-26T10:07:33Z</time>
      </trkpt>
      <trkpt lat="45.50562" lon="4.63965">
        <ele>366.23</ele>
        <time>2017-03-26T10:07:34Z</time>
      </trkpt>
      <trkpt lat="45.50562" lon="4.63965">
        <ele>366.23</ele>
        <time>2017-03-26T10:07:35Z</time>
      </trkpt>
      <trkpt lat="45.50562" lon="4.63965">
        <ele>366.23</ele>
        <time>2017-03-26T10:07:36Z</time>
      </trkpt>
      <trkpt lat="45.50562" lon="4.63965">
        <ele>366.23</ele>
        <time>2017-03-26T10:07:37Z</time>
      </trkpt>
      <trkpt lat="45.50562" lon="4.63965">
        <ele>366.23</ele>
        <time>2017-03-26T10:07:38Z</time>
      </trkpt>
      <trkpt lat="45.50559" lon="4.6396">
        <ele>366.23</ele>
        <time>2017-03-26T10:07:39Z</time>
      </trkpt>
      <trkpt lat="45.50558" lon="4.63958">
        <ele>366.23</ele>
        <time>2017-03-26T10:07:40Z</time>
      </trkpt>
      <trkpt lat="45.50557" lon="4.63954">
        <ele>366.23</ele>
        <time>2017-03-26T10:07:41Z</time>
      </trkpt>
      <trkpt lat="45.50557" lon="4.63951">
        <ele>366.23</ele>
        <time>2017-03-26T10:07:42Z</time>
      </trkpt>
      <trkpt lat="45.50556" lon="4.63947">
        <ele>366.23</ele>
        <time>2017-03-26T10:07:43Z</time>
      </trkpt>
      <trkpt lat="45.50555" lon="4.63943">
        <ele>366.23</ele>
        <time>2017-03-26T10:07:44Z</time>
      </trkpt>
      <trkpt lat="45.50553" lon="4.6394">
        <ele>366.15</ele>
        <time>2017-03-26T10:07:45Z</time>
      </trkpt>
      <trkpt lat="45.50552" lon="4.63937">
        <ele>366.13</ele>
        <time>2017-03-26T10:07:46Z</time>
      </trkpt>
      <trkpt lat="45.50552" lon="4.63935">
        <ele>366.13</ele>
        <time>2017-03-26T10:07:47Z</time>
      </trkpt>
      <trkpt lat="45.50551" lon="4.63933">
        <ele>366.13</ele>
        <time>2017-03-26T10:07:48Z</time>
      </trkpt>
      <trkpt lat="45.5055" lon="4.6393">
        <ele>366.13</ele>
        <time>2017-03-26T10:07:49Z</time>
      </trkpt>
      <trkpt lat="45.50549" lon="4.63928">
        <ele>366.13</ele>
        <time>2017-03-26T10:07:50Z</time>
      </trkpt>
      <trkpt lat="45.50547" lon="4.63924">
        <ele>366.13</ele>
        <time>2017-03-26T10:07:51Z</time>
      </trkpt>
      <trkpt lat="45.50546" lon="4.63921">
        <ele>366.13</ele>
        <time>2017-03-26T10:07:52Z</time>
      </trkpt>
      <trkpt lat="45.50544" lon="4.63918">
        <ele>366.13</ele>
        <time>2017-03-26T10:07:53Z</time>
      </trkpt>
      <trkpt lat="45.50542" lon="4.63915">
        <ele>366.13</ele>
        <time>2017-03-26T10:07:54Z</time>
      </trkpt>
      <trkpt lat="45.50541" lon="4.63912">
        <ele>366.13</ele>
        <time>2017-03-26T10:07:55Z</time>
      </trkpt>
      <trkpt lat="45.5054" lon="4.63908">
        <ele>366.13</ele>
        <time>2017-03-26T10:07:56Z</time>
      </trkpt>
      <trkpt lat="45.50539" lon="4.63905">
        <ele>366.13</ele>
        <time>2017-03-26T10:07:57Z</time>
      </trkpt>
      <trkpt lat="45.50537" lon="4.63901">
        <ele>366.21</ele>
        <time>2017-03-26T10:07:58Z</time>
      </trkpt>
      <trkpt lat="45.50536" lon="4.63896">
        <ele>366.23</ele>
        <time>2017-03-26T10:07:59Z</time>
      </trkpt>
      <trkpt lat="45.50536" lon="4.63891">
        <ele>366.23</ele>
        <time>2017-03-26T10:08:00Z</time>
      </trkpt>
      <trkpt lat="45.50535" lon="4.63885">
        <ele>366.23</ele>
        <time>2017-03-26T10:08:01Z</time>
      </trkpt>
      <trkpt lat="45.50534" lon="4.6388">
        <ele>366.23</ele>
        <time>2017-03-26T10:08:02Z</time>
      </trkpt>
      <trkpt lat="45.50533" lon="4.63874">
        <ele>366.23</ele>
        <time>2017-03-26T10:08:03Z</time>
      </trkpt>
      <trkpt lat="45.50533" lon="4.63869">
        <ele>366.23</ele>
        <time>2017-03-26T10:08:04Z</time>
      </trkpt>
      <trkpt lat="45.50532" lon="4.63863">
        <ele>366.23</ele>
        <time>2017-03-26T10:08:05Z</time>
      </trkpt>
      <trkpt lat="45.50531" lon="4.63857">
        <ele>366.23</ele>
        <time>2017-03-26T10:08:06Z</time>
      </trkpt>
      <trkpt lat="45.5053" lon="4.6385">
        <ele>366.23</ele>
        <time>2017-03-26T10:08:07Z</time>
      </trkpt>
      <trkpt lat="45.5053" lon="4.63843">
        <ele>366.23</ele>
        <time>2017-03-26T10:08:08Z</time>
      </trkpt>
      <trkpt lat="45.50528" lon="4.63835">
        <ele>366.23</ele>
        <time>2017-03-26T10:08:09Z</time>
      </trkpt>
      <trkpt lat="45.50528" lon="4.63828">
        <ele>366.23</ele>
        <time>2017-03-26T10:08:10Z</time>
      </trkpt>
      <trkpt lat="45.50527" lon="4.6382">
        <ele>366.23</ele>
        <time>2017-03-26T10:08:11Z</time>
      </trkpt>
      <trkpt lat="45.50526" lon="4.63812">
        <ele>366.23</ele>
        <time>2017-03-26T10:08:12Z</time>
      </trkpt>
      <trkpt lat="45.50527" lon="4.63802">
        <ele>366.15</ele>
        <time>2017-03-26T10:08:13Z</time>
      </trkpt>
      <trkpt lat="45.50526" lon="4.63794">
        <ele>366.13</ele>
        <time>2017-03-26T10:08:14Z</time>
      </trkpt>
      <trkpt lat="45.50526" lon="4.63786">
        <ele>366.05</ele>
        <time>2017-03-26T10:08:15Z</time>
      </trkpt>
      <trkpt lat="45.50525" lon="4.63777">
        <ele>366.03</ele>
        <time>2017-03-26T10:08:16Z</time>
      </trkpt>
      <trkpt lat="45.50523" lon="4.63769">
        <ele>366.03</ele>
        <time>2017-03-26T10:08:17Z</time>
      </trkpt>
      <trkpt lat="45.50522" lon="4.63762">
        <ele>365.95</ele>
        <time>2017-03-26T10:08:18Z</time>
      </trkpt>
      <trkpt lat="45.5052" lon="4.63755">
        <ele>365.93</ele>
        <time>2017-03-26T10:08:19Z</time>
      </trkpt>
      <trkpt lat="45.50518" lon="4.63748">
        <ele>365.93</ele>
        <time>2017-03-26T10:08:20Z</time>
      </trkpt>
      <trkpt lat="45.50517" lon="4.6374">
        <ele>365.85</ele>
        <time>2017-03-26T10:08:21Z</time>
      </trkpt>
      <trkpt lat="45.50516" lon="4.63733">
        <ele>365.83</ele>
        <time>2017-03-26T10:08:22Z</time>
      </trkpt>
      <trkpt lat="45.50516" lon="4.63724">
        <ele>365.83</ele>
        <time>2017-03-26T10:08:23Z</time>
      </trkpt>
      <trkpt lat="45.50516" lon="4.63714">
        <ele>365.83</ele>
        <time>2017-03-26T10:08:24Z</time>
      </trkpt>
      <trkpt lat="45.50517" lon="4.63706">
        <ele>365.83</ele>
        <time>2017-03-26T10:08:25Z</time>
      </trkpt>
      <trkpt lat="45.50518" lon="4.63698">
        <ele>365.75</ele>
        <time>2017-03-26T10:08:26Z</time>
      </trkpt>
      <trkpt lat="45.50519" lon="4.6369">
        <ele>365.73</ele>
        <time>2017-03-26T10:08:27Z</time>
      </trkpt>
      <trkpt lat="45.50521" lon="4.63683">
        <ele>365.73</ele>
        <time>2017-03-26T10:08:28Z</time>
      </trkpt>
      <trkpt lat="45.50521" lon="4.63675">
        <ele>365.73</ele>
        <time>2017-03-26T10:08:29Z</time>
      </trkpt>
      <trkpt lat="45.50522" lon="4.63667">
        <ele>365.73</ele>
        <time>2017-03-26T10:08:30Z</time>
      </trkpt>
      <trkpt lat="45.50523" lon="4.63661">
        <ele>365.65</ele>
        <time>2017-03-26T10:08:31Z</time>
      </trkpt>
      <trkpt lat="45.50523" lon="4.63654">
        <ele>365.63</ele>
        <time>2017-03-26T10:08:32Z</time>
      </trkpt>
      <trkpt lat="45.50522" lon="4.63647">
        <ele>365.63</ele>
        <time>2017-03-26T10:08:33Z</time>
      </trkpt>
      <trkpt lat="45.50521" lon="4.6364">
        <ele>365.63</ele>
        <time>2017-03-26T10:08:34Z</time>
      </trkpt>
      <trkpt lat="45.50521" lon="4.63633">
        <ele>365.55</ele>
        <time>2017-03-26T10:08:35Z</time>
      </trkpt>
      <trkpt lat="45.5052" lon="4.63626">
        <ele>365.53</ele>
        <time>2017-03-26T10:08:36Z</time>
      </trkpt>
      <trkpt lat="45.50518" lon="4.63619">
        <ele>365.53</ele>
        <time>2017-03-26T10:08:37Z</time>
      </trkpt>
      <trkpt lat="45.50517" lon="4.63612">
        <ele>365.45</ele>
        <time>2017-03-26T10:08:38Z</time>
      </trkpt>
      <trkpt lat="45.50515" lon="4.63606">
        <ele>365.43</ele>
        <time>2017-03-26T10:08:39Z</time>
      </trkpt>
      <trkpt lat="45.50513" lon="4.63599">
        <ele>365.43</ele>
        <time>2017-03-26T10:08:40Z</time>
      </trkpt>
      <trkpt lat="45.50512" lon="4.63593">
        <ele>365.43</ele>
        <time>2017-03-26T10:08:41Z</time>
      </trkpt>
      <trkpt lat="45.50511" lon="4.63587">
        <ele>365.43</ele>
        <time>2017-03-26T10:08:42Z</time>
      </trkpt>
      <trkpt lat="45.5051" lon="4.63581">
        <ele>365.43</ele>
        <time>2017-03-26T10:08:43Z</time>
      </trkpt>
      <trkpt lat="45.50509" lon="4.63575">
        <ele>365.43</ele>
        <time>2017-03-26T10:08:44Z</time>
      </trkpt>
      <trkpt lat="45.50507" lon="4.63569">
        <ele>365.35</ele>
        <time>2017-03-26T10:08:45Z</time>
      </trkpt>
      <trkpt lat="45.50506" lon="4.63562">
        <ele>365.33</ele>
        <time>2017-03-26T10:08:46Z</time>
      </trkpt>
      <trkpt lat="45.50504" lon="4.63556">
        <ele>365.33</ele>
        <time>2017-03-26T10:08:47Z</time>
      </trkpt>
      <trkpt lat="45.50501" lon="4.63549">
        <ele>365.33</ele>
        <time>2017-03-26T10:08:48Z</time>
      </trkpt>
      <trkpt lat="45.50499" lon="4.63543">
        <ele>365.33</ele>
        <time>2017-03-26T10:08:49Z</time>
      </trkpt>
      <trkpt lat="45.50496" lon="4.63536">
        <ele>365.25</ele>
        <time>2017-03-26T10:08:50Z</time>
      </trkpt>
      <trkpt lat="45.50495" lon="4.63528">
        <ele>365.23</ele>
        <time>2017-03-26T10:08:51Z</time>
      </trkpt>
      <trkpt lat="45.50493" lon="4.63522">
        <ele>365.23</ele>
        <time>2017-03-26T10:08:52Z</time>
      </trkpt>
      <trkpt lat="45.50492" lon="4.63516">
        <ele>365.23</ele>
        <time>2017-03-26T10:08:53Z</time>
      </trkpt>
      <trkpt lat="45.5049" lon="4.63509">
        <ele>365.23</ele>
        <time>2017-03-26T10:08:54Z</time>
      </trkpt>
      <trkpt lat="45.50489" lon="4.63503">
        <ele>365.15</ele>
        <time>2017-03-26T10:08:55Z</time>
      </trkpt>
      <trkpt lat="45.50488" lon="4.63496">
        <ele>365.13</ele>
        <time>2017-03-26T10:08:56Z</time>
      </trkpt>
      <trkpt lat="45.50487" lon="4.63489">
        <ele>365.13</ele>
        <time>2017-03-26T10:08:57Z</time>
      </trkpt>
      <trkpt lat="45.50486" lon="4.63482">
        <ele>365.13</ele>
        <time>2017-03-26T10:08:58Z</time>
      </trkpt>
      <trkpt lat="45.50486" lon="4.63474">
        <ele>365.05</ele>
        <time>2017-03-26T10:08:59Z</time>
      </trkpt>
      <trkpt lat="45.50486" lon="4.63466">
        <ele>365.03</ele>
        <time>2017-03-26T10:09:00Z</time>
      </trkpt>
      <trkpt lat="45.50486" lon="4.63458">
        <ele>365.03</ele>
        <time>2017-03-26T10:09:01Z</time>
      </trkpt>
      <trkpt lat="45.50486" lon="4.6345">
        <ele>365.03</ele>
        <time>2017-03-26T10:09:02Z</time>
      </trkpt>
      <trkpt lat="45.50486" lon="4.63443">
        <ele>365.03</ele>
        <time>2017-03-26T10:09:03Z</time>
      </trkpt>
      <trkpt lat="45.50486" lon="4.63436">
        <ele>364.95</ele>
        <time>2017-03-26T10:09:04Z</time>
      </trkpt>
      <trkpt lat="45.50486" lon="4.6343">
        <ele>364.93</ele>
        <time>2017-03-26T10:09:05Z</time>
      </trkpt>
      <trkpt lat="45.50486" lon="4.63423">
        <ele>364.77</ele>
        <time>2017-03-26T10:09:06Z</time>
      </trkpt>
      <trkpt lat="45.50486" lon="4.63415">
        <ele>364.74</ele>
        <time>2017-03-26T10:09:07Z</time>
      </trkpt>
      <trkpt lat="45.50487" lon="4.63408">
        <ele>364.73</ele>
        <time>2017-03-26T10:09:08Z</time>
      </trkpt>
      <trkpt lat="45.50487" lon="4.634">
        <ele>364.65</ele>
        <time>2017-03-26T10:09:09Z</time>
      </trkpt>
      <trkpt lat="45.50487" lon="4.63393">
        <ele>364.63</ele>
        <time>2017-03-26T10:09:10Z</time>
      </trkpt>
      <trkpt lat="45.50487" lon="4.63385">
        <ele>364.55</ele>
        <time>2017-03-26T10:09:11Z</time>
      </trkpt>
      <trkpt lat="45.50487" lon="4.63378">
        <ele>364.45</ele>
        <time>2017-03-26T10:09:12Z</time>
      </trkpt>
      <trkpt lat="45.50486" lon="4.63372">
        <ele>364.43</ele>
        <time>2017-03-26T10:09:13Z</time>
      </trkpt>
      <trkpt lat="45.50486" lon="4.63366">
        <ele>364.43</ele>
        <time>2017-03-26T10:09:14Z</time>
      </trkpt>
      <trkpt lat="45.50485" lon="4.6336">
        <ele>364.35</ele>
        <time>2017-03-26T10:09:15Z</time>
      </trkpt>
      <trkpt lat="45.50483" lon="4.63354">
        <ele>364.33</ele>
        <time>2017-03-26T10:09:16Z</time>
      </trkpt>
      <trkpt lat="45.50481" lon="4.63348">
        <ele>363.69</ele>
        <time>2017-03-26T10:09:17Z</time>
      </trkpt>
      <trkpt lat="45.50483" lon="4.63342">
        <ele>363.4</ele>
        <time>2017-03-26T10:09:18Z</time>
      </trkpt>
      <trkpt lat="45.50483" lon="4.63334">
        <ele>363.26</ele>
        <time>2017-03-26T10:09:19Z</time>
      </trkpt>
      <trkpt lat="45.50483" lon="4.63327">
        <ele>363.24</ele>
        <time>2017-03-26T10:09:20Z</time>
      </trkpt>
      <trkpt lat="45.50484" lon="4.6332">
        <ele>363.15</ele>
        <time>2017-03-26T10:09:21Z</time>
      </trkpt>
      <trkpt lat="45.50484" lon="4.63313">
        <ele>363.13</ele>
        <time>2017-03-26T10:09:22Z</time>
      </trkpt>
      <trkpt lat="45.50485" lon="4.63307">
        <ele>363.05</ele>
        <time>2017-03-26T10:09:23Z</time>
      </trkpt>
      <trkpt lat="45.50486" lon="4.63302">
        <ele>363.03</ele>
        <time>2017-03-26T10:09:24Z</time>
      </trkpt>
      <trkpt lat="45.50486" lon="4.63297">
        <ele>362.95</ele>
        <time>2017-03-26T10:09:25Z</time>
      </trkpt>
      <trkpt lat="45.50486" lon="4.63294">
        <ele>362.85</ele>
        <time>2017-03-26T10:09:26Z</time>
      </trkpt>
      <trkpt lat="45.50486" lon="4.63293">
        <ele>362.67</ele>
        <time>2017-03-26T10:09:27Z</time>
      </trkpt>
      <trkpt lat="45.50486" lon="4.63292">
        <ele>362.56</ele>
        <time>2017-03-26T10:09:28Z</time>
      </trkpt>
      <trkpt lat="45.50486" lon="4.63292">
        <ele>361.98</ele>
        <time>2017-03-26T10:09:29Z</time>
      </trkpt>
      <trkpt lat="45.50486" lon="4.63292">
        <ele>361.86</ele>
        <time>2017-03-26T10:09:30Z</time>
      </trkpt>
      <trkpt lat="45.50486" lon="4.63292">
        <ele>361.84</ele>
        <time>2017-03-26T10:09:31Z</time>
      </trkpt>
      <trkpt lat="45.50486" lon="4.63292">
        <ele>361.83</ele>
        <time>2017-03-26T10:09:32Z</time>
      </trkpt>
      <trkpt lat="45.50486" lon="4.63292">
        <ele>361.83</ele>
        <time>2017-03-26T10:09:33Z</time>
      </trkpt>
      <trkpt lat="45.50486" lon="4.63292">
        <ele>361.83</ele>
        <time>2017-03-26T10:09:34Z</time>
      </trkpt>
      <trkpt lat="45.50486" lon="4.63292">
        <ele>361.83</ele>
        <time>2017-03-26T10:09:35Z</time>
      </trkpt>
      <trkpt lat="45.50486" lon="4.63292">
        <ele>361.83</ele>
        <time>2017-03-26T10:09:36Z</time>
      </trkpt>
      <trkpt lat="45.50486" lon="4.63292">
        <ele>361.83</ele>
        <time>2017-03-26T10:09:37Z</time>
      </trkpt>
      <trkpt lat="45.50486" lon="4.63292">
        <ele>361.83</ele>
        <time>2017-03-26T10:09:38Z</time>
      </trkpt>
      <trkpt lat="45.50486" lon="4.63292">
        <ele>361.83</ele>
        <time>2017-03-26T10:09:39Z</time>
      </trkpt>
      <trkpt lat="45.50486" lon="4.63292">
        <ele>361.83</ele>
        <time>2017-03-26T10:09:40Z</time>
      </trkpt>
      <trkpt lat="45.50486" lon="4.63292">
        <ele>361.83</ele>
        <time>2017-03-26T10:09:41Z</time>
      </trkpt>
      <trkpt lat="45.50486" lon="4.63292">
        <ele>361.83</ele>
        <time>2017-03-26T10:09:42Z</time>
      </trkpt>
      <trkpt lat="45.50486" lon="4.63292">
        <ele>361.83</ele>
        <time>2017-03-26T10:09:43Z</time>
      </trkpt>
      <trkpt lat="45.50486" lon="4.63292">
        <ele>361.83</ele>
        <time>2017-03-26T10:09:44Z</time>
      </trkpt>
      <trkpt lat="45.50486" lon="4.63292">
        <ele>361.83</ele>
        <time>2017-03-26T10:09:45Z</time>
      </trkpt>
      <trkpt lat="45.50486" lon="4.63292">
        <ele>361.83</ele>
        <time>2017-03-26T10:09:46Z</time>
      </trkpt>
      <trkpt lat="45.50486" lon="4.63292">
        <ele>361.83</ele>
        <time>2017-03-26T10:09:47Z</time>
      </trkpt>
      <trkpt lat="45.50486" lon="4.63292">
        <ele>361.83</ele>
        <time>2017-03-26T10:09:48Z</time>
      </trkpt>
      <trkpt lat="45.50486" lon="4.63292">
        <ele>361.83</ele>
        <time>2017-03-26T10:09:49Z</time>
      </trkpt>
      <trkpt lat="45.50486" lon="4.63292">
        <ele>361.83</ele>
        <time>2017-03-26T10:09:50Z</time>
      </trkpt>
      <trkpt lat="45.50486" lon="4.63292">
        <ele>361.83</ele>
        <time>2017-03-26T10:09:51Z</time>
      </trkpt>
      <trkpt lat="45.50486" lon="4.63292">
        <ele>361.83</ele>
        <time>2017-03-26T10:09:52Z</time>
      </trkpt>
      <trkpt lat="45.50486" lon="4.63292">
        <ele>361.83</ele>
        <time>2017-03-26T10:09:53Z</time>
      </trkpt>
      <trkpt lat="45.50486" lon="4.63292">
        <ele>361.83</ele>
        <time>2017-03-26T10:09:54Z</time>
      </trkpt>
      <trkpt lat="45.50486" lon="4.63292">
        <ele>361.83</ele>
        <time>2017-03-26T10:09:55Z</time>
      </trkpt>
      <trkpt lat="45.50486" lon="4.63292">
        <ele>361.83</ele>
        <time>2017-03-26T10:09:56Z</time>
      </trkpt>
      <trkpt lat="45.50486" lon="4.63292">
        <ele>361.83</ele>
        <time>2017-03-26T10:09:57Z</time>
      </trkpt>
      <trkpt lat="45.50486" lon="4.63292">
        <ele>361.83</ele>
        <time>2017-03-26T10:09:58Z</time>
      </trkpt>
      <trkpt lat="45.50486" lon="4.63292">
        <ele>361.83</ele>
        <time>2017-03-26T10:09:59Z</time>
      </trkpt>
      <trkpt lat="45.50486" lon="4.63292">
        <ele>361.83</ele>
        <time>2017-03-26T10:10:00Z</time>
      </trkpt>
      <trkpt lat="45.50486" lon="4.63292">
        <ele>361.83</ele>
        <time>2017-03-26T10:10:01Z</time>
      </trkpt>
      <trkpt lat="45.50486" lon="4.63292">
        <ele>361.83</ele>
        <time>2017-03-26T10:10:02Z</time>
      </trkpt>
      <trkpt lat="45.50486" lon="4.63292">
        <ele>361.83</ele>
        <time>2017-03-26T10:10:03Z</time>
      </trkpt>
      <trkpt lat="45.50486" lon="4.63292">
        <ele>361.83</ele>
        <time>2017-03-26T10:10:04Z</time>
      </trkpt>
      <trkpt lat="45.50486" lon="4.63292">
        <ele>361.83</ele>
        <time>2017-03-26T10:10:05Z</time>
      </trkpt>
      <trkpt lat="45.50486" lon="4.63292">
        <ele>361.83</ele>
        <time>2017-03-26T10:10:06Z</time>
      </trkpt>
      <trkpt lat="45.50486" lon="4.63292">
        <ele>361.83</ele>
        <time>2017-03-26T10:10:07Z</time>
      </trkpt>
      <trkpt lat="45.50486" lon="4.63292">
        <ele>361.83</ele>
        <time>2017-03-26T10:10:08Z</time>
      </trkpt>
      <trkpt lat="45.50486" lon="4.63292">
        <ele>361.83</ele>
        <time>2017-03-26T10:10:09Z</time>
      </trkpt>
      <trkpt lat="45.50486" lon="4.63292">
        <ele>361.83</ele>
        <time>2017-03-26T10:10:10Z</time>
      </trkpt>
      <trkpt lat="45.50486" lon="4.63292">
        <ele>361.83</ele>
        <time>2017-03-26T10:10:11Z</time>
      </trkpt>
      <trkpt lat="45.50486" lon="4.63292">
        <ele>361.83</ele>
        <time>2017-03-26T10:10:12Z</time>
      </trkpt>
      <trkpt lat="45.50486" lon="4.63292">
        <ele>361.83</ele>
        <time>2017-03-26T10:10:13Z</time>
      </trkpt>
      <trkpt lat="45.50486" lon="4.63292">
        <ele>361.83</ele>
        <time>2017-03-26T10:10:14Z</time>
      </trkpt>
      <trkpt lat="45.50486" lon="4.63292">
        <ele>361.83</ele>
        <time>2017-03-26T10:10:15Z</time>
      </trkpt>
      <trkpt lat="45.50486" lon="4.63292">
        <ele>361.83</ele>
        <time>2017-03-26T10:10:16Z</time>
      </trkpt>
      <trkpt lat="45.50486" lon="4.63292">
        <ele>361.83</ele>
        <time>2017-03-26T10:10:17Z</time>
      </trkpt>
      <trkpt lat="45.50486" lon="4.63292">
        <ele>361.83</ele>
        <time>2017-03-26T10:10:18Z</time>
      </trkpt>
      <trkpt lat="45.50486" lon="4.63292">
        <ele>361.83</ele>
        <time>2017-03-26T10:10:19Z</time>
      </trkpt>
      <trkpt lat="45.50486" lon="4.63292">
        <ele>361.83</ele>
        <time>2017-03-26T10:10:20Z</time>
      </trkpt>
      <trkpt lat="45.50486" lon="4.63292">
        <ele>361.83</ele>
        <time>2017-03-26T10:10:21Z</time>
      </trkpt>
      <trkpt lat="45.50486" lon="4.63292">
        <ele>361.83</ele>
        <time>2017-03-26T10:10:22Z</time>
      </trkpt>
      <trkpt lat="45.50486" lon="4.63292">
        <ele>361.83</ele>
        <time>2017-03-26T10:10:23Z</time>
      </trkpt>
      <trkpt lat="45.50486" lon="4.63292">
        <ele>361.83</ele>
        <time>2017-03-26T10:10:24Z</time>
      </trkpt>
      <trkpt lat="45.50486" lon="4.63292">
        <ele>361.83</ele>
        <time>2017-03-26T10:10:25Z</time>
      </trkpt>
      <trkpt lat="45.50486" lon="4.63292">
        <ele>361.83</ele>
        <time>2017-03-26T10:10:26Z</time>
      </trkpt>
      <trkpt lat="45.50486" lon="4.63292">
        <ele>361.83</ele>
        <time>2017-03-26T10:10:27Z</time>
      </trkpt>
      <trkpt lat="45.50486" lon="4.63292">
        <ele>361.83</ele>
        <time>2017-03-26T10:10:28Z</time>
      </trkpt>
      <trkpt lat="45.50486" lon="4.63292">
        <ele>361.83</ele>
        <time>2017-03-26T10:10:29Z</time>
      </trkpt>
      <trkpt lat="45.50486" lon="4.63292">
        <ele>361.83</ele>
        <time>2017-03-26T10:10:30Z</time>
      </trkpt>
      <trkpt lat="45.50486" lon="4.63292">
        <ele>361.83</ele>
        <time>2017-03-26T10:10:31Z</time>
      </trkpt>
      <trkpt lat="45.50486" lon="4.63292">
        <ele>361.83</ele>
        <time>2017-03-26T10:10:32Z</time>
      </trkpt>
      <trkpt lat="45.50486" lon="4.63292">
        <ele>361.83</ele>
        <time>2017-03-26T10:10:33Z</time>
      </trkpt>
      <trkpt lat="45.50486" lon="4.63292">
        <ele>361.83</ele>
        <time>2017-03-26T10:10:34Z</time>
      </trkpt>
      <trkpt lat="45.50486" lon="4.63292">
        <ele>361.83</ele>
        <time>2017-03-26T10:10:35Z</time>
      </trkpt>
      <trkpt lat="45.50486" lon="4.63292">
        <ele>361.83</ele>
        <time>2017-03-26T10:10:36Z</time>
      </trkpt>
      <trkpt lat="45.50486" lon="4.63292">
        <ele>361.83</ele>
        <time>2017-03-26T10:10:37Z</time>
      </trkpt>
      <trkpt lat="45.50486" lon="4.63292">
        <ele>361.83</ele>
        <time>2017-03-26T10:10:38Z</time>
      </trkpt>
      <trkpt lat="45.50486" lon="4.63292">
        <ele>361.83</ele>
        <time>2017-03-26T10:10:39Z</time>
      </trkpt>
      <trkpt lat="45.50486" lon="4.63292">
        <ele>361.83</ele>
        <time>2017-03-26T10:10:40Z</time>
      </trkpt>
      <trkpt lat="45.50486" lon="4.63292">
        <ele>361.83</ele>
        <time>2017-03-26T10:10:41Z</time>
      </trkpt>
      <trkpt lat="45.50486" lon="4.63292">
        <ele>361.83</ele>
        <time>2017-03-26T10:10:42Z</time>
      </trkpt>
      <trkpt lat="45.50486" lon="4.63292">
        <ele>361.83</ele>
        <time>2017-03-26T10:10:43Z</time>
      </trkpt>
      <trkpt lat="45.50486" lon="4.63292">
        <ele>361.83</ele>
        <time>2017-03-26T10:10:44Z</time>
      </trkpt>
      <trkpt lat="45.50486" lon="4.63292">
        <ele>361.83</ele>
        <time>2017-03-26T10:10:45Z</time>
      </trkpt>
      <trkpt lat="45.50486" lon="4.63292">
        <ele>361.83</ele>
        <time>2017-03-26T10:10:46Z</time>
      </trkpt>
      <trkpt lat="45.50486" lon="4.63292">
        <ele>361.83</ele>
        <time>2017-03-26T10:10:47Z</time>
      </trkpt>
      <trkpt lat="45.50486" lon="4.63292">
        <ele>361.83</ele>
        <time>2017-03-26T10:10:48Z</time>
      </trkpt>
      <trkpt lat="45.50486" lon="4.63292">
        <ele>361.83</ele>
        <time>2017-03-26T10:10:49Z</time>
      </trkpt>
      <trkpt lat="45.50486" lon="4.63292">
        <ele>361.83</ele>
        <time>2017-03-26T10:10:50Z</time>
      </trkpt>
      <trkpt lat="45.50486" lon="4.63292">
        <ele>361.83</ele>
        <time>2017-03-26T10:10:51Z</time>
      </trkpt>
      <trkpt lat="45.50486" lon="4.63292">
        <ele>361.83</ele>
        <time>2017-03-26T10:10:52Z</time>
      </trkpt>
      <trkpt lat="45.50486" lon="4.63292">
        <ele>361.83</ele>
        <time>2017-03-26T10:10:53Z</time>
      </trkpt>
      <trkpt lat="45.50486" lon="4.63292">
        <ele>361.83</ele>
        <time>2017-03-26T10:10:54Z</time>
      </trkpt>
      <trkpt lat="45.50486" lon="4.63292">
        <ele>361.83</ele>
        <time>2017-03-26T10:10:55Z</time>
      </trkpt>
      <trkpt lat="45.50486" lon="4.63292">
        <ele>361.83</ele>
        <time>2017-03-26T10:10:56Z</time>
      </trkpt>
      <trkpt lat="45.50486" lon="4.63292">
        <ele>361.83</ele>
        <time>2017-03-26T10:10:57Z</time>
      </trkpt>
      <trkpt lat="45.50486" lon="4.63292">
        <ele>361.83</ele>
        <time>2017-03-26T10:10:58Z</time>
      </trkpt>
      <trkpt lat="45.50486" lon="4.63292">
        <ele>361.83</ele>
        <time>2017-03-26T10:10:59Z</time>
      </trkpt>
      <trkpt lat="45.50486" lon="4.63292">
        <ele>361.83</ele>
        <time>2017-03-26T10:11:00Z</time>
      </trkpt>
      <trkpt lat="45.50486" lon="4.63292">
        <ele>361.83</ele>
        <time>2017-03-26T10:11:01Z</time>
      </trkpt>
      <trkpt lat="45.50486" lon="4.63292">
        <ele>361.83</ele>
        <time>2017-03-26T10:11:02Z</time>
      </trkpt>
      <trkpt lat="45.50486" lon="4.63292">
        <ele>361.83</ele>
        <time>2017-03-26T10:11:03Z</time>
      </trkpt>
      <trkpt lat="45.50486" lon="4.63292">
        <ele>361.83</ele>
        <time>2017-03-26T10:11:04Z</time>
      </trkpt>
      <trkpt lat="45.50486" lon="4.63292">
        <ele>361.83</ele>
        <time>2017-03-26T10:11:05Z</time>
      </trkpt>
      <trkpt lat="45.50486" lon="4.63292">
        <ele>361.83</ele>
        <time>2017-03-26T10:11:06Z</time>
      </trkpt>
      <trkpt lat="45.50486" lon="4.63292">
        <ele>361.83</ele>
        <time>2017-03-26T10:11:07Z</time>
      </trkpt>
      <trkpt lat="45.50486" lon="4.63292">
        <ele>361.83</ele>
        <time>2017-03-26T10:11:08Z</time>
      </trkpt>
      <trkpt lat="45.50486" lon="4.63292">
        <ele>361.83</ele>
        <time>2017-03-26T10:11:09Z</time>
      </trkpt>
      <trkpt lat="45.50486" lon="4.63292">
        <ele>361.83</ele>
        <time>2017-03-26T10:11:10Z</time>
      </trkpt>
      <trkpt lat="45.50486" lon="4.63292">
        <ele>361.83</ele>
        <time>2017-03-26T10:11:11Z</time>
      </trkpt>
      <trkpt lat="45.50486" lon="4.63292">
        <ele>361.83</ele>
        <time>2017-03-26T10:11:12Z</time>
      </trkpt>
      <trkpt lat="45.50486" lon="4.63292">
        <ele>361.83</ele>
        <time>2017-03-26T10:11:13Z</time>
      </trkpt>
      <trkpt lat="45.50486" lon="4.63292">
        <ele>361.83</ele>
        <time>2017-03-26T10:11:14Z</time>
      </trkpt>
      <trkpt lat="45.50486" lon="4.63292">
        <ele>361.83</ele>
        <time>2017-03-26T10:11:15Z</time>
      </trkpt>
      <trkpt lat="45.50486" lon="4.63292">
        <ele>361.83</ele>
        <time>2017-03-26T10:11:16Z</time>
      </trkpt>
      <trkpt lat="45.50486" lon="4.63292">
        <ele>361.83</ele>
        <time>2017-03-26T10:11:17Z</time>
      </trkpt>
      <trkpt lat="45.50486" lon="4.63292">
        <ele>361.83</ele>
        <time>2017-03-26T10:11:18Z</time>
      </trkpt>
      <trkpt lat="45.50486" lon="4.63292">
        <ele>361.83</ele>
        <time>2017-03-26T10:11:19Z</time>
      </trkpt>
      <trkpt lat="45.50486" lon="4.63292">
        <ele>361.83</ele>
        <time>2017-03-26T10:11:20Z</time>
      </trkpt>
      <trkpt lat="45.50486" lon="4.63292">
        <ele>361.83</ele>
        <time>2017-03-26T10:11:21Z</time>
      </trkpt>
      <trkpt lat="45.50486" lon="4.63292">
        <ele>361.83</ele>
        <time>2017-03-26T10:11:22Z</time>
      </trkpt>
      <trkpt lat="45.50486" lon="4.63292">
        <ele>361.83</ele>
        <time>2017-03-26T10:11:23Z</time>
      </trkpt>
      <trkpt lat="45.50486" lon="4.63292">
        <ele>361.83</ele>
        <time>2017-03-26T10:11:24Z</time>
      </trkpt>
      <trkpt lat="45.50486" lon="4.63292">
        <ele>361.83</ele>
        <time>2017-03-26T10:11:25Z</time>
      </trkpt>
      <trkpt lat="45.50486" lon="4.63292">
        <ele>361.83</ele>
        <time>2017-03-26T10:11:26Z</time>
      </trkpt>
      <trkpt lat="45.50486" lon="4.63292">
        <ele>361.83</ele>
        <time>2017-03-26T10:11:27Z</time>
      </trkpt>
      <trkpt lat="45.50486" lon="4.63292">
        <ele>361.83</ele>
        <time>2017-03-26T10:11:28Z</time>
      </trkpt>
      <trkpt lat="45.50486" lon="4.63292">
        <ele>361.83</ele>
        <time>2017-03-26T10:11:29Z</time>
      </trkpt>
      <trkpt lat="45.50486" lon="4.63292">
        <ele>361.83</ele>
        <time>2017-03-26T10:11:30Z</time>
      </trkpt>
      <trkpt lat="45.50486" lon="4.63292">
        <ele>361.83</ele>
        <time>2017-03-26T10:11:31Z</time>
      </trkpt>
      <trkpt lat="45.50486" lon="4.63292">
        <ele>361.83</ele>
        <time>2017-03-26T10:11:32Z</time>
      </trkpt>
      <trkpt lat="45.50486" lon="4.63292">
        <ele>361.83</ele>
        <time>2017-03-26T10:11:33Z</time>
      </trkpt>
      <trkpt lat="45.50486" lon="4.63292">
        <ele>361.83</ele>
        <time>2017-03-26T10:11:34Z</time>
      </trkpt>
      <trkpt lat="45.50486" lon="4.63292">
        <ele>361.83</ele>
        <time>2017-03-26T10:11:35Z</time>
      </trkpt>
      <trkpt lat="45.50486" lon="4.63292">
        <ele>361.83</ele>
        <time>2017-03-26T10:11:36Z</time>
      </trkpt>
      <trkpt lat="45.50486" lon="4.63292">
        <ele>361.83</ele>
        <time>2017-03-26T10:11:37Z</time>
      </trkpt>
      <trkpt lat="45.50486" lon="4.63292">
        <ele>361.83</ele>
        <time>2017-03-26T10:11:38Z</time>
      </trkpt>
      <trkpt lat="45.50486" lon="4.63292">
        <ele>361.83</ele>
        <time>2017-03-26T10:11:39Z</time>
      </trkpt>
      <trkpt lat="45.50486" lon="4.63292">
        <ele>361.83</ele>
        <time>2017-03-26T10:11:40Z</time>
      </trkpt>
      <trkpt lat="45.50486" lon="4.63292">
        <ele>361.83</ele>
        <time>2017-03-26T10:11:41Z</time>
      </trkpt>
      <trkpt lat="45.50486" lon="4.63292">
        <ele>361.83</ele>
        <time>2017-03-26T10:11:42Z</time>
      </trkpt>
      <trkpt lat="45.50486" lon="4.63292">
        <ele>361.83</ele>
        <time>2017-03-26T10:11:43Z</time>
      </trkpt>
      <trkpt lat="45.50486" lon="4.63292">
        <ele>361.83</ele>
        <time>2017-03-26T10:11:44Z</time>
      </trkpt>
      <trkpt lat="45.50486" lon="4.63292">
        <ele>361.83</ele>
        <time>2017-03-26T10:11:45Z</time>
      </trkpt>
      <trkpt lat="45.50486" lon="4.63292">
        <ele>361.83</ele>
        <time>2017-03-26T10:11:46Z</time>
      </trkpt>
      <trkpt lat="45.50486" lon="4.63292">
        <ele>361.83</ele>
        <time>2017-03-26T10:11:47Z</time>
      </trkpt>
      <trkpt lat="45.50486" lon="4.63292">
        <ele>361.83</ele>
        <time>2017-03-26T10:11:48Z</time>
      </trkpt>
      <trkpt lat="45.50486" lon="4.63292">
        <ele>361.83</ele>
        <time>2017-03-26T10:11:49Z</time>
      </trkpt>
      <trkpt lat="45.50486" lon="4.63292">
        <ele>361.83</ele>
        <time>2017-03-26T10:11:50Z</time>
      </trkpt>
      <trkpt lat="45.50486" lon="4.63292">
        <ele>361.83</ele>
        <time>2017-03-26T10:11:51Z</time>
      </trkpt>
      <trkpt lat="45.50486" lon="4.63292">
        <ele>361.83</ele>
        <time>2017-03-26T10:11:52Z</time>
      </trkpt>
      <trkpt lat="45.50486" lon="4.63292">
        <ele>361.83</ele>
        <time>2017-03-26T10:11:53Z</time>
      </trkpt>
      <trkpt lat="45.50486" lon="4.63292">
        <ele>361.83</ele>
        <time>2017-03-26T10:11:54Z</time>
      </trkpt>
      <trkpt lat="45.50486" lon="4.63292">
        <ele>361.83</ele>
        <time>2017-03-26T10:11:55Z</time>
      </trkpt>
      <trkpt lat="45.50486" lon="4.63292">
        <ele>361.83</ele>
        <time>2017-03-26T10:11:56Z</time>
      </trkpt>
      <trkpt lat="45.50486" lon="4.63292">
        <ele>361.83</ele>
        <time>2017-03-26T10:11:57Z</time>
      </trkpt>
      <trkpt lat="45.50486" lon="4.63292">
        <ele>361.83</ele>
        <time>2017-03-26T10:11:58Z</time>
      </trkpt>
      <trkpt lat="45.50486" lon="4.63292">
        <ele>361.83</ele>
        <time>2017-03-26T10:11:59Z</time>
      </trkpt>
      <trkpt lat="45.50486" lon="4.63292">
        <ele>361.83</ele>
        <time>2017-03-26T10:12:00Z</time>
      </trkpt>
      <trkpt lat="45.50486" lon="4.63292">
        <ele>361.83</ele>
        <time>2017-03-26T10:12:01Z</time>
      </trkpt>
      <trkpt lat="45.50486" lon="4.63292">
        <ele>361.83</ele>
        <time>2017-03-26T10:12:02Z</time>
      </trkpt>
      <trkpt lat="45.50486" lon="4.63292">
        <ele>361.83</ele>
        <time>2017-03-26T10:12:03Z</time>
      </trkpt>
      <trkpt lat="45.50486" lon="4.63292">
        <ele>361.83</ele>
        <time>2017-03-26T10:12:04Z</time>
      </trkpt>
      <trkpt lat="45.50486" lon="4.63292">
        <ele>361.83</ele>
        <time>2017-03-26T10:12:05Z</time>
      </trkpt>
      <trkpt lat="45.50486" lon="4.63292">
        <ele>361.83</ele>
        <time>2017-03-26T10:12:06Z</time>
      </trkpt>
      <trkpt lat="45.50486" lon="4.63292">
        <ele>361.83</ele>
        <time>2017-03-26T10:12:07Z</time>
      </trkpt>
      <trkpt lat="45.50486" lon="4.63292">
        <ele>361.83</ele>
        <time>2017-03-26T10:12:08Z</time>
      </trkpt>
      <trkpt lat="45.50486" lon="4.63292">
        <ele>361.83</ele>
        <time>2017-03-26T10:12:09Z</time>
      </trkpt>
      <trkpt lat="45.50486" lon="4.63292">
        <ele>361.83</ele>
        <time>2017-03-26T10:12:10Z</time>
      </trkpt>
      <trkpt lat="45.50486" lon="4.63292">
        <ele>361.83</ele>
        <time>2017-03-26T10:12:11Z</time>
      </trkpt>
      <trkpt lat="45.50486" lon="4.63292">
        <ele>361.83</ele>
        <time>2017-03-26T10:12:12Z</time>
      </trkpt>
      <trkpt lat="45.50486" lon="4.63292">
        <ele>361.83</ele>
        <time>2017-03-26T10:12:13Z</time>
      </trkpt>
      <trkpt lat="45.50486" lon="4.63292">
        <ele>361.83</ele>
        <time>2017-03-26T10:12:14Z</time>
      </trkpt>
      <trkpt lat="45.50486" lon="4.63292">
        <ele>361.83</ele>
        <time>2017-03-26T10:12:15Z</time>
      </trkpt>
      <trkpt lat="45.50486" lon="4.63292">
        <ele>361.83</ele>
        <time>2017-03-26T10:12:16Z</time>
      </trkpt>
      <trkpt lat="45.50486" lon="4.63292">
        <ele>361.83</ele>
        <time>2017-03-26T10:12:17Z</time>
      </trkpt>
      <trkpt lat="45.50486" lon="4.63292">
        <ele>361.83</ele>
        <time>2017-03-26T10:12:18Z</time>
      </trkpt>
      <trkpt lat="45.50486" lon="4.63292">
        <ele>361.83</ele>
        <time>2017-03-26T10:12:19Z</time>
      </trkpt>
      <trkpt lat="45.50486" lon="4.63292">
        <ele>361.83</ele>
        <time>2017-03-26T10:12:20Z</time>
      </trkpt>
      <trkpt lat="45.50486" lon="4.63292">
        <ele>361.83</ele>
        <time>2017-03-26T10:12:21Z</time>
      </trkpt>
      <trkpt lat="45.50486" lon="4.63292">
        <ele>361.83</ele>
        <time>2017-03-26T10:12:22Z</time>
      </trkpt>
      <trkpt lat="45.50486" lon="4.63292">
        <ele>361.83</ele>
        <time>2017-03-26T10:12:23Z</time>
      </trkpt>
      <trkpt lat="45.50486" lon="4.63292">
        <ele>361.83</ele>
        <time>2017-03-26T10:12:24Z</time>
      </trkpt>
      <trkpt lat="45.50486" lon="4.63292">
        <ele>361.83</ele>
        <time>2017-03-26T10:12:25Z</time>
      </trkpt>
      <trkpt lat="45.50486" lon="4.63292">
        <ele>361.83</ele>
        <time>2017-03-26T10:12:26Z</time>
      </trkpt>
      <trkpt lat="45.50486" lon="4.63292">
        <ele>361.83</ele>
        <time>2017-03-26T10:12:27Z</time>
      </trkpt>
      <trkpt lat="45.50486" lon="4.63292">
        <ele>361.83</ele>
        <time>2017-03-26T10:12:28Z</time>
      </trkpt>
      <trkpt lat="45.50486" lon="4.63292">
        <ele>361.83</ele>
        <time>2017-03-26T10:12:29Z</time>
      </trkpt>
      <trkpt lat="45.50486" lon="4.63292">
        <ele>361.83</ele>
        <time>2017-03-26T10:12:30Z</time>
      </trkpt>
      <trkpt lat="45.50486" lon="4.63292">
        <ele>361.83</ele>
        <time>2017-03-26T10:12:31Z</time>
      </trkpt>
      <trkpt lat="45.50486" lon="4.63292">
        <ele>361.83</ele>
        <time>2017-03-26T10:12:32Z</time>
      </trkpt>
      <trkpt lat="45.50486" lon="4.63292">
        <ele>361.83</ele>
        <time>2017-03-26T10:12:33Z</time>
      </trkpt>
      <trkpt lat="45.50486" lon="4.63292">
        <ele>361.83</ele>
        <time>2017-03-26T10:12:34Z</time>
      </trkpt>
      <trkpt lat="45.50486" lon="4.63292">
        <ele>361.83</ele>
        <time>2017-03-26T10:12:35Z</time>
      </trkpt>
      <trkpt lat="45.50486" lon="4.63292">
        <ele>361.83</ele>
        <time>2017-03-26T10:12:36Z</time>
      </trkpt>
      <trkpt lat="45.50486" lon="4.63292">
        <ele>361.83</ele>
        <time>2017-03-26T10:12:37Z</time>
      </trkpt>
      <trkpt lat="45.50486" lon="4.63292">
        <ele>361.83</ele>
        <time>2017-03-26T10:12:38Z</time>
      </trkpt>
      <trkpt lat="45.50486" lon="4.63292">
        <ele>361.83</ele>
        <time>2017-03-26T10:12:39Z</time>
      </trkpt>
      <trkpt lat="45.50486" lon="4.63292">
        <ele>361.83</ele>
        <time>2017-03-26T10:12:40Z</time>
      </trkpt>
      <trkpt lat="45.50486" lon="4.63292">
        <ele>361.83</ele>
        <time>2017-03-26T10:12:41Z</time>
      </trkpt>
      <trkpt lat="45.50486" lon="4.63292">
        <ele>361.83</ele>
        <time>2017-03-26T10:12:42Z</time>
      </trkpt>
      <trkpt lat="45.50486" lon="4.63292">
        <ele>361.83</ele>
        <time>2017-03-26T10:12:43Z</time>
      </trkpt>
      <trkpt lat="45.50486" lon="4.63292">
        <ele>361.83</ele>
        <time>2017-03-26T10:12:44Z</time>
      </trkpt>
      <trkpt lat="45.50486" lon="4.63292">
        <ele>361.83</ele>
        <time>2017-03-26T10:12:45Z</time>
      </trkpt>
      <trkpt lat="45.50486" lon="4.63292">
        <ele>361.83</ele>
        <time>2017-03-26T10:12:46Z</time>
      </trkpt>
      <trkpt lat="45.50486" lon="4.63292">
        <ele>361.83</ele>
        <time>2017-03-26T10:12:47Z</time>
      </trkpt>
      <trkpt lat="45.50486" lon="4.63292">
        <ele>361.83</ele>
        <time>2017-03-26T10:12:48Z</time>
      </trkpt>
      <trkpt lat="45.50486" lon="4.63292">
        <ele>361.83</ele>
        <time>2017-03-26T10:12:49Z</time>
      </trkpt>
      <trkpt lat="45.50486" lon="4.63292">
        <ele>361.83</ele>
        <time>2017-03-26T10:12:50Z</time>
      </trkpt>
      <trkpt lat="45.50486" lon="4.63292">
        <ele>361.83</ele>
        <time>2017-03-26T10:12:51Z</time>
      </trkpt>
      <trkpt lat="45.50486" lon="4.63292">
        <ele>361.83</ele>
        <time>2017-03-26T10:12:52Z</time>
      </trkpt>
      <trkpt lat="45.50486" lon="4.63292">
        <ele>361.83</ele>
        <time>2017-03-26T10:12:53Z</time>
      </trkpt>
      <trkpt lat="45.50486" lon="4.63292">
        <ele>361.83</ele>
        <time>2017-03-26T10:12:54Z</time>
      </trkpt>
      <trkpt lat="45.50486" lon="4.63292">
        <ele>361.83</ele>
        <time>2017-03-26T10:12:55Z</time>
      </trkpt>
      <trkpt lat="45.50481" lon="4.63294">
        <ele>361.59</ele>
        <time>2017-03-26T10:12:56Z</time>
      </trkpt>
      <trkpt lat="45.50478" lon="4.63294">
        <ele>361.54</ele>
        <time>2017-03-26T10:12:57Z</time>
      </trkpt>
      <trkpt lat="45.50475" lon="4.63294">
        <ele>361.45</ele>
        <time>2017-03-26T10:12:58Z</time>
      </trkpt>
      <trkpt lat="45.50472" lon="4.63292">
        <ele>361.43</ele>
        <time>2017-03-26T10:12:59Z</time>
      </trkpt>
      <trkpt lat="45.50468" lon="4.63289">
        <ele>361.43</ele>
        <time>2017-03-26T10:13:00Z</time>
      </trkpt>
      <trkpt lat="45.50464" lon="4.63279">
        <ele>361.35</ele>
        <time>2017-03-26T10:13:01Z</time>
      </trkpt>
      <trkpt lat="45.5046" lon="4.63266">
        <ele>361.33</ele>
        <time>2017-03-26T10:13:02Z</time>
      </trkpt>
      <trkpt lat="45.50456" lon="4.63253">
        <ele>361.33</ele>
        <time>2017-03-26T10:13:03Z</time>
      </trkpt>
      <trkpt lat="45.5045" lon="4.6324">
        <ele>361.33</ele>
        <time>2017-03-26T10:13:04Z</time>
      </trkpt>
      <trkpt lat="45.50445" lon="4.63228">
        <ele>361.25</ele>
        <time>2017-03-26T10:13:05Z</time>
      </trkpt>
      <trkpt lat="45.50438" lon="4.63219">
        <ele>361.23</ele>
        <time>2017-03-26T10:13:06Z</time>
      </trkpt>
      <trkpt lat="45.50426" lon="4.63212">
        <ele>361.23</ele>
        <time>2017-03-26T10:13:07Z</time>
      </trkpt>
      <trkpt lat="45.50414" lon="4.63209">
        <ele>361.15</ele>
        <time>2017-03-26T10:13:08Z</time>
      </trkpt>
      <trkpt lat="45.50404" lon="4.63215">
        <ele>361.05</ele>
        <time>2017-03-26T10:13:09Z</time>
      </trkpt>
      <trkpt lat="45.50394" lon="4.63221">
        <ele>360.95</ele>
        <time>2017-03-26T10:13:10Z</time>
      </trkpt>
      <trkpt lat="45.50382" lon="4.6323">
        <ele>360.85</ele>
        <time>2017-03-26T10:13:11Z</time>
      </trkpt>
      <trkpt lat="45.50371" lon="4.63239">
        <ele>360.83</ele>
        <time>2017-03-26T10:13:12Z</time>
      </trkpt>
      <trkpt lat="45.5036" lon="4.63248">
        <ele>360.75</ele>
        <time>2017-03-26T10:13:13Z</time>
      </trkpt>
      <trkpt lat="45.50347" lon="4.63256">
        <ele>360.65</ele>
        <time>2017-03-26T10:13:14Z</time>
      </trkpt>
      <trkpt lat="45.50333" lon="4.6326">
        <ele>360.55</ele>
        <time>2017-03-26T10:13:15Z</time>
      </trkpt>
      <trkpt lat="45.5032" lon="4.63262">
        <ele>360.45</ele>
        <time>2017-03-26T10:13:16Z</time>
      </trkpt>
      <trkpt lat="45.50306" lon="4.6326">
        <ele>360.35</ele>
        <time>2017-03-26T10:13:17Z</time>
      </trkpt>
      <trkpt lat="45.50289" lon="4.63256">
        <ele>360.26</ele>
        <time>2017-03-26T10:13:18Z</time>
      </trkpt>
      <trkpt lat="45.50275" lon="4.6325">
        <ele>360.15</ele>
        <time>2017-03-26T10:13:19Z</time>
      </trkpt>
      <trkpt lat="45.50263" lon="4.63241">
        <ele>360.05</ele>
        <time>2017-03-26T10:13:20Z</time>
      </trkpt>
      <trkpt lat="45.50254" lon="4.63222">
        <ele>359.95</ele>
        <time>2017-03-26T10:13:21Z</time>
      </trkpt>
      <trkpt lat="45.50245" lon="4.63206">
        <ele>359.93</ele>
        <time>2017-03-26T10:13:22Z</time>
      </trkpt>
      <trkpt lat="45.50236" lon="4.63191">
        <ele>359.85</ele>
        <time>2017-03-26T10:13:23Z</time>
      </trkpt>
      <trkpt lat="45.50226" lon="4.63178">
        <ele>359.75</ele>
        <time>2017-03-26T10:13:24Z</time>
      </trkpt>
      <trkpt lat="45.50212" lon="4.6317">
        <ele>359.65</ele>
        <time>2017-03-26T10:13:25Z</time>
      </trkpt>
      <trkpt lat="45.50198" lon="4.63169">
        <ele>359.55</ele>
        <time>2017-03-26T10:13:26Z</time>
      </trkpt>
      <trkpt lat="45.50184" lon="4.63175">
        <ele>359.45</ele>
        <time>2017-03-26T10:13:27Z</time>
      </trkpt>
      <trkpt lat="45.5017" lon="4.6318">
        <ele>359.36</ele>
        <time>2017-03-26T10:13:28Z</time>
      </trkpt>
      <trkpt lat="45.50156" lon="4.63187">
        <ele>359.26</ele>
        <time>2017-03-26T10:13:29Z</time>
      </trkpt>
      <trkpt lat="45.50142" lon="4.63194">
        <ele>359.08</ele>
        <time>2017-03-26T10:13:30Z</time>
      </trkpt>
      <trkpt lat="45.50128" lon="4.63199">
        <ele>358.96</ele>
        <time>2017-03-26T10:13:31Z</time>
      </trkpt>
      <trkpt lat="45.50114" lon="4.63202">
        <ele>358.78</ele>
        <time>2017-03-26T10:13:32Z</time>
      </trkpt>
      <trkpt lat="45.50096" lon="4.632">
        <ele>358.66</ele>
        <time>2017-03-26T10:13:33Z</time>
      </trkpt>
      <trkpt lat="45.50081" lon="4.63194">
        <ele>358.56</ele>
        <time>2017-03-26T10:13:34Z</time>
      </trkpt>
      <trkpt lat="45.50067" lon="4.63186">
        <ele>358.46</ele>
        <time>2017-03-26T10:13:35Z</time>
      </trkpt>
      <trkpt lat="45.50057" lon="4.63173">
        <ele>358.36</ele>
        <time>2017-03-26T10:13:36Z</time>
      </trkpt>
      <trkpt lat="45.50047" lon="4.63159">
        <ele>358.26</ele>
        <time>2017-03-26T10:13:37Z</time>
      </trkpt>
      <trkpt lat="45.50037" lon="4.63148">
        <ele>358.15</ele>
        <time>2017-03-26T10:13:38Z</time>
      </trkpt>
      <trkpt lat="45.50026" lon="4.63139">
        <ele>357.98</ele>
        <time>2017-03-26T10:13:39Z</time>
      </trkpt>
      <trkpt lat="45.50016" lon="4.63129">
        <ele>357.86</ele>
        <time>2017-03-26T10:13:40Z</time>
      </trkpt>
      <trkpt lat="45.50007" lon="4.63117">
        <ele>357.76</ele>
        <time>2017-03-26T10:13:41Z</time>
      </trkpt>
      <trkpt lat="45.50001" lon="4.63101">
        <ele>357.66</ele>
        <time>2017-03-26T10:13:42Z</time>
      </trkpt>
      <trkpt lat="45.49998" lon="4.63083">
        <ele>357.56</ele>
        <time>2017-03-26T10:13:43Z</time>
      </trkpt>
      <trkpt lat="45.49994" lon="4.63066">
        <ele>357.46</ele>
        <time>2017-03-26T10:13:44Z</time>
      </trkpt>
      <trkpt lat="45.49989" lon="4.63052">
        <ele>357.36</ele>
        <time>2017-03-26T10:13:45Z</time>
      </trkpt>
      <trkpt lat="45.4998" lon="4.6304">
        <ele>357.17</ele>
        <time>2017-03-26T10:13:46Z</time>
      </trkpt>
      <trkpt lat="45.4997" lon="4.63033">
        <ele>357.06</ele>
        <time>2017-03-26T10:13:47Z</time>
      </trkpt>
      <trkpt lat="45.49958" lon="4.63029">
        <ele>356.96</ele>
        <time>2017-03-26T10:13:48Z</time>
      </trkpt>
      <trkpt lat="45.49943" lon="4.63024">
        <ele>356.86</ele>
        <time>2017-03-26T10:13:49Z</time>
      </trkpt>
      <trkpt lat="45.49931" lon="4.63015">
        <ele>356.68</ele>
        <time>2017-03-26T10:13:50Z</time>
      </trkpt>
      <trkpt lat="45.49919" lon="4.63006">
        <ele>356.56</ele>
        <time>2017-03-26T10:13:51Z</time>
      </trkpt>
      <trkpt lat="45.49907" lon="4.62996">
        <ele>356.46</ele>
        <time>2017-03-26T10:13:52Z</time>
      </trkpt>
      <trkpt lat="45.49896" lon="4.62986">
        <ele>356.36</ele>
        <time>2017-03-26T10:13:53Z</time>
      </trkpt>
      <trkpt lat="45.49885" lon="4.62978">
        <ele>356.18</ele>
        <time>2017-03-26T10:13:54Z</time>
      </trkpt>
      <trkpt lat="45.49875" lon="4.62969">
        <ele>355.98</ele>
        <time>2017-03-26T10:13:55Z</time>
      </trkpt>
      <trkpt lat="45.49865" lon="4.62962">
        <ele>355.78</ele>
        <time>2017-03-26T10:13:56Z</time>
      </trkpt>
      <trkpt lat="45.49855" lon="4.62957">
        <ele>355.58</ele>
        <time>2017-03-26T10:13:57Z</time>
      </trkpt>
      <trkpt lat="45.49845" lon="4.62953">
        <ele>355.38</ele>
        <time>2017-03-26T10:13:58Z</time>
      </trkpt>
      <trkpt lat="45.49835" lon="4.62952">
        <ele>355.1</ele>
        <time>2017-03-26T10:13:59Z</time>
      </trkpt>
      <trkpt lat="45.49826" lon="4.62952">
        <ele>354.8</ele>
        <time>2017-03-26T10:14:00Z</time>
      </trkpt>
      <trkpt lat="45.49818" lon="4.62953">
        <ele>354.5</ele>
        <time>2017-03-26T10:14:01Z</time>
      </trkpt>
      <trkpt lat="45.4981" lon="4.62953">
        <ele>354.2</ele>
        <time>2017-03-26T10:14:02Z</time>
      </trkpt>
      <trkpt lat="45.49802" lon="4.62954">
        <ele>353.9</ele>
        <time>2017-03-26T10:14:03Z</time>
      </trkpt>
      <trkpt lat="45.49795" lon="4.62953">
        <ele>353.68</ele>
        <time>2017-03-26T10:14:04Z</time>
      </trkpt>
      <trkpt lat="45.4979" lon="4.6295">
        <ele>353.56</ele>
        <time>2017-03-26T10:14:05Z</time>
      </trkpt>
      <trkpt lat="45.49787" lon="4.62947">
        <ele>353.38</ele>
        <time>2017-03-26T10:14:06Z</time>
      </trkpt>
      <trkpt lat="45.49789" lon="4.62942">
        <ele>353.26</ele>
        <time>2017-03-26T10:14:07Z</time>
      </trkpt>
      <trkpt lat="45.49789" lon="4.62937">
        <ele>353.16</ele>
        <time>2017-03-26T10:14:08Z</time>
      </trkpt>
      <trkpt lat="45.49791" lon="4.6293">
        <ele>353.06</ele>
        <time>2017-03-26T10:14:09Z</time>
      </trkpt>
      <trkpt lat="45.49793" lon="4.62923">
        <ele>352.96</ele>
        <time>2017-03-26T10:14:10Z</time>
      </trkpt>
      <trkpt lat="45.49796" lon="4.62916">
        <ele>352.86</ele>
        <time>2017-03-26T10:14:11Z</time>
      </trkpt>
      <trkpt lat="45.498" lon="4.62908">
        <ele>352.76</ele>
        <time>2017-03-26T10:14:12Z</time>
      </trkpt>
      <trkpt lat="45.49803" lon="4.62901">
        <ele>352.65</ele>
        <time>2017-03-26T10:14:13Z</time>
      </trkpt>
      <trkpt lat="45.49806" lon="4.62893">
        <ele>352.55</ele>
        <time>2017-03-26T10:14:14Z</time>
      </trkpt>
      <trkpt lat="45.49809" lon="4.62886">
        <ele>352.38</ele>
        <time>2017-03-26T10:14:15Z</time>
      </trkpt>
      <trkpt lat="45.49811" lon="4.6288">
        <ele>352.26</ele>
        <time>2017-03-26T10:14:16Z</time>
      </trkpt>
      <trkpt lat="45.49814" lon="4.62874">
        <ele>352.16</ele>
        <time>2017-03-26T10:14:17Z</time>
      </trkpt>
      <trkpt lat="45.49815" lon="4.62868">
        <ele>351.9</ele>
        <time>2017-03-26T10:14:18Z</time>
      </trkpt>
      <trkpt lat="45.49816" lon="4.62863">
        <ele>351.6</ele>
        <time>2017-03-26T10:14:19Z</time>
      </trkpt>
      <trkpt lat="45.49817" lon="4.6286">
        <ele>351.38</ele>
        <time>2017-03-26T10:14:20Z</time>
      </trkpt>
      <trkpt lat="45.49816" lon="4.62857">
        <ele>351.18</ele>
        <time>2017-03-26T10:14:21Z</time>
      </trkpt>
      <trkpt lat="45.49817" lon="4.62854">
        <ele>350.98</ele>
        <time>2017-03-26T10:14:22Z</time>
      </trkpt>
      <trkpt lat="45.49817" lon="4.62852">
        <ele>350.86</ele>
        <time>2017-03-26T10:14:23Z</time>
      </trkpt>
      <trkpt lat="45.49818" lon="4.6285">
        <ele>350.68</ele>
        <time>2017-03-26T10:14:24Z</time>
      </trkpt>
      <trkpt lat="45.49819" lon="4.62849">
        <ele>350.48</ele>
        <time>2017-03-26T10:14:25Z</time>
      </trkpt>
      <trkpt lat="45.4982" lon="4.62847">
        <ele>350.36</ele>
        <time>2017-03-26T10:14:26Z</time>
      </trkpt>
      <trkpt lat="45.4982" lon="4.62847">
        <ele>350.26</ele>
        <time>2017-03-26T10:14:27Z</time>
      </trkpt>
      <trkpt lat="45.49821" lon="4.62846">
        <ele>350.08</ele>
        <time>2017-03-26T10:14:28Z</time>
      </trkpt>
      <trkpt lat="45.49821" lon="4.62847">
        <ele>349.88</ele>
        <time>2017-03-26T10:14:29Z</time>
      </trkpt>
      <trkpt lat="45.49821" lon="4.62847">
        <ele>349.84</ele>
        <time>2017-03-26T10:14:30Z</time>
      </trkpt>
      <trkpt lat="45.49821" lon="4.62847">
        <ele>349.83</ele>
        <time>2017-03-26T10:14:31Z</time>
      </trkpt>
      <trkpt lat="45.49821" lon="4.62847">
        <ele>349.83</ele>
        <time>2017-03-26T10:14:32Z</time>
      </trkpt>
      <trkpt lat="45.49821" lon="4.62847">
        <ele>349.83</ele>
        <time>2017-03-26T10:14:33Z</time>
      </trkpt>
      <trkpt lat="45.49821" lon="4.62847">
        <ele>349.83</ele>
        <time>2017-03-26T10:14:34Z</time>
      </trkpt>
      <trkpt lat="45.49821" lon="4.62847">
        <ele>349.83</ele>
        <time>2017-03-26T10:14:35Z</time>
      </trkpt>
      <trkpt lat="45.49821" lon="4.62847">
        <ele>349.83</ele>
        <time>2017-03-26T10:14:36Z</time>
      </trkpt>
      <trkpt lat="45.49821" lon="4.62847">
        <ele>349.83</ele>
        <time>2017-03-26T10:14:37Z</time>
      </trkpt>
      <trkpt lat="45.49821" lon="4.62847">
        <ele>349.83</ele>
        <time>2017-03-26T10:14:38Z</time>
      </trkpt>
      <trkpt lat="45.49821" lon="4.62847">
        <ele>349.83</ele>
        <time>2017-03-26T10:14:39Z</time>
      </trkpt>
      <trkpt lat="45.49821" lon="4.62847">
        <ele>349.83</ele>
        <time>2017-03-26T10:14:40Z</time>
      </trkpt>
      <trkpt lat="45.49821" lon="4.62847">
        <ele>349.83</ele>
        <time>2017-03-26T10:14:41Z</time>
      </trkpt>
      <trkpt lat="45.49821" lon="4.62847">
        <ele>349.83</ele>
        <time>2017-03-26T10:14:42Z</time>
      </trkpt>
      <trkpt lat="45.49821" lon="4.62847">
        <ele>349.83</ele>
        <time>2017-03-26T10:14:43Z</time>
      </trkpt>
      <trkpt lat="45.49821" lon="4.62847">
        <ele>349.83</ele>
        <time>2017-03-26T10:14:44Z</time>
      </trkpt>
      <trkpt lat="45.49821" lon="4.62847">
        <ele>349.83</ele>
        <time>2017-03-26T10:14:45Z</time>
      </trkpt>
      <trkpt lat="45.49821" lon="4.62847">
        <ele>349.83</ele>
        <time>2017-03-26T10:14:46Z</time>
      </trkpt>
      <trkpt lat="45.49821" lon="4.62847">
        <ele>349.83</ele>
        <time>2017-03-26T10:14:47Z</time>
      </trkpt>
      <trkpt lat="45.49821" lon="4.62847">
        <ele>349.83</ele>
        <time>2017-03-26T10:14:48Z</time>
      </trkpt>
      <trkpt lat="45.49821" lon="4.62847">
        <ele>349.83</ele>
        <time>2017-03-26T10:14:49Z</time>
      </trkpt>
      <trkpt lat="45.49821" lon="4.62847">
        <ele>349.83</ele>
        <time>2017-03-26T10:14:50Z</time>
      </trkpt>
      <trkpt lat="45.49821" lon="4.62847">
        <ele>349.83</ele>
        <time>2017-03-26T10:14:51Z</time>
      </trkpt>
      <trkpt lat="45.49821" lon="4.62847">
        <ele>349.83</ele>
        <time>2017-03-26T10:14:52Z</time>
      </trkpt>
      <trkpt lat="45.49821" lon="4.62847">
        <ele>349.83</ele>
        <time>2017-03-26T10:14:53Z</time>
      </trkpt>
      <trkpt lat="45.49821" lon="4.62847">
        <ele>349.83</ele>
        <time>2017-03-26T10:14:54Z</time>
      </trkpt>
      <trkpt lat="45.49821" lon="4.62847">
        <ele>349.83</ele>
        <time>2017-03-26T10:14:55Z</time>
      </trkpt>
      <trkpt lat="45.49821" lon="4.62847">
        <ele>349.83</ele>
        <time>2017-03-26T10:14:56Z</time>
      </trkpt>
      <trkpt lat="45.49821" lon="4.62847">
        <ele>349.83</ele>
        <time>2017-03-26T10:14:57Z</time>
      </trkpt>
      <trkpt lat="45.49821" lon="4.62847">
        <ele>349.83</ele>
        <time>2017-03-26T10:14:58Z</time>
      </trkpt>
      <trkpt lat="45.49821" lon="4.62847">
        <ele>349.83</ele>
        <time>2017-03-26T10:14:59Z</time>
      </trkpt>
      <trkpt lat="45.49821" lon="4.62847">
        <ele>349.83</ele>
        <time>2017-03-26T10:15:00Z</time>
      </trkpt>
      <trkpt lat="45.49821" lon="4.62847">
        <ele>349.83</ele>
        <time>2017-03-26T10:15:01Z</time>
      </trkpt>
      <trkpt lat="45.49821" lon="4.62847">
        <ele>349.83</ele>
        <time>2017-03-26T10:15:02Z</time>
      </trkpt>
      <trkpt lat="45.49821" lon="4.62847">
        <ele>349.83</ele>
        <time>2017-03-26T10:15:03Z</time>
      </trkpt>
      <trkpt lat="45.49821" lon="4.62847">
        <ele>349.83</ele>
        <time>2017-03-26T10:15:04Z</time>
      </trkpt>
      <trkpt lat="45.49821" lon="4.62847">
        <ele>349.83</ele>
        <time>2017-03-26T10:15:05Z</time>
      </trkpt>
      <trkpt lat="45.49821" lon="4.62847">
        <ele>349.83</ele>
        <time>2017-03-26T10:15:06Z</time>
      </trkpt>
      <trkpt lat="45.49821" lon="4.62847">
        <ele>349.83</ele>
        <time>2017-03-26T10:15:07Z</time>
      </trkpt>
      <trkpt lat="45.49821" lon="4.62847">
        <ele>349.83</ele>
        <time>2017-03-26T10:15:08Z</time>
      </trkpt>
      <trkpt lat="45.49821" lon="4.62847">
        <ele>349.83</ele>
        <time>2017-03-26T10:15:09Z</time>
      </trkpt>
      <trkpt lat="45.49821" lon="4.62847">
        <ele>349.83</ele>
        <time>2017-03-26T10:15:10Z</time>
      </trkpt>
      <trkpt lat="45.49821" lon="4.62847">
        <ele>349.83</ele>
        <time>2017-03-26T10:15:11Z</time>
      </trkpt>
      <trkpt lat="45.49821" lon="4.62847">
        <ele>349.83</ele>
        <time>2017-03-26T10:15:12Z</time>
      </trkpt>
      <trkpt lat="45.49821" lon="4.62847">
        <ele>349.83</ele>
        <time>2017-03-26T10:15:13Z</time>
      </trkpt>
      <trkpt lat="45.49821" lon="4.62847">
        <ele>349.83</ele>
        <time>2017-03-26T10:15:14Z</time>
      </trkpt>
      <trkpt lat="45.49821" lon="4.62847">
        <ele>349.83</ele>
        <time>2017-03-26T10:15:15Z</time>
      </trkpt>
      <trkpt lat="45.49821" lon="4.62847">
        <ele>349.83</ele>
        <time>2017-03-26T10:15:16Z</time>
      </trkpt>
      <trkpt lat="45.49821" lon="4.62847">
        <ele>349.83</ele>
        <time>2017-03-26T10:15:17Z</time>
      </trkpt>
      <trkpt lat="45.49821" lon="4.62847">
        <ele>349.83</ele>
        <time>2017-03-26T10:15:18Z</time>
      </trkpt>
      <trkpt lat="45.49821" lon="4.62847">
        <ele>349.83</ele>
        <time>2017-03-26T10:15:19Z</time>
      </trkpt>
      <trkpt lat="45.49821" lon="4.62847">
        <ele>349.83</ele>
        <time>2017-03-26T10:15:20Z</time>
      </trkpt>
      <trkpt lat="45.49821" lon="4.62847">
        <ele>349.83</ele>
        <time>2017-03-26T10:15:21Z</time>
      </trkpt>
      <trkpt lat="45.49821" lon="4.62847">
        <ele>349.83</ele>
        <time>2017-03-26T10:15:22Z</time>
      </trkpt>
      <trkpt lat="45.49821" lon="4.62847">
        <ele>349.83</ele>
        <time>2017-03-26T10:15:23Z</time>
      </trkpt>
      <trkpt lat="45.49821" lon="4.62847">
        <ele>349.83</ele>
        <time>2017-03-26T10:15:24Z</time>
      </trkpt>
      <trkpt lat="45.49821" lon="4.62847">
        <ele>349.83</ele>
        <time>2017-03-26T10:15:25Z</time>
      </trkpt>
      <trkpt lat="45.49821" lon="4.62847">
        <ele>349.83</ele>
        <time>2017-03-26T10:15:26Z</time>
      </trkpt>
      <trkpt lat="45.49821" lon="4.62847">
        <ele>349.83</ele>
        <time>2017-03-26T10:15:27Z</time>
      </trkpt>
      <trkpt lat="45.49821" lon="4.62847">
        <ele>349.83</ele>
        <time>2017-03-26T10:15:28Z</time>
      </trkpt>
      <trkpt lat="45.49821" lon="4.62847">
        <ele>349.83</ele>
        <time>2017-03-26T10:15:29Z</time>
      </trkpt>
      <trkpt lat="45.49821" lon="4.62847">
        <ele>349.83</ele>
        <time>2017-03-26T10:15:30Z</time>
      </trkpt>
      <trkpt lat="45.49821" lon="4.62847">
        <ele>349.83</ele>
        <time>2017-03-26T10:15:31Z</time>
      </trkpt>
      <trkpt lat="45.49821" lon="4.62847">
        <ele>349.83</ele>
        <time>2017-03-26T10:15:32Z</time>
      </trkpt>
      <trkpt lat="45.49821" lon="4.62847">
        <ele>349.83</ele>
        <time>2017-03-26T10:15:33Z</time>
      </trkpt>
      <trkpt lat="45.49821" lon="4.62847">
        <ele>349.83</ele>
        <time>2017-03-26T10:15:34Z</time>
      </trkpt>
      <trkpt lat="45.49821" lon="4.62847">
        <ele>349.83</ele>
        <time>2017-03-26T10:15:35Z</time>
      </trkpt>
      <trkpt lat="45.49821" lon="4.62847">
        <ele>349.83</ele>
        <time>2017-03-26T10:15:36Z</time>
      </trkpt>
      <trkpt lat="45.49821" lon="4.62847">
        <ele>349.83</ele>
        <time>2017-03-26T10:15:37Z</time>
      </trkpt>
      <trkpt lat="45.49821" lon="4.62847">
        <ele>349.83</ele>
        <time>2017-03-26T10:15:38Z</time>
      </trkpt>
      <trkpt lat="45.49821" lon="4.62847">
        <ele>349.83</ele>
        <time>2017-03-26T10:15:39Z</time>
      </trkpt>
      <trkpt lat="45.49821" lon="4.62847">
        <ele>349.83</ele>
        <time>2017-03-26T10:15:40Z</time>
      </trkpt>
      <trkpt lat="45.49821" lon="4.62847">
        <ele>349.83</ele>
        <time>2017-03-26T10:15:41Z</time>
      </trkpt>
      <trkpt lat="45.49821" lon="4.62847">
        <ele>349.83</ele>
        <time>2017-03-26T10:15:42Z</time>
      </trkpt>
      <trkpt lat="45.49821" lon="4.62847">
        <ele>349.83</ele>
        <time>2017-03-26T10:15:43Z</time>
      </trkpt>
      <trkpt lat="45.49821" lon="4.62847">
        <ele>349.83</ele>
        <time>2017-03-26T10:15:44Z</time>
      </trkpt>
      <trkpt lat="45.49821" lon="4.62847">
        <ele>349.83</ele>
        <time>2017-03-26T10:15:45Z</time>
      </trkpt>
      <trkpt lat="45.49821" lon="4.62847">
        <ele>349.83</ele>
        <time>2017-03-26T10:15:46Z</time>
      </trkpt>
      <trkpt lat="45.49821" lon="4.62847">
        <ele>349.83</ele>
        <time>2017-03-26T10:15:47Z</time>
      </trkpt>
      <trkpt lat="45.49821" lon="4.62847">
        <ele>349.83</ele>
        <time>2017-03-26T10:15:48Z</time>
      </trkpt>
      <trkpt lat="45.49821" lon="4.62847">
        <ele>349.83</ele>
        <time>2017-03-26T10:15:49Z</time>
      </trkpt>
      <trkpt lat="45.49821" lon="4.62847">
        <ele>349.83</ele>
        <time>2017-03-26T10:15:50Z</time>
      </trkpt>
      <trkpt lat="45.49821" lon="4.62847">
        <ele>349.83</ele>
        <time>2017-03-26T10:15:51Z</time>
      </trkpt>
      <trkpt lat="45.49821" lon="4.62847">
        <ele>349.83</ele>
        <time>2017-03-26T10:15:52Z</time>
      </trkpt>
      <trkpt lat="45.49821" lon="4.62847">
        <ele>349.83</ele>
        <time>2017-03-26T10:15:53Z</time>
      </trkpt>
      <trkpt lat="45.49821" lon="4.62847">
        <ele>349.83</ele>
        <time>2017-03-26T10:15:54Z</time>
      </trkpt>
      <trkpt lat="45.49821" lon="4.62847">
        <ele>349.83</ele>
        <time>2017-03-26T10:15:55Z</time>
      </trkpt>
      <trkpt lat="45.49821" lon="4.62847">
        <ele>349.83</ele>
        <time>2017-03-26T10:15:56Z</time>
      </trkpt>
      <trkpt lat="45.49821" lon="4.62847">
        <ele>349.83</ele>
        <time>2017-03-26T10:15:57Z</time>
      </trkpt>
      <trkpt lat="45.49821" lon="4.62847">
        <ele>349.83</ele>
        <time>2017-03-26T10:15:58Z</time>
      </trkpt>
      <trkpt lat="45.49821" lon="4.62847">
        <ele>349.83</ele>
        <time>2017-03-26T10:15:59Z</time>
      </trkpt>
      <trkpt lat="45.49821" lon="4.62847">
        <ele>349.83</ele>
        <time>2017-03-26T10:16:00Z</time>
      </trkpt>
      <trkpt lat="45.49821" lon="4.62847">
        <ele>349.83</ele>
        <time>2017-03-26T10:16:01Z</time>
      </trkpt>
      <trkpt lat="45.49821" lon="4.62847">
        <ele>349.83</ele>
        <time>2017-03-26T10:16:02Z</time>
      </trkpt>
      <trkpt lat="45.49821" lon="4.62847">
        <ele>349.83</ele>
        <time>2017-03-26T10:16:03Z</time>
      </trkpt>
      <trkpt lat="45.49821" lon="4.62847">
        <ele>349.83</ele>
        <time>2017-03-26T10:16:04Z</time>
      </trkpt>
      <trkpt lat="45.49821" lon="4.62847">
        <ele>349.83</ele>
        <time>2017-03-26T10:16:05Z</time>
      </trkpt>
      <trkpt lat="45.49821" lon="4.62847">
        <ele>349.83</ele>
        <time>2017-03-26T10:16:06Z</time>
      </trkpt>
      <trkpt lat="45.49821" lon="4.62847">
        <ele>349.83</ele>
        <time>2017-03-26T10:16:07Z</time>
      </trkpt>
      <trkpt lat="45.49821" lon="4.62847">
        <ele>349.83</ele>
        <time>2017-03-26T10:16:08Z</time>
      </trkpt>
      <trkpt lat="45.49821" lon="4.62847">
        <ele>349.83</ele>
        <time>2017-03-26T10:16:09Z</time>
      </trkpt>
      <trkpt lat="45.49821" lon="4.62847">
        <ele>349.83</ele>
        <time>2017-03-26T10:16:10Z</time>
      </trkpt>
      <trkpt lat="45.49821" lon="4.62847">
        <ele>349.83</ele>
        <time>2017-03-26T10:16:11Z</time>
      </trkpt>
      <trkpt lat="45.49821" lon="4.62847">
        <ele>349.83</ele>
        <time>2017-03-26T10:16:12Z</time>
      </trkpt>
      <trkpt lat="45.49821" lon="4.62847">
        <ele>349.83</ele>
        <time>2017-03-26T10:16:13Z</time>
      </trkpt>
      <trkpt lat="45.49821" lon="4.62847">
        <ele>349.83</ele>
        <time>2017-03-26T10:16:14Z</time>
      </trkpt>
      <trkpt lat="45.49821" lon="4.62847">
        <ele>349.83</ele>
        <time>2017-03-26T10:16:15Z</time>
      </trkpt>
      <trkpt lat="45.49821" lon="4.62847">
        <ele>349.83</ele>
        <time>2017-03-26T10:16:16Z</time>
      </trkpt>
      <trkpt lat="45.49821" lon="4.62847">
        <ele>349.83</ele>
        <time>2017-03-26T10:16:17Z</time>
      </trkpt>
      <trkpt lat="45.49821" lon="4.62847">
        <ele>349.83</ele>
        <time>2017-03-26T10:16:18Z</time>
      </trkpt>
      <trkpt lat="45.49821" lon="4.62847">
        <ele>349.83</ele>
        <time>2017-03-26T10:16:19Z</time>
      </trkpt>
      <trkpt lat="45.49821" lon="4.62847">
        <ele>349.83</ele>
        <time>2017-03-26T10:16:20Z</time>
      </trkpt>
      <trkpt lat="45.49821" lon="4.62847">
        <ele>349.83</ele>
        <time>2017-03-26T10:16:21Z</time>
      </trkpt>
      <trkpt lat="45.49821" lon="4.62847">
        <ele>349.83</ele>
        <time>2017-03-26T10:16:22Z</time>
      </trkpt>
      <trkpt lat="45.49821" lon="4.62847">
        <ele>349.83</ele>
        <time>2017-03-26T10:16:23Z</time>
      </trkpt>
      <trkpt lat="45.49821" lon="4.62847">
        <ele>349.83</ele>
        <time>2017-03-26T10:16:24Z</time>
      </trkpt>
      <trkpt lat="45.49821" lon="4.62847">
        <ele>349.83</ele>
        <time>2017-03-26T10:16:25Z</time>
      </trkpt>
      <trkpt lat="45.49821" lon="4.62847">
        <ele>349.83</ele>
        <time>2017-03-26T10:16:26Z</time>
      </trkpt>
      <trkpt lat="45.49821" lon="4.62847">
        <ele>349.83</ele>
        <time>2017-03-26T10:16:27Z</time>
      </trkpt>
      <trkpt lat="45.49821" lon="4.62847">
        <ele>349.83</ele>
        <time>2017-03-26T10:16:28Z</time>
      </trkpt>
      <trkpt lat="45.49821" lon="4.62847">
        <ele>349.83</ele>
        <time>2017-03-26T10:16:29Z</time>
      </trkpt>
      <trkpt lat="45.49821" lon="4.62847">
        <ele>349.83</ele>
        <time>2017-03-26T10:16:30Z</time>
      </trkpt>
      <trkpt lat="45.49821" lon="4.62847">
        <ele>349.83</ele>
        <time>2017-03-26T10:16:31Z</time>
      </trkpt>
      <trkpt lat="45.49821" lon="4.62847">
        <ele>349.83</ele>
        <time>2017-03-26T10:16:32Z</time>
      </trkpt>
      <trkpt lat="45.49821" lon="4.62847">
        <ele>349.83</ele>
        <time>2017-03-26T10:16:33Z</time>
      </trkpt>
      <trkpt lat="45.49821" lon="4.62847">
        <ele>349.83</ele>
        <time>2017-03-26T10:16:34Z</time>
      </trkpt>
      <trkpt lat="45.49821" lon="4.62847">
        <ele>349.83</ele>
        <time>2017-03-26T10:16:35Z</time>
      </trkpt>
      <trkpt lat="45.49821" lon="4.62847">
        <ele>349.83</ele>
        <time>2017-03-26T10:16:36Z</time>
      </trkpt>
      <trkpt lat="45.49821" lon="4.62847">
        <ele>349.83</ele>
        <time>2017-03-26T10:16:37Z</time>
      </trkpt>
      <trkpt lat="45.49821" lon="4.62847">
        <ele>349.83</ele>
        <time>2017-03-26T10:16:38Z</time>
      </trkpt>
      <trkpt lat="45.49821" lon="4.62847">
        <ele>349.83</ele>
        <time>2017-03-26T10:16:39Z</time>
      </trkpt>
      <trkpt lat="45.49821" lon="4.62847">
        <ele>349.83</ele>
        <time>2017-03-26T10:16:40Z</time>
      </trkpt>
      <trkpt lat="45.49821" lon="4.62847">
        <ele>349.83</ele>
        <time>2017-03-26T10:16:41Z</time>
      </trkpt>
      <trkpt lat="45.49821" lon="4.62847">
        <ele>349.83</ele>
        <time>2017-03-26T10:16:42Z</time>
      </trkpt>
      <trkpt lat="45.49821" lon="4.62847">
        <ele>349.83</ele>
        <time>2017-03-26T10:16:43Z</time>
      </trkpt>
      <trkpt lat="45.49821" lon="4.62847">
        <ele>349.83</ele>
        <time>2017-03-26T10:16:44Z</time>
      </trkpt>
      <trkpt lat="45.49821" lon="4.62847">
        <ele>349.83</ele>
        <time>2017-03-26T10:16:45Z</time>
      </trkpt>
      <trkpt lat="45.49821" lon="4.62847">
        <ele>349.83</ele>
        <time>2017-03-26T10:16:46Z</time>
      </trkpt>
      <trkpt lat="45.49821" lon="4.62847">
        <ele>349.83</ele>
        <time>2017-03-26T10:16:47Z</time>
      </trkpt>
      <trkpt lat="45.49821" lon="4.62847">
        <ele>349.83</ele>
        <time>2017-03-26T10:16:48Z</time>
      </trkpt>
      <trkpt lat="45.49821" lon="4.62847">
        <ele>349.83</ele>
        <time>2017-03-26T10:16:49Z</time>
      </trkpt>
      <trkpt lat="45.49821" lon="4.62847">
        <ele>349.83</ele>
        <time>2017-03-26T10:16:50Z</time>
      </trkpt>
      <trkpt lat="45.49821" lon="4.62847">
        <ele>349.83</ele>
        <time>2017-03-26T10:16:51Z</time>
      </trkpt>
      <trkpt lat="45.49821" lon="4.62847">
        <ele>349.83</ele>
        <time>2017-03-26T10:16:52Z</time>
      </trkpt>
      <trkpt lat="45.49821" lon="4.62847">
        <ele>349.83</ele>
        <time>2017-03-26T10:16:53Z</time>
      </trkpt>
      <trkpt lat="45.49821" lon="4.62847">
        <ele>349.83</ele>
        <time>2017-03-26T10:16:54Z</time>
      </trkpt>
      <trkpt lat="45.49821" lon="4.62847">
        <ele>349.83</ele>
        <time>2017-03-26T10:16:55Z</time>
      </trkpt>
      <trkpt lat="45.49821" lon="4.62847">
        <ele>349.83</ele>
        <time>2017-03-26T10:16:56Z</time>
      </trkpt>
      <trkpt lat="45.49821" lon="4.62847">
        <ele>349.83</ele>
        <time>2017-03-26T10:16:57Z</time>
      </trkpt>
      <trkpt lat="45.49821" lon="4.62847">
        <ele>349.83</ele>
        <time>2017-03-26T10:16:58Z</time>
      </trkpt>
      <trkpt lat="45.49821" lon="4.62847">
        <ele>349.83</ele>
        <time>2017-03-26T10:16:59Z</time>
      </trkpt>
      <trkpt lat="45.49821" lon="4.62847">
        <ele>349.83</ele>
        <time>2017-03-26T10:17:00Z</time>
      </trkpt>
      <trkpt lat="45.49821" lon="4.62847">
        <ele>349.83</ele>
        <time>2017-03-26T10:17:01Z</time>
      </trkpt>
      <trkpt lat="45.49821" lon="4.62847">
        <ele>349.83</ele>
        <time>2017-03-26T10:17:02Z</time>
      </trkpt>
      <trkpt lat="45.49821" lon="4.62847">
        <ele>349.83</ele>
        <time>2017-03-26T10:17:03Z</time>
      </trkpt>
      <trkpt lat="45.49821" lon="4.62847">
        <ele>349.83</ele>
        <time>2017-03-26T10:17:04Z</time>
      </trkpt>
      <trkpt lat="45.49821" lon="4.62847">
        <ele>349.83</ele>
        <time>2017-03-26T10:17:05Z</time>
      </trkpt>
      <trkpt lat="45.49821" lon="4.62847">
        <ele>349.83</ele>
        <time>2017-03-26T10:17:06Z</time>
      </trkpt>
      <trkpt lat="45.49821" lon="4.62847">
        <ele>349.83</ele>
        <time>2017-03-26T10:17:07Z</time>
      </trkpt>
      <trkpt lat="45.49821" lon="4.62847">
        <ele>349.83</ele>
        <time>2017-03-26T10:17:08Z</time>
      </trkpt>
      <trkpt lat="45.49821" lon="4.62847">
        <ele>349.83</ele>
        <time>2017-03-26T10:17:09Z</time>
      </trkpt>
      <trkpt lat="45.49821" lon="4.62847">
        <ele>349.83</ele>
        <time>2017-03-26T10:17:10Z</time>
      </trkpt>
      <trkpt lat="45.49821" lon="4.62847">
        <ele>349.83</ele>
        <time>2017-03-26T10:17:11Z</time>
      </trkpt>
      <trkpt lat="45.49821" lon="4.62847">
        <ele>349.83</ele>
        <time>2017-03-26T10:17:12Z</time>
      </trkpt>
      <trkpt lat="45.49821" lon="4.62847">
        <ele>349.83</ele>
        <time>2017-03-26T10:17:13Z</time>
      </trkpt>
      <trkpt lat="45.49821" lon="4.62847">
        <ele>349.83</ele>
        <time>2017-03-26T10:17:14Z</time>
      </trkpt>
      <trkpt lat="45.49821" lon="4.62847">
        <ele>349.83</ele>
        <time>2017-03-26T10:17:15Z</time>
      </trkpt>
      <trkpt lat="45.49821" lon="4.62847">
        <ele>349.83</ele>
        <time>2017-03-26T10:17:16Z</time>
      </trkpt>
      <trkpt lat="45.49821" lon="4.62847">
        <ele>349.83</ele>
        <time>2017-03-26T10:17:17Z</time>
      </trkpt>
      <trkpt lat="45.49821" lon="4.62847">
        <ele>349.83</ele>
        <time>2017-03-26T10:17:18Z</time>
      </trkpt>
      <trkpt lat="45.49821" lon="4.62847">
        <ele>349.83</ele>
        <time>2017-03-26T10:17:19Z</time>
      </trkpt>
      <trkpt lat="45.49821" lon="4.62847">
        <ele>349.83</ele>
        <time>2017-03-26T10:17:20Z</time>
      </trkpt>
      <trkpt lat="45.49821" lon="4.62847">
        <ele>349.83</ele>
        <time>2017-03-26T10:17:21Z</time>
      </trkpt>
      <trkpt lat="45.49821" lon="4.62847">
        <ele>349.83</ele>
        <time>2017-03-26T10:17:22Z</time>
      </trkpt>
      <trkpt lat="45.49821" lon="4.62847">
        <ele>349.83</ele>
        <time>2017-03-26T10:17:23Z</time>
      </trkpt>
      <trkpt lat="45.49821" lon="4.62847">
        <ele>349.83</ele>
        <time>2017-03-26T10:17:24Z</time>
      </trkpt>
      <trkpt lat="45.49821" lon="4.62847">
        <ele>349.83</ele>
        <time>2017-03-26T10:17:25Z</time>
      </trkpt>
      <trkpt lat="45.49821" lon="4.62847">
        <ele>349.83</ele>
        <time>2017-03-26T10:17:26Z</time>
      </trkpt>
      <trkpt lat="45.49821" lon="4.62847">
        <ele>349.83</ele>
        <time>2017-03-26T10:17:27Z</time>
      </trkpt>
      <trkpt lat="45.49821" lon="4.62847">
        <ele>349.83</ele>
        <time>2017-03-26T10:17:28Z</time>
      </trkpt>
      <trkpt lat="45.49821" lon="4.62847">
        <ele>349.83</ele>
        <time>2017-03-26T10:17:29Z</time>
      </trkpt>
      <trkpt lat="45.49821" lon="4.62847">
        <ele>349.83</ele>
        <time>2017-03-26T10:17:30Z</time>
      </trkpt>
      <trkpt lat="45.49821" lon="4.62847">
        <ele>349.83</ele>
        <time>2017-03-26T10:17:31Z</time>
      </trkpt>
      <trkpt lat="45.49821" lon="4.62847">
        <ele>349.83</ele>
        <time>2017-03-26T10:17:32Z</time>
      </trkpt>
      <trkpt lat="45.49821" lon="4.62847">
        <ele>349.83</ele>
        <time>2017-03-26T10:17:33Z</time>
      </trkpt>
      <trkpt lat="45.49821" lon="4.62847">
        <ele>349.83</ele>
        <time>2017-03-26T10:17:34Z</time>
      </trkpt>
      <trkpt lat="45.49821" lon="4.62847">
        <ele>349.83</ele>
        <time>2017-03-26T10:17:35Z</time>
      </trkpt>
      <trkpt lat="45.49821" lon="4.62847">
        <ele>349.83</ele>
        <time>2017-03-26T10:17:36Z</time>
      </trkpt>
      <trkpt lat="45.49821" lon="4.62847">
        <ele>349.83</ele>
        <time>2017-03-26T10:17:37Z</time>
      </trkpt>
      <trkpt lat="45.49821" lon="4.62847">
        <ele>349.83</ele>
        <time>2017-03-26T10:17:38Z</time>
      </trkpt>
      <trkpt lat="45.49821" lon="4.62847">
        <ele>349.83</ele>
        <time>2017-03-26T10:17:39Z</time>
      </trkpt>
      <trkpt lat="45.49821" lon="4.62847">
        <ele>349.83</ele>
        <time>2017-03-26T10:17:40Z</time>
      </trkpt>
      <trkpt lat="45.49821" lon="4.62847">
        <ele>349.83</ele>
        <time>2017-03-26T10:17:41Z</time>
      </trkpt>
      <trkpt lat="45.49821" lon="4.62847">
        <ele>349.83</ele>
        <time>2017-03-26T10:17:42Z</time>
      </trkpt>
      <trkpt lat="45.49821" lon="4.62847">
        <ele>349.83</ele>
        <time>2017-03-26T10:17:43Z</time>
      </trkpt>
      <trkpt lat="45.49821" lon="4.62847">
        <ele>349.83</ele>
        <time>2017-03-26T10:17:44Z</time>
      </trkpt>
      <trkpt lat="45.49821" lon="4.62847">
        <ele>349.83</ele>
        <time>2017-03-26T10:17:45Z</time>
      </trkpt>
      <trkpt lat="45.49821" lon="4.62847">
        <ele>349.83</ele>
        <time>2017-03-26T10:17:46Z</time>
      </trkpt>
      <trkpt lat="45.49821" lon="4.62847">
        <ele>349.83</ele>
        <time>2017-03-26T10:17:47Z</time>
      </trkpt>
      <trkpt lat="45.49821" lon="4.62847">
        <ele>349.83</ele>
        <time>2017-03-26T10:17:48Z</time>
      </trkpt>
      <trkpt lat="45.49821" lon="4.62847">
        <ele>349.83</ele>
        <time>2017-03-26T10:17:49Z</time>
      </trkpt>
      <trkpt lat="45.49821" lon="4.62847">
        <ele>349.83</ele>
        <time>2017-03-26T10:17:50Z</time>
      </trkpt>
      <trkpt lat="45.49821" lon="4.62847">
        <ele>349.83</ele>
        <time>2017-03-26T10:17:51Z</time>
      </trkpt>
      <trkpt lat="45.49821" lon="4.62847">
        <ele>349.83</ele>
        <time>2017-03-26T10:17:52Z</time>
      </trkpt>
      <trkpt lat="45.49821" lon="4.62847">
        <ele>349.83</ele>
        <time>2017-03-26T10:17:53Z</time>
      </trkpt>
      <trkpt lat="45.49821" lon="4.62847">
        <ele>349.83</ele>
        <time>2017-03-26T10:17:54Z</time>
      </trkpt>
      <trkpt lat="45.49821" lon="4.62847">
        <ele>349.83</ele>
        <time>2017-03-26T10:17:55Z</time>
      </trkpt>
      <trkpt lat="45.49821" lon="4.62847">
        <ele>349.83</ele>
        <time>2017-03-26T10:17:56Z</time>
      </trkpt>
      <trkpt lat="45.49821" lon="4.62847">
        <ele>349.83</ele>
        <time>2017-03-26T10:17:57Z</time>
      </trkpt>
      <trkpt lat="45.49821" lon="4.62847">
        <ele>349.83</ele>
        <time>2017-03-26T10:17:58Z</time>
      </trkpt>
      <trkpt lat="45.49821" lon="4.62847">
        <ele>349.83</ele>
        <time>2017-03-26T10:17:59Z</time>
      </trkpt>
      <trkpt lat="45.49821" lon="4.62847">
        <ele>349.83</ele>
        <time>2017-03-26T10:18:00Z</time>
      </trkpt>
      <trkpt lat="45.49821" lon="4.62847">
        <ele>349.83</ele>
        <time>2017-03-26T10:18:01Z</time>
      </trkpt>
      <trkpt lat="45.49821" lon="4.62847">
        <ele>349.83</ele>
        <time>2017-03-26T10:18:02Z</time>
      </trkpt>
      <trkpt lat="45.49821" lon="4.62847">
        <ele>349.83</ele>
        <time>2017-03-26T10:18:03Z</time>
      </trkpt>
      <trkpt lat="45.49821" lon="4.62847">
        <ele>349.83</ele>
        <time>2017-03-26T10:18:04Z</time>
      </trkpt>
      <trkpt lat="45.49821" lon="4.62847">
        <ele>349.83</ele>
        <time>2017-03-26T10:18:05Z</time>
      </trkpt>
      <trkpt lat="45.49821" lon="4.62847">
        <ele>349.83</ele>
        <time>2017-03-26T10:18:06Z</time>
      </trkpt>
      <trkpt lat="45.49821" lon="4.62847">
        <ele>349.83</ele>
        <time>2017-03-26T10:18:07Z</time>
      </trkpt>
      <trkpt lat="45.49821" lon="4.62847">
        <ele>349.83</ele>
        <time>2017-03-26T10:18:08Z</time>
      </trkpt>
      <trkpt lat="45.49821" lon="4.62847">
        <ele>349.83</ele>
        <time>2017-03-26T10:18:09Z</time>
      </trkpt>
      <trkpt lat="45.49822" lon="4.62852">
        <ele>349.35</ele>
        <time>2017-03-26T10:18:10Z</time>
      </trkpt>
      <trkpt lat="45.49821" lon="4.62857">
        <ele>349.33</ele>
        <time>2017-03-26T10:18:11Z</time>
      </trkpt>
      <trkpt lat="45.49819" lon="4.62864">
        <ele>349.41</ele>
        <time>2017-03-26T10:18:12Z</time>
      </trkpt>
      <trkpt lat="45.49816" lon="4.62872">
        <ele>349.59</ele>
        <time>2017-03-26T10:18:13Z</time>
      </trkpt>
      <trkpt lat="45.49812" lon="4.62881">
        <ele>349.7</ele>
        <time>2017-03-26T10:18:14Z</time>
      </trkpt>
      <trkpt lat="45.49809" lon="4.6289">
        <ele>349.8</ele>
        <time>2017-03-26T10:18:15Z</time>
      </trkpt>
      <trkpt lat="45.49805" lon="4.62899">
        <ele>349.98</ele>
        <time>2017-03-26T10:18:16Z</time>
      </trkpt>
      <trkpt lat="45.49801" lon="4.62909">
        <ele>350.1</ele>
        <time>2017-03-26T10:18:17Z</time>
      </trkpt>
      <trkpt lat="45.49796" lon="4.62919">
        <ele>350.2</ele>
        <time>2017-03-26T10:18:18Z</time>
      </trkpt>
      <trkpt lat="45.49792" lon="4.6293">
        <ele>350.3</ele>
        <time>2017-03-26T10:18:19Z</time>
      </trkpt>
      <trkpt lat="45.49788" lon="4.62939">
        <ele>350.4</ele>
        <time>2017-03-26T10:18:20Z</time>
      </trkpt>
      <trkpt lat="45.49785" lon="4.62947">
        <ele>350.58</ele>
        <time>2017-03-26T10:18:21Z</time>
      </trkpt>
      <trkpt lat="45.49781" lon="4.62955">
        <ele>350.7</ele>
        <time>2017-03-26T10:18:22Z</time>
      </trkpt>
      <trkpt lat="45.49779" lon="4.62961">
        <ele>350.8</ele>
        <time>2017-03-26T10:18:23Z</time>
      </trkpt>
      <trkpt lat="45.49777" lon="4.62966">
        <ele>350.9</ele>
        <time>2017-03-26T10:18:24Z</time>
      </trkpt>
      <trkpt lat="45.49777" lon="4.62968">
        <ele>351</ele>
        <time>2017-03-26T10:18:25Z</time>
      </trkpt>
      <trkpt lat="45.49778" lon="4.6297">
        <ele>351.1</ele>
        <time>2017-03-26T10:18:26Z</time>
      </trkpt>
      <trkpt lat="45.49779" lon="4.62971">
        <ele>351.2</ele>
        <time>2017-03-26T10:18:27Z</time>
      </trkpt>
      <trkpt lat="45.4978" lon="4.62972">
        <ele>351.3</ele>
        <time>2017-03-26T10:18:28Z</time>
      </trkpt>
      <trkpt lat="45.49781" lon="4.62972">
        <ele>351.33</ele>
        <time>2017-03-26T10:18:29Z</time>
      </trkpt>
      <trkpt lat="45.49781" lon="4.62972">
        <ele>351.33</ele>
        <time>2017-03-26T10:18:30Z</time>
      </trkpt>
      <trkpt lat="45.49781" lon="4.62972">
        <ele>351.33</ele>
        <time>2017-03-26T10:18:31Z</time>
      </trkpt>
      <trkpt lat="45.49781" lon="4.62972">
        <ele>351.33</ele>
        <time>2017-03-26T10:18:32Z</time>
      </trkpt>
      <trkpt lat="45.49781" lon="4.62972">
        <ele>351.33</ele>
        <time>2017-03-26T10:18:33Z</time>
      </trkpt>
      <trkpt lat="45.49781" lon="4.62972">
        <ele>351.33</ele>
        <time>2017-03-26T10:18:34Z</time>
      </trkpt>
      <trkpt lat="45.49781" lon="4.62972">
        <ele>351.33</ele>
        <time>2017-03-26T10:18:35Z</time>
      </trkpt>
      <trkpt lat="45.49781" lon="4.62972">
        <ele>351.33</ele>
        <time>2017-03-26T10:18:36Z</time>
      </trkpt>
      <trkpt lat="45.49781" lon="4.62972">
        <ele>351.33</ele>
        <time>2017-03-26T10:18:37Z</time>
      </trkpt>
      <trkpt lat="45.49781" lon="4.62972">
        <ele>351.33</ele>
        <time>2017-03-26T10:18:38Z</time>
      </trkpt>
      <trkpt lat="45.49781" lon="4.62972">
        <ele>351.33</ele>
        <time>2017-03-26T10:18:39Z</time>
      </trkpt>
      <trkpt lat="45.49781" lon="4.62972">
        <ele>351.33</ele>
        <time>2017-03-26T10:18:40Z</time>
      </trkpt>
      <trkpt lat="45.49781" lon="4.62972">
        <ele>351.33</ele>
        <time>2017-03-26T10:18:41Z</time>
      </trkpt>
      <trkpt lat="45.49781" lon="4.62972">
        <ele>351.33</ele>
        <time>2017-03-26T10:18:42Z</time>
      </trkpt>
      <trkpt lat="45.49781" lon="4.62972">
        <ele>351.33</ele>
        <time>2017-03-26T10:18:43Z</time>
      </trkpt>
      <trkpt lat="45.49781" lon="4.62972">
        <ele>351.33</ele>
        <time>2017-03-26T10:18:44Z</time>
      </trkpt>
      <trkpt lat="45.49781" lon="4.62972">
        <ele>351.33</ele>
        <time>2017-03-26T10:18:45Z</time>
      </trkpt>
      <trkpt lat="45.49781" lon="4.62972">
        <ele>351.33</ele>
        <time>2017-03-26T10:18:46Z</time>
      </trkpt>
      <trkpt lat="45.49781" lon="4.62972">
        <ele>351.33</ele>
        <time>2017-03-26T10:18:47Z</time>
      </trkpt>
      <trkpt lat="45.49781" lon="4.62972">
        <ele>351.33</ele>
        <time>2017-03-26T10:18:48Z</time>
      </trkpt>
      <trkpt lat="45.49781" lon="4.62972">
        <ele>351.33</ele>
        <time>2017-03-26T10:18:49Z</time>
      </trkpt>
      <trkpt lat="45.49781" lon="4.62972">
        <ele>351.33</ele>
        <time>2017-03-26T10:18:50Z</time>
      </trkpt>
      <trkpt lat="45.49781" lon="4.62972">
        <ele>351.33</ele>
        <time>2017-03-26T10:18:51Z</time>
      </trkpt>
      <trkpt lat="45.49781" lon="4.62972">
        <ele>351.33</ele>
        <time>2017-03-26T10:18:52Z</time>
      </trkpt>
      <trkpt lat="45.49781" lon="4.62972">
        <ele>351.33</ele>
        <time>2017-03-26T10:18:53Z</time>
      </trkpt>
      <trkpt lat="45.49781" lon="4.62972">
        <ele>351.33</ele>
        <time>2017-03-26T10:18:54Z</time>
      </trkpt>
      <trkpt lat="45.49783" lon="4.62975">
        <ele>351.33</ele>
        <time>2017-03-26T10:18:55Z</time>
      </trkpt>
      <trkpt lat="45.49785" lon="4.62976">
        <ele>351.25</ele>
        <time>2017-03-26T10:18:56Z</time>
      </trkpt>
      <trkpt lat="45.49788" lon="4.62974">
        <ele>351.15</ele>
        <time>2017-03-26T10:18:57Z</time>
      </trkpt>
      <trkpt lat="45.4979" lon="4.62971">
        <ele>351.05</ele>
        <time>2017-03-26T10:18:58Z</time>
      </trkpt>
      <trkpt lat="45.49792" lon="4.62963">
        <ele>350.95</ele>
        <time>2017-03-26T10:18:59Z</time>
      </trkpt>
      <trkpt lat="45.49793" lon="4.62956">
        <ele>350.85</ele>
        <time>2017-03-26T10:19:00Z</time>
      </trkpt>
      <trkpt lat="45.49794" lon="4.62948">
        <ele>350.76</ele>
        <time>2017-03-26T10:19:01Z</time>
      </trkpt>
      <trkpt lat="45.49796" lon="4.62938">
        <ele>350.65</ele>
        <time>2017-03-26T10:19:02Z</time>
      </trkpt>
      <trkpt lat="45.49799" lon="4.62926">
        <ele>350.55</ele>
        <time>2017-03-26T10:19:03Z</time>
      </trkpt>
      <trkpt lat="45.49802" lon="4.62914">
        <ele>350.45</ele>
        <time>2017-03-26T10:19:04Z</time>
      </trkpt>
      <trkpt lat="45.49805" lon="4.62903">
        <ele>350.36</ele>
        <time>2017-03-26T10:19:05Z</time>
      </trkpt>
      <trkpt lat="45.4981" lon="4.62892">
        <ele>350.26</ele>
        <time>2017-03-26T10:19:06Z</time>
      </trkpt>
      <trkpt lat="45.49815" lon="4.62881">
        <ele>350.08</ele>
        <time>2017-03-26T10:19:07Z</time>
      </trkpt>
      <trkpt lat="45.49818" lon="4.62871">
        <ele>349.96</ele>
        <time>2017-03-26T10:19:08Z</time>
      </trkpt>
      <trkpt lat="45.49821" lon="4.62862">
        <ele>349.78</ele>
        <time>2017-03-26T10:19:09Z</time>
      </trkpt>
      <trkpt lat="45.49824" lon="4.62854">
        <ele>349.58</ele>
        <time>2017-03-26T10:19:10Z</time>
      </trkpt>
      <trkpt lat="45.49826" lon="4.62849">
        <ele>349.38</ele>
        <time>2017-03-26T10:19:11Z</time>
      </trkpt>
      <trkpt lat="45.49826" lon="4.62847">
        <ele>349.26</ele>
        <time>2017-03-26T10:19:12Z</time>
      </trkpt>
      <trkpt lat="45.49826" lon="4.62846">
        <ele>349.08</ele>
        <time>2017-03-26T10:19:13Z</time>
      </trkpt>
      <trkpt lat="45.49826" lon="4.62845">
        <ele>348.88</ele>
        <time>2017-03-26T10:19:14Z</time>
      </trkpt>
      <trkpt lat="45.49827" lon="4.62845">
        <ele>348.68</ele>
        <time>2017-03-26T10:19:15Z</time>
      </trkpt>
      <trkpt lat="45.49826" lon="4.62845">
        <ele>348.56</ele>
        <time>2017-03-26T10:19:16Z</time>
      </trkpt>
      <trkpt lat="45.49826" lon="4.62845">
        <ele>348.54</ele>
        <time>2017-03-26T10:19:17Z</time>
      </trkpt>
      <trkpt lat="45.49826" lon="4.62845">
        <ele>348.53</ele>
        <time>2017-03-26T10:19:18Z</time>
      </trkpt>
      <trkpt lat="45.49826" lon="4.62845">
        <ele>348.53</ele>
        <time>2017-03-26T10:19:19Z</time>
      </trkpt>
      <trkpt lat="45.49826" lon="4.62845">
        <ele>348.53</ele>
        <time>2017-03-26T10:19:20Z</time>
      </trkpt>
      <trkpt lat="45.49826" lon="4.62845">
        <ele>348.53</ele>
        <time>2017-03-26T10:19:21Z</time>
      </trkpt>
      <trkpt lat="45.49826" lon="4.62845">
        <ele>348.53</ele>
        <time>2017-03-26T10:19:22Z</time>
      </trkpt>
      <trkpt lat="45.49826" lon="4.62845">
        <ele>348.53</ele>
        <time>2017-03-26T10:19:23Z</time>
      </trkpt>
      <trkpt lat="45.49826" lon="4.62845">
        <ele>348.53</ele>
        <time>2017-03-26T10:19:24Z</time>
      </trkpt>
      <trkpt lat="45.49827" lon="4.62841">
        <ele>348.45</ele>
        <time>2017-03-26T10:19:25Z</time>
      </trkpt>
      <trkpt lat="45.49827" lon="4.62838">
        <ele>348.35</ele>
        <time>2017-03-26T10:19:26Z</time>
      </trkpt>
      <trkpt lat="45.49829" lon="4.62835">
        <ele>348.33</ele>
        <time>2017-03-26T10:19:27Z</time>
      </trkpt>
      <trkpt lat="45.4983" lon="4.62834">
        <ele>348.33</ele>
        <time>2017-03-26T10:19:28Z</time>
      </trkpt>
      <trkpt lat="45.49831" lon="4.62834">
        <ele>348.33</ele>
        <time>2017-03-26T10:19:29Z</time>
      </trkpt>
      <trkpt lat="45.49832" lon="4.62835">
        <ele>348.33</ele>
        <time>2017-03-26T10:19:30Z</time>
      </trkpt>
      <trkpt lat="45.49832" lon="4.62836">
        <ele>348.33</ele>
        <time>2017-03-26T10:19:31Z</time>
      </trkpt>
      <trkpt lat="45.49831" lon="4.6284">
        <ele>348.33</ele>
        <time>2017-03-26T10:19:32Z</time>
      </trkpt>
      <trkpt lat="45.4983" lon="4.62844">
        <ele>348.33</ele>
        <time>2017-03-26T10:19:33Z</time>
      </trkpt>
      <trkpt lat="45.49827" lon="4.62852">
        <ele>348.33</ele>
        <time>2017-03-26T10:19:34Z</time>
      </trkpt>
      <trkpt lat="45.49823" lon="4.62861">
        <ele>348.33</ele>
        <time>2017-03-26T10:19:35Z</time>
      </trkpt>
      <trkpt lat="45.49816" lon="4.62876">
        <ele>348.33</ele>
        <time>2017-03-26T10:19:36Z</time>
      </trkpt>
      <trkpt lat="45.4981" lon="4.6289">
        <ele>348.33</ele>
        <time>2017-03-26T10:19:37Z</time>
      </trkpt>
      <trkpt lat="45.49803" lon="4.62906">
        <ele>348.41</ele>
        <time>2017-03-26T10:19:38Z</time>
      </trkpt>
      <trkpt lat="45.49797" lon="4.62921">
        <ele>348.43</ele>
        <time>2017-03-26T10:19:39Z</time>
      </trkpt>
      <trkpt lat="45.49792" lon="4.62936">
        <ele>348.43</ele>
        <time>2017-03-26T10:19:40Z</time>
      </trkpt>
      <trkpt lat="45.49788" lon="4.62949">
        <ele>348.51</ele>
        <time>2017-03-26T10:19:41Z</time>
      </trkpt>
      <trkpt lat="45.49783" lon="4.62962">
        <ele>348.53</ele>
        <time>2017-03-26T10:19:42Z</time>
      </trkpt>
      <trkpt lat="45.49778" lon="4.62973">
        <ele>348.53</ele>
        <time>2017-03-26T10:19:43Z</time>
      </trkpt>
      <trkpt lat="45.49771" lon="4.6298">
        <ele>348.53</ele>
        <time>2017-03-26T10:19:44Z</time>
      </trkpt>
      <trkpt lat="45.49764" lon="4.62984">
        <ele>348.53</ele>
        <time>2017-03-26T10:19:45Z</time>
      </trkpt>
      <trkpt lat="45.49758" lon="4.62984">
        <ele>348.61</ele>
        <time>2017-03-26T10:19:46Z</time>
      </trkpt>
      <trkpt lat="45.49749" lon="4.62973">
        <ele>348.63</ele>
        <time>2017-03-26T10:19:47Z</time>
      </trkpt>
      <trkpt lat="45.49744" lon="4.62962">
        <ele>348.63</ele>
        <time>2017-03-26T10:19:48Z</time>
      </trkpt>
      <trkpt lat="45.49741" lon="4.62946">
        <ele>348.71</ele>
        <time>2017-03-26T10:19:49Z</time>
      </trkpt>
      <trkpt lat="45.49738" lon="4.62929">
        <ele>348.73</ele>
        <time>2017-03-26T10:19:50Z</time>
      </trkpt>
      <trkpt lat="45.49735" lon="4.62912">
        <ele>348.73</ele>
        <time>2017-03-26T10:19:51Z</time>
      </trkpt>
      <trkpt lat="45.4973" lon="4.62896">
        <ele>348.73</ele>
        <time>2017-03-26T10:19:52Z</time>
      </trkpt>
      <trkpt lat="45.49723" lon="4.62878">
        <ele>348.81</ele>
        <time>2017-03-26T10:19:53Z</time>
      </trkpt>
      <trkpt lat="45.49715" lon="4.6286">
        <ele>348.83</ele>
        <time>2017-03-26T10:19:54Z</time>
      </trkpt>
      <trkpt lat="45.49706" lon="4.62842">
        <ele>348.83</ele>
        <time>2017-03-26T10:19:55Z</time>
      </trkpt>
      <trkpt lat="45.49697" lon="4.62821">
        <ele>348.83</ele>
        <time>2017-03-26T10:19:56Z</time>
      </trkpt>
      <trkpt lat="45.49691" lon="4.62799">
        <ele>348.83</ele>
        <time>2017-03-26T10:19:57Z</time>
      </trkpt>
      <trkpt lat="45.49688" lon="4.62777">
        <ele>348.83</ele>
        <time>2017-03-26T10:19:58Z</time>
      </trkpt>
      <trkpt lat="45.49685" lon="4.62755">
        <ele>348.83</ele>
        <time>2017-03-26T10:19:59Z</time>
      </trkpt>
      <trkpt lat="45.49686" lon="4.62736">
        <ele>348.91</ele>
        <time>2017-03-26T10:20:00Z</time>
      </trkpt>
      <trkpt lat="45.49683" lon="4.62718">
        <ele>348.93</ele>
        <time>2017-03-26T10:20:01Z</time>
      </trkpt>
      <trkpt lat="45.49679" lon="4.62702">
        <ele>349.01</ele>
        <time>2017-03-26T10:20:02Z</time>
      </trkpt>
      <trkpt lat="45.49672" lon="4.62686">
        <ele>349.03</ele>
        <time>2017-03-26T10:20:03Z</time>
      </trkpt>
      <trkpt lat="45.49662" lon="4.62673">
        <ele>349.11</ele>
        <time>2017-03-26T10:20:04Z</time>
      </trkpt>
      <trkpt lat="45.49651" lon="4.62663">
        <ele>349.13</ele>
        <time>2017-03-26T10:20:05Z</time>
      </trkpt>
      <trkpt lat="45.49638" lon="4.62656">
        <ele>349.13</ele>
        <time>2017-03-26T10:20:06Z</time>
      </trkpt>
      <trkpt lat="45.49623" lon="4.62651">
        <ele>349.13</ele>
        <time>2017-03-26T10:20:07Z</time>
      </trkpt>
      <trkpt lat="45.49607" lon="4.62647">
        <ele>349.13</ele>
        <time>2017-03-26T10:20:08Z</time>
      </trkpt>
      <trkpt lat="45.4959" lon="4.62645">
        <ele>349.21</ele>
        <time>2017-03-26T10:20:09Z</time>
      </trkpt>
      <trkpt lat="45.4957" lon="4.62643">
        <ele>349.15</ele>
        <time>2017-03-26T10:20:10Z</time>
      </trkpt>
      <trkpt lat="45.4955" lon="4.62642">
        <ele>349.13</ele>
        <time>2017-03-26T10:20:11Z</time>
      </trkpt>
      <trkpt lat="45.49531" lon="4.62644">
        <ele>349.21</ele>
        <time>2017-03-26T10:20:12Z</time>
      </trkpt>
      <trkpt lat="45.49511" lon="4.62651">
        <ele>349.31</ele>
        <time>2017-03-26T10:20:13Z</time>
      </trkpt>
      <trkpt lat="45.49492" lon="4.62659">
        <ele>349.33</ele>
        <time>2017-03-26T10:20:14Z</time>
      </trkpt>
      <trkpt lat="45.49474" lon="4.62668">
        <ele>349.41</ele>
        <time>2017-03-26T10:20:15Z</time>
      </trkpt>
      <trkpt lat="45.49455" lon="4.62675">
        <ele>349.51</ele>
        <time>2017-03-26T10:20:16Z</time>
      </trkpt>
      <trkpt lat="45.49435" lon="4.62681">
        <ele>349.61</ele>
        <time>2017-03-26T10:20:17Z</time>
      </trkpt>
      <trkpt lat="45.49416" lon="4.62685">
        <ele>349.71</ele>
        <time>2017-03-26T10:20:18Z</time>
      </trkpt>
      <trkpt lat="45.49398" lon="4.62686">
        <ele>349.8</ele>
        <time>2017-03-26T10:20:19Z</time>
      </trkpt>
      <trkpt lat="45.49381" lon="4.62686">
        <ele>349.83</ele>
        <time>2017-03-26T10:20:20Z</time>
      </trkpt>
      <trkpt lat="45.49365" lon="4.62684">
        <ele>349.91</ele>
        <time>2017-03-26T10:20:21Z</time>
      </trkpt>
      <trkpt lat="45.4935" lon="4.6268">
        <ele>350.01</ele>
        <time>2017-03-26T10:20:22Z</time>
      </trkpt>
      <trkpt lat="45.49336" lon="4.62673">
        <ele>350.11</ele>
        <time>2017-03-26T10:20:23Z</time>
      </trkpt>
      <trkpt lat="45.49321" lon="4.6266">
        <ele>350.21</ele>
        <time>2017-03-26T10:20:24Z</time>
      </trkpt>
      <trkpt lat="45.49313" lon="4.62642">
        <ele>350.3</ele>
        <time>2017-03-26T10:20:25Z</time>
      </trkpt>
      <trkpt lat="45.49309" lon="4.6262">
        <ele>350.4</ele>
        <time>2017-03-26T10:20:26Z</time>
      </trkpt>
      <trkpt lat="45.49312" lon="4.62599">
        <ele>350.51</ele>
        <time>2017-03-26T10:20:27Z</time>
      </trkpt>
      <trkpt lat="45.49307" lon="4.62581">
        <ele>350.61</ele>
        <time>2017-03-26T10:20:28Z</time>
      </trkpt>
      <trkpt lat="45.493" lon="4.62564">
        <ele>350.79</ele>
        <time>2017-03-26T10:20:29Z</time>
      </trkpt>
      <trkpt lat="45.4929" lon="4.62554">
        <ele>350.82</ele>
        <time>2017-03-26T10:20:30Z</time>
      </trkpt>
      <trkpt lat="45.49278" lon="4.62547">
        <ele>350.99</ele>
        <time>2017-03-26T10:20:31Z</time>
      </trkpt>
      <trkpt lat="45.49265" lon="4.62541">
        <ele>351.1</ele>
        <time>2017-03-26T10:20:32Z</time>
      </trkpt>
      <trkpt lat="45.49251" lon="4.62532">
        <ele>351.28</ele>
        <time>2017-03-26T10:20:33Z</time>
      </trkpt>
      <trkpt lat="45.49237" lon="4.62521">
        <ele>351.48</ele>
        <time>2017-03-26T10:20:34Z</time>
      </trkpt>
      <trkpt lat="45.49222" lon="4.62513">
        <ele>351.68</ele>
        <time>2017-03-26T10:20:35Z</time>
      </trkpt>
      <trkpt lat="45.49209" lon="4.62508">
        <ele>351.8</ele>
        <time>2017-03-26T10:20:36Z</time>
      </trkpt>
      <trkpt lat="45.49197" lon="4.62508">
        <ele>351.98</ele>
        <time>2017-03-26T10:20:37Z</time>
      </trkpt>
      <trkpt lat="45.49187" lon="4.62513">
        <ele>352.1</ele>
        <time>2017-03-26T10:20:38Z</time>
      </trkpt>
      <trkpt lat="45.49179" lon="4.62523">
        <ele>352.28</ele>
        <time>2017-03-26T10:20:39Z</time>
      </trkpt>
      <trkpt lat="45.49176" lon="4.62547">
        <ele>352.32</ele>
        <time>2017-03-26T10:20:40Z</time>
      </trkpt>
      <trkpt lat="45.49173" lon="4.62568">
        <ele>352.41</ele>
        <time>2017-03-26T10:20:41Z</time>
      </trkpt>
      <trkpt lat="45.49171" lon="4.62593">
        <ele>352.51</ele>
        <time>2017-03-26T10:20:42Z</time>
      </trkpt>
      <trkpt lat="45.49171" lon="4.62617">
        <ele>352.61</ele>
        <time>2017-03-26T10:20:43Z</time>
      </trkpt>
      <trkpt lat="45.4917" lon="4.62641">
        <ele>352.71</ele>
        <time>2017-03-26T10:20:44Z</time>
      </trkpt>
      <trkpt lat="45.49169" lon="4.62661">
        <ele>352.8</ele>
        <time>2017-03-26T10:20:45Z</time>
      </trkpt>
      <trkpt lat="45.49167" lon="4.62678">
        <ele>352.9</ele>
        <time>2017-03-26T10:20:46Z</time>
      </trkpt>
      <trkpt lat="45.49165" lon="4.62692">
        <ele>352.92</ele>
        <time>2017-03-26T10:20:47Z</time>
      </trkpt>
      <trkpt lat="45.49162" lon="4.62704">
        <ele>353.09</ele>
        <time>2017-03-26T10:20:48Z</time>
      </trkpt>
      <trkpt lat="45.4916" lon="4.62712">
        <ele>353.12</ele>
        <time>2017-03-26T10:20:49Z</time>
      </trkpt>
      <trkpt lat="45.49157" lon="4.6272">
        <ele>353.13</ele>
        <time>2017-03-26T10:20:50Z</time>
      </trkpt>
      <trkpt lat="45.49153" lon="4.62729">
        <ele>353.13</ele>
        <time>2017-03-26T10:20:51Z</time>
      </trkpt>
      <trkpt lat="45.49149" lon="4.6274">
        <ele>353.21</ele>
        <time>2017-03-26T10:20:52Z</time>
      </trkpt>
      <trkpt lat="45.49145" lon="4.62753">
        <ele>353.31</ele>
        <time>2017-03-26T10:20:53Z</time>
      </trkpt>
      <trkpt lat="45.49139" lon="4.62766">
        <ele>353.41</ele>
        <time>2017-03-26T10:20:54Z</time>
      </trkpt>
      <trkpt lat="45.49131" lon="4.62776">
        <ele>353.51</ele>
        <time>2017-03-26T10:20:55Z</time>
      </trkpt>
      <trkpt lat="45.49121" lon="4.62781">
        <ele>353.61</ele>
        <time>2017-03-26T10:20:56Z</time>
      </trkpt>
      <trkpt lat="45.49112" lon="4.62782">
        <ele>353.7</ele>
        <time>2017-03-26T10:20:57Z</time>
      </trkpt>
      <trkpt lat="45.49101" lon="4.62781">
        <ele>353.73</ele>
        <time>2017-03-26T10:20:58Z</time>
      </trkpt>
      <trkpt lat="45.49088" lon="4.6278">
        <ele>353.65</ele>
        <time>2017-03-26T10:20:59Z</time>
      </trkpt>
      <trkpt lat="45.49074" lon="4.62777">
        <ele>353.71</ele>
        <time>2017-03-26T10:21:00Z</time>
      </trkpt>
      <trkpt lat="45.49058" lon="4.62772">
        <ele>353.81</ele>
        <time>2017-03-26T10:21:01Z</time>
      </trkpt>
      <trkpt lat="45.49041" lon="4.62764">
        <ele>353.91</ele>
        <time>2017-03-26T10:21:02Z</time>
      </trkpt>
      <trkpt lat="45.49026" lon="4.62758">
        <ele>353.85</ele>
        <time>2017-03-26T10:21:03Z</time>
      </trkpt>
      <trkpt lat="45.49007" lon="4.62752">
        <ele>353.83</ele>
        <time>2017-03-26T10:21:04Z</time>
      </trkpt>
      <trkpt lat="45.48991" lon="4.62747">
        <ele>353.91</ele>
        <time>2017-03-26T10:21:05Z</time>
      </trkpt>
      <trkpt lat="45.48975" lon="4.62743">
        <ele>353.93</ele>
        <time>2017-03-26T10:21:06Z</time>
      </trkpt>
      <trkpt lat="45.48959" lon="4.6274">
        <ele>353.93</ele>
        <time>2017-03-26T10:21:07Z</time>
      </trkpt>
      <trkpt lat="45.48946" lon="4.62739">
        <ele>353.85</ele>
        <time>2017-03-26T10:21:08Z</time>
      </trkpt>
      <trkpt lat="45.48932" lon="4.62739">
        <ele>353.83</ele>
        <time>2017-03-26T10:21:09Z</time>
      </trkpt>
      <trkpt lat="45.48921" lon="4.62745">
        <ele>353.83</ele>
        <time>2017-03-26T10:21:10Z</time>
      </trkpt>
      <trkpt lat="45.48911" lon="4.62752">
        <ele>353.91</ele>
        <time>2017-03-26T10:21:11Z</time>
      </trkpt>
      <trkpt lat="45.48902" lon="4.62763">
        <ele>354.01</ele>
        <time>2017-03-26T10:21:12Z</time>
      </trkpt>
      <trkpt lat="45.48898" lon="4.62783">
        <ele>353.95</ele>
        <time>2017-03-26T10:21:13Z</time>
      </trkpt>
      <trkpt lat="45.48895" lon="4.62802">
        <ele>354.09</ele>
        <time>2017-03-26T10:21:14Z</time>
      </trkpt>
      <trkpt lat="45.48893" lon="4.62823">
        <ele>354.2</ele>
        <time>2017-03-26T10:21:15Z</time>
      </trkpt>
      <trkpt lat="45.48891" lon="4.62843">
        <ele>354.3</ele>
        <time>2017-03-26T10:21:16Z</time>
      </trkpt>
      <trkpt lat="45.48889" lon="4.62865">
        <ele>354.4</ele>
        <time>2017-03-26T10:21:17Z</time>
      </trkpt>
      <trkpt lat="45.48886" lon="4.62886">
        <ele>354.5</ele>
        <time>2017-03-26T10:21:18Z</time>
      </trkpt>
      <trkpt lat="45.48884" lon="4.62906">
        <ele>354.61</ele>
        <time>2017-03-26T10:21:19Z</time>
      </trkpt>
      <trkpt lat="45.48881" lon="4.62927">
        <ele>354.7</ele>
        <time>2017-03-26T10:21:20Z</time>
      </trkpt>
      <trkpt lat="45.48879" lon="4.62946">
        <ele>354.8</ele>
        <time>2017-03-26T10:21:21Z</time>
      </trkpt>
      <trkpt lat="45.48877" lon="4.62965">
        <ele>354.98</ele>
        <time>2017-03-26T10:21:22Z</time>
      </trkpt>
      <trkpt lat="45.48875" lon="4.62982">
        <ele>355.02</ele>
        <time>2017-03-26T10:21:23Z</time>
      </trkpt>
      <trkpt lat="45.48873" lon="4.63">
        <ele>355.19</ele>
        <time>2017-03-26T10:21:24Z</time>
      </trkpt>
      <trkpt lat="45.48871" lon="4.63018">
        <ele>355.3</ele>
        <time>2017-03-26T10:21:25Z</time>
      </trkpt>
      <trkpt lat="45.48869" lon="4.63038">
        <ele>355.4</ele>
        <time>2017-03-26T10:21:26Z</time>
      </trkpt>
      <trkpt lat="45.48867" lon="4.6306">
        <ele>355.5</ele>
        <time>2017-03-26T10:21:27Z</time>
      </trkpt>
      <trkpt lat="45.48865" lon="4.63082">
        <ele>355.52</ele>
        <time>2017-03-26T10:21:28Z</time>
      </trkpt>
      <trkpt lat="45.48863" lon="4.63105">
        <ele>355.61</ele>
        <time>2017-03-26T10:21:29Z</time>
      </trkpt>
      <trkpt lat="45.48861" lon="4.63126">
        <ele>355.63</ele>
        <time>2017-03-26T10:21:30Z</time>
      </trkpt>
      <trkpt lat="45.48859" lon="4.63147">
        <ele>355.79</ele>
        <time>2017-03-26T10:21:31Z</time>
      </trkpt>
      <trkpt lat="45.48857" lon="4.63168">
        <ele>355.9</ele>
        <time>2017-03-26T10:21:32Z</time>
      </trkpt>
      <trkpt lat="45.48854" lon="4.63188">
        <ele>355.92</ele>
        <time>2017-03-26T10:21:33Z</time>
      </trkpt>
      <trkpt lat="45.48854" lon="4.63207">
        <ele>356.01</ele>
        <time>2017-03-26T10:21:34Z</time>
      </trkpt>
      <trkpt lat="45.48855" lon="4.63227">
        <ele>356.11</ele>
        <time>2017-03-26T10:21:35Z</time>
      </trkpt>
      <trkpt lat="45.48859" lon="4.63246">
        <ele>356.37</ele>
        <time>2017-03-26T10:21:36Z</time>
      </trkpt>
      <trkpt lat="45.48865" lon="4.63264">
        <ele>356.34</ele>
        <time>2017-03-26T10:21:37Z</time>
      </trkpt>
      <trkpt lat="45.48874" lon="4.63282">
        <ele>356.49</ele>
        <time>2017-03-26T10:21:38Z</time>
      </trkpt>
      <trkpt lat="45.48884" lon="4.633">
        <ele>356.68</ele>
        <time>2017-03-26T10:21:39Z</time>
      </trkpt>
      <trkpt lat="45.48894" lon="4.63318">
        <ele>356.96</ele>
        <time>2017-03-26T10:21:40Z</time>
      </trkpt>
      <trkpt lat="45.48903" lon="4.63336">
        <ele>357.18</ele>
        <time>2017-03-26T10:21:41Z</time>
      </trkpt>
      <trkpt lat="45.48913" lon="4.63353">
        <ele>357.38</ele>
        <time>2017-03-26T10:21:42Z</time>
      </trkpt>
      <trkpt lat="45.48921" lon="4.63371">
        <ele>357.66</ele>
        <time>2017-03-26T10:21:43Z</time>
      </trkpt>
      <trkpt lat="45.48927" lon="4.63389">
        <ele>357.96</ele>
        <time>2017-03-26T10:21:44Z</time>
      </trkpt>
      <trkpt lat="45.4893" lon="4.63407">
        <ele>358.18</ele>
        <time>2017-03-26T10:21:45Z</time>
      </trkpt>
      <trkpt lat="45.48923" lon="4.63421">
        <ele>358.38</ele>
        <time>2017-03-26T10:21:46Z</time>
      </trkpt>
      <trkpt lat="45.48918" lon="4.63434">
        <ele>358.58</ele>
        <time>2017-03-26T10:21:47Z</time>
      </trkpt>
      <trkpt lat="45.48904" lon="4.63439">
        <ele>359.02</ele>
        <time>2017-03-26T10:21:48Z</time>
      </trkpt>
      <trkpt lat="45.48891" lon="4.63439">
        <ele>359.43</ele>
        <time>2017-03-26T10:21:49Z</time>
      </trkpt>
      <trkpt lat="45.48878" lon="4.63434">
        <ele>359.67</ele>
        <time>2017-03-26T10:21:50Z</time>
      </trkpt>
      <trkpt lat="45.48864" lon="4.63429">
        <ele>359.96</ele>
        <time>2017-03-26T10:21:51Z</time>
      </trkpt>
      <trkpt lat="45.48851" lon="4.63424">
        <ele>360.18</ele>
        <time>2017-03-26T10:21:52Z</time>
      </trkpt>
      <trkpt lat="45.48839" lon="4.63422">
        <ele>360.38</ele>
        <time>2017-03-26T10:21:53Z</time>
      </trkpt>
      <trkpt lat="45.48826" lon="4.63425">
        <ele>360.5</ele>
        <time>2017-03-26T10:21:54Z</time>
      </trkpt>
      <trkpt lat="45.48815" lon="4.63432">
        <ele>360.84</ele>
        <time>2017-03-26T10:21:55Z</time>
      </trkpt>
      <trkpt lat="45.48802" lon="4.63441">
        <ele>361.23</ele>
        <time>2017-03-26T10:21:56Z</time>
      </trkpt>
      <trkpt lat="45.48788" lon="4.63448">
        <ele>361.63</ele>
        <time>2017-03-26T10:21:57Z</time>
      </trkpt>
      <trkpt lat="45.48772" lon="4.63455">
        <ele>361.87</ele>
        <time>2017-03-26T10:21:58Z</time>
      </trkpt>
      <trkpt lat="45.48755" lon="4.63463">
        <ele>362</ele>
        <time>2017-03-26T10:21:59Z</time>
      </trkpt>
      <trkpt lat="45.48738" lon="4.63471">
        <ele>362.18</ele>
        <time>2017-03-26T10:22:00Z</time>
      </trkpt>
      <trkpt lat="45.48723" lon="4.6348">
        <ele>362.3</ele>
        <time>2017-03-26T10:22:01Z</time>
      </trkpt>
      <trkpt lat="45.48706" lon="4.63489">
        <ele>362.56</ele>
        <time>2017-03-26T10:22:02Z</time>
      </trkpt>
      <trkpt lat="45.4869" lon="4.63496">
        <ele>362.86</ele>
        <time>2017-03-26T10:22:03Z</time>
      </trkpt>
      <trkpt lat="45.48673" lon="4.63501">
        <ele>363.24</ele>
        <time>2017-03-26T10:22:04Z</time>
      </trkpt>
      <trkpt lat="45.48656" lon="4.63505">
        <ele>363.63</ele>
        <time>2017-03-26T10:22:05Z</time>
      </trkpt>
      <trkpt lat="45.4864" lon="4.63508">
        <ele>364.03</ele>
        <time>2017-03-26T10:22:06Z</time>
      </trkpt>
      <trkpt lat="45.48623" lon="4.6351">
        <ele>364.51</ele>
        <time>2017-03-26T10:22:07Z</time>
      </trkpt>
      <trkpt lat="45.48606" lon="4.63509">
        <ele>364.93</ele>
        <time>2017-03-26T10:22:08Z</time>
      </trkpt>
      <trkpt lat="45.48589" lon="4.63505">
        <ele>365.41</ele>
        <time>2017-03-26T10:22:09Z</time>
      </trkpt>
      <trkpt lat="45.48572" lon="4.635">
        <ele>365.59</ele>
        <time>2017-03-26T10:22:10Z</time>
      </trkpt>
      <trkpt lat="45.48555" lon="4.63492">
        <ele>365.7</ele>
        <time>2017-03-26T10:22:11Z</time>
      </trkpt>
      <trkpt lat="45.48539" lon="4.63483">
        <ele>365.88</ele>
        <time>2017-03-26T10:22:12Z</time>
      </trkpt>
      <trkpt lat="45.48524" lon="4.63473">
        <ele>366.16</ele>
        <time>2017-03-26T10:22:13Z</time>
      </trkpt>
      <trkpt lat="45.4851" lon="4.63464">
        <ele>366.38</ele>
        <time>2017-03-26T10:22:14Z</time>
      </trkpt>
      <trkpt lat="45.48496" lon="4.63455">
        <ele>366.82</ele>
        <time>2017-03-26T10:22:15Z</time>
      </trkpt>
      <trkpt lat="45.48482" lon="4.63448">
        <ele>367.07</ele>
        <time>2017-03-26T10:22:16Z</time>
      </trkpt>
      <trkpt lat="45.48467" lon="4.63444">
        <ele>367.28</ele>
        <time>2017-03-26T10:22:17Z</time>
      </trkpt>
      <trkpt lat="45.48453" lon="4.63443">
        <ele>367.48</ele>
        <time>2017-03-26T10:22:18Z</time>
      </trkpt>
      <trkpt lat="45.48439" lon="4.63451">
        <ele>367.68</ele>
        <time>2017-03-26T10:22:19Z</time>
      </trkpt>
      <trkpt lat="45.48425" lon="4.63459">
        <ele>367.96</ele>
        <time>2017-03-26T10:22:20Z</time>
      </trkpt>
      <trkpt lat="45.4841" lon="4.63468">
        <ele>368.26</ele>
        <time>2017-03-26T10:22:21Z</time>
      </trkpt>
      <trkpt lat="45.48395" lon="4.63478">
        <ele>368.64</ele>
        <time>2017-03-26T10:22:22Z</time>
      </trkpt>
      <trkpt lat="45.4838" lon="4.63488">
        <ele>369.03</ele>
        <time>2017-03-26T10:22:23Z</time>
      </trkpt>
      <trkpt lat="45.48365" lon="4.63493">
        <ele>369.35</ele>
        <time>2017-03-26T10:22:24Z</time>
      </trkpt>
      <trkpt lat="45.48351" lon="4.63497">
        <ele>369.57</ele>
        <time>2017-03-26T10:22:25Z</time>
      </trkpt>
      <trkpt lat="45.48336" lon="4.63497">
        <ele>369.78</ele>
        <time>2017-03-26T10:22:26Z</time>
      </trkpt>
      <trkpt lat="45.48321" lon="4.63496">
        <ele>369.66</ele>
        <time>2017-03-26T10:22:27Z</time>
      </trkpt>
      <trkpt lat="45.48305" lon="4.63493">
        <ele>369.8</ele>
        <time>2017-03-26T10:22:28Z</time>
      </trkpt>
      <trkpt lat="45.48291" lon="4.63489">
        <ele>369.9</ele>
        <time>2017-03-26T10:22:29Z</time>
      </trkpt>
      <trkpt lat="45.48276" lon="4.63484">
        <ele>370.08</ele>
        <time>2017-03-26T10:22:30Z</time>
      </trkpt>
      <trkpt lat="45.48263" lon="4.63477">
        <ele>370.36</ele>
        <time>2017-03-26T10:22:31Z</time>
      </trkpt>
      <trkpt lat="45.48249" lon="4.6347">
        <ele>370.58</ele>
        <time>2017-03-26T10:22:32Z</time>
      </trkpt>
      <trkpt lat="45.48236" lon="4.63463">
        <ele>370.94</ele>
        <time>2017-03-26T10:22:33Z</time>
      </trkpt>
      <trkpt lat="45.48224" lon="4.63458">
        <ele>371.25</ele>
        <time>2017-03-26T10:22:34Z</time>
      </trkpt>
      <trkpt lat="45.48211" lon="4.63455">
        <ele>371.47</ele>
        <time>2017-03-26T10:22:35Z</time>
      </trkpt>
      <trkpt lat="45.48199" lon="4.63456">
        <ele>371.52</ele>
        <time>2017-03-26T10:22:36Z</time>
      </trkpt>
      <trkpt lat="45.48188" lon="4.63462">
        <ele>371.53</ele>
        <time>2017-03-26T10:22:37Z</time>
      </trkpt>
      <trkpt lat="45.48179" lon="4.63473">
        <ele>371.29</ele>
        <time>2017-03-26T10:22:38Z</time>
      </trkpt>
      <trkpt lat="45.48171" lon="4.63485">
        <ele>371.32</ele>
        <time>2017-03-26T10:22:39Z</time>
      </trkpt>
      <trkpt lat="45.48167" lon="4.63499">
        <ele>371.65</ele>
        <time>2017-03-26T10:22:40Z</time>
      </trkpt>
      <trkpt lat="45.48166" lon="4.63511">
        <ele>372.11</ele>
        <time>2017-03-26T10:22:41Z</time>
      </trkpt>
      <trkpt lat="45.48171" lon="4.63524">
        <ele>372.77</ele>
        <time>2017-03-26T10:22:42Z</time>
      </trkpt>
      <trkpt lat="45.48177" lon="4.63539">
        <ele>373.3</ele>
        <time>2017-03-26T10:22:43Z</time>
      </trkpt>
      <trkpt lat="45.48184" lon="4.63555">
        <ele>373.72</ele>
        <time>2017-03-26T10:22:44Z</time>
      </trkpt>
      <trkpt lat="45.482" lon="4.63573">
        <ele>374.05</ele>
        <time>2017-03-26T10:22:45Z</time>
      </trkpt>
      <trkpt lat="45.48214" lon="4.63588">
        <ele>374.11</ele>
        <time>2017-03-26T10:22:46Z</time>
      </trkpt>
      <trkpt lat="45.48226" lon="4.636">
        <ele>374.45</ele>
        <time>2017-03-26T10:22:47Z</time>
      </trkpt>
      <trkpt lat="45.48238" lon="4.63613">
        <ele>374.83</ele>
        <time>2017-03-26T10:22:48Z</time>
      </trkpt>
      <trkpt lat="45.48248" lon="4.63629">
        <ele>375.07</ele>
        <time>2017-03-26T10:22:49Z</time>
      </trkpt>
      <trkpt lat="45.48262" lon="4.6365">
        <ele>375.84</ele>
        <time>2017-03-26T10:22:50Z</time>
      </trkpt>
      <trkpt lat="45.48271" lon="4.63672">
        <ele>376.39</ele>
        <time>2017-03-26T10:22:51Z</time>
      </trkpt>
      <trkpt lat="45.48276" lon="4.63695">
        <ele>376.9</ele>
        <time>2017-03-26T10:22:52Z</time>
      </trkpt>
      <trkpt lat="45.4828" lon="4.63719">
        <ele>377.32</ele>
        <time>2017-03-26T10:22:53Z</time>
      </trkpt>
      <trkpt lat="45.48282" lon="4.63743">
        <ele>377.57</ele>
        <time>2017-03-26T10:22:54Z</time>
      </trkpt>
      <trkpt lat="45.48283" lon="4.63765">
        <ele>378.02</ele>
        <time>2017-03-26T10:22:55Z</time>
      </trkpt>
      <trkpt lat="45.48286" lon="4.63786">
        <ele>378.51</ele>
        <time>2017-03-26T10:22:56Z</time>
      </trkpt>
      <trkpt lat="45.48291" lon="4.63806">
        <ele>378.93</ele>
        <time>2017-03-26T10:22:57Z</time>
      </trkpt>
      <trkpt lat="45.48296" lon="4.63823">
        <ele>379.33</ele>
        <time>2017-03-26T10:22:58Z</time>
      </trkpt>
      <trkpt lat="45.48301" lon="4.63841">
        <ele>379.73</ele>
        <time>2017-03-26T10:22:59Z</time>
      </trkpt>
      <trkpt lat="45.48298" lon="4.63857">
        <ele>380.05</ele>
        <time>2017-03-26T10:23:00Z</time>
      </trkpt>
      <trkpt lat="45.48292" lon="4.63869">
        <ele>380.43</ele>
        <time>2017-03-26T10:23:01Z</time>
      </trkpt>
      <trkpt lat="45.48283" lon="4.63879">
        <ele>380.75</ele>
        <time>2017-03-26T10:23:02Z</time>
      </trkpt>
      <trkpt lat="45.48272" lon="4.63881">
        <ele>381.05</ele>
        <time>2017-03-26T10:23:03Z</time>
      </trkpt>
      <trkpt lat="45.48259" lon="4.63883">
        <ele>381.35</ele>
        <time>2017-03-26T10:23:04Z</time>
      </trkpt>
      <trkpt lat="45.48247" lon="4.63888">
        <ele>381.49</ele>
        <time>2017-03-26T10:23:05Z</time>
      </trkpt>
      <trkpt lat="45.48235" lon="4.63898">
        <ele>381.68</ele>
        <time>2017-03-26T10:23:06Z</time>
      </trkpt>
      <trkpt lat="45.48224" lon="4.63911">
        <ele>381.88</ele>
        <time>2017-03-26T10:23:07Z</time>
      </trkpt>
      <trkpt lat="45.48213" lon="4.63926">
        <ele>381.6</ele>
        <time>2017-03-26T10:23:08Z</time>
      </trkpt>
      <trkpt lat="45.48205" lon="4.63941">
        <ele>381.14</ele>
        <time>2017-03-26T10:23:09Z</time>
      </trkpt>
      <trkpt lat="45.48201" lon="4.63957">
        <ele>380.81</ele>
        <time>2017-03-26T10:23:10Z</time>
      </trkpt>
      <trkpt lat="45.48199" lon="4.63972">
        <ele>380.91</ele>
        <time>2017-03-26T10:23:11Z</time>
      </trkpt>
      <trkpt lat="45.48199" lon="4.63989">
        <ele>380.85</ele>
        <time>2017-03-26T10:23:12Z</time>
      </trkpt>
      <trkpt lat="45.48195" lon="4.64006">
        <ele>380.83</ele>
        <time>2017-03-26T10:23:13Z</time>
      </trkpt>
      <trkpt lat="45.48189" lon="4.64022">
        <ele>380.91</ele>
        <time>2017-03-26T10:23:14Z</time>
      </trkpt>
      <trkpt lat="45.48179" lon="4.64034">
        <ele>381.17</ele>
        <time>2017-03-26T10:23:15Z</time>
      </trkpt>
      <trkpt lat="45.48166" lon="4.64047">
        <ele>381.22</ele>
        <time>2017-03-26T10:23:16Z</time>
      </trkpt>
      <trkpt lat="45.48153" lon="4.64059">
        <ele>381.39</ele>
        <time>2017-03-26T10:23:17Z</time>
      </trkpt>
      <trkpt lat="45.48139" lon="4.64069">
        <ele>381.42</ele>
        <time>2017-03-26T10:23:18Z</time>
      </trkpt>
      <trkpt lat="45.48123" lon="4.64076">
        <ele>381.43</ele>
        <time>2017-03-26T10:23:19Z</time>
      </trkpt>
      <trkpt lat="45.48107" lon="4.64081">
        <ele>381.59</ele>
        <time>2017-03-26T10:23:20Z</time>
      </trkpt>
      <trkpt lat="45.48092" lon="4.64086">
        <ele>381.78</ele>
        <time>2017-03-26T10:23:21Z</time>
      </trkpt>
      <trkpt lat="45.48077" lon="4.64089">
        <ele>381.9</ele>
        <time>2017-03-26T10:23:22Z</time>
      </trkpt>
      <trkpt lat="45.48062" lon="4.64091">
        <ele>381.76</ele>
        <time>2017-03-26T10:23:23Z</time>
      </trkpt>
      <trkpt lat="45.48048" lon="4.64093">
        <ele>381.74</ele>
        <time>2017-03-26T10:23:24Z</time>
      </trkpt>
      <trkpt lat="45.48036" lon="4.64097">
        <ele>381.41</ele>
        <time>2017-03-26T10:23:25Z</time>
      </trkpt>
      <trkpt lat="45.48026" lon="4.64105">
        <ele>380.31</ele>
        <time>2017-03-26T10:23:26Z</time>
      </trkpt>
      <trkpt lat="45.48018" lon="4.64119">
        <ele>379.45</ele>
        <time>2017-03-26T10:23:27Z</time>
      </trkpt>
      <trkpt lat="45.48011" lon="4.64135">
        <ele>379.11</ele>
        <time>2017-03-26T10:23:28Z</time>
      </trkpt>
      <trkpt lat="45.48006" lon="4.64153">
        <ele>378.89</ele>
        <time>2017-03-26T10:23:29Z</time>
      </trkpt>
      <trkpt lat="45.48002" lon="4.64173">
        <ele>378.76</ele>
        <time>2017-03-26T10:23:30Z</time>
      </trkpt>
      <trkpt lat="45.48003" lon="4.64197">
        <ele>378.82</ele>
        <time>2017-03-26T10:23:31Z</time>
      </trkpt>
      <trkpt lat="45.48002" lon="4.64219">
        <ele>378.83</ele>
        <time>2017-03-26T10:23:32Z</time>
      </trkpt>
      <trkpt lat="45.48002" lon="4.64239">
        <ele>378.59</ele>
        <time>2017-03-26T10:23:33Z</time>
      </trkpt>
      <trkpt lat="45.48003" lon="4.64257">
        <ele>378.3</ele>
        <time>2017-03-26T10:23:34Z</time>
      </trkpt>
      <trkpt lat="45.48008" lon="4.64274">
        <ele>378</ele>
        <time>2017-03-26T10:23:35Z</time>
      </trkpt>
      <trkpt lat="45.48016" lon="4.64289">
        <ele>377.94</ele>
        <time>2017-03-26T10:23:36Z</time>
      </trkpt>
      <trkpt lat="45.48025" lon="4.64303">
        <ele>377.69</ele>
        <time>2017-03-26T10:23:37Z</time>
      </trkpt>
      <trkpt lat="45.48034" lon="4.64316">
        <ele>377.56</ele>
        <time>2017-03-26T10:23:38Z</time>
      </trkpt>
      <trkpt lat="45.48045" lon="4.64327">
        <ele>377.46</ele>
        <time>2017-03-26T10:23:39Z</time>
      </trkpt>
      <trkpt lat="45.48055" lon="4.64339">
        <ele>377.28</ele>
        <time>2017-03-26T10:23:40Z</time>
      </trkpt>
      <trkpt lat="45.48064" lon="4.64352">
        <ele>377.4</ele>
        <time>2017-03-26T10:23:41Z</time>
      </trkpt>
      <trkpt lat="45.4807" lon="4.64365">
        <ele>377.42</ele>
        <time>2017-03-26T10:23:42Z</time>
      </trkpt>
      <trkpt lat="45.48076" lon="4.64378">
        <ele>377.43</ele>
        <time>2017-03-26T10:23:43Z</time>
      </trkpt>
      <trkpt lat="45.48081" lon="4.64392">
        <ele>377.51</ele>
        <time>2017-03-26T10:23:44Z</time>
      </trkpt>
      <trkpt lat="45.48088" lon="4.64405">
        <ele>377.45</ele>
        <time>2017-03-26T10:23:45Z</time>
      </trkpt>
      <trkpt lat="45.48095" lon="4.64418">
        <ele>377.51</ele>
        <time>2017-03-26T10:23:46Z</time>
      </trkpt>
      <trkpt lat="45.48101" lon="4.64432">
        <ele>377.61</ele>
        <time>2017-03-26T10:23:47Z</time>
      </trkpt>
      <trkpt lat="45.48108" lon="4.64445">
        <ele>377.71</ele>
        <time>2017-03-26T10:23:48Z</time>
      </trkpt>
      <trkpt lat="45.48114" lon="4.64458">
        <ele>377.73</ele>
        <time>2017-03-26T10:23:49Z</time>
      </trkpt>
      <trkpt lat="45.4812" lon="4.64471">
        <ele>377.73</ele>
        <time>2017-03-26T10:23:50Z</time>
      </trkpt>
      <trkpt lat="45.48125" lon="4.64485">
        <ele>377.73</ele>
        <time>2017-03-26T10:23:51Z</time>
      </trkpt>
      <trkpt lat="45.48127" lon="4.64498">
        <ele>377.81</ele>
        <time>2017-03-26T10:23:52Z</time>
      </trkpt>
      <trkpt lat="45.48129" lon="4.6451">
        <ele>377.83</ele>
        <time>2017-03-26T10:23:53Z</time>
      </trkpt>
      <trkpt lat="45.48129" lon="4.64522">
        <ele>377.91</ele>
        <time>2017-03-26T10:23:54Z</time>
      </trkpt>
      <trkpt lat="45.48128" lon="4.64535">
        <ele>377.93</ele>
        <time>2017-03-26T10:23:55Z</time>
      </trkpt>
      <trkpt lat="45.48126" lon="4.64546">
        <ele>378.01</ele>
        <time>2017-03-26T10:23:56Z</time>
      </trkpt>
      <trkpt lat="45.48123" lon="4.64557">
        <ele>378.19</ele>
        <time>2017-03-26T10:23:57Z</time>
      </trkpt>
      <trkpt lat="45.48117" lon="4.64567">
        <ele>378.38</ele>
        <time>2017-03-26T10:23:58Z</time>
      </trkpt>
      <trkpt lat="45.4811" lon="4.64578">
        <ele>378.26</ele>
        <time>2017-03-26T10:23:59Z</time>
      </trkpt>
      <trkpt lat="45.48103" lon="4.64588">
        <ele>378.08</ele>
        <time>2017-03-26T10:24:00Z</time>
      </trkpt>
      <trkpt lat="45.48095" lon="4.64597">
        <ele>377.88</ele>
        <time>2017-03-26T10:24:01Z</time>
      </trkpt>
      <trkpt lat="45.48086" lon="4.64605">
        <ele>377.76</ele>
        <time>2017-03-26T10:24:02Z</time>
      </trkpt>
      <trkpt lat="45.48077" lon="4.64613">
        <ele>377.82</ele>
        <time>2017-03-26T10:24:03Z</time>
      </trkpt>
      <trkpt lat="45.48069" lon="4.6462">
        <ele>377.83</ele>
        <time>2017-03-26T10:24:04Z</time>
      </trkpt>
      <trkpt lat="45.48063" lon="4.64627">
        <ele>377.75</ele>
        <time>2017-03-26T10:24:05Z</time>
      </trkpt>
      <trkpt lat="45.48056" lon="4.64633">
        <ele>377.81</ele>
        <time>2017-03-26T10:24:06Z</time>
      </trkpt>
      <trkpt lat="45.4805" lon="4.6464">
        <ele>377.83</ele>
        <time>2017-03-26T10:24:07Z</time>
      </trkpt>
      <trkpt lat="45.48044" lon="4.64646">
        <ele>377.75</ele>
        <time>2017-03-26T10:24:08Z</time>
      </trkpt>
      <trkpt lat="45.48039" lon="4.64653">
        <ele>377.89</ele>
        <time>2017-03-26T10:24:09Z</time>
      </trkpt>
      <trkpt lat="45.48034" lon="4.64661">
        <ele>378.08</ele>
        <time>2017-03-26T10:24:10Z</time>
      </trkpt>
      <trkpt lat="45.48029" lon="4.64669">
        <ele>378.2</ele>
        <time>2017-03-26T10:24:11Z</time>
      </trkpt>
      <trkpt lat="45.48025" lon="4.64678">
        <ele>378.22</ele>
        <time>2017-03-26T10:24:12Z</time>
      </trkpt>
      <trkpt lat="45.48021" lon="4.64687">
        <ele>378.23</ele>
        <time>2017-03-26T10:24:13Z</time>
      </trkpt>
      <trkpt lat="45.48018" lon="4.64697">
        <ele>378.15</ele>
        <time>2017-03-26T10:24:14Z</time>
      </trkpt>
      <trkpt lat="45.48015" lon="4.64708">
        <ele>378.05</ele>
        <time>2017-03-26T10:24:15Z</time>
      </trkpt>
      <trkpt lat="45.48013" lon="4.64719">
        <ele>377.95</ele>
        <time>2017-03-26T10:24:16Z</time>
      </trkpt>
      <trkpt lat="45.4801" lon="4.6473">
        <ele>377.93</ele>
        <time>2017-03-26T10:24:17Z</time>
      </trkpt>
      <trkpt lat="45.48007" lon="4.64739">
        <ele>378.17</ele>
        <time>2017-03-26T10:24:18Z</time>
      </trkpt>
      <trkpt lat="45.48004" lon="4.64745">
        <ele>378.62</ele>
        <time>2017-03-26T10:24:19Z</time>
      </trkpt>
      <trkpt lat="45.48003" lon="4.64748">
        <ele>378.79</ele>
        <time>2017-03-26T10:24:20Z</time>
      </trkpt>
      <trkpt lat="45.48002" lon="4.64751">
        <ele>379.06</ele>
        <time>2017-03-26T10:24:21Z</time>
      </trkpt>
      <trkpt lat="45.48002" lon="4.64751">
        <ele>379.28</ele>
        <time>2017-03-26T10:24:22Z</time>
      </trkpt>
      <trkpt lat="45.48001" lon="4.64751">
        <ele>379.24</ele>
        <time>2017-03-26T10:24:23Z</time>
      </trkpt>
      <trkpt lat="45.48002" lon="4.64751">
        <ele>379.15</ele>
        <time>2017-03-26T10:24:24Z</time>
      </trkpt>
      <trkpt lat="45.48002" lon="4.64751">
        <ele>379.13</ele>
        <time>2017-03-26T10:24:25Z</time>
      </trkpt>
      <trkpt lat="45.48002" lon="4.64751">
        <ele>379.13</ele>
        <time>2017-03-26T10:24:26Z</time>
      </trkpt>
      <trkpt lat="45.48002" lon="4.64751">
        <ele>379.13</ele>
        <time>2017-03-26T10:24:27Z</time>
      </trkpt>
      <trkpt lat="45.48002" lon="4.64751">
        <ele>379.13</ele>
        <time>2017-03-26T10:24:28Z</time>
      </trkpt>
      <trkpt lat="45.48002" lon="4.64751">
        <ele>379.13</ele>
        <time>2017-03-26T10:24:29Z</time>
      </trkpt>
      <trkpt lat="45.48002" lon="4.64751">
        <ele>379.13</ele>
        <time>2017-03-26T10:24:30Z</time>
      </trkpt>
      <trkpt lat="45.48002" lon="4.64751">
        <ele>379.13</ele>
        <time>2017-03-26T10:24:31Z</time>
      </trkpt>
      <trkpt lat="45.48002" lon="4.64751">
        <ele>379.13</ele>
        <time>2017-03-26T10:24:32Z</time>
      </trkpt>
      <trkpt lat="45.48002" lon="4.64751">
        <ele>379.13</ele>
        <time>2017-03-26T10:24:33Z</time>
      </trkpt>
      <trkpt lat="45.48002" lon="4.64751">
        <ele>379.13</ele>
        <time>2017-03-26T10:24:34Z</time>
      </trkpt>
      <trkpt lat="45.48002" lon="4.64751">
        <ele>379.13</ele>
        <time>2017-03-26T10:24:35Z</time>
      </trkpt>
      <trkpt lat="45.48002" lon="4.64751">
        <ele>379.13</ele>
        <time>2017-03-26T10:24:36Z</time>
      </trkpt>
      <trkpt lat="45.48002" lon="4.64751">
        <ele>379.13</ele>
        <time>2017-03-26T10:24:37Z</time>
      </trkpt>
      <trkpt lat="45.48002" lon="4.64751">
        <ele>379.13</ele>
        <time>2017-03-26T10:24:38Z</time>
      </trkpt>
      <trkpt lat="45.48002" lon="4.64751">
        <ele>379.13</ele>
        <time>2017-03-26T10:24:39Z</time>
      </trkpt>
      <trkpt lat="45.48002" lon="4.64751">
        <ele>379.13</ele>
        <time>2017-03-26T10:24:40Z</time>
      </trkpt>
      <trkpt lat="45.48002" lon="4.64751">
        <ele>379.13</ele>
        <time>2017-03-26T10:24:41Z</time>
      </trkpt>
      <trkpt lat="45.48002" lon="4.64751">
        <ele>379.13</ele>
        <time>2017-03-26T10:24:42Z</time>
      </trkpt>
      <trkpt lat="45.48002" lon="4.64751">
        <ele>379.13</ele>
        <time>2017-03-26T10:24:43Z</time>
      </trkpt>
      <trkpt lat="45.48002" lon="4.64751">
        <ele>379.13</ele>
        <time>2017-03-26T10:24:44Z</time>
      </trkpt>
      <trkpt lat="45.48002" lon="4.64751">
        <ele>379.13</ele>
        <time>2017-03-26T10:24:45Z</time>
      </trkpt>
      <trkpt lat="45.47999" lon="4.64757">
        <ele>378.57</ele>
        <time>2017-03-26T10:24:46Z</time>
      </trkpt>
      <trkpt lat="45.47996" lon="4.64761">
        <ele>378.46</ele>
        <time>2017-03-26T10:24:47Z</time>
      </trkpt>
      <trkpt lat="45.47991" lon="4.64764">
        <ele>378.44</ele>
        <time>2017-03-26T10:24:48Z</time>
      </trkpt>
      <trkpt lat="45.47987" lon="4.64766">
        <ele>378.43</ele>
        <time>2017-03-26T10:24:49Z</time>
      </trkpt>
      <trkpt lat="45.47981" lon="4.64766">
        <ele>378.43</ele>
        <time>2017-03-26T10:24:50Z</time>
      </trkpt>
      <trkpt lat="45.47976" lon="4.64766">
        <ele>378.43</ele>
        <time>2017-03-26T10:24:51Z</time>
      </trkpt>
      <trkpt lat="45.47971" lon="4.64764">
        <ele>378.43</ele>
        <time>2017-03-26T10:24:52Z</time>
      </trkpt>
      <trkpt lat="45.47967" lon="4.64762">
        <ele>378.43</ele>
        <time>2017-03-26T10:24:53Z</time>
      </trkpt>
      <trkpt lat="45.47963" lon="4.64758">
        <ele>378.43</ele>
        <time>2017-03-26T10:24:54Z</time>
      </trkpt>
      <trkpt lat="45.47959" lon="4.64756">
        <ele>378.43</ele>
        <time>2017-03-26T10:24:55Z</time>
      </trkpt>
      <trkpt lat="45.47954" lon="4.64753">
        <ele>378.51</ele>
        <time>2017-03-26T10:24:56Z</time>
      </trkpt>
      <trkpt lat="45.4795" lon="4.64751">
        <ele>378.53</ele>
        <time>2017-03-26T10:24:57Z</time>
      </trkpt>
      <trkpt lat="45.47947" lon="4.64747">
        <ele>378.53</ele>
        <time>2017-03-26T10:24:58Z</time>
      </trkpt>
      <trkpt lat="45.47944" lon="4.64744">
        <ele>378.53</ele>
        <time>2017-03-26T10:24:59Z</time>
      </trkpt>
      <trkpt lat="45.4794" lon="4.6474">
        <ele>378.53</ele>
        <time>2017-03-26T10:25:00Z</time>
      </trkpt>
      <trkpt lat="45.47937" lon="4.64736">
        <ele>378.53</ele>
        <time>2017-03-26T10:25:01Z</time>
      </trkpt>
      <trkpt lat="45.47932" lon="4.64731">
        <ele>378.53</ele>
        <time>2017-03-26T10:25:02Z</time>
      </trkpt>
      <trkpt lat="45.47928" lon="4.64727">
        <ele>378.53</ele>
        <time>2017-03-26T10:25:03Z</time>
      </trkpt>
      <trkpt lat="45.47924" lon="4.64723">
        <ele>378.53</ele>
        <time>2017-03-26T10:25:04Z</time>
      </trkpt>
      <trkpt lat="45.47921" lon="4.6472">
        <ele>378.53</ele>
        <time>2017-03-26T10:25:05Z</time>
      </trkpt>
      <trkpt lat="45.47918" lon="4.64716">
        <ele>378.61</ele>
        <time>2017-03-26T10:25:06Z</time>
      </trkpt>
      <trkpt lat="45.47915" lon="4.64714">
        <ele>378.63</ele>
        <time>2017-03-26T10:25:07Z</time>
      </trkpt>
      <trkpt lat="45.47914" lon="4.64714">
        <ele>378.63</ele>
        <time>2017-03-26T10:25:08Z</time>
      </trkpt>
      <trkpt lat="45.47913" lon="4.64713">
        <ele>378.63</ele>
        <time>2017-03-26T10:25:09Z</time>
      </trkpt>
      <trkpt lat="45.47912" lon="4.64713">
        <ele>378.55</ele>
        <time>2017-03-26T10:25:10Z</time>
      </trkpt>
      <trkpt lat="45.47913" lon="4.64713">
        <ele>378.61</ele>
        <time>2017-03-26T10:25:11Z</time>
      </trkpt>
      <trkpt lat="45.47912" lon="4.64713">
        <ele>378.63</ele>
        <time>2017-03-26T10:25:12Z</time>
      </trkpt>
      <trkpt lat="45.47912" lon="4.64713">
        <ele>378.63</ele>
        <time>2017-03-26T10:25:13Z</time>
      </trkpt>
      <trkpt lat="45.47912" lon="4.64713">
        <ele>378.63</ele>
        <time>2017-03-26T10:25:14Z</time>
      </trkpt>
      <trkpt lat="45.47912" lon="4.64713">
        <ele>378.63</ele>
        <time>2017-03-26T10:25:15Z</time>
      </trkpt>
      <trkpt lat="45.47912" lon="4.64713">
        <ele>378.63</ele>
        <time>2017-03-26T10:25:16Z</time>
      </trkpt>
      <trkpt lat="45.47912" lon="4.64713">
        <ele>378.63</ele>
        <time>2017-03-26T10:25:17Z</time>
      </trkpt>
      <trkpt lat="45.47912" lon="4.64713">
        <ele>378.63</ele>
        <time>2017-03-26T10:25:18Z</time>
      </trkpt>
      <trkpt lat="45.47912" lon="4.64713">
        <ele>378.63</ele>
        <time>2017-03-26T10:25:19Z</time>
      </trkpt>
      <trkpt lat="45.47912" lon="4.64713">
        <ele>378.63</ele>
        <time>2017-03-26T10:25:20Z</time>
      </trkpt>
      <trkpt lat="45.47912" lon="4.64713">
        <ele>378.63</ele>
        <time>2017-03-26T10:25:21Z</time>
      </trkpt>
      <trkpt lat="45.47912" lon="4.64713">
        <ele>378.63</ele>
        <time>2017-03-26T10:25:22Z</time>
      </trkpt>
      <trkpt lat="45.47912" lon="4.64713">
        <ele>378.63</ele>
        <time>2017-03-26T10:25:23Z</time>
      </trkpt>
      <trkpt lat="45.47912" lon="4.64713">
        <ele>378.63</ele>
        <time>2017-03-26T10:25:24Z</time>
      </trkpt>
      <trkpt lat="45.47912" lon="4.64713">
        <ele>378.63</ele>
        <time>2017-03-26T10:25:25Z</time>
      </trkpt>
      <trkpt lat="45.47912" lon="4.64713">
        <ele>378.63</ele>
        <time>2017-03-26T10:25:26Z</time>
      </trkpt>
      <trkpt lat="45.47912" lon="4.64713">
        <ele>378.63</ele>
        <time>2017-03-26T10:25:27Z</time>
      </trkpt>
      <trkpt lat="45.47912" lon="4.64713">
        <ele>378.63</ele>
        <time>2017-03-26T10:25:28Z</time>
      </trkpt>
      <trkpt lat="45.47912" lon="4.64713">
        <ele>378.63</ele>
        <time>2017-03-26T10:25:29Z</time>
      </trkpt>
      <trkpt lat="45.47912" lon="4.64713">
        <ele>378.63</ele>
        <time>2017-03-26T10:25:30Z</time>
      </trkpt>
      <trkpt lat="45.47912" lon="4.64713">
        <ele>378.63</ele>
        <time>2017-03-26T10:25:31Z</time>
      </trkpt>
      <trkpt lat="45.47912" lon="4.64713">
        <ele>378.63</ele>
        <time>2017-03-26T10:25:32Z</time>
      </trkpt>
      <trkpt lat="45.47912" lon="4.64713">
        <ele>378.63</ele>
        <time>2017-03-26T10:25:33Z</time>
      </trkpt>
      <trkpt lat="45.47912" lon="4.64713">
        <ele>378.63</ele>
        <time>2017-03-26T10:25:34Z</time>
      </trkpt>
      <trkpt lat="45.47912" lon="4.64713">
        <ele>378.63</ele>
        <time>2017-03-26T10:25:35Z</time>
      </trkpt>
      <trkpt lat="45.47912" lon="4.64713">
        <ele>378.63</ele>
        <time>2017-03-26T10:25:36Z</time>
      </trkpt>
      <trkpt lat="45.47912" lon="4.64713">
        <ele>378.63</ele>
        <time>2017-03-26T10:25:37Z</time>
      </trkpt>
      <trkpt lat="45.47912" lon="4.64713">
        <ele>378.63</ele>
        <time>2017-03-26T10:25:38Z</time>
      </trkpt>
      <trkpt lat="45.47912" lon="4.64713">
        <ele>378.63</ele>
        <time>2017-03-26T10:25:39Z</time>
      </trkpt>
      <trkpt lat="45.47912" lon="4.64713">
        <ele>378.63</ele>
        <time>2017-03-26T10:25:40Z</time>
      </trkpt>
      <trkpt lat="45.47912" lon="4.64713">
        <ele>378.63</ele>
        <time>2017-03-26T10:25:41Z</time>
      </trkpt>
      <trkpt lat="45.47912" lon="4.64713">
        <ele>378.63</ele>
        <time>2017-03-26T10:25:42Z</time>
      </trkpt>
      <trkpt lat="45.47912" lon="4.64713">
        <ele>378.63</ele>
        <time>2017-03-26T10:25:43Z</time>
      </trkpt>
      <trkpt lat="45.47912" lon="4.64713">
        <ele>378.63</ele>
        <time>2017-03-26T10:25:44Z</time>
      </trkpt>
      <trkpt lat="45.47912" lon="4.64713">
        <ele>378.63</ele>
        <time>2017-03-26T10:25:45Z</time>
      </trkpt>
      <trkpt lat="45.47912" lon="4.64713">
        <ele>378.63</ele>
        <time>2017-03-26T10:25:46Z</time>
      </trkpt>
      <trkpt lat="45.47912" lon="4.64713">
        <ele>378.63</ele>
        <time>2017-03-26T10:25:47Z</time>
      </trkpt>
      <trkpt lat="45.47912" lon="4.64713">
        <ele>378.63</ele>
        <time>2017-03-26T10:25:48Z</time>
      </trkpt>
      <trkpt lat="45.47912" lon="4.64713">
        <ele>378.63</ele>
        <time>2017-03-26T10:25:49Z</time>
      </trkpt>
      <trkpt lat="45.47912" lon="4.64713">
        <ele>378.63</ele>
        <time>2017-03-26T10:25:50Z</time>
      </trkpt>
      <trkpt lat="45.47912" lon="4.64713">
        <ele>378.63</ele>
        <time>2017-03-26T10:25:51Z</time>
      </trkpt>
      <trkpt lat="45.47912" lon="4.64713">
        <ele>378.63</ele>
        <time>2017-03-26T10:25:52Z</time>
      </trkpt>
      <trkpt lat="45.47912" lon="4.64713">
        <ele>378.63</ele>
        <time>2017-03-26T10:25:53Z</time>
      </trkpt>
      <trkpt lat="45.47912" lon="4.64713">
        <ele>378.63</ele>
        <time>2017-03-26T10:25:54Z</time>
      </trkpt>
      <trkpt lat="45.47912" lon="4.64713">
        <ele>378.63</ele>
        <time>2017-03-26T10:25:55Z</time>
      </trkpt>
      <trkpt lat="45.47912" lon="4.64713">
        <ele>378.63</ele>
        <time>2017-03-26T10:25:56Z</time>
      </trkpt>
      <trkpt lat="45.47912" lon="4.64713">
        <ele>378.63</ele>
        <time>2017-03-26T10:25:57Z</time>
      </trkpt>
      <trkpt lat="45.47912" lon="4.64713">
        <ele>378.63</ele>
        <time>2017-03-26T10:25:58Z</time>
      </trkpt>
      <trkpt lat="45.47912" lon="4.64713">
        <ele>378.63</ele>
        <time>2017-03-26T10:25:59Z</time>
      </trkpt>
      <trkpt lat="45.47912" lon="4.64713">
        <ele>378.63</ele>
        <time>2017-03-26T10:26:00Z</time>
      </trkpt>
      <trkpt lat="45.47912" lon="4.64713">
        <ele>378.63</ele>
        <time>2017-03-26T10:26:01Z</time>
      </trkpt>
      <trkpt lat="45.47912" lon="4.64713">
        <ele>378.63</ele>
        <time>2017-03-26T10:26:02Z</time>
      </trkpt>
      <trkpt lat="45.47912" lon="4.64713">
        <ele>378.63</ele>
        <time>2017-03-26T10:26:03Z</time>
      </trkpt>
      <trkpt lat="45.47912" lon="4.64713">
        <ele>378.63</ele>
        <time>2017-03-26T10:26:04Z</time>
      </trkpt>
      <trkpt lat="45.47912" lon="4.64713">
        <ele>378.63</ele>
        <time>2017-03-26T10:26:05Z</time>
      </trkpt>
      <trkpt lat="45.47912" lon="4.64713">
        <ele>378.63</ele>
        <time>2017-03-26T10:26:06Z</time>
      </trkpt>
      <trkpt lat="45.47912" lon="4.64713">
        <ele>378.63</ele>
        <time>2017-03-26T10:26:07Z</time>
      </trkpt>
      <trkpt lat="45.47912" lon="4.64713">
        <ele>378.63</ele>
        <time>2017-03-26T10:26:08Z</time>
      </trkpt>
      <trkpt lat="45.47912" lon="4.64713">
        <ele>378.63</ele>
        <time>2017-03-26T10:26:09Z</time>
      </trkpt>
      <trkpt lat="45.47912" lon="4.64713">
        <ele>378.63</ele>
        <time>2017-03-26T10:26:10Z</time>
      </trkpt>
      <trkpt lat="45.47912" lon="4.64713">
        <ele>378.63</ele>
        <time>2017-03-26T10:26:11Z</time>
      </trkpt>
      <trkpt lat="45.47912" lon="4.64713">
        <ele>378.63</ele>
        <time>2017-03-26T10:26:12Z</time>
      </trkpt>
      <trkpt lat="45.47912" lon="4.64713">
        <ele>378.63</ele>
        <time>2017-03-26T10:26:13Z</time>
      </trkpt>
      <trkpt lat="45.47912" lon="4.64713">
        <ele>378.63</ele>
        <time>2017-03-26T10:26:14Z</time>
      </trkpt>
      <trkpt lat="45.47912" lon="4.64713">
        <ele>378.63</ele>
        <time>2017-03-26T10:26:15Z</time>
      </trkpt>
      <trkpt lat="45.47912" lon="4.64713">
        <ele>378.63</ele>
        <time>2017-03-26T10:26:16Z</time>
      </trkpt>
      <trkpt lat="45.47912" lon="4.64713">
        <ele>378.63</ele>
        <time>2017-03-26T10:26:17Z</time>
      </trkpt>
      <trkpt lat="45.47912" lon="4.64713">
        <ele>378.63</ele>
        <time>2017-03-26T10:26:18Z</time>
      </trkpt>
      <trkpt lat="45.47912" lon="4.64713">
        <ele>378.63</ele>
        <time>2017-03-26T10:26:19Z</time>
      </trkpt>
      <trkpt lat="45.47912" lon="4.64713">
        <ele>378.63</ele>
        <time>2017-03-26T10:26:20Z</time>
      </trkpt>
      <trkpt lat="45.47912" lon="4.64713">
        <ele>378.63</ele>
        <time>2017-03-26T10:26:21Z</time>
      </trkpt>
      <trkpt lat="45.47912" lon="4.64713">
        <ele>378.63</ele>
        <time>2017-03-26T10:26:22Z</time>
      </trkpt>
      <trkpt lat="45.47912" lon="4.64713">
        <ele>378.63</ele>
        <time>2017-03-26T10:26:23Z</time>
      </trkpt>
      <trkpt lat="45.47912" lon="4.64713">
        <ele>378.63</ele>
        <time>2017-03-26T10:26:24Z</time>
      </trkpt>
      <trkpt lat="45.47912" lon="4.64713">
        <ele>378.63</ele>
        <time>2017-03-26T10:26:25Z</time>
      </trkpt>
      <trkpt lat="45.47912" lon="4.64713">
        <ele>378.63</ele>
        <time>2017-03-26T10:26:26Z</time>
      </trkpt>
      <trkpt lat="45.47912" lon="4.64713">
        <ele>378.63</ele>
        <time>2017-03-26T10:26:27Z</time>
      </trkpt>
      <trkpt lat="45.47912" lon="4.64713">
        <ele>378.63</ele>
        <time>2017-03-26T10:26:28Z</time>
      </trkpt>
      <trkpt lat="45.47912" lon="4.64713">
        <ele>378.63</ele>
        <time>2017-03-26T10:26:29Z</time>
      </trkpt>
      <trkpt lat="45.47912" lon="4.64713">
        <ele>378.63</ele>
        <time>2017-03-26T10:26:30Z</time>
      </trkpt>
      <trkpt lat="45.47912" lon="4.64713">
        <ele>378.63</ele>
        <time>2017-03-26T10:26:31Z</time>
      </trkpt>
      <trkpt lat="45.47912" lon="4.64713">
        <ele>378.63</ele>
        <time>2017-03-26T10:26:32Z</time>
      </trkpt>
      <trkpt lat="45.47912" lon="4.64713">
        <ele>378.63</ele>
        <time>2017-03-26T10:26:33Z</time>
      </trkpt>
      <trkpt lat="45.47912" lon="4.64713">
        <ele>378.63</ele>
        <time>2017-03-26T10:26:34Z</time>
      </trkpt>
      <trkpt lat="45.47912" lon="4.64713">
        <ele>378.63</ele>
        <time>2017-03-26T10:26:35Z</time>
      </trkpt>
      <trkpt lat="45.47912" lon="4.64713">
        <ele>378.63</ele>
        <time>2017-03-26T10:26:36Z</time>
      </trkpt>
      <trkpt lat="45.47912" lon="4.64713">
        <ele>378.63</ele>
        <time>2017-03-26T10:26:37Z</time>
      </trkpt>
      <trkpt lat="45.47912" lon="4.64713">
        <ele>378.63</ele>
        <time>2017-03-26T10:26:38Z</time>
      </trkpt>
      <trkpt lat="45.47912" lon="4.64713">
        <ele>378.63</ele>
        <time>2017-03-26T10:26:39Z</time>
      </trkpt>
      <trkpt lat="45.47912" lon="4.64713">
        <ele>378.63</ele>
        <time>2017-03-26T10:26:40Z</time>
      </trkpt>
      <trkpt lat="45.47912" lon="4.64713">
        <ele>378.63</ele>
        <time>2017-03-26T10:26:41Z</time>
      </trkpt>
      <trkpt lat="45.47912" lon="4.64713">
        <ele>378.63</ele>
        <time>2017-03-26T10:26:42Z</time>
      </trkpt>
      <trkpt lat="45.47912" lon="4.64713">
        <ele>378.63</ele>
        <time>2017-03-26T10:26:43Z</time>
      </trkpt>
      <trkpt lat="45.47912" lon="4.64713">
        <ele>378.63</ele>
        <time>2017-03-26T10:26:44Z</time>
      </trkpt>
      <trkpt lat="45.47912" lon="4.64713">
        <ele>378.63</ele>
        <time>2017-03-26T10:26:45Z</time>
      </trkpt>
      <trkpt lat="45.47912" lon="4.64713">
        <ele>378.63</ele>
        <time>2017-03-26T10:26:46Z</time>
      </trkpt>
      <trkpt lat="45.47912" lon="4.64713">
        <ele>378.63</ele>
        <time>2017-03-26T10:26:47Z</time>
      </trkpt>
      <trkpt lat="45.47912" lon="4.64713">
        <ele>378.63</ele>
        <time>2017-03-26T10:26:48Z</time>
      </trkpt>
      <trkpt lat="45.47912" lon="4.64713">
        <ele>378.63</ele>
        <time>2017-03-26T10:26:49Z</time>
      </trkpt>
      <trkpt lat="45.47912" lon="4.64713">
        <ele>378.63</ele>
        <time>2017-03-26T10:26:50Z</time>
      </trkpt>
      <trkpt lat="45.47912" lon="4.64713">
        <ele>378.63</ele>
        <time>2017-03-26T10:26:51Z</time>
      </trkpt>
      <trkpt lat="45.47912" lon="4.64713">
        <ele>378.63</ele>
        <time>2017-03-26T10:26:52Z</time>
      </trkpt>
      <trkpt lat="45.47912" lon="4.64713">
        <ele>378.63</ele>
        <time>2017-03-26T10:26:53Z</time>
      </trkpt>
      <trkpt lat="45.47912" lon="4.64713">
        <ele>378.63</ele>
        <time>2017-03-26T10:26:54Z</time>
      </trkpt>
      <trkpt lat="45.47912" lon="4.64713">
        <ele>378.63</ele>
        <time>2017-03-26T10:26:55Z</time>
      </trkpt>
      <trkpt lat="45.47912" lon="4.64713">
        <ele>378.63</ele>
        <time>2017-03-26T10:26:56Z</time>
      </trkpt>
      <trkpt lat="45.47912" lon="4.64713">
        <ele>378.63</ele>
        <time>2017-03-26T10:26:57Z</time>
      </trkpt>
      <trkpt lat="45.47912" lon="4.64713">
        <ele>378.63</ele>
        <time>2017-03-26T10:26:58Z</time>
      </trkpt>
      <trkpt lat="45.47912" lon="4.64713">
        <ele>378.63</ele>
        <time>2017-03-26T10:26:59Z</time>
      </trkpt>
      <trkpt lat="45.47912" lon="4.64713">
        <ele>378.63</ele>
        <time>2017-03-26T10:27:00Z</time>
      </trkpt>
      <trkpt lat="45.47912" lon="4.64713">
        <ele>378.63</ele>
        <time>2017-03-26T10:27:01Z</time>
      </trkpt>
      <trkpt lat="45.47912" lon="4.64713">
        <ele>378.63</ele>
        <time>2017-03-26T10:27:02Z</time>
      </trkpt>
      <trkpt lat="45.47912" lon="4.64713">
        <ele>378.63</ele>
        <time>2017-03-26T10:27:03Z</time>
      </trkpt>
      <trkpt lat="45.47912" lon="4.64713">
        <ele>378.63</ele>
        <time>2017-03-26T10:27:04Z</time>
      </trkpt>
      <trkpt lat="45.47912" lon="4.64713">
        <ele>378.63</ele>
        <time>2017-03-26T10:27:05Z</time>
      </trkpt>
      <trkpt lat="45.47912" lon="4.64713">
        <ele>378.63</ele>
        <time>2017-03-26T10:27:06Z</time>
      </trkpt>
      <trkpt lat="45.47912" lon="4.64713">
        <ele>378.63</ele>
        <time>2017-03-26T10:27:07Z</time>
      </trkpt>
      <trkpt lat="45.47912" lon="4.64713">
        <ele>378.63</ele>
        <time>2017-03-26T10:27:08Z</time>
      </trkpt>
      <trkpt lat="45.47908" lon="4.64711">
        <ele>378.55</ele>
        <time>2017-03-26T10:27:09Z</time>
      </trkpt>
      <trkpt lat="45.47903" lon="4.64712">
        <ele>378.53</ele>
        <time>2017-03-26T10:27:10Z</time>
      </trkpt>
      <trkpt lat="45.47899" lon="4.64712">
        <ele>378.53</ele>
        <time>2017-03-26T10:27:11Z</time>
      </trkpt>
      <trkpt lat="45.47895" lon="4.64712">
        <ele>378.45</ele>
        <time>2017-03-26T10:27:12Z</time>
      </trkpt>
      <trkpt lat="45.47892" lon="4.64711">
        <ele>378.43</ele>
        <time>2017-03-26T10:27:13Z</time>
      </trkpt>
      <trkpt lat="45.47889" lon="4.64709">
        <ele>378.43</ele>
        <time>2017-03-26T10:27:14Z</time>
      </trkpt>
      <trkpt lat="45.47885" lon="4.64706">
        <ele>378.43</ele>
        <time>2017-03-26T10:27:15Z</time>
      </trkpt>
      <trkpt lat="45.4788" lon="4.64703">
        <ele>378.35</ele>
        <time>2017-03-26T10:27:16Z</time>
      </trkpt>
      <trkpt lat="45.47875" lon="4.647">
        <ele>378.33</ele>
        <time>2017-03-26T10:27:17Z</time>
      </trkpt>
      <trkpt lat="45.4787" lon="4.64697">
        <ele>378.33</ele>
        <time>2017-03-26T10:27:18Z</time>
      </trkpt>
      <trkpt lat="45.47865" lon="4.64694">
        <ele>378.33</ele>
        <time>2017-03-26T10:27:19Z</time>
      </trkpt>
      <trkpt lat="45.4786" lon="4.6469">
        <ele>378.25</ele>
        <time>2017-03-26T10:27:20Z</time>
      </trkpt>
      <trkpt lat="45.47855" lon="4.64686">
        <ele>378.23</ele>
        <time>2017-03-26T10:27:21Z</time>
      </trkpt>
      <trkpt lat="45.4785" lon="4.64681">
        <ele>378.23</ele>
        <time>2017-03-26T10:27:22Z</time>
      </trkpt>
      <trkpt lat="45.47844" lon="4.64677">
        <ele>378.23</ele>
        <time>2017-03-26T10:27:23Z</time>
      </trkpt>
      <trkpt lat="45.47839" lon="4.64673">
        <ele>378.23</ele>
        <time>2017-03-26T10:27:24Z</time>
      </trkpt>
      <trkpt lat="45.47834" lon="4.6467">
        <ele>378.23</ele>
        <time>2017-03-26T10:27:25Z</time>
      </trkpt>
      <trkpt lat="45.47831" lon="4.64667">
        <ele>378.15</ele>
        <time>2017-03-26T10:27:26Z</time>
      </trkpt>
      <trkpt lat="45.47828" lon="4.64664">
        <ele>378.13</ele>
        <time>2017-03-26T10:27:27Z</time>
      </trkpt>
      <trkpt lat="45.47825" lon="4.64662">
        <ele>378.13</ele>
        <time>2017-03-26T10:27:28Z</time>
      </trkpt>
      <trkpt lat="45.47824" lon="4.64661">
        <ele>378.13</ele>
        <time>2017-03-26T10:27:29Z</time>
      </trkpt>
      <trkpt lat="45.47823" lon="4.6466">
        <ele>378.13</ele>
        <time>2017-03-26T10:27:30Z</time>
      </trkpt>
      <trkpt lat="45.47822" lon="4.6466">
        <ele>378.05</ele>
        <time>2017-03-26T10:27:31Z</time>
      </trkpt>
      <trkpt lat="45.47821" lon="4.6466">
        <ele>378.03</ele>
        <time>2017-03-26T10:27:32Z</time>
      </trkpt>
      <trkpt lat="45.47821" lon="4.6466">
        <ele>378.03</ele>
        <time>2017-03-26T10:27:33Z</time>
      </trkpt>
      <trkpt lat="45.47821" lon="4.6466">
        <ele>378.03</ele>
        <time>2017-03-26T10:27:34Z</time>
      </trkpt>
      <trkpt lat="45.47821" lon="4.6466">
        <ele>378.03</ele>
        <time>2017-03-26T10:27:35Z</time>
      </trkpt>
      <trkpt lat="45.47821" lon="4.6466">
        <ele>378.03</ele>
        <time>2017-03-26T10:27:36Z</time>
      </trkpt>
      <trkpt lat="45.47821" lon="4.6466">
        <ele>378.03</ele>
        <time>2017-03-26T10:27:37Z</time>
      </trkpt>
      <trkpt lat="45.47821" lon="4.6466">
        <ele>378.03</ele>
        <time>2017-03-26T10:27:38Z</time>
      </trkpt>
      <trkpt lat="45.47821" lon="4.6466">
        <ele>378.03</ele>
        <time>2017-03-26T10:27:39Z</time>
      </trkpt>
      <trkpt lat="45.47821" lon="4.6466">
        <ele>378.03</ele>
        <time>2017-03-26T10:27:40Z</time>
      </trkpt>
      <trkpt lat="45.47821" lon="4.6466">
        <ele>378.03</ele>
        <time>2017-03-26T10:27:41Z</time>
      </trkpt>
      <trkpt lat="45.47821" lon="4.6466">
        <ele>378.03</ele>
        <time>2017-03-26T10:27:42Z</time>
      </trkpt>
      <trkpt lat="45.47821" lon="4.6466">
        <ele>378.03</ele>
        <time>2017-03-26T10:27:43Z</time>
      </trkpt>
      <trkpt lat="45.47821" lon="4.6466">
        <ele>378.03</ele>
        <time>2017-03-26T10:27:44Z</time>
      </trkpt>
      <trkpt lat="45.47821" lon="4.6466">
        <ele>378.03</ele>
        <time>2017-03-26T10:27:45Z</time>
      </trkpt>
      <trkpt lat="45.47821" lon="4.6466">
        <ele>378.03</ele>
        <time>2017-03-26T10:27:46Z</time>
      </trkpt>
      <trkpt lat="45.47821" lon="4.6466">
        <ele>378.03</ele>
        <time>2017-03-26T10:27:47Z</time>
      </trkpt>
      <trkpt lat="45.47821" lon="4.6466">
        <ele>378.03</ele>
        <time>2017-03-26T10:27:48Z</time>
      </trkpt>
      <trkpt lat="45.47821" lon="4.6466">
        <ele>378.03</ele>
        <time>2017-03-26T10:27:49Z</time>
      </trkpt>
      <trkpt lat="45.47821" lon="4.6466">
        <ele>378.03</ele>
        <time>2017-03-26T10:27:50Z</time>
      </trkpt>
      <trkpt lat="45.47821" lon="4.6466">
        <ele>378.03</ele>
        <time>2017-03-26T10:27:51Z</time>
      </trkpt>
      <trkpt lat="45.47821" lon="4.6466">
        <ele>378.03</ele>
        <time>2017-03-26T10:27:52Z</time>
      </trkpt>
      <trkpt lat="45.47821" lon="4.6466">
        <ele>378.03</ele>
        <time>2017-03-26T10:27:53Z</time>
      </trkpt>
      <trkpt lat="45.47821" lon="4.6466">
        <ele>378.03</ele>
        <time>2017-03-26T10:27:54Z</time>
      </trkpt>
      <trkpt lat="45.47821" lon="4.6466">
        <ele>378.03</ele>
        <time>2017-03-26T10:27:55Z</time>
      </trkpt>
      <trkpt lat="45.47821" lon="4.6466">
        <ele>378.03</ele>
        <time>2017-03-26T10:27:56Z</time>
      </trkpt>
      <trkpt lat="45.47821" lon="4.6466">
        <ele>378.03</ele>
        <time>2017-03-26T10:27:57Z</time>
      </trkpt>
      <trkpt lat="45.47821" lon="4.6466">
        <ele>378.03</ele>
        <time>2017-03-26T10:27:58Z</time>
      </trkpt>
      <trkpt lat="45.47821" lon="4.6466">
        <ele>378.03</ele>
        <time>2017-03-26T10:27:59Z</time>
      </trkpt>
      <trkpt lat="45.47821" lon="4.6466">
        <ele>378.03</ele>
        <time>2017-03-26T10:28:00Z</time>
      </trkpt>
      <trkpt lat="45.47821" lon="4.6466">
        <ele>378.03</ele>
        <time>2017-03-26T10:28:01Z</time>
      </trkpt>
      <trkpt lat="45.47821" lon="4.6466">
        <ele>378.03</ele>
        <time>2017-03-26T10:28:02Z</time>
      </trkpt>
      <trkpt lat="45.47821" lon="4.6466">
        <ele>378.03</ele>
        <time>2017-03-26T10:28:03Z</time>
      </trkpt>
      <trkpt lat="45.47821" lon="4.6466">
        <ele>378.03</ele>
        <time>2017-03-26T10:28:04Z</time>
      </trkpt>
      <trkpt lat="45.47821" lon="4.6466">
        <ele>378.03</ele>
        <time>2017-03-26T10:28:05Z</time>
      </trkpt>
      <trkpt lat="45.47821" lon="4.6466">
        <ele>378.03</ele>
        <time>2017-03-26T10:28:06Z</time>
      </trkpt>
      <trkpt lat="45.47821" lon="4.6466">
        <ele>378.03</ele>
        <time>2017-03-26T10:28:07Z</time>
      </trkpt>
      <trkpt lat="45.47821" lon="4.6466">
        <ele>378.03</ele>
        <time>2017-03-26T10:28:08Z</time>
      </trkpt>
      <trkpt lat="45.47821" lon="4.6466">
        <ele>378.03</ele>
        <time>2017-03-26T10:28:09Z</time>
      </trkpt>
      <trkpt lat="45.47821" lon="4.6466">
        <ele>378.03</ele>
        <time>2017-03-26T10:28:10Z</time>
      </trkpt>
      <trkpt lat="45.47821" lon="4.6466">
        <ele>378.03</ele>
        <time>2017-03-26T10:28:11Z</time>
      </trkpt>
      <trkpt lat="45.47821" lon="4.6466">
        <ele>378.03</ele>
        <time>2017-03-26T10:28:12Z</time>
      </trkpt>
      <trkpt lat="45.47821" lon="4.6466">
        <ele>378.03</ele>
        <time>2017-03-26T10:28:13Z</time>
      </trkpt>
      <trkpt lat="45.47821" lon="4.6466">
        <ele>378.03</ele>
        <time>2017-03-26T10:28:14Z</time>
      </trkpt>
      <trkpt lat="45.47821" lon="4.6466">
        <ele>378.03</ele>
        <time>2017-03-26T10:28:15Z</time>
      </trkpt>
      <trkpt lat="45.47821" lon="4.6466">
        <ele>378.03</ele>
        <time>2017-03-26T10:28:16Z</time>
      </trkpt>
      <trkpt lat="45.47821" lon="4.6466">
        <ele>378.03</ele>
        <time>2017-03-26T10:28:17Z</time>
      </trkpt>
      <trkpt lat="45.47821" lon="4.6466">
        <ele>378.03</ele>
        <time>2017-03-26T10:28:18Z</time>
      </trkpt>
      <trkpt lat="45.47821" lon="4.6466">
        <ele>378.03</ele>
        <time>2017-03-26T10:28:19Z</time>
      </trkpt>
      <trkpt lat="45.47821" lon="4.6466">
        <ele>378.03</ele>
        <time>2017-03-26T10:28:20Z</time>
      </trkpt>
      <trkpt lat="45.47821" lon="4.6466">
        <ele>378.03</ele>
        <time>2017-03-26T10:28:21Z</time>
      </trkpt>
      <trkpt lat="45.47821" lon="4.6466">
        <ele>378.03</ele>
        <time>2017-03-26T10:28:22Z</time>
      </trkpt>
      <trkpt lat="45.47821" lon="4.6466">
        <ele>378.03</ele>
        <time>2017-03-26T10:28:23Z</time>
      </trkpt>
      <trkpt lat="45.47821" lon="4.6466">
        <ele>378.03</ele>
        <time>2017-03-26T10:28:24Z</time>
      </trkpt>
      <trkpt lat="45.47821" lon="4.6466">
        <ele>378.03</ele>
        <time>2017-03-26T10:28:25Z</time>
      </trkpt>
      <trkpt lat="45.47821" lon="4.6466">
        <ele>378.03</ele>
        <time>2017-03-26T10:28:26Z</time>
      </trkpt>
      <trkpt lat="45.47821" lon="4.6466">
        <ele>378.03</ele>
        <time>2017-03-26T10:28:27Z</time>
      </trkpt>
      <trkpt lat="45.47821" lon="4.6466">
        <ele>378.03</ele>
        <time>2017-03-26T10:28:28Z</time>
      </trkpt>
      <trkpt lat="45.47821" lon="4.6466">
        <ele>378.03</ele>
        <time>2017-03-26T10:28:29Z</time>
      </trkpt>
      <trkpt lat="45.47821" lon="4.6466">
        <ele>378.03</ele>
        <time>2017-03-26T10:28:30Z</time>
      </trkpt>
      <trkpt lat="45.47821" lon="4.6466">
        <ele>378.03</ele>
        <time>2017-03-26T10:28:31Z</time>
      </trkpt>
      <trkpt lat="45.47821" lon="4.6466">
        <ele>378.03</ele>
        <time>2017-03-26T10:28:32Z</time>
      </trkpt>
      <trkpt lat="45.47821" lon="4.6466">
        <ele>378.03</ele>
        <time>2017-03-26T10:28:33Z</time>
      </trkpt>
      <trkpt lat="45.47821" lon="4.6466">
        <ele>378.03</ele>
        <time>2017-03-26T10:28:34Z</time>
      </trkpt>
      <trkpt lat="45.47816" lon="4.64656">
        <ele>377.95</ele>
        <time>2017-03-26T10:28:35Z</time>
      </trkpt>
      <trkpt lat="45.47814" lon="4.64654">
        <ele>377.93</ele>
        <time>2017-03-26T10:28:36Z</time>
      </trkpt>
      <trkpt lat="45.47811" lon="4.64652">
        <ele>377.85</ele>
        <time>2017-03-26T10:28:37Z</time>
      </trkpt>
      <trkpt lat="45.47807" lon="4.64649">
        <ele>377.83</ele>
        <time>2017-03-26T10:28:38Z</time>
      </trkpt>
      <trkpt lat="45.47803" lon="4.64647">
        <ele>377.75</ele>
        <time>2017-03-26T10:28:39Z</time>
      </trkpt>
      <trkpt lat="45.47798" lon="4.64644">
        <ele>377.73</ele>
        <time>2017-03-26T10:28:40Z</time>
      </trkpt>
      <trkpt lat="45.47793" lon="4.64642">
        <ele>377.73</ele>
        <time>2017-03-26T10:28:41Z</time>
      </trkpt>
      <trkpt lat="45.47789" lon="4.64639">
        <ele>377.65</ele>
        <time>2017-03-26T10:28:42Z</time>
      </trkpt>
      <trkpt lat="45.47783" lon="4.64637">
        <ele>377.63</ele>
        <time>2017-03-26T10:28:43Z</time>
      </trkpt>
      <trkpt lat="45.47777" lon="4.64635">
        <ele>377.63</ele>
        <time>2017-03-26T10:28:44Z</time>
      </trkpt>
      <trkpt lat="45.4777" lon="4.64634">
        <ele>377.63</ele>
        <time>2017-03-26T10:28:45Z</time>
      </trkpt>
      <trkpt lat="45.47761" lon="4.64634">
        <ele>377.63</ele>
        <time>2017-03-26T10:28:46Z</time>
      </trkpt>
      <trkpt lat="45.47753" lon="4.64633">
        <ele>377.63</ele>
        <time>2017-03-26T10:28:47Z</time>
      </trkpt>
      <trkpt lat="45.47745" lon="4.64632">
        <ele>377.63</ele>
        <time>2017-03-26T10:28:48Z</time>
      </trkpt>
      <trkpt lat="45.47736" lon="4.64629">
        <ele>377.63</ele>
        <time>2017-03-26T10:28:49Z</time>
      </trkpt>
      <trkpt lat="45.47726" lon="4.64625">
        <ele>377.63</ele>
        <time>2017-03-26T10:28:50Z</time>
      </trkpt>
      <trkpt lat="45.47717" lon="4.6462">
        <ele>377.71</ele>
        <time>2017-03-26T10:28:51Z</time>
      </trkpt>
      <trkpt lat="45.47706" lon="4.64613">
        <ele>377.73</ele>
        <time>2017-03-26T10:28:52Z</time>
      </trkpt>
      <trkpt lat="45.47694" lon="4.64603">
        <ele>377.73</ele>
        <time>2017-03-26T10:28:53Z</time>
      </trkpt>
      <trkpt lat="45.47682" lon="4.64594">
        <ele>377.73</ele>
        <time>2017-03-26T10:28:54Z</time>
      </trkpt>
      <trkpt lat="45.47669" lon="4.64585">
        <ele>377.81</ele>
        <time>2017-03-26T10:28:55Z</time>
      </trkpt>
      <trkpt lat="45.47654" lon="4.64576">
        <ele>377.91</ele>
        <time>2017-03-26T10:28:56Z</time>
      </trkpt>
      <trkpt lat="45.47638" lon="4.64567">
        <ele>377.93</ele>
        <time>2017-03-26T10:28:57Z</time>
      </trkpt>
      <trkpt lat="45.47624" lon="4.64558">
        <ele>378.01</ele>
        <time>2017-03-26T10:28:58Z</time>
      </trkpt>
      <trkpt lat="45.47609" lon="4.64547">
        <ele>378.03</ele>
        <time>2017-03-26T10:28:59Z</time>
      </trkpt>
      <trkpt lat="45.47592" lon="4.64539">
        <ele>378.11</ele>
        <time>2017-03-26T10:29:00Z</time>
      </trkpt>
      <trkpt lat="45.47574" lon="4.64529">
        <ele>378.29</ele>
        <time>2017-03-26T10:29:01Z</time>
      </trkpt>
      <trkpt lat="45.47557" lon="4.6452">
        <ele>378.4</ele>
        <time>2017-03-26T10:29:02Z</time>
      </trkpt>
      <trkpt lat="45.4754" lon="4.64509">
        <ele>378.5</ele>
        <time>2017-03-26T10:29:03Z</time>
      </trkpt>
      <trkpt lat="45.47524" lon="4.64497">
        <ele>378.68</ele>
        <time>2017-03-26T10:29:04Z</time>
      </trkpt>
      <trkpt lat="45.47509" lon="4.64486">
        <ele>378.8</ele>
        <time>2017-03-26T10:29:05Z</time>
      </trkpt>
      <trkpt lat="45.47495" lon="4.64477">
        <ele>378.98</ele>
        <time>2017-03-26T10:29:06Z</time>
      </trkpt>
      <trkpt lat="45.4748" lon="4.64466">
        <ele>379.1</ele>
        <time>2017-03-26T10:29:07Z</time>
      </trkpt>
      <trkpt lat="45.47467" lon="4.64456">
        <ele>379.2</ele>
        <time>2017-03-26T10:29:08Z</time>
      </trkpt>
      <trkpt lat="45.47454" lon="4.64447">
        <ele>379.3</ele>
        <time>2017-03-26T10:29:09Z</time>
      </trkpt>
      <trkpt lat="45.47441" lon="4.6444">
        <ele>379.48</ele>
        <time>2017-03-26T10:29:10Z</time>
      </trkpt>
      <trkpt lat="45.47431" lon="4.64433">
        <ele>379.6</ele>
        <time>2017-03-26T10:29:11Z</time>
      </trkpt>
      <trkpt lat="45.47426" lon="4.64427">
        <ele>379.78</ele>
        <time>2017-03-26T10:29:12Z</time>
      </trkpt>
      <trkpt lat="45.47426" lon="4.64423">
        <ele>379.98</ele>
        <time>2017-03-26T10:29:13Z</time>
      </trkpt>
      <trkpt lat="45.47425" lon="4.64421">
        <ele>380.18</ele>
        <time>2017-03-26T10:29:14Z</time>
      </trkpt>
      <trkpt lat="45.47429" lon="4.64422">
        <ele>380.3</ele>
        <time>2017-03-26T10:29:15Z</time>
      </trkpt>
      <trkpt lat="45.47441" lon="4.6443">
        <ele>380.48</ele>
        <time>2017-03-26T10:29:16Z</time>
      </trkpt>
      <trkpt lat="45.47449" lon="4.64435">
        <ele>380.68</ele>
        <time>2017-03-26T10:29:17Z</time>
      </trkpt>
      <trkpt lat="45.47473" lon="4.64438">
        <ele>380.96</ele>
        <time>2017-03-26T10:29:18Z</time>
      </trkpt>
      <trkpt lat="45.47496" lon="4.64443">
        <ele>381.34</ele>
        <time>2017-03-26T10:29:19Z</time>
      </trkpt>
      <trkpt lat="45.4751" lon="4.64446">
        <ele>381.57</ele>
        <time>2017-03-26T10:29:20Z</time>
      </trkpt>
      <trkpt lat="45.47526" lon="4.64448">
        <ele>381.78</ele>
        <time>2017-03-26T10:29:21Z</time>
      </trkpt>
      <trkpt lat="45.4754" lon="4.64449">
        <ele>381.98</ele>
        <time>2017-03-26T10:29:22Z</time>
      </trkpt>
      <trkpt lat="45.47557" lon="4.64443">
        <ele>382.18</ele>
        <time>2017-03-26T10:29:23Z</time>
      </trkpt>
      <trkpt lat="45.47572" lon="4.64437">
        <ele>382.38</ele>
        <time>2017-03-26T10:29:24Z</time>
      </trkpt>
      <trkpt lat="45.47584" lon="4.6443">
        <ele>382.58</ele>
        <time>2017-03-26T10:29:25Z</time>
      </trkpt>
      <trkpt lat="45.47597" lon="4.64422">
        <ele>382.7</ele>
        <time>2017-03-26T10:29:26Z</time>
      </trkpt>
      <trkpt lat="45.4761" lon="4.64413">
        <ele>382.96</ele>
        <time>2017-03-26T10:29:27Z</time>
      </trkpt>
      <trkpt lat="45.47618" lon="4.64399">
        <ele>383.18</ele>
        <time>2017-03-26T10:29:28Z</time>
      </trkpt>
      <trkpt lat="45.47624" lon="4.64384">
        <ele>383.38</ele>
        <time>2017-03-26T10:29:29Z</time>
      </trkpt>
      <trkpt lat="45.47629" lon="4.64367">
        <ele>383.5</ele>
        <time>2017-03-26T10:29:30Z</time>
      </trkpt>
      <trkpt lat="45.47632" lon="4.64349">
        <ele>383.68</ele>
        <time>2017-03-26T10:29:31Z</time>
      </trkpt>
      <trkpt lat="45.47633" lon="4.6433">
        <ele>383.88</ele>
        <time>2017-03-26T10:29:32Z</time>
      </trkpt>
      <trkpt lat="45.47632" lon="4.64311">
        <ele>384.16</ele>
        <time>2017-03-26T10:29:33Z</time>
      </trkpt>
      <trkpt lat="45.47629" lon="4.6429">
        <ele>384.54</ele>
        <time>2017-03-26T10:29:34Z</time>
      </trkpt>
      <trkpt lat="45.47626" lon="4.64268">
        <ele>384.85</ele>
        <time>2017-03-26T10:29:35Z</time>
      </trkpt>
      <trkpt lat="45.47616" lon="4.64243">
        <ele>385.23</ele>
        <time>2017-03-26T10:29:36Z</time>
      </trkpt>
      <trkpt lat="45.47606" lon="4.64216">
        <ele>385.63</ele>
        <time>2017-03-26T10:29:37Z</time>
      </trkpt>
      <trkpt lat="45.47597" lon="4.64191">
        <ele>386.19</ele>
        <time>2017-03-26T10:29:38Z</time>
      </trkpt>
      <trkpt lat="45.47588" lon="4.64163">
        <ele>386.7</ele>
        <time>2017-03-26T10:29:39Z</time>
      </trkpt>
      <trkpt lat="45.47582" lon="4.64139">
        <ele>387.36</ele>
        <time>2017-03-26T10:29:40Z</time>
      </trkpt>
      <trkpt lat="45.47575" lon="4.64113">
        <ele>388.06</ele>
        <time>2017-03-26T10:29:41Z</time>
      </trkpt>
      <trkpt lat="45.47568" lon="4.64089">
        <ele>388.84</ele>
        <time>2017-03-26T10:29:42Z</time>
      </trkpt>
      <trkpt lat="45.47562" lon="4.64064">
        <ele>389.55</ele>
        <time>2017-03-26T10:29:43Z</time>
      </trkpt>
      <trkpt lat="45.47558" lon="4.6404">
        <ele>390.57</ele>
        <time>2017-03-26T10:29:44Z</time>
      </trkpt>
      <trkpt lat="45.47553" lon="4.64016">
        <ele>391.5</ele>
        <time>2017-03-26T10:29:45Z</time>
      </trkpt>
      <trkpt lat="45.47551" lon="4.63992">
        <ele>392.56</ele>
        <time>2017-03-26T10:29:46Z</time>
      </trkpt>
      <trkpt lat="45.47549" lon="4.6397">
        <ele>393.74</ele>
        <time>2017-03-26T10:29:47Z</time>
      </trkpt>
      <trkpt lat="45.47542" lon="4.63947">
        <ele>395.33</ele>
        <time>2017-03-26T10:29:48Z</time>
      </trkpt>
      <trkpt lat="45.47535" lon="4.63925">
        <ele>396.85</ele>
        <time>2017-03-26T10:29:49Z</time>
      </trkpt>
      <trkpt lat="45.47526" lon="4.6391">
        <ele>397.79</ele>
        <time>2017-03-26T10:29:50Z</time>
      </trkpt>
      <trkpt lat="45.47516" lon="4.63895">
        <ele>398.94</ele>
        <time>2017-03-26T10:29:51Z</time>
      </trkpt>
      <trkpt lat="45.47504" lon="4.63885">
        <ele>399.81</ele>
        <time>2017-03-26T10:29:52Z</time>
      </trkpt>
      <trkpt lat="45.4749" lon="4.63876">
        <ele>400.87</ele>
        <time>2017-03-26T10:29:53Z</time>
      </trkpt>
      <trkpt lat="45.47476" lon="4.63868">
        <ele>401.88</ele>
        <time>2017-03-26T10:29:54Z</time>
      </trkpt>
      <trkpt lat="45.47462" lon="4.63862">
        <ele>402.88</ele>
        <time>2017-03-26T10:29:55Z</time>
      </trkpt>
      <trkpt lat="45.47445" lon="4.63858">
        <ele>403.8</ele>
        <time>2017-03-26T10:29:56Z</time>
      </trkpt>
      <trkpt lat="45.47429" lon="4.63858">
        <ele>404.62</ele>
        <time>2017-03-26T10:29:57Z</time>
      </trkpt>
      <trkpt lat="45.47411" lon="4.6386">
        <ele>405.67</ele>
        <time>2017-03-26T10:29:58Z</time>
      </trkpt>
      <trkpt lat="45.47393" lon="4.63868">
        <ele>406.84</ele>
        <time>2017-03-26T10:29:59Z</time>
      </trkpt>
      <trkpt lat="45.47376" lon="4.63875">
        <ele>408.27</ele>
        <time>2017-03-26T10:30:00Z</time>
      </trkpt>
      <trkpt lat="45.47359" lon="4.63881">
        <ele>409.52</ele>
        <time>2017-03-26T10:30:01Z</time>
      </trkpt>
      <trkpt lat="45.47344" lon="4.63886">
        <ele>410.89</ele>
        <time>2017-03-26T10:30:02Z</time>
      </trkpt>
      <trkpt lat="45.47329" lon="4.63891">
        <ele>412.36</ele>
        <time>2017-03-26T10:30:03Z</time>
      </trkpt>
      <trkpt lat="45.47315" lon="4.63895">
        <ele>413.7</ele>
        <time>2017-03-26T10:30:04Z</time>
      </trkpt>
      <trkpt lat="45.47303" lon="4.63899">
        <ele>415</ele>
        <time>2017-03-26T10:30:05Z</time>
      </trkpt>
      <trkpt lat="45.47295" lon="4.63901">
        <ele>416.62</ele>
        <time>2017-03-26T10:30:06Z</time>
      </trkpt>
      <trkpt lat="45.47289" lon="4.63904">
        <ele>418.39</ele>
        <time>2017-03-26T10:30:07Z</time>
      </trkpt>
      <trkpt lat="45.47282" lon="4.63908">
        <ele>419.7</ele>
        <time>2017-03-26T10:30:08Z</time>
      </trkpt>
      <trkpt lat="45.47276" lon="4.63912">
        <ele>420.92</ele>
        <time>2017-03-26T10:30:09Z</time>
      </trkpt>
      <trkpt lat="45.47273" lon="4.63914">
        <ele>421.97</ele>
        <time>2017-03-26T10:30:10Z</time>
      </trkpt>
      <trkpt lat="45.4727" lon="4.63916">
        <ele>423.22</ele>
        <time>2017-03-26T10:30:11Z</time>
      </trkpt>
      <trkpt lat="45.47265" lon="4.63918">
        <ele>424.43</ele>
        <time>2017-03-26T10:30:12Z</time>
      </trkpt>
      <trkpt lat="45.47258" lon="4.63921">
        <ele>426.03</ele>
        <time>2017-03-26T10:30:13Z</time>
      </trkpt>
      <trkpt lat="45.4725" lon="4.63925">
        <ele>427.71</ele>
        <time>2017-03-26T10:30:14Z</time>
      </trkpt>
      <trkpt lat="45.4724" lon="4.63928">
        <ele>430.05</ele>
        <time>2017-03-26T10:30:15Z</time>
      </trkpt>
      <trkpt lat="45.4723" lon="4.63931">
        <ele>432.35</ele>
        <time>2017-03-26T10:30:16Z</time>
      </trkpt>
      <trkpt lat="45.47219" lon="4.63935">
        <ele>434.65</ele>
        <time>2017-03-26T10:30:17Z</time>
      </trkpt>
      <trkpt lat="45.47206" lon="4.6394">
        <ele>437.11</ele>
        <time>2017-03-26T10:30:18Z</time>
      </trkpt>
      <trkpt lat="45.47193" lon="4.63945">
        <ele>439.69</ele>
        <time>2017-03-26T10:30:19Z</time>
      </trkpt>
      <trkpt lat="45.4718" lon="4.63949">
        <ele>441.96</ele>
        <time>2017-03-26T10:30:20Z</time>
      </trkpt>
      <trkpt lat="45.47166" lon="4.63953">
        <ele>444.42</ele>
        <time>2017-03-26T10:30:21Z</time>
      </trkpt>
      <trkpt lat="45.47153" lon="4.63957">
        <ele>446.83</ele>
        <time>2017-03-26T10:30:22Z</time>
      </trkpt>
      <trkpt lat="45.47139" lon="4.6396">
        <ele>449.15</ele>
        <time>2017-03-26T10:30:23Z</time>
      </trkpt>
      <trkpt lat="45.47124" lon="4.6396">
        <ele>451.45</ele>
        <time>2017-03-26T10:30:24Z</time>
      </trkpt>
      <trkpt lat="45.4711" lon="4.6396">
        <ele>453.99</ele>
        <time>2017-03-26T10:30:25Z</time>
      </trkpt>
      <trkpt lat="45.47094" lon="4.63959">
        <ele>456.66</ele>
        <time>2017-03-26T10:30:26Z</time>
      </trkpt>
      <trkpt lat="45.4708" lon="4.63958">
        <ele>459.44</ele>
        <time>2017-03-26T10:30:27Z</time>
      </trkpt>
      <trkpt lat="45.47067" lon="4.63958">
        <ele>462.39</ele>
        <time>2017-03-26T10:30:28Z</time>
      </trkpt>
      <trkpt lat="45.47055" lon="4.63957">
        <ele>465.3</ele>
        <time>2017-03-26T10:30:29Z</time>
      </trkpt>
      <trkpt lat="45.47043" lon="4.63954">
        <ele>467.56</ele>
        <time>2017-03-26T10:30:30Z</time>
      </trkpt>
      <trkpt lat="45.47034" lon="4.63949">
        <ele>469.78</ele>
        <time>2017-03-26T10:30:31Z</time>
      </trkpt>
      <trkpt lat="45.47028" lon="4.63945">
        <ele>471.74</ele>
        <time>2017-03-26T10:30:32Z</time>
      </trkpt>
      <trkpt lat="45.47023" lon="4.63941">
        <ele>473.57</ele>
        <time>2017-03-26T10:30:33Z</time>
      </trkpt>
      <trkpt lat="45.47022" lon="4.6394">
        <ele>476.98</ele>
        <time>2017-03-26T10:30:34Z</time>
      </trkpt>
      <trkpt lat="45.47022" lon="4.6394">
        <ele>480.14</ele>
        <time>2017-03-26T10:30:35Z</time>
      </trkpt>
      <trkpt lat="45.47025" lon="4.63942">
        <ele>483.25</ele>
        <time>2017-03-26T10:30:36Z</time>
      </trkpt>
      <trkpt lat="45.47026" lon="4.63942">
        <ele>486.03</ele>
        <time>2017-03-26T10:30:37Z</time>
      </trkpt>
      <trkpt lat="45.47027" lon="4.63943">
        <ele>486.99</ele>
        <time>2017-03-26T10:30:38Z</time>
      </trkpt>
      <trkpt lat="45.47027" lon="4.63943">
        <ele>487.18</ele>
        <time>2017-03-26T10:30:39Z</time>
      </trkpt>
      <trkpt lat="45.47027" lon="4.63943">
        <ele>487.22</ele>
        <time>2017-03-26T10:30:40Z</time>
      </trkpt>
      <trkpt lat="45.47027" lon="4.63943">
        <ele>487.23</ele>
        <time>2017-03-26T10:30:41Z</time>
      </trkpt>
      <trkpt lat="45.47027" lon="4.63943">
        <ele>487.23</ele>
        <time>2017-03-26T10:30:42Z</time>
      </trkpt>
      <trkpt lat="45.47027" lon="4.63943">
        <ele>487.23</ele>
        <time>2017-03-26T10:30:43Z</time>
      </trkpt>
      <trkpt lat="45.47029" lon="4.63945">
        <ele>488.43</ele>
        <time>2017-03-26T10:30:44Z</time>
      </trkpt>
      <trkpt lat="45.47028" lon="4.63946">
        <ele>488.59</ele>
        <time>2017-03-26T10:30:45Z</time>
      </trkpt>
      <trkpt lat="45.47027" lon="4.63948">
        <ele>488.54</ele>
        <time>2017-03-26T10:30:46Z</time>
      </trkpt>
      <trkpt lat="45.47027" lon="4.6395">
        <ele>488.45</ele>
        <time>2017-03-26T10:30:47Z</time>
      </trkpt>
      <trkpt lat="45.47027" lon="4.63952">
        <ele>488.43</ele>
        <time>2017-03-26T10:30:48Z</time>
      </trkpt>
      <trkpt lat="45.47027" lon="4.63953">
        <ele>488.43</ele>
        <time>2017-03-26T10:30:49Z</time>
      </trkpt>
      <trkpt lat="45.47027" lon="4.63953">
        <ele>488.43</ele>
        <time>2017-03-26T10:30:50Z</time>
      </trkpt>
      <trkpt lat="45.47027" lon="4.63953">
        <ele>488.43</ele>
        <time>2017-03-26T10:30:51Z</time>
      </trkpt>
      <trkpt lat="45.47027" lon="4.63953">
        <ele>488.43</ele>
        <time>2017-03-26T10:30:52Z</time>
      </trkpt>
      <trkpt lat="45.47027" lon="4.63953">
        <ele>488.43</ele>
        <time>2017-03-26T10:30:53Z</time>
      </trkpt>
      <trkpt lat="45.47027" lon="4.63953">
        <ele>488.43</ele>
        <time>2017-03-26T10:30:54Z</time>
      </trkpt>
      <trkpt lat="45.47027" lon="4.63953">
        <ele>488.43</ele>
        <time>2017-03-26T10:30:55Z</time>
      </trkpt>
      <trkpt lat="45.47027" lon="4.63953">
        <ele>488.43</ele>
        <time>2017-03-26T10:30:56Z</time>
      </trkpt>
      <trkpt lat="45.47027" lon="4.63953">
        <ele>488.43</ele>
        <time>2017-03-26T10:30:57Z</time>
      </trkpt>
      <trkpt lat="45.47027" lon="4.63953">
        <ele>488.43</ele>
        <time>2017-03-26T10:30:58Z</time>
      </trkpt>
      <trkpt lat="45.47027" lon="4.63953">
        <ele>488.43</ele>
        <time>2017-03-26T10:30:59Z</time>
      </trkpt>
      <trkpt lat="45.47027" lon="4.63953">
        <ele>488.43</ele>
        <time>2017-03-26T10:31:00Z</time>
      </trkpt>
      <trkpt lat="45.47027" lon="4.63953">
        <ele>488.43</ele>
        <time>2017-03-26T10:31:01Z</time>
      </trkpt>
      <trkpt lat="45.47027" lon="4.63953">
        <ele>488.43</ele>
        <time>2017-03-26T10:31:02Z</time>
      </trkpt>
      <trkpt lat="45.47027" lon="4.63953">
        <ele>488.43</ele>
        <time>2017-03-26T10:31:03Z</time>
      </trkpt>
      <trkpt lat="45.47027" lon="4.63953">
        <ele>488.43</ele>
        <time>2017-03-26T10:31:04Z</time>
      </trkpt>
      <trkpt lat="45.47027" lon="4.63953">
        <ele>488.43</ele>
        <time>2017-03-26T10:31:05Z</time>
      </trkpt>
      <trkpt lat="45.47027" lon="4.63953">
        <ele>488.43</ele>
        <time>2017-03-26T10:31:06Z</time>
      </trkpt>
      <trkpt lat="45.47027" lon="4.63953">
        <ele>488.43</ele>
        <time>2017-03-26T10:31:07Z</time>
      </trkpt>
      <trkpt lat="45.47027" lon="4.63953">
        <ele>488.43</ele>
        <time>2017-03-26T10:31:08Z</time>
      </trkpt>
      <trkpt lat="45.47027" lon="4.63953">
        <ele>488.43</ele>
        <time>2017-03-26T10:31:09Z</time>
      </trkpt>
      <trkpt lat="45.47027" lon="4.63953">
        <ele>488.43</ele>
        <time>2017-03-26T10:31:10Z</time>
      </trkpt>
      <trkpt lat="45.47027" lon="4.63953">
        <ele>488.43</ele>
        <time>2017-03-26T10:31:11Z</time>
      </trkpt>
      <trkpt lat="45.47027" lon="4.63953">
        <ele>488.43</ele>
        <time>2017-03-26T10:31:12Z</time>
      </trkpt>
      <trkpt lat="45.47027" lon="4.63953">
        <ele>488.43</ele>
        <time>2017-03-26T10:31:13Z</time>
      </trkpt>
      <trkpt lat="45.47027" lon="4.63953">
        <ele>488.43</ele>
        <time>2017-03-26T10:31:14Z</time>
      </trkpt>
      <trkpt lat="45.47027" lon="4.63953">
        <ele>488.43</ele>
        <time>2017-03-26T10:31:15Z</time>
      </trkpt>
      <trkpt lat="45.47027" lon="4.63953">
        <ele>488.43</ele>
        <time>2017-03-26T10:31:16Z</time>
      </trkpt>
      <trkpt lat="45.47027" lon="4.63953">
        <ele>488.43</ele>
        <time>2017-03-26T10:31:17Z</time>
      </trkpt>
      <trkpt lat="45.47033" lon="4.63953">
        <ele>488.67</ele>
        <time>2017-03-26T10:31:18Z</time>
      </trkpt>
      <trkpt lat="45.47034" lon="4.63952">
        <ele>488.72</ele>
        <time>2017-03-26T10:31:19Z</time>
      </trkpt>
      <trkpt lat="45.47035" lon="4.63951">
        <ele>488.73</ele>
        <time>2017-03-26T10:31:20Z</time>
      </trkpt>
      <trkpt lat="45.47035" lon="4.63949">
        <ele>488.73</ele>
        <time>2017-03-26T10:31:21Z</time>
      </trkpt>
      <trkpt lat="45.47036" lon="4.63948">
        <ele>488.73</ele>
        <time>2017-03-26T10:31:22Z</time>
      </trkpt>
      <trkpt lat="45.47036" lon="4.63946">
        <ele>488.81</ele>
        <time>2017-03-26T10:31:23Z</time>
      </trkpt>
      <trkpt lat="45.47037" lon="4.63944">
        <ele>488.83</ele>
        <time>2017-03-26T10:31:24Z</time>
      </trkpt>
      <trkpt lat="45.47033" lon="4.63939">
        <ele>488.83</ele>
        <time>2017-03-26T10:31:25Z</time>
      </trkpt>
      <trkpt lat="45.4703" lon="4.63931">
        <ele>488.91</ele>
        <time>2017-03-26T10:31:26Z</time>
      </trkpt>
      <trkpt lat="45.47025" lon="4.63923">
        <ele>488.93</ele>
        <time>2017-03-26T10:31:27Z</time>
      </trkpt>
      <trkpt lat="45.47018" lon="4.63914">
        <ele>488.93</ele>
        <time>2017-03-26T10:31:28Z</time>
      </trkpt>
      <trkpt lat="45.47011" lon="4.63905">
        <ele>489.01</ele>
        <time>2017-03-26T10:31:29Z</time>
      </trkpt>
      <trkpt lat="45.47003" lon="4.63898">
        <ele>489.03</ele>
        <time>2017-03-26T10:31:30Z</time>
      </trkpt>
      <trkpt lat="45.46993" lon="4.63893">
        <ele>489.03</ele>
        <time>2017-03-26T10:31:31Z</time>
      </trkpt>
      <trkpt lat="45.46983" lon="4.63889">
        <ele>489.03</ele>
        <time>2017-03-26T10:31:32Z</time>
      </trkpt>
      <trkpt lat="45.46971" lon="4.63885">
        <ele>489.11</ele>
        <time>2017-03-26T10:31:33Z</time>
      </trkpt>
      <trkpt lat="45.4696" lon="4.63881">
        <ele>489.21</ele>
        <time>2017-03-26T10:31:34Z</time>
      </trkpt>
      <trkpt lat="45.46947" lon="4.63876">
        <ele>489.31</ele>
        <time>2017-03-26T10:31:35Z</time>
      </trkpt>
      <trkpt lat="45.46934" lon="4.63869">
        <ele>489.41</ele>
        <time>2017-03-26T10:31:36Z</time>
      </trkpt>
      <trkpt lat="45.46919" lon="4.63863">
        <ele>489.51</ele>
        <time>2017-03-26T10:31:37Z</time>
      </trkpt>
      <trkpt lat="45.46904" lon="4.63855">
        <ele>489.68</ele>
        <time>2017-03-26T10:31:38Z</time>
      </trkpt>
      <trkpt lat="45.46889" lon="4.63849">
        <ele>489.8</ele>
        <time>2017-03-26T10:31:39Z</time>
      </trkpt>
      <trkpt lat="45.46874" lon="4.63843">
        <ele>489.98</ele>
        <time>2017-03-26T10:31:40Z</time>
      </trkpt>
      <trkpt lat="45.46858" lon="4.63837">
        <ele>490.18</ele>
        <time>2017-03-26T10:31:41Z</time>
      </trkpt>
      <trkpt lat="45.46842" lon="4.6383">
        <ele>490.38</ele>
        <time>2017-03-26T10:31:42Z</time>
      </trkpt>
      <trkpt lat="45.46827" lon="4.63823">
        <ele>490.58</ele>
        <time>2017-03-26T10:31:43Z</time>
      </trkpt>
      <trkpt lat="45.46811" lon="4.63817">
        <ele>490.86</ele>
        <time>2017-03-26T10:31:44Z</time>
      </trkpt>
      <trkpt lat="45.46797" lon="4.63811">
        <ele>491.16</ele>
        <time>2017-03-26T10:31:45Z</time>
      </trkpt>
      <trkpt lat="45.46785" lon="4.63804">
        <ele>491.38</ele>
        <time>2017-03-26T10:31:46Z</time>
      </trkpt>
      <trkpt lat="45.46773" lon="4.63797">
        <ele>491.58</ele>
        <time>2017-03-26T10:31:47Z</time>
      </trkpt>
      <trkpt lat="45.46763" lon="4.63789">
        <ele>491.86</ele>
        <time>2017-03-26T10:31:48Z</time>
      </trkpt>
      <trkpt lat="45.46754" lon="4.63781">
        <ele>492.08</ele>
        <time>2017-03-26T10:31:49Z</time>
      </trkpt>
      <trkpt lat="45.46743" lon="4.63772">
        <ele>492.28</ele>
        <time>2017-03-26T10:31:50Z</time>
      </trkpt>
      <trkpt lat="45.46734" lon="4.63762">
        <ele>492.48</ele>
        <time>2017-03-26T10:31:51Z</time>
      </trkpt>
      <trkpt lat="45.46725" lon="4.63752">
        <ele>492.68</ele>
        <time>2017-03-26T10:31:52Z</time>
      </trkpt>
      <trkpt lat="45.46718" lon="4.63741">
        <ele>492.88</ele>
        <time>2017-03-26T10:31:53Z</time>
      </trkpt>
      <trkpt lat="45.46711" lon="4.63729">
        <ele>493.08</ele>
        <time>2017-03-26T10:31:54Z</time>
      </trkpt>
      <trkpt lat="45.46702" lon="4.63714">
        <ele>493.28</ele>
        <time>2017-03-26T10:31:55Z</time>
      </trkpt>
      <trkpt lat="45.46694" lon="4.63699">
        <ele>493.4</ele>
        <time>2017-03-26T10:31:56Z</time>
      </trkpt>
      <trkpt lat="45.46686" lon="4.63683">
        <ele>493.58</ele>
        <time>2017-03-26T10:31:57Z</time>
      </trkpt>
      <trkpt lat="45.46678" lon="4.63668">
        <ele>493.78</ele>
        <time>2017-03-26T10:31:58Z</time>
      </trkpt>
      <trkpt lat="45.4667" lon="4.63652">
        <ele>493.98</ele>
        <time>2017-03-26T10:31:59Z</time>
      </trkpt>
      <trkpt lat="45.46661" lon="4.63638">
        <ele>494.18</ele>
        <time>2017-03-26T10:32:00Z</time>
      </trkpt>
      <trkpt lat="45.46653" lon="4.63623">
        <ele>494.38</ele>
        <time>2017-03-26T10:32:01Z</time>
      </trkpt>
      <trkpt lat="45.46644" lon="4.63609">
        <ele>494.58</ele>
        <time>2017-03-26T10:32:02Z</time>
      </trkpt>
      <trkpt lat="45.46635" lon="4.63596">
        <ele>494.78</ele>
        <time>2017-03-26T10:32:03Z</time>
      </trkpt>
      <trkpt lat="45.46625" lon="4.63585">
        <ele>495.06</ele>
        <time>2017-03-26T10:32:04Z</time>
      </trkpt>
      <trkpt lat="45.46614" lon="4.63574">
        <ele>495.36</ele>
        <time>2017-03-26T10:32:05Z</time>
      </trkpt>
      <trkpt lat="45.46602" lon="4.63564">
        <ele>495.58</ele>
        <time>2017-03-26T10:32:06Z</time>
      </trkpt>
      <trkpt lat="45.46589" lon="4.63553">
        <ele>495.86</ele>
        <time>2017-03-26T10:32:07Z</time>
      </trkpt>
      <trkpt lat="45.46576" lon="4.63543">
        <ele>496.08</ele>
        <time>2017-03-26T10:32:08Z</time>
      </trkpt>
      <trkpt lat="45.46562" lon="4.63533">
        <ele>496.36</ele>
        <time>2017-03-26T10:32:09Z</time>
      </trkpt>
      <trkpt lat="45.46549" lon="4.63524">
        <ele>496.74</ele>
        <time>2017-03-26T10:32:10Z</time>
      </trkpt>
      <trkpt lat="45.46535" lon="4.63513">
        <ele>497.21</ele>
        <time>2017-03-26T10:32:11Z</time>
      </trkpt>
      <trkpt lat="45.46522" lon="4.63503">
        <ele>497.63</ele>
        <time>2017-03-26T10:32:12Z</time>
      </trkpt>
      <trkpt lat="45.46508" lon="4.63493">
        <ele>498.11</ele>
        <time>2017-03-26T10:32:13Z</time>
      </trkpt>
      <trkpt lat="45.46494" lon="4.63484">
        <ele>498.53</ele>
        <time>2017-03-26T10:32:14Z</time>
      </trkpt>
      <trkpt lat="45.46479" lon="4.63474">
        <ele>498.93</ele>
        <time>2017-03-26T10:32:15Z</time>
      </trkpt>
      <trkpt lat="45.46463" lon="4.63464">
        <ele>499.57</ele>
        <time>2017-03-26T10:32:16Z</time>
      </trkpt>
      <trkpt lat="45.46448" lon="4.63455">
        <ele>500.02</ele>
        <time>2017-03-26T10:32:17Z</time>
      </trkpt>
      <trkpt lat="45.46434" lon="4.63446">
        <ele>500.43</ele>
        <time>2017-03-26T10:32:18Z</time>
      </trkpt>
      <trkpt lat="45.46419" lon="4.63437">
        <ele>500.91</ele>
        <time>2017-03-26T10:32:19Z</time>
      </trkpt>
      <trkpt lat="45.46404" lon="4.6343">
        <ele>501.33</ele>
        <time>2017-03-26T10:32:20Z</time>
      </trkpt>
      <trkpt lat="45.46388" lon="4.63425">
        <ele>501.73</ele>
        <time>2017-03-26T10:32:21Z</time>
      </trkpt>
      <trkpt lat="45.46373" lon="4.63422">
        <ele>502.05</ele>
        <time>2017-03-26T10:32:22Z</time>
      </trkpt>
      <trkpt lat="45.46358" lon="4.63418">
        <ele>502.59</ele>
        <time>2017-03-26T10:32:23Z</time>
      </trkpt>
      <trkpt lat="45.46344" lon="4.6341">
        <ele>503.02</ele>
        <time>2017-03-26T10:32:24Z</time>
      </trkpt>
      <trkpt lat="45.46332" lon="4.634">
        <ele>503.43</ele>
        <time>2017-03-26T10:32:25Z</time>
      </trkpt>
      <trkpt lat="45.4632" lon="4.63387">
        <ele>503.83</ele>
        <time>2017-03-26T10:32:26Z</time>
      </trkpt>
      <trkpt lat="45.46308" lon="4.63369">
        <ele>504.39</ele>
        <time>2017-03-26T10:32:27Z</time>
      </trkpt>
      <trkpt lat="45.46294" lon="4.63349">
        <ele>505.06</ele>
        <time>2017-03-26T10:32:28Z</time>
      </trkpt>
      <trkpt lat="45.46281" lon="4.63329">
        <ele>505.68</ele>
        <time>2017-03-26T10:32:29Z</time>
      </trkpt>
      <trkpt lat="45.46269" lon="4.63308">
        <ele>506.28</ele>
        <time>2017-03-26T10:32:30Z</time>
      </trkpt>
      <trkpt lat="45.46256" lon="4.63288">
        <ele>506.88</ele>
        <time>2017-03-26T10:32:31Z</time>
      </trkpt>
      <trkpt lat="45.46245" lon="4.63267">
        <ele>507.64</ele>
        <time>2017-03-26T10:32:32Z</time>
      </trkpt>
      <trkpt lat="45.46235" lon="4.63245">
        <ele>508.19</ele>
        <time>2017-03-26T10:32:33Z</time>
      </trkpt>
      <trkpt lat="45.46225" lon="4.63223">
        <ele>508.86</ele>
        <time>2017-03-26T10:32:34Z</time>
      </trkpt>
      <trkpt lat="45.46216" lon="4.63203">
        <ele>509.48</ele>
        <time>2017-03-26T10:32:35Z</time>
      </trkpt>
      <trkpt lat="45.46206" lon="4.63185">
        <ele>510.16</ele>
        <time>2017-03-26T10:32:36Z</time>
      </trkpt>
      <trkpt lat="45.46196" lon="4.63166">
        <ele>510.86</ele>
        <time>2017-03-26T10:32:37Z</time>
      </trkpt>
      <trkpt lat="45.46186" lon="4.63151">
        <ele>511.48</ele>
        <time>2017-03-26T10:32:38Z</time>
      </trkpt>
      <trkpt lat="45.46174" lon="4.63136">
        <ele>512</ele>
        <time>2017-03-26T10:32:39Z</time>
      </trkpt>
      <trkpt lat="45.46162" lon="4.63121">
        <ele>512.74</ele>
        <time>2017-03-26T10:32:40Z</time>
      </trkpt>
      <trkpt lat="45.46151" lon="4.63109">
        <ele>513.37</ele>
        <time>2017-03-26T10:32:41Z</time>
      </trkpt>
      <trkpt lat="45.4614" lon="4.63098">
        <ele>513.9</ele>
        <time>2017-03-26T10:32:42Z</time>
      </trkpt>
      <trkpt lat="45.46129" lon="4.63089">
        <ele>514.32</ele>
        <time>2017-03-26T10:32:43Z</time>
      </trkpt>
      <trkpt lat="45.46116" lon="4.63082">
        <ele>515.13</ele>
        <time>2017-03-26T10:32:44Z</time>
      </trkpt>
      <trkpt lat="45.46103" lon="4.63077">
        <ele>516.01</ele>
        <time>2017-03-26T10:32:45Z</time>
      </trkpt>
      <trkpt lat="45.46089" lon="4.63071">
        <ele>516.75</ele>
        <time>2017-03-26T10:32:46Z</time>
      </trkpt>
      <trkpt lat="45.46075" lon="4.63065">
        <ele>517.69</ele>
        <time>2017-03-26T10:32:47Z</time>
      </trkpt>
      <trkpt lat="45.4606" lon="4.63061">
        <ele>518.28</ele>
        <time>2017-03-26T10:32:48Z</time>
      </trkpt>
      <trkpt lat="45.46046" lon="4.63057">
        <ele>518.88</ele>
        <time>2017-03-26T10:32:49Z</time>
      </trkpt>
      <trkpt lat="45.4603" lon="4.63053">
        <ele>519.56</ele>
        <time>2017-03-26T10:32:50Z</time>
      </trkpt>
      <trkpt lat="45.46016" lon="4.63051">
        <ele>520.26</ele>
        <time>2017-03-26T10:32:51Z</time>
      </trkpt>
      <trkpt lat="45.46002" lon="4.63052">
        <ele>521.04</ele>
        <time>2017-03-26T10:32:52Z</time>
      </trkpt>
      <trkpt lat="45.45987" lon="4.63053">
        <ele>522.07</ele>
        <time>2017-03-26T10:32:53Z</time>
      </trkpt>
      <trkpt lat="45.45974" lon="4.63053">
        <ele>523.32</ele>
        <time>2017-03-26T10:32:54Z</time>
      </trkpt>
      <trkpt lat="45.45963" lon="4.63054">
        <ele>524.61</ele>
        <time>2017-03-26T10:32:55Z</time>
      </trkpt>
      <trkpt lat="45.45954" lon="4.63055">
        <ele>525.43</ele>
        <time>2017-03-26T10:32:56Z</time>
      </trkpt>
      <trkpt lat="45.45946" lon="4.63056">
        <ele>526.07</ele>
        <time>2017-03-26T10:32:57Z</time>
      </trkpt>
      <trkpt lat="45.45941" lon="4.63057">
        <ele>526.68</ele>
        <time>2017-03-26T10:32:58Z</time>
      </trkpt>
      <trkpt lat="45.45937" lon="4.63057">
        <ele>527.28</ele>
        <time>2017-03-26T10:32:59Z</time>
      </trkpt>
      <trkpt lat="45.45934" lon="4.63058">
        <ele>527.8</ele>
        <time>2017-03-26T10:33:00Z</time>
      </trkpt>
      <trkpt lat="45.45931" lon="4.63059">
        <ele>528.38</ele>
        <time>2017-03-26T10:33:01Z</time>
      </trkpt>
      <trkpt lat="45.45936" lon="4.6306">
        <ele>528.98</ele>
        <time>2017-03-26T10:33:02Z</time>
      </trkpt>
      <trkpt lat="45.4594" lon="4.63062">
        <ele>529.58</ele>
        <time>2017-03-26T10:33:03Z</time>
      </trkpt>
      <trkpt lat="45.45939" lon="4.63062">
        <ele>530.1</ele>
        <time>2017-03-26T10:33:04Z</time>
      </trkpt>
      <trkpt lat="45.45945" lon="4.63066">
        <ele>530.84</ele>
        <time>2017-03-26T10:33:05Z</time>
      </trkpt>
      <trkpt lat="45.45945" lon="4.63066">
        <ele>530.99</ele>
        <time>2017-03-26T10:33:06Z</time>
      </trkpt>
      <trkpt lat="45.45945" lon="4.63066">
        <ele>531.02</ele>
        <time>2017-03-26T10:33:07Z</time>
      </trkpt>
      <trkpt lat="45.45945" lon="4.63066">
        <ele>531.03</ele>
        <time>2017-03-26T10:33:08Z</time>
      </trkpt>
      <trkpt lat="45.45945" lon="4.63066">
        <ele>531.03</ele>
        <time>2017-03-26T10:33:09Z</time>
      </trkpt>
      <trkpt lat="45.45945" lon="4.63066">
        <ele>531.03</ele>
        <time>2017-03-26T10:33:10Z</time>
      </trkpt>
      <trkpt lat="45.45945" lon="4.63066">
        <ele>531.03</ele>
        <time>2017-03-26T10:33:11Z</time>
      </trkpt>
      <trkpt lat="45.45945" lon="4.63066">
        <ele>531.03</ele>
        <time>2017-03-26T10:33:12Z</time>
      </trkpt>
      <trkpt lat="45.45945" lon="4.63066">
        <ele>531.03</ele>
        <time>2017-03-26T10:33:13Z</time>
      </trkpt>
      <trkpt lat="45.45945" lon="4.63066">
        <ele>531.03</ele>
        <time>2017-03-26T10:33:14Z</time>
      </trkpt>
      <trkpt lat="45.45945" lon="4.63066">
        <ele>531.03</ele>
        <time>2017-03-26T10:33:15Z</time>
      </trkpt>
      <trkpt lat="45.45945" lon="4.63066">
        <ele>531.03</ele>
        <time>2017-03-26T10:33:16Z</time>
      </trkpt>
      <trkpt lat="45.45945" lon="4.63066">
        <ele>531.03</ele>
        <time>2017-03-26T10:33:17Z</time>
      </trkpt>
      <trkpt lat="45.45945" lon="4.63066">
        <ele>531.03</ele>
        <time>2017-03-26T10:33:18Z</time>
      </trkpt>
      <trkpt lat="45.45945" lon="4.63066">
        <ele>531.03</ele>
        <time>2017-03-26T10:33:19Z</time>
      </trkpt>
      <trkpt lat="45.45945" lon="4.63066">
        <ele>531.03</ele>
        <time>2017-03-26T10:33:20Z</time>
      </trkpt>
      <trkpt lat="45.45945" lon="4.63069">
        <ele>531.27</ele>
        <time>2017-03-26T10:33:21Z</time>
      </trkpt>
      <trkpt lat="45.4594" lon="4.63066">
        <ele>531.32</ele>
        <time>2017-03-26T10:33:22Z</time>
      </trkpt>
      <trkpt lat="45.45934" lon="4.6306">
        <ele>531.41</ele>
        <time>2017-03-26T10:33:23Z</time>
      </trkpt>
      <trkpt lat="45.45927" lon="4.63052">
        <ele>531.43</ele>
        <time>2017-03-26T10:33:24Z</time>
      </trkpt>
      <trkpt lat="45.45918" lon="4.63041">
        <ele>531.51</ele>
        <time>2017-03-26T10:33:25Z</time>
      </trkpt>
      <trkpt lat="45.45908" lon="4.6303">
        <ele>531.61</ele>
        <time>2017-03-26T10:33:26Z</time>
      </trkpt>
      <trkpt lat="45.45899" lon="4.63018">
        <ele>531.63</ele>
        <time>2017-03-26T10:33:27Z</time>
      </trkpt>
      <trkpt lat="45.45888" lon="4.63003">
        <ele>531.71</ele>
        <time>2017-03-26T10:33:28Z</time>
      </trkpt>
      <trkpt lat="45.45876" lon="4.62989">
        <ele>531.81</ele>
        <time>2017-03-26T10:33:29Z</time>
      </trkpt>
      <trkpt lat="45.45865" lon="4.62974">
        <ele>531.99</ele>
        <time>2017-03-26T10:33:30Z</time>
      </trkpt>
      <trkpt lat="45.45855" lon="4.62959">
        <ele>532.1</ele>
        <time>2017-03-26T10:33:31Z</time>
      </trkpt>
      <trkpt lat="45.45844" lon="4.62941">
        <ele>532.2</ele>
        <time>2017-03-26T10:33:32Z</time>
      </trkpt>
      <trkpt lat="45.45838" lon="4.62924">
        <ele>532.3</ele>
        <time>2017-03-26T10:33:33Z</time>
      </trkpt>
      <trkpt lat="45.45832" lon="4.62907">
        <ele>532.4</ele>
        <time>2017-03-26T10:33:34Z</time>
      </trkpt>
      <trkpt lat="45.45831" lon="4.62889">
        <ele>532.51</ele>
        <time>2017-03-26T10:33:35Z</time>
      </trkpt>
      <trkpt lat="45.45834" lon="4.6287">
        <ele>532.68</ele>
        <time>2017-03-26T10:33:36Z</time>
      </trkpt>
      <trkpt lat="45.45863" lon="4.62848">
        <ele>532.88</ele>
        <time>2017-03-26T10:33:37Z</time>
      </trkpt>
      <trkpt lat="45.45874" lon="4.62829">
        <ele>533</ele>
        <time>2017-03-26T10:33:38Z</time>
      </trkpt>
      <trkpt lat="45.45884" lon="4.62807">
        <ele>533.1</ele>
        <time>2017-03-26T10:33:39Z</time>
      </trkpt>
      <trkpt lat="45.45893" lon="4.62783">
        <ele>533.28</ele>
        <time>2017-03-26T10:33:40Z</time>
      </trkpt>
      <trkpt lat="45.45901" lon="4.62761">
        <ele>533.4</ele>
        <time>2017-03-26T10:33:41Z</time>
      </trkpt>
      <trkpt lat="45.45908" lon="4.62737">
        <ele>533.58</ele>
        <time>2017-03-26T10:33:42Z</time>
      </trkpt>
      <trkpt lat="45.45916" lon="4.62714">
        <ele>533.7</ele>
        <time>2017-03-26T10:33:43Z</time>
      </trkpt>
      <trkpt lat="45.45925" lon="4.62692">
        <ele>533.88</ele>
        <time>2017-03-26T10:33:44Z</time>
      </trkpt>
      <trkpt lat="45.45934" lon="4.62671">
        <ele>534</ele>
        <time>2017-03-26T10:33:45Z</time>
      </trkpt>
      <trkpt lat="45.45943" lon="4.62651">
        <ele>534.1</ele>
        <time>2017-03-26T10:33:46Z</time>
      </trkpt>
      <trkpt lat="45.45956" lon="4.62633">
        <ele>534.28</ele>
        <time>2017-03-26T10:33:47Z</time>
      </trkpt>
      <trkpt lat="45.45968" lon="4.62617">
        <ele>534.4</ele>
        <time>2017-03-26T10:33:48Z</time>
      </trkpt>
      <trkpt lat="45.45978" lon="4.62602">
        <ele>534.58</ele>
        <time>2017-03-26T10:33:49Z</time>
      </trkpt>
      <trkpt lat="45.45989" lon="4.62587">
        <ele>534.78</ele>
        <time>2017-03-26T10:33:50Z</time>
      </trkpt>
      <trkpt lat="45.46" lon="4.62568">
        <ele>534.9</ele>
        <time>2017-03-26T10:33:51Z</time>
      </trkpt>
      <trkpt lat="45.46008" lon="4.62548">
        <ele>535.08</ele>
        <time>2017-03-26T10:33:52Z</time>
      </trkpt>
      <trkpt lat="45.46012" lon="4.62526">
        <ele>535.28</ele>
        <time>2017-03-26T10:33:53Z</time>
      </trkpt>
      <trkpt lat="45.46015" lon="4.62503">
        <ele>535.4</ele>
        <time>2017-03-26T10:33:54Z</time>
      </trkpt>
      <trkpt lat="45.46018" lon="4.62477">
        <ele>535.58</ele>
        <time>2017-03-26T10:33:55Z</time>
      </trkpt>
      <trkpt lat="45.46018" lon="4.62447">
        <ele>535.78</ele>
        <time>2017-03-26T10:33:56Z</time>
      </trkpt>
      <trkpt lat="45.46018" lon="4.62417">
        <ele>535.9</ele>
        <time>2017-03-26T10:33:57Z</time>
      </trkpt>
      <trkpt lat="45.46017" lon="4.62385">
        <ele>536.24</ele>
        <time>2017-03-26T10:33:58Z</time>
      </trkpt>
      <trkpt lat="45.4601" lon="4.62351">
        <ele>536.47</ele>
        <time>2017-03-26T10:33:59Z</time>
      </trkpt>
      <trkpt lat="45.46006" lon="4.62319">
        <ele>536.84</ele>
        <time>2017-03-26T10:34:00Z</time>
      </trkpt>
      <trkpt lat="45.46005" lon="4.62288">
        <ele>537.07</ele>
        <time>2017-03-26T10:34:01Z</time>
      </trkpt>
      <trkpt lat="45.46004" lon="4.62259">
        <ele>537.2</ele>
        <time>2017-03-26T10:34:02Z</time>
      </trkpt>
      <trkpt lat="45.46004" lon="4.62229">
        <ele>537.38</ele>
        <time>2017-03-26T10:34:03Z</time>
      </trkpt>
      <trkpt lat="45.46007" lon="4.62199">
        <ele>537.58</ele>
        <time>2017-03-26T10:34:04Z</time>
      </trkpt>
      <trkpt lat="45.4601" lon="4.62169">
        <ele>537.86</ele>
        <time>2017-03-26T10:34:05Z</time>
      </trkpt>
      <trkpt lat="45.46012" lon="4.62138">
        <ele>538.08</ele>
        <time>2017-03-26T10:34:06Z</time>
      </trkpt>
      <trkpt lat="45.46026" lon="4.62111">
        <ele>538.36</ele>
        <time>2017-03-26T10:34:07Z</time>
      </trkpt>
      <trkpt lat="45.46034" lon="4.62087">
        <ele>538.58</ele>
        <time>2017-03-26T10:34:08Z</time>
      </trkpt>
      <trkpt lat="45.46041" lon="4.62064">
        <ele>538.78</ele>
        <time>2017-03-26T10:34:09Z</time>
      </trkpt>
      <trkpt lat="45.46047" lon="4.62043">
        <ele>539.06</ele>
        <time>2017-03-26T10:34:10Z</time>
      </trkpt>
      <trkpt lat="45.46049" lon="4.62023">
        <ele>539.2</ele>
        <time>2017-03-26T10:34:11Z</time>
      </trkpt>
      <trkpt lat="45.46051" lon="4.62004">
        <ele>539.62</ele>
        <time>2017-03-26T10:34:12Z</time>
      </trkpt>
      <trkpt lat="45.46046" lon="4.61988">
        <ele>539.79</ele>
        <time>2017-03-26T10:34:13Z</time>
      </trkpt>
      <trkpt lat="45.46044" lon="4.61973">
        <ele>539.9</ele>
        <time>2017-03-26T10:34:14Z</time>
      </trkpt>
      <trkpt lat="45.46041" lon="4.61963">
        <ele>540.08</ele>
        <time>2017-03-26T10:34:15Z</time>
      </trkpt>
      <trkpt lat="45.46038" lon="4.61954">
        <ele>540.28</ele>
        <time>2017-03-26T10:34:16Z</time>
      </trkpt>
      <trkpt lat="45.46035" lon="4.61948">
        <ele>540.4</ele>
        <time>2017-03-26T10:34:17Z</time>
      </trkpt>
      <trkpt lat="45.46033" lon="4.61945">
        <ele>540.66</ele>
        <time>2017-03-26T10:34:18Z</time>
      </trkpt>
      <trkpt lat="45.46031" lon="4.61941">
        <ele>540.88</ele>
        <time>2017-03-26T10:34:19Z</time>
      </trkpt>
      <trkpt lat="45.46032" lon="4.6194">
        <ele>541.16</ele>
        <time>2017-03-26T10:34:20Z</time>
      </trkpt>
      <trkpt lat="45.46033" lon="4.61939">
        <ele>541.54</ele>
        <time>2017-03-26T10:34:21Z</time>
      </trkpt>
      <trkpt lat="45.46034" lon="4.6194">
        <ele>542.09</ele>
        <time>2017-03-26T10:34:22Z</time>
      </trkpt>
      <trkpt lat="45.46036" lon="4.6194">
        <ele>542.44</ele>
        <time>2017-03-26T10:34:23Z</time>
      </trkpt>
      <trkpt lat="45.46036" lon="4.6194">
        <ele>542.51</ele>
        <time>2017-03-26T10:34:24Z</time>
      </trkpt>
      <trkpt lat="45.46036" lon="4.6194">
        <ele>542.53</ele>
        <time>2017-03-26T10:34:25Z</time>
      </trkpt>
      <trkpt lat="45.46036" lon="4.6194">
        <ele>542.53</ele>
        <time>2017-03-26T10:34:26Z</time>
      </trkpt>
      <trkpt lat="45.46036" lon="4.6194">
        <ele>542.53</ele>
        <time>2017-03-26T10:34:27Z</time>
      </trkpt>
      <trkpt lat="45.46036" lon="4.6194">
        <ele>542.53</ele>
        <time>2017-03-26T10:34:28Z</time>
      </trkpt>
      <trkpt lat="45.46036" lon="4.6194">
        <ele>542.53</ele>
        <time>2017-03-26T10:34:29Z</time>
      </trkpt>
      <trkpt lat="45.46036" lon="4.6194">
        <ele>542.53</ele>
        <time>2017-03-26T10:34:30Z</time>
      </trkpt>
      <trkpt lat="45.46036" lon="4.6194">
        <ele>542.53</ele>
        <time>2017-03-26T10:34:31Z</time>
      </trkpt>
      <trkpt lat="45.46036" lon="4.6194">
        <ele>542.53</ele>
        <time>2017-03-26T10:34:32Z</time>
      </trkpt>
      <trkpt lat="45.46036" lon="4.6194">
        <ele>542.53</ele>
        <time>2017-03-26T10:34:33Z</time>
      </trkpt>
      <trkpt lat="45.46036" lon="4.6194">
        <ele>542.53</ele>
        <time>2017-03-26T10:34:34Z</time>
      </trkpt>
      <trkpt lat="45.46036" lon="4.6194">
        <ele>542.53</ele>
        <time>2017-03-26T10:34:35Z</time>
      </trkpt>
      <trkpt lat="45.46036" lon="4.6194">
        <ele>542.53</ele>
        <time>2017-03-26T10:34:36Z</time>
      </trkpt>
      <trkpt lat="45.46036" lon="4.6194">
        <ele>542.53</ele>
        <time>2017-03-26T10:34:37Z</time>
      </trkpt>
      <trkpt lat="45.46036" lon="4.6194">
        <ele>542.53</ele>
        <time>2017-03-26T10:34:38Z</time>
      </trkpt>
      <trkpt lat="45.46036" lon="4.6194">
        <ele>542.53</ele>
        <time>2017-03-26T10:34:39Z</time>
      </trkpt>
      <trkpt lat="45.46036" lon="4.6194">
        <ele>542.53</ele>
        <time>2017-03-26T10:34:40Z</time>
      </trkpt>
      <trkpt lat="45.46036" lon="4.6194">
        <ele>542.53</ele>
        <time>2017-03-26T10:34:41Z</time>
      </trkpt>
      <trkpt lat="45.46036" lon="4.6194">
        <ele>542.53</ele>
        <time>2017-03-26T10:34:42Z</time>
      </trkpt>
      <trkpt lat="45.46036" lon="4.6194">
        <ele>542.53</ele>
        <time>2017-03-26T10:34:43Z</time>
      </trkpt>
      <trkpt lat="45.46036" lon="4.6194">
        <ele>542.53</ele>
        <time>2017-03-26T10:34:44Z</time>
      </trkpt>
      <trkpt lat="45.46036" lon="4.6194">
        <ele>542.53</ele>
        <time>2017-03-26T10:34:45Z</time>
      </trkpt>
      <trkpt lat="45.46036" lon="4.6194">
        <ele>542.53</ele>
        <time>2017-03-26T10:34:46Z</time>
      </trkpt>
      <trkpt lat="45.46036" lon="4.6194">
        <ele>542.53</ele>
        <time>2017-03-26T10:34:47Z</time>
      </trkpt>
      <trkpt lat="45.46036" lon="4.6194">
        <ele>542.53</ele>
        <time>2017-03-26T10:34:48Z</time>
      </trkpt>
      <trkpt lat="45.46036" lon="4.6194">
        <ele>542.53</ele>
        <time>2017-03-26T10:34:49Z</time>
      </trkpt>
      <trkpt lat="45.46036" lon="4.6194">
        <ele>542.53</ele>
        <time>2017-03-26T10:34:50Z</time>
      </trkpt>
      <trkpt lat="45.46036" lon="4.6194">
        <ele>542.53</ele>
        <time>2017-03-26T10:34:51Z</time>
      </trkpt>
      <trkpt lat="45.46036" lon="4.6194">
        <ele>542.53</ele>
        <time>2017-03-26T10:34:52Z</time>
      </trkpt>
      <trkpt lat="45.46036" lon="4.6194">
        <ele>542.53</ele>
        <time>2017-03-26T10:34:53Z</time>
      </trkpt>
      <trkpt lat="45.46036" lon="4.6194">
        <ele>542.53</ele>
        <time>2017-03-26T10:34:54Z</time>
      </trkpt>
      <trkpt lat="45.46036" lon="4.6194">
        <ele>542.53</ele>
        <time>2017-03-26T10:34:55Z</time>
      </trkpt>
      <trkpt lat="45.46036" lon="4.6194">
        <ele>542.53</ele>
        <time>2017-03-26T10:34:56Z</time>
      </trkpt>
      <trkpt lat="45.46036" lon="4.6194">
        <ele>542.53</ele>
        <time>2017-03-26T10:34:57Z</time>
      </trkpt>
      <trkpt lat="45.46036" lon="4.6194">
        <ele>542.53</ele>
        <time>2017-03-26T10:34:58Z</time>
      </trkpt>
      <trkpt lat="45.46036" lon="4.6194">
        <ele>542.53</ele>
        <time>2017-03-26T10:34:59Z</time>
      </trkpt>
      <trkpt lat="45.46036" lon="4.6194">
        <ele>542.53</ele>
        <time>2017-03-26T10:35:00Z</time>
      </trkpt>
      <trkpt lat="45.46036" lon="4.6194">
        <ele>542.53</ele>
        <time>2017-03-26T10:35:01Z</time>
      </trkpt>
      <trkpt lat="45.46036" lon="4.6194">
        <ele>542.53</ele>
        <time>2017-03-26T10:35:02Z</time>
      </trkpt>
      <trkpt lat="45.46036" lon="4.6194">
        <ele>542.53</ele>
        <time>2017-03-26T10:35:03Z</time>
      </trkpt>
      <trkpt lat="45.46036" lon="4.6194">
        <ele>542.53</ele>
        <time>2017-03-26T10:35:04Z</time>
      </trkpt>
      <trkpt lat="45.46036" lon="4.6194">
        <ele>542.53</ele>
        <time>2017-03-26T10:35:05Z</time>
      </trkpt>
      <trkpt lat="45.46036" lon="4.6194">
        <ele>542.53</ele>
        <time>2017-03-26T10:35:06Z</time>
      </trkpt>
      <trkpt lat="45.46036" lon="4.6194">
        <ele>542.53</ele>
        <time>2017-03-26T10:35:07Z</time>
      </trkpt>
      <trkpt lat="45.46036" lon="4.6194">
        <ele>542.53</ele>
        <time>2017-03-26T10:35:08Z</time>
      </trkpt>
      <trkpt lat="45.46036" lon="4.6194">
        <ele>542.53</ele>
        <time>2017-03-26T10:35:09Z</time>
      </trkpt>
      <trkpt lat="45.46036" lon="4.6194">
        <ele>542.53</ele>
        <time>2017-03-26T10:35:10Z</time>
      </trkpt>
      <trkpt lat="45.46036" lon="4.6194">
        <ele>542.53</ele>
        <time>2017-03-26T10:35:11Z</time>
      </trkpt>
      <trkpt lat="45.46036" lon="4.6194">
        <ele>542.53</ele>
        <time>2017-03-26T10:35:12Z</time>
      </trkpt>
      <trkpt lat="45.46036" lon="4.6194">
        <ele>542.53</ele>
        <time>2017-03-26T10:35:13Z</time>
      </trkpt>
      <trkpt lat="45.46036" lon="4.6194">
        <ele>542.53</ele>
        <time>2017-03-26T10:35:14Z</time>
      </trkpt>
      <trkpt lat="45.46036" lon="4.6194">
        <ele>542.53</ele>
        <time>2017-03-26T10:35:15Z</time>
      </trkpt>
      <trkpt lat="45.46036" lon="4.6194">
        <ele>542.53</ele>
        <time>2017-03-26T10:35:16Z</time>
      </trkpt>
      <trkpt lat="45.46036" lon="4.6194">
        <ele>542.53</ele>
        <time>2017-03-26T10:35:17Z</time>
      </trkpt>
      <trkpt lat="45.46036" lon="4.6194">
        <ele>542.53</ele>
        <time>2017-03-26T10:35:18Z</time>
      </trkpt>
      <trkpt lat="45.46036" lon="4.6194">
        <ele>542.53</ele>
        <time>2017-03-26T10:35:19Z</time>
      </trkpt>
      <trkpt lat="45.46036" lon="4.6194">
        <ele>542.53</ele>
        <time>2017-03-26T10:35:20Z</time>
      </trkpt>
      <trkpt lat="45.46037" lon="4.6194">
        <ele>542.85</ele>
        <time>2017-03-26T10:35:21Z</time>
      </trkpt>
      <trkpt lat="45.46035" lon="4.61937">
        <ele>542.75</ele>
        <time>2017-03-26T10:35:22Z</time>
      </trkpt>
      <trkpt lat="45.46031" lon="4.61933">
        <ele>542.65</ele>
        <time>2017-03-26T10:35:23Z</time>
      </trkpt>
      <trkpt lat="45.46026" lon="4.61928">
        <ele>542.55</ele>
        <time>2017-03-26T10:35:24Z</time>
      </trkpt>
      <trkpt lat="45.46019" lon="4.61922">
        <ele>542.38</ele>
        <time>2017-03-26T10:35:25Z</time>
      </trkpt>
      <trkpt lat="45.46009" lon="4.61916">
        <ele>542.26</ele>
        <time>2017-03-26T10:35:26Z</time>
      </trkpt>
      <trkpt lat="45.45999" lon="4.6191">
        <ele>542.08</ele>
        <time>2017-03-26T10:35:27Z</time>
      </trkpt>
      <trkpt lat="45.45986" lon="4.61903">
        <ele>541.96</ele>
        <time>2017-03-26T10:35:28Z</time>
      </trkpt>
      <trkpt lat="45.45972" lon="4.61898">
        <ele>541.86</ele>
        <time>2017-03-26T10:35:29Z</time>
      </trkpt>
      <trkpt lat="45.45957" lon="4.61894">
        <ele>541.76</ele>
        <time>2017-03-26T10:35:30Z</time>
      </trkpt>
      <trkpt lat="45.45941" lon="4.61889">
        <ele>541.66</ele>
        <time>2017-03-26T10:35:31Z</time>
      </trkpt>
      <trkpt lat="45.45924" lon="4.61884">
        <ele>541.55</ele>
        <time>2017-03-26T10:35:32Z</time>
      </trkpt>
      <trkpt lat="45.45908" lon="4.61879">
        <ele>541.46</ele>
        <time>2017-03-26T10:35:33Z</time>
      </trkpt>
      <trkpt lat="45.45891" lon="4.61873">
        <ele>541.35</ele>
        <time>2017-03-26T10:35:34Z</time>
      </trkpt>
      <trkpt lat="45.45874" lon="4.61868">
        <ele>541.26</ele>
        <time>2017-03-26T10:35:35Z</time>
      </trkpt>
      <trkpt lat="45.45858" lon="4.61864">
        <ele>541.23</ele>
        <time>2017-03-26T10:35:36Z</time>
      </trkpt>
      <trkpt lat="45.45841" lon="4.61859">
        <ele>541.07</ele>
        <time>2017-03-26T10:35:37Z</time>
      </trkpt>
      <trkpt lat="45.45823" lon="4.61854">
        <ele>540.96</ele>
        <time>2017-03-26T10:35:38Z</time>
      </trkpt>
      <trkpt lat="45.45805" lon="4.6185">
        <ele>540.86</ele>
        <time>2017-03-26T10:35:39Z</time>
      </trkpt>
      <trkpt lat="45.45788" lon="4.61845">
        <ele>540.76</ele>
        <time>2017-03-26T10:35:40Z</time>
      </trkpt>
      <trkpt lat="45.45769" lon="4.61839">
        <ele>540.74</ele>
        <time>2017-03-26T10:35:41Z</time>
      </trkpt>
      <trkpt lat="45.4575" lon="4.61834">
        <ele>540.73</ele>
        <time>2017-03-26T10:35:42Z</time>
      </trkpt>
      <trkpt lat="45.45733" lon="4.61831">
        <ele>540.73</ele>
        <time>2017-03-26T10:35:43Z</time>
      </trkpt>
      <trkpt lat="45.45714" lon="4.61829">
        <ele>540.73</ele>
        <time>2017-03-26T10:35:44Z</time>
      </trkpt>
      <trkpt lat="45.45696" lon="4.61831">
        <ele>540.65</ele>
        <time>2017-03-26T10:35:45Z</time>
      </trkpt>
      <trkpt lat="45.4568" lon="4.61836">
        <ele>540.63</ele>
        <time>2017-03-26T10:35:46Z</time>
      </trkpt>
      <trkpt lat="45.45664" lon="4.61846">
        <ele>540.55</ele>
        <time>2017-03-26T10:35:47Z</time>
      </trkpt>
      <trkpt lat="45.45651" lon="4.61859">
        <ele>540.53</ele>
        <time>2017-03-26T10:35:48Z</time>
      </trkpt>
      <trkpt lat="45.45637" lon="4.61878">
        <ele>540.45</ele>
        <time>2017-03-26T10:35:49Z</time>
      </trkpt>
      <trkpt lat="45.45624" lon="4.61897">
        <ele>540.43</ele>
        <time>2017-03-26T10:35:50Z</time>
      </trkpt>
      <trkpt lat="45.4561" lon="4.61915">
        <ele>540.35</ele>
        <time>2017-03-26T10:35:51Z</time>
      </trkpt>
      <trkpt lat="45.45596" lon="4.61931">
        <ele>540.17</ele>
        <time>2017-03-26T10:35:52Z</time>
      </trkpt>
      <trkpt lat="45.45583" lon="4.61943">
        <ele>539.98</ele>
        <time>2017-03-26T10:35:53Z</time>
      </trkpt>
      <trkpt lat="45.4557" lon="4.61948">
        <ele>539.86</ele>
        <time>2017-03-26T10:35:54Z</time>
      </trkpt>
      <trkpt lat="45.45555" lon="4.61942">
        <ele>539.84</ele>
        <time>2017-03-26T10:35:55Z</time>
      </trkpt>
      <trkpt lat="45.45541" lon="4.61935">
        <ele>539.83</ele>
        <time>2017-03-26T10:35:56Z</time>
      </trkpt>
      <trkpt lat="45.45522" lon="4.61922">
        <ele>539.91</ele>
        <time>2017-03-26T10:35:57Z</time>
      </trkpt>
      <trkpt lat="45.45505" lon="4.61907">
        <ele>539.85</ele>
        <time>2017-03-26T10:35:58Z</time>
      </trkpt>
      <trkpt lat="45.45489" lon="4.61888">
        <ele>539.83</ele>
        <time>2017-03-26T10:35:59Z</time>
      </trkpt>
      <trkpt lat="45.45474" lon="4.6187">
        <ele>539.83</ele>
        <time>2017-03-26T10:36:00Z</time>
      </trkpt>
      <trkpt lat="45.45465" lon="4.61848">
        <ele>539.83</ele>
        <time>2017-03-26T10:36:01Z</time>
      </trkpt>
      <trkpt lat="45.45455" lon="4.61825">
        <ele>539.75</ele>
        <time>2017-03-26T10:36:02Z</time>
      </trkpt>
      <trkpt lat="45.45447" lon="4.61803">
        <ele>539.73</ele>
        <time>2017-03-26T10:36:03Z</time>
      </trkpt>
      <trkpt lat="45.45435" lon="4.61783">
        <ele>539.73</ele>
        <time>2017-03-26T10:36:04Z</time>
      </trkpt>
      <trkpt lat="45.45422" lon="4.61767">
        <ele>539.73</ele>
        <time>2017-03-26T10:36:05Z</time>
      </trkpt>
      <trkpt lat="45.45407" lon="4.61754">
        <ele>539.73</ele>
        <time>2017-03-26T10:36:06Z</time>
      </trkpt>
      <trkpt lat="45.45391" lon="4.61741">
        <ele>539.81</ele>
        <time>2017-03-26T10:36:07Z</time>
      </trkpt>
      <trkpt lat="45.45375" lon="4.61728">
        <ele>539.83</ele>
        <time>2017-03-26T10:36:08Z</time>
      </trkpt>
      <trkpt lat="45.4536" lon="4.61714">
        <ele>539.83</ele>
        <time>2017-03-26T10:36:09Z</time>
      </trkpt>
      <trkpt lat="45.45349" lon="4.61697">
        <ele>539.83</ele>
        <time>2017-03-26T10:36:10Z</time>
      </trkpt>
      <trkpt lat="45.45338" lon="4.61678">
        <ele>539.75</ele>
        <time>2017-03-26T10:36:11Z</time>
      </trkpt>
      <trkpt lat="45.45331" lon="4.61654">
        <ele>539.73</ele>
        <time>2017-03-26T10:36:12Z</time>
      </trkpt>
      <trkpt lat="45.45323" lon="4.61633">
        <ele>539.73</ele>
        <time>2017-03-26T10:36:13Z</time>
      </trkpt>
      <trkpt lat="45.45313" lon="4.61613">
        <ele>539.73</ele>
        <time>2017-03-26T10:36:14Z</time>
      </trkpt>
      <trkpt lat="45.45303" lon="4.61596">
        <ele>539.65</ele>
        <time>2017-03-26T10:36:15Z</time>
      </trkpt>
      <trkpt lat="45.45289" lon="4.61582">
        <ele>539.63</ele>
        <time>2017-03-26T10:36:16Z</time>
      </trkpt>
      <trkpt lat="45.45275" lon="4.61571">
        <ele>539.63</ele>
        <time>2017-03-26T10:36:17Z</time>
      </trkpt>
      <trkpt lat="45.45259" lon="4.61564">
        <ele>539.63</ele>
        <time>2017-03-26T10:36:18Z</time>
      </trkpt>
      <trkpt lat="45.45243" lon="4.61559">
        <ele>539.63</ele>
        <time>2017-03-26T10:36:19Z</time>
      </trkpt>
      <trkpt lat="45.45227" lon="4.61558">
        <ele>539.47</ele>
        <time>2017-03-26T10:36:20Z</time>
      </trkpt>
      <trkpt lat="45.45209" lon="4.61565">
        <ele>539.36</ele>
        <time>2017-03-26T10:36:21Z</time>
      </trkpt>
      <trkpt lat="45.45191" lon="4.61576">
        <ele>539.26</ele>
        <time>2017-03-26T10:36:22Z</time>
      </trkpt>
      <trkpt lat="45.45173" lon="4.6159">
        <ele>539.24</ele>
        <time>2017-03-26T10:36:23Z</time>
      </trkpt>
      <trkpt lat="45.45155" lon="4.61603">
        <ele>539.15</ele>
        <time>2017-03-26T10:36:24Z</time>
      </trkpt>
      <trkpt lat="45.45139" lon="4.61617">
        <ele>538.97</ele>
        <time>2017-03-26T10:36:25Z</time>
      </trkpt>
      <trkpt lat="45.45124" lon="4.6163">
        <ele>538.78</ele>
        <time>2017-03-26T10:36:26Z</time>
      </trkpt>
      <trkpt lat="45.4511" lon="4.61641">
        <ele>538.66</ele>
        <time>2017-03-26T10:36:27Z</time>
      </trkpt>
      <trkpt lat="45.45097" lon="4.61648">
        <ele>538.48</ele>
        <time>2017-03-26T10:36:28Z</time>
      </trkpt>
      <trkpt lat="45.45086" lon="4.61648">
        <ele>538.44</ele>
        <time>2017-03-26T10:36:29Z</time>
      </trkpt>
      <trkpt lat="45.45074" lon="4.61643">
        <ele>538.43</ele>
        <time>2017-03-26T10:36:30Z</time>
      </trkpt>
      <trkpt lat="45.45065" lon="4.61631">
        <ele>538.43</ele>
        <time>2017-03-26T10:36:31Z</time>
      </trkpt>
      <trkpt lat="45.45057" lon="4.61615">
        <ele>538.43</ele>
        <time>2017-03-26T10:36:32Z</time>
      </trkpt>
      <trkpt lat="45.45054" lon="4.61594">
        <ele>538.43</ele>
        <time>2017-03-26T10:36:33Z</time>
      </trkpt>
      <trkpt lat="45.45056" lon="4.6157">
        <ele>538.59</ele>
        <time>2017-03-26T10:36:34Z</time>
      </trkpt>
      <trkpt lat="45.45059" lon="4.61544">
        <ele>538.78</ele>
        <time>2017-03-26T10:36:35Z</time>
      </trkpt>
      <trkpt lat="45.45063" lon="4.61516">
        <ele>538.9</ele>
        <time>2017-03-26T10:36:36Z</time>
      </trkpt>
      <trkpt lat="45.45068" lon="4.61487">
        <ele>539.08</ele>
        <time>2017-03-26T10:36:37Z</time>
      </trkpt>
      <trkpt lat="45.45074" lon="4.61459">
        <ele>539.28</ele>
        <time>2017-03-26T10:36:38Z</time>
      </trkpt>
      <trkpt lat="45.45081" lon="4.6143">
        <ele>539.4</ele>
        <time>2017-03-26T10:36:39Z</time>
      </trkpt>
      <trkpt lat="45.45088" lon="4.61403">
        <ele>539.42</ele>
        <time>2017-03-26T10:36:40Z</time>
      </trkpt>
      <trkpt lat="45.45095" lon="4.61375">
        <ele>539.43</ele>
        <time>2017-03-26T10:36:41Z</time>
      </trkpt>
      <trkpt lat="45.45102" lon="4.61347">
        <ele>539.43</ele>
        <time>2017-03-26T10:36:42Z</time>
      </trkpt>
      <trkpt lat="45.45108" lon="4.6132">
        <ele>539.43</ele>
        <time>2017-03-26T10:36:43Z</time>
      </trkpt>
      <trkpt lat="45.45113" lon="4.61293">
        <ele>539.35</ele>
        <time>2017-03-26T10:36:44Z</time>
      </trkpt>
      <trkpt lat="45.45118" lon="4.61264">
        <ele>539.09</ele>
        <time>2017-03-26T10:36:45Z</time>
      </trkpt>
      <trkpt lat="45.45121" lon="4.61237">
        <ele>538.88</ele>
        <time>2017-03-26T10:36:46Z</time>
      </trkpt>
      <trkpt lat="45.45124" lon="4.6121">
        <ele>538.68</ele>
        <time>2017-03-26T10:36:47Z</time>
      </trkpt>
      <trkpt lat="45.45128" lon="4.61185">
        <ele>538.56</ele>
        <time>2017-03-26T10:36:48Z</time>
      </trkpt>
      <trkpt lat="45.45137" lon="4.61164">
        <ele>538.46</ele>
        <time>2017-03-26T10:36:49Z</time>
      </trkpt>
      <trkpt lat="45.45146" lon="4.61143">
        <ele>538.36</ele>
        <time>2017-03-26T10:36:50Z</time>
      </trkpt>
      <trkpt lat="45.45154" lon="4.61124">
        <ele>538.26</ele>
        <time>2017-03-26T10:36:51Z</time>
      </trkpt>
      <trkpt lat="45.45162" lon="4.61105">
        <ele>538.08</ele>
        <time>2017-03-26T10:36:52Z</time>
      </trkpt>
      <trkpt lat="45.45165" lon="4.61085">
        <ele>537.88</ele>
        <time>2017-03-26T10:36:53Z</time>
      </trkpt>
      <trkpt lat="45.45167" lon="4.61064">
        <ele>537.76</ele>
        <time>2017-03-26T10:36:54Z</time>
      </trkpt>
      <trkpt lat="45.45167" lon="4.61041">
        <ele>537.58</ele>
        <time>2017-03-26T10:36:55Z</time>
      </trkpt>
      <trkpt lat="45.45163" lon="4.61017">
        <ele>537.46</ele>
        <time>2017-03-26T10:36:56Z</time>
      </trkpt>
      <trkpt lat="45.45158" lon="4.60993">
        <ele>537.36</ele>
        <time>2017-03-26T10:36:57Z</time>
      </trkpt>
      <trkpt lat="45.45151" lon="4.6097">
        <ele>537.26</ele>
        <time>2017-03-26T10:36:58Z</time>
      </trkpt>
      <trkpt lat="45.45144" lon="4.6095">
        <ele>537.16</ele>
        <time>2017-03-26T10:36:59Z</time>
      </trkpt>
      <trkpt lat="45.45138" lon="4.60934">
        <ele>536.98</ele>
        <time>2017-03-26T10:37:00Z</time>
      </trkpt>
      <trkpt lat="45.45134" lon="4.60922">
        <ele>536.7</ele>
        <time>2017-03-26T10:37:01Z</time>
      </trkpt>
      <trkpt lat="45.4513" lon="4.60914">
        <ele>536.48</ele>
        <time>2017-03-26T10:37:02Z</time>
      </trkpt>
      <trkpt lat="45.45127" lon="4.60907">
        <ele>536.2</ele>
        <time>2017-03-26T10:37:03Z</time>
      </trkpt>
      <trkpt lat="45.45123" lon="4.60901">
        <ele>535.82</ele>
        <time>2017-03-26T10:37:04Z</time>
      </trkpt>
      <trkpt lat="45.4512" lon="4.60894">
        <ele>535.51</ele>
        <time>2017-03-26T10:37:05Z</time>
      </trkpt>
      <trkpt lat="45.45116" lon="4.60886">
        <ele>535.37</ele>
        <time>2017-03-26T10:37:06Z</time>
      </trkpt>
      <trkpt lat="45.45112" lon="4.60876">
        <ele>535.1</ele>
        <time>2017-03-26T10:37:07Z</time>
      </trkpt>
      <trkpt lat="45.45107" lon="4.60866">
        <ele>534.88</ele>
        <time>2017-03-26T10:37:08Z</time>
      </trkpt>
      <trkpt lat="45.45101" lon="4.60853">
        <ele>534.76</ele>
        <time>2017-03-26T10:37:09Z</time>
      </trkpt>
      <trkpt lat="45.45092" lon="4.60836">
        <ele>534.58</ele>
        <time>2017-03-26T10:37:10Z</time>
      </trkpt>
      <trkpt lat="45.45085" lon="4.60819">
        <ele>534.22</ele>
        <time>2017-03-26T10:37:11Z</time>
      </trkpt>
      <trkpt lat="45.45076" lon="4.608">
        <ele>533.75</ele>
        <time>2017-03-26T10:37:12Z</time>
      </trkpt>
      <trkpt lat="45.45069" lon="4.60781">
        <ele>533.41</ele>
        <time>2017-03-26T10:37:13Z</time>
      </trkpt>
      <trkpt lat="45.45063" lon="4.60761">
        <ele>533.11</ele>
        <time>2017-03-26T10:37:14Z</time>
      </trkpt>
      <trkpt lat="45.45058" lon="4.60741">
        <ele>532.89</ele>
        <time>2017-03-26T10:37:15Z</time>
      </trkpt>
      <trkpt lat="45.45055" lon="4.60719">
        <ele>532.68</ele>
        <time>2017-03-26T10:37:16Z</time>
      </trkpt>
      <trkpt lat="45.45055" lon="4.60699">
        <ele>532.48</ele>
        <time>2017-03-26T10:37:17Z</time>
      </trkpt>
      <trkpt lat="45.45058" lon="4.60678">
        <ele>532.28</ele>
        <time>2017-03-26T10:37:18Z</time>
      </trkpt>
      <trkpt lat="45.45064" lon="4.60657">
        <ele>532.16</ele>
        <time>2017-03-26T10:37:19Z</time>
      </trkpt>
      <trkpt lat="45.45072" lon="4.60637">
        <ele>531.82</ele>
        <time>2017-03-26T10:37:20Z</time>
      </trkpt>
      <trkpt lat="45.45082" lon="4.60618">
        <ele>531.51</ele>
        <time>2017-03-26T10:37:21Z</time>
      </trkpt>
      <trkpt lat="45.45092" lon="4.60599">
        <ele>531.29</ele>
        <time>2017-03-26T10:37:22Z</time>
      </trkpt>
      <trkpt lat="45.451" lon="4.6058">
        <ele>531.08</ele>
        <time>2017-03-26T10:37:23Z</time>
      </trkpt>
      <trkpt lat="45.45107" lon="4.60559">
        <ele>530.88</ele>
        <time>2017-03-26T10:37:24Z</time>
      </trkpt>
      <trkpt lat="45.45112" lon="4.60537">
        <ele>530.52</ele>
        <time>2017-03-26T10:37:25Z</time>
      </trkpt>
      <trkpt lat="45.45115" lon="4.60515">
        <ele>530.29</ele>
        <time>2017-03-26T10:37:26Z</time>
      </trkpt>
      <trkpt lat="45.45116" lon="4.60492">
        <ele>530</ele>
        <time>2017-03-26T10:37:27Z</time>
      </trkpt>
      <trkpt lat="45.45115" lon="4.60468">
        <ele>529.7</ele>
        <time>2017-03-26T10:37:28Z</time>
      </trkpt>
      <trkpt lat="45.45111" lon="4.60444">
        <ele>529.4</ele>
        <time>2017-03-26T10:37:29Z</time>
      </trkpt>
      <trkpt lat="45.45106" lon="4.6042">
        <ele>529.1</ele>
        <time>2017-03-26T10:37:30Z</time>
      </trkpt>
      <trkpt lat="45.45099" lon="4.60398">
        <ele>528.65</ele>
        <time>2017-03-26T10:37:31Z</time>
      </trkpt>
      <trkpt lat="45.45088" lon="4.60377">
        <ele>528.15</ele>
        <time>2017-03-26T10:37:32Z</time>
      </trkpt>
      <trkpt lat="45.45076" lon="4.60356">
        <ele>527.41</ele>
        <time>2017-03-26T10:37:33Z</time>
      </trkpt>
      <trkpt lat="45.45063" lon="4.60335">
        <ele>526.55</ele>
        <time>2017-03-26T10:37:34Z</time>
      </trkpt>
      <trkpt lat="45.45048" lon="4.60314">
        <ele>525.65</ele>
        <time>2017-03-26T10:37:35Z</time>
      </trkpt>
      <trkpt lat="45.45031" lon="4.60295">
        <ele>524.75</ele>
        <time>2017-03-26T10:37:36Z</time>
      </trkpt>
      <trkpt lat="45.45016" lon="4.60275">
        <ele>524.01</ele>
        <time>2017-03-26T10:37:37Z</time>
      </trkpt>
      <trkpt lat="45.45003" lon="4.60254">
        <ele>523.39</ele>
        <time>2017-03-26T10:37:38Z</time>
      </trkpt>
      <trkpt lat="45.4499" lon="4.60233">
        <ele>522.78</ele>
        <time>2017-03-26T10:37:39Z</time>
      </trkpt>
      <trkpt lat="45.44981" lon="4.6021">
        <ele>522.26</ele>
        <time>2017-03-26T10:37:40Z</time>
      </trkpt>
      <trkpt lat="45.44972" lon="4.60187">
        <ele>521.84</ele>
        <time>2017-03-26T10:37:41Z</time>
      </trkpt>
      <trkpt lat="45.44972" lon="4.60161">
        <ele>521.43</ele>
        <time>2017-03-26T10:37:42Z</time>
      </trkpt>
      <trkpt lat="45.44975" lon="4.60138">
        <ele>521.03</ele>
        <time>2017-03-26T10:37:43Z</time>
      </trkpt>
      <trkpt lat="45.44986" lon="4.60117">
        <ele>520.47</ele>
        <time>2017-03-26T10:37:44Z</time>
      </trkpt>
      <trkpt lat="45.44997" lon="4.60097">
        <ele>519.88</ele>
        <time>2017-03-26T10:37:45Z</time>
      </trkpt>
      <trkpt lat="45.45009" lon="4.60076">
        <ele>519.12</ele>
        <time>2017-03-26T10:37:46Z</time>
      </trkpt>
      <trkpt lat="45.45023" lon="4.60055">
        <ele>518.33</ele>
        <time>2017-03-26T10:37:47Z</time>
      </trkpt>
      <trkpt lat="45.45035" lon="4.60035">
        <ele>517.69</ele>
        <time>2017-03-26T10:37:48Z</time>
      </trkpt>
      <trkpt lat="45.45048" lon="4.60017">
        <ele>517.08</ele>
        <time>2017-03-26T10:37:49Z</time>
      </trkpt>
      <trkpt lat="45.45058" lon="4.60001">
        <ele>516.4</ele>
        <time>2017-03-26T10:37:50Z</time>
      </trkpt>
      <trkpt lat="45.45081" lon="4.59993">
        <ele>515.94</ele>
        <time>2017-03-26T10:37:51Z</time>
      </trkpt>
      <trkpt lat="45.45101" lon="4.59988">
        <ele>515.37</ele>
        <time>2017-03-26T10:37:52Z</time>
      </trkpt>
      <trkpt lat="45.45119" lon="4.59983">
        <ele>514.78</ele>
        <time>2017-03-26T10:37:53Z</time>
      </trkpt>
      <trkpt lat="45.4515" lon="4.59979">
        <ele>515.06</ele>
        <time>2017-03-26T10:37:54Z</time>
      </trkpt>
      <trkpt lat="45.45172" lon="4.59972">
        <ele>514.96</ele>
        <time>2017-03-26T10:37:55Z</time>
      </trkpt>
      <trkpt lat="45.4519" lon="4.5996">
        <ele>514.54</ele>
        <time>2017-03-26T10:37:56Z</time>
      </trkpt>
      <trkpt lat="45.45206" lon="4.59946">
        <ele>513.89</ele>
        <time>2017-03-26T10:37:57Z</time>
      </trkpt>
      <trkpt lat="45.45221" lon="4.59929">
        <ele>513.28</ele>
        <time>2017-03-26T10:37:58Z</time>
      </trkpt>
      <trkpt lat="45.45235" lon="4.5991">
        <ele>512.52</ele>
        <time>2017-03-26T10:37:59Z</time>
      </trkpt>
      <trkpt lat="45.45247" lon="4.5989">
        <ele>511.73</ele>
        <time>2017-03-26T10:38:00Z</time>
      </trkpt>
      <trkpt lat="45.45257" lon="4.59867">
        <ele>510.85</ele>
        <time>2017-03-26T10:38:01Z</time>
      </trkpt>
      <trkpt lat="45.45265" lon="4.59842">
        <ele>510.03</ele>
        <time>2017-03-26T10:38:02Z</time>
      </trkpt>
      <trkpt lat="45.45272" lon="4.59818">
        <ele>509.15</ele>
        <time>2017-03-26T10:38:03Z</time>
      </trkpt>
      <trkpt lat="45.45278" lon="4.59794">
        <ele>508.25</ele>
        <time>2017-03-26T10:38:04Z</time>
      </trkpt>
      <trkpt lat="45.45286" lon="4.59772">
        <ele>507.43</ele>
        <time>2017-03-26T10:38:05Z</time>
      </trkpt>
      <trkpt lat="45.45294" lon="4.59753">
        <ele>506.55</ele>
        <time>2017-03-26T10:38:06Z</time>
      </trkpt>
      <trkpt lat="45.45309" lon="4.5974">
        <ele>505.73</ele>
        <time>2017-03-26T10:38:07Z</time>
      </trkpt>
      <trkpt lat="45.45323" lon="4.59725">
        <ele>504.85</ele>
        <time>2017-03-26T10:38:08Z</time>
      </trkpt>
      <trkpt lat="45.45338" lon="4.5971">
        <ele>504.03</ele>
        <time>2017-03-26T10:38:09Z</time>
      </trkpt>
      <trkpt lat="45.45352" lon="4.59692">
        <ele>503.15</ele>
        <time>2017-03-26T10:38:10Z</time>
      </trkpt>
      <trkpt lat="45.45364" lon="4.59673">
        <ele>502.25</ele>
        <time>2017-03-26T10:38:11Z</time>
      </trkpt>
      <trkpt lat="45.45375" lon="4.59651">
        <ele>501.43</ele>
        <time>2017-03-26T10:38:12Z</time>
      </trkpt>
      <trkpt lat="45.45379" lon="4.59624">
        <ele>500.47</ele>
        <time>2017-03-26T10:38:13Z</time>
      </trkpt>
      <trkpt lat="45.45383" lon="4.59599">
        <ele>499.64</ele>
        <time>2017-03-26T10:38:14Z</time>
      </trkpt>
      <trkpt lat="45.45384" lon="4.59576">
        <ele>498.83</ele>
        <time>2017-03-26T10:38:15Z</time>
      </trkpt>
      <trkpt lat="45.4539" lon="4.59556">
        <ele>498.03</ele>
        <time>2017-03-26T10:38:16Z</time>
      </trkpt>
      <trkpt lat="45.45397" lon="4.59536">
        <ele>497.39</ele>
        <time>2017-03-26T10:38:17Z</time>
      </trkpt>
      <trkpt lat="45.4541" lon="4.59525">
        <ele>496.7</ele>
        <time>2017-03-26T10:38:18Z</time>
      </trkpt>
      <trkpt lat="45.45425" lon="4.59516">
        <ele>496</ele>
        <time>2017-03-26T10:38:19Z</time>
      </trkpt>
      <trkpt lat="45.4544" lon="4.5951">
        <ele>495.22</ele>
        <time>2017-03-26T10:38:20Z</time>
      </trkpt>
      <trkpt lat="45.45455" lon="4.59503">
        <ele>494.43</ele>
        <time>2017-03-26T10:38:21Z</time>
      </trkpt>
      <trkpt lat="45.45469" lon="4.59493">
        <ele>493.63</ele>
        <time>2017-03-26T10:38:22Z</time>
      </trkpt>
      <trkpt lat="45.45483" lon="4.59479">
        <ele>492.75</ele>
        <time>2017-03-26T10:38:23Z</time>
      </trkpt>
      <trkpt lat="45.45496" lon="4.59459">
        <ele>491.69</ele>
        <time>2017-03-26T10:38:24Z</time>
      </trkpt>
      <trkpt lat="45.4551" lon="4.59436">
        <ele>490.28</ele>
        <time>2017-03-26T10:38:25Z</time>
      </trkpt>
      <trkpt lat="45.45525" lon="4.59413">
        <ele>489.12</ele>
        <time>2017-03-26T10:38:26Z</time>
      </trkpt>
      <trkpt lat="45.4554" lon="4.5939">
        <ele>487.77</ele>
        <time>2017-03-26T10:38:27Z</time>
      </trkpt>
      <trkpt lat="45.45556" lon="4.59366">
        <ele>486.46</ele>
        <time>2017-03-26T10:38:28Z</time>
      </trkpt>
      <trkpt lat="45.45571" lon="4.59343">
        <ele>485.16</ele>
        <time>2017-03-26T10:38:29Z</time>
      </trkpt>
      <trkpt lat="45.45585" lon="4.5932">
        <ele>483.86</ele>
        <time>2017-03-26T10:38:30Z</time>
      </trkpt>
      <trkpt lat="45.45598" lon="4.59298">
        <ele>483.04</ele>
        <time>2017-03-26T10:38:31Z</time>
      </trkpt>
      <trkpt lat="45.45611" lon="4.59276">
        <ele>482.15</ele>
        <time>2017-03-26T10:38:32Z</time>
      </trkpt>
      <trkpt lat="45.45621" lon="4.59253">
        <ele>480.85</ele>
        <time>2017-03-26T10:38:33Z</time>
      </trkpt>
      <trkpt lat="45.45629" lon="4.59228">
        <ele>479.63</ele>
        <time>2017-03-26T10:38:34Z</time>
      </trkpt>
      <trkpt lat="45.45637" lon="4.59202">
        <ele>478.11</ele>
        <time>2017-03-26T10:38:35Z</time>
      </trkpt>
      <trkpt lat="45.45644" lon="4.59175">
        <ele>476.45</ele>
        <time>2017-03-26T10:38:36Z</time>
      </trkpt>
      <trkpt lat="45.45651" lon="4.59147">
        <ele>475.07</ele>
        <time>2017-03-26T10:38:37Z</time>
      </trkpt>
      <trkpt lat="45.45657" lon="4.59119">
        <ele>474.08</ele>
        <time>2017-03-26T10:38:38Z</time>
      </trkpt>
      <trkpt lat="45.45661" lon="4.59091">
        <ele>472.92</ele>
        <time>2017-03-26T10:38:39Z</time>
      </trkpt>
      <trkpt lat="45.45663" lon="4.59063">
        <ele>471.89</ele>
        <time>2017-03-26T10:38:40Z</time>
      </trkpt>
      <trkpt lat="45.45659" lon="4.59035">
        <ele>470.56</ele>
        <time>2017-03-26T10:38:41Z</time>
      </trkpt>
      <trkpt lat="45.45653" lon="4.59008">
        <ele>469.18</ele>
        <time>2017-03-26T10:38:42Z</time>
      </trkpt>
      <trkpt lat="45.45647" lon="4.58982">
        <ele>467.7</ele>
        <time>2017-03-26T10:38:43Z</time>
      </trkpt>
      <trkpt lat="45.45642" lon="4.58957">
        <ele>466.6</ele>
        <time>2017-03-26T10:38:44Z</time>
      </trkpt>
      <trkpt lat="45.45639" lon="4.58933">
        <ele>465.34</ele>
        <time>2017-03-26T10:38:45Z</time>
      </trkpt>
      <trkpt lat="45.45646" lon="4.58908">
        <ele>463.97</ele>
        <time>2017-03-26T10:38:46Z</time>
      </trkpt>
      <trkpt lat="45.45653" lon="4.58884">
        <ele>462.58</ele>
        <time>2017-03-26T10:38:47Z</time>
      </trkpt>
      <trkpt lat="45.45664" lon="4.58862">
        <ele>460.94</ele>
        <time>2017-03-26T10:38:48Z</time>
      </trkpt>
      <trkpt lat="45.45679" lon="4.5884">
        <ele>459.65</ele>
        <time>2017-03-26T10:38:49Z</time>
      </trkpt>
      <trkpt lat="45.45693" lon="4.58816">
        <ele>458.27</ele>
        <time>2017-03-26T10:38:50Z</time>
      </trkpt>
      <trkpt lat="45.45705" lon="4.58791">
        <ele>457.04</ele>
        <time>2017-03-26T10:38:51Z</time>
      </trkpt>
      <trkpt lat="45.45716" lon="4.58766">
        <ele>455.83</ele>
        <time>2017-03-26T10:38:52Z</time>
      </trkpt>
      <trkpt lat="45.45723" lon="4.58741">
        <ele>454.47</ele>
        <time>2017-03-26T10:38:53Z</time>
      </trkpt>
      <trkpt lat="45.45727" lon="4.58717">
        <ele>453.4</ele>
        <time>2017-03-26T10:38:54Z</time>
      </trkpt>
      <trkpt lat="45.45728" lon="4.58692">
        <ele>452.62</ele>
        <time>2017-03-26T10:38:55Z</time>
      </trkpt>
      <trkpt lat="45.45726" lon="4.58667">
        <ele>451.75</ele>
        <time>2017-03-26T10:38:56Z</time>
      </trkpt>
      <trkpt lat="45.45722" lon="4.58641">
        <ele>450.69</ele>
        <time>2017-03-26T10:38:57Z</time>
      </trkpt>
      <trkpt lat="45.45715" lon="4.58618">
        <ele>449.44</ele>
        <time>2017-03-26T10:38:58Z</time>
      </trkpt>
      <trkpt lat="45.45705" lon="4.58596">
        <ele>448.15</ele>
        <time>2017-03-26T10:38:59Z</time>
      </trkpt>
      <trkpt lat="45.45692" lon="4.58579">
        <ele>446.69</ele>
        <time>2017-03-26T10:39:00Z</time>
      </trkpt>
      <trkpt lat="45.4568" lon="4.58564">
        <ele>445.2</ele>
        <time>2017-03-26T10:39:01Z</time>
      </trkpt>
      <trkpt lat="45.45663" lon="4.58555">
        <ele>443.62</ele>
        <time>2017-03-26T10:39:02Z</time>
      </trkpt>
      <trkpt lat="45.45645" lon="4.58551">
        <ele>442.19</ele>
        <time>2017-03-26T10:39:03Z</time>
      </trkpt>
      <trkpt lat="45.45625" lon="4.58547">
        <ele>440.54</ele>
        <time>2017-03-26T10:39:04Z</time>
      </trkpt>
      <trkpt lat="45.45606" lon="4.58539">
        <ele>439.01</ele>
        <time>2017-03-26T10:39:05Z</time>
      </trkpt>
      <trkpt lat="45.45589" lon="4.58527">
        <ele>437.59</ele>
        <time>2017-03-26T10:39:06Z</time>
      </trkpt>
      <trkpt lat="45.45573" lon="4.58511">
        <ele>436.26</ele>
        <time>2017-03-26T10:39:07Z</time>
      </trkpt>
      <trkpt lat="45.45557" lon="4.58494">
        <ele>435.12</ele>
        <time>2017-03-26T10:39:08Z</time>
      </trkpt>
      <trkpt lat="45.45542" lon="4.58477">
        <ele>433.85</ele>
        <time>2017-03-26T10:39:09Z</time>
      </trkpt>
      <trkpt lat="45.45527" lon="4.58462">
        <ele>432.63</ele>
        <time>2017-03-26T10:39:10Z</time>
      </trkpt>
      <trkpt lat="45.45511" lon="4.5845">
        <ele>431.27</ele>
        <time>2017-03-26T10:39:11Z</time>
      </trkpt>
      <trkpt lat="45.45493" lon="4.58442">
        <ele>429.8</ele>
        <time>2017-03-26T10:39:12Z</time>
      </trkpt>
      <trkpt lat="45.45474" lon="4.58438">
        <ele>428.54</ele>
        <time>2017-03-26T10:39:13Z</time>
      </trkpt>
      <trkpt lat="45.45452" lon="4.58437">
        <ele>427.41</ele>
        <time>2017-03-26T10:39:14Z</time>
      </trkpt>
      <trkpt lat="45.4543" lon="4.58438">
        <ele>426.23</ele>
        <time>2017-03-26T10:39:15Z</time>
      </trkpt>
      <trkpt lat="45.45408" lon="4.58439">
        <ele>425.03</ele>
        <time>2017-03-26T10:39:16Z</time>
      </trkpt>
      <trkpt lat="45.45386" lon="4.58441">
        <ele>423.91</ele>
        <time>2017-03-26T10:39:17Z</time>
      </trkpt>
      <trkpt lat="45.45364" lon="4.58442">
        <ele>422.73</ele>
        <time>2017-03-26T10:39:18Z</time>
      </trkpt>
      <trkpt lat="45.45343" lon="4.58444">
        <ele>421.53</ele>
        <time>2017-03-26T10:39:19Z</time>
      </trkpt>
      <trkpt lat="45.45321" lon="4.58445">
        <ele>420.33</ele>
        <time>2017-03-26T10:39:20Z</time>
      </trkpt>
      <trkpt lat="45.45301" lon="4.58445">
        <ele>419.29</ele>
        <time>2017-03-26T10:39:21Z</time>
      </trkpt>
      <trkpt lat="45.45282" lon="4.58444">
        <ele>418.04</ele>
        <time>2017-03-26T10:39:22Z</time>
      </trkpt>
      <trkpt lat="45.45262" lon="4.58441">
        <ele>416.91</ele>
        <time>2017-03-26T10:39:23Z</time>
      </trkpt>
      <trkpt lat="45.45243" lon="4.58437">
        <ele>415.97</ele>
        <time>2017-03-26T10:39:24Z</time>
      </trkpt>
      <trkpt lat="45.45225" lon="4.58433">
        <ele>414.9</ele>
        <time>2017-03-26T10:39:25Z</time>
      </trkpt>
      <trkpt lat="45.45207" lon="4.58431">
        <ele>413.72</ele>
        <time>2017-03-26T10:39:26Z</time>
      </trkpt>
      <trkpt lat="45.45188" lon="4.58432">
        <ele>412.77</ele>
        <time>2017-03-26T10:39:27Z</time>
      </trkpt>
      <trkpt lat="45.4517" lon="4.58435">
        <ele>411.78</ele>
        <time>2017-03-26T10:39:28Z</time>
      </trkpt>
      <trkpt lat="45.45153" lon="4.58439">
        <ele>410.94</ele>
        <time>2017-03-26T10:39:29Z</time>
      </trkpt>
      <trkpt lat="45.45137" lon="4.58446">
        <ele>410.05</ele>
        <time>2017-03-26T10:39:30Z</time>
      </trkpt>
      <trkpt lat="45.45122" lon="4.58455">
        <ele>408.83</ele>
        <time>2017-03-26T10:39:31Z</time>
      </trkpt>
      <trkpt lat="45.45107" lon="4.58466">
        <ele>407.71</ele>
        <time>2017-03-26T10:39:32Z</time>
      </trkpt>
      <trkpt lat="45.45093" lon="4.58477">
        <ele>406.45</ele>
        <time>2017-03-26T10:39:33Z</time>
      </trkpt>
      <trkpt lat="45.45078" lon="4.58487">
        <ele>405.39</ele>
        <time>2017-03-26T10:39:34Z</time>
      </trkpt>
      <trkpt lat="45.45064" lon="4.58496">
        <ele>404.54</ele>
        <time>2017-03-26T10:39:35Z</time>
      </trkpt>
      <trkpt lat="45.4505" lon="4.58504">
        <ele>403.81</ele>
        <time>2017-03-26T10:39:36Z</time>
      </trkpt>
      <trkpt lat="45.45036" lon="4.5851">
        <ele>403.75</ele>
        <time>2017-03-26T10:39:37Z</time>
      </trkpt>
      <trkpt lat="45.45021" lon="4.58513">
        <ele>404.05</ele>
        <time>2017-03-26T10:39:38Z</time>
      </trkpt>
      <trkpt lat="45.45007" lon="4.58515">
        <ele>404.35</ele>
        <time>2017-03-26T10:39:39Z</time>
      </trkpt>
      <trkpt lat="45.44993" lon="4.58514">
        <ele>404.25</ele>
        <time>2017-03-26T10:39:40Z</time>
      </trkpt>
      <trkpt lat="45.44979" lon="4.58512">
        <ele>404.15</ele>
        <time>2017-03-26T10:39:41Z</time>
      </trkpt>
      <trkpt lat="45.44964" lon="4.58508">
        <ele>404.29</ele>
        <time>2017-03-26T10:39:42Z</time>
      </trkpt>
      <trkpt lat="45.44949" lon="4.58503">
        <ele>405.04</ele>
        <time>2017-03-26T10:39:43Z</time>
      </trkpt>
      <trkpt lat="45.44934" lon="4.58498">
        <ele>406.15</ele>
        <time>2017-03-26T10:39:44Z</time>
      </trkpt>
      <trkpt lat="45.44919" lon="4.58492">
        <ele>406.53</ele>
        <time>2017-03-26T10:39:45Z</time>
      </trkpt>
      <trkpt lat="45.44905" lon="4.58487">
        <ele>406.53</ele>
        <time>2017-03-26T10:39:46Z</time>
      </trkpt>
      <trkpt lat="45.44891" lon="4.58481">
        <ele>406.85</ele>
        <time>2017-03-26T10:39:47Z</time>
      </trkpt>
      <trkpt lat="45.44877" lon="4.58476">
        <ele>406.83</ele>
        <time>2017-03-26T10:39:48Z</time>
      </trkpt>
      <trkpt lat="45.44864" lon="4.5847">
        <ele>407.39</ele>
        <time>2017-03-26T10:39:49Z</time>
      </trkpt>
      <trkpt lat="45.44851" lon="4.58465">
        <ele>407.82</ele>
        <time>2017-03-26T10:39:50Z</time>
      </trkpt>
      <trkpt lat="45.44839" lon="4.5846">
        <ele>408.07</ele>
        <time>2017-03-26T10:39:51Z</time>
      </trkpt>
      <trkpt lat="45.44828" lon="4.58455">
        <ele>408.52</ele>
        <time>2017-03-26T10:39:52Z</time>
      </trkpt>
      <trkpt lat="45.44817" lon="4.5845">
        <ele>408.53</ele>
        <time>2017-03-26T10:39:53Z</time>
      </trkpt>
      <trkpt lat="45.44806" lon="4.58445">
        <ele>408.69</ele>
        <time>2017-03-26T10:39:54Z</time>
      </trkpt>
      <trkpt lat="45.44795" lon="4.5844">
        <ele>408.72</ele>
        <time>2017-03-26T10:39:55Z</time>
      </trkpt>
      <trkpt lat="45.44785" lon="4.58434">
        <ele>408.81</ele>
        <time>2017-03-26T10:39:56Z</time>
      </trkpt>
      <trkpt lat="45.44775" lon="4.58427">
        <ele>408.91</ele>
        <time>2017-03-26T10:39:57Z</time>
      </trkpt>
      <trkpt lat="45.44766" lon="4.5842">
        <ele>408.37</ele>
        <time>2017-03-26T10:39:58Z</time>
      </trkpt>
      <trkpt lat="45.44756" lon="4.58413">
        <ele>407.86</ele>
        <time>2017-03-26T10:39:59Z</time>
      </trkpt>
      <trkpt lat="45.44746" lon="4.58405">
        <ele>407.44</ele>
        <time>2017-03-26T10:40:00Z</time>
      </trkpt>
      <trkpt lat="45.44739" lon="4.58398">
        <ele>407.19</ele>
        <time>2017-03-26T10:40:01Z</time>
      </trkpt>
      <trkpt lat="45.44732" lon="4.5839">
        <ele>406.82</ele>
        <time>2017-03-26T10:40:02Z</time>
      </trkpt>
      <trkpt lat="45.44727" lon="4.58382">
        <ele>406.59</ele>
        <time>2017-03-26T10:40:03Z</time>
      </trkpt>
      <trkpt lat="45.44724" lon="4.58374">
        <ele>406.46</ele>
        <time>2017-03-26T10:40:04Z</time>
      </trkpt>
      <trkpt lat="45.4472" lon="4.58366">
        <ele>406.36</ele>
        <time>2017-03-26T10:40:05Z</time>
      </trkpt>
      <trkpt lat="45.4472" lon="4.58358">
        <ele>406.58</ele>
        <time>2017-03-26T10:40:06Z</time>
      </trkpt>
      <trkpt lat="45.44719" lon="4.58351">
        <ele>406.46</ele>
        <time>2017-03-26T10:40:07Z</time>
      </trkpt>
      <trkpt lat="45.44716" lon="4.58346">
        <ele>406.2</ele>
        <time>2017-03-26T10:40:08Z</time>
      </trkpt>
      <trkpt lat="45.44714" lon="4.58344">
        <ele>406.06</ele>
        <time>2017-03-26T10:40:09Z</time>
      </trkpt>
      <trkpt lat="45.44712" lon="4.58342">
        <ele>405.96</ele>
        <time>2017-03-26T10:40:10Z</time>
      </trkpt>
      <trkpt lat="45.44711" lon="4.58342">
        <ele>405.54</ele>
        <time>2017-03-26T10:40:11Z</time>
      </trkpt>
      <trkpt lat="45.44711" lon="4.58342">
        <ele>405.37</ele>
        <time>2017-03-26T10:40:12Z</time>
      </trkpt>
      <trkpt lat="45.44711" lon="4.58343">
        <ele>405.18</ele>
        <time>2017-03-26T10:40:13Z</time>
      </trkpt>
      <trkpt lat="45.44712" lon="4.58343">
        <ele>405.46</ele>
        <time>2017-03-26T10:40:14Z</time>
      </trkpt>
      <trkpt lat="45.44712" lon="4.58343">
        <ele>405.52</ele>
        <time>2017-03-26T10:40:15Z</time>
      </trkpt>
      <trkpt lat="45.44712" lon="4.58343">
        <ele>405.53</ele>
        <time>2017-03-26T10:40:16Z</time>
      </trkpt>
      <trkpt lat="45.44712" lon="4.58343">
        <ele>405.53</ele>
        <time>2017-03-26T10:40:17Z</time>
      </trkpt>
      <trkpt lat="45.44712" lon="4.58343">
        <ele>405.53</ele>
        <time>2017-03-26T10:40:18Z</time>
      </trkpt>
      <trkpt lat="45.44712" lon="4.58343">
        <ele>405.53</ele>
        <time>2017-03-26T10:40:19Z</time>
      </trkpt>
      <trkpt lat="45.44712" lon="4.58343">
        <ele>405.53</ele>
        <time>2017-03-26T10:40:20Z</time>
      </trkpt>
      <trkpt lat="45.44712" lon="4.58343">
        <ele>405.53</ele>
        <time>2017-03-26T10:40:21Z</time>
      </trkpt>
      <trkpt lat="45.44712" lon="4.58343">
        <ele>405.53</ele>
        <time>2017-03-26T10:40:22Z</time>
      </trkpt>
      <trkpt lat="45.44712" lon="4.58343">
        <ele>405.53</ele>
        <time>2017-03-26T10:40:23Z</time>
      </trkpt>
      <trkpt lat="45.44712" lon="4.58343">
        <ele>405.53</ele>
        <time>2017-03-26T10:40:24Z</time>
      </trkpt>
      <trkpt lat="45.44712" lon="4.58343">
        <ele>405.53</ele>
        <time>2017-03-26T10:40:25Z</time>
      </trkpt>
      <trkpt lat="45.44712" lon="4.58343">
        <ele>405.53</ele>
        <time>2017-03-26T10:40:26Z</time>
      </trkpt>
      <trkpt lat="45.44712" lon="4.58343">
        <ele>405.53</ele>
        <time>2017-03-26T10:40:27Z</time>
      </trkpt>
      <trkpt lat="45.44712" lon="4.58343">
        <ele>405.53</ele>
        <time>2017-03-26T10:40:28Z</time>
      </trkpt>
      <trkpt lat="45.44712" lon="4.58343">
        <ele>405.53</ele>
        <time>2017-03-26T10:40:29Z</time>
      </trkpt>
      <trkpt lat="45.44712" lon="4.58343">
        <ele>405.53</ele>
        <time>2017-03-26T10:40:30Z</time>
      </trkpt>
      <trkpt lat="45.44712" lon="4.58343">
        <ele>405.53</ele>
        <time>2017-03-26T10:40:31Z</time>
      </trkpt>
      <trkpt lat="45.4471" lon="4.58345">
        <ele>406.89</ele>
        <time>2017-03-26T10:40:32Z</time>
      </trkpt>
      <trkpt lat="45.44708" lon="4.58346">
        <ele>407.16</ele>
        <time>2017-03-26T10:40:33Z</time>
      </trkpt>
      <trkpt lat="45.44707" lon="4.58347">
        <ele>407.14</ele>
        <time>2017-03-26T10:40:34Z</time>
      </trkpt>
      <trkpt lat="45.44704" lon="4.58348">
        <ele>407.13</ele>
        <time>2017-03-26T10:40:35Z</time>
      </trkpt>
      <trkpt lat="45.44701" lon="4.58349">
        <ele>407.13</ele>
        <time>2017-03-26T10:40:36Z</time>
      </trkpt>
      <trkpt lat="45.44697" lon="4.5835">
        <ele>407.13</ele>
        <time>2017-03-26T10:40:37Z</time>
      </trkpt>
      <trkpt lat="45.44694" lon="4.58351">
        <ele>407.13</ele>
        <time>2017-03-26T10:40:38Z</time>
      </trkpt>
      <trkpt lat="45.44689" lon="4.5835">
        <ele>407.13</ele>
        <time>2017-03-26T10:40:39Z</time>
      </trkpt>
      <trkpt lat="45.44684" lon="4.5835">
        <ele>407.21</ele>
        <time>2017-03-26T10:40:40Z</time>
      </trkpt>
      <trkpt lat="45.44679" lon="4.58349">
        <ele>407.23</ele>
        <time>2017-03-26T10:40:41Z</time>
      </trkpt>
      <trkpt lat="45.44672" lon="4.58348">
        <ele>407.23</ele>
        <time>2017-03-26T10:40:42Z</time>
      </trkpt>
      <trkpt lat="45.44665" lon="4.58346">
        <ele>407.31</ele>
        <time>2017-03-26T10:40:43Z</time>
      </trkpt>
      <trkpt lat="45.44657" lon="4.58344">
        <ele>407.33</ele>
        <time>2017-03-26T10:40:44Z</time>
      </trkpt>
      <trkpt lat="45.44649" lon="4.58339">
        <ele>407.41</ele>
        <time>2017-03-26T10:40:45Z</time>
      </trkpt>
      <trkpt lat="45.4464" lon="4.58336">
        <ele>407.43</ele>
        <time>2017-03-26T10:40:46Z</time>
      </trkpt>
      <trkpt lat="45.44632" lon="4.58332">
        <ele>407.51</ele>
        <time>2017-03-26T10:40:47Z</time>
      </trkpt>
      <trkpt lat="45.44623" lon="4.58326">
        <ele>407.53</ele>
        <time>2017-03-26T10:40:48Z</time>
      </trkpt>
      <trkpt lat="45.44615" lon="4.58319">
        <ele>407.61</ele>
        <time>2017-03-26T10:40:49Z</time>
      </trkpt>
      <trkpt lat="45.44607" lon="4.58311">
        <ele>407.63</ele>
        <time>2017-03-26T10:40:50Z</time>
      </trkpt>
      <trkpt lat="45.44601" lon="4.58302">
        <ele>407.71</ele>
        <time>2017-03-26T10:40:51Z</time>
      </trkpt>
      <trkpt lat="45.44595" lon="4.5829">
        <ele>407.81</ele>
        <time>2017-03-26T10:40:52Z</time>
      </trkpt>
      <trkpt lat="45.4459" lon="4.58278">
        <ele>407.83</ele>
        <time>2017-03-26T10:40:53Z</time>
      </trkpt>
      <trkpt lat="45.44589" lon="4.58262">
        <ele>407.91</ele>
        <time>2017-03-26T10:40:54Z</time>
      </trkpt>
      <trkpt lat="45.44587" lon="4.58248">
        <ele>408.01</ele>
        <time>2017-03-26T10:40:55Z</time>
      </trkpt>
      <trkpt lat="45.44586" lon="4.58234">
        <ele>408.11</ele>
        <time>2017-03-26T10:40:56Z</time>
      </trkpt>
      <trkpt lat="45.44586" lon="4.58219">
        <ele>408.13</ele>
        <time>2017-03-26T10:40:57Z</time>
      </trkpt>
      <trkpt lat="45.44585" lon="4.58203">
        <ele>408.29</ele>
        <time>2017-03-26T10:40:58Z</time>
      </trkpt>
      <trkpt lat="45.44581" lon="4.58186">
        <ele>408.4</ele>
        <time>2017-03-26T10:40:59Z</time>
      </trkpt>
      <trkpt lat="45.44576" lon="4.58171">
        <ele>408.58</ele>
        <time>2017-03-26T10:41:00Z</time>
      </trkpt>
      <trkpt lat="45.44571" lon="4.58157">
        <ele>408.7</ele>
        <time>2017-03-26T10:41:01Z</time>
      </trkpt>
      <trkpt lat="45.44565" lon="4.58144">
        <ele>408.8</ele>
        <time>2017-03-26T10:41:02Z</time>
      </trkpt>
      <trkpt lat="45.44557" lon="4.58131">
        <ele>408.98</ele>
        <time>2017-03-26T10:41:03Z</time>
      </trkpt>
      <trkpt lat="45.44549" lon="4.58119">
        <ele>409.1</ele>
        <time>2017-03-26T10:41:04Z</time>
      </trkpt>
      <trkpt lat="45.44541" lon="4.58106">
        <ele>409.2</ele>
        <time>2017-03-26T10:41:05Z</time>
      </trkpt>
      <trkpt lat="45.44531" lon="4.58095">
        <ele>409.3</ele>
        <time>2017-03-26T10:41:06Z</time>
      </trkpt>
      <trkpt lat="45.44522" lon="4.58085">
        <ele>409.48</ele>
        <time>2017-03-26T10:41:07Z</time>
      </trkpt>
      <trkpt lat="45.44512" lon="4.58074">
        <ele>409.6</ele>
        <time>2017-03-26T10:41:08Z</time>
      </trkpt>
      <trkpt lat="45.44502" lon="4.58063">
        <ele>409.78</ele>
        <time>2017-03-26T10:41:09Z</time>
      </trkpt>
      <trkpt lat="45.44493" lon="4.58051">
        <ele>409.9</ele>
        <time>2017-03-26T10:41:10Z</time>
      </trkpt>
      <trkpt lat="45.44484" lon="4.58039">
        <ele>410.08</ele>
        <time>2017-03-26T10:41:11Z</time>
      </trkpt>
      <trkpt lat="45.44475" lon="4.58028">
        <ele>410.2</ele>
        <time>2017-03-26T10:41:12Z</time>
      </trkpt>
      <trkpt lat="45.44466" lon="4.58018">
        <ele>410.3</ele>
        <time>2017-03-26T10:41:13Z</time>
      </trkpt>
      <trkpt lat="45.44458" lon="4.58008">
        <ele>410.4</ele>
        <time>2017-03-26T10:41:14Z</time>
      </trkpt>
      <trkpt lat="45.44448" lon="4.58">
        <ele>410.5</ele>
        <time>2017-03-26T10:41:15Z</time>
      </trkpt>
      <trkpt lat="45.44438" lon="4.57993">
        <ele>410.6</ele>
        <time>2017-03-26T10:41:16Z</time>
      </trkpt>
      <trkpt lat="45.44428" lon="4.57987">
        <ele>410.79</ele>
        <time>2017-03-26T10:41:17Z</time>
      </trkpt>
      <trkpt lat="45.44418" lon="4.57982">
        <ele>410.98</ele>
        <time>2017-03-26T10:41:18Z</time>
      </trkpt>
      <trkpt lat="45.44408" lon="4.57977">
        <ele>411.18</ele>
        <time>2017-03-26T10:41:19Z</time>
      </trkpt>
      <trkpt lat="45.444" lon="4.57973">
        <ele>411.38</ele>
        <time>2017-03-26T10:41:20Z</time>
      </trkpt>
      <trkpt lat="45.44393" lon="4.57971">
        <ele>411.66</ele>
        <time>2017-03-26T10:41:21Z</time>
      </trkpt>
      <trkpt lat="45.44386" lon="4.57971">
        <ele>411.88</ele>
        <time>2017-03-26T10:41:22Z</time>
      </trkpt>
      <trkpt lat="45.44379" lon="4.57973">
        <ele>412</ele>
        <time>2017-03-26T10:41:23Z</time>
      </trkpt>
      <trkpt lat="45.44372" lon="4.5798">
        <ele>412.26</ele>
        <time>2017-03-26T10:41:24Z</time>
      </trkpt>
      <trkpt lat="45.44365" lon="4.57988">
        <ele>412.4</ele>
        <time>2017-03-26T10:41:25Z</time>
      </trkpt>
      <trkpt lat="45.44359" lon="4.58">
        <ele>412.5</ele>
        <time>2017-03-26T10:41:26Z</time>
      </trkpt>
      <trkpt lat="45.44354" lon="4.58015">
        <ele>412.6</ele>
        <time>2017-03-26T10:41:27Z</time>
      </trkpt>
      <trkpt lat="45.4435" lon="4.58032">
        <ele>412.78</ele>
        <time>2017-03-26T10:41:28Z</time>
      </trkpt>
      <trkpt lat="45.44353" lon="4.58049">
        <ele>412.82</ele>
        <time>2017-03-26T10:41:29Z</time>
      </trkpt>
      <trkpt lat="45.44361" lon="4.58063">
        <ele>412.99</ele>
        <time>2017-03-26T10:41:30Z</time>
      </trkpt>
      <trkpt lat="45.44366" lon="4.58078">
        <ele>413.18</ele>
        <time>2017-03-26T10:41:31Z</time>
      </trkpt>
      <trkpt lat="45.44386" lon="4.58087">
        <ele>413.54</ele>
        <time>2017-03-26T10:41:32Z</time>
      </trkpt>
      <trkpt lat="45.44398" lon="4.58096">
        <ele>413.77</ele>
        <time>2017-03-26T10:41:33Z</time>
      </trkpt>
      <trkpt lat="45.44408" lon="4.58105">
        <ele>413.98</ele>
        <time>2017-03-26T10:41:34Z</time>
      </trkpt>
      <trkpt lat="45.44415" lon="4.58113">
        <ele>414.26</ele>
        <time>2017-03-26T10:41:35Z</time>
      </trkpt>
      <trkpt lat="45.44422" lon="4.58122">
        <ele>414.4</ele>
        <time>2017-03-26T10:41:36Z</time>
      </trkpt>
      <trkpt lat="45.44429" lon="4.58131">
        <ele>414.58</ele>
        <time>2017-03-26T10:41:37Z</time>
      </trkpt>
      <trkpt lat="45.44428" lon="4.58145">
        <ele>414.78</ele>
        <time>2017-03-26T10:41:38Z</time>
      </trkpt>
      <trkpt lat="45.44429" lon="4.58159">
        <ele>414.98</ele>
        <time>2017-03-26T10:41:39Z</time>
      </trkpt>
      <trkpt lat="45.44429" lon="4.58172">
        <ele>415.1</ele>
        <time>2017-03-26T10:41:40Z</time>
      </trkpt>
      <trkpt lat="45.44419" lon="4.58183">
        <ele>415.28</ele>
        <time>2017-03-26T10:41:41Z</time>
      </trkpt>
      <trkpt lat="45.4441" lon="4.58192">
        <ele>415.48</ele>
        <time>2017-03-26T10:41:42Z</time>
      </trkpt>
      <trkpt lat="45.44399" lon="4.58193">
        <ele>415.76</ele>
        <time>2017-03-26T10:41:43Z</time>
      </trkpt>
      <trkpt lat="45.44387" lon="4.58194">
        <ele>415.98</ele>
        <time>2017-03-26T10:41:44Z</time>
      </trkpt>
      <trkpt lat="45.44376" lon="4.58191">
        <ele>416.18</ele>
        <time>2017-03-26T10:41:45Z</time>
      </trkpt>
      <trkpt lat="45.44364" lon="4.58182">
        <ele>416.78</ele>
        <time>2017-03-26T10:41:46Z</time>
      </trkpt>
      <trkpt lat="45.44352" lon="4.58172">
        <ele>417.3</ele>
        <time>2017-03-26T10:41:47Z</time>
      </trkpt>
      <trkpt lat="45.44341" lon="4.58161">
        <ele>417.8</ele>
        <time>2017-03-26T10:41:48Z</time>
      </trkpt>
      <trkpt lat="45.44331" lon="4.5815">
        <ele>418.22</ele>
        <time>2017-03-26T10:41:49Z</time>
      </trkpt>
      <trkpt lat="45.4432" lon="4.58139">
        <ele>418.71</ele>
        <time>2017-03-26T10:41:50Z</time>
      </trkpt>
      <trkpt lat="45.44311" lon="4.5813">
        <ele>419.21</ele>
        <time>2017-03-26T10:41:51Z</time>
      </trkpt>
      <trkpt lat="45.44302" lon="4.58121">
        <ele>419.71</ele>
        <time>2017-03-26T10:41:52Z</time>
      </trkpt>
      <trkpt lat="45.44295" lon="4.58114">
        <ele>420.21</ele>
        <time>2017-03-26T10:41:53Z</time>
      </trkpt>
      <trkpt lat="45.44291" lon="4.58107">
        <ele>420.71</ele>
        <time>2017-03-26T10:41:54Z</time>
      </trkpt>
      <trkpt lat="45.44286" lon="4.58101">
        <ele>421.2</ele>
        <time>2017-03-26T10:41:55Z</time>
      </trkpt>
      <trkpt lat="45.44282" lon="4.58097">
        <ele>421.62</ele>
        <time>2017-03-26T10:41:56Z</time>
      </trkpt>
      <trkpt lat="45.44278" lon="4.58093">
        <ele>422.03</ele>
        <time>2017-03-26T10:41:57Z</time>
      </trkpt>
      <trkpt lat="45.44275" lon="4.58089">
        <ele>422.51</ele>
        <time>2017-03-26T10:41:58Z</time>
      </trkpt>
      <trkpt lat="45.44273" lon="4.58087">
        <ele>422.85</ele>
        <time>2017-03-26T10:41:59Z</time>
      </trkpt>
      <trkpt lat="45.44273" lon="4.58085">
        <ele>423.23</ele>
        <time>2017-03-26T10:42:00Z</time>
      </trkpt>
      <trkpt lat="45.44272" lon="4.58085">
        <ele>423.71</ele>
        <time>2017-03-26T10:42:01Z</time>
      </trkpt>
      <trkpt lat="45.44273" lon="4.58084">
        <ele>424.13</ele>
        <time>2017-03-26T10:42:02Z</time>
      </trkpt>
      <trkpt lat="45.44274" lon="4.58085">
        <ele>425.01</ele>
        <time>2017-03-26T10:42:03Z</time>
      </trkpt>
      <trkpt lat="45.44274" lon="4.58084">
        <ele>425.67</ele>
        <time>2017-03-26T10:42:04Z</time>
      </trkpt>
      <trkpt lat="45.44274" lon="4.58084">
        <ele>425.8</ele>
        <time>2017-03-26T10:42:05Z</time>
      </trkpt>
      <trkpt lat="45.44274" lon="4.58084">
        <ele>425.82</ele>
        <time>2017-03-26T10:42:06Z</time>
      </trkpt>
      <trkpt lat="45.44274" lon="4.58084">
        <ele>425.83</ele>
        <time>2017-03-26T10:42:07Z</time>
      </trkpt>
      <trkpt lat="45.44274" lon="4.58084">
        <ele>425.83</ele>
        <time>2017-03-26T10:42:08Z</time>
      </trkpt>
      <trkpt lat="45.44274" lon="4.58084">
        <ele>425.83</ele>
        <time>2017-03-26T10:42:09Z</time>
      </trkpt>
      <trkpt lat="45.44274" lon="4.58084">
        <ele>425.83</ele>
        <time>2017-03-26T10:42:10Z</time>
      </trkpt>
      <trkpt lat="45.44274" lon="4.58084">
        <ele>425.83</ele>
        <time>2017-03-26T10:42:11Z</time>
      </trkpt>
      <trkpt lat="45.44274" lon="4.58084">
        <ele>425.83</ele>
        <time>2017-03-26T10:42:12Z</time>
      </trkpt>
      <trkpt lat="45.44274" lon="4.58084">
        <ele>425.83</ele>
        <time>2017-03-26T10:42:13Z</time>
      </trkpt>
      <trkpt lat="45.44274" lon="4.58084">
        <ele>425.83</ele>
        <time>2017-03-26T10:42:14Z</time>
      </trkpt>
      <trkpt lat="45.44274" lon="4.58084">
        <ele>425.83</ele>
        <time>2017-03-26T10:42:15Z</time>
      </trkpt>
      <trkpt lat="45.44274" lon="4.58084">
        <ele>425.83</ele>
        <time>2017-03-26T10:42:16Z</time>
      </trkpt>
      <trkpt lat="45.44274" lon="4.58084">
        <ele>425.83</ele>
        <time>2017-03-26T10:42:17Z</time>
      </trkpt>
      <trkpt lat="45.44274" lon="4.58084">
        <ele>425.83</ele>
        <time>2017-03-26T10:42:18Z</time>
      </trkpt>
      <trkpt lat="45.44274" lon="4.58084">
        <ele>425.83</ele>
        <time>2017-03-26T10:42:19Z</time>
      </trkpt>
      <trkpt lat="45.44274" lon="4.58084">
        <ele>425.83</ele>
        <time>2017-03-26T10:42:20Z</time>
      </trkpt>
      <trkpt lat="45.44274" lon="4.58084">
        <ele>425.83</ele>
        <time>2017-03-26T10:42:21Z</time>
      </trkpt>
      <trkpt lat="45.44274" lon="4.58084">
        <ele>425.83</ele>
        <time>2017-03-26T10:42:22Z</time>
      </trkpt>
      <trkpt lat="45.44274" lon="4.58084">
        <ele>425.83</ele>
        <time>2017-03-26T10:42:23Z</time>
      </trkpt>
      <trkpt lat="45.44274" lon="4.58084">
        <ele>425.83</ele>
        <time>2017-03-26T10:42:24Z</time>
      </trkpt>
      <trkpt lat="45.44274" lon="4.58084">
        <ele>425.83</ele>
        <time>2017-03-26T10:42:25Z</time>
      </trkpt>
      <trkpt lat="45.44274" lon="4.58084">
        <ele>425.83</ele>
        <time>2017-03-26T10:42:26Z</time>
      </trkpt>
      <trkpt lat="45.44274" lon="4.58084">
        <ele>425.83</ele>
        <time>2017-03-26T10:42:27Z</time>
      </trkpt>
      <trkpt lat="45.44274" lon="4.58084">
        <ele>425.83</ele>
        <time>2017-03-26T10:42:28Z</time>
      </trkpt>
      <trkpt lat="45.44274" lon="4.58084">
        <ele>425.83</ele>
        <time>2017-03-26T10:42:29Z</time>
      </trkpt>
      <trkpt lat="45.44274" lon="4.58084">
        <ele>425.83</ele>
        <time>2017-03-26T10:42:30Z</time>
      </trkpt>
      <trkpt lat="45.44274" lon="4.58084">
        <ele>425.83</ele>
        <time>2017-03-26T10:42:31Z</time>
      </trkpt>
      <trkpt lat="45.44274" lon="4.58084">
        <ele>425.83</ele>
        <time>2017-03-26T10:42:32Z</time>
      </trkpt>
      <trkpt lat="45.44274" lon="4.58084">
        <ele>425.83</ele>
        <time>2017-03-26T10:42:33Z</time>
      </trkpt>
      <trkpt lat="45.44274" lon="4.58084">
        <ele>425.83</ele>
        <time>2017-03-26T10:42:34Z</time>
      </trkpt>
      <trkpt lat="45.44274" lon="4.58084">
        <ele>425.83</ele>
        <time>2017-03-26T10:42:35Z</time>
      </trkpt>
      <trkpt lat="45.44274" lon="4.58084">
        <ele>425.83</ele>
        <time>2017-03-26T10:42:36Z</time>
      </trkpt>
      <trkpt lat="45.44274" lon="4.58084">
        <ele>425.83</ele>
        <time>2017-03-26T10:42:37Z</time>
      </trkpt>
      <trkpt lat="45.44274" lon="4.58084">
        <ele>425.83</ele>
        <time>2017-03-26T10:42:38Z</time>
      </trkpt>
      <trkpt lat="45.44274" lon="4.58084">
        <ele>425.83</ele>
        <time>2017-03-26T10:42:39Z</time>
      </trkpt>
      <trkpt lat="45.44274" lon="4.58084">
        <ele>425.83</ele>
        <time>2017-03-26T10:42:40Z</time>
      </trkpt>
      <trkpt lat="45.44274" lon="4.58084">
        <ele>425.83</ele>
        <time>2017-03-26T10:42:41Z</time>
      </trkpt>
      <trkpt lat="45.44274" lon="4.58084">
        <ele>425.83</ele>
        <time>2017-03-26T10:42:42Z</time>
      </trkpt>
      <trkpt lat="45.44274" lon="4.58084">
        <ele>425.83</ele>
        <time>2017-03-26T10:42:43Z</time>
      </trkpt>
      <trkpt lat="45.44274" lon="4.58084">
        <ele>425.83</ele>
        <time>2017-03-26T10:42:44Z</time>
      </trkpt>
      <trkpt lat="45.44274" lon="4.58084">
        <ele>425.83</ele>
        <time>2017-03-26T10:42:45Z</time>
      </trkpt>
      <trkpt lat="45.44274" lon="4.58084">
        <ele>425.83</ele>
        <time>2017-03-26T10:42:46Z</time>
      </trkpt>
      <trkpt lat="45.44274" lon="4.58084">
        <ele>425.83</ele>
        <time>2017-03-26T10:42:47Z</time>
      </trkpt>
      <trkpt lat="45.44274" lon="4.58084">
        <ele>425.83</ele>
        <time>2017-03-26T10:42:48Z</time>
      </trkpt>
      <trkpt lat="45.44274" lon="4.58084">
        <ele>425.83</ele>
        <time>2017-03-26T10:42:49Z</time>
      </trkpt>
      <trkpt lat="45.44274" lon="4.58084">
        <ele>425.83</ele>
        <time>2017-03-26T10:42:50Z</time>
      </trkpt>
      <trkpt lat="45.44274" lon="4.58084">
        <ele>425.83</ele>
        <time>2017-03-26T10:42:51Z</time>
      </trkpt>
      <trkpt lat="45.44274" lon="4.58084">
        <ele>425.83</ele>
        <time>2017-03-26T10:42:52Z</time>
      </trkpt>
      <trkpt lat="45.44274" lon="4.58084">
        <ele>425.83</ele>
        <time>2017-03-26T10:42:53Z</time>
      </trkpt>
      <trkpt lat="45.44274" lon="4.58084">
        <ele>425.83</ele>
        <time>2017-03-26T10:42:54Z</time>
      </trkpt>
      <trkpt lat="45.44274" lon="4.58084">
        <ele>425.83</ele>
        <time>2017-03-26T10:42:55Z</time>
      </trkpt>
      <trkpt lat="45.44274" lon="4.58084">
        <ele>425.83</ele>
        <time>2017-03-26T10:42:56Z</time>
      </trkpt>
      <trkpt lat="45.44274" lon="4.58084">
        <ele>425.83</ele>
        <time>2017-03-26T10:42:57Z</time>
      </trkpt>
      <trkpt lat="45.44274" lon="4.58084">
        <ele>425.83</ele>
        <time>2017-03-26T10:42:58Z</time>
      </trkpt>
      <trkpt lat="45.44274" lon="4.58084">
        <ele>425.83</ele>
        <time>2017-03-26T10:42:59Z</time>
      </trkpt>
      <trkpt lat="45.44274" lon="4.58084">
        <ele>425.83</ele>
        <time>2017-03-26T10:43:00Z</time>
      </trkpt>
      <trkpt lat="45.44268" lon="4.58085">
        <ele>426.39</ele>
        <time>2017-03-26T10:43:01Z</time>
      </trkpt>
      <trkpt lat="45.44264" lon="4.58083">
        <ele>426.5</ele>
        <time>2017-03-26T10:43:02Z</time>
      </trkpt>
      <trkpt lat="45.44259" lon="4.58079">
        <ele>426.52</ele>
        <time>2017-03-26T10:43:03Z</time>
      </trkpt>
      <trkpt lat="45.44252" lon="4.58073">
        <ele>426.61</ele>
        <time>2017-03-26T10:43:04Z</time>
      </trkpt>
      <trkpt lat="45.44244" lon="4.58066">
        <ele>426.63</ele>
        <time>2017-03-26T10:43:05Z</time>
      </trkpt>
      <trkpt lat="45.44235" lon="4.58059">
        <ele>426.63</ele>
        <time>2017-03-26T10:43:06Z</time>
      </trkpt>
      <trkpt lat="45.44227" lon="4.58051">
        <ele>426.71</ele>
        <time>2017-03-26T10:43:07Z</time>
      </trkpt>
      <trkpt lat="45.44219" lon="4.58041">
        <ele>426.73</ele>
        <time>2017-03-26T10:43:08Z</time>
      </trkpt>
      <trkpt lat="45.44211" lon="4.58028">
        <ele>426.81</ele>
        <time>2017-03-26T10:43:09Z</time>
      </trkpt>
      <trkpt lat="45.44202" lon="4.58014">
        <ele>426.83</ele>
        <time>2017-03-26T10:43:10Z</time>
      </trkpt>
      <trkpt lat="45.44194" lon="4.57998">
        <ele>426.91</ele>
        <time>2017-03-26T10:43:11Z</time>
      </trkpt>
      <trkpt lat="45.44185" lon="4.57981">
        <ele>426.93</ele>
        <time>2017-03-26T10:43:12Z</time>
      </trkpt>
      <trkpt lat="45.44176" lon="4.57963">
        <ele>427.01</ele>
        <time>2017-03-26T10:43:13Z</time>
      </trkpt>
      <trkpt lat="45.44167" lon="4.57944">
        <ele>427.11</ele>
        <time>2017-03-26T10:43:14Z</time>
      </trkpt>
      <trkpt lat="45.44159" lon="4.57925">
        <ele>427.13</ele>
        <time>2017-03-26T10:43:15Z</time>
      </trkpt>
      <trkpt lat="45.4415" lon="4.57906">
        <ele>427.21</ele>
        <time>2017-03-26T10:43:16Z</time>
      </trkpt>
      <trkpt lat="45.44141" lon="4.57887">
        <ele>427.31</ele>
        <time>2017-03-26T10:43:17Z</time>
      </trkpt>
      <trkpt lat="45.44133" lon="4.57867">
        <ele>427.33</ele>
        <time>2017-03-26T10:43:18Z</time>
      </trkpt>
      <trkpt lat="45.44126" lon="4.57847">
        <ele>427.41</ele>
        <time>2017-03-26T10:43:19Z</time>
      </trkpt>
      <trkpt lat="45.4412" lon="4.57826">
        <ele>427.51</ele>
        <time>2017-03-26T10:43:20Z</time>
      </trkpt>
      <trkpt lat="45.44117" lon="4.57805">
        <ele>427.61</ele>
        <time>2017-03-26T10:43:21Z</time>
      </trkpt>
      <trkpt lat="45.44115" lon="4.57784">
        <ele>427.71</ele>
        <time>2017-03-26T10:43:22Z</time>
      </trkpt>
      <trkpt lat="45.44113" lon="4.57762">
        <ele>427.8</ele>
        <time>2017-03-26T10:43:23Z</time>
      </trkpt>
      <trkpt lat="45.4411" lon="4.57741">
        <ele>427.9</ele>
        <time>2017-03-26T10:43:24Z</time>
      </trkpt>
      <trkpt lat="45.44106" lon="4.57721">
        <ele>428.01</ele>
        <time>2017-03-26T10:43:25Z</time>
      </trkpt>
      <trkpt lat="45.44101" lon="4.57702">
        <ele>428.11</ele>
        <time>2017-03-26T10:43:26Z</time>
      </trkpt>
      <trkpt lat="45.44096" lon="4.57683">
        <ele>428.2</ele>
        <time>2017-03-26T10:43:27Z</time>
      </trkpt>
      <trkpt lat="45.44089" lon="4.57667">
        <ele>428.3</ele>
        <time>2017-03-26T10:43:28Z</time>
      </trkpt>
      <trkpt lat="45.4408" lon="4.57653">
        <ele>428.4</ele>
        <time>2017-03-26T10:43:29Z</time>
      </trkpt>
      <trkpt lat="45.44073" lon="4.5764">
        <ele>428.51</ele>
        <time>2017-03-26T10:43:30Z</time>
      </trkpt>
      <trkpt lat="45.44068" lon="4.57631">
        <ele>428.68</ele>
        <time>2017-03-26T10:43:31Z</time>
      </trkpt>
      <trkpt lat="45.44064" lon="4.57624">
        <ele>428.8</ele>
        <time>2017-03-26T10:43:32Z</time>
      </trkpt>
      <trkpt lat="45.44063" lon="4.57619">
        <ele>428.9</ele>
        <time>2017-03-26T10:43:33Z</time>
      </trkpt>
      <trkpt lat="45.44062" lon="4.57616">
        <ele>429.08</ele>
        <time>2017-03-26T10:43:34Z</time>
      </trkpt>
      <trkpt lat="45.44062" lon="4.57615">
        <ele>429.2</ele>
        <time>2017-03-26T10:43:35Z</time>
      </trkpt>
      <trkpt lat="45.44063" lon="4.57615">
        <ele>429.38</ele>
        <time>2017-03-26T10:43:36Z</time>
      </trkpt>
      <trkpt lat="45.44063" lon="4.57618">
        <ele>429.58</ele>
        <time>2017-03-26T10:43:37Z</time>
      </trkpt>
      <trkpt lat="45.44064" lon="4.57618">
        <ele>429.7</ele>
        <time>2017-03-26T10:43:38Z</time>
      </trkpt>
      <trkpt lat="45.44064" lon="4.57618">
        <ele>429.72</ele>
        <time>2017-03-26T10:43:39Z</time>
      </trkpt>
      <trkpt lat="45.44064" lon="4.57618">
        <ele>429.73</ele>
        <time>2017-03-26T10:43:40Z</time>
      </trkpt>
      <trkpt lat="45.44064" lon="4.57618">
        <ele>429.73</ele>
        <time>2017-03-26T10:43:41Z</time>
      </trkpt>
      <trkpt lat="45.44064" lon="4.57618">
        <ele>429.73</ele>
        <time>2017-03-26T10:43:42Z</time>
      </trkpt>
      <trkpt lat="45.44064" lon="4.57618">
        <ele>429.73</ele>
        <time>2017-03-26T10:43:43Z</time>
      </trkpt>
      <trkpt lat="45.44064" lon="4.57618">
        <ele>429.73</ele>
        <time>2017-03-26T10:43:44Z</time>
      </trkpt>
      <trkpt lat="45.44064" lon="4.57618">
        <ele>429.73</ele>
        <time>2017-03-26T10:43:45Z</time>
      </trkpt>
      <trkpt lat="45.44064" lon="4.57618">
        <ele>429.73</ele>
        <time>2017-03-26T10:43:46Z</time>
      </trkpt>
      <trkpt lat="45.44064" lon="4.57618">
        <ele>429.73</ele>
        <time>2017-03-26T10:43:47Z</time>
      </trkpt>
      <trkpt lat="45.44064" lon="4.57618">
        <ele>429.73</ele>
        <time>2017-03-26T10:43:48Z</time>
      </trkpt>
      <trkpt lat="45.44064" lon="4.57618">
        <ele>429.73</ele>
        <time>2017-03-26T10:43:49Z</time>
      </trkpt>
      <trkpt lat="45.44064" lon="4.57618">
        <ele>429.73</ele>
        <time>2017-03-26T10:43:50Z</time>
      </trkpt>
      <trkpt lat="45.44064" lon="4.57618">
        <ele>429.73</ele>
        <time>2017-03-26T10:43:51Z</time>
      </trkpt>
      <trkpt lat="45.44064" lon="4.57618">
        <ele>429.73</ele>
        <time>2017-03-26T10:43:52Z</time>
      </trkpt>
      <trkpt lat="45.44064" lon="4.57618">
        <ele>429.73</ele>
        <time>2017-03-26T10:43:53Z</time>
      </trkpt>
      <trkpt lat="45.44064" lon="4.57618">
        <ele>429.73</ele>
        <time>2017-03-26T10:43:54Z</time>
      </trkpt>
      <trkpt lat="45.44064" lon="4.57618">
        <ele>429.73</ele>
        <time>2017-03-26T10:43:55Z</time>
      </trkpt>
      <trkpt lat="45.44064" lon="4.57618">
        <ele>429.73</ele>
        <time>2017-03-26T10:43:56Z</time>
      </trkpt>
      <trkpt lat="45.44064" lon="4.57618">
        <ele>429.73</ele>
        <time>2017-03-26T10:43:57Z</time>
      </trkpt>
      <trkpt lat="45.44064" lon="4.57618">
        <ele>429.73</ele>
        <time>2017-03-26T10:43:58Z</time>
      </trkpt>
      <trkpt lat="45.44064" lon="4.57618">
        <ele>429.73</ele>
        <time>2017-03-26T10:43:59Z</time>
      </trkpt>
      <trkpt lat="45.44064" lon="4.57618">
        <ele>429.73</ele>
        <time>2017-03-26T10:44:00Z</time>
      </trkpt>
      <trkpt lat="45.44064" lon="4.57618">
        <ele>429.73</ele>
        <time>2017-03-26T10:44:01Z</time>
      </trkpt>
      <trkpt lat="45.44064" lon="4.57618">
        <ele>429.73</ele>
        <time>2017-03-26T10:44:02Z</time>
      </trkpt>
      <trkpt lat="45.44064" lon="4.57618">
        <ele>429.73</ele>
        <time>2017-03-26T10:44:03Z</time>
      </trkpt>
      <trkpt lat="45.44064" lon="4.57618">
        <ele>429.73</ele>
        <time>2017-03-26T10:44:04Z</time>
      </trkpt>
      <trkpt lat="45.44064" lon="4.57618">
        <ele>429.73</ele>
        <time>2017-03-26T10:44:05Z</time>
      </trkpt>
      <trkpt lat="45.44064" lon="4.57618">
        <ele>429.73</ele>
        <time>2017-03-26T10:44:06Z</time>
      </trkpt>
      <trkpt lat="45.44064" lon="4.57618">
        <ele>429.73</ele>
        <time>2017-03-26T10:44:07Z</time>
      </trkpt>
      <trkpt lat="45.44064" lon="4.57618">
        <ele>429.73</ele>
        <time>2017-03-26T10:44:08Z</time>
      </trkpt>
      <trkpt lat="45.44064" lon="4.57618">
        <ele>429.73</ele>
        <time>2017-03-26T10:44:09Z</time>
      </trkpt>
      <trkpt lat="45.44064" lon="4.57618">
        <ele>429.73</ele>
        <time>2017-03-26T10:44:10Z</time>
      </trkpt>
      <trkpt lat="45.44064" lon="4.57618">
        <ele>429.73</ele>
        <time>2017-03-26T10:44:11Z</time>
      </trkpt>
      <trkpt lat="45.44062" lon="4.57617">
        <ele>429.97</ele>
        <time>2017-03-26T10:44:12Z</time>
      </trkpt>
      <trkpt lat="45.44061" lon="4.57615">
        <ele>430.02</ele>
        <time>2017-03-26T10:44:13Z</time>
      </trkpt>
      <trkpt lat="45.4406" lon="4.57611">
        <ele>430.03</ele>
        <time>2017-03-26T10:44:14Z</time>
      </trkpt>
      <trkpt lat="45.4406" lon="4.57608">
        <ele>430.03</ele>
        <time>2017-03-26T10:44:15Z</time>
      </trkpt>
      <trkpt lat="45.44059" lon="4.57604">
        <ele>430.03</ele>
        <time>2017-03-26T10:44:16Z</time>
      </trkpt>
      <trkpt lat="45.44057" lon="4.57601">
        <ele>430.11</ele>
        <time>2017-03-26T10:44:17Z</time>
      </trkpt>
      <trkpt lat="45.44055" lon="4.57597">
        <ele>430.13</ele>
        <time>2017-03-26T10:44:18Z</time>
      </trkpt>
      <trkpt lat="45.44053" lon="4.57593">
        <ele>430.13</ele>
        <time>2017-03-26T10:44:19Z</time>
      </trkpt>
      <trkpt lat="45.44051" lon="4.57588">
        <ele>430.21</ele>
        <time>2017-03-26T10:44:20Z</time>
      </trkpt>
      <trkpt lat="45.44048" lon="4.57584">
        <ele>430.23</ele>
        <time>2017-03-26T10:44:21Z</time>
      </trkpt>
      <trkpt lat="45.44046" lon="4.57581">
        <ele>430.31</ele>
        <time>2017-03-26T10:44:22Z</time>
      </trkpt>
      <trkpt lat="45.44043" lon="4.57577">
        <ele>430.41</ele>
        <time>2017-03-26T10:44:23Z</time>
      </trkpt>
      <trkpt lat="45.44041" lon="4.57574">
        <ele>430.51</ele>
        <time>2017-03-26T10:44:24Z</time>
      </trkpt>
      <trkpt lat="45.44038" lon="4.57571">
        <ele>430.53</ele>
        <time>2017-03-26T10:44:25Z</time>
      </trkpt>
      <trkpt lat="45.44036" lon="4.57569">
        <ele>430.61</ele>
        <time>2017-03-26T10:44:26Z</time>
      </trkpt>
      <trkpt lat="45.44034" lon="4.57567">
        <ele>430.71</ele>
        <time>2017-03-26T10:44:27Z</time>
      </trkpt>
      <trkpt lat="45.44032" lon="4.57565">
        <ele>430.81</ele>
        <time>2017-03-26T10:44:28Z</time>
      </trkpt>
      <trkpt lat="45.4403" lon="4.57562">
        <ele>430.91</ele>
        <time>2017-03-26T10:44:29Z</time>
      </trkpt>
      <trkpt lat="45.44028" lon="4.57559">
        <ele>430.93</ele>
        <time>2017-03-26T10:44:30Z</time>
      </trkpt>
      <trkpt lat="45.44025" lon="4.57555">
        <ele>431.09</ele>
        <time>2017-03-26T10:44:31Z</time>
      </trkpt>
      <trkpt lat="45.44022" lon="4.57551">
        <ele>431.2</ele>
        <time>2017-03-26T10:44:32Z</time>
      </trkpt>
      <trkpt lat="45.44017" lon="4.57546">
        <ele>431.38</ele>
        <time>2017-03-26T10:44:33Z</time>
      </trkpt>
      <trkpt lat="45.44012" lon="4.57541">
        <ele>431.5</ele>
        <time>2017-03-26T10:44:34Z</time>
      </trkpt>
      <trkpt lat="45.44007" lon="4.57535">
        <ele>431.52</ele>
        <time>2017-03-26T10:44:35Z</time>
      </trkpt>
      <trkpt lat="45.44002" lon="4.57529">
        <ele>431.61</ele>
        <time>2017-03-26T10:44:36Z</time>
      </trkpt>
      <trkpt lat="45.43996" lon="4.57524">
        <ele>431.79</ele>
        <time>2017-03-26T10:44:37Z</time>
      </trkpt>
      <trkpt lat="45.4399" lon="4.57518">
        <ele>431.9</ele>
        <time>2017-03-26T10:44:38Z</time>
      </trkpt>
      <trkpt lat="45.43985" lon="4.57512">
        <ele>432.08</ele>
        <time>2017-03-26T10:44:39Z</time>
      </trkpt>
      <trkpt lat="45.4398" lon="4.57507">
        <ele>432.2</ele>
        <time>2017-03-26T10:44:40Z</time>
      </trkpt>
      <trkpt lat="45.43974" lon="4.57503">
        <ele>432.38</ele>
        <time>2017-03-26T10:44:41Z</time>
      </trkpt>
      <trkpt lat="45.43969" lon="4.57503">
        <ele>432.5</ele>
        <time>2017-03-26T10:44:42Z</time>
      </trkpt>
      <trkpt lat="45.43964" lon="4.57503">
        <ele>432.6</ele>
        <time>2017-03-26T10:44:43Z</time>
      </trkpt>
      <trkpt lat="45.4396" lon="4.57503">
        <ele>432.7</ele>
        <time>2017-03-26T10:44:44Z</time>
      </trkpt>
      <trkpt lat="45.43955" lon="4.57502">
        <ele>432.8</ele>
        <time>2017-03-26T10:44:45Z</time>
      </trkpt>
      <trkpt lat="45.43949" lon="4.57502">
        <ele>432.98</ele>
        <time>2017-03-26T10:44:46Z</time>
      </trkpt>
      <trkpt lat="45.43939" lon="4.575">
        <ele>433.18</ele>
        <time>2017-03-26T10:44:47Z</time>
      </trkpt>
      <trkpt lat="45.43931" lon="4.57495">
        <ele>433.38</ele>
        <time>2017-03-26T10:44:48Z</time>
      </trkpt>
      <trkpt lat="45.43919" lon="4.57488">
        <ele>433.58</ele>
        <time>2017-03-26T10:44:49Z</time>
      </trkpt>
      <trkpt lat="45.43907" lon="4.5748">
        <ele>433.78</ele>
        <time>2017-03-26T10:44:50Z</time>
      </trkpt>
      <trkpt lat="45.43895" lon="4.57471">
        <ele>433.9</ele>
        <time>2017-03-26T10:44:51Z</time>
      </trkpt>
      <trkpt lat="45.43883" lon="4.57463">
        <ele>434.08</ele>
        <time>2017-03-26T10:44:52Z</time>
      </trkpt>
      <trkpt lat="45.43872" lon="4.57456">
        <ele>434.2</ele>
        <time>2017-03-26T10:44:53Z</time>
      </trkpt>
      <trkpt lat="45.43861" lon="4.57448">
        <ele>434.38</ele>
        <time>2017-03-26T10:44:54Z</time>
      </trkpt>
      <trkpt lat="45.4385" lon="4.5744">
        <ele>434.58</ele>
        <time>2017-03-26T10:44:55Z</time>
      </trkpt>
      <trkpt lat="45.43839" lon="4.57433">
        <ele>434.7</ele>
        <time>2017-03-26T10:44:56Z</time>
      </trkpt>
      <trkpt lat="45.43828" lon="4.57426">
        <ele>434.88</ele>
        <time>2017-03-26T10:44:57Z</time>
      </trkpt>
      <trkpt lat="45.43818" lon="4.5742">
        <ele>435</ele>
        <time>2017-03-26T10:44:58Z</time>
      </trkpt>
      <trkpt lat="45.43807" lon="4.57413">
        <ele>435.18</ele>
        <time>2017-03-26T10:44:59Z</time>
      </trkpt>
      <trkpt lat="45.43798" lon="4.57407">
        <ele>435.38</ele>
        <time>2017-03-26T10:45:00Z</time>
      </trkpt>
      <trkpt lat="45.43788" lon="4.57401">
        <ele>435.58</ele>
        <time>2017-03-26T10:45:01Z</time>
      </trkpt>
      <trkpt lat="45.43777" lon="4.57396">
        <ele>435.78</ele>
        <time>2017-03-26T10:45:02Z</time>
      </trkpt>
      <trkpt lat="45.43766" lon="4.57392">
        <ele>435.98</ele>
        <time>2017-03-26T10:45:03Z</time>
      </trkpt>
      <trkpt lat="45.43754" lon="4.57389">
        <ele>436.18</ele>
        <time>2017-03-26T10:45:04Z</time>
      </trkpt>
      <trkpt lat="45.43742" lon="4.57387">
        <ele>436.38</ele>
        <time>2017-03-26T10:45:05Z</time>
      </trkpt>
      <trkpt lat="45.4373" lon="4.57387">
        <ele>436.66</ele>
        <time>2017-03-26T10:45:06Z</time>
      </trkpt>
      <trkpt lat="45.43719" lon="4.57388">
        <ele>436.96</ele>
        <time>2017-03-26T10:45:07Z</time>
      </trkpt>
      <trkpt lat="45.43709" lon="4.5739">
        <ele>437.26</ele>
        <time>2017-03-26T10:45:08Z</time>
      </trkpt>
      <trkpt lat="45.43699" lon="4.57393">
        <ele>437.48</ele>
        <time>2017-03-26T10:45:09Z</time>
      </trkpt>
      <trkpt lat="45.43686" lon="4.57398">
        <ele>437.76</ele>
        <time>2017-03-26T10:45:10Z</time>
      </trkpt>
      <trkpt lat="45.43675" lon="4.57403">
        <ele>437.98</ele>
        <time>2017-03-26T10:45:11Z</time>
      </trkpt>
      <trkpt lat="45.43661" lon="4.5741">
        <ele>438.18</ele>
        <time>2017-03-26T10:45:12Z</time>
      </trkpt>
      <trkpt lat="45.43648" lon="4.57418">
        <ele>438.46</ele>
        <time>2017-03-26T10:45:13Z</time>
      </trkpt>
      <trkpt lat="45.43633" lon="4.57429">
        <ele>438.68</ele>
        <time>2017-03-26T10:45:14Z</time>
      </trkpt>
      <trkpt lat="45.43619" lon="4.57439">
        <ele>438.88</ele>
        <time>2017-03-26T10:45:15Z</time>
      </trkpt>
      <trkpt lat="45.43605" lon="4.57449">
        <ele>439.16</ele>
        <time>2017-03-26T10:45:16Z</time>
      </trkpt>
      <trkpt lat="45.43592" lon="4.57462">
        <ele>439.46</ele>
        <time>2017-03-26T10:45:17Z</time>
      </trkpt>
      <trkpt lat="45.43579" lon="4.5748">
        <ele>439.68</ele>
        <time>2017-03-26T10:45:18Z</time>
      </trkpt>
      <trkpt lat="45.43566" lon="4.57498">
        <ele>439.96</ele>
        <time>2017-03-26T10:45:19Z</time>
      </trkpt>
      <trkpt lat="45.43552" lon="4.57518">
        <ele>440.18</ele>
        <time>2017-03-26T10:45:20Z</time>
      </trkpt>
      <trkpt lat="45.43538" lon="4.57539">
        <ele>440.38</ele>
        <time>2017-03-26T10:45:21Z</time>
      </trkpt>
      <trkpt lat="45.43524" lon="4.57561">
        <ele>440.58</ele>
        <time>2017-03-26T10:45:22Z</time>
      </trkpt>
      <trkpt lat="45.43511" lon="4.57581">
        <ele>440.78</ele>
        <time>2017-03-26T10:45:23Z</time>
      </trkpt>
      <trkpt lat="45.43498" lon="4.57601">
        <ele>440.98</ele>
        <time>2017-03-26T10:45:24Z</time>
      </trkpt>
      <trkpt lat="45.43484" lon="4.57619">
        <ele>441.42</ele>
        <time>2017-03-26T10:45:25Z</time>
      </trkpt>
      <trkpt lat="45.43469" lon="4.57631">
        <ele>441.75</ele>
        <time>2017-03-26T10:45:26Z</time>
      </trkpt>
      <trkpt lat="45.43453" lon="4.57641">
        <ele>442.13</ele>
        <time>2017-03-26T10:45:27Z</time>
      </trkpt>
      <trkpt lat="45.43437" lon="4.57649">
        <ele>442.37</ele>
        <time>2017-03-26T10:45:28Z</time>
      </trkpt>
      <trkpt lat="45.43422" lon="4.57655">
        <ele>442.58</ele>
        <time>2017-03-26T10:45:29Z</time>
      </trkpt>
      <trkpt lat="45.43408" lon="4.57655">
        <ele>442.86</ele>
        <time>2017-03-26T10:45:30Z</time>
      </trkpt>
      <trkpt lat="45.43395" lon="4.57652">
        <ele>443.08</ele>
        <time>2017-03-26T10:45:31Z</time>
      </trkpt>
      <trkpt lat="45.43382" lon="4.57645">
        <ele>443.36</ele>
        <time>2017-03-26T10:45:32Z</time>
      </trkpt>
      <trkpt lat="45.4337" lon="4.57632">
        <ele>443.66</ele>
        <time>2017-03-26T10:45:33Z</time>
      </trkpt>
      <trkpt lat="45.43361" lon="4.57608">
        <ele>443.96</ele>
        <time>2017-03-26T10:45:34Z</time>
      </trkpt>
      <trkpt lat="45.43349" lon="4.57586">
        <ele>444.5</ele>
        <time>2017-03-26T10:45:35Z</time>
      </trkpt>
      <trkpt lat="45.43337" lon="4.5757">
        <ele>444.84</ele>
        <time>2017-03-26T10:45:36Z</time>
      </trkpt>
      <trkpt lat="45.43324" lon="4.57558">
        <ele>445.23</ele>
        <time>2017-03-26T10:45:37Z</time>
      </trkpt>
      <trkpt lat="45.43311" lon="4.57551">
        <ele>445.63</ele>
        <time>2017-03-26T10:45:38Z</time>
      </trkpt>
      <trkpt lat="45.43298" lon="4.57548">
        <ele>445.95</ele>
        <time>2017-03-26T10:45:39Z</time>
      </trkpt>
      <trkpt lat="45.43284" lon="4.57554">
        <ele>446.41</ele>
        <time>2017-03-26T10:45:40Z</time>
      </trkpt>
      <trkpt lat="45.43266" lon="4.57569">
        <ele>446.91</ele>
        <time>2017-03-26T10:45:41Z</time>
      </trkpt>
      <trkpt lat="45.4325" lon="4.57586">
        <ele>447.33</ele>
        <time>2017-03-26T10:45:42Z</time>
      </trkpt>
      <trkpt lat="45.43235" lon="4.57603">
        <ele>447.65</ele>
        <time>2017-03-26T10:45:43Z</time>
      </trkpt>
      <trkpt lat="45.43218" lon="4.57622">
        <ele>448.03</ele>
        <time>2017-03-26T10:45:44Z</time>
      </trkpt>
      <trkpt lat="45.43202" lon="4.5764">
        <ele>448.27</ele>
        <time>2017-03-26T10:45:45Z</time>
      </trkpt>
      <trkpt lat="45.43183" lon="4.57657">
        <ele>448.64</ele>
        <time>2017-03-26T10:45:46Z</time>
      </trkpt>
      <trkpt lat="45.43165" lon="4.57673">
        <ele>449.03</ele>
        <time>2017-03-26T10:45:47Z</time>
      </trkpt>
      <trkpt lat="45.43148" lon="4.57693">
        <ele>449.51</ele>
        <time>2017-03-26T10:45:48Z</time>
      </trkpt>
      <trkpt lat="45.43133" lon="4.57715">
        <ele>449.85</ele>
        <time>2017-03-26T10:45:49Z</time>
      </trkpt>
      <trkpt lat="45.43118" lon="4.57738">
        <ele>450.15</ele>
        <time>2017-03-26T10:45:50Z</time>
      </trkpt>
      <trkpt lat="45.43103" lon="4.5776">
        <ele>450.45</ele>
        <time>2017-03-26T10:45:51Z</time>
      </trkpt>
      <trkpt lat="45.43088" lon="4.5778">
        <ele>450.83</ele>
        <time>2017-03-26T10:45:52Z</time>
      </trkpt>
      <trkpt lat="45.4307" lon="4.57797">
        <ele>451.15</ele>
        <time>2017-03-26T10:45:53Z</time>
      </trkpt>
      <trkpt lat="45.43054" lon="4.57815">
        <ele>451.53</ele>
        <time>2017-03-26T10:45:54Z</time>
      </trkpt>
      <trkpt lat="45.43036" lon="4.57836">
        <ele>451.93</ele>
        <time>2017-03-26T10:45:55Z</time>
      </trkpt>
      <trkpt lat="45.43019" lon="4.57857">
        <ele>452.25</ele>
        <time>2017-03-26T10:45:56Z</time>
      </trkpt>
      <trkpt lat="45.43004" lon="4.57879">
        <ele>452.63</ele>
        <time>2017-03-26T10:45:57Z</time>
      </trkpt>
      <trkpt lat="45.42988" lon="4.57901">
        <ele>453.27</ele>
        <time>2017-03-26T10:45:58Z</time>
      </trkpt>
      <trkpt lat="45.42972" lon="4.57925">
        <ele>453.72</ele>
        <time>2017-03-26T10:45:59Z</time>
      </trkpt>
      <trkpt lat="45.42956" lon="4.57949">
        <ele>454.37</ele>
        <time>2017-03-26T10:46:00Z</time>
      </trkpt>
      <trkpt lat="45.4294" lon="4.57977">
        <ele>455.06</ele>
        <time>2017-03-26T10:46:01Z</time>
      </trkpt>
      <trkpt lat="45.42925" lon="4.58005">
        <ele>455.6</ele>
        <time>2017-03-26T10:46:02Z</time>
      </trkpt>
      <trkpt lat="45.4291" lon="4.58033">
        <ele>456.1</ele>
        <time>2017-03-26T10:46:03Z</time>
      </trkpt>
      <trkpt lat="45.42896" lon="4.58062">
        <ele>456.52</ele>
        <time>2017-03-26T10:46:04Z</time>
      </trkpt>
      <trkpt lat="45.42883" lon="4.58092">
        <ele>457.09</ele>
        <time>2017-03-26T10:46:05Z</time>
      </trkpt>
      <trkpt lat="45.42869" lon="4.58119">
        <ele>457.68</ele>
        <time>2017-03-26T10:46:06Z</time>
      </trkpt>
      <trkpt lat="45.42854" lon="4.58146">
        <ele>458.44</ele>
        <time>2017-03-26T10:46:07Z</time>
      </trkpt>
      <trkpt lat="45.42838" lon="4.58174">
        <ele>459.47</ele>
        <time>2017-03-26T10:46:08Z</time>
      </trkpt>
      <trkpt lat="45.42823" lon="4.582">
        <ele>460.16</ele>
        <time>2017-03-26T10:46:09Z</time>
      </trkpt>
      <trkpt lat="45.42808" lon="4.58226">
        <ele>460.86</ele>
        <time>2017-03-26T10:46:10Z</time>
      </trkpt>
      <trkpt lat="45.42794" lon="4.5825">
        <ele>461.64</ele>
        <time>2017-03-26T10:46:11Z</time>
      </trkpt>
      <trkpt lat="45.42779" lon="4.58274">
        <ele>462.35</ele>
        <time>2017-03-26T10:46:12Z</time>
      </trkpt>
      <trkpt lat="45.42765" lon="4.58294">
        <ele>463.13</ele>
        <time>2017-03-26T10:46:13Z</time>
      </trkpt>
      <trkpt lat="45.42753" lon="4.58314">
        <ele>463.77</ele>
        <time>2017-03-26T10:46:14Z</time>
      </trkpt>
      <trkpt lat="45.42743" lon="4.58333">
        <ele>464.38</ele>
        <time>2017-03-26T10:46:15Z</time>
      </trkpt>
      <trkpt lat="45.42734" lon="4.5835">
        <ele>465.06</ele>
        <time>2017-03-26T10:46:16Z</time>
      </trkpt>
      <trkpt lat="45.42727" lon="4.58368">
        <ele>465.6</ele>
        <time>2017-03-26T10:46:17Z</time>
      </trkpt>
      <trkpt lat="45.42745" lon="4.58378">
        <ele>466.26</ele>
        <time>2017-03-26T10:46:18Z</time>
      </trkpt>
      <trkpt lat="45.42744" lon="4.58389">
        <ele>466.72</ele>
        <time>2017-03-26T10:46:19Z</time>
      </trkpt>
      <trkpt lat="45.42745" lon="4.58395">
        <ele>467.13</ele>
        <time>2017-03-26T10:46:20Z</time>
      </trkpt>
      <trkpt lat="45.42746" lon="4.58397">
        <ele>467.61</ele>
        <time>2017-03-26T10:46:21Z</time>
      </trkpt>
      <trkpt lat="45.42754" lon="4.58397">
        <ele>468.43</ele>
        <time>2017-03-26T10:46:22Z</time>
      </trkpt>
      <trkpt lat="45.42762" lon="4.58395">
        <ele>469.39</ele>
        <time>2017-03-26T10:46:23Z</time>
      </trkpt>
      <trkpt lat="45.42764" lon="4.58395">
        <ele>469.98</ele>
        <time>2017-03-26T10:46:24Z</time>
      </trkpt>
      <trkpt lat="45.42768" lon="4.58393">
        <ele>470.66</ele>
        <time>2017-03-26T10:46:25Z</time>
      </trkpt>
      <trkpt lat="45.42771" lon="4.58392">
        <ele>470.96</ele>
        <time>2017-03-26T10:46:26Z</time>
      </trkpt>
      <trkpt lat="45.42771" lon="4.58392">
        <ele>471.02</ele>
        <time>2017-03-26T10:46:27Z</time>
      </trkpt>
      <trkpt lat="45.42771" lon="4.58392">
        <ele>471.03</ele>
        <time>2017-03-26T10:46:28Z</time>
      </trkpt>
      <trkpt lat="45.42771" lon="4.58392">
        <ele>471.03</ele>
        <time>2017-03-26T10:46:29Z</time>
      </trkpt>
      <trkpt lat="45.42771" lon="4.58392">
        <ele>471.03</ele>
        <time>2017-03-26T10:46:30Z</time>
      </trkpt>
      <trkpt lat="45.42771" lon="4.58392">
        <ele>471.03</ele>
        <time>2017-03-26T10:46:31Z</time>
      </trkpt>
      <trkpt lat="45.42771" lon="4.58392">
        <ele>471.03</ele>
        <time>2017-03-26T10:46:32Z</time>
      </trkpt>
      <trkpt lat="45.42771" lon="4.58392">
        <ele>471.03</ele>
        <time>2017-03-26T10:46:33Z</time>
      </trkpt>
      <trkpt lat="45.42771" lon="4.58392">
        <ele>471.03</ele>
        <time>2017-03-26T10:46:34Z</time>
      </trkpt>
      <trkpt lat="45.42771" lon="4.58392">
        <ele>471.03</ele>
        <time>2017-03-26T10:46:35Z</time>
      </trkpt>
      <trkpt lat="45.42771" lon="4.58392">
        <ele>471.03</ele>
        <time>2017-03-26T10:46:36Z</time>
      </trkpt>
      <trkpt lat="45.42771" lon="4.58392">
        <ele>471.03</ele>
        <time>2017-03-26T10:46:37Z</time>
      </trkpt>
      <trkpt lat="45.42771" lon="4.58392">
        <ele>471.03</ele>
        <time>2017-03-26T10:46:38Z</time>
      </trkpt>
      <trkpt lat="45.42771" lon="4.58392">
        <ele>471.03</ele>
        <time>2017-03-26T10:46:39Z</time>
      </trkpt>
      <trkpt lat="45.42771" lon="4.58392">
        <ele>471.03</ele>
        <time>2017-03-26T10:46:40Z</time>
      </trkpt>
      <trkpt lat="45.42771" lon="4.58392">
        <ele>471.03</ele>
        <time>2017-03-26T10:46:41Z</time>
      </trkpt>
      <trkpt lat="45.42771" lon="4.58392">
        <ele>471.03</ele>
        <time>2017-03-26T10:46:42Z</time>
      </trkpt>
      <trkpt lat="45.42771" lon="4.58392">
        <ele>471.03</ele>
        <time>2017-03-26T10:46:43Z</time>
      </trkpt>
      <trkpt lat="45.42771" lon="4.58392">
        <ele>471.03</ele>
        <time>2017-03-26T10:46:44Z</time>
      </trkpt>
      <trkpt lat="45.42771" lon="4.58392">
        <ele>471.03</ele>
        <time>2017-03-26T10:46:45Z</time>
      </trkpt>
      <trkpt lat="45.42771" lon="4.58392">
        <ele>471.03</ele>
        <time>2017-03-26T10:46:46Z</time>
      </trkpt>
      <trkpt lat="45.42771" lon="4.58392">
        <ele>471.03</ele>
        <time>2017-03-26T10:46:47Z</time>
      </trkpt>
      <trkpt lat="45.42771" lon="4.58392">
        <ele>471.03</ele>
        <time>2017-03-26T10:46:48Z</time>
      </trkpt>
      <trkpt lat="45.42771" lon="4.58392">
        <ele>471.03</ele>
        <time>2017-03-26T10:46:49Z</time>
      </trkpt>
      <trkpt lat="45.42771" lon="4.58392">
        <ele>471.03</ele>
        <time>2017-03-26T10:46:50Z</time>
      </trkpt>
      <trkpt lat="45.42771" lon="4.58392">
        <ele>471.03</ele>
        <time>2017-03-26T10:46:51Z</time>
      </trkpt>
      <trkpt lat="45.42771" lon="4.58392">
        <ele>471.03</ele>
        <time>2017-03-26T10:46:52Z</time>
      </trkpt>
      <trkpt lat="45.42771" lon="4.58392">
        <ele>471.03</ele>
        <time>2017-03-26T10:46:53Z</time>
      </trkpt>
      <trkpt lat="45.42771" lon="4.5839">
        <ele>471.35</ele>
        <time>2017-03-26T10:46:54Z</time>
      </trkpt>
      <trkpt lat="45.42768" lon="4.58389">
        <ele>471.41</ele>
        <time>2017-03-26T10:46:55Z</time>
      </trkpt>
      <trkpt lat="45.42764" lon="4.58385">
        <ele>471.43</ele>
        <time>2017-03-26T10:46:56Z</time>
      </trkpt>
      <trkpt lat="45.42761" lon="4.58379">
        <ele>471.51</ele>
        <time>2017-03-26T10:46:57Z</time>
      </trkpt>
      <trkpt lat="45.42761" lon="4.5837">
        <ele>471.53</ele>
        <time>2017-03-26T10:46:58Z</time>
      </trkpt>
      <trkpt lat="45.42761" lon="4.5836">
        <ele>471.61</ele>
        <time>2017-03-26T10:46:59Z</time>
      </trkpt>
      <trkpt lat="45.42763" lon="4.58348">
        <ele>471.71</ele>
        <time>2017-03-26T10:47:00Z</time>
      </trkpt>
      <trkpt lat="45.42764" lon="4.58333">
        <ele>471.81</ele>
        <time>2017-03-26T10:47:01Z</time>
      </trkpt>
      <trkpt lat="45.42766" lon="4.58317">
        <ele>471.99</ele>
        <time>2017-03-26T10:47:02Z</time>
      </trkpt>
      <trkpt lat="45.42769" lon="4.58302">
        <ele>472.1</ele>
        <time>2017-03-26T10:47:03Z</time>
      </trkpt>
      <trkpt lat="45.42773" lon="4.58286">
        <ele>472.2</ele>
        <time>2017-03-26T10:47:04Z</time>
      </trkpt>
      <trkpt lat="45.42777" lon="4.5827">
        <ele>472.38</ele>
        <time>2017-03-26T10:47:05Z</time>
      </trkpt>
      <trkpt lat="45.42782" lon="4.58253">
        <ele>472.58</ele>
        <time>2017-03-26T10:47:06Z</time>
      </trkpt>
      <trkpt lat="45.42789" lon="4.58235">
        <ele>472.7</ele>
        <time>2017-03-26T10:47:07Z</time>
      </trkpt>
      <trkpt lat="45.42795" lon="4.58216">
        <ele>472.88</ele>
        <time>2017-03-26T10:47:08Z</time>
      </trkpt>
      <trkpt lat="45.42804" lon="4.58196">
        <ele>473</ele>
        <time>2017-03-26T10:47:09Z</time>
      </trkpt>
      <trkpt lat="45.4281" lon="4.58176">
        <ele>473.18</ele>
        <time>2017-03-26T10:47:10Z</time>
      </trkpt>
      <trkpt lat="45.42817" lon="4.58155">
        <ele>473.3</ele>
        <time>2017-03-26T10:47:11Z</time>
      </trkpt>
      <trkpt lat="45.42823" lon="4.58133">
        <ele>473.48</ele>
        <time>2017-03-26T10:47:12Z</time>
      </trkpt>
      <trkpt lat="45.4283" lon="4.58107">
        <ele>473.6</ele>
        <time>2017-03-26T10:47:13Z</time>
      </trkpt>
      <trkpt lat="45.4284" lon="4.58085">
        <ele>473.78</ele>
        <time>2017-03-26T10:47:14Z</time>
      </trkpt>
      <trkpt lat="45.42843" lon="4.58063">
        <ele>473.98</ele>
        <time>2017-03-26T10:47:15Z</time>
      </trkpt>
      <trkpt lat="45.42846" lon="4.5804">
        <ele>474.18</ele>
        <time>2017-03-26T10:47:16Z</time>
      </trkpt>
      <trkpt lat="45.4285" lon="4.58016">
        <ele>474.3</ele>
        <time>2017-03-26T10:47:17Z</time>
      </trkpt>
      <trkpt lat="45.42853" lon="4.57991">
        <ele>474.48</ele>
        <time>2017-03-26T10:47:18Z</time>
      </trkpt>
      <trkpt lat="45.42857" lon="4.57967">
        <ele>474.68</ele>
        <time>2017-03-26T10:47:19Z</time>
      </trkpt>
      <trkpt lat="45.42861" lon="4.57942">
        <ele>474.88</ele>
        <time>2017-03-26T10:47:20Z</time>
      </trkpt>
      <trkpt lat="45.42866" lon="4.57917">
        <ele>475.16</ele>
        <time>2017-03-26T10:47:21Z</time>
      </trkpt>
      <trkpt lat="45.4287" lon="4.57891">
        <ele>475.38</ele>
        <time>2017-03-26T10:47:22Z</time>
      </trkpt>
      <trkpt lat="45.42875" lon="4.57865">
        <ele>475.58</ele>
        <time>2017-03-26T10:47:23Z</time>
      </trkpt>
      <trkpt lat="45.4288" lon="4.5784">
        <ele>475.78</ele>
        <time>2017-03-26T10:47:24Z</time>
      </trkpt>
      <trkpt lat="45.42884" lon="4.57814">
        <ele>475.98</ele>
        <time>2017-03-26T10:47:25Z</time>
      </trkpt>
      <trkpt lat="45.42887" lon="4.57788">
        <ele>476.18</ele>
        <time>2017-03-26T10:47:26Z</time>
      </trkpt>
      <trkpt lat="45.4289" lon="4.57765">
        <ele>476.46</ele>
        <time>2017-03-26T10:47:27Z</time>
      </trkpt>
      <trkpt lat="45.42891" lon="4.57743">
        <ele>476.68</ele>
        <time>2017-03-26T10:47:28Z</time>
      </trkpt>
      <trkpt lat="45.42889" lon="4.57724">
        <ele>476.8</ele>
        <time>2017-03-26T10:47:29Z</time>
      </trkpt>
      <trkpt lat="45.42886" lon="4.57708">
        <ele>476.98</ele>
        <time>2017-03-26T10:47:30Z</time>
      </trkpt>
      <trkpt lat="45.42883" lon="4.57693">
        <ele>477.18</ele>
        <time>2017-03-26T10:47:31Z</time>
      </trkpt>
      <trkpt lat="45.42879" lon="4.57679">
        <ele>477.3</ele>
        <time>2017-03-26T10:47:32Z</time>
      </trkpt>
      <trkpt lat="45.42874" lon="4.57666">
        <ele>477.4</ele>
        <time>2017-03-26T10:47:33Z</time>
      </trkpt>
      <trkpt lat="45.42867" lon="4.57653">
        <ele>477.58</ele>
        <time>2017-03-26T10:47:34Z</time>
      </trkpt>
      <trkpt lat="45.42859" lon="4.57639">
        <ele>477.7</ele>
        <time>2017-03-26T10:47:35Z</time>
      </trkpt>
      <trkpt lat="45.42853" lon="4.57625">
        <ele>477.88</ele>
        <time>2017-03-26T10:47:36Z</time>
      </trkpt>
      <trkpt lat="45.42854" lon="4.57611">
        <ele>478.08</ele>
        <time>2017-03-26T10:47:37Z</time>
      </trkpt>
      <trkpt lat="45.42854" lon="4.57598">
        <ele>478.28</ele>
        <time>2017-03-26T10:47:38Z</time>
      </trkpt>
      <trkpt lat="45.42856" lon="4.57584">
        <ele>478.4</ele>
        <time>2017-03-26T10:47:39Z</time>
      </trkpt>
      <trkpt lat="45.42858" lon="4.57568">
        <ele>478.58</ele>
        <time>2017-03-26T10:47:40Z</time>
      </trkpt>
      <trkpt lat="45.4286" lon="4.57552">
        <ele>478.78</ele>
        <time>2017-03-26T10:47:41Z</time>
      </trkpt>
      <trkpt lat="45.4286" lon="4.57533">
        <ele>478.98</ele>
        <time>2017-03-26T10:47:42Z</time>
      </trkpt>
      <trkpt lat="45.4286" lon="4.57513">
        <ele>479.18</ele>
        <time>2017-03-26T10:47:43Z</time>
      </trkpt>
      <trkpt lat="45.42858" lon="4.57491">
        <ele>479.46</ele>
        <time>2017-03-26T10:47:44Z</time>
      </trkpt>
      <trkpt lat="45.42857" lon="4.57469">
        <ele>479.76</ele>
        <time>2017-03-26T10:47:45Z</time>
      </trkpt>
      <trkpt lat="45.42856" lon="4.57446">
        <ele>480.14</ele>
        <time>2017-03-26T10:47:46Z</time>
      </trkpt>
      <trkpt lat="45.42856" lon="4.57424">
        <ele>480.45</ele>
        <time>2017-03-26T10:47:47Z</time>
      </trkpt>
      <trkpt lat="45.42856" lon="4.57402">
        <ele>480.83</ele>
        <time>2017-03-26T10:47:48Z</time>
      </trkpt>
      <trkpt lat="45.42858" lon="4.5738">
        <ele>481.31</ele>
        <time>2017-03-26T10:47:49Z</time>
      </trkpt>
      <trkpt lat="45.42859" lon="4.57359">
        <ele>481.73</ele>
        <time>2017-03-26T10:47:50Z</time>
      </trkpt>
      <trkpt lat="45.42863" lon="4.57336">
        <ele>482.21</ele>
        <time>2017-03-26T10:47:51Z</time>
      </trkpt>
      <trkpt lat="45.42866" lon="4.57313">
        <ele>482.71</ele>
        <time>2017-03-26T10:47:52Z</time>
      </trkpt>
      <trkpt lat="45.42869" lon="4.57289">
        <ele>483.21</ele>
        <time>2017-03-26T10:47:53Z</time>
      </trkpt>
      <trkpt lat="45.42873" lon="4.57264">
        <ele>483.95</ele>
        <time>2017-03-26T10:47:54Z</time>
      </trkpt>
      <trkpt lat="45.42876" lon="4.57241">
        <ele>484.49</ele>
        <time>2017-03-26T10:47:55Z</time>
      </trkpt>
      <trkpt lat="45.42882" lon="4.57218">
        <ele>485</ele>
        <time>2017-03-26T10:47:56Z</time>
      </trkpt>
      <trkpt lat="45.42888" lon="4.57194">
        <ele>485.58</ele>
        <time>2017-03-26T10:47:57Z</time>
      </trkpt>
      <trkpt lat="45.42891" lon="4.57172">
        <ele>486.1</ele>
        <time>2017-03-26T10:47:58Z</time>
      </trkpt>
      <trkpt lat="45.42892" lon="4.5715">
        <ele>486.6</ele>
        <time>2017-03-26T10:47:59Z</time>
      </trkpt>
      <trkpt lat="45.42892" lon="4.57129">
        <ele>487.34</ele>
        <time>2017-03-26T10:48:00Z</time>
      </trkpt>
      <trkpt lat="45.42888" lon="4.57111">
        <ele>487.89</ele>
        <time>2017-03-26T10:48:01Z</time>
      </trkpt>
      <trkpt lat="45.42886" lon="4.57098">
        <ele>488.4</ele>
        <time>2017-03-26T10:48:02Z</time>
      </trkpt>
      <trkpt lat="45.42884" lon="4.57087">
        <ele>488.98</ele>
        <time>2017-03-26T10:48:03Z</time>
      </trkpt>
      <trkpt lat="45.42882" lon="4.5708">
        <ele>489.58</ele>
        <time>2017-03-26T10:48:04Z</time>
      </trkpt>
      <trkpt lat="45.42881" lon="4.57075">
        <ele>489.94</ele>
        <time>2017-03-26T10:48:05Z</time>
      </trkpt>
      <trkpt lat="45.4288" lon="4.57073">
        <ele>490.49</ele>
        <time>2017-03-26T10:48:06Z</time>
      </trkpt>
      <trkpt lat="45.4288" lon="4.57072">
        <ele>491.08</ele>
        <time>2017-03-26T10:48:07Z</time>
      </trkpt>
      <trkpt lat="45.4288" lon="4.57073">
        <ele>491.52</ele>
        <time>2017-03-26T10:48:08Z</time>
      </trkpt>
      <trkpt lat="45.42879" lon="4.57074">
        <ele>492.17</ele>
        <time>2017-03-26T10:48:09Z</time>
      </trkpt>
      <trkpt lat="45.42878" lon="4.57076">
        <ele>492.78</ele>
        <time>2017-03-26T10:48:10Z</time>
      </trkpt>
      <trkpt lat="45.42878" lon="4.57076">
        <ele>492.9</ele>
        <time>2017-03-26T10:48:11Z</time>
      </trkpt>
      <trkpt lat="45.42878" lon="4.57076">
        <ele>492.92</ele>
        <time>2017-03-26T10:48:12Z</time>
      </trkpt>
      <trkpt lat="45.42878" lon="4.57076">
        <ele>492.93</ele>
        <time>2017-03-26T10:48:13Z</time>
      </trkpt>
      <trkpt lat="45.42878" lon="4.57076">
        <ele>492.93</ele>
        <time>2017-03-26T10:48:14Z</time>
      </trkpt>
      <trkpt lat="45.42878" lon="4.57076">
        <ele>492.93</ele>
        <time>2017-03-26T10:48:15Z</time>
      </trkpt>
      <trkpt lat="45.42878" lon="4.57076">
        <ele>492.93</ele>
        <time>2017-03-26T10:48:16Z</time>
      </trkpt>
      <trkpt lat="45.42878" lon="4.57076">
        <ele>492.93</ele>
        <time>2017-03-26T10:48:17Z</time>
      </trkpt>
      <trkpt lat="45.42878" lon="4.57076">
        <ele>492.93</ele>
        <time>2017-03-26T10:48:18Z</time>
      </trkpt>
      <trkpt lat="45.42878" lon="4.57076">
        <ele>492.93</ele>
        <time>2017-03-26T10:48:19Z</time>
      </trkpt>
      <trkpt lat="45.42878" lon="4.57076">
        <ele>492.93</ele>
        <time>2017-03-26T10:48:20Z</time>
      </trkpt>
      <trkpt lat="45.42878" lon="4.57076">
        <ele>492.93</ele>
        <time>2017-03-26T10:48:21Z</time>
      </trkpt>
      <trkpt lat="45.42878" lon="4.57076">
        <ele>492.93</ele>
        <time>2017-03-26T10:48:22Z</time>
      </trkpt>
      <trkpt lat="45.42878" lon="4.57076">
        <ele>492.93</ele>
        <time>2017-03-26T10:48:23Z</time>
      </trkpt>
      <trkpt lat="45.42878" lon="4.57076">
        <ele>492.93</ele>
        <time>2017-03-26T10:48:24Z</time>
      </trkpt>
      <trkpt lat="45.42878" lon="4.57076">
        <ele>492.93</ele>
        <time>2017-03-26T10:48:25Z</time>
      </trkpt>
      <trkpt lat="45.42878" lon="4.57076">
        <ele>492.93</ele>
        <time>2017-03-26T10:48:26Z</time>
      </trkpt>
      <trkpt lat="45.42878" lon="4.57076">
        <ele>492.93</ele>
        <time>2017-03-26T10:48:27Z</time>
      </trkpt>
      <trkpt lat="45.42878" lon="4.57076">
        <ele>492.93</ele>
        <time>2017-03-26T10:48:28Z</time>
      </trkpt>
      <trkpt lat="45.42878" lon="4.57076">
        <ele>492.93</ele>
        <time>2017-03-26T10:48:29Z</time>
      </trkpt>
      <trkpt lat="45.42878" lon="4.57076">
        <ele>492.93</ele>
        <time>2017-03-26T10:48:30Z</time>
      </trkpt>
      <trkpt lat="45.42878" lon="4.57076">
        <ele>492.93</ele>
        <time>2017-03-26T10:48:31Z</time>
      </trkpt>
      <trkpt lat="45.42878" lon="4.57076">
        <ele>492.93</ele>
        <time>2017-03-26T10:48:32Z</time>
      </trkpt>
      <trkpt lat="45.42878" lon="4.57076">
        <ele>492.93</ele>
        <time>2017-03-26T10:48:33Z</time>
      </trkpt>
      <trkpt lat="45.42878" lon="4.57076">
        <ele>492.93</ele>
        <time>2017-03-26T10:48:34Z</time>
      </trkpt>
      <trkpt lat="45.42878" lon="4.57076">
        <ele>492.93</ele>
        <time>2017-03-26T10:48:35Z</time>
      </trkpt>
      <trkpt lat="45.42878" lon="4.57076">
        <ele>492.93</ele>
        <time>2017-03-26T10:48:36Z</time>
      </trkpt>
      <trkpt lat="45.42878" lon="4.57076">
        <ele>492.93</ele>
        <time>2017-03-26T10:48:37Z</time>
      </trkpt>
      <trkpt lat="45.42878" lon="4.57076">
        <ele>492.93</ele>
        <time>2017-03-26T10:48:38Z</time>
      </trkpt>
      <trkpt lat="45.42878" lon="4.57076">
        <ele>492.93</ele>
        <time>2017-03-26T10:48:39Z</time>
      </trkpt>
      <trkpt lat="45.42878" lon="4.57076">
        <ele>492.93</ele>
        <time>2017-03-26T10:48:40Z</time>
      </trkpt>
      <trkpt lat="45.42878" lon="4.57076">
        <ele>492.93</ele>
        <time>2017-03-26T10:48:41Z</time>
      </trkpt>
      <trkpt lat="45.42878" lon="4.57076">
        <ele>492.93</ele>
        <time>2017-03-26T10:48:42Z</time>
      </trkpt>
      <trkpt lat="45.42878" lon="4.57076">
        <ele>492.93</ele>
        <time>2017-03-26T10:48:43Z</time>
      </trkpt>
      <trkpt lat="45.42878" lon="4.57076">
        <ele>492.93</ele>
        <time>2017-03-26T10:48:44Z</time>
      </trkpt>
      <trkpt lat="45.42878" lon="4.57076">
        <ele>492.93</ele>
        <time>2017-03-26T10:48:45Z</time>
      </trkpt>
      <trkpt lat="45.42875" lon="4.57075">
        <ele>493.73</ele>
        <time>2017-03-26T10:48:46Z</time>
      </trkpt>
      <trkpt lat="45.42871" lon="4.57069">
        <ele>493.97</ele>
        <time>2017-03-26T10:48:47Z</time>
      </trkpt>
      <trkpt lat="45.42867" lon="4.57062">
        <ele>494.02</ele>
        <time>2017-03-26T10:48:48Z</time>
      </trkpt>
      <trkpt lat="45.42863" lon="4.57053">
        <ele>494.03</ele>
        <time>2017-03-26T10:48:49Z</time>
      </trkpt>
      <trkpt lat="45.42857" lon="4.57043">
        <ele>494.11</ele>
        <time>2017-03-26T10:48:50Z</time>
      </trkpt>
      <trkpt lat="45.42849" lon="4.57032">
        <ele>494.13</ele>
        <time>2017-03-26T10:48:51Z</time>
      </trkpt>
      <trkpt lat="45.4284" lon="4.57021">
        <ele>494.21</ele>
        <time>2017-03-26T10:48:52Z</time>
      </trkpt>
      <trkpt lat="45.4283" lon="4.5701">
        <ele>494.23</ele>
        <time>2017-03-26T10:48:53Z</time>
      </trkpt>
      <trkpt lat="45.42819" lon="4.56997">
        <ele>494.31</ele>
        <time>2017-03-26T10:48:54Z</time>
      </trkpt>
      <trkpt lat="45.42808" lon="4.56984">
        <ele>494.41</ele>
        <time>2017-03-26T10:48:55Z</time>
      </trkpt>
      <trkpt lat="45.42795" lon="4.56972">
        <ele>494.51</ele>
        <time>2017-03-26T10:48:56Z</time>
      </trkpt>
      <trkpt lat="45.4278" lon="4.5696">
        <ele>494.61</ele>
        <time>2017-03-26T10:48:57Z</time>
      </trkpt>
      <trkpt lat="45.42765" lon="4.56947">
        <ele>494.79</ele>
        <time>2017-03-26T10:48:58Z</time>
      </trkpt>
      <trkpt lat="45.42749" lon="4.56935">
        <ele>494.9</ele>
        <time>2017-03-26T10:48:59Z</time>
      </trkpt>
      <trkpt lat="45.42734" lon="4.56922">
        <ele>495</ele>
        <time>2017-03-26T10:49:00Z</time>
      </trkpt>
      <trkpt lat="45.42717" lon="4.56906">
        <ele>495.18</ele>
        <time>2017-03-26T10:49:01Z</time>
      </trkpt>
      <trkpt lat="45.42702" lon="4.56891">
        <ele>495.3</ele>
        <time>2017-03-26T10:49:02Z</time>
      </trkpt>
      <trkpt lat="45.42686" lon="4.56873">
        <ele>495.48</ele>
        <time>2017-03-26T10:49:03Z</time>
      </trkpt>
      <trkpt lat="45.4267" lon="4.56854">
        <ele>495.6</ele>
        <time>2017-03-26T10:49:04Z</time>
      </trkpt>
      <trkpt lat="45.42656" lon="4.56833">
        <ele>495.78</ele>
        <time>2017-03-26T10:49:05Z</time>
      </trkpt>
      <trkpt lat="45.42642" lon="4.56812">
        <ele>495.98</ele>
        <time>2017-03-26T10:49:06Z</time>
      </trkpt>
      <trkpt lat="45.42629" lon="4.56789">
        <ele>496.1</ele>
        <time>2017-03-26T10:49:07Z</time>
      </trkpt>
      <trkpt lat="45.42616" lon="4.56767">
        <ele>496.28</ele>
        <time>2017-03-26T10:49:08Z</time>
      </trkpt>
      <trkpt lat="45.42603" lon="4.56745">
        <ele>496.48</ele>
        <time>2017-03-26T10:49:09Z</time>
      </trkpt>
      <trkpt lat="45.42591" lon="4.56723">
        <ele>496.68</ele>
        <time>2017-03-26T10:49:10Z</time>
      </trkpt>
      <trkpt lat="45.42579" lon="4.56701">
        <ele>496.88</ele>
        <time>2017-03-26T10:49:11Z</time>
      </trkpt>
      <trkpt lat="45.42569" lon="4.56679">
        <ele>497.08</ele>
        <time>2017-03-26T10:49:12Z</time>
      </trkpt>
      <trkpt lat="45.42559" lon="4.56659">
        <ele>497.28</ele>
        <time>2017-03-26T10:49:13Z</time>
      </trkpt>
      <trkpt lat="45.4255" lon="4.56639">
        <ele>497.48</ele>
        <time>2017-03-26T10:49:14Z</time>
      </trkpt>
      <trkpt lat="45.42541" lon="4.56622">
        <ele>497.76</ele>
        <time>2017-03-26T10:49:15Z</time>
      </trkpt>
      <trkpt lat="45.42534" lon="4.56607">
        <ele>497.98</ele>
        <time>2017-03-26T10:49:16Z</time>
      </trkpt>
      <trkpt lat="45.42526" lon="4.56593">
        <ele>498.18</ele>
        <time>2017-03-26T10:49:17Z</time>
      </trkpt>
      <trkpt lat="45.42517" lon="4.56578">
        <ele>498.46</ele>
        <time>2017-03-26T10:49:18Z</time>
      </trkpt>
      <trkpt lat="45.42508" lon="4.56565">
        <ele>498.76</ele>
        <time>2017-03-26T10:49:19Z</time>
      </trkpt>
      <trkpt lat="45.42496" lon="4.56553">
        <ele>499.06</ele>
        <time>2017-03-26T10:49:20Z</time>
      </trkpt>
      <trkpt lat="45.42484" lon="4.56538">
        <ele>499.36</ele>
        <time>2017-03-26T10:49:21Z</time>
      </trkpt>
      <trkpt lat="45.42472" lon="4.56525">
        <ele>499.65</ele>
        <time>2017-03-26T10:49:22Z</time>
      </trkpt>
      <trkpt lat="45.42461" lon="4.56511">
        <ele>499.95</ele>
        <time>2017-03-26T10:49:23Z</time>
      </trkpt>
      <trkpt lat="45.4245" lon="4.56497">
        <ele>500.49</ele>
        <time>2017-03-26T10:49:24Z</time>
      </trkpt>
      <trkpt lat="45.42438" lon="4.56482">
        <ele>500.84</ele>
        <time>2017-03-26T10:49:25Z</time>
      </trkpt>
      <trkpt lat="45.42427" lon="4.56468">
        <ele>501.15</ele>
        <time>2017-03-26T10:49:26Z</time>
      </trkpt>
      <trkpt lat="45.42413" lon="4.56455">
        <ele>501.45</ele>
        <time>2017-03-26T10:49:27Z</time>
      </trkpt>
      <trkpt lat="45.424" lon="4.56445">
        <ele>501.83</ele>
        <time>2017-03-26T10:49:28Z</time>
      </trkpt>
      <trkpt lat="45.42385" lon="4.56433">
        <ele>502.31</ele>
        <time>2017-03-26T10:49:29Z</time>
      </trkpt>
      <trkpt lat="45.42367" lon="4.56426">
        <ele>502.81</ele>
        <time>2017-03-26T10:49:30Z</time>
      </trkpt>
      <trkpt lat="45.42351" lon="4.5642">
        <ele>503.31</ele>
        <time>2017-03-26T10:49:31Z</time>
      </trkpt>
      <trkpt lat="45.42334" lon="4.56416">
        <ele>503.65</ele>
        <time>2017-03-26T10:49:32Z</time>
      </trkpt>
      <trkpt lat="45.42316" lon="4.56414">
        <ele>503.95</ele>
        <time>2017-03-26T10:49:33Z</time>
      </trkpt>
      <trkpt lat="45.42298" lon="4.5641">
        <ele>504.25</ele>
        <time>2017-03-26T10:49:34Z</time>
      </trkpt>
      <trkpt lat="45.42277" lon="4.5641">
        <ele>504.71</ele>
        <time>2017-03-26T10:49:35Z</time>
      </trkpt>
      <trkpt lat="45.42257" lon="4.56409">
        <ele>505.13</ele>
        <time>2017-03-26T10:49:36Z</time>
      </trkpt>
      <trkpt lat="45.42238" lon="4.56408">
        <ele>505.53</ele>
        <time>2017-03-26T10:49:37Z</time>
      </trkpt>
      <trkpt lat="45.42218" lon="4.56406">
        <ele>505.93</ele>
        <time>2017-03-26T10:49:38Z</time>
      </trkpt>
      <trkpt lat="45.42199" lon="4.56404">
        <ele>506.33</ele>
        <time>2017-03-26T10:49:39Z</time>
      </trkpt>
      <trkpt lat="45.4218" lon="4.56404">
        <ele>506.73</ele>
        <time>2017-03-26T10:49:40Z</time>
      </trkpt>
      <trkpt lat="45.42161" lon="4.56403">
        <ele>507.13</ele>
        <time>2017-03-26T10:49:41Z</time>
      </trkpt>
      <trkpt lat="45.42143" lon="4.56401">
        <ele>507.53</ele>
        <time>2017-03-26T10:49:42Z</time>
      </trkpt>
      <trkpt lat="45.42127" lon="4.564">
        <ele>508.01</ele>
        <time>2017-03-26T10:49:43Z</time>
      </trkpt>
      <trkpt lat="45.42112" lon="4.56397">
        <ele>508.51</ele>
        <time>2017-03-26T10:49:44Z</time>
      </trkpt>
      <trkpt lat="45.42099" lon="4.56393">
        <ele>508.93</ele>
        <time>2017-03-26T10:49:45Z</time>
      </trkpt>
      <trkpt lat="45.42085" lon="4.56391">
        <ele>509.25</ele>
        <time>2017-03-26T10:49:46Z</time>
      </trkpt>
      <trkpt lat="45.42069" lon="4.56392">
        <ele>509.63</ele>
        <time>2017-03-26T10:49:47Z</time>
      </trkpt>
      <trkpt lat="45.42054" lon="4.56392">
        <ele>509.95</ele>
        <time>2017-03-26T10:49:48Z</time>
      </trkpt>
      <trkpt lat="45.42039" lon="4.56393">
        <ele>510.33</ele>
        <time>2017-03-26T10:49:49Z</time>
      </trkpt>
      <trkpt lat="45.42022" lon="4.56389">
        <ele>510.97</ele>
        <time>2017-03-26T10:49:50Z</time>
      </trkpt>
      <trkpt lat="45.42005" lon="4.56386">
        <ele>511.5</ele>
        <time>2017-03-26T10:49:51Z</time>
      </trkpt>
      <trkpt lat="45.41988" lon="4.56383">
        <ele>512.08</ele>
        <time>2017-03-26T10:49:52Z</time>
      </trkpt>
      <trkpt lat="45.41971" lon="4.56378">
        <ele>512.52</ele>
        <time>2017-03-26T10:49:53Z</time>
      </trkpt>
      <trkpt lat="45.41952" lon="4.56367">
        <ele>513.97</ele>
        <time>2017-03-26T10:49:54Z</time>
      </trkpt>
      <trkpt lat="45.41934" lon="4.56356">
        <ele>515.06</ele>
        <time>2017-03-26T10:49:55Z</time>
      </trkpt>
      <trkpt lat="45.41916" lon="4.56349">
        <ele>515.76</ele>
        <time>2017-03-26T10:49:56Z</time>
      </trkpt>
      <trkpt lat="45.41898" lon="4.56342">
        <ele>516.62</ele>
        <time>2017-03-26T10:49:57Z</time>
      </trkpt>
      <trkpt lat="45.41881" lon="4.56339">
        <ele>517.35</ele>
        <time>2017-03-26T10:49:58Z</time>
      </trkpt>
      <trkpt lat="45.41864" lon="4.56338">
        <ele>518.45</ele>
        <time>2017-03-26T10:49:59Z</time>
      </trkpt>
      <trkpt lat="45.41849" lon="4.56339">
        <ele>519.55</ele>
        <time>2017-03-26T10:50:00Z</time>
      </trkpt>
      <trkpt lat="45.41836" lon="4.56341">
        <ele>520.41</ele>
        <time>2017-03-26T10:50:01Z</time>
      </trkpt>
      <trkpt lat="45.41822" lon="4.56343">
        <ele>520.99</ele>
        <time>2017-03-26T10:50:02Z</time>
      </trkpt>
      <trkpt lat="45.4181" lon="4.56344">
        <ele>521.5</ele>
        <time>2017-03-26T10:50:03Z</time>
      </trkpt>
      <trkpt lat="45.41798" lon="4.56342">
        <ele>522</ele>
        <time>2017-03-26T10:50:04Z</time>
      </trkpt>
      <trkpt lat="45.41788" lon="4.56339">
        <ele>522.5</ele>
        <time>2017-03-26T10:50:05Z</time>
      </trkpt>
      <trkpt lat="45.41781" lon="4.56332">
        <ele>523.16</ele>
        <time>2017-03-26T10:50:06Z</time>
      </trkpt>
      <trkpt lat="45.41774" lon="4.56328">
        <ele>523.94</ele>
        <time>2017-03-26T10:50:07Z</time>
      </trkpt>
      <trkpt lat="45.41765" lon="4.5632">
        <ele>524.65</ele>
        <time>2017-03-26T10:50:08Z</time>
      </trkpt>
      <trkpt lat="45.41757" lon="4.56315">
        <ele>526.39</ele>
        <time>2017-03-26T10:50:09Z</time>
      </trkpt>
      <trkpt lat="45.41755" lon="4.56304">
        <ele>527.7</ele>
        <time>2017-03-26T10:50:10Z</time>
      </trkpt>
      <trkpt lat="45.41759" lon="4.56293">
        <ele>529.24</ele>
        <time>2017-03-26T10:50:11Z</time>
      </trkpt>
      <trkpt lat="45.41763" lon="4.56281">
        <ele>530.99</ele>
        <time>2017-03-26T10:50:12Z</time>
      </trkpt>
      <trkpt lat="45.41766" lon="4.5627">
        <ele>532.06</ele>
        <time>2017-03-26T10:50:13Z</time>
      </trkpt>
      <trkpt lat="45.41773" lon="4.56259">
        <ele>532.84</ele>
        <time>2017-03-26T10:50:14Z</time>
      </trkpt>
      <trkpt lat="45.41781" lon="4.56248">
        <ele>533.63</ele>
        <time>2017-03-26T10:50:15Z</time>
      </trkpt>
      <trkpt lat="45.41792" lon="4.5624">
        <ele>534.67</ele>
        <time>2017-03-26T10:50:16Z</time>
      </trkpt>
      <trkpt lat="45.41808" lon="4.5623">
        <ele>536</ele>
        <time>2017-03-26T10:50:17Z</time>
      </trkpt>
      <trkpt lat="45.41825" lon="4.56221">
        <ele>536.9</ele>
        <time>2017-03-26T10:50:18Z</time>
      </trkpt>
      <trkpt lat="45.41845" lon="4.56209">
        <ele>537.8</ele>
        <time>2017-03-26T10:50:19Z</time>
      </trkpt>
      <trkpt lat="45.41879" lon="4.56203">
        <ele>539.5</ele>
        <time>2017-03-26T10:50:20Z</time>
      </trkpt>
      <trkpt lat="45.41888" lon="4.56196">
        <ele>540.48</ele>
        <time>2017-03-26T10:50:21Z</time>
      </trkpt>
      <trkpt lat="45.41912" lon="4.56191">
        <ele>542.28</ele>
        <time>2017-03-26T10:50:22Z</time>
      </trkpt>
      <trkpt lat="45.41923" lon="4.56181">
        <ele>543.36</ele>
        <time>2017-03-26T10:50:23Z</time>
      </trkpt>
      <trkpt lat="45.41935" lon="4.56168">
        <ele>544.3</ele>
        <time>2017-03-26T10:50:24Z</time>
      </trkpt>
      <trkpt lat="45.41945" lon="4.56149">
        <ele>545.2</ele>
        <time>2017-03-26T10:50:25Z</time>
      </trkpt>
      <trkpt lat="45.41959" lon="4.56131">
        <ele>546.42</ele>
        <time>2017-03-26T10:50:26Z</time>
      </trkpt>
      <trkpt lat="45.41971" lon="4.56112">
        <ele>547.55</ele>
        <time>2017-03-26T10:50:27Z</time>
      </trkpt>
      <trkpt lat="45.41978" lon="4.5609">
        <ele>548.41</ele>
        <time>2017-03-26T10:50:28Z</time>
      </trkpt>
      <trkpt lat="45.41982" lon="4.5607">
        <ele>549.15</ele>
        <time>2017-03-26T10:50:29Z</time>
      </trkpt>
      <trkpt lat="45.41986" lon="4.5605">
        <ele>549.93</ele>
        <time>2017-03-26T10:50:30Z</time>
      </trkpt>
      <trkpt lat="45.41989" lon="4.5603">
        <ele>550.65</ele>
        <time>2017-03-26T10:50:31Z</time>
      </trkpt>
      <trkpt lat="45.4199" lon="4.5601">
        <ele>551.43</ele>
        <time>2017-03-26T10:50:32Z</time>
      </trkpt>
      <trkpt lat="45.41991" lon="4.55991">
        <ele>552.31</ele>
        <time>2017-03-26T10:50:33Z</time>
      </trkpt>
      <trkpt lat="45.4199" lon="4.55971">
        <ele>553.37</ele>
        <time>2017-03-26T10:50:34Z</time>
      </trkpt>
      <trkpt lat="45.41991" lon="4.55952">
        <ele>554.7</ele>
        <time>2017-03-26T10:50:35Z</time>
      </trkpt>
      <trkpt lat="45.4199" lon="4.55934">
        <ele>556.08</ele>
        <time>2017-03-26T10:50:36Z</time>
      </trkpt>
      <trkpt lat="45.41987" lon="4.55916">
        <ele>557.16</ele>
        <time>2017-03-26T10:50:37Z</time>
      </trkpt>
      <trkpt lat="45.41983" lon="4.55899">
        <ele>558.1</ele>
        <time>2017-03-26T10:50:38Z</time>
      </trkpt>
      <trkpt lat="45.41974" lon="4.55882">
        <ele>559.16</ele>
        <time>2017-03-26T10:50:39Z</time>
      </trkpt>
      <trkpt lat="45.41962" lon="4.55866">
        <ele>560.18</ele>
        <time>2017-03-26T10:50:40Z</time>
      </trkpt>
      <trkpt lat="45.41947" lon="4.5585">
        <ele>561.02</ele>
        <time>2017-03-26T10:50:41Z</time>
      </trkpt>
      <trkpt lat="45.41932" lon="4.55834">
        <ele>561.91</ele>
        <time>2017-03-26T10:50:42Z</time>
      </trkpt>
      <trkpt lat="45.41919" lon="4.55818">
        <ele>563.13</ele>
        <time>2017-03-26T10:50:43Z</time>
      </trkpt>
      <trkpt lat="45.41907" lon="4.55802">
        <ele>564.01</ele>
        <time>2017-03-26T10:50:44Z</time>
      </trkpt>
      <trkpt lat="45.41893" lon="4.55787">
        <ele>564.83</ele>
        <time>2017-03-26T10:50:45Z</time>
      </trkpt>
      <trkpt lat="45.41881" lon="4.55773">
        <ele>565.55</ele>
        <time>2017-03-26T10:50:46Z</time>
      </trkpt>
      <trkpt lat="45.41868" lon="4.55759">
        <ele>566.57</ele>
        <time>2017-03-26T10:50:47Z</time>
      </trkpt>
      <trkpt lat="45.41851" lon="4.55748">
        <ele>567.42</ele>
        <time>2017-03-26T10:50:48Z</time>
      </trkpt>
      <trkpt lat="45.41837" lon="4.55735">
        <ele>568.15</ele>
        <time>2017-03-26T10:50:49Z</time>
      </trkpt>
      <trkpt lat="45.41824" lon="4.55722">
        <ele>568.85</ele>
        <time>2017-03-26T10:50:50Z</time>
      </trkpt>
      <trkpt lat="45.41812" lon="4.55709">
        <ele>569.55</ele>
        <time>2017-03-26T10:50:51Z</time>
      </trkpt>
      <trkpt lat="45.41803" lon="4.55697">
        <ele>570.33</ele>
        <time>2017-03-26T10:50:52Z</time>
      </trkpt>
      <trkpt lat="45.41795" lon="4.55682">
        <ele>571.13</ele>
        <time>2017-03-26T10:50:53Z</time>
      </trkpt>
      <trkpt lat="45.41788" lon="4.55667">
        <ele>571.85</ele>
        <time>2017-03-26T10:50:54Z</time>
      </trkpt>
      <trkpt lat="45.41793" lon="4.5565">
        <ele>572.55</ele>
        <time>2017-03-26T10:50:55Z</time>
      </trkpt>
      <trkpt lat="45.41794" lon="4.55634">
        <ele>573.57</ele>
        <time>2017-03-26T10:50:56Z</time>
      </trkpt>
      <trkpt lat="45.41797" lon="4.55621">
        <ele>574.66</ele>
        <time>2017-03-26T10:50:57Z</time>
      </trkpt>
      <trkpt lat="45.4181" lon="4.55606">
        <ele>575.76</ele>
        <time>2017-03-26T10:50:58Z</time>
      </trkpt>
      <trkpt lat="45.41824" lon="4.55589">
        <ele>577.02</ele>
        <time>2017-03-26T10:50:59Z</time>
      </trkpt>
      <trkpt lat="45.41829" lon="4.55572">
        <ele>577.91</ele>
        <time>2017-03-26T10:51:00Z</time>
      </trkpt>
      <trkpt lat="45.41832" lon="4.55553">
        <ele>578.73</ele>
        <time>2017-03-26T10:51:01Z</time>
      </trkpt>
      <trkpt lat="45.41833" lon="4.55534">
        <ele>579.45</ele>
        <time>2017-03-26T10:51:02Z</time>
      </trkpt>
      <trkpt lat="45.41832" lon="4.55515">
        <ele>580.47</ele>
        <time>2017-03-26T10:51:03Z</time>
      </trkpt>
      <trkpt lat="45.41831" lon="4.55497">
        <ele>581.48</ele>
        <time>2017-03-26T10:51:04Z</time>
      </trkpt>
      <trkpt lat="45.41826" lon="4.55478">
        <ele>582.48</ele>
        <time>2017-03-26T10:51:05Z</time>
      </trkpt>
      <trkpt lat="45.41819" lon="4.5546">
        <ele>583.56</ele>
        <time>2017-03-26T10:51:06Z</time>
      </trkpt>
      <trkpt lat="45.41811" lon="4.55441">
        <ele>584.9</ele>
        <time>2017-03-26T10:51:07Z</time>
      </trkpt>
      <trkpt lat="45.41802" lon="4.55424">
        <ele>586.28</ele>
        <time>2017-03-26T10:51:08Z</time>
      </trkpt>
      <trkpt lat="45.4179" lon="4.55407">
        <ele>587.36</ele>
        <time>2017-03-26T10:51:09Z</time>
      </trkpt>
      <trkpt lat="45.41779" lon="4.5539">
        <ele>588.78</ele>
        <time>2017-03-26T10:51:10Z</time>
      </trkpt>
      <trkpt lat="45.41766" lon="4.55374">
        <ele>590.02</ele>
        <time>2017-03-26T10:51:11Z</time>
      </trkpt>
      <trkpt lat="45.41754" lon="4.55359">
        <ele>590.99</ele>
        <time>2017-03-26T10:51:12Z</time>
      </trkpt>
      <trkpt lat="45.41743" lon="4.55344">
        <ele>591.82</ele>
        <time>2017-03-26T10:51:13Z</time>
      </trkpt>
      <trkpt lat="45.41735" lon="4.55331">
        <ele>592.63</ele>
        <time>2017-03-26T10:51:14Z</time>
      </trkpt>
      <trkpt lat="45.41732" lon="4.55314">
        <ele>593.43</ele>
        <time>2017-03-26T10:51:15Z</time>
      </trkpt>
      <trkpt lat="45.4173" lon="4.553">
        <ele>594.07</ele>
        <time>2017-03-26T10:51:16Z</time>
      </trkpt>
      <trkpt lat="45.41728" lon="4.55287">
        <ele>594.76</ele>
        <time>2017-03-26T10:51:17Z</time>
      </trkpt>
      <trkpt lat="45.41728" lon="4.55273">
        <ele>595.46</ele>
        <time>2017-03-26T10:51:18Z</time>
      </trkpt>
      <trkpt lat="45.41729" lon="4.55258">
        <ele>596.16</ele>
        <time>2017-03-26T10:51:19Z</time>
      </trkpt>
      <trkpt lat="45.41731" lon="4.55243">
        <ele>596.86</ele>
        <time>2017-03-26T10:51:20Z</time>
      </trkpt>
      <trkpt lat="45.41732" lon="4.55227">
        <ele>597.47</ele>
        <time>2017-03-26T10:51:21Z</time>
      </trkpt>
      <trkpt lat="45.41737" lon="4.55213">
        <ele>598.16</ele>
        <time>2017-03-26T10:51:22Z</time>
      </trkpt>
      <trkpt lat="45.41741" lon="4.55199">
        <ele>598.86</ele>
        <time>2017-03-26T10:51:23Z</time>
      </trkpt>
      <trkpt lat="45.41746" lon="4.55187">
        <ele>599.56</ele>
        <time>2017-03-26T10:51:24Z</time>
      </trkpt>
      <trkpt lat="45.41746" lon="4.55179">
        <ele>600.42</ele>
        <time>2017-03-26T10:51:25Z</time>
      </trkpt>
      <trkpt lat="45.41753" lon="4.55172">
        <ele>601.47</ele>
        <time>2017-03-26T10:51:26Z</time>
      </trkpt>
      <trkpt lat="45.41758" lon="4.55164">
        <ele>602.56</ele>
        <time>2017-03-26T10:51:27Z</time>
      </trkpt>
      <trkpt lat="45.41764" lon="4.55156">
        <ele>603.18</ele>
        <time>2017-03-26T10:51:28Z</time>
      </trkpt>
      <trkpt lat="45.41771" lon="4.55146">
        <ele>603.94</ele>
        <time>2017-03-26T10:51:29Z</time>
      </trkpt>
      <trkpt lat="45.41781" lon="4.55136">
        <ele>604.73</ele>
        <time>2017-03-26T10:51:30Z</time>
      </trkpt>
      <trkpt lat="45.41785" lon="4.55126">
        <ele>605.13</ele>
        <time>2017-03-26T10:51:31Z</time>
      </trkpt>
      <trkpt lat="45.4179" lon="4.55116">
        <ele>605.29</ele>
        <time>2017-03-26T10:51:32Z</time>
      </trkpt>
      <trkpt lat="45.41793" lon="4.55106">
        <ele>605.48</ele>
        <time>2017-03-26T10:51:33Z</time>
      </trkpt>
      <trkpt lat="45.41796" lon="4.55098">
        <ele>605.6</ele>
        <time>2017-03-26T10:51:34Z</time>
      </trkpt>
      <trkpt lat="45.41798" lon="4.5509">
        <ele>605.62</ele>
        <time>2017-03-26T10:51:35Z</time>
      </trkpt>
      <trkpt lat="45.41804" lon="4.55084">
        <ele>605.79</ele>
        <time>2017-03-26T10:51:36Z</time>
      </trkpt>
      <trkpt lat="45.41828" lon="4.55079">
        <ele>605.26</ele>
        <time>2017-03-26T10:51:37Z</time>
      </trkpt>
      <trkpt lat="45.41842" lon="4.55074">
        <ele>605</ele>
        <time>2017-03-26T10:51:38Z</time>
      </trkpt>
      <trkpt lat="45.4186" lon="4.55069">
        <ele>605.1</ele>
        <time>2017-03-26T10:51:39Z</time>
      </trkpt>
      <trkpt lat="45.41877" lon="4.55058">
        <ele>604.96</ele>
        <time>2017-03-26T10:51:40Z</time>
      </trkpt>
      <trkpt lat="45.41893" lon="4.55048">
        <ele>604.78</ele>
        <time>2017-03-26T10:51:41Z</time>
      </trkpt>
      <trkpt lat="45.41913" lon="4.55043">
        <ele>604.82</ele>
        <time>2017-03-26T10:51:42Z</time>
      </trkpt>
      <trkpt lat="45.4193" lon="4.55041">
        <ele>604.83</ele>
        <time>2017-03-26T10:51:43Z</time>
      </trkpt>
      <trkpt lat="45.41952" lon="4.55043">
        <ele>605.07</ele>
        <time>2017-03-26T10:51:44Z</time>
      </trkpt>
      <trkpt lat="45.4197" lon="4.55052">
        <ele>604.88</ele>
        <time>2017-03-26T10:51:45Z</time>
      </trkpt>
      <trkpt lat="45.41992" lon="4.55062">
        <ele>605</ele>
        <time>2017-03-26T10:51:46Z</time>
      </trkpt>
      <trkpt lat="45.42013" lon="4.55074">
        <ele>605.34</ele>
        <time>2017-03-26T10:51:47Z</time>
      </trkpt>
      <trkpt lat="45.42031" lon="4.55087">
        <ele>605.41</ele>
        <time>2017-03-26T10:51:48Z</time>
      </trkpt>
      <trkpt lat="45.42049" lon="4.55109">
        <ele>605.03</ele>
        <time>2017-03-26T10:51:49Z</time>
      </trkpt>
      <trkpt lat="45.42065" lon="4.55128">
        <ele>604.71</ele>
        <time>2017-03-26T10:51:50Z</time>
      </trkpt>
      <trkpt lat="45.42082" lon="4.55148">
        <ele>604.33</ele>
        <time>2017-03-26T10:51:51Z</time>
      </trkpt>
      <trkpt lat="45.42101" lon="4.55165">
        <ele>604.33</ele>
        <time>2017-03-26T10:51:52Z</time>
      </trkpt>
      <trkpt lat="45.42116" lon="4.55185">
        <ele>604.89</ele>
        <time>2017-03-26T10:51:53Z</time>
      </trkpt>
      <trkpt lat="45.42134" lon="4.55201">
        <ele>605.4</ele>
        <time>2017-03-26T10:51:54Z</time>
      </trkpt>
      <trkpt lat="45.42152" lon="4.55216">
        <ele>605.9</ele>
        <time>2017-03-26T10:51:55Z</time>
      </trkpt>
      <trkpt lat="45.42167" lon="4.5523">
        <ele>606.16</ele>
        <time>2017-03-26T10:51:56Z</time>
      </trkpt>
      <trkpt lat="45.42183" lon="4.55243">
        <ele>606.7</ele>
        <time>2017-03-26T10:51:57Z</time>
      </trkpt>
      <trkpt lat="45.42201" lon="4.55254">
        <ele>607.68</ele>
        <time>2017-03-26T10:51:58Z</time>
      </trkpt>
      <trkpt lat="45.42218" lon="4.55263">
        <ele>608.6</ele>
        <time>2017-03-26T10:51:59Z</time>
      </trkpt>
      <trkpt lat="45.42238" lon="4.55272">
        <ele>610.38</ele>
        <time>2017-03-26T10:52:00Z</time>
      </trkpt>
      <trkpt lat="45.42258" lon="4.5528">
        <ele>612.66</ele>
        <time>2017-03-26T10:52:01Z</time>
      </trkpt>
      <trkpt lat="45.42277" lon="4.55286">
        <ele>614.24</ele>
        <time>2017-03-26T10:52:02Z</time>
      </trkpt>
      <trkpt lat="45.42298" lon="4.55292">
        <ele>616.07</ele>
        <time>2017-03-26T10:52:03Z</time>
      </trkpt>
      <trkpt lat="45.42316" lon="4.55299">
        <ele>618.52</ele>
        <time>2017-03-26T10:52:04Z</time>
      </trkpt>
      <trkpt lat="45.42335" lon="4.55303">
        <ele>620.61</ele>
        <time>2017-03-26T10:52:05Z</time>
      </trkpt>
      <trkpt lat="45.42351" lon="4.55305">
        <ele>622.07</ele>
        <time>2017-03-26T10:52:06Z</time>
      </trkpt>
      <trkpt lat="45.42368" lon="4.55306">
        <ele>623.24</ele>
        <time>2017-03-26T10:52:07Z</time>
      </trkpt>
      <trkpt lat="45.42386" lon="4.55305">
        <ele>624.27</ele>
        <time>2017-03-26T10:52:08Z</time>
      </trkpt>
      <trkpt lat="45.42401" lon="4.55304">
        <ele>625.44</ele>
        <time>2017-03-26T10:52:09Z</time>
      </trkpt>
      <trkpt lat="45.42415" lon="4.55304">
        <ele>626.55</ele>
        <time>2017-03-26T10:52:10Z</time>
      </trkpt>
      <trkpt lat="45.42425" lon="4.55304">
        <ele>627.89</ele>
        <time>2017-03-26T10:52:11Z</time>
      </trkpt>
      <trkpt lat="45.42441" lon="4.55302">
        <ele>630.88</ele>
        <time>2017-03-26T10:52:12Z</time>
      </trkpt>
      <trkpt lat="45.4247" lon="4.55302">
        <ele>638.36</ele>
        <time>2017-03-26T10:52:13Z</time>
      </trkpt>
      <trkpt lat="45.42483" lon="4.55295">
        <ele>641.86</ele>
        <time>2017-03-26T10:52:14Z</time>
      </trkpt>
      <trkpt lat="45.42492" lon="4.55286">
        <ele>644.8</ele>
        <time>2017-03-26T10:52:15Z</time>
      </trkpt>
      <trkpt lat="45.42504" lon="4.55279">
        <ele>648.34</ele>
        <time>2017-03-26T10:52:16Z</time>
      </trkpt>
      <trkpt lat="45.42513" lon="4.55274">
        <ele>651.85</ele>
        <time>2017-03-26T10:52:17Z</time>
      </trkpt>
      <trkpt lat="45.42515" lon="4.5527">
        <ele>653.99</ele>
        <time>2017-03-26T10:52:18Z</time>
      </trkpt>
      <trkpt lat="45.42518" lon="4.55268">
        <ele>657.22</ele>
        <time>2017-03-26T10:52:19Z</time>
      </trkpt>
      <trkpt lat="45.42515" lon="4.55265">
        <ele>659.47</ele>
        <time>2017-03-26T10:52:20Z</time>
      </trkpt>
      <trkpt lat="45.42512" lon="4.55262">
        <ele>661.28</ele>
        <time>2017-03-26T10:52:21Z</time>
      </trkpt>
      <trkpt lat="45.42507" lon="4.5526">
        <ele>662.76</ele>
        <time>2017-03-26T10:52:22Z</time>
      </trkpt>
      <trkpt lat="45.42494" lon="4.55267">
        <ele>664.26</ele>
        <time>2017-03-26T10:52:23Z</time>
      </trkpt>
      <trkpt lat="45.42488" lon="4.55275">
        <ele>666.08</ele>
        <time>2017-03-26T10:52:24Z</time>
      </trkpt>
      <trkpt lat="45.42481" lon="4.55281">
        <ele>667.48</ele>
        <time>2017-03-26T10:52:25Z</time>
      </trkpt>
      <trkpt lat="45.42472" lon="4.55286">
        <ele>669.04</ele>
        <time>2017-03-26T10:52:26Z</time>
      </trkpt>
      <trkpt lat="45.42469" lon="4.55284">
        <ele>672.47</ele>
        <time>2017-03-26T10:52:27Z</time>
      </trkpt>
      <trkpt lat="45.42463" lon="4.55281">
        <ele>676.2</ele>
        <time>2017-03-26T10:52:28Z</time>
      </trkpt>
      <trkpt lat="45.42455" lon="4.55278">
        <ele>678.7</ele>
        <time>2017-03-26T10:52:29Z</time>
      </trkpt>
      <trkpt lat="45.42444" lon="4.55274">
        <ele>680.64</ele>
        <time>2017-03-26T10:52:30Z</time>
      </trkpt>
      <trkpt lat="45.42432" lon="4.5527">
        <ele>682.23</ele>
        <time>2017-03-26T10:52:31Z</time>
      </trkpt>
      <trkpt lat="45.42419" lon="4.55264">
        <ele>683.67</ele>
        <time>2017-03-26T10:52:32Z</time>
      </trkpt>
      <trkpt lat="45.42407" lon="4.55256">
        <ele>684.92</ele>
        <time>2017-03-26T10:52:33Z</time>
      </trkpt>
      <trkpt lat="45.42395" lon="4.55248">
        <ele>686.13</ele>
        <time>2017-03-26T10:52:34Z</time>
      </trkpt>
      <trkpt lat="45.42382" lon="4.55238">
        <ele>687.97</ele>
        <time>2017-03-26T10:52:35Z</time>
      </trkpt>
      <trkpt lat="45.42371" lon="4.55227">
        <ele>689.86</ele>
        <time>2017-03-26T10:52:36Z</time>
      </trkpt>
      <trkpt lat="45.42359" lon="4.55213">
        <ele>691.12</ele>
        <time>2017-03-26T10:52:37Z</time>
      </trkpt>
      <trkpt lat="45.42347" lon="4.55197">
        <ele>692.49</ele>
        <time>2017-03-26T10:52:38Z</time>
      </trkpt>
      <trkpt lat="45.42337" lon="4.55179">
        <ele>694.52</ele>
        <time>2017-03-26T10:52:39Z</time>
      </trkpt>
      <trkpt lat="45.42325" lon="4.5516">
        <ele>696.21</ele>
        <time>2017-03-26T10:52:40Z</time>
      </trkpt>
      <trkpt lat="45.42313" lon="4.5514">
        <ele>697.59</ele>
        <time>2017-03-26T10:52:41Z</time>
      </trkpt>
      <trkpt lat="45.42301" lon="4.55119">
        <ele>698.98</ele>
        <time>2017-03-26T10:52:42Z</time>
      </trkpt>
      <trkpt lat="45.42291" lon="4.55097">
        <ele>700.38</ele>
        <time>2017-03-26T10:52:43Z</time>
      </trkpt>
      <trkpt lat="45.4228" lon="4.55074">
        <ele>701.7</ele>
        <time>2017-03-26T10:52:44Z</time>
      </trkpt>
      <trkpt lat="45.42268" lon="4.55053">
        <ele>703</ele>
        <time>2017-03-26T10:52:45Z</time>
      </trkpt>
      <trkpt lat="45.42257" lon="4.55031">
        <ele>704.7</ele>
        <time>2017-03-26T10:52:46Z</time>
      </trkpt>
      <trkpt lat="45.42246" lon="4.55009">
        <ele>706.16</ele>
        <time>2017-03-26T10:52:47Z</time>
      </trkpt>
      <trkpt lat="45.42234" lon="4.54988">
        <ele>707.74</ele>
        <time>2017-03-26T10:52:48Z</time>
      </trkpt>
      <trkpt lat="45.42221" lon="4.54969">
        <ele>709.41</ele>
        <time>2017-03-26T10:52:49Z</time>
      </trkpt>
      <trkpt lat="45.42208" lon="4.54949">
        <ele>710.95</ele>
        <time>2017-03-26T10:52:50Z</time>
      </trkpt>
      <trkpt lat="45.42194" lon="4.5493">
        <ele>712.29</ele>
        <time>2017-03-26T10:52:51Z</time>
      </trkpt>
      <trkpt lat="45.4218" lon="4.54911">
        <ele>713.6</ele>
        <time>2017-03-26T10:52:52Z</time>
      </trkpt>
      <trkpt lat="45.42166" lon="4.54893">
        <ele>714.9</ele>
        <time>2017-03-26T10:52:53Z</time>
      </trkpt>
      <trkpt lat="45.42152" lon="4.54877">
        <ele>716.12</ele>
        <time>2017-03-26T10:52:54Z</time>
      </trkpt>
      <trkpt lat="45.42134" lon="4.54863">
        <ele>717.49</ele>
        <time>2017-03-26T10:52:55Z</time>
      </trkpt>
      <trkpt lat="45.42116" lon="4.54852">
        <ele>718.88</ele>
        <time>2017-03-26T10:52:56Z</time>
      </trkpt>
      <trkpt lat="45.42097" lon="4.54843">
        <ele>720.28</ele>
        <time>2017-03-26T10:52:57Z</time>
      </trkpt>
      <trkpt lat="45.42077" lon="4.54834">
        <ele>722.72</ele>
        <time>2017-03-26T10:52:58Z</time>
      </trkpt>
      <trkpt lat="45.42053" lon="4.54841">
        <ele>725.29</ele>
        <time>2017-03-26T10:52:59Z</time>
      </trkpt>
      <trkpt lat="45.42031" lon="4.54846">
        <ele>727.4</ele>
        <time>2017-03-26T10:53:00Z</time>
      </trkpt>
      <trkpt lat="45.4201" lon="4.54852">
        <ele>729.34</ele>
        <time>2017-03-26T10:53:01Z</time>
      </trkpt>
      <trkpt lat="45.41989" lon="4.54859">
        <ele>731.09</ele>
        <time>2017-03-26T10:53:02Z</time>
      </trkpt>
      <trkpt lat="45.41968" lon="4.54865">
        <ele>732.8</ele>
        <time>2017-03-26T10:53:03Z</time>
      </trkpt>
      <trkpt lat="45.41948" lon="4.54871">
        <ele>734.58</ele>
        <time>2017-03-26T10:53:04Z</time>
      </trkpt>
      <trkpt lat="45.41929" lon="4.54875">
        <ele>736.22</ele>
        <time>2017-03-26T10:53:05Z</time>
      </trkpt>
      <trkpt lat="45.4191" lon="4.54879">
        <ele>737.83</ele>
        <time>2017-03-26T10:53:06Z</time>
      </trkpt>
      <trkpt lat="45.41891" lon="4.54881">
        <ele>739.35</ele>
        <time>2017-03-26T10:53:07Z</time>
      </trkpt>
      <trkpt lat="45.41871" lon="4.54882">
        <ele>740.85</ele>
        <time>2017-03-26T10:53:08Z</time>
      </trkpt>
      <trkpt lat="45.41851" lon="4.54883">
        <ele>742.43</ele>
        <time>2017-03-26T10:53:09Z</time>
      </trkpt>
      <trkpt lat="45.41831" lon="4.54883">
        <ele>743.95</ele>
        <time>2017-03-26T10:53:10Z</time>
      </trkpt>
      <trkpt lat="45.41811" lon="4.54882">
        <ele>745.85</ele>
        <time>2017-03-26T10:53:11Z</time>
      </trkpt>
      <trkpt lat="45.41791" lon="4.54882">
        <ele>747.75</ele>
        <time>2017-03-26T10:53:12Z</time>
      </trkpt>
      <trkpt lat="45.41771" lon="4.5488">
        <ele>749.25</ele>
        <time>2017-03-26T10:53:13Z</time>
      </trkpt>
      <trkpt lat="45.41751" lon="4.5488">
        <ele>750.99</ele>
        <time>2017-03-26T10:53:14Z</time>
      </trkpt>
      <trkpt lat="45.41732" lon="4.54879">
        <ele>752.54</ele>
        <time>2017-03-26T10:53:15Z</time>
      </trkpt>
      <trkpt lat="45.41712" lon="4.54877">
        <ele>753.97</ele>
        <time>2017-03-26T10:53:16Z</time>
      </trkpt>
      <trkpt lat="45.41693" lon="4.54875">
        <ele>755.86</ele>
        <time>2017-03-26T10:53:17Z</time>
      </trkpt>
      <trkpt lat="45.41674" lon="4.54873">
        <ele>757.6</ele>
        <time>2017-03-26T10:53:18Z</time>
      </trkpt>
      <trkpt lat="45.41657" lon="4.5487">
        <ele>759.46</ele>
        <time>2017-03-26T10:53:19Z</time>
      </trkpt>
      <trkpt lat="45.41641" lon="4.54868">
        <ele>761.12</ele>
        <time>2017-03-26T10:53:20Z</time>
      </trkpt>
      <trkpt lat="45.41627" lon="4.54865">
        <ele>762.73</ele>
        <time>2017-03-26T10:53:21Z</time>
      </trkpt>
      <trkpt lat="45.41614" lon="4.54862">
        <ele>764.33</ele>
        <time>2017-03-26T10:53:22Z</time>
      </trkpt>
      <trkpt lat="45.41603" lon="4.54859">
        <ele>765.77</ele>
        <time>2017-03-26T10:53:23Z</time>
      </trkpt>
      <trkpt lat="45.41592" lon="4.54857">
        <ele>767.26</ele>
        <time>2017-03-26T10:53:24Z</time>
      </trkpt>
      <trkpt lat="45.41584" lon="4.54854">
        <ele>768.68</ele>
        <time>2017-03-26T10:53:25Z</time>
      </trkpt>
      <trkpt lat="45.41577" lon="4.54853">
        <ele>770.16</ele>
        <time>2017-03-26T10:53:26Z</time>
      </trkpt>
      <trkpt lat="45.41571" lon="4.54851">
        <ele>771.82</ele>
        <time>2017-03-26T10:53:27Z</time>
      </trkpt>
      <trkpt lat="45.41567" lon="4.5485">
        <ele>773.43</ele>
        <time>2017-03-26T10:53:28Z</time>
      </trkpt>
      <trkpt lat="45.41564" lon="4.5485">
        <ele>775.51</ele>
        <time>2017-03-26T10:53:29Z</time>
      </trkpt>
      <trkpt lat="45.41563" lon="4.5485">
        <ele>777.61</ele>
        <time>2017-03-26T10:53:30Z</time>
      </trkpt>
      <trkpt lat="45.41563" lon="4.54851">
        <ele>779.95</ele>
        <time>2017-03-26T10:53:31Z</time>
      </trkpt>
      <trkpt lat="45.41563" lon="4.54851">
        <ele>781.69</ele>
        <time>2017-03-26T10:53:32Z</time>
      </trkpt>
      <trkpt lat="45.41563" lon="4.54852">
        <ele>783.4</ele>
        <time>2017-03-26T10:53:33Z</time>
      </trkpt>
      <trkpt lat="45.41563" lon="4.54852">
        <ele>785.34</ele>
        <time>2017-03-26T10:53:34Z</time>
      </trkpt>
      <trkpt lat="45.41563" lon="4.54852">
        <ele>785.73</ele>
        <time>2017-03-26T10:53:35Z</time>
      </trkpt>
      <trkpt lat="45.41563" lon="4.54852">
        <ele>785.81</ele>
        <time>2017-03-26T10:53:36Z</time>
      </trkpt>
      <trkpt lat="45.41563" lon="4.54852">
        <ele>785.83</ele>
        <time>2017-03-26T10:53:37Z</time>
      </trkpt>
      <trkpt lat="45.41563" lon="4.54852">
        <ele>785.83</ele>
        <time>2017-03-26T10:53:38Z</time>
      </trkpt>
      <trkpt lat="45.41563" lon="4.54852">
        <ele>785.83</ele>
        <time>2017-03-26T10:53:39Z</time>
      </trkpt>
      <trkpt lat="45.41563" lon="4.54852">
        <ele>785.83</ele>
        <time>2017-03-26T10:53:40Z</time>
      </trkpt>
      <trkpt lat="45.41563" lon="4.54852">
        <ele>785.83</ele>
        <time>2017-03-26T10:53:41Z</time>
      </trkpt>
      <trkpt lat="45.41563" lon="4.54852">
        <ele>785.83</ele>
        <time>2017-03-26T10:53:42Z</time>
      </trkpt>
      <trkpt lat="45.41563" lon="4.54852">
        <ele>785.83</ele>
        <time>2017-03-26T10:53:43Z</time>
      </trkpt>
      <trkpt lat="45.41563" lon="4.54852">
        <ele>785.83</ele>
        <time>2017-03-26T10:53:44Z</time>
      </trkpt>
      <trkpt lat="45.41563" lon="4.54852">
        <ele>785.83</ele>
        <time>2017-03-26T10:53:45Z</time>
      </trkpt>
      <trkpt lat="45.41563" lon="4.54852">
        <ele>785.83</ele>
        <time>2017-03-26T10:53:46Z</time>
      </trkpt>
      <trkpt lat="45.41563" lon="4.54852">
        <ele>785.83</ele>
        <time>2017-03-26T10:53:47Z</time>
      </trkpt>
      <trkpt lat="45.41563" lon="4.54852">
        <ele>785.83</ele>
        <time>2017-03-26T10:53:48Z</time>
      </trkpt>
      <trkpt lat="45.41563" lon="4.54852">
        <ele>785.83</ele>
        <time>2017-03-26T10:53:49Z</time>
      </trkpt>
      <trkpt lat="45.41563" lon="4.54852">
        <ele>785.83</ele>
        <time>2017-03-26T10:53:50Z</time>
      </trkpt>
      <trkpt lat="45.41563" lon="4.54852">
        <ele>785.83</ele>
        <time>2017-03-26T10:53:51Z</time>
      </trkpt>
      <trkpt lat="45.41563" lon="4.54852">
        <ele>785.83</ele>
        <time>2017-03-26T10:53:52Z</time>
      </trkpt>
      <trkpt lat="45.41563" lon="4.54852">
        <ele>785.83</ele>
        <time>2017-03-26T10:53:53Z</time>
      </trkpt>
      <trkpt lat="45.41563" lon="4.54852">
        <ele>785.83</ele>
        <time>2017-03-26T10:53:54Z</time>
      </trkpt>
      <trkpt lat="45.41563" lon="4.54852">
        <ele>785.83</ele>
        <time>2017-03-26T10:53:55Z</time>
      </trkpt>
      <trkpt lat="45.41563" lon="4.54852">
        <ele>785.83</ele>
        <time>2017-03-26T10:53:56Z</time>
      </trkpt>
      <trkpt lat="45.41563" lon="4.54852">
        <ele>785.83</ele>
        <time>2017-03-26T10:53:57Z</time>
      </trkpt>
      <trkpt lat="45.41563" lon="4.54852">
        <ele>785.83</ele>
        <time>2017-03-26T10:53:58Z</time>
      </trkpt>
      <trkpt lat="45.41563" lon="4.54852">
        <ele>785.83</ele>
        <time>2017-03-26T10:53:59Z</time>
      </trkpt>
      <trkpt lat="45.41563" lon="4.54852">
        <ele>785.83</ele>
        <time>2017-03-26T10:54:00Z</time>
      </trkpt>
      <trkpt lat="45.41563" lon="4.54852">
        <ele>785.83</ele>
        <time>2017-03-26T10:54:01Z</time>
      </trkpt>
      <trkpt lat="45.41563" lon="4.54852">
        <ele>785.83</ele>
        <time>2017-03-26T10:54:02Z</time>
      </trkpt>
      <trkpt lat="45.41563" lon="4.54852">
        <ele>785.83</ele>
        <time>2017-03-26T10:54:03Z</time>
      </trkpt>
      <trkpt lat="45.41563" lon="4.54852">
        <ele>785.83</ele>
        <time>2017-03-26T10:54:04Z</time>
      </trkpt>
      <trkpt lat="45.41563" lon="4.54852">
        <ele>785.83</ele>
        <time>2017-03-26T10:54:05Z</time>
      </trkpt>
      <trkpt lat="45.41563" lon="4.54852">
        <ele>785.83</ele>
        <time>2017-03-26T10:54:06Z</time>
      </trkpt>
      <trkpt lat="45.41563" lon="4.54852">
        <ele>785.83</ele>
        <time>2017-03-26T10:54:07Z</time>
      </trkpt>
      <trkpt lat="45.41563" lon="4.54852">
        <ele>785.83</ele>
        <time>2017-03-26T10:54:08Z</time>
      </trkpt>
      <trkpt lat="45.41563" lon="4.54852">
        <ele>785.83</ele>
        <time>2017-03-26T10:54:09Z</time>
      </trkpt>
      <trkpt lat="45.41563" lon="4.54852">
        <ele>785.83</ele>
        <time>2017-03-26T10:54:10Z</time>
      </trkpt>
      <trkpt lat="45.41563" lon="4.54852">
        <ele>785.83</ele>
        <time>2017-03-26T10:54:11Z</time>
      </trkpt>
      <trkpt lat="45.41563" lon="4.54852">
        <ele>785.83</ele>
        <time>2017-03-26T10:54:12Z</time>
      </trkpt>
      <trkpt lat="45.41563" lon="4.54852">
        <ele>785.83</ele>
        <time>2017-03-26T10:54:13Z</time>
      </trkpt>
      <trkpt lat="45.41563" lon="4.54852">
        <ele>785.83</ele>
        <time>2017-03-26T10:54:14Z</time>
      </trkpt>
      <trkpt lat="45.41563" lon="4.54852">
        <ele>785.83</ele>
        <time>2017-03-26T10:54:15Z</time>
      </trkpt>
      <trkpt lat="45.41563" lon="4.54852">
        <ele>785.83</ele>
        <time>2017-03-26T10:54:16Z</time>
      </trkpt>
      <trkpt lat="45.41563" lon="4.54852">
        <ele>785.83</ele>
        <time>2017-03-26T10:54:17Z</time>
      </trkpt>
      <trkpt lat="45.41563" lon="4.54852">
        <ele>785.83</ele>
        <time>2017-03-26T10:54:18Z</time>
      </trkpt>
      <trkpt lat="45.41563" lon="4.54852">
        <ele>785.83</ele>
        <time>2017-03-26T10:54:19Z</time>
      </trkpt>
      <trkpt lat="45.41563" lon="4.54852">
        <ele>785.83</ele>
        <time>2017-03-26T10:54:20Z</time>
      </trkpt>
      <trkpt lat="45.41563" lon="4.54852">
        <ele>785.83</ele>
        <time>2017-03-26T10:54:21Z</time>
      </trkpt>
      <trkpt lat="45.41563" lon="4.54852">
        <ele>785.83</ele>
        <time>2017-03-26T10:54:22Z</time>
      </trkpt>
      <trkpt lat="45.41561" lon="4.54853">
        <ele>789.35</ele>
        <time>2017-03-26T10:54:23Z</time>
      </trkpt>
      <trkpt lat="45.41557" lon="4.54853">
        <ele>790.05</ele>
        <time>2017-03-26T10:54:24Z</time>
      </trkpt>
      <trkpt lat="45.41552" lon="4.54853">
        <ele>790.11</ele>
        <time>2017-03-26T10:54:25Z</time>
      </trkpt>
      <trkpt lat="45.41546" lon="4.54853">
        <ele>790.13</ele>
        <time>2017-03-26T10:54:26Z</time>
      </trkpt>
      <trkpt lat="45.41538" lon="4.54855">
        <ele>790.05</ele>
        <time>2017-03-26T10:54:27Z</time>
      </trkpt>
      <trkpt lat="45.4153" lon="4.54856">
        <ele>790.03</ele>
        <time>2017-03-26T10:54:28Z</time>
      </trkpt>
      <trkpt lat="45.41522" lon="4.5486">
        <ele>789.95</ele>
        <time>2017-03-26T10:54:29Z</time>
      </trkpt>
      <trkpt lat="45.41512" lon="4.54864">
        <ele>789.93</ele>
        <time>2017-03-26T10:54:30Z</time>
      </trkpt>
      <trkpt lat="45.41502" lon="4.54868">
        <ele>789.85</ele>
        <time>2017-03-26T10:54:31Z</time>
      </trkpt>
      <trkpt lat="45.41491" lon="4.54869">
        <ele>789.83</ele>
        <time>2017-03-26T10:54:32Z</time>
      </trkpt>
      <trkpt lat="45.41479" lon="4.5487">
        <ele>789.75</ele>
        <time>2017-03-26T10:54:33Z</time>
      </trkpt>
      <trkpt lat="45.41466" lon="4.5487">
        <ele>789.65</ele>
        <time>2017-03-26T10:54:34Z</time>
      </trkpt>
      <trkpt lat="45.41453" lon="4.54869">
        <ele>789.55</ele>
        <time>2017-03-26T10:54:35Z</time>
      </trkpt>
      <trkpt lat="45.41438" lon="4.54868">
        <ele>789.45</ele>
        <time>2017-03-26T10:54:36Z</time>
      </trkpt>
      <trkpt lat="45.41424" lon="4.54867">
        <ele>789.35</ele>
        <time>2017-03-26T10:54:37Z</time>
      </trkpt>
      <trkpt lat="45.41409" lon="4.54866">
        <ele>789.26</ele>
        <time>2017-03-26T10:54:38Z</time>
      </trkpt>
      <trkpt lat="45.41393" lon="4.54863">
        <ele>789.16</ele>
        <time>2017-03-26T10:54:39Z</time>
      </trkpt>
      <trkpt lat="45.41378" lon="4.54859">
        <ele>789.05</ele>
        <time>2017-03-26T10:54:40Z</time>
      </trkpt>
      <trkpt lat="45.41363" lon="4.54854">
        <ele>788.96</ele>
        <time>2017-03-26T10:54:41Z</time>
      </trkpt>
      <trkpt lat="45.41349" lon="4.54848">
        <ele>788.85</ele>
        <time>2017-03-26T10:54:42Z</time>
      </trkpt>
      <trkpt lat="45.41334" lon="4.54841">
        <ele>788.76</ele>
        <time>2017-03-26T10:54:43Z</time>
      </trkpt>
      <trkpt lat="45.41321" lon="4.54834">
        <ele>788.66</ele>
        <time>2017-03-26T10:54:44Z</time>
      </trkpt>
      <trkpt lat="45.41307" lon="4.54827">
        <ele>788.55</ele>
        <time>2017-03-26T10:54:45Z</time>
      </trkpt>
      <trkpt lat="45.41294" lon="4.54821">
        <ele>788.46</ele>
        <time>2017-03-26T10:54:46Z</time>
      </trkpt>
      <trkpt lat="45.41281" lon="4.54817">
        <ele>788.28</ele>
        <time>2017-03-26T10:54:47Z</time>
      </trkpt>
      <trkpt lat="45.41269" lon="4.54816">
        <ele>788.16</ele>
        <time>2017-03-26T10:54:48Z</time>
      </trkpt>
      <trkpt lat="45.41258" lon="4.54817">
        <ele>788.06</ele>
        <time>2017-03-26T10:54:49Z</time>
      </trkpt>
      <trkpt lat="45.41248" lon="4.5482">
        <ele>787.96</ele>
        <time>2017-03-26T10:54:50Z</time>
      </trkpt>
      <trkpt lat="45.41238" lon="4.54827">
        <ele>787.78</ele>
        <time>2017-03-26T10:54:51Z</time>
      </trkpt>
      <trkpt lat="45.41228" lon="4.54834">
        <ele>787.66</ele>
        <time>2017-03-26T10:54:52Z</time>
      </trkpt>
      <trkpt lat="45.41218" lon="4.54844">
        <ele>787.48</ele>
        <time>2017-03-26T10:54:53Z</time>
      </trkpt>
      <trkpt lat="45.41208" lon="4.54856">
        <ele>787.36</ele>
        <time>2017-03-26T10:54:54Z</time>
      </trkpt>
      <trkpt lat="45.41198" lon="4.54868">
        <ele>787.26</ele>
        <time>2017-03-26T10:54:55Z</time>
      </trkpt>
      <trkpt lat="45.41189" lon="4.54883">
        <ele>787.08</ele>
        <time>2017-03-26T10:54:56Z</time>
      </trkpt>
      <trkpt lat="45.41181" lon="4.54899">
        <ele>786.96</ele>
        <time>2017-03-26T10:54:57Z</time>
      </trkpt>
      <trkpt lat="45.41173" lon="4.54917">
        <ele>786.78</ele>
        <time>2017-03-26T10:54:58Z</time>
      </trkpt>
      <trkpt lat="45.41165" lon="4.54936">
        <ele>786.66</ele>
        <time>2017-03-26T10:54:59Z</time>
      </trkpt>
      <trkpt lat="45.41158" lon="4.54958">
        <ele>786.48</ele>
        <time>2017-03-26T10:55:00Z</time>
      </trkpt>
      <trkpt lat="45.41151" lon="4.54978">
        <ele>786.36</ele>
        <time>2017-03-26T10:55:01Z</time>
      </trkpt>
      <trkpt lat="45.41144" lon="4.54998">
        <ele>786.18</ele>
        <time>2017-03-26T10:55:02Z</time>
      </trkpt>
      <trkpt lat="45.41135" lon="4.55019">
        <ele>786.06</ele>
        <time>2017-03-26T10:55:03Z</time>
      </trkpt>
      <trkpt lat="45.41127" lon="4.5504">
        <ele>785.88</ele>
        <time>2017-03-26T10:55:04Z</time>
      </trkpt>
      <trkpt lat="45.41117" lon="4.5506">
        <ele>785.68</ele>
        <time>2017-03-26T10:55:05Z</time>
      </trkpt>
      <trkpt lat="45.41106" lon="4.55079">
        <ele>785.56</ele>
        <time>2017-03-26T10:55:06Z</time>
      </trkpt>
      <trkpt lat="45.41094" lon="4.55097">
        <ele>785.38</ele>
        <time>2017-03-26T10:55:07Z</time>
      </trkpt>
      <trkpt lat="45.41081" lon="4.55114">
        <ele>785.26</ele>
        <time>2017-03-26T10:55:08Z</time>
      </trkpt>
      <trkpt lat="45.41066" lon="4.5513">
        <ele>785.16</ele>
        <time>2017-03-26T10:55:09Z</time>
      </trkpt>
      <trkpt lat="45.41051" lon="4.55144">
        <ele>784.98</ele>
        <time>2017-03-26T10:55:10Z</time>
      </trkpt>
      <trkpt lat="45.41035" lon="4.55156">
        <ele>784.86</ele>
        <time>2017-03-26T10:55:11Z</time>
      </trkpt>
      <trkpt lat="45.4102" lon="4.55168">
        <ele>784.68</ele>
        <time>2017-03-26T10:55:12Z</time>
      </trkpt>
      <trkpt lat="45.41003" lon="4.55178">
        <ele>784.56</ele>
        <time>2017-03-26T10:55:13Z</time>
      </trkpt>
      <trkpt lat="45.40987" lon="4.55187">
        <ele>784.38</ele>
        <time>2017-03-26T10:55:14Z</time>
      </trkpt>
      <trkpt lat="45.40971" lon="4.55195">
        <ele>784.26</ele>
        <time>2017-03-26T10:55:15Z</time>
      </trkpt>
      <trkpt lat="45.40955" lon="4.552">
        <ele>784.08</ele>
        <time>2017-03-26T10:55:16Z</time>
      </trkpt>
      <trkpt lat="45.4094" lon="4.55204">
        <ele>783.96</ele>
        <time>2017-03-26T10:55:17Z</time>
      </trkpt>
      <trkpt lat="45.40925" lon="4.55207">
        <ele>783.78</ele>
        <time>2017-03-26T10:55:18Z</time>
      </trkpt>
      <trkpt lat="45.4091" lon="4.5521">
        <ele>783.66</ele>
        <time>2017-03-26T10:55:19Z</time>
      </trkpt>
      <trkpt lat="45.40894" lon="4.55213">
        <ele>783.48</ele>
        <time>2017-03-26T10:55:20Z</time>
      </trkpt>
      <trkpt lat="45.40878" lon="4.55216">
        <ele>783.28</ele>
        <time>2017-03-26T10:55:21Z</time>
      </trkpt>
      <trkpt lat="45.40863" lon="4.55217">
        <ele>783.08</ele>
        <time>2017-03-26T10:55:22Z</time>
      </trkpt>
      <trkpt lat="45.4085" lon="4.55214">
        <ele>782.88</ele>
        <time>2017-03-26T10:55:23Z</time>
      </trkpt>
      <trkpt lat="45.40839" lon="4.55208">
        <ele>782.76</ele>
        <time>2017-03-26T10:55:24Z</time>
      </trkpt>
      <trkpt lat="45.4083" lon="4.55198">
        <ele>782.66</ele>
        <time>2017-03-26T10:55:25Z</time>
      </trkpt>
      <trkpt lat="45.40824" lon="4.55184">
        <ele>782.56</ele>
        <time>2017-03-26T10:55:26Z</time>
      </trkpt>
      <trkpt lat="45.40819" lon="4.55165">
        <ele>782.38</ele>
        <time>2017-03-26T10:55:27Z</time>
      </trkpt>
      <trkpt lat="45.40815" lon="4.55145">
        <ele>782.26</ele>
        <time>2017-03-26T10:55:28Z</time>
      </trkpt>
      <trkpt lat="45.40812" lon="4.55125">
        <ele>782.16</ele>
        <time>2017-03-26T10:55:29Z</time>
      </trkpt>
      <trkpt lat="45.40811" lon="4.55105">
        <ele>781.98</ele>
        <time>2017-03-26T10:55:30Z</time>
      </trkpt>
      <trkpt lat="45.4081" lon="4.55085">
        <ele>781.86</ele>
        <time>2017-03-26T10:55:31Z</time>
      </trkpt>
      <trkpt lat="45.40808" lon="4.55065">
        <ele>781.76</ele>
        <time>2017-03-26T10:55:32Z</time>
      </trkpt>
      <trkpt lat="45.40807" lon="4.55044">
        <ele>781.58</ele>
        <time>2017-03-26T10:55:33Z</time>
      </trkpt>
      <trkpt lat="45.40806" lon="4.55024">
        <ele>781.46</ele>
        <time>2017-03-26T10:55:34Z</time>
      </trkpt>
      <trkpt lat="45.40806" lon="4.55005">
        <ele>781.36</ele>
        <time>2017-03-26T10:55:35Z</time>
      </trkpt>
      <trkpt lat="45.40805" lon="4.54985">
        <ele>781.18</ele>
        <time>2017-03-26T10:55:36Z</time>
      </trkpt>
      <trkpt lat="45.40808" lon="4.54965">
        <ele>780.98</ele>
        <time>2017-03-26T10:55:37Z</time>
      </trkpt>
      <trkpt lat="45.4081" lon="4.54944">
        <ele>780.7</ele>
        <time>2017-03-26T10:55:38Z</time>
      </trkpt>
      <trkpt lat="45.40812" lon="4.54922">
        <ele>780.4</ele>
        <time>2017-03-26T10:55:39Z</time>
      </trkpt>
      <trkpt lat="45.40815" lon="4.54898">
        <ele>780.02</ele>
        <time>2017-03-26T10:55:40Z</time>
      </trkpt>
      <trkpt lat="45.40816" lon="4.54877">
        <ele>779.79</ele>
        <time>2017-03-26T10:55:41Z</time>
      </trkpt>
      <trkpt lat="45.40815" lon="4.54854">
        <ele>779.5</ele>
        <time>2017-03-26T10:55:42Z</time>
      </trkpt>
      <trkpt lat="45.40822" lon="4.54835">
        <ele>779.2</ele>
        <time>2017-03-26T10:55:43Z</time>
      </trkpt>
      <trkpt lat="45.4082" lon="4.54816">
        <ele>778.9</ele>
        <time>2017-03-26T10:55:44Z</time>
      </trkpt>
      <trkpt lat="45.4082" lon="4.54803">
        <ele>778.52</ele>
        <time>2017-03-26T10:55:45Z</time>
      </trkpt>
      <trkpt lat="45.40815" lon="4.54788">
        <ele>778.13</ele>
        <time>2017-03-26T10:55:46Z</time>
      </trkpt>
      <trkpt lat="45.40808" lon="4.54777">
        <ele>777.73</ele>
        <time>2017-03-26T10:55:47Z</time>
      </trkpt>
      <trkpt lat="45.40797" lon="4.54768">
        <ele>777.33</ele>
        <time>2017-03-26T10:55:48Z</time>
      </trkpt>
      <trkpt lat="45.40784" lon="4.54761">
        <ele>777.09</ele>
        <time>2017-03-26T10:55:49Z</time>
      </trkpt>
      <trkpt lat="45.40771" lon="4.54756">
        <ele>776.64</ele>
        <time>2017-03-26T10:55:50Z</time>
      </trkpt>
      <trkpt lat="45.40762" lon="4.54748">
        <ele>776.31</ele>
        <time>2017-03-26T10:55:51Z</time>
      </trkpt>
      <trkpt lat="45.40754" lon="4.54738">
        <ele>776.01</ele>
        <time>2017-03-26T10:55:52Z</time>
      </trkpt>
      <trkpt lat="45.40745" lon="4.54724">
        <ele>775.63</ele>
        <time>2017-03-26T10:55:53Z</time>
      </trkpt>
      <trkpt lat="45.40739" lon="4.54705">
        <ele>775.07</ele>
        <time>2017-03-26T10:55:54Z</time>
      </trkpt>
      <trkpt lat="45.40736" lon="4.54684">
        <ele>774.4</ele>
        <time>2017-03-26T10:55:55Z</time>
      </trkpt>
      <trkpt lat="45.40731" lon="4.54662">
        <ele>773.78</ele>
        <time>2017-03-26T10:55:56Z</time>
      </trkpt>
      <trkpt lat="45.40728" lon="4.54641">
        <ele>773.34</ele>
        <time>2017-03-26T10:55:57Z</time>
      </trkpt>
      <trkpt lat="45.40734" lon="4.54616">
        <ele>772.93</ele>
        <time>2017-03-26T10:55:58Z</time>
      </trkpt>
      <trkpt lat="45.40736" lon="4.54593">
        <ele>772.37</ele>
        <time>2017-03-26T10:55:59Z</time>
      </trkpt>
      <trkpt lat="45.4074" lon="4.54571">
        <ele>771.86</ele>
        <time>2017-03-26T10:56:00Z</time>
      </trkpt>
      <trkpt lat="45.40745" lon="4.54547">
        <ele>771.36</ele>
        <time>2017-03-26T10:56:01Z</time>
      </trkpt>
      <trkpt lat="45.40753" lon="4.54524">
        <ele>770.78</ele>
        <time>2017-03-26T10:56:02Z</time>
      </trkpt>
      <trkpt lat="45.40759" lon="4.54502">
        <ele>770.26</ele>
        <time>2017-03-26T10:56:03Z</time>
      </trkpt>
      <trkpt lat="45.40764" lon="4.54482">
        <ele>769.76</ele>
        <time>2017-03-26T10:56:04Z</time>
      </trkpt>
      <trkpt lat="45.40771" lon="4.54461">
        <ele>769.26</ele>
        <time>2017-03-26T10:56:05Z</time>
      </trkpt>
      <trkpt lat="45.40776" lon="4.54439">
        <ele>768.52</ele>
        <time>2017-03-26T10:56:06Z</time>
      </trkpt>
      <trkpt lat="45.40776" lon="4.54418">
        <ele>767.65</ele>
        <time>2017-03-26T10:56:07Z</time>
      </trkpt>
      <trkpt lat="45.40777" lon="4.54395">
        <ele>766.91</ele>
        <time>2017-03-26T10:56:08Z</time>
      </trkpt>
      <trkpt lat="45.40776" lon="4.54372">
        <ele>765.65</ele>
        <time>2017-03-26T10:56:09Z</time>
      </trkpt>
      <trkpt lat="45.40775" lon="4.54351">
        <ele>764.83</ele>
        <time>2017-03-26T10:56:10Z</time>
      </trkpt>
      <trkpt lat="45.40773" lon="4.54332">
        <ele>763.95</ele>
        <time>2017-03-26T10:56:11Z</time>
      </trkpt>
      <trkpt lat="45.40769" lon="4.54316">
        <ele>762.97</ele>
        <time>2017-03-26T10:56:12Z</time>
      </trkpt>
      <trkpt lat="45.40763" lon="4.54303">
        <ele>762.06</ele>
        <time>2017-03-26T10:56:13Z</time>
      </trkpt>
      <trkpt lat="45.40756" lon="4.54292">
        <ele>760.76</ele>
        <time>2017-03-26T10:56:14Z</time>
      </trkpt>
      <trkpt lat="45.40748" lon="4.54283">
        <ele>759.78</ele>
        <time>2017-03-26T10:56:15Z</time>
      </trkpt>
      <trkpt lat="45.4074" lon="4.54276">
        <ele>758.86</ele>
        <time>2017-03-26T10:56:16Z</time>
      </trkpt>
      <trkpt lat="45.40732" lon="4.54273">
        <ele>757.8</ele>
        <time>2017-03-26T10:56:17Z</time>
      </trkpt>
      <trkpt lat="45.40721" lon="4.54271">
        <ele>756.46</ele>
        <time>2017-03-26T10:56:18Z</time>
      </trkpt>
      <trkpt lat="45.4071" lon="4.54271">
        <ele>755.08</ele>
        <time>2017-03-26T10:56:19Z</time>
      </trkpt>
      <trkpt lat="45.40699" lon="4.54272">
        <ele>753.84</ele>
        <time>2017-03-26T10:56:20Z</time>
      </trkpt>
      <trkpt lat="45.40688" lon="4.54274">
        <ele>752.39</ele>
        <time>2017-03-26T10:56:21Z</time>
      </trkpt>
      <trkpt lat="45.40676" lon="4.54278">
        <ele>751.3</ele>
        <time>2017-03-26T10:56:22Z</time>
      </trkpt>
      <trkpt lat="45.40664" lon="4.54283">
        <ele>750.36</ele>
        <time>2017-03-26T10:56:23Z</time>
      </trkpt>
      <trkpt lat="45.40651" lon="4.54289">
        <ele>749.46</ele>
        <time>2017-03-26T10:56:24Z</time>
      </trkpt>
      <trkpt lat="45.40637" lon="4.54295">
        <ele>748.64</ele>
        <time>2017-03-26T10:56:25Z</time>
      </trkpt>
      <trkpt lat="45.40622" lon="4.54303">
        <ele>747.67</ele>
        <time>2017-03-26T10:56:26Z</time>
      </trkpt>
      <trkpt lat="45.40607" lon="4.54311">
        <ele>746.76</ele>
        <time>2017-03-26T10:56:27Z</time>
      </trkpt>
      <trkpt lat="45.40592" lon="4.54319">
        <ele>745.86</ele>
        <time>2017-03-26T10:56:28Z</time>
      </trkpt>
      <trkpt lat="45.40577" lon="4.54327">
        <ele>744.96</ele>
        <time>2017-03-26T10:56:29Z</time>
      </trkpt>
      <trkpt lat="45.40562" lon="4.54335">
        <ele>743.98</ele>
        <time>2017-03-26T10:56:30Z</time>
      </trkpt>
      <trkpt lat="45.40547" lon="4.54343">
        <ele>743.06</ele>
        <time>2017-03-26T10:56:31Z</time>
      </trkpt>
      <trkpt lat="45.40531" lon="4.54352">
        <ele>742.08</ele>
        <time>2017-03-26T10:56:32Z</time>
      </trkpt>
      <trkpt lat="45.40516" lon="4.54361">
        <ele>741</ele>
        <time>2017-03-26T10:56:33Z</time>
      </trkpt>
      <trkpt lat="45.405" lon="4.54369">
        <ele>739.98</ele>
        <time>2017-03-26T10:56:34Z</time>
      </trkpt>
      <trkpt lat="45.40484" lon="4.54376">
        <ele>738.98</ele>
        <time>2017-03-26T10:56:35Z</time>
      </trkpt>
      <trkpt lat="45.40467" lon="4.54383">
        <ele>737.98</ele>
        <time>2017-03-26T10:56:36Z</time>
      </trkpt>
      <trkpt lat="45.40451" lon="4.54389">
        <ele>736.9</ele>
        <time>2017-03-26T10:56:37Z</time>
      </trkpt>
      <trkpt lat="45.40435" lon="4.54394">
        <ele>735.96</ele>
        <time>2017-03-26T10:56:38Z</time>
      </trkpt>
      <trkpt lat="45.40418" lon="4.54398">
        <ele>735.06</ele>
        <time>2017-03-26T10:56:39Z</time>
      </trkpt>
      <trkpt lat="45.40401" lon="4.54401">
        <ele>734.08</ele>
        <time>2017-03-26T10:56:40Z</time>
      </trkpt>
      <trkpt lat="45.40385" lon="4.54404">
        <ele>733.16</ele>
        <time>2017-03-26T10:56:41Z</time>
      </trkpt>
      <trkpt lat="45.4037" lon="4.54408">
        <ele>731.86</ele>
        <time>2017-03-26T10:56:42Z</time>
      </trkpt>
      <trkpt lat="45.40356" lon="4.54413">
        <ele>730.8</ele>
        <time>2017-03-26T10:56:43Z</time>
      </trkpt>
      <trkpt lat="45.40343" lon="4.54418">
        <ele>729.78</ele>
        <time>2017-03-26T10:56:44Z</time>
      </trkpt>
      <trkpt lat="45.40331" lon="4.54424">
        <ele>728.7</ele>
        <time>2017-03-26T10:56:45Z</time>
      </trkpt>
      <trkpt lat="45.40323" lon="4.54435">
        <ele>727.6</ele>
        <time>2017-03-26T10:56:46Z</time>
      </trkpt>
      <trkpt lat="45.40314" lon="4.54446">
        <ele>726.5</ele>
        <time>2017-03-26T10:56:47Z</time>
      </trkpt>
      <trkpt lat="45.40309" lon="4.54475">
        <ele>723.96</ele>
        <time>2017-03-26T10:56:48Z</time>
      </trkpt>
      <trkpt lat="45.40305" lon="4.54495">
        <ele>722.58</ele>
        <time>2017-03-26T10:56:49Z</time>
      </trkpt>
      <trkpt lat="45.40299" lon="4.54519">
        <ele>721.34</ele>
        <time>2017-03-26T10:56:50Z</time>
      </trkpt>
      <trkpt lat="45.40294" lon="4.54542">
        <ele>720.29</ele>
        <time>2017-03-26T10:56:51Z</time>
      </trkpt>
      <trkpt lat="45.40288" lon="4.54565">
        <ele>719.28</ele>
        <time>2017-03-26T10:56:52Z</time>
      </trkpt>
      <trkpt lat="45.40281" lon="4.54587">
        <ele>718.28</ele>
        <time>2017-03-26T10:56:53Z</time>
      </trkpt>
      <trkpt lat="45.40271" lon="4.54606">
        <ele>717.2</ele>
        <time>2017-03-26T10:56:54Z</time>
      </trkpt>
      <trkpt lat="45.40261" lon="4.54625">
        <ele>716.1</ele>
        <time>2017-03-26T10:56:55Z</time>
      </trkpt>
      <trkpt lat="45.4025" lon="4.54642">
        <ele>714.92</ele>
        <time>2017-03-26T10:56:56Z</time>
      </trkpt>
      <trkpt lat="45.40239" lon="4.54657">
        <ele>713.73</ele>
        <time>2017-03-26T10:56:57Z</time>
      </trkpt>
      <trkpt lat="45.40227" lon="4.54669">
        <ele>712.53</ele>
        <time>2017-03-26T10:56:58Z</time>
      </trkpt>
      <trkpt lat="45.40216" lon="4.54679">
        <ele>711.41</ele>
        <time>2017-03-26T10:56:59Z</time>
      </trkpt>
      <trkpt lat="45.40205" lon="4.54688">
        <ele>710.39</ele>
        <time>2017-03-26T10:57:00Z</time>
      </trkpt>
      <trkpt lat="45.40195" lon="4.54694">
        <ele>709.3</ele>
        <time>2017-03-26T10:57:01Z</time>
      </trkpt>
      <trkpt lat="45.40185" lon="4.54699">
        <ele>708.28</ele>
        <time>2017-03-26T10:57:02Z</time>
      </trkpt>
      <trkpt lat="45.40177" lon="4.54699">
        <ele>707.28</ele>
        <time>2017-03-26T10:57:03Z</time>
      </trkpt>
      <trkpt lat="45.40171" lon="4.54695">
        <ele>706.28</ele>
        <time>2017-03-26T10:57:04Z</time>
      </trkpt>
      <trkpt lat="45.40166" lon="4.54688">
        <ele>705.36</ele>
        <time>2017-03-26T10:57:05Z</time>
      </trkpt>
      <trkpt lat="45.40162" lon="4.5468">
        <ele>704.38</ele>
        <time>2017-03-26T10:57:06Z</time>
      </trkpt>
      <trkpt lat="45.40161" lon="4.54673">
        <ele>703.22</ele>
        <time>2017-03-26T10:57:07Z</time>
      </trkpt>
      <trkpt lat="45.40166" lon="4.54666">
        <ele>702.27</ele>
        <time>2017-03-26T10:57:08Z</time>
      </trkpt>
      <trkpt lat="45.4018" lon="4.54658">
        <ele>701.04</ele>
        <time>2017-03-26T10:57:09Z</time>
      </trkpt>
      <trkpt lat="45.40191" lon="4.54651">
        <ele>699.67</ele>
        <time>2017-03-26T10:57:10Z</time>
      </trkpt>
      <trkpt lat="45.40202" lon="4.54645">
        <ele>698.12</ele>
        <time>2017-03-26T10:57:11Z</time>
      </trkpt>
      <trkpt lat="45.40213" lon="4.54639">
        <ele>696.85</ele>
        <time>2017-03-26T10:57:12Z</time>
      </trkpt>
      <trkpt lat="45.40222" lon="4.54634">
        <ele>695.71</ele>
        <time>2017-03-26T10:57:13Z</time>
      </trkpt>
      <trkpt lat="45.40231" lon="4.54627">
        <ele>694.53</ele>
        <time>2017-03-26T10:57:14Z</time>
      </trkpt>
      <trkpt lat="45.40238" lon="4.5462">
        <ele>693.49</ele>
        <time>2017-03-26T10:57:15Z</time>
      </trkpt>
      <trkpt lat="45.40244" lon="4.54613">
        <ele>692.56</ele>
        <time>2017-03-26T10:57:16Z</time>
      </trkpt>
      <trkpt lat="45.4025" lon="4.54604">
        <ele>691.66</ele>
        <time>2017-03-26T10:57:17Z</time>
      </trkpt>
      <trkpt lat="45.40254" lon="4.54593">
        <ele>690.76</ele>
        <time>2017-03-26T10:57:18Z</time>
      </trkpt>
      <trkpt lat="45.40258" lon="4.54582">
        <ele>689.78</ele>
        <time>2017-03-26T10:57:19Z</time>
      </trkpt>
      <trkpt lat="45.40262" lon="4.54569">
        <ele>688.3</ele>
        <time>2017-03-26T10:57:20Z</time>
      </trkpt>
      <trkpt lat="45.40266" lon="4.54556">
        <ele>686.88</ele>
        <time>2017-03-26T10:57:21Z</time>
      </trkpt>
      <trkpt lat="45.40268" lon="4.54543">
        <ele>685.48</ele>
        <time>2017-03-26T10:57:22Z</time>
      </trkpt>
      <trkpt lat="45.40271" lon="4.54528">
        <ele>684.16</ele>
        <time>2017-03-26T10:57:23Z</time>
      </trkpt>
      <trkpt lat="45.40272" lon="4.54513">
        <ele>682.54</ele>
        <time>2017-03-26T10:57:24Z</time>
      </trkpt>
      <trkpt lat="45.40271" lon="4.54498">
        <ele>680.77</ele>
        <time>2017-03-26T10:57:25Z</time>
      </trkpt>
      <trkpt lat="45.40271" lon="4.54485">
        <ele>678.98</ele>
        <time>2017-03-26T10:57:26Z</time>
      </trkpt>
      <trkpt lat="45.4027" lon="4.5447">
        <ele>677.34</ele>
        <time>2017-03-26T10:57:27Z</time>
      </trkpt>
      <trkpt lat="45.4027" lon="4.54456">
        <ele>676.05</ele>
        <time>2017-03-26T10:57:28Z</time>
      </trkpt>
      <trkpt lat="45.4027" lon="4.54441">
        <ele>674.91</ele>
        <time>2017-03-26T10:57:29Z</time>
      </trkpt>
      <trkpt lat="45.40276" lon="4.54425">
        <ele>673.73</ele>
        <time>2017-03-26T10:57:30Z</time>
      </trkpt>
      <trkpt lat="45.4028" lon="4.5441">
        <ele>672.53</ele>
        <time>2017-03-26T10:57:31Z</time>
      </trkpt>
      <trkpt lat="45.40284" lon="4.54396">
        <ele>671.09</ele>
        <time>2017-03-26T10:57:32Z</time>
      </trkpt>
      <trkpt lat="45.4029" lon="4.54381">
        <ele>669.6</ele>
        <time>2017-03-26T10:57:33Z</time>
      </trkpt>
      <trkpt lat="45.40298" lon="4.54366">
        <ele>668.34</ele>
        <time>2017-03-26T10:57:34Z</time>
      </trkpt>
      <trkpt lat="45.40306" lon="4.54352">
        <ele>667.13</ele>
        <time>2017-03-26T10:57:35Z</time>
      </trkpt>
      <trkpt lat="45.40315" lon="4.54339">
        <ele>666.09</ele>
        <time>2017-03-26T10:57:36Z</time>
      </trkpt>
      <trkpt lat="45.40325" lon="4.54326">
        <ele>665.08</ele>
        <time>2017-03-26T10:57:37Z</time>
      </trkpt>
      <trkpt lat="45.40337" lon="4.54315">
        <ele>664</ele>
        <time>2017-03-26T10:57:38Z</time>
      </trkpt>
      <trkpt lat="45.40349" lon="4.54303">
        <ele>662.9</ele>
        <time>2017-03-26T10:57:39Z</time>
      </trkpt>
      <trkpt lat="45.4036" lon="4.54293">
        <ele>661.8</ele>
        <time>2017-03-26T10:57:40Z</time>
      </trkpt>
      <trkpt lat="45.40372" lon="4.54285">
        <ele>660.7</ele>
        <time>2017-03-26T10:57:41Z</time>
      </trkpt>
      <trkpt lat="45.40384" lon="4.54277">
        <ele>659.52</ele>
        <time>2017-03-26T10:57:42Z</time>
      </trkpt>
      <trkpt lat="45.40397" lon="4.54269">
        <ele>658.49</ele>
        <time>2017-03-26T10:57:43Z</time>
      </trkpt>
      <trkpt lat="45.4041" lon="4.54261">
        <ele>657.4</ele>
        <time>2017-03-26T10:57:44Z</time>
      </trkpt>
      <trkpt lat="45.40422" lon="4.54251">
        <ele>656.3</ele>
        <time>2017-03-26T10:57:45Z</time>
      </trkpt>
      <trkpt lat="45.40434" lon="4.54237">
        <ele>655.2</ele>
        <time>2017-03-26T10:57:46Z</time>
      </trkpt>
      <trkpt lat="45.40444" lon="4.54225">
        <ele>654.1</ele>
        <time>2017-03-26T10:57:47Z</time>
      </trkpt>
      <trkpt lat="45.40455" lon="4.54214">
        <ele>653.09</ele>
        <time>2017-03-26T10:57:48Z</time>
      </trkpt>
      <trkpt lat="45.40467" lon="4.54204">
        <ele>652</ele>
        <time>2017-03-26T10:57:49Z</time>
      </trkpt>
      <trkpt lat="45.4048" lon="4.54195">
        <ele>650.9</ele>
        <time>2017-03-26T10:57:50Z</time>
      </trkpt>
      <trkpt lat="45.40494" lon="4.54187">
        <ele>649.88</ele>
        <time>2017-03-26T10:57:51Z</time>
      </trkpt>
      <trkpt lat="45.4051" lon="4.54177">
        <ele>648.72</ele>
        <time>2017-03-26T10:57:52Z</time>
      </trkpt>
      <trkpt lat="45.40527" lon="4.54164">
        <ele>646.57</ele>
        <time>2017-03-26T10:57:53Z</time>
      </trkpt>
      <trkpt lat="45.40544" lon="4.54151">
        <ele>644.3</ele>
        <time>2017-03-26T10:57:54Z</time>
      </trkpt>
      <trkpt lat="45.4056" lon="4.54137">
        <ele>642</ele>
        <time>2017-03-26T10:57:55Z</time>
      </trkpt>
      <trkpt lat="45.40576" lon="4.54124">
        <ele>639.78</ele>
        <time>2017-03-26T10:57:56Z</time>
      </trkpt>
      <trkpt lat="45.40591" lon="4.5411">
        <ele>638.14</ele>
        <time>2017-03-26T10:57:57Z</time>
      </trkpt>
      <trkpt lat="45.40606" lon="4.54097">
        <ele>636.21</ele>
        <time>2017-03-26T10:57:58Z</time>
      </trkpt>
      <trkpt lat="45.40621" lon="4.54084">
        <ele>633.83</ele>
        <time>2017-03-26T10:57:59Z</time>
      </trkpt>
      <trkpt lat="45.40636" lon="4.54071">
        <ele>631.51</ele>
        <time>2017-03-26T10:58:00Z</time>
      </trkpt>
      <trkpt lat="45.40651" lon="4.54057">
        <ele>629.21</ele>
        <time>2017-03-26T10:58:01Z</time>
      </trkpt>
      <trkpt lat="45.40665" lon="4.54043">
        <ele>627.23</ele>
        <time>2017-03-26T10:58:02Z</time>
      </trkpt>
      <trkpt lat="45.40678" lon="4.54028">
        <ele>625.71</ele>
        <time>2017-03-26T10:58:03Z</time>
      </trkpt>
      <trkpt lat="45.40691" lon="4.54015">
        <ele>624.13</ele>
        <time>2017-03-26T10:58:04Z</time>
      </trkpt>
      <trkpt lat="45.40704" lon="4.54003">
        <ele>622.77</ele>
        <time>2017-03-26T10:58:05Z</time>
      </trkpt>
      <trkpt lat="45.40718" lon="4.53994">
        <ele>621.46</ele>
        <time>2017-03-26T10:58:06Z</time>
      </trkpt>
      <trkpt lat="45.40733" lon="4.53988">
        <ele>620.08</ele>
        <time>2017-03-26T10:58:07Z</time>
      </trkpt>
      <trkpt lat="45.40748" lon="4.53981">
        <ele>618.76</ele>
        <time>2017-03-26T10:58:08Z</time>
      </trkpt>
      <trkpt lat="45.40765" lon="4.53974">
        <ele>617.46</ele>
        <time>2017-03-26T10:58:09Z</time>
      </trkpt>
      <trkpt lat="45.4078" lon="4.53966">
        <ele>616.24</ele>
        <time>2017-03-26T10:58:10Z</time>
      </trkpt>
      <trkpt lat="45.40796" lon="4.53959">
        <ele>615.03</ele>
        <time>2017-03-26T10:58:11Z</time>
      </trkpt>
      <trkpt lat="45.40812" lon="4.53955">
        <ele>613.75</ele>
        <time>2017-03-26T10:58:12Z</time>
      </trkpt>
      <trkpt lat="45.40829" lon="4.53953">
        <ele>612.53</ele>
        <time>2017-03-26T10:58:13Z</time>
      </trkpt>
      <trkpt lat="45.40847" lon="4.5395">
        <ele>611.33</ele>
        <time>2017-03-26T10:58:14Z</time>
      </trkpt>
      <trkpt lat="45.40865" lon="4.53943">
        <ele>609.81</ele>
        <time>2017-03-26T10:58:15Z</time>
      </trkpt>
      <trkpt lat="45.40883" lon="4.53936">
        <ele>608.31</ele>
        <time>2017-03-26T10:58:16Z</time>
      </trkpt>
      <trkpt lat="45.40899" lon="4.53928">
        <ele>607.13</ele>
        <time>2017-03-26T10:58:17Z</time>
      </trkpt>
      <trkpt lat="45.40915" lon="4.53922">
        <ele>606.01</ele>
        <time>2017-03-26T10:58:18Z</time>
      </trkpt>
      <trkpt lat="45.40928" lon="4.53924">
        <ele>604.99</ele>
        <time>2017-03-26T10:58:19Z</time>
      </trkpt>
      <trkpt lat="45.40943" lon="4.53927">
        <ele>603.74</ele>
        <time>2017-03-26T10:58:20Z</time>
      </trkpt>
      <trkpt lat="45.40958" lon="4.53932">
        <ele>602.61</ele>
        <time>2017-03-26T10:58:21Z</time>
      </trkpt>
      <trkpt lat="45.40974" lon="4.53936">
        <ele>601.51</ele>
        <time>2017-03-26T10:58:22Z</time>
      </trkpt>
      <trkpt lat="45.4099" lon="4.53939">
        <ele>600.41</ele>
        <time>2017-03-26T10:58:23Z</time>
      </trkpt>
      <trkpt lat="45.41007" lon="4.53941">
        <ele>599.31</ele>
        <time>2017-03-26T10:58:24Z</time>
      </trkpt>
      <trkpt lat="45.41025" lon="4.53942">
        <ele>598.21</ele>
        <time>2017-03-26T10:58:25Z</time>
      </trkpt>
      <trkpt lat="45.41043" lon="4.53947">
        <ele>596.86</ele>
        <time>2017-03-26T10:58:26Z</time>
      </trkpt>
      <trkpt lat="45.4106" lon="4.53954">
        <ele>594.6</ele>
        <time>2017-03-26T10:58:27Z</time>
      </trkpt>
      <trkpt lat="45.41073" lon="4.53953">
        <ele>593.18</ele>
        <time>2017-03-26T10:58:28Z</time>
      </trkpt>
      <trkpt lat="45.41083" lon="4.53948">
        <ele>591.86</ele>
        <time>2017-03-26T10:58:29Z</time>
      </trkpt>
      <trkpt lat="45.41093" lon="4.53939">
        <ele>590.64</ele>
        <time>2017-03-26T10:58:30Z</time>
      </trkpt>
      <trkpt lat="45.41098" lon="4.53925">
        <ele>589.35</ele>
        <time>2017-03-26T10:58:31Z</time>
      </trkpt>
      <trkpt lat="45.41104" lon="4.53908">
        <ele>588.05</ele>
        <time>2017-03-26T10:58:32Z</time>
      </trkpt>
      <trkpt lat="45.41108" lon="4.53888">
        <ele>586.83</ele>
        <time>2017-03-26T10:58:33Z</time>
      </trkpt>
      <trkpt lat="45.41113" lon="4.53866">
        <ele>585.63</ele>
        <time>2017-03-26T10:58:34Z</time>
      </trkpt>
      <trkpt lat="45.41116" lon="4.53843">
        <ele>584.35</ele>
        <time>2017-03-26T10:58:35Z</time>
      </trkpt>
      <trkpt lat="45.4112" lon="4.53821">
        <ele>583.05</ele>
        <time>2017-03-26T10:58:36Z</time>
      </trkpt>
      <trkpt lat="45.41124" lon="4.53799">
        <ele>581.75</ele>
        <time>2017-03-26T10:58:37Z</time>
      </trkpt>
      <trkpt lat="45.4113" lon="4.53781">
        <ele>580.21</ele>
        <time>2017-03-26T10:58:38Z</time>
      </trkpt>
      <trkpt lat="45.41143" lon="4.53762">
        <ele>577.43</ele>
        <time>2017-03-26T10:58:39Z</time>
      </trkpt>
      <trkpt lat="45.41157" lon="4.53744">
        <ele>574.63</ele>
        <time>2017-03-26T10:58:40Z</time>
      </trkpt>
      <trkpt lat="45.41173" lon="4.53728">
        <ele>572.07</ele>
        <time>2017-03-26T10:58:41Z</time>
      </trkpt>
      <trkpt lat="45.41191" lon="4.53711">
        <ele>569.88</ele>
        <time>2017-03-26T10:58:42Z</time>
      </trkpt>
      <trkpt lat="45.4121" lon="4.53696">
        <ele>568.56</ele>
        <time>2017-03-26T10:58:43Z</time>
      </trkpt>
      <trkpt lat="45.41229" lon="4.53682">
        <ele>567.1</ele>
        <time>2017-03-26T10:58:44Z</time>
      </trkpt>
      <trkpt lat="45.41247" lon="4.53671">
        <ele>565.52</ele>
        <time>2017-03-26T10:58:45Z</time>
      </trkpt>
      <trkpt lat="45.41265" lon="4.53661">
        <ele>563.93</ele>
        <time>2017-03-26T10:58:46Z</time>
      </trkpt>
      <trkpt lat="45.41282" lon="4.53652">
        <ele>562.25</ele>
        <time>2017-03-26T10:58:47Z</time>
      </trkpt>
      <trkpt lat="45.41296" lon="4.53643">
        <ele>560.55</ele>
        <time>2017-03-26T10:58:48Z</time>
      </trkpt>
      <trkpt lat="45.41308" lon="4.53634">
        <ele>558.93</ele>
        <time>2017-03-26T10:58:49Z</time>
      </trkpt>
      <trkpt lat="45.41314" lon="4.53627">
        <ele>557.33</ele>
        <time>2017-03-26T10:58:50Z</time>
      </trkpt>
      <trkpt lat="45.41321" lon="4.53618">
        <ele>555.97</ele>
        <time>2017-03-26T10:58:51Z</time>
      </trkpt>
      <trkpt lat="45.41329" lon="4.53608">
        <ele>554.58</ele>
        <time>2017-03-26T10:58:52Z</time>
      </trkpt>
      <trkpt lat="45.41339" lon="4.53595">
        <ele>553.1</ele>
        <time>2017-03-26T10:58:53Z</time>
      </trkpt>
      <trkpt lat="45.41349" lon="4.53583">
        <ele>551.6</ele>
        <time>2017-03-26T10:58:54Z</time>
      </trkpt>
      <trkpt lat="45.41361" lon="4.53573">
        <ele>549.94</ele>
        <time>2017-03-26T10:58:55Z</time>
      </trkpt>
      <trkpt lat="45.41372" lon="4.53563">
        <ele>548.49</ele>
        <time>2017-03-26T10:58:56Z</time>
      </trkpt>
      <trkpt lat="45.41383" lon="4.53553">
        <ele>547.16</ele>
        <time>2017-03-26T10:58:57Z</time>
      </trkpt>
      <trkpt lat="45.41394" lon="4.53542">
        <ele>545.78</ele>
        <time>2017-03-26T10:58:58Z</time>
      </trkpt>
      <trkpt lat="45.41404" lon="4.53527">
        <ele>544.38</ele>
        <time>2017-03-26T10:58:59Z</time>
      </trkpt>
      <trkpt lat="45.41414" lon="4.5351">
        <ele>542.98</ele>
        <time>2017-03-26T10:59:00Z</time>
      </trkpt>
      <trkpt lat="45.41422" lon="4.53492">
        <ele>541.66</ele>
        <time>2017-03-26T10:59:01Z</time>
      </trkpt>
      <trkpt lat="45.41431" lon="4.53472">
        <ele>540.36</ele>
        <time>2017-03-26T10:59:02Z</time>
      </trkpt>
      <trkpt lat="45.41439" lon="4.53452">
        <ele>539.22</ele>
        <time>2017-03-26T10:59:03Z</time>
      </trkpt>
      <trkpt lat="45.41448" lon="4.53433">
        <ele>538.03</ele>
        <time>2017-03-26T10:59:04Z</time>
      </trkpt>
      <trkpt lat="45.41455" lon="4.53413">
        <ele>536.83</ele>
        <time>2017-03-26T10:59:05Z</time>
      </trkpt>
      <trkpt lat="45.41463" lon="4.53394">
        <ele>535.63</ele>
        <time>2017-03-26T10:59:06Z</time>
      </trkpt>
      <trkpt lat="45.41471" lon="4.53376">
        <ele>534.59</ele>
        <time>2017-03-26T10:59:07Z</time>
      </trkpt>
      <trkpt lat="45.41479" lon="4.53358">
        <ele>533.5</ele>
        <time>2017-03-26T10:59:08Z</time>
      </trkpt>
      <trkpt lat="45.41487" lon="4.53341">
        <ele>532.48</ele>
        <time>2017-03-26T10:59:09Z</time>
      </trkpt>
      <trkpt lat="45.41496" lon="4.53325">
        <ele>531.48</ele>
        <time>2017-03-26T10:59:10Z</time>
      </trkpt>
      <trkpt lat="45.41505" lon="4.53309">
        <ele>530.48</ele>
        <time>2017-03-26T10:59:11Z</time>
      </trkpt>
      <trkpt lat="45.41514" lon="4.53294">
        <ele>529.64</ele>
        <time>2017-03-26T10:59:12Z</time>
      </trkpt>
      <trkpt lat="45.41526" lon="4.5328">
        <ele>528.67</ele>
        <time>2017-03-26T10:59:13Z</time>
      </trkpt>
      <trkpt lat="45.41538" lon="4.53266">
        <ele>527.84</ele>
        <time>2017-03-26T10:59:14Z</time>
      </trkpt>
      <trkpt lat="45.41551" lon="4.53253">
        <ele>527.03</ele>
        <time>2017-03-26T10:59:15Z</time>
      </trkpt>
      <trkpt lat="45.41563" lon="4.53239">
        <ele>526.31</ele>
        <time>2017-03-26T10:59:16Z</time>
      </trkpt>
      <trkpt lat="45.41575" lon="4.53226">
        <ele>525.77</ele>
        <time>2017-03-26T10:59:17Z</time>
      </trkpt>
      <trkpt lat="45.41587" lon="4.53212">
        <ele>525.18</ele>
        <time>2017-03-26T10:59:18Z</time>
      </trkpt>
      <trkpt lat="45.41599" lon="4.53198">
        <ele>524.58</ele>
        <time>2017-03-26T10:59:19Z</time>
      </trkpt>
      <trkpt lat="45.41612" lon="4.53185">
        <ele>524.14</ele>
        <time>2017-03-26T10:59:20Z</time>
      </trkpt>
      <trkpt lat="45.41625" lon="4.53172">
        <ele>523.73</ele>
        <time>2017-03-26T10:59:21Z</time>
      </trkpt>
      <trkpt lat="45.41638" lon="4.53159">
        <ele>523.25</ele>
        <time>2017-03-26T10:59:22Z</time>
      </trkpt>
      <trkpt lat="45.41656" lon="4.53147">
        <ele>524.03</ele>
        <time>2017-03-26T10:59:23Z</time>
      </trkpt>
      <trkpt lat="45.4167" lon="4.53134">
        <ele>524.19</ele>
        <time>2017-03-26T10:59:24Z</time>
      </trkpt>
      <trkpt lat="45.41685" lon="4.5312">
        <ele>524.38</ele>
        <time>2017-03-26T10:59:25Z</time>
      </trkpt>
      <trkpt lat="45.417" lon="4.53107">
        <ele>524.82</ele>
        <time>2017-03-26T10:59:26Z</time>
      </trkpt>
      <trkpt lat="45.41714" lon="4.53093">
        <ele>525.23</ele>
        <time>2017-03-26T10:59:27Z</time>
      </trkpt>
      <trkpt lat="45.41729" lon="4.53079">
        <ele>525.31</ele>
        <time>2017-03-26T10:59:28Z</time>
      </trkpt>
      <trkpt lat="45.41743" lon="4.53064">
        <ele>525.49</ele>
        <time>2017-03-26T10:59:29Z</time>
      </trkpt>
      <trkpt lat="45.41756" lon="4.53048">
        <ele>525.92</ele>
        <time>2017-03-26T10:59:30Z</time>
      </trkpt>
      <trkpt lat="45.41768" lon="4.53032">
        <ele>526.17</ele>
        <time>2017-03-26T10:59:31Z</time>
      </trkpt>
      <trkpt lat="45.41782" lon="4.53017">
        <ele>527.02</ele>
        <time>2017-03-26T10:59:32Z</time>
      </trkpt>
      <trkpt lat="45.41797" lon="4.53004">
        <ele>527.27</ele>
        <time>2017-03-26T10:59:33Z</time>
      </trkpt>
      <trkpt lat="45.41813" lon="4.52995">
        <ele>527.48</ele>
        <time>2017-03-26T10:59:34Z</time>
      </trkpt>
      <trkpt lat="45.41829" lon="4.52988">
        <ele>527.6</ele>
        <time>2017-03-26T10:59:35Z</time>
      </trkpt>
      <trkpt lat="45.41845" lon="4.5298">
        <ele>527.62</ele>
        <time>2017-03-26T10:59:36Z</time>
      </trkpt>
      <trkpt lat="45.41863" lon="4.52974">
        <ele>527.87</ele>
        <time>2017-03-26T10:59:37Z</time>
      </trkpt>
      <trkpt lat="45.41881" lon="4.52969">
        <ele>528</ele>
        <time>2017-03-26T10:59:38Z</time>
      </trkpt>
      <trkpt lat="45.41899" lon="4.52965">
        <ele>528.34</ele>
        <time>2017-03-26T10:59:39Z</time>
      </trkpt>
      <trkpt lat="45.41916" lon="4.52964">
        <ele>528.65</ele>
        <time>2017-03-26T10:59:40Z</time>
      </trkpt>
      <trkpt lat="45.41933" lon="4.52963">
        <ele>528.87</ele>
        <time>2017-03-26T10:59:41Z</time>
      </trkpt>
      <trkpt lat="45.41949" lon="4.52961">
        <ele>529.16</ele>
        <time>2017-03-26T10:59:42Z</time>
      </trkpt>
      <trkpt lat="45.41965" lon="4.52959">
        <ele>529.22</ele>
        <time>2017-03-26T10:59:43Z</time>
      </trkpt>
      <trkpt lat="45.4198" lon="4.52956">
        <ele>529.31</ele>
        <time>2017-03-26T10:59:44Z</time>
      </trkpt>
      <trkpt lat="45.41993" lon="4.52955">
        <ele>529.57</ele>
        <time>2017-03-26T10:59:45Z</time>
      </trkpt>
      <trkpt lat="45.42006" lon="4.52951">
        <ele>529.62</ele>
        <time>2017-03-26T10:59:46Z</time>
      </trkpt>
      <trkpt lat="45.42019" lon="4.52947">
        <ele>529.87</ele>
        <time>2017-03-26T10:59:47Z</time>
      </trkpt>
      <trkpt lat="45.42032" lon="4.52942">
        <ele>530.24</ele>
        <time>2017-03-26T10:59:48Z</time>
      </trkpt>
      <trkpt lat="45.42045" lon="4.52935">
        <ele>530.55</ele>
        <time>2017-03-26T10:59:49Z</time>
      </trkpt>
      <trkpt lat="45.42058" lon="4.52929">
        <ele>530.77</ele>
        <time>2017-03-26T10:59:50Z</time>
      </trkpt>
      <trkpt lat="45.42071" lon="4.52923">
        <ele>531.06</ele>
        <time>2017-03-26T10:59:51Z</time>
      </trkpt>
      <trkpt lat="45.42086" lon="4.52919">
        <ele>531.52</ele>
        <time>2017-03-26T10:59:52Z</time>
      </trkpt>
      <trkpt lat="45.42101" lon="4.52915">
        <ele>531.77</ele>
        <time>2017-03-26T10:59:53Z</time>
      </trkpt>
      <trkpt lat="45.42116" lon="4.5291">
        <ele>532.06</ele>
        <time>2017-03-26T10:59:54Z</time>
      </trkpt>
      <trkpt lat="45.42131" lon="4.52906">
        <ele>532.28</ele>
        <time>2017-03-26T10:59:55Z</time>
      </trkpt>
      <trkpt lat="45.42146" lon="4.52904">
        <ele>532.56</ele>
        <time>2017-03-26T10:59:56Z</time>
      </trkpt>
      <trkpt lat="45.42161" lon="4.52901">
        <ele>532.94</ele>
        <time>2017-03-26T10:59:57Z</time>
      </trkpt>
      <trkpt lat="45.42176" lon="4.52896">
        <ele>533.33</ele>
        <time>2017-03-26T10:59:58Z</time>
      </trkpt>
      <trkpt lat="45.42191" lon="4.52887">
        <ele>533.57</ele>
        <time>2017-03-26T10:59:59Z</time>
      </trkpt>
      <trkpt lat="45.42207" lon="4.52877">
        <ele>533.94</ele>
        <time>2017-03-26T11:00:00Z</time>
      </trkpt>
      <trkpt lat="45.42222" lon="4.52867">
        <ele>534.09</ele>
        <time>2017-03-26T11:00:01Z</time>
      </trkpt>
      <trkpt lat="45.42238" lon="4.52857">
        <ele>534.2</ele>
        <time>2017-03-26T11:00:02Z</time>
      </trkpt>
      <trkpt lat="45.42256" lon="4.52848">
        <ele>534.3</ele>
        <time>2017-03-26T11:00:03Z</time>
      </trkpt>
      <trkpt lat="45.42275" lon="4.52839">
        <ele>534.4</ele>
        <time>2017-03-26T11:00:04Z</time>
      </trkpt>
      <trkpt lat="45.42293" lon="4.52832">
        <ele>534.51</ele>
        <time>2017-03-26T11:00:05Z</time>
      </trkpt>
      <trkpt lat="45.42312" lon="4.52827">
        <ele>534.6</ele>
        <time>2017-03-26T11:00:06Z</time>
      </trkpt>
      <trkpt lat="45.42331" lon="4.52821">
        <ele>534.95</ele>
        <time>2017-03-26T11:00:07Z</time>
      </trkpt>
      <trkpt lat="45.42349" lon="4.52815">
        <ele>535.25</ele>
        <time>2017-03-26T11:00:08Z</time>
      </trkpt>
      <trkpt lat="45.42368" lon="4.52809">
        <ele>535.55</ele>
        <time>2017-03-26T11:00:09Z</time>
      </trkpt>
      <trkpt lat="45.42386" lon="4.528">
        <ele>535.85</ele>
        <time>2017-03-26T11:00:10Z</time>
      </trkpt>
      <trkpt lat="45.42403" lon="4.5279">
        <ele>536.15</ele>
        <time>2017-03-26T11:00:11Z</time>
      </trkpt>
      <trkpt lat="45.42419" lon="4.52777">
        <ele>536.29</ele>
        <time>2017-03-26T11:00:12Z</time>
      </trkpt>
      <trkpt lat="45.42434" lon="4.52762">
        <ele>536.48</ele>
        <time>2017-03-26T11:00:13Z</time>
      </trkpt>
      <trkpt lat="45.42446" lon="4.5275">
        <ele>536.76</ele>
        <time>2017-03-26T11:00:14Z</time>
      </trkpt>
      <trkpt lat="45.42458" lon="4.52737">
        <ele>536.98</ele>
        <time>2017-03-26T11:00:15Z</time>
      </trkpt>
      <trkpt lat="45.42469" lon="4.52726">
        <ele>537.34</ele>
        <time>2017-03-26T11:00:16Z</time>
      </trkpt>
      <trkpt lat="45.42478" lon="4.52715">
        <ele>537.57</ele>
        <time>2017-03-26T11:00:17Z</time>
      </trkpt>
      <trkpt lat="45.42486" lon="4.52705">
        <ele>537.86</ele>
        <time>2017-03-26T11:00:18Z</time>
      </trkpt>
      <trkpt lat="45.42493" lon="4.52695">
        <ele>538.08</ele>
        <time>2017-03-26T11:00:19Z</time>
      </trkpt>
      <trkpt lat="45.425" lon="4.52686">
        <ele>538.04</ele>
        <time>2017-03-26T11:00:20Z</time>
      </trkpt>
      <trkpt lat="45.42506" lon="4.52676">
        <ele>537.95</ele>
        <time>2017-03-26T11:00:21Z</time>
      </trkpt>
      <trkpt lat="45.42512" lon="4.52667">
        <ele>537.85</ele>
        <time>2017-03-26T11:00:22Z</time>
      </trkpt>
      <trkpt lat="45.42514" lon="4.5266">
        <ele>537.83</ele>
        <time>2017-03-26T11:00:23Z</time>
      </trkpt>
      <trkpt lat="45.42518" lon="4.52655">
        <ele>537.67</ele>
        <time>2017-03-26T11:00:24Z</time>
      </trkpt>
      <trkpt lat="45.42522" lon="4.5265">
        <ele>537.48</ele>
        <time>2017-03-26T11:00:25Z</time>
      </trkpt>
      <trkpt lat="45.42526" lon="4.52646">
        <ele>537.2</ele>
        <time>2017-03-26T11:00:26Z</time>
      </trkpt>
      <trkpt lat="45.42528" lon="4.52645">
        <ele>537.06</ele>
        <time>2017-03-26T11:00:27Z</time>
      </trkpt>
      <trkpt lat="45.42531" lon="4.52643">
        <ele>537.04</ele>
        <time>2017-03-26T11:00:28Z</time>
      </trkpt>
      <trkpt lat="45.42531" lon="4.52643">
        <ele>536.95</ele>
        <time>2017-03-26T11:00:29Z</time>
      </trkpt>
      <trkpt lat="45.42528" lon="4.52647">
        <ele>537.17</ele>
        <time>2017-03-26T11:00:30Z</time>
      </trkpt>
      <trkpt lat="45.42528" lon="4.52647">
        <ele>537.3</ele>
        <time>2017-03-26T11:00:31Z</time>
      </trkpt>
      <trkpt lat="45.42527" lon="4.52648">
        <ele>537.4</ele>
        <time>2017-03-26T11:00:32Z</time>
      </trkpt>
      <trkpt lat="45.42525" lon="4.5265">
        <ele>537.5</ele>
        <time>2017-03-26T11:00:33Z</time>
      </trkpt>
      <trkpt lat="45.42523" lon="4.52651">
        <ele>537.52</ele>
        <time>2017-03-26T11:00:34Z</time>
      </trkpt>
      <trkpt lat="45.42523" lon="4.52651">
        <ele>537.53</ele>
        <time>2017-03-26T11:00:35Z</time>
      </trkpt>
      <trkpt lat="45.42523" lon="4.52651">
        <ele>537.53</ele>
        <time>2017-03-26T11:00:36Z</time>
      </trkpt>
      <trkpt lat="45.42523" lon="4.52651">
        <ele>537.53</ele>
        <time>2017-03-26T11:00:37Z</time>
      </trkpt>
      <trkpt lat="45.42523" lon="4.52651">
        <ele>537.53</ele>
        <time>2017-03-26T11:00:38Z</time>
      </trkpt>
      <trkpt lat="45.42523" lon="4.52651">
        <ele>537.53</ele>
        <time>2017-03-26T11:00:39Z</time>
      </trkpt>
      <trkpt lat="45.42523" lon="4.52651">
        <ele>537.53</ele>
        <time>2017-03-26T11:00:40Z</time>
      </trkpt>
      <trkpt lat="45.42523" lon="4.52651">
        <ele>537.53</ele>
        <time>2017-03-26T11:00:41Z</time>
      </trkpt>
      <trkpt lat="45.42523" lon="4.52651">
        <ele>537.53</ele>
        <time>2017-03-26T11:00:42Z</time>
      </trkpt>
      <trkpt lat="45.42523" lon="4.52651">
        <ele>537.53</ele>
        <time>2017-03-26T11:00:43Z</time>
      </trkpt>
      <trkpt lat="45.42523" lon="4.52651">
        <ele>537.53</ele>
        <time>2017-03-26T11:00:44Z</time>
      </trkpt>
      <trkpt lat="45.42523" lon="4.52651">
        <ele>537.53</ele>
        <time>2017-03-26T11:00:45Z</time>
      </trkpt>
      <trkpt lat="45.42523" lon="4.52651">
        <ele>537.53</ele>
        <time>2017-03-26T11:00:46Z</time>
      </trkpt>
      <trkpt lat="45.42523" lon="4.52651">
        <ele>537.53</ele>
        <time>2017-03-26T11:00:47Z</time>
      </trkpt>
      <trkpt lat="45.42523" lon="4.52651">
        <ele>537.53</ele>
        <time>2017-03-26T11:00:48Z</time>
      </trkpt>
      <trkpt lat="45.42523" lon="4.52651">
        <ele>537.53</ele>
        <time>2017-03-26T11:00:49Z</time>
      </trkpt>
      <trkpt lat="45.42523" lon="4.52651">
        <ele>537.53</ele>
        <time>2017-03-26T11:00:50Z</time>
      </trkpt>
      <trkpt lat="45.42519" lon="4.52648">
        <ele>538.41</ele>
        <time>2017-03-26T11:00:51Z</time>
      </trkpt>
      <trkpt lat="45.4252" lon="4.52645">
        <ele>538.59</ele>
        <time>2017-03-26T11:00:52Z</time>
      </trkpt>
      <trkpt lat="45.42521" lon="4.52641">
        <ele>538.62</ele>
        <time>2017-03-26T11:00:53Z</time>
      </trkpt>
      <trkpt lat="45.42522" lon="4.52636">
        <ele>538.63</ele>
        <time>2017-03-26T11:00:54Z</time>
      </trkpt>
      <trkpt lat="45.42525" lon="4.52628">
        <ele>538.63</ele>
        <time>2017-03-26T11:00:55Z</time>
      </trkpt>
      <trkpt lat="45.42529" lon="4.52619">
        <ele>538.71</ele>
        <time>2017-03-26T11:00:56Z</time>
      </trkpt>
      <trkpt lat="45.42532" lon="4.52611">
        <ele>538.73</ele>
        <time>2017-03-26T11:00:57Z</time>
      </trkpt>
      <trkpt lat="45.42535" lon="4.52602">
        <ele>538.81</ele>
        <time>2017-03-26T11:00:58Z</time>
      </trkpt>
      <trkpt lat="45.42539" lon="4.52592">
        <ele>538.83</ele>
        <time>2017-03-26T11:00:59Z</time>
      </trkpt>
      <trkpt lat="45.42541" lon="4.52582">
        <ele>538.83</ele>
        <time>2017-03-26T11:01:00Z</time>
      </trkpt>
      <trkpt lat="45.42543" lon="4.5257">
        <ele>538.91</ele>
        <time>2017-03-26T11:01:01Z</time>
      </trkpt>
      <trkpt lat="45.42545" lon="4.5256">
        <ele>538.93</ele>
        <time>2017-03-26T11:01:02Z</time>
      </trkpt>
      <trkpt lat="45.42546" lon="4.52549">
        <ele>539.01</ele>
        <time>2017-03-26T11:01:03Z</time>
      </trkpt>
      <trkpt lat="45.42547" lon="4.52539">
        <ele>539.11</ele>
        <time>2017-03-26T11:01:04Z</time>
      </trkpt>
      <trkpt lat="45.42548" lon="4.5253">
        <ele>539.13</ele>
        <time>2017-03-26T11:01:05Z</time>
      </trkpt>
      <trkpt lat="45.42547" lon="4.5252">
        <ele>539.21</ele>
        <time>2017-03-26T11:01:06Z</time>
      </trkpt>
      <trkpt lat="45.42546" lon="4.52508">
        <ele>539.31</ele>
        <time>2017-03-26T11:01:07Z</time>
      </trkpt>
      <trkpt lat="45.42543" lon="4.52496">
        <ele>539.33</ele>
        <time>2017-03-26T11:01:08Z</time>
      </trkpt>
      <trkpt lat="45.4254" lon="4.52482">
        <ele>539.41</ele>
        <time>2017-03-26T11:01:09Z</time>
      </trkpt>
      <trkpt lat="45.42536" lon="4.52469">
        <ele>539.43</ele>
        <time>2017-03-26T11:01:10Z</time>
      </trkpt>
      <trkpt lat="45.42531" lon="4.52455">
        <ele>539.43</ele>
        <time>2017-03-26T11:01:11Z</time>
      </trkpt>
      <trkpt lat="45.42526" lon="4.52442">
        <ele>539.43</ele>
        <time>2017-03-26T11:01:12Z</time>
      </trkpt>
      <trkpt lat="45.42522" lon="4.5243">
        <ele>539.51</ele>
        <time>2017-03-26T11:01:13Z</time>
      </trkpt>
      <trkpt lat="45.42517" lon="4.5242">
        <ele>539.53</ele>
        <time>2017-03-26T11:01:14Z</time>
      </trkpt>
      <trkpt lat="45.42511" lon="4.52414">
        <ele>539.53</ele>
        <time>2017-03-26T11:01:15Z</time>
      </trkpt>
      <trkpt lat="45.42511" lon="4.52411">
        <ele>539.53</ele>
        <time>2017-03-26T11:01:16Z</time>
      </trkpt>
      <trkpt lat="45.4251" lon="4.52407">
        <ele>539.61</ele>
        <time>2017-03-26T11:01:17Z</time>
      </trkpt>
      <trkpt lat="45.42509" lon="4.52405">
        <ele>539.63</ele>
        <time>2017-03-26T11:01:18Z</time>
      </trkpt>
      <trkpt lat="45.42509" lon="4.52404">
        <ele>539.63</ele>
        <time>2017-03-26T11:01:19Z</time>
      </trkpt>
      <trkpt lat="45.42509" lon="4.52404">
        <ele>539.63</ele>
        <time>2017-03-26T11:01:20Z</time>
      </trkpt>
      <trkpt lat="45.42508" lon="4.52404">
        <ele>539.63</ele>
        <time>2017-03-26T11:01:21Z</time>
      </trkpt>
      <trkpt lat="45.42508" lon="4.52404">
        <ele>539.63</ele>
        <time>2017-03-26T11:01:22Z</time>
      </trkpt>
      <trkpt lat="45.42506" lon="4.5241">
        <ele>539.63</ele>
        <time>2017-03-26T11:01:23Z</time>
      </trkpt>
      <trkpt lat="45.42506" lon="4.52413">
        <ele>539.63</ele>
        <time>2017-03-26T11:01:24Z</time>
      </trkpt>
      <trkpt lat="45.42506" lon="4.52416">
        <ele>539.55</ele>
        <time>2017-03-26T11:01:25Z</time>
      </trkpt>
      <trkpt lat="45.42506" lon="4.5242">
        <ele>539.53</ele>
        <time>2017-03-26T11:01:26Z</time>
      </trkpt>
      <trkpt lat="45.42507" lon="4.52425">
        <ele>539.53</ele>
        <time>2017-03-26T11:01:27Z</time>
      </trkpt>
      <trkpt lat="45.42508" lon="4.5243">
        <ele>539.53</ele>
        <time>2017-03-26T11:01:28Z</time>
      </trkpt>
      <trkpt lat="45.42509" lon="4.52435">
        <ele>539.53</ele>
        <time>2017-03-26T11:01:29Z</time>
      </trkpt>
      <trkpt lat="45.4251" lon="4.5244">
        <ele>539.53</ele>
        <time>2017-03-26T11:01:30Z</time>
      </trkpt>
      <trkpt lat="45.42511" lon="4.52444">
        <ele>539.53</ele>
        <time>2017-03-26T11:01:31Z</time>
      </trkpt>
      <trkpt lat="45.42512" lon="4.52448">
        <ele>539.53</ele>
        <time>2017-03-26T11:01:32Z</time>
      </trkpt>
      <trkpt lat="45.42512" lon="4.52452">
        <ele>539.53</ele>
        <time>2017-03-26T11:01:33Z</time>
      </trkpt>
      <trkpt lat="45.42513" lon="4.52456">
        <ele>539.45</ele>
        <time>2017-03-26T11:01:34Z</time>
      </trkpt>
      <trkpt lat="45.42514" lon="4.52459">
        <ele>539.43</ele>
        <time>2017-03-26T11:01:35Z</time>
      </trkpt>
      <trkpt lat="45.42515" lon="4.52462">
        <ele>539.43</ele>
        <time>2017-03-26T11:01:36Z</time>
      </trkpt>
      <trkpt lat="45.42514" lon="4.52466">
        <ele>539.35</ele>
        <time>2017-03-26T11:01:37Z</time>
      </trkpt>
      <trkpt lat="45.42514" lon="4.5247">
        <ele>539.33</ele>
        <time>2017-03-26T11:01:38Z</time>
      </trkpt>
      <trkpt lat="45.42515" lon="4.52473">
        <ele>539.33</ele>
        <time>2017-03-26T11:01:39Z</time>
      </trkpt>
      <trkpt lat="45.42517" lon="4.52476">
        <ele>539.33</ele>
        <time>2017-03-26T11:01:40Z</time>
      </trkpt>
      <trkpt lat="45.42519" lon="4.5248">
        <ele>539.33</ele>
        <time>2017-03-26T11:01:41Z</time>
      </trkpt>
      <trkpt lat="45.4252" lon="4.52483">
        <ele>539.33</ele>
        <time>2017-03-26T11:01:42Z</time>
      </trkpt>
      <trkpt lat="45.42522" lon="4.52486">
        <ele>539.25</ele>
        <time>2017-03-26T11:01:43Z</time>
      </trkpt>
      <trkpt lat="45.42526" lon="4.52492">
        <ele>539.07</ele>
        <time>2017-03-26T11:01:44Z</time>
      </trkpt>
      <trkpt lat="45.42527" lon="4.52497">
        <ele>538.96</ele>
        <time>2017-03-26T11:01:45Z</time>
      </trkpt>
      <trkpt lat="45.42529" lon="4.52502">
        <ele>538.86</ele>
        <time>2017-03-26T11:01:46Z</time>
      </trkpt>
      <trkpt lat="45.42531" lon="4.52506">
        <ele>538.76</ele>
        <time>2017-03-26T11:01:47Z</time>
      </trkpt>
      <trkpt lat="45.42533" lon="4.52509">
        <ele>538.66</ele>
        <time>2017-03-26T11:01:48Z</time>
      </trkpt>
      <trkpt lat="45.42537" lon="4.52513">
        <ele>538.64</ele>
        <time>2017-03-26T11:01:49Z</time>
      </trkpt>
      <trkpt lat="45.4254" lon="4.52517">
        <ele>538.55</ele>
        <time>2017-03-26T11:01:50Z</time>
      </trkpt>
      <trkpt lat="45.42541" lon="4.5252">
        <ele>538.53</ele>
        <time>2017-03-26T11:01:51Z</time>
      </trkpt>
      <trkpt lat="45.42543" lon="4.52523">
        <ele>538.45</ele>
        <time>2017-03-26T11:01:52Z</time>
      </trkpt>
      <trkpt lat="45.42544" lon="4.52524">
        <ele>538.35</ele>
        <time>2017-03-26T11:01:53Z</time>
      </trkpt>
      <trkpt lat="45.42545" lon="4.52526">
        <ele>538.25</ele>
        <time>2017-03-26T11:01:54Z</time>
      </trkpt>
      <trkpt lat="45.42546" lon="4.52527">
        <ele>538.15</ele>
        <time>2017-03-26T11:01:55Z</time>
      </trkpt>
      <trkpt lat="45.42547" lon="4.52528">
        <ele>537.97</ele>
        <time>2017-03-26T11:01:56Z</time>
      </trkpt>
      <trkpt lat="45.42548" lon="4.52528">
        <ele>537.86</ele>
        <time>2017-03-26T11:01:57Z</time>
      </trkpt>
      <trkpt lat="45.42548" lon="4.52528">
        <ele>537.84</ele>
        <time>2017-03-26T11:01:58Z</time>
      </trkpt>
      <trkpt lat="45.42548" lon="4.52528">
        <ele>537.83</ele>
        <time>2017-03-26T11:01:59Z</time>
      </trkpt>
      <trkpt lat="45.42548" lon="4.52528">
        <ele>537.83</ele>
        <time>2017-03-26T11:02:00Z</time>
      </trkpt>
      <trkpt lat="45.42548" lon="4.52528">
        <ele>537.83</ele>
        <time>2017-03-26T11:02:01Z</time>
      </trkpt>
      <trkpt lat="45.42548" lon="4.52528">
        <ele>537.83</ele>
        <time>2017-03-26T11:02:02Z</time>
      </trkpt>
      <trkpt lat="45.42548" lon="4.52528">
        <ele>537.83</ele>
        <time>2017-03-26T11:02:03Z</time>
      </trkpt>
      <trkpt lat="45.42548" lon="4.52528">
        <ele>537.83</ele>
        <time>2017-03-26T11:02:04Z</time>
      </trkpt>
      <trkpt lat="45.42548" lon="4.52528">
        <ele>537.83</ele>
        <time>2017-03-26T11:02:05Z</time>
      </trkpt>
      <trkpt lat="45.42548" lon="4.52528">
        <ele>537.83</ele>
        <time>2017-03-26T11:02:06Z</time>
      </trkpt>
      <trkpt lat="45.42548" lon="4.52528">
        <ele>537.83</ele>
        <time>2017-03-26T11:02:07Z</time>
      </trkpt>
      <trkpt lat="45.42548" lon="4.52528">
        <ele>537.83</ele>
        <time>2017-03-26T11:02:08Z</time>
      </trkpt>
      <trkpt lat="45.42548" lon="4.52528">
        <ele>537.83</ele>
        <time>2017-03-26T11:02:09Z</time>
      </trkpt>
      <trkpt lat="45.42548" lon="4.52528">
        <ele>537.83</ele>
        <time>2017-03-26T11:02:10Z</time>
      </trkpt>
      <trkpt lat="45.42548" lon="4.52528">
        <ele>537.83</ele>
        <time>2017-03-26T11:02:11Z</time>
      </trkpt>
      <trkpt lat="45.42548" lon="4.52528">
        <ele>537.83</ele>
        <time>2017-03-26T11:02:12Z</time>
      </trkpt>
      <trkpt lat="45.42548" lon="4.52528">
        <ele>537.83</ele>
        <time>2017-03-26T11:02:13Z</time>
      </trkpt>
      <trkpt lat="45.42548" lon="4.52528">
        <ele>537.83</ele>
        <time>2017-03-26T11:02:14Z</time>
      </trkpt>
      <trkpt lat="45.42548" lon="4.52528">
        <ele>537.83</ele>
        <time>2017-03-26T11:02:15Z</time>
      </trkpt>
      <trkpt lat="45.42548" lon="4.52528">
        <ele>537.83</ele>
        <time>2017-03-26T11:02:16Z</time>
      </trkpt>
      <trkpt lat="45.42548" lon="4.52528">
        <ele>537.83</ele>
        <time>2017-03-26T11:02:17Z</time>
      </trkpt>
      <trkpt lat="45.42548" lon="4.52528">
        <ele>537.83</ele>
        <time>2017-03-26T11:02:18Z</time>
      </trkpt>
      <trkpt lat="45.42548" lon="4.52528">
        <ele>537.83</ele>
        <time>2017-03-26T11:02:19Z</time>
      </trkpt>
      <trkpt lat="45.42548" lon="4.52528">
        <ele>537.83</ele>
        <time>2017-03-26T11:02:20Z</time>
      </trkpt>
      <trkpt lat="45.42548" lon="4.52528">
        <ele>537.83</ele>
        <time>2017-03-26T11:02:21Z</time>
      </trkpt>
      <trkpt lat="45.42548" lon="4.52528">
        <ele>537.83</ele>
        <time>2017-03-26T11:02:22Z</time>
      </trkpt>
      <trkpt lat="45.42548" lon="4.52528">
        <ele>537.83</ele>
        <time>2017-03-26T11:02:23Z</time>
      </trkpt>
      <trkpt lat="45.42548" lon="4.52528">
        <ele>537.83</ele>
        <time>2017-03-26T11:02:24Z</time>
      </trkpt>
      <trkpt lat="45.42548" lon="4.52528">
        <ele>537.83</ele>
        <time>2017-03-26T11:02:25Z</time>
      </trkpt>
      <trkpt lat="45.42548" lon="4.52528">
        <ele>537.83</ele>
        <time>2017-03-26T11:02:26Z</time>
      </trkpt>
      <trkpt lat="45.42548" lon="4.52528">
        <ele>537.83</ele>
        <time>2017-03-26T11:02:27Z</time>
      </trkpt>
      <trkpt lat="45.42548" lon="4.52528">
        <ele>537.83</ele>
        <time>2017-03-26T11:02:28Z</time>
      </trkpt>
      <trkpt lat="45.42548" lon="4.52528">
        <ele>537.83</ele>
        <time>2017-03-26T11:02:29Z</time>
      </trkpt>
      <trkpt lat="45.42548" lon="4.52528">
        <ele>537.83</ele>
        <time>2017-03-26T11:02:30Z</time>
      </trkpt>
      <trkpt lat="45.42548" lon="4.52528">
        <ele>537.83</ele>
        <time>2017-03-26T11:02:31Z</time>
      </trkpt>
      <trkpt lat="45.42548" lon="4.52528">
        <ele>537.83</ele>
        <time>2017-03-26T11:02:32Z</time>
      </trkpt>
      <trkpt lat="45.42548" lon="4.52528">
        <ele>537.83</ele>
        <time>2017-03-26T11:02:33Z</time>
      </trkpt>
      <trkpt lat="45.42548" lon="4.52528">
        <ele>537.83</ele>
        <time>2017-03-26T11:02:34Z</time>
      </trkpt>
      <trkpt lat="45.42548" lon="4.52528">
        <ele>537.83</ele>
        <time>2017-03-26T11:02:35Z</time>
      </trkpt>
      <trkpt lat="45.42548" lon="4.52528">
        <ele>537.83</ele>
        <time>2017-03-26T11:02:36Z</time>
      </trkpt>
      <trkpt lat="45.42548" lon="4.52528">
        <ele>537.83</ele>
        <time>2017-03-26T11:02:37Z</time>
      </trkpt>
      <trkpt lat="45.42548" lon="4.52528">
        <ele>537.83</ele>
        <time>2017-03-26T11:02:38Z</time>
      </trkpt>
      <trkpt lat="45.42548" lon="4.52528">
        <ele>537.83</ele>
        <time>2017-03-26T11:02:39Z</time>
      </trkpt>
      <trkpt lat="45.42548" lon="4.52528">
        <ele>537.83</ele>
        <time>2017-03-26T11:02:40Z</time>
      </trkpt>
      <trkpt lat="45.42548" lon="4.52528">
        <ele>537.83</ele>
        <time>2017-03-26T11:02:41Z</time>
      </trkpt>
      <trkpt lat="45.42548" lon="4.52528">
        <ele>537.83</ele>
        <time>2017-03-26T11:02:42Z</time>
      </trkpt>
      <trkpt lat="45.42548" lon="4.52528">
        <ele>537.83</ele>
        <time>2017-03-26T11:02:43Z</time>
      </trkpt>
      <trkpt lat="45.42548" lon="4.52528">
        <ele>537.83</ele>
        <time>2017-03-26T11:02:44Z</time>
      </trkpt>
      <trkpt lat="45.42548" lon="4.52528">
        <ele>537.83</ele>
        <time>2017-03-26T11:02:45Z</time>
      </trkpt>
      <trkpt lat="45.42548" lon="4.52528">
        <ele>537.83</ele>
        <time>2017-03-26T11:02:46Z</time>
      </trkpt>
      <trkpt lat="45.42548" lon="4.52528">
        <ele>537.83</ele>
        <time>2017-03-26T11:02:47Z</time>
      </trkpt>
      <trkpt lat="45.42548" lon="4.52528">
        <ele>537.83</ele>
        <time>2017-03-26T11:02:48Z</time>
      </trkpt>
      <trkpt lat="45.42548" lon="4.52528">
        <ele>537.83</ele>
        <time>2017-03-26T11:02:49Z</time>
      </trkpt>
      <trkpt lat="45.42548" lon="4.52528">
        <ele>537.83</ele>
        <time>2017-03-26T11:02:50Z</time>
      </trkpt>
      <trkpt lat="45.42548" lon="4.52528">
        <ele>537.83</ele>
        <time>2017-03-26T11:02:51Z</time>
      </trkpt>
      <trkpt lat="45.42548" lon="4.52528">
        <ele>537.83</ele>
        <time>2017-03-26T11:02:52Z</time>
      </trkpt>
      <trkpt lat="45.42548" lon="4.52528">
        <ele>537.83</ele>
        <time>2017-03-26T11:02:53Z</time>
      </trkpt>
      <trkpt lat="45.42548" lon="4.52528">
        <ele>537.83</ele>
        <time>2017-03-26T11:02:54Z</time>
      </trkpt>
      <trkpt lat="45.42548" lon="4.52528">
        <ele>537.83</ele>
        <time>2017-03-26T11:02:55Z</time>
      </trkpt>
      <trkpt lat="45.42548" lon="4.52528">
        <ele>537.83</ele>
        <time>2017-03-26T11:02:56Z</time>
      </trkpt>
      <trkpt lat="45.42548" lon="4.52528">
        <ele>537.83</ele>
        <time>2017-03-26T11:02:57Z</time>
      </trkpt>
      <trkpt lat="45.42548" lon="4.52528">
        <ele>537.83</ele>
        <time>2017-03-26T11:02:58Z</time>
      </trkpt>
      <trkpt lat="45.42548" lon="4.52528">
        <ele>537.83</ele>
        <time>2017-03-26T11:02:59Z</time>
      </trkpt>
      <trkpt lat="45.42548" lon="4.52528">
        <ele>537.83</ele>
        <time>2017-03-26T11:03:00Z</time>
      </trkpt>
      <trkpt lat="45.42548" lon="4.52528">
        <ele>537.83</ele>
        <time>2017-03-26T11:03:01Z</time>
      </trkpt>
      <trkpt lat="45.42548" lon="4.52528">
        <ele>537.83</ele>
        <time>2017-03-26T11:03:02Z</time>
      </trkpt>
      <trkpt lat="45.42548" lon="4.52528">
        <ele>537.83</ele>
        <time>2017-03-26T11:03:03Z</time>
      </trkpt>
      <trkpt lat="45.42548" lon="4.52528">
        <ele>537.83</ele>
        <time>2017-03-26T11:03:04Z</time>
      </trkpt>
      <trkpt lat="45.42548" lon="4.52528">
        <ele>537.83</ele>
        <time>2017-03-26T11:03:05Z</time>
      </trkpt>
      <trkpt lat="45.42548" lon="4.52528">
        <ele>537.83</ele>
        <time>2017-03-26T11:03:06Z</time>
      </trkpt>
      <trkpt lat="45.42548" lon="4.52528">
        <ele>537.83</ele>
        <time>2017-03-26T11:03:07Z</time>
      </trkpt>
      <trkpt lat="45.42548" lon="4.52528">
        <ele>537.83</ele>
        <time>2017-03-26T11:03:08Z</time>
      </trkpt>
      <trkpt lat="45.42548" lon="4.52528">
        <ele>537.83</ele>
        <time>2017-03-26T11:03:09Z</time>
      </trkpt>
      <trkpt lat="45.42548" lon="4.52528">
        <ele>537.83</ele>
        <time>2017-03-26T11:03:10Z</time>
      </trkpt>
      <trkpt lat="45.42548" lon="4.52528">
        <ele>537.83</ele>
        <time>2017-03-26T11:03:11Z</time>
      </trkpt>
      <trkpt lat="45.42548" lon="4.52528">
        <ele>537.83</ele>
        <time>2017-03-26T11:03:12Z</time>
      </trkpt>
      <trkpt lat="45.42548" lon="4.52528">
        <ele>537.83</ele>
        <time>2017-03-26T11:03:13Z</time>
      </trkpt>
      <trkpt lat="45.42548" lon="4.52528">
        <ele>537.83</ele>
        <time>2017-03-26T11:03:14Z</time>
      </trkpt>
      <trkpt lat="45.42548" lon="4.52528">
        <ele>537.83</ele>
        <time>2017-03-26T11:03:15Z</time>
      </trkpt>
      <trkpt lat="45.42548" lon="4.52528">
        <ele>537.83</ele>
        <time>2017-03-26T11:03:16Z</time>
      </trkpt>
      <trkpt lat="45.42548" lon="4.52528">
        <ele>537.83</ele>
        <time>2017-03-26T11:03:17Z</time>
      </trkpt>
      <trkpt lat="45.42548" lon="4.52528">
        <ele>537.83</ele>
        <time>2017-03-26T11:03:18Z</time>
      </trkpt>
      <trkpt lat="45.42548" lon="4.52528">
        <ele>537.83</ele>
        <time>2017-03-26T11:03:19Z</time>
      </trkpt>
      <trkpt lat="45.42548" lon="4.52528">
        <ele>537.83</ele>
        <time>2017-03-26T11:03:20Z</time>
      </trkpt>
      <trkpt lat="45.42548" lon="4.52528">
        <ele>537.83</ele>
        <time>2017-03-26T11:03:21Z</time>
      </trkpt>
      <trkpt lat="45.42548" lon="4.52528">
        <ele>537.83</ele>
        <time>2017-03-26T11:03:22Z</time>
      </trkpt>
      <trkpt lat="45.42548" lon="4.52528">
        <ele>537.83</ele>
        <time>2017-03-26T11:03:23Z</time>
      </trkpt>
      <trkpt lat="45.42548" lon="4.52528">
        <ele>537.83</ele>
        <time>2017-03-26T11:03:24Z</time>
      </trkpt>
      <trkpt lat="45.42548" lon="4.52528">
        <ele>537.83</ele>
        <time>2017-03-26T11:03:25Z</time>
      </trkpt>
      <trkpt lat="45.42548" lon="4.52528">
        <ele>537.83</ele>
        <time>2017-03-26T11:03:26Z</time>
      </trkpt>
      <trkpt lat="45.42548" lon="4.52528">
        <ele>537.83</ele>
        <time>2017-03-26T11:03:27Z</time>
      </trkpt>
      <trkpt lat="45.42548" lon="4.52528">
        <ele>537.83</ele>
        <time>2017-03-26T11:03:28Z</time>
      </trkpt>
      <trkpt lat="45.42548" lon="4.52528">
        <ele>537.83</ele>
        <time>2017-03-26T11:03:29Z</time>
      </trkpt>
      <trkpt lat="45.42548" lon="4.52528">
        <ele>537.83</ele>
        <time>2017-03-26T11:03:30Z</time>
      </trkpt>
      <trkpt lat="45.42548" lon="4.52528">
        <ele>537.83</ele>
        <time>2017-03-26T11:03:31Z</time>
      </trkpt>
      <trkpt lat="45.42548" lon="4.52528">
        <ele>537.83</ele>
        <time>2017-03-26T11:03:32Z</time>
      </trkpt>
      <trkpt lat="45.42548" lon="4.52528">
        <ele>537.83</ele>
        <time>2017-03-26T11:03:33Z</time>
      </trkpt>
      <trkpt lat="45.42548" lon="4.52528">
        <ele>537.83</ele>
        <time>2017-03-26T11:03:34Z</time>
      </trkpt>
      <trkpt lat="45.42548" lon="4.52528">
        <ele>537.83</ele>
        <time>2017-03-26T11:03:35Z</time>
      </trkpt>
      <trkpt lat="45.42548" lon="4.52528">
        <ele>537.83</ele>
        <time>2017-03-26T11:03:36Z</time>
      </trkpt>
      <trkpt lat="45.42548" lon="4.52528">
        <ele>537.83</ele>
        <time>2017-03-26T11:03:37Z</time>
      </trkpt>
      <trkpt lat="45.42548" lon="4.52528">
        <ele>537.83</ele>
        <time>2017-03-26T11:03:38Z</time>
      </trkpt>
      <trkpt lat="45.42548" lon="4.52528">
        <ele>537.83</ele>
        <time>2017-03-26T11:03:39Z</time>
      </trkpt>
      <trkpt lat="45.42548" lon="4.52528">
        <ele>537.83</ele>
        <time>2017-03-26T11:03:40Z</time>
      </trkpt>
      <trkpt lat="45.42548" lon="4.52528">
        <ele>537.83</ele>
        <time>2017-03-26T11:03:41Z</time>
      </trkpt>
      <trkpt lat="45.42548" lon="4.52528">
        <ele>537.83</ele>
        <time>2017-03-26T11:03:42Z</time>
      </trkpt>
      <trkpt lat="45.42548" lon="4.52528">
        <ele>537.83</ele>
        <time>2017-03-26T11:03:43Z</time>
      </trkpt>
      <trkpt lat="45.42548" lon="4.52528">
        <ele>537.83</ele>
        <time>2017-03-26T11:03:44Z</time>
      </trkpt>
      <trkpt lat="45.42548" lon="4.52528">
        <ele>537.83</ele>
        <time>2017-03-26T11:03:45Z</time>
      </trkpt>
      <trkpt lat="45.42548" lon="4.52528">
        <ele>537.83</ele>
        <time>2017-03-26T11:03:46Z</time>
      </trkpt>
      <trkpt lat="45.42548" lon="4.52528">
        <ele>537.83</ele>
        <time>2017-03-26T11:03:47Z</time>
      </trkpt>
      <trkpt lat="45.42548" lon="4.52528">
        <ele>537.83</ele>
        <time>2017-03-26T11:03:48Z</time>
      </trkpt>
      <trkpt lat="45.42548" lon="4.52528">
        <ele>537.83</ele>
        <time>2017-03-26T11:03:49Z</time>
      </trkpt>
      <trkpt lat="45.42548" lon="4.52528">
        <ele>537.83</ele>
        <time>2017-03-26T11:03:50Z</time>
      </trkpt>
      <trkpt lat="45.42548" lon="4.52528">
        <ele>537.83</ele>
        <time>2017-03-26T11:03:51Z</time>
      </trkpt>
      <trkpt lat="45.42548" lon="4.52528">
        <ele>537.83</ele>
        <time>2017-03-26T11:03:52Z</time>
      </trkpt>
      <trkpt lat="45.42548" lon="4.52528">
        <ele>537.83</ele>
        <time>2017-03-26T11:03:53Z</time>
      </trkpt>
      <trkpt lat="45.42548" lon="4.52528">
        <ele>537.83</ele>
        <time>2017-03-26T11:03:54Z</time>
      </trkpt>
      <trkpt lat="45.42548" lon="4.52528">
        <ele>537.83</ele>
        <time>2017-03-26T11:03:55Z</time>
      </trkpt>
      <trkpt lat="45.42548" lon="4.52528">
        <ele>537.83</ele>
        <time>2017-03-26T11:03:56Z</time>
      </trkpt>
      <trkpt lat="45.42548" lon="4.52528">
        <ele>537.83</ele>
        <time>2017-03-26T11:03:57Z</time>
      </trkpt>
      <trkpt lat="45.42548" lon="4.52528">
        <ele>537.83</ele>
        <time>2017-03-26T11:03:58Z</time>
      </trkpt>
      <trkpt lat="45.42548" lon="4.52528">
        <ele>537.83</ele>
        <time>2017-03-26T11:03:59Z</time>
      </trkpt>
      <trkpt lat="45.42548" lon="4.52528">
        <ele>537.83</ele>
        <time>2017-03-26T11:04:00Z</time>
      </trkpt>
      <trkpt lat="45.42548" lon="4.52528">
        <ele>537.83</ele>
        <time>2017-03-26T11:04:01Z</time>
      </trkpt>
      <trkpt lat="45.42548" lon="4.52528">
        <ele>537.83</ele>
        <time>2017-03-26T11:04:02Z</time>
      </trkpt>
      <trkpt lat="45.42548" lon="4.52528">
        <ele>537.83</ele>
        <time>2017-03-26T11:04:03Z</time>
      </trkpt>
      <trkpt lat="45.42548" lon="4.52528">
        <ele>537.83</ele>
        <time>2017-03-26T11:04:04Z</time>
      </trkpt>
      <trkpt lat="45.42548" lon="4.52528">
        <ele>537.83</ele>
        <time>2017-03-26T11:04:05Z</time>
      </trkpt>
      <trkpt lat="45.42548" lon="4.52528">
        <ele>537.83</ele>
        <time>2017-03-26T11:04:06Z</time>
      </trkpt>
      <trkpt lat="45.42548" lon="4.52528">
        <ele>537.83</ele>
        <time>2017-03-26T11:04:07Z</time>
      </trkpt>
      <trkpt lat="45.42548" lon="4.52528">
        <ele>537.83</ele>
        <time>2017-03-26T11:04:08Z</time>
      </trkpt>
      <trkpt lat="45.42548" lon="4.52528">
        <ele>537.83</ele>
        <time>2017-03-26T11:04:09Z</time>
      </trkpt>
      <trkpt lat="45.42548" lon="4.52528">
        <ele>537.83</ele>
        <time>2017-03-26T11:04:10Z</time>
      </trkpt>
      <trkpt lat="45.42548" lon="4.52528">
        <ele>537.83</ele>
        <time>2017-03-26T11:04:11Z</time>
      </trkpt>
      <trkpt lat="45.42548" lon="4.52528">
        <ele>537.83</ele>
        <time>2017-03-26T11:04:12Z</time>
      </trkpt>
      <trkpt lat="45.42548" lon="4.52528">
        <ele>537.83</ele>
        <time>2017-03-26T11:04:13Z</time>
      </trkpt>
      <trkpt lat="45.42548" lon="4.52528">
        <ele>537.83</ele>
        <time>2017-03-26T11:04:14Z</time>
      </trkpt>
      <trkpt lat="45.42548" lon="4.52528">
        <ele>537.83</ele>
        <time>2017-03-26T11:04:15Z</time>
      </trkpt>
      <trkpt lat="45.42548" lon="4.52528">
        <ele>537.83</ele>
        <time>2017-03-26T11:04:16Z</time>
      </trkpt>
      <trkpt lat="45.42548" lon="4.52528">
        <ele>537.83</ele>
        <time>2017-03-26T11:04:17Z</time>
      </trkpt>
      <trkpt lat="45.42548" lon="4.52528">
        <ele>537.83</ele>
        <time>2017-03-26T11:04:18Z</time>
      </trkpt>
      <trkpt lat="45.42548" lon="4.52528">
        <ele>537.83</ele>
        <time>2017-03-26T11:04:19Z</time>
      </trkpt>
      <trkpt lat="45.42548" lon="4.52528">
        <ele>537.83</ele>
        <time>2017-03-26T11:04:20Z</time>
      </trkpt>
      <trkpt lat="45.42548" lon="4.52528">
        <ele>537.83</ele>
        <time>2017-03-26T11:04:21Z</time>
      </trkpt>
      <trkpt lat="45.42548" lon="4.52528">
        <ele>537.83</ele>
        <time>2017-03-26T11:04:22Z</time>
      </trkpt>
      <trkpt lat="45.42548" lon="4.52528">
        <ele>537.83</ele>
        <time>2017-03-26T11:04:23Z</time>
      </trkpt>
      <trkpt lat="45.42548" lon="4.52528">
        <ele>537.83</ele>
        <time>2017-03-26T11:04:24Z</time>
      </trkpt>
      <trkpt lat="45.42548" lon="4.52528">
        <ele>537.83</ele>
        <time>2017-03-26T11:04:25Z</time>
      </trkpt>
      <trkpt lat="45.42548" lon="4.52528">
        <ele>537.83</ele>
        <time>2017-03-26T11:04:26Z</time>
      </trkpt>
      <trkpt lat="45.42548" lon="4.52528">
        <ele>537.83</ele>
        <time>2017-03-26T11:04:27Z</time>
      </trkpt>
      <trkpt lat="45.42548" lon="4.52528">
        <ele>537.83</ele>
        <time>2017-03-26T11:04:28Z</time>
      </trkpt>
      <trkpt lat="45.42548" lon="4.52528">
        <ele>537.83</ele>
        <time>2017-03-26T11:04:29Z</time>
      </trkpt>
      <trkpt lat="45.42548" lon="4.52528">
        <ele>537.83</ele>
        <time>2017-03-26T11:04:30Z</time>
      </trkpt>
      <trkpt lat="45.42548" lon="4.52528">
        <ele>537.83</ele>
        <time>2017-03-26T11:04:31Z</time>
      </trkpt>
      <trkpt lat="45.42548" lon="4.52528">
        <ele>537.83</ele>
        <time>2017-03-26T11:04:32Z</time>
      </trkpt>
      <trkpt lat="45.42548" lon="4.52528">
        <ele>537.83</ele>
        <time>2017-03-26T11:04:33Z</time>
      </trkpt>
      <trkpt lat="45.42548" lon="4.52528">
        <ele>537.83</ele>
        <time>2017-03-26T11:04:34Z</time>
      </trkpt>
      <trkpt lat="45.42548" lon="4.52528">
        <ele>537.83</ele>
        <time>2017-03-26T11:04:35Z</time>
      </trkpt>
      <trkpt lat="45.42548" lon="4.52528">
        <ele>537.83</ele>
        <time>2017-03-26T11:04:36Z</time>
      </trkpt>
      <trkpt lat="45.42548" lon="4.52528">
        <ele>537.83</ele>
        <time>2017-03-26T11:04:37Z</time>
      </trkpt>
      <trkpt lat="45.42548" lon="4.52528">
        <ele>537.83</ele>
        <time>2017-03-26T11:04:38Z</time>
      </trkpt>
      <trkpt lat="45.42548" lon="4.52528">
        <ele>537.83</ele>
        <time>2017-03-26T11:04:39Z</time>
      </trkpt>
      <trkpt lat="45.42548" lon="4.52528">
        <ele>537.83</ele>
        <time>2017-03-26T11:04:40Z</time>
      </trkpt>
      <trkpt lat="45.42548" lon="4.52528">
        <ele>537.83</ele>
        <time>2017-03-26T11:04:41Z</time>
      </trkpt>
      <trkpt lat="45.42548" lon="4.52528">
        <ele>537.83</ele>
        <time>2017-03-26T11:04:42Z</time>
      </trkpt>
      <trkpt lat="45.42548" lon="4.52528">
        <ele>537.83</ele>
        <time>2017-03-26T11:04:43Z</time>
      </trkpt>
      <trkpt lat="45.42548" lon="4.52528">
        <ele>537.83</ele>
        <time>2017-03-26T11:04:44Z</time>
      </trkpt>
      <trkpt lat="45.42548" lon="4.52528">
        <ele>537.83</ele>
        <time>2017-03-26T11:04:45Z</time>
      </trkpt>
      <trkpt lat="45.42548" lon="4.52528">
        <ele>537.83</ele>
        <time>2017-03-26T11:04:46Z</time>
      </trkpt>
      <trkpt lat="45.42548" lon="4.52528">
        <ele>537.83</ele>
        <time>2017-03-26T11:04:47Z</time>
      </trkpt>
      <trkpt lat="45.42548" lon="4.52528">
        <ele>537.83</ele>
        <time>2017-03-26T11:04:48Z</time>
      </trkpt>
      <trkpt lat="45.42548" lon="4.52528">
        <ele>537.83</ele>
        <time>2017-03-26T11:04:49Z</time>
      </trkpt>
      <trkpt lat="45.42548" lon="4.52528">
        <ele>537.83</ele>
        <time>2017-03-26T11:04:50Z</time>
      </trkpt>
      <trkpt lat="45.42548" lon="4.52528">
        <ele>537.83</ele>
        <time>2017-03-26T11:04:51Z</time>
      </trkpt>
      <trkpt lat="45.42548" lon="4.52528">
        <ele>537.83</ele>
        <time>2017-03-26T11:04:52Z</time>
      </trkpt>
      <trkpt lat="45.42548" lon="4.52528">
        <ele>537.83</ele>
        <time>2017-03-26T11:04:53Z</time>
      </trkpt>
      <trkpt lat="45.42548" lon="4.52528">
        <ele>537.83</ele>
        <time>2017-03-26T11:04:54Z</time>
      </trkpt>
      <trkpt lat="45.42548" lon="4.52528">
        <ele>537.83</ele>
        <time>2017-03-26T11:04:55Z</time>
      </trkpt>
      <trkpt lat="45.42548" lon="4.52528">
        <ele>537.83</ele>
        <time>2017-03-26T11:04:56Z</time>
      </trkpt>
      <trkpt lat="45.42548" lon="4.52528">
        <ele>537.83</ele>
        <time>2017-03-26T11:04:57Z</time>
      </trkpt>
      <trkpt lat="45.42548" lon="4.52528">
        <ele>537.83</ele>
        <time>2017-03-26T11:04:58Z</time>
      </trkpt>
      <trkpt lat="45.42548" lon="4.52528">
        <ele>537.83</ele>
        <time>2017-03-26T11:04:59Z</time>
      </trkpt>
      <trkpt lat="45.42548" lon="4.52528">
        <ele>537.83</ele>
        <time>2017-03-26T11:05:00Z</time>
      </trkpt>
      <trkpt lat="45.42548" lon="4.52528">
        <ele>537.83</ele>
        <time>2017-03-26T11:05:01Z</time>
      </trkpt>
      <trkpt lat="45.42548" lon="4.52528">
        <ele>537.83</ele>
        <time>2017-03-26T11:05:02Z</time>
      </trkpt>
      <trkpt lat="45.42548" lon="4.52528">
        <ele>537.83</ele>
        <time>2017-03-26T11:05:03Z</time>
      </trkpt>
      <trkpt lat="45.42548" lon="4.52528">
        <ele>537.83</ele>
        <time>2017-03-26T11:05:04Z</time>
      </trkpt>
      <trkpt lat="45.42548" lon="4.52528">
        <ele>537.83</ele>
        <time>2017-03-26T11:05:05Z</time>
      </trkpt>
      <trkpt lat="45.42548" lon="4.52528">
        <ele>537.83</ele>
        <time>2017-03-26T11:05:06Z</time>
      </trkpt>
      <trkpt lat="45.42548" lon="4.52528">
        <ele>537.83</ele>
        <time>2017-03-26T11:05:07Z</time>
      </trkpt>
      <trkpt lat="45.42548" lon="4.52528">
        <ele>537.83</ele>
        <time>2017-03-26T11:05:08Z</time>
      </trkpt>
      <trkpt lat="45.42548" lon="4.52528">
        <ele>537.83</ele>
        <time>2017-03-26T11:05:09Z</time>
      </trkpt>
      <trkpt lat="45.42548" lon="4.52528">
        <ele>537.83</ele>
        <time>2017-03-26T11:05:10Z</time>
      </trkpt>
      <trkpt lat="45.42548" lon="4.52528">
        <ele>537.83</ele>
        <time>2017-03-26T11:05:11Z</time>
      </trkpt>
      <trkpt lat="45.42548" lon="4.52528">
        <ele>537.83</ele>
        <time>2017-03-26T11:05:12Z</time>
      </trkpt>
      <trkpt lat="45.42548" lon="4.52528">
        <ele>537.83</ele>
        <time>2017-03-26T11:05:13Z</time>
      </trkpt>
      <trkpt lat="45.42548" lon="4.52528">
        <ele>537.83</ele>
        <time>2017-03-26T11:05:14Z</time>
      </trkpt>
      <trkpt lat="45.42548" lon="4.52528">
        <ele>537.83</ele>
        <time>2017-03-26T11:05:15Z</time>
      </trkpt>
      <trkpt lat="45.42548" lon="4.52528">
        <ele>537.83</ele>
        <time>2017-03-26T11:05:16Z</time>
      </trkpt>
      <trkpt lat="45.42548" lon="4.52528">
        <ele>537.83</ele>
        <time>2017-03-26T11:05:17Z</time>
      </trkpt>
      <trkpt lat="45.42548" lon="4.52528">
        <ele>537.83</ele>
        <time>2017-03-26T11:05:18Z</time>
      </trkpt>
      <trkpt lat="45.42548" lon="4.52528">
        <ele>537.83</ele>
        <time>2017-03-26T11:05:19Z</time>
      </trkpt>
      <trkpt lat="45.42548" lon="4.52528">
        <ele>537.83</ele>
        <time>2017-03-26T11:05:20Z</time>
      </trkpt>
      <trkpt lat="45.42548" lon="4.52528">
        <ele>537.83</ele>
        <time>2017-03-26T11:05:21Z</time>
      </trkpt>
      <trkpt lat="45.42548" lon="4.52528">
        <ele>537.83</ele>
        <time>2017-03-26T11:05:22Z</time>
      </trkpt>
      <trkpt lat="45.42548" lon="4.52528">
        <ele>537.83</ele>
        <time>2017-03-26T11:05:23Z</time>
      </trkpt>
      <trkpt lat="45.42548" lon="4.52528">
        <ele>537.83</ele>
        <time>2017-03-26T11:05:24Z</time>
      </trkpt>
      <trkpt lat="45.42548" lon="4.52528">
        <ele>537.83</ele>
        <time>2017-03-26T11:05:25Z</time>
      </trkpt>
      <trkpt lat="45.42548" lon="4.52528">
        <ele>537.83</ele>
        <time>2017-03-26T11:05:26Z</time>
      </trkpt>
      <trkpt lat="45.42548" lon="4.52528">
        <ele>537.83</ele>
        <time>2017-03-26T11:05:27Z</time>
      </trkpt>
      <trkpt lat="45.42548" lon="4.52528">
        <ele>537.83</ele>
        <time>2017-03-26T11:05:28Z</time>
      </trkpt>
      <trkpt lat="45.42548" lon="4.52528">
        <ele>537.83</ele>
        <time>2017-03-26T11:05:29Z</time>
      </trkpt>
      <trkpt lat="45.42548" lon="4.52528">
        <ele>537.83</ele>
        <time>2017-03-26T11:05:30Z</time>
      </trkpt>
      <trkpt lat="45.42548" lon="4.52528">
        <ele>537.83</ele>
        <time>2017-03-26T11:05:31Z</time>
      </trkpt>
      <trkpt lat="45.42548" lon="4.52528">
        <ele>537.83</ele>
        <time>2017-03-26T11:05:32Z</time>
      </trkpt>
      <trkpt lat="45.42548" lon="4.52528">
        <ele>537.83</ele>
        <time>2017-03-26T11:05:33Z</time>
      </trkpt>
      <trkpt lat="45.42548" lon="4.52528">
        <ele>537.83</ele>
        <time>2017-03-26T11:05:34Z</time>
      </trkpt>
      <trkpt lat="45.42548" lon="4.52528">
        <ele>537.83</ele>
        <time>2017-03-26T11:05:35Z</time>
      </trkpt>
      <trkpt lat="45.42548" lon="4.52528">
        <ele>537.83</ele>
        <time>2017-03-26T11:05:36Z</time>
      </trkpt>
      <trkpt lat="45.42548" lon="4.52528">
        <ele>537.83</ele>
        <time>2017-03-26T11:05:37Z</time>
      </trkpt>
      <trkpt lat="45.42548" lon="4.52528">
        <ele>537.83</ele>
        <time>2017-03-26T11:05:38Z</time>
      </trkpt>
      <trkpt lat="45.42548" lon="4.52528">
        <ele>537.83</ele>
        <time>2017-03-26T11:05:39Z</time>
      </trkpt>
      <trkpt lat="45.42548" lon="4.52528">
        <ele>537.83</ele>
        <time>2017-03-26T11:05:40Z</time>
      </trkpt>
      <trkpt lat="45.42548" lon="4.52528">
        <ele>537.83</ele>
        <time>2017-03-26T11:05:41Z</time>
      </trkpt>
      <trkpt lat="45.42548" lon="4.52528">
        <ele>537.83</ele>
        <time>2017-03-26T11:05:42Z</time>
      </trkpt>
      <trkpt lat="45.42548" lon="4.52528">
        <ele>537.83</ele>
        <time>2017-03-26T11:05:43Z</time>
      </trkpt>
      <trkpt lat="45.42548" lon="4.52528">
        <ele>537.83</ele>
        <time>2017-03-26T11:05:44Z</time>
      </trkpt>
      <trkpt lat="45.42548" lon="4.52528">
        <ele>537.83</ele>
        <time>2017-03-26T11:05:45Z</time>
      </trkpt>
      <trkpt lat="45.42548" lon="4.52528">
        <ele>537.83</ele>
        <time>2017-03-26T11:05:46Z</time>
      </trkpt>
      <trkpt lat="45.42548" lon="4.52528">
        <ele>537.83</ele>
        <time>2017-03-26T11:05:47Z</time>
      </trkpt>
      <trkpt lat="45.42548" lon="4.52528">
        <ele>537.83</ele>
        <time>2017-03-26T11:05:48Z</time>
      </trkpt>
      <trkpt lat="45.42548" lon="4.52528">
        <ele>537.83</ele>
        <time>2017-03-26T11:05:49Z</time>
      </trkpt>
      <trkpt lat="45.42548" lon="4.52528">
        <ele>537.83</ele>
        <time>2017-03-26T11:05:50Z</time>
      </trkpt>
      <trkpt lat="45.42548" lon="4.52528">
        <ele>537.83</ele>
        <time>2017-03-26T11:05:51Z</time>
      </trkpt>
      <trkpt lat="45.42548" lon="4.52528">
        <ele>537.83</ele>
        <time>2017-03-26T11:05:52Z</time>
      </trkpt>
      <trkpt lat="45.42548" lon="4.52528">
        <ele>537.83</ele>
        <time>2017-03-26T11:05:53Z</time>
      </trkpt>
      <trkpt lat="45.42548" lon="4.52528">
        <ele>537.83</ele>
        <time>2017-03-26T11:05:54Z</time>
      </trkpt>
      <trkpt lat="45.42548" lon="4.52528">
        <ele>537.83</ele>
        <time>2017-03-26T11:05:55Z</time>
      </trkpt>
      <trkpt lat="45.42548" lon="4.52528">
        <ele>537.83</ele>
        <time>2017-03-26T11:05:56Z</time>
      </trkpt>
      <trkpt lat="45.42548" lon="4.52528">
        <ele>537.83</ele>
        <time>2017-03-26T11:05:57Z</time>
      </trkpt>
      <trkpt lat="45.42548" lon="4.52528">
        <ele>537.83</ele>
        <time>2017-03-26T11:05:58Z</time>
      </trkpt>
      <trkpt lat="45.42548" lon="4.52528">
        <ele>537.83</ele>
        <time>2017-03-26T11:05:59Z</time>
      </trkpt>
      <trkpt lat="45.42548" lon="4.52528">
        <ele>537.83</ele>
        <time>2017-03-26T11:06:00Z</time>
      </trkpt>
      <trkpt lat="45.42548" lon="4.52528">
        <ele>537.83</ele>
        <time>2017-03-26T11:06:01Z</time>
      </trkpt>
      <trkpt lat="45.42548" lon="4.52528">
        <ele>537.83</ele>
        <time>2017-03-26T11:06:02Z</time>
      </trkpt>
      <trkpt lat="45.42548" lon="4.52528">
        <ele>537.83</ele>
        <time>2017-03-26T11:06:03Z</time>
      </trkpt>
      <trkpt lat="45.42548" lon="4.52528">
        <ele>537.83</ele>
        <time>2017-03-26T11:06:04Z</time>
      </trkpt>
      <trkpt lat="45.42548" lon="4.52528">
        <ele>537.83</ele>
        <time>2017-03-26T11:06:05Z</time>
      </trkpt>
      <trkpt lat="45.42548" lon="4.52528">
        <ele>537.83</ele>
        <time>2017-03-26T11:06:06Z</time>
      </trkpt>
      <trkpt lat="45.42548" lon="4.52528">
        <ele>537.83</ele>
        <time>2017-03-26T11:06:07Z</time>
      </trkpt>
      <trkpt lat="45.42548" lon="4.52528">
        <ele>537.83</ele>
        <time>2017-03-26T11:06:08Z</time>
      </trkpt>
      <trkpt lat="45.42548" lon="4.52528">
        <ele>537.83</ele>
        <time>2017-03-26T11:06:09Z</time>
      </trkpt>
      <trkpt lat="45.42548" lon="4.52528">
        <ele>537.83</ele>
        <time>2017-03-26T11:06:10Z</time>
      </trkpt>
      <trkpt lat="45.42548" lon="4.52528">
        <ele>537.83</ele>
        <time>2017-03-26T11:06:11Z</time>
      </trkpt>
      <trkpt lat="45.42548" lon="4.52528">
        <ele>537.83</ele>
        <time>2017-03-26T11:06:12Z</time>
      </trkpt>
      <trkpt lat="45.42548" lon="4.52528">
        <ele>537.83</ele>
        <time>2017-03-26T11:06:13Z</time>
      </trkpt>
      <trkpt lat="45.42548" lon="4.52528">
        <ele>537.83</ele>
        <time>2017-03-26T11:06:14Z</time>
      </trkpt>
      <trkpt lat="45.42548" lon="4.52528">
        <ele>537.83</ele>
        <time>2017-03-26T11:06:15Z</time>
      </trkpt>
      <trkpt lat="45.42548" lon="4.52528">
        <ele>537.83</ele>
        <time>2017-03-26T11:06:16Z</time>
      </trkpt>
      <trkpt lat="45.42548" lon="4.52528">
        <ele>537.83</ele>
        <time>2017-03-26T11:06:17Z</time>
      </trkpt>
      <trkpt lat="45.42548" lon="4.52528">
        <ele>537.83</ele>
        <time>2017-03-26T11:06:18Z</time>
      </trkpt>
      <trkpt lat="45.42548" lon="4.52528">
        <ele>537.83</ele>
        <time>2017-03-26T11:06:19Z</time>
      </trkpt>
      <trkpt lat="45.42548" lon="4.52528">
        <ele>537.83</ele>
        <time>2017-03-26T11:06:20Z</time>
      </trkpt>
      <trkpt lat="45.42548" lon="4.52528">
        <ele>537.83</ele>
        <time>2017-03-26T11:06:21Z</time>
      </trkpt>
      <trkpt lat="45.42548" lon="4.52528">
        <ele>537.83</ele>
        <time>2017-03-26T11:06:22Z</time>
      </trkpt>
      <trkpt lat="45.42548" lon="4.52528">
        <ele>537.83</ele>
        <time>2017-03-26T11:06:23Z</time>
      </trkpt>
      <trkpt lat="45.42548" lon="4.52528">
        <ele>537.83</ele>
        <time>2017-03-26T11:06:24Z</time>
      </trkpt>
      <trkpt lat="45.42548" lon="4.52528">
        <ele>537.83</ele>
        <time>2017-03-26T11:06:25Z</time>
      </trkpt>
      <trkpt lat="45.42548" lon="4.52528">
        <ele>537.83</ele>
        <time>2017-03-26T11:06:26Z</time>
      </trkpt>
      <trkpt lat="45.42548" lon="4.52528">
        <ele>537.83</ele>
        <time>2017-03-26T11:06:27Z</time>
      </trkpt>
      <trkpt lat="45.42548" lon="4.52528">
        <ele>537.83</ele>
        <time>2017-03-26T11:06:28Z</time>
      </trkpt>
      <trkpt lat="45.42548" lon="4.52528">
        <ele>537.83</ele>
        <time>2017-03-26T11:06:29Z</time>
      </trkpt>
      <trkpt lat="45.42548" lon="4.52528">
        <ele>537.83</ele>
        <time>2017-03-26T11:06:30Z</time>
      </trkpt>
      <trkpt lat="45.42548" lon="4.52528">
        <ele>537.83</ele>
        <time>2017-03-26T11:06:31Z</time>
      </trkpt>
      <trkpt lat="45.42548" lon="4.52528">
        <ele>537.83</ele>
        <time>2017-03-26T11:06:32Z</time>
      </trkpt>
      <trkpt lat="45.42548" lon="4.52528">
        <ele>537.83</ele>
        <time>2017-03-26T11:06:33Z</time>
      </trkpt>
      <trkpt lat="45.42548" lon="4.52528">
        <ele>537.83</ele>
        <time>2017-03-26T11:06:34Z</time>
      </trkpt>
      <trkpt lat="45.42548" lon="4.52528">
        <ele>537.83</ele>
        <time>2017-03-26T11:06:35Z</time>
      </trkpt>
      <trkpt lat="45.42548" lon="4.52528">
        <ele>537.83</ele>
        <time>2017-03-26T11:06:36Z</time>
      </trkpt>
      <trkpt lat="45.42548" lon="4.52528">
        <ele>537.83</ele>
        <time>2017-03-26T11:06:37Z</time>
      </trkpt>
      <trkpt lat="45.42548" lon="4.52528">
        <ele>537.83</ele>
        <time>2017-03-26T11:06:38Z</time>
      </trkpt>
      <trkpt lat="45.42548" lon="4.52528">
        <ele>537.83</ele>
        <time>2017-03-26T11:06:39Z</time>
      </trkpt>
      <trkpt lat="45.42548" lon="4.52528">
        <ele>537.83</ele>
        <time>2017-03-26T11:06:40Z</time>
      </trkpt>
      <trkpt lat="45.42548" lon="4.52528">
        <ele>537.83</ele>
        <time>2017-03-26T11:06:41Z</time>
      </trkpt>
      <trkpt lat="45.42548" lon="4.52528">
        <ele>537.83</ele>
        <time>2017-03-26T11:06:42Z</time>
      </trkpt>
      <trkpt lat="45.42548" lon="4.52528">
        <ele>537.83</ele>
        <time>2017-03-26T11:06:43Z</time>
      </trkpt>
      <trkpt lat="45.42548" lon="4.52528">
        <ele>537.83</ele>
        <time>2017-03-26T11:06:44Z</time>
      </trkpt>
      <trkpt lat="45.42548" lon="4.52528">
        <ele>537.83</ele>
        <time>2017-03-26T11:06:45Z</time>
      </trkpt>
      <trkpt lat="45.42548" lon="4.52528">
        <ele>537.83</ele>
        <time>2017-03-26T11:06:46Z</time>
      </trkpt>
      <trkpt lat="45.42548" lon="4.52528">
        <ele>537.83</ele>
        <time>2017-03-26T11:06:47Z</time>
      </trkpt>
      <trkpt lat="45.42548" lon="4.52528">
        <ele>537.83</ele>
        <time>2017-03-26T11:06:48Z</time>
      </trkpt>
      <trkpt lat="45.42548" lon="4.52528">
        <ele>537.83</ele>
        <time>2017-03-26T11:06:49Z</time>
      </trkpt>
      <trkpt lat="45.42548" lon="4.52528">
        <ele>537.83</ele>
        <time>2017-03-26T11:06:50Z</time>
      </trkpt>
      <trkpt lat="45.42548" lon="4.52528">
        <ele>537.83</ele>
        <time>2017-03-26T11:06:51Z</time>
      </trkpt>
      <trkpt lat="45.42548" lon="4.52528">
        <ele>537.83</ele>
        <time>2017-03-26T11:06:52Z</time>
      </trkpt>
      <trkpt lat="45.42548" lon="4.52528">
        <ele>537.83</ele>
        <time>2017-03-26T11:06:53Z</time>
      </trkpt>
      <trkpt lat="45.42548" lon="4.52528">
        <ele>537.83</ele>
        <time>2017-03-26T11:06:54Z</time>
      </trkpt>
      <trkpt lat="45.42548" lon="4.52528">
        <ele>537.83</ele>
        <time>2017-03-26T11:06:55Z</time>
      </trkpt>
      <trkpt lat="45.42548" lon="4.52528">
        <ele>537.83</ele>
        <time>2017-03-26T11:06:56Z</time>
      </trkpt>
      <trkpt lat="45.42548" lon="4.52528">
        <ele>537.83</ele>
        <time>2017-03-26T11:06:57Z</time>
      </trkpt>
      <trkpt lat="45.42548" lon="4.52528">
        <ele>537.83</ele>
        <time>2017-03-26T11:06:58Z</time>
      </trkpt>
      <trkpt lat="45.42548" lon="4.52528">
        <ele>537.83</ele>
        <time>2017-03-26T11:06:59Z</time>
      </trkpt>
      <trkpt lat="45.42548" lon="4.52528">
        <ele>537.83</ele>
        <time>2017-03-26T11:07:00Z</time>
      </trkpt>
      <trkpt lat="45.42548" lon="4.52528">
        <ele>537.83</ele>
        <time>2017-03-26T11:07:01Z</time>
      </trkpt>
      <trkpt lat="45.42548" lon="4.52528">
        <ele>537.83</ele>
        <time>2017-03-26T11:07:02Z</time>
      </trkpt>
      <trkpt lat="45.42548" lon="4.52528">
        <ele>537.83</ele>
        <time>2017-03-26T11:07:03Z</time>
      </trkpt>
      <trkpt lat="45.42548" lon="4.52528">
        <ele>537.83</ele>
        <time>2017-03-26T11:07:04Z</time>
      </trkpt>
      <trkpt lat="45.42548" lon="4.52528">
        <ele>537.83</ele>
        <time>2017-03-26T11:07:05Z</time>
      </trkpt>
      <trkpt lat="45.42548" lon="4.52528">
        <ele>537.83</ele>
        <time>2017-03-26T11:07:06Z</time>
      </trkpt>
      <trkpt lat="45.42548" lon="4.52528">
        <ele>537.83</ele>
        <time>2017-03-26T11:07:07Z</time>
      </trkpt>
      <trkpt lat="45.42548" lon="4.52528">
        <ele>537.83</ele>
        <time>2017-03-26T11:07:08Z</time>
      </trkpt>
      <trkpt lat="45.42548" lon="4.52528">
        <ele>537.83</ele>
        <time>2017-03-26T11:07:09Z</time>
      </trkpt>
      <trkpt lat="45.42548" lon="4.52528">
        <ele>537.83</ele>
        <time>2017-03-26T11:07:10Z</time>
      </trkpt>
      <trkpt lat="45.42548" lon="4.52528">
        <ele>537.83</ele>
        <time>2017-03-26T11:07:11Z</time>
      </trkpt>
      <trkpt lat="45.42548" lon="4.52528">
        <ele>537.83</ele>
        <time>2017-03-26T11:07:12Z</time>
      </trkpt>
      <trkpt lat="45.42548" lon="4.52528">
        <ele>537.83</ele>
        <time>2017-03-26T11:07:13Z</time>
      </trkpt>
      <trkpt lat="45.42548" lon="4.52528">
        <ele>537.83</ele>
        <time>2017-03-26T11:07:14Z</time>
      </trkpt>
      <trkpt lat="45.42548" lon="4.52528">
        <ele>537.83</ele>
        <time>2017-03-26T11:07:15Z</time>
      </trkpt>
      <trkpt lat="45.42548" lon="4.52528">
        <ele>537.83</ele>
        <time>2017-03-26T11:07:16Z</time>
      </trkpt>
      <trkpt lat="45.42548" lon="4.52528">
        <ele>537.83</ele>
        <time>2017-03-26T11:07:17Z</time>
      </trkpt>
      <trkpt lat="45.42548" lon="4.52528">
        <ele>537.83</ele>
        <time>2017-03-26T11:07:18Z</time>
      </trkpt>
      <trkpt lat="45.42548" lon="4.52528">
        <ele>537.83</ele>
        <time>2017-03-26T11:07:19Z</time>
      </trkpt>
      <trkpt lat="45.42548" lon="4.52528">
        <ele>537.83</ele>
        <time>2017-03-26T11:07:20Z</time>
      </trkpt>
      <trkpt lat="45.42548" lon="4.52528">
        <ele>537.83</ele>
        <time>2017-03-26T11:07:21Z</time>
      </trkpt>
      <trkpt lat="45.42548" lon="4.52528">
        <ele>537.83</ele>
        <time>2017-03-26T11:07:22Z</time>
      </trkpt>
      <trkpt lat="45.42548" lon="4.52528">
        <ele>537.83</ele>
        <time>2017-03-26T11:07:23Z</time>
      </trkpt>
      <trkpt lat="45.42548" lon="4.52528">
        <ele>537.83</ele>
        <time>2017-03-26T11:07:24Z</time>
      </trkpt>
      <trkpt lat="45.42548" lon="4.52528">
        <ele>537.83</ele>
        <time>2017-03-26T11:07:25Z</time>
      </trkpt>
      <trkpt lat="45.42548" lon="4.52528">
        <ele>537.83</ele>
        <time>2017-03-26T11:07:26Z</time>
      </trkpt>
      <trkpt lat="45.42548" lon="4.52528">
        <ele>537.83</ele>
        <time>2017-03-26T11:07:27Z</time>
      </trkpt>
      <trkpt lat="45.42548" lon="4.52528">
        <ele>537.83</ele>
        <time>2017-03-26T11:07:28Z</time>
      </trkpt>
      <trkpt lat="45.42548" lon="4.52528">
        <ele>537.83</ele>
        <time>2017-03-26T11:07:29Z</time>
      </trkpt>
      <trkpt lat="45.42548" lon="4.52528">
        <ele>537.83</ele>
        <time>2017-03-26T11:07:30Z</time>
      </trkpt>
      <trkpt lat="45.42548" lon="4.52528">
        <ele>537.83</ele>
        <time>2017-03-26T11:07:31Z</time>
      </trkpt>
      <trkpt lat="45.42548" lon="4.52528">
        <ele>537.83</ele>
        <time>2017-03-26T11:07:32Z</time>
      </trkpt>
      <trkpt lat="45.42548" lon="4.52528">
        <ele>537.83</ele>
        <time>2017-03-26T11:07:33Z</time>
      </trkpt>
      <trkpt lat="45.42548" lon="4.52528">
        <ele>537.83</ele>
        <time>2017-03-26T11:07:34Z</time>
      </trkpt>
      <trkpt lat="45.42548" lon="4.52528">
        <ele>537.83</ele>
        <time>2017-03-26T11:07:35Z</time>
      </trkpt>
      <trkpt lat="45.42548" lon="4.52528">
        <ele>537.83</ele>
        <time>2017-03-26T11:07:36Z</time>
      </trkpt>
      <trkpt lat="45.42548" lon="4.52528">
        <ele>537.83</ele>
        <time>2017-03-26T11:07:37Z</time>
      </trkpt>
      <trkpt lat="45.42548" lon="4.52528">
        <ele>537.83</ele>
        <time>2017-03-26T11:07:38Z</time>
      </trkpt>
      <trkpt lat="45.42548" lon="4.52528">
        <ele>537.83</ele>
        <time>2017-03-26T11:07:39Z</time>
      </trkpt>
      <trkpt lat="45.42548" lon="4.52528">
        <ele>537.83</ele>
        <time>2017-03-26T11:07:40Z</time>
      </trkpt>
      <trkpt lat="45.42548" lon="4.52528">
        <ele>537.83</ele>
        <time>2017-03-26T11:07:41Z</time>
      </trkpt>
      <trkpt lat="45.42548" lon="4.52528">
        <ele>537.83</ele>
        <time>2017-03-26T11:07:42Z</time>
      </trkpt>
      <trkpt lat="45.42548" lon="4.52528">
        <ele>537.83</ele>
        <time>2017-03-26T11:07:43Z</time>
      </trkpt>
      <trkpt lat="45.42548" lon="4.52528">
        <ele>537.83</ele>
        <time>2017-03-26T11:07:44Z</time>
      </trkpt>
      <trkpt lat="45.42548" lon="4.52528">
        <ele>537.83</ele>
        <time>2017-03-26T11:07:45Z</time>
      </trkpt>
      <trkpt lat="45.42548" lon="4.52528">
        <ele>537.83</ele>
        <time>2017-03-26T11:07:46Z</time>
      </trkpt>
      <trkpt lat="45.42548" lon="4.52528">
        <ele>537.83</ele>
        <time>2017-03-26T11:07:47Z</time>
      </trkpt>
      <trkpt lat="45.42548" lon="4.52528">
        <ele>537.83</ele>
        <time>2017-03-26T11:07:48Z</time>
      </trkpt>
      <trkpt lat="45.42548" lon="4.52528">
        <ele>537.83</ele>
        <time>2017-03-26T11:07:49Z</time>
      </trkpt>
      <trkpt lat="45.42548" lon="4.52528">
        <ele>537.83</ele>
        <time>2017-03-26T11:07:50Z</time>
      </trkpt>
      <trkpt lat="45.42548" lon="4.52528">
        <ele>537.83</ele>
        <time>2017-03-26T11:07:51Z</time>
      </trkpt>
      <trkpt lat="45.42548" lon="4.52528">
        <ele>537.83</ele>
        <time>2017-03-26T11:07:52Z</time>
      </trkpt>
      <trkpt lat="45.42548" lon="4.52528">
        <ele>537.83</ele>
        <time>2017-03-26T11:07:53Z</time>
      </trkpt>
      <trkpt lat="45.42548" lon="4.52528">
        <ele>537.83</ele>
        <time>2017-03-26T11:07:54Z</time>
      </trkpt>
      <trkpt lat="45.42548" lon="4.52528">
        <ele>537.83</ele>
        <time>2017-03-26T11:07:55Z</time>
      </trkpt>
      <trkpt lat="45.42548" lon="4.52528">
        <ele>537.83</ele>
        <time>2017-03-26T11:07:56Z</time>
      </trkpt>
      <trkpt lat="45.42548" lon="4.52528">
        <ele>537.83</ele>
        <time>2017-03-26T11:07:57Z</time>
      </trkpt>
      <trkpt lat="45.42548" lon="4.52528">
        <ele>537.83</ele>
        <time>2017-03-26T11:07:58Z</time>
      </trkpt>
      <trkpt lat="45.42548" lon="4.52528">
        <ele>537.83</ele>
        <time>2017-03-26T11:07:59Z</time>
      </trkpt>
      <trkpt lat="45.42548" lon="4.52528">
        <ele>537.83</ele>
        <time>2017-03-26T11:08:00Z</time>
      </trkpt>
      <trkpt lat="45.42548" lon="4.52528">
        <ele>537.83</ele>
        <time>2017-03-26T11:08:01Z</time>
      </trkpt>
      <trkpt lat="45.42548" lon="4.52528">
        <ele>537.83</ele>
        <time>2017-03-26T11:08:02Z</time>
      </trkpt>
      <trkpt lat="45.42548" lon="4.52528">
        <ele>537.83</ele>
        <time>2017-03-26T11:08:03Z</time>
      </trkpt>
      <trkpt lat="45.42548" lon="4.52528">
        <ele>537.83</ele>
        <time>2017-03-26T11:08:04Z</time>
      </trkpt>
      <trkpt lat="45.42548" lon="4.52528">
        <ele>537.83</ele>
        <time>2017-03-26T11:08:05Z</time>
      </trkpt>
      <trkpt lat="45.42548" lon="4.52528">
        <ele>537.83</ele>
        <time>2017-03-26T11:08:06Z</time>
      </trkpt>
      <trkpt lat="45.42548" lon="4.52528">
        <ele>537.83</ele>
        <time>2017-03-26T11:08:07Z</time>
      </trkpt>
      <trkpt lat="45.42548" lon="4.52528">
        <ele>537.83</ele>
        <time>2017-03-26T11:08:08Z</time>
      </trkpt>
      <trkpt lat="45.42548" lon="4.52528">
        <ele>537.83</ele>
        <time>2017-03-26T11:08:09Z</time>
      </trkpt>
      <trkpt lat="45.42548" lon="4.52528">
        <ele>537.83</ele>
        <time>2017-03-26T11:08:10Z</time>
      </trkpt>
      <trkpt lat="45.42548" lon="4.52528">
        <ele>537.83</ele>
        <time>2017-03-26T11:08:11Z</time>
      </trkpt>
      <trkpt lat="45.42548" lon="4.52528">
        <ele>537.83</ele>
        <time>2017-03-26T11:08:12Z</time>
      </trkpt>
      <trkpt lat="45.42548" lon="4.52528">
        <ele>537.83</ele>
        <time>2017-03-26T11:08:13Z</time>
      </trkpt>
      <trkpt lat="45.42548" lon="4.52528">
        <ele>537.83</ele>
        <time>2017-03-26T11:08:14Z</time>
      </trkpt>
      <trkpt lat="45.42548" lon="4.52528">
        <ele>537.83</ele>
        <time>2017-03-26T11:08:15Z</time>
      </trkpt>
      <trkpt lat="45.42548" lon="4.52528">
        <ele>537.83</ele>
        <time>2017-03-26T11:08:16Z</time>
      </trkpt>
      <trkpt lat="45.42548" lon="4.52528">
        <ele>537.83</ele>
        <time>2017-03-26T11:08:17Z</time>
      </trkpt>
      <trkpt lat="45.42548" lon="4.52528">
        <ele>537.83</ele>
        <time>2017-03-26T11:08:18Z</time>
      </trkpt>
      <trkpt lat="45.42548" lon="4.52528">
        <ele>537.83</ele>
        <time>2017-03-26T11:08:19Z</time>
      </trkpt>
      <trkpt lat="45.42548" lon="4.52528">
        <ele>537.83</ele>
        <time>2017-03-26T11:08:20Z</time>
      </trkpt>
      <trkpt lat="45.42548" lon="4.52528">
        <ele>537.83</ele>
        <time>2017-03-26T11:08:21Z</time>
      </trkpt>
      <trkpt lat="45.42548" lon="4.52528">
        <ele>537.83</ele>
        <time>2017-03-26T11:08:22Z</time>
      </trkpt>
      <trkpt lat="45.42548" lon="4.52528">
        <ele>537.83</ele>
        <time>2017-03-26T11:08:23Z</time>
      </trkpt>
      <trkpt lat="45.42548" lon="4.52528">
        <ele>537.83</ele>
        <time>2017-03-26T11:08:24Z</time>
      </trkpt>
      <trkpt lat="45.42548" lon="4.52528">
        <ele>537.83</ele>
        <time>2017-03-26T11:08:25Z</time>
      </trkpt>
      <trkpt lat="45.42548" lon="4.52528">
        <ele>537.83</ele>
        <time>2017-03-26T11:08:26Z</time>
      </trkpt>
      <trkpt lat="45.42548" lon="4.52528">
        <ele>537.83</ele>
        <time>2017-03-26T11:08:27Z</time>
      </trkpt>
      <trkpt lat="45.42548" lon="4.52528">
        <ele>537.83</ele>
        <time>2017-03-26T11:08:28Z</time>
      </trkpt>
      <trkpt lat="45.42548" lon="4.52528">
        <ele>537.83</ele>
        <time>2017-03-26T11:08:29Z</time>
      </trkpt>
      <trkpt lat="45.42548" lon="4.52528">
        <ele>537.83</ele>
        <time>2017-03-26T11:08:30Z</time>
      </trkpt>
      <trkpt lat="45.42548" lon="4.52528">
        <ele>537.83</ele>
        <time>2017-03-26T11:08:31Z</time>
      </trkpt>
      <trkpt lat="45.42548" lon="4.52528">
        <ele>537.83</ele>
        <time>2017-03-26T11:08:32Z</time>
      </trkpt>
      <trkpt lat="45.42548" lon="4.52528">
        <ele>537.83</ele>
        <time>2017-03-26T11:08:33Z</time>
      </trkpt>
      <trkpt lat="45.42548" lon="4.52528">
        <ele>537.83</ele>
        <time>2017-03-26T11:08:34Z</time>
      </trkpt>
      <trkpt lat="45.42548" lon="4.52528">
        <ele>537.83</ele>
        <time>2017-03-26T11:08:35Z</time>
      </trkpt>
      <trkpt lat="45.42548" lon="4.52528">
        <ele>537.83</ele>
        <time>2017-03-26T11:08:36Z</time>
      </trkpt>
      <trkpt lat="45.42548" lon="4.52528">
        <ele>537.83</ele>
        <time>2017-03-26T11:08:37Z</time>
      </trkpt>
      <trkpt lat="45.42548" lon="4.52528">
        <ele>537.83</ele>
        <time>2017-03-26T11:08:38Z</time>
      </trkpt>
      <trkpt lat="45.42548" lon="4.52528">
        <ele>537.83</ele>
        <time>2017-03-26T11:08:39Z</time>
      </trkpt>
      <trkpt lat="45.42548" lon="4.52528">
        <ele>537.83</ele>
        <time>2017-03-26T11:08:40Z</time>
      </trkpt>
      <trkpt lat="45.42548" lon="4.52528">
        <ele>537.83</ele>
        <time>2017-03-26T11:08:41Z</time>
      </trkpt>
      <trkpt lat="45.42548" lon="4.52528">
        <ele>537.83</ele>
        <time>2017-03-26T11:08:42Z</time>
      </trkpt>
      <trkpt lat="45.42548" lon="4.52528">
        <ele>537.83</ele>
        <time>2017-03-26T11:08:43Z</time>
      </trkpt>
      <trkpt lat="45.42548" lon="4.52528">
        <ele>537.83</ele>
        <time>2017-03-26T11:08:44Z</time>
      </trkpt>
      <trkpt lat="45.42548" lon="4.52528">
        <ele>537.83</ele>
        <time>2017-03-26T11:08:45Z</time>
      </trkpt>
      <trkpt lat="45.42548" lon="4.52528">
        <ele>537.83</ele>
        <time>2017-03-26T11:08:46Z</time>
      </trkpt>
      <trkpt lat="45.42548" lon="4.52528">
        <ele>537.83</ele>
        <time>2017-03-26T11:08:47Z</time>
      </trkpt>
      <trkpt lat="45.42548" lon="4.52528">
        <ele>537.83</ele>
        <time>2017-03-26T11:08:48Z</time>
      </trkpt>
      <trkpt lat="45.42548" lon="4.52528">
        <ele>537.83</ele>
        <time>2017-03-26T11:08:49Z</time>
      </trkpt>
      <trkpt lat="45.42548" lon="4.52528">
        <ele>537.83</ele>
        <time>2017-03-26T11:08:50Z</time>
      </trkpt>
      <trkpt lat="45.42548" lon="4.52528">
        <ele>537.83</ele>
        <time>2017-03-26T11:08:51Z</time>
      </trkpt>
      <trkpt lat="45.42548" lon="4.52528">
        <ele>537.83</ele>
        <time>2017-03-26T11:08:52Z</time>
      </trkpt>
      <trkpt lat="45.42548" lon="4.52528">
        <ele>537.83</ele>
        <time>2017-03-26T11:08:53Z</time>
      </trkpt>
      <trkpt lat="45.42548" lon="4.52528">
        <ele>537.83</ele>
        <time>2017-03-26T11:08:54Z</time>
      </trkpt>
      <trkpt lat="45.42548" lon="4.52528">
        <ele>537.83</ele>
        <time>2017-03-26T11:08:55Z</time>
      </trkpt>
      <trkpt lat="45.42548" lon="4.52528">
        <ele>537.83</ele>
        <time>2017-03-26T11:08:56Z</time>
      </trkpt>
      <trkpt lat="45.42548" lon="4.52528">
        <ele>537.83</ele>
        <time>2017-03-26T11:08:57Z</time>
      </trkpt>
      <trkpt lat="45.42548" lon="4.52528">
        <ele>537.83</ele>
        <time>2017-03-26T11:08:58Z</time>
      </trkpt>
      <trkpt lat="45.42548" lon="4.52528">
        <ele>537.83</ele>
        <time>2017-03-26T11:08:59Z</time>
      </trkpt>
      <trkpt lat="45.42548" lon="4.52528">
        <ele>537.83</ele>
        <time>2017-03-26T11:09:00Z</time>
      </trkpt>
      <trkpt lat="45.42548" lon="4.52528">
        <ele>537.83</ele>
        <time>2017-03-26T11:09:01Z</time>
      </trkpt>
      <trkpt lat="45.42548" lon="4.52528">
        <ele>537.83</ele>
        <time>2017-03-26T11:09:02Z</time>
      </trkpt>
      <trkpt lat="45.42548" lon="4.52528">
        <ele>537.83</ele>
        <time>2017-03-26T11:09:03Z</time>
      </trkpt>
      <trkpt lat="45.42548" lon="4.52528">
        <ele>537.83</ele>
        <time>2017-03-26T11:09:04Z</time>
      </trkpt>
      <trkpt lat="45.42548" lon="4.52528">
        <ele>537.83</ele>
        <time>2017-03-26T11:09:05Z</time>
      </trkpt>
      <trkpt lat="45.42548" lon="4.52528">
        <ele>537.83</ele>
        <time>2017-03-26T11:09:06Z</time>
      </trkpt>
      <trkpt lat="45.42548" lon="4.52528">
        <ele>537.83</ele>
        <time>2017-03-26T11:09:07Z</time>
      </trkpt>
      <trkpt lat="45.42548" lon="4.52528">
        <ele>537.83</ele>
        <time>2017-03-26T11:09:08Z</time>
      </trkpt>
      <trkpt lat="45.42548" lon="4.52528">
        <ele>537.83</ele>
        <time>2017-03-26T11:09:09Z</time>
      </trkpt>
      <trkpt lat="45.42548" lon="4.52528">
        <ele>537.83</ele>
        <time>2017-03-26T11:09:10Z</time>
      </trkpt>
      <trkpt lat="45.42548" lon="4.52528">
        <ele>537.83</ele>
        <time>2017-03-26T11:09:11Z</time>
      </trkpt>
      <trkpt lat="45.42548" lon="4.52528">
        <ele>537.83</ele>
        <time>2017-03-26T11:09:12Z</time>
      </trkpt>
      <trkpt lat="45.42548" lon="4.52528">
        <ele>537.83</ele>
        <time>2017-03-26T11:09:13Z</time>
      </trkpt>
      <trkpt lat="45.42548" lon="4.52528">
        <ele>537.83</ele>
        <time>2017-03-26T11:09:14Z</time>
      </trkpt>
      <trkpt lat="45.42548" lon="4.52528">
        <ele>537.83</ele>
        <time>2017-03-26T11:09:15Z</time>
      </trkpt>
      <trkpt lat="45.42548" lon="4.52528">
        <ele>537.83</ele>
        <time>2017-03-26T11:09:16Z</time>
      </trkpt>
      <trkpt lat="45.42548" lon="4.52528">
        <ele>537.83</ele>
        <time>2017-03-26T11:09:17Z</time>
      </trkpt>
      <trkpt lat="45.42548" lon="4.52528">
        <ele>537.83</ele>
        <time>2017-03-26T11:09:18Z</time>
      </trkpt>
      <trkpt lat="45.42548" lon="4.52528">
        <ele>537.83</ele>
        <time>2017-03-26T11:09:19Z</time>
      </trkpt>
      <trkpt lat="45.42548" lon="4.52528">
        <ele>537.83</ele>
        <time>2017-03-26T11:09:20Z</time>
      </trkpt>
      <trkpt lat="45.42548" lon="4.52528">
        <ele>537.83</ele>
        <time>2017-03-26T11:09:21Z</time>
      </trkpt>
      <trkpt lat="45.42548" lon="4.52528">
        <ele>537.83</ele>
        <time>2017-03-26T11:09:22Z</time>
      </trkpt>
      <trkpt lat="45.42548" lon="4.52528">
        <ele>537.83</ele>
        <time>2017-03-26T11:09:23Z</time>
      </trkpt>
      <trkpt lat="45.42548" lon="4.52528">
        <ele>537.83</ele>
        <time>2017-03-26T11:09:24Z</time>
      </trkpt>
      <trkpt lat="45.42548" lon="4.52528">
        <ele>537.83</ele>
        <time>2017-03-26T11:09:25Z</time>
      </trkpt>
      <trkpt lat="45.42548" lon="4.52528">
        <ele>537.83</ele>
        <time>2017-03-26T11:09:26Z</time>
      </trkpt>
      <trkpt lat="45.42548" lon="4.52528">
        <ele>537.83</ele>
        <time>2017-03-26T11:09:27Z</time>
      </trkpt>
      <trkpt lat="45.42548" lon="4.52528">
        <ele>537.83</ele>
        <time>2017-03-26T11:09:28Z</time>
      </trkpt>
      <trkpt lat="45.42548" lon="4.52528">
        <ele>537.83</ele>
        <time>2017-03-26T11:09:29Z</time>
      </trkpt>
      <trkpt lat="45.42548" lon="4.52528">
        <ele>537.83</ele>
        <time>2017-03-26T11:09:30Z</time>
      </trkpt>
      <trkpt lat="45.42548" lon="4.52528">
        <ele>537.83</ele>
        <time>2017-03-26T11:09:31Z</time>
      </trkpt>
      <trkpt lat="45.42548" lon="4.52528">
        <ele>537.83</ele>
        <time>2017-03-26T11:09:32Z</time>
      </trkpt>
      <trkpt lat="45.42548" lon="4.52528">
        <ele>537.83</ele>
        <time>2017-03-26T11:09:33Z</time>
      </trkpt>
      <trkpt lat="45.42548" lon="4.52528">
        <ele>537.83</ele>
        <time>2017-03-26T11:09:34Z</time>
      </trkpt>
      <trkpt lat="45.42548" lon="4.52528">
        <ele>537.83</ele>
        <time>2017-03-26T11:09:35Z</time>
      </trkpt>
      <trkpt lat="45.42548" lon="4.52528">
        <ele>537.83</ele>
        <time>2017-03-26T11:09:36Z</time>
      </trkpt>
      <trkpt lat="45.42548" lon="4.52528">
        <ele>537.83</ele>
        <time>2017-03-26T11:09:37Z</time>
      </trkpt>
      <trkpt lat="45.42548" lon="4.52528">
        <ele>537.83</ele>
        <time>2017-03-26T11:09:38Z</time>
      </trkpt>
      <trkpt lat="45.42548" lon="4.52528">
        <ele>537.83</ele>
        <time>2017-03-26T11:09:39Z</time>
      </trkpt>
      <trkpt lat="45.42548" lon="4.52528">
        <ele>537.83</ele>
        <time>2017-03-26T11:09:40Z</time>
      </trkpt>
      <trkpt lat="45.42548" lon="4.52528">
        <ele>537.83</ele>
        <time>2017-03-26T11:09:41Z</time>
      </trkpt>
      <trkpt lat="45.42548" lon="4.52528">
        <ele>537.83</ele>
        <time>2017-03-26T11:09:42Z</time>
      </trkpt>
      <trkpt lat="45.42548" lon="4.52528">
        <ele>537.83</ele>
        <time>2017-03-26T11:09:43Z</time>
      </trkpt>
      <trkpt lat="45.42548" lon="4.52528">
        <ele>537.83</ele>
        <time>2017-03-26T11:09:44Z</time>
      </trkpt>
      <trkpt lat="45.42548" lon="4.52528">
        <ele>537.83</ele>
        <time>2017-03-26T11:09:45Z</time>
      </trkpt>
      <trkpt lat="45.42548" lon="4.52528">
        <ele>537.83</ele>
        <time>2017-03-26T11:09:46Z</time>
      </trkpt>
      <trkpt lat="45.42548" lon="4.52528">
        <ele>537.83</ele>
        <time>2017-03-26T11:09:47Z</time>
      </trkpt>
      <trkpt lat="45.42548" lon="4.52528">
        <ele>537.83</ele>
        <time>2017-03-26T11:09:48Z</time>
      </trkpt>
      <trkpt lat="45.42548" lon="4.52528">
        <ele>537.83</ele>
        <time>2017-03-26T11:09:49Z</time>
      </trkpt>
      <trkpt lat="45.42548" lon="4.52528">
        <ele>537.83</ele>
        <time>2017-03-26T11:09:50Z</time>
      </trkpt>
      <trkpt lat="45.42548" lon="4.52528">
        <ele>537.83</ele>
        <time>2017-03-26T11:09:51Z</time>
      </trkpt>
      <trkpt lat="45.42548" lon="4.52528">
        <ele>537.83</ele>
        <time>2017-03-26T11:09:52Z</time>
      </trkpt>
      <trkpt lat="45.42548" lon="4.52528">
        <ele>537.83</ele>
        <time>2017-03-26T11:09:53Z</time>
      </trkpt>
      <trkpt lat="45.42548" lon="4.52528">
        <ele>537.83</ele>
        <time>2017-03-26T11:09:54Z</time>
      </trkpt>
      <trkpt lat="45.42548" lon="4.52528">
        <ele>537.83</ele>
        <time>2017-03-26T11:09:55Z</time>
      </trkpt>
      <trkpt lat="45.42548" lon="4.52528">
        <ele>537.83</ele>
        <time>2017-03-26T11:09:56Z</time>
      </trkpt>
      <trkpt lat="45.42548" lon="4.52528">
        <ele>537.83</ele>
        <time>2017-03-26T11:09:57Z</time>
      </trkpt>
      <trkpt lat="45.42548" lon="4.52528">
        <ele>537.83</ele>
        <time>2017-03-26T11:09:58Z</time>
      </trkpt>
      <trkpt lat="45.42548" lon="4.52528">
        <ele>537.83</ele>
        <time>2017-03-26T11:09:59Z</time>
      </trkpt>
      <trkpt lat="45.42548" lon="4.52528">
        <ele>537.83</ele>
        <time>2017-03-26T11:10:00Z</time>
      </trkpt>
      <trkpt lat="45.42548" lon="4.52528">
        <ele>537.83</ele>
        <time>2017-03-26T11:10:01Z</time>
      </trkpt>
      <trkpt lat="45.42548" lon="4.52528">
        <ele>537.83</ele>
        <time>2017-03-26T11:10:02Z</time>
      </trkpt>
      <trkpt lat="45.42548" lon="4.52528">
        <ele>537.83</ele>
        <time>2017-03-26T11:10:03Z</time>
      </trkpt>
      <trkpt lat="45.42548" lon="4.52528">
        <ele>537.83</ele>
        <time>2017-03-26T11:10:04Z</time>
      </trkpt>
      <trkpt lat="45.42548" lon="4.52528">
        <ele>537.83</ele>
        <time>2017-03-26T11:10:05Z</time>
      </trkpt>
      <trkpt lat="45.42548" lon="4.52528">
        <ele>537.83</ele>
        <time>2017-03-26T11:10:06Z</time>
      </trkpt>
      <trkpt lat="45.42548" lon="4.52528">
        <ele>537.83</ele>
        <time>2017-03-26T11:10:07Z</time>
      </trkpt>
      <trkpt lat="45.42548" lon="4.52528">
        <ele>537.83</ele>
        <time>2017-03-26T11:10:08Z</time>
      </trkpt>
      <trkpt lat="45.42548" lon="4.52528">
        <ele>537.83</ele>
        <time>2017-03-26T11:10:09Z</time>
      </trkpt>
      <trkpt lat="45.42548" lon="4.52528">
        <ele>537.83</ele>
        <time>2017-03-26T11:10:10Z</time>
      </trkpt>
      <trkpt lat="45.42548" lon="4.52528">
        <ele>537.83</ele>
        <time>2017-03-26T11:10:11Z</time>
      </trkpt>
      <trkpt lat="45.42548" lon="4.52528">
        <ele>537.83</ele>
        <time>2017-03-26T11:10:12Z</time>
      </trkpt>
      <trkpt lat="45.42548" lon="4.52528">
        <ele>537.83</ele>
        <time>2017-03-26T11:10:13Z</time>
      </trkpt>
      <trkpt lat="45.42548" lon="4.52528">
        <ele>537.83</ele>
        <time>2017-03-26T11:10:14Z</time>
      </trkpt>
      <trkpt lat="45.42548" lon="4.52528">
        <ele>537.83</ele>
        <time>2017-03-26T11:10:15Z</time>
      </trkpt>
      <trkpt lat="45.42548" lon="4.52528">
        <ele>537.83</ele>
        <time>2017-03-26T11:10:16Z</time>
      </trkpt>
      <trkpt lat="45.42548" lon="4.52528">
        <ele>537.83</ele>
        <time>2017-03-26T11:10:17Z</time>
      </trkpt>
      <trkpt lat="45.42548" lon="4.52528">
        <ele>537.83</ele>
        <time>2017-03-26T11:10:18Z</time>
      </trkpt>
      <trkpt lat="45.42548" lon="4.52528">
        <ele>537.83</ele>
        <time>2017-03-26T11:10:19Z</time>
      </trkpt>
      <trkpt lat="45.42548" lon="4.52528">
        <ele>537.83</ele>
        <time>2017-03-26T11:10:20Z</time>
      </trkpt>
      <trkpt lat="45.42548" lon="4.52528">
        <ele>537.83</ele>
        <time>2017-03-26T11:10:21Z</time>
      </trkpt>
      <trkpt lat="45.42548" lon="4.52528">
        <ele>537.83</ele>
        <time>2017-03-26T11:10:22Z</time>
      </trkpt>
      <trkpt lat="45.42548" lon="4.52528">
        <ele>537.83</ele>
        <time>2017-03-26T11:10:23Z</time>
      </trkpt>
      <trkpt lat="45.42548" lon="4.52528">
        <ele>537.83</ele>
        <time>2017-03-26T11:10:24Z</time>
      </trkpt>
      <trkpt lat="45.42548" lon="4.52528">
        <ele>537.83</ele>
        <time>2017-03-26T11:10:25Z</time>
      </trkpt>
      <trkpt lat="45.42548" lon="4.52528">
        <ele>537.83</ele>
        <time>2017-03-26T11:10:26Z</time>
      </trkpt>
      <trkpt lat="45.42548" lon="4.52528">
        <ele>537.83</ele>
        <time>2017-03-26T11:10:27Z</time>
      </trkpt>
      <trkpt lat="45.42548" lon="4.52528">
        <ele>537.83</ele>
        <time>2017-03-26T11:10:28Z</time>
      </trkpt>
      <trkpt lat="45.42548" lon="4.52528">
        <ele>537.83</ele>
        <time>2017-03-26T11:10:29Z</time>
      </trkpt>
      <trkpt lat="45.42548" lon="4.52528">
        <ele>537.83</ele>
        <time>2017-03-26T11:10:30Z</time>
      </trkpt>
      <trkpt lat="45.42548" lon="4.52528">
        <ele>537.83</ele>
        <time>2017-03-26T11:10:31Z</time>
      </trkpt>
      <trkpt lat="45.42548" lon="4.52528">
        <ele>537.83</ele>
        <time>2017-03-26T11:10:32Z</time>
      </trkpt>
      <trkpt lat="45.42548" lon="4.52528">
        <ele>537.83</ele>
        <time>2017-03-26T11:10:33Z</time>
      </trkpt>
      <trkpt lat="45.42548" lon="4.52528">
        <ele>537.83</ele>
        <time>2017-03-26T11:10:34Z</time>
      </trkpt>
      <trkpt lat="45.42548" lon="4.52528">
        <ele>537.83</ele>
        <time>2017-03-26T11:10:35Z</time>
      </trkpt>
      <trkpt lat="45.42548" lon="4.52528">
        <ele>537.83</ele>
        <time>2017-03-26T11:10:36Z</time>
      </trkpt>
      <trkpt lat="45.42548" lon="4.52528">
        <ele>537.83</ele>
        <time>2017-03-26T11:10:37Z</time>
      </trkpt>
      <trkpt lat="45.42548" lon="4.52528">
        <ele>537.83</ele>
        <time>2017-03-26T11:10:38Z</time>
      </trkpt>
      <trkpt lat="45.42548" lon="4.52528">
        <ele>537.83</ele>
        <time>2017-03-26T11:10:39Z</time>
      </trkpt>
      <trkpt lat="45.42548" lon="4.52528">
        <ele>537.83</ele>
        <time>2017-03-26T11:10:40Z</time>
      </trkpt>
      <trkpt lat="45.42548" lon="4.52528">
        <ele>537.83</ele>
        <time>2017-03-26T11:10:41Z</time>
      </trkpt>
      <trkpt lat="45.42548" lon="4.52528">
        <ele>537.83</ele>
        <time>2017-03-26T11:10:42Z</time>
      </trkpt>
      <trkpt lat="45.42548" lon="4.52528">
        <ele>537.83</ele>
        <time>2017-03-26T11:10:43Z</time>
      </trkpt>
      <trkpt lat="45.42548" lon="4.52528">
        <ele>537.83</ele>
        <time>2017-03-26T11:10:44Z</time>
      </trkpt>
      <trkpt lat="45.42548" lon="4.52528">
        <ele>537.83</ele>
        <time>2017-03-26T11:10:45Z</time>
      </trkpt>
      <trkpt lat="45.42548" lon="4.52528">
        <ele>537.83</ele>
        <time>2017-03-26T11:10:46Z</time>
      </trkpt>
      <trkpt lat="45.42548" lon="4.52528">
        <ele>537.83</ele>
        <time>2017-03-26T11:10:47Z</time>
      </trkpt>
      <trkpt lat="45.42548" lon="4.52528">
        <ele>537.83</ele>
        <time>2017-03-26T11:10:48Z</time>
      </trkpt>
      <trkpt lat="45.42548" lon="4.52528">
        <ele>537.83</ele>
        <time>2017-03-26T11:10:49Z</time>
      </trkpt>
      <trkpt lat="45.42548" lon="4.52528">
        <ele>537.83</ele>
        <time>2017-03-26T11:10:50Z</time>
      </trkpt>
      <trkpt lat="45.42548" lon="4.52528">
        <ele>537.83</ele>
        <time>2017-03-26T11:10:51Z</time>
      </trkpt>
      <trkpt lat="45.42548" lon="4.52528">
        <ele>537.83</ele>
        <time>2017-03-26T11:10:52Z</time>
      </trkpt>
      <trkpt lat="45.42548" lon="4.52528">
        <ele>537.83</ele>
        <time>2017-03-26T11:10:53Z</time>
      </trkpt>
      <trkpt lat="45.42548" lon="4.52528">
        <ele>537.83</ele>
        <time>2017-03-26T11:10:54Z</time>
      </trkpt>
      <trkpt lat="45.42548" lon="4.52528">
        <ele>537.83</ele>
        <time>2017-03-26T11:10:55Z</time>
      </trkpt>
      <trkpt lat="45.42548" lon="4.52528">
        <ele>537.83</ele>
        <time>2017-03-26T11:10:56Z</time>
      </trkpt>
      <trkpt lat="45.42548" lon="4.52528">
        <ele>537.83</ele>
        <time>2017-03-26T11:10:57Z</time>
      </trkpt>
      <trkpt lat="45.42548" lon="4.52528">
        <ele>537.83</ele>
        <time>2017-03-26T11:10:58Z</time>
      </trkpt>
      <trkpt lat="45.42548" lon="4.52528">
        <ele>537.83</ele>
        <time>2017-03-26T11:10:59Z</time>
      </trkpt>
      <trkpt lat="45.42548" lon="4.52528">
        <ele>537.83</ele>
        <time>2017-03-26T11:11:00Z</time>
      </trkpt>
      <trkpt lat="45.42548" lon="4.52528">
        <ele>537.83</ele>
        <time>2017-03-26T11:11:01Z</time>
      </trkpt>
      <trkpt lat="45.42548" lon="4.52528">
        <ele>537.83</ele>
        <time>2017-03-26T11:11:02Z</time>
      </trkpt>
      <trkpt lat="45.42548" lon="4.52528">
        <ele>537.83</ele>
        <time>2017-03-26T11:11:03Z</time>
      </trkpt>
      <trkpt lat="45.42548" lon="4.52528">
        <ele>537.83</ele>
        <time>2017-03-26T11:11:04Z</time>
      </trkpt>
      <trkpt lat="45.42548" lon="4.52528">
        <ele>537.83</ele>
        <time>2017-03-26T11:11:05Z</time>
      </trkpt>
      <trkpt lat="45.42548" lon="4.52528">
        <ele>537.83</ele>
        <time>2017-03-26T11:11:06Z</time>
      </trkpt>
      <trkpt lat="45.42548" lon="4.52528">
        <ele>537.83</ele>
        <time>2017-03-26T11:11:07Z</time>
      </trkpt>
      <trkpt lat="45.42548" lon="4.52528">
        <ele>537.83</ele>
        <time>2017-03-26T11:11:08Z</time>
      </trkpt>
      <trkpt lat="45.42548" lon="4.52528">
        <ele>537.83</ele>
        <time>2017-03-26T11:11:09Z</time>
      </trkpt>
      <trkpt lat="45.42548" lon="4.52528">
        <ele>537.83</ele>
        <time>2017-03-26T11:11:10Z</time>
      </trkpt>
      <trkpt lat="45.42548" lon="4.52528">
        <ele>537.83</ele>
        <time>2017-03-26T11:11:11Z</time>
      </trkpt>
      <trkpt lat="45.42548" lon="4.52528">
        <ele>537.83</ele>
        <time>2017-03-26T11:11:12Z</time>
      </trkpt>
      <trkpt lat="45.42548" lon="4.52528">
        <ele>537.83</ele>
        <time>2017-03-26T11:11:13Z</time>
      </trkpt>
      <trkpt lat="45.42548" lon="4.52528">
        <ele>537.83</ele>
        <time>2017-03-26T11:11:14Z</time>
      </trkpt>
      <trkpt lat="45.42548" lon="4.52528">
        <ele>537.83</ele>
        <time>2017-03-26T11:11:15Z</time>
      </trkpt>
      <trkpt lat="45.42548" lon="4.52528">
        <ele>537.83</ele>
        <time>2017-03-26T11:11:16Z</time>
      </trkpt>
      <trkpt lat="45.42548" lon="4.52528">
        <ele>537.83</ele>
        <time>2017-03-26T11:11:17Z</time>
      </trkpt>
      <trkpt lat="45.42548" lon="4.52528">
        <ele>537.83</ele>
        <time>2017-03-26T11:11:18Z</time>
      </trkpt>
      <trkpt lat="45.42548" lon="4.52528">
        <ele>537.83</ele>
        <time>2017-03-26T11:11:19Z</time>
      </trkpt>
      <trkpt lat="45.42548" lon="4.52528">
        <ele>537.83</ele>
        <time>2017-03-26T11:11:20Z</time>
      </trkpt>
      <trkpt lat="45.42548" lon="4.52528">
        <ele>537.83</ele>
        <time>2017-03-26T11:11:21Z</time>
      </trkpt>
      <trkpt lat="45.42548" lon="4.52528">
        <ele>537.83</ele>
        <time>2017-03-26T11:11:22Z</time>
      </trkpt>
      <trkpt lat="45.42548" lon="4.52528">
        <ele>537.83</ele>
        <time>2017-03-26T11:11:23Z</time>
      </trkpt>
      <trkpt lat="45.42548" lon="4.52528">
        <ele>537.83</ele>
        <time>2017-03-26T11:11:24Z</time>
      </trkpt>
      <trkpt lat="45.42548" lon="4.52528">
        <ele>537.83</ele>
        <time>2017-03-26T11:11:25Z</time>
      </trkpt>
      <trkpt lat="45.42548" lon="4.52528">
        <ele>537.83</ele>
        <time>2017-03-26T11:11:26Z</time>
      </trkpt>
      <trkpt lat="45.42548" lon="4.52528">
        <ele>537.83</ele>
        <time>2017-03-26T11:11:27Z</time>
      </trkpt>
      <trkpt lat="45.42548" lon="4.52528">
        <ele>537.83</ele>
        <time>2017-03-26T11:11:28Z</time>
      </trkpt>
      <trkpt lat="45.42548" lon="4.52528">
        <ele>537.83</ele>
        <time>2017-03-26T11:11:29Z</time>
      </trkpt>
      <trkpt lat="45.42548" lon="4.52528">
        <ele>537.83</ele>
        <time>2017-03-26T11:11:30Z</time>
      </trkpt>
      <trkpt lat="45.42548" lon="4.52528">
        <ele>537.83</ele>
        <time>2017-03-26T11:11:31Z</time>
      </trkpt>
      <trkpt lat="45.42548" lon="4.52528">
        <ele>537.83</ele>
        <time>2017-03-26T11:11:32Z</time>
      </trkpt>
      <trkpt lat="45.42548" lon="4.52528">
        <ele>537.83</ele>
        <time>2017-03-26T11:11:33Z</time>
      </trkpt>
      <trkpt lat="45.42548" lon="4.52528">
        <ele>537.83</ele>
        <time>2017-03-26T11:11:34Z</time>
      </trkpt>
      <trkpt lat="45.42548" lon="4.52528">
        <ele>537.83</ele>
        <time>2017-03-26T11:11:35Z</time>
      </trkpt>
      <trkpt lat="45.42548" lon="4.52528">
        <ele>537.83</ele>
        <time>2017-03-26T11:11:36Z</time>
      </trkpt>
      <trkpt lat="45.42548" lon="4.52528">
        <ele>537.83</ele>
        <time>2017-03-26T11:11:37Z</time>
      </trkpt>
      <trkpt lat="45.42548" lon="4.52528">
        <ele>537.83</ele>
        <time>2017-03-26T11:11:38Z</time>
      </trkpt>
      <trkpt lat="45.42548" lon="4.52528">
        <ele>537.83</ele>
        <time>2017-03-26T11:11:39Z</time>
      </trkpt>
      <trkpt lat="45.42548" lon="4.52528">
        <ele>537.83</ele>
        <time>2017-03-26T11:11:40Z</time>
      </trkpt>
      <trkpt lat="45.42548" lon="4.52528">
        <ele>537.83</ele>
        <time>2017-03-26T11:11:41Z</time>
      </trkpt>
      <trkpt lat="45.42548" lon="4.52528">
        <ele>537.83</ele>
        <time>2017-03-26T11:11:42Z</time>
      </trkpt>
      <trkpt lat="45.42548" lon="4.52528">
        <ele>537.83</ele>
        <time>2017-03-26T11:11:43Z</time>
      </trkpt>
      <trkpt lat="45.42548" lon="4.52528">
        <ele>537.83</ele>
        <time>2017-03-26T11:11:44Z</time>
      </trkpt>
      <trkpt lat="45.42548" lon="4.52528">
        <ele>537.83</ele>
        <time>2017-03-26T11:11:45Z</time>
      </trkpt>
      <trkpt lat="45.42548" lon="4.52528">
        <ele>537.83</ele>
        <time>2017-03-26T11:11:46Z</time>
      </trkpt>
      <trkpt lat="45.42548" lon="4.52528">
        <ele>537.83</ele>
        <time>2017-03-26T11:11:47Z</time>
      </trkpt>
      <trkpt lat="45.42548" lon="4.52528">
        <ele>537.83</ele>
        <time>2017-03-26T11:11:48Z</time>
      </trkpt>
      <trkpt lat="45.42548" lon="4.52528">
        <ele>537.83</ele>
        <time>2017-03-26T11:11:49Z</time>
      </trkpt>
      <trkpt lat="45.42548" lon="4.52528">
        <ele>537.83</ele>
        <time>2017-03-26T11:11:50Z</time>
      </trkpt>
      <trkpt lat="45.42548" lon="4.52528">
        <ele>537.83</ele>
        <time>2017-03-26T11:11:51Z</time>
      </trkpt>
      <trkpt lat="45.42548" lon="4.52528">
        <ele>537.83</ele>
        <time>2017-03-26T11:11:52Z</time>
      </trkpt>
      <trkpt lat="45.42548" lon="4.52528">
        <ele>537.83</ele>
        <time>2017-03-26T11:11:53Z</time>
      </trkpt>
      <trkpt lat="45.42548" lon="4.52528">
        <ele>537.83</ele>
        <time>2017-03-26T11:11:54Z</time>
      </trkpt>
      <trkpt lat="45.42548" lon="4.52528">
        <ele>537.83</ele>
        <time>2017-03-26T11:11:55Z</time>
      </trkpt>
      <trkpt lat="45.42548" lon="4.52528">
        <ele>537.83</ele>
        <time>2017-03-26T11:11:56Z</time>
      </trkpt>
      <trkpt lat="45.42548" lon="4.52528">
        <ele>537.83</ele>
        <time>2017-03-26T11:11:57Z</time>
      </trkpt>
      <trkpt lat="45.42548" lon="4.52528">
        <ele>537.83</ele>
        <time>2017-03-26T11:11:58Z</time>
      </trkpt>
      <trkpt lat="45.42548" lon="4.52528">
        <ele>537.83</ele>
        <time>2017-03-26T11:11:59Z</time>
      </trkpt>
      <trkpt lat="45.42548" lon="4.52528">
        <ele>537.83</ele>
        <time>2017-03-26T11:12:00Z</time>
      </trkpt>
      <trkpt lat="45.42548" lon="4.52528">
        <ele>537.83</ele>
        <time>2017-03-26T11:12:01Z</time>
      </trkpt>
      <trkpt lat="45.42548" lon="4.52528">
        <ele>537.83</ele>
        <time>2017-03-26T11:12:02Z</time>
      </trkpt>
      <trkpt lat="45.42548" lon="4.52528">
        <ele>537.83</ele>
        <time>2017-03-26T11:12:03Z</time>
      </trkpt>
      <trkpt lat="45.42548" lon="4.52528">
        <ele>537.83</ele>
        <time>2017-03-26T11:12:04Z</time>
      </trkpt>
      <trkpt lat="45.42548" lon="4.52528">
        <ele>537.83</ele>
        <time>2017-03-26T11:12:05Z</time>
      </trkpt>
      <trkpt lat="45.42548" lon="4.52528">
        <ele>537.83</ele>
        <time>2017-03-26T11:12:06Z</time>
      </trkpt>
      <trkpt lat="45.42548" lon="4.52528">
        <ele>537.83</ele>
        <time>2017-03-26T11:12:07Z</time>
      </trkpt>
      <trkpt lat="45.42548" lon="4.52528">
        <ele>537.83</ele>
        <time>2017-03-26T11:12:08Z</time>
      </trkpt>
      <trkpt lat="45.42548" lon="4.52528">
        <ele>537.83</ele>
        <time>2017-03-26T11:12:09Z</time>
      </trkpt>
      <trkpt lat="45.42548" lon="4.52528">
        <ele>537.83</ele>
        <time>2017-03-26T11:12:10Z</time>
      </trkpt>
      <trkpt lat="45.42548" lon="4.52528">
        <ele>537.83</ele>
        <time>2017-03-26T11:12:11Z</time>
      </trkpt>
      <trkpt lat="45.42548" lon="4.52528">
        <ele>537.83</ele>
        <time>2017-03-26T11:12:12Z</time>
      </trkpt>
      <trkpt lat="45.42548" lon="4.52528">
        <ele>537.83</ele>
        <time>2017-03-26T11:12:13Z</time>
      </trkpt>
      <trkpt lat="45.42548" lon="4.52528">
        <ele>537.83</ele>
        <time>2017-03-26T11:12:14Z</time>
      </trkpt>
      <trkpt lat="45.42548" lon="4.52528">
        <ele>537.83</ele>
        <time>2017-03-26T11:12:15Z</time>
      </trkpt>
      <trkpt lat="45.42548" lon="4.52528">
        <ele>537.83</ele>
        <time>2017-03-26T11:12:16Z</time>
      </trkpt>
      <trkpt lat="45.42548" lon="4.52528">
        <ele>537.83</ele>
        <time>2017-03-26T11:12:17Z</time>
      </trkpt>
      <trkpt lat="45.42548" lon="4.52528">
        <ele>537.83</ele>
        <time>2017-03-26T11:12:18Z</time>
      </trkpt>
      <trkpt lat="45.42548" lon="4.52528">
        <ele>537.83</ele>
        <time>2017-03-26T11:12:19Z</time>
      </trkpt>
      <trkpt lat="45.42548" lon="4.52528">
        <ele>537.83</ele>
        <time>2017-03-26T11:12:20Z</time>
      </trkpt>
      <trkpt lat="45.42548" lon="4.52528">
        <ele>537.83</ele>
        <time>2017-03-26T11:12:21Z</time>
      </trkpt>
      <trkpt lat="45.42548" lon="4.52528">
        <ele>537.83</ele>
        <time>2017-03-26T11:12:22Z</time>
      </trkpt>
      <trkpt lat="45.42548" lon="4.52528">
        <ele>537.83</ele>
        <time>2017-03-26T11:12:23Z</time>
      </trkpt>
      <trkpt lat="45.42548" lon="4.52528">
        <ele>537.83</ele>
        <time>2017-03-26T11:12:24Z</time>
      </trkpt>
      <trkpt lat="45.42548" lon="4.52528">
        <ele>537.83</ele>
        <time>2017-03-26T11:12:25Z</time>
      </trkpt>
      <trkpt lat="45.42548" lon="4.52528">
        <ele>537.83</ele>
        <time>2017-03-26T11:12:26Z</time>
      </trkpt>
      <trkpt lat="45.42548" lon="4.52528">
        <ele>537.83</ele>
        <time>2017-03-26T11:12:27Z</time>
      </trkpt>
      <trkpt lat="45.42548" lon="4.52528">
        <ele>537.83</ele>
        <time>2017-03-26T11:12:28Z</time>
      </trkpt>
      <trkpt lat="45.42548" lon="4.52528">
        <ele>537.83</ele>
        <time>2017-03-26T11:12:29Z</time>
      </trkpt>
      <trkpt lat="45.42548" lon="4.52528">
        <ele>537.83</ele>
        <time>2017-03-26T11:12:30Z</time>
      </trkpt>
      <trkpt lat="45.42548" lon="4.52528">
        <ele>537.83</ele>
        <time>2017-03-26T11:12:31Z</time>
      </trkpt>
      <trkpt lat="45.42548" lon="4.52528">
        <ele>537.83</ele>
        <time>2017-03-26T11:12:32Z</time>
      </trkpt>
      <trkpt lat="45.42548" lon="4.52528">
        <ele>537.83</ele>
        <time>2017-03-26T11:12:33Z</time>
      </trkpt>
      <trkpt lat="45.42548" lon="4.52528">
        <ele>537.83</ele>
        <time>2017-03-26T11:12:34Z</time>
      </trkpt>
      <trkpt lat="45.42548" lon="4.52528">
        <ele>537.83</ele>
        <time>2017-03-26T11:12:35Z</time>
      </trkpt>
      <trkpt lat="45.42548" lon="4.52528">
        <ele>537.83</ele>
        <time>2017-03-26T11:12:36Z</time>
      </trkpt>
      <trkpt lat="45.42548" lon="4.52528">
        <ele>537.83</ele>
        <time>2017-03-26T11:12:37Z</time>
      </trkpt>
      <trkpt lat="45.42548" lon="4.52528">
        <ele>537.83</ele>
        <time>2017-03-26T11:12:38Z</time>
      </trkpt>
      <trkpt lat="45.42551" lon="4.52541">
        <ele>531.03</ele>
        <time>2017-03-26T11:12:39Z</time>
      </trkpt>
      <trkpt lat="45.4255" lon="4.52542">
        <ele>529.59</ele>
        <time>2017-03-26T11:12:40Z</time>
      </trkpt>
      <trkpt lat="45.42551" lon="4.52545">
        <ele>529.22</ele>
        <time>2017-03-26T11:12:41Z</time>
      </trkpt>
      <trkpt lat="45.42551" lon="4.52546">
        <ele>529.07</ele>
        <time>2017-03-26T11:12:42Z</time>
      </trkpt>
      <trkpt lat="45.42551" lon="4.52546">
        <ele>529.04</ele>
        <time>2017-03-26T11:12:43Z</time>
      </trkpt>
      <trkpt lat="45.42551" lon="4.52546">
        <ele>529.03</ele>
        <time>2017-03-26T11:12:44Z</time>
      </trkpt>
      <trkpt lat="45.42551" lon="4.52546">
        <ele>529.03</ele>
        <time>2017-03-26T11:12:45Z</time>
      </trkpt>
      <trkpt lat="45.42551" lon="4.52546">
        <ele>529.03</ele>
        <time>2017-03-26T11:12:46Z</time>
      </trkpt>
      <trkpt lat="45.42551" lon="4.52546">
        <ele>529.03</ele>
        <time>2017-03-26T11:12:47Z</time>
      </trkpt>
      <trkpt lat="45.42551" lon="4.52546">
        <ele>529.03</ele>
        <time>2017-03-26T11:12:48Z</time>
      </trkpt>
      <trkpt lat="45.42551" lon="4.52546">
        <ele>529.03</ele>
        <time>2017-03-26T11:12:49Z</time>
      </trkpt>
      <trkpt lat="45.4255" lon="4.52559">
        <ele>527.59</ele>
        <time>2017-03-26T11:12:50Z</time>
      </trkpt>
      <trkpt lat="45.42549" lon="4.52561">
        <ele>527.14</ele>
        <time>2017-03-26T11:12:51Z</time>
      </trkpt>
      <trkpt lat="45.42549" lon="4.52563">
        <ele>526.89</ele>
        <time>2017-03-26T11:12:52Z</time>
      </trkpt>
      <trkpt lat="45.42549" lon="4.52565">
        <ele>526.68</ele>
        <time>2017-03-26T11:12:53Z</time>
      </trkpt>
      <trkpt lat="45.42549" lon="4.52565">
        <ele>526.64</ele>
        <time>2017-03-26T11:12:54Z</time>
      </trkpt>
      <trkpt lat="45.42549" lon="4.52565">
        <ele>526.63</ele>
        <time>2017-03-26T11:12:55Z</time>
      </trkpt>
      <trkpt lat="45.42548" lon="4.52572">
        <ele>526.07</ele>
        <time>2017-03-26T11:12:56Z</time>
      </trkpt>
      <trkpt lat="45.42547" lon="4.52574">
        <ele>525.8</ele>
        <time>2017-03-26T11:12:57Z</time>
      </trkpt>
      <trkpt lat="45.42547" lon="4.52576">
        <ele>525.58</ele>
        <time>2017-03-26T11:12:58Z</time>
      </trkpt>
      <trkpt lat="45.42547" lon="4.52578">
        <ele>525.38</ele>
        <time>2017-03-26T11:12:59Z</time>
      </trkpt>
      <trkpt lat="45.42546" lon="4.52579">
        <ele>525.18</ele>
        <time>2017-03-26T11:13:00Z</time>
      </trkpt>
      <trkpt lat="45.42546" lon="4.52581">
        <ele>524.98</ele>
        <time>2017-03-26T11:13:01Z</time>
      </trkpt>
      <trkpt lat="45.42546" lon="4.52582">
        <ele>524.78</ele>
        <time>2017-03-26T11:13:02Z</time>
      </trkpt>
      <trkpt lat="45.42546" lon="4.52583">
        <ele>524.58</ele>
        <time>2017-03-26T11:13:03Z</time>
      </trkpt>
      <trkpt lat="45.42546" lon="4.52585">
        <ele>524.38</ele>
        <time>2017-03-26T11:13:04Z</time>
      </trkpt>
      <trkpt lat="45.42546" lon="4.52585">
        <ele>524.34</ele>
        <time>2017-03-26T11:13:05Z</time>
      </trkpt>
      <trkpt lat="45.42546" lon="4.52585">
        <ele>524.33</ele>
        <time>2017-03-26T11:13:06Z</time>
      </trkpt>
      <trkpt lat="45.42546" lon="4.52585">
        <ele>524.33</ele>
        <time>2017-03-26T11:13:07Z</time>
      </trkpt>
      <trkpt lat="45.42546" lon="4.52585">
        <ele>524.33</ele>
        <time>2017-03-26T11:13:08Z</time>
      </trkpt>
      <trkpt lat="45.42546" lon="4.52585">
        <ele>524.33</ele>
        <time>2017-03-26T11:13:09Z</time>
      </trkpt>
      <trkpt lat="45.42546" lon="4.52585">
        <ele>524.33</ele>
        <time>2017-03-26T11:13:10Z</time>
      </trkpt>
      <trkpt lat="45.42546" lon="4.52585">
        <ele>524.33</ele>
        <time>2017-03-26T11:13:11Z</time>
      </trkpt>
      <trkpt lat="45.42546" lon="4.52585">
        <ele>524.33</ele>
        <time>2017-03-26T11:13:12Z</time>
      </trkpt>
      <trkpt lat="45.42546" lon="4.52585">
        <ele>524.33</ele>
        <time>2017-03-26T11:13:13Z</time>
      </trkpt>
      <trkpt lat="45.42546" lon="4.52585">
        <ele>524.33</ele>
        <time>2017-03-26T11:13:14Z</time>
      </trkpt>
      <trkpt lat="45.42546" lon="4.52585">
        <ele>524.33</ele>
        <time>2017-03-26T11:13:15Z</time>
      </trkpt>
      <trkpt lat="45.42546" lon="4.52585">
        <ele>524.33</ele>
        <time>2017-03-26T11:13:16Z</time>
      </trkpt>
      <trkpt lat="45.42546" lon="4.52585">
        <ele>524.33</ele>
        <time>2017-03-26T11:13:17Z</time>
      </trkpt>
      <trkpt lat="45.42546" lon="4.52585">
        <ele>524.33</ele>
        <time>2017-03-26T11:13:18Z</time>
      </trkpt>
      <trkpt lat="45.42546" lon="4.52585">
        <ele>524.33</ele>
        <time>2017-03-26T11:13:19Z</time>
      </trkpt>
      <trkpt lat="45.42546" lon="4.52585">
        <ele>524.33</ele>
        <time>2017-03-26T11:13:20Z</time>
      </trkpt>
      <trkpt lat="45.42546" lon="4.52585">
        <ele>524.33</ele>
        <time>2017-03-26T11:13:21Z</time>
      </trkpt>
      <trkpt lat="45.42546" lon="4.52585">
        <ele>524.33</ele>
        <time>2017-03-26T11:13:22Z</time>
      </trkpt>
      <trkpt lat="45.42546" lon="4.52585">
        <ele>524.33</ele>
        <time>2017-03-26T11:13:23Z</time>
      </trkpt>
      <trkpt lat="45.42546" lon="4.52585">
        <ele>524.33</ele>
        <time>2017-03-26T11:13:24Z</time>
      </trkpt>
      <trkpt lat="45.42546" lon="4.52585">
        <ele>524.33</ele>
        <time>2017-03-26T11:13:25Z</time>
      </trkpt>
      <trkpt lat="45.42546" lon="4.52585">
        <ele>524.33</ele>
        <time>2017-03-26T11:13:26Z</time>
      </trkpt>
      <trkpt lat="45.42546" lon="4.52585">
        <ele>524.33</ele>
        <time>2017-03-26T11:13:27Z</time>
      </trkpt>
      <trkpt lat="45.42546" lon="4.52585">
        <ele>524.33</ele>
        <time>2017-03-26T11:13:28Z</time>
      </trkpt>
      <trkpt lat="45.42546" lon="4.52585">
        <ele>524.33</ele>
        <time>2017-03-26T11:13:29Z</time>
      </trkpt>
      <trkpt lat="45.42546" lon="4.52585">
        <ele>524.33</ele>
        <time>2017-03-26T11:13:30Z</time>
      </trkpt>
      <trkpt lat="45.42546" lon="4.52585">
        <ele>524.33</ele>
        <time>2017-03-26T11:13:31Z</time>
      </trkpt>
      <trkpt lat="45.42546" lon="4.52585">
        <ele>524.33</ele>
        <time>2017-03-26T11:13:32Z</time>
      </trkpt>
      <trkpt lat="45.42546" lon="4.52585">
        <ele>524.33</ele>
        <time>2017-03-26T11:13:33Z</time>
      </trkpt>
      <trkpt lat="45.42546" lon="4.52585">
        <ele>524.33</ele>
        <time>2017-03-26T11:13:34Z</time>
      </trkpt>
      <trkpt lat="45.42546" lon="4.52585">
        <ele>524.33</ele>
        <time>2017-03-26T11:13:35Z</time>
      </trkpt>
      <trkpt lat="45.42546" lon="4.52585">
        <ele>524.33</ele>
        <time>2017-03-26T11:13:36Z</time>
      </trkpt>
      <trkpt lat="45.42546" lon="4.52585">
        <ele>524.33</ele>
        <time>2017-03-26T11:13:37Z</time>
      </trkpt>
      <trkpt lat="45.42546" lon="4.52585">
        <ele>524.33</ele>
        <time>2017-03-26T11:13:38Z</time>
      </trkpt>
      <trkpt lat="45.42546" lon="4.52585">
        <ele>524.33</ele>
        <time>2017-03-26T11:13:39Z</time>
      </trkpt>
      <trkpt lat="45.42546" lon="4.52585">
        <ele>524.33</ele>
        <time>2017-03-26T11:13:40Z</time>
      </trkpt>
      <trkpt lat="45.42546" lon="4.52585">
        <ele>524.33</ele>
        <time>2017-03-26T11:13:41Z</time>
      </trkpt>
      <trkpt lat="45.42538" lon="4.52587">
        <ele>523.21</ele>
        <time>2017-03-26T11:13:42Z</time>
      </trkpt>
      <trkpt lat="45.42537" lon="4.52587">
        <ele>522.99</ele>
        <time>2017-03-26T11:13:43Z</time>
      </trkpt>
      <trkpt lat="45.42535" lon="4.52587">
        <ele>522.86</ele>
        <time>2017-03-26T11:13:44Z</time>
      </trkpt>
      <trkpt lat="45.42534" lon="4.52588">
        <ele>522.76</ele>
        <time>2017-03-26T11:13:45Z</time>
      </trkpt>
      <trkpt lat="45.42533" lon="4.52588">
        <ele>522.74</ele>
        <time>2017-03-26T11:13:46Z</time>
      </trkpt>
      <trkpt lat="45.42532" lon="4.5259">
        <ele>522.65</ele>
        <time>2017-03-26T11:13:47Z</time>
      </trkpt>
      <trkpt lat="45.42531" lon="4.52591">
        <ele>522.55</ele>
        <time>2017-03-26T11:13:48Z</time>
      </trkpt>
      <trkpt lat="45.42531" lon="4.52593">
        <ele>522.45</ele>
        <time>2017-03-26T11:13:49Z</time>
      </trkpt>
      <trkpt lat="45.42531" lon="4.52595">
        <ele>522.35</ele>
        <time>2017-03-26T11:13:50Z</time>
      </trkpt>
      <trkpt lat="45.42531" lon="4.52597">
        <ele>522.17</ele>
        <time>2017-03-26T11:13:51Z</time>
      </trkpt>
      <trkpt lat="45.42531" lon="4.52597">
        <ele>522.14</ele>
        <time>2017-03-26T11:13:52Z</time>
      </trkpt>
      <trkpt lat="45.42531" lon="4.52597">
        <ele>522.13</ele>
        <time>2017-03-26T11:13:53Z</time>
      </trkpt>
      <trkpt lat="45.42531" lon="4.52597">
        <ele>522.13</ele>
        <time>2017-03-26T11:13:54Z</time>
      </trkpt>
      <trkpt lat="45.42531" lon="4.52597">
        <ele>522.13</ele>
        <time>2017-03-26T11:13:55Z</time>
      </trkpt>
      <trkpt lat="45.42531" lon="4.52597">
        <ele>522.13</ele>
        <time>2017-03-26T11:13:56Z</time>
      </trkpt>
      <trkpt lat="45.42531" lon="4.52597">
        <ele>522.13</ele>
        <time>2017-03-26T11:13:57Z</time>
      </trkpt>
      <trkpt lat="45.42531" lon="4.52597">
        <ele>522.13</ele>
        <time>2017-03-26T11:13:58Z</time>
      </trkpt>
      <trkpt lat="45.42531" lon="4.52597">
        <ele>522.13</ele>
        <time>2017-03-26T11:13:59Z</time>
      </trkpt>
      <trkpt lat="45.42531" lon="4.52597">
        <ele>522.13</ele>
        <time>2017-03-26T11:14:00Z</time>
      </trkpt>
      <trkpt lat="45.42531" lon="4.52597">
        <ele>522.13</ele>
        <time>2017-03-26T11:14:01Z</time>
      </trkpt>
      <trkpt lat="45.42531" lon="4.52597">
        <ele>522.13</ele>
        <time>2017-03-26T11:14:02Z</time>
      </trkpt>
      <trkpt lat="45.42531" lon="4.52597">
        <ele>522.13</ele>
        <time>2017-03-26T11:14:03Z</time>
      </trkpt>
      <trkpt lat="45.42534" lon="4.52611">
        <ele>521.17</ele>
        <time>2017-03-26T11:14:04Z</time>
      </trkpt>
      <trkpt lat="45.42534" lon="4.52613">
        <ele>520.74</ele>
        <time>2017-03-26T11:14:05Z</time>
      </trkpt>
      <trkpt lat="45.42534" lon="4.52616">
        <ele>520.41</ele>
        <time>2017-03-26T11:14:06Z</time>
      </trkpt>
      <trkpt lat="45.42534" lon="4.52618">
        <ele>520.11</ele>
        <time>2017-03-26T11:14:07Z</time>
      </trkpt>
      <trkpt lat="45.42534" lon="4.52619">
        <ele>519.89</ele>
        <time>2017-03-26T11:14:08Z</time>
      </trkpt>
      <trkpt lat="45.42534" lon="4.52621">
        <ele>519.6</ele>
        <time>2017-03-26T11:14:09Z</time>
      </trkpt>
      <trkpt lat="45.42534" lon="4.52623">
        <ele>519.22</ele>
        <time>2017-03-26T11:14:10Z</time>
      </trkpt>
      <trkpt lat="45.42534" lon="4.52625">
        <ele>518.83</ele>
        <time>2017-03-26T11:14:11Z</time>
      </trkpt>
      <trkpt lat="45.42534" lon="4.52626">
        <ele>518.43</ele>
        <time>2017-03-26T11:14:12Z</time>
      </trkpt>
      <trkpt lat="45.42534" lon="4.52627">
        <ele>518.03</ele>
        <time>2017-03-26T11:14:13Z</time>
      </trkpt>
      <trkpt lat="45.42534" lon="4.52629">
        <ele>517.71</ele>
        <time>2017-03-26T11:14:14Z</time>
      </trkpt>
      <trkpt lat="45.42534" lon="4.5263">
        <ele>517.41</ele>
        <time>2017-03-26T11:14:15Z</time>
      </trkpt>
      <trkpt lat="45.42534" lon="4.52631">
        <ele>517.11</ele>
        <time>2017-03-26T11:14:16Z</time>
      </trkpt>
      <trkpt lat="45.42534" lon="4.52633">
        <ele>516.81</ele>
        <time>2017-03-26T11:14:17Z</time>
      </trkpt>
      <trkpt lat="45.42534" lon="4.52634">
        <ele>516.59</ele>
        <time>2017-03-26T11:14:18Z</time>
      </trkpt>
      <trkpt lat="45.42534" lon="4.52636">
        <ele>516.22</ele>
        <time>2017-03-26T11:14:19Z</time>
      </trkpt>
      <trkpt lat="45.42534" lon="4.52637">
        <ele>515.91</ele>
        <time>2017-03-26T11:14:20Z</time>
      </trkpt>
      <trkpt lat="45.42535" lon="4.52638">
        <ele>515.53</ele>
        <time>2017-03-26T11:14:21Z</time>
      </trkpt>
      <trkpt lat="45.42535" lon="4.5264">
        <ele>515.29</ele>
        <time>2017-03-26T11:14:22Z</time>
      </trkpt>
      <trkpt lat="45.42535" lon="4.52641">
        <ele>515</ele>
        <time>2017-03-26T11:14:23Z</time>
      </trkpt>
      <trkpt lat="45.42535" lon="4.52642">
        <ele>514.7</ele>
        <time>2017-03-26T11:14:24Z</time>
      </trkpt>
      <trkpt lat="45.42535" lon="4.52644">
        <ele>514.48</ele>
        <time>2017-03-26T11:14:25Z</time>
      </trkpt>
      <trkpt lat="45.42535" lon="4.52645">
        <ele>514.28</ele>
        <time>2017-03-26T11:14:26Z</time>
      </trkpt>
      <trkpt lat="45.42535" lon="4.52645">
        <ele>514.24</ele>
        <time>2017-03-26T11:14:27Z</time>
      </trkpt>
      <trkpt lat="45.42535" lon="4.52645">
        <ele>514.23</ele>
        <time>2017-03-26T11:14:28Z</time>
      </trkpt>
      <trkpt lat="45.42535" lon="4.52645">
        <ele>514.23</ele>
        <time>2017-03-26T11:14:29Z</time>
      </trkpt>
      <trkpt lat="45.42535" lon="4.52645">
        <ele>514.23</ele>
        <time>2017-03-26T11:14:30Z</time>
      </trkpt>
      <trkpt lat="45.42535" lon="4.52645">
        <ele>514.23</ele>
        <time>2017-03-26T11:14:31Z</time>
      </trkpt>
      <trkpt lat="45.42535" lon="4.52645">
        <ele>514.23</ele>
        <time>2017-03-26T11:14:32Z</time>
      </trkpt>
      <trkpt lat="45.42535" lon="4.52645">
        <ele>514.23</ele>
        <time>2017-03-26T11:14:33Z</time>
      </trkpt>
      <trkpt lat="45.42535" lon="4.52645">
        <ele>514.23</ele>
        <time>2017-03-26T11:14:34Z</time>
      </trkpt>
      <trkpt lat="45.42535" lon="4.52645">
        <ele>514.23</ele>
        <time>2017-03-26T11:14:35Z</time>
      </trkpt>
      <trkpt lat="45.42535" lon="4.52645">
        <ele>514.23</ele>
        <time>2017-03-26T11:14:36Z</time>
      </trkpt>
      <trkpt lat="45.42535" lon="4.52645">
        <ele>514.23</ele>
        <time>2017-03-26T11:14:37Z</time>
      </trkpt>
      <trkpt lat="45.42535" lon="4.52645">
        <ele>514.23</ele>
        <time>2017-03-26T11:14:38Z</time>
      </trkpt>
      <trkpt lat="45.42535" lon="4.52645">
        <ele>514.23</ele>
        <time>2017-03-26T11:14:39Z</time>
      </trkpt>
      <trkpt lat="45.42535" lon="4.52645">
        <ele>514.23</ele>
        <time>2017-03-26T11:14:40Z</time>
      </trkpt>
      <trkpt lat="45.42535" lon="4.52645">
        <ele>514.23</ele>
        <time>2017-03-26T11:14:41Z</time>
      </trkpt>
      <trkpt lat="45.42535" lon="4.52645">
        <ele>514.23</ele>
        <time>2017-03-26T11:14:42Z</time>
      </trkpt>
      <trkpt lat="45.42535" lon="4.52645">
        <ele>514.23</ele>
        <time>2017-03-26T11:14:43Z</time>
      </trkpt>
      <trkpt lat="45.42535" lon="4.52645">
        <ele>514.23</ele>
        <time>2017-03-26T11:14:44Z</time>
      </trkpt>
      <trkpt lat="45.42535" lon="4.52645">
        <ele>514.23</ele>
        <time>2017-03-26T11:14:45Z</time>
      </trkpt>
      <trkpt lat="45.42535" lon="4.52645">
        <ele>514.23</ele>
        <time>2017-03-26T11:14:46Z</time>
      </trkpt>
      <trkpt lat="45.42535" lon="4.52645">
        <ele>514.23</ele>
        <time>2017-03-26T11:14:47Z</time>
      </trkpt>
      <trkpt lat="45.42535" lon="4.52645">
        <ele>514.23</ele>
        <time>2017-03-26T11:14:48Z</time>
      </trkpt>
      <trkpt lat="45.42535" lon="4.52645">
        <ele>514.23</ele>
        <time>2017-03-26T11:14:49Z</time>
      </trkpt>
      <trkpt lat="45.42535" lon="4.52645">
        <ele>514.23</ele>
        <time>2017-03-26T11:14:50Z</time>
      </trkpt>
      <trkpt lat="45.42535" lon="4.52645">
        <ele>514.23</ele>
        <time>2017-03-26T11:14:51Z</time>
      </trkpt>
      <trkpt lat="45.42535" lon="4.52645">
        <ele>514.23</ele>
        <time>2017-03-26T11:14:52Z</time>
      </trkpt>
      <trkpt lat="45.42535" lon="4.52645">
        <ele>514.23</ele>
        <time>2017-03-26T11:14:53Z</time>
      </trkpt>
      <trkpt lat="45.42535" lon="4.52645">
        <ele>514.23</ele>
        <time>2017-03-26T11:14:54Z</time>
      </trkpt>
      <trkpt lat="45.42535" lon="4.52645">
        <ele>514.23</ele>
        <time>2017-03-26T11:14:55Z</time>
      </trkpt>
      <trkpt lat="45.42535" lon="4.52645">
        <ele>514.23</ele>
        <time>2017-03-26T11:14:56Z</time>
      </trkpt>
      <trkpt lat="45.42535" lon="4.52645">
        <ele>514.23</ele>
        <time>2017-03-26T11:14:57Z</time>
      </trkpt>
      <trkpt lat="45.42535" lon="4.52645">
        <ele>514.23</ele>
        <time>2017-03-26T11:14:58Z</time>
      </trkpt>
      <trkpt lat="45.42535" lon="4.52645">
        <ele>514.23</ele>
        <time>2017-03-26T11:14:59Z</time>
      </trkpt>
      <trkpt lat="45.42535" lon="4.52645">
        <ele>514.23</ele>
        <time>2017-03-26T11:15:00Z</time>
      </trkpt>
      <trkpt lat="45.42535" lon="4.52645">
        <ele>514.23</ele>
        <time>2017-03-26T11:15:01Z</time>
      </trkpt>
      <trkpt lat="45.42535" lon="4.52645">
        <ele>514.23</ele>
        <time>2017-03-26T11:15:02Z</time>
      </trkpt>
      <trkpt lat="45.42535" lon="4.52645">
        <ele>514.23</ele>
        <time>2017-03-26T11:15:03Z</time>
      </trkpt>
      <trkpt lat="45.42535" lon="4.52645">
        <ele>514.23</ele>
        <time>2017-03-26T11:15:04Z</time>
      </trkpt>
      <trkpt lat="45.42535" lon="4.52645">
        <ele>514.23</ele>
        <time>2017-03-26T11:15:05Z</time>
      </trkpt>
      <trkpt lat="45.42535" lon="4.52645">
        <ele>514.23</ele>
        <time>2017-03-26T11:15:06Z</time>
      </trkpt>
      <trkpt lat="45.42535" lon="4.52645">
        <ele>514.23</ele>
        <time>2017-03-26T11:15:07Z</time>
      </trkpt>
      <trkpt lat="45.42535" lon="4.52645">
        <ele>514.23</ele>
        <time>2017-03-26T11:15:08Z</time>
      </trkpt>
      <trkpt lat="45.42535" lon="4.52645">
        <ele>514.23</ele>
        <time>2017-03-26T11:15:09Z</time>
      </trkpt>
      <trkpt lat="45.42535" lon="4.52645">
        <ele>514.23</ele>
        <time>2017-03-26T11:15:10Z</time>
      </trkpt>
      <trkpt lat="45.42535" lon="4.52645">
        <ele>514.23</ele>
        <time>2017-03-26T11:15:11Z</time>
      </trkpt>
      <trkpt lat="45.42535" lon="4.52645">
        <ele>514.23</ele>
        <time>2017-03-26T11:15:12Z</time>
      </trkpt>
      <trkpt lat="45.42535" lon="4.52645">
        <ele>514.23</ele>
        <time>2017-03-26T11:15:13Z</time>
      </trkpt>
      <trkpt lat="45.42535" lon="4.52645">
        <ele>514.23</ele>
        <time>2017-03-26T11:15:14Z</time>
      </trkpt>
      <trkpt lat="45.42535" lon="4.52645">
        <ele>514.23</ele>
        <time>2017-03-26T11:15:15Z</time>
      </trkpt>
      <trkpt lat="45.42535" lon="4.52645">
        <ele>514.23</ele>
        <time>2017-03-26T11:15:16Z</time>
      </trkpt>
      <trkpt lat="45.42535" lon="4.52645">
        <ele>514.23</ele>
        <time>2017-03-26T11:15:17Z</time>
      </trkpt>
      <trkpt lat="45.42535" lon="4.52645">
        <ele>514.23</ele>
        <time>2017-03-26T11:15:18Z</time>
      </trkpt>
      <trkpt lat="45.42535" lon="4.52645">
        <ele>514.23</ele>
        <time>2017-03-26T11:15:19Z</time>
      </trkpt>
      <trkpt lat="45.42535" lon="4.52645">
        <ele>514.23</ele>
        <time>2017-03-26T11:15:20Z</time>
      </trkpt>
      <trkpt lat="45.42535" lon="4.52645">
        <ele>514.23</ele>
        <time>2017-03-26T11:15:21Z</time>
      </trkpt>
      <trkpt lat="45.42535" lon="4.52645">
        <ele>514.23</ele>
        <time>2017-03-26T11:15:22Z</time>
      </trkpt>
      <trkpt lat="45.42535" lon="4.52645">
        <ele>514.23</ele>
        <time>2017-03-26T11:15:23Z</time>
      </trkpt>
      <trkpt lat="45.42535" lon="4.52645">
        <ele>514.23</ele>
        <time>2017-03-26T11:15:24Z</time>
      </trkpt>
      <trkpt lat="45.42535" lon="4.52645">
        <ele>514.23</ele>
        <time>2017-03-26T11:15:25Z</time>
      </trkpt>
      <trkpt lat="45.42535" lon="4.52645">
        <ele>514.23</ele>
        <time>2017-03-26T11:15:26Z</time>
      </trkpt>
      <trkpt lat="45.42535" lon="4.52645">
        <ele>514.23</ele>
        <time>2017-03-26T11:15:27Z</time>
      </trkpt>
      <trkpt lat="45.42535" lon="4.52645">
        <ele>514.23</ele>
        <time>2017-03-26T11:15:28Z</time>
      </trkpt>
      <trkpt lat="45.42535" lon="4.52645">
        <ele>514.23</ele>
        <time>2017-03-26T11:15:29Z</time>
      </trkpt>
      <trkpt lat="45.42535" lon="4.52645">
        <ele>514.23</ele>
        <time>2017-03-26T11:15:30Z</time>
      </trkpt>
      <trkpt lat="45.42535" lon="4.52645">
        <ele>514.23</ele>
        <time>2017-03-26T11:15:31Z</time>
      </trkpt>
      <trkpt lat="45.42535" lon="4.52645">
        <ele>514.23</ele>
        <time>2017-03-26T11:15:32Z</time>
      </trkpt>
      <trkpt lat="45.42535" lon="4.52645">
        <ele>514.23</ele>
        <time>2017-03-26T11:15:33Z</time>
      </trkpt>
      <trkpt lat="45.42535" lon="4.52645">
        <ele>514.23</ele>
        <time>2017-03-26T11:15:34Z</time>
      </trkpt>
      <trkpt lat="45.42535" lon="4.52645">
        <ele>514.23</ele>
        <time>2017-03-26T11:15:35Z</time>
      </trkpt>
      <trkpt lat="45.42535" lon="4.52645">
        <ele>514.23</ele>
        <time>2017-03-26T11:15:36Z</time>
      </trkpt>
      <trkpt lat="45.42535" lon="4.52645">
        <ele>514.23</ele>
        <time>2017-03-26T11:15:37Z</time>
      </trkpt>
      <trkpt lat="45.42535" lon="4.52645">
        <ele>514.23</ele>
        <time>2017-03-26T11:15:38Z</time>
      </trkpt>
      <trkpt lat="45.42535" lon="4.52645">
        <ele>514.23</ele>
        <time>2017-03-26T11:15:39Z</time>
      </trkpt>
      <trkpt lat="45.42535" lon="4.52645">
        <ele>514.23</ele>
        <time>2017-03-26T11:15:40Z</time>
      </trkpt>
      <trkpt lat="45.42535" lon="4.52645">
        <ele>514.23</ele>
        <time>2017-03-26T11:15:41Z</time>
      </trkpt>
      <trkpt lat="45.42535" lon="4.52645">
        <ele>514.23</ele>
        <time>2017-03-26T11:15:42Z</time>
      </trkpt>
      <trkpt lat="45.42535" lon="4.52645">
        <ele>514.23</ele>
        <time>2017-03-26T11:15:43Z</time>
      </trkpt>
      <trkpt lat="45.42535" lon="4.52645">
        <ele>514.23</ele>
        <time>2017-03-26T11:15:44Z</time>
      </trkpt>
      <trkpt lat="45.42535" lon="4.52645">
        <ele>514.23</ele>
        <time>2017-03-26T11:15:45Z</time>
      </trkpt>
      <trkpt lat="45.42535" lon="4.52645">
        <ele>514.23</ele>
        <time>2017-03-26T11:15:46Z</time>
      </trkpt>
      <trkpt lat="45.42535" lon="4.52645">
        <ele>514.23</ele>
        <time>2017-03-26T11:15:47Z</time>
      </trkpt>
      <trkpt lat="45.42535" lon="4.52645">
        <ele>514.23</ele>
        <time>2017-03-26T11:15:48Z</time>
      </trkpt>
      <trkpt lat="45.42535" lon="4.52645">
        <ele>514.23</ele>
        <time>2017-03-26T11:15:49Z</time>
      </trkpt>
      <trkpt lat="45.42535" lon="4.52645">
        <ele>514.23</ele>
        <time>2017-03-26T11:15:50Z</time>
      </trkpt>
      <trkpt lat="45.42535" lon="4.52645">
        <ele>514.23</ele>
        <time>2017-03-26T11:15:51Z</time>
      </trkpt>
      <trkpt lat="45.42535" lon="4.52645">
        <ele>514.23</ele>
        <time>2017-03-26T11:15:52Z</time>
      </trkpt>
      <trkpt lat="45.42535" lon="4.52645">
        <ele>514.23</ele>
        <time>2017-03-26T11:15:53Z</time>
      </trkpt>
      <trkpt lat="45.42535" lon="4.52645">
        <ele>514.23</ele>
        <time>2017-03-26T11:15:54Z</time>
      </trkpt>
      <trkpt lat="45.42535" lon="4.52645">
        <ele>514.23</ele>
        <time>2017-03-26T11:15:55Z</time>
      </trkpt>
      <trkpt lat="45.42535" lon="4.52645">
        <ele>514.23</ele>
        <time>2017-03-26T11:15:56Z</time>
      </trkpt>
      <trkpt lat="45.42535" lon="4.52645">
        <ele>514.23</ele>
        <time>2017-03-26T11:15:57Z</time>
      </trkpt>
      <trkpt lat="45.42535" lon="4.52645">
        <ele>514.23</ele>
        <time>2017-03-26T11:15:58Z</time>
      </trkpt>
      <trkpt lat="45.42535" lon="4.52645">
        <ele>514.23</ele>
        <time>2017-03-26T11:15:59Z</time>
      </trkpt>
      <trkpt lat="45.42535" lon="4.52645">
        <ele>514.23</ele>
        <time>2017-03-26T11:16:00Z</time>
      </trkpt>
      <trkpt lat="45.42535" lon="4.52645">
        <ele>514.23</ele>
        <time>2017-03-26T11:16:01Z</time>
      </trkpt>
      <trkpt lat="45.42535" lon="4.52645">
        <ele>514.23</ele>
        <time>2017-03-26T11:16:02Z</time>
      </trkpt>
      <trkpt lat="45.42535" lon="4.52645">
        <ele>514.23</ele>
        <time>2017-03-26T11:16:03Z</time>
      </trkpt>
      <trkpt lat="45.42535" lon="4.52645">
        <ele>514.23</ele>
        <time>2017-03-26T11:16:04Z</time>
      </trkpt>
      <trkpt lat="45.42535" lon="4.52645">
        <ele>514.23</ele>
        <time>2017-03-26T11:16:05Z</time>
      </trkpt>
      <trkpt lat="45.42535" lon="4.52645">
        <ele>514.23</ele>
        <time>2017-03-26T11:16:06Z</time>
      </trkpt>
      <trkpt lat="45.42535" lon="4.52645">
        <ele>514.23</ele>
        <time>2017-03-26T11:16:07Z</time>
      </trkpt>
      <trkpt lat="45.42535" lon="4.52645">
        <ele>514.23</ele>
        <time>2017-03-26T11:16:08Z</time>
      </trkpt>
      <trkpt lat="45.42535" lon="4.52645">
        <ele>514.23</ele>
        <time>2017-03-26T11:16:09Z</time>
      </trkpt>
      <trkpt lat="45.42535" lon="4.52645">
        <ele>514.23</ele>
        <time>2017-03-26T11:16:10Z</time>
      </trkpt>
      <trkpt lat="45.42535" lon="4.52645">
        <ele>514.23</ele>
        <time>2017-03-26T11:16:11Z</time>
      </trkpt>
      <trkpt lat="45.42535" lon="4.52645">
        <ele>514.23</ele>
        <time>2017-03-26T11:16:12Z</time>
      </trkpt>
      <trkpt lat="45.42535" lon="4.52645">
        <ele>514.23</ele>
        <time>2017-03-26T11:16:13Z</time>
      </trkpt>
      <trkpt lat="45.42535" lon="4.52645">
        <ele>514.23</ele>
        <time>2017-03-26T11:16:14Z</time>
      </trkpt>
      <trkpt lat="45.42535" lon="4.52645">
        <ele>514.23</ele>
        <time>2017-03-26T11:16:15Z</time>
      </trkpt>
      <trkpt lat="45.42535" lon="4.52645">
        <ele>514.23</ele>
        <time>2017-03-26T11:16:16Z</time>
      </trkpt>
      <trkpt lat="45.42535" lon="4.52645">
        <ele>514.23</ele>
        <time>2017-03-26T11:16:17Z</time>
      </trkpt>
      <trkpt lat="45.42535" lon="4.52645">
        <ele>514.23</ele>
        <time>2017-03-26T11:16:18Z</time>
      </trkpt>
      <trkpt lat="45.42535" lon="4.52645">
        <ele>514.23</ele>
        <time>2017-03-26T11:16:19Z</time>
      </trkpt>
      <trkpt lat="45.42535" lon="4.52645">
        <ele>514.23</ele>
        <time>2017-03-26T11:16:20Z</time>
      </trkpt>
      <trkpt lat="45.42535" lon="4.52645">
        <ele>514.23</ele>
        <time>2017-03-26T11:16:21Z</time>
      </trkpt>
      <trkpt lat="45.42535" lon="4.52645">
        <ele>514.23</ele>
        <time>2017-03-26T11:16:22Z</time>
      </trkpt>
      <trkpt lat="45.42535" lon="4.52645">
        <ele>514.23</ele>
        <time>2017-03-26T11:16:23Z</time>
      </trkpt>
      <trkpt lat="45.42535" lon="4.52645">
        <ele>514.23</ele>
        <time>2017-03-26T11:16:24Z</time>
      </trkpt>
      <trkpt lat="45.42535" lon="4.52645">
        <ele>514.23</ele>
        <time>2017-03-26T11:16:25Z</time>
      </trkpt>
      <trkpt lat="45.42535" lon="4.52645">
        <ele>514.23</ele>
        <time>2017-03-26T11:16:26Z</time>
      </trkpt>
      <trkpt lat="45.42535" lon="4.52645">
        <ele>514.23</ele>
        <time>2017-03-26T11:16:27Z</time>
      </trkpt>
      <trkpt lat="45.42535" lon="4.52645">
        <ele>514.23</ele>
        <time>2017-03-26T11:16:28Z</time>
      </trkpt>
      <trkpt lat="45.42535" lon="4.52645">
        <ele>514.23</ele>
        <time>2017-03-26T11:16:29Z</time>
      </trkpt>
      <trkpt lat="45.42537" lon="4.52632">
        <ele>514.15</ele>
        <time>2017-03-26T11:16:30Z</time>
      </trkpt>
      <trkpt lat="45.42537" lon="4.52631">
        <ele>514.05</ele>
        <time>2017-03-26T11:16:31Z</time>
      </trkpt>
      <trkpt lat="45.42538" lon="4.52629">
        <ele>513.95</ele>
        <time>2017-03-26T11:16:32Z</time>
      </trkpt>
      <trkpt lat="45.42539" lon="4.52628">
        <ele>513.85</ele>
        <time>2017-03-26T11:16:33Z</time>
      </trkpt>
      <trkpt lat="45.42539" lon="4.52626">
        <ele>513.84</ele>
        <time>2017-03-26T11:16:34Z</time>
      </trkpt>
      <trkpt lat="45.4254" lon="4.52625">
        <ele>513.75</ele>
        <time>2017-03-26T11:16:35Z</time>
      </trkpt>
      <trkpt lat="45.4254" lon="4.52623">
        <ele>513.73</ele>
        <time>2017-03-26T11:16:36Z</time>
      </trkpt>
      <trkpt lat="45.4254" lon="4.52621">
        <ele>513.65</ele>
        <time>2017-03-26T11:16:37Z</time>
      </trkpt>
      <trkpt lat="45.4254" lon="4.5262">
        <ele>513.55</ele>
        <time>2017-03-26T11:16:38Z</time>
      </trkpt>
      <trkpt lat="45.4254" lon="4.52619">
        <ele>513.53</ele>
        <time>2017-03-26T11:16:39Z</time>
      </trkpt>
      <trkpt lat="45.4254" lon="4.52618">
        <ele>513.45</ele>
        <time>2017-03-26T11:16:40Z</time>
      </trkpt>
      <trkpt lat="45.42539" lon="4.52617">
        <ele>513.43</ele>
        <time>2017-03-26T11:16:41Z</time>
      </trkpt>
      <trkpt lat="45.42539" lon="4.52617">
        <ele>513.43</ele>
        <time>2017-03-26T11:16:42Z</time>
      </trkpt>
      <trkpt lat="45.42539" lon="4.52617">
        <ele>513.43</ele>
        <time>2017-03-26T11:16:43Z</time>
      </trkpt>
      <trkpt lat="45.42539" lon="4.52617">
        <ele>513.43</ele>
        <time>2017-03-26T11:16:44Z</time>
      </trkpt>
      <trkpt lat="45.42539" lon="4.52617">
        <ele>513.43</ele>
        <time>2017-03-26T11:16:45Z</time>
      </trkpt>
      <trkpt lat="45.42539" lon="4.52617">
        <ele>513.43</ele>
        <time>2017-03-26T11:16:46Z</time>
      </trkpt>
      <trkpt lat="45.42539" lon="4.52617">
        <ele>513.43</ele>
        <time>2017-03-26T11:16:47Z</time>
      </trkpt>
      <trkpt lat="45.42539" lon="4.52617">
        <ele>513.43</ele>
        <time>2017-03-26T11:16:48Z</time>
      </trkpt>
      <trkpt lat="45.42539" lon="4.52617">
        <ele>513.43</ele>
        <time>2017-03-26T11:16:49Z</time>
      </trkpt>
      <trkpt lat="45.42539" lon="4.52617">
        <ele>513.43</ele>
        <time>2017-03-26T11:16:50Z</time>
      </trkpt>
      <trkpt lat="45.42539" lon="4.52617">
        <ele>513.43</ele>
        <time>2017-03-26T11:16:51Z</time>
      </trkpt>
      <trkpt lat="45.42545" lon="4.52607">
        <ele>511.99</ele>
        <time>2017-03-26T11:16:52Z</time>
      </trkpt>
      <trkpt lat="45.42547" lon="4.52606">
        <ele>511.46</ele>
        <time>2017-03-26T11:16:53Z</time>
      </trkpt>
      <trkpt lat="45.42549" lon="4.52606">
        <ele>511.12</ele>
        <time>2017-03-26T11:16:54Z</time>
      </trkpt>
      <trkpt lat="45.4255" lon="4.52606">
        <ele>510.81</ele>
        <time>2017-03-26T11:16:55Z</time>
      </trkpt>
      <trkpt lat="45.42551" lon="4.52605">
        <ele>510.51</ele>
        <time>2017-03-26T11:16:56Z</time>
      </trkpt>
      <trkpt lat="45.42551" lon="4.52605">
        <ele>510.13</ele>
        <time>2017-03-26T11:16:57Z</time>
      </trkpt>
      <trkpt lat="45.42552" lon="4.52605">
        <ele>509.73</ele>
        <time>2017-03-26T11:16:58Z</time>
      </trkpt>
      <trkpt lat="45.42552" lon="4.52605">
        <ele>509.65</ele>
        <time>2017-03-26T11:16:59Z</time>
      </trkpt>
      <trkpt lat="45.42552" lon="4.52605">
        <ele>509.63</ele>
        <time>2017-03-26T11:17:00Z</time>
      </trkpt>
      <trkpt lat="45.42552" lon="4.52605">
        <ele>509.63</ele>
        <time>2017-03-26T11:17:01Z</time>
      </trkpt>
      <trkpt lat="45.42552" lon="4.52605">
        <ele>509.63</ele>
        <time>2017-03-26T11:17:02Z</time>
      </trkpt>
      <trkpt lat="45.42552" lon="4.52605">
        <ele>509.63</ele>
        <time>2017-03-26T11:17:03Z</time>
      </trkpt>
      <trkpt lat="45.42552" lon="4.52605">
        <ele>509.63</ele>
        <time>2017-03-26T11:17:04Z</time>
      </trkpt>
      <trkpt lat="45.42552" lon="4.52605">
        <ele>509.63</ele>
        <time>2017-03-26T11:17:05Z</time>
      </trkpt>
      <trkpt lat="45.42552" lon="4.52605">
        <ele>509.63</ele>
        <time>2017-03-26T11:17:06Z</time>
      </trkpt>
      <trkpt lat="45.42552" lon="4.52605">
        <ele>509.63</ele>
        <time>2017-03-26T11:17:07Z</time>
      </trkpt>
      <trkpt lat="45.42552" lon="4.52605">
        <ele>509.63</ele>
        <time>2017-03-26T11:17:08Z</time>
      </trkpt>
      <trkpt lat="45.42552" lon="4.52605">
        <ele>509.63</ele>
        <time>2017-03-26T11:17:09Z</time>
      </trkpt>
      <trkpt lat="45.42552" lon="4.52605">
        <ele>509.63</ele>
        <time>2017-03-26T11:17:10Z</time>
      </trkpt>
      <trkpt lat="45.42552" lon="4.52605">
        <ele>509.63</ele>
        <time>2017-03-26T11:17:11Z</time>
      </trkpt>
      <trkpt lat="45.42552" lon="4.52605">
        <ele>509.63</ele>
        <time>2017-03-26T11:17:12Z</time>
      </trkpt>
      <trkpt lat="45.42552" lon="4.52605">
        <ele>509.63</ele>
        <time>2017-03-26T11:17:13Z</time>
      </trkpt>
      <trkpt lat="45.42552" lon="4.52605">
        <ele>509.63</ele>
        <time>2017-03-26T11:17:14Z</time>
      </trkpt>
      <trkpt lat="45.42552" lon="4.52605">
        <ele>509.63</ele>
        <time>2017-03-26T11:17:15Z</time>
      </trkpt>
      <trkpt lat="45.42552" lon="4.52605">
        <ele>509.63</ele>
        <time>2017-03-26T11:17:16Z</time>
      </trkpt>
      <trkpt lat="45.42556" lon="4.52613">
        <ele>506.35</ele>
        <time>2017-03-26T11:17:17Z</time>
      </trkpt>
      <trkpt lat="45.42555" lon="4.52614">
        <ele>505.61</ele>
        <time>2017-03-26T11:17:18Z</time>
      </trkpt>
      <trkpt lat="45.42555" lon="4.52614">
        <ele>505.39</ele>
        <time>2017-03-26T11:17:19Z</time>
      </trkpt>
      <trkpt lat="45.42554" lon="4.52615">
        <ele>505.26</ele>
        <time>2017-03-26T11:17:20Z</time>
      </trkpt>
      <trkpt lat="45.42554" lon="4.52614">
        <ele>505.16</ele>
        <time>2017-03-26T11:17:21Z</time>
      </trkpt>
      <trkpt lat="45.42554" lon="4.52614">
        <ele>505.14</ele>
        <time>2017-03-26T11:17:22Z</time>
      </trkpt>
      <trkpt lat="45.42554" lon="4.52614">
        <ele>505.13</ele>
        <time>2017-03-26T11:17:23Z</time>
      </trkpt>
      <trkpt lat="45.42554" lon="4.52614">
        <ele>505.13</ele>
        <time>2017-03-26T11:17:24Z</time>
      </trkpt>
      <trkpt lat="45.42554" lon="4.52614">
        <ele>505.13</ele>
        <time>2017-03-26T11:17:25Z</time>
      </trkpt>
      <trkpt lat="45.42554" lon="4.52614">
        <ele>505.13</ele>
        <time>2017-03-26T11:17:26Z</time>
      </trkpt>
      <trkpt lat="45.42554" lon="4.52614">
        <ele>505.13</ele>
        <time>2017-03-26T11:17:27Z</time>
      </trkpt>
      <trkpt lat="45.42554" lon="4.52614">
        <ele>505.13</ele>
        <time>2017-03-26T11:17:28Z</time>
      </trkpt>
      <trkpt lat="45.42554" lon="4.52614">
        <ele>505.13</ele>
        <time>2017-03-26T11:17:29Z</time>
      </trkpt>
      <trkpt lat="45.42554" lon="4.52614">
        <ele>505.13</ele>
        <time>2017-03-26T11:17:30Z</time>
      </trkpt>
      <trkpt lat="45.42554" lon="4.52614">
        <ele>505.13</ele>
        <time>2017-03-26T11:17:31Z</time>
      </trkpt>
      <trkpt lat="45.42554" lon="4.52614">
        <ele>505.13</ele>
        <time>2017-03-26T11:17:32Z</time>
      </trkpt>
      <trkpt lat="45.42554" lon="4.52614">
        <ele>505.13</ele>
        <time>2017-03-26T11:17:33Z</time>
      </trkpt>
      <trkpt lat="45.42554" lon="4.52614">
        <ele>505.13</ele>
        <time>2017-03-26T11:17:34Z</time>
      </trkpt>
      <trkpt lat="45.42554" lon="4.52614">
        <ele>505.13</ele>
        <time>2017-03-26T11:17:35Z</time>
      </trkpt>
      <trkpt lat="45.42554" lon="4.52614">
        <ele>505.13</ele>
        <time>2017-03-26T11:17:36Z</time>
      </trkpt>
      <trkpt lat="45.42554" lon="4.52614">
        <ele>505.13</ele>
        <time>2017-03-26T11:17:37Z</time>
      </trkpt>
      <trkpt lat="45.42554" lon="4.52614">
        <ele>505.13</ele>
        <time>2017-03-26T11:17:38Z</time>
      </trkpt>
      <trkpt lat="45.42554" lon="4.52614">
        <ele>505.13</ele>
        <time>2017-03-26T11:17:39Z</time>
      </trkpt>
      <trkpt lat="45.42554" lon="4.52614">
        <ele>505.13</ele>
        <time>2017-03-26T11:17:40Z</time>
      </trkpt>
      <trkpt lat="45.42554" lon="4.52614">
        <ele>505.13</ele>
        <time>2017-03-26T11:17:41Z</time>
      </trkpt>
      <trkpt lat="45.42554" lon="4.52614">
        <ele>505.13</ele>
        <time>2017-03-26T11:17:42Z</time>
      </trkpt>
      <trkpt lat="45.42554" lon="4.52614">
        <ele>505.13</ele>
        <time>2017-03-26T11:17:43Z</time>
      </trkpt>
      <trkpt lat="45.42554" lon="4.52614">
        <ele>505.13</ele>
        <time>2017-03-26T11:17:44Z</time>
      </trkpt>
      <trkpt lat="45.42554" lon="4.52628">
        <ele>503.45</ele>
        <time>2017-03-26T11:17:45Z</time>
      </trkpt>
      <trkpt lat="45.42553" lon="4.52628">
        <ele>503.11</ele>
        <time>2017-03-26T11:17:46Z</time>
      </trkpt>
      <trkpt lat="45.42553" lon="4.52629">
        <ele>502.97</ele>
        <time>2017-03-26T11:17:47Z</time>
      </trkpt>
      <trkpt lat="45.42553" lon="4.52629">
        <ele>502.94</ele>
        <time>2017-03-26T11:17:48Z</time>
      </trkpt>
      <trkpt lat="45.42553" lon="4.52629">
        <ele>502.93</ele>
        <time>2017-03-26T11:17:49Z</time>
      </trkpt>
      <trkpt lat="45.42553" lon="4.52629">
        <ele>502.93</ele>
        <time>2017-03-26T11:17:50Z</time>
      </trkpt>
      <trkpt lat="45.42553" lon="4.52629">
        <ele>502.93</ele>
        <time>2017-03-26T11:17:51Z</time>
      </trkpt>
      <trkpt lat="45.42553" lon="4.52629">
        <ele>502.93</ele>
        <time>2017-03-26T11:17:52Z</time>
      </trkpt>
      <trkpt lat="45.42553" lon="4.52629">
        <ele>502.93</ele>
        <time>2017-03-26T11:17:53Z</time>
      </trkpt>
      <trkpt lat="45.42553" lon="4.52629">
        <ele>502.93</ele>
        <time>2017-03-26T11:17:54Z</time>
      </trkpt>
      <trkpt lat="45.42553" lon="4.52629">
        <ele>502.93</ele>
        <time>2017-03-26T11:17:55Z</time>
      </trkpt>
      <trkpt lat="45.42553" lon="4.52629">
        <ele>502.93</ele>
        <time>2017-03-26T11:17:56Z</time>
      </trkpt>
      <trkpt lat="45.42553" lon="4.52629">
        <ele>502.93</ele>
        <time>2017-03-26T11:17:57Z</time>
      </trkpt>
      <trkpt lat="45.42553" lon="4.52629">
        <ele>502.93</ele>
        <time>2017-03-26T11:17:58Z</time>
      </trkpt>
      <trkpt lat="45.42553" lon="4.52629">
        <ele>502.93</ele>
        <time>2017-03-26T11:17:59Z</time>
      </trkpt>
      <trkpt lat="45.42553" lon="4.52629">
        <ele>502.93</ele>
        <time>2017-03-26T11:18:00Z</time>
      </trkpt>
      <trkpt lat="45.42553" lon="4.52629">
        <ele>502.93</ele>
        <time>2017-03-26T11:18:01Z</time>
      </trkpt>
      <trkpt lat="45.42553" lon="4.52629">
        <ele>502.93</ele>
        <time>2017-03-26T11:18:02Z</time>
      </trkpt>
      <trkpt lat="45.42553" lon="4.52629">
        <ele>502.93</ele>
        <time>2017-03-26T11:18:03Z</time>
      </trkpt>
      <trkpt lat="45.42553" lon="4.52629">
        <ele>502.93</ele>
        <time>2017-03-26T11:18:04Z</time>
      </trkpt>
      <trkpt lat="45.42553" lon="4.52629">
        <ele>502.93</ele>
        <time>2017-03-26T11:18:05Z</time>
      </trkpt>
      <trkpt lat="45.42557" lon="4.52616">
        <ele>502.69</ele>
        <time>2017-03-26T11:18:06Z</time>
      </trkpt>
      <trkpt lat="45.42557" lon="4.52616">
        <ele>502.56</ele>
        <time>2017-03-26T11:18:07Z</time>
      </trkpt>
      <trkpt lat="45.42559" lon="4.52615">
        <ele>502.54</ele>
        <time>2017-03-26T11:18:08Z</time>
      </trkpt>
      <trkpt lat="45.42562" lon="4.52613">
        <ele>502.53</ele>
        <time>2017-03-26T11:18:09Z</time>
      </trkpt>
      <trkpt lat="45.42562" lon="4.52613">
        <ele>502.53</ele>
        <time>2017-03-26T11:18:10Z</time>
      </trkpt>
      <trkpt lat="45.42562" lon="4.52613">
        <ele>502.53</ele>
        <time>2017-03-26T11:18:11Z</time>
      </trkpt>
      <trkpt lat="45.42562" lon="4.52613">
        <ele>502.53</ele>
        <time>2017-03-26T11:18:12Z</time>
      </trkpt>
      <trkpt lat="45.42562" lon="4.52613">
        <ele>502.53</ele>
        <time>2017-03-26T11:18:13Z</time>
      </trkpt>
      <trkpt lat="45.42562" lon="4.52613">
        <ele>502.53</ele>
        <time>2017-03-26T11:18:14Z</time>
      </trkpt>
      <trkpt lat="45.42562" lon="4.52613">
        <ele>502.53</ele>
        <time>2017-03-26T11:18:15Z</time>
      </trkpt>
      <trkpt lat="45.42562" lon="4.52613">
        <ele>502.53</ele>
        <time>2017-03-26T11:18:16Z</time>
      </trkpt>
      <trkpt lat="45.42562" lon="4.52613">
        <ele>502.53</ele>
        <time>2017-03-26T11:18:17Z</time>
      </trkpt>
      <trkpt lat="45.42562" lon="4.52613">
        <ele>502.53</ele>
        <time>2017-03-26T11:18:18Z</time>
      </trkpt>
      <trkpt lat="45.42562" lon="4.52613">
        <ele>502.53</ele>
        <time>2017-03-26T11:18:19Z</time>
      </trkpt>
      <trkpt lat="45.42562" lon="4.52613">
        <ele>502.53</ele>
        <time>2017-03-26T11:18:20Z</time>
      </trkpt>
      <trkpt lat="45.42562" lon="4.52613">
        <ele>502.53</ele>
        <time>2017-03-26T11:18:21Z</time>
      </trkpt>
      <trkpt lat="45.42562" lon="4.52613">
        <ele>502.53</ele>
        <time>2017-03-26T11:18:22Z</time>
      </trkpt>
      <trkpt lat="45.42565" lon="4.52611">
        <ele>502.37</ele>
        <time>2017-03-26T11:18:23Z</time>
      </trkpt>
      <trkpt lat="45.42564" lon="4.52612">
        <ele>502.26</ele>
        <time>2017-03-26T11:18:24Z</time>
      </trkpt>
      <trkpt lat="45.42563" lon="4.52613">
        <ele>502.16</ele>
        <time>2017-03-26T11:18:25Z</time>
      </trkpt>
      <trkpt lat="45.42562" lon="4.52614">
        <ele>502.14</ele>
        <time>2017-03-26T11:18:26Z</time>
      </trkpt>
      <trkpt lat="45.42562" lon="4.52615">
        <ele>502.05</ele>
        <time>2017-03-26T11:18:27Z</time>
      </trkpt>
      <trkpt lat="45.42562" lon="4.52614">
        <ele>501.95</ele>
        <time>2017-03-26T11:18:28Z</time>
      </trkpt>
      <trkpt lat="45.42561" lon="4.52613">
        <ele>501.85</ele>
        <time>2017-03-26T11:18:29Z</time>
      </trkpt>
      <trkpt lat="45.42561" lon="4.52613">
        <ele>501.83</ele>
        <time>2017-03-26T11:18:30Z</time>
      </trkpt>
      <trkpt lat="45.42561" lon="4.52613">
        <ele>501.83</ele>
        <time>2017-03-26T11:18:31Z</time>
      </trkpt>
      <trkpt lat="45.42561" lon="4.52613">
        <ele>501.83</ele>
        <time>2017-03-26T11:18:32Z</time>
      </trkpt>
      <trkpt lat="45.42561" lon="4.52613">
        <ele>501.83</ele>
        <time>2017-03-26T11:18:33Z</time>
      </trkpt>
      <trkpt lat="45.42561" lon="4.52613">
        <ele>501.83</ele>
        <time>2017-03-26T11:18:34Z</time>
      </trkpt>
      <trkpt lat="45.42561" lon="4.52613">
        <ele>501.83</ele>
        <time>2017-03-26T11:18:35Z</time>
      </trkpt>
      <trkpt lat="45.42561" lon="4.52613">
        <ele>501.83</ele>
        <time>2017-03-26T11:18:36Z</time>
      </trkpt>
      <trkpt lat="45.42561" lon="4.52613">
        <ele>501.83</ele>
        <time>2017-03-26T11:18:37Z</time>
      </trkpt>
      <trkpt lat="45.42561" lon="4.52613">
        <ele>501.83</ele>
        <time>2017-03-26T11:18:38Z</time>
      </trkpt>
      <trkpt lat="45.42561" lon="4.52613">
        <ele>501.83</ele>
        <time>2017-03-26T11:18:39Z</time>
      </trkpt>
      <trkpt lat="45.42561" lon="4.52613">
        <ele>501.83</ele>
        <time>2017-03-26T11:18:40Z</time>
      </trkpt>
      <trkpt lat="45.42561" lon="4.52613">
        <ele>501.83</ele>
        <time>2017-03-26T11:18:41Z</time>
      </trkpt>
      <trkpt lat="45.42561" lon="4.52613">
        <ele>501.83</ele>
        <time>2017-03-26T11:18:42Z</time>
      </trkpt>
      <trkpt lat="45.42561" lon="4.52613">
        <ele>501.83</ele>
        <time>2017-03-26T11:18:43Z</time>
      </trkpt>
      <trkpt lat="45.42561" lon="4.52613">
        <ele>501.83</ele>
        <time>2017-03-26T11:18:44Z</time>
      </trkpt>
      <trkpt lat="45.42561" lon="4.52613">
        <ele>501.83</ele>
        <time>2017-03-26T11:18:45Z</time>
      </trkpt>
      <trkpt lat="45.42561" lon="4.52613">
        <ele>501.83</ele>
        <time>2017-03-26T11:18:46Z</time>
      </trkpt>
      <trkpt lat="45.42561" lon="4.52613">
        <ele>501.83</ele>
        <time>2017-03-26T11:18:47Z</time>
      </trkpt>
      <trkpt lat="45.42561" lon="4.52613">
        <ele>501.83</ele>
        <time>2017-03-26T11:18:48Z</time>
      </trkpt>
      <trkpt lat="45.42561" lon="4.52613">
        <ele>501.83</ele>
        <time>2017-03-26T11:18:49Z</time>
      </trkpt>
      <trkpt lat="45.42561" lon="4.52613">
        <ele>501.83</ele>
        <time>2017-03-26T11:18:50Z</time>
      </trkpt>
      <trkpt lat="45.4257" lon="4.52621">
        <ele>501.11</ele>
        <time>2017-03-26T11:18:51Z</time>
      </trkpt>
      <trkpt lat="45.42571" lon="4.52622">
        <ele>500.89</ele>
        <time>2017-03-26T11:18:52Z</time>
      </trkpt>
      <trkpt lat="45.42572" lon="4.52622">
        <ele>500.68</ele>
        <time>2017-03-26T11:18:53Z</time>
      </trkpt>
      <trkpt lat="45.42574" lon="4.52623">
        <ele>500.48</ele>
        <time>2017-03-26T11:18:54Z</time>
      </trkpt>
      <trkpt lat="45.42575" lon="4.52624">
        <ele>500.2</ele>
        <time>2017-03-26T11:18:55Z</time>
      </trkpt>
      <trkpt lat="45.42575" lon="4.52626">
        <ele>499.82</ele>
        <time>2017-03-26T11:18:56Z</time>
      </trkpt>
      <trkpt lat="45.42576" lon="4.52626">
        <ele>499.59</ele>
        <time>2017-03-26T11:18:57Z</time>
      </trkpt>
      <trkpt lat="45.42576" lon="4.52626">
        <ele>499.54</ele>
        <time>2017-03-26T11:18:58Z</time>
      </trkpt>
      <trkpt lat="45.42576" lon="4.52626">
        <ele>499.53</ele>
        <time>2017-03-26T11:18:59Z</time>
      </trkpt>
      <trkpt lat="45.42576" lon="4.52626">
        <ele>499.53</ele>
        <time>2017-03-26T11:19:00Z</time>
      </trkpt>
      <trkpt lat="45.42576" lon="4.52626">
        <ele>499.53</ele>
        <time>2017-03-26T11:19:01Z</time>
      </trkpt>
      <trkpt lat="45.42576" lon="4.52626">
        <ele>499.53</ele>
        <time>2017-03-26T11:19:02Z</time>
      </trkpt>
      <trkpt lat="45.42576" lon="4.52626">
        <ele>499.53</ele>
        <time>2017-03-26T11:19:03Z</time>
      </trkpt>
      <trkpt lat="45.42576" lon="4.52626">
        <ele>499.53</ele>
        <time>2017-03-26T11:19:04Z</time>
      </trkpt>
      <trkpt lat="45.42576" lon="4.52626">
        <ele>499.53</ele>
        <time>2017-03-26T11:19:05Z</time>
      </trkpt>
      <trkpt lat="45.42576" lon="4.52626">
        <ele>499.53</ele>
        <time>2017-03-26T11:19:06Z</time>
      </trkpt>
      <trkpt lat="45.42576" lon="4.52626">
        <ele>499.53</ele>
        <time>2017-03-26T11:19:07Z</time>
      </trkpt>
      <trkpt lat="45.42576" lon="4.52626">
        <ele>499.53</ele>
        <time>2017-03-26T11:19:08Z</time>
      </trkpt>
      <trkpt lat="45.42576" lon="4.52626">
        <ele>499.53</ele>
        <time>2017-03-26T11:19:09Z</time>
      </trkpt>
      <trkpt lat="45.42576" lon="4.52626">
        <ele>499.53</ele>
        <time>2017-03-26T11:19:10Z</time>
      </trkpt>
      <trkpt lat="45.42576" lon="4.52626">
        <ele>499.53</ele>
        <time>2017-03-26T11:19:11Z</time>
      </trkpt>
      <trkpt lat="45.42576" lon="4.52626">
        <ele>499.53</ele>
        <time>2017-03-26T11:19:12Z</time>
      </trkpt>
      <trkpt lat="45.42576" lon="4.52626">
        <ele>499.53</ele>
        <time>2017-03-26T11:19:13Z</time>
      </trkpt>
      <trkpt lat="45.42576" lon="4.52626">
        <ele>499.53</ele>
        <time>2017-03-26T11:19:14Z</time>
      </trkpt>
      <trkpt lat="45.42576" lon="4.52626">
        <ele>499.53</ele>
        <time>2017-03-26T11:19:15Z</time>
      </trkpt>
      <trkpt lat="45.42576" lon="4.52626">
        <ele>499.53</ele>
        <time>2017-03-26T11:19:16Z</time>
      </trkpt>
      <trkpt lat="45.42576" lon="4.52626">
        <ele>499.53</ele>
        <time>2017-03-26T11:19:17Z</time>
      </trkpt>
      <trkpt lat="45.42576" lon="4.52626">
        <ele>499.53</ele>
        <time>2017-03-26T11:19:18Z</time>
      </trkpt>
      <trkpt lat="45.42576" lon="4.52626">
        <ele>499.53</ele>
        <time>2017-03-26T11:19:19Z</time>
      </trkpt>
      <trkpt lat="45.42576" lon="4.52626">
        <ele>499.53</ele>
        <time>2017-03-26T11:19:20Z</time>
      </trkpt>
      <trkpt lat="45.42576" lon="4.52626">
        <ele>499.53</ele>
        <time>2017-03-26T11:19:21Z</time>
      </trkpt>
      <trkpt lat="45.42576" lon="4.52626">
        <ele>499.53</ele>
        <time>2017-03-26T11:19:22Z</time>
      </trkpt>
      <trkpt lat="45.42576" lon="4.52626">
        <ele>499.53</ele>
        <time>2017-03-26T11:19:23Z</time>
      </trkpt>
      <trkpt lat="45.42576" lon="4.52626">
        <ele>499.53</ele>
        <time>2017-03-26T11:19:24Z</time>
      </trkpt>
      <trkpt lat="45.42576" lon="4.52626">
        <ele>499.53</ele>
        <time>2017-03-26T11:19:25Z</time>
      </trkpt>
      <trkpt lat="45.42576" lon="4.52626">
        <ele>499.53</ele>
        <time>2017-03-26T11:19:26Z</time>
      </trkpt>
      <trkpt lat="45.42576" lon="4.52626">
        <ele>499.53</ele>
        <time>2017-03-26T11:19:27Z</time>
      </trkpt>
      <trkpt lat="45.42576" lon="4.52626">
        <ele>499.53</ele>
        <time>2017-03-26T11:19:28Z</time>
      </trkpt>
      <trkpt lat="45.42576" lon="4.52626">
        <ele>499.53</ele>
        <time>2017-03-26T11:19:29Z</time>
      </trkpt>
      <trkpt lat="45.42576" lon="4.52626">
        <ele>499.53</ele>
        <time>2017-03-26T11:19:30Z</time>
      </trkpt>
      <trkpt lat="45.42576" lon="4.52626">
        <ele>499.53</ele>
        <time>2017-03-26T11:19:31Z</time>
      </trkpt>
      <trkpt lat="45.42576" lon="4.52626">
        <ele>499.53</ele>
        <time>2017-03-26T11:19:32Z</time>
      </trkpt>
      <trkpt lat="45.42576" lon="4.52626">
        <ele>499.53</ele>
        <time>2017-03-26T11:19:33Z</time>
      </trkpt>
      <trkpt lat="45.42576" lon="4.52626">
        <ele>499.53</ele>
        <time>2017-03-26T11:19:34Z</time>
      </trkpt>
      <trkpt lat="45.42576" lon="4.52626">
        <ele>499.53</ele>
        <time>2017-03-26T11:19:35Z</time>
      </trkpt>
      <trkpt lat="45.42576" lon="4.52626">
        <ele>499.53</ele>
        <time>2017-03-26T11:19:36Z</time>
      </trkpt>
      <trkpt lat="45.42576" lon="4.52626">
        <ele>499.53</ele>
        <time>2017-03-26T11:19:37Z</time>
      </trkpt>
      <trkpt lat="45.42576" lon="4.52626">
        <ele>499.53</ele>
        <time>2017-03-26T11:19:38Z</time>
      </trkpt>
      <trkpt lat="45.42576" lon="4.52626">
        <ele>499.53</ele>
        <time>2017-03-26T11:19:39Z</time>
      </trkpt>
      <trkpt lat="45.42576" lon="4.52626">
        <ele>499.53</ele>
        <time>2017-03-26T11:19:40Z</time>
      </trkpt>
      <trkpt lat="45.42576" lon="4.52626">
        <ele>499.53</ele>
        <time>2017-03-26T11:19:41Z</time>
      </trkpt>
      <trkpt lat="45.42576" lon="4.52626">
        <ele>499.53</ele>
        <time>2017-03-26T11:19:42Z</time>
      </trkpt>
      <trkpt lat="45.42576" lon="4.52626">
        <ele>499.53</ele>
        <time>2017-03-26T11:19:43Z</time>
      </trkpt>
      <trkpt lat="45.42576" lon="4.52626">
        <ele>499.53</ele>
        <time>2017-03-26T11:19:44Z</time>
      </trkpt>
      <trkpt lat="45.42576" lon="4.52626">
        <ele>499.53</ele>
        <time>2017-03-26T11:19:45Z</time>
      </trkpt>
      <trkpt lat="45.42576" lon="4.52626">
        <ele>499.53</ele>
        <time>2017-03-26T11:19:46Z</time>
      </trkpt>
      <trkpt lat="45.42576" lon="4.52626">
        <ele>499.53</ele>
        <time>2017-03-26T11:19:47Z</time>
      </trkpt>
      <trkpt lat="45.42576" lon="4.52626">
        <ele>499.53</ele>
        <time>2017-03-26T11:19:48Z</time>
      </trkpt>
      <trkpt lat="45.42576" lon="4.52626">
        <ele>499.53</ele>
        <time>2017-03-26T11:19:49Z</time>
      </trkpt>
      <trkpt lat="45.42576" lon="4.52626">
        <ele>499.53</ele>
        <time>2017-03-26T11:19:50Z</time>
      </trkpt>
      <trkpt lat="45.42576" lon="4.52626">
        <ele>499.53</ele>
        <time>2017-03-26T11:19:51Z</time>
      </trkpt>
      <trkpt lat="45.42576" lon="4.52626">
        <ele>499.53</ele>
        <time>2017-03-26T11:19:52Z</time>
      </trkpt>
      <trkpt lat="45.42576" lon="4.52626">
        <ele>499.53</ele>
        <time>2017-03-26T11:19:53Z</time>
      </trkpt>
      <trkpt lat="45.42576" lon="4.52626">
        <ele>499.53</ele>
        <time>2017-03-26T11:19:54Z</time>
      </trkpt>
      <trkpt lat="45.42576" lon="4.52626">
        <ele>499.53</ele>
        <time>2017-03-26T11:19:55Z</time>
      </trkpt>
      <trkpt lat="45.42576" lon="4.52626">
        <ele>499.53</ele>
        <time>2017-03-26T11:19:56Z</time>
      </trkpt>
      <trkpt lat="45.42576" lon="4.52626">
        <ele>499.53</ele>
        <time>2017-03-26T11:19:57Z</time>
      </trkpt>
      <trkpt lat="45.42576" lon="4.52626">
        <ele>499.53</ele>
        <time>2017-03-26T11:19:58Z</time>
      </trkpt>
      <trkpt lat="45.42576" lon="4.52626">
        <ele>499.53</ele>
        <time>2017-03-26T11:19:59Z</time>
      </trkpt>
      <trkpt lat="45.42576" lon="4.52626">
        <ele>499.53</ele>
        <time>2017-03-26T11:20:00Z</time>
      </trkpt>
      <trkpt lat="45.42584" lon="4.52631">
        <ele>498.25</ele>
        <time>2017-03-26T11:20:01Z</time>
      </trkpt>
      <trkpt lat="45.42584" lon="4.52631">
        <ele>498.07</ele>
        <time>2017-03-26T11:20:02Z</time>
      </trkpt>
      <trkpt lat="45.42584" lon="4.5263">
        <ele>498.04</ele>
        <time>2017-03-26T11:20:03Z</time>
      </trkpt>
      <trkpt lat="45.42584" lon="4.5263">
        <ele>498.03</ele>
        <time>2017-03-26T11:20:04Z</time>
      </trkpt>
      <trkpt lat="45.42584" lon="4.5263">
        <ele>498.03</ele>
        <time>2017-03-26T11:20:05Z</time>
      </trkpt>
      <trkpt lat="45.42584" lon="4.5263">
        <ele>498.03</ele>
        <time>2017-03-26T11:20:06Z</time>
      </trkpt>
      <trkpt lat="45.42584" lon="4.5263">
        <ele>498.03</ele>
        <time>2017-03-26T11:20:07Z</time>
      </trkpt>
      <trkpt lat="45.42584" lon="4.5263">
        <ele>498.03</ele>
        <time>2017-03-26T11:20:08Z</time>
      </trkpt>
      <trkpt lat="45.42584" lon="4.5263">
        <ele>498.03</ele>
        <time>2017-03-26T11:20:09Z</time>
      </trkpt>
      <trkpt lat="45.42584" lon="4.5263">
        <ele>498.03</ele>
        <time>2017-03-26T11:20:10Z</time>
      </trkpt>
      <trkpt lat="45.42584" lon="4.5263">
        <ele>498.03</ele>
        <time>2017-03-26T11:20:11Z</time>
      </trkpt>
      <trkpt lat="45.42584" lon="4.5263">
        <ele>498.03</ele>
        <time>2017-03-26T11:20:12Z</time>
      </trkpt>
      <trkpt lat="45.42584" lon="4.5263">
        <ele>498.03</ele>
        <time>2017-03-26T11:20:13Z</time>
      </trkpt>
      <trkpt lat="45.42584" lon="4.5263">
        <ele>498.03</ele>
        <time>2017-03-26T11:20:14Z</time>
      </trkpt>
      <trkpt lat="45.42584" lon="4.5263">
        <ele>498.03</ele>
        <time>2017-03-26T11:20:15Z</time>
      </trkpt>
      <trkpt lat="45.42584" lon="4.5263">
        <ele>498.03</ele>
        <time>2017-03-26T11:20:16Z</time>
      </trkpt>
      <trkpt lat="45.42584" lon="4.5263">
        <ele>498.03</ele>
        <time>2017-03-26T11:20:17Z</time>
      </trkpt>
      <trkpt lat="45.42584" lon="4.5263">
        <ele>498.03</ele>
        <time>2017-03-26T11:20:18Z</time>
      </trkpt>
      <trkpt lat="45.42584" lon="4.5263">
        <ele>498.03</ele>
        <time>2017-03-26T11:20:19Z</time>
      </trkpt>
      <trkpt lat="45.42584" lon="4.5263">
        <ele>498.03</ele>
        <time>2017-03-26T11:20:20Z</time>
      </trkpt>
      <trkpt lat="45.42584" lon="4.5263">
        <ele>498.03</ele>
        <time>2017-03-26T11:20:21Z</time>
      </trkpt>
      <trkpt lat="45.42584" lon="4.5263">
        <ele>498.03</ele>
        <time>2017-03-26T11:20:22Z</time>
      </trkpt>
      <trkpt lat="45.42584" lon="4.5263">
        <ele>498.03</ele>
        <time>2017-03-26T11:20:23Z</time>
      </trkpt>
      <trkpt lat="45.42584" lon="4.5263">
        <ele>498.03</ele>
        <time>2017-03-26T11:20:24Z</time>
      </trkpt>
      <trkpt lat="45.42584" lon="4.5263">
        <ele>498.03</ele>
        <time>2017-03-26T11:20:25Z</time>
      </trkpt>
      <trkpt lat="45.42584" lon="4.5263">
        <ele>498.03</ele>
        <time>2017-03-26T11:20:26Z</time>
      </trkpt>
      <trkpt lat="45.42584" lon="4.5263">
        <ele>498.03</ele>
        <time>2017-03-26T11:20:27Z</time>
      </trkpt>
      <trkpt lat="45.42584" lon="4.5263">
        <ele>498.03</ele>
        <time>2017-03-26T11:20:28Z</time>
      </trkpt>
      <trkpt lat="45.42584" lon="4.5263">
        <ele>498.03</ele>
        <time>2017-03-26T11:20:29Z</time>
      </trkpt>
      <trkpt lat="45.42584" lon="4.5263">
        <ele>498.03</ele>
        <time>2017-03-26T11:20:30Z</time>
      </trkpt>
      <trkpt lat="45.4259" lon="4.52641">
        <ele>496.59</ele>
        <time>2017-03-26T11:20:31Z</time>
      </trkpt>
      <trkpt lat="45.42592" lon="4.52641">
        <ele>496.38</ele>
        <time>2017-03-26T11:20:32Z</time>
      </trkpt>
      <trkpt lat="45.42594" lon="4.52642">
        <ele>496.34</ele>
        <time>2017-03-26T11:20:33Z</time>
      </trkpt>
      <trkpt lat="45.42596" lon="4.52642">
        <ele>496.41</ele>
        <time>2017-03-26T11:20:34Z</time>
      </trkpt>
      <trkpt lat="45.42596" lon="4.52642">
        <ele>496.43</ele>
        <time>2017-03-26T11:20:35Z</time>
      </trkpt>
      <trkpt lat="45.42596" lon="4.52642">
        <ele>496.43</ele>
        <time>2017-03-26T11:20:36Z</time>
      </trkpt>
      <trkpt lat="45.42596" lon="4.52642">
        <ele>496.43</ele>
        <time>2017-03-26T11:20:37Z</time>
      </trkpt>
      <trkpt lat="45.42608" lon="4.52642">
        <ele>496.43</ele>
        <time>2017-03-26T11:20:38Z</time>
      </trkpt>
      <trkpt lat="45.4261" lon="4.52642">
        <ele>496.27</ele>
        <time>2017-03-26T11:20:39Z</time>
      </trkpt>
      <trkpt lat="45.42612" lon="4.52643">
        <ele>496</ele>
        <time>2017-03-26T11:20:40Z</time>
      </trkpt>
      <trkpt lat="45.42615" lon="4.52643">
        <ele>495.78</ele>
        <time>2017-03-26T11:20:41Z</time>
      </trkpt>
      <trkpt lat="45.42615" lon="4.52643">
        <ele>495.74</ele>
        <time>2017-03-26T11:20:42Z</time>
      </trkpt>
      <trkpt lat="45.42615" lon="4.52643">
        <ele>495.73</ele>
        <time>2017-03-26T11:20:43Z</time>
      </trkpt>
      <trkpt lat="45.42624" lon="4.52645">
        <ele>494.85</ele>
        <time>2017-03-26T11:20:44Z</time>
      </trkpt>
      <trkpt lat="45.42626" lon="4.52645">
        <ele>494.43</ele>
        <time>2017-03-26T11:20:45Z</time>
      </trkpt>
      <trkpt lat="45.42628" lon="4.52645">
        <ele>494.11</ele>
        <time>2017-03-26T11:20:46Z</time>
      </trkpt>
      <trkpt lat="45.4263" lon="4.52645">
        <ele>493.81</ele>
        <time>2017-03-26T11:20:47Z</time>
      </trkpt>
      <trkpt lat="45.4263" lon="4.52645">
        <ele>493.75</ele>
        <time>2017-03-26T11:20:48Z</time>
      </trkpt>
      <trkpt lat="45.4263" lon="4.52645">
        <ele>493.73</ele>
        <time>2017-03-26T11:20:49Z</time>
      </trkpt>
      <trkpt lat="45.4263" lon="4.52645">
        <ele>493.73</ele>
        <time>2017-03-26T11:20:50Z</time>
      </trkpt>
      <trkpt lat="45.4263" lon="4.52645">
        <ele>493.73</ele>
        <time>2017-03-26T11:20:51Z</time>
      </trkpt>
      <trkpt lat="45.4263" lon="4.52645">
        <ele>493.73</ele>
        <time>2017-03-26T11:20:52Z</time>
      </trkpt>
      <trkpt lat="45.4263" lon="4.52645">
        <ele>493.73</ele>
        <time>2017-03-26T11:20:53Z</time>
      </trkpt>
      <trkpt lat="45.4263" lon="4.52645">
        <ele>493.73</ele>
        <time>2017-03-26T11:20:54Z</time>
      </trkpt>
      <trkpt lat="45.4263" lon="4.52645">
        <ele>493.73</ele>
        <time>2017-03-26T11:20:55Z</time>
      </trkpt>
      <trkpt lat="45.4263" lon="4.52659">
        <ele>493.41</ele>
        <time>2017-03-26T11:20:56Z</time>
      </trkpt>
      <trkpt lat="45.4263" lon="4.5266">
        <ele>493.67</ele>
        <time>2017-03-26T11:20:57Z</time>
      </trkpt>
      <trkpt lat="45.4263" lon="4.52661">
        <ele>493.72</ele>
        <time>2017-03-26T11:20:58Z</time>
      </trkpt>
      <trkpt lat="45.42629" lon="4.52662">
        <ele>493.89</ele>
        <time>2017-03-26T11:20:59Z</time>
      </trkpt>
      <trkpt lat="45.42629" lon="4.52662">
        <ele>493.92</ele>
        <time>2017-03-26T11:21:00Z</time>
      </trkpt>
      <trkpt lat="45.42629" lon="4.52662">
        <ele>493.93</ele>
        <time>2017-03-26T11:21:01Z</time>
      </trkpt>
      <trkpt lat="45.42629" lon="4.52662">
        <ele>493.93</ele>
        <time>2017-03-26T11:21:02Z</time>
      </trkpt>
      <trkpt lat="45.42629" lon="4.52662">
        <ele>493.93</ele>
        <time>2017-03-26T11:21:03Z</time>
      </trkpt>
      <trkpt lat="45.42629" lon="4.52662">
        <ele>493.93</ele>
        <time>2017-03-26T11:21:04Z</time>
      </trkpt>
      <trkpt lat="45.42629" lon="4.52662">
        <ele>493.93</ele>
        <time>2017-03-26T11:21:05Z</time>
      </trkpt>
      <trkpt lat="45.42629" lon="4.52662">
        <ele>493.93</ele>
        <time>2017-03-26T11:21:06Z</time>
      </trkpt>
      <trkpt lat="45.42629" lon="4.52662">
        <ele>493.93</ele>
        <time>2017-03-26T11:21:07Z</time>
      </trkpt>
      <trkpt lat="45.42629" lon="4.52662">
        <ele>493.93</ele>
        <time>2017-03-26T11:21:08Z</time>
      </trkpt>
      <trkpt lat="45.42629" lon="4.52662">
        <ele>493.93</ele>
        <time>2017-03-26T11:21:09Z</time>
      </trkpt>
      <trkpt lat="45.4262" lon="4.52667">
        <ele>495.53</ele>
        <time>2017-03-26T11:21:10Z</time>
      </trkpt>
      <trkpt lat="45.42618" lon="4.5267">
        <ele>495.93</ele>
        <time>2017-03-26T11:21:11Z</time>
      </trkpt>
      <trkpt lat="45.42616" lon="4.52672">
        <ele>496.17</ele>
        <time>2017-03-26T11:21:12Z</time>
      </trkpt>
      <trkpt lat="45.42614" lon="4.52676">
        <ele>496.3</ele>
        <time>2017-03-26T11:21:13Z</time>
      </trkpt>
      <trkpt lat="45.4261" lon="4.52682">
        <ele>496.16</ele>
        <time>2017-03-26T11:21:14Z</time>
      </trkpt>
      <trkpt lat="45.4261" lon="4.52684">
        <ele>495.66</ele>
        <time>2017-03-26T11:21:15Z</time>
      </trkpt>
      <trkpt lat="45.4261" lon="4.52684">
        <ele>495.56</ele>
        <time>2017-03-26T11:21:16Z</time>
      </trkpt>
      <trkpt lat="45.4261" lon="4.52684">
        <ele>495.54</ele>
        <time>2017-03-26T11:21:17Z</time>
      </trkpt>
      <trkpt lat="45.4261" lon="4.52684">
        <ele>495.53</ele>
        <time>2017-03-26T11:21:18Z</time>
      </trkpt>
      <trkpt lat="45.4261" lon="4.52684">
        <ele>495.53</ele>
        <time>2017-03-26T11:21:19Z</time>
      </trkpt>
      <trkpt lat="45.4261" lon="4.52684">
        <ele>495.53</ele>
        <time>2017-03-26T11:21:20Z</time>
      </trkpt>
      <trkpt lat="45.4261" lon="4.52684">
        <ele>495.53</ele>
        <time>2017-03-26T11:21:21Z</time>
      </trkpt>
      <trkpt lat="45.4261" lon="4.52684">
        <ele>495.53</ele>
        <time>2017-03-26T11:21:22Z</time>
      </trkpt>
      <trkpt lat="45.4261" lon="4.52684">
        <ele>495.53</ele>
        <time>2017-03-26T11:21:23Z</time>
      </trkpt>
      <trkpt lat="45.4261" lon="4.52684">
        <ele>495.53</ele>
        <time>2017-03-26T11:21:24Z</time>
      </trkpt>
      <trkpt lat="45.4261" lon="4.52684">
        <ele>495.53</ele>
        <time>2017-03-26T11:21:25Z</time>
      </trkpt>
      <trkpt lat="45.42607" lon="4.52693">
        <ele>495.13</ele>
        <time>2017-03-26T11:21:26Z</time>
      </trkpt>
      <trkpt lat="45.42606" lon="4.52694">
        <ele>495.13</ele>
        <time>2017-03-26T11:21:27Z</time>
      </trkpt>
      <trkpt lat="45.42606" lon="4.52695">
        <ele>495.13</ele>
        <time>2017-03-26T11:21:28Z</time>
      </trkpt>
      <trkpt lat="45.42606" lon="4.52696">
        <ele>495.21</ele>
        <time>2017-03-26T11:21:29Z</time>
      </trkpt>
      <trkpt lat="45.42605" lon="4.52697">
        <ele>495.23</ele>
        <time>2017-03-26T11:21:30Z</time>
      </trkpt>
      <trkpt lat="45.42605" lon="4.52697">
        <ele>495.23</ele>
        <time>2017-03-26T11:21:31Z</time>
      </trkpt>
      <trkpt lat="45.42605" lon="4.52697">
        <ele>495.23</ele>
        <time>2017-03-26T11:21:32Z</time>
      </trkpt>
      <trkpt lat="45.42605" lon="4.52697">
        <ele>495.23</ele>
        <time>2017-03-26T11:21:33Z</time>
      </trkpt>
      <trkpt lat="45.42605" lon="4.52697">
        <ele>495.23</ele>
        <time>2017-03-26T11:21:34Z</time>
      </trkpt>
      <trkpt lat="45.42605" lon="4.52697">
        <ele>495.23</ele>
        <time>2017-03-26T11:21:35Z</time>
      </trkpt>
      <trkpt lat="45.42605" lon="4.52697">
        <ele>495.23</ele>
        <time>2017-03-26T11:21:36Z</time>
      </trkpt>
      <trkpt lat="45.42605" lon="4.52697">
        <ele>495.23</ele>
        <time>2017-03-26T11:21:37Z</time>
      </trkpt>
      <trkpt lat="45.42605" lon="4.52697">
        <ele>495.23</ele>
        <time>2017-03-26T11:21:38Z</time>
      </trkpt>
      <trkpt lat="45.42605" lon="4.52697">
        <ele>495.23</ele>
        <time>2017-03-26T11:21:39Z</time>
      </trkpt>
      <trkpt lat="45.42605" lon="4.52697">
        <ele>495.23</ele>
        <time>2017-03-26T11:21:40Z</time>
      </trkpt>
      <trkpt lat="45.42605" lon="4.52697">
        <ele>495.23</ele>
        <time>2017-03-26T11:21:41Z</time>
      </trkpt>
      <trkpt lat="45.42608" lon="4.52704">
        <ele>495.07</ele>
        <time>2017-03-26T11:21:42Z</time>
      </trkpt>
      <trkpt lat="45.42609" lon="4.52704">
        <ele>495.04</ele>
        <time>2017-03-26T11:21:43Z</time>
      </trkpt>
      <trkpt lat="45.42609" lon="4.52704">
        <ele>494.95</ele>
        <time>2017-03-26T11:21:44Z</time>
      </trkpt>
      <trkpt lat="45.42609" lon="4.52704">
        <ele>494.93</ele>
        <time>2017-03-26T11:21:45Z</time>
      </trkpt>
      <trkpt lat="45.42608" lon="4.52705">
        <ele>494.85</ele>
        <time>2017-03-26T11:21:46Z</time>
      </trkpt>
      <trkpt lat="45.42608" lon="4.52705">
        <ele>494.83</ele>
        <time>2017-03-26T11:21:47Z</time>
      </trkpt>
      <trkpt lat="45.42608" lon="4.52705">
        <ele>494.83</ele>
        <time>2017-03-26T11:21:48Z</time>
      </trkpt>
      <trkpt lat="45.42608" lon="4.52705">
        <ele>494.83</ele>
        <time>2017-03-26T11:21:49Z</time>
      </trkpt>
      <trkpt lat="45.42608" lon="4.52705">
        <ele>494.83</ele>
        <time>2017-03-26T11:21:50Z</time>
      </trkpt>
      <trkpt lat="45.42608" lon="4.52705">
        <ele>494.83</ele>
        <time>2017-03-26T11:21:51Z</time>
      </trkpt>
      <trkpt lat="45.42608" lon="4.52705">
        <ele>494.83</ele>
        <time>2017-03-26T11:21:52Z</time>
      </trkpt>
      <trkpt lat="45.42608" lon="4.52705">
        <ele>494.83</ele>
        <time>2017-03-26T11:21:53Z</time>
      </trkpt>
      <trkpt lat="45.42608" lon="4.52705">
        <ele>494.83</ele>
        <time>2017-03-26T11:21:54Z</time>
      </trkpt>
      <trkpt lat="45.42608" lon="4.52705">
        <ele>494.83</ele>
        <time>2017-03-26T11:21:55Z</time>
      </trkpt>
      <trkpt lat="45.42608" lon="4.52705">
        <ele>494.83</ele>
        <time>2017-03-26T11:21:56Z</time>
      </trkpt>
      <trkpt lat="45.42608" lon="4.52705">
        <ele>494.83</ele>
        <time>2017-03-26T11:21:57Z</time>
      </trkpt>
      <trkpt lat="45.42608" lon="4.52705">
        <ele>494.83</ele>
        <time>2017-03-26T11:21:58Z</time>
      </trkpt>
      <trkpt lat="45.42608" lon="4.52705">
        <ele>494.83</ele>
        <time>2017-03-26T11:21:59Z</time>
      </trkpt>
      <trkpt lat="45.42608" lon="4.52705">
        <ele>494.83</ele>
        <time>2017-03-26T11:22:00Z</time>
      </trkpt>
      <trkpt lat="45.42608" lon="4.52705">
        <ele>494.83</ele>
        <time>2017-03-26T11:22:01Z</time>
      </trkpt>
      <trkpt lat="45.42608" lon="4.52705">
        <ele>494.83</ele>
        <time>2017-03-26T11:22:02Z</time>
      </trkpt>
      <trkpt lat="45.42608" lon="4.52705">
        <ele>494.83</ele>
        <time>2017-03-26T11:22:03Z</time>
      </trkpt>
      <trkpt lat="45.42608" lon="4.52705">
        <ele>494.83</ele>
        <time>2017-03-26T11:22:04Z</time>
      </trkpt>
      <trkpt lat="45.42608" lon="4.52705">
        <ele>494.83</ele>
        <time>2017-03-26T11:22:05Z</time>
      </trkpt>
      <trkpt lat="45.42608" lon="4.52705">
        <ele>494.83</ele>
        <time>2017-03-26T11:22:06Z</time>
      </trkpt>
      <trkpt lat="45.42608" lon="4.52705">
        <ele>494.83</ele>
        <time>2017-03-26T11:22:07Z</time>
      </trkpt>
      <trkpt lat="45.42608" lon="4.52705">
        <ele>494.83</ele>
        <time>2017-03-26T11:22:08Z</time>
      </trkpt>
      <trkpt lat="45.42608" lon="4.52705">
        <ele>494.83</ele>
        <time>2017-03-26T11:22:09Z</time>
      </trkpt>
      <trkpt lat="45.42608" lon="4.52705">
        <ele>494.83</ele>
        <time>2017-03-26T11:22:10Z</time>
      </trkpt>
      <trkpt lat="45.42608" lon="4.52705">
        <ele>494.83</ele>
        <time>2017-03-26T11:22:11Z</time>
      </trkpt>
      <trkpt lat="45.42608" lon="4.52705">
        <ele>494.83</ele>
        <time>2017-03-26T11:22:12Z</time>
      </trkpt>
      <trkpt lat="45.42608" lon="4.52705">
        <ele>494.83</ele>
        <time>2017-03-26T11:22:13Z</time>
      </trkpt>
      <trkpt lat="45.42608" lon="4.52705">
        <ele>494.83</ele>
        <time>2017-03-26T11:22:14Z</time>
      </trkpt>
      <trkpt lat="45.42608" lon="4.52705">
        <ele>494.83</ele>
        <time>2017-03-26T11:22:15Z</time>
      </trkpt>
      <trkpt lat="45.42608" lon="4.52705">
        <ele>494.83</ele>
        <time>2017-03-26T11:22:16Z</time>
      </trkpt>
      <trkpt lat="45.42608" lon="4.52705">
        <ele>494.83</ele>
        <time>2017-03-26T11:22:17Z</time>
      </trkpt>
      <trkpt lat="45.42608" lon="4.52705">
        <ele>494.83</ele>
        <time>2017-03-26T11:22:18Z</time>
      </trkpt>
      <trkpt lat="45.42608" lon="4.52705">
        <ele>494.83</ele>
        <time>2017-03-26T11:22:19Z</time>
      </trkpt>
      <trkpt lat="45.42608" lon="4.52705">
        <ele>494.83</ele>
        <time>2017-03-26T11:22:20Z</time>
      </trkpt>
      <trkpt lat="45.42608" lon="4.52705">
        <ele>494.83</ele>
        <time>2017-03-26T11:22:21Z</time>
      </trkpt>
      <trkpt lat="45.42608" lon="4.52705">
        <ele>494.83</ele>
        <time>2017-03-26T11:22:22Z</time>
      </trkpt>
      <trkpt lat="45.42608" lon="4.52705">
        <ele>494.83</ele>
        <time>2017-03-26T11:22:23Z</time>
      </trkpt>
      <trkpt lat="45.42608" lon="4.52705">
        <ele>494.83</ele>
        <time>2017-03-26T11:22:24Z</time>
      </trkpt>
      <trkpt lat="45.42608" lon="4.52705">
        <ele>494.83</ele>
        <time>2017-03-26T11:22:25Z</time>
      </trkpt>
      <trkpt lat="45.42608" lon="4.52705">
        <ele>494.83</ele>
        <time>2017-03-26T11:22:26Z</time>
      </trkpt>
      <trkpt lat="45.42608" lon="4.52705">
        <ele>494.83</ele>
        <time>2017-03-26T11:22:27Z</time>
      </trkpt>
      <trkpt lat="45.42608" lon="4.52705">
        <ele>494.83</ele>
        <time>2017-03-26T11:22:28Z</time>
      </trkpt>
      <trkpt lat="45.42608" lon="4.52705">
        <ele>494.83</ele>
        <time>2017-03-26T11:22:29Z</time>
      </trkpt>
      <trkpt lat="45.42608" lon="4.52705">
        <ele>494.83</ele>
        <time>2017-03-26T11:22:30Z</time>
      </trkpt>
      <trkpt lat="45.42608" lon="4.52705">
        <ele>494.83</ele>
        <time>2017-03-26T11:22:31Z</time>
      </trkpt>
      <trkpt lat="45.42608" lon="4.52705">
        <ele>494.83</ele>
        <time>2017-03-26T11:22:32Z</time>
      </trkpt>
      <trkpt lat="45.42608" lon="4.52705">
        <ele>494.83</ele>
        <time>2017-03-26T11:22:33Z</time>
      </trkpt>
      <trkpt lat="45.42608" lon="4.52705">
        <ele>494.83</ele>
        <time>2017-03-26T11:22:34Z</time>
      </trkpt>
      <trkpt lat="45.42608" lon="4.52705">
        <ele>494.83</ele>
        <time>2017-03-26T11:22:35Z</time>
      </trkpt>
      <trkpt lat="45.42608" lon="4.52705">
        <ele>494.83</ele>
        <time>2017-03-26T11:22:36Z</time>
      </trkpt>
      <trkpt lat="45.42608" lon="4.52705">
        <ele>494.83</ele>
        <time>2017-03-26T11:22:37Z</time>
      </trkpt>
      <trkpt lat="45.42608" lon="4.52705">
        <ele>494.83</ele>
        <time>2017-03-26T11:22:38Z</time>
      </trkpt>
      <trkpt lat="45.42608" lon="4.52705">
        <ele>494.83</ele>
        <time>2017-03-26T11:22:39Z</time>
      </trkpt>
      <trkpt lat="45.42608" lon="4.52705">
        <ele>494.83</ele>
        <time>2017-03-26T11:22:40Z</time>
      </trkpt>
      <trkpt lat="45.42608" lon="4.52705">
        <ele>494.83</ele>
        <time>2017-03-26T11:22:41Z</time>
      </trkpt>
      <trkpt lat="45.42608" lon="4.52705">
        <ele>494.83</ele>
        <time>2017-03-26T11:22:42Z</time>
      </trkpt>
      <trkpt lat="45.42608" lon="4.52705">
        <ele>494.83</ele>
        <time>2017-03-26T11:22:43Z</time>
      </trkpt>
      <trkpt lat="45.42608" lon="4.52705">
        <ele>494.83</ele>
        <time>2017-03-26T11:22:44Z</time>
      </trkpt>
      <trkpt lat="45.42608" lon="4.52705">
        <ele>494.83</ele>
        <time>2017-03-26T11:22:45Z</time>
      </trkpt>
      <trkpt lat="45.42608" lon="4.52705">
        <ele>494.83</ele>
        <time>2017-03-26T11:22:46Z</time>
      </trkpt>
      <trkpt lat="45.42608" lon="4.52705">
        <ele>494.83</ele>
        <time>2017-03-26T11:22:47Z</time>
      </trkpt>
      <trkpt lat="45.42608" lon="4.52705">
        <ele>494.83</ele>
        <time>2017-03-26T11:22:48Z</time>
      </trkpt>
      <trkpt lat="45.42608" lon="4.52705">
        <ele>494.83</ele>
        <time>2017-03-26T11:22:49Z</time>
      </trkpt>
      <trkpt lat="45.42608" lon="4.52705">
        <ele>494.83</ele>
        <time>2017-03-26T11:22:50Z</time>
      </trkpt>
      <trkpt lat="45.42608" lon="4.52705">
        <ele>494.83</ele>
        <time>2017-03-26T11:22:51Z</time>
      </trkpt>
      <trkpt lat="45.42608" lon="4.52705">
        <ele>494.83</ele>
        <time>2017-03-26T11:22:52Z</time>
      </trkpt>
      <trkpt lat="45.42608" lon="4.52705">
        <ele>494.83</ele>
        <time>2017-03-26T11:22:53Z</time>
      </trkpt>
      <trkpt lat="45.42608" lon="4.52705">
        <ele>494.83</ele>
        <time>2017-03-26T11:22:54Z</time>
      </trkpt>
      <trkpt lat="45.42608" lon="4.52705">
        <ele>494.83</ele>
        <time>2017-03-26T11:22:55Z</time>
      </trkpt>
      <trkpt lat="45.42608" lon="4.52705">
        <ele>494.83</ele>
        <time>2017-03-26T11:22:56Z</time>
      </trkpt>
      <trkpt lat="45.42608" lon="4.52705">
        <ele>494.83</ele>
        <time>2017-03-26T11:22:57Z</time>
      </trkpt>
      <trkpt lat="45.42608" lon="4.52705">
        <ele>494.83</ele>
        <time>2017-03-26T11:22:58Z</time>
      </trkpt>
      <trkpt lat="45.42608" lon="4.52705">
        <ele>494.83</ele>
        <time>2017-03-26T11:22:59Z</time>
      </trkpt>
      <trkpt lat="45.42608" lon="4.52705">
        <ele>494.83</ele>
        <time>2017-03-26T11:23:00Z</time>
      </trkpt>
      <trkpt lat="45.42608" lon="4.52705">
        <ele>494.83</ele>
        <time>2017-03-26T11:23:01Z</time>
      </trkpt>
      <trkpt lat="45.42608" lon="4.52705">
        <ele>494.83</ele>
        <time>2017-03-26T11:23:02Z</time>
      </trkpt>
      <trkpt lat="45.42608" lon="4.52705">
        <ele>494.83</ele>
        <time>2017-03-26T11:23:03Z</time>
      </trkpt>
      <trkpt lat="45.42608" lon="4.52705">
        <ele>494.83</ele>
        <time>2017-03-26T11:23:04Z</time>
      </trkpt>
      <trkpt lat="45.42608" lon="4.52705">
        <ele>494.83</ele>
        <time>2017-03-26T11:23:05Z</time>
      </trkpt>
      <trkpt lat="45.42608" lon="4.52705">
        <ele>494.83</ele>
        <time>2017-03-26T11:23:06Z</time>
      </trkpt>
      <trkpt lat="45.42608" lon="4.52705">
        <ele>494.83</ele>
        <time>2017-03-26T11:23:07Z</time>
      </trkpt>
      <trkpt lat="45.42608" lon="4.52705">
        <ele>494.83</ele>
        <time>2017-03-26T11:23:08Z</time>
      </trkpt>
      <trkpt lat="45.42599" lon="4.52704">
        <ele>494.19</ele>
        <time>2017-03-26T11:23:09Z</time>
      </trkpt>
      <trkpt lat="45.42599" lon="4.52703">
        <ele>494.06</ele>
        <time>2017-03-26T11:23:10Z</time>
      </trkpt>
      <trkpt lat="45.42599" lon="4.52704">
        <ele>494.04</ele>
        <time>2017-03-26T11:23:11Z</time>
      </trkpt>
      <trkpt lat="45.42599" lon="4.52704">
        <ele>494.11</ele>
        <time>2017-03-26T11:23:12Z</time>
      </trkpt>
      <trkpt lat="45.42599" lon="4.52704">
        <ele>494.13</ele>
        <time>2017-03-26T11:23:13Z</time>
      </trkpt>
      <trkpt lat="45.42599" lon="4.52704">
        <ele>494.13</ele>
        <time>2017-03-26T11:23:14Z</time>
      </trkpt>
      <trkpt lat="45.42599" lon="4.52704">
        <ele>494.13</ele>
        <time>2017-03-26T11:23:15Z</time>
      </trkpt>
      <trkpt lat="45.42599" lon="4.52704">
        <ele>494.13</ele>
        <time>2017-03-26T11:23:16Z</time>
      </trkpt>
      <trkpt lat="45.42599" lon="4.52704">
        <ele>494.13</ele>
        <time>2017-03-26T11:23:17Z</time>
      </trkpt>
      <trkpt lat="45.42599" lon="4.52704">
        <ele>494.13</ele>
        <time>2017-03-26T11:23:18Z</time>
      </trkpt>
      <trkpt lat="45.42599" lon="4.52704">
        <ele>494.13</ele>
        <time>2017-03-26T11:23:19Z</time>
      </trkpt>
      <trkpt lat="45.42599" lon="4.52704">
        <ele>494.13</ele>
        <time>2017-03-26T11:23:20Z</time>
      </trkpt>
      <trkpt lat="45.42599" lon="4.52704">
        <ele>494.13</ele>
        <time>2017-03-26T11:23:21Z</time>
      </trkpt>
      <trkpt lat="45.42599" lon="4.52704">
        <ele>494.13</ele>
        <time>2017-03-26T11:23:22Z</time>
      </trkpt>
      <trkpt lat="45.42599" lon="4.52704">
        <ele>494.13</ele>
        <time>2017-03-26T11:23:23Z</time>
      </trkpt>
      <trkpt lat="45.42599" lon="4.52704">
        <ele>494.13</ele>
        <time>2017-03-26T11:23:24Z</time>
      </trkpt>
      <trkpt lat="45.42599" lon="4.52704">
        <ele>494.13</ele>
        <time>2017-03-26T11:23:25Z</time>
      </trkpt>
      <trkpt lat="45.42599" lon="4.52704">
        <ele>494.13</ele>
        <time>2017-03-26T11:23:26Z</time>
      </trkpt>
      <trkpt lat="45.42599" lon="4.52704">
        <ele>494.13</ele>
        <time>2017-03-26T11:23:27Z</time>
      </trkpt>
      <trkpt lat="45.42599" lon="4.52704">
        <ele>494.13</ele>
        <time>2017-03-26T11:23:28Z</time>
      </trkpt>
      <trkpt lat="45.42599" lon="4.52704">
        <ele>494.13</ele>
        <time>2017-03-26T11:23:29Z</time>
      </trkpt>
      <trkpt lat="45.42599" lon="4.52704">
        <ele>494.13</ele>
        <time>2017-03-26T11:23:30Z</time>
      </trkpt>
      <trkpt lat="45.42599" lon="4.52704">
        <ele>494.13</ele>
        <time>2017-03-26T11:23:31Z</time>
      </trkpt>
      <trkpt lat="45.42599" lon="4.52704">
        <ele>494.13</ele>
        <time>2017-03-26T11:23:32Z</time>
      </trkpt>
      <trkpt lat="45.42599" lon="4.52704">
        <ele>494.13</ele>
        <time>2017-03-26T11:23:33Z</time>
      </trkpt>
      <trkpt lat="45.42599" lon="4.52704">
        <ele>494.13</ele>
        <time>2017-03-26T11:23:34Z</time>
      </trkpt>
      <trkpt lat="45.42599" lon="4.52704">
        <ele>494.13</ele>
        <time>2017-03-26T11:23:35Z</time>
      </trkpt>
      <trkpt lat="45.42599" lon="4.52704">
        <ele>494.13</ele>
        <time>2017-03-26T11:23:36Z</time>
      </trkpt>
      <trkpt lat="45.42599" lon="4.52704">
        <ele>494.13</ele>
        <time>2017-03-26T11:23:37Z</time>
      </trkpt>
      <trkpt lat="45.42599" lon="4.52704">
        <ele>494.13</ele>
        <time>2017-03-26T11:23:38Z</time>
      </trkpt>
      <trkpt lat="45.42599" lon="4.52704">
        <ele>494.13</ele>
        <time>2017-03-26T11:23:39Z</time>
      </trkpt>
      <trkpt lat="45.42599" lon="4.52704">
        <ele>494.13</ele>
        <time>2017-03-26T11:23:40Z</time>
      </trkpt>
      <trkpt lat="45.42597" lon="4.52717">
        <ele>494.21</ele>
        <time>2017-03-26T11:23:41Z</time>
      </trkpt>
      <trkpt lat="45.42597" lon="4.52719">
        <ele>494.23</ele>
        <time>2017-03-26T11:23:42Z</time>
      </trkpt>
      <trkpt lat="45.42597" lon="4.52721">
        <ele>494.23</ele>
        <time>2017-03-26T11:23:43Z</time>
      </trkpt>
      <trkpt lat="45.42597" lon="4.5272">
        <ele>494.15</ele>
        <time>2017-03-26T11:23:44Z</time>
      </trkpt>
      <trkpt lat="45.42597" lon="4.5272">
        <ele>494.13</ele>
        <time>2017-03-26T11:23:45Z</time>
      </trkpt>
      <trkpt lat="45.42597" lon="4.5272">
        <ele>494.13</ele>
        <time>2017-03-26T11:23:46Z</time>
      </trkpt>
      <trkpt lat="45.42597" lon="4.5272">
        <ele>494.13</ele>
        <time>2017-03-26T11:23:47Z</time>
      </trkpt>
      <trkpt lat="45.42597" lon="4.5272">
        <ele>494.13</ele>
        <time>2017-03-26T11:23:48Z</time>
      </trkpt>
      <trkpt lat="45.42597" lon="4.5272">
        <ele>494.13</ele>
        <time>2017-03-26T11:23:49Z</time>
      </trkpt>
      <trkpt lat="45.42597" lon="4.5272">
        <ele>494.13</ele>
        <time>2017-03-26T11:23:50Z</time>
      </trkpt>
      <trkpt lat="45.42597" lon="4.5272">
        <ele>494.13</ele>
        <time>2017-03-26T11:23:51Z</time>
      </trkpt>
      <trkpt lat="45.42597" lon="4.5272">
        <ele>494.13</ele>
        <time>2017-03-26T11:23:52Z</time>
      </trkpt>
      <trkpt lat="45.42597" lon="4.5272">
        <ele>494.13</ele>
        <time>2017-03-26T11:23:53Z</time>
      </trkpt>
      <trkpt lat="45.42597" lon="4.5272">
        <ele>494.13</ele>
        <time>2017-03-26T11:23:54Z</time>
      </trkpt>
      <trkpt lat="45.42597" lon="4.5272">
        <ele>494.13</ele>
        <time>2017-03-26T11:23:55Z</time>
      </trkpt>
      <trkpt lat="45.42595" lon="4.52733">
        <ele>494.29</ele>
        <time>2017-03-26T11:23:56Z</time>
      </trkpt>
      <trkpt lat="45.42595" lon="4.52735">
        <ele>494.32</ele>
        <time>2017-03-26T11:23:57Z</time>
      </trkpt>
      <trkpt lat="45.42596" lon="4.52735">
        <ele>494.41</ele>
        <time>2017-03-26T11:23:58Z</time>
      </trkpt>
      <trkpt lat="45.42596" lon="4.52736">
        <ele>494.43</ele>
        <time>2017-03-26T11:23:59Z</time>
      </trkpt>
      <trkpt lat="45.42596" lon="4.52736">
        <ele>494.43</ele>
        <time>2017-03-26T11:24:00Z</time>
      </trkpt>
      <trkpt lat="45.42596" lon="4.52736">
        <ele>494.43</ele>
        <time>2017-03-26T11:24:01Z</time>
      </trkpt>
      <trkpt lat="45.42596" lon="4.52736">
        <ele>494.43</ele>
        <time>2017-03-26T11:24:02Z</time>
      </trkpt>
      <trkpt lat="45.42596" lon="4.52736">
        <ele>494.43</ele>
        <time>2017-03-26T11:24:03Z</time>
      </trkpt>
      <trkpt lat="45.42596" lon="4.52736">
        <ele>494.43</ele>
        <time>2017-03-26T11:24:04Z</time>
      </trkpt>
      <trkpt lat="45.42596" lon="4.52736">
        <ele>494.43</ele>
        <time>2017-03-26T11:24:05Z</time>
      </trkpt>
      <trkpt lat="45.42596" lon="4.52736">
        <ele>494.43</ele>
        <time>2017-03-26T11:24:06Z</time>
      </trkpt>
      <trkpt lat="45.42596" lon="4.52736">
        <ele>494.43</ele>
        <time>2017-03-26T11:24:07Z</time>
      </trkpt>
      <trkpt lat="45.42596" lon="4.52736">
        <ele>494.43</ele>
        <time>2017-03-26T11:24:08Z</time>
      </trkpt>
      <trkpt lat="45.42596" lon="4.52736">
        <ele>494.43</ele>
        <time>2017-03-26T11:24:09Z</time>
      </trkpt>
      <trkpt lat="45.42596" lon="4.52736">
        <ele>494.43</ele>
        <time>2017-03-26T11:24:10Z</time>
      </trkpt>
      <trkpt lat="45.42596" lon="4.52736">
        <ele>494.43</ele>
        <time>2017-03-26T11:24:11Z</time>
      </trkpt>
      <trkpt lat="45.42596" lon="4.52736">
        <ele>494.43</ele>
        <time>2017-03-26T11:24:12Z</time>
      </trkpt>
      <trkpt lat="45.42596" lon="4.52736">
        <ele>494.43</ele>
        <time>2017-03-26T11:24:13Z</time>
      </trkpt>
      <trkpt lat="45.42596" lon="4.52736">
        <ele>494.43</ele>
        <time>2017-03-26T11:24:14Z</time>
      </trkpt>
      <trkpt lat="45.42596" lon="4.52736">
        <ele>494.43</ele>
        <time>2017-03-26T11:24:15Z</time>
      </trkpt>
      <trkpt lat="45.42596" lon="4.52736">
        <ele>494.43</ele>
        <time>2017-03-26T11:24:16Z</time>
      </trkpt>
      <trkpt lat="45.42596" lon="4.52736">
        <ele>494.43</ele>
        <time>2017-03-26T11:24:17Z</time>
      </trkpt>
      <trkpt lat="45.42596" lon="4.52736">
        <ele>494.43</ele>
        <time>2017-03-26T11:24:18Z</time>
      </trkpt>
      <trkpt lat="45.42596" lon="4.52736">
        <ele>494.43</ele>
        <time>2017-03-26T11:24:19Z</time>
      </trkpt>
      <trkpt lat="45.42596" lon="4.52736">
        <ele>494.43</ele>
        <time>2017-03-26T11:24:20Z</time>
      </trkpt>
      <trkpt lat="45.42596" lon="4.52736">
        <ele>494.43</ele>
        <time>2017-03-26T11:24:21Z</time>
      </trkpt>
      <trkpt lat="45.42596" lon="4.52736">
        <ele>494.43</ele>
        <time>2017-03-26T11:24:22Z</time>
      </trkpt>
      <trkpt lat="45.42596" lon="4.52736">
        <ele>494.43</ele>
        <time>2017-03-26T11:24:23Z</time>
      </trkpt>
      <trkpt lat="45.42596" lon="4.52736">
        <ele>494.43</ele>
        <time>2017-03-26T11:24:24Z</time>
      </trkpt>
      <trkpt lat="45.42596" lon="4.52736">
        <ele>494.43</ele>
        <time>2017-03-26T11:24:25Z</time>
      </trkpt>
      <trkpt lat="45.42596" lon="4.52736">
        <ele>494.43</ele>
        <time>2017-03-26T11:24:26Z</time>
      </trkpt>
      <trkpt lat="45.42596" lon="4.52736">
        <ele>494.43</ele>
        <time>2017-03-26T11:24:27Z</time>
      </trkpt>
      <trkpt lat="45.42591" lon="4.52747">
        <ele>494.43</ele>
        <time>2017-03-26T11:24:28Z</time>
      </trkpt>
      <trkpt lat="45.42592" lon="4.52748">
        <ele>494.51</ele>
        <time>2017-03-26T11:24:29Z</time>
      </trkpt>
      <trkpt lat="45.42593" lon="4.52749">
        <ele>494.53</ele>
        <time>2017-03-26T11:24:30Z</time>
      </trkpt>
      <trkpt lat="45.42593" lon="4.5275">
        <ele>494.53</ele>
        <time>2017-03-26T11:24:31Z</time>
      </trkpt>
      <trkpt lat="45.42593" lon="4.5275">
        <ele>494.53</ele>
        <time>2017-03-26T11:24:32Z</time>
      </trkpt>
      <trkpt lat="45.42593" lon="4.5275">
        <ele>494.53</ele>
        <time>2017-03-26T11:24:33Z</time>
      </trkpt>
      <trkpt lat="45.42593" lon="4.5275">
        <ele>494.53</ele>
        <time>2017-03-26T11:24:34Z</time>
      </trkpt>
      <trkpt lat="45.42593" lon="4.5275">
        <ele>494.53</ele>
        <time>2017-03-26T11:24:35Z</time>
      </trkpt>
      <trkpt lat="45.42593" lon="4.5275">
        <ele>494.53</ele>
        <time>2017-03-26T11:24:36Z</time>
      </trkpt>
      <trkpt lat="45.42593" lon="4.5275">
        <ele>494.53</ele>
        <time>2017-03-26T11:24:37Z</time>
      </trkpt>
      <trkpt lat="45.42593" lon="4.5275">
        <ele>494.53</ele>
        <time>2017-03-26T11:24:38Z</time>
      </trkpt>
      <trkpt lat="45.42593" lon="4.5275">
        <ele>494.53</ele>
        <time>2017-03-26T11:24:39Z</time>
      </trkpt>
      <trkpt lat="45.42593" lon="4.5275">
        <ele>494.53</ele>
        <time>2017-03-26T11:24:40Z</time>
      </trkpt>
      <trkpt lat="45.42593" lon="4.5275">
        <ele>494.53</ele>
        <time>2017-03-26T11:24:41Z</time>
      </trkpt>
      <trkpt lat="45.42593" lon="4.5275">
        <ele>494.53</ele>
        <time>2017-03-26T11:24:42Z</time>
      </trkpt>
      <trkpt lat="45.42593" lon="4.5275">
        <ele>494.53</ele>
        <time>2017-03-26T11:24:43Z</time>
      </trkpt>
      <trkpt lat="45.42593" lon="4.5275">
        <ele>494.53</ele>
        <time>2017-03-26T11:24:44Z</time>
      </trkpt>
      <trkpt lat="45.42593" lon="4.5275">
        <ele>494.53</ele>
        <time>2017-03-26T11:24:45Z</time>
      </trkpt>
      <trkpt lat="45.42593" lon="4.5275">
        <ele>494.53</ele>
        <time>2017-03-26T11:24:46Z</time>
      </trkpt>
      <trkpt lat="45.42593" lon="4.5275">
        <ele>494.53</ele>
        <time>2017-03-26T11:24:47Z</time>
      </trkpt>
      <trkpt lat="45.42593" lon="4.5275">
        <ele>494.53</ele>
        <time>2017-03-26T11:24:48Z</time>
      </trkpt>
      <trkpt lat="45.42593" lon="4.5275">
        <ele>494.53</ele>
        <time>2017-03-26T11:24:49Z</time>
      </trkpt>
      <trkpt lat="45.42593" lon="4.5275">
        <ele>494.53</ele>
        <time>2017-03-26T11:24:50Z</time>
      </trkpt>
      <trkpt lat="45.42593" lon="4.5275">
        <ele>494.53</ele>
        <time>2017-03-26T11:24:51Z</time>
      </trkpt>
      <trkpt lat="45.42593" lon="4.5275">
        <ele>494.53</ele>
        <time>2017-03-26T11:24:52Z</time>
      </trkpt>
      <trkpt lat="45.42593" lon="4.5275">
        <ele>494.53</ele>
        <time>2017-03-26T11:24:53Z</time>
      </trkpt>
      <trkpt lat="45.42593" lon="4.5275">
        <ele>494.53</ele>
        <time>2017-03-26T11:24:54Z</time>
      </trkpt>
      <trkpt lat="45.42593" lon="4.5275">
        <ele>494.53</ele>
        <time>2017-03-26T11:24:55Z</time>
      </trkpt>
      <trkpt lat="45.42593" lon="4.5275">
        <ele>494.53</ele>
        <time>2017-03-26T11:24:56Z</time>
      </trkpt>
      <trkpt lat="45.42593" lon="4.5275">
        <ele>494.53</ele>
        <time>2017-03-26T11:24:57Z</time>
      </trkpt>
      <trkpt lat="45.42593" lon="4.5275">
        <ele>494.53</ele>
        <time>2017-03-26T11:24:58Z</time>
      </trkpt>
      <trkpt lat="45.42593" lon="4.5275">
        <ele>494.53</ele>
        <time>2017-03-26T11:24:59Z</time>
      </trkpt>
      <trkpt lat="45.42593" lon="4.5275">
        <ele>494.53</ele>
        <time>2017-03-26T11:25:00Z</time>
      </trkpt>
      <trkpt lat="45.42593" lon="4.5275">
        <ele>494.53</ele>
        <time>2017-03-26T11:25:01Z</time>
      </trkpt>
      <trkpt lat="45.42593" lon="4.5275">
        <ele>494.53</ele>
        <time>2017-03-26T11:25:02Z</time>
      </trkpt>
      <trkpt lat="45.42593" lon="4.5275">
        <ele>494.53</ele>
        <time>2017-03-26T11:25:03Z</time>
      </trkpt>
      <trkpt lat="45.42593" lon="4.5275">
        <ele>494.53</ele>
        <time>2017-03-26T11:25:04Z</time>
      </trkpt>
      <trkpt lat="45.42593" lon="4.5275">
        <ele>494.53</ele>
        <time>2017-03-26T11:25:05Z</time>
      </trkpt>
      <trkpt lat="45.42593" lon="4.5275">
        <ele>494.53</ele>
        <time>2017-03-26T11:25:06Z</time>
      </trkpt>
      <trkpt lat="45.42593" lon="4.5275">
        <ele>494.53</ele>
        <time>2017-03-26T11:25:07Z</time>
      </trkpt>
      <trkpt lat="45.42593" lon="4.5275">
        <ele>494.53</ele>
        <time>2017-03-26T11:25:08Z</time>
      </trkpt>
      <trkpt lat="45.42593" lon="4.5275">
        <ele>494.53</ele>
        <time>2017-03-26T11:25:09Z</time>
      </trkpt>
      <trkpt lat="45.42593" lon="4.5275">
        <ele>494.53</ele>
        <time>2017-03-26T11:25:10Z</time>
      </trkpt>
      <trkpt lat="45.42593" lon="4.5275">
        <ele>494.53</ele>
        <time>2017-03-26T11:25:11Z</time>
      </trkpt>
      <trkpt lat="45.42593" lon="4.5275">
        <ele>494.53</ele>
        <time>2017-03-26T11:25:12Z</time>
      </trkpt>
      <trkpt lat="45.42593" lon="4.5275">
        <ele>494.53</ele>
        <time>2017-03-26T11:25:13Z</time>
      </trkpt>
      <trkpt lat="45.42593" lon="4.5275">
        <ele>494.53</ele>
        <time>2017-03-26T11:25:14Z</time>
      </trkpt>
      <trkpt lat="45.42593" lon="4.5275">
        <ele>494.53</ele>
        <time>2017-03-26T11:25:15Z</time>
      </trkpt>
      <trkpt lat="45.42593" lon="4.5275">
        <ele>494.53</ele>
        <time>2017-03-26T11:25:16Z</time>
      </trkpt>
      <trkpt lat="45.42593" lon="4.5275">
        <ele>494.53</ele>
        <time>2017-03-26T11:25:17Z</time>
      </trkpt>
      <trkpt lat="45.42584" lon="4.52752">
        <ele>494.29</ele>
        <time>2017-03-26T11:25:18Z</time>
      </trkpt>
      <trkpt lat="45.42582" lon="4.52753">
        <ele>494.24</ele>
        <time>2017-03-26T11:25:19Z</time>
      </trkpt>
      <trkpt lat="45.42581" lon="4.52754">
        <ele>494.31</ele>
        <time>2017-03-26T11:25:20Z</time>
      </trkpt>
      <trkpt lat="45.42579" lon="4.52755">
        <ele>494.33</ele>
        <time>2017-03-26T11:25:21Z</time>
      </trkpt>
      <trkpt lat="45.42578" lon="4.52755">
        <ele>494.33</ele>
        <time>2017-03-26T11:25:22Z</time>
      </trkpt>
      <trkpt lat="45.42576" lon="4.52756">
        <ele>494.33</ele>
        <time>2017-03-26T11:25:23Z</time>
      </trkpt>
      <trkpt lat="45.42575" lon="4.52757">
        <ele>494.33</ele>
        <time>2017-03-26T11:25:24Z</time>
      </trkpt>
      <trkpt lat="45.42574" lon="4.52757">
        <ele>494.33</ele>
        <time>2017-03-26T11:25:25Z</time>
      </trkpt>
      <trkpt lat="45.42574" lon="4.52758">
        <ele>494.41</ele>
        <time>2017-03-26T11:25:26Z</time>
      </trkpt>
      <trkpt lat="45.42574" lon="4.52758">
        <ele>494.43</ele>
        <time>2017-03-26T11:25:27Z</time>
      </trkpt>
      <trkpt lat="45.42573" lon="4.52759">
        <ele>494.43</ele>
        <time>2017-03-26T11:25:28Z</time>
      </trkpt>
      <trkpt lat="45.42573" lon="4.52759">
        <ele>494.43</ele>
        <time>2017-03-26T11:25:29Z</time>
      </trkpt>
      <trkpt lat="45.42573" lon="4.52759">
        <ele>494.43</ele>
        <time>2017-03-26T11:25:30Z</time>
      </trkpt>
      <trkpt lat="45.42573" lon="4.52759">
        <ele>494.43</ele>
        <time>2017-03-26T11:25:31Z</time>
      </trkpt>
      <trkpt lat="45.42573" lon="4.52759">
        <ele>494.43</ele>
        <time>2017-03-26T11:25:32Z</time>
      </trkpt>
      <trkpt lat="45.42573" lon="4.52759">
        <ele>494.43</ele>
        <time>2017-03-26T11:25:33Z</time>
      </trkpt>
      <trkpt lat="45.42573" lon="4.52759">
        <ele>494.43</ele>
        <time>2017-03-26T11:25:34Z</time>
      </trkpt>
      <trkpt lat="45.42573" lon="4.52759">
        <ele>494.43</ele>
        <time>2017-03-26T11:25:35Z</time>
      </trkpt>
      <trkpt lat="45.42573" lon="4.52759">
        <ele>494.43</ele>
        <time>2017-03-26T11:25:36Z</time>
      </trkpt>
      <trkpt lat="45.42573" lon="4.52759">
        <ele>494.43</ele>
        <time>2017-03-26T11:25:37Z</time>
      </trkpt>
      <trkpt lat="45.42573" lon="4.52759">
        <ele>494.43</ele>
        <time>2017-03-26T11:25:38Z</time>
      </trkpt>
      <trkpt lat="45.42573" lon="4.52759">
        <ele>494.43</ele>
        <time>2017-03-26T11:25:39Z</time>
      </trkpt>
      <trkpt lat="45.42574" lon="4.52772">
        <ele>494.59</ele>
        <time>2017-03-26T11:25:40Z</time>
      </trkpt>
      <trkpt lat="45.42574" lon="4.52772">
        <ele>494.62</ele>
        <time>2017-03-26T11:25:41Z</time>
      </trkpt>
      <trkpt lat="45.42574" lon="4.52773">
        <ele>494.63</ele>
        <time>2017-03-26T11:25:42Z</time>
      </trkpt>
      <trkpt lat="45.42575" lon="4.52774">
        <ele>494.63</ele>
        <time>2017-03-26T11:25:43Z</time>
      </trkpt>
      <trkpt lat="45.42575" lon="4.52774">
        <ele>494.63</ele>
        <time>2017-03-26T11:25:44Z</time>
      </trkpt>
      <trkpt lat="45.42575" lon="4.52774">
        <ele>494.63</ele>
        <time>2017-03-26T11:25:45Z</time>
      </trkpt>
      <trkpt lat="45.42575" lon="4.52774">
        <ele>494.63</ele>
        <time>2017-03-26T11:25:46Z</time>
      </trkpt>
      <trkpt lat="45.42575" lon="4.52774">
        <ele>494.63</ele>
        <time>2017-03-26T11:25:47Z</time>
      </trkpt>
      <trkpt lat="45.42575" lon="4.52774">
        <ele>494.63</ele>
        <time>2017-03-26T11:25:48Z</time>
      </trkpt>
      <trkpt lat="45.42575" lon="4.52774">
        <ele>494.63</ele>
        <time>2017-03-26T11:25:49Z</time>
      </trkpt>
      <trkpt lat="45.42575" lon="4.52774">
        <ele>494.63</ele>
        <time>2017-03-26T11:25:50Z</time>
      </trkpt>
      <trkpt lat="45.42575" lon="4.52774">
        <ele>494.63</ele>
        <time>2017-03-26T11:25:51Z</time>
      </trkpt>
      <trkpt lat="45.42575" lon="4.52774">
        <ele>494.63</ele>
        <time>2017-03-26T11:25:52Z</time>
      </trkpt>
      <trkpt lat="45.42575" lon="4.52774">
        <ele>494.63</ele>
        <time>2017-03-26T11:25:53Z</time>
      </trkpt>
      <trkpt lat="45.42575" lon="4.52774">
        <ele>494.63</ele>
        <time>2017-03-26T11:25:54Z</time>
      </trkpt>
      <trkpt lat="45.42575" lon="4.52774">
        <ele>494.63</ele>
        <time>2017-03-26T11:25:55Z</time>
      </trkpt>
      <trkpt lat="45.42575" lon="4.52774">
        <ele>494.63</ele>
        <time>2017-03-26T11:25:56Z</time>
      </trkpt>
      <trkpt lat="45.42575" lon="4.52774">
        <ele>494.63</ele>
        <time>2017-03-26T11:25:57Z</time>
      </trkpt>
      <trkpt lat="45.42575" lon="4.52774">
        <ele>494.63</ele>
        <time>2017-03-26T11:25:58Z</time>
      </trkpt>
      <trkpt lat="45.42575" lon="4.52774">
        <ele>494.63</ele>
        <time>2017-03-26T11:25:59Z</time>
      </trkpt>
      <trkpt lat="45.42575" lon="4.52774">
        <ele>494.63</ele>
        <time>2017-03-26T11:26:00Z</time>
      </trkpt>
      <trkpt lat="45.42575" lon="4.52774">
        <ele>494.63</ele>
        <time>2017-03-26T11:26:01Z</time>
      </trkpt>
      <trkpt lat="45.42575" lon="4.52774">
        <ele>494.63</ele>
        <time>2017-03-26T11:26:02Z</time>
      </trkpt>
      <trkpt lat="45.42575" lon="4.52774">
        <ele>494.63</ele>
        <time>2017-03-26T11:26:03Z</time>
      </trkpt>
      <trkpt lat="45.42575" lon="4.52774">
        <ele>494.63</ele>
        <time>2017-03-26T11:26:04Z</time>
      </trkpt>
      <trkpt lat="45.42575" lon="4.52774">
        <ele>494.63</ele>
        <time>2017-03-26T11:26:05Z</time>
      </trkpt>
      <trkpt lat="45.42575" lon="4.52774">
        <ele>494.63</ele>
        <time>2017-03-26T11:26:06Z</time>
      </trkpt>
      <trkpt lat="45.42575" lon="4.52774">
        <ele>494.63</ele>
        <time>2017-03-26T11:26:07Z</time>
      </trkpt>
      <trkpt lat="45.42575" lon="4.52774">
        <ele>494.63</ele>
        <time>2017-03-26T11:26:08Z</time>
      </trkpt>
      <trkpt lat="45.42575" lon="4.52774">
        <ele>494.63</ele>
        <time>2017-03-26T11:26:09Z</time>
      </trkpt>
      <trkpt lat="45.42575" lon="4.52774">
        <ele>494.63</ele>
        <time>2017-03-26T11:26:10Z</time>
      </trkpt>
      <trkpt lat="45.42575" lon="4.52774">
        <ele>494.63</ele>
        <time>2017-03-26T11:26:11Z</time>
      </trkpt>
      <trkpt lat="45.42575" lon="4.52774">
        <ele>494.63</ele>
        <time>2017-03-26T11:26:12Z</time>
      </trkpt>
      <trkpt lat="45.42575" lon="4.52774">
        <ele>494.63</ele>
        <time>2017-03-26T11:26:13Z</time>
      </trkpt>
      <trkpt lat="45.42575" lon="4.52774">
        <ele>494.63</ele>
        <time>2017-03-26T11:26:14Z</time>
      </trkpt>
      <trkpt lat="45.42575" lon="4.52774">
        <ele>494.63</ele>
        <time>2017-03-26T11:26:15Z</time>
      </trkpt>
      <trkpt lat="45.42575" lon="4.52774">
        <ele>494.63</ele>
        <time>2017-03-26T11:26:16Z</time>
      </trkpt>
      <trkpt lat="45.42575" lon="4.52774">
        <ele>494.63</ele>
        <time>2017-03-26T11:26:17Z</time>
      </trkpt>
      <trkpt lat="45.42575" lon="4.52774">
        <ele>494.63</ele>
        <time>2017-03-26T11:26:18Z</time>
      </trkpt>
      <trkpt lat="45.42575" lon="4.52774">
        <ele>494.63</ele>
        <time>2017-03-26T11:26:19Z</time>
      </trkpt>
      <trkpt lat="45.42575" lon="4.52774">
        <ele>494.63</ele>
        <time>2017-03-26T11:26:20Z</time>
      </trkpt>
      <trkpt lat="45.42575" lon="4.52774">
        <ele>494.63</ele>
        <time>2017-03-26T11:26:21Z</time>
      </trkpt>
      <trkpt lat="45.42575" lon="4.52774">
        <ele>494.63</ele>
        <time>2017-03-26T11:26:22Z</time>
      </trkpt>
      <trkpt lat="45.42575" lon="4.52774">
        <ele>494.63</ele>
        <time>2017-03-26T11:26:23Z</time>
      </trkpt>
      <trkpt lat="45.42575" lon="4.52774">
        <ele>494.63</ele>
        <time>2017-03-26T11:26:24Z</time>
      </trkpt>
      <trkpt lat="45.42575" lon="4.52774">
        <ele>494.63</ele>
        <time>2017-03-26T11:26:25Z</time>
      </trkpt>
      <trkpt lat="45.42575" lon="4.52774">
        <ele>494.63</ele>
        <time>2017-03-26T11:26:26Z</time>
      </trkpt>
      <trkpt lat="45.42575" lon="4.52774">
        <ele>494.63</ele>
        <time>2017-03-26T11:26:27Z</time>
      </trkpt>
      <trkpt lat="45.42575" lon="4.52774">
        <ele>494.63</ele>
        <time>2017-03-26T11:26:28Z</time>
      </trkpt>
      <trkpt lat="45.42575" lon="4.52774">
        <ele>494.63</ele>
        <time>2017-03-26T11:26:29Z</time>
      </trkpt>
      <trkpt lat="45.42575" lon="4.52774">
        <ele>494.63</ele>
        <time>2017-03-26T11:26:30Z</time>
      </trkpt>
      <trkpt lat="45.42575" lon="4.52774">
        <ele>494.63</ele>
        <time>2017-03-26T11:26:31Z</time>
      </trkpt>
      <trkpt lat="45.42575" lon="4.52774">
        <ele>494.63</ele>
        <time>2017-03-26T11:26:32Z</time>
      </trkpt>
      <trkpt lat="45.42575" lon="4.52774">
        <ele>494.63</ele>
        <time>2017-03-26T11:26:33Z</time>
      </trkpt>
      <trkpt lat="45.42575" lon="4.52774">
        <ele>494.63</ele>
        <time>2017-03-26T11:26:34Z</time>
      </trkpt>
      <trkpt lat="45.42575" lon="4.52774">
        <ele>494.63</ele>
        <time>2017-03-26T11:26:35Z</time>
      </trkpt>
      <trkpt lat="45.42575" lon="4.52774">
        <ele>494.63</ele>
        <time>2017-03-26T11:26:36Z</time>
      </trkpt>
      <trkpt lat="45.42575" lon="4.52774">
        <ele>494.63</ele>
        <time>2017-03-26T11:26:37Z</time>
      </trkpt>
      <trkpt lat="45.42575" lon="4.52774">
        <ele>494.63</ele>
        <time>2017-03-26T11:26:38Z</time>
      </trkpt>
      <trkpt lat="45.42575" lon="4.52774">
        <ele>494.63</ele>
        <time>2017-03-26T11:26:39Z</time>
      </trkpt>
      <trkpt lat="45.42584" lon="4.52776">
        <ele>494.79</ele>
        <time>2017-03-26T11:26:40Z</time>
      </trkpt>
      <trkpt lat="45.42584" lon="4.52777">
        <ele>494.82</ele>
        <time>2017-03-26T11:26:41Z</time>
      </trkpt>
      <trkpt lat="45.42585" lon="4.52777">
        <ele>494.83</ele>
        <time>2017-03-26T11:26:42Z</time>
      </trkpt>
      <trkpt lat="45.42586" lon="4.52777">
        <ele>494.83</ele>
        <time>2017-03-26T11:26:43Z</time>
      </trkpt>
      <trkpt lat="45.42586" lon="4.52777">
        <ele>494.83</ele>
        <time>2017-03-26T11:26:44Z</time>
      </trkpt>
      <trkpt lat="45.42586" lon="4.52777">
        <ele>494.83</ele>
        <time>2017-03-26T11:26:45Z</time>
      </trkpt>
      <trkpt lat="45.42586" lon="4.52777">
        <ele>494.83</ele>
        <time>2017-03-26T11:26:46Z</time>
      </trkpt>
      <trkpt lat="45.42586" lon="4.52777">
        <ele>494.83</ele>
        <time>2017-03-26T11:26:47Z</time>
      </trkpt>
      <trkpt lat="45.42586" lon="4.52777">
        <ele>494.83</ele>
        <time>2017-03-26T11:26:48Z</time>
      </trkpt>
      <trkpt lat="45.42586" lon="4.52777">
        <ele>494.83</ele>
        <time>2017-03-26T11:26:49Z</time>
      </trkpt>
      <trkpt lat="45.42586" lon="4.52777">
        <ele>494.83</ele>
        <time>2017-03-26T11:26:50Z</time>
      </trkpt>
      <trkpt lat="45.42586" lon="4.52777">
        <ele>494.83</ele>
        <time>2017-03-26T11:26:51Z</time>
      </trkpt>
      <trkpt lat="45.42586" lon="4.52777">
        <ele>494.83</ele>
        <time>2017-03-26T11:26:52Z</time>
      </trkpt>
      <trkpt lat="45.42586" lon="4.52777">
        <ele>494.83</ele>
        <time>2017-03-26T11:26:53Z</time>
      </trkpt>
      <trkpt lat="45.42586" lon="4.52777">
        <ele>494.83</ele>
        <time>2017-03-26T11:26:54Z</time>
      </trkpt>
      <trkpt lat="45.42586" lon="4.52777">
        <ele>494.83</ele>
        <time>2017-03-26T11:26:55Z</time>
      </trkpt>
      <trkpt lat="45.42586" lon="4.52777">
        <ele>494.83</ele>
        <time>2017-03-26T11:26:56Z</time>
      </trkpt>
      <trkpt lat="45.42586" lon="4.52777">
        <ele>494.83</ele>
        <time>2017-03-26T11:26:57Z</time>
      </trkpt>
      <trkpt lat="45.42586" lon="4.52777">
        <ele>494.83</ele>
        <time>2017-03-26T11:26:58Z</time>
      </trkpt>
      <trkpt lat="45.42586" lon="4.52777">
        <ele>494.83</ele>
        <time>2017-03-26T11:26:59Z</time>
      </trkpt>
      <trkpt lat="45.42586" lon="4.52777">
        <ele>494.83</ele>
        <time>2017-03-26T11:27:00Z</time>
      </trkpt>
      <trkpt lat="45.42586" lon="4.52777">
        <ele>494.83</ele>
        <time>2017-03-26T11:27:01Z</time>
      </trkpt>
      <trkpt lat="45.42586" lon="4.52777">
        <ele>494.83</ele>
        <time>2017-03-26T11:27:02Z</time>
      </trkpt>
      <trkpt lat="45.42586" lon="4.52777">
        <ele>494.83</ele>
        <time>2017-03-26T11:27:03Z</time>
      </trkpt>
      <trkpt lat="45.42586" lon="4.52777">
        <ele>494.83</ele>
        <time>2017-03-26T11:27:04Z</time>
      </trkpt>
      <trkpt lat="45.42586" lon="4.52777">
        <ele>494.83</ele>
        <time>2017-03-26T11:27:05Z</time>
      </trkpt>
      <trkpt lat="45.42586" lon="4.52777">
        <ele>494.83</ele>
        <time>2017-03-26T11:27:06Z</time>
      </trkpt>
      <trkpt lat="45.42586" lon="4.52777">
        <ele>494.83</ele>
        <time>2017-03-26T11:27:07Z</time>
      </trkpt>
      <trkpt lat="45.42586" lon="4.52777">
        <ele>494.83</ele>
        <time>2017-03-26T11:27:08Z</time>
      </trkpt>
      <trkpt lat="45.42586" lon="4.52777">
        <ele>494.83</ele>
        <time>2017-03-26T11:27:09Z</time>
      </trkpt>
      <trkpt lat="45.42586" lon="4.52777">
        <ele>494.83</ele>
        <time>2017-03-26T11:27:10Z</time>
      </trkpt>
      <trkpt lat="45.42586" lon="4.52777">
        <ele>494.83</ele>
        <time>2017-03-26T11:27:11Z</time>
      </trkpt>
      <trkpt lat="45.42586" lon="4.52777">
        <ele>494.83</ele>
        <time>2017-03-26T11:27:12Z</time>
      </trkpt>
      <trkpt lat="45.42586" lon="4.52777">
        <ele>494.83</ele>
        <time>2017-03-26T11:27:13Z</time>
      </trkpt>
      <trkpt lat="45.42586" lon="4.52777">
        <ele>494.83</ele>
        <time>2017-03-26T11:27:14Z</time>
      </trkpt>
      <trkpt lat="45.42586" lon="4.52777">
        <ele>494.83</ele>
        <time>2017-03-26T11:27:15Z</time>
      </trkpt>
      <trkpt lat="45.42586" lon="4.52777">
        <ele>494.83</ele>
        <time>2017-03-26T11:27:16Z</time>
      </trkpt>
      <trkpt lat="45.42586" lon="4.52777">
        <ele>494.83</ele>
        <time>2017-03-26T11:27:17Z</time>
      </trkpt>
      <trkpt lat="45.42586" lon="4.52777">
        <ele>494.83</ele>
        <time>2017-03-26T11:27:18Z</time>
      </trkpt>
      <trkpt lat="45.42586" lon="4.52777">
        <ele>494.83</ele>
        <time>2017-03-26T11:27:19Z</time>
      </trkpt>
      <trkpt lat="45.42577" lon="4.5278">
        <ele>495.31</ele>
        <time>2017-03-26T11:27:20Z</time>
      </trkpt>
      <trkpt lat="45.42576" lon="4.5278">
        <ele>495.49</ele>
        <time>2017-03-26T11:27:21Z</time>
      </trkpt>
      <trkpt lat="45.42576" lon="4.5278">
        <ele>495.52</ele>
        <time>2017-03-26T11:27:22Z</time>
      </trkpt>
      <trkpt lat="45.42575" lon="4.52779">
        <ele>495.53</ele>
        <time>2017-03-26T11:27:23Z</time>
      </trkpt>
      <trkpt lat="45.42575" lon="4.52779">
        <ele>495.53</ele>
        <time>2017-03-26T11:27:24Z</time>
      </trkpt>
      <trkpt lat="45.42575" lon="4.52779">
        <ele>495.53</ele>
        <time>2017-03-26T11:27:25Z</time>
      </trkpt>
      <trkpt lat="45.42575" lon="4.52779">
        <ele>495.53</ele>
        <time>2017-03-26T11:27:26Z</time>
      </trkpt>
      <trkpt lat="45.42575" lon="4.52779">
        <ele>495.53</ele>
        <time>2017-03-26T11:27:27Z</time>
      </trkpt>
      <trkpt lat="45.42575" lon="4.52779">
        <ele>495.53</ele>
        <time>2017-03-26T11:27:28Z</time>
      </trkpt>
      <trkpt lat="45.42567" lon="4.5278">
        <ele>495.69</ele>
        <time>2017-03-26T11:27:29Z</time>
      </trkpt>
      <trkpt lat="45.42565" lon="4.52781">
        <ele>495.72</ele>
        <time>2017-03-26T11:27:30Z</time>
      </trkpt>
      <trkpt lat="45.42564" lon="4.52781">
        <ele>495.73</ele>
        <time>2017-03-26T11:27:31Z</time>
      </trkpt>
      <trkpt lat="45.42563" lon="4.52781">
        <ele>495.73</ele>
        <time>2017-03-26T11:27:32Z</time>
      </trkpt>
      <trkpt lat="45.42561" lon="4.52781">
        <ele>495.73</ele>
        <time>2017-03-26T11:27:33Z</time>
      </trkpt>
      <trkpt lat="45.42559" lon="4.52782">
        <ele>495.81</ele>
        <time>2017-03-26T11:27:34Z</time>
      </trkpt>
      <trkpt lat="45.42558" lon="4.52782">
        <ele>495.75</ele>
        <time>2017-03-26T11:27:35Z</time>
      </trkpt>
      <trkpt lat="45.42555" lon="4.52783">
        <ele>495.73</ele>
        <time>2017-03-26T11:27:36Z</time>
      </trkpt>
      <trkpt lat="45.42555" lon="4.52783">
        <ele>495.73</ele>
        <time>2017-03-26T11:27:37Z</time>
      </trkpt>
      <trkpt lat="45.42555" lon="4.52783">
        <ele>495.73</ele>
        <time>2017-03-26T11:27:38Z</time>
      </trkpt>
      <trkpt lat="45.42555" lon="4.52783">
        <ele>495.73</ele>
        <time>2017-03-26T11:27:39Z</time>
      </trkpt>
      <trkpt lat="45.42555" lon="4.52783">
        <ele>495.73</ele>
        <time>2017-03-26T11:27:40Z</time>
      </trkpt>
      <trkpt lat="45.42555" lon="4.52783">
        <ele>495.73</ele>
        <time>2017-03-26T11:27:41Z</time>
      </trkpt>
      <trkpt lat="45.42546" lon="4.52788">
        <ele>495.57</ele>
        <time>2017-03-26T11:27:42Z</time>
      </trkpt>
      <trkpt lat="45.42544" lon="4.52788">
        <ele>495.46</ele>
        <time>2017-03-26T11:27:43Z</time>
      </trkpt>
      <trkpt lat="45.42543" lon="4.52789">
        <ele>495.36</ele>
        <time>2017-03-26T11:27:44Z</time>
      </trkpt>
      <trkpt lat="45.42543" lon="4.52791">
        <ele>495.26</ele>
        <time>2017-03-26T11:27:45Z</time>
      </trkpt>
      <trkpt lat="45.42543" lon="4.52791">
        <ele>495.24</ele>
        <time>2017-03-26T11:27:46Z</time>
      </trkpt>
      <trkpt lat="45.42543" lon="4.52791">
        <ele>495.23</ele>
        <time>2017-03-26T11:27:47Z</time>
      </trkpt>
      <trkpt lat="45.42543" lon="4.52791">
        <ele>495.23</ele>
        <time>2017-03-26T11:27:48Z</time>
      </trkpt>
      <trkpt lat="45.42543" lon="4.52791">
        <ele>495.23</ele>
        <time>2017-03-26T11:27:49Z</time>
      </trkpt>
      <trkpt lat="45.42543" lon="4.52791">
        <ele>495.23</ele>
        <time>2017-03-26T11:27:50Z</time>
      </trkpt>
      <trkpt lat="45.42537" lon="4.52796">
        <ele>495.15</ele>
        <time>2017-03-26T11:27:51Z</time>
      </trkpt>
      <trkpt lat="45.42536" lon="4.52796">
        <ele>495.05</ele>
        <time>2017-03-26T11:27:52Z</time>
      </trkpt>
      <trkpt lat="45.42534" lon="4.52797">
        <ele>495.03</ele>
        <time>2017-03-26T11:27:53Z</time>
      </trkpt>
      <trkpt lat="45.42533" lon="4.52797">
        <ele>495.03</ele>
        <time>2017-03-26T11:27:54Z</time>
      </trkpt>
      <trkpt lat="45.42532" lon="4.52798">
        <ele>495.03</ele>
        <time>2017-03-26T11:27:55Z</time>
      </trkpt>
      <trkpt lat="45.42531" lon="4.52798">
        <ele>494.95</ele>
        <time>2017-03-26T11:27:56Z</time>
      </trkpt>
      <trkpt lat="45.4253" lon="4.52798">
        <ele>494.93</ele>
        <time>2017-03-26T11:27:57Z</time>
      </trkpt>
      <trkpt lat="45.42529" lon="4.52798">
        <ele>494.93</ele>
        <time>2017-03-26T11:27:58Z</time>
      </trkpt>
      <trkpt lat="45.42528" lon="4.52799">
        <ele>494.93</ele>
        <time>2017-03-26T11:27:59Z</time>
      </trkpt>
      <trkpt lat="45.42527" lon="4.52799">
        <ele>494.93</ele>
        <time>2017-03-26T11:28:00Z</time>
      </trkpt>
      <trkpt lat="45.42525" lon="4.52799">
        <ele>494.93</ele>
        <time>2017-03-26T11:28:01Z</time>
      </trkpt>
      <trkpt lat="45.42525" lon="4.52799">
        <ele>494.93</ele>
        <time>2017-03-26T11:28:02Z</time>
      </trkpt>
      <trkpt lat="45.42522" lon="4.52801">
        <ele>494.93</ele>
        <time>2017-03-26T11:28:03Z</time>
      </trkpt>
      <trkpt lat="45.42521" lon="4.52801">
        <ele>494.93</ele>
        <time>2017-03-26T11:28:04Z</time>
      </trkpt>
      <trkpt lat="45.42521" lon="4.52804">
        <ele>494.93</ele>
        <time>2017-03-26T11:28:05Z</time>
      </trkpt>
      <trkpt lat="45.4252" lon="4.52804">
        <ele>494.93</ele>
        <time>2017-03-26T11:28:06Z</time>
      </trkpt>
      <trkpt lat="45.4252" lon="4.52806">
        <ele>494.93</ele>
        <time>2017-03-26T11:28:07Z</time>
      </trkpt>
      <trkpt lat="45.4252" lon="4.52806">
        <ele>494.93</ele>
        <time>2017-03-26T11:28:08Z</time>
      </trkpt>
      <trkpt lat="45.4252" lon="4.52806">
        <ele>494.93</ele>
        <time>2017-03-26T11:28:09Z</time>
      </trkpt>
      <trkpt lat="45.4252" lon="4.52806">
        <ele>494.93</ele>
        <time>2017-03-26T11:28:10Z</time>
      </trkpt>
      <trkpt lat="45.4252" lon="4.52806">
        <ele>494.93</ele>
        <time>2017-03-26T11:28:11Z</time>
      </trkpt>
      <trkpt lat="45.4252" lon="4.52806">
        <ele>494.93</ele>
        <time>2017-03-26T11:28:12Z</time>
      </trkpt>
      <trkpt lat="45.4252" lon="4.52806">
        <ele>494.93</ele>
        <time>2017-03-26T11:28:13Z</time>
      </trkpt>
      <trkpt lat="45.4252" lon="4.52806">
        <ele>494.93</ele>
        <time>2017-03-26T11:28:14Z</time>
      </trkpt>
      <trkpt lat="45.4252" lon="4.52806">
        <ele>494.93</ele>
        <time>2017-03-26T11:28:15Z</time>
      </trkpt>
      <trkpt lat="45.4252" lon="4.52806">
        <ele>494.93</ele>
        <time>2017-03-26T11:28:16Z</time>
      </trkpt>
      <trkpt lat="45.42519" lon="4.5282">
        <ele>494.85</ele>
        <time>2017-03-26T11:28:17Z</time>
      </trkpt>
      <trkpt lat="45.42519" lon="4.52821">
        <ele>494.75</ele>
        <time>2017-03-26T11:28:18Z</time>
      </trkpt>
      <trkpt lat="45.42519" lon="4.52822">
        <ele>494.81</ele>
        <time>2017-03-26T11:28:19Z</time>
      </trkpt>
      <trkpt lat="45.4252" lon="4.52822">
        <ele>494.83</ele>
        <time>2017-03-26T11:28:20Z</time>
      </trkpt>
      <trkpt lat="45.4252" lon="4.52822">
        <ele>494.83</ele>
        <time>2017-03-26T11:28:21Z</time>
      </trkpt>
      <trkpt lat="45.4252" lon="4.52822">
        <ele>494.83</ele>
        <time>2017-03-26T11:28:22Z</time>
      </trkpt>
      <trkpt lat="45.4252" lon="4.52822">
        <ele>494.83</ele>
        <time>2017-03-26T11:28:23Z</time>
      </trkpt>
      <trkpt lat="45.4252" lon="4.52822">
        <ele>494.83</ele>
        <time>2017-03-26T11:28:24Z</time>
      </trkpt>
      <trkpt lat="45.4252" lon="4.52822">
        <ele>494.83</ele>
        <time>2017-03-26T11:28:25Z</time>
      </trkpt>
      <trkpt lat="45.4252" lon="4.52822">
        <ele>494.83</ele>
        <time>2017-03-26T11:28:26Z</time>
      </trkpt>
      <trkpt lat="45.4252" lon="4.52822">
        <ele>494.83</ele>
        <time>2017-03-26T11:28:27Z</time>
      </trkpt>
      <trkpt lat="45.4252" lon="4.52822">
        <ele>494.83</ele>
        <time>2017-03-26T11:28:28Z</time>
      </trkpt>
      <trkpt lat="45.4252" lon="4.52822">
        <ele>494.83</ele>
        <time>2017-03-26T11:28:29Z</time>
      </trkpt>
      <trkpt lat="45.4252" lon="4.52822">
        <ele>494.83</ele>
        <time>2017-03-26T11:28:30Z</time>
      </trkpt>
      <trkpt lat="45.4252" lon="4.52822">
        <ele>494.83</ele>
        <time>2017-03-26T11:28:31Z</time>
      </trkpt>
      <trkpt lat="45.4252" lon="4.52822">
        <ele>494.83</ele>
        <time>2017-03-26T11:28:32Z</time>
      </trkpt>
      <trkpt lat="45.4252" lon="4.52822">
        <ele>494.83</ele>
        <time>2017-03-26T11:28:33Z</time>
      </trkpt>
      <trkpt lat="45.4252" lon="4.52822">
        <ele>494.83</ele>
        <time>2017-03-26T11:28:34Z</time>
      </trkpt>
      <trkpt lat="45.4252" lon="4.52822">
        <ele>494.83</ele>
        <time>2017-03-26T11:28:35Z</time>
      </trkpt>
      <trkpt lat="45.4252" lon="4.52822">
        <ele>494.83</ele>
        <time>2017-03-26T11:28:36Z</time>
      </trkpt>
      <trkpt lat="45.4252" lon="4.52822">
        <ele>494.83</ele>
        <time>2017-03-26T11:28:37Z</time>
      </trkpt>
      <trkpt lat="45.4252" lon="4.52822">
        <ele>494.83</ele>
        <time>2017-03-26T11:28:38Z</time>
      </trkpt>
      <trkpt lat="45.4252" lon="4.52822">
        <ele>494.83</ele>
        <time>2017-03-26T11:28:39Z</time>
      </trkpt>
      <trkpt lat="45.4252" lon="4.52822">
        <ele>494.83</ele>
        <time>2017-03-26T11:28:40Z</time>
      </trkpt>
      <trkpt lat="45.4252" lon="4.52822">
        <ele>494.83</ele>
        <time>2017-03-26T11:28:41Z</time>
      </trkpt>
      <trkpt lat="45.4252" lon="4.52822">
        <ele>494.83</ele>
        <time>2017-03-26T11:28:42Z</time>
      </trkpt>
      <trkpt lat="45.4252" lon="4.52822">
        <ele>494.83</ele>
        <time>2017-03-26T11:28:43Z</time>
      </trkpt>
      <trkpt lat="45.4252" lon="4.52822">
        <ele>494.83</ele>
        <time>2017-03-26T11:28:44Z</time>
      </trkpt>
      <trkpt lat="45.4252" lon="4.52822">
        <ele>494.83</ele>
        <time>2017-03-26T11:28:45Z</time>
      </trkpt>
      <trkpt lat="45.4252" lon="4.52822">
        <ele>494.83</ele>
        <time>2017-03-26T11:28:46Z</time>
      </trkpt>
      <trkpt lat="45.4252" lon="4.52822">
        <ele>494.83</ele>
        <time>2017-03-26T11:28:47Z</time>
      </trkpt>
      <trkpt lat="45.4252" lon="4.52822">
        <ele>494.83</ele>
        <time>2017-03-26T11:28:48Z</time>
      </trkpt>
      <trkpt lat="45.4252" lon="4.52822">
        <ele>494.83</ele>
        <time>2017-03-26T11:28:49Z</time>
      </trkpt>
      <trkpt lat="45.4252" lon="4.52822">
        <ele>494.83</ele>
        <time>2017-03-26T11:28:50Z</time>
      </trkpt>
      <trkpt lat="45.4252" lon="4.52822">
        <ele>494.83</ele>
        <time>2017-03-26T11:28:51Z</time>
      </trkpt>
      <trkpt lat="45.4252" lon="4.52822">
        <ele>494.83</ele>
        <time>2017-03-26T11:28:52Z</time>
      </trkpt>
      <trkpt lat="45.4252" lon="4.52822">
        <ele>494.83</ele>
        <time>2017-03-26T11:28:53Z</time>
      </trkpt>
      <trkpt lat="45.4252" lon="4.52822">
        <ele>494.83</ele>
        <time>2017-03-26T11:28:54Z</time>
      </trkpt>
      <trkpt lat="45.4252" lon="4.52822">
        <ele>494.83</ele>
        <time>2017-03-26T11:28:55Z</time>
      </trkpt>
      <trkpt lat="45.4252" lon="4.52822">
        <ele>494.83</ele>
        <time>2017-03-26T11:28:56Z</time>
      </trkpt>
      <trkpt lat="45.42516" lon="4.52819">
        <ele>494.51</ele>
        <time>2017-03-26T11:28:57Z</time>
      </trkpt>
      <trkpt lat="45.42515" lon="4.52819">
        <ele>494.61</ele>
        <time>2017-03-26T11:28:58Z</time>
      </trkpt>
      <trkpt lat="45.42514" lon="4.5282">
        <ele>494.87</ele>
        <time>2017-03-26T11:28:59Z</time>
      </trkpt>
      <trkpt lat="45.42513" lon="4.5282">
        <ele>495.08</ele>
        <time>2017-03-26T11:29:00Z</time>
      </trkpt>
      <trkpt lat="45.42513" lon="4.5282">
        <ele>495.28</ele>
        <time>2017-03-26T11:29:01Z</time>
      </trkpt>
      <trkpt lat="45.42513" lon="4.5282">
        <ele>495.4</ele>
        <time>2017-03-26T11:29:02Z</time>
      </trkpt>
      <trkpt lat="45.42513" lon="4.5282">
        <ele>495.42</ele>
        <time>2017-03-26T11:29:03Z</time>
      </trkpt>
      <trkpt lat="45.42513" lon="4.5282">
        <ele>495.43</ele>
        <time>2017-03-26T11:29:04Z</time>
      </trkpt>
      <trkpt lat="45.42513" lon="4.5282">
        <ele>495.43</ele>
        <time>2017-03-26T11:29:05Z</time>
      </trkpt>
      <trkpt lat="45.42513" lon="4.5282">
        <ele>495.43</ele>
        <time>2017-03-26T11:29:06Z</time>
      </trkpt>
      <trkpt lat="45.42513" lon="4.5282">
        <ele>495.43</ele>
        <time>2017-03-26T11:29:07Z</time>
      </trkpt>
      <trkpt lat="45.42513" lon="4.5282">
        <ele>495.43</ele>
        <time>2017-03-26T11:29:08Z</time>
      </trkpt>
      <trkpt lat="45.42513" lon="4.5282">
        <ele>495.43</ele>
        <time>2017-03-26T11:29:09Z</time>
      </trkpt>
      <trkpt lat="45.42513" lon="4.5282">
        <ele>495.43</ele>
        <time>2017-03-26T11:29:10Z</time>
      </trkpt>
      <trkpt lat="45.42513" lon="4.5282">
        <ele>495.43</ele>
        <time>2017-03-26T11:29:11Z</time>
      </trkpt>
      <trkpt lat="45.42513" lon="4.5282">
        <ele>495.43</ele>
        <time>2017-03-26T11:29:12Z</time>
      </trkpt>
      <trkpt lat="45.42513" lon="4.5282">
        <ele>495.43</ele>
        <time>2017-03-26T11:29:13Z</time>
      </trkpt>
      <trkpt lat="45.42513" lon="4.5282">
        <ele>495.43</ele>
        <time>2017-03-26T11:29:14Z</time>
      </trkpt>
      <trkpt lat="45.42513" lon="4.5282">
        <ele>495.43</ele>
        <time>2017-03-26T11:29:15Z</time>
      </trkpt>
      <trkpt lat="45.42513" lon="4.5282">
        <ele>495.43</ele>
        <time>2017-03-26T11:29:16Z</time>
      </trkpt>
      <trkpt lat="45.42513" lon="4.5282">
        <ele>495.43</ele>
        <time>2017-03-26T11:29:17Z</time>
      </trkpt>
      <trkpt lat="45.42513" lon="4.5282">
        <ele>495.43</ele>
        <time>2017-03-26T11:29:18Z</time>
      </trkpt>
      <trkpt lat="45.42513" lon="4.5282">
        <ele>495.43</ele>
        <time>2017-03-26T11:29:19Z</time>
      </trkpt>
      <trkpt lat="45.42513" lon="4.5282">
        <ele>495.43</ele>
        <time>2017-03-26T11:29:20Z</time>
      </trkpt>
      <trkpt lat="45.42513" lon="4.5282">
        <ele>495.43</ele>
        <time>2017-03-26T11:29:21Z</time>
      </trkpt>
      <trkpt lat="45.42513" lon="4.5282">
        <ele>495.43</ele>
        <time>2017-03-26T11:29:22Z</time>
      </trkpt>
      <trkpt lat="45.42513" lon="4.5282">
        <ele>495.43</ele>
        <time>2017-03-26T11:29:23Z</time>
      </trkpt>
      <trkpt lat="45.42513" lon="4.5282">
        <ele>495.43</ele>
        <time>2017-03-26T11:29:24Z</time>
      </trkpt>
      <trkpt lat="45.42513" lon="4.5282">
        <ele>495.43</ele>
        <time>2017-03-26T11:29:25Z</time>
      </trkpt>
      <trkpt lat="45.42513" lon="4.5282">
        <ele>495.43</ele>
        <time>2017-03-26T11:29:26Z</time>
      </trkpt>
      <trkpt lat="45.42513" lon="4.5282">
        <ele>495.43</ele>
        <time>2017-03-26T11:29:27Z</time>
      </trkpt>
      <trkpt lat="45.42513" lon="4.5282">
        <ele>495.43</ele>
        <time>2017-03-26T11:29:28Z</time>
      </trkpt>
      <trkpt lat="45.42513" lon="4.5282">
        <ele>495.43</ele>
        <time>2017-03-26T11:29:29Z</time>
      </trkpt>
      <trkpt lat="45.42513" lon="4.5282">
        <ele>495.43</ele>
        <time>2017-03-26T11:29:30Z</time>
      </trkpt>
      <trkpt lat="45.42513" lon="4.5282">
        <ele>495.43</ele>
        <time>2017-03-26T11:29:31Z</time>
      </trkpt>
      <trkpt lat="45.42513" lon="4.5282">
        <ele>495.43</ele>
        <time>2017-03-26T11:29:32Z</time>
      </trkpt>
      <trkpt lat="45.42513" lon="4.5282">
        <ele>495.43</ele>
        <time>2017-03-26T11:29:33Z</time>
      </trkpt>
      <trkpt lat="45.42513" lon="4.5282">
        <ele>495.43</ele>
        <time>2017-03-26T11:29:34Z</time>
      </trkpt>
      <trkpt lat="45.42513" lon="4.5282">
        <ele>495.43</ele>
        <time>2017-03-26T11:29:35Z</time>
      </trkpt>
      <trkpt lat="45.42513" lon="4.5282">
        <ele>495.43</ele>
        <time>2017-03-26T11:29:36Z</time>
      </trkpt>
      <trkpt lat="45.42513" lon="4.5282">
        <ele>495.43</ele>
        <time>2017-03-26T11:29:37Z</time>
      </trkpt>
      <trkpt lat="45.42513" lon="4.5282">
        <ele>495.43</ele>
        <time>2017-03-26T11:29:38Z</time>
      </trkpt>
      <trkpt lat="45.42513" lon="4.5282">
        <ele>495.43</ele>
        <time>2017-03-26T11:29:39Z</time>
      </trkpt>
      <trkpt lat="45.42513" lon="4.5282">
        <ele>495.43</ele>
        <time>2017-03-26T11:29:40Z</time>
      </trkpt>
      <trkpt lat="45.42513" lon="4.5282">
        <ele>495.43</ele>
        <time>2017-03-26T11:29:41Z</time>
      </trkpt>
      <trkpt lat="45.42513" lon="4.5282">
        <ele>495.43</ele>
        <time>2017-03-26T11:29:42Z</time>
      </trkpt>
      <trkpt lat="45.42513" lon="4.5282">
        <ele>495.43</ele>
        <time>2017-03-26T11:29:43Z</time>
      </trkpt>
      <trkpt lat="45.42513" lon="4.5282">
        <ele>495.43</ele>
        <time>2017-03-26T11:29:44Z</time>
      </trkpt>
      <trkpt lat="45.42513" lon="4.5282">
        <ele>495.43</ele>
        <time>2017-03-26T11:29:45Z</time>
      </trkpt>
      <trkpt lat="45.42513" lon="4.5282">
        <ele>495.43</ele>
        <time>2017-03-26T11:29:46Z</time>
      </trkpt>
      <trkpt lat="45.42513" lon="4.5282">
        <ele>495.43</ele>
        <time>2017-03-26T11:29:47Z</time>
      </trkpt>
      <trkpt lat="45.42513" lon="4.5282">
        <ele>495.43</ele>
        <time>2017-03-26T11:29:48Z</time>
      </trkpt>
      <trkpt lat="45.42513" lon="4.5282">
        <ele>495.43</ele>
        <time>2017-03-26T11:29:49Z</time>
      </trkpt>
      <trkpt lat="45.42513" lon="4.5282">
        <ele>495.43</ele>
        <time>2017-03-26T11:29:50Z</time>
      </trkpt>
      <trkpt lat="45.42513" lon="4.5282">
        <ele>495.43</ele>
        <time>2017-03-26T11:29:51Z</time>
      </trkpt>
      <trkpt lat="45.42513" lon="4.5282">
        <ele>495.43</ele>
        <time>2017-03-26T11:29:52Z</time>
      </trkpt>
      <trkpt lat="45.42513" lon="4.5282">
        <ele>495.43</ele>
        <time>2017-03-26T11:29:53Z</time>
      </trkpt>
      <trkpt lat="45.42513" lon="4.5282">
        <ele>495.43</ele>
        <time>2017-03-26T11:29:54Z</time>
      </trkpt>
      <trkpt lat="45.42513" lon="4.5282">
        <ele>495.43</ele>
        <time>2017-03-26T11:29:55Z</time>
      </trkpt>
      <trkpt lat="45.42513" lon="4.5282">
        <ele>495.43</ele>
        <time>2017-03-26T11:29:56Z</time>
      </trkpt>
      <trkpt lat="45.42513" lon="4.5282">
        <ele>495.43</ele>
        <time>2017-03-26T11:29:57Z</time>
      </trkpt>
      <trkpt lat="45.42513" lon="4.5282">
        <ele>495.43</ele>
        <time>2017-03-26T11:29:58Z</time>
      </trkpt>
      <trkpt lat="45.42513" lon="4.5282">
        <ele>495.43</ele>
        <time>2017-03-26T11:29:59Z</time>
      </trkpt>
      <trkpt lat="45.42513" lon="4.5282">
        <ele>495.43</ele>
        <time>2017-03-26T11:30:00Z</time>
      </trkpt>
      <trkpt lat="45.42513" lon="4.5282">
        <ele>495.43</ele>
        <time>2017-03-26T11:30:01Z</time>
      </trkpt>
      <trkpt lat="45.42513" lon="4.5282">
        <ele>495.43</ele>
        <time>2017-03-26T11:30:02Z</time>
      </trkpt>
      <trkpt lat="45.42513" lon="4.5282">
        <ele>495.43</ele>
        <time>2017-03-26T11:30:03Z</time>
      </trkpt>
      <trkpt lat="45.42513" lon="4.5282">
        <ele>495.43</ele>
        <time>2017-03-26T11:30:04Z</time>
      </trkpt>
      <trkpt lat="45.42513" lon="4.5282">
        <ele>495.43</ele>
        <time>2017-03-26T11:30:05Z</time>
      </trkpt>
      <trkpt lat="45.42513" lon="4.5282">
        <ele>495.43</ele>
        <time>2017-03-26T11:30:06Z</time>
      </trkpt>
      <trkpt lat="45.42513" lon="4.5282">
        <ele>495.43</ele>
        <time>2017-03-26T11:30:07Z</time>
      </trkpt>
      <trkpt lat="45.42521" lon="4.52811">
        <ele>501.99</ele>
        <time>2017-03-26T11:30:08Z</time>
      </trkpt>
      <trkpt lat="45.42521" lon="4.5281">
        <ele>503.3</ele>
        <time>2017-03-26T11:30:09Z</time>
      </trkpt>
      <trkpt lat="45.42521" lon="4.52811">
        <ele>503.56</ele>
        <time>2017-03-26T11:30:10Z</time>
      </trkpt>
      <trkpt lat="45.42521" lon="4.52811">
        <ele>503.54</ele>
        <time>2017-03-26T11:30:11Z</time>
      </trkpt>
      <trkpt lat="45.42521" lon="4.52811">
        <ele>503.53</ele>
        <time>2017-03-26T11:30:12Z</time>
      </trkpt>
      <trkpt lat="45.42521" lon="4.52811">
        <ele>503.53</ele>
        <time>2017-03-26T11:30:13Z</time>
      </trkpt>
      <trkpt lat="45.42521" lon="4.52811">
        <ele>503.53</ele>
        <time>2017-03-26T11:30:14Z</time>
      </trkpt>
      <trkpt lat="45.42521" lon="4.52811">
        <ele>503.53</ele>
        <time>2017-03-26T11:30:15Z</time>
      </trkpt>
      <trkpt lat="45.42521" lon="4.52811">
        <ele>503.53</ele>
        <time>2017-03-26T11:30:16Z</time>
      </trkpt>
      <trkpt lat="45.42521" lon="4.52811">
        <ele>503.53</ele>
        <time>2017-03-26T11:30:17Z</time>
      </trkpt>
      <trkpt lat="45.42521" lon="4.52811">
        <ele>503.53</ele>
        <time>2017-03-26T11:30:18Z</time>
      </trkpt>
      <trkpt lat="45.42521" lon="4.52811">
        <ele>503.53</ele>
        <time>2017-03-26T11:30:19Z</time>
      </trkpt>
      <trkpt lat="45.42521" lon="4.52811">
        <ele>503.53</ele>
        <time>2017-03-26T11:30:20Z</time>
      </trkpt>
      <trkpt lat="45.42521" lon="4.52811">
        <ele>503.53</ele>
        <time>2017-03-26T11:30:21Z</time>
      </trkpt>
      <trkpt lat="45.42521" lon="4.52811">
        <ele>503.53</ele>
        <time>2017-03-26T11:30:22Z</time>
      </trkpt>
      <trkpt lat="45.42521" lon="4.52811">
        <ele>503.53</ele>
        <time>2017-03-26T11:30:23Z</time>
      </trkpt>
      <trkpt lat="45.42521" lon="4.52811">
        <ele>503.53</ele>
        <time>2017-03-26T11:30:24Z</time>
      </trkpt>
      <trkpt lat="45.42521" lon="4.52811">
        <ele>503.53</ele>
        <time>2017-03-26T11:30:25Z</time>
      </trkpt>
      <trkpt lat="45.42521" lon="4.52811">
        <ele>503.53</ele>
        <time>2017-03-26T11:30:26Z</time>
      </trkpt>
      <trkpt lat="45.42521" lon="4.52811">
        <ele>503.53</ele>
        <time>2017-03-26T11:30:27Z</time>
      </trkpt>
      <trkpt lat="45.42521" lon="4.52811">
        <ele>503.53</ele>
        <time>2017-03-26T11:30:28Z</time>
      </trkpt>
      <trkpt lat="45.42521" lon="4.52811">
        <ele>503.53</ele>
        <time>2017-03-26T11:30:29Z</time>
      </trkpt>
      <trkpt lat="45.42521" lon="4.52811">
        <ele>503.53</ele>
        <time>2017-03-26T11:30:30Z</time>
      </trkpt>
      <trkpt lat="45.42521" lon="4.52811">
        <ele>503.53</ele>
        <time>2017-03-26T11:30:31Z</time>
      </trkpt>
      <trkpt lat="45.42521" lon="4.52811">
        <ele>503.53</ele>
        <time>2017-03-26T11:30:32Z</time>
      </trkpt>
      <trkpt lat="45.42521" lon="4.52811">
        <ele>503.53</ele>
        <time>2017-03-26T11:30:33Z</time>
      </trkpt>
      <trkpt lat="45.42521" lon="4.52811">
        <ele>503.53</ele>
        <time>2017-03-26T11:30:34Z</time>
      </trkpt>
      <trkpt lat="45.42521" lon="4.52811">
        <ele>503.53</ele>
        <time>2017-03-26T11:30:35Z</time>
      </trkpt>
      <trkpt lat="45.42521" lon="4.52811">
        <ele>503.53</ele>
        <time>2017-03-26T11:30:36Z</time>
      </trkpt>
      <trkpt lat="45.42521" lon="4.52811">
        <ele>503.53</ele>
        <time>2017-03-26T11:30:37Z</time>
      </trkpt>
      <trkpt lat="45.42521" lon="4.52811">
        <ele>503.53</ele>
        <time>2017-03-26T11:30:38Z</time>
      </trkpt>
      <trkpt lat="45.42521" lon="4.52811">
        <ele>503.53</ele>
        <time>2017-03-26T11:30:39Z</time>
      </trkpt>
      <trkpt lat="45.42521" lon="4.52811">
        <ele>503.53</ele>
        <time>2017-03-26T11:30:40Z</time>
      </trkpt>
      <trkpt lat="45.42521" lon="4.52811">
        <ele>503.53</ele>
        <time>2017-03-26T11:30:41Z</time>
      </trkpt>
      <trkpt lat="45.42521" lon="4.52811">
        <ele>503.53</ele>
        <time>2017-03-26T11:30:42Z</time>
      </trkpt>
      <trkpt lat="45.42521" lon="4.52811">
        <ele>503.53</ele>
        <time>2017-03-26T11:30:43Z</time>
      </trkpt>
      <trkpt lat="45.42521" lon="4.52811">
        <ele>503.53</ele>
        <time>2017-03-26T11:30:44Z</time>
      </trkpt>
      <trkpt lat="45.42521" lon="4.52811">
        <ele>503.53</ele>
        <time>2017-03-26T11:30:45Z</time>
      </trkpt>
      <trkpt lat="45.42521" lon="4.52811">
        <ele>503.53</ele>
        <time>2017-03-26T11:30:46Z</time>
      </trkpt>
      <trkpt lat="45.42521" lon="4.52811">
        <ele>503.53</ele>
        <time>2017-03-26T11:30:47Z</time>
      </trkpt>
      <trkpt lat="45.42521" lon="4.52811">
        <ele>503.53</ele>
        <time>2017-03-26T11:30:48Z</time>
      </trkpt>
      <trkpt lat="45.42521" lon="4.52811">
        <ele>503.53</ele>
        <time>2017-03-26T11:30:49Z</time>
      </trkpt>
      <trkpt lat="45.42521" lon="4.52811">
        <ele>503.53</ele>
        <time>2017-03-26T11:30:50Z</time>
      </trkpt>
      <trkpt lat="45.42521" lon="4.52811">
        <ele>503.53</ele>
        <time>2017-03-26T11:30:51Z</time>
      </trkpt>
      <trkpt lat="45.42521" lon="4.52811">
        <ele>503.53</ele>
        <time>2017-03-26T11:30:52Z</time>
      </trkpt>
      <trkpt lat="45.42521" lon="4.52811">
        <ele>503.53</ele>
        <time>2017-03-26T11:30:53Z</time>
      </trkpt>
      <trkpt lat="45.42521" lon="4.52811">
        <ele>503.53</ele>
        <time>2017-03-26T11:30:54Z</time>
      </trkpt>
      <trkpt lat="45.42521" lon="4.52811">
        <ele>503.53</ele>
        <time>2017-03-26T11:30:55Z</time>
      </trkpt>
      <trkpt lat="45.42521" lon="4.52811">
        <ele>503.53</ele>
        <time>2017-03-26T11:30:56Z</time>
      </trkpt>
      <trkpt lat="45.42521" lon="4.52811">
        <ele>503.53</ele>
        <time>2017-03-26T11:30:57Z</time>
      </trkpt>
      <trkpt lat="45.42521" lon="4.52811">
        <ele>503.53</ele>
        <time>2017-03-26T11:30:58Z</time>
      </trkpt>
      <trkpt lat="45.42521" lon="4.52811">
        <ele>503.53</ele>
        <time>2017-03-26T11:30:59Z</time>
      </trkpt>
      <trkpt lat="45.42521" lon="4.52811">
        <ele>503.53</ele>
        <time>2017-03-26T11:31:00Z</time>
      </trkpt>
      <trkpt lat="45.42521" lon="4.52811">
        <ele>503.53</ele>
        <time>2017-03-26T11:31:01Z</time>
      </trkpt>
      <trkpt lat="45.42521" lon="4.52811">
        <ele>503.53</ele>
        <time>2017-03-26T11:31:02Z</time>
      </trkpt>
      <trkpt lat="45.42521" lon="4.52811">
        <ele>503.53</ele>
        <time>2017-03-26T11:31:03Z</time>
      </trkpt>
      <trkpt lat="45.42521" lon="4.52811">
        <ele>503.53</ele>
        <time>2017-03-26T11:31:04Z</time>
      </trkpt>
      <trkpt lat="45.42521" lon="4.52811">
        <ele>503.53</ele>
        <time>2017-03-26T11:31:05Z</time>
      </trkpt>
      <trkpt lat="45.42521" lon="4.52811">
        <ele>503.53</ele>
        <time>2017-03-26T11:31:06Z</time>
      </trkpt>
      <trkpt lat="45.42521" lon="4.52811">
        <ele>503.53</ele>
        <time>2017-03-26T11:31:07Z</time>
      </trkpt>
      <trkpt lat="45.42521" lon="4.52811">
        <ele>503.53</ele>
        <time>2017-03-26T11:31:08Z</time>
      </trkpt>
      <trkpt lat="45.42521" lon="4.52811">
        <ele>503.53</ele>
        <time>2017-03-26T11:31:09Z</time>
      </trkpt>
      <trkpt lat="45.42521" lon="4.52811">
        <ele>503.53</ele>
        <time>2017-03-26T11:31:10Z</time>
      </trkpt>
      <trkpt lat="45.42521" lon="4.52811">
        <ele>503.53</ele>
        <time>2017-03-26T11:31:11Z</time>
      </trkpt>
      <trkpt lat="45.42521" lon="4.52811">
        <ele>503.53</ele>
        <time>2017-03-26T11:31:12Z</time>
      </trkpt>
      <trkpt lat="45.42521" lon="4.52811">
        <ele>503.53</ele>
        <time>2017-03-26T11:31:13Z</time>
      </trkpt>
      <trkpt lat="45.42521" lon="4.52811">
        <ele>503.53</ele>
        <time>2017-03-26T11:31:14Z</time>
      </trkpt>
      <trkpt lat="45.42521" lon="4.52811">
        <ele>503.53</ele>
        <time>2017-03-26T11:31:15Z</time>
      </trkpt>
      <trkpt lat="45.42521" lon="4.52811">
        <ele>503.53</ele>
        <time>2017-03-26T11:31:16Z</time>
      </trkpt>
      <trkpt lat="45.42521" lon="4.52811">
        <ele>503.53</ele>
        <time>2017-03-26T11:31:17Z</time>
      </trkpt>
      <trkpt lat="45.42521" lon="4.52811">
        <ele>503.53</ele>
        <time>2017-03-26T11:31:18Z</time>
      </trkpt>
      <trkpt lat="45.42521" lon="4.52811">
        <ele>503.53</ele>
        <time>2017-03-26T11:31:19Z</time>
      </trkpt>
      <trkpt lat="45.42521" lon="4.52811">
        <ele>503.53</ele>
        <time>2017-03-26T11:31:20Z</time>
      </trkpt>
      <trkpt lat="45.42521" lon="4.52811">
        <ele>503.53</ele>
        <time>2017-03-26T11:31:21Z</time>
      </trkpt>
      <trkpt lat="45.42521" lon="4.52811">
        <ele>503.53</ele>
        <time>2017-03-26T11:31:22Z</time>
      </trkpt>
      <trkpt lat="45.42521" lon="4.52811">
        <ele>503.53</ele>
        <time>2017-03-26T11:31:23Z</time>
      </trkpt>
      <trkpt lat="45.42521" lon="4.52811">
        <ele>503.53</ele>
        <time>2017-03-26T11:31:24Z</time>
      </trkpt>
      <trkpt lat="45.42521" lon="4.52811">
        <ele>503.53</ele>
        <time>2017-03-26T11:31:25Z</time>
      </trkpt>
      <trkpt lat="45.42521" lon="4.52811">
        <ele>503.53</ele>
        <time>2017-03-26T11:31:26Z</time>
      </trkpt>
      <trkpt lat="45.42521" lon="4.52811">
        <ele>503.53</ele>
        <time>2017-03-26T11:31:27Z</time>
      </trkpt>
      <trkpt lat="45.42521" lon="4.52811">
        <ele>503.53</ele>
        <time>2017-03-26T11:31:28Z</time>
      </trkpt>
      <trkpt lat="45.42521" lon="4.52811">
        <ele>503.53</ele>
        <time>2017-03-26T11:31:29Z</time>
      </trkpt>
      <trkpt lat="45.42521" lon="4.52811">
        <ele>503.53</ele>
        <time>2017-03-26T11:31:30Z</time>
      </trkpt>
      <trkpt lat="45.42521" lon="4.52811">
        <ele>503.53</ele>
        <time>2017-03-26T11:31:31Z</time>
      </trkpt>
      <trkpt lat="45.42521" lon="4.52811">
        <ele>503.53</ele>
        <time>2017-03-26T11:31:32Z</time>
      </trkpt>
      <trkpt lat="45.42521" lon="4.52811">
        <ele>503.53</ele>
        <time>2017-03-26T11:31:33Z</time>
      </trkpt>
      <trkpt lat="45.42521" lon="4.52811">
        <ele>503.53</ele>
        <time>2017-03-26T11:31:34Z</time>
      </trkpt>
      <trkpt lat="45.42521" lon="4.52811">
        <ele>503.53</ele>
        <time>2017-03-26T11:31:35Z</time>
      </trkpt>
      <trkpt lat="45.42521" lon="4.52811">
        <ele>503.53</ele>
        <time>2017-03-26T11:31:36Z</time>
      </trkpt>
      <trkpt lat="45.42521" lon="4.52811">
        <ele>503.53</ele>
        <time>2017-03-26T11:31:37Z</time>
      </trkpt>
      <trkpt lat="45.42521" lon="4.52811">
        <ele>503.53</ele>
        <time>2017-03-26T11:31:38Z</time>
      </trkpt>
      <trkpt lat="45.42521" lon="4.52811">
        <ele>503.53</ele>
        <time>2017-03-26T11:31:39Z</time>
      </trkpt>
      <trkpt lat="45.42521" lon="4.52811">
        <ele>503.53</ele>
        <time>2017-03-26T11:31:40Z</time>
      </trkpt>
      <trkpt lat="45.42521" lon="4.52811">
        <ele>503.53</ele>
        <time>2017-03-26T11:31:41Z</time>
      </trkpt>
      <trkpt lat="45.42521" lon="4.52811">
        <ele>503.53</ele>
        <time>2017-03-26T11:31:42Z</time>
      </trkpt>
      <trkpt lat="45.42521" lon="4.52811">
        <ele>503.53</ele>
        <time>2017-03-26T11:31:43Z</time>
      </trkpt>
      <trkpt lat="45.42521" lon="4.52811">
        <ele>503.53</ele>
        <time>2017-03-26T11:31:44Z</time>
      </trkpt>
      <trkpt lat="45.42521" lon="4.52811">
        <ele>503.53</ele>
        <time>2017-03-26T11:31:45Z</time>
      </trkpt>
      <trkpt lat="45.42521" lon="4.52811">
        <ele>503.53</ele>
        <time>2017-03-26T11:31:46Z</time>
      </trkpt>
      <trkpt lat="45.42521" lon="4.52811">
        <ele>503.53</ele>
        <time>2017-03-26T11:31:47Z</time>
      </trkpt>
      <trkpt lat="45.42521" lon="4.52811">
        <ele>503.53</ele>
        <time>2017-03-26T11:31:48Z</time>
      </trkpt>
      <trkpt lat="45.42521" lon="4.52811">
        <ele>503.53</ele>
        <time>2017-03-26T11:31:49Z</time>
      </trkpt>
      <trkpt lat="45.42521" lon="4.52811">
        <ele>503.53</ele>
        <time>2017-03-26T11:31:50Z</time>
      </trkpt>
      <trkpt lat="45.42521" lon="4.52811">
        <ele>503.53</ele>
        <time>2017-03-26T11:31:51Z</time>
      </trkpt>
      <trkpt lat="45.42521" lon="4.52811">
        <ele>503.53</ele>
        <time>2017-03-26T11:31:52Z</time>
      </trkpt>
      <trkpt lat="45.42521" lon="4.52811">
        <ele>503.53</ele>
        <time>2017-03-26T11:31:53Z</time>
      </trkpt>
      <trkpt lat="45.42521" lon="4.52811">
        <ele>503.53</ele>
        <time>2017-03-26T11:31:54Z</time>
      </trkpt>
      <trkpt lat="45.42521" lon="4.52811">
        <ele>503.53</ele>
        <time>2017-03-26T11:31:55Z</time>
      </trkpt>
      <trkpt lat="45.42521" lon="4.52811">
        <ele>503.53</ele>
        <time>2017-03-26T11:31:56Z</time>
      </trkpt>
      <trkpt lat="45.42521" lon="4.52811">
        <ele>503.53</ele>
        <time>2017-03-26T11:31:57Z</time>
      </trkpt>
      <trkpt lat="45.42521" lon="4.52811">
        <ele>503.53</ele>
        <time>2017-03-26T11:31:58Z</time>
      </trkpt>
      <trkpt lat="45.42521" lon="4.52811">
        <ele>503.53</ele>
        <time>2017-03-26T11:31:59Z</time>
      </trkpt>
      <trkpt lat="45.42521" lon="4.52811">
        <ele>503.53</ele>
        <time>2017-03-26T11:32:00Z</time>
      </trkpt>
      <trkpt lat="45.42521" lon="4.52811">
        <ele>503.53</ele>
        <time>2017-03-26T11:32:01Z</time>
      </trkpt>
      <trkpt lat="45.42521" lon="4.52811">
        <ele>503.53</ele>
        <time>2017-03-26T11:32:02Z</time>
      </trkpt>
      <trkpt lat="45.42521" lon="4.52811">
        <ele>503.53</ele>
        <time>2017-03-26T11:32:03Z</time>
      </trkpt>
      <trkpt lat="45.42521" lon="4.52811">
        <ele>503.53</ele>
        <time>2017-03-26T11:32:04Z</time>
      </trkpt>
      <trkpt lat="45.42521" lon="4.52811">
        <ele>503.53</ele>
        <time>2017-03-26T11:32:05Z</time>
      </trkpt>
      <trkpt lat="45.42521" lon="4.52811">
        <ele>503.53</ele>
        <time>2017-03-26T11:32:06Z</time>
      </trkpt>
      <trkpt lat="45.42521" lon="4.52811">
        <ele>503.53</ele>
        <time>2017-03-26T11:32:07Z</time>
      </trkpt>
      <trkpt lat="45.42521" lon="4.52811">
        <ele>503.53</ele>
        <time>2017-03-26T11:32:08Z</time>
      </trkpt>
      <trkpt lat="45.42521" lon="4.52811">
        <ele>503.53</ele>
        <time>2017-03-26T11:32:09Z</time>
      </trkpt>
      <trkpt lat="45.42521" lon="4.52811">
        <ele>503.53</ele>
        <time>2017-03-26T11:32:10Z</time>
      </trkpt>
      <trkpt lat="45.42521" lon="4.52811">
        <ele>503.53</ele>
        <time>2017-03-26T11:32:11Z</time>
      </trkpt>
      <trkpt lat="45.42521" lon="4.52811">
        <ele>503.53</ele>
        <time>2017-03-26T11:32:12Z</time>
      </trkpt>
      <trkpt lat="45.42521" lon="4.52811">
        <ele>503.53</ele>
        <time>2017-03-26T11:32:13Z</time>
      </trkpt>
      <trkpt lat="45.42521" lon="4.52811">
        <ele>503.53</ele>
        <time>2017-03-26T11:32:14Z</time>
      </trkpt>
      <trkpt lat="45.42521" lon="4.52811">
        <ele>503.53</ele>
        <time>2017-03-26T11:32:15Z</time>
      </trkpt>
      <trkpt lat="45.42521" lon="4.52811">
        <ele>503.53</ele>
        <time>2017-03-26T11:32:16Z</time>
      </trkpt>
      <trkpt lat="45.42521" lon="4.52811">
        <ele>503.53</ele>
        <time>2017-03-26T11:32:17Z</time>
      </trkpt>
      <trkpt lat="45.42521" lon="4.52811">
        <ele>503.53</ele>
        <time>2017-03-26T11:32:18Z</time>
      </trkpt>
      <trkpt lat="45.42521" lon="4.52811">
        <ele>503.53</ele>
        <time>2017-03-26T11:32:19Z</time>
      </trkpt>
      <trkpt lat="45.42521" lon="4.52811">
        <ele>503.53</ele>
        <time>2017-03-26T11:32:20Z</time>
      </trkpt>
      <trkpt lat="45.42521" lon="4.52811">
        <ele>503.53</ele>
        <time>2017-03-26T11:32:21Z</time>
      </trkpt>
      <trkpt lat="45.42521" lon="4.52811">
        <ele>503.53</ele>
        <time>2017-03-26T11:32:22Z</time>
      </trkpt>
      <trkpt lat="45.42521" lon="4.52811">
        <ele>503.53</ele>
        <time>2017-03-26T11:32:23Z</time>
      </trkpt>
      <trkpt lat="45.42521" lon="4.52811">
        <ele>503.53</ele>
        <time>2017-03-26T11:32:24Z</time>
      </trkpt>
      <trkpt lat="45.42521" lon="4.52811">
        <ele>503.53</ele>
        <time>2017-03-26T11:32:25Z</time>
      </trkpt>
      <trkpt lat="45.42521" lon="4.52811">
        <ele>503.53</ele>
        <time>2017-03-26T11:32:26Z</time>
      </trkpt>
      <trkpt lat="45.42521" lon="4.52811">
        <ele>503.53</ele>
        <time>2017-03-26T11:32:27Z</time>
      </trkpt>
      <trkpt lat="45.42521" lon="4.52811">
        <ele>503.53</ele>
        <time>2017-03-26T11:32:28Z</time>
      </trkpt>
      <trkpt lat="45.42521" lon="4.52811">
        <ele>503.53</ele>
        <time>2017-03-26T11:32:29Z</time>
      </trkpt>
      <trkpt lat="45.42521" lon="4.52811">
        <ele>503.53</ele>
        <time>2017-03-26T11:32:30Z</time>
      </trkpt>
      <trkpt lat="45.42521" lon="4.52811">
        <ele>503.53</ele>
        <time>2017-03-26T11:32:31Z</time>
      </trkpt>
      <trkpt lat="45.42521" lon="4.52811">
        <ele>503.53</ele>
        <time>2017-03-26T11:32:32Z</time>
      </trkpt>
      <trkpt lat="45.42521" lon="4.52811">
        <ele>503.53</ele>
        <time>2017-03-26T11:32:33Z</time>
      </trkpt>
      <trkpt lat="45.42521" lon="4.52811">
        <ele>503.53</ele>
        <time>2017-03-26T11:32:34Z</time>
      </trkpt>
      <trkpt lat="45.42521" lon="4.52811">
        <ele>503.53</ele>
        <time>2017-03-26T11:32:35Z</time>
      </trkpt>
      <trkpt lat="45.42521" lon="4.52811">
        <ele>503.53</ele>
        <time>2017-03-26T11:32:36Z</time>
      </trkpt>
      <trkpt lat="45.42521" lon="4.52811">
        <ele>503.53</ele>
        <time>2017-03-26T11:32:37Z</time>
      </trkpt>
      <trkpt lat="45.42521" lon="4.52811">
        <ele>503.53</ele>
        <time>2017-03-26T11:32:38Z</time>
      </trkpt>
      <trkpt lat="45.42521" lon="4.52811">
        <ele>503.53</ele>
        <time>2017-03-26T11:32:39Z</time>
      </trkpt>
      <trkpt lat="45.42521" lon="4.52811">
        <ele>503.53</ele>
        <time>2017-03-26T11:32:40Z</time>
      </trkpt>
      <trkpt lat="45.42521" lon="4.52811">
        <ele>503.53</ele>
        <time>2017-03-26T11:32:41Z</time>
      </trkpt>
      <trkpt lat="45.42521" lon="4.52811">
        <ele>503.53</ele>
        <time>2017-03-26T11:32:42Z</time>
      </trkpt>
      <trkpt lat="45.42521" lon="4.52811">
        <ele>503.53</ele>
        <time>2017-03-26T11:32:43Z</time>
      </trkpt>
      <trkpt lat="45.42521" lon="4.52811">
        <ele>503.53</ele>
        <time>2017-03-26T11:32:44Z</time>
      </trkpt>
      <trkpt lat="45.42521" lon="4.52811">
        <ele>503.53</ele>
        <time>2017-03-26T11:32:45Z</time>
      </trkpt>
      <trkpt lat="45.42521" lon="4.52811">
        <ele>503.53</ele>
        <time>2017-03-26T11:32:46Z</time>
      </trkpt>
      <trkpt lat="45.42521" lon="4.52811">
        <ele>503.53</ele>
        <time>2017-03-26T11:32:47Z</time>
      </trkpt>
      <trkpt lat="45.42521" lon="4.52811">
        <ele>503.53</ele>
        <time>2017-03-26T11:32:48Z</time>
      </trkpt>
      <trkpt lat="45.42521" lon="4.52811">
        <ele>503.53</ele>
        <time>2017-03-26T11:32:49Z</time>
      </trkpt>
      <trkpt lat="45.42521" lon="4.52811">
        <ele>503.53</ele>
        <time>2017-03-26T11:32:50Z</time>
      </trkpt>
      <trkpt lat="45.42521" lon="4.52811">
        <ele>503.53</ele>
        <time>2017-03-26T11:32:51Z</time>
      </trkpt>
      <trkpt lat="45.42521" lon="4.52811">
        <ele>503.53</ele>
        <time>2017-03-26T11:32:52Z</time>
      </trkpt>
      <trkpt lat="45.42521" lon="4.52811">
        <ele>503.53</ele>
        <time>2017-03-26T11:32:53Z</time>
      </trkpt>
      <trkpt lat="45.42521" lon="4.52811">
        <ele>503.53</ele>
        <time>2017-03-26T11:32:54Z</time>
      </trkpt>
      <trkpt lat="45.42521" lon="4.52811">
        <ele>503.53</ele>
        <time>2017-03-26T11:32:55Z</time>
      </trkpt>
      <trkpt lat="45.42521" lon="4.52811">
        <ele>503.53</ele>
        <time>2017-03-26T11:32:56Z</time>
      </trkpt>
      <trkpt lat="45.42521" lon="4.52811">
        <ele>503.53</ele>
        <time>2017-03-26T11:32:57Z</time>
      </trkpt>
      <trkpt lat="45.42521" lon="4.52811">
        <ele>503.53</ele>
        <time>2017-03-26T11:32:58Z</time>
      </trkpt>
      <trkpt lat="45.42521" lon="4.52811">
        <ele>503.53</ele>
        <time>2017-03-26T11:32:59Z</time>
      </trkpt>
      <trkpt lat="45.42521" lon="4.52811">
        <ele>503.53</ele>
        <time>2017-03-26T11:33:00Z</time>
      </trkpt>
      <trkpt lat="45.42521" lon="4.52811">
        <ele>503.53</ele>
        <time>2017-03-26T11:33:01Z</time>
      </trkpt>
      <trkpt lat="45.42521" lon="4.52811">
        <ele>503.53</ele>
        <time>2017-03-26T11:33:02Z</time>
      </trkpt>
      <trkpt lat="45.42521" lon="4.52811">
        <ele>503.53</ele>
        <time>2017-03-26T11:33:03Z</time>
      </trkpt>
      <trkpt lat="45.42521" lon="4.52811">
        <ele>503.53</ele>
        <time>2017-03-26T11:33:04Z</time>
      </trkpt>
      <trkpt lat="45.42521" lon="4.52811">
        <ele>503.53</ele>
        <time>2017-03-26T11:33:05Z</time>
      </trkpt>
      <trkpt lat="45.42521" lon="4.52811">
        <ele>503.53</ele>
        <time>2017-03-26T11:33:06Z</time>
      </trkpt>
      <trkpt lat="45.42521" lon="4.52811">
        <ele>503.53</ele>
        <time>2017-03-26T11:33:07Z</time>
      </trkpt>
      <trkpt lat="45.42521" lon="4.52811">
        <ele>503.53</ele>
        <time>2017-03-26T11:33:08Z</time>
      </trkpt>
      <trkpt lat="45.42513" lon="4.52813">
        <ele>503.61</ele>
        <time>2017-03-26T11:33:09Z</time>
      </trkpt>
      <trkpt lat="45.42512" lon="4.52813">
        <ele>503.63</ele>
        <time>2017-03-26T11:33:10Z</time>
      </trkpt>
      <trkpt lat="45.42512" lon="4.52813">
        <ele>503.55</ele>
        <time>2017-03-26T11:33:11Z</time>
      </trkpt>
      <trkpt lat="45.42511" lon="4.52813">
        <ele>503.53</ele>
        <time>2017-03-26T11:33:12Z</time>
      </trkpt>
      <trkpt lat="45.42511" lon="4.52813">
        <ele>503.53</ele>
        <time>2017-03-26T11:33:13Z</time>
      </trkpt>
      <trkpt lat="45.42511" lon="4.52813">
        <ele>503.53</ele>
        <time>2017-03-26T11:33:14Z</time>
      </trkpt>
      <trkpt lat="45.42511" lon="4.52813">
        <ele>503.53</ele>
        <time>2017-03-26T11:33:15Z</time>
      </trkpt>
      <trkpt lat="45.42511" lon="4.52813">
        <ele>503.53</ele>
        <time>2017-03-26T11:33:16Z</time>
      </trkpt>
      <trkpt lat="45.42511" lon="4.52813">
        <ele>503.53</ele>
        <time>2017-03-26T11:33:17Z</time>
      </trkpt>
      <trkpt lat="45.42511" lon="4.52813">
        <ele>503.53</ele>
        <time>2017-03-26T11:33:18Z</time>
      </trkpt>
      <trkpt lat="45.42511" lon="4.52813">
        <ele>503.53</ele>
        <time>2017-03-26T11:33:19Z</time>
      </trkpt>
      <trkpt lat="45.42511" lon="4.52813">
        <ele>503.53</ele>
        <time>2017-03-26T11:33:20Z</time>
      </trkpt>
      <trkpt lat="45.42511" lon="4.52813">
        <ele>503.53</ele>
        <time>2017-03-26T11:33:21Z</time>
      </trkpt>
      <trkpt lat="45.42511" lon="4.52813">
        <ele>503.53</ele>
        <time>2017-03-26T11:33:22Z</time>
      </trkpt>
      <trkpt lat="45.42511" lon="4.52813">
        <ele>503.53</ele>
        <time>2017-03-26T11:33:23Z</time>
      </trkpt>
      <trkpt lat="45.42511" lon="4.52813">
        <ele>503.53</ele>
        <time>2017-03-26T11:33:24Z</time>
      </trkpt>
      <trkpt lat="45.42511" lon="4.52813">
        <ele>503.53</ele>
        <time>2017-03-26T11:33:25Z</time>
      </trkpt>
      <trkpt lat="45.42511" lon="4.52813">
        <ele>503.53</ele>
        <time>2017-03-26T11:33:26Z</time>
      </trkpt>
      <trkpt lat="45.42511" lon="4.52813">
        <ele>503.53</ele>
        <time>2017-03-26T11:33:27Z</time>
      </trkpt>
      <trkpt lat="45.42511" lon="4.52813">
        <ele>503.53</ele>
        <time>2017-03-26T11:33:28Z</time>
      </trkpt>
      <trkpt lat="45.42511" lon="4.52813">
        <ele>503.53</ele>
        <time>2017-03-26T11:33:29Z</time>
      </trkpt>
      <trkpt lat="45.42511" lon="4.52813">
        <ele>503.53</ele>
        <time>2017-03-26T11:33:30Z</time>
      </trkpt>
      <trkpt lat="45.42511" lon="4.52813">
        <ele>503.53</ele>
        <time>2017-03-26T11:33:31Z</time>
      </trkpt>
      <trkpt lat="45.42511" lon="4.52813">
        <ele>503.53</ele>
        <time>2017-03-26T11:33:32Z</time>
      </trkpt>
      <trkpt lat="45.42511" lon="4.52813">
        <ele>503.53</ele>
        <time>2017-03-26T11:33:33Z</time>
      </trkpt>
      <trkpt lat="45.42511" lon="4.52813">
        <ele>503.53</ele>
        <time>2017-03-26T11:33:34Z</time>
      </trkpt>
      <trkpt lat="45.42503" lon="4.52817">
        <ele>503.21</ele>
        <time>2017-03-26T11:33:35Z</time>
      </trkpt>
      <trkpt lat="45.42503" lon="4.52817">
        <ele>503.07</ele>
        <time>2017-03-26T11:33:36Z</time>
      </trkpt>
      <trkpt lat="45.42502" lon="4.52817">
        <ele>503.04</ele>
        <time>2017-03-26T11:33:37Z</time>
      </trkpt>
      <trkpt lat="45.42502" lon="4.52817">
        <ele>503.03</ele>
        <time>2017-03-26T11:33:38Z</time>
      </trkpt>
      <trkpt lat="45.42502" lon="4.52817">
        <ele>503.03</ele>
        <time>2017-03-26T11:33:39Z</time>
      </trkpt>
      <trkpt lat="45.42502" lon="4.52817">
        <ele>503.03</ele>
        <time>2017-03-26T11:33:40Z</time>
      </trkpt>
      <trkpt lat="45.42502" lon="4.52817">
        <ele>503.03</ele>
        <time>2017-03-26T11:33:41Z</time>
      </trkpt>
      <trkpt lat="45.42502" lon="4.52817">
        <ele>503.03</ele>
        <time>2017-03-26T11:33:42Z</time>
      </trkpt>
      <trkpt lat="45.42502" lon="4.52817">
        <ele>503.03</ele>
        <time>2017-03-26T11:33:43Z</time>
      </trkpt>
      <trkpt lat="45.42502" lon="4.52817">
        <ele>503.03</ele>
        <time>2017-03-26T11:33:44Z</time>
      </trkpt>
      <trkpt lat="45.42502" lon="4.52817">
        <ele>503.03</ele>
        <time>2017-03-26T11:33:45Z</time>
      </trkpt>
      <trkpt lat="45.42502" lon="4.52817">
        <ele>503.03</ele>
        <time>2017-03-26T11:33:46Z</time>
      </trkpt>
      <trkpt lat="45.42502" lon="4.52817">
        <ele>503.03</ele>
        <time>2017-03-26T11:33:47Z</time>
      </trkpt>
      <trkpt lat="45.42502" lon="4.52817">
        <ele>503.03</ele>
        <time>2017-03-26T11:33:48Z</time>
      </trkpt>
      <trkpt lat="45.42502" lon="4.52817">
        <ele>503.03</ele>
        <time>2017-03-26T11:33:49Z</time>
      </trkpt>
      <trkpt lat="45.42502" lon="4.52817">
        <ele>503.03</ele>
        <time>2017-03-26T11:33:50Z</time>
      </trkpt>
      <trkpt lat="45.42502" lon="4.52817">
        <ele>503.03</ele>
        <time>2017-03-26T11:33:51Z</time>
      </trkpt>
      <trkpt lat="45.42502" lon="4.52817">
        <ele>503.03</ele>
        <time>2017-03-26T11:33:52Z</time>
      </trkpt>
      <trkpt lat="45.42502" lon="4.52817">
        <ele>503.03</ele>
        <time>2017-03-26T11:33:53Z</time>
      </trkpt>
      <trkpt lat="45.42502" lon="4.52817">
        <ele>503.03</ele>
        <time>2017-03-26T11:33:54Z</time>
      </trkpt>
      <trkpt lat="45.42502" lon="4.52817">
        <ele>503.03</ele>
        <time>2017-03-26T11:33:55Z</time>
      </trkpt>
      <trkpt lat="45.42502" lon="4.52817">
        <ele>503.03</ele>
        <time>2017-03-26T11:33:56Z</time>
      </trkpt>
      <trkpt lat="45.42502" lon="4.52817">
        <ele>503.03</ele>
        <time>2017-03-26T11:33:57Z</time>
      </trkpt>
      <trkpt lat="45.42502" lon="4.52817">
        <ele>503.03</ele>
        <time>2017-03-26T11:33:58Z</time>
      </trkpt>
      <trkpt lat="45.42502" lon="4.52817">
        <ele>503.03</ele>
        <time>2017-03-26T11:33:59Z</time>
      </trkpt>
      <trkpt lat="45.42502" lon="4.52817">
        <ele>503.03</ele>
        <time>2017-03-26T11:34:00Z</time>
      </trkpt>
      <trkpt lat="45.42502" lon="4.52817">
        <ele>503.03</ele>
        <time>2017-03-26T11:34:01Z</time>
      </trkpt>
      <trkpt lat="45.42502" lon="4.52817">
        <ele>503.03</ele>
        <time>2017-03-26T11:34:02Z</time>
      </trkpt>
      <trkpt lat="45.4251" lon="4.52811">
        <ele>502.07</ele>
        <time>2017-03-26T11:34:03Z</time>
      </trkpt>
      <trkpt lat="45.42511" lon="4.52811">
        <ele>501.8</ele>
        <time>2017-03-26T11:34:04Z</time>
      </trkpt>
      <trkpt lat="45.42512" lon="4.5281">
        <ele>501.66</ele>
        <time>2017-03-26T11:34:05Z</time>
      </trkpt>
      <trkpt lat="45.42512" lon="4.5281">
        <ele>501.56</ele>
        <time>2017-03-26T11:34:06Z</time>
      </trkpt>
      <trkpt lat="45.42512" lon="4.5281">
        <ele>501.54</ele>
        <time>2017-03-26T11:34:07Z</time>
      </trkpt>
      <trkpt lat="45.42512" lon="4.5281">
        <ele>501.53</ele>
        <time>2017-03-26T11:34:08Z</time>
      </trkpt>
      <trkpt lat="45.42512" lon="4.5281">
        <ele>501.53</ele>
        <time>2017-03-26T11:34:09Z</time>
      </trkpt>
      <trkpt lat="45.42512" lon="4.5281">
        <ele>501.53</ele>
        <time>2017-03-26T11:34:10Z</time>
      </trkpt>
      <trkpt lat="45.42512" lon="4.5281">
        <ele>501.53</ele>
        <time>2017-03-26T11:34:11Z</time>
      </trkpt>
      <trkpt lat="45.42512" lon="4.5281">
        <ele>501.53</ele>
        <time>2017-03-26T11:34:12Z</time>
      </trkpt>
      <trkpt lat="45.42512" lon="4.5281">
        <ele>501.53</ele>
        <time>2017-03-26T11:34:13Z</time>
      </trkpt>
      <trkpt lat="45.42512" lon="4.5281">
        <ele>501.53</ele>
        <time>2017-03-26T11:34:14Z</time>
      </trkpt>
      <trkpt lat="45.42512" lon="4.5281">
        <ele>501.53</ele>
        <time>2017-03-26T11:34:15Z</time>
      </trkpt>
      <trkpt lat="45.42512" lon="4.5281">
        <ele>501.53</ele>
        <time>2017-03-26T11:34:16Z</time>
      </trkpt>
      <trkpt lat="45.42512" lon="4.5281">
        <ele>501.53</ele>
        <time>2017-03-26T11:34:17Z</time>
      </trkpt>
      <trkpt lat="45.42512" lon="4.5281">
        <ele>501.53</ele>
        <time>2017-03-26T11:34:18Z</time>
      </trkpt>
      <trkpt lat="45.42512" lon="4.5281">
        <ele>501.53</ele>
        <time>2017-03-26T11:34:19Z</time>
      </trkpt>
      <trkpt lat="45.42512" lon="4.5281">
        <ele>501.53</ele>
        <time>2017-03-26T11:34:20Z</time>
      </trkpt>
      <trkpt lat="45.42512" lon="4.5281">
        <ele>501.53</ele>
        <time>2017-03-26T11:34:21Z</time>
      </trkpt>
      <trkpt lat="45.42512" lon="4.5281">
        <ele>501.53</ele>
        <time>2017-03-26T11:34:22Z</time>
      </trkpt>
      <trkpt lat="45.42521" lon="4.52812">
        <ele>500.89</ele>
        <time>2017-03-26T11:34:23Z</time>
      </trkpt>
      <trkpt lat="45.42521" lon="4.52812">
        <ele>500.68</ele>
        <time>2017-03-26T11:34:24Z</time>
      </trkpt>
      <trkpt lat="45.42521" lon="4.52813">
        <ele>500.56</ele>
        <time>2017-03-26T11:34:25Z</time>
      </trkpt>
      <trkpt lat="45.42521" lon="4.52813">
        <ele>500.46</ele>
        <time>2017-03-26T11:34:26Z</time>
      </trkpt>
      <trkpt lat="45.42521" lon="4.52813">
        <ele>500.44</ele>
        <time>2017-03-26T11:34:27Z</time>
      </trkpt>
      <trkpt lat="45.42521" lon="4.52813">
        <ele>500.43</ele>
        <time>2017-03-26T11:34:28Z</time>
      </trkpt>
      <trkpt lat="45.42521" lon="4.52813">
        <ele>500.43</ele>
        <time>2017-03-26T11:34:29Z</time>
      </trkpt>
      <trkpt lat="45.42521" lon="4.52813">
        <ele>500.43</ele>
        <time>2017-03-26T11:34:30Z</time>
      </trkpt>
      <trkpt lat="45.42521" lon="4.52813">
        <ele>500.43</ele>
        <time>2017-03-26T11:34:31Z</time>
      </trkpt>
      <trkpt lat="45.42521" lon="4.52813">
        <ele>500.43</ele>
        <time>2017-03-26T11:34:32Z</time>
      </trkpt>
      <trkpt lat="45.42521" lon="4.52813">
        <ele>500.43</ele>
        <time>2017-03-26T11:34:33Z</time>
      </trkpt>
      <trkpt lat="45.42521" lon="4.52813">
        <ele>500.43</ele>
        <time>2017-03-26T11:34:34Z</time>
      </trkpt>
      <trkpt lat="45.42521" lon="4.52813">
        <ele>500.43</ele>
        <time>2017-03-26T11:34:35Z</time>
      </trkpt>
      <trkpt lat="45.42521" lon="4.52813">
        <ele>500.43</ele>
        <time>2017-03-26T11:34:36Z</time>
      </trkpt>
      <trkpt lat="45.42521" lon="4.52813">
        <ele>500.43</ele>
        <time>2017-03-26T11:34:37Z</time>
      </trkpt>
      <trkpt lat="45.42521" lon="4.52813">
        <ele>500.43</ele>
        <time>2017-03-26T11:34:38Z</time>
      </trkpt>
      <trkpt lat="45.42521" lon="4.52813">
        <ele>500.43</ele>
        <time>2017-03-26T11:34:39Z</time>
      </trkpt>
      <trkpt lat="45.42521" lon="4.52813">
        <ele>500.43</ele>
        <time>2017-03-26T11:34:40Z</time>
      </trkpt>
      <trkpt lat="45.42521" lon="4.52813">
        <ele>500.43</ele>
        <time>2017-03-26T11:34:41Z</time>
      </trkpt>
      <trkpt lat="45.42521" lon="4.52813">
        <ele>500.43</ele>
        <time>2017-03-26T11:34:42Z</time>
      </trkpt>
      <trkpt lat="45.42521" lon="4.52813">
        <ele>500.43</ele>
        <time>2017-03-26T11:34:43Z</time>
      </trkpt>
      <trkpt lat="45.42521" lon="4.52813">
        <ele>500.43</ele>
        <time>2017-03-26T11:34:44Z</time>
      </trkpt>
      <trkpt lat="45.42521" lon="4.52813">
        <ele>500.43</ele>
        <time>2017-03-26T11:34:45Z</time>
      </trkpt>
      <trkpt lat="45.42521" lon="4.52813">
        <ele>500.43</ele>
        <time>2017-03-26T11:34:46Z</time>
      </trkpt>
      <trkpt lat="45.42521" lon="4.52813">
        <ele>500.43</ele>
        <time>2017-03-26T11:34:47Z</time>
      </trkpt>
      <trkpt lat="45.42521" lon="4.52813">
        <ele>500.43</ele>
        <time>2017-03-26T11:34:48Z</time>
      </trkpt>
      <trkpt lat="45.42521" lon="4.52813">
        <ele>500.43</ele>
        <time>2017-03-26T11:34:49Z</time>
      </trkpt>
      <trkpt lat="45.42521" lon="4.52813">
        <ele>500.43</ele>
        <time>2017-03-26T11:34:50Z</time>
      </trkpt>
      <trkpt lat="45.42521" lon="4.52813">
        <ele>500.43</ele>
        <time>2017-03-26T11:34:51Z</time>
      </trkpt>
      <trkpt lat="45.42521" lon="4.52813">
        <ele>500.43</ele>
        <time>2017-03-26T11:34:52Z</time>
      </trkpt>
      <trkpt lat="45.42521" lon="4.52813">
        <ele>500.43</ele>
        <time>2017-03-26T11:34:53Z</time>
      </trkpt>
      <trkpt lat="45.4253" lon="4.52814">
        <ele>500.03</ele>
        <time>2017-03-26T11:34:54Z</time>
      </trkpt>
      <trkpt lat="45.42531" lon="4.52814">
        <ele>499.95</ele>
        <time>2017-03-26T11:34:55Z</time>
      </trkpt>
      <trkpt lat="45.42531" lon="4.52814">
        <ele>499.93</ele>
        <time>2017-03-26T11:34:56Z</time>
      </trkpt>
      <trkpt lat="45.42531" lon="4.52814">
        <ele>499.93</ele>
        <time>2017-03-26T11:34:57Z</time>
      </trkpt>
      <trkpt lat="45.42531" lon="4.52814">
        <ele>499.93</ele>
        <time>2017-03-26T11:34:58Z</time>
      </trkpt>
      <trkpt lat="45.42531" lon="4.52814">
        <ele>499.93</ele>
        <time>2017-03-26T11:34:59Z</time>
      </trkpt>
      <trkpt lat="45.42531" lon="4.52814">
        <ele>499.93</ele>
        <time>2017-03-26T11:35:00Z</time>
      </trkpt>
      <trkpt lat="45.42531" lon="4.52814">
        <ele>499.93</ele>
        <time>2017-03-26T11:35:01Z</time>
      </trkpt>
      <trkpt lat="45.42531" lon="4.52814">
        <ele>499.93</ele>
        <time>2017-03-26T11:35:02Z</time>
      </trkpt>
      <trkpt lat="45.42531" lon="4.52814">
        <ele>499.93</ele>
        <time>2017-03-26T11:35:03Z</time>
      </trkpt>
      <trkpt lat="45.42531" lon="4.52814">
        <ele>499.93</ele>
        <time>2017-03-26T11:35:04Z</time>
      </trkpt>
      <trkpt lat="45.42531" lon="4.52814">
        <ele>499.93</ele>
        <time>2017-03-26T11:35:05Z</time>
      </trkpt>
      <trkpt lat="45.42531" lon="4.52814">
        <ele>499.93</ele>
        <time>2017-03-26T11:35:06Z</time>
      </trkpt>
      <trkpt lat="45.42531" lon="4.52814">
        <ele>499.93</ele>
        <time>2017-03-26T11:35:07Z</time>
      </trkpt>
      <trkpt lat="45.42531" lon="4.52814">
        <ele>499.93</ele>
        <time>2017-03-26T11:35:08Z</time>
      </trkpt>
      <trkpt lat="45.42531" lon="4.52814">
        <ele>499.93</ele>
        <time>2017-03-26T11:35:09Z</time>
      </trkpt>
      <trkpt lat="45.42531" lon="4.52814">
        <ele>499.93</ele>
        <time>2017-03-26T11:35:10Z</time>
      </trkpt>
      <trkpt lat="45.42531" lon="4.52814">
        <ele>499.93</ele>
        <time>2017-03-26T11:35:11Z</time>
      </trkpt>
      <trkpt lat="45.42531" lon="4.52814">
        <ele>499.93</ele>
        <time>2017-03-26T11:35:12Z</time>
      </trkpt>
      <trkpt lat="45.42531" lon="4.52814">
        <ele>499.93</ele>
        <time>2017-03-26T11:35:13Z</time>
      </trkpt>
      <trkpt lat="45.42531" lon="4.52814">
        <ele>499.93</ele>
        <time>2017-03-26T11:35:14Z</time>
      </trkpt>
      <trkpt lat="45.42531" lon="4.52814">
        <ele>499.93</ele>
        <time>2017-03-26T11:35:15Z</time>
      </trkpt>
      <trkpt lat="45.42531" lon="4.52814">
        <ele>499.93</ele>
        <time>2017-03-26T11:35:16Z</time>
      </trkpt>
      <trkpt lat="45.42531" lon="4.52814">
        <ele>499.93</ele>
        <time>2017-03-26T11:35:17Z</time>
      </trkpt>
      <trkpt lat="45.42531" lon="4.52814">
        <ele>499.93</ele>
        <time>2017-03-26T11:35:18Z</time>
      </trkpt>
      <trkpt lat="45.42531" lon="4.52814">
        <ele>499.93</ele>
        <time>2017-03-26T11:35:19Z</time>
      </trkpt>
      <trkpt lat="45.42531" lon="4.52814">
        <ele>499.93</ele>
        <time>2017-03-26T11:35:20Z</time>
      </trkpt>
      <trkpt lat="45.42531" lon="4.52814">
        <ele>499.93</ele>
        <time>2017-03-26T11:35:21Z</time>
      </trkpt>
      <trkpt lat="45.42531" lon="4.52814">
        <ele>499.93</ele>
        <time>2017-03-26T11:35:22Z</time>
      </trkpt>
      <trkpt lat="45.42531" lon="4.52814">
        <ele>499.93</ele>
        <time>2017-03-26T11:35:23Z</time>
      </trkpt>
      <trkpt lat="45.42531" lon="4.52814">
        <ele>499.93</ele>
        <time>2017-03-26T11:35:24Z</time>
      </trkpt>
      <trkpt lat="45.42531" lon="4.52814">
        <ele>499.93</ele>
        <time>2017-03-26T11:35:25Z</time>
      </trkpt>
      <trkpt lat="45.42531" lon="4.52814">
        <ele>499.93</ele>
        <time>2017-03-26T11:35:26Z</time>
      </trkpt>
      <trkpt lat="45.42531" lon="4.52814">
        <ele>499.93</ele>
        <time>2017-03-26T11:35:27Z</time>
      </trkpt>
      <trkpt lat="45.42531" lon="4.52814">
        <ele>499.93</ele>
        <time>2017-03-26T11:35:28Z</time>
      </trkpt>
      <trkpt lat="45.42531" lon="4.52814">
        <ele>499.93</ele>
        <time>2017-03-26T11:35:29Z</time>
      </trkpt>
      <trkpt lat="45.42531" lon="4.52814">
        <ele>499.93</ele>
        <time>2017-03-26T11:35:30Z</time>
      </trkpt>
      <trkpt lat="45.42531" lon="4.52814">
        <ele>499.93</ele>
        <time>2017-03-26T11:35:31Z</time>
      </trkpt>
      <trkpt lat="45.42531" lon="4.52814">
        <ele>499.93</ele>
        <time>2017-03-26T11:35:32Z</time>
      </trkpt>
      <trkpt lat="45.42531" lon="4.52814">
        <ele>499.93</ele>
        <time>2017-03-26T11:35:33Z</time>
      </trkpt>
      <trkpt lat="45.42531" lon="4.52814">
        <ele>499.93</ele>
        <time>2017-03-26T11:35:34Z</time>
      </trkpt>
      <trkpt lat="45.42531" lon="4.52814">
        <ele>499.93</ele>
        <time>2017-03-26T11:35:35Z</time>
      </trkpt>
      <trkpt lat="45.42531" lon="4.52814">
        <ele>499.93</ele>
        <time>2017-03-26T11:35:36Z</time>
      </trkpt>
      <trkpt lat="45.42531" lon="4.52814">
        <ele>499.93</ele>
        <time>2017-03-26T11:35:37Z</time>
      </trkpt>
      <trkpt lat="45.42531" lon="4.52814">
        <ele>499.93</ele>
        <time>2017-03-26T11:35:38Z</time>
      </trkpt>
      <trkpt lat="45.42531" lon="4.52814">
        <ele>499.93</ele>
        <time>2017-03-26T11:35:39Z</time>
      </trkpt>
      <trkpt lat="45.42531" lon="4.52814">
        <ele>499.93</ele>
        <time>2017-03-26T11:35:40Z</time>
      </trkpt>
      <trkpt lat="45.42531" lon="4.52814">
        <ele>499.93</ele>
        <time>2017-03-26T11:35:41Z</time>
      </trkpt>
      <trkpt lat="45.42531" lon="4.52814">
        <ele>499.93</ele>
        <time>2017-03-26T11:35:42Z</time>
      </trkpt>
      <trkpt lat="45.42531" lon="4.52814">
        <ele>499.93</ele>
        <time>2017-03-26T11:35:43Z</time>
      </trkpt>
      <trkpt lat="45.42531" lon="4.52814">
        <ele>499.93</ele>
        <time>2017-03-26T11:35:44Z</time>
      </trkpt>
      <trkpt lat="45.42531" lon="4.52814">
        <ele>499.93</ele>
        <time>2017-03-26T11:35:45Z</time>
      </trkpt>
      <trkpt lat="45.42531" lon="4.52814">
        <ele>499.93</ele>
        <time>2017-03-26T11:35:46Z</time>
      </trkpt>
      <trkpt lat="45.42531" lon="4.52814">
        <ele>499.93</ele>
        <time>2017-03-26T11:35:47Z</time>
      </trkpt>
      <trkpt lat="45.42531" lon="4.52814">
        <ele>499.93</ele>
        <time>2017-03-26T11:35:48Z</time>
      </trkpt>
      <trkpt lat="45.42531" lon="4.52814">
        <ele>499.93</ele>
        <time>2017-03-26T11:35:49Z</time>
      </trkpt>
      <trkpt lat="45.42531" lon="4.52814">
        <ele>499.93</ele>
        <time>2017-03-26T11:35:50Z</time>
      </trkpt>
      <trkpt lat="45.42531" lon="4.52814">
        <ele>499.93</ele>
        <time>2017-03-26T11:35:51Z</time>
      </trkpt>
      <trkpt lat="45.42531" lon="4.52814">
        <ele>499.93</ele>
        <time>2017-03-26T11:35:52Z</time>
      </trkpt>
      <trkpt lat="45.42531" lon="4.52814">
        <ele>499.93</ele>
        <time>2017-03-26T11:35:53Z</time>
      </trkpt>
      <trkpt lat="45.42531" lon="4.52814">
        <ele>499.93</ele>
        <time>2017-03-26T11:35:54Z</time>
      </trkpt>
      <trkpt lat="45.42531" lon="4.52814">
        <ele>499.93</ele>
        <time>2017-03-26T11:35:55Z</time>
      </trkpt>
      <trkpt lat="45.42531" lon="4.52814">
        <ele>499.93</ele>
        <time>2017-03-26T11:35:56Z</time>
      </trkpt>
      <trkpt lat="45.42531" lon="4.52814">
        <ele>499.93</ele>
        <time>2017-03-26T11:35:57Z</time>
      </trkpt>
      <trkpt lat="45.42531" lon="4.52814">
        <ele>499.93</ele>
        <time>2017-03-26T11:35:58Z</time>
      </trkpt>
      <trkpt lat="45.42531" lon="4.52814">
        <ele>499.93</ele>
        <time>2017-03-26T11:35:59Z</time>
      </trkpt>
      <trkpt lat="45.42527" lon="4.52817">
        <ele>499.69</ele>
        <time>2017-03-26T11:36:00Z</time>
      </trkpt>
      <trkpt lat="45.42526" lon="4.52817">
        <ele>499.64</ele>
        <time>2017-03-26T11:36:01Z</time>
      </trkpt>
      <trkpt lat="45.42526" lon="4.52816">
        <ele>499.63</ele>
        <time>2017-03-26T11:36:02Z</time>
      </trkpt>
      <trkpt lat="45.42526" lon="4.52816">
        <ele>499.71</ele>
        <time>2017-03-26T11:36:03Z</time>
      </trkpt>
      <trkpt lat="45.42526" lon="4.52816">
        <ele>499.73</ele>
        <time>2017-03-26T11:36:04Z</time>
      </trkpt>
      <trkpt lat="45.42526" lon="4.52816">
        <ele>499.73</ele>
        <time>2017-03-26T11:36:05Z</time>
      </trkpt>
      <trkpt lat="45.42526" lon="4.52816">
        <ele>499.73</ele>
        <time>2017-03-26T11:36:06Z</time>
      </trkpt>
      <trkpt lat="45.42526" lon="4.52816">
        <ele>499.73</ele>
        <time>2017-03-26T11:36:07Z</time>
      </trkpt>
      <trkpt lat="45.42526" lon="4.52816">
        <ele>499.73</ele>
        <time>2017-03-26T11:36:08Z</time>
      </trkpt>
      <trkpt lat="45.42526" lon="4.52816">
        <ele>499.73</ele>
        <time>2017-03-26T11:36:09Z</time>
      </trkpt>
      <trkpt lat="45.42526" lon="4.52816">
        <ele>499.73</ele>
        <time>2017-03-26T11:36:10Z</time>
      </trkpt>
      <trkpt lat="45.42526" lon="4.52816">
        <ele>499.73</ele>
        <time>2017-03-26T11:36:11Z</time>
      </trkpt>
      <trkpt lat="45.42526" lon="4.52816">
        <ele>499.73</ele>
        <time>2017-03-26T11:36:12Z</time>
      </trkpt>
      <trkpt lat="45.42526" lon="4.52816">
        <ele>499.73</ele>
        <time>2017-03-26T11:36:13Z</time>
      </trkpt>
      <trkpt lat="45.42526" lon="4.52816">
        <ele>499.73</ele>
        <time>2017-03-26T11:36:14Z</time>
      </trkpt>
      <trkpt lat="45.42526" lon="4.52816">
        <ele>499.73</ele>
        <time>2017-03-26T11:36:15Z</time>
      </trkpt>
      <trkpt lat="45.42526" lon="4.52816">
        <ele>499.73</ele>
        <time>2017-03-26T11:36:16Z</time>
      </trkpt>
      <trkpt lat="45.42526" lon="4.52816">
        <ele>499.73</ele>
        <time>2017-03-26T11:36:17Z</time>
      </trkpt>
      <trkpt lat="45.42526" lon="4.52816">
        <ele>499.73</ele>
        <time>2017-03-26T11:36:18Z</time>
      </trkpt>
      <trkpt lat="45.42526" lon="4.52816">
        <ele>499.73</ele>
        <time>2017-03-26T11:36:19Z</time>
      </trkpt>
      <trkpt lat="45.42526" lon="4.52816">
        <ele>499.73</ele>
        <time>2017-03-26T11:36:20Z</time>
      </trkpt>
      <trkpt lat="45.42526" lon="4.52816">
        <ele>499.73</ele>
        <time>2017-03-26T11:36:21Z</time>
      </trkpt>
      <trkpt lat="45.42526" lon="4.52816">
        <ele>499.73</ele>
        <time>2017-03-26T11:36:22Z</time>
      </trkpt>
      <trkpt lat="45.42526" lon="4.52816">
        <ele>499.73</ele>
        <time>2017-03-26T11:36:23Z</time>
      </trkpt>
      <trkpt lat="45.42526" lon="4.52816">
        <ele>499.73</ele>
        <time>2017-03-26T11:36:24Z</time>
      </trkpt>
      <trkpt lat="45.42526" lon="4.52816">
        <ele>499.73</ele>
        <time>2017-03-26T11:36:25Z</time>
      </trkpt>
      <trkpt lat="45.42526" lon="4.52816">
        <ele>499.73</ele>
        <time>2017-03-26T11:36:26Z</time>
      </trkpt>
      <trkpt lat="45.42526" lon="4.52816">
        <ele>499.73</ele>
        <time>2017-03-26T11:36:27Z</time>
      </trkpt>
      <trkpt lat="45.42526" lon="4.52816">
        <ele>499.73</ele>
        <time>2017-03-26T11:36:28Z</time>
      </trkpt>
      <trkpt lat="45.42529" lon="4.52809">
        <ele>499.89</ele>
        <time>2017-03-26T11:36:29Z</time>
      </trkpt>
      <trkpt lat="45.4253" lon="4.52809">
        <ele>499.84</ele>
        <time>2017-03-26T11:36:30Z</time>
      </trkpt>
      <trkpt lat="45.42531" lon="4.52809">
        <ele>499.83</ele>
        <time>2017-03-26T11:36:31Z</time>
      </trkpt>
      <trkpt lat="45.42532" lon="4.52809">
        <ele>499.83</ele>
        <time>2017-03-26T11:36:32Z</time>
      </trkpt>
      <trkpt lat="45.42533" lon="4.52809">
        <ele>499.83</ele>
        <time>2017-03-26T11:36:33Z</time>
      </trkpt>
      <trkpt lat="45.42534" lon="4.52809">
        <ele>499.75</ele>
        <time>2017-03-26T11:36:34Z</time>
      </trkpt>
      <trkpt lat="45.42535" lon="4.52809">
        <ele>499.73</ele>
        <time>2017-03-26T11:36:35Z</time>
      </trkpt>
      <trkpt lat="45.42536" lon="4.52809">
        <ele>499.65</ele>
        <time>2017-03-26T11:36:36Z</time>
      </trkpt>
      <trkpt lat="45.42537" lon="4.52809">
        <ele>499.55</ele>
        <time>2017-03-26T11:36:37Z</time>
      </trkpt>
      <trkpt lat="45.42539" lon="4.52809">
        <ele>499.53</ele>
        <time>2017-03-26T11:36:38Z</time>
      </trkpt>
      <trkpt lat="45.4254" lon="4.52809">
        <ele>499.45</ele>
        <time>2017-03-26T11:36:39Z</time>
      </trkpt>
      <trkpt lat="45.42541" lon="4.52809">
        <ele>499.43</ele>
        <time>2017-03-26T11:36:40Z</time>
      </trkpt>
      <trkpt lat="45.42541" lon="4.52809">
        <ele>499.35</ele>
        <time>2017-03-26T11:36:41Z</time>
      </trkpt>
      <trkpt lat="45.42542" lon="4.52809">
        <ele>499.33</ele>
        <time>2017-03-26T11:36:42Z</time>
      </trkpt>
      <trkpt lat="45.42543" lon="4.52808">
        <ele>499.33</ele>
        <time>2017-03-26T11:36:43Z</time>
      </trkpt>
      <trkpt lat="45.42545" lon="4.52809">
        <ele>499.33</ele>
        <time>2017-03-26T11:36:44Z</time>
      </trkpt>
      <trkpt lat="45.42545" lon="4.52809">
        <ele>499.33</ele>
        <time>2017-03-26T11:36:45Z</time>
      </trkpt>
      <trkpt lat="45.42547" lon="4.52807">
        <ele>499.33</ele>
        <time>2017-03-26T11:36:46Z</time>
      </trkpt>
      <trkpt lat="45.42547" lon="4.52806">
        <ele>499.25</ele>
        <time>2017-03-26T11:36:47Z</time>
      </trkpt>
      <trkpt lat="45.42548" lon="4.52805">
        <ele>499.23</ele>
        <time>2017-03-26T11:36:48Z</time>
      </trkpt>
      <trkpt lat="45.42549" lon="4.52804">
        <ele>499.23</ele>
        <time>2017-03-26T11:36:49Z</time>
      </trkpt>
      <trkpt lat="45.4255" lon="4.52803">
        <ele>499.23</ele>
        <time>2017-03-26T11:36:50Z</time>
      </trkpt>
      <trkpt lat="45.42551" lon="4.52803">
        <ele>499.23</ele>
        <time>2017-03-26T11:36:51Z</time>
      </trkpt>
      <trkpt lat="45.42552" lon="4.52803">
        <ele>499.23</ele>
        <time>2017-03-26T11:36:52Z</time>
      </trkpt>
      <trkpt lat="45.42553" lon="4.52802">
        <ele>499.15</ele>
        <time>2017-03-26T11:36:53Z</time>
      </trkpt>
      <trkpt lat="45.42553" lon="4.52801">
        <ele>499.13</ele>
        <time>2017-03-26T11:36:54Z</time>
      </trkpt>
      <trkpt lat="45.42553" lon="4.52801">
        <ele>499.13</ele>
        <time>2017-03-26T11:36:55Z</time>
      </trkpt>
      <trkpt lat="45.42553" lon="4.52801">
        <ele>499.13</ele>
        <time>2017-03-26T11:36:56Z</time>
      </trkpt>
      <trkpt lat="45.42553" lon="4.52801">
        <ele>499.13</ele>
        <time>2017-03-26T11:36:57Z</time>
      </trkpt>
      <trkpt lat="45.42553" lon="4.52801">
        <ele>499.13</ele>
        <time>2017-03-26T11:36:58Z</time>
      </trkpt>
      <trkpt lat="45.42553" lon="4.52801">
        <ele>499.13</ele>
        <time>2017-03-26T11:36:59Z</time>
      </trkpt>
      <trkpt lat="45.42557" lon="4.52797">
        <ele>499.21</ele>
        <time>2017-03-26T11:37:00Z</time>
      </trkpt>
      <trkpt lat="45.42557" lon="4.52796">
        <ele>499.23</ele>
        <time>2017-03-26T11:37:01Z</time>
      </trkpt>
      <trkpt lat="45.42558" lon="4.52794">
        <ele>499.23</ele>
        <time>2017-03-26T11:37:02Z</time>
      </trkpt>
      <trkpt lat="45.42558" lon="4.52792">
        <ele>499.15</ele>
        <time>2017-03-26T11:37:03Z</time>
      </trkpt>
      <trkpt lat="45.42558" lon="4.52792">
        <ele>499.13</ele>
        <time>2017-03-26T11:37:04Z</time>
      </trkpt>
      <trkpt lat="45.42558" lon="4.52792">
        <ele>499.13</ele>
        <time>2017-03-26T11:37:05Z</time>
      </trkpt>
      <trkpt lat="45.42558" lon="4.52792">
        <ele>499.13</ele>
        <time>2017-03-26T11:37:06Z</time>
      </trkpt>
      <trkpt lat="45.42558" lon="4.52792">
        <ele>499.13</ele>
        <time>2017-03-26T11:37:07Z</time>
      </trkpt>
      <trkpt lat="45.42558" lon="4.52792">
        <ele>499.13</ele>
        <time>2017-03-26T11:37:08Z</time>
      </trkpt>
      <trkpt lat="45.42558" lon="4.52792">
        <ele>499.13</ele>
        <time>2017-03-26T11:37:09Z</time>
      </trkpt>
      <trkpt lat="45.42558" lon="4.52792">
        <ele>499.13</ele>
        <time>2017-03-26T11:37:10Z</time>
      </trkpt>
      <trkpt lat="45.42558" lon="4.52792">
        <ele>499.13</ele>
        <time>2017-03-26T11:37:11Z</time>
      </trkpt>
      <trkpt lat="45.42558" lon="4.52792">
        <ele>499.13</ele>
        <time>2017-03-26T11:37:12Z</time>
      </trkpt>
      <trkpt lat="45.42558" lon="4.52792">
        <ele>499.13</ele>
        <time>2017-03-26T11:37:13Z</time>
      </trkpt>
      <trkpt lat="45.42558" lon="4.52792">
        <ele>499.13</ele>
        <time>2017-03-26T11:37:14Z</time>
      </trkpt>
      <trkpt lat="45.42558" lon="4.52792">
        <ele>499.13</ele>
        <time>2017-03-26T11:37:15Z</time>
      </trkpt>
      <trkpt lat="45.42558" lon="4.52792">
        <ele>499.13</ele>
        <time>2017-03-26T11:37:16Z</time>
      </trkpt>
      <trkpt lat="45.42558" lon="4.52792">
        <ele>499.13</ele>
        <time>2017-03-26T11:37:17Z</time>
      </trkpt>
      <trkpt lat="45.42558" lon="4.52792">
        <ele>499.13</ele>
        <time>2017-03-26T11:37:18Z</time>
      </trkpt>
      <trkpt lat="45.42558" lon="4.52792">
        <ele>499.13</ele>
        <time>2017-03-26T11:37:19Z</time>
      </trkpt>
      <trkpt lat="45.42558" lon="4.52792">
        <ele>499.13</ele>
        <time>2017-03-26T11:37:20Z</time>
      </trkpt>
      <trkpt lat="45.42558" lon="4.52792">
        <ele>499.13</ele>
        <time>2017-03-26T11:37:21Z</time>
      </trkpt>
      <trkpt lat="45.42558" lon="4.52792">
        <ele>499.13</ele>
        <time>2017-03-26T11:37:22Z</time>
      </trkpt>
      <trkpt lat="45.42558" lon="4.52792">
        <ele>499.13</ele>
        <time>2017-03-26T11:37:23Z</time>
      </trkpt>
      <trkpt lat="45.42558" lon="4.52792">
        <ele>499.13</ele>
        <time>2017-03-26T11:37:24Z</time>
      </trkpt>
      <trkpt lat="45.42558" lon="4.52792">
        <ele>499.13</ele>
        <time>2017-03-26T11:37:25Z</time>
      </trkpt>
      <trkpt lat="45.42558" lon="4.52792">
        <ele>499.13</ele>
        <time>2017-03-26T11:37:26Z</time>
      </trkpt>
      <trkpt lat="45.42558" lon="4.52792">
        <ele>499.13</ele>
        <time>2017-03-26T11:37:27Z</time>
      </trkpt>
      <trkpt lat="45.42558" lon="4.52792">
        <ele>499.13</ele>
        <time>2017-03-26T11:37:28Z</time>
      </trkpt>
      <trkpt lat="45.42558" lon="4.52792">
        <ele>499.13</ele>
        <time>2017-03-26T11:37:29Z</time>
      </trkpt>
      <trkpt lat="45.42558" lon="4.52792">
        <ele>499.13</ele>
        <time>2017-03-26T11:37:30Z</time>
      </trkpt>
      <trkpt lat="45.42558" lon="4.52792">
        <ele>499.13</ele>
        <time>2017-03-26T11:37:31Z</time>
      </trkpt>
      <trkpt lat="45.42558" lon="4.52792">
        <ele>499.13</ele>
        <time>2017-03-26T11:37:32Z</time>
      </trkpt>
      <trkpt lat="45.42558" lon="4.52792">
        <ele>499.13</ele>
        <time>2017-03-26T11:37:33Z</time>
      </trkpt>
      <trkpt lat="45.42558" lon="4.52792">
        <ele>499.13</ele>
        <time>2017-03-26T11:37:34Z</time>
      </trkpt>
      <trkpt lat="45.42558" lon="4.52792">
        <ele>499.13</ele>
        <time>2017-03-26T11:37:35Z</time>
      </trkpt>
      <trkpt lat="45.42558" lon="4.52792">
        <ele>499.13</ele>
        <time>2017-03-26T11:37:36Z</time>
      </trkpt>
      <trkpt lat="45.42558" lon="4.52792">
        <ele>499.13</ele>
        <time>2017-03-26T11:37:37Z</time>
      </trkpt>
      <trkpt lat="45.42558" lon="4.52792">
        <ele>499.13</ele>
        <time>2017-03-26T11:37:38Z</time>
      </trkpt>
      <trkpt lat="45.42558" lon="4.52792">
        <ele>499.13</ele>
        <time>2017-03-26T11:37:39Z</time>
      </trkpt>
      <trkpt lat="45.42558" lon="4.52792">
        <ele>499.13</ele>
        <time>2017-03-26T11:37:40Z</time>
      </trkpt>
      <trkpt lat="45.42558" lon="4.52792">
        <ele>499.13</ele>
        <time>2017-03-26T11:37:41Z</time>
      </trkpt>
      <trkpt lat="45.42558" lon="4.52792">
        <ele>499.13</ele>
        <time>2017-03-26T11:37:42Z</time>
      </trkpt>
      <trkpt lat="45.42558" lon="4.52792">
        <ele>499.13</ele>
        <time>2017-03-26T11:37:43Z</time>
      </trkpt>
      <trkpt lat="45.42558" lon="4.52792">
        <ele>499.13</ele>
        <time>2017-03-26T11:37:44Z</time>
      </trkpt>
      <trkpt lat="45.42558" lon="4.52792">
        <ele>499.13</ele>
        <time>2017-03-26T11:37:45Z</time>
      </trkpt>
      <trkpt lat="45.42558" lon="4.52792">
        <ele>499.13</ele>
        <time>2017-03-26T11:37:46Z</time>
      </trkpt>
      <trkpt lat="45.42558" lon="4.52792">
        <ele>499.13</ele>
        <time>2017-03-26T11:37:47Z</time>
      </trkpt>
      <trkpt lat="45.42558" lon="4.52792">
        <ele>499.13</ele>
        <time>2017-03-26T11:37:48Z</time>
      </trkpt>
      <trkpt lat="45.42558" lon="4.52792">
        <ele>499.13</ele>
        <time>2017-03-26T11:37:49Z</time>
      </trkpt>
      <trkpt lat="45.42558" lon="4.52792">
        <ele>499.13</ele>
        <time>2017-03-26T11:37:50Z</time>
      </trkpt>
      <trkpt lat="45.42558" lon="4.52792">
        <ele>499.13</ele>
        <time>2017-03-26T11:37:51Z</time>
      </trkpt>
      <trkpt lat="45.42558" lon="4.52792">
        <ele>499.13</ele>
        <time>2017-03-26T11:37:52Z</time>
      </trkpt>
      <trkpt lat="45.42558" lon="4.52792">
        <ele>499.13</ele>
        <time>2017-03-26T11:37:53Z</time>
      </trkpt>
      <trkpt lat="45.42558" lon="4.52792">
        <ele>499.13</ele>
        <time>2017-03-26T11:37:54Z</time>
      </trkpt>
      <trkpt lat="45.42558" lon="4.52792">
        <ele>499.13</ele>
        <time>2017-03-26T11:37:55Z</time>
      </trkpt>
      <trkpt lat="45.42558" lon="4.52792">
        <ele>499.13</ele>
        <time>2017-03-26T11:37:56Z</time>
      </trkpt>
      <trkpt lat="45.42558" lon="4.52792">
        <ele>499.13</ele>
        <time>2017-03-26T11:37:57Z</time>
      </trkpt>
      <trkpt lat="45.42558" lon="4.52792">
        <ele>499.13</ele>
        <time>2017-03-26T11:37:58Z</time>
      </trkpt>
      <trkpt lat="45.42558" lon="4.52792">
        <ele>499.13</ele>
        <time>2017-03-26T11:37:59Z</time>
      </trkpt>
      <trkpt lat="45.42558" lon="4.52792">
        <ele>499.13</ele>
        <time>2017-03-26T11:38:00Z</time>
      </trkpt>
      <trkpt lat="45.42558" lon="4.52792">
        <ele>499.13</ele>
        <time>2017-03-26T11:38:01Z</time>
      </trkpt>
      <trkpt lat="45.42558" lon="4.52792">
        <ele>499.13</ele>
        <time>2017-03-26T11:38:02Z</time>
      </trkpt>
      <trkpt lat="45.42558" lon="4.52792">
        <ele>499.13</ele>
        <time>2017-03-26T11:38:03Z</time>
      </trkpt>
      <trkpt lat="45.42558" lon="4.52792">
        <ele>499.13</ele>
        <time>2017-03-26T11:38:04Z</time>
      </trkpt>
      <trkpt lat="45.42558" lon="4.52792">
        <ele>499.13</ele>
        <time>2017-03-26T11:38:05Z</time>
      </trkpt>
      <trkpt lat="45.42558" lon="4.52792">
        <ele>499.13</ele>
        <time>2017-03-26T11:38:06Z</time>
      </trkpt>
      <trkpt lat="45.42558" lon="4.52792">
        <ele>499.13</ele>
        <time>2017-03-26T11:38:07Z</time>
      </trkpt>
      <trkpt lat="45.42558" lon="4.52792">
        <ele>499.13</ele>
        <time>2017-03-26T11:38:08Z</time>
      </trkpt>
      <trkpt lat="45.42558" lon="4.52792">
        <ele>499.13</ele>
        <time>2017-03-26T11:38:09Z</time>
      </trkpt>
      <trkpt lat="45.42558" lon="4.52792">
        <ele>499.13</ele>
        <time>2017-03-26T11:38:10Z</time>
      </trkpt>
      <trkpt lat="45.42558" lon="4.52792">
        <ele>499.13</ele>
        <time>2017-03-26T11:38:11Z</time>
      </trkpt>
      <trkpt lat="45.42558" lon="4.52792">
        <ele>499.13</ele>
        <time>2017-03-26T11:38:12Z</time>
      </trkpt>
      <trkpt lat="45.42558" lon="4.52792">
        <ele>499.13</ele>
        <time>2017-03-26T11:38:13Z</time>
      </trkpt>
      <trkpt lat="45.42558" lon="4.52792">
        <ele>499.13</ele>
        <time>2017-03-26T11:38:14Z</time>
      </trkpt>
      <trkpt lat="45.42558" lon="4.52792">
        <ele>499.13</ele>
        <time>2017-03-26T11:38:15Z</time>
      </trkpt>
      <trkpt lat="45.42558" lon="4.52792">
        <ele>499.13</ele>
        <time>2017-03-26T11:38:16Z</time>
      </trkpt>
      <trkpt lat="45.42558" lon="4.52792">
        <ele>499.13</ele>
        <time>2017-03-26T11:38:17Z</time>
      </trkpt>
      <trkpt lat="45.42558" lon="4.52792">
        <ele>499.13</ele>
        <time>2017-03-26T11:38:18Z</time>
      </trkpt>
      <trkpt lat="45.42558" lon="4.52781">
        <ele>499.45</ele>
        <time>2017-03-26T11:38:19Z</time>
      </trkpt>
      <trkpt lat="45.42558" lon="4.5278">
        <ele>499.67</ele>
        <time>2017-03-26T11:38:20Z</time>
      </trkpt>
      <trkpt lat="45.42558" lon="4.5278">
        <ele>499.8</ele>
        <time>2017-03-26T11:38:21Z</time>
      </trkpt>
      <trkpt lat="45.42558" lon="4.5278">
        <ele>499.82</ele>
        <time>2017-03-26T11:38:22Z</time>
      </trkpt>
      <trkpt lat="45.42558" lon="4.5278">
        <ele>499.83</ele>
        <time>2017-03-26T11:38:23Z</time>
      </trkpt>
      <trkpt lat="45.42558" lon="4.5278">
        <ele>499.83</ele>
        <time>2017-03-26T11:38:24Z</time>
      </trkpt>
      <trkpt lat="45.42558" lon="4.5278">
        <ele>499.83</ele>
        <time>2017-03-26T11:38:25Z</time>
      </trkpt>
      <trkpt lat="45.42558" lon="4.5278">
        <ele>499.83</ele>
        <time>2017-03-26T11:38:26Z</time>
      </trkpt>
      <trkpt lat="45.42558" lon="4.5278">
        <ele>499.83</ele>
        <time>2017-03-26T11:38:27Z</time>
      </trkpt>
      <trkpt lat="45.42558" lon="4.5278">
        <ele>499.83</ele>
        <time>2017-03-26T11:38:28Z</time>
      </trkpt>
      <trkpt lat="45.42558" lon="4.5278">
        <ele>499.83</ele>
        <time>2017-03-26T11:38:29Z</time>
      </trkpt>
      <trkpt lat="45.42558" lon="4.5278">
        <ele>499.83</ele>
        <time>2017-03-26T11:38:30Z</time>
      </trkpt>
      <trkpt lat="45.42558" lon="4.5278">
        <ele>499.83</ele>
        <time>2017-03-26T11:38:31Z</time>
      </trkpt>
      <trkpt lat="45.42558" lon="4.5278">
        <ele>499.83</ele>
        <time>2017-03-26T11:38:32Z</time>
      </trkpt>
      <trkpt lat="45.42558" lon="4.5278">
        <ele>499.83</ele>
        <time>2017-03-26T11:38:33Z</time>
      </trkpt>
      <trkpt lat="45.42558" lon="4.5278">
        <ele>499.83</ele>
        <time>2017-03-26T11:38:34Z</time>
      </trkpt>
      <trkpt lat="45.42558" lon="4.5278">
        <ele>499.83</ele>
        <time>2017-03-26T11:38:35Z</time>
      </trkpt>
      <trkpt lat="45.42558" lon="4.5278">
        <ele>499.83</ele>
        <time>2017-03-26T11:38:36Z</time>
      </trkpt>
      <trkpt lat="45.42558" lon="4.5278">
        <ele>499.83</ele>
        <time>2017-03-26T11:38:37Z</time>
      </trkpt>
      <trkpt lat="45.42558" lon="4.5278">
        <ele>499.83</ele>
        <time>2017-03-26T11:38:38Z</time>
      </trkpt>
      <trkpt lat="45.42558" lon="4.5278">
        <ele>499.83</ele>
        <time>2017-03-26T11:38:39Z</time>
      </trkpt>
      <trkpt lat="45.42558" lon="4.5278">
        <ele>499.83</ele>
        <time>2017-03-26T11:38:40Z</time>
      </trkpt>
      <trkpt lat="45.42558" lon="4.5278">
        <ele>499.83</ele>
        <time>2017-03-26T11:38:41Z</time>
      </trkpt>
      <trkpt lat="45.42558" lon="4.5278">
        <ele>499.83</ele>
        <time>2017-03-26T11:38:42Z</time>
      </trkpt>
      <trkpt lat="45.42558" lon="4.5278">
        <ele>499.83</ele>
        <time>2017-03-26T11:38:43Z</time>
      </trkpt>
      <trkpt lat="45.42558" lon="4.5278">
        <ele>499.83</ele>
        <time>2017-03-26T11:38:44Z</time>
      </trkpt>
      <trkpt lat="45.42558" lon="4.5278">
        <ele>499.83</ele>
        <time>2017-03-26T11:38:45Z</time>
      </trkpt>
      <trkpt lat="45.42558" lon="4.5278">
        <ele>499.83</ele>
        <time>2017-03-26T11:38:46Z</time>
      </trkpt>
      <trkpt lat="45.42558" lon="4.5278">
        <ele>499.83</ele>
        <time>2017-03-26T11:38:47Z</time>
      </trkpt>
      <trkpt lat="45.42558" lon="4.5278">
        <ele>499.83</ele>
        <time>2017-03-26T11:38:48Z</time>
      </trkpt>
      <trkpt lat="45.42558" lon="4.5278">
        <ele>499.83</ele>
        <time>2017-03-26T11:38:49Z</time>
      </trkpt>
      <trkpt lat="45.42558" lon="4.5278">
        <ele>499.83</ele>
        <time>2017-03-26T11:38:50Z</time>
      </trkpt>
      <trkpt lat="45.42558" lon="4.5278">
        <ele>499.83</ele>
        <time>2017-03-26T11:38:51Z</time>
      </trkpt>
      <trkpt lat="45.42558" lon="4.5278">
        <ele>499.83</ele>
        <time>2017-03-26T11:38:52Z</time>
      </trkpt>
      <trkpt lat="45.42558" lon="4.5278">
        <ele>499.83</ele>
        <time>2017-03-26T11:38:53Z</time>
      </trkpt>
      <trkpt lat="45.42558" lon="4.5278">
        <ele>499.83</ele>
        <time>2017-03-26T11:38:54Z</time>
      </trkpt>
      <trkpt lat="45.42558" lon="4.5278">
        <ele>499.83</ele>
        <time>2017-03-26T11:38:55Z</time>
      </trkpt>
      <trkpt lat="45.42558" lon="4.5278">
        <ele>499.83</ele>
        <time>2017-03-26T11:38:56Z</time>
      </trkpt>
      <trkpt lat="45.42558" lon="4.5278">
        <ele>499.83</ele>
        <time>2017-03-26T11:38:57Z</time>
      </trkpt>
      <trkpt lat="45.42558" lon="4.5278">
        <ele>499.83</ele>
        <time>2017-03-26T11:38:58Z</time>
      </trkpt>
      <trkpt lat="45.42558" lon="4.5278">
        <ele>499.83</ele>
        <time>2017-03-26T11:38:59Z</time>
      </trkpt>
      <trkpt lat="45.42558" lon="4.5278">
        <ele>499.83</ele>
        <time>2017-03-26T11:39:00Z</time>
      </trkpt>
      <trkpt lat="45.42558" lon="4.5278">
        <ele>499.83</ele>
        <time>2017-03-26T11:39:01Z</time>
      </trkpt>
      <trkpt lat="45.42558" lon="4.5278">
        <ele>499.83</ele>
        <time>2017-03-26T11:39:02Z</time>
      </trkpt>
      <trkpt lat="45.42558" lon="4.5278">
        <ele>499.83</ele>
        <time>2017-03-26T11:39:03Z</time>
      </trkpt>
      <trkpt lat="45.42558" lon="4.5278">
        <ele>499.83</ele>
        <time>2017-03-26T11:39:04Z</time>
      </trkpt>
      <trkpt lat="45.42558" lon="4.5278">
        <ele>499.83</ele>
        <time>2017-03-26T11:39:05Z</time>
      </trkpt>
      <trkpt lat="45.42558" lon="4.5278">
        <ele>499.83</ele>
        <time>2017-03-26T11:39:06Z</time>
      </trkpt>
      <trkpt lat="45.42558" lon="4.5278">
        <ele>499.83</ele>
        <time>2017-03-26T11:39:07Z</time>
      </trkpt>
      <trkpt lat="45.42558" lon="4.5278">
        <ele>499.83</ele>
        <time>2017-03-26T11:39:08Z</time>
      </trkpt>
      <trkpt lat="45.42558" lon="4.5278">
        <ele>499.83</ele>
        <time>2017-03-26T11:39:09Z</time>
      </trkpt>
      <trkpt lat="45.42558" lon="4.5278">
        <ele>499.83</ele>
        <time>2017-03-26T11:39:10Z</time>
      </trkpt>
      <trkpt lat="45.42558" lon="4.5278">
        <ele>499.83</ele>
        <time>2017-03-26T11:39:11Z</time>
      </trkpt>
      <trkpt lat="45.42558" lon="4.5278">
        <ele>499.83</ele>
        <time>2017-03-26T11:39:12Z</time>
      </trkpt>
      <trkpt lat="45.42558" lon="4.5278">
        <ele>499.83</ele>
        <time>2017-03-26T11:39:13Z</time>
      </trkpt>
      <trkpt lat="45.42558" lon="4.5278">
        <ele>499.83</ele>
        <time>2017-03-26T11:39:14Z</time>
      </trkpt>
      <trkpt lat="45.42558" lon="4.5278">
        <ele>499.83</ele>
        <time>2017-03-26T11:39:15Z</time>
      </trkpt>
      <trkpt lat="45.42558" lon="4.5278">
        <ele>499.83</ele>
        <time>2017-03-26T11:39:16Z</time>
      </trkpt>
      <trkpt lat="45.42558" lon="4.5278">
        <ele>499.83</ele>
        <time>2017-03-26T11:39:17Z</time>
      </trkpt>
      <trkpt lat="45.42558" lon="4.5278">
        <ele>499.83</ele>
        <time>2017-03-26T11:39:18Z</time>
      </trkpt>
      <trkpt lat="45.42558" lon="4.5278">
        <ele>499.83</ele>
        <time>2017-03-26T11:39:19Z</time>
      </trkpt>
      <trkpt lat="45.42558" lon="4.5278">
        <ele>499.83</ele>
        <time>2017-03-26T11:39:20Z</time>
      </trkpt>
      <trkpt lat="45.42558" lon="4.5278">
        <ele>499.83</ele>
        <time>2017-03-26T11:39:21Z</time>
      </trkpt>
      <trkpt lat="45.42558" lon="4.5278">
        <ele>499.83</ele>
        <time>2017-03-26T11:39:22Z</time>
      </trkpt>
      <trkpt lat="45.42558" lon="4.5278">
        <ele>499.83</ele>
        <time>2017-03-26T11:39:23Z</time>
      </trkpt>
      <trkpt lat="45.42558" lon="4.5278">
        <ele>499.83</ele>
        <time>2017-03-26T11:39:24Z</time>
      </trkpt>
      <trkpt lat="45.42558" lon="4.5278">
        <ele>499.83</ele>
        <time>2017-03-26T11:39:25Z</time>
      </trkpt>
      <trkpt lat="45.42558" lon="4.5278">
        <ele>499.83</ele>
        <time>2017-03-26T11:39:26Z</time>
      </trkpt>
      <trkpt lat="45.42558" lon="4.5278">
        <ele>499.83</ele>
        <time>2017-03-26T11:39:27Z</time>
      </trkpt>
      <trkpt lat="45.42558" lon="4.5278">
        <ele>499.83</ele>
        <time>2017-03-26T11:39:28Z</time>
      </trkpt>
      <trkpt lat="45.42558" lon="4.5278">
        <ele>499.83</ele>
        <time>2017-03-26T11:39:29Z</time>
      </trkpt>
      <trkpt lat="45.42558" lon="4.5278">
        <ele>499.83</ele>
        <time>2017-03-26T11:39:30Z</time>
      </trkpt>
      <trkpt lat="45.42558" lon="4.5278">
        <ele>499.83</ele>
        <time>2017-03-26T11:39:31Z</time>
      </trkpt>
      <trkpt lat="45.42558" lon="4.5278">
        <ele>499.83</ele>
        <time>2017-03-26T11:39:32Z</time>
      </trkpt>
      <trkpt lat="45.42558" lon="4.5278">
        <ele>499.83</ele>
        <time>2017-03-26T11:39:33Z</time>
      </trkpt>
      <trkpt lat="45.42558" lon="4.5278">
        <ele>499.83</ele>
        <time>2017-03-26T11:39:34Z</time>
      </trkpt>
      <trkpt lat="45.42558" lon="4.5278">
        <ele>499.83</ele>
        <time>2017-03-26T11:39:35Z</time>
      </trkpt>
      <trkpt lat="45.42558" lon="4.5278">
        <ele>499.83</ele>
        <time>2017-03-26T11:39:36Z</time>
      </trkpt>
      <trkpt lat="45.42558" lon="4.5278">
        <ele>499.83</ele>
        <time>2017-03-26T11:39:37Z</time>
      </trkpt>
      <trkpt lat="45.42558" lon="4.5278">
        <ele>499.83</ele>
        <time>2017-03-26T11:39:38Z</time>
      </trkpt>
      <trkpt lat="45.42558" lon="4.5278">
        <ele>499.83</ele>
        <time>2017-03-26T11:39:39Z</time>
      </trkpt>
      <trkpt lat="45.42558" lon="4.5278">
        <ele>499.83</ele>
        <time>2017-03-26T11:39:40Z</time>
      </trkpt>
      <trkpt lat="45.42558" lon="4.5278">
        <ele>499.83</ele>
        <time>2017-03-26T11:39:41Z</time>
      </trkpt>
      <trkpt lat="45.42558" lon="4.5278">
        <ele>499.83</ele>
        <time>2017-03-26T11:39:42Z</time>
      </trkpt>
      <trkpt lat="45.42558" lon="4.5278">
        <ele>499.83</ele>
        <time>2017-03-26T11:39:43Z</time>
      </trkpt>
      <trkpt lat="45.42558" lon="4.5278">
        <ele>499.83</ele>
        <time>2017-03-26T11:39:44Z</time>
      </trkpt>
      <trkpt lat="45.42558" lon="4.5278">
        <ele>499.83</ele>
        <time>2017-03-26T11:39:45Z</time>
      </trkpt>
      <trkpt lat="45.42558" lon="4.5278">
        <ele>499.83</ele>
        <time>2017-03-26T11:39:46Z</time>
      </trkpt>
      <trkpt lat="45.42558" lon="4.5278">
        <ele>499.83</ele>
        <time>2017-03-26T11:39:47Z</time>
      </trkpt>
      <trkpt lat="45.42558" lon="4.5278">
        <ele>499.83</ele>
        <time>2017-03-26T11:39:48Z</time>
      </trkpt>
      <trkpt lat="45.42558" lon="4.5278">
        <ele>499.83</ele>
        <time>2017-03-26T11:39:49Z</time>
      </trkpt>
      <trkpt lat="45.42558" lon="4.5278">
        <ele>499.83</ele>
        <time>2017-03-26T11:39:50Z</time>
      </trkpt>
      <trkpt lat="45.42558" lon="4.5278">
        <ele>499.83</ele>
        <time>2017-03-26T11:39:51Z</time>
      </trkpt>
      <trkpt lat="45.42558" lon="4.5278">
        <ele>499.83</ele>
        <time>2017-03-26T11:39:52Z</time>
      </trkpt>
      <trkpt lat="45.42558" lon="4.5278">
        <ele>499.83</ele>
        <time>2017-03-26T11:39:53Z</time>
      </trkpt>
      <trkpt lat="45.42558" lon="4.5278">
        <ele>499.83</ele>
        <time>2017-03-26T11:39:54Z</time>
      </trkpt>
      <trkpt lat="45.42558" lon="4.5278">
        <ele>499.83</ele>
        <time>2017-03-26T11:39:55Z</time>
      </trkpt>
      <trkpt lat="45.42558" lon="4.5278">
        <ele>499.83</ele>
        <time>2017-03-26T11:39:56Z</time>
      </trkpt>
      <trkpt lat="45.42558" lon="4.5278">
        <ele>499.83</ele>
        <time>2017-03-26T11:39:57Z</time>
      </trkpt>
      <trkpt lat="45.42558" lon="4.5278">
        <ele>499.83</ele>
        <time>2017-03-26T11:39:58Z</time>
      </trkpt>
      <trkpt lat="45.42558" lon="4.5278">
        <ele>499.83</ele>
        <time>2017-03-26T11:39:59Z</time>
      </trkpt>
      <trkpt lat="45.42558" lon="4.5278">
        <ele>499.83</ele>
        <time>2017-03-26T11:40:00Z</time>
      </trkpt>
      <trkpt lat="45.42558" lon="4.5278">
        <ele>499.83</ele>
        <time>2017-03-26T11:40:01Z</time>
      </trkpt>
      <trkpt lat="45.42558" lon="4.5278">
        <ele>499.83</ele>
        <time>2017-03-26T11:40:02Z</time>
      </trkpt>
      <trkpt lat="45.42558" lon="4.5278">
        <ele>499.83</ele>
        <time>2017-03-26T11:40:03Z</time>
      </trkpt>
      <trkpt lat="45.42558" lon="4.5278">
        <ele>499.83</ele>
        <time>2017-03-26T11:40:04Z</time>
      </trkpt>
      <trkpt lat="45.42558" lon="4.5278">
        <ele>499.83</ele>
        <time>2017-03-26T11:40:05Z</time>
      </trkpt>
      <trkpt lat="45.42558" lon="4.5278">
        <ele>499.83</ele>
        <time>2017-03-26T11:40:06Z</time>
      </trkpt>
      <trkpt lat="45.42558" lon="4.5278">
        <ele>499.83</ele>
        <time>2017-03-26T11:40:07Z</time>
      </trkpt>
      <trkpt lat="45.42558" lon="4.5278">
        <ele>499.83</ele>
        <time>2017-03-26T11:40:08Z</time>
      </trkpt>
      <trkpt lat="45.42558" lon="4.5278">
        <ele>499.83</ele>
        <time>2017-03-26T11:40:09Z</time>
      </trkpt>
      <trkpt lat="45.42558" lon="4.5278">
        <ele>499.83</ele>
        <time>2017-03-26T11:40:10Z</time>
      </trkpt>
      <trkpt lat="45.42558" lon="4.5278">
        <ele>499.83</ele>
        <time>2017-03-26T11:40:11Z</time>
      </trkpt>
      <trkpt lat="45.42558" lon="4.5278">
        <ele>499.83</ele>
        <time>2017-03-26T11:40:12Z</time>
      </trkpt>
      <trkpt lat="45.42558" lon="4.5278">
        <ele>499.83</ele>
        <time>2017-03-26T11:40:13Z</time>
      </trkpt>
      <trkpt lat="45.42558" lon="4.5278">
        <ele>499.83</ele>
        <time>2017-03-26T11:40:14Z</time>
      </trkpt>
      <trkpt lat="45.42558" lon="4.5278">
        <ele>499.83</ele>
        <time>2017-03-26T11:40:15Z</time>
      </trkpt>
      <trkpt lat="45.42558" lon="4.5278">
        <ele>499.83</ele>
        <time>2017-03-26T11:40:16Z</time>
      </trkpt>
      <trkpt lat="45.42558" lon="4.5278">
        <ele>499.83</ele>
        <time>2017-03-26T11:40:17Z</time>
      </trkpt>
      <trkpt lat="45.42558" lon="4.5278">
        <ele>499.83</ele>
        <time>2017-03-26T11:40:18Z</time>
      </trkpt>
      <trkpt lat="45.42558" lon="4.5278">
        <ele>499.83</ele>
        <time>2017-03-26T11:40:19Z</time>
      </trkpt>
      <trkpt lat="45.42558" lon="4.5278">
        <ele>499.83</ele>
        <time>2017-03-26T11:40:20Z</time>
      </trkpt>
      <trkpt lat="45.42558" lon="4.5278">
        <ele>499.83</ele>
        <time>2017-03-26T11:40:21Z</time>
      </trkpt>
      <trkpt lat="45.42558" lon="4.5278">
        <ele>499.83</ele>
        <time>2017-03-26T11:40:22Z</time>
      </trkpt>
      <trkpt lat="45.42558" lon="4.5278">
        <ele>499.83</ele>
        <time>2017-03-26T11:40:23Z</time>
      </trkpt>
      <trkpt lat="45.42558" lon="4.5278">
        <ele>499.83</ele>
        <time>2017-03-26T11:40:24Z</time>
      </trkpt>
      <trkpt lat="45.42558" lon="4.5278">
        <ele>499.83</ele>
        <time>2017-03-26T11:40:25Z</time>
      </trkpt>
      <trkpt lat="45.42558" lon="4.5278">
        <ele>499.83</ele>
        <time>2017-03-26T11:40:26Z</time>
      </trkpt>
      <trkpt lat="45.42558" lon="4.5278">
        <ele>499.83</ele>
        <time>2017-03-26T11:40:27Z</time>
      </trkpt>
      <trkpt lat="45.42558" lon="4.5278">
        <ele>499.83</ele>
        <time>2017-03-26T11:40:28Z</time>
      </trkpt>
      <trkpt lat="45.42558" lon="4.5278">
        <ele>499.83</ele>
        <time>2017-03-26T11:40:29Z</time>
      </trkpt>
      <trkpt lat="45.42558" lon="4.5278">
        <ele>499.83</ele>
        <time>2017-03-26T11:40:30Z</time>
      </trkpt>
      <trkpt lat="45.42558" lon="4.5278">
        <ele>499.83</ele>
        <time>2017-03-26T11:40:31Z</time>
      </trkpt>
      <trkpt lat="45.42558" lon="4.5278">
        <ele>499.83</ele>
        <time>2017-03-26T11:40:32Z</time>
      </trkpt>
      <trkpt lat="45.42558" lon="4.5278">
        <ele>499.83</ele>
        <time>2017-03-26T11:40:33Z</time>
      </trkpt>
      <trkpt lat="45.42558" lon="4.5278">
        <ele>499.83</ele>
        <time>2017-03-26T11:40:34Z</time>
      </trkpt>
      <trkpt lat="45.42558" lon="4.5278">
        <ele>499.83</ele>
        <time>2017-03-26T11:40:35Z</time>
      </trkpt>
      <trkpt lat="45.42558" lon="4.5278">
        <ele>499.83</ele>
        <time>2017-03-26T11:40:36Z</time>
      </trkpt>
      <trkpt lat="45.42558" lon="4.5278">
        <ele>499.83</ele>
        <time>2017-03-26T11:40:37Z</time>
      </trkpt>
      <trkpt lat="45.42558" lon="4.5278">
        <ele>499.83</ele>
        <time>2017-03-26T11:40:38Z</time>
      </trkpt>
      <trkpt lat="45.42558" lon="4.5278">
        <ele>499.83</ele>
        <time>2017-03-26T11:40:39Z</time>
      </trkpt>
      <trkpt lat="45.42558" lon="4.5278">
        <ele>499.83</ele>
        <time>2017-03-26T11:40:40Z</time>
      </trkpt>
      <trkpt lat="45.42558" lon="4.5278">
        <ele>499.83</ele>
        <time>2017-03-26T11:40:41Z</time>
      </trkpt>
      <trkpt lat="45.42558" lon="4.5278">
        <ele>499.83</ele>
        <time>2017-03-26T11:40:42Z</time>
      </trkpt>
      <trkpt lat="45.42558" lon="4.5278">
        <ele>499.83</ele>
        <time>2017-03-26T11:40:43Z</time>
      </trkpt>
      <trkpt lat="45.42558" lon="4.5278">
        <ele>499.83</ele>
        <time>2017-03-26T11:40:44Z</time>
      </trkpt>
      <trkpt lat="45.42558" lon="4.5278">
        <ele>499.83</ele>
        <time>2017-03-26T11:40:45Z</time>
      </trkpt>
      <trkpt lat="45.42558" lon="4.5278">
        <ele>499.83</ele>
        <time>2017-03-26T11:40:46Z</time>
      </trkpt>
      <trkpt lat="45.42558" lon="4.5278">
        <ele>499.83</ele>
        <time>2017-03-26T11:40:47Z</time>
      </trkpt>
      <trkpt lat="45.42558" lon="4.5278">
        <ele>499.83</ele>
        <time>2017-03-26T11:40:48Z</time>
      </trkpt>
      <trkpt lat="45.42558" lon="4.5278">
        <ele>499.83</ele>
        <time>2017-03-26T11:40:49Z</time>
      </trkpt>
      <trkpt lat="45.42558" lon="4.5278">
        <ele>499.83</ele>
        <time>2017-03-26T11:40:50Z</time>
      </trkpt>
      <trkpt lat="45.42558" lon="4.5278">
        <ele>499.83</ele>
        <time>2017-03-26T11:40:51Z</time>
      </trkpt>
      <trkpt lat="45.42558" lon="4.5278">
        <ele>499.83</ele>
        <time>2017-03-26T11:40:52Z</time>
      </trkpt>
      <trkpt lat="45.42558" lon="4.5278">
        <ele>499.83</ele>
        <time>2017-03-26T11:40:53Z</time>
      </trkpt>
      <trkpt lat="45.42558" lon="4.5278">
        <ele>499.83</ele>
        <time>2017-03-26T11:40:54Z</time>
      </trkpt>
      <trkpt lat="45.42558" lon="4.5278">
        <ele>499.83</ele>
        <time>2017-03-26T11:40:55Z</time>
      </trkpt>
      <trkpt lat="45.42558" lon="4.5278">
        <ele>499.83</ele>
        <time>2017-03-26T11:40:56Z</time>
      </trkpt>
      <trkpt lat="45.42558" lon="4.5278">
        <ele>499.83</ele>
        <time>2017-03-26T11:40:57Z</time>
      </trkpt>
      <trkpt lat="45.42558" lon="4.5278">
        <ele>499.83</ele>
        <time>2017-03-26T11:40:58Z</time>
      </trkpt>
      <trkpt lat="45.42558" lon="4.5278">
        <ele>499.83</ele>
        <time>2017-03-26T11:40:59Z</time>
      </trkpt>
      <trkpt lat="45.42558" lon="4.5278">
        <ele>499.83</ele>
        <time>2017-03-26T11:41:00Z</time>
      </trkpt>
      <trkpt lat="45.42558" lon="4.5278">
        <ele>499.83</ele>
        <time>2017-03-26T11:41:01Z</time>
      </trkpt>
      <trkpt lat="45.42558" lon="4.5278">
        <ele>499.83</ele>
        <time>2017-03-26T11:41:02Z</time>
      </trkpt>
      <trkpt lat="45.42558" lon="4.5278">
        <ele>499.83</ele>
        <time>2017-03-26T11:41:03Z</time>
      </trkpt>
      <trkpt lat="45.42558" lon="4.5278">
        <ele>499.83</ele>
        <time>2017-03-26T11:41:04Z</time>
      </trkpt>
      <trkpt lat="45.42558" lon="4.5278">
        <ele>499.83</ele>
        <time>2017-03-26T11:41:05Z</time>
      </trkpt>
      <trkpt lat="45.42558" lon="4.5278">
        <ele>499.83</ele>
        <time>2017-03-26T11:41:06Z</time>
      </trkpt>
      <trkpt lat="45.42558" lon="4.5278">
        <ele>499.83</ele>
        <time>2017-03-26T11:41:07Z</time>
      </trkpt>
      <trkpt lat="45.42558" lon="4.5278">
        <ele>499.83</ele>
        <time>2017-03-26T11:41:08Z</time>
      </trkpt>
      <trkpt lat="45.42558" lon="4.5278">
        <ele>499.83</ele>
        <time>2017-03-26T11:41:09Z</time>
      </trkpt>
      <trkpt lat="45.42558" lon="4.5278">
        <ele>499.83</ele>
        <time>2017-03-26T11:41:10Z</time>
      </trkpt>
      <trkpt lat="45.42558" lon="4.5278">
        <ele>499.83</ele>
        <time>2017-03-26T11:41:11Z</time>
      </trkpt>
      <trkpt lat="45.42558" lon="4.5278">
        <ele>499.83</ele>
        <time>2017-03-26T11:41:12Z</time>
      </trkpt>
      <trkpt lat="45.42558" lon="4.5278">
        <ele>499.83</ele>
        <time>2017-03-26T11:41:13Z</time>
      </trkpt>
      <trkpt lat="45.42558" lon="4.5278">
        <ele>499.83</ele>
        <time>2017-03-26T11:41:14Z</time>
      </trkpt>
      <trkpt lat="45.42558" lon="4.5278">
        <ele>499.83</ele>
        <time>2017-03-26T11:41:15Z</time>
      </trkpt>
      <trkpt lat="45.42558" lon="4.5278">
        <ele>499.83</ele>
        <time>2017-03-26T11:41:16Z</time>
      </trkpt>
      <trkpt lat="45.4256" lon="4.52767">
        <ele>499.35</ele>
        <time>2017-03-26T11:41:17Z</time>
      </trkpt>
      <trkpt lat="45.4256" lon="4.52767">
        <ele>499.17</ele>
        <time>2017-03-26T11:41:18Z</time>
      </trkpt>
      <trkpt lat="45.42561" lon="4.52767">
        <ele>499.14</ele>
        <time>2017-03-26T11:41:19Z</time>
      </trkpt>
      <trkpt lat="45.42562" lon="4.52767">
        <ele>498.97</ele>
        <time>2017-03-26T11:41:20Z</time>
      </trkpt>
      <trkpt lat="45.42562" lon="4.52767">
        <ele>498.94</ele>
        <time>2017-03-26T11:41:21Z</time>
      </trkpt>
      <trkpt lat="45.42562" lon="4.52767">
        <ele>498.93</ele>
        <time>2017-03-26T11:41:22Z</time>
      </trkpt>
      <trkpt lat="45.42562" lon="4.52767">
        <ele>498.93</ele>
        <time>2017-03-26T11:41:23Z</time>
      </trkpt>
      <trkpt lat="45.42562" lon="4.52767">
        <ele>498.93</ele>
        <time>2017-03-26T11:41:24Z</time>
      </trkpt>
      <trkpt lat="45.42562" lon="4.52767">
        <ele>498.93</ele>
        <time>2017-03-26T11:41:25Z</time>
      </trkpt>
      <trkpt lat="45.42562" lon="4.52767">
        <ele>498.93</ele>
        <time>2017-03-26T11:41:26Z</time>
      </trkpt>
      <trkpt lat="45.42562" lon="4.52767">
        <ele>498.93</ele>
        <time>2017-03-26T11:41:27Z</time>
      </trkpt>
      <trkpt lat="45.42562" lon="4.52767">
        <ele>498.93</ele>
        <time>2017-03-26T11:41:28Z</time>
      </trkpt>
      <trkpt lat="45.42562" lon="4.52767">
        <ele>498.93</ele>
        <time>2017-03-26T11:41:29Z</time>
      </trkpt>
      <trkpt lat="45.42562" lon="4.52767">
        <ele>498.93</ele>
        <time>2017-03-26T11:41:30Z</time>
      </trkpt>
      <trkpt lat="45.42562" lon="4.52767">
        <ele>498.93</ele>
        <time>2017-03-26T11:41:31Z</time>
      </trkpt>
      <trkpt lat="45.42562" lon="4.52767">
        <ele>498.93</ele>
        <time>2017-03-26T11:41:32Z</time>
      </trkpt>
      <trkpt lat="45.42562" lon="4.52767">
        <ele>498.93</ele>
        <time>2017-03-26T11:41:33Z</time>
      </trkpt>
      <trkpt lat="45.42562" lon="4.52767">
        <ele>498.93</ele>
        <time>2017-03-26T11:41:34Z</time>
      </trkpt>
      <trkpt lat="45.42562" lon="4.52767">
        <ele>498.93</ele>
        <time>2017-03-26T11:41:35Z</time>
      </trkpt>
      <trkpt lat="45.42562" lon="4.52767">
        <ele>498.93</ele>
        <time>2017-03-26T11:41:36Z</time>
      </trkpt>
      <trkpt lat="45.42562" lon="4.52767">
        <ele>498.93</ele>
        <time>2017-03-26T11:41:37Z</time>
      </trkpt>
      <trkpt lat="45.42562" lon="4.52767">
        <ele>498.93</ele>
        <time>2017-03-26T11:41:38Z</time>
      </trkpt>
      <trkpt lat="45.42562" lon="4.52767">
        <ele>498.93</ele>
        <time>2017-03-26T11:41:39Z</time>
      </trkpt>
      <trkpt lat="45.42562" lon="4.52767">
        <ele>498.93</ele>
        <time>2017-03-26T11:41:40Z</time>
      </trkpt>
      <trkpt lat="45.42562" lon="4.52767">
        <ele>498.93</ele>
        <time>2017-03-26T11:41:41Z</time>
      </trkpt>
      <trkpt lat="45.42562" lon="4.52767">
        <ele>498.93</ele>
        <time>2017-03-26T11:41:42Z</time>
      </trkpt>
      <trkpt lat="45.42562" lon="4.52767">
        <ele>498.93</ele>
        <time>2017-03-26T11:41:43Z</time>
      </trkpt>
      <trkpt lat="45.42562" lon="4.52767">
        <ele>498.93</ele>
        <time>2017-03-26T11:41:44Z</time>
      </trkpt>
      <trkpt lat="45.42562" lon="4.52767">
        <ele>498.93</ele>
        <time>2017-03-26T11:41:45Z</time>
      </trkpt>
      <trkpt lat="45.42562" lon="4.52767">
        <ele>498.93</ele>
        <time>2017-03-26T11:41:46Z</time>
      </trkpt>
      <trkpt lat="45.42562" lon="4.52767">
        <ele>498.93</ele>
        <time>2017-03-26T11:41:47Z</time>
      </trkpt>
      <trkpt lat="45.42562" lon="4.52767">
        <ele>498.93</ele>
        <time>2017-03-26T11:41:48Z</time>
      </trkpt>
      <trkpt lat="45.42562" lon="4.52767">
        <ele>498.93</ele>
        <time>2017-03-26T11:41:49Z</time>
      </trkpt>
      <trkpt lat="45.42562" lon="4.52767">
        <ele>498.93</ele>
        <time>2017-03-26T11:41:50Z</time>
      </trkpt>
      <trkpt lat="45.42562" lon="4.52767">
        <ele>498.93</ele>
        <time>2017-03-26T11:41:51Z</time>
      </trkpt>
      <trkpt lat="45.42562" lon="4.52767">
        <ele>498.93</ele>
        <time>2017-03-26T11:41:52Z</time>
      </trkpt>
      <trkpt lat="45.42562" lon="4.52767">
        <ele>498.93</ele>
        <time>2017-03-26T11:41:53Z</time>
      </trkpt>
      <trkpt lat="45.42562" lon="4.52767">
        <ele>498.93</ele>
        <time>2017-03-26T11:41:54Z</time>
      </trkpt>
      <trkpt lat="45.42562" lon="4.52767">
        <ele>498.93</ele>
        <time>2017-03-26T11:41:55Z</time>
      </trkpt>
      <trkpt lat="45.42562" lon="4.52767">
        <ele>498.93</ele>
        <time>2017-03-26T11:41:56Z</time>
      </trkpt>
      <trkpt lat="45.42562" lon="4.52767">
        <ele>498.93</ele>
        <time>2017-03-26T11:41:57Z</time>
      </trkpt>
      <trkpt lat="45.42562" lon="4.52767">
        <ele>498.93</ele>
        <time>2017-03-26T11:41:58Z</time>
      </trkpt>
      <trkpt lat="45.42562" lon="4.52767">
        <ele>498.93</ele>
        <time>2017-03-26T11:41:59Z</time>
      </trkpt>
      <trkpt lat="45.42562" lon="4.52767">
        <ele>498.93</ele>
        <time>2017-03-26T11:42:00Z</time>
      </trkpt>
      <trkpt lat="45.42562" lon="4.52767">
        <ele>498.93</ele>
        <time>2017-03-26T11:42:01Z</time>
      </trkpt>
      <trkpt lat="45.42562" lon="4.52767">
        <ele>498.93</ele>
        <time>2017-03-26T11:42:02Z</time>
      </trkpt>
      <trkpt lat="45.42562" lon="4.52767">
        <ele>498.93</ele>
        <time>2017-03-26T11:42:03Z</time>
      </trkpt>
      <trkpt lat="45.42562" lon="4.52767">
        <ele>498.93</ele>
        <time>2017-03-26T11:42:04Z</time>
      </trkpt>
      <trkpt lat="45.42562" lon="4.52767">
        <ele>498.93</ele>
        <time>2017-03-26T11:42:05Z</time>
      </trkpt>
      <trkpt lat="45.42562" lon="4.52767">
        <ele>498.93</ele>
        <time>2017-03-26T11:42:06Z</time>
      </trkpt>
      <trkpt lat="45.42562" lon="4.52767">
        <ele>498.93</ele>
        <time>2017-03-26T11:42:07Z</time>
      </trkpt>
      <trkpt lat="45.42562" lon="4.52767">
        <ele>498.93</ele>
        <time>2017-03-26T11:42:08Z</time>
      </trkpt>
      <trkpt lat="45.42562" lon="4.52767">
        <ele>498.93</ele>
        <time>2017-03-26T11:42:09Z</time>
      </trkpt>
      <trkpt lat="45.42562" lon="4.52767">
        <ele>498.93</ele>
        <time>2017-03-26T11:42:10Z</time>
      </trkpt>
      <trkpt lat="45.42562" lon="4.52767">
        <ele>498.93</ele>
        <time>2017-03-26T11:42:11Z</time>
      </trkpt>
      <trkpt lat="45.42562" lon="4.52767">
        <ele>498.93</ele>
        <time>2017-03-26T11:42:12Z</time>
      </trkpt>
      <trkpt lat="45.42562" lon="4.52767">
        <ele>498.93</ele>
        <time>2017-03-26T11:42:13Z</time>
      </trkpt>
      <trkpt lat="45.42562" lon="4.52767">
        <ele>498.93</ele>
        <time>2017-03-26T11:42:14Z</time>
      </trkpt>
      <trkpt lat="45.42562" lon="4.52767">
        <ele>498.93</ele>
        <time>2017-03-26T11:42:15Z</time>
      </trkpt>
      <trkpt lat="45.42562" lon="4.52767">
        <ele>498.93</ele>
        <time>2017-03-26T11:42:16Z</time>
      </trkpt>
      <trkpt lat="45.42562" lon="4.52767">
        <ele>498.93</ele>
        <time>2017-03-26T11:42:17Z</time>
      </trkpt>
      <trkpt lat="45.42562" lon="4.52767">
        <ele>498.93</ele>
        <time>2017-03-26T11:42:18Z</time>
      </trkpt>
      <trkpt lat="45.42562" lon="4.52767">
        <ele>498.93</ele>
        <time>2017-03-26T11:42:19Z</time>
      </trkpt>
      <trkpt lat="45.42562" lon="4.52767">
        <ele>498.93</ele>
        <time>2017-03-26T11:42:20Z</time>
      </trkpt>
      <trkpt lat="45.42562" lon="4.52767">
        <ele>498.93</ele>
        <time>2017-03-26T11:42:21Z</time>
      </trkpt>
      <trkpt lat="45.42562" lon="4.52767">
        <ele>498.93</ele>
        <time>2017-03-26T11:42:22Z</time>
      </trkpt>
      <trkpt lat="45.42562" lon="4.52767">
        <ele>498.93</ele>
        <time>2017-03-26T11:42:23Z</time>
      </trkpt>
      <trkpt lat="45.42562" lon="4.52767">
        <ele>498.93</ele>
        <time>2017-03-26T11:42:24Z</time>
      </trkpt>
      <trkpt lat="45.42562" lon="4.52767">
        <ele>498.93</ele>
        <time>2017-03-26T11:42:25Z</time>
      </trkpt>
      <trkpt lat="45.42562" lon="4.52767">
        <ele>498.93</ele>
        <time>2017-03-26T11:42:26Z</time>
      </trkpt>
      <trkpt lat="45.42562" lon="4.52767">
        <ele>498.93</ele>
        <time>2017-03-26T11:42:27Z</time>
      </trkpt>
      <trkpt lat="45.42562" lon="4.52767">
        <ele>498.93</ele>
        <time>2017-03-26T11:42:28Z</time>
      </trkpt>
      <trkpt lat="45.42562" lon="4.52767">
        <ele>498.93</ele>
        <time>2017-03-26T11:42:29Z</time>
      </trkpt>
      <trkpt lat="45.42562" lon="4.52767">
        <ele>498.93</ele>
        <time>2017-03-26T11:42:30Z</time>
      </trkpt>
      <trkpt lat="45.42562" lon="4.52767">
        <ele>498.93</ele>
        <time>2017-03-26T11:42:31Z</time>
      </trkpt>
      <trkpt lat="45.42562" lon="4.52767">
        <ele>498.93</ele>
        <time>2017-03-26T11:42:32Z</time>
      </trkpt>
      <trkpt lat="45.42562" lon="4.52767">
        <ele>498.93</ele>
        <time>2017-03-26T11:42:33Z</time>
      </trkpt>
      <trkpt lat="45.42562" lon="4.52767">
        <ele>498.93</ele>
        <time>2017-03-26T11:42:34Z</time>
      </trkpt>
      <trkpt lat="45.42562" lon="4.52767">
        <ele>498.93</ele>
        <time>2017-03-26T11:42:35Z</time>
      </trkpt>
      <trkpt lat="45.42562" lon="4.52767">
        <ele>498.93</ele>
        <time>2017-03-26T11:42:36Z</time>
      </trkpt>
      <trkpt lat="45.42562" lon="4.52767">
        <ele>498.93</ele>
        <time>2017-03-26T11:42:37Z</time>
      </trkpt>
      <trkpt lat="45.42562" lon="4.52767">
        <ele>498.93</ele>
        <time>2017-03-26T11:42:38Z</time>
      </trkpt>
      <trkpt lat="45.42562" lon="4.52767">
        <ele>498.93</ele>
        <time>2017-03-26T11:42:39Z</time>
      </trkpt>
      <trkpt lat="45.42562" lon="4.52767">
        <ele>498.93</ele>
        <time>2017-03-26T11:42:40Z</time>
      </trkpt>
      <trkpt lat="45.42562" lon="4.52767">
        <ele>498.93</ele>
        <time>2017-03-26T11:42:41Z</time>
      </trkpt>
      <trkpt lat="45.42562" lon="4.52767">
        <ele>498.93</ele>
        <time>2017-03-26T11:42:42Z</time>
      </trkpt>
      <trkpt lat="45.42562" lon="4.52767">
        <ele>498.93</ele>
        <time>2017-03-26T11:42:43Z</time>
      </trkpt>
      <trkpt lat="45.42562" lon="4.52767">
        <ele>498.93</ele>
        <time>2017-03-26T11:42:44Z</time>
      </trkpt>
      <trkpt lat="45.42562" lon="4.52767">
        <ele>498.93</ele>
        <time>2017-03-26T11:42:45Z</time>
      </trkpt>
      <trkpt lat="45.42562" lon="4.52767">
        <ele>498.93</ele>
        <time>2017-03-26T11:42:46Z</time>
      </trkpt>
      <trkpt lat="45.42562" lon="4.52767">
        <ele>498.93</ele>
        <time>2017-03-26T11:42:47Z</time>
      </trkpt>
      <trkpt lat="45.42562" lon="4.52767">
        <ele>498.93</ele>
        <time>2017-03-26T11:42:48Z</time>
      </trkpt>
      <trkpt lat="45.42562" lon="4.52767">
        <ele>498.93</ele>
        <time>2017-03-26T11:42:49Z</time>
      </trkpt>
      <trkpt lat="45.42562" lon="4.52767">
        <ele>498.93</ele>
        <time>2017-03-26T11:42:50Z</time>
      </trkpt>
      <trkpt lat="45.42562" lon="4.52767">
        <ele>498.93</ele>
        <time>2017-03-26T11:42:51Z</time>
      </trkpt>
      <trkpt lat="45.42562" lon="4.52767">
        <ele>498.93</ele>
        <time>2017-03-26T11:42:52Z</time>
      </trkpt>
      <trkpt lat="45.42562" lon="4.52767">
        <ele>498.93</ele>
        <time>2017-03-26T11:42:53Z</time>
      </trkpt>
      <trkpt lat="45.42562" lon="4.52767">
        <ele>498.93</ele>
        <time>2017-03-26T11:42:54Z</time>
      </trkpt>
      <trkpt lat="45.42562" lon="4.52767">
        <ele>498.93</ele>
        <time>2017-03-26T11:42:55Z</time>
      </trkpt>
      <trkpt lat="45.42562" lon="4.52767">
        <ele>498.93</ele>
        <time>2017-03-26T11:42:56Z</time>
      </trkpt>
      <trkpt lat="45.42562" lon="4.52767">
        <ele>498.93</ele>
        <time>2017-03-26T11:42:57Z</time>
      </trkpt>
      <trkpt lat="45.42562" lon="4.52767">
        <ele>498.93</ele>
        <time>2017-03-26T11:42:58Z</time>
      </trkpt>
      <trkpt lat="45.42562" lon="4.52767">
        <ele>498.93</ele>
        <time>2017-03-26T11:42:59Z</time>
      </trkpt>
      <trkpt lat="45.42562" lon="4.52767">
        <ele>498.93</ele>
        <time>2017-03-26T11:43:00Z</time>
      </trkpt>
      <trkpt lat="45.42562" lon="4.52767">
        <ele>498.93</ele>
        <time>2017-03-26T11:43:01Z</time>
      </trkpt>
      <trkpt lat="45.42562" lon="4.52767">
        <ele>498.93</ele>
        <time>2017-03-26T11:43:02Z</time>
      </trkpt>
      <trkpt lat="45.42562" lon="4.52767">
        <ele>498.93</ele>
        <time>2017-03-26T11:43:03Z</time>
      </trkpt>
      <trkpt lat="45.42562" lon="4.52767">
        <ele>498.93</ele>
        <time>2017-03-26T11:43:04Z</time>
      </trkpt>
      <trkpt lat="45.42562" lon="4.52767">
        <ele>498.93</ele>
        <time>2017-03-26T11:43:05Z</time>
      </trkpt>
      <trkpt lat="45.42562" lon="4.52767">
        <ele>498.93</ele>
        <time>2017-03-26T11:43:06Z</time>
      </trkpt>
      <trkpt lat="45.42562" lon="4.52767">
        <ele>498.93</ele>
        <time>2017-03-26T11:43:07Z</time>
      </trkpt>
      <trkpt lat="45.42562" lon="4.52767">
        <ele>498.93</ele>
        <time>2017-03-26T11:43:08Z</time>
      </trkpt>
      <trkpt lat="45.42562" lon="4.52767">
        <ele>498.93</ele>
        <time>2017-03-26T11:43:09Z</time>
      </trkpt>
      <trkpt lat="45.42562" lon="4.52767">
        <ele>498.93</ele>
        <time>2017-03-26T11:43:10Z</time>
      </trkpt>
      <trkpt lat="45.42562" lon="4.52767">
        <ele>498.93</ele>
        <time>2017-03-26T11:43:11Z</time>
      </trkpt>
      <trkpt lat="45.42562" lon="4.52767">
        <ele>498.93</ele>
        <time>2017-03-26T11:43:12Z</time>
      </trkpt>
      <trkpt lat="45.42562" lon="4.52767">
        <ele>498.93</ele>
        <time>2017-03-26T11:43:13Z</time>
      </trkpt>
      <trkpt lat="45.42562" lon="4.52767">
        <ele>498.93</ele>
        <time>2017-03-26T11:43:14Z</time>
      </trkpt>
      <trkpt lat="45.42562" lon="4.52767">
        <ele>498.93</ele>
        <time>2017-03-26T11:43:15Z</time>
      </trkpt>
      <trkpt lat="45.42562" lon="4.52767">
        <ele>498.93</ele>
        <time>2017-03-26T11:43:16Z</time>
      </trkpt>
      <trkpt lat="45.42562" lon="4.52767">
        <ele>498.93</ele>
        <time>2017-03-26T11:43:17Z</time>
      </trkpt>
      <trkpt lat="45.42562" lon="4.52767">
        <ele>498.93</ele>
        <time>2017-03-26T11:43:18Z</time>
      </trkpt>
      <trkpt lat="45.42562" lon="4.52767">
        <ele>498.93</ele>
        <time>2017-03-26T11:43:20Z</time>
      </trkpt>
      <trkpt lat="45.42562" lon="4.52767">
        <ele>498.93</ele>
        <time>2017-03-26T11:43:21Z</time>
      </trkpt>
      <trkpt lat="45.42562" lon="4.52767">
        <ele>498.93</ele>
        <time>2017-03-26T11:43:22Z</time>
      </trkpt>
      <trkpt lat="45.42562" lon="4.52767">
        <ele>498.93</ele>
        <time>2017-03-26T11:43:23Z</time>
      </trkpt>
      <trkpt lat="45.42562" lon="4.52767">
        <ele>498.93</ele>
        <time>2017-03-26T11:43:24Z</time>
      </trkpt>
      <trkpt lat="45.42562" lon="4.52767">
        <ele>498.93</ele>
        <time>2017-03-26T11:43:25Z</time>
      </trkpt>
      <trkpt lat="45.42562" lon="4.52767">
        <ele>498.93</ele>
        <time>2017-03-26T11:43:26Z</time>
      </trkpt>
      <trkpt lat="45.42562" lon="4.52767">
        <ele>498.93</ele>
        <time>2017-03-26T11:43:27Z</time>
      </trkpt>
      <trkpt lat="45.42562" lon="4.52767">
        <ele>498.93</ele>
        <time>2017-03-26T11:43:28Z</time>
      </trkpt>
      <trkpt lat="45.42562" lon="4.52767">
        <ele>498.93</ele>
        <time>2017-03-26T11:43:29Z</time>
      </trkpt>
      <trkpt lat="45.42562" lon="4.52767">
        <ele>498.93</ele>
        <time>2017-03-26T11:43:30Z</time>
      </trkpt>
      <trkpt lat="45.42562" lon="4.52767">
        <ele>498.93</ele>
        <time>2017-03-26T11:43:31Z</time>
      </trkpt>
      <trkpt lat="45.42553" lon="4.5277">
        <ele>498.53</ele>
        <time>2017-03-26T11:43:32Z</time>
      </trkpt>
      <trkpt lat="45.42552" lon="4.52769">
        <ele>498.45</ele>
        <time>2017-03-26T11:43:33Z</time>
      </trkpt>
      <trkpt lat="45.42552" lon="4.52769">
        <ele>498.43</ele>
        <time>2017-03-26T11:43:34Z</time>
      </trkpt>
      <trkpt lat="45.42551" lon="4.52769">
        <ele>498.43</ele>
        <time>2017-03-26T11:43:35Z</time>
      </trkpt>
      <trkpt lat="45.42551" lon="4.52769">
        <ele>498.43</ele>
        <time>2017-03-26T11:43:36Z</time>
      </trkpt>
      <trkpt lat="45.42551" lon="4.52769">
        <ele>498.43</ele>
        <time>2017-03-26T11:43:37Z</time>
      </trkpt>
      <trkpt lat="45.42551" lon="4.52769">
        <ele>498.43</ele>
        <time>2017-03-26T11:43:38Z</time>
      </trkpt>
      <trkpt lat="45.42551" lon="4.52769">
        <ele>498.43</ele>
        <time>2017-03-26T11:43:39Z</time>
      </trkpt>
      <trkpt lat="45.42551" lon="4.52769">
        <ele>498.43</ele>
        <time>2017-03-26T11:43:40Z</time>
      </trkpt>
      <trkpt lat="45.42551" lon="4.52769">
        <ele>498.43</ele>
        <time>2017-03-26T11:43:41Z</time>
      </trkpt>
      <trkpt lat="45.42551" lon="4.52769">
        <ele>498.43</ele>
        <time>2017-03-26T11:43:42Z</time>
      </trkpt>
      <trkpt lat="45.42551" lon="4.52769">
        <ele>498.43</ele>
        <time>2017-03-26T11:43:43Z</time>
      </trkpt>
      <trkpt lat="45.42551" lon="4.52769">
        <ele>498.43</ele>
        <time>2017-03-26T11:43:44Z</time>
      </trkpt>
      <trkpt lat="45.42551" lon="4.52769">
        <ele>498.43</ele>
        <time>2017-03-26T11:43:45Z</time>
      </trkpt>
      <trkpt lat="45.42551" lon="4.52769">
        <ele>498.43</ele>
        <time>2017-03-26T11:43:46Z</time>
      </trkpt>
      <trkpt lat="45.42551" lon="4.52769">
        <ele>498.43</ele>
        <time>2017-03-26T11:43:47Z</time>
      </trkpt>
      <trkpt lat="45.42551" lon="4.52769">
        <ele>498.43</ele>
        <time>2017-03-26T11:43:48Z</time>
      </trkpt>
      <trkpt lat="45.42551" lon="4.52769">
        <ele>498.43</ele>
        <time>2017-03-26T11:43:49Z</time>
      </trkpt>
      <trkpt lat="45.42551" lon="4.52769">
        <ele>498.43</ele>
        <time>2017-03-26T11:43:50Z</time>
      </trkpt>
      <trkpt lat="45.42551" lon="4.52769">
        <ele>498.43</ele>
        <time>2017-03-26T11:43:51Z</time>
      </trkpt>
      <trkpt lat="45.42551" lon="4.52769">
        <ele>498.43</ele>
        <time>2017-03-26T11:43:52Z</time>
      </trkpt>
      <trkpt lat="45.42544" lon="4.5276">
        <ele>498.51</ele>
        <time>2017-03-26T11:43:53Z</time>
      </trkpt>
      <trkpt lat="45.42544" lon="4.5276">
        <ele>498.53</ele>
        <time>2017-03-26T11:43:54Z</time>
      </trkpt>
      <trkpt lat="45.42544" lon="4.5276">
        <ele>498.53</ele>
        <time>2017-03-26T11:43:55Z</time>
      </trkpt>
      <trkpt lat="45.42543" lon="4.52761">
        <ele>498.53</ele>
        <time>2017-03-26T11:43:56Z</time>
      </trkpt>
      <trkpt lat="45.42543" lon="4.52761">
        <ele>498.53</ele>
        <time>2017-03-26T11:43:57Z</time>
      </trkpt>
      <trkpt lat="45.42543" lon="4.52761">
        <ele>498.53</ele>
        <time>2017-03-26T11:43:58Z</time>
      </trkpt>
      <trkpt lat="45.42543" lon="4.52761">
        <ele>498.53</ele>
        <time>2017-03-26T11:43:59Z</time>
      </trkpt>
      <trkpt lat="45.42543" lon="4.52761">
        <ele>498.53</ele>
        <time>2017-03-26T11:44:00Z</time>
      </trkpt>
      <trkpt lat="45.42543" lon="4.52761">
        <ele>498.53</ele>
        <time>2017-03-26T11:44:01Z</time>
      </trkpt>
      <trkpt lat="45.42543" lon="4.52761">
        <ele>498.53</ele>
        <time>2017-03-26T11:44:02Z</time>
      </trkpt>
      <trkpt lat="45.42543" lon="4.52761">
        <ele>498.53</ele>
        <time>2017-03-26T11:44:03Z</time>
      </trkpt>
      <trkpt lat="45.42543" lon="4.52761">
        <ele>498.53</ele>
        <time>2017-03-26T11:44:04Z</time>
      </trkpt>
      <trkpt lat="45.42543" lon="4.52761">
        <ele>498.53</ele>
        <time>2017-03-26T11:44:05Z</time>
      </trkpt>
      <trkpt lat="45.42543" lon="4.52761">
        <ele>498.53</ele>
        <time>2017-03-26T11:44:06Z</time>
      </trkpt>
      <trkpt lat="45.42543" lon="4.52761">
        <ele>498.53</ele>
        <time>2017-03-26T11:44:07Z</time>
      </trkpt>
      <trkpt lat="45.42543" lon="4.52761">
        <ele>498.53</ele>
        <time>2017-03-26T11:44:08Z</time>
      </trkpt>
      <trkpt lat="45.42543" lon="4.52761">
        <ele>498.53</ele>
        <time>2017-03-26T11:44:09Z</time>
      </trkpt>
      <trkpt lat="45.42543" lon="4.52761">
        <ele>498.53</ele>
        <time>2017-03-26T11:44:10Z</time>
      </trkpt>
      <trkpt lat="45.42543" lon="4.52761">
        <ele>498.53</ele>
        <time>2017-03-26T11:44:11Z</time>
      </trkpt>
      <trkpt lat="45.42543" lon="4.52761">
        <ele>498.53</ele>
        <time>2017-03-26T11:44:12Z</time>
      </trkpt>
      <trkpt lat="45.42543" lon="4.52761">
        <ele>498.53</ele>
        <time>2017-03-26T11:44:13Z</time>
      </trkpt>
      <trkpt lat="45.42543" lon="4.52761">
        <ele>498.53</ele>
        <time>2017-03-26T11:44:14Z</time>
      </trkpt>
      <trkpt lat="45.42543" lon="4.52761">
        <ele>498.53</ele>
        <time>2017-03-26T11:44:15Z</time>
      </trkpt>
      <trkpt lat="45.42543" lon="4.52761">
        <ele>498.53</ele>
        <time>2017-03-26T11:44:16Z</time>
      </trkpt>
      <trkpt lat="45.42543" lon="4.52761">
        <ele>498.53</ele>
        <time>2017-03-26T11:44:17Z</time>
      </trkpt>
      <trkpt lat="45.42543" lon="4.52761">
        <ele>498.53</ele>
        <time>2017-03-26T11:44:18Z</time>
      </trkpt>
      <trkpt lat="45.42543" lon="4.52761">
        <ele>498.53</ele>
        <time>2017-03-26T11:44:19Z</time>
      </trkpt>
      <trkpt lat="45.42543" lon="4.52761">
        <ele>498.53</ele>
        <time>2017-03-26T11:44:20Z</time>
      </trkpt>
      <trkpt lat="45.42543" lon="4.52761">
        <ele>498.53</ele>
        <time>2017-03-26T11:44:21Z</time>
      </trkpt>
      <trkpt lat="45.42543" lon="4.52761">
        <ele>498.53</ele>
        <time>2017-03-26T11:44:22Z</time>
      </trkpt>
      <trkpt lat="45.42543" lon="4.52761">
        <ele>498.53</ele>
        <time>2017-03-26T11:44:23Z</time>
      </trkpt>
      <trkpt lat="45.42543" lon="4.52761">
        <ele>498.53</ele>
        <time>2017-03-26T11:44:24Z</time>
      </trkpt>
      <trkpt lat="45.42543" lon="4.52761">
        <ele>498.53</ele>
        <time>2017-03-26T11:44:25Z</time>
      </trkpt>
      <trkpt lat="45.42543" lon="4.52761">
        <ele>498.53</ele>
        <time>2017-03-26T11:44:26Z</time>
      </trkpt>
      <trkpt lat="45.42543" lon="4.52761">
        <ele>498.53</ele>
        <time>2017-03-26T11:44:27Z</time>
      </trkpt>
      <trkpt lat="45.42543" lon="4.52761">
        <ele>498.53</ele>
        <time>2017-03-26T11:44:28Z</time>
      </trkpt>
      <trkpt lat="45.42543" lon="4.52761">
        <ele>498.53</ele>
        <time>2017-03-26T11:44:29Z</time>
      </trkpt>
      <trkpt lat="45.42543" lon="4.52761">
        <ele>498.53</ele>
        <time>2017-03-26T11:44:30Z</time>
      </trkpt>
      <trkpt lat="45.42543" lon="4.52761">
        <ele>498.53</ele>
        <time>2017-03-26T11:44:31Z</time>
      </trkpt>
      <trkpt lat="45.42543" lon="4.52761">
        <ele>498.53</ele>
        <time>2017-03-26T11:44:32Z</time>
      </trkpt>
      <trkpt lat="45.42543" lon="4.52761">
        <ele>498.53</ele>
        <time>2017-03-26T11:44:33Z</time>
      </trkpt>
      <trkpt lat="45.42543" lon="4.52761">
        <ele>498.53</ele>
        <time>2017-03-26T11:44:34Z</time>
      </trkpt>
      <trkpt lat="45.42543" lon="4.52761">
        <ele>498.53</ele>
        <time>2017-03-26T11:44:35Z</time>
      </trkpt>
      <trkpt lat="45.42543" lon="4.52761">
        <ele>498.53</ele>
        <time>2017-03-26T11:44:36Z</time>
      </trkpt>
      <trkpt lat="45.42543" lon="4.52761">
        <ele>498.53</ele>
        <time>2017-03-26T11:44:37Z</time>
      </trkpt>
      <trkpt lat="45.42543" lon="4.52761">
        <ele>498.53</ele>
        <time>2017-03-26T11:44:38Z</time>
      </trkpt>
      <trkpt lat="45.42543" lon="4.52761">
        <ele>498.53</ele>
        <time>2017-03-26T11:44:39Z</time>
      </trkpt>
      <trkpt lat="45.42543" lon="4.52761">
        <ele>498.53</ele>
        <time>2017-03-26T11:44:40Z</time>
      </trkpt>
      <trkpt lat="45.42543" lon="4.52761">
        <ele>498.53</ele>
        <time>2017-03-26T11:44:41Z</time>
      </trkpt>
      <trkpt lat="45.42543" lon="4.52761">
        <ele>498.53</ele>
        <time>2017-03-26T11:44:42Z</time>
      </trkpt>
      <trkpt lat="45.42541" lon="4.52748">
        <ele>498.45</ele>
        <time>2017-03-26T11:44:43Z</time>
      </trkpt>
      <trkpt lat="45.42541" lon="4.52747">
        <ele>498.43</ele>
        <time>2017-03-26T11:44:44Z</time>
      </trkpt>
      <trkpt lat="45.4254" lon="4.52747">
        <ele>498.43</ele>
        <time>2017-03-26T11:44:45Z</time>
      </trkpt>
      <trkpt lat="45.4254" lon="4.52747">
        <ele>498.43</ele>
        <time>2017-03-26T11:44:46Z</time>
      </trkpt>
      <trkpt lat="45.4254" lon="4.52747">
        <ele>498.43</ele>
        <time>2017-03-26T11:44:47Z</time>
      </trkpt>
      <trkpt lat="45.4254" lon="4.52747">
        <ele>498.43</ele>
        <time>2017-03-26T11:44:48Z</time>
      </trkpt>
      <trkpt lat="45.4254" lon="4.52747">
        <ele>498.43</ele>
        <time>2017-03-26T11:44:49Z</time>
      </trkpt>
      <trkpt lat="45.4254" lon="4.52747">
        <ele>498.43</ele>
        <time>2017-03-26T11:44:50Z</time>
      </trkpt>
      <trkpt lat="45.4254" lon="4.52747">
        <ele>498.43</ele>
        <time>2017-03-26T11:44:51Z</time>
      </trkpt>
      <trkpt lat="45.4254" lon="4.52747">
        <ele>498.43</ele>
        <time>2017-03-26T11:44:52Z</time>
      </trkpt>
      <trkpt lat="45.4254" lon="4.52747">
        <ele>498.43</ele>
        <time>2017-03-26T11:44:53Z</time>
      </trkpt>
      <trkpt lat="45.4254" lon="4.52747">
        <ele>498.43</ele>
        <time>2017-03-26T11:44:54Z</time>
      </trkpt>
      <trkpt lat="45.4254" lon="4.52747">
        <ele>498.43</ele>
        <time>2017-03-26T11:44:55Z</time>
      </trkpt>
      <trkpt lat="45.4254" lon="4.52747">
        <ele>498.43</ele>
        <time>2017-03-26T11:44:56Z</time>
      </trkpt>
      <trkpt lat="45.4254" lon="4.52747">
        <ele>498.43</ele>
        <time>2017-03-26T11:44:57Z</time>
      </trkpt>
      <trkpt lat="45.4254" lon="4.52747">
        <ele>498.43</ele>
        <time>2017-03-26T11:44:58Z</time>
      </trkpt>
      <trkpt lat="45.4254" lon="4.52747">
        <ele>498.43</ele>
        <time>2017-03-26T11:44:59Z</time>
      </trkpt>
      <trkpt lat="45.4254" lon="4.52747">
        <ele>498.43</ele>
        <time>2017-03-26T11:45:00Z</time>
      </trkpt>
      <trkpt lat="45.4254" lon="4.52747">
        <ele>498.43</ele>
        <time>2017-03-26T11:45:01Z</time>
      </trkpt>
      <trkpt lat="45.4254" lon="4.52747">
        <ele>498.43</ele>
        <time>2017-03-26T11:45:02Z</time>
      </trkpt>
      <trkpt lat="45.4254" lon="4.52747">
        <ele>498.43</ele>
        <time>2017-03-26T11:45:03Z</time>
      </trkpt>
      <trkpt lat="45.4254" lon="4.52747">
        <ele>498.43</ele>
        <time>2017-03-26T11:45:04Z</time>
      </trkpt>
      <trkpt lat="45.4254" lon="4.52747">
        <ele>498.43</ele>
        <time>2017-03-26T11:45:05Z</time>
      </trkpt>
      <trkpt lat="45.4254" lon="4.52747">
        <ele>498.43</ele>
        <time>2017-03-26T11:45:06Z</time>
      </trkpt>
      <trkpt lat="45.4254" lon="4.52747">
        <ele>498.43</ele>
        <time>2017-03-26T11:45:07Z</time>
      </trkpt>
      <trkpt lat="45.4254" lon="4.52747">
        <ele>498.43</ele>
        <time>2017-03-26T11:45:08Z</time>
      </trkpt>
      <trkpt lat="45.4254" lon="4.52747">
        <ele>498.43</ele>
        <time>2017-03-26T11:45:09Z</time>
      </trkpt>
      <trkpt lat="45.4254" lon="4.52747">
        <ele>498.43</ele>
        <time>2017-03-26T11:45:10Z</time>
      </trkpt>
      <trkpt lat="45.4254" lon="4.52747">
        <ele>498.43</ele>
        <time>2017-03-26T11:45:11Z</time>
      </trkpt>
      <trkpt lat="45.4254" lon="4.52747">
        <ele>498.43</ele>
        <time>2017-03-26T11:45:12Z</time>
      </trkpt>
      <trkpt lat="45.4254" lon="4.52747">
        <ele>498.43</ele>
        <time>2017-03-26T11:45:13Z</time>
      </trkpt>
      <trkpt lat="45.4254" lon="4.52747">
        <ele>498.43</ele>
        <time>2017-03-26T11:45:14Z</time>
      </trkpt>
      <trkpt lat="45.4254" lon="4.52747">
        <ele>498.43</ele>
        <time>2017-03-26T11:45:15Z</time>
      </trkpt>
      <trkpt lat="45.4254" lon="4.52747">
        <ele>498.43</ele>
        <time>2017-03-26T11:45:16Z</time>
      </trkpt>
      <trkpt lat="45.4254" lon="4.52747">
        <ele>498.43</ele>
        <time>2017-03-26T11:45:17Z</time>
      </trkpt>
      <trkpt lat="45.4254" lon="4.52747">
        <ele>498.43</ele>
        <time>2017-03-26T11:45:18Z</time>
      </trkpt>
      <trkpt lat="45.4254" lon="4.52747">
        <ele>498.43</ele>
        <time>2017-03-26T11:45:19Z</time>
      </trkpt>
      <trkpt lat="45.4254" lon="4.52747">
        <ele>498.43</ele>
        <time>2017-03-26T11:45:20Z</time>
      </trkpt>
      <trkpt lat="45.4254" lon="4.52747">
        <ele>498.43</ele>
        <time>2017-03-26T11:45:21Z</time>
      </trkpt>
      <trkpt lat="45.4254" lon="4.52747">
        <ele>498.43</ele>
        <time>2017-03-26T11:45:22Z</time>
      </trkpt>
      <trkpt lat="45.4254" lon="4.52747">
        <ele>498.43</ele>
        <time>2017-03-26T11:45:23Z</time>
      </trkpt>
      <trkpt lat="45.4254" lon="4.52747">
        <ele>498.43</ele>
        <time>2017-03-26T11:45:24Z</time>
      </trkpt>
      <trkpt lat="45.4254" lon="4.52747">
        <ele>498.43</ele>
        <time>2017-03-26T11:45:25Z</time>
      </trkpt>
      <trkpt lat="45.4254" lon="4.52747">
        <ele>498.43</ele>
        <time>2017-03-26T11:45:26Z</time>
      </trkpt>
      <trkpt lat="45.4254" lon="4.52747">
        <ele>498.43</ele>
        <time>2017-03-26T11:45:27Z</time>
      </trkpt>
      <trkpt lat="45.4254" lon="4.52747">
        <ele>498.43</ele>
        <time>2017-03-26T11:45:28Z</time>
      </trkpt>
      <trkpt lat="45.4254" lon="4.52747">
        <ele>498.43</ele>
        <time>2017-03-26T11:45:29Z</time>
      </trkpt>
      <trkpt lat="45.4254" lon="4.52747">
        <ele>498.43</ele>
        <time>2017-03-26T11:45:30Z</time>
      </trkpt>
      <trkpt lat="45.4254" lon="4.52747">
        <ele>498.43</ele>
        <time>2017-03-26T11:45:31Z</time>
      </trkpt>
      <trkpt lat="45.4254" lon="4.52747">
        <ele>498.43</ele>
        <time>2017-03-26T11:45:32Z</time>
      </trkpt>
      <trkpt lat="45.4254" lon="4.52747">
        <ele>498.43</ele>
        <time>2017-03-26T11:45:33Z</time>
      </trkpt>
      <trkpt lat="45.4254" lon="4.52747">
        <ele>498.43</ele>
        <time>2017-03-26T11:45:34Z</time>
      </trkpt>
      <trkpt lat="45.4254" lon="4.52747">
        <ele>498.43</ele>
        <time>2017-03-26T11:45:35Z</time>
      </trkpt>
      <trkpt lat="45.4254" lon="4.52747">
        <ele>498.43</ele>
        <time>2017-03-26T11:45:36Z</time>
      </trkpt>
      <trkpt lat="45.4254" lon="4.52747">
        <ele>498.43</ele>
        <time>2017-03-26T11:45:37Z</time>
      </trkpt>
      <trkpt lat="45.4254" lon="4.52747">
        <ele>498.43</ele>
        <time>2017-03-26T11:45:38Z</time>
      </trkpt>
      <trkpt lat="45.4254" lon="4.52747">
        <ele>498.43</ele>
        <time>2017-03-26T11:45:39Z</time>
      </trkpt>
      <trkpt lat="45.4254" lon="4.52747">
        <ele>498.43</ele>
        <time>2017-03-26T11:45:40Z</time>
      </trkpt>
      <trkpt lat="45.4254" lon="4.52747">
        <ele>498.43</ele>
        <time>2017-03-26T11:45:41Z</time>
      </trkpt>
      <trkpt lat="45.4254" lon="4.52747">
        <ele>498.43</ele>
        <time>2017-03-26T11:45:42Z</time>
      </trkpt>
      <trkpt lat="45.42534" lon="4.52756">
        <ele>498.91</ele>
        <time>2017-03-26T11:45:43Z</time>
      </trkpt>
      <trkpt lat="45.42533" lon="4.52757">
        <ele>499.09</ele>
        <time>2017-03-26T11:45:44Z</time>
      </trkpt>
      <trkpt lat="45.42533" lon="4.52757">
        <ele>499.2</ele>
        <time>2017-03-26T11:45:45Z</time>
      </trkpt>
      <trkpt lat="45.42533" lon="4.52758">
        <ele>499.3</ele>
        <time>2017-03-26T11:45:46Z</time>
      </trkpt>
      <trkpt lat="45.42533" lon="4.52758">
        <ele>499.32</ele>
        <time>2017-03-26T11:45:47Z</time>
      </trkpt>
      <trkpt lat="45.42533" lon="4.52758">
        <ele>499.33</ele>
        <time>2017-03-26T11:45:48Z</time>
      </trkpt>
      <trkpt lat="45.42533" lon="4.52758">
        <ele>499.33</ele>
        <time>2017-03-26T11:45:49Z</time>
      </trkpt>
      <trkpt lat="45.42533" lon="4.52758">
        <ele>499.33</ele>
        <time>2017-03-26T11:45:50Z</time>
      </trkpt>
      <trkpt lat="45.42533" lon="4.52758">
        <ele>499.33</ele>
        <time>2017-03-26T11:45:51Z</time>
      </trkpt>
      <trkpt lat="45.42533" lon="4.52758">
        <ele>499.33</ele>
        <time>2017-03-26T11:45:52Z</time>
      </trkpt>
      <trkpt lat="45.42533" lon="4.52758">
        <ele>499.33</ele>
        <time>2017-03-26T11:45:53Z</time>
      </trkpt>
      <trkpt lat="45.42533" lon="4.52758">
        <ele>499.33</ele>
        <time>2017-03-26T11:45:54Z</time>
      </trkpt>
      <trkpt lat="45.42533" lon="4.52758">
        <ele>499.33</ele>
        <time>2017-03-26T11:45:55Z</time>
      </trkpt>
      <trkpt lat="45.42533" lon="4.52758">
        <ele>499.33</ele>
        <time>2017-03-26T11:45:56Z</time>
      </trkpt>
      <trkpt lat="45.42533" lon="4.52758">
        <ele>499.33</ele>
        <time>2017-03-26T11:45:57Z</time>
      </trkpt>
      <trkpt lat="45.42533" lon="4.52758">
        <ele>499.33</ele>
        <time>2017-03-26T11:45:58Z</time>
      </trkpt>
      <trkpt lat="45.42533" lon="4.52758">
        <ele>499.33</ele>
        <time>2017-03-26T11:45:59Z</time>
      </trkpt>
      <trkpt lat="45.42533" lon="4.52758">
        <ele>499.33</ele>
        <time>2017-03-26T11:46:00Z</time>
      </trkpt>
      <trkpt lat="45.42533" lon="4.52758">
        <ele>499.33</ele>
        <time>2017-03-26T11:46:01Z</time>
      </trkpt>
      <trkpt lat="45.42533" lon="4.52758">
        <ele>499.33</ele>
        <time>2017-03-26T11:46:02Z</time>
      </trkpt>
      <trkpt lat="45.42529" lon="4.52746">
        <ele>500.13</ele>
        <time>2017-03-26T11:46:03Z</time>
      </trkpt>
      <trkpt lat="45.42529" lon="4.52744">
        <ele>500.37</ele>
        <time>2017-03-26T11:46:04Z</time>
      </trkpt>
      <trkpt lat="45.42529" lon="4.52743">
        <ele>500.42</ele>
        <time>2017-03-26T11:46:05Z</time>
      </trkpt>
      <trkpt lat="45.42529" lon="4.52743">
        <ele>500.51</ele>
        <time>2017-03-26T11:46:06Z</time>
      </trkpt>
      <trkpt lat="45.42529" lon="4.52743">
        <ele>500.53</ele>
        <time>2017-03-26T11:46:07Z</time>
      </trkpt>
      <trkpt lat="45.42529" lon="4.52743">
        <ele>500.53</ele>
        <time>2017-03-26T11:46:08Z</time>
      </trkpt>
      <trkpt lat="45.42529" lon="4.52743">
        <ele>500.53</ele>
        <time>2017-03-26T11:46:09Z</time>
      </trkpt>
      <trkpt lat="45.42529" lon="4.52743">
        <ele>500.53</ele>
        <time>2017-03-26T11:46:10Z</time>
      </trkpt>
      <trkpt lat="45.42529" lon="4.52743">
        <ele>500.53</ele>
        <time>2017-03-26T11:46:11Z</time>
      </trkpt>
      <trkpt lat="45.42529" lon="4.52743">
        <ele>500.53</ele>
        <time>2017-03-26T11:46:12Z</time>
      </trkpt>
      <trkpt lat="45.42529" lon="4.52743">
        <ele>500.53</ele>
        <time>2017-03-26T11:46:13Z</time>
      </trkpt>
      <trkpt lat="45.42529" lon="4.52743">
        <ele>500.53</ele>
        <time>2017-03-26T11:46:14Z</time>
      </trkpt>
      <trkpt lat="45.42529" lon="4.52743">
        <ele>500.53</ele>
        <time>2017-03-26T11:46:15Z</time>
      </trkpt>
      <trkpt lat="45.42529" lon="4.52743">
        <ele>500.53</ele>
        <time>2017-03-26T11:46:16Z</time>
      </trkpt>
      <trkpt lat="45.42529" lon="4.52743">
        <ele>500.53</ele>
        <time>2017-03-26T11:46:17Z</time>
      </trkpt>
      <trkpt lat="45.42529" lon="4.52743">
        <ele>500.53</ele>
        <time>2017-03-26T11:46:18Z</time>
      </trkpt>
      <trkpt lat="45.42529" lon="4.52743">
        <ele>500.53</ele>
        <time>2017-03-26T11:46:19Z</time>
      </trkpt>
      <trkpt lat="45.42529" lon="4.52743">
        <ele>500.53</ele>
        <time>2017-03-26T11:46:20Z</time>
      </trkpt>
      <trkpt lat="45.42529" lon="4.52743">
        <ele>500.53</ele>
        <time>2017-03-26T11:46:21Z</time>
      </trkpt>
      <trkpt lat="45.42529" lon="4.52743">
        <ele>500.53</ele>
        <time>2017-03-26T11:46:22Z</time>
      </trkpt>
      <trkpt lat="45.42529" lon="4.52743">
        <ele>500.53</ele>
        <time>2017-03-26T11:46:23Z</time>
      </trkpt>
      <trkpt lat="45.42529" lon="4.52743">
        <ele>500.53</ele>
        <time>2017-03-26T11:46:24Z</time>
      </trkpt>
      <trkpt lat="45.42529" lon="4.52743">
        <ele>500.53</ele>
        <time>2017-03-26T11:46:25Z</time>
      </trkpt>
      <trkpt lat="45.42529" lon="4.52743">
        <ele>500.53</ele>
        <time>2017-03-26T11:46:26Z</time>
      </trkpt>
      <trkpt lat="45.42529" lon="4.52743">
        <ele>500.53</ele>
        <time>2017-03-26T11:46:27Z</time>
      </trkpt>
      <trkpt lat="45.42529" lon="4.52743">
        <ele>500.53</ele>
        <time>2017-03-26T11:46:28Z</time>
      </trkpt>
      <trkpt lat="45.42529" lon="4.52743">
        <ele>500.53</ele>
        <time>2017-03-26T11:46:29Z</time>
      </trkpt>
      <trkpt lat="45.42529" lon="4.52743">
        <ele>500.53</ele>
        <time>2017-03-26T11:46:30Z</time>
      </trkpt>
      <trkpt lat="45.42529" lon="4.52743">
        <ele>500.53</ele>
        <time>2017-03-26T11:46:31Z</time>
      </trkpt>
      <trkpt lat="45.42529" lon="4.52743">
        <ele>500.53</ele>
        <time>2017-03-26T11:46:32Z</time>
      </trkpt>
      <trkpt lat="45.42529" lon="4.52743">
        <ele>500.53</ele>
        <time>2017-03-26T11:46:33Z</time>
      </trkpt>
      <trkpt lat="45.42529" lon="4.52743">
        <ele>500.53</ele>
        <time>2017-03-26T11:46:34Z</time>
      </trkpt>
      <trkpt lat="45.42529" lon="4.52743">
        <ele>500.53</ele>
        <time>2017-03-26T11:46:35Z</time>
      </trkpt>
      <trkpt lat="45.42529" lon="4.52743">
        <ele>500.53</ele>
        <time>2017-03-26T11:46:36Z</time>
      </trkpt>
      <trkpt lat="45.42529" lon="4.52743">
        <ele>500.53</ele>
        <time>2017-03-26T11:46:37Z</time>
      </trkpt>
      <trkpt lat="45.42529" lon="4.52743">
        <ele>500.53</ele>
        <time>2017-03-26T11:46:38Z</time>
      </trkpt>
      <trkpt lat="45.42529" lon="4.52743">
        <ele>500.53</ele>
        <time>2017-03-26T11:46:39Z</time>
      </trkpt>
      <trkpt lat="45.42529" lon="4.52743">
        <ele>500.53</ele>
        <time>2017-03-26T11:46:40Z</time>
      </trkpt>
      <trkpt lat="45.42529" lon="4.52743">
        <ele>500.53</ele>
        <time>2017-03-26T11:46:41Z</time>
      </trkpt>
      <trkpt lat="45.42529" lon="4.52743">
        <ele>500.53</ele>
        <time>2017-03-26T11:46:42Z</time>
      </trkpt>
      <trkpt lat="45.42529" lon="4.52743">
        <ele>500.53</ele>
        <time>2017-03-26T11:46:43Z</time>
      </trkpt>
      <trkpt lat="45.42529" lon="4.52743">
        <ele>500.53</ele>
        <time>2017-03-26T11:46:44Z</time>
      </trkpt>
      <trkpt lat="45.42529" lon="4.52743">
        <ele>500.53</ele>
        <time>2017-03-26T11:46:45Z</time>
      </trkpt>
      <trkpt lat="45.42529" lon="4.52743">
        <ele>500.53</ele>
        <time>2017-03-26T11:46:46Z</time>
      </trkpt>
      <trkpt lat="45.42529" lon="4.52743">
        <ele>500.53</ele>
        <time>2017-03-26T11:46:47Z</time>
      </trkpt>
      <trkpt lat="45.4252" lon="4.52741">
        <ele>501.49</ele>
        <time>2017-03-26T11:46:48Z</time>
      </trkpt>
      <trkpt lat="45.4252" lon="4.5274">
        <ele>501.68</ele>
        <time>2017-03-26T11:46:49Z</time>
      </trkpt>
      <trkpt lat="45.42521" lon="4.5274">
        <ele>501.64</ele>
        <time>2017-03-26T11:46:50Z</time>
      </trkpt>
      <trkpt lat="45.42521" lon="4.5274">
        <ele>501.63</ele>
        <time>2017-03-26T11:46:51Z</time>
      </trkpt>
      <trkpt lat="45.42521" lon="4.5274">
        <ele>501.63</ele>
        <time>2017-03-26T11:46:52Z</time>
      </trkpt>
      <trkpt lat="45.42521" lon="4.5274">
        <ele>501.63</ele>
        <time>2017-03-26T11:46:53Z</time>
      </trkpt>
      <trkpt lat="45.42521" lon="4.5274">
        <ele>501.63</ele>
        <time>2017-03-26T11:46:54Z</time>
      </trkpt>
      <trkpt lat="45.42521" lon="4.5274">
        <ele>501.63</ele>
        <time>2017-03-26T11:46:55Z</time>
      </trkpt>
      <trkpt lat="45.42521" lon="4.5274">
        <ele>501.63</ele>
        <time>2017-03-26T11:46:56Z</time>
      </trkpt>
      <trkpt lat="45.42521" lon="4.5274">
        <ele>501.63</ele>
        <time>2017-03-26T11:46:57Z</time>
      </trkpt>
      <trkpt lat="45.42521" lon="4.5274">
        <ele>501.63</ele>
        <time>2017-03-26T11:46:58Z</time>
      </trkpt>
      <trkpt lat="45.42521" lon="4.5274">
        <ele>501.63</ele>
        <time>2017-03-26T11:46:59Z</time>
      </trkpt>
      <trkpt lat="45.42521" lon="4.5274">
        <ele>501.63</ele>
        <time>2017-03-26T11:47:00Z</time>
      </trkpt>
      <trkpt lat="45.42521" lon="4.5274">
        <ele>501.63</ele>
        <time>2017-03-26T11:47:01Z</time>
      </trkpt>
      <trkpt lat="45.42521" lon="4.5274">
        <ele>501.63</ele>
        <time>2017-03-26T11:47:02Z</time>
      </trkpt>
      <trkpt lat="45.42521" lon="4.5274">
        <ele>501.63</ele>
        <time>2017-03-26T11:47:03Z</time>
      </trkpt>
      <trkpt lat="45.42521" lon="4.5274">
        <ele>501.63</ele>
        <time>2017-03-26T11:47:04Z</time>
      </trkpt>
      <trkpt lat="45.42521" lon="4.5274">
        <ele>501.63</ele>
        <time>2017-03-26T11:47:05Z</time>
      </trkpt>
      <trkpt lat="45.42521" lon="4.5274">
        <ele>501.63</ele>
        <time>2017-03-26T11:47:06Z</time>
      </trkpt>
      <trkpt lat="45.42521" lon="4.5274">
        <ele>501.63</ele>
        <time>2017-03-26T11:47:07Z</time>
      </trkpt>
      <trkpt lat="45.42521" lon="4.5274">
        <ele>501.63</ele>
        <time>2017-03-26T11:47:08Z</time>
      </trkpt>
      <trkpt lat="45.42521" lon="4.5274">
        <ele>501.63</ele>
        <time>2017-03-26T11:47:09Z</time>
      </trkpt>
      <trkpt lat="45.42521" lon="4.5274">
        <ele>501.63</ele>
        <time>2017-03-26T11:47:10Z</time>
      </trkpt>
      <trkpt lat="45.42521" lon="4.5274">
        <ele>501.63</ele>
        <time>2017-03-26T11:47:11Z</time>
      </trkpt>
      <trkpt lat="45.42521" lon="4.5274">
        <ele>501.63</ele>
        <time>2017-03-26T11:47:12Z</time>
      </trkpt>
      <trkpt lat="45.42521" lon="4.5274">
        <ele>501.63</ele>
        <time>2017-03-26T11:47:13Z</time>
      </trkpt>
      <trkpt lat="45.42521" lon="4.5274">
        <ele>501.63</ele>
        <time>2017-03-26T11:47:14Z</time>
      </trkpt>
      <trkpt lat="45.42521" lon="4.5274">
        <ele>501.63</ele>
        <time>2017-03-26T11:47:15Z</time>
      </trkpt>
      <trkpt lat="45.42521" lon="4.5274">
        <ele>501.63</ele>
        <time>2017-03-26T11:47:16Z</time>
      </trkpt>
      <trkpt lat="45.42521" lon="4.5274">
        <ele>501.63</ele>
        <time>2017-03-26T11:47:17Z</time>
      </trkpt>
      <trkpt lat="45.42521" lon="4.5274">
        <ele>501.63</ele>
        <time>2017-03-26T11:47:18Z</time>
      </trkpt>
      <trkpt lat="45.42521" lon="4.5274">
        <ele>501.63</ele>
        <time>2017-03-26T11:47:19Z</time>
      </trkpt>
      <trkpt lat="45.42521" lon="4.5274">
        <ele>501.63</ele>
        <time>2017-03-26T11:47:20Z</time>
      </trkpt>
      <trkpt lat="45.42521" lon="4.5274">
        <ele>501.63</ele>
        <time>2017-03-26T11:47:21Z</time>
      </trkpt>
      <trkpt lat="45.42521" lon="4.5274">
        <ele>501.63</ele>
        <time>2017-03-26T11:47:22Z</time>
      </trkpt>
      <trkpt lat="45.42521" lon="4.5274">
        <ele>501.63</ele>
        <time>2017-03-26T11:47:23Z</time>
      </trkpt>
      <trkpt lat="45.42521" lon="4.5274">
        <ele>501.63</ele>
        <time>2017-03-26T11:47:24Z</time>
      </trkpt>
      <trkpt lat="45.42521" lon="4.5274">
        <ele>501.63</ele>
        <time>2017-03-26T11:47:25Z</time>
      </trkpt>
      <trkpt lat="45.42521" lon="4.5274">
        <ele>501.63</ele>
        <time>2017-03-26T11:47:26Z</time>
      </trkpt>
      <trkpt lat="45.42521" lon="4.5274">
        <ele>501.63</ele>
        <time>2017-03-26T11:47:27Z</time>
      </trkpt>
      <trkpt lat="45.42521" lon="4.5274">
        <ele>501.63</ele>
        <time>2017-03-26T11:47:28Z</time>
      </trkpt>
      <trkpt lat="45.42521" lon="4.5274">
        <ele>501.63</ele>
        <time>2017-03-26T11:47:29Z</time>
      </trkpt>
      <trkpt lat="45.42521" lon="4.5274">
        <ele>501.63</ele>
        <time>2017-03-26T11:47:30Z</time>
      </trkpt>
      <trkpt lat="45.42521" lon="4.5274">
        <ele>501.63</ele>
        <time>2017-03-26T11:47:31Z</time>
      </trkpt>
      <trkpt lat="45.42521" lon="4.5274">
        <ele>501.63</ele>
        <time>2017-03-26T11:47:32Z</time>
      </trkpt>
      <trkpt lat="45.42521" lon="4.5274">
        <ele>501.63</ele>
        <time>2017-03-26T11:47:33Z</time>
      </trkpt>
      <trkpt lat="45.42521" lon="4.5274">
        <ele>501.63</ele>
        <time>2017-03-26T11:47:34Z</time>
      </trkpt>
      <trkpt lat="45.42521" lon="4.5274">
        <ele>501.63</ele>
        <time>2017-03-26T11:47:35Z</time>
      </trkpt>
      <trkpt lat="45.42521" lon="4.5274">
        <ele>501.63</ele>
        <time>2017-03-26T11:47:36Z</time>
      </trkpt>
      <trkpt lat="45.42521" lon="4.5274">
        <ele>501.63</ele>
        <time>2017-03-26T11:47:37Z</time>
      </trkpt>
      <trkpt lat="45.42521" lon="4.5274">
        <ele>501.63</ele>
        <time>2017-03-26T11:47:38Z</time>
      </trkpt>
      <trkpt lat="45.42521" lon="4.5274">
        <ele>501.63</ele>
        <time>2017-03-26T11:47:39Z</time>
      </trkpt>
      <trkpt lat="45.42521" lon="4.5274">
        <ele>501.63</ele>
        <time>2017-03-26T11:47:40Z</time>
      </trkpt>
      <trkpt lat="45.42521" lon="4.5274">
        <ele>501.63</ele>
        <time>2017-03-26T11:47:41Z</time>
      </trkpt>
      <trkpt lat="45.42521" lon="4.5274">
        <ele>501.63</ele>
        <time>2017-03-26T11:47:42Z</time>
      </trkpt>
      <trkpt lat="45.42521" lon="4.5274">
        <ele>501.63</ele>
        <time>2017-03-26T11:47:43Z</time>
      </trkpt>
      <trkpt lat="45.42521" lon="4.5274">
        <ele>501.63</ele>
        <time>2017-03-26T11:47:44Z</time>
      </trkpt>
      <trkpt lat="45.42521" lon="4.5274">
        <ele>501.63</ele>
        <time>2017-03-26T11:47:45Z</time>
      </trkpt>
      <trkpt lat="45.42521" lon="4.5274">
        <ele>501.63</ele>
        <time>2017-03-26T11:47:46Z</time>
      </trkpt>
      <trkpt lat="45.42521" lon="4.5274">
        <ele>501.63</ele>
        <time>2017-03-26T11:47:47Z</time>
      </trkpt>
      <trkpt lat="45.42521" lon="4.5274">
        <ele>501.63</ele>
        <time>2017-03-26T11:47:48Z</time>
      </trkpt>
      <trkpt lat="45.42521" lon="4.5274">
        <ele>501.63</ele>
        <time>2017-03-26T11:47:49Z</time>
      </trkpt>
      <trkpt lat="45.42521" lon="4.5274">
        <ele>501.63</ele>
        <time>2017-03-26T11:47:50Z</time>
      </trkpt>
      <trkpt lat="45.42521" lon="4.5274">
        <ele>501.63</ele>
        <time>2017-03-26T11:47:51Z</time>
      </trkpt>
      <trkpt lat="45.42521" lon="4.5274">
        <ele>501.63</ele>
        <time>2017-03-26T11:47:52Z</time>
      </trkpt>
      <trkpt lat="45.42521" lon="4.5274">
        <ele>501.63</ele>
        <time>2017-03-26T11:47:53Z</time>
      </trkpt>
      <trkpt lat="45.42521" lon="4.5274">
        <ele>501.63</ele>
        <time>2017-03-26T11:47:54Z</time>
      </trkpt>
      <trkpt lat="45.42521" lon="4.5274">
        <ele>501.63</ele>
        <time>2017-03-26T11:47:55Z</time>
      </trkpt>
      <trkpt lat="45.42521" lon="4.5274">
        <ele>501.63</ele>
        <time>2017-03-26T11:47:56Z</time>
      </trkpt>
      <trkpt lat="45.42521" lon="4.5274">
        <ele>501.63</ele>
        <time>2017-03-26T11:47:57Z</time>
      </trkpt>
      <trkpt lat="45.42521" lon="4.5274">
        <ele>501.63</ele>
        <time>2017-03-26T11:47:58Z</time>
      </trkpt>
      <trkpt lat="45.42521" lon="4.5274">
        <ele>501.63</ele>
        <time>2017-03-26T11:47:59Z</time>
      </trkpt>
      <trkpt lat="45.42521" lon="4.5274">
        <ele>501.63</ele>
        <time>2017-03-26T11:48:00Z</time>
      </trkpt>
      <trkpt lat="45.42521" lon="4.5274">
        <ele>501.63</ele>
        <time>2017-03-26T11:48:01Z</time>
      </trkpt>
      <trkpt lat="45.42521" lon="4.5274">
        <ele>501.63</ele>
        <time>2017-03-26T11:48:02Z</time>
      </trkpt>
      <trkpt lat="45.42521" lon="4.5274">
        <ele>501.63</ele>
        <time>2017-03-26T11:48:03Z</time>
      </trkpt>
      <trkpt lat="45.42513" lon="4.52734">
        <ele>502.19</ele>
        <time>2017-03-26T11:48:04Z</time>
      </trkpt>
      <trkpt lat="45.42513" lon="4.52733">
        <ele>502.38</ele>
        <time>2017-03-26T11:48:05Z</time>
      </trkpt>
      <trkpt lat="45.42512" lon="4.52734">
        <ele>502.5</ele>
        <time>2017-03-26T11:48:06Z</time>
      </trkpt>
      <trkpt lat="45.42512" lon="4.52734">
        <ele>502.6</ele>
        <time>2017-03-26T11:48:07Z</time>
      </trkpt>
      <trkpt lat="45.42512" lon="4.52734">
        <ele>502.62</ele>
        <time>2017-03-26T11:48:08Z</time>
      </trkpt>
      <trkpt lat="45.42512" lon="4.52734">
        <ele>502.63</ele>
        <time>2017-03-26T11:48:09Z</time>
      </trkpt>
      <trkpt lat="45.42512" lon="4.52734">
        <ele>502.63</ele>
        <time>2017-03-26T11:48:10Z</time>
      </trkpt>
      <trkpt lat="45.42512" lon="4.52734">
        <ele>502.63</ele>
        <time>2017-03-26T11:48:11Z</time>
      </trkpt>
      <trkpt lat="45.42512" lon="4.52734">
        <ele>502.63</ele>
        <time>2017-03-26T11:48:12Z</time>
      </trkpt>
      <trkpt lat="45.42512" lon="4.52734">
        <ele>502.63</ele>
        <time>2017-03-26T11:48:13Z</time>
      </trkpt>
      <trkpt lat="45.42512" lon="4.52734">
        <ele>502.63</ele>
        <time>2017-03-26T11:48:14Z</time>
      </trkpt>
      <trkpt lat="45.42512" lon="4.52734">
        <ele>502.63</ele>
        <time>2017-03-26T11:48:15Z</time>
      </trkpt>
      <trkpt lat="45.42512" lon="4.52734">
        <ele>502.63</ele>
        <time>2017-03-26T11:48:16Z</time>
      </trkpt>
      <trkpt lat="45.42512" lon="4.52734">
        <ele>502.63</ele>
        <time>2017-03-26T11:48:17Z</time>
      </trkpt>
      <trkpt lat="45.42512" lon="4.52734">
        <ele>502.63</ele>
        <time>2017-03-26T11:48:18Z</time>
      </trkpt>
      <trkpt lat="45.42512" lon="4.52734">
        <ele>502.63</ele>
        <time>2017-03-26T11:48:19Z</time>
      </trkpt>
      <trkpt lat="45.42512" lon="4.52734">
        <ele>502.63</ele>
        <time>2017-03-26T11:48:20Z</time>
      </trkpt>
      <trkpt lat="45.42512" lon="4.52734">
        <ele>502.63</ele>
        <time>2017-03-26T11:48:21Z</time>
      </trkpt>
      <trkpt lat="45.42505" lon="4.52725">
        <ele>502.95</ele>
        <time>2017-03-26T11:48:22Z</time>
      </trkpt>
      <trkpt lat="45.42505" lon="4.52724">
        <ele>502.93</ele>
        <time>2017-03-26T11:48:23Z</time>
      </trkpt>
      <trkpt lat="45.42505" lon="4.52723">
        <ele>502.93</ele>
        <time>2017-03-26T11:48:24Z</time>
      </trkpt>
      <trkpt lat="45.42504" lon="4.52722">
        <ele>502.93</ele>
        <time>2017-03-26T11:48:25Z</time>
      </trkpt>
      <trkpt lat="45.42504" lon="4.52722">
        <ele>502.93</ele>
        <time>2017-03-26T11:48:26Z</time>
      </trkpt>
      <trkpt lat="45.42504" lon="4.52722">
        <ele>502.93</ele>
        <time>2017-03-26T11:48:27Z</time>
      </trkpt>
      <trkpt lat="45.42504" lon="4.52722">
        <ele>502.93</ele>
        <time>2017-03-26T11:48:28Z</time>
      </trkpt>
      <trkpt lat="45.42504" lon="4.52722">
        <ele>502.93</ele>
        <time>2017-03-26T11:48:29Z</time>
      </trkpt>
      <trkpt lat="45.42504" lon="4.52722">
        <ele>502.93</ele>
        <time>2017-03-26T11:48:30Z</time>
      </trkpt>
      <trkpt lat="45.42504" lon="4.52722">
        <ele>502.93</ele>
        <time>2017-03-26T11:48:31Z</time>
      </trkpt>
      <trkpt lat="45.42504" lon="4.52722">
        <ele>502.93</ele>
        <time>2017-03-26T11:48:32Z</time>
      </trkpt>
      <trkpt lat="45.42504" lon="4.52722">
        <ele>502.93</ele>
        <time>2017-03-26T11:48:33Z</time>
      </trkpt>
      <trkpt lat="45.42504" lon="4.52722">
        <ele>502.93</ele>
        <time>2017-03-26T11:48:34Z</time>
      </trkpt>
      <trkpt lat="45.42504" lon="4.52722">
        <ele>502.93</ele>
        <time>2017-03-26T11:48:35Z</time>
      </trkpt>
      <trkpt lat="45.42504" lon="4.52722">
        <ele>502.93</ele>
        <time>2017-03-26T11:48:36Z</time>
      </trkpt>
      <trkpt lat="45.42504" lon="4.52722">
        <ele>502.93</ele>
        <time>2017-03-26T11:48:37Z</time>
      </trkpt>
      <trkpt lat="45.42506" lon="4.52709">
        <ele>503.49</ele>
        <time>2017-03-26T11:48:38Z</time>
      </trkpt>
      <trkpt lat="45.42506" lon="4.52708">
        <ele>503.68</ele>
        <time>2017-03-26T11:48:39Z</time>
      </trkpt>
      <trkpt lat="45.42506" lon="4.52707">
        <ele>503.88</ele>
        <time>2017-03-26T11:48:40Z</time>
      </trkpt>
      <trkpt lat="45.42507" lon="4.52707">
        <ele>504.08</ele>
        <time>2017-03-26T11:48:41Z</time>
      </trkpt>
      <trkpt lat="45.42507" lon="4.52707">
        <ele>504.12</ele>
        <time>2017-03-26T11:48:42Z</time>
      </trkpt>
      <trkpt lat="45.42507" lon="4.52707">
        <ele>504.13</ele>
        <time>2017-03-26T11:48:43Z</time>
      </trkpt>
      <trkpt lat="45.42507" lon="4.52707">
        <ele>504.13</ele>
        <time>2017-03-26T11:48:44Z</time>
      </trkpt>
      <trkpt lat="45.42507" lon="4.52707">
        <ele>504.13</ele>
        <time>2017-03-26T11:48:45Z</time>
      </trkpt>
      <trkpt lat="45.42507" lon="4.52707">
        <ele>504.13</ele>
        <time>2017-03-26T11:48:46Z</time>
      </trkpt>
      <trkpt lat="45.42507" lon="4.52707">
        <ele>504.13</ele>
        <time>2017-03-26T11:48:47Z</time>
      </trkpt>
      <trkpt lat="45.42507" lon="4.52707">
        <ele>504.13</ele>
        <time>2017-03-26T11:48:48Z</time>
      </trkpt>
      <trkpt lat="45.42507" lon="4.52707">
        <ele>504.13</ele>
        <time>2017-03-26T11:48:49Z</time>
      </trkpt>
      <trkpt lat="45.42507" lon="4.52707">
        <ele>504.13</ele>
        <time>2017-03-26T11:48:50Z</time>
      </trkpt>
      <trkpt lat="45.42507" lon="4.52707">
        <ele>504.13</ele>
        <time>2017-03-26T11:48:51Z</time>
      </trkpt>
      <trkpt lat="45.42507" lon="4.52707">
        <ele>504.13</ele>
        <time>2017-03-26T11:48:52Z</time>
      </trkpt>
      <trkpt lat="45.42507" lon="4.52707">
        <ele>504.13</ele>
        <time>2017-03-26T11:48:53Z</time>
      </trkpt>
      <trkpt lat="45.42507" lon="4.52707">
        <ele>504.13</ele>
        <time>2017-03-26T11:48:54Z</time>
      </trkpt>
      <trkpt lat="45.42507" lon="4.52707">
        <ele>504.13</ele>
        <time>2017-03-26T11:48:55Z</time>
      </trkpt>
      <trkpt lat="45.42507" lon="4.52693">
        <ele>505.81</ele>
        <time>2017-03-26T11:48:56Z</time>
      </trkpt>
      <trkpt lat="45.42507" lon="4.52692">
        <ele>506.15</ele>
        <time>2017-03-26T11:48:57Z</time>
      </trkpt>
      <trkpt lat="45.42507" lon="4.52691">
        <ele>506.21</ele>
        <time>2017-03-26T11:48:58Z</time>
      </trkpt>
      <trkpt lat="45.42507" lon="4.5269">
        <ele>506.31</ele>
        <time>2017-03-26T11:48:59Z</time>
      </trkpt>
      <trkpt lat="45.42507" lon="4.5269">
        <ele>506.33</ele>
        <time>2017-03-26T11:49:00Z</time>
      </trkpt>
      <trkpt lat="45.42507" lon="4.5269">
        <ele>506.33</ele>
        <time>2017-03-26T11:49:01Z</time>
      </trkpt>
      <trkpt lat="45.42507" lon="4.5269">
        <ele>506.33</ele>
        <time>2017-03-26T11:49:02Z</time>
      </trkpt>
      <trkpt lat="45.42507" lon="4.5269">
        <ele>506.33</ele>
        <time>2017-03-26T11:49:03Z</time>
      </trkpt>
      <trkpt lat="45.42507" lon="4.5269">
        <ele>506.33</ele>
        <time>2017-03-26T11:49:04Z</time>
      </trkpt>
      <trkpt lat="45.42507" lon="4.5269">
        <ele>506.33</ele>
        <time>2017-03-26T11:49:05Z</time>
      </trkpt>
      <trkpt lat="45.42507" lon="4.5269">
        <ele>506.33</ele>
        <time>2017-03-26T11:49:06Z</time>
      </trkpt>
      <trkpt lat="45.42507" lon="4.5269">
        <ele>506.33</ele>
        <time>2017-03-26T11:49:07Z</time>
      </trkpt>
      <trkpt lat="45.42507" lon="4.5269">
        <ele>506.33</ele>
        <time>2017-03-26T11:49:08Z</time>
      </trkpt>
      <trkpt lat="45.42507" lon="4.5269">
        <ele>506.33</ele>
        <time>2017-03-26T11:49:09Z</time>
      </trkpt>
      <trkpt lat="45.42507" lon="4.5269">
        <ele>506.33</ele>
        <time>2017-03-26T11:49:10Z</time>
      </trkpt>
      <trkpt lat="45.42507" lon="4.5269">
        <ele>506.33</ele>
        <time>2017-03-26T11:49:11Z</time>
      </trkpt>
      <trkpt lat="45.42507" lon="4.5269">
        <ele>506.33</ele>
        <time>2017-03-26T11:49:12Z</time>
      </trkpt>
      <trkpt lat="45.42507" lon="4.5269">
        <ele>506.33</ele>
        <time>2017-03-26T11:49:13Z</time>
      </trkpt>
      <trkpt lat="45.42507" lon="4.5269">
        <ele>506.33</ele>
        <time>2017-03-26T11:49:14Z</time>
      </trkpt>
      <trkpt lat="45.4251" lon="4.52677">
        <ele>506.57</ele>
        <time>2017-03-26T11:49:15Z</time>
      </trkpt>
      <trkpt lat="45.42511" lon="4.52676">
        <ele>506.62</ele>
        <time>2017-03-26T11:49:16Z</time>
      </trkpt>
      <trkpt lat="45.4251" lon="4.52674">
        <ele>506.71</ele>
        <time>2017-03-26T11:49:17Z</time>
      </trkpt>
      <trkpt lat="45.42511" lon="4.52673">
        <ele>506.73</ele>
        <time>2017-03-26T11:49:18Z</time>
      </trkpt>
      <trkpt lat="45.42511" lon="4.52673">
        <ele>506.73</ele>
        <time>2017-03-26T11:49:19Z</time>
      </trkpt>
      <trkpt lat="45.42511" lon="4.52673">
        <ele>506.73</ele>
        <time>2017-03-26T11:49:20Z</time>
      </trkpt>
      <trkpt lat="45.42511" lon="4.52673">
        <ele>506.73</ele>
        <time>2017-03-26T11:49:21Z</time>
      </trkpt>
      <trkpt lat="45.42511" lon="4.52673">
        <ele>506.73</ele>
        <time>2017-03-26T11:49:22Z</time>
      </trkpt>
      <trkpt lat="45.42511" lon="4.52673">
        <ele>506.73</ele>
        <time>2017-03-26T11:49:23Z</time>
      </trkpt>
      <trkpt lat="45.42511" lon="4.52673">
        <ele>506.73</ele>
        <time>2017-03-26T11:49:24Z</time>
      </trkpt>
      <trkpt lat="45.42511" lon="4.52673">
        <ele>506.73</ele>
        <time>2017-03-26T11:49:25Z</time>
      </trkpt>
      <trkpt lat="45.42511" lon="4.52673">
        <ele>506.73</ele>
        <time>2017-03-26T11:49:26Z</time>
      </trkpt>
      <trkpt lat="45.42511" lon="4.52673">
        <ele>506.73</ele>
        <time>2017-03-26T11:49:27Z</time>
      </trkpt>
      <trkpt lat="45.42511" lon="4.52673">
        <ele>506.73</ele>
        <time>2017-03-26T11:49:28Z</time>
      </trkpt>
      <trkpt lat="45.42511" lon="4.52673">
        <ele>506.73</ele>
        <time>2017-03-26T11:49:29Z</time>
      </trkpt>
      <trkpt lat="45.42512" lon="4.5266">
        <ele>506.81</ele>
        <time>2017-03-26T11:49:30Z</time>
      </trkpt>
      <trkpt lat="45.42512" lon="4.52659">
        <ele>506.83</ele>
        <time>2017-03-26T11:49:31Z</time>
      </trkpt>
      <trkpt lat="45.42513" lon="4.52658">
        <ele>506.83</ele>
        <time>2017-03-26T11:49:32Z</time>
      </trkpt>
      <trkpt lat="45.42513" lon="4.52656">
        <ele>506.91</ele>
        <time>2017-03-26T11:49:33Z</time>
      </trkpt>
      <trkpt lat="45.42513" lon="4.52656">
        <ele>506.93</ele>
        <time>2017-03-26T11:49:34Z</time>
      </trkpt>
      <trkpt lat="45.42513" lon="4.52656">
        <ele>506.93</ele>
        <time>2017-03-26T11:49:35Z</time>
      </trkpt>
      <trkpt lat="45.42513" lon="4.52656">
        <ele>506.93</ele>
        <time>2017-03-26T11:49:36Z</time>
      </trkpt>
      <trkpt lat="45.42513" lon="4.52656">
        <ele>506.93</ele>
        <time>2017-03-26T11:49:37Z</time>
      </trkpt>
      <trkpt lat="45.42513" lon="4.52656">
        <ele>506.93</ele>
        <time>2017-03-26T11:49:38Z</time>
      </trkpt>
      <trkpt lat="45.42513" lon="4.52656">
        <ele>506.93</ele>
        <time>2017-03-26T11:49:39Z</time>
      </trkpt>
      <trkpt lat="45.42513" lon="4.52656">
        <ele>506.93</ele>
        <time>2017-03-26T11:49:40Z</time>
      </trkpt>
      <trkpt lat="45.42513" lon="4.52656">
        <ele>506.93</ele>
        <time>2017-03-26T11:49:41Z</time>
      </trkpt>
      <trkpt lat="45.42513" lon="4.52656">
        <ele>506.93</ele>
        <time>2017-03-26T11:49:42Z</time>
      </trkpt>
      <trkpt lat="45.42514" lon="4.52643">
        <ele>506.77</ele>
        <time>2017-03-26T11:49:43Z</time>
      </trkpt>
      <trkpt lat="45.42514" lon="4.52642">
        <ele>506.66</ele>
        <time>2017-03-26T11:49:44Z</time>
      </trkpt>
      <trkpt lat="45.42514" lon="4.52641">
        <ele>506.48</ele>
        <time>2017-03-26T11:49:45Z</time>
      </trkpt>
      <trkpt lat="45.42514" lon="4.5264">
        <ele>506.36</ele>
        <time>2017-03-26T11:49:46Z</time>
      </trkpt>
      <trkpt lat="45.42514" lon="4.5264">
        <ele>506.34</ele>
        <time>2017-03-26T11:49:47Z</time>
      </trkpt>
      <trkpt lat="45.42514" lon="4.5264">
        <ele>506.33</ele>
        <time>2017-03-26T11:49:48Z</time>
      </trkpt>
      <trkpt lat="45.42514" lon="4.5264">
        <ele>506.33</ele>
        <time>2017-03-26T11:49:49Z</time>
      </trkpt>
      <trkpt lat="45.42514" lon="4.5264">
        <ele>506.33</ele>
        <time>2017-03-26T11:49:50Z</time>
      </trkpt>
      <trkpt lat="45.42514" lon="4.5264">
        <ele>506.33</ele>
        <time>2017-03-26T11:49:51Z</time>
      </trkpt>
      <trkpt lat="45.42514" lon="4.5264">
        <ele>506.33</ele>
        <time>2017-03-26T11:49:52Z</time>
      </trkpt>
      <trkpt lat="45.42514" lon="4.5264">
        <ele>506.33</ele>
        <time>2017-03-26T11:49:53Z</time>
      </trkpt>
      <trkpt lat="45.42514" lon="4.5264">
        <ele>506.33</ele>
        <time>2017-03-26T11:49:54Z</time>
      </trkpt>
      <trkpt lat="45.42514" lon="4.5264">
        <ele>506.33</ele>
        <time>2017-03-26T11:49:55Z</time>
      </trkpt>
      <trkpt lat="45.42521" lon="4.52631">
        <ele>505.37</ele>
        <time>2017-03-26T11:49:56Z</time>
      </trkpt>
      <trkpt lat="45.42522" lon="4.52631">
        <ele>505.18</ele>
        <time>2017-03-26T11:49:57Z</time>
      </trkpt>
      <trkpt lat="45.42523" lon="4.52629">
        <ele>505.06</ele>
        <time>2017-03-26T11:49:58Z</time>
      </trkpt>
      <trkpt lat="45.42523" lon="4.52628">
        <ele>504.96</ele>
        <time>2017-03-26T11:49:59Z</time>
      </trkpt>
      <trkpt lat="45.42523" lon="4.52628">
        <ele>504.94</ele>
        <time>2017-03-26T11:50:00Z</time>
      </trkpt>
      <trkpt lat="45.42523" lon="4.52628">
        <ele>504.93</ele>
        <time>2017-03-26T11:50:01Z</time>
      </trkpt>
      <trkpt lat="45.42523" lon="4.52628">
        <ele>504.93</ele>
        <time>2017-03-26T11:50:02Z</time>
      </trkpt>
      <trkpt lat="45.42523" lon="4.52628">
        <ele>504.93</ele>
        <time>2017-03-26T11:50:03Z</time>
      </trkpt>
      <trkpt lat="45.42523" lon="4.52628">
        <ele>504.93</ele>
        <time>2017-03-26T11:50:04Z</time>
      </trkpt>
      <trkpt lat="45.42523" lon="4.52628">
        <ele>504.93</ele>
        <time>2017-03-26T11:50:05Z</time>
      </trkpt>
      <trkpt lat="45.42523" lon="4.52628">
        <ele>504.93</ele>
        <time>2017-03-26T11:50:06Z</time>
      </trkpt>
      <trkpt lat="45.42523" lon="4.52628">
        <ele>504.93</ele>
        <time>2017-03-26T11:50:07Z</time>
      </trkpt>
      <trkpt lat="45.42529" lon="4.52618">
        <ele>504.61</ele>
        <time>2017-03-26T11:50:08Z</time>
      </trkpt>
      <trkpt lat="45.42529" lon="4.52617">
        <ele>504.55</ele>
        <time>2017-03-26T11:50:09Z</time>
      </trkpt>
      <trkpt lat="45.4253" lon="4.52616">
        <ele>504.45</ele>
        <time>2017-03-26T11:50:10Z</time>
      </trkpt>
      <trkpt lat="45.4253" lon="4.52615">
        <ele>504.43</ele>
        <time>2017-03-26T11:50:11Z</time>
      </trkpt>
      <trkpt lat="45.4253" lon="4.52615">
        <ele>504.43</ele>
        <time>2017-03-26T11:50:12Z</time>
      </trkpt>
      <trkpt lat="45.4253" lon="4.52615">
        <ele>504.43</ele>
        <time>2017-03-26T11:50:13Z</time>
      </trkpt>
      <trkpt lat="45.4253" lon="4.52615">
        <ele>504.43</ele>
        <time>2017-03-26T11:50:14Z</time>
      </trkpt>
      <trkpt lat="45.4253" lon="4.52615">
        <ele>504.43</ele>
        <time>2017-03-26T11:50:15Z</time>
      </trkpt>
      <trkpt lat="45.4253" lon="4.52615">
        <ele>504.43</ele>
        <time>2017-03-26T11:50:16Z</time>
      </trkpt>
      <trkpt lat="45.4253" lon="4.52615">
        <ele>504.43</ele>
        <time>2017-03-26T11:50:17Z</time>
      </trkpt>
      <trkpt lat="45.4253" lon="4.52615">
        <ele>504.43</ele>
        <time>2017-03-26T11:50:18Z</time>
      </trkpt>
      <trkpt lat="45.4253" lon="4.52615">
        <ele>504.43</ele>
        <time>2017-03-26T11:50:19Z</time>
      </trkpt>
      <trkpt lat="45.4253" lon="4.52615">
        <ele>504.43</ele>
        <time>2017-03-26T11:50:20Z</time>
      </trkpt>
      <trkpt lat="45.4253" lon="4.52615">
        <ele>504.43</ele>
        <time>2017-03-26T11:50:21Z</time>
      </trkpt>
      <trkpt lat="45.4253" lon="4.52615">
        <ele>504.43</ele>
        <time>2017-03-26T11:50:22Z</time>
      </trkpt>
      <trkpt lat="45.4253" lon="4.52615">
        <ele>504.43</ele>
        <time>2017-03-26T11:50:23Z</time>
      </trkpt>
      <trkpt lat="45.4253" lon="4.52615">
        <ele>504.43</ele>
        <time>2017-03-26T11:50:24Z</time>
      </trkpt>
      <trkpt lat="45.4253" lon="4.52615">
        <ele>504.43</ele>
        <time>2017-03-26T11:50:25Z</time>
      </trkpt>
      <trkpt lat="45.4253" lon="4.52615">
        <ele>504.43</ele>
        <time>2017-03-26T11:50:26Z</time>
      </trkpt>
      <trkpt lat="45.4253" lon="4.52615">
        <ele>504.43</ele>
        <time>2017-03-26T11:50:27Z</time>
      </trkpt>
      <trkpt lat="45.4253" lon="4.52615">
        <ele>504.43</ele>
        <time>2017-03-26T11:50:28Z</time>
      </trkpt>
      <trkpt lat="45.4253" lon="4.52615">
        <ele>504.43</ele>
        <time>2017-03-26T11:50:29Z</time>
      </trkpt>
      <trkpt lat="45.4253" lon="4.52615">
        <ele>504.43</ele>
        <time>2017-03-26T11:50:30Z</time>
      </trkpt>
      <trkpt lat="45.4253" lon="4.52615">
        <ele>504.43</ele>
        <time>2017-03-26T11:50:31Z</time>
      </trkpt>
      <trkpt lat="45.4253" lon="4.52615">
        <ele>504.43</ele>
        <time>2017-03-26T11:50:32Z</time>
      </trkpt>
      <trkpt lat="45.4253" lon="4.52615">
        <ele>504.43</ele>
        <time>2017-03-26T11:50:33Z</time>
      </trkpt>
      <trkpt lat="45.4253" lon="4.52615">
        <ele>504.43</ele>
        <time>2017-03-26T11:50:34Z</time>
      </trkpt>
      <trkpt lat="45.4253" lon="4.52615">
        <ele>504.43</ele>
        <time>2017-03-26T11:50:35Z</time>
      </trkpt>
      <trkpt lat="45.4253" lon="4.52615">
        <ele>504.43</ele>
        <time>2017-03-26T11:50:36Z</time>
      </trkpt>
      <trkpt lat="45.4253" lon="4.52615">
        <ele>504.43</ele>
        <time>2017-03-26T11:50:37Z</time>
      </trkpt>
      <trkpt lat="45.4253" lon="4.52615">
        <ele>504.43</ele>
        <time>2017-03-26T11:50:38Z</time>
      </trkpt>
      <trkpt lat="45.4253" lon="4.52615">
        <ele>504.43</ele>
        <time>2017-03-26T11:50:39Z</time>
      </trkpt>
      <trkpt lat="45.4253" lon="4.52615">
        <ele>504.43</ele>
        <time>2017-03-26T11:50:40Z</time>
      </trkpt>
      <trkpt lat="45.4253" lon="4.52615">
        <ele>504.43</ele>
        <time>2017-03-26T11:50:41Z</time>
      </trkpt>
      <trkpt lat="45.4253" lon="4.52615">
        <ele>504.43</ele>
        <time>2017-03-26T11:50:42Z</time>
      </trkpt>
      <trkpt lat="45.4253" lon="4.52615">
        <ele>504.43</ele>
        <time>2017-03-26T11:50:43Z</time>
      </trkpt>
      <trkpt lat="45.4253" lon="4.52615">
        <ele>504.43</ele>
        <time>2017-03-26T11:50:44Z</time>
      </trkpt>
      <trkpt lat="45.4253" lon="4.52615">
        <ele>504.43</ele>
        <time>2017-03-26T11:50:45Z</time>
      </trkpt>
      <trkpt lat="45.4253" lon="4.52615">
        <ele>504.43</ele>
        <time>2017-03-26T11:50:46Z</time>
      </trkpt>
      <trkpt lat="45.4253" lon="4.52615">
        <ele>504.43</ele>
        <time>2017-03-26T11:50:47Z</time>
      </trkpt>
      <trkpt lat="45.4253" lon="4.52615">
        <ele>504.43</ele>
        <time>2017-03-26T11:50:48Z</time>
      </trkpt>
      <trkpt lat="45.4253" lon="4.52615">
        <ele>504.43</ele>
        <time>2017-03-26T11:50:49Z</time>
      </trkpt>
      <trkpt lat="45.4253" lon="4.52615">
        <ele>504.43</ele>
        <time>2017-03-26T11:50:50Z</time>
      </trkpt>
      <trkpt lat="45.4253" lon="4.52615">
        <ele>504.43</ele>
        <time>2017-03-26T11:50:51Z</time>
      </trkpt>
      <trkpt lat="45.4253" lon="4.52615">
        <ele>504.43</ele>
        <time>2017-03-26T11:50:52Z</time>
      </trkpt>
      <trkpt lat="45.4253" lon="4.52615">
        <ele>504.43</ele>
        <time>2017-03-26T11:50:53Z</time>
      </trkpt>
      <trkpt lat="45.4253" lon="4.52615">
        <ele>504.43</ele>
        <time>2017-03-26T11:50:54Z</time>
      </trkpt>
      <trkpt lat="45.4253" lon="4.52615">
        <ele>504.43</ele>
        <time>2017-03-26T11:50:55Z</time>
      </trkpt>
      <trkpt lat="45.4253" lon="4.52615">
        <ele>504.43</ele>
        <time>2017-03-26T11:50:56Z</time>
      </trkpt>
      <trkpt lat="45.4253" lon="4.52615">
        <ele>504.43</ele>
        <time>2017-03-26T11:50:57Z</time>
      </trkpt>
      <trkpt lat="45.4253" lon="4.52615">
        <ele>504.43</ele>
        <time>2017-03-26T11:50:58Z</time>
      </trkpt>
      <trkpt lat="45.4253" lon="4.52615">
        <ele>504.43</ele>
        <time>2017-03-26T11:50:59Z</time>
      </trkpt>
      <trkpt lat="45.4253" lon="4.52615">
        <ele>504.43</ele>
        <time>2017-03-26T11:51:00Z</time>
      </trkpt>
      <trkpt lat="45.4253" lon="4.52615">
        <ele>504.43</ele>
        <time>2017-03-26T11:51:01Z</time>
      </trkpt>
      <trkpt lat="45.4253" lon="4.52615">
        <ele>504.43</ele>
        <time>2017-03-26T11:51:02Z</time>
      </trkpt>
      <trkpt lat="45.4253" lon="4.52615">
        <ele>504.43</ele>
        <time>2017-03-26T11:51:03Z</time>
      </trkpt>
      <trkpt lat="45.4253" lon="4.52615">
        <ele>504.43</ele>
        <time>2017-03-26T11:51:04Z</time>
      </trkpt>
      <trkpt lat="45.4253" lon="4.52615">
        <ele>504.43</ele>
        <time>2017-03-26T11:51:05Z</time>
      </trkpt>
      <trkpt lat="45.4253" lon="4.52615">
        <ele>504.43</ele>
        <time>2017-03-26T11:51:06Z</time>
      </trkpt>
      <trkpt lat="45.4253" lon="4.52615">
        <ele>504.43</ele>
        <time>2017-03-26T11:51:07Z</time>
      </trkpt>
      <trkpt lat="45.4253" lon="4.52615">
        <ele>504.43</ele>
        <time>2017-03-26T11:51:08Z</time>
      </trkpt>
      <trkpt lat="45.4253" lon="4.52615">
        <ele>504.43</ele>
        <time>2017-03-26T11:51:09Z</time>
      </trkpt>
      <trkpt lat="45.4253" lon="4.52615">
        <ele>504.43</ele>
        <time>2017-03-26T11:51:10Z</time>
      </trkpt>
      <trkpt lat="45.4253" lon="4.52615">
        <ele>504.43</ele>
        <time>2017-03-26T11:51:11Z</time>
      </trkpt>
      <trkpt lat="45.4253" lon="4.52615">
        <ele>504.43</ele>
        <time>2017-03-26T11:51:12Z</time>
      </trkpt>
      <trkpt lat="45.4253" lon="4.52615">
        <ele>504.43</ele>
        <time>2017-03-26T11:51:13Z</time>
      </trkpt>
      <trkpt lat="45.4253" lon="4.52615">
        <ele>504.43</ele>
        <time>2017-03-26T11:51:14Z</time>
      </trkpt>
      <trkpt lat="45.4253" lon="4.52615">
        <ele>504.43</ele>
        <time>2017-03-26T11:51:15Z</time>
      </trkpt>
      <trkpt lat="45.4253" lon="4.52615">
        <ele>504.43</ele>
        <time>2017-03-26T11:51:16Z</time>
      </trkpt>
      <trkpt lat="45.4253" lon="4.52615">
        <ele>504.43</ele>
        <time>2017-03-26T11:51:17Z</time>
      </trkpt>
      <trkpt lat="45.4253" lon="4.52615">
        <ele>504.43</ele>
        <time>2017-03-26T11:51:18Z</time>
      </trkpt>
      <trkpt lat="45.4253" lon="4.52615">
        <ele>504.43</ele>
        <time>2017-03-26T11:51:19Z</time>
      </trkpt>
      <trkpt lat="45.4253" lon="4.52615">
        <ele>504.43</ele>
        <time>2017-03-26T11:51:20Z</time>
      </trkpt>
      <trkpt lat="45.4253" lon="4.52615">
        <ele>504.43</ele>
        <time>2017-03-26T11:51:21Z</time>
      </trkpt>
      <trkpt lat="45.4253" lon="4.52615">
        <ele>504.43</ele>
        <time>2017-03-26T11:51:22Z</time>
      </trkpt>
      <trkpt lat="45.4253" lon="4.52615">
        <ele>504.43</ele>
        <time>2017-03-26T11:51:23Z</time>
      </trkpt>
      <trkpt lat="45.4253" lon="4.52615">
        <ele>504.43</ele>
        <time>2017-03-26T11:51:24Z</time>
      </trkpt>
      <trkpt lat="45.4253" lon="4.52615">
        <ele>504.43</ele>
        <time>2017-03-26T11:51:25Z</time>
      </trkpt>
      <trkpt lat="45.4253" lon="4.52615">
        <ele>504.43</ele>
        <time>2017-03-26T11:51:26Z</time>
      </trkpt>
      <trkpt lat="45.4253" lon="4.52615">
        <ele>504.43</ele>
        <time>2017-03-26T11:51:27Z</time>
      </trkpt>
      <trkpt lat="45.4253" lon="4.52615">
        <ele>504.43</ele>
        <time>2017-03-26T11:51:28Z</time>
      </trkpt>
      <trkpt lat="45.4253" lon="4.52615">
        <ele>504.43</ele>
        <time>2017-03-26T11:51:29Z</time>
      </trkpt>
      <trkpt lat="45.4253" lon="4.52615">
        <ele>504.43</ele>
        <time>2017-03-26T11:51:30Z</time>
      </trkpt>
      <trkpt lat="45.4253" lon="4.52615">
        <ele>504.43</ele>
        <time>2017-03-26T11:51:31Z</time>
      </trkpt>
      <trkpt lat="45.4253" lon="4.52615">
        <ele>504.43</ele>
        <time>2017-03-26T11:51:32Z</time>
      </trkpt>
      <trkpt lat="45.4253" lon="4.52615">
        <ele>504.43</ele>
        <time>2017-03-26T11:51:33Z</time>
      </trkpt>
      <trkpt lat="45.4253" lon="4.52615">
        <ele>504.43</ele>
        <time>2017-03-26T11:51:34Z</time>
      </trkpt>
      <trkpt lat="45.4253" lon="4.52615">
        <ele>504.43</ele>
        <time>2017-03-26T11:51:35Z</time>
      </trkpt>
      <trkpt lat="45.4253" lon="4.52615">
        <ele>504.43</ele>
        <time>2017-03-26T11:51:36Z</time>
      </trkpt>
      <trkpt lat="45.4253" lon="4.52615">
        <ele>504.43</ele>
        <time>2017-03-26T11:51:37Z</time>
      </trkpt>
      <trkpt lat="45.4253" lon="4.52615">
        <ele>504.43</ele>
        <time>2017-03-26T11:51:38Z</time>
      </trkpt>
      <trkpt lat="45.4253" lon="4.52615">
        <ele>504.43</ele>
        <time>2017-03-26T11:51:39Z</time>
      </trkpt>
      <trkpt lat="45.4253" lon="4.52615">
        <ele>504.43</ele>
        <time>2017-03-26T11:51:40Z</time>
      </trkpt>
      <trkpt lat="45.4253" lon="4.52615">
        <ele>504.43</ele>
        <time>2017-03-26T11:51:41Z</time>
      </trkpt>
      <trkpt lat="45.4253" lon="4.52615">
        <ele>504.43</ele>
        <time>2017-03-26T11:51:42Z</time>
      </trkpt>
      <trkpt lat="45.4253" lon="4.52615">
        <ele>504.43</ele>
        <time>2017-03-26T11:51:43Z</time>
      </trkpt>
      <trkpt lat="45.4253" lon="4.52615">
        <ele>504.43</ele>
        <time>2017-03-26T11:51:44Z</time>
      </trkpt>
      <trkpt lat="45.4253" lon="4.52615">
        <ele>504.43</ele>
        <time>2017-03-26T11:51:45Z</time>
      </trkpt>
      <trkpt lat="45.4253" lon="4.52615">
        <ele>504.43</ele>
        <time>2017-03-26T11:51:46Z</time>
      </trkpt>
      <trkpt lat="45.4253" lon="4.52615">
        <ele>504.43</ele>
        <time>2017-03-26T11:51:47Z</time>
      </trkpt>
      <trkpt lat="45.4253" lon="4.52615">
        <ele>504.43</ele>
        <time>2017-03-26T11:51:48Z</time>
      </trkpt>
      <trkpt lat="45.4253" lon="4.52615">
        <ele>504.43</ele>
        <time>2017-03-26T11:51:49Z</time>
      </trkpt>
      <trkpt lat="45.4253" lon="4.52615">
        <ele>504.43</ele>
        <time>2017-03-26T11:51:50Z</time>
      </trkpt>
      <trkpt lat="45.4253" lon="4.52615">
        <ele>504.43</ele>
        <time>2017-03-26T11:51:51Z</time>
      </trkpt>
      <trkpt lat="45.4253" lon="4.52615">
        <ele>504.43</ele>
        <time>2017-03-26T11:51:52Z</time>
      </trkpt>
      <trkpt lat="45.4253" lon="4.52615">
        <ele>504.43</ele>
        <time>2017-03-26T11:51:53Z</time>
      </trkpt>
      <trkpt lat="45.4253" lon="4.52615">
        <ele>504.43</ele>
        <time>2017-03-26T11:51:54Z</time>
      </trkpt>
      <trkpt lat="45.4253" lon="4.52615">
        <ele>504.43</ele>
        <time>2017-03-26T11:51:55Z</time>
      </trkpt>
      <trkpt lat="45.4253" lon="4.52615">
        <ele>504.43</ele>
        <time>2017-03-26T11:51:56Z</time>
      </trkpt>
      <trkpt lat="45.4253" lon="4.52615">
        <ele>504.43</ele>
        <time>2017-03-26T11:51:57Z</time>
      </trkpt>
      <trkpt lat="45.4253" lon="4.52615">
        <ele>504.43</ele>
        <time>2017-03-26T11:51:58Z</time>
      </trkpt>
      <trkpt lat="45.4253" lon="4.52615">
        <ele>504.43</ele>
        <time>2017-03-26T11:51:59Z</time>
      </trkpt>
      <trkpt lat="45.4253" lon="4.52615">
        <ele>504.43</ele>
        <time>2017-03-26T11:52:00Z</time>
      </trkpt>
      <trkpt lat="45.4253" lon="4.52615">
        <ele>504.43</ele>
        <time>2017-03-26T11:52:01Z</time>
      </trkpt>
      <trkpt lat="45.4253" lon="4.52615">
        <ele>504.43</ele>
        <time>2017-03-26T11:52:02Z</time>
      </trkpt>
      <trkpt lat="45.4253" lon="4.52615">
        <ele>504.43</ele>
        <time>2017-03-26T11:52:03Z</time>
      </trkpt>
      <trkpt lat="45.4253" lon="4.52615">
        <ele>504.43</ele>
        <time>2017-03-26T11:52:04Z</time>
      </trkpt>
      <trkpt lat="45.4253" lon="4.52615">
        <ele>504.43</ele>
        <time>2017-03-26T11:52:05Z</time>
      </trkpt>
      <trkpt lat="45.4253" lon="4.52615">
        <ele>504.43</ele>
        <time>2017-03-26T11:52:06Z</time>
      </trkpt>
      <trkpt lat="45.4253" lon="4.52615">
        <ele>504.43</ele>
        <time>2017-03-26T11:52:07Z</time>
      </trkpt>
      <trkpt lat="45.4253" lon="4.52615">
        <ele>504.43</ele>
        <time>2017-03-26T11:52:08Z</time>
      </trkpt>
      <trkpt lat="45.4253" lon="4.52615">
        <ele>504.43</ele>
        <time>2017-03-26T11:52:09Z</time>
      </trkpt>
      <trkpt lat="45.4253" lon="4.52615">
        <ele>504.43</ele>
        <time>2017-03-26T11:52:10Z</time>
      </trkpt>
      <trkpt lat="45.4253" lon="4.52615">
        <ele>504.43</ele>
        <time>2017-03-26T11:52:11Z</time>
      </trkpt>
      <trkpt lat="45.4253" lon="4.52615">
        <ele>504.43</ele>
        <time>2017-03-26T11:52:12Z</time>
      </trkpt>
      <trkpt lat="45.4253" lon="4.52615">
        <ele>504.43</ele>
        <time>2017-03-26T11:52:13Z</time>
      </trkpt>
      <trkpt lat="45.4253" lon="4.52615">
        <ele>504.43</ele>
        <time>2017-03-26T11:52:14Z</time>
      </trkpt>
      <trkpt lat="45.4253" lon="4.52615">
        <ele>504.43</ele>
        <time>2017-03-26T11:52:15Z</time>
      </trkpt>
      <trkpt lat="45.4253" lon="4.52615">
        <ele>504.43</ele>
        <time>2017-03-26T11:52:16Z</time>
      </trkpt>
      <trkpt lat="45.4253" lon="4.52615">
        <ele>504.43</ele>
        <time>2017-03-26T11:52:17Z</time>
      </trkpt>
      <trkpt lat="45.4253" lon="4.52615">
        <ele>504.43</ele>
        <time>2017-03-26T11:52:18Z</time>
      </trkpt>
      <trkpt lat="45.4253" lon="4.52615">
        <ele>504.43</ele>
        <time>2017-03-26T11:52:19Z</time>
      </trkpt>
      <trkpt lat="45.4253" lon="4.52615">
        <ele>504.43</ele>
        <time>2017-03-26T11:52:20Z</time>
      </trkpt>
      <trkpt lat="45.4253" lon="4.52615">
        <ele>504.43</ele>
        <time>2017-03-26T11:52:21Z</time>
      </trkpt>
      <trkpt lat="45.4253" lon="4.52615">
        <ele>504.43</ele>
        <time>2017-03-26T11:52:22Z</time>
      </trkpt>
      <trkpt lat="45.4253" lon="4.52615">
        <ele>504.43</ele>
        <time>2017-03-26T11:52:23Z</time>
      </trkpt>
      <trkpt lat="45.4253" lon="4.52615">
        <ele>504.43</ele>
        <time>2017-03-26T11:52:24Z</time>
      </trkpt>
      <trkpt lat="45.4253" lon="4.52615">
        <ele>504.43</ele>
        <time>2017-03-26T11:52:25Z</time>
      </trkpt>
      <trkpt lat="45.4253" lon="4.52615">
        <ele>504.43</ele>
        <time>2017-03-26T11:52:26Z</time>
      </trkpt>
      <trkpt lat="45.4253" lon="4.52615">
        <ele>504.43</ele>
        <time>2017-03-26T11:52:27Z</time>
      </trkpt>
      <trkpt lat="45.4253" lon="4.52615">
        <ele>504.43</ele>
        <time>2017-03-26T11:52:28Z</time>
      </trkpt>
      <trkpt lat="45.4253" lon="4.52615">
        <ele>504.43</ele>
        <time>2017-03-26T11:52:29Z</time>
      </trkpt>
      <trkpt lat="45.4253" lon="4.52615">
        <ele>504.43</ele>
        <time>2017-03-26T11:52:30Z</time>
      </trkpt>
      <trkpt lat="45.4253" lon="4.52615">
        <ele>504.43</ele>
        <time>2017-03-26T11:52:31Z</time>
      </trkpt>
      <trkpt lat="45.4253" lon="4.52615">
        <ele>504.43</ele>
        <time>2017-03-26T11:52:32Z</time>
      </trkpt>
      <trkpt lat="45.4253" lon="4.52615">
        <ele>504.43</ele>
        <time>2017-03-26T11:52:33Z</time>
      </trkpt>
      <trkpt lat="45.4253" lon="4.52615">
        <ele>504.43</ele>
        <time>2017-03-26T11:52:34Z</time>
      </trkpt>
      <trkpt lat="45.4253" lon="4.52615">
        <ele>504.43</ele>
        <time>2017-03-26T11:52:35Z</time>
      </trkpt>
      <trkpt lat="45.4253" lon="4.52615">
        <ele>504.43</ele>
        <time>2017-03-26T11:52:36Z</time>
      </trkpt>
      <trkpt lat="45.4253" lon="4.52615">
        <ele>504.43</ele>
        <time>2017-03-26T11:52:37Z</time>
      </trkpt>
      <trkpt lat="45.4253" lon="4.52615">
        <ele>504.43</ele>
        <time>2017-03-26T11:52:38Z</time>
      </trkpt>
      <trkpt lat="45.4253" lon="4.52615">
        <ele>504.43</ele>
        <time>2017-03-26T11:52:39Z</time>
      </trkpt>
      <trkpt lat="45.4253" lon="4.52615">
        <ele>504.43</ele>
        <time>2017-03-26T11:52:40Z</time>
      </trkpt>
      <trkpt lat="45.4253" lon="4.52615">
        <ele>504.43</ele>
        <time>2017-03-26T11:52:41Z</time>
      </trkpt>
      <trkpt lat="45.4253" lon="4.52615">
        <ele>504.43</ele>
        <time>2017-03-26T11:52:42Z</time>
      </trkpt>
      <trkpt lat="45.4253" lon="4.52615">
        <ele>504.43</ele>
        <time>2017-03-26T11:52:43Z</time>
      </trkpt>
      <trkpt lat="45.4253" lon="4.52615">
        <ele>504.43</ele>
        <time>2017-03-26T11:52:44Z</time>
      </trkpt>
      <trkpt lat="45.4253" lon="4.52615">
        <ele>504.43</ele>
        <time>2017-03-26T11:52:45Z</time>
      </trkpt>
      <trkpt lat="45.4253" lon="4.52615">
        <ele>504.43</ele>
        <time>2017-03-26T11:52:46Z</time>
      </trkpt>
      <trkpt lat="45.4253" lon="4.52615">
        <ele>504.43</ele>
        <time>2017-03-26T11:52:47Z</time>
      </trkpt>
      <trkpt lat="45.4253" lon="4.52615">
        <ele>504.43</ele>
        <time>2017-03-26T11:52:48Z</time>
      </trkpt>
      <trkpt lat="45.4253" lon="4.52615">
        <ele>504.43</ele>
        <time>2017-03-26T11:52:49Z</time>
      </trkpt>
      <trkpt lat="45.4253" lon="4.52615">
        <ele>504.43</ele>
        <time>2017-03-26T11:52:50Z</time>
      </trkpt>
      <trkpt lat="45.4253" lon="4.52615">
        <ele>504.43</ele>
        <time>2017-03-26T11:52:51Z</time>
      </trkpt>
      <trkpt lat="45.4253" lon="4.52615">
        <ele>504.43</ele>
        <time>2017-03-26T11:52:52Z</time>
      </trkpt>
      <trkpt lat="45.4253" lon="4.52615">
        <ele>504.43</ele>
        <time>2017-03-26T11:52:53Z</time>
      </trkpt>
      <trkpt lat="45.4253" lon="4.52615">
        <ele>504.43</ele>
        <time>2017-03-26T11:52:54Z</time>
      </trkpt>
      <trkpt lat="45.4253" lon="4.52615">
        <ele>504.43</ele>
        <time>2017-03-26T11:52:55Z</time>
      </trkpt>
      <trkpt lat="45.4253" lon="4.52615">
        <ele>504.43</ele>
        <time>2017-03-26T11:52:56Z</time>
      </trkpt>
      <trkpt lat="45.4253" lon="4.52615">
        <ele>504.43</ele>
        <time>2017-03-26T11:52:57Z</time>
      </trkpt>
      <trkpt lat="45.4253" lon="4.52615">
        <ele>504.43</ele>
        <time>2017-03-26T11:52:58Z</time>
      </trkpt>
      <trkpt lat="45.4253" lon="4.52615">
        <ele>504.43</ele>
        <time>2017-03-26T11:52:59Z</time>
      </trkpt>
      <trkpt lat="45.4253" lon="4.52615">
        <ele>504.43</ele>
        <time>2017-03-26T11:53:00Z</time>
      </trkpt>
      <trkpt lat="45.4253" lon="4.52615">
        <ele>504.43</ele>
        <time>2017-03-26T11:53:01Z</time>
      </trkpt>
      <trkpt lat="45.4253" lon="4.52615">
        <ele>504.43</ele>
        <time>2017-03-26T11:53:02Z</time>
      </trkpt>
      <trkpt lat="45.4253" lon="4.52615">
        <ele>504.43</ele>
        <time>2017-03-26T11:53:03Z</time>
      </trkpt>
      <trkpt lat="45.4253" lon="4.52615">
        <ele>504.43</ele>
        <time>2017-03-26T11:53:04Z</time>
      </trkpt>
      <trkpt lat="45.4253" lon="4.52615">
        <ele>504.43</ele>
        <time>2017-03-26T11:53:05Z</time>
      </trkpt>
      <trkpt lat="45.4253" lon="4.52615">
        <ele>504.43</ele>
        <time>2017-03-26T11:53:06Z</time>
      </trkpt>
      <trkpt lat="45.4253" lon="4.52615">
        <ele>504.43</ele>
        <time>2017-03-26T11:53:07Z</time>
      </trkpt>
      <trkpt lat="45.4253" lon="4.52615">
        <ele>504.43</ele>
        <time>2017-03-26T11:53:08Z</time>
      </trkpt>
      <trkpt lat="45.4253" lon="4.52615">
        <ele>504.43</ele>
        <time>2017-03-26T11:53:09Z</time>
      </trkpt>
      <trkpt lat="45.4253" lon="4.52615">
        <ele>504.43</ele>
        <time>2017-03-26T11:53:10Z</time>
      </trkpt>
      <trkpt lat="45.4253" lon="4.52615">
        <ele>504.43</ele>
        <time>2017-03-26T11:53:11Z</time>
      </trkpt>
      <trkpt lat="45.4253" lon="4.52615">
        <ele>504.43</ele>
        <time>2017-03-26T11:53:12Z</time>
      </trkpt>
      <trkpt lat="45.4253" lon="4.52615">
        <ele>504.43</ele>
        <time>2017-03-26T11:53:13Z</time>
      </trkpt>
      <trkpt lat="45.4253" lon="4.52615">
        <ele>504.43</ele>
        <time>2017-03-26T11:53:14Z</time>
      </trkpt>
      <trkpt lat="45.4253" lon="4.52615">
        <ele>504.43</ele>
        <time>2017-03-26T11:53:15Z</time>
      </trkpt>
      <trkpt lat="45.4253" lon="4.52615">
        <ele>504.43</ele>
        <time>2017-03-26T11:53:16Z</time>
      </trkpt>
      <trkpt lat="45.4253" lon="4.52615">
        <ele>504.43</ele>
        <time>2017-03-26T11:53:17Z</time>
      </trkpt>
      <trkpt lat="45.4253" lon="4.52615">
        <ele>504.43</ele>
        <time>2017-03-26T11:53:18Z</time>
      </trkpt>
      <trkpt lat="45.4253" lon="4.52615">
        <ele>504.43</ele>
        <time>2017-03-26T11:53:19Z</time>
      </trkpt>
      <trkpt lat="45.4253" lon="4.52615">
        <ele>504.43</ele>
        <time>2017-03-26T11:53:20Z</time>
      </trkpt>
      <trkpt lat="45.4253" lon="4.52615">
        <ele>504.43</ele>
        <time>2017-03-26T11:53:21Z</time>
      </trkpt>
      <trkpt lat="45.4253" lon="4.52615">
        <ele>504.43</ele>
        <time>2017-03-26T11:53:22Z</time>
      </trkpt>
      <trkpt lat="45.4253" lon="4.52615">
        <ele>504.43</ele>
        <time>2017-03-26T11:53:23Z</time>
      </trkpt>
      <trkpt lat="45.4253" lon="4.52615">
        <ele>504.43</ele>
        <time>2017-03-26T11:53:24Z</time>
      </trkpt>
      <trkpt lat="45.4253" lon="4.52615">
        <ele>504.43</ele>
        <time>2017-03-26T11:53:25Z</time>
      </trkpt>
      <trkpt lat="45.4253" lon="4.52615">
        <ele>504.43</ele>
        <time>2017-03-26T11:53:26Z</time>
      </trkpt>
      <trkpt lat="45.4253" lon="4.52615">
        <ele>504.43</ele>
        <time>2017-03-26T11:53:27Z</time>
      </trkpt>
      <trkpt lat="45.4253" lon="4.52615">
        <ele>504.43</ele>
        <time>2017-03-26T11:53:28Z</time>
      </trkpt>
      <trkpt lat="45.4253" lon="4.52615">
        <ele>504.43</ele>
        <time>2017-03-26T11:53:29Z</time>
      </trkpt>
      <trkpt lat="45.4253" lon="4.52615">
        <ele>504.43</ele>
        <time>2017-03-26T11:53:30Z</time>
      </trkpt>
      <trkpt lat="45.4253" lon="4.52615">
        <ele>504.43</ele>
        <time>2017-03-26T11:53:31Z</time>
      </trkpt>
      <trkpt lat="45.4253" lon="4.52615">
        <ele>504.43</ele>
        <time>2017-03-26T11:53:32Z</time>
      </trkpt>
      <trkpt lat="45.4253" lon="4.52615">
        <ele>504.43</ele>
        <time>2017-03-26T11:53:33Z</time>
      </trkpt>
      <trkpt lat="45.4253" lon="4.52615">
        <ele>504.43</ele>
        <time>2017-03-26T11:53:34Z</time>
      </trkpt>
      <trkpt lat="45.4253" lon="4.52615">
        <ele>504.43</ele>
        <time>2017-03-26T11:53:35Z</time>
      </trkpt>
      <trkpt lat="45.4253" lon="4.52615">
        <ele>504.43</ele>
        <time>2017-03-26T11:53:36Z</time>
      </trkpt>
      <trkpt lat="45.4253" lon="4.52615">
        <ele>504.43</ele>
        <time>2017-03-26T11:53:37Z</time>
      </trkpt>
      <trkpt lat="45.4253" lon="4.52615">
        <ele>504.43</ele>
        <time>2017-03-26T11:53:38Z</time>
      </trkpt>
      <trkpt lat="45.4253" lon="4.52615">
        <ele>504.43</ele>
        <time>2017-03-26T11:53:39Z</time>
      </trkpt>
      <trkpt lat="45.4253" lon="4.52615">
        <ele>504.43</ele>
        <time>2017-03-26T11:53:40Z</time>
      </trkpt>
      <trkpt lat="45.4253" lon="4.52615">
        <ele>504.43</ele>
        <time>2017-03-26T11:53:41Z</time>
      </trkpt>
      <trkpt lat="45.4253" lon="4.52615">
        <ele>504.43</ele>
        <time>2017-03-26T11:53:42Z</time>
      </trkpt>
      <trkpt lat="45.4253" lon="4.52615">
        <ele>504.43</ele>
        <time>2017-03-26T11:53:43Z</time>
      </trkpt>
      <trkpt lat="45.4253" lon="4.52615">
        <ele>504.43</ele>
        <time>2017-03-26T11:53:44Z</time>
      </trkpt>
      <trkpt lat="45.4253" lon="4.52615">
        <ele>504.43</ele>
        <time>2017-03-26T11:53:45Z</time>
      </trkpt>
      <trkpt lat="45.4253" lon="4.52615">
        <ele>504.43</ele>
        <time>2017-03-26T11:53:46Z</time>
      </trkpt>
      <trkpt lat="45.4253" lon="4.52615">
        <ele>504.43</ele>
        <time>2017-03-26T11:53:47Z</time>
      </trkpt>
      <trkpt lat="45.4253" lon="4.52615">
        <ele>504.43</ele>
        <time>2017-03-26T11:53:48Z</time>
      </trkpt>
      <trkpt lat="45.4253" lon="4.52615">
        <ele>504.43</ele>
        <time>2017-03-26T11:53:49Z</time>
      </trkpt>
      <trkpt lat="45.4253" lon="4.52615">
        <ele>504.43</ele>
        <time>2017-03-26T11:53:50Z</time>
      </trkpt>
      <trkpt lat="45.4253" lon="4.52615">
        <ele>504.43</ele>
        <time>2017-03-26T11:53:51Z</time>
      </trkpt>
      <trkpt lat="45.4253" lon="4.52615">
        <ele>504.43</ele>
        <time>2017-03-26T11:53:52Z</time>
      </trkpt>
      <trkpt lat="45.4253" lon="4.52615">
        <ele>504.43</ele>
        <time>2017-03-26T11:53:53Z</time>
      </trkpt>
      <trkpt lat="45.4253" lon="4.52615">
        <ele>504.43</ele>
        <time>2017-03-26T11:53:54Z</time>
      </trkpt>
      <trkpt lat="45.4253" lon="4.52615">
        <ele>504.43</ele>
        <time>2017-03-26T11:53:55Z</time>
      </trkpt>
      <trkpt lat="45.4253" lon="4.52615">
        <ele>504.43</ele>
        <time>2017-03-26T11:53:56Z</time>
      </trkpt>
      <trkpt lat="45.4253" lon="4.52615">
        <ele>504.43</ele>
        <time>2017-03-26T11:53:57Z</time>
      </trkpt>
      <trkpt lat="45.4253" lon="4.52615">
        <ele>504.43</ele>
        <time>2017-03-26T11:53:58Z</time>
      </trkpt>
      <trkpt lat="45.4253" lon="4.52615">
        <ele>504.43</ele>
        <time>2017-03-26T11:53:59Z</time>
      </trkpt>
      <trkpt lat="45.4253" lon="4.52615">
        <ele>504.43</ele>
        <time>2017-03-26T11:54:00Z</time>
      </trkpt>
      <trkpt lat="45.4253" lon="4.52615">
        <ele>504.43</ele>
        <time>2017-03-26T11:54:01Z</time>
      </trkpt>
      <trkpt lat="45.4253" lon="4.52615">
        <ele>504.43</ele>
        <time>2017-03-26T11:54:02Z</time>
      </trkpt>
      <trkpt lat="45.4253" lon="4.52615">
        <ele>504.43</ele>
        <time>2017-03-26T11:54:03Z</time>
      </trkpt>
      <trkpt lat="45.4253" lon="4.52615">
        <ele>504.43</ele>
        <time>2017-03-26T11:54:04Z</time>
      </trkpt>
      <trkpt lat="45.4253" lon="4.52615">
        <ele>504.43</ele>
        <time>2017-03-26T11:54:05Z</time>
      </trkpt>
      <trkpt lat="45.4253" lon="4.52615">
        <ele>504.43</ele>
        <time>2017-03-26T11:54:06Z</time>
      </trkpt>
      <trkpt lat="45.4253" lon="4.52615">
        <ele>504.43</ele>
        <time>2017-03-26T11:54:07Z</time>
      </trkpt>
      <trkpt lat="45.4253" lon="4.52615">
        <ele>504.43</ele>
        <time>2017-03-26T11:54:08Z</time>
      </trkpt>
      <trkpt lat="45.4253" lon="4.52615">
        <ele>504.43</ele>
        <time>2017-03-26T11:54:09Z</time>
      </trkpt>
      <trkpt lat="45.4253" lon="4.52615">
        <ele>504.43</ele>
        <time>2017-03-26T11:54:10Z</time>
      </trkpt>
      <trkpt lat="45.4253" lon="4.52615">
        <ele>504.43</ele>
        <time>2017-03-26T11:54:11Z</time>
      </trkpt>
      <trkpt lat="45.4253" lon="4.52615">
        <ele>504.43</ele>
        <time>2017-03-26T11:54:12Z</time>
      </trkpt>
      <trkpt lat="45.4253" lon="4.52615">
        <ele>504.43</ele>
        <time>2017-03-26T11:54:13Z</time>
      </trkpt>
      <trkpt lat="45.4253" lon="4.52615">
        <ele>504.43</ele>
        <time>2017-03-26T11:54:14Z</time>
      </trkpt>
      <trkpt lat="45.4253" lon="4.52615">
        <ele>504.43</ele>
        <time>2017-03-26T11:54:15Z</time>
      </trkpt>
      <trkpt lat="45.4253" lon="4.52615">
        <ele>504.43</ele>
        <time>2017-03-26T11:54:16Z</time>
      </trkpt>
      <trkpt lat="45.4253" lon="4.52615">
        <ele>504.43</ele>
        <time>2017-03-26T11:54:17Z</time>
      </trkpt>
      <trkpt lat="45.4253" lon="4.52615">
        <ele>504.43</ele>
        <time>2017-03-26T11:54:18Z</time>
      </trkpt>
      <trkpt lat="45.4253" lon="4.52615">
        <ele>504.43</ele>
        <time>2017-03-26T11:54:19Z</time>
      </trkpt>
      <trkpt lat="45.4253" lon="4.52615">
        <ele>504.43</ele>
        <time>2017-03-26T11:54:20Z</time>
      </trkpt>
      <trkpt lat="45.4253" lon="4.52615">
        <ele>504.43</ele>
        <time>2017-03-26T11:54:21Z</time>
      </trkpt>
      <trkpt lat="45.4253" lon="4.52615">
        <ele>504.43</ele>
        <time>2017-03-26T11:54:22Z</time>
      </trkpt>
      <trkpt lat="45.4253" lon="4.52615">
        <ele>504.43</ele>
        <time>2017-03-26T11:54:23Z</time>
      </trkpt>
      <trkpt lat="45.4253" lon="4.52615">
        <ele>504.43</ele>
        <time>2017-03-26T11:54:24Z</time>
      </trkpt>
      <trkpt lat="45.4253" lon="4.52615">
        <ele>504.43</ele>
        <time>2017-03-26T11:54:25Z</time>
      </trkpt>
      <trkpt lat="45.4253" lon="4.52615">
        <ele>504.43</ele>
        <time>2017-03-26T11:54:26Z</time>
      </trkpt>
      <trkpt lat="45.4253" lon="4.52615">
        <ele>504.43</ele>
        <time>2017-03-26T11:54:27Z</time>
      </trkpt>
      <trkpt lat="45.4253" lon="4.52615">
        <ele>504.43</ele>
        <time>2017-03-26T11:54:28Z</time>
      </trkpt>
      <trkpt lat="45.4253" lon="4.52615">
        <ele>504.43</ele>
        <time>2017-03-26T11:54:29Z</time>
      </trkpt>
      <trkpt lat="45.4253" lon="4.52615">
        <ele>504.43</ele>
        <time>2017-03-26T11:54:30Z</time>
      </trkpt>
      <trkpt lat="45.4253" lon="4.52615">
        <ele>504.43</ele>
        <time>2017-03-26T11:54:31Z</time>
      </trkpt>
      <trkpt lat="45.4253" lon="4.52615">
        <ele>504.43</ele>
        <time>2017-03-26T11:54:32Z</time>
      </trkpt>
      <trkpt lat="45.4253" lon="4.52615">
        <ele>504.43</ele>
        <time>2017-03-26T11:54:33Z</time>
      </trkpt>
      <trkpt lat="45.4253" lon="4.52615">
        <ele>504.43</ele>
        <time>2017-03-26T11:54:34Z</time>
      </trkpt>
      <trkpt lat="45.4253" lon="4.52615">
        <ele>504.43</ele>
        <time>2017-03-26T11:54:35Z</time>
      </trkpt>
      <trkpt lat="45.4253" lon="4.52615">
        <ele>504.43</ele>
        <time>2017-03-26T11:54:36Z</time>
      </trkpt>
      <trkpt lat="45.4253" lon="4.52615">
        <ele>504.43</ele>
        <time>2017-03-26T11:54:37Z</time>
      </trkpt>
      <trkpt lat="45.4253" lon="4.52615">
        <ele>504.43</ele>
        <time>2017-03-26T11:54:38Z</time>
      </trkpt>
      <trkpt lat="45.4253" lon="4.52615">
        <ele>504.43</ele>
        <time>2017-03-26T11:54:39Z</time>
      </trkpt>
      <trkpt lat="45.4253" lon="4.52615">
        <ele>504.43</ele>
        <time>2017-03-26T11:54:40Z</time>
      </trkpt>
      <trkpt lat="45.4253" lon="4.52615">
        <ele>504.43</ele>
        <time>2017-03-26T11:54:41Z</time>
      </trkpt>
      <trkpt lat="45.4253" lon="4.52615">
        <ele>504.43</ele>
        <time>2017-03-26T11:54:42Z</time>
      </trkpt>
      <trkpt lat="45.4253" lon="4.52615">
        <ele>504.43</ele>
        <time>2017-03-26T11:54:43Z</time>
      </trkpt>
      <trkpt lat="45.4253" lon="4.52615">
        <ele>504.43</ele>
        <time>2017-03-26T11:54:44Z</time>
      </trkpt>
      <trkpt lat="45.4253" lon="4.52615">
        <ele>504.43</ele>
        <time>2017-03-26T11:54:45Z</time>
      </trkpt>
      <trkpt lat="45.4253" lon="4.52615">
        <ele>504.43</ele>
        <time>2017-03-26T11:54:46Z</time>
      </trkpt>
      <trkpt lat="45.4253" lon="4.52615">
        <ele>504.43</ele>
        <time>2017-03-26T11:54:47Z</time>
      </trkpt>
      <trkpt lat="45.4253" lon="4.52615">
        <ele>504.43</ele>
        <time>2017-03-26T11:54:48Z</time>
      </trkpt>
      <trkpt lat="45.4253" lon="4.52615">
        <ele>504.43</ele>
        <time>2017-03-26T11:54:49Z</time>
      </trkpt>
      <trkpt lat="45.4253" lon="4.52615">
        <ele>504.43</ele>
        <time>2017-03-26T11:54:50Z</time>
      </trkpt>
      <trkpt lat="45.4253" lon="4.52615">
        <ele>504.43</ele>
        <time>2017-03-26T11:54:51Z</time>
      </trkpt>
      <trkpt lat="45.4253" lon="4.52615">
        <ele>504.43</ele>
        <time>2017-03-26T11:54:52Z</time>
      </trkpt>
      <trkpt lat="45.4253" lon="4.52615">
        <ele>504.43</ele>
        <time>2017-03-26T11:54:53Z</time>
      </trkpt>
      <trkpt lat="45.4253" lon="4.52615">
        <ele>504.43</ele>
        <time>2017-03-26T11:54:54Z</time>
      </trkpt>
      <trkpt lat="45.4253" lon="4.52615">
        <ele>504.43</ele>
        <time>2017-03-26T11:54:55Z</time>
      </trkpt>
      <trkpt lat="45.4253" lon="4.52615">
        <ele>504.43</ele>
        <time>2017-03-26T11:54:56Z</time>
      </trkpt>
      <trkpt lat="45.4253" lon="4.52615">
        <ele>504.43</ele>
        <time>2017-03-26T11:54:57Z</time>
      </trkpt>
      <trkpt lat="45.4253" lon="4.52615">
        <ele>504.43</ele>
        <time>2017-03-26T11:54:58Z</time>
      </trkpt>
      <trkpt lat="45.4253" lon="4.52615">
        <ele>504.43</ele>
        <time>2017-03-26T11:54:59Z</time>
      </trkpt>
      <trkpt lat="45.4253" lon="4.52615">
        <ele>504.43</ele>
        <time>2017-03-26T11:55:00Z</time>
      </trkpt>
      <trkpt lat="45.4253" lon="4.52615">
        <ele>504.43</ele>
        <time>2017-03-26T11:55:01Z</time>
      </trkpt>
      <trkpt lat="45.4253" lon="4.52615">
        <ele>504.43</ele>
        <time>2017-03-26T11:55:02Z</time>
      </trkpt>
      <trkpt lat="45.4253" lon="4.52615">
        <ele>504.43</ele>
        <time>2017-03-26T11:55:03Z</time>
      </trkpt>
      <trkpt lat="45.4253" lon="4.52615">
        <ele>504.43</ele>
        <time>2017-03-26T11:55:04Z</time>
      </trkpt>
      <trkpt lat="45.4253" lon="4.52615">
        <ele>504.43</ele>
        <time>2017-03-26T11:55:05Z</time>
      </trkpt>
      <trkpt lat="45.4253" lon="4.52615">
        <ele>504.43</ele>
        <time>2017-03-26T11:55:06Z</time>
      </trkpt>
      <trkpt lat="45.4253" lon="4.52615">
        <ele>504.43</ele>
        <time>2017-03-26T11:55:07Z</time>
      </trkpt>
      <trkpt lat="45.4253" lon="4.52615">
        <ele>504.43</ele>
        <time>2017-03-26T11:55:08Z</time>
      </trkpt>
      <trkpt lat="45.4253" lon="4.52615">
        <ele>504.43</ele>
        <time>2017-03-26T11:55:09Z</time>
      </trkpt>
      <trkpt lat="45.4253" lon="4.52615">
        <ele>504.43</ele>
        <time>2017-03-26T11:55:10Z</time>
      </trkpt>
      <trkpt lat="45.4253" lon="4.52615">
        <ele>504.43</ele>
        <time>2017-03-26T11:55:11Z</time>
      </trkpt>
      <trkpt lat="45.4253" lon="4.52615">
        <ele>504.43</ele>
        <time>2017-03-26T11:55:12Z</time>
      </trkpt>
      <trkpt lat="45.4253" lon="4.52615">
        <ele>504.43</ele>
        <time>2017-03-26T11:55:13Z</time>
      </trkpt>
      <trkpt lat="45.4253" lon="4.52615">
        <ele>504.43</ele>
        <time>2017-03-26T11:55:14Z</time>
      </trkpt>
      <trkpt lat="45.4253" lon="4.52615">
        <ele>504.43</ele>
        <time>2017-03-26T11:55:15Z</time>
      </trkpt>
      <trkpt lat="45.4253" lon="4.52615">
        <ele>504.43</ele>
        <time>2017-03-26T11:55:16Z</time>
      </trkpt>
      <trkpt lat="45.4253" lon="4.52615">
        <ele>504.43</ele>
        <time>2017-03-26T11:55:17Z</time>
      </trkpt>
      <trkpt lat="45.4253" lon="4.52615">
        <ele>504.43</ele>
        <time>2017-03-26T11:55:18Z</time>
      </trkpt>
      <trkpt lat="45.4253" lon="4.52615">
        <ele>504.43</ele>
        <time>2017-03-26T11:55:19Z</time>
      </trkpt>
      <trkpt lat="45.4253" lon="4.52615">
        <ele>504.43</ele>
        <time>2017-03-26T11:55:20Z</time>
      </trkpt>
      <trkpt lat="45.4253" lon="4.52615">
        <ele>504.43</ele>
        <time>2017-03-26T11:55:21Z</time>
      </trkpt>
      <trkpt lat="45.4253" lon="4.52615">
        <ele>504.43</ele>
        <time>2017-03-26T11:55:22Z</time>
      </trkpt>
      <trkpt lat="45.4253" lon="4.52615">
        <ele>504.43</ele>
        <time>2017-03-26T11:55:23Z</time>
      </trkpt>
      <trkpt lat="45.4253" lon="4.52615">
        <ele>504.43</ele>
        <time>2017-03-26T11:55:24Z</time>
      </trkpt>
      <trkpt lat="45.4253" lon="4.52615">
        <ele>504.43</ele>
        <time>2017-03-26T11:55:25Z</time>
      </trkpt>
      <trkpt lat="45.4253" lon="4.52615">
        <ele>504.43</ele>
        <time>2017-03-26T11:55:26Z</time>
      </trkpt>
      <trkpt lat="45.4253" lon="4.52615">
        <ele>504.43</ele>
        <time>2017-03-26T11:55:27Z</time>
      </trkpt>
      <trkpt lat="45.4253" lon="4.52615">
        <ele>504.43</ele>
        <time>2017-03-26T11:55:28Z</time>
      </trkpt>
      <trkpt lat="45.4253" lon="4.52615">
        <ele>504.43</ele>
        <time>2017-03-26T11:55:29Z</time>
      </trkpt>
      <trkpt lat="45.4253" lon="4.52615">
        <ele>504.43</ele>
        <time>2017-03-26T11:55:30Z</time>
      </trkpt>
      <trkpt lat="45.4253" lon="4.52615">
        <ele>504.43</ele>
        <time>2017-03-26T11:55:31Z</time>
      </trkpt>
      <trkpt lat="45.4253" lon="4.52615">
        <ele>504.43</ele>
        <time>2017-03-26T11:55:32Z</time>
      </trkpt>
      <trkpt lat="45.4253" lon="4.52615">
        <ele>504.43</ele>
        <time>2017-03-26T11:55:33Z</time>
      </trkpt>
      <trkpt lat="45.4253" lon="4.52615">
        <ele>504.43</ele>
        <time>2017-03-26T11:55:34Z</time>
      </trkpt>
      <trkpt lat="45.4253" lon="4.52615">
        <ele>504.43</ele>
        <time>2017-03-26T11:55:35Z</time>
      </trkpt>
      <trkpt lat="45.4253" lon="4.52615">
        <ele>504.43</ele>
        <time>2017-03-26T11:55:36Z</time>
      </trkpt>
      <trkpt lat="45.4253" lon="4.52615">
        <ele>504.43</ele>
        <time>2017-03-26T11:55:37Z</time>
      </trkpt>
      <trkpt lat="45.4253" lon="4.52615">
        <ele>504.43</ele>
        <time>2017-03-26T11:55:38Z</time>
      </trkpt>
      <trkpt lat="45.4253" lon="4.52615">
        <ele>504.43</ele>
        <time>2017-03-26T11:55:39Z</time>
      </trkpt>
      <trkpt lat="45.4253" lon="4.52615">
        <ele>504.43</ele>
        <time>2017-03-26T11:55:40Z</time>
      </trkpt>
      <trkpt lat="45.4253" lon="4.52615">
        <ele>504.43</ele>
        <time>2017-03-26T11:55:41Z</time>
      </trkpt>
      <trkpt lat="45.4253" lon="4.52615">
        <ele>504.43</ele>
        <time>2017-03-26T11:55:42Z</time>
      </trkpt>
      <trkpt lat="45.4253" lon="4.52615">
        <ele>504.43</ele>
        <time>2017-03-26T11:55:43Z</time>
      </trkpt>
      <trkpt lat="45.4253" lon="4.52615">
        <ele>504.43</ele>
        <time>2017-03-26T11:55:44Z</time>
      </trkpt>
      <trkpt lat="45.4253" lon="4.52615">
        <ele>504.43</ele>
        <time>2017-03-26T11:55:45Z</time>
      </trkpt>
      <trkpt lat="45.4253" lon="4.52615">
        <ele>504.43</ele>
        <time>2017-03-26T11:55:46Z</time>
      </trkpt>
      <trkpt lat="45.4253" lon="4.52615">
        <ele>504.43</ele>
        <time>2017-03-26T11:55:47Z</time>
      </trkpt>
      <trkpt lat="45.4253" lon="4.52615">
        <ele>504.43</ele>
        <time>2017-03-26T11:55:48Z</time>
      </trkpt>
      <trkpt lat="45.4253" lon="4.52615">
        <ele>504.43</ele>
        <time>2017-03-26T11:55:49Z</time>
      </trkpt>
      <trkpt lat="45.4253" lon="4.52615">
        <ele>504.43</ele>
        <time>2017-03-26T11:55:50Z</time>
      </trkpt>
      <trkpt lat="45.4253" lon="4.52615">
        <ele>504.43</ele>
        <time>2017-03-26T11:55:51Z</time>
      </trkpt>
      <trkpt lat="45.4253" lon="4.52615">
        <ele>504.43</ele>
        <time>2017-03-26T11:55:52Z</time>
      </trkpt>
      <trkpt lat="45.4253" lon="4.52615">
        <ele>504.43</ele>
        <time>2017-03-26T11:55:53Z</time>
      </trkpt>
      <trkpt lat="45.4253" lon="4.52615">
        <ele>504.43</ele>
        <time>2017-03-26T11:55:54Z</time>
      </trkpt>
      <trkpt lat="45.4253" lon="4.52615">
        <ele>504.43</ele>
        <time>2017-03-26T11:55:55Z</time>
      </trkpt>
      <trkpt lat="45.4253" lon="4.52615">
        <ele>504.43</ele>
        <time>2017-03-26T11:55:56Z</time>
      </trkpt>
      <trkpt lat="45.4253" lon="4.52615">
        <ele>504.43</ele>
        <time>2017-03-26T11:55:57Z</time>
      </trkpt>
      <trkpt lat="45.4253" lon="4.52615">
        <ele>504.43</ele>
        <time>2017-03-26T11:55:58Z</time>
      </trkpt>
      <trkpt lat="45.4253" lon="4.52615">
        <ele>504.43</ele>
        <time>2017-03-26T11:55:59Z</time>
      </trkpt>
      <trkpt lat="45.4253" lon="4.52615">
        <ele>504.43</ele>
        <time>2017-03-26T11:56:00Z</time>
      </trkpt>
      <trkpt lat="45.4253" lon="4.52615">
        <ele>504.43</ele>
        <time>2017-03-26T11:56:01Z</time>
      </trkpt>
      <trkpt lat="45.4253" lon="4.52615">
        <ele>504.43</ele>
        <time>2017-03-26T11:56:02Z</time>
      </trkpt>
      <trkpt lat="45.4253" lon="4.52615">
        <ele>504.43</ele>
        <time>2017-03-26T11:56:03Z</time>
      </trkpt>
      <trkpt lat="45.4253" lon="4.52615">
        <ele>504.43</ele>
        <time>2017-03-26T11:56:04Z</time>
      </trkpt>
      <trkpt lat="45.4253" lon="4.52615">
        <ele>504.43</ele>
        <time>2017-03-26T11:56:05Z</time>
      </trkpt>
      <trkpt lat="45.4253" lon="4.52615">
        <ele>504.43</ele>
        <time>2017-03-26T11:56:06Z</time>
      </trkpt>
      <trkpt lat="45.4253" lon="4.52615">
        <ele>504.43</ele>
        <time>2017-03-26T11:56:07Z</time>
      </trkpt>
      <trkpt lat="45.4253" lon="4.52615">
        <ele>504.43</ele>
        <time>2017-03-26T11:56:08Z</time>
      </trkpt>
      <trkpt lat="45.4253" lon="4.52615">
        <ele>504.43</ele>
        <time>2017-03-26T11:56:09Z</time>
      </trkpt>
      <trkpt lat="45.4253" lon="4.52615">
        <ele>504.43</ele>
        <time>2017-03-26T11:56:10Z</time>
      </trkpt>
      <trkpt lat="45.4253" lon="4.52615">
        <ele>504.43</ele>
        <time>2017-03-26T11:56:11Z</time>
      </trkpt>
      <trkpt lat="45.4253" lon="4.52615">
        <ele>504.43</ele>
        <time>2017-03-26T11:56:12Z</time>
      </trkpt>
      <trkpt lat="45.4253" lon="4.52615">
        <ele>504.43</ele>
        <time>2017-03-26T11:56:13Z</time>
      </trkpt>
      <trkpt lat="45.4253" lon="4.52615">
        <ele>504.43</ele>
        <time>2017-03-26T11:56:14Z</time>
      </trkpt>
      <trkpt lat="45.4253" lon="4.52615">
        <ele>504.43</ele>
        <time>2017-03-26T11:56:15Z</time>
      </trkpt>
      <trkpt lat="45.4253" lon="4.52615">
        <ele>504.43</ele>
        <time>2017-03-26T11:56:16Z</time>
      </trkpt>
      <trkpt lat="45.4253" lon="4.52615">
        <ele>504.43</ele>
        <time>2017-03-26T11:56:17Z</time>
      </trkpt>
      <trkpt lat="45.4253" lon="4.52615">
        <ele>504.43</ele>
        <time>2017-03-26T11:56:18Z</time>
      </trkpt>
      <trkpt lat="45.4253" lon="4.52615">
        <ele>504.43</ele>
        <time>2017-03-26T11:56:19Z</time>
      </trkpt>
      <trkpt lat="45.4253" lon="4.52615">
        <ele>504.43</ele>
        <time>2017-03-26T11:56:20Z</time>
      </trkpt>
      <trkpt lat="45.4253" lon="4.52615">
        <ele>504.43</ele>
        <time>2017-03-26T11:56:21Z</time>
      </trkpt>
      <trkpt lat="45.42531" lon="4.52603">
        <ele>504.43</ele>
        <time>2017-03-26T11:56:22Z</time>
      </trkpt>
      <trkpt lat="45.42531" lon="4.52602">
        <ele>504.43</ele>
        <time>2017-03-26T11:56:23Z</time>
      </trkpt>
      <trkpt lat="45.42531" lon="4.52602">
        <ele>504.43</ele>
        <time>2017-03-26T11:56:24Z</time>
      </trkpt>
      <trkpt lat="45.42531" lon="4.52602">
        <ele>504.43</ele>
        <time>2017-03-26T11:56:25Z</time>
      </trkpt>
      <trkpt lat="45.42531" lon="4.52602">
        <ele>504.43</ele>
        <time>2017-03-26T11:56:26Z</time>
      </trkpt>
      <trkpt lat="45.42531" lon="4.52602">
        <ele>504.43</ele>
        <time>2017-03-26T11:56:27Z</time>
      </trkpt>
      <trkpt lat="45.42531" lon="4.52602">
        <ele>504.43</ele>
        <time>2017-03-26T11:56:28Z</time>
      </trkpt>
      <trkpt lat="45.42531" lon="4.52602">
        <ele>504.43</ele>
        <time>2017-03-26T11:56:29Z</time>
      </trkpt>
      <trkpt lat="45.42531" lon="4.52602">
        <ele>504.43</ele>
        <time>2017-03-26T11:56:30Z</time>
      </trkpt>
      <trkpt lat="45.42531" lon="4.52602">
        <ele>504.43</ele>
        <time>2017-03-26T11:56:31Z</time>
      </trkpt>
      <trkpt lat="45.42531" lon="4.52602">
        <ele>504.43</ele>
        <time>2017-03-26T11:56:32Z</time>
      </trkpt>
      <trkpt lat="45.42531" lon="4.52602">
        <ele>504.43</ele>
        <time>2017-03-26T11:56:33Z</time>
      </trkpt>
      <trkpt lat="45.42531" lon="4.52602">
        <ele>504.43</ele>
        <time>2017-03-26T11:56:34Z</time>
      </trkpt>
      <trkpt lat="45.42531" lon="4.52602">
        <ele>504.43</ele>
        <time>2017-03-26T11:56:35Z</time>
      </trkpt>
      <trkpt lat="45.42531" lon="4.52602">
        <ele>504.43</ele>
        <time>2017-03-26T11:56:36Z</time>
      </trkpt>
      <trkpt lat="45.42531" lon="4.52602">
        <ele>504.43</ele>
        <time>2017-03-26T11:56:37Z</time>
      </trkpt>
      <trkpt lat="45.42531" lon="4.52602">
        <ele>504.43</ele>
        <time>2017-03-26T11:56:38Z</time>
      </trkpt>
      <trkpt lat="45.42531" lon="4.52602">
        <ele>504.43</ele>
        <time>2017-03-26T11:56:39Z</time>
      </trkpt>
      <trkpt lat="45.42531" lon="4.52602">
        <ele>504.43</ele>
        <time>2017-03-26T11:56:40Z</time>
      </trkpt>
      <trkpt lat="45.42531" lon="4.52602">
        <ele>504.43</ele>
        <time>2017-03-26T11:56:41Z</time>
      </trkpt>
      <trkpt lat="45.42531" lon="4.52602">
        <ele>504.43</ele>
        <time>2017-03-26T11:56:42Z</time>
      </trkpt>
      <trkpt lat="45.42531" lon="4.52602">
        <ele>504.43</ele>
        <time>2017-03-26T11:56:43Z</time>
      </trkpt>
      <trkpt lat="45.42531" lon="4.52602">
        <ele>504.43</ele>
        <time>2017-03-26T11:56:44Z</time>
      </trkpt>
      <trkpt lat="45.42531" lon="4.52602">
        <ele>504.43</ele>
        <time>2017-03-26T11:56:45Z</time>
      </trkpt>
      <trkpt lat="45.42531" lon="4.52602">
        <ele>504.43</ele>
        <time>2017-03-26T11:56:46Z</time>
      </trkpt>
      <trkpt lat="45.42531" lon="4.52602">
        <ele>504.43</ele>
        <time>2017-03-26T11:56:47Z</time>
      </trkpt>
      <trkpt lat="45.42531" lon="4.52602">
        <ele>504.43</ele>
        <time>2017-03-26T11:56:48Z</time>
      </trkpt>
      <trkpt lat="45.42531" lon="4.52602">
        <ele>504.43</ele>
        <time>2017-03-26T11:56:49Z</time>
      </trkpt>
      <trkpt lat="45.42531" lon="4.52602">
        <ele>504.43</ele>
        <time>2017-03-26T11:56:50Z</time>
      </trkpt>
      <trkpt lat="45.42531" lon="4.52602">
        <ele>504.43</ele>
        <time>2017-03-26T11:56:51Z</time>
      </trkpt>
      <trkpt lat="45.42531" lon="4.52602">
        <ele>504.43</ele>
        <time>2017-03-26T11:56:52Z</time>
      </trkpt>
      <trkpt lat="45.42531" lon="4.52602">
        <ele>504.43</ele>
        <time>2017-03-26T11:56:53Z</time>
      </trkpt>
      <trkpt lat="45.42531" lon="4.52602">
        <ele>504.43</ele>
        <time>2017-03-26T11:56:54Z</time>
      </trkpt>
      <trkpt lat="45.42531" lon="4.52602">
        <ele>504.43</ele>
        <time>2017-03-26T11:56:55Z</time>
      </trkpt>
      <trkpt lat="45.42531" lon="4.52602">
        <ele>504.43</ele>
        <time>2017-03-26T11:56:56Z</time>
      </trkpt>
      <trkpt lat="45.42531" lon="4.52602">
        <ele>504.43</ele>
        <time>2017-03-26T11:56:57Z</time>
      </trkpt>
      <trkpt lat="45.42531" lon="4.52602">
        <ele>504.43</ele>
        <time>2017-03-26T11:56:58Z</time>
      </trkpt>
      <trkpt lat="45.42531" lon="4.52602">
        <ele>504.43</ele>
        <time>2017-03-26T11:56:59Z</time>
      </trkpt>
      <trkpt lat="45.42531" lon="4.52602">
        <ele>504.43</ele>
        <time>2017-03-26T11:57:00Z</time>
      </trkpt>
      <trkpt lat="45.42531" lon="4.52602">
        <ele>504.43</ele>
        <time>2017-03-26T11:57:01Z</time>
      </trkpt>
      <trkpt lat="45.42531" lon="4.52602">
        <ele>504.43</ele>
        <time>2017-03-26T11:57:02Z</time>
      </trkpt>
      <trkpt lat="45.42531" lon="4.52602">
        <ele>504.43</ele>
        <time>2017-03-26T11:57:03Z</time>
      </trkpt>
      <trkpt lat="45.42531" lon="4.52602">
        <ele>504.43</ele>
        <time>2017-03-26T11:57:04Z</time>
      </trkpt>
      <trkpt lat="45.42531" lon="4.52602">
        <ele>504.43</ele>
        <time>2017-03-26T11:57:05Z</time>
      </trkpt>
      <trkpt lat="45.42531" lon="4.52602">
        <ele>504.43</ele>
        <time>2017-03-26T11:57:06Z</time>
      </trkpt>
      <trkpt lat="45.42531" lon="4.52602">
        <ele>504.43</ele>
        <time>2017-03-26T11:57:07Z</time>
      </trkpt>
      <trkpt lat="45.42531" lon="4.52602">
        <ele>504.43</ele>
        <time>2017-03-26T11:57:08Z</time>
      </trkpt>
      <trkpt lat="45.42531" lon="4.52602">
        <ele>504.43</ele>
        <time>2017-03-26T11:57:09Z</time>
      </trkpt>
      <trkpt lat="45.42531" lon="4.52602">
        <ele>504.43</ele>
        <time>2017-03-26T11:57:10Z</time>
      </trkpt>
      <trkpt lat="45.42531" lon="4.52602">
        <ele>504.43</ele>
        <time>2017-03-26T11:57:11Z</time>
      </trkpt>
      <trkpt lat="45.42531" lon="4.52602">
        <ele>504.43</ele>
        <time>2017-03-26T11:57:12Z</time>
      </trkpt>
      <trkpt lat="45.42531" lon="4.52602">
        <ele>504.43</ele>
        <time>2017-03-26T11:57:13Z</time>
      </trkpt>
      <trkpt lat="45.42531" lon="4.52602">
        <ele>504.43</ele>
        <time>2017-03-26T11:57:14Z</time>
      </trkpt>
      <trkpt lat="45.42531" lon="4.52602">
        <ele>504.43</ele>
        <time>2017-03-26T11:57:15Z</time>
      </trkpt>
      <trkpt lat="45.42531" lon="4.52602">
        <ele>504.43</ele>
        <time>2017-03-26T11:57:16Z</time>
      </trkpt>
      <trkpt lat="45.42531" lon="4.52602">
        <ele>504.43</ele>
        <time>2017-03-26T11:57:17Z</time>
      </trkpt>
      <trkpt lat="45.42531" lon="4.52602">
        <ele>504.43</ele>
        <time>2017-03-26T11:57:18Z</time>
      </trkpt>
      <trkpt lat="45.42531" lon="4.52602">
        <ele>504.43</ele>
        <time>2017-03-26T11:57:19Z</time>
      </trkpt>
      <trkpt lat="45.42531" lon="4.52602">
        <ele>504.43</ele>
        <time>2017-03-26T11:57:20Z</time>
      </trkpt>
      <trkpt lat="45.42531" lon="4.52602">
        <ele>504.43</ele>
        <time>2017-03-26T11:57:21Z</time>
      </trkpt>
      <trkpt lat="45.42531" lon="4.52602">
        <ele>504.43</ele>
        <time>2017-03-26T11:57:22Z</time>
      </trkpt>
      <trkpt lat="45.42531" lon="4.52602">
        <ele>504.43</ele>
        <time>2017-03-26T11:57:23Z</time>
      </trkpt>
      <trkpt lat="45.42531" lon="4.52602">
        <ele>504.43</ele>
        <time>2017-03-26T11:57:24Z</time>
      </trkpt>
      <trkpt lat="45.42531" lon="4.52602">
        <ele>504.43</ele>
        <time>2017-03-26T11:57:25Z</time>
      </trkpt>
      <trkpt lat="45.42531" lon="4.52602">
        <ele>504.43</ele>
        <time>2017-03-26T11:57:26Z</time>
      </trkpt>
      <trkpt lat="45.42531" lon="4.52602">
        <ele>504.43</ele>
        <time>2017-03-26T11:57:27Z</time>
      </trkpt>
      <trkpt lat="45.42531" lon="4.52602">
        <ele>504.43</ele>
        <time>2017-03-26T11:57:28Z</time>
      </trkpt>
      <trkpt lat="45.42531" lon="4.52602">
        <ele>504.43</ele>
        <time>2017-03-26T11:57:29Z</time>
      </trkpt>
      <trkpt lat="45.42531" lon="4.52602">
        <ele>504.43</ele>
        <time>2017-03-26T11:57:30Z</time>
      </trkpt>
      <trkpt lat="45.42531" lon="4.52602">
        <ele>504.43</ele>
        <time>2017-03-26T11:57:31Z</time>
      </trkpt>
      <trkpt lat="45.42531" lon="4.52602">
        <ele>504.43</ele>
        <time>2017-03-26T11:57:32Z</time>
      </trkpt>
      <trkpt lat="45.42531" lon="4.52602">
        <ele>504.43</ele>
        <time>2017-03-26T11:57:33Z</time>
      </trkpt>
      <trkpt lat="45.42531" lon="4.52602">
        <ele>504.43</ele>
        <time>2017-03-26T11:57:34Z</time>
      </trkpt>
      <trkpt lat="45.42531" lon="4.52602">
        <ele>504.43</ele>
        <time>2017-03-26T11:57:35Z</time>
      </trkpt>
      <trkpt lat="45.42531" lon="4.52602">
        <ele>504.43</ele>
        <time>2017-03-26T11:57:36Z</time>
      </trkpt>
      <trkpt lat="45.42531" lon="4.52602">
        <ele>504.43</ele>
        <time>2017-03-26T11:57:37Z</time>
      </trkpt>
      <trkpt lat="45.42531" lon="4.52602">
        <ele>504.43</ele>
        <time>2017-03-26T11:57:38Z</time>
      </trkpt>
      <trkpt lat="45.42531" lon="4.52602">
        <ele>504.43</ele>
        <time>2017-03-26T11:57:39Z</time>
      </trkpt>
      <trkpt lat="45.42531" lon="4.52602">
        <ele>504.43</ele>
        <time>2017-03-26T11:57:40Z</time>
      </trkpt>
      <trkpt lat="45.42531" lon="4.52602">
        <ele>504.43</ele>
        <time>2017-03-26T11:57:41Z</time>
      </trkpt>
      <trkpt lat="45.42531" lon="4.52602">
        <ele>504.43</ele>
        <time>2017-03-26T11:57:42Z</time>
      </trkpt>
      <trkpt lat="45.42531" lon="4.52602">
        <ele>504.43</ele>
        <time>2017-03-26T11:57:43Z</time>
      </trkpt>
      <trkpt lat="45.42531" lon="4.52602">
        <ele>504.43</ele>
        <time>2017-03-26T11:57:44Z</time>
      </trkpt>
      <trkpt lat="45.42531" lon="4.52602">
        <ele>504.43</ele>
        <time>2017-03-26T11:57:45Z</time>
      </trkpt>
      <trkpt lat="45.42531" lon="4.52602">
        <ele>504.43</ele>
        <time>2017-03-26T11:57:46Z</time>
      </trkpt>
      <trkpt lat="45.42531" lon="4.52602">
        <ele>504.43</ele>
        <time>2017-03-26T11:57:47Z</time>
      </trkpt>
      <trkpt lat="45.42531" lon="4.52602">
        <ele>504.43</ele>
        <time>2017-03-26T11:57:48Z</time>
      </trkpt>
      <trkpt lat="45.42531" lon="4.52602">
        <ele>504.43</ele>
        <time>2017-03-26T11:57:49Z</time>
      </trkpt>
      <trkpt lat="45.42531" lon="4.52602">
        <ele>504.43</ele>
        <time>2017-03-26T11:57:50Z</time>
      </trkpt>
      <trkpt lat="45.42531" lon="4.52602">
        <ele>504.43</ele>
        <time>2017-03-26T11:57:51Z</time>
      </trkpt>
      <trkpt lat="45.42531" lon="4.52602">
        <ele>504.43</ele>
        <time>2017-03-26T11:57:52Z</time>
      </trkpt>
      <trkpt lat="45.42531" lon="4.52602">
        <ele>504.43</ele>
        <time>2017-03-26T11:57:53Z</time>
      </trkpt>
      <trkpt lat="45.42531" lon="4.52602">
        <ele>504.43</ele>
        <time>2017-03-26T11:57:54Z</time>
      </trkpt>
      <trkpt lat="45.42531" lon="4.52602">
        <ele>504.43</ele>
        <time>2017-03-26T11:57:55Z</time>
      </trkpt>
      <trkpt lat="45.42531" lon="4.52602">
        <ele>504.43</ele>
        <time>2017-03-26T11:57:56Z</time>
      </trkpt>
      <trkpt lat="45.42531" lon="4.52602">
        <ele>504.43</ele>
        <time>2017-03-26T11:57:57Z</time>
      </trkpt>
      <trkpt lat="45.42531" lon="4.52602">
        <ele>504.43</ele>
        <time>2017-03-26T11:57:58Z</time>
      </trkpt>
      <trkpt lat="45.42531" lon="4.52602">
        <ele>504.43</ele>
        <time>2017-03-26T11:57:59Z</time>
      </trkpt>
      <trkpt lat="45.42531" lon="4.52602">
        <ele>504.43</ele>
        <time>2017-03-26T11:58:00Z</time>
      </trkpt>
      <trkpt lat="45.42531" lon="4.52602">
        <ele>504.43</ele>
        <time>2017-03-26T11:58:01Z</time>
      </trkpt>
      <trkpt lat="45.42531" lon="4.52602">
        <ele>504.43</ele>
        <time>2017-03-26T11:58:02Z</time>
      </trkpt>
      <trkpt lat="45.42531" lon="4.52602">
        <ele>504.43</ele>
        <time>2017-03-26T11:58:03Z</time>
      </trkpt>
      <trkpt lat="45.42531" lon="4.52602">
        <ele>504.43</ele>
        <time>2017-03-26T11:58:04Z</time>
      </trkpt>
      <trkpt lat="45.42531" lon="4.52602">
        <ele>504.43</ele>
        <time>2017-03-26T11:58:05Z</time>
      </trkpt>
      <trkpt lat="45.42531" lon="4.52602">
        <ele>504.43</ele>
        <time>2017-03-26T11:58:06Z</time>
      </trkpt>
      <trkpt lat="45.42531" lon="4.52602">
        <ele>504.43</ele>
        <time>2017-03-26T11:58:07Z</time>
      </trkpt>
      <trkpt lat="45.42531" lon="4.52602">
        <ele>504.43</ele>
        <time>2017-03-26T11:58:08Z</time>
      </trkpt>
      <trkpt lat="45.42531" lon="4.52602">
        <ele>504.43</ele>
        <time>2017-03-26T11:58:09Z</time>
      </trkpt>
      <trkpt lat="45.42531" lon="4.52602">
        <ele>504.43</ele>
        <time>2017-03-26T11:58:10Z</time>
      </trkpt>
      <trkpt lat="45.42531" lon="4.52602">
        <ele>504.43</ele>
        <time>2017-03-26T11:58:11Z</time>
      </trkpt>
      <trkpt lat="45.42531" lon="4.52602">
        <ele>504.43</ele>
        <time>2017-03-26T11:58:12Z</time>
      </trkpt>
      <trkpt lat="45.42531" lon="4.52602">
        <ele>504.43</ele>
        <time>2017-03-26T11:58:13Z</time>
      </trkpt>
      <trkpt lat="45.42531" lon="4.52602">
        <ele>504.43</ele>
        <time>2017-03-26T11:58:14Z</time>
      </trkpt>
      <trkpt lat="45.42531" lon="4.52602">
        <ele>504.43</ele>
        <time>2017-03-26T11:58:15Z</time>
      </trkpt>
      <trkpt lat="45.42531" lon="4.52602">
        <ele>504.43</ele>
        <time>2017-03-26T11:58:16Z</time>
      </trkpt>
      <trkpt lat="45.42531" lon="4.52602">
        <ele>504.43</ele>
        <time>2017-03-26T11:58:17Z</time>
      </trkpt>
      <trkpt lat="45.42531" lon="4.52602">
        <ele>504.43</ele>
        <time>2017-03-26T11:58:18Z</time>
      </trkpt>
      <trkpt lat="45.42531" lon="4.52602">
        <ele>504.43</ele>
        <time>2017-03-26T11:58:19Z</time>
      </trkpt>
      <trkpt lat="45.42531" lon="4.52602">
        <ele>504.43</ele>
        <time>2017-03-26T11:58:20Z</time>
      </trkpt>
      <trkpt lat="45.42531" lon="4.52602">
        <ele>504.43</ele>
        <time>2017-03-26T11:58:21Z</time>
      </trkpt>
      <trkpt lat="45.42531" lon="4.52602">
        <ele>504.43</ele>
        <time>2017-03-26T11:58:22Z</time>
      </trkpt>
      <trkpt lat="45.42531" lon="4.52602">
        <ele>504.43</ele>
        <time>2017-03-26T11:58:23Z</time>
      </trkpt>
      <trkpt lat="45.42531" lon="4.52602">
        <ele>504.43</ele>
        <time>2017-03-26T11:58:24Z</time>
      </trkpt>
      <trkpt lat="45.42531" lon="4.52602">
        <ele>504.43</ele>
        <time>2017-03-26T11:58:25Z</time>
      </trkpt>
      <trkpt lat="45.42531" lon="4.52602">
        <ele>504.43</ele>
        <time>2017-03-26T11:58:26Z</time>
      </trkpt>
      <trkpt lat="45.42531" lon="4.52602">
        <ele>504.43</ele>
        <time>2017-03-26T11:58:27Z</time>
      </trkpt>
      <trkpt lat="45.42531" lon="4.52602">
        <ele>504.43</ele>
        <time>2017-03-26T11:58:28Z</time>
      </trkpt>
      <trkpt lat="45.42531" lon="4.52602">
        <ele>504.43</ele>
        <time>2017-03-26T11:58:29Z</time>
      </trkpt>
      <trkpt lat="45.42531" lon="4.52602">
        <ele>504.43</ele>
        <time>2017-03-26T11:58:30Z</time>
      </trkpt>
      <trkpt lat="45.42531" lon="4.52602">
        <ele>504.43</ele>
        <time>2017-03-26T11:58:31Z</time>
      </trkpt>
      <trkpt lat="45.42531" lon="4.52602">
        <ele>504.43</ele>
        <time>2017-03-26T11:58:32Z</time>
      </trkpt>
      <trkpt lat="45.42531" lon="4.52602">
        <ele>504.43</ele>
        <time>2017-03-26T11:58:33Z</time>
      </trkpt>
      <trkpt lat="45.42531" lon="4.52602">
        <ele>504.43</ele>
        <time>2017-03-26T11:58:34Z</time>
      </trkpt>
      <trkpt lat="45.42531" lon="4.52602">
        <ele>504.43</ele>
        <time>2017-03-26T11:58:35Z</time>
      </trkpt>
      <trkpt lat="45.42531" lon="4.52602">
        <ele>504.43</ele>
        <time>2017-03-26T11:58:36Z</time>
      </trkpt>
      <trkpt lat="45.42531" lon="4.52602">
        <ele>504.43</ele>
        <time>2017-03-26T11:58:37Z</time>
      </trkpt>
      <trkpt lat="45.42531" lon="4.52602">
        <ele>504.43</ele>
        <time>2017-03-26T11:58:38Z</time>
      </trkpt>
      <trkpt lat="45.42531" lon="4.52602">
        <ele>504.43</ele>
        <time>2017-03-26T11:58:39Z</time>
      </trkpt>
      <trkpt lat="45.42531" lon="4.52602">
        <ele>504.43</ele>
        <time>2017-03-26T11:58:40Z</time>
      </trkpt>
      <trkpt lat="45.42531" lon="4.52602">
        <ele>504.43</ele>
        <time>2017-03-26T11:58:41Z</time>
      </trkpt>
      <trkpt lat="45.42531" lon="4.52602">
        <ele>504.43</ele>
        <time>2017-03-26T11:58:42Z</time>
      </trkpt>
      <trkpt lat="45.42531" lon="4.52602">
        <ele>504.43</ele>
        <time>2017-03-26T11:58:43Z</time>
      </trkpt>
      <trkpt lat="45.42531" lon="4.52602">
        <ele>504.43</ele>
        <time>2017-03-26T11:58:44Z</time>
      </trkpt>
      <trkpt lat="45.42531" lon="4.52602">
        <ele>504.43</ele>
        <time>2017-03-26T11:58:45Z</time>
      </trkpt>
      <trkpt lat="45.42531" lon="4.52602">
        <ele>504.43</ele>
        <time>2017-03-26T11:58:46Z</time>
      </trkpt>
      <trkpt lat="45.42531" lon="4.52602">
        <ele>504.43</ele>
        <time>2017-03-26T11:58:47Z</time>
      </trkpt>
      <trkpt lat="45.42531" lon="4.52602">
        <ele>504.43</ele>
        <time>2017-03-26T11:58:48Z</time>
      </trkpt>
      <trkpt lat="45.42531" lon="4.52602">
        <ele>504.43</ele>
        <time>2017-03-26T11:58:49Z</time>
      </trkpt>
      <trkpt lat="45.42531" lon="4.52602">
        <ele>504.43</ele>
        <time>2017-03-26T11:58:50Z</time>
      </trkpt>
      <trkpt lat="45.42531" lon="4.52602">
        <ele>504.43</ele>
        <time>2017-03-26T11:58:51Z</time>
      </trkpt>
      <trkpt lat="45.42531" lon="4.52602">
        <ele>504.43</ele>
        <time>2017-03-26T11:58:52Z</time>
      </trkpt>
      <trkpt lat="45.42531" lon="4.52602">
        <ele>504.43</ele>
        <time>2017-03-26T11:58:53Z</time>
      </trkpt>
      <trkpt lat="45.42531" lon="4.52602">
        <ele>504.43</ele>
        <time>2017-03-26T11:58:54Z</time>
      </trkpt>
      <trkpt lat="45.42531" lon="4.52602">
        <ele>504.43</ele>
        <time>2017-03-26T11:58:55Z</time>
      </trkpt>
      <trkpt lat="45.42531" lon="4.52602">
        <ele>504.43</ele>
        <time>2017-03-26T11:58:56Z</time>
      </trkpt>
      <trkpt lat="45.42531" lon="4.52602">
        <ele>504.43</ele>
        <time>2017-03-26T11:58:57Z</time>
      </trkpt>
      <trkpt lat="45.42531" lon="4.52602">
        <ele>504.43</ele>
        <time>2017-03-26T11:58:58Z</time>
      </trkpt>
      <trkpt lat="45.42531" lon="4.52602">
        <ele>504.43</ele>
        <time>2017-03-26T11:58:59Z</time>
      </trkpt>
      <trkpt lat="45.42531" lon="4.52602">
        <ele>504.43</ele>
        <time>2017-03-26T11:59:00Z</time>
      </trkpt>
      <trkpt lat="45.42531" lon="4.52602">
        <ele>504.43</ele>
        <time>2017-03-26T11:59:01Z</time>
      </trkpt>
      <trkpt lat="45.42531" lon="4.52602">
        <ele>504.43</ele>
        <time>2017-03-26T11:59:02Z</time>
      </trkpt>
      <trkpt lat="45.42531" lon="4.52602">
        <ele>504.43</ele>
        <time>2017-03-26T11:59:03Z</time>
      </trkpt>
      <trkpt lat="45.42531" lon="4.52602">
        <ele>504.43</ele>
        <time>2017-03-26T11:59:04Z</time>
      </trkpt>
      <trkpt lat="45.42531" lon="4.52602">
        <ele>504.43</ele>
        <time>2017-03-26T11:59:05Z</time>
      </trkpt>
      <trkpt lat="45.42531" lon="4.52602">
        <ele>504.43</ele>
        <time>2017-03-26T11:59:06Z</time>
      </trkpt>
      <trkpt lat="45.42531" lon="4.52602">
        <ele>504.43</ele>
        <time>2017-03-26T11:59:07Z</time>
      </trkpt>
      <trkpt lat="45.42531" lon="4.52602">
        <ele>504.43</ele>
        <time>2017-03-26T11:59:08Z</time>
      </trkpt>
      <trkpt lat="45.42531" lon="4.52602">
        <ele>504.43</ele>
        <time>2017-03-26T11:59:09Z</time>
      </trkpt>
      <trkpt lat="45.42531" lon="4.52602">
        <ele>504.43</ele>
        <time>2017-03-26T11:59:10Z</time>
      </trkpt>
      <trkpt lat="45.42531" lon="4.52602">
        <ele>504.43</ele>
        <time>2017-03-26T11:59:11Z</time>
      </trkpt>
      <trkpt lat="45.42531" lon="4.52602">
        <ele>504.43</ele>
        <time>2017-03-26T11:59:12Z</time>
      </trkpt>
      <trkpt lat="45.42531" lon="4.52602">
        <ele>504.43</ele>
        <time>2017-03-26T11:59:13Z</time>
      </trkpt>
      <trkpt lat="45.42531" lon="4.52602">
        <ele>504.43</ele>
        <time>2017-03-26T11:59:14Z</time>
      </trkpt>
      <trkpt lat="45.42531" lon="4.52602">
        <ele>504.43</ele>
        <time>2017-03-26T11:59:15Z</time>
      </trkpt>
      <trkpt lat="45.42531" lon="4.52602">
        <ele>504.43</ele>
        <time>2017-03-26T11:59:16Z</time>
      </trkpt>
      <trkpt lat="45.42531" lon="4.52602">
        <ele>504.43</ele>
        <time>2017-03-26T11:59:17Z</time>
      </trkpt>
      <trkpt lat="45.42531" lon="4.52602">
        <ele>504.43</ele>
        <time>2017-03-26T11:59:18Z</time>
      </trkpt>
      <trkpt lat="45.42531" lon="4.52602">
        <ele>504.43</ele>
        <time>2017-03-26T11:59:19Z</time>
      </trkpt>
      <trkpt lat="45.42531" lon="4.52602">
        <ele>504.43</ele>
        <time>2017-03-26T11:59:20Z</time>
      </trkpt>
      <trkpt lat="45.42531" lon="4.52602">
        <ele>504.43</ele>
        <time>2017-03-26T11:59:21Z</time>
      </trkpt>
      <trkpt lat="45.42531" lon="4.52602">
        <ele>504.43</ele>
        <time>2017-03-26T11:59:22Z</time>
      </trkpt>
      <trkpt lat="45.42531" lon="4.52602">
        <ele>504.43</ele>
        <time>2017-03-26T11:59:23Z</time>
      </trkpt>
      <trkpt lat="45.42531" lon="4.52602">
        <ele>504.43</ele>
        <time>2017-03-26T11:59:24Z</time>
      </trkpt>
      <trkpt lat="45.42531" lon="4.52602">
        <ele>504.43</ele>
        <time>2017-03-26T11:59:25Z</time>
      </trkpt>
      <trkpt lat="45.42531" lon="4.52602">
        <ele>504.43</ele>
        <time>2017-03-26T11:59:26Z</time>
      </trkpt>
      <trkpt lat="45.42531" lon="4.52602">
        <ele>504.43</ele>
        <time>2017-03-26T11:59:27Z</time>
      </trkpt>
      <trkpt lat="45.42531" lon="4.52602">
        <ele>504.43</ele>
        <time>2017-03-26T11:59:28Z</time>
      </trkpt>
      <trkpt lat="45.42531" lon="4.52602">
        <ele>504.43</ele>
        <time>2017-03-26T11:59:29Z</time>
      </trkpt>
      <trkpt lat="45.42531" lon="4.52602">
        <ele>504.43</ele>
        <time>2017-03-26T11:59:30Z</time>
      </trkpt>
      <trkpt lat="45.42531" lon="4.52602">
        <ele>504.43</ele>
        <time>2017-03-26T11:59:31Z</time>
      </trkpt>
      <trkpt lat="45.42531" lon="4.52602">
        <ele>504.43</ele>
        <time>2017-03-26T11:59:32Z</time>
      </trkpt>
      <trkpt lat="45.42531" lon="4.52602">
        <ele>504.43</ele>
        <time>2017-03-26T11:59:33Z</time>
      </trkpt>
      <trkpt lat="45.42531" lon="4.52602">
        <ele>504.43</ele>
        <time>2017-03-26T11:59:34Z</time>
      </trkpt>
      <trkpt lat="45.42531" lon="4.52602">
        <ele>504.43</ele>
        <time>2017-03-26T11:59:35Z</time>
      </trkpt>
      <trkpt lat="45.42531" lon="4.52602">
        <ele>504.43</ele>
        <time>2017-03-26T11:59:36Z</time>
      </trkpt>
      <trkpt lat="45.42531" lon="4.52602">
        <ele>504.43</ele>
        <time>2017-03-26T11:59:37Z</time>
      </trkpt>
      <trkpt lat="45.42531" lon="4.52602">
        <ele>504.43</ele>
        <time>2017-03-26T11:59:38Z</time>
      </trkpt>
      <trkpt lat="45.42531" lon="4.52602">
        <ele>504.43</ele>
        <time>2017-03-26T11:59:39Z</time>
      </trkpt>
      <trkpt lat="45.42531" lon="4.52602">
        <ele>504.43</ele>
        <time>2017-03-26T11:59:40Z</time>
      </trkpt>
      <trkpt lat="45.42531" lon="4.52602">
        <ele>504.43</ele>
        <time>2017-03-26T11:59:41Z</time>
      </trkpt>
      <trkpt lat="45.42531" lon="4.52602">
        <ele>504.43</ele>
        <time>2017-03-26T11:59:42Z</time>
      </trkpt>
      <trkpt lat="45.42531" lon="4.52602">
        <ele>504.43</ele>
        <time>2017-03-26T11:59:43Z</time>
      </trkpt>
      <trkpt lat="45.42531" lon="4.52602">
        <ele>504.43</ele>
        <time>2017-03-26T11:59:44Z</time>
      </trkpt>
      <trkpt lat="45.42531" lon="4.52602">
        <ele>504.43</ele>
        <time>2017-03-26T11:59:45Z</time>
      </trkpt>
      <trkpt lat="45.42531" lon="4.52602">
        <ele>504.43</ele>
        <time>2017-03-26T11:59:46Z</time>
      </trkpt>
      <trkpt lat="45.42531" lon="4.52602">
        <ele>504.43</ele>
        <time>2017-03-26T11:59:47Z</time>
      </trkpt>
      <trkpt lat="45.42531" lon="4.52602">
        <ele>504.43</ele>
        <time>2017-03-26T11:59:48Z</time>
      </trkpt>
      <trkpt lat="45.42531" lon="4.52602">
        <ele>504.43</ele>
        <time>2017-03-26T11:59:49Z</time>
      </trkpt>
      <trkpt lat="45.42531" lon="4.52602">
        <ele>504.43</ele>
        <time>2017-03-26T11:59:50Z</time>
      </trkpt>
      <trkpt lat="45.42531" lon="4.52602">
        <ele>504.43</ele>
        <time>2017-03-26T11:59:51Z</time>
      </trkpt>
      <trkpt lat="45.42531" lon="4.52602">
        <ele>504.43</ele>
        <time>2017-03-26T11:59:52Z</time>
      </trkpt>
      <trkpt lat="45.42531" lon="4.52602">
        <ele>504.43</ele>
        <time>2017-03-26T11:59:53Z</time>
      </trkpt>
      <trkpt lat="45.42531" lon="4.52602">
        <ele>504.43</ele>
        <time>2017-03-26T11:59:54Z</time>
      </trkpt>
      <trkpt lat="45.42531" lon="4.52602">
        <ele>504.43</ele>
        <time>2017-03-26T11:59:55Z</time>
      </trkpt>
      <trkpt lat="45.42531" lon="4.52602">
        <ele>504.43</ele>
        <time>2017-03-26T11:59:56Z</time>
      </trkpt>
      <trkpt lat="45.42531" lon="4.52602">
        <ele>504.43</ele>
        <time>2017-03-26T11:59:57Z</time>
      </trkpt>
      <trkpt lat="45.42531" lon="4.52602">
        <ele>504.43</ele>
        <time>2017-03-26T11:59:58Z</time>
      </trkpt>
      <trkpt lat="45.42531" lon="4.52602">
        <ele>504.43</ele>
        <time>2017-03-26T11:59:59Z</time>
      </trkpt>
      <trkpt lat="45.42531" lon="4.52602">
        <ele>504.43</ele>
        <time>2017-03-26T12:00:00Z</time>
      </trkpt>
      <trkpt lat="45.42531" lon="4.52602">
        <ele>504.43</ele>
        <time>2017-03-26T12:00:01Z</time>
      </trkpt>
      <trkpt lat="45.42531" lon="4.52602">
        <ele>504.43</ele>
        <time>2017-03-26T12:00:02Z</time>
      </trkpt>
      <trkpt lat="45.42531" lon="4.52602">
        <ele>504.43</ele>
        <time>2017-03-26T12:00:03Z</time>
      </trkpt>
      <trkpt lat="45.42531" lon="4.52602">
        <ele>504.43</ele>
        <time>2017-03-26T12:00:04Z</time>
      </trkpt>
      <trkpt lat="45.42531" lon="4.52602">
        <ele>504.43</ele>
        <time>2017-03-26T12:00:05Z</time>
      </trkpt>
      <trkpt lat="45.42531" lon="4.52602">
        <ele>504.43</ele>
        <time>2017-03-26T12:00:06Z</time>
      </trkpt>
      <trkpt lat="45.42531" lon="4.52602">
        <ele>504.43</ele>
        <time>2017-03-26T12:00:07Z</time>
      </trkpt>
      <trkpt lat="45.42531" lon="4.52602">
        <ele>504.43</ele>
        <time>2017-03-26T12:00:08Z</time>
      </trkpt>
      <trkpt lat="45.42531" lon="4.52602">
        <ele>504.43</ele>
        <time>2017-03-26T12:00:09Z</time>
      </trkpt>
      <trkpt lat="45.42531" lon="4.52602">
        <ele>504.43</ele>
        <time>2017-03-26T12:00:10Z</time>
      </trkpt>
      <trkpt lat="45.42531" lon="4.52602">
        <ele>504.43</ele>
        <time>2017-03-26T12:00:11Z</time>
      </trkpt>
      <trkpt lat="45.42531" lon="4.52602">
        <ele>504.43</ele>
        <time>2017-03-26T12:00:12Z</time>
      </trkpt>
      <trkpt lat="45.42531" lon="4.52602">
        <ele>504.43</ele>
        <time>2017-03-26T12:00:13Z</time>
      </trkpt>
      <trkpt lat="45.42531" lon="4.52602">
        <ele>504.43</ele>
        <time>2017-03-26T12:00:14Z</time>
      </trkpt>
      <trkpt lat="45.42531" lon="4.52602">
        <ele>504.43</ele>
        <time>2017-03-26T12:00:15Z</time>
      </trkpt>
      <trkpt lat="45.42531" lon="4.52602">
        <ele>504.43</ele>
        <time>2017-03-26T12:00:16Z</time>
      </trkpt>
      <trkpt lat="45.42531" lon="4.52602">
        <ele>504.43</ele>
        <time>2017-03-26T12:00:17Z</time>
      </trkpt>
      <trkpt lat="45.42531" lon="4.52602">
        <ele>504.43</ele>
        <time>2017-03-26T12:00:18Z</time>
      </trkpt>
      <trkpt lat="45.42531" lon="4.52602">
        <ele>504.43</ele>
        <time>2017-03-26T12:00:19Z</time>
      </trkpt>
      <trkpt lat="45.42531" lon="4.52602">
        <ele>504.43</ele>
        <time>2017-03-26T12:00:20Z</time>
      </trkpt>
      <trkpt lat="45.42531" lon="4.52602">
        <ele>504.43</ele>
        <time>2017-03-26T12:00:21Z</time>
      </trkpt>
      <trkpt lat="45.42531" lon="4.52602">
        <ele>504.43</ele>
        <time>2017-03-26T12:00:22Z</time>
      </trkpt>
      <trkpt lat="45.42531" lon="4.52602">
        <ele>504.43</ele>
        <time>2017-03-26T12:00:23Z</time>
      </trkpt>
      <trkpt lat="45.42531" lon="4.52602">
        <ele>504.43</ele>
        <time>2017-03-26T12:00:24Z</time>
      </trkpt>
      <trkpt lat="45.42531" lon="4.52602">
        <ele>504.43</ele>
        <time>2017-03-26T12:00:25Z</time>
      </trkpt>
      <trkpt lat="45.42531" lon="4.52602">
        <ele>504.43</ele>
        <time>2017-03-26T12:00:26Z</time>
      </trkpt>
      <trkpt lat="45.42531" lon="4.52602">
        <ele>504.43</ele>
        <time>2017-03-26T12:00:27Z</time>
      </trkpt>
      <trkpt lat="45.42531" lon="4.52602">
        <ele>504.43</ele>
        <time>2017-03-26T12:00:28Z</time>
      </trkpt>
      <trkpt lat="45.42531" lon="4.52602">
        <ele>504.43</ele>
        <time>2017-03-26T12:00:29Z</time>
      </trkpt>
      <trkpt lat="45.42531" lon="4.52602">
        <ele>504.43</ele>
        <time>2017-03-26T12:00:30Z</time>
      </trkpt>
      <trkpt lat="45.42531" lon="4.52602">
        <ele>504.43</ele>
        <time>2017-03-26T12:00:31Z</time>
      </trkpt>
      <trkpt lat="45.42531" lon="4.52602">
        <ele>504.43</ele>
        <time>2017-03-26T12:00:32Z</time>
      </trkpt>
      <trkpt lat="45.42531" lon="4.52602">
        <ele>504.43</ele>
        <time>2017-03-26T12:00:33Z</time>
      </trkpt>
      <trkpt lat="45.42531" lon="4.52602">
        <ele>504.43</ele>
        <time>2017-03-26T12:00:34Z</time>
      </trkpt>
      <trkpt lat="45.42531" lon="4.52602">
        <ele>504.43</ele>
        <time>2017-03-26T12:00:35Z</time>
      </trkpt>
      <trkpt lat="45.42531" lon="4.52602">
        <ele>504.43</ele>
        <time>2017-03-26T12:00:36Z</time>
      </trkpt>
      <trkpt lat="45.42531" lon="4.52602">
        <ele>504.43</ele>
        <time>2017-03-26T12:00:37Z</time>
      </trkpt>
      <trkpt lat="45.42531" lon="4.52602">
        <ele>504.43</ele>
        <time>2017-03-26T12:00:38Z</time>
      </trkpt>
      <trkpt lat="45.42531" lon="4.52602">
        <ele>504.43</ele>
        <time>2017-03-26T12:00:39Z</time>
      </trkpt>
      <trkpt lat="45.42531" lon="4.52602">
        <ele>504.43</ele>
        <time>2017-03-26T12:00:40Z</time>
      </trkpt>
      <trkpt lat="45.42531" lon="4.52602">
        <ele>504.43</ele>
        <time>2017-03-26T12:00:41Z</time>
      </trkpt>
      <trkpt lat="45.42531" lon="4.52602">
        <ele>504.43</ele>
        <time>2017-03-26T12:00:42Z</time>
      </trkpt>
      <trkpt lat="45.42531" lon="4.52602">
        <ele>504.43</ele>
        <time>2017-03-26T12:00:43Z</time>
      </trkpt>
      <trkpt lat="45.42531" lon="4.52602">
        <ele>504.43</ele>
        <time>2017-03-26T12:00:44Z</time>
      </trkpt>
      <trkpt lat="45.42531" lon="4.52602">
        <ele>504.43</ele>
        <time>2017-03-26T12:00:45Z</time>
      </trkpt>
      <trkpt lat="45.42531" lon="4.52602">
        <ele>504.43</ele>
        <time>2017-03-26T12:00:46Z</time>
      </trkpt>
      <trkpt lat="45.42531" lon="4.52602">
        <ele>504.43</ele>
        <time>2017-03-26T12:00:47Z</time>
      </trkpt>
      <trkpt lat="45.42531" lon="4.52602">
        <ele>504.43</ele>
        <time>2017-03-26T12:00:48Z</time>
      </trkpt>
      <trkpt lat="45.42531" lon="4.52602">
        <ele>504.43</ele>
        <time>2017-03-26T12:00:49Z</time>
      </trkpt>
      <trkpt lat="45.42531" lon="4.52602">
        <ele>504.43</ele>
        <time>2017-03-26T12:00:50Z</time>
      </trkpt>
      <trkpt lat="45.42531" lon="4.52602">
        <ele>504.43</ele>
        <time>2017-03-26T12:00:51Z</time>
      </trkpt>
      <trkpt lat="45.42531" lon="4.52602">
        <ele>504.43</ele>
        <time>2017-03-26T12:00:52Z</time>
      </trkpt>
      <trkpt lat="45.42531" lon="4.52602">
        <ele>504.43</ele>
        <time>2017-03-26T12:00:53Z</time>
      </trkpt>
      <trkpt lat="45.42531" lon="4.52602">
        <ele>504.43</ele>
        <time>2017-03-26T12:00:54Z</time>
      </trkpt>
      <trkpt lat="45.42531" lon="4.52602">
        <ele>504.43</ele>
        <time>2017-03-26T12:00:55Z</time>
      </trkpt>
      <trkpt lat="45.42531" lon="4.52602">
        <ele>504.43</ele>
        <time>2017-03-26T12:00:56Z</time>
      </trkpt>
      <trkpt lat="45.42531" lon="4.52602">
        <ele>504.43</ele>
        <time>2017-03-26T12:00:57Z</time>
      </trkpt>
      <trkpt lat="45.42531" lon="4.52602">
        <ele>504.43</ele>
        <time>2017-03-26T12:00:58Z</time>
      </trkpt>
      <trkpt lat="45.42531" lon="4.52602">
        <ele>504.43</ele>
        <time>2017-03-26T12:00:59Z</time>
      </trkpt>
      <trkpt lat="45.42531" lon="4.52602">
        <ele>504.43</ele>
        <time>2017-03-26T12:01:00Z</time>
      </trkpt>
      <trkpt lat="45.42531" lon="4.52602">
        <ele>504.43</ele>
        <time>2017-03-26T12:01:01Z</time>
      </trkpt>
      <trkpt lat="45.42531" lon="4.52602">
        <ele>504.43</ele>
        <time>2017-03-26T12:01:02Z</time>
      </trkpt>
      <trkpt lat="45.42531" lon="4.52602">
        <ele>504.43</ele>
        <time>2017-03-26T12:01:03Z</time>
      </trkpt>
      <trkpt lat="45.42531" lon="4.52602">
        <ele>504.43</ele>
        <time>2017-03-26T12:01:04Z</time>
      </trkpt>
      <trkpt lat="45.42531" lon="4.52602">
        <ele>504.43</ele>
        <time>2017-03-26T12:01:05Z</time>
      </trkpt>
      <trkpt lat="45.42531" lon="4.52602">
        <ele>504.43</ele>
        <time>2017-03-26T12:01:06Z</time>
      </trkpt>
      <trkpt lat="45.42531" lon="4.52602">
        <ele>504.43</ele>
        <time>2017-03-26T12:01:07Z</time>
      </trkpt>
      <trkpt lat="45.42531" lon="4.52602">
        <ele>504.43</ele>
        <time>2017-03-26T12:01:08Z</time>
      </trkpt>
      <trkpt lat="45.42531" lon="4.52602">
        <ele>504.43</ele>
        <time>2017-03-26T12:01:09Z</time>
      </trkpt>
      <trkpt lat="45.42531" lon="4.52602">
        <ele>504.43</ele>
        <time>2017-03-26T12:01:10Z</time>
      </trkpt>
      <trkpt lat="45.42531" lon="4.52602">
        <ele>504.43</ele>
        <time>2017-03-26T12:01:11Z</time>
      </trkpt>
      <trkpt lat="45.42531" lon="4.52602">
        <ele>504.43</ele>
        <time>2017-03-26T12:01:12Z</time>
      </trkpt>
      <trkpt lat="45.42531" lon="4.52602">
        <ele>504.43</ele>
        <time>2017-03-26T12:01:13Z</time>
      </trkpt>
      <trkpt lat="45.42531" lon="4.52602">
        <ele>504.43</ele>
        <time>2017-03-26T12:01:14Z</time>
      </trkpt>
      <trkpt lat="45.42531" lon="4.52602">
        <ele>504.43</ele>
        <time>2017-03-26T12:01:15Z</time>
      </trkpt>
      <trkpt lat="45.42531" lon="4.52602">
        <ele>504.43</ele>
        <time>2017-03-26T12:01:16Z</time>
      </trkpt>
      <trkpt lat="45.42531" lon="4.52602">
        <ele>504.43</ele>
        <time>2017-03-26T12:01:17Z</time>
      </trkpt>
      <trkpt lat="45.42531" lon="4.52602">
        <ele>504.43</ele>
        <time>2017-03-26T12:01:18Z</time>
      </trkpt>
      <trkpt lat="45.42531" lon="4.52602">
        <ele>504.43</ele>
        <time>2017-03-26T12:01:19Z</time>
      </trkpt>
      <trkpt lat="45.42531" lon="4.52602">
        <ele>504.43</ele>
        <time>2017-03-26T12:01:20Z</time>
      </trkpt>
      <trkpt lat="45.42531" lon="4.52602">
        <ele>504.43</ele>
        <time>2017-03-26T12:01:21Z</time>
      </trkpt>
      <trkpt lat="45.42531" lon="4.52602">
        <ele>504.43</ele>
        <time>2017-03-26T12:01:22Z</time>
      </trkpt>
      <trkpt lat="45.42531" lon="4.52602">
        <ele>504.43</ele>
        <time>2017-03-26T12:01:23Z</time>
      </trkpt>
      <trkpt lat="45.42531" lon="4.52602">
        <ele>504.43</ele>
        <time>2017-03-26T12:01:24Z</time>
      </trkpt>
      <trkpt lat="45.42531" lon="4.52602">
        <ele>504.43</ele>
        <time>2017-03-26T12:01:25Z</time>
      </trkpt>
      <trkpt lat="45.42531" lon="4.52602">
        <ele>504.43</ele>
        <time>2017-03-26T12:01:26Z</time>
      </trkpt>
      <trkpt lat="45.42531" lon="4.52602">
        <ele>504.43</ele>
        <time>2017-03-26T12:01:27Z</time>
      </trkpt>
      <trkpt lat="45.42531" lon="4.52602">
        <ele>504.43</ele>
        <time>2017-03-26T12:01:28Z</time>
      </trkpt>
      <trkpt lat="45.42531" lon="4.52602">
        <ele>504.43</ele>
        <time>2017-03-26T12:01:29Z</time>
      </trkpt>
      <trkpt lat="45.42531" lon="4.52602">
        <ele>504.43</ele>
        <time>2017-03-26T12:01:30Z</time>
      </trkpt>
      <trkpt lat="45.42531" lon="4.52602">
        <ele>504.43</ele>
        <time>2017-03-26T12:01:31Z</time>
      </trkpt>
      <trkpt lat="45.42531" lon="4.52602">
        <ele>504.43</ele>
        <time>2017-03-26T12:01:32Z</time>
      </trkpt>
      <trkpt lat="45.42531" lon="4.52602">
        <ele>504.43</ele>
        <time>2017-03-26T12:01:33Z</time>
      </trkpt>
      <trkpt lat="45.42531" lon="4.52602">
        <ele>504.43</ele>
        <time>2017-03-26T12:01:34Z</time>
      </trkpt>
      <trkpt lat="45.42531" lon="4.52602">
        <ele>504.43</ele>
        <time>2017-03-26T12:01:35Z</time>
      </trkpt>
      <trkpt lat="45.42531" lon="4.52602">
        <ele>504.43</ele>
        <time>2017-03-26T12:01:36Z</time>
      </trkpt>
      <trkpt lat="45.42531" lon="4.52602">
        <ele>504.43</ele>
        <time>2017-03-26T12:01:37Z</time>
      </trkpt>
      <trkpt lat="45.42531" lon="4.52602">
        <ele>504.43</ele>
        <time>2017-03-26T12:01:38Z</time>
      </trkpt>
      <trkpt lat="45.42531" lon="4.52602">
        <ele>504.43</ele>
        <time>2017-03-26T12:01:39Z</time>
      </trkpt>
      <trkpt lat="45.42531" lon="4.52602">
        <ele>504.43</ele>
        <time>2017-03-26T12:01:40Z</time>
      </trkpt>
      <trkpt lat="45.42531" lon="4.52602">
        <ele>504.43</ele>
        <time>2017-03-26T12:01:41Z</time>
      </trkpt>
      <trkpt lat="45.42531" lon="4.52602">
        <ele>504.43</ele>
        <time>2017-03-26T12:01:42Z</time>
      </trkpt>
      <trkpt lat="45.42531" lon="4.52602">
        <ele>504.43</ele>
        <time>2017-03-26T12:01:43Z</time>
      </trkpt>
      <trkpt lat="45.42531" lon="4.52602">
        <ele>504.43</ele>
        <time>2017-03-26T12:01:44Z</time>
      </trkpt>
      <trkpt lat="45.42531" lon="4.52602">
        <ele>504.43</ele>
        <time>2017-03-26T12:01:45Z</time>
      </trkpt>
      <trkpt lat="45.42531" lon="4.52602">
        <ele>504.43</ele>
        <time>2017-03-26T12:01:46Z</time>
      </trkpt>
      <trkpt lat="45.42531" lon="4.52602">
        <ele>504.43</ele>
        <time>2017-03-26T12:01:47Z</time>
      </trkpt>
      <trkpt lat="45.42531" lon="4.52602">
        <ele>504.43</ele>
        <time>2017-03-26T12:01:48Z</time>
      </trkpt>
      <trkpt lat="45.42531" lon="4.52602">
        <ele>504.43</ele>
        <time>2017-03-26T12:01:49Z</time>
      </trkpt>
      <trkpt lat="45.42531" lon="4.52602">
        <ele>504.43</ele>
        <time>2017-03-26T12:01:50Z</time>
      </trkpt>
      <trkpt lat="45.42531" lon="4.52602">
        <ele>504.43</ele>
        <time>2017-03-26T12:01:51Z</time>
      </trkpt>
      <trkpt lat="45.42531" lon="4.52602">
        <ele>504.43</ele>
        <time>2017-03-26T12:01:52Z</time>
      </trkpt>
      <trkpt lat="45.42531" lon="4.52602">
        <ele>504.43</ele>
        <time>2017-03-26T12:01:53Z</time>
      </trkpt>
      <trkpt lat="45.42531" lon="4.52602">
        <ele>504.43</ele>
        <time>2017-03-26T12:01:54Z</time>
      </trkpt>
      <trkpt lat="45.42531" lon="4.52602">
        <ele>504.43</ele>
        <time>2017-03-26T12:01:55Z</time>
      </trkpt>
      <trkpt lat="45.42531" lon="4.52602">
        <ele>504.43</ele>
        <time>2017-03-26T12:01:56Z</time>
      </trkpt>
      <trkpt lat="45.42531" lon="4.52602">
        <ele>504.43</ele>
        <time>2017-03-26T12:01:57Z</time>
      </trkpt>
      <trkpt lat="45.42531" lon="4.52602">
        <ele>504.43</ele>
        <time>2017-03-26T12:01:58Z</time>
      </trkpt>
      <trkpt lat="45.42531" lon="4.52602">
        <ele>504.43</ele>
        <time>2017-03-26T12:01:59Z</time>
      </trkpt>
      <trkpt lat="45.42531" lon="4.52602">
        <ele>504.43</ele>
        <time>2017-03-26T12:02:00Z</time>
      </trkpt>
      <trkpt lat="45.42531" lon="4.52602">
        <ele>504.43</ele>
        <time>2017-03-26T12:02:01Z</time>
      </trkpt>
      <trkpt lat="45.42531" lon="4.52602">
        <ele>504.43</ele>
        <time>2017-03-26T12:02:02Z</time>
      </trkpt>
      <trkpt lat="45.42531" lon="4.52602">
        <ele>504.43</ele>
        <time>2017-03-26T12:02:03Z</time>
      </trkpt>
      <trkpt lat="45.42531" lon="4.52602">
        <ele>504.43</ele>
        <time>2017-03-26T12:02:04Z</time>
      </trkpt>
      <trkpt lat="45.42538" lon="4.52613">
        <ele>504.59</ele>
        <time>2017-03-26T12:02:05Z</time>
      </trkpt>
      <trkpt lat="45.42538" lon="4.52616">
        <ele>504.62</ele>
        <time>2017-03-26T12:02:06Z</time>
      </trkpt>
      <trkpt lat="45.42537" lon="4.5262">
        <ele>504.47</ele>
        <time>2017-03-26T12:02:07Z</time>
      </trkpt>
      <trkpt lat="45.42537" lon="4.52624">
        <ele>504.12</ele>
        <time>2017-03-26T12:02:08Z</time>
      </trkpt>
      <trkpt lat="45.42538" lon="4.52626">
        <ele>504.53</ele>
        <time>2017-03-26T12:02:09Z</time>
      </trkpt>
      <trkpt lat="45.42538" lon="4.52627">
        <ele>504.85</ele>
        <time>2017-03-26T12:02:10Z</time>
      </trkpt>
      <trkpt lat="45.42538" lon="4.52627">
        <ele>504.99</ele>
        <time>2017-03-26T12:02:11Z</time>
      </trkpt>
      <trkpt lat="45.42538" lon="4.52627">
        <ele>505.02</ele>
        <time>2017-03-26T12:02:12Z</time>
      </trkpt>
      <trkpt lat="45.42538" lon="4.52627">
        <ele>505.03</ele>
        <time>2017-03-26T12:02:13Z</time>
      </trkpt>
      <trkpt lat="45.42538" lon="4.52627">
        <ele>505.03</ele>
        <time>2017-03-26T12:02:14Z</time>
      </trkpt>
      <trkpt lat="45.42538" lon="4.52627">
        <ele>505.03</ele>
        <time>2017-03-26T12:02:15Z</time>
      </trkpt>
      <trkpt lat="45.42538" lon="4.52627">
        <ele>505.03</ele>
        <time>2017-03-26T12:02:16Z</time>
      </trkpt>
      <trkpt lat="45.42539" lon="4.52624">
        <ele>505.03</ele>
        <time>2017-03-26T12:02:17Z</time>
      </trkpt>
      <trkpt lat="45.42539" lon="4.52622">
        <ele>505.11</ele>
        <time>2017-03-26T12:02:18Z</time>
      </trkpt>
      <trkpt lat="45.42539" lon="4.52621">
        <ele>505.13</ele>
        <time>2017-03-26T12:02:19Z</time>
      </trkpt>
      <trkpt lat="45.4254" lon="4.5262">
        <ele>505.21</ele>
        <time>2017-03-26T12:02:20Z</time>
      </trkpt>
      <trkpt lat="45.4254" lon="4.52618">
        <ele>505.31</ele>
        <time>2017-03-26T12:02:21Z</time>
      </trkpt>
      <trkpt lat="45.42539" lon="4.52616">
        <ele>505.41</ele>
        <time>2017-03-26T12:02:22Z</time>
      </trkpt>
      <trkpt lat="45.42539" lon="4.52615">
        <ele>505.51</ele>
        <time>2017-03-26T12:02:23Z</time>
      </trkpt>
      <trkpt lat="45.42539" lon="4.52613">
        <ele>505.52</ele>
        <time>2017-03-26T12:02:24Z</time>
      </trkpt>
      <trkpt lat="45.42539" lon="4.52612">
        <ele>505.69</ele>
        <time>2017-03-26T12:02:25Z</time>
      </trkpt>
      <trkpt lat="45.42539" lon="4.52612">
        <ele>505.72</ele>
        <time>2017-03-26T12:02:26Z</time>
      </trkpt>
      <trkpt lat="45.42539" lon="4.52612">
        <ele>505.73</ele>
        <time>2017-03-26T12:02:27Z</time>
      </trkpt>
      <trkpt lat="45.42539" lon="4.52612">
        <ele>505.73</ele>
        <time>2017-03-26T12:02:28Z</time>
      </trkpt>
      <trkpt lat="45.42539" lon="4.52612">
        <ele>505.73</ele>
        <time>2017-03-26T12:02:29Z</time>
      </trkpt>
      <trkpt lat="45.42539" lon="4.52612">
        <ele>505.73</ele>
        <time>2017-03-26T12:02:30Z</time>
      </trkpt>
      <trkpt lat="45.42539" lon="4.52612">
        <ele>505.73</ele>
        <time>2017-03-26T12:02:31Z</time>
      </trkpt>
      <trkpt lat="45.42539" lon="4.52612">
        <ele>505.73</ele>
        <time>2017-03-26T12:02:32Z</time>
      </trkpt>
      <trkpt lat="45.42539" lon="4.52612">
        <ele>505.73</ele>
        <time>2017-03-26T12:02:33Z</time>
      </trkpt>
      <trkpt lat="45.42539" lon="4.52612">
        <ele>505.73</ele>
        <time>2017-03-26T12:02:34Z</time>
      </trkpt>
      <trkpt lat="45.42539" lon="4.52612">
        <ele>505.73</ele>
        <time>2017-03-26T12:02:35Z</time>
      </trkpt>
      <trkpt lat="45.42539" lon="4.52612">
        <ele>505.73</ele>
        <time>2017-03-26T12:02:36Z</time>
      </trkpt>
      <trkpt lat="45.42539" lon="4.52612">
        <ele>505.73</ele>
        <time>2017-03-26T12:02:37Z</time>
      </trkpt>
      <trkpt lat="45.42539" lon="4.52612">
        <ele>505.73</ele>
        <time>2017-03-26T12:02:38Z</time>
      </trkpt>
      <trkpt lat="45.42539" lon="4.52612">
        <ele>505.73</ele>
        <time>2017-03-26T12:02:39Z</time>
      </trkpt>
      <trkpt lat="45.42539" lon="4.52612">
        <ele>505.73</ele>
        <time>2017-03-26T12:02:40Z</time>
      </trkpt>
      <trkpt lat="45.42539" lon="4.52612">
        <ele>505.73</ele>
        <time>2017-03-26T12:02:41Z</time>
      </trkpt>
      <trkpt lat="45.42539" lon="4.52612">
        <ele>505.73</ele>
        <time>2017-03-26T12:02:42Z</time>
      </trkpt>
      <trkpt lat="45.42539" lon="4.52612">
        <ele>505.73</ele>
        <time>2017-03-26T12:02:43Z</time>
      </trkpt>
      <trkpt lat="45.42539" lon="4.52612">
        <ele>505.73</ele>
        <time>2017-03-26T12:02:44Z</time>
      </trkpt>
      <trkpt lat="45.42539" lon="4.52612">
        <ele>505.73</ele>
        <time>2017-03-26T12:02:45Z</time>
      </trkpt>
      <trkpt lat="45.42539" lon="4.52612">
        <ele>505.73</ele>
        <time>2017-03-26T12:02:46Z</time>
      </trkpt>
      <trkpt lat="45.42539" lon="4.52612">
        <ele>505.73</ele>
        <time>2017-03-26T12:02:47Z</time>
      </trkpt>
      <trkpt lat="45.42539" lon="4.52612">
        <ele>505.73</ele>
        <time>2017-03-26T12:02:48Z</time>
      </trkpt>
      <trkpt lat="45.42539" lon="4.52612">
        <ele>505.73</ele>
        <time>2017-03-26T12:02:49Z</time>
      </trkpt>
      <trkpt lat="45.42538" lon="4.52607">
        <ele>505.97</ele>
        <time>2017-03-26T12:02:50Z</time>
      </trkpt>
      <trkpt lat="45.42539" lon="4.52606">
        <ele>506.26</ele>
        <time>2017-03-26T12:02:51Z</time>
      </trkpt>
      <trkpt lat="45.4254" lon="4.52606">
        <ele>506.64</ele>
        <time>2017-03-26T12:02:52Z</time>
      </trkpt>
      <trkpt lat="45.42541" lon="4.52605">
        <ele>506.95</ele>
        <time>2017-03-26T12:02:53Z</time>
      </trkpt>
      <trkpt lat="45.42541" lon="4.52605">
        <ele>507.33</ele>
        <time>2017-03-26T12:02:54Z</time>
      </trkpt>
      <trkpt lat="45.42542" lon="4.52604">
        <ele>507.73</ele>
        <time>2017-03-26T12:02:55Z</time>
      </trkpt>
      <trkpt lat="45.42542" lon="4.52604">
        <ele>508.05</ele>
        <time>2017-03-26T12:02:56Z</time>
      </trkpt>
      <trkpt lat="45.42543" lon="4.52604">
        <ele>508.43</ele>
        <time>2017-03-26T12:02:57Z</time>
      </trkpt>
      <trkpt lat="45.42543" lon="4.52604">
        <ele>508.75</ele>
        <time>2017-03-26T12:02:58Z</time>
      </trkpt>
      <trkpt lat="45.42543" lon="4.52604">
        <ele>508.81</ele>
        <time>2017-03-26T12:02:59Z</time>
      </trkpt>
      <trkpt lat="45.42543" lon="4.52604">
        <ele>508.83</ele>
        <time>2017-03-26T12:03:00Z</time>
      </trkpt>
      <trkpt lat="45.42543" lon="4.52604">
        <ele>508.83</ele>
        <time>2017-03-26T12:03:01Z</time>
      </trkpt>
      <trkpt lat="45.42543" lon="4.52604">
        <ele>508.83</ele>
        <time>2017-03-26T12:03:02Z</time>
      </trkpt>
      <trkpt lat="45.42543" lon="4.52604">
        <ele>508.83</ele>
        <time>2017-03-26T12:03:03Z</time>
      </trkpt>
      <trkpt lat="45.42543" lon="4.52604">
        <ele>508.83</ele>
        <time>2017-03-26T12:03:04Z</time>
      </trkpt>
      <trkpt lat="45.42543" lon="4.52604">
        <ele>508.83</ele>
        <time>2017-03-26T12:03:05Z</time>
      </trkpt>
      <trkpt lat="45.42543" lon="4.52604">
        <ele>508.83</ele>
        <time>2017-03-26T12:03:06Z</time>
      </trkpt>
      <trkpt lat="45.42543" lon="4.52604">
        <ele>508.83</ele>
        <time>2017-03-26T12:03:07Z</time>
      </trkpt>
      <trkpt lat="45.42543" lon="4.52604">
        <ele>508.83</ele>
        <time>2017-03-26T12:03:08Z</time>
      </trkpt>
      <trkpt lat="45.42543" lon="4.52604">
        <ele>508.83</ele>
        <time>2017-03-26T12:03:09Z</time>
      </trkpt>
      <trkpt lat="45.42543" lon="4.52604">
        <ele>508.83</ele>
        <time>2017-03-26T12:03:10Z</time>
      </trkpt>
      <trkpt lat="45.42543" lon="4.52604">
        <ele>508.83</ele>
        <time>2017-03-26T12:03:11Z</time>
      </trkpt>
      <trkpt lat="45.42543" lon="4.52604">
        <ele>508.83</ele>
        <time>2017-03-26T12:03:12Z</time>
      </trkpt>
      <trkpt lat="45.42543" lon="4.52604">
        <ele>508.83</ele>
        <time>2017-03-26T12:03:13Z</time>
      </trkpt>
      <trkpt lat="45.42543" lon="4.52604">
        <ele>508.83</ele>
        <time>2017-03-26T12:03:14Z</time>
      </trkpt>
      <trkpt lat="45.42543" lon="4.52604">
        <ele>508.83</ele>
        <time>2017-03-26T12:03:15Z</time>
      </trkpt>
      <trkpt lat="45.42543" lon="4.52604">
        <ele>508.83</ele>
        <time>2017-03-26T12:03:16Z</time>
      </trkpt>
      <trkpt lat="45.42543" lon="4.52604">
        <ele>508.83</ele>
        <time>2017-03-26T12:03:17Z</time>
      </trkpt>
      <trkpt lat="45.42543" lon="4.52604">
        <ele>508.83</ele>
        <time>2017-03-26T12:03:18Z</time>
      </trkpt>
      <trkpt lat="45.42543" lon="4.52604">
        <ele>508.83</ele>
        <time>2017-03-26T12:03:19Z</time>
      </trkpt>
      <trkpt lat="45.42543" lon="4.52604">
        <ele>508.83</ele>
        <time>2017-03-26T12:03:20Z</time>
      </trkpt>
      <trkpt lat="45.42543" lon="4.52604">
        <ele>508.83</ele>
        <time>2017-03-26T12:03:21Z</time>
      </trkpt>
      <trkpt lat="45.42543" lon="4.52604">
        <ele>508.83</ele>
        <time>2017-03-26T12:03:22Z</time>
      </trkpt>
      <trkpt lat="45.42543" lon="4.52604">
        <ele>508.83</ele>
        <time>2017-03-26T12:03:23Z</time>
      </trkpt>
      <trkpt lat="45.42543" lon="4.52604">
        <ele>508.83</ele>
        <time>2017-03-26T12:03:24Z</time>
      </trkpt>
      <trkpt lat="45.42543" lon="4.52604">
        <ele>508.83</ele>
        <time>2017-03-26T12:03:25Z</time>
      </trkpt>
      <trkpt lat="45.42543" lon="4.52604">
        <ele>508.83</ele>
        <time>2017-03-26T12:03:26Z</time>
      </trkpt>
      <trkpt lat="45.42543" lon="4.52604">
        <ele>508.83</ele>
        <time>2017-03-26T12:03:27Z</time>
      </trkpt>
      <trkpt lat="45.42543" lon="4.52604">
        <ele>508.83</ele>
        <time>2017-03-26T12:03:28Z</time>
      </trkpt>
      <trkpt lat="45.42543" lon="4.52604">
        <ele>508.83</ele>
        <time>2017-03-26T12:03:29Z</time>
      </trkpt>
      <trkpt lat="45.42543" lon="4.52604">
        <ele>508.83</ele>
        <time>2017-03-26T12:03:30Z</time>
      </trkpt>
      <trkpt lat="45.42543" lon="4.52604">
        <ele>508.83</ele>
        <time>2017-03-26T12:03:31Z</time>
      </trkpt>
      <trkpt lat="45.42543" lon="4.52604">
        <ele>508.83</ele>
        <time>2017-03-26T12:03:32Z</time>
      </trkpt>
      <trkpt lat="45.42543" lon="4.52604">
        <ele>508.83</ele>
        <time>2017-03-26T12:03:33Z</time>
      </trkpt>
      <trkpt lat="45.42543" lon="4.52604">
        <ele>508.83</ele>
        <time>2017-03-26T12:03:34Z</time>
      </trkpt>
      <trkpt lat="45.42543" lon="4.52604">
        <ele>508.83</ele>
        <time>2017-03-26T12:03:35Z</time>
      </trkpt>
      <trkpt lat="45.42543" lon="4.52604">
        <ele>508.83</ele>
        <time>2017-03-26T12:03:36Z</time>
      </trkpt>
      <trkpt lat="45.42543" lon="4.52604">
        <ele>508.83</ele>
        <time>2017-03-26T12:03:37Z</time>
      </trkpt>
      <trkpt lat="45.42543" lon="4.52604">
        <ele>508.83</ele>
        <time>2017-03-26T12:03:38Z</time>
      </trkpt>
      <trkpt lat="45.42543" lon="4.52604">
        <ele>508.83</ele>
        <time>2017-03-26T12:03:39Z</time>
      </trkpt>
      <trkpt lat="45.42543" lon="4.52604">
        <ele>508.83</ele>
        <time>2017-03-26T12:03:40Z</time>
      </trkpt>
      <trkpt lat="45.42543" lon="4.52604">
        <ele>508.83</ele>
        <time>2017-03-26T12:03:41Z</time>
      </trkpt>
      <trkpt lat="45.42543" lon="4.52604">
        <ele>508.83</ele>
        <time>2017-03-26T12:03:42Z</time>
      </trkpt>
      <trkpt lat="45.42543" lon="4.52604">
        <ele>508.83</ele>
        <time>2017-03-26T12:03:43Z</time>
      </trkpt>
      <trkpt lat="45.42543" lon="4.52604">
        <ele>508.83</ele>
        <time>2017-03-26T12:03:44Z</time>
      </trkpt>
      <trkpt lat="45.42543" lon="4.52604">
        <ele>508.83</ele>
        <time>2017-03-26T12:03:45Z</time>
      </trkpt>
      <trkpt lat="45.42543" lon="4.52604">
        <ele>508.83</ele>
        <time>2017-03-26T12:03:46Z</time>
      </trkpt>
      <trkpt lat="45.42543" lon="4.52604">
        <ele>508.83</ele>
        <time>2017-03-26T12:03:47Z</time>
      </trkpt>
      <trkpt lat="45.42543" lon="4.52604">
        <ele>508.83</ele>
        <time>2017-03-26T12:03:48Z</time>
      </trkpt>
      <trkpt lat="45.42543" lon="4.52604">
        <ele>508.83</ele>
        <time>2017-03-26T12:03:49Z</time>
      </trkpt>
      <trkpt lat="45.42543" lon="4.52604">
        <ele>508.83</ele>
        <time>2017-03-26T12:03:50Z</time>
      </trkpt>
      <trkpt lat="45.42543" lon="4.52604">
        <ele>508.83</ele>
        <time>2017-03-26T12:03:51Z</time>
      </trkpt>
      <trkpt lat="45.42543" lon="4.52604">
        <ele>508.83</ele>
        <time>2017-03-26T12:03:52Z</time>
      </trkpt>
      <trkpt lat="45.42543" lon="4.52604">
        <ele>508.83</ele>
        <time>2017-03-26T12:03:53Z</time>
      </trkpt>
      <trkpt lat="45.42543" lon="4.52604">
        <ele>508.83</ele>
        <time>2017-03-26T12:03:54Z</time>
      </trkpt>
      <trkpt lat="45.42543" lon="4.52604">
        <ele>508.83</ele>
        <time>2017-03-26T12:03:55Z</time>
      </trkpt>
      <trkpt lat="45.42543" lon="4.52604">
        <ele>508.83</ele>
        <time>2017-03-26T12:03:56Z</time>
      </trkpt>
      <trkpt lat="45.42543" lon="4.52604">
        <ele>508.83</ele>
        <time>2017-03-26T12:03:57Z</time>
      </trkpt>
      <trkpt lat="45.42543" lon="4.52604">
        <ele>508.83</ele>
        <time>2017-03-26T12:03:58Z</time>
      </trkpt>
      <trkpt lat="45.42543" lon="4.52604">
        <ele>508.83</ele>
        <time>2017-03-26T12:03:59Z</time>
      </trkpt>
      <trkpt lat="45.42543" lon="4.52604">
        <ele>508.83</ele>
        <time>2017-03-26T12:04:00Z</time>
      </trkpt>
      <trkpt lat="45.42543" lon="4.52604">
        <ele>508.83</ele>
        <time>2017-03-26T12:04:01Z</time>
      </trkpt>
      <trkpt lat="45.42543" lon="4.52604">
        <ele>508.83</ele>
        <time>2017-03-26T12:04:02Z</time>
      </trkpt>
      <trkpt lat="45.42543" lon="4.52604">
        <ele>508.83</ele>
        <time>2017-03-26T12:04:03Z</time>
      </trkpt>
      <trkpt lat="45.42543" lon="4.52604">
        <ele>508.83</ele>
        <time>2017-03-26T12:04:04Z</time>
      </trkpt>
      <trkpt lat="45.42543" lon="4.52604">
        <ele>508.83</ele>
        <time>2017-03-26T12:04:05Z</time>
      </trkpt>
      <trkpt lat="45.42543" lon="4.52604">
        <ele>508.83</ele>
        <time>2017-03-26T12:04:06Z</time>
      </trkpt>
      <trkpt lat="45.42543" lon="4.52604">
        <ele>508.83</ele>
        <time>2017-03-26T12:04:07Z</time>
      </trkpt>
      <trkpt lat="45.42543" lon="4.52604">
        <ele>508.83</ele>
        <time>2017-03-26T12:04:08Z</time>
      </trkpt>
      <trkpt lat="45.42543" lon="4.52604">
        <ele>508.83</ele>
        <time>2017-03-26T12:04:09Z</time>
      </trkpt>
      <trkpt lat="45.42543" lon="4.52604">
        <ele>508.83</ele>
        <time>2017-03-26T12:04:10Z</time>
      </trkpt>
      <trkpt lat="45.42543" lon="4.52604">
        <ele>508.83</ele>
        <time>2017-03-26T12:04:11Z</time>
      </trkpt>
      <trkpt lat="45.42543" lon="4.52604">
        <ele>508.83</ele>
        <time>2017-03-26T12:04:12Z</time>
      </trkpt>
      <trkpt lat="45.42543" lon="4.52604">
        <ele>508.83</ele>
        <time>2017-03-26T12:04:13Z</time>
      </trkpt>
      <trkpt lat="45.42543" lon="4.52604">
        <ele>508.83</ele>
        <time>2017-03-26T12:04:14Z</time>
      </trkpt>
      <trkpt lat="45.42543" lon="4.52604">
        <ele>508.83</ele>
        <time>2017-03-26T12:04:15Z</time>
      </trkpt>
      <trkpt lat="45.42543" lon="4.52604">
        <ele>508.83</ele>
        <time>2017-03-26T12:04:16Z</time>
      </trkpt>
      <trkpt lat="45.42543" lon="4.52604">
        <ele>508.83</ele>
        <time>2017-03-26T12:04:17Z</time>
      </trkpt>
      <trkpt lat="45.42543" lon="4.52604">
        <ele>508.83</ele>
        <time>2017-03-26T12:04:18Z</time>
      </trkpt>
      <trkpt lat="45.42543" lon="4.52604">
        <ele>508.83</ele>
        <time>2017-03-26T12:04:19Z</time>
      </trkpt>
      <trkpt lat="45.42543" lon="4.52604">
        <ele>508.83</ele>
        <time>2017-03-26T12:04:20Z</time>
      </trkpt>
      <trkpt lat="45.42543" lon="4.52604">
        <ele>508.83</ele>
        <time>2017-03-26T12:04:21Z</time>
      </trkpt>
      <trkpt lat="45.42543" lon="4.52604">
        <ele>508.83</ele>
        <time>2017-03-26T12:04:22Z</time>
      </trkpt>
      <trkpt lat="45.42543" lon="4.52604">
        <ele>508.83</ele>
        <time>2017-03-26T12:04:23Z</time>
      </trkpt>
      <trkpt lat="45.42543" lon="4.52604">
        <ele>508.83</ele>
        <time>2017-03-26T12:04:24Z</time>
      </trkpt>
      <trkpt lat="45.42543" lon="4.52604">
        <ele>508.83</ele>
        <time>2017-03-26T12:04:25Z</time>
      </trkpt>
      <trkpt lat="45.42543" lon="4.52604">
        <ele>508.83</ele>
        <time>2017-03-26T12:04:26Z</time>
      </trkpt>
      <trkpt lat="45.42543" lon="4.52604">
        <ele>508.83</ele>
        <time>2017-03-26T12:04:27Z</time>
      </trkpt>
      <trkpt lat="45.42543" lon="4.52604">
        <ele>508.83</ele>
        <time>2017-03-26T12:04:28Z</time>
      </trkpt>
      <trkpt lat="45.42543" lon="4.52604">
        <ele>508.83</ele>
        <time>2017-03-26T12:04:29Z</time>
      </trkpt>
      <trkpt lat="45.42543" lon="4.52604">
        <ele>508.83</ele>
        <time>2017-03-26T12:04:30Z</time>
      </trkpt>
      <trkpt lat="45.42543" lon="4.52604">
        <ele>508.83</ele>
        <time>2017-03-26T12:04:31Z</time>
      </trkpt>
      <trkpt lat="45.42543" lon="4.52604">
        <ele>508.83</ele>
        <time>2017-03-26T12:04:32Z</time>
      </trkpt>
      <trkpt lat="45.42543" lon="4.52604">
        <ele>508.83</ele>
        <time>2017-03-26T12:04:33Z</time>
      </trkpt>
      <trkpt lat="45.42543" lon="4.52604">
        <ele>508.83</ele>
        <time>2017-03-26T12:04:34Z</time>
      </trkpt>
      <trkpt lat="45.42543" lon="4.52604">
        <ele>508.83</ele>
        <time>2017-03-26T12:04:35Z</time>
      </trkpt>
      <trkpt lat="45.42543" lon="4.52604">
        <ele>508.83</ele>
        <time>2017-03-26T12:04:36Z</time>
      </trkpt>
      <trkpt lat="45.42543" lon="4.52604">
        <ele>508.83</ele>
        <time>2017-03-26T12:04:37Z</time>
      </trkpt>
      <trkpt lat="45.42543" lon="4.52604">
        <ele>508.83</ele>
        <time>2017-03-26T12:04:38Z</time>
      </trkpt>
      <trkpt lat="45.42543" lon="4.52604">
        <ele>508.83</ele>
        <time>2017-03-26T12:04:39Z</time>
      </trkpt>
      <trkpt lat="45.42543" lon="4.52604">
        <ele>508.83</ele>
        <time>2017-03-26T12:04:40Z</time>
      </trkpt>
      <trkpt lat="45.42543" lon="4.52604">
        <ele>508.83</ele>
        <time>2017-03-26T12:04:41Z</time>
      </trkpt>
      <trkpt lat="45.42543" lon="4.52604">
        <ele>508.83</ele>
        <time>2017-03-26T12:04:42Z</time>
      </trkpt>
      <trkpt lat="45.42543" lon="4.52604">
        <ele>508.83</ele>
        <time>2017-03-26T12:04:43Z</time>
      </trkpt>
      <trkpt lat="45.42543" lon="4.52604">
        <ele>508.83</ele>
        <time>2017-03-26T12:04:44Z</time>
      </trkpt>
      <trkpt lat="45.42543" lon="4.52604">
        <ele>508.83</ele>
        <time>2017-03-26T12:04:45Z</time>
      </trkpt>
      <trkpt lat="45.42543" lon="4.52604">
        <ele>508.83</ele>
        <time>2017-03-26T12:04:46Z</time>
      </trkpt>
      <trkpt lat="45.42543" lon="4.52604">
        <ele>508.83</ele>
        <time>2017-03-26T12:04:47Z</time>
      </trkpt>
      <trkpt lat="45.42543" lon="4.52604">
        <ele>508.83</ele>
        <time>2017-03-26T12:04:48Z</time>
      </trkpt>
      <trkpt lat="45.42543" lon="4.52604">
        <ele>508.83</ele>
        <time>2017-03-26T12:04:49Z</time>
      </trkpt>
      <trkpt lat="45.42543" lon="4.52604">
        <ele>508.83</ele>
        <time>2017-03-26T12:04:50Z</time>
      </trkpt>
      <trkpt lat="45.42543" lon="4.52604">
        <ele>508.83</ele>
        <time>2017-03-26T12:04:51Z</time>
      </trkpt>
      <trkpt lat="45.42543" lon="4.52604">
        <ele>508.83</ele>
        <time>2017-03-26T12:04:52Z</time>
      </trkpt>
      <trkpt lat="45.42543" lon="4.52604">
        <ele>508.83</ele>
        <time>2017-03-26T12:04:53Z</time>
      </trkpt>
      <trkpt lat="45.42543" lon="4.52604">
        <ele>508.83</ele>
        <time>2017-03-26T12:04:54Z</time>
      </trkpt>
      <trkpt lat="45.42543" lon="4.52604">
        <ele>508.83</ele>
        <time>2017-03-26T12:04:55Z</time>
      </trkpt>
      <trkpt lat="45.42543" lon="4.52604">
        <ele>508.83</ele>
        <time>2017-03-26T12:04:56Z</time>
      </trkpt>
      <trkpt lat="45.42543" lon="4.52604">
        <ele>508.83</ele>
        <time>2017-03-26T12:04:57Z</time>
      </trkpt>
      <trkpt lat="45.42543" lon="4.52604">
        <ele>508.83</ele>
        <time>2017-03-26T12:04:58Z</time>
      </trkpt>
      <trkpt lat="45.42543" lon="4.52604">
        <ele>508.83</ele>
        <time>2017-03-26T12:04:59Z</time>
      </trkpt>
      <trkpt lat="45.42543" lon="4.52604">
        <ele>508.83</ele>
        <time>2017-03-26T12:05:00Z</time>
      </trkpt>
      <trkpt lat="45.42543" lon="4.52604">
        <ele>508.83</ele>
        <time>2017-03-26T12:05:01Z</time>
      </trkpt>
      <trkpt lat="45.42543" lon="4.52604">
        <ele>508.83</ele>
        <time>2017-03-26T12:05:02Z</time>
      </trkpt>
      <trkpt lat="45.42543" lon="4.52604">
        <ele>508.83</ele>
        <time>2017-03-26T12:05:03Z</time>
      </trkpt>
      <trkpt lat="45.42543" lon="4.52604">
        <ele>508.83</ele>
        <time>2017-03-26T12:05:04Z</time>
      </trkpt>
      <trkpt lat="45.42543" lon="4.52604">
        <ele>508.83</ele>
        <time>2017-03-26T12:05:05Z</time>
      </trkpt>
      <trkpt lat="45.42543" lon="4.52604">
        <ele>508.83</ele>
        <time>2017-03-26T12:05:06Z</time>
      </trkpt>
      <trkpt lat="45.42543" lon="4.52604">
        <ele>508.83</ele>
        <time>2017-03-26T12:05:07Z</time>
      </trkpt>
      <trkpt lat="45.42543" lon="4.52604">
        <ele>508.83</ele>
        <time>2017-03-26T12:05:08Z</time>
      </trkpt>
      <trkpt lat="45.42543" lon="4.52604">
        <ele>508.83</ele>
        <time>2017-03-26T12:05:09Z</time>
      </trkpt>
      <trkpt lat="45.42541" lon="4.52595">
        <ele>510.83</ele>
        <time>2017-03-26T12:05:10Z</time>
      </trkpt>
      <trkpt lat="45.42542" lon="4.52594">
        <ele>511.23</ele>
        <time>2017-03-26T12:05:11Z</time>
      </trkpt>
      <trkpt lat="45.42542" lon="4.52592">
        <ele>511.39</ele>
        <time>2017-03-26T12:05:12Z</time>
      </trkpt>
      <trkpt lat="45.42542" lon="4.52591">
        <ele>511.42</ele>
        <time>2017-03-26T12:05:13Z</time>
      </trkpt>
      <trkpt lat="45.42543" lon="4.52589">
        <ele>511.43</ele>
        <time>2017-03-26T12:05:14Z</time>
      </trkpt>
      <trkpt lat="45.42543" lon="4.52588">
        <ele>511.43</ele>
        <time>2017-03-26T12:05:15Z</time>
      </trkpt>
      <trkpt lat="45.42543" lon="4.52587">
        <ele>511.43</ele>
        <time>2017-03-26T12:05:16Z</time>
      </trkpt>
      <trkpt lat="45.42544" lon="4.52586">
        <ele>511.51</ele>
        <time>2017-03-26T12:05:17Z</time>
      </trkpt>
      <trkpt lat="45.42544" lon="4.52586">
        <ele>511.53</ele>
        <time>2017-03-26T12:05:18Z</time>
      </trkpt>
      <trkpt lat="45.42544" lon="4.52586">
        <ele>511.53</ele>
        <time>2017-03-26T12:05:19Z</time>
      </trkpt>
      <trkpt lat="45.42544" lon="4.52586">
        <ele>511.53</ele>
        <time>2017-03-26T12:05:20Z</time>
      </trkpt>
      <trkpt lat="45.42544" lon="4.52586">
        <ele>511.53</ele>
        <time>2017-03-26T12:05:21Z</time>
      </trkpt>
      <trkpt lat="45.42544" lon="4.52586">
        <ele>511.53</ele>
        <time>2017-03-26T12:05:22Z</time>
      </trkpt>
      <trkpt lat="45.42544" lon="4.52586">
        <ele>511.53</ele>
        <time>2017-03-26T12:05:23Z</time>
      </trkpt>
      <trkpt lat="45.42544" lon="4.52586">
        <ele>511.53</ele>
        <time>2017-03-26T12:05:24Z</time>
      </trkpt>
      <trkpt lat="45.42544" lon="4.52586">
        <ele>511.53</ele>
        <time>2017-03-26T12:05:25Z</time>
      </trkpt>
      <trkpt lat="45.42548" lon="4.52574">
        <ele>511.37</ele>
        <time>2017-03-26T12:05:26Z</time>
      </trkpt>
      <trkpt lat="45.42548" lon="4.52572">
        <ele>511.26</ele>
        <time>2017-03-26T12:05:27Z</time>
      </trkpt>
      <trkpt lat="45.42549" lon="4.5257">
        <ele>511.16</ele>
        <time>2017-03-26T12:05:28Z</time>
      </trkpt>
      <trkpt lat="45.42549" lon="4.52569">
        <ele>511.14</ele>
        <time>2017-03-26T12:05:29Z</time>
      </trkpt>
      <trkpt lat="45.42549" lon="4.52569">
        <ele>511.13</ele>
        <time>2017-03-26T12:05:30Z</time>
      </trkpt>
      <trkpt lat="45.42549" lon="4.52569">
        <ele>511.13</ele>
        <time>2017-03-26T12:05:31Z</time>
      </trkpt>
      <trkpt lat="45.42549" lon="4.52569">
        <ele>511.13</ele>
        <time>2017-03-26T12:05:32Z</time>
      </trkpt>
      <trkpt lat="45.42549" lon="4.52569">
        <ele>511.13</ele>
        <time>2017-03-26T12:05:33Z</time>
      </trkpt>
      <trkpt lat="45.42549" lon="4.52569">
        <ele>511.13</ele>
        <time>2017-03-26T12:05:34Z</time>
      </trkpt>
      <trkpt lat="45.42549" lon="4.52569">
        <ele>511.13</ele>
        <time>2017-03-26T12:05:35Z</time>
      </trkpt>
      <trkpt lat="45.42549" lon="4.52569">
        <ele>511.13</ele>
        <time>2017-03-26T12:05:36Z</time>
      </trkpt>
      <trkpt lat="45.42549" lon="4.52569">
        <ele>511.13</ele>
        <time>2017-03-26T12:05:37Z</time>
      </trkpt>
      <trkpt lat="45.42549" lon="4.52569">
        <ele>511.13</ele>
        <time>2017-03-26T12:05:38Z</time>
      </trkpt>
      <trkpt lat="45.4255" lon="4.52556">
        <ele>511.21</ele>
        <time>2017-03-26T12:05:39Z</time>
      </trkpt>
      <trkpt lat="45.4255" lon="4.52554">
        <ele>511.23</ele>
        <time>2017-03-26T12:05:40Z</time>
      </trkpt>
      <trkpt lat="45.4255" lon="4.52553">
        <ele>511.23</ele>
        <time>2017-03-26T12:05:41Z</time>
      </trkpt>
      <trkpt lat="45.42551" lon="4.52552">
        <ele>511.31</ele>
        <time>2017-03-26T12:05:42Z</time>
      </trkpt>
      <trkpt lat="45.42551" lon="4.52552">
        <ele>511.33</ele>
        <time>2017-03-26T12:05:43Z</time>
      </trkpt>
      <trkpt lat="45.42551" lon="4.52552">
        <ele>511.33</ele>
        <time>2017-03-26T12:05:44Z</time>
      </trkpt>
      <trkpt lat="45.42551" lon="4.52552">
        <ele>511.33</ele>
        <time>2017-03-26T12:05:45Z</time>
      </trkpt>
      <trkpt lat="45.42551" lon="4.52552">
        <ele>511.33</ele>
        <time>2017-03-26T12:05:46Z</time>
      </trkpt>
      <trkpt lat="45.42551" lon="4.52552">
        <ele>511.33</ele>
        <time>2017-03-26T12:05:47Z</time>
      </trkpt>
      <trkpt lat="45.42551" lon="4.52552">
        <ele>511.33</ele>
        <time>2017-03-26T12:05:48Z</time>
      </trkpt>
      <trkpt lat="45.42551" lon="4.52552">
        <ele>511.33</ele>
        <time>2017-03-26T12:05:49Z</time>
      </trkpt>
      <trkpt lat="45.42551" lon="4.52552">
        <ele>511.33</ele>
        <time>2017-03-26T12:05:50Z</time>
      </trkpt>
      <trkpt lat="45.42551" lon="4.52552">
        <ele>511.33</ele>
        <time>2017-03-26T12:05:51Z</time>
      </trkpt>
      <trkpt lat="45.42551" lon="4.52552">
        <ele>511.33</ele>
        <time>2017-03-26T12:05:52Z</time>
      </trkpt>
      <trkpt lat="45.42551" lon="4.52552">
        <ele>511.33</ele>
        <time>2017-03-26T12:05:53Z</time>
      </trkpt>
      <trkpt lat="45.42551" lon="4.52552">
        <ele>511.33</ele>
        <time>2017-03-26T12:05:54Z</time>
      </trkpt>
      <trkpt lat="45.42551" lon="4.52552">
        <ele>511.33</ele>
        <time>2017-03-26T12:05:55Z</time>
      </trkpt>
      <trkpt lat="45.42551" lon="4.52552">
        <ele>511.33</ele>
        <time>2017-03-26T12:05:56Z</time>
      </trkpt>
      <trkpt lat="45.42551" lon="4.52552">
        <ele>511.33</ele>
        <time>2017-03-26T12:05:57Z</time>
      </trkpt>
      <trkpt lat="45.42551" lon="4.52552">
        <ele>511.33</ele>
        <time>2017-03-26T12:05:58Z</time>
      </trkpt>
      <trkpt lat="45.42551" lon="4.52552">
        <ele>511.33</ele>
        <time>2017-03-26T12:05:59Z</time>
      </trkpt>
      <trkpt lat="45.42551" lon="4.52552">
        <ele>511.33</ele>
        <time>2017-03-26T12:06:00Z</time>
      </trkpt>
      <trkpt lat="45.42551" lon="4.52552">
        <ele>511.33</ele>
        <time>2017-03-26T12:06:01Z</time>
      </trkpt>
      <trkpt lat="45.42551" lon="4.52552">
        <ele>511.33</ele>
        <time>2017-03-26T12:06:02Z</time>
      </trkpt>
      <trkpt lat="45.42551" lon="4.52552">
        <ele>511.33</ele>
        <time>2017-03-26T12:06:03Z</time>
      </trkpt>
      <trkpt lat="45.42551" lon="4.52552">
        <ele>511.33</ele>
        <time>2017-03-26T12:06:04Z</time>
      </trkpt>
      <trkpt lat="45.42551" lon="4.52552">
        <ele>511.33</ele>
        <time>2017-03-26T12:06:05Z</time>
      </trkpt>
      <trkpt lat="45.42551" lon="4.52552">
        <ele>511.33</ele>
        <time>2017-03-26T12:06:06Z</time>
      </trkpt>
      <trkpt lat="45.42551" lon="4.52552">
        <ele>511.33</ele>
        <time>2017-03-26T12:06:07Z</time>
      </trkpt>
      <trkpt lat="45.42551" lon="4.52552">
        <ele>511.33</ele>
        <time>2017-03-26T12:06:08Z</time>
      </trkpt>
      <trkpt lat="45.42551" lon="4.52552">
        <ele>511.33</ele>
        <time>2017-03-26T12:06:09Z</time>
      </trkpt>
      <trkpt lat="45.42551" lon="4.52552">
        <ele>511.33</ele>
        <time>2017-03-26T12:06:10Z</time>
      </trkpt>
      <trkpt lat="45.42551" lon="4.52552">
        <ele>511.33</ele>
        <time>2017-03-26T12:06:11Z</time>
      </trkpt>
      <trkpt lat="45.42551" lon="4.52552">
        <ele>511.33</ele>
        <time>2017-03-26T12:06:12Z</time>
      </trkpt>
      <trkpt lat="45.42551" lon="4.52552">
        <ele>511.33</ele>
        <time>2017-03-26T12:06:13Z</time>
      </trkpt>
      <trkpt lat="45.42551" lon="4.52552">
        <ele>511.33</ele>
        <time>2017-03-26T12:06:14Z</time>
      </trkpt>
      <trkpt lat="45.42551" lon="4.52552">
        <ele>511.33</ele>
        <time>2017-03-26T12:06:15Z</time>
      </trkpt>
      <trkpt lat="45.42551" lon="4.52552">
        <ele>511.33</ele>
        <time>2017-03-26T12:06:16Z</time>
      </trkpt>
      <trkpt lat="45.42551" lon="4.52552">
        <ele>511.33</ele>
        <time>2017-03-26T12:06:17Z</time>
      </trkpt>
      <trkpt lat="45.42551" lon="4.52552">
        <ele>511.33</ele>
        <time>2017-03-26T12:06:18Z</time>
      </trkpt>
      <trkpt lat="45.42551" lon="4.52552">
        <ele>511.33</ele>
        <time>2017-03-26T12:06:19Z</time>
      </trkpt>
      <trkpt lat="45.42551" lon="4.52552">
        <ele>511.33</ele>
        <time>2017-03-26T12:06:20Z</time>
      </trkpt>
      <trkpt lat="45.42551" lon="4.52552">
        <ele>511.33</ele>
        <time>2017-03-26T12:06:21Z</time>
      </trkpt>
      <trkpt lat="45.42551" lon="4.52552">
        <ele>511.33</ele>
        <time>2017-03-26T12:06:22Z</time>
      </trkpt>
      <trkpt lat="45.42551" lon="4.52552">
        <ele>511.33</ele>
        <time>2017-03-26T12:06:23Z</time>
      </trkpt>
      <trkpt lat="45.42547" lon="4.52541">
        <ele>511.41</ele>
        <time>2017-03-26T12:06:24Z</time>
      </trkpt>
      <trkpt lat="45.42547" lon="4.52541">
        <ele>511.43</ele>
        <time>2017-03-26T12:06:25Z</time>
      </trkpt>
      <trkpt lat="45.42547" lon="4.5254">
        <ele>511.43</ele>
        <time>2017-03-26T12:06:26Z</time>
      </trkpt>
      <trkpt lat="45.42547" lon="4.5254">
        <ele>511.27</ele>
        <time>2017-03-26T12:06:27Z</time>
      </trkpt>
      <trkpt lat="45.42547" lon="4.5254">
        <ele>511.24</ele>
        <time>2017-03-26T12:06:28Z</time>
      </trkpt>
      <trkpt lat="45.42547" lon="4.5254">
        <ele>511.23</ele>
        <time>2017-03-26T12:06:29Z</time>
      </trkpt>
      <trkpt lat="45.42547" lon="4.5254">
        <ele>511.23</ele>
        <time>2017-03-26T12:06:30Z</time>
      </trkpt>
      <trkpt lat="45.42547" lon="4.5254">
        <ele>511.23</ele>
        <time>2017-03-26T12:06:31Z</time>
      </trkpt>
      <trkpt lat="45.42547" lon="4.5254">
        <ele>511.23</ele>
        <time>2017-03-26T12:06:32Z</time>
      </trkpt>
      <trkpt lat="45.42547" lon="4.5254">
        <ele>511.23</ele>
        <time>2017-03-26T12:06:33Z</time>
      </trkpt>
      <trkpt lat="45.42547" lon="4.5254">
        <ele>511.23</ele>
        <time>2017-03-26T12:06:34Z</time>
      </trkpt>
      <trkpt lat="45.42547" lon="4.5254">
        <ele>511.23</ele>
        <time>2017-03-26T12:06:35Z</time>
      </trkpt>
      <trkpt lat="45.42547" lon="4.5254">
        <ele>511.23</ele>
        <time>2017-03-26T12:06:36Z</time>
      </trkpt>
      <trkpt lat="45.42547" lon="4.5254">
        <ele>511.23</ele>
        <time>2017-03-26T12:06:37Z</time>
      </trkpt>
      <trkpt lat="45.42547" lon="4.5254">
        <ele>511.23</ele>
        <time>2017-03-26T12:06:38Z</time>
      </trkpt>
      <trkpt lat="45.42547" lon="4.5254">
        <ele>511.23</ele>
        <time>2017-03-26T12:06:39Z</time>
      </trkpt>
      <trkpt lat="45.42547" lon="4.5254">
        <ele>511.23</ele>
        <time>2017-03-26T12:06:40Z</time>
      </trkpt>
      <trkpt lat="45.42547" lon="4.5254">
        <ele>511.23</ele>
        <time>2017-03-26T12:06:41Z</time>
      </trkpt>
      <trkpt lat="45.42547" lon="4.5254">
        <ele>511.23</ele>
        <time>2017-03-26T12:06:42Z</time>
      </trkpt>
      <trkpt lat="45.42547" lon="4.5254">
        <ele>511.23</ele>
        <time>2017-03-26T12:06:43Z</time>
      </trkpt>
      <trkpt lat="45.42547" lon="4.5254">
        <ele>511.23</ele>
        <time>2017-03-26T12:06:44Z</time>
      </trkpt>
      <trkpt lat="45.42547" lon="4.5254">
        <ele>511.23</ele>
        <time>2017-03-26T12:06:45Z</time>
      </trkpt>
      <trkpt lat="45.42547" lon="4.5254">
        <ele>511.23</ele>
        <time>2017-03-26T12:06:46Z</time>
      </trkpt>
      <trkpt lat="45.42547" lon="4.5254">
        <ele>511.23</ele>
        <time>2017-03-26T12:06:47Z</time>
      </trkpt>
      <trkpt lat="45.42547" lon="4.5254">
        <ele>511.23</ele>
        <time>2017-03-26T12:06:48Z</time>
      </trkpt>
      <trkpt lat="45.42547" lon="4.5254">
        <ele>511.23</ele>
        <time>2017-03-26T12:06:49Z</time>
      </trkpt>
      <trkpt lat="45.42547" lon="4.5254">
        <ele>511.23</ele>
        <time>2017-03-26T12:06:50Z</time>
      </trkpt>
      <trkpt lat="45.42547" lon="4.5254">
        <ele>511.23</ele>
        <time>2017-03-26T12:06:51Z</time>
      </trkpt>
      <trkpt lat="45.42547" lon="4.5254">
        <ele>511.23</ele>
        <time>2017-03-26T12:06:52Z</time>
      </trkpt>
      <trkpt lat="45.42547" lon="4.5254">
        <ele>511.23</ele>
        <time>2017-03-26T12:06:53Z</time>
      </trkpt>
      <trkpt lat="45.42547" lon="4.5254">
        <ele>511.23</ele>
        <time>2017-03-26T12:06:54Z</time>
      </trkpt>
      <trkpt lat="45.42547" lon="4.5254">
        <ele>511.23</ele>
        <time>2017-03-26T12:06:55Z</time>
      </trkpt>
      <trkpt lat="45.42547" lon="4.5254">
        <ele>511.23</ele>
        <time>2017-03-26T12:06:56Z</time>
      </trkpt>
      <trkpt lat="45.42547" lon="4.5254">
        <ele>511.23</ele>
        <time>2017-03-26T12:06:57Z</time>
      </trkpt>
      <trkpt lat="45.42547" lon="4.5254">
        <ele>511.23</ele>
        <time>2017-03-26T12:06:58Z</time>
      </trkpt>
      <trkpt lat="45.42547" lon="4.5254">
        <ele>511.23</ele>
        <time>2017-03-26T12:06:59Z</time>
      </trkpt>
      <trkpt lat="45.42547" lon="4.5254">
        <ele>511.23</ele>
        <time>2017-03-26T12:07:00Z</time>
      </trkpt>
      <trkpt lat="45.42547" lon="4.5254">
        <ele>511.23</ele>
        <time>2017-03-26T12:07:01Z</time>
      </trkpt>
      <trkpt lat="45.42547" lon="4.5254">
        <ele>511.23</ele>
        <time>2017-03-26T12:07:02Z</time>
      </trkpt>
      <trkpt lat="45.42547" lon="4.5254">
        <ele>511.23</ele>
        <time>2017-03-26T12:07:03Z</time>
      </trkpt>
      <trkpt lat="45.42547" lon="4.5254">
        <ele>511.23</ele>
        <time>2017-03-26T12:07:04Z</time>
      </trkpt>
      <trkpt lat="45.42547" lon="4.5254">
        <ele>511.23</ele>
        <time>2017-03-26T12:07:05Z</time>
      </trkpt>
      <trkpt lat="45.42547" lon="4.5254">
        <ele>511.23</ele>
        <time>2017-03-26T12:07:06Z</time>
      </trkpt>
      <trkpt lat="45.42547" lon="4.5254">
        <ele>511.23</ele>
        <time>2017-03-26T12:07:07Z</time>
      </trkpt>
      <trkpt lat="45.42547" lon="4.5254">
        <ele>511.23</ele>
        <time>2017-03-26T12:07:08Z</time>
      </trkpt>
      <trkpt lat="45.42547" lon="4.5254">
        <ele>511.23</ele>
        <time>2017-03-26T12:07:09Z</time>
      </trkpt>
      <trkpt lat="45.42547" lon="4.5254">
        <ele>511.23</ele>
        <time>2017-03-26T12:07:10Z</time>
      </trkpt>
      <trkpt lat="45.42547" lon="4.5254">
        <ele>511.23</ele>
        <time>2017-03-26T12:07:11Z</time>
      </trkpt>
      <trkpt lat="45.42547" lon="4.5254">
        <ele>511.23</ele>
        <time>2017-03-26T12:07:12Z</time>
      </trkpt>
      <trkpt lat="45.42547" lon="4.5254">
        <ele>511.23</ele>
        <time>2017-03-26T12:07:13Z</time>
      </trkpt>
      <trkpt lat="45.42547" lon="4.5254">
        <ele>511.23</ele>
        <time>2017-03-26T12:07:14Z</time>
      </trkpt>
      <trkpt lat="45.42547" lon="4.5254">
        <ele>511.23</ele>
        <time>2017-03-26T12:07:15Z</time>
      </trkpt>
      <trkpt lat="45.42547" lon="4.5254">
        <ele>511.23</ele>
        <time>2017-03-26T12:07:16Z</time>
      </trkpt>
      <trkpt lat="45.42547" lon="4.5254">
        <ele>511.23</ele>
        <time>2017-03-26T12:07:17Z</time>
      </trkpt>
      <trkpt lat="45.42547" lon="4.5254">
        <ele>511.23</ele>
        <time>2017-03-26T12:07:18Z</time>
      </trkpt>
      <trkpt lat="45.42547" lon="4.5254">
        <ele>511.23</ele>
        <time>2017-03-26T12:07:19Z</time>
      </trkpt>
      <trkpt lat="45.42547" lon="4.5254">
        <ele>511.23</ele>
        <time>2017-03-26T12:07:20Z</time>
      </trkpt>
      <trkpt lat="45.42547" lon="4.5254">
        <ele>511.23</ele>
        <time>2017-03-26T12:07:21Z</time>
      </trkpt>
      <trkpt lat="45.42547" lon="4.5254">
        <ele>511.23</ele>
        <time>2017-03-26T12:07:22Z</time>
      </trkpt>
      <trkpt lat="45.42547" lon="4.5254">
        <ele>511.23</ele>
        <time>2017-03-26T12:07:23Z</time>
      </trkpt>
      <trkpt lat="45.42547" lon="4.5254">
        <ele>511.23</ele>
        <time>2017-03-26T12:07:24Z</time>
      </trkpt>
      <trkpt lat="45.42547" lon="4.5254">
        <ele>511.23</ele>
        <time>2017-03-26T12:07:25Z</time>
      </trkpt>
      <trkpt lat="45.42547" lon="4.5254">
        <ele>511.23</ele>
        <time>2017-03-26T12:07:26Z</time>
      </trkpt>
      <trkpt lat="45.42547" lon="4.5254">
        <ele>511.23</ele>
        <time>2017-03-26T12:07:27Z</time>
      </trkpt>
      <trkpt lat="45.42547" lon="4.5254">
        <ele>511.23</ele>
        <time>2017-03-26T12:07:28Z</time>
      </trkpt>
      <trkpt lat="45.42547" lon="4.5254">
        <ele>511.23</ele>
        <time>2017-03-26T12:07:29Z</time>
      </trkpt>
      <trkpt lat="45.42547" lon="4.5254">
        <ele>511.23</ele>
        <time>2017-03-26T12:07:30Z</time>
      </trkpt>
      <trkpt lat="45.42547" lon="4.5254">
        <ele>511.23</ele>
        <time>2017-03-26T12:07:31Z</time>
      </trkpt>
      <trkpt lat="45.42547" lon="4.5254">
        <ele>511.23</ele>
        <time>2017-03-26T12:07:32Z</time>
      </trkpt>
      <trkpt lat="45.42547" lon="4.5254">
        <ele>511.23</ele>
        <time>2017-03-26T12:07:33Z</time>
      </trkpt>
      <trkpt lat="45.42547" lon="4.5254">
        <ele>511.23</ele>
        <time>2017-03-26T12:07:34Z</time>
      </trkpt>
      <trkpt lat="45.42547" lon="4.5254">
        <ele>511.23</ele>
        <time>2017-03-26T12:07:35Z</time>
      </trkpt>
      <trkpt lat="45.42547" lon="4.5254">
        <ele>511.23</ele>
        <time>2017-03-26T12:07:36Z</time>
      </trkpt>
      <trkpt lat="45.42547" lon="4.5254">
        <ele>511.23</ele>
        <time>2017-03-26T12:07:37Z</time>
      </trkpt>
      <trkpt lat="45.42547" lon="4.5254">
        <ele>511.23</ele>
        <time>2017-03-26T12:07:38Z</time>
      </trkpt>
      <trkpt lat="45.42547" lon="4.5254">
        <ele>511.23</ele>
        <time>2017-03-26T12:07:39Z</time>
      </trkpt>
      <trkpt lat="45.42547" lon="4.5254">
        <ele>511.23</ele>
        <time>2017-03-26T12:07:40Z</time>
      </trkpt>
      <trkpt lat="45.42547" lon="4.5254">
        <ele>511.23</ele>
        <time>2017-03-26T12:07:41Z</time>
      </trkpt>
      <trkpt lat="45.42547" lon="4.5254">
        <ele>511.23</ele>
        <time>2017-03-26T12:07:42Z</time>
      </trkpt>
      <trkpt lat="45.42547" lon="4.5254">
        <ele>511.23</ele>
        <time>2017-03-26T12:07:43Z</time>
      </trkpt>
      <trkpt lat="45.42547" lon="4.5254">
        <ele>511.23</ele>
        <time>2017-03-26T12:07:44Z</time>
      </trkpt>
      <trkpt lat="45.42547" lon="4.5254">
        <ele>511.23</ele>
        <time>2017-03-26T12:07:45Z</time>
      </trkpt>
      <trkpt lat="45.42547" lon="4.5254">
        <ele>511.23</ele>
        <time>2017-03-26T12:07:46Z</time>
      </trkpt>
      <trkpt lat="45.42547" lon="4.5254">
        <ele>511.23</ele>
        <time>2017-03-26T12:07:47Z</time>
      </trkpt>
      <trkpt lat="45.42547" lon="4.5254">
        <ele>511.23</ele>
        <time>2017-03-26T12:07:48Z</time>
      </trkpt>
      <trkpt lat="45.42547" lon="4.5254">
        <ele>511.23</ele>
        <time>2017-03-26T12:07:49Z</time>
      </trkpt>
      <trkpt lat="45.42547" lon="4.5254">
        <ele>511.23</ele>
        <time>2017-03-26T12:07:50Z</time>
      </trkpt>
      <trkpt lat="45.42547" lon="4.5254">
        <ele>511.23</ele>
        <time>2017-03-26T12:07:51Z</time>
      </trkpt>
      <trkpt lat="45.42547" lon="4.5254">
        <ele>511.23</ele>
        <time>2017-03-26T12:07:52Z</time>
      </trkpt>
      <trkpt lat="45.42547" lon="4.5254">
        <ele>511.23</ele>
        <time>2017-03-26T12:07:53Z</time>
      </trkpt>
      <trkpt lat="45.42547" lon="4.5254">
        <ele>511.23</ele>
        <time>2017-03-26T12:07:54Z</time>
      </trkpt>
      <trkpt lat="45.42547" lon="4.5254">
        <ele>511.23</ele>
        <time>2017-03-26T12:07:55Z</time>
      </trkpt>
      <trkpt lat="45.42547" lon="4.5254">
        <ele>511.23</ele>
        <time>2017-03-26T12:07:56Z</time>
      </trkpt>
      <trkpt lat="45.42547" lon="4.5254">
        <ele>511.23</ele>
        <time>2017-03-26T12:07:57Z</time>
      </trkpt>
      <trkpt lat="45.42547" lon="4.5254">
        <ele>511.23</ele>
        <time>2017-03-26T12:07:58Z</time>
      </trkpt>
      <trkpt lat="45.42547" lon="4.5254">
        <ele>511.23</ele>
        <time>2017-03-26T12:07:59Z</time>
      </trkpt>
      <trkpt lat="45.42547" lon="4.5254">
        <ele>511.23</ele>
        <time>2017-03-26T12:08:00Z</time>
      </trkpt>
      <trkpt lat="45.42547" lon="4.5254">
        <ele>511.23</ele>
        <time>2017-03-26T12:08:01Z</time>
      </trkpt>
      <trkpt lat="45.42547" lon="4.5254">
        <ele>511.23</ele>
        <time>2017-03-26T12:08:02Z</time>
      </trkpt>
      <trkpt lat="45.42547" lon="4.5254">
        <ele>511.23</ele>
        <time>2017-03-26T12:08:03Z</time>
      </trkpt>
      <trkpt lat="45.42547" lon="4.5254">
        <ele>511.23</ele>
        <time>2017-03-26T12:08:04Z</time>
      </trkpt>
      <trkpt lat="45.42547" lon="4.5254">
        <ele>511.23</ele>
        <time>2017-03-26T12:08:05Z</time>
      </trkpt>
      <trkpt lat="45.42547" lon="4.5254">
        <ele>511.23</ele>
        <time>2017-03-26T12:08:06Z</time>
      </trkpt>
      <trkpt lat="45.42547" lon="4.5254">
        <ele>511.23</ele>
        <time>2017-03-26T12:08:07Z</time>
      </trkpt>
      <trkpt lat="45.42547" lon="4.5254">
        <ele>511.23</ele>
        <time>2017-03-26T12:08:08Z</time>
      </trkpt>
      <trkpt lat="45.42547" lon="4.5254">
        <ele>511.23</ele>
        <time>2017-03-26T12:08:09Z</time>
      </trkpt>
      <trkpt lat="45.42547" lon="4.5254">
        <ele>511.23</ele>
        <time>2017-03-26T12:08:10Z</time>
      </trkpt>
      <trkpt lat="45.42547" lon="4.5254">
        <ele>511.23</ele>
        <time>2017-03-26T12:08:11Z</time>
      </trkpt>
      <trkpt lat="45.42547" lon="4.5254">
        <ele>511.23</ele>
        <time>2017-03-26T12:08:12Z</time>
      </trkpt>
      <trkpt lat="45.42547" lon="4.5254">
        <ele>511.23</ele>
        <time>2017-03-26T12:08:13Z</time>
      </trkpt>
      <trkpt lat="45.42547" lon="4.5254">
        <ele>511.23</ele>
        <time>2017-03-26T12:08:14Z</time>
      </trkpt>
      <trkpt lat="45.42547" lon="4.5254">
        <ele>511.23</ele>
        <time>2017-03-26T12:08:15Z</time>
      </trkpt>
      <trkpt lat="45.42547" lon="4.5254">
        <ele>511.23</ele>
        <time>2017-03-26T12:08:16Z</time>
      </trkpt>
      <trkpt lat="45.42547" lon="4.5254">
        <ele>511.23</ele>
        <time>2017-03-26T12:08:17Z</time>
      </trkpt>
      <trkpt lat="45.42547" lon="4.5254">
        <ele>511.23</ele>
        <time>2017-03-26T12:08:18Z</time>
      </trkpt>
      <trkpt lat="45.42547" lon="4.5254">
        <ele>511.23</ele>
        <time>2017-03-26T12:08:19Z</time>
      </trkpt>
      <trkpt lat="45.42547" lon="4.5254">
        <ele>511.23</ele>
        <time>2017-03-26T12:08:20Z</time>
      </trkpt>
      <trkpt lat="45.42547" lon="4.5254">
        <ele>511.23</ele>
        <time>2017-03-26T12:08:21Z</time>
      </trkpt>
      <trkpt lat="45.42547" lon="4.5254">
        <ele>511.23</ele>
        <time>2017-03-26T12:08:22Z</time>
      </trkpt>
      <trkpt lat="45.42547" lon="4.5254">
        <ele>511.23</ele>
        <time>2017-03-26T12:08:23Z</time>
      </trkpt>
      <trkpt lat="45.42547" lon="4.5254">
        <ele>511.23</ele>
        <time>2017-03-26T12:08:24Z</time>
      </trkpt>
      <trkpt lat="45.42547" lon="4.5254">
        <ele>511.23</ele>
        <time>2017-03-26T12:08:25Z</time>
      </trkpt>
      <trkpt lat="45.42547" lon="4.5254">
        <ele>511.23</ele>
        <time>2017-03-26T12:08:26Z</time>
      </trkpt>
      <trkpt lat="45.42547" lon="4.5254">
        <ele>511.23</ele>
        <time>2017-03-26T12:08:27Z</time>
      </trkpt>
      <trkpt lat="45.42547" lon="4.5254">
        <ele>511.23</ele>
        <time>2017-03-26T12:08:28Z</time>
      </trkpt>
      <trkpt lat="45.42547" lon="4.5254">
        <ele>511.23</ele>
        <time>2017-03-26T12:08:29Z</time>
      </trkpt>
      <trkpt lat="45.42547" lon="4.5254">
        <ele>511.23</ele>
        <time>2017-03-26T12:08:30Z</time>
      </trkpt>
      <trkpt lat="45.42547" lon="4.5254">
        <ele>511.23</ele>
        <time>2017-03-26T12:08:31Z</time>
      </trkpt>
      <trkpt lat="45.42547" lon="4.5254">
        <ele>511.23</ele>
        <time>2017-03-26T12:08:32Z</time>
      </trkpt>
      <trkpt lat="45.42547" lon="4.5254">
        <ele>511.23</ele>
        <time>2017-03-26T12:08:33Z</time>
      </trkpt>
      <trkpt lat="45.42547" lon="4.5254">
        <ele>511.23</ele>
        <time>2017-03-26T12:08:34Z</time>
      </trkpt>
      <trkpt lat="45.42547" lon="4.5254">
        <ele>511.23</ele>
        <time>2017-03-26T12:08:35Z</time>
      </trkpt>
      <trkpt lat="45.42547" lon="4.5254">
        <ele>511.23</ele>
        <time>2017-03-26T12:08:36Z</time>
      </trkpt>
      <trkpt lat="45.42547" lon="4.5254">
        <ele>511.23</ele>
        <time>2017-03-26T12:08:37Z</time>
      </trkpt>
      <trkpt lat="45.42547" lon="4.5254">
        <ele>511.23</ele>
        <time>2017-03-26T12:08:38Z</time>
      </trkpt>
      <trkpt lat="45.42547" lon="4.5254">
        <ele>511.23</ele>
        <time>2017-03-26T12:08:39Z</time>
      </trkpt>
      <trkpt lat="45.42547" lon="4.5254">
        <ele>511.23</ele>
        <time>2017-03-26T12:08:40Z</time>
      </trkpt>
      <trkpt lat="45.42547" lon="4.5254">
        <ele>511.23</ele>
        <time>2017-03-26T12:08:41Z</time>
      </trkpt>
      <trkpt lat="45.42547" lon="4.5254">
        <ele>511.23</ele>
        <time>2017-03-26T12:08:42Z</time>
      </trkpt>
      <trkpt lat="45.42547" lon="4.5254">
        <ele>511.23</ele>
        <time>2017-03-26T12:08:43Z</time>
      </trkpt>
      <trkpt lat="45.42547" lon="4.5254">
        <ele>511.23</ele>
        <time>2017-03-26T12:08:44Z</time>
      </trkpt>
      <trkpt lat="45.42547" lon="4.5254">
        <ele>511.23</ele>
        <time>2017-03-26T12:08:45Z</time>
      </trkpt>
      <trkpt lat="45.42547" lon="4.5254">
        <ele>511.23</ele>
        <time>2017-03-26T12:08:46Z</time>
      </trkpt>
      <trkpt lat="45.42547" lon="4.5254">
        <ele>511.23</ele>
        <time>2017-03-26T12:08:47Z</time>
      </trkpt>
      <trkpt lat="45.42547" lon="4.5254">
        <ele>511.23</ele>
        <time>2017-03-26T12:08:48Z</time>
      </trkpt>
      <trkpt lat="45.42547" lon="4.5254">
        <ele>511.23</ele>
        <time>2017-03-26T12:08:49Z</time>
      </trkpt>
      <trkpt lat="45.42547" lon="4.5254">
        <ele>511.23</ele>
        <time>2017-03-26T12:08:50Z</time>
      </trkpt>
      <trkpt lat="45.42547" lon="4.5254">
        <ele>511.23</ele>
        <time>2017-03-26T12:08:51Z</time>
      </trkpt>
      <trkpt lat="45.42547" lon="4.5254">
        <ele>511.23</ele>
        <time>2017-03-26T12:08:52Z</time>
      </trkpt>
      <trkpt lat="45.42547" lon="4.5254">
        <ele>511.23</ele>
        <time>2017-03-26T12:08:53Z</time>
      </trkpt>
      <trkpt lat="45.42547" lon="4.5254">
        <ele>511.23</ele>
        <time>2017-03-26T12:08:54Z</time>
      </trkpt>
      <trkpt lat="45.42547" lon="4.5254">
        <ele>511.23</ele>
        <time>2017-03-26T12:08:55Z</time>
      </trkpt>
      <trkpt lat="45.42547" lon="4.5254">
        <ele>511.23</ele>
        <time>2017-03-26T12:08:56Z</time>
      </trkpt>
      <trkpt lat="45.42547" lon="4.5254">
        <ele>511.23</ele>
        <time>2017-03-26T12:08:57Z</time>
      </trkpt>
      <trkpt lat="45.42547" lon="4.5254">
        <ele>511.23</ele>
        <time>2017-03-26T12:08:58Z</time>
      </trkpt>
      <trkpt lat="45.42547" lon="4.5254">
        <ele>511.23</ele>
        <time>2017-03-26T12:08:59Z</time>
      </trkpt>
      <trkpt lat="45.42547" lon="4.5254">
        <ele>511.23</ele>
        <time>2017-03-26T12:09:00Z</time>
      </trkpt>
      <trkpt lat="45.42547" lon="4.5254">
        <ele>511.23</ele>
        <time>2017-03-26T12:09:01Z</time>
      </trkpt>
      <trkpt lat="45.42547" lon="4.5254">
        <ele>511.23</ele>
        <time>2017-03-26T12:09:02Z</time>
      </trkpt>
      <trkpt lat="45.42547" lon="4.5254">
        <ele>511.23</ele>
        <time>2017-03-26T12:09:03Z</time>
      </trkpt>
      <trkpt lat="45.42547" lon="4.5254">
        <ele>511.23</ele>
        <time>2017-03-26T12:09:04Z</time>
      </trkpt>
      <trkpt lat="45.42547" lon="4.5254">
        <ele>511.23</ele>
        <time>2017-03-26T12:09:05Z</time>
      </trkpt>
      <trkpt lat="45.42547" lon="4.5254">
        <ele>511.23</ele>
        <time>2017-03-26T12:09:06Z</time>
      </trkpt>
      <trkpt lat="45.42547" lon="4.5254">
        <ele>511.23</ele>
        <time>2017-03-26T12:09:07Z</time>
      </trkpt>
      <trkpt lat="45.42547" lon="4.5254">
        <ele>511.23</ele>
        <time>2017-03-26T12:09:08Z</time>
      </trkpt>
      <trkpt lat="45.42547" lon="4.5254">
        <ele>511.23</ele>
        <time>2017-03-26T12:09:09Z</time>
      </trkpt>
      <trkpt lat="45.42547" lon="4.5254">
        <ele>511.23</ele>
        <time>2017-03-26T12:09:10Z</time>
      </trkpt>
      <trkpt lat="45.42547" lon="4.5254">
        <ele>511.23</ele>
        <time>2017-03-26T12:09:11Z</time>
      </trkpt>
      <trkpt lat="45.42547" lon="4.5254">
        <ele>511.23</ele>
        <time>2017-03-26T12:09:12Z</time>
      </trkpt>
      <trkpt lat="45.42547" lon="4.5254">
        <ele>511.23</ele>
        <time>2017-03-26T12:09:13Z</time>
      </trkpt>
      <trkpt lat="45.42547" lon="4.5254">
        <ele>511.23</ele>
        <time>2017-03-26T12:09:14Z</time>
      </trkpt>
      <trkpt lat="45.42547" lon="4.5254">
        <ele>511.23</ele>
        <time>2017-03-26T12:09:15Z</time>
      </trkpt>
      <trkpt lat="45.42547" lon="4.5254">
        <ele>511.23</ele>
        <time>2017-03-26T12:09:16Z</time>
      </trkpt>
      <trkpt lat="45.42547" lon="4.5254">
        <ele>511.23</ele>
        <time>2017-03-26T12:09:17Z</time>
      </trkpt>
      <trkpt lat="45.42547" lon="4.5254">
        <ele>511.23</ele>
        <time>2017-03-26T12:09:18Z</time>
      </trkpt>
      <trkpt lat="45.42547" lon="4.5254">
        <ele>511.23</ele>
        <time>2017-03-26T12:09:19Z</time>
      </trkpt>
      <trkpt lat="45.42547" lon="4.5254">
        <ele>511.23</ele>
        <time>2017-03-26T12:09:20Z</time>
      </trkpt>
      <trkpt lat="45.42547" lon="4.5254">
        <ele>511.23</ele>
        <time>2017-03-26T12:09:21Z</time>
      </trkpt>
      <trkpt lat="45.42547" lon="4.5254">
        <ele>511.23</ele>
        <time>2017-03-26T12:09:22Z</time>
      </trkpt>
      <trkpt lat="45.42547" lon="4.5254">
        <ele>511.23</ele>
        <time>2017-03-26T12:09:23Z</time>
      </trkpt>
      <trkpt lat="45.42547" lon="4.5254">
        <ele>511.23</ele>
        <time>2017-03-26T12:09:24Z</time>
      </trkpt>
      <trkpt lat="45.42547" lon="4.5254">
        <ele>511.23</ele>
        <time>2017-03-26T12:09:25Z</time>
      </trkpt>
      <trkpt lat="45.42547" lon="4.5254">
        <ele>511.23</ele>
        <time>2017-03-26T12:09:26Z</time>
      </trkpt>
      <trkpt lat="45.42547" lon="4.5254">
        <ele>511.23</ele>
        <time>2017-03-26T12:09:27Z</time>
      </trkpt>
      <trkpt lat="45.42547" lon="4.5254">
        <ele>511.23</ele>
        <time>2017-03-26T12:09:28Z</time>
      </trkpt>
      <trkpt lat="45.42547" lon="4.5254">
        <ele>511.23</ele>
        <time>2017-03-26T12:09:29Z</time>
      </trkpt>
      <trkpt lat="45.42547" lon="4.5254">
        <ele>511.23</ele>
        <time>2017-03-26T12:09:30Z</time>
      </trkpt>
      <trkpt lat="45.42547" lon="4.5254">
        <ele>511.23</ele>
        <time>2017-03-26T12:09:31Z</time>
      </trkpt>
      <trkpt lat="45.42547" lon="4.5254">
        <ele>511.23</ele>
        <time>2017-03-26T12:09:32Z</time>
      </trkpt>
      <trkpt lat="45.42547" lon="4.5254">
        <ele>511.23</ele>
        <time>2017-03-26T12:09:33Z</time>
      </trkpt>
      <trkpt lat="45.42547" lon="4.5254">
        <ele>511.23</ele>
        <time>2017-03-26T12:09:34Z</time>
      </trkpt>
      <trkpt lat="45.42547" lon="4.5254">
        <ele>511.23</ele>
        <time>2017-03-26T12:09:35Z</time>
      </trkpt>
      <trkpt lat="45.42547" lon="4.5254">
        <ele>511.23</ele>
        <time>2017-03-26T12:09:36Z</time>
      </trkpt>
      <trkpt lat="45.42547" lon="4.5254">
        <ele>511.23</ele>
        <time>2017-03-26T12:09:37Z</time>
      </trkpt>
      <trkpt lat="45.42547" lon="4.5254">
        <ele>511.23</ele>
        <time>2017-03-26T12:09:38Z</time>
      </trkpt>
      <trkpt lat="45.42547" lon="4.5254">
        <ele>511.23</ele>
        <time>2017-03-26T12:09:39Z</time>
      </trkpt>
      <trkpt lat="45.42547" lon="4.5254">
        <ele>511.23</ele>
        <time>2017-03-26T12:09:40Z</time>
      </trkpt>
      <trkpt lat="45.42547" lon="4.5254">
        <ele>511.23</ele>
        <time>2017-03-26T12:09:41Z</time>
      </trkpt>
      <trkpt lat="45.42547" lon="4.5254">
        <ele>511.23</ele>
        <time>2017-03-26T12:09:42Z</time>
      </trkpt>
      <trkpt lat="45.42547" lon="4.5254">
        <ele>511.23</ele>
        <time>2017-03-26T12:09:43Z</time>
      </trkpt>
      <trkpt lat="45.42547" lon="4.5254">
        <ele>511.23</ele>
        <time>2017-03-26T12:09:44Z</time>
      </trkpt>
      <trkpt lat="45.42547" lon="4.5254">
        <ele>511.23</ele>
        <time>2017-03-26T12:09:45Z</time>
      </trkpt>
      <trkpt lat="45.42547" lon="4.5254">
        <ele>511.23</ele>
        <time>2017-03-26T12:09:46Z</time>
      </trkpt>
      <trkpt lat="45.42547" lon="4.5254">
        <ele>511.23</ele>
        <time>2017-03-26T12:09:47Z</time>
      </trkpt>
      <trkpt lat="45.42547" lon="4.5254">
        <ele>511.23</ele>
        <time>2017-03-26T12:09:48Z</time>
      </trkpt>
      <trkpt lat="45.42547" lon="4.5254">
        <ele>511.23</ele>
        <time>2017-03-26T12:09:49Z</time>
      </trkpt>
      <trkpt lat="45.42547" lon="4.5254">
        <ele>511.23</ele>
        <time>2017-03-26T12:09:50Z</time>
      </trkpt>
      <trkpt lat="45.42547" lon="4.5254">
        <ele>511.23</ele>
        <time>2017-03-26T12:09:51Z</time>
      </trkpt>
      <trkpt lat="45.42547" lon="4.5254">
        <ele>511.23</ele>
        <time>2017-03-26T12:09:52Z</time>
      </trkpt>
      <trkpt lat="45.42547" lon="4.5254">
        <ele>511.23</ele>
        <time>2017-03-26T12:09:53Z</time>
      </trkpt>
      <trkpt lat="45.42547" lon="4.5254">
        <ele>511.23</ele>
        <time>2017-03-26T12:09:54Z</time>
      </trkpt>
      <trkpt lat="45.42547" lon="4.5254">
        <ele>511.23</ele>
        <time>2017-03-26T12:09:55Z</time>
      </trkpt>
      <trkpt lat="45.42547" lon="4.5254">
        <ele>511.23</ele>
        <time>2017-03-26T12:09:56Z</time>
      </trkpt>
      <trkpt lat="45.42547" lon="4.5254">
        <ele>511.23</ele>
        <time>2017-03-26T12:09:57Z</time>
      </trkpt>
      <trkpt lat="45.42547" lon="4.5254">
        <ele>511.23</ele>
        <time>2017-03-26T12:09:58Z</time>
      </trkpt>
      <trkpt lat="45.42547" lon="4.5254">
        <ele>511.23</ele>
        <time>2017-03-26T12:09:59Z</time>
      </trkpt>
      <trkpt lat="45.42547" lon="4.5254">
        <ele>511.23</ele>
        <time>2017-03-26T12:10:00Z</time>
      </trkpt>
      <trkpt lat="45.42547" lon="4.5254">
        <ele>511.23</ele>
        <time>2017-03-26T12:10:01Z</time>
      </trkpt>
      <trkpt lat="45.42547" lon="4.5254">
        <ele>511.23</ele>
        <time>2017-03-26T12:10:02Z</time>
      </trkpt>
      <trkpt lat="45.42547" lon="4.5254">
        <ele>511.23</ele>
        <time>2017-03-26T12:10:03Z</time>
      </trkpt>
      <trkpt lat="45.42547" lon="4.5254">
        <ele>511.23</ele>
        <time>2017-03-26T12:10:04Z</time>
      </trkpt>
      <trkpt lat="45.42547" lon="4.5254">
        <ele>511.23</ele>
        <time>2017-03-26T12:10:05Z</time>
      </trkpt>
      <trkpt lat="45.42547" lon="4.5254">
        <ele>511.23</ele>
        <time>2017-03-26T12:10:06Z</time>
      </trkpt>
      <trkpt lat="45.42547" lon="4.5254">
        <ele>511.23</ele>
        <time>2017-03-26T12:10:07Z</time>
      </trkpt>
      <trkpt lat="45.42547" lon="4.5254">
        <ele>511.23</ele>
        <time>2017-03-26T12:10:08Z</time>
      </trkpt>
      <trkpt lat="45.42547" lon="4.52534">
        <ele>512.75</ele>
        <time>2017-03-26T12:10:09Z</time>
      </trkpt>
      <trkpt lat="45.42547" lon="4.52532">
        <ele>513.29</ele>
        <time>2017-03-26T12:10:10Z</time>
      </trkpt>
      <trkpt lat="45.42547" lon="4.52528">
        <ele>513.56</ele>
        <time>2017-03-26T12:10:11Z</time>
      </trkpt>
      <trkpt lat="45.42546" lon="4.52525">
        <ele>513.86</ele>
        <time>2017-03-26T12:10:12Z</time>
      </trkpt>
      <trkpt lat="45.42544" lon="4.52523">
        <ele>514</ele>
        <time>2017-03-26T12:10:13Z</time>
      </trkpt>
      <trkpt lat="45.42541" lon="4.52519">
        <ele>514.1</ele>
        <time>2017-03-26T12:10:14Z</time>
      </trkpt>
      <trkpt lat="45.42538" lon="4.52516">
        <ele>514.2</ele>
        <time>2017-03-26T12:10:15Z</time>
      </trkpt>
      <trkpt lat="45.42535" lon="4.52512">
        <ele>514.3</ele>
        <time>2017-03-26T12:10:16Z</time>
      </trkpt>
      <trkpt lat="45.4253" lon="4.52508">
        <ele>514.57</ele>
        <time>2017-03-26T12:10:17Z</time>
      </trkpt>
      <trkpt lat="45.42526" lon="4.52503">
        <ele>514.86</ele>
        <time>2017-03-26T12:10:18Z</time>
      </trkpt>
      <trkpt lat="45.42522" lon="4.52497">
        <ele>515.08</ele>
        <time>2017-03-26T12:10:19Z</time>
      </trkpt>
      <trkpt lat="45.42518" lon="4.52491">
        <ele>515.52</ele>
        <time>2017-03-26T12:10:20Z</time>
      </trkpt>
      <trkpt lat="45.42515" lon="4.52486">
        <ele>515.61</ele>
        <time>2017-03-26T12:10:21Z</time>
      </trkpt>
      <trkpt lat="45.42512" lon="4.5248">
        <ele>515.55</ele>
        <time>2017-03-26T12:10:22Z</time>
      </trkpt>
      <trkpt lat="45.42508" lon="4.52475">
        <ele>515.37</ele>
        <time>2017-03-26T12:10:23Z</time>
      </trkpt>
      <trkpt lat="45.42504" lon="4.52469">
        <ele>515.5</ele>
        <time>2017-03-26T12:10:24Z</time>
      </trkpt>
      <trkpt lat="45.425" lon="4.52461">
        <ele>515.92</ele>
        <time>2017-03-26T12:10:25Z</time>
      </trkpt>
      <trkpt lat="45.42497" lon="4.52455">
        <ele>516.25</ele>
        <time>2017-03-26T12:10:26Z</time>
      </trkpt>
      <trkpt lat="45.42494" lon="4.52448">
        <ele>516.55</ele>
        <time>2017-03-26T12:10:27Z</time>
      </trkpt>
      <trkpt lat="45.42491" lon="4.52442">
        <ele>516.85</ele>
        <time>2017-03-26T12:10:28Z</time>
      </trkpt>
      <trkpt lat="45.42488" lon="4.52435">
        <ele>517.31</ele>
        <time>2017-03-26T12:10:29Z</time>
      </trkpt>
      <trkpt lat="45.42486" lon="4.52431">
        <ele>517.81</ele>
        <time>2017-03-26T12:10:30Z</time>
      </trkpt>
      <trkpt lat="45.42483" lon="4.52426">
        <ele>518.15</ele>
        <time>2017-03-26T12:10:31Z</time>
      </trkpt>
      <trkpt lat="45.42482" lon="4.52422">
        <ele>518.53</ele>
        <time>2017-03-26T12:10:32Z</time>
      </trkpt>
      <trkpt lat="45.4248" lon="4.52418">
        <ele>518.93</ele>
        <time>2017-03-26T12:10:33Z</time>
      </trkpt>
      <trkpt lat="45.42479" lon="4.52416">
        <ele>519.41</ele>
        <time>2017-03-26T12:10:34Z</time>
      </trkpt>
      <trkpt lat="45.42477" lon="4.52413">
        <ele>519.99</ele>
        <time>2017-03-26T12:10:35Z</time>
      </trkpt>
      <trkpt lat="45.42476" lon="4.52411">
        <ele>520.42</ele>
        <time>2017-03-26T12:10:36Z</time>
      </trkpt>
      <trkpt lat="45.42475" lon="4.52408">
        <ele>521.07</ele>
        <time>2017-03-26T12:10:37Z</time>
      </trkpt>
      <trkpt lat="45.42473" lon="4.52403">
        <ele>521.6</ele>
        <time>2017-03-26T12:10:38Z</time>
      </trkpt>
      <trkpt lat="45.42472" lon="4.52396">
        <ele>522.1</ele>
        <time>2017-03-26T12:10:39Z</time>
      </trkpt>
      <trkpt lat="45.42472" lon="4.52389">
        <ele>522.36</ele>
        <time>2017-03-26T12:10:40Z</time>
      </trkpt>
      <trkpt lat="45.42472" lon="4.5238">
        <ele>522.74</ele>
        <time>2017-03-26T12:10:41Z</time>
      </trkpt>
      <trkpt lat="45.42472" lon="4.52371">
        <ele>523.37</ele>
        <time>2017-03-26T12:10:42Z</time>
      </trkpt>
      <trkpt lat="45.42471" lon="4.52361">
        <ele>523.82</ele>
        <time>2017-03-26T12:10:43Z</time>
      </trkpt>
      <trkpt lat="45.4247" lon="4.5235">
        <ele>524.23</ele>
        <time>2017-03-26T12:10:44Z</time>
      </trkpt>
      <trkpt lat="45.42469" lon="4.52339">
        <ele>524.47</ele>
        <time>2017-03-26T12:10:45Z</time>
      </trkpt>
      <trkpt lat="45.42468" lon="4.52328">
        <ele>524.76</ele>
        <time>2017-03-26T12:10:46Z</time>
      </trkpt>
      <trkpt lat="45.42466" lon="4.52317">
        <ele>525.06</ele>
        <time>2017-03-26T12:10:47Z</time>
      </trkpt>
      <trkpt lat="45.42464" lon="4.52305">
        <ele>524.96</ele>
        <time>2017-03-26T12:10:48Z</time>
      </trkpt>
      <trkpt lat="45.42462" lon="4.52293">
        <ele>524.62</ele>
        <time>2017-03-26T12:10:49Z</time>
      </trkpt>
      <trkpt lat="45.42461" lon="4.52282">
        <ele>524.55</ele>
        <time>2017-03-26T12:10:50Z</time>
      </trkpt>
      <trkpt lat="45.42459" lon="4.5227">
        <ele>524.13</ele>
        <time>2017-03-26T12:10:51Z</time>
      </trkpt>
      <trkpt lat="45.42456" lon="4.52259">
        <ele>523.73</ele>
        <time>2017-03-26T12:10:52Z</time>
      </trkpt>
      <trkpt lat="45.42455" lon="4.52248">
        <ele>523.41</ele>
        <time>2017-03-26T12:10:53Z</time>
      </trkpt>
      <trkpt lat="45.42454" lon="4.52236">
        <ele>523.19</ele>
        <time>2017-03-26T12:10:54Z</time>
      </trkpt>
      <trkpt lat="45.42454" lon="4.52224">
        <ele>523.06</ele>
        <time>2017-03-26T12:10:55Z</time>
      </trkpt>
      <trkpt lat="45.42455" lon="4.52213">
        <ele>522.56</ele>
        <time>2017-03-26T12:10:56Z</time>
      </trkpt>
      <trkpt lat="45.42458" lon="4.52202">
        <ele>521.98</ele>
        <time>2017-03-26T12:10:57Z</time>
      </trkpt>
      <trkpt lat="45.42461" lon="4.52191">
        <ele>521.22</ele>
        <time>2017-03-26T12:10:58Z</time>
      </trkpt>
      <trkpt lat="45.42464" lon="4.52179">
        <ele>520.35</ele>
        <time>2017-03-26T12:10:59Z</time>
      </trkpt>
      <trkpt lat="45.42468" lon="4.52167">
        <ele>519.53</ele>
        <time>2017-03-26T12:11:00Z</time>
      </trkpt>
      <trkpt lat="45.42471" lon="4.52155">
        <ele>518.89</ele>
        <time>2017-03-26T12:11:01Z</time>
      </trkpt>
      <trkpt lat="45.42473" lon="4.52142">
        <ele>518.28</ele>
        <time>2017-03-26T12:11:02Z</time>
      </trkpt>
      <trkpt lat="45.42476" lon="4.52129">
        <ele>517.76</ele>
        <time>2017-03-26T12:11:03Z</time>
      </trkpt>
      <trkpt lat="45.42478" lon="4.52116">
        <ele>517.34</ele>
        <time>2017-03-26T12:11:04Z</time>
      </trkpt>
      <trkpt lat="45.4248" lon="4.52102">
        <ele>516.93</ele>
        <time>2017-03-26T12:11:05Z</time>
      </trkpt>
      <trkpt lat="45.42481" lon="4.52089">
        <ele>515.97</ele>
        <time>2017-03-26T12:11:06Z</time>
      </trkpt>
      <trkpt lat="45.42484" lon="4.52078">
        <ele>515.22</ele>
        <time>2017-03-26T12:11:07Z</time>
      </trkpt>
      <trkpt lat="45.42486" lon="4.52067">
        <ele>514.19</ele>
        <time>2017-03-26T12:11:08Z</time>
      </trkpt>
      <trkpt lat="45.42489" lon="4.52057">
        <ele>513.1</ele>
        <time>2017-03-26T12:11:09Z</time>
      </trkpt>
      <trkpt lat="45.42491" lon="4.52047">
        <ele>511.76</ele>
        <time>2017-03-26T12:11:10Z</time>
      </trkpt>
      <trkpt lat="45.42493" lon="4.5204">
        <ele>510.78</ele>
        <time>2017-03-26T12:11:11Z</time>
      </trkpt>
      <trkpt lat="45.42494" lon="4.52034">
        <ele>510.02</ele>
        <time>2017-03-26T12:11:12Z</time>
      </trkpt>
      <trkpt lat="45.42495" lon="4.5203">
        <ele>509.79</ele>
        <time>2017-03-26T12:11:13Z</time>
      </trkpt>
      <trkpt lat="45.42494" lon="4.52028">
        <ele>509.26</ele>
        <time>2017-03-26T12:11:14Z</time>
      </trkpt>
      <trkpt lat="45.42494" lon="4.52027">
        <ele>508.76</ele>
        <time>2017-03-26T12:11:15Z</time>
      </trkpt>
      <trkpt lat="45.42493" lon="4.52027">
        <ele>508.66</ele>
        <time>2017-03-26T12:11:16Z</time>
      </trkpt>
      <trkpt lat="45.42493" lon="4.52028">
        <ele>508.32</ele>
        <time>2017-03-26T12:11:17Z</time>
      </trkpt>
      <trkpt lat="45.42493" lon="4.52028">
        <ele>508.25</ele>
        <time>2017-03-26T12:11:18Z</time>
      </trkpt>
      <trkpt lat="45.42493" lon="4.52028">
        <ele>508.23</ele>
        <time>2017-03-26T12:11:19Z</time>
      </trkpt>
      <trkpt lat="45.42493" lon="4.52028">
        <ele>508.23</ele>
        <time>2017-03-26T12:11:20Z</time>
      </trkpt>
      <trkpt lat="45.42493" lon="4.52028">
        <ele>508.23</ele>
        <time>2017-03-26T12:11:21Z</time>
      </trkpt>
      <trkpt lat="45.42493" lon="4.52028">
        <ele>508.23</ele>
        <time>2017-03-26T12:11:22Z</time>
      </trkpt>
      <trkpt lat="45.42493" lon="4.52028">
        <ele>508.23</ele>
        <time>2017-03-26T12:11:23Z</time>
      </trkpt>
      <trkpt lat="45.42493" lon="4.52028">
        <ele>508.23</ele>
        <time>2017-03-26T12:11:24Z</time>
      </trkpt>
      <trkpt lat="45.42493" lon="4.52028">
        <ele>508.23</ele>
        <time>2017-03-26T12:11:25Z</time>
      </trkpt>
      <trkpt lat="45.42493" lon="4.52028">
        <ele>508.23</ele>
        <time>2017-03-26T12:11:26Z</time>
      </trkpt>
      <trkpt lat="45.42493" lon="4.52028">
        <ele>508.23</ele>
        <time>2017-03-26T12:11:27Z</time>
      </trkpt>
      <trkpt lat="45.42493" lon="4.52028">
        <ele>508.23</ele>
        <time>2017-03-26T12:11:28Z</time>
      </trkpt>
      <trkpt lat="45.42493" lon="4.52028">
        <ele>508.23</ele>
        <time>2017-03-26T12:11:29Z</time>
      </trkpt>
      <trkpt lat="45.42493" lon="4.52028">
        <ele>508.23</ele>
        <time>2017-03-26T12:11:30Z</time>
      </trkpt>
      <trkpt lat="45.42493" lon="4.52028">
        <ele>508.23</ele>
        <time>2017-03-26T12:11:31Z</time>
      </trkpt>
      <trkpt lat="45.42493" lon="4.52028">
        <ele>508.23</ele>
        <time>2017-03-26T12:11:32Z</time>
      </trkpt>
      <trkpt lat="45.42491" lon="4.52022">
        <ele>508.23</ele>
        <time>2017-03-26T12:11:33Z</time>
      </trkpt>
      <trkpt lat="45.42487" lon="4.52017">
        <ele>508.23</ele>
        <time>2017-03-26T12:11:34Z</time>
      </trkpt>
      <trkpt lat="45.42482" lon="4.52012">
        <ele>508.39</ele>
        <time>2017-03-26T12:11:35Z</time>
      </trkpt>
      <trkpt lat="45.42477" lon="4.52007">
        <ele>508.58</ele>
        <time>2017-03-26T12:11:36Z</time>
      </trkpt>
      <trkpt lat="45.42472" lon="4.52002">
        <ele>509.02</ele>
        <time>2017-03-26T12:11:37Z</time>
      </trkpt>
      <trkpt lat="45.42465" lon="4.51997">
        <ele>509.51</ele>
        <time>2017-03-26T12:11:38Z</time>
      </trkpt>
      <trkpt lat="45.42458" lon="4.51992">
        <ele>510.17</ele>
        <time>2017-03-26T12:11:39Z</time>
      </trkpt>
      <trkpt lat="45.42451" lon="4.51989">
        <ele>510.7</ele>
        <time>2017-03-26T12:11:40Z</time>
      </trkpt>
      <trkpt lat="45.42443" lon="4.51986">
        <ele>511.28</ele>
        <time>2017-03-26T12:11:41Z</time>
      </trkpt>
      <trkpt lat="45.42435" lon="4.51983">
        <ele>511.88</ele>
        <time>2017-03-26T12:11:42Z</time>
      </trkpt>
      <trkpt lat="45.42426" lon="4.5198">
        <ele>512.48</ele>
        <time>2017-03-26T12:11:43Z</time>
      </trkpt>
      <trkpt lat="45.42419" lon="4.51977">
        <ele>513</ele>
        <time>2017-03-26T12:11:44Z</time>
      </trkpt>
      <trkpt lat="45.42411" lon="4.51974">
        <ele>513.66</ele>
        <time>2017-03-26T12:11:45Z</time>
      </trkpt>
      <trkpt lat="45.42403" lon="4.51971">
        <ele>514.28</ele>
        <time>2017-03-26T12:11:46Z</time>
      </trkpt>
      <trkpt lat="45.42396" lon="4.51968">
        <ele>514.88</ele>
        <time>2017-03-26T12:11:47Z</time>
      </trkpt>
      <trkpt lat="45.42388" lon="4.51966">
        <ele>515.56</ele>
        <time>2017-03-26T12:11:48Z</time>
      </trkpt>
      <trkpt lat="45.4238" lon="4.51965">
        <ele>516.34</ele>
        <time>2017-03-26T12:11:49Z</time>
      </trkpt>
      <trkpt lat="45.42371" lon="4.51964">
        <ele>517.05</ele>
        <time>2017-03-26T12:11:50Z</time>
      </trkpt>
      <trkpt lat="45.42361" lon="4.51964">
        <ele>517.67</ele>
        <time>2017-03-26T12:11:51Z</time>
      </trkpt>
      <trkpt lat="45.42351" lon="4.51964">
        <ele>518.28</ele>
        <time>2017-03-26T12:11:52Z</time>
      </trkpt>
      <trkpt lat="45.42341" lon="4.51965">
        <ele>518.96</ele>
        <time>2017-03-26T12:11:53Z</time>
      </trkpt>
      <trkpt lat="45.4233" lon="4.51964">
        <ele>519.66</ele>
        <time>2017-03-26T12:11:54Z</time>
      </trkpt>
      <trkpt lat="45.4232" lon="4.51961">
        <ele>520.36</ele>
        <time>2017-03-26T12:11:55Z</time>
      </trkpt>
      <trkpt lat="45.42311" lon="4.51955">
        <ele>521.06</ele>
        <time>2017-03-26T12:11:56Z</time>
      </trkpt>
      <trkpt lat="45.42309" lon="4.51941">
        <ele>521.76</ele>
        <time>2017-03-26T12:11:57Z</time>
      </trkpt>
      <trkpt lat="45.42309" lon="4.51927">
        <ele>522.29</ele>
        <time>2017-03-26T12:11:58Z</time>
      </trkpt>
      <trkpt lat="45.42313" lon="4.51912">
        <ele>522.8</ele>
        <time>2017-03-26T12:11:59Z</time>
      </trkpt>
      <trkpt lat="45.42317" lon="4.51896">
        <ele>523.22</ele>
        <time>2017-03-26T12:12:00Z</time>
      </trkpt>
      <trkpt lat="45.42323" lon="4.51881">
        <ele>523.71</ele>
        <time>2017-03-26T12:12:01Z</time>
      </trkpt>
      <trkpt lat="45.4233" lon="4.51867">
        <ele>524.29</ele>
        <time>2017-03-26T12:12:02Z</time>
      </trkpt>
      <trkpt lat="45.42336" lon="4.51854">
        <ele>524.8</ele>
        <time>2017-03-26T12:12:03Z</time>
      </trkpt>
      <trkpt lat="45.42343" lon="4.51842">
        <ele>525.3</ele>
        <time>2017-03-26T12:12:04Z</time>
      </trkpt>
      <trkpt lat="45.4235" lon="4.51831">
        <ele>525.8</ele>
        <time>2017-03-26T12:12:05Z</time>
      </trkpt>
      <trkpt lat="45.42357" lon="4.5182">
        <ele>526.14</ele>
        <time>2017-03-26T12:12:06Z</time>
      </trkpt>
      <trkpt lat="45.42364" lon="4.51809">
        <ele>526.29</ele>
        <time>2017-03-26T12:12:07Z</time>
      </trkpt>
      <trkpt lat="45.42371" lon="4.51797">
        <ele>526.4</ele>
        <time>2017-03-26T12:12:08Z</time>
      </trkpt>
      <trkpt lat="45.42377" lon="4.51786">
        <ele>526.66</ele>
        <time>2017-03-26T12:12:09Z</time>
      </trkpt>
      <trkpt lat="45.42382" lon="4.51774">
        <ele>527.28</ele>
        <time>2017-03-26T12:12:10Z</time>
      </trkpt>
      <trkpt lat="45.42387" lon="4.5176">
        <ele>528.12</ele>
        <time>2017-03-26T12:12:11Z</time>
      </trkpt>
      <trkpt lat="45.42389" lon="4.51746">
        <ele>529.25</ele>
        <time>2017-03-26T12:12:12Z</time>
      </trkpt>
      <trkpt lat="45.42391" lon="4.51733">
        <ele>530.19</ele>
        <time>2017-03-26T12:12:13Z</time>
      </trkpt>
      <trkpt lat="45.42393" lon="4.5172">
        <ele>530.94</ele>
        <time>2017-03-26T12:12:14Z</time>
      </trkpt>
      <trkpt lat="45.42395" lon="4.51708">
        <ele>531.57</ele>
        <time>2017-03-26T12:12:15Z</time>
      </trkpt>
      <trkpt lat="45.42395" lon="4.51697">
        <ele>532.18</ele>
        <time>2017-03-26T12:12:16Z</time>
      </trkpt>
      <trkpt lat="45.42396" lon="4.51688">
        <ele>532.7</ele>
        <time>2017-03-26T12:12:17Z</time>
      </trkpt>
      <trkpt lat="45.42397" lon="4.51681">
        <ele>533.04</ele>
        <time>2017-03-26T12:12:18Z</time>
      </trkpt>
      <trkpt lat="45.42397" lon="4.51677">
        <ele>533.19</ele>
        <time>2017-03-26T12:12:19Z</time>
      </trkpt>
      <trkpt lat="45.42397" lon="4.51675">
        <ele>533.14</ele>
        <time>2017-03-26T12:12:20Z</time>
      </trkpt>
      <trkpt lat="45.42397" lon="4.51675">
        <ele>533.13</ele>
        <time>2017-03-26T12:12:21Z</time>
      </trkpt>
      <trkpt lat="45.42397" lon="4.51674">
        <ele>533.13</ele>
        <time>2017-03-26T12:12:22Z</time>
      </trkpt>
      <trkpt lat="45.42397" lon="4.51674">
        <ele>533.13</ele>
        <time>2017-03-26T12:12:23Z</time>
      </trkpt>
      <trkpt lat="45.42397" lon="4.51674">
        <ele>533.13</ele>
        <time>2017-03-26T12:12:24Z</time>
      </trkpt>
      <trkpt lat="45.42397" lon="4.51674">
        <ele>533.13</ele>
        <time>2017-03-26T12:12:25Z</time>
      </trkpt>
      <trkpt lat="45.42397" lon="4.51674">
        <ele>533.13</ele>
        <time>2017-03-26T12:12:26Z</time>
      </trkpt>
      <trkpt lat="45.42397" lon="4.51674">
        <ele>533.13</ele>
        <time>2017-03-26T12:12:27Z</time>
      </trkpt>
      <trkpt lat="45.42397" lon="4.51674">
        <ele>533.13</ele>
        <time>2017-03-26T12:12:28Z</time>
      </trkpt>
      <trkpt lat="45.42397" lon="4.51674">
        <ele>533.13</ele>
        <time>2017-03-26T12:12:29Z</time>
      </trkpt>
      <trkpt lat="45.42397" lon="4.51674">
        <ele>533.13</ele>
        <time>2017-03-26T12:12:30Z</time>
      </trkpt>
      <trkpt lat="45.42397" lon="4.51674">
        <ele>533.13</ele>
        <time>2017-03-26T12:12:31Z</time>
      </trkpt>
      <trkpt lat="45.42397" lon="4.51674">
        <ele>533.13</ele>
        <time>2017-03-26T12:12:32Z</time>
      </trkpt>
      <trkpt lat="45.42397" lon="4.51674">
        <ele>533.13</ele>
        <time>2017-03-26T12:12:33Z</time>
      </trkpt>
      <trkpt lat="45.42397" lon="4.51674">
        <ele>533.13</ele>
        <time>2017-03-26T12:12:34Z</time>
      </trkpt>
      <trkpt lat="45.42397" lon="4.51674">
        <ele>533.13</ele>
        <time>2017-03-26T12:12:35Z</time>
      </trkpt>
      <trkpt lat="45.42397" lon="4.51674">
        <ele>533.13</ele>
        <time>2017-03-26T12:12:36Z</time>
      </trkpt>
      <trkpt lat="45.42397" lon="4.51674">
        <ele>533.13</ele>
        <time>2017-03-26T12:12:37Z</time>
      </trkpt>
      <trkpt lat="45.42397" lon="4.51674">
        <ele>533.13</ele>
        <time>2017-03-26T12:12:38Z</time>
      </trkpt>
      <trkpt lat="45.42397" lon="4.51674">
        <ele>533.13</ele>
        <time>2017-03-26T12:12:39Z</time>
      </trkpt>
      <trkpt lat="45.42397" lon="4.51674">
        <ele>533.13</ele>
        <time>2017-03-26T12:12:40Z</time>
      </trkpt>
      <trkpt lat="45.42397" lon="4.51674">
        <ele>533.13</ele>
        <time>2017-03-26T12:12:41Z</time>
      </trkpt>
      <trkpt lat="45.42397" lon="4.51674">
        <ele>533.13</ele>
        <time>2017-03-26T12:12:42Z</time>
      </trkpt>
      <trkpt lat="45.42397" lon="4.51674">
        <ele>533.13</ele>
        <time>2017-03-26T12:12:43Z</time>
      </trkpt>
      <trkpt lat="45.42397" lon="4.51674">
        <ele>533.13</ele>
        <time>2017-03-26T12:12:44Z</time>
      </trkpt>
      <trkpt lat="45.42397" lon="4.51674">
        <ele>533.13</ele>
        <time>2017-03-26T12:12:45Z</time>
      </trkpt>
      <trkpt lat="45.42397" lon="4.51674">
        <ele>533.13</ele>
        <time>2017-03-26T12:12:46Z</time>
      </trkpt>
      <trkpt lat="45.42397" lon="4.51674">
        <ele>533.13</ele>
        <time>2017-03-26T12:12:47Z</time>
      </trkpt>
      <trkpt lat="45.42397" lon="4.51674">
        <ele>533.13</ele>
        <time>2017-03-26T12:12:48Z</time>
      </trkpt>
      <trkpt lat="45.42396" lon="4.5167">
        <ele>533.61</ele>
        <time>2017-03-26T12:12:49Z</time>
      </trkpt>
      <trkpt lat="45.42395" lon="4.51661">
        <ele>533.79</ele>
        <time>2017-03-26T12:12:50Z</time>
      </trkpt>
      <trkpt lat="45.42393" lon="4.51651">
        <ele>533.98</ele>
        <time>2017-03-26T12:12:51Z</time>
      </trkpt>
      <trkpt lat="45.4239" lon="4.5164">
        <ele>534.58</ele>
        <time>2017-03-26T12:12:52Z</time>
      </trkpt>
      <trkpt lat="45.42387" lon="4.51629">
        <ele>535.02</ele>
        <time>2017-03-26T12:12:53Z</time>
      </trkpt>
      <trkpt lat="45.42379" lon="4.51616">
        <ele>535.27</ele>
        <time>2017-03-26T12:12:54Z</time>
      </trkpt>
      <trkpt lat="45.42371" lon="4.51604">
        <ele>535.64</ele>
        <time>2017-03-26T12:12:55Z</time>
      </trkpt>
      <trkpt lat="45.4236" lon="4.51592">
        <ele>536.03</ele>
        <time>2017-03-26T12:12:56Z</time>
      </trkpt>
      <trkpt lat="45.42348" lon="4.51582">
        <ele>536.67</ele>
        <time>2017-03-26T12:12:57Z</time>
      </trkpt>
      <trkpt lat="45.42335" lon="4.51575">
        <ele>537.28</ele>
        <time>2017-03-26T12:12:58Z</time>
      </trkpt>
      <trkpt lat="45.42321" lon="4.5157">
        <ele>537.88</ele>
        <time>2017-03-26T12:12:59Z</time>
      </trkpt>
      <trkpt lat="45.42306" lon="4.51568">
        <ele>538.56</ele>
        <time>2017-03-26T12:13:00Z</time>
      </trkpt>
      <trkpt lat="45.42292" lon="4.51567">
        <ele>539.5</ele>
        <time>2017-03-26T12:13:01Z</time>
      </trkpt>
      <trkpt lat="45.42278" lon="4.51566">
        <ele>540.48</ele>
        <time>2017-03-26T12:13:02Z</time>
      </trkpt>
      <trkpt lat="45.42264" lon="4.51565">
        <ele>541.24</ele>
        <time>2017-03-26T12:13:03Z</time>
      </trkpt>
      <trkpt lat="45.4225" lon="4.51564">
        <ele>542.11</ele>
        <time>2017-03-26T12:13:04Z</time>
      </trkpt>
      <trkpt lat="45.42236" lon="4.51563">
        <ele>542.93</ele>
        <time>2017-03-26T12:13:05Z</time>
      </trkpt>
      <trkpt lat="45.4222" lon="4.51561">
        <ele>543.89</ele>
        <time>2017-03-26T12:13:06Z</time>
      </trkpt>
      <trkpt lat="45.42202" lon="4.5156">
        <ele>544.8</ele>
        <time>2017-03-26T12:13:07Z</time>
      </trkpt>
      <trkpt lat="45.42181" lon="4.51559">
        <ele>546.26</ele>
        <time>2017-03-26T12:13:08Z</time>
      </trkpt>
      <trkpt lat="45.42159" lon="4.51558">
        <ele>547.76</ele>
        <time>2017-03-26T12:13:09Z</time>
      </trkpt>
      <trkpt lat="45.42134" lon="4.51556">
        <ele>549.42</ele>
        <time>2017-03-26T12:13:10Z</time>
      </trkpt>
      <trkpt lat="45.4211" lon="4.51552">
        <ele>551.11</ele>
        <time>2017-03-26T12:13:11Z</time>
      </trkpt>
      <trkpt lat="45.42085" lon="4.51549">
        <ele>552.73</ele>
        <time>2017-03-26T12:13:12Z</time>
      </trkpt>
      <trkpt lat="45.42061" lon="4.51546">
        <ele>554.41</ele>
        <time>2017-03-26T12:13:13Z</time>
      </trkpt>
      <trkpt lat="45.42037" lon="4.51544">
        <ele>556.35</ele>
        <time>2017-03-26T12:13:14Z</time>
      </trkpt>
      <trkpt lat="45.42015" lon="4.51542">
        <ele>558.25</ele>
        <time>2017-03-26T12:13:15Z</time>
      </trkpt>
      <trkpt lat="45.41994" lon="4.51541">
        <ele>559.91</ele>
        <time>2017-03-26T12:13:16Z</time>
      </trkpt>
      <trkpt lat="45.41974" lon="4.51541">
        <ele>561.53</ele>
        <time>2017-03-26T12:13:17Z</time>
      </trkpt>
      <trkpt lat="45.41956" lon="4.51546">
        <ele>563.05</ele>
        <time>2017-03-26T12:13:18Z</time>
      </trkpt>
      <trkpt lat="45.41939" lon="4.51554">
        <ele>564.71</ele>
        <time>2017-03-26T12:13:19Z</time>
      </trkpt>
      <trkpt lat="45.41922" lon="4.51566">
        <ele>566.49</ele>
        <time>2017-03-26T12:13:20Z</time>
      </trkpt>
      <trkpt lat="45.41906" lon="4.51575">
        <ele>568.12</ele>
        <time>2017-03-26T12:13:21Z</time>
      </trkpt>
      <trkpt lat="45.4189" lon="4.5158">
        <ele>570.13</ele>
        <time>2017-03-26T12:13:22Z</time>
      </trkpt>
      <trkpt lat="45.41874" lon="4.51577">
        <ele>572.37</ele>
        <time>2017-03-26T12:13:23Z</time>
      </trkpt>
      <trkpt lat="45.41859" lon="4.51572">
        <ele>574.42</ele>
        <time>2017-03-26T12:13:24Z</time>
      </trkpt>
      <trkpt lat="45.41843" lon="4.51565">
        <ele>576.35</ele>
        <time>2017-03-26T12:13:25Z</time>
      </trkpt>
      <trkpt lat="45.41828" lon="4.5156">
        <ele>577.93</ele>
        <time>2017-03-26T12:13:26Z</time>
      </trkpt>
      <trkpt lat="45.41813" lon="4.51557">
        <ele>579.53</ele>
        <time>2017-03-26T12:13:27Z</time>
      </trkpt>
      <trkpt lat="45.41799" lon="4.51557">
        <ele>581.05</ele>
        <time>2017-03-26T12:13:28Z</time>
      </trkpt>
      <trkpt lat="45.41786" lon="4.5156">
        <ele>582.39</ele>
        <time>2017-03-26T12:13:29Z</time>
      </trkpt>
      <trkpt lat="45.41773" lon="4.51567">
        <ele>583.7</ele>
        <time>2017-03-26T12:13:30Z</time>
      </trkpt>
      <trkpt lat="45.4176" lon="4.51575">
        <ele>585</ele>
        <time>2017-03-26T12:13:31Z</time>
      </trkpt>
      <trkpt lat="45.41748" lon="4.51582">
        <ele>586.22</ele>
        <time>2017-03-26T12:13:32Z</time>
      </trkpt>
      <trkpt lat="45.41737" lon="4.51589">
        <ele>587.51</ele>
        <time>2017-03-26T12:13:33Z</time>
      </trkpt>
      <trkpt lat="45.41725" lon="4.51592">
        <ele>588.73</ele>
        <time>2017-03-26T12:13:34Z</time>
      </trkpt>
      <trkpt lat="45.41715" lon="4.51595">
        <ele>589.93</ele>
        <time>2017-03-26T12:13:35Z</time>
      </trkpt>
      <trkpt lat="45.41707" lon="4.51593">
        <ele>591.05</ele>
        <time>2017-03-26T12:13:36Z</time>
      </trkpt>
      <trkpt lat="45.41698" lon="4.51591">
        <ele>591.75</ele>
        <time>2017-03-26T12:13:37Z</time>
      </trkpt>
      <trkpt lat="45.4169" lon="4.51589">
        <ele>592.53</ele>
        <time>2017-03-26T12:13:38Z</time>
      </trkpt>
      <trkpt lat="45.41681" lon="4.51587">
        <ele>593.09</ele>
        <time>2017-03-26T12:13:39Z</time>
      </trkpt>
      <trkpt lat="45.41671" lon="4.51585">
        <ele>593.84</ele>
        <time>2017-03-26T12:13:40Z</time>
      </trkpt>
      <trkpt lat="45.41662" lon="4.51583">
        <ele>594.39</ele>
        <time>2017-03-26T12:13:41Z</time>
      </trkpt>
      <trkpt lat="45.41654" lon="4.51583">
        <ele>594.98</ele>
        <time>2017-03-26T12:13:42Z</time>
      </trkpt>
      <trkpt lat="45.41647" lon="4.51583">
        <ele>595.74</ele>
        <time>2017-03-26T12:13:43Z</time>
      </trkpt>
      <trkpt lat="45.41639" lon="4.51581">
        <ele>596.37</ele>
        <time>2017-03-26T12:13:44Z</time>
      </trkpt>
      <trkpt lat="45.41631" lon="4.51579">
        <ele>596.74</ele>
        <time>2017-03-26T12:13:45Z</time>
      </trkpt>
      <trkpt lat="45.41624" lon="4.51578">
        <ele>597.21</ele>
        <time>2017-03-26T12:13:46Z</time>
      </trkpt>
      <trkpt lat="45.41616" lon="4.51576">
        <ele>597.63</ele>
        <time>2017-03-26T12:13:47Z</time>
      </trkpt>
      <trkpt lat="45.41609" lon="4.51573">
        <ele>598.11</ele>
        <time>2017-03-26T12:13:48Z</time>
      </trkpt>
      <trkpt lat="45.416" lon="4.51571">
        <ele>598.69</ele>
        <time>2017-03-26T12:13:49Z</time>
      </trkpt>
      <trkpt lat="45.41593" lon="4.51569">
        <ele>599.28</ele>
        <time>2017-03-26T12:13:50Z</time>
      </trkpt>
      <trkpt lat="45.41586" lon="4.51566">
        <ele>599.8</ele>
        <time>2017-03-26T12:13:51Z</time>
      </trkpt>
      <trkpt lat="45.4158" lon="4.51564">
        <ele>600.3</ele>
        <time>2017-03-26T12:13:52Z</time>
      </trkpt>
      <trkpt lat="45.41574" lon="4.51559">
        <ele>600.56</ele>
        <time>2017-03-26T12:13:53Z</time>
      </trkpt>
      <trkpt lat="45.41568" lon="4.51556">
        <ele>600.94</ele>
        <time>2017-03-26T12:13:54Z</time>
      </trkpt>
      <trkpt lat="45.41561" lon="4.51552">
        <ele>601.33</ele>
        <time>2017-03-26T12:13:55Z</time>
      </trkpt>
      <trkpt lat="45.41553" lon="4.51547">
        <ele>601.81</ele>
        <time>2017-03-26T12:13:56Z</time>
      </trkpt>
      <trkpt lat="45.41545" lon="4.51542">
        <ele>602.31</ele>
        <time>2017-03-26T12:13:57Z</time>
      </trkpt>
      <trkpt lat="45.41537" lon="4.51538">
        <ele>602.73</ele>
        <time>2017-03-26T12:13:58Z</time>
      </trkpt>
      <trkpt lat="45.41529" lon="4.51534">
        <ele>603.21</ele>
        <time>2017-03-26T12:13:59Z</time>
      </trkpt>
      <trkpt lat="45.41521" lon="4.51529">
        <ele>604.19</ele>
        <time>2017-03-26T12:14:00Z</time>
      </trkpt>
      <trkpt lat="45.41512" lon="4.51528">
        <ele>604.7</ele>
        <time>2017-03-26T12:14:01Z</time>
      </trkpt>
      <trkpt lat="45.41503" lon="4.51529">
        <ele>605.12</ele>
        <time>2017-03-26T12:14:02Z</time>
      </trkpt>
      <trkpt lat="45.41494" lon="4.51532">
        <ele>605.13</ele>
        <time>2017-03-26T12:14:03Z</time>
      </trkpt>
      <trkpt lat="45.41486" lon="4.5154">
        <ele>605.05</ele>
        <time>2017-03-26T12:14:04Z</time>
      </trkpt>
      <trkpt lat="45.41478" lon="4.51551">
        <ele>603.99</ele>
        <time>2017-03-26T12:14:05Z</time>
      </trkpt>
      <trkpt lat="45.41469" lon="4.51564">
        <ele>604.34</ele>
        <time>2017-03-26T12:14:06Z</time>
      </trkpt>
      <trkpt lat="45.41459" lon="4.51581">
        <ele>605.05</ele>
        <time>2017-03-26T12:14:07Z</time>
      </trkpt>
      <trkpt lat="45.41447" lon="4.51599">
        <ele>605.83</ele>
        <time>2017-03-26T12:14:08Z</time>
      </trkpt>
      <trkpt lat="45.41434" lon="4.51619">
        <ele>606.15</ele>
        <time>2017-03-26T12:14:09Z</time>
      </trkpt>
      <trkpt lat="45.41421" lon="4.51639">
        <ele>606.29</ele>
        <time>2017-03-26T12:14:10Z</time>
      </trkpt>
      <trkpt lat="45.41408" lon="4.5166">
        <ele>606.8</ele>
        <time>2017-03-26T12:14:11Z</time>
      </trkpt>
      <trkpt lat="45.41394" lon="4.51681">
        <ele>607.78</ele>
        <time>2017-03-26T12:14:12Z</time>
      </trkpt>
      <trkpt lat="45.4138" lon="4.51703">
        <ele>608.86</ele>
        <time>2017-03-26T12:14:13Z</time>
      </trkpt>
      <trkpt lat="45.41364" lon="4.51725">
        <ele>609.96</ele>
        <time>2017-03-26T12:14:14Z</time>
      </trkpt>
      <trkpt lat="45.41347" lon="4.51746">
        <ele>610.74</ele>
        <time>2017-03-26T12:14:15Z</time>
      </trkpt>
      <trkpt lat="45.41332" lon="4.51768">
        <ele>611.69</ele>
        <time>2017-03-26T12:14:16Z</time>
      </trkpt>
      <trkpt lat="45.41317" lon="4.51791">
        <ele>613.08</ele>
        <time>2017-03-26T12:14:17Z</time>
      </trkpt>
      <trkpt lat="45.41302" lon="4.51814">
        <ele>615.04</ele>
        <time>2017-03-26T12:14:18Z</time>
      </trkpt>
      <trkpt lat="45.41287" lon="4.51837">
        <ele>616.87</ele>
        <time>2017-03-26T12:14:19Z</time>
      </trkpt>
      <trkpt lat="45.41271" lon="4.51859">
        <ele>618.6</ele>
        <time>2017-03-26T12:14:20Z</time>
      </trkpt>
      <trkpt lat="45.41254" lon="4.51879">
        <ele>620.38</ele>
        <time>2017-03-26T12:14:21Z</time>
      </trkpt>
      <trkpt lat="45.41237" lon="4.51898">
        <ele>622.1</ele>
        <time>2017-03-26T12:14:22Z</time>
      </trkpt>
      <trkpt lat="45.41218" lon="4.51913">
        <ele>623.32</ele>
        <time>2017-03-26T12:14:23Z</time>
      </trkpt>
      <trkpt lat="45.41198" lon="4.51925">
        <ele>624.69</ele>
        <time>2017-03-26T12:14:24Z</time>
      </trkpt>
      <trkpt lat="45.41177" lon="4.51937">
        <ele>626</ele>
        <time>2017-03-26T12:14:25Z</time>
      </trkpt>
      <trkpt lat="45.41156" lon="4.51949">
        <ele>627.22</ele>
        <time>2017-03-26T12:14:26Z</time>
      </trkpt>
      <trkpt lat="45.41135" lon="4.51961">
        <ele>628.67</ele>
        <time>2017-03-26T12:14:27Z</time>
      </trkpt>
      <trkpt lat="45.41114" lon="4.51972">
        <ele>630.24</ele>
        <time>2017-03-26T12:14:28Z</time>
      </trkpt>
      <trkpt lat="45.41093" lon="4.51983">
        <ele>631.59</ele>
        <time>2017-03-26T12:14:29Z</time>
      </trkpt>
      <trkpt lat="45.41072" lon="4.51994">
        <ele>633.06</ele>
        <time>2017-03-26T12:14:30Z</time>
      </trkpt>
      <trkpt lat="45.4105" lon="4.52003">
        <ele>634.64</ele>
        <time>2017-03-26T12:14:31Z</time>
      </trkpt>
      <trkpt lat="45.41029" lon="4.52012">
        <ele>636.07</ele>
        <time>2017-03-26T12:14:32Z</time>
      </trkpt>
      <trkpt lat="45.41008" lon="4.5202">
        <ele>637.32</ele>
        <time>2017-03-26T12:14:33Z</time>
      </trkpt>
      <trkpt lat="45.40987" lon="4.5203">
        <ele>638.69</ele>
        <time>2017-03-26T12:14:34Z</time>
      </trkpt>
      <trkpt lat="45.40967" lon="4.5204">
        <ele>639.84</ele>
        <time>2017-03-26T12:14:35Z</time>
      </trkpt>
      <trkpt lat="45.40948" lon="4.52052">
        <ele>640.87</ele>
        <time>2017-03-26T12:14:36Z</time>
      </trkpt>
      <trkpt lat="45.4093" lon="4.52065">
        <ele>642.04</ele>
        <time>2017-03-26T12:14:37Z</time>
      </trkpt>
      <trkpt lat="45.40917" lon="4.5208">
        <ele>643.71</ele>
        <time>2017-03-26T12:14:38Z</time>
      </trkpt>
      <trkpt lat="45.40906" lon="4.52092">
        <ele>645.17</ele>
        <time>2017-03-26T12:14:39Z</time>
      </trkpt>
      <trkpt lat="45.409" lon="4.52102">
        <ele>646.42</ele>
        <time>2017-03-26T12:14:40Z</time>
      </trkpt>
      <trkpt lat="45.40898" lon="4.52112">
        <ele>647.63</ele>
        <time>2017-03-26T12:14:41Z</time>
      </trkpt>
      <trkpt lat="45.40901" lon="4.52118">
        <ele>648.75</ele>
        <time>2017-03-26T12:14:42Z</time>
      </trkpt>
      <trkpt lat="45.40907" lon="4.52122">
        <ele>649.85</ele>
        <time>2017-03-26T12:14:43Z</time>
      </trkpt>
      <trkpt lat="45.40916" lon="4.52119">
        <ele>650.39</ele>
        <time>2017-03-26T12:14:44Z</time>
      </trkpt>
      <trkpt lat="45.40928" lon="4.5211">
        <ele>650.34</ele>
        <time>2017-03-26T12:14:45Z</time>
      </trkpt>
      <trkpt lat="45.40941" lon="4.521">
        <ele>650.33</ele>
        <time>2017-03-26T12:14:46Z</time>
      </trkpt>
      <trkpt lat="45.40957" lon="4.52093">
        <ele>650.97</ele>
        <time>2017-03-26T12:14:47Z</time>
      </trkpt>
      <trkpt lat="45.40974" lon="4.52093">
        <ele>652.62</ele>
        <time>2017-03-26T12:14:48Z</time>
      </trkpt>
      <trkpt lat="45.40992" lon="4.52096">
        <ele>654.07</ele>
        <time>2017-03-26T12:14:49Z</time>
      </trkpt>
      <trkpt lat="45.41011" lon="4.52103">
        <ele>655.48</ele>
        <time>2017-03-26T12:14:50Z</time>
      </trkpt>
      <trkpt lat="45.41032" lon="4.52109">
        <ele>657.44</ele>
        <time>2017-03-26T12:14:51Z</time>
      </trkpt>
      <trkpt lat="45.41055" lon="4.52114">
        <ele>659.67</ele>
        <time>2017-03-26T12:14:52Z</time>
      </trkpt>
      <trkpt lat="45.41077" lon="4.52118">
        <ele>661.88</ele>
        <time>2017-03-26T12:14:53Z</time>
      </trkpt>
      <trkpt lat="45.411" lon="4.5212">
        <ele>663.92</ele>
        <time>2017-03-26T12:14:54Z</time>
      </trkpt>
      <trkpt lat="45.41122" lon="4.5212">
        <ele>665.69</ele>
        <time>2017-03-26T12:14:55Z</time>
      </trkpt>
      <trkpt lat="45.41146" lon="4.52117">
        <ele>667.48</ele>
        <time>2017-03-26T12:14:56Z</time>
      </trkpt>
      <trkpt lat="45.4117" lon="4.52113">
        <ele>669.28</ele>
        <time>2017-03-26T12:14:57Z</time>
      </trkpt>
      <trkpt lat="45.41196" lon="4.52107">
        <ele>670.84</ele>
        <time>2017-03-26T12:14:58Z</time>
      </trkpt>
      <trkpt lat="45.41221" lon="4.52102">
        <ele>672.27</ele>
        <time>2017-03-26T12:14:59Z</time>
      </trkpt>
      <trkpt lat="45.41246" lon="4.52098">
        <ele>674</ele>
        <time>2017-03-26T12:15:00Z</time>
      </trkpt>
      <trkpt lat="45.41271" lon="4.52095">
        <ele>675.86</ele>
        <time>2017-03-26T12:15:01Z</time>
      </trkpt>
      <trkpt lat="45.41294" lon="4.52087">
        <ele>677.28</ele>
        <time>2017-03-26T12:15:02Z</time>
      </trkpt>
      <trkpt lat="45.41316" lon="4.52076">
        <ele>679.08</ele>
        <time>2017-03-26T12:15:03Z</time>
      </trkpt>
      <trkpt lat="45.41336" lon="4.52064">
        <ele>681.04</ele>
        <time>2017-03-26T12:15:04Z</time>
      </trkpt>
      <trkpt lat="45.41354" lon="4.5205">
        <ele>682.63</ele>
        <time>2017-03-26T12:15:05Z</time>
      </trkpt>
      <trkpt lat="45.41371" lon="4.52037">
        <ele>683.43</ele>
        <time>2017-03-26T12:15:06Z</time>
      </trkpt>
      <trkpt lat="45.41389" lon="4.52026">
        <ele>684.39</ele>
        <time>2017-03-26T12:15:07Z</time>
      </trkpt>
      <trkpt lat="45.41409" lon="4.52016">
        <ele>685.46</ele>
        <time>2017-03-26T12:15:08Z</time>
      </trkpt>
      <trkpt lat="45.4143" lon="4.52006">
        <ele>686.8</ele>
        <time>2017-03-26T12:15:09Z</time>
      </trkpt>
      <trkpt lat="45.4145" lon="4.51995">
        <ele>688.26</ele>
        <time>2017-03-26T12:15:10Z</time>
      </trkpt>
      <trkpt lat="45.41467" lon="4.51984">
        <ele>689.68</ele>
        <time>2017-03-26T12:15:11Z</time>
      </trkpt>
      <trkpt lat="45.4148" lon="4.51976">
        <ele>690.68</ele>
        <time>2017-03-26T12:15:12Z</time>
      </trkpt>
      <trkpt lat="45.4149" lon="4.51974">
        <ele>691.28</ele>
        <time>2017-03-26T12:15:13Z</time>
      </trkpt>
      <trkpt lat="45.41496" lon="4.51977">
        <ele>691.56</ele>
        <time>2017-03-26T12:15:14Z</time>
      </trkpt>
      <trkpt lat="45.41496" lon="4.51985">
        <ele>691.86</ele>
        <time>2017-03-26T12:15:15Z</time>
      </trkpt>
      <trkpt lat="45.41493" lon="4.51992">
        <ele>692.24</ele>
        <time>2017-03-26T12:15:16Z</time>
      </trkpt>
      <trkpt lat="45.41485" lon="4.51999">
        <ele>692.23</ele>
        <time>2017-03-26T12:15:17Z</time>
      </trkpt>
      <trkpt lat="45.41475" lon="4.52006">
        <ele>692.47</ele>
        <time>2017-03-26T12:15:18Z</time>
      </trkpt>
      <trkpt lat="45.41463" lon="4.52017">
        <ele>692.6</ele>
        <time>2017-03-26T12:15:19Z</time>
      </trkpt>
      <trkpt lat="45.4145" lon="4.52031">
        <ele>692.7</ele>
        <time>2017-03-26T12:15:20Z</time>
      </trkpt>
      <trkpt lat="45.41435" lon="4.52048">
        <ele>693.76</ele>
        <time>2017-03-26T12:15:21Z</time>
      </trkpt>
      <trkpt lat="45.41419" lon="4.52066">
        <ele>695.5</ele>
        <time>2017-03-26T12:15:22Z</time>
      </trkpt>
      <trkpt lat="45.41403" lon="4.52084">
        <ele>696.72</ele>
        <time>2017-03-26T12:15:23Z</time>
      </trkpt>
      <trkpt lat="45.41387" lon="4.52102">
        <ele>697.61</ele>
        <time>2017-03-26T12:15:24Z</time>
      </trkpt>
      <trkpt lat="45.4137" lon="4.52121">
        <ele>698.75</ele>
        <time>2017-03-26T12:15:25Z</time>
      </trkpt>
      <trkpt lat="45.41352" lon="4.52143">
        <ele>699.93</ele>
        <time>2017-03-26T12:15:26Z</time>
      </trkpt>
      <trkpt lat="45.41335" lon="4.52166">
        <ele>701.13</ele>
        <time>2017-03-26T12:15:27Z</time>
      </trkpt>
      <trkpt lat="45.41317" lon="4.52191">
        <ele>702.33</ele>
        <time>2017-03-26T12:15:28Z</time>
      </trkpt>
      <trkpt lat="45.41301" lon="4.52215">
        <ele>704.01</ele>
        <time>2017-03-26T12:15:29Z</time>
      </trkpt>
      <trkpt lat="45.41285" lon="4.5224">
        <ele>705.79</ele>
        <time>2017-03-26T12:15:30Z</time>
      </trkpt>
      <trkpt lat="45.4127" lon="4.52265">
        <ele>707.5</ele>
        <time>2017-03-26T12:15:31Z</time>
      </trkpt>
      <trkpt lat="45.41256" lon="4.5229">
        <ele>709.28</ele>
        <time>2017-03-26T12:15:32Z</time>
      </trkpt>
      <trkpt lat="45.41243" lon="4.52315">
        <ele>711.08</ele>
        <time>2017-03-26T12:15:33Z</time>
      </trkpt>
      <trkpt lat="45.41229" lon="4.52338">
        <ele>712.88</ele>
        <time>2017-03-26T12:15:34Z</time>
      </trkpt>
      <trkpt lat="45.41213" lon="4.52358">
        <ele>714.76</ele>
        <time>2017-03-26T12:15:35Z</time>
      </trkpt>
      <trkpt lat="45.41197" lon="4.52374">
        <ele>716.42</ele>
        <time>2017-03-26T12:15:36Z</time>
      </trkpt>
      <trkpt lat="45.4118" lon="4.52389">
        <ele>717.87</ele>
        <time>2017-03-26T12:15:37Z</time>
      </trkpt>
      <trkpt lat="45.41165" lon="4.52401">
        <ele>719.36</ele>
        <time>2017-03-26T12:15:38Z</time>
      </trkpt>
      <trkpt lat="45.41152" lon="4.52415">
        <ele>720.3</ele>
        <time>2017-03-26T12:15:39Z</time>
      </trkpt>
      <trkpt lat="45.41144" lon="4.52431">
        <ele>721.12</ele>
        <time>2017-03-26T12:15:40Z</time>
      </trkpt>
      <trkpt lat="45.41139" lon="4.5245">
        <ele>722.01</ele>
        <time>2017-03-26T12:15:41Z</time>
      </trkpt>
      <trkpt lat="45.41136" lon="4.52471">
        <ele>722.75</ele>
        <time>2017-03-26T12:15:42Z</time>
      </trkpt>
      <trkpt lat="45.41133" lon="4.52493">
        <ele>723.45</ele>
        <time>2017-03-26T12:15:43Z</time>
      </trkpt>
      <trkpt lat="45.4113" lon="4.52516">
        <ele>724.95</ele>
        <time>2017-03-26T12:15:44Z</time>
      </trkpt>
      <trkpt lat="45.41123" lon="4.52538">
        <ele>726.53</ele>
        <time>2017-03-26T12:15:45Z</time>
      </trkpt>
      <trkpt lat="45.41111" lon="4.52557">
        <ele>728.29</ele>
        <time>2017-03-26T12:15:46Z</time>
      </trkpt>
      <trkpt lat="45.41098" lon="4.52577">
        <ele>729.84</ele>
        <time>2017-03-26T12:15:47Z</time>
      </trkpt>
      <trkpt lat="45.41085" lon="4.52598">
        <ele>732.07</ele>
        <time>2017-03-26T12:15:48Z</time>
      </trkpt>
      <trkpt lat="45.41072" lon="4.52623">
        <ele>734.04</ele>
        <time>2017-03-26T12:15:49Z</time>
      </trkpt>
      <trkpt lat="45.41062" lon="4.5265">
        <ele>735.31</ele>
        <time>2017-03-26T12:15:50Z</time>
      </trkpt>
      <trkpt lat="45.41053" lon="4.52679">
        <ele>736.53</ele>
        <time>2017-03-26T12:15:51Z</time>
      </trkpt>
      <trkpt lat="45.41047" lon="4.52709">
        <ele>737.81</ele>
        <time>2017-03-26T12:15:52Z</time>
      </trkpt>
      <trkpt lat="45.41042" lon="4.52737">
        <ele>739.11</ele>
        <time>2017-03-26T12:15:53Z</time>
      </trkpt>
      <trkpt lat="45.41039" lon="4.52764">
        <ele>740.65</ele>
        <time>2017-03-26T12:15:54Z</time>
      </trkpt>
      <trkpt lat="45.41036" lon="4.52789">
        <ele>741.91</ele>
        <time>2017-03-26T12:15:55Z</time>
      </trkpt>
      <trkpt lat="45.41032" lon="4.52812">
        <ele>742.65</ele>
        <time>2017-03-26T12:15:56Z</time>
      </trkpt>
      <trkpt lat="45.41026" lon="4.52835">
        <ele>743.83</ele>
        <time>2017-03-26T12:15:57Z</time>
      </trkpt>
      <trkpt lat="45.41019" lon="4.52859">
        <ele>745.11</ele>
        <time>2017-03-26T12:15:58Z</time>
      </trkpt>
      <trkpt lat="45.4101" lon="4.52883">
        <ele>746.57</ele>
        <time>2017-03-26T12:15:59Z</time>
      </trkpt>
      <trkpt lat="45.41001" lon="4.52906">
        <ele>748.22</ele>
        <time>2017-03-26T12:16:00Z</time>
      </trkpt>
      <trkpt lat="45.40991" lon="4.52927">
        <ele>749.75</ele>
        <time>2017-03-26T12:16:01Z</time>
      </trkpt>
      <trkpt lat="45.40983" lon="4.52945">
        <ele>751.33</ele>
        <time>2017-03-26T12:16:02Z</time>
      </trkpt>
      <trkpt lat="45.40974" lon="4.52959">
        <ele>752.37</ele>
        <time>2017-03-26T12:16:03Z</time>
      </trkpt>
      <trkpt lat="45.40964" lon="4.52968">
        <ele>752.58</ele>
        <time>2017-03-26T12:16:04Z</time>
      </trkpt>
      <trkpt lat="45.40954" lon="4.52971">
        <ele>752.62</ele>
        <time>2017-03-26T12:16:05Z</time>
      </trkpt>
      <trkpt lat="45.40947" lon="4.52966">
        <ele>753.03</ele>
        <time>2017-03-26T12:16:06Z</time>
      </trkpt>
      <trkpt lat="45.40943" lon="4.52957">
        <ele>753.83</ele>
        <time>2017-03-26T12:16:07Z</time>
      </trkpt>
      <trkpt lat="45.40945" lon="4.52945">
        <ele>754.47</ele>
        <time>2017-03-26T12:16:08Z</time>
      </trkpt>
      <trkpt lat="45.40951" lon="4.5293">
        <ele>755.24</ele>
        <time>2017-03-26T12:16:09Z</time>
      </trkpt>
      <trkpt lat="45.40957" lon="4.52912">
        <ele>755.95</ele>
        <time>2017-03-26T12:16:10Z</time>
      </trkpt>
      <trkpt lat="45.40961" lon="4.52892">
        <ele>757.13</ele>
        <time>2017-03-26T12:16:11Z</time>
      </trkpt>
      <trkpt lat="45.40961" lon="4.52872">
        <ele>758.09</ele>
        <time>2017-03-26T12:16:12Z</time>
      </trkpt>
      <trkpt lat="45.40957" lon="4.52851">
        <ele>758.28</ele>
        <time>2017-03-26T12:16:13Z</time>
      </trkpt>
      <trkpt lat="45.40949" lon="4.5283">
        <ele>758.24</ele>
        <time>2017-03-26T12:16:14Z</time>
      </trkpt>
      <trkpt lat="45.40939" lon="4.52808">
        <ele>758.79</ele>
        <time>2017-03-26T12:16:15Z</time>
      </trkpt>
      <trkpt lat="45.40927" lon="4.52786">
        <ele>759.54</ele>
        <time>2017-03-26T12:16:16Z</time>
      </trkpt>
      <trkpt lat="45.40916" lon="4.52769">
        <ele>760.25</ele>
        <time>2017-03-26T12:16:17Z</time>
      </trkpt>
      <trkpt lat="45.40905" lon="4.52755">
        <ele>761.19</ele>
        <time>2017-03-26T12:16:18Z</time>
      </trkpt>
      <trkpt lat="45.40892" lon="4.52745">
        <ele>762.1</ele>
        <time>2017-03-26T12:16:19Z</time>
      </trkpt>
      <trkpt lat="45.40877" lon="4.5274">
        <ele>763.24</ele>
        <time>2017-03-26T12:16:20Z</time>
      </trkpt>
      <trkpt lat="45.40861" lon="4.52735">
        <ele>764.35</ele>
        <time>2017-03-26T12:16:21Z</time>
      </trkpt>
      <trkpt lat="45.40843" lon="4.5273">
        <ele>765.69</ele>
        <time>2017-03-26T12:16:22Z</time>
      </trkpt>
      <trkpt lat="45.40826" lon="4.52726">
        <ele>766.68</ele>
        <time>2017-03-26T12:16:23Z</time>
      </trkpt>
      <trkpt lat="45.4081" lon="4.52726">
        <ele>767.76</ele>
        <time>2017-03-26T12:16:24Z</time>
      </trkpt>
      <trkpt lat="45.40794" lon="4.52732">
        <ele>768.86</ele>
        <time>2017-03-26T12:16:25Z</time>
      </trkpt>
      <trkpt lat="45.40779" lon="4.52743">
        <ele>769.32</ele>
        <time>2017-03-26T12:16:26Z</time>
      </trkpt>
      <trkpt lat="45.40763" lon="4.52759">
        <ele>770.21</ele>
        <time>2017-03-26T12:16:27Z</time>
      </trkpt>
      <trkpt lat="45.40746" lon="4.52778">
        <ele>771.19</ele>
        <time>2017-03-26T12:16:28Z</time>
      </trkpt>
      <trkpt lat="45.40729" lon="4.52798">
        <ele>772.42</ele>
        <time>2017-03-26T12:16:29Z</time>
      </trkpt>
      <trkpt lat="45.40711" lon="4.52816">
        <ele>773.71</ele>
        <time>2017-03-26T12:16:30Z</time>
      </trkpt>
      <trkpt lat="45.40693" lon="4.52834">
        <ele>775.09</ele>
        <time>2017-03-26T12:16:31Z</time>
      </trkpt>
      <trkpt lat="45.40675" lon="4.52852">
        <ele>776.96</ele>
        <time>2017-03-26T12:16:32Z</time>
      </trkpt>
      <trkpt lat="45.40656" lon="4.52869">
        <ele>778.62</ele>
        <time>2017-03-26T12:16:33Z</time>
      </trkpt>
      <trkpt lat="45.40639" lon="4.52885">
        <ele>780.71</ele>
        <time>2017-03-26T12:16:34Z</time>
      </trkpt>
      <trkpt lat="45.40621" lon="4.52901">
        <ele>782.81</ele>
        <time>2017-03-26T12:16:35Z</time>
      </trkpt>
      <trkpt lat="45.40604" lon="4.52915">
        <ele>784.75</ele>
        <time>2017-03-26T12:16:36Z</time>
      </trkpt>
      <trkpt lat="45.40587" lon="4.52929">
        <ele>786.49</ele>
        <time>2017-03-26T12:16:37Z</time>
      </trkpt>
      <trkpt lat="45.4057" lon="4.52943">
        <ele>788.12</ele>
        <time>2017-03-26T12:16:38Z</time>
      </trkpt>
      <trkpt lat="45.40553" lon="4.52953">
        <ele>789.97</ele>
        <time>2017-03-26T12:16:39Z</time>
      </trkpt>
      <trkpt lat="45.40534" lon="4.52959">
        <ele>791.86</ele>
        <time>2017-03-26T12:16:40Z</time>
      </trkpt>
      <trkpt lat="45.40515" lon="4.52963">
        <ele>793.84</ele>
        <time>2017-03-26T12:16:41Z</time>
      </trkpt>
      <trkpt lat="45.40495" lon="4.52966">
        <ele>795.67</ele>
        <time>2017-03-26T12:16:42Z</time>
      </trkpt>
      <trkpt lat="45.40476" lon="4.52967">
        <ele>797.48</ele>
        <time>2017-03-26T12:16:43Z</time>
      </trkpt>
      <trkpt lat="45.40457" lon="4.52969">
        <ele>799.2</ele>
        <time>2017-03-26T12:16:44Z</time>
      </trkpt>
      <trkpt lat="45.4044" lon="4.52971">
        <ele>800.98</ele>
        <time>2017-03-26T12:16:45Z</time>
      </trkpt>
      <trkpt lat="45.40424" lon="4.52974">
        <ele>802.62</ele>
        <time>2017-03-26T12:16:46Z</time>
      </trkpt>
      <trkpt lat="45.40409" lon="4.52979">
        <ele>804.23</ele>
        <time>2017-03-26T12:16:47Z</time>
      </trkpt>
      <trkpt lat="45.40396" lon="4.52986">
        <ele>805.75</ele>
        <time>2017-03-26T12:16:48Z</time>
      </trkpt>
      <trkpt lat="45.40388" lon="4.52999">
        <ele>807.33</ele>
        <time>2017-03-26T12:16:49Z</time>
      </trkpt>
      <trkpt lat="45.4038" lon="4.53014">
        <ele>808.85</ele>
        <time>2017-03-26T12:16:50Z</time>
      </trkpt>
      <trkpt lat="45.40373" lon="4.53032">
        <ele>810.43</ele>
        <time>2017-03-26T12:16:51Z</time>
      </trkpt>
      <trkpt lat="45.40368" lon="4.53052">
        <ele>812.27</ele>
        <time>2017-03-26T12:16:52Z</time>
      </trkpt>
      <trkpt lat="45.40364" lon="4.53073">
        <ele>814.48</ele>
        <time>2017-03-26T12:16:53Z</time>
      </trkpt>
      <trkpt lat="45.40357" lon="4.53093">
        <ele>816.52</ele>
        <time>2017-03-26T12:16:54Z</time>
      </trkpt>
      <trkpt lat="45.40348" lon="4.53111">
        <ele>818.37</ele>
        <time>2017-03-26T12:16:55Z</time>
      </trkpt>
      <trkpt lat="45.40337" lon="4.53128">
        <ele>819.94</ele>
        <time>2017-03-26T12:16:56Z</time>
      </trkpt>
      <trkpt lat="45.40325" lon="4.53144">
        <ele>821.53</ele>
        <time>2017-03-26T12:16:57Z</time>
      </trkpt>
      <trkpt lat="45.40312" lon="4.53159">
        <ele>822.89</ele>
        <time>2017-03-26T12:16:58Z</time>
      </trkpt>
      <trkpt lat="45.40299" lon="4.53174">
        <ele>824.2</ele>
        <time>2017-03-26T12:16:59Z</time>
      </trkpt>
      <trkpt lat="45.40286" lon="4.53189">
        <ele>825.66</ele>
        <time>2017-03-26T12:17:00Z</time>
      </trkpt>
      <trkpt lat="45.40273" lon="4.53203">
        <ele>826.84</ele>
        <time>2017-03-26T12:17:01Z</time>
      </trkpt>
      <trkpt lat="45.40259" lon="4.53216">
        <ele>827.87</ele>
        <time>2017-03-26T12:17:02Z</time>
      </trkpt>
      <trkpt lat="45.40246" lon="4.5323">
        <ele>829.12</ele>
        <time>2017-03-26T12:17:03Z</time>
      </trkpt>
      <trkpt lat="45.40233" lon="4.53244">
        <ele>830.41</ele>
        <time>2017-03-26T12:17:04Z</time>
      </trkpt>
      <trkpt lat="45.4022" lon="4.53259">
        <ele>831.63</ele>
        <time>2017-03-26T12:17:05Z</time>
      </trkpt>
      <trkpt lat="45.40208" lon="4.53274">
        <ele>832.83</ele>
        <time>2017-03-26T12:17:06Z</time>
      </trkpt>
      <trkpt lat="45.40197" lon="4.53287">
        <ele>834.11</ele>
        <time>2017-03-26T12:17:07Z</time>
      </trkpt>
      <trkpt lat="45.40185" lon="4.53299">
        <ele>835.41</ele>
        <time>2017-03-26T12:17:08Z</time>
      </trkpt>
      <trkpt lat="45.40173" lon="4.5331">
        <ele>836.79</ele>
        <time>2017-03-26T12:17:09Z</time>
      </trkpt>
      <trkpt lat="45.40158" lon="4.53316">
        <ele>838.18</ele>
        <time>2017-03-26T12:17:10Z</time>
      </trkpt>
      <trkpt lat="45.40144" lon="4.5332">
        <ele>839.82</ele>
        <time>2017-03-26T12:17:11Z</time>
      </trkpt>
      <trkpt lat="45.40128" lon="4.53321">
        <ele>841.67</ele>
        <time>2017-03-26T12:17:12Z</time>
      </trkpt>
      <trkpt lat="45.40111" lon="4.5332">
        <ele>843.56</ele>
        <time>2017-03-26T12:17:13Z</time>
      </trkpt>
      <trkpt lat="45.40094" lon="4.53315">
        <ele>845.38</ele>
        <time>2017-03-26T12:17:14Z</time>
      </trkpt>
      <trkpt lat="45.40077" lon="4.53312">
        <ele>847.02</ele>
        <time>2017-03-26T12:17:15Z</time>
      </trkpt>
      <trkpt lat="45.4006" lon="4.53313">
        <ele>848.71</ele>
        <time>2017-03-26T12:17:16Z</time>
      </trkpt>
      <trkpt lat="45.40043" lon="4.53318">
        <ele>850.33</ele>
        <time>2017-03-26T12:17:17Z</time>
      </trkpt>
      <trkpt lat="45.40026" lon="4.53325">
        <ele>851.93</ele>
        <time>2017-03-26T12:17:18Z</time>
      </trkpt>
      <trkpt lat="45.40008" lon="4.53331">
        <ele>853.45</ele>
        <time>2017-03-26T12:17:19Z</time>
      </trkpt>
      <trkpt lat="45.3999" lon="4.53335">
        <ele>855.11</ele>
        <time>2017-03-26T12:17:20Z</time>
      </trkpt>
      <trkpt lat="45.39971" lon="4.53337">
        <ele>856.81</ele>
        <time>2017-03-26T12:17:21Z</time>
      </trkpt>
      <trkpt lat="45.39952" lon="4.53337">
        <ele>858.43</ele>
        <time>2017-03-26T12:17:22Z</time>
      </trkpt>
      <trkpt lat="45.39934" lon="4.5333">
        <ele>860.27</ele>
        <time>2017-03-26T12:17:23Z</time>
      </trkpt>
      <trkpt lat="45.39916" lon="4.5332">
        <ele>862.16</ele>
        <time>2017-03-26T12:17:24Z</time>
      </trkpt>
      <trkpt lat="45.39898" lon="4.53308">
        <ele>864.06</ele>
        <time>2017-03-26T12:17:25Z</time>
      </trkpt>
      <trkpt lat="45.3988" lon="4.53297">
        <ele>865.96</ele>
        <time>2017-03-26T12:17:26Z</time>
      </trkpt>
      <trkpt lat="45.39861" lon="4.53287">
        <ele>867.86</ele>
        <time>2017-03-26T12:17:27Z</time>
      </trkpt>
      <trkpt lat="45.39841" lon="4.5328">
        <ele>869.84</ele>
        <time>2017-03-26T12:17:28Z</time>
      </trkpt>
      <trkpt lat="45.39821" lon="4.53276">
        <ele>871.75</ele>
        <time>2017-03-26T12:17:29Z</time>
      </trkpt>
      <trkpt lat="45.398" lon="4.53273">
        <ele>873.81</ele>
        <time>2017-03-26T12:17:30Z</time>
      </trkpt>
      <trkpt lat="45.3978" lon="4.53271">
        <ele>875.75</ele>
        <time>2017-03-26T12:17:31Z</time>
      </trkpt>
      <trkpt lat="45.39762" lon="4.5327">
        <ele>877.73</ele>
        <time>2017-03-26T12:17:32Z</time>
      </trkpt>
      <trkpt lat="45.39745" lon="4.53273">
        <ele>879.65</ele>
        <time>2017-03-26T12:17:33Z</time>
      </trkpt>
      <trkpt lat="45.39729" lon="4.53284">
        <ele>881.47</ele>
        <time>2017-03-26T12:17:34Z</time>
      </trkpt>
      <trkpt lat="45.39714" lon="4.533">
        <ele>883.44</ele>
        <time>2017-03-26T12:17:35Z</time>
      </trkpt>
      <trkpt lat="45.39697" lon="4.53318">
        <ele>885.27</ele>
        <time>2017-03-26T12:17:36Z</time>
      </trkpt>
      <trkpt lat="45.39683" lon="4.53337">
        <ele>887</ele>
        <time>2017-03-26T12:17:37Z</time>
      </trkpt>
      <trkpt lat="45.39666" lon="4.53355">
        <ele>888.7</ele>
        <time>2017-03-26T12:17:38Z</time>
      </trkpt>
      <trkpt lat="45.39648" lon="4.53373">
        <ele>890.56</ele>
        <time>2017-03-26T12:17:39Z</time>
      </trkpt>
      <trkpt lat="45.39636" lon="4.53394">
        <ele>892.54</ele>
        <time>2017-03-26T12:17:40Z</time>
      </trkpt>
      <trkpt lat="45.39623" lon="4.53416">
        <ele>894.53</ele>
        <time>2017-03-26T12:17:41Z</time>
      </trkpt>
      <trkpt lat="45.39607" lon="4.53438">
        <ele>896.53</ele>
        <time>2017-03-26T12:17:42Z</time>
      </trkpt>
      <trkpt lat="45.39591" lon="4.5346">
        <ele>898.45</ele>
        <time>2017-03-26T12:17:43Z</time>
      </trkpt>
      <trkpt lat="45.39578" lon="4.53484">
        <ele>900.35</ele>
        <time>2017-03-26T12:17:44Z</time>
      </trkpt>
      <trkpt lat="45.39561" lon="4.53505">
        <ele>902.17</ele>
        <time>2017-03-26T12:17:45Z</time>
      </trkpt>
      <trkpt lat="45.39546" lon="4.53527">
        <ele>903.98</ele>
        <time>2017-03-26T12:17:46Z</time>
      </trkpt>
      <trkpt lat="45.39532" lon="4.53547">
        <ele>905.86</ele>
        <time>2017-03-26T12:17:47Z</time>
      </trkpt>
      <trkpt lat="45.39517" lon="4.53565">
        <ele>907.68</ele>
        <time>2017-03-26T12:17:48Z</time>
      </trkpt>
      <trkpt lat="45.39505" lon="4.53583">
        <ele>909.24</ele>
        <time>2017-03-26T12:17:49Z</time>
      </trkpt>
      <trkpt lat="45.39496" lon="4.53603">
        <ele>910.59</ele>
        <time>2017-03-26T12:17:50Z</time>
      </trkpt>
      <trkpt lat="45.3949" lon="4.53628">
        <ele>912.22</ele>
        <time>2017-03-26T12:17:51Z</time>
      </trkpt>
      <trkpt lat="45.39486" lon="4.53656">
        <ele>913.99</ele>
        <time>2017-03-26T12:17:52Z</time>
      </trkpt>
      <trkpt lat="45.39481" lon="4.53684">
        <ele>915.62</ele>
        <time>2017-03-26T12:17:53Z</time>
      </trkpt>
      <trkpt lat="45.39474" lon="4.53712">
        <ele>917.31</ele>
        <time>2017-03-26T12:17:54Z</time>
      </trkpt>
      <trkpt lat="45.39465" lon="4.53739">
        <ele>919.01</ele>
        <time>2017-03-26T12:17:55Z</time>
      </trkpt>
      <trkpt lat="45.39455" lon="4.53765">
        <ele>920.71</ele>
        <time>2017-03-26T12:17:56Z</time>
      </trkpt>
      <trkpt lat="45.39445" lon="4.5379">
        <ele>922.49</ele>
        <time>2017-03-26T12:17:57Z</time>
      </trkpt>
      <trkpt lat="45.39435" lon="4.53814">
        <ele>924.28</ele>
        <time>2017-03-26T12:17:58Z</time>
      </trkpt>
      <trkpt lat="45.39423" lon="4.53835">
        <ele>925.92</ele>
        <time>2017-03-26T12:17:59Z</time>
      </trkpt>
      <trkpt lat="45.39409" lon="4.53854">
        <ele>927.77</ele>
        <time>2017-03-26T12:18:00Z</time>
      </trkpt>
      <trkpt lat="45.39394" lon="4.53871">
        <ele>929.66</ele>
        <time>2017-03-26T12:18:01Z</time>
      </trkpt>
      <trkpt lat="45.39378" lon="4.53885">
        <ele>931.56</ele>
        <time>2017-03-26T12:18:02Z</time>
      </trkpt>
      <trkpt lat="45.39362" lon="4.53894">
        <ele>933.38</ele>
        <time>2017-03-26T12:18:03Z</time>
      </trkpt>
      <trkpt lat="45.39345" lon="4.539">
        <ele>935.1</ele>
        <time>2017-03-26T12:18:04Z</time>
      </trkpt>
      <trkpt lat="45.39327" lon="4.53901">
        <ele>936.8</ele>
        <time>2017-03-26T12:18:05Z</time>
      </trkpt>
      <trkpt lat="45.39309" lon="4.53897">
        <ele>937.38</ele>
        <time>2017-03-26T12:18:06Z</time>
      </trkpt>
      <trkpt lat="45.39292" lon="4.53889">
        <ele>938.46</ele>
        <time>2017-03-26T12:18:07Z</time>
      </trkpt>
      <trkpt lat="45.39275" lon="4.53875">
        <ele>939.8</ele>
        <time>2017-03-26T12:18:08Z</time>
      </trkpt>
      <trkpt lat="45.39259" lon="4.53857">
        <ele>941.02</ele>
        <time>2017-03-26T12:18:09Z</time>
      </trkpt>
      <trkpt lat="45.39243" lon="4.53837">
        <ele>942.47</ele>
        <time>2017-03-26T12:18:10Z</time>
      </trkpt>
      <trkpt lat="45.39225" lon="4.53817">
        <ele>944.12</ele>
        <time>2017-03-26T12:18:11Z</time>
      </trkpt>
      <trkpt lat="45.39206" lon="4.53798">
        <ele>945.73</ele>
        <time>2017-03-26T12:18:12Z</time>
      </trkpt>
      <trkpt lat="45.39188" lon="4.53778">
        <ele>947.49</ele>
        <time>2017-03-26T12:18:13Z</time>
      </trkpt>
      <trkpt lat="45.39169" lon="4.53757">
        <ele>949.28</ele>
        <time>2017-03-26T12:18:14Z</time>
      </trkpt>
      <trkpt lat="45.39151" lon="4.53734">
        <ele>951.24</ele>
        <time>2017-03-26T12:18:15Z</time>
      </trkpt>
      <trkpt lat="45.39132" lon="4.53712">
        <ele>953.07</ele>
        <time>2017-03-26T12:18:16Z</time>
      </trkpt>
      <trkpt lat="45.39113" lon="4.5369">
        <ele>955.12</ele>
        <time>2017-03-26T12:18:17Z</time>
      </trkpt>
      <trkpt lat="45.39094" lon="4.53668">
        <ele>957.05</ele>
        <time>2017-03-26T12:18:18Z</time>
      </trkpt>
      <trkpt lat="45.39076" lon="4.53645">
        <ele>958.87</ele>
        <time>2017-03-26T12:18:19Z</time>
      </trkpt>
      <trkpt lat="45.3906" lon="4.53618">
        <ele>959.24</ele>
        <time>2017-03-26T12:18:20Z</time>
      </trkpt>
      <trkpt lat="45.39044" lon="4.53592">
        <ele>960.51</ele>
        <time>2017-03-26T12:18:21Z</time>
      </trkpt>
      <trkpt lat="45.39026" lon="4.53565">
        <ele>961.97</ele>
        <time>2017-03-26T12:18:22Z</time>
      </trkpt>
      <trkpt lat="45.39008" lon="4.53539">
        <ele>963.46</ele>
        <time>2017-03-26T12:18:23Z</time>
      </trkpt>
      <trkpt lat="45.3899" lon="4.53514">
        <ele>965.04</ele>
        <time>2017-03-26T12:18:24Z</time>
      </trkpt>
      <trkpt lat="45.38971" lon="4.5349">
        <ele>966.71</ele>
        <time>2017-03-26T12:18:25Z</time>
      </trkpt>
      <trkpt lat="45.38952" lon="4.53468">
        <ele>968.41</ele>
        <time>2017-03-26T12:18:26Z</time>
      </trkpt>
      <trkpt lat="45.38932" lon="4.53448">
        <ele>970.27</ele>
        <time>2017-03-26T12:18:27Z</time>
      </trkpt>
      <trkpt lat="45.38914" lon="4.5343">
        <ele>972.16</ele>
        <time>2017-03-26T12:18:28Z</time>
      </trkpt>
      <trkpt lat="45.38897" lon="4.53412">
        <ele>973.9</ele>
        <time>2017-03-26T12:18:29Z</time>
      </trkpt>
      <trkpt lat="45.38882" lon="4.53392">
        <ele>975.52</ele>
        <time>2017-03-26T12:18:30Z</time>
      </trkpt>
      <trkpt lat="45.3887" lon="4.5337">
        <ele>977.13</ele>
        <time>2017-03-26T12:18:31Z</time>
      </trkpt>
      <trkpt lat="45.38863" lon="4.53345">
        <ele>978.89</ele>
        <time>2017-03-26T12:18:32Z</time>
      </trkpt>
      <trkpt lat="45.38856" lon="4.53318">
        <ele>980.36</ele>
        <time>2017-03-26T12:18:33Z</time>
      </trkpt>
      <trkpt lat="45.38852" lon="4.5329">
        <ele>981.78</ele>
        <time>2017-03-26T12:18:34Z</time>
      </trkpt>
      <trkpt lat="45.38849" lon="4.53261">
        <ele>983.18</ele>
        <time>2017-03-26T12:18:35Z</time>
      </trkpt>
      <trkpt lat="45.38846" lon="4.53234">
        <ele>984.58</ele>
        <time>2017-03-26T12:18:36Z</time>
      </trkpt>
      <trkpt lat="45.38842" lon="4.53209">
        <ele>986.14</ele>
        <time>2017-03-26T12:18:37Z</time>
      </trkpt>
      <trkpt lat="45.38838" lon="4.53187">
        <ele>987.57</ele>
        <time>2017-03-26T12:18:38Z</time>
      </trkpt>
      <trkpt lat="45.38831" lon="4.53168">
        <ele>989.14</ele>
        <time>2017-03-26T12:18:39Z</time>
      </trkpt>
      <trkpt lat="45.38824" lon="4.5315">
        <ele>990.81</ele>
        <time>2017-03-26T12:18:40Z</time>
      </trkpt>
      <trkpt lat="45.38815" lon="4.53133">
        <ele>992.43</ele>
        <time>2017-03-26T12:18:41Z</time>
      </trkpt>
      <trkpt lat="45.38804" lon="4.53117">
        <ele>993.95</ele>
        <time>2017-03-26T12:18:42Z</time>
      </trkpt>
      <trkpt lat="45.38789" lon="4.53102">
        <ele>995.45</ele>
        <time>2017-03-26T12:18:43Z</time>
      </trkpt>
      <trkpt lat="45.38774" lon="4.5309">
        <ele>996.95</ele>
        <time>2017-03-26T12:18:44Z</time>
      </trkpt>
      <trkpt lat="45.38757" lon="4.53078">
        <ele>998.37</ele>
        <time>2017-03-26T12:18:45Z</time>
      </trkpt>
      <trkpt lat="45.38738" lon="4.53069">
        <ele>1000.02</ele>
        <time>2017-03-26T12:18:46Z</time>
      </trkpt>
      <trkpt lat="45.38719" lon="4.53062">
        <ele>1001.55</ele>
        <time>2017-03-26T12:18:47Z</time>
      </trkpt>
      <trkpt lat="45.38696" lon="4.53057">
        <ele>1002.97</ele>
        <time>2017-03-26T12:18:48Z</time>
      </trkpt>
      <trkpt lat="45.38674" lon="4.53051">
        <ele>1004.78</ele>
        <time>2017-03-26T12:18:49Z</time>
      </trkpt>
      <trkpt lat="45.38651" lon="4.53042">
        <ele>1006.74</ele>
        <time>2017-03-26T12:18:50Z</time>
      </trkpt>
      <trkpt lat="45.38629" lon="4.53032">
        <ele>1008.57</ele>
        <time>2017-03-26T12:18:51Z</time>
      </trkpt>
      <trkpt lat="45.38608" lon="4.53018">
        <ele>1010.38</ele>
        <time>2017-03-26T12:18:52Z</time>
      </trkpt>
      <trkpt lat="45.38589" lon="4.53001">
        <ele>1012.26</ele>
        <time>2017-03-26T12:18:53Z</time>
      </trkpt>
      <trkpt lat="45.38569" lon="4.52983">
        <ele>1014</ele>
        <time>2017-03-26T12:18:54Z</time>
      </trkpt>
      <trkpt lat="45.38548" lon="4.52965">
        <ele>1015.7</ele>
        <time>2017-03-26T12:18:55Z</time>
      </trkpt>
      <trkpt lat="45.38528" lon="4.52949">
        <ele>1017.32</ele>
        <time>2017-03-26T12:18:56Z</time>
      </trkpt>
      <trkpt lat="45.38504" lon="4.52935">
        <ele>1018.93</ele>
        <time>2017-03-26T12:18:57Z</time>
      </trkpt>
      <trkpt lat="45.38482" lon="4.52923">
        <ele>1020.61</ele>
        <time>2017-03-26T12:18:58Z</time>
      </trkpt>
      <trkpt lat="45.38458" lon="4.52914">
        <ele>1022.39</ele>
        <time>2017-03-26T12:18:59Z</time>
      </trkpt>
      <trkpt lat="45.38436" lon="4.52908">
        <ele>1024.1</ele>
        <time>2017-03-26T12:19:00Z</time>
      </trkpt>
      <trkpt lat="45.38415" lon="4.52903">
        <ele>1025.4</ele>
        <time>2017-03-26T12:19:01Z</time>
      </trkpt>
      <trkpt lat="45.38394" lon="4.52896">
        <ele>1026.86</ele>
        <time>2017-03-26T12:19:02Z</time>
      </trkpt>
      <trkpt lat="45.38375" lon="4.52887">
        <ele>1028.2</ele>
        <time>2017-03-26T12:19:03Z</time>
      </trkpt>
      <trkpt lat="45.38358" lon="4.52877">
        <ele>1029.82</ele>
        <time>2017-03-26T12:19:04Z</time>
      </trkpt>
      <trkpt lat="45.38342" lon="4.52864">
        <ele>1031.51</ele>
        <time>2017-03-26T12:19:05Z</time>
      </trkpt>
      <trkpt lat="45.38325" lon="4.5285">
        <ele>1033.05</ele>
        <time>2017-03-26T12:19:06Z</time>
      </trkpt>
      <trkpt lat="45.38307" lon="4.52837">
        <ele>1034.63</ele>
        <time>2017-03-26T12:19:07Z</time>
      </trkpt>
      <trkpt lat="45.38287" lon="4.52826">
        <ele>1036.15</ele>
        <time>2017-03-26T12:19:08Z</time>
      </trkpt>
      <trkpt lat="45.38266" lon="4.52818">
        <ele>1037.73</ele>
        <time>2017-03-26T12:19:09Z</time>
      </trkpt>
      <trkpt lat="45.38245" lon="4.52814">
        <ele>1039.41</ele>
        <time>2017-03-26T12:19:10Z</time>
      </trkpt>
      <trkpt lat="45.38223" lon="4.5281">
        <ele>1040.95</ele>
        <time>2017-03-26T12:19:11Z</time>
      </trkpt>
      <trkpt lat="45.38199" lon="4.52808">
        <ele>1042.45</ele>
        <time>2017-03-26T12:19:12Z</time>
      </trkpt>
      <trkpt lat="45.38175" lon="4.52805">
        <ele>1043.95</ele>
        <time>2017-03-26T12:19:13Z</time>
      </trkpt>
      <trkpt lat="45.38152" lon="4.52803">
        <ele>1045.53</ele>
        <time>2017-03-26T12:19:14Z</time>
      </trkpt>
      <trkpt lat="45.38124" lon="4.52804">
        <ele>1047.21</ele>
        <time>2017-03-26T12:19:15Z</time>
      </trkpt>
      <trkpt lat="45.38099" lon="4.52805">
        <ele>1048.83</ele>
        <time>2017-03-26T12:19:16Z</time>
      </trkpt>
      <trkpt lat="45.38075" lon="4.52811">
        <ele>1050.51</ele>
        <time>2017-03-26T12:19:17Z</time>
      </trkpt>
      <trkpt lat="45.38048" lon="4.52819">
        <ele>1052.37</ele>
        <time>2017-03-26T12:19:18Z</time>
      </trkpt>
      <trkpt lat="45.38024" lon="4.52824">
        <ele>1053.94</ele>
        <time>2017-03-26T12:19:19Z</time>
      </trkpt>
      <trkpt lat="45.38001" lon="4.52828">
        <ele>1055.37</ele>
        <time>2017-03-26T12:19:20Z</time>
      </trkpt>
      <trkpt lat="45.37978" lon="4.5283">
        <ele>1056.78</ele>
        <time>2017-03-26T12:19:21Z</time>
      </trkpt>
      <trkpt lat="45.37956" lon="4.52832">
        <ele>1058.1</ele>
        <time>2017-03-26T12:19:22Z</time>
      </trkpt>
      <trkpt lat="45.37934" lon="4.52834">
        <ele>1059.56</ele>
        <time>2017-03-26T12:19:23Z</time>
      </trkpt>
      <trkpt lat="45.37913" lon="4.52834">
        <ele>1061.14</ele>
        <time>2017-03-26T12:19:24Z</time>
      </trkpt>
      <trkpt lat="45.3789" lon="4.52832">
        <ele>1062.49</ele>
        <time>2017-03-26T12:19:25Z</time>
      </trkpt>
      <trkpt lat="45.37867" lon="4.52829">
        <ele>1063.72</ele>
        <time>2017-03-26T12:19:26Z</time>
      </trkpt>
      <trkpt lat="45.37844" lon="4.52825">
        <ele>1065.09</ele>
        <time>2017-03-26T12:19:27Z</time>
      </trkpt>
      <trkpt lat="45.37822" lon="4.52822">
        <ele>1066.4</ele>
        <time>2017-03-26T12:19:28Z</time>
      </trkpt>
      <trkpt lat="45.378" lon="4.52819">
        <ele>1067.86</ele>
        <time>2017-03-26T12:19:29Z</time>
      </trkpt>
      <trkpt lat="45.37778" lon="4.52815">
        <ele>1069.2</ele>
        <time>2017-03-26T12:19:30Z</time>
      </trkpt>
      <trkpt lat="45.37756" lon="4.52811">
        <ele>1070.58</ele>
        <time>2017-03-26T12:19:31Z</time>
      </trkpt>
      <trkpt lat="45.37734" lon="4.52806">
        <ele>1071.98</ele>
        <time>2017-03-26T12:19:32Z</time>
      </trkpt>
      <trkpt lat="45.37712" lon="4.52801">
        <ele>1073.46</ele>
        <time>2017-03-26T12:19:33Z</time>
      </trkpt>
      <trkpt lat="45.3769" lon="4.52795">
        <ele>1074.96</ele>
        <time>2017-03-26T12:19:34Z</time>
      </trkpt>
      <trkpt lat="45.37668" lon="4.52787">
        <ele>1076.38</ele>
        <time>2017-03-26T12:19:35Z</time>
      </trkpt>
      <trkpt lat="45.37646" lon="4.52778">
        <ele>1077.86</ele>
        <time>2017-03-26T12:19:36Z</time>
      </trkpt>
      <trkpt lat="45.37624" lon="4.52769">
        <ele>1079.28</ele>
        <time>2017-03-26T12:19:37Z</time>
      </trkpt>
      <trkpt lat="45.37602" lon="4.5276">
        <ele>1080.68</ele>
        <time>2017-03-26T12:19:38Z</time>
      </trkpt>
      <trkpt lat="45.37581" lon="4.52752">
        <ele>1082.16</ele>
        <time>2017-03-26T12:19:39Z</time>
      </trkpt>
      <trkpt lat="45.37561" lon="4.52743">
        <ele>1083.58</ele>
        <time>2017-03-26T12:19:40Z</time>
      </trkpt>
      <trkpt lat="45.37541" lon="4.52738">
        <ele>1084.98</ele>
        <time>2017-03-26T12:19:41Z</time>
      </trkpt>
      <trkpt lat="45.37521" lon="4.52734">
        <ele>1086.22</ele>
        <time>2017-03-26T12:19:42Z</time>
      </trkpt>
      <trkpt lat="45.37501" lon="4.5273">
        <ele>1087.83</ele>
        <time>2017-03-26T12:19:43Z</time>
      </trkpt>
      <trkpt lat="45.37481" lon="4.5273">
        <ele>1089.27</ele>
        <time>2017-03-26T12:19:44Z</time>
      </trkpt>
      <trkpt lat="45.3746" lon="4.52731">
        <ele>1090.6</ele>
        <time>2017-03-26T12:19:45Z</time>
      </trkpt>
      <trkpt lat="45.3744" lon="4.52732">
        <ele>1091.98</ele>
        <time>2017-03-26T12:19:46Z</time>
      </trkpt>
      <trkpt lat="45.3742" lon="4.52734">
        <ele>1093.46</ele>
        <time>2017-03-26T12:19:47Z</time>
      </trkpt>
      <trkpt lat="45.37401" lon="4.52738">
        <ele>1094.72</ele>
        <time>2017-03-26T12:19:48Z</time>
      </trkpt>
      <trkpt lat="45.3738" lon="4.52742">
        <ele>1095.85</ele>
        <time>2017-03-26T12:19:49Z</time>
      </trkpt>
      <trkpt lat="45.37358" lon="4.52747">
        <ele>1097.03</ele>
        <time>2017-03-26T12:19:50Z</time>
      </trkpt>
      <trkpt lat="45.37335" lon="4.5275">
        <ele>1098.23</ele>
        <time>2017-03-26T12:19:51Z</time>
      </trkpt>
      <trkpt lat="45.37312" lon="4.52753">
        <ele>1099.43</ele>
        <time>2017-03-26T12:19:52Z</time>
      </trkpt>
      <trkpt lat="45.37289" lon="4.52756">
        <ele>1100.55</ele>
        <time>2017-03-26T12:19:53Z</time>
      </trkpt>
      <trkpt lat="45.37267" lon="4.5276">
        <ele>1101.73</ele>
        <time>2017-03-26T12:19:54Z</time>
      </trkpt>
      <trkpt lat="45.37245" lon="4.52765">
        <ele>1102.93</ele>
        <time>2017-03-26T12:19:55Z</time>
      </trkpt>
      <trkpt lat="45.37222" lon="4.52771">
        <ele>1104.13</ele>
        <time>2017-03-26T12:19:56Z</time>
      </trkpt>
      <trkpt lat="45.37198" lon="4.52778">
        <ele>1105.25</ele>
        <time>2017-03-26T12:19:57Z</time>
      </trkpt>
      <trkpt lat="45.37174" lon="4.52786">
        <ele>1106.27</ele>
        <time>2017-03-26T12:19:58Z</time>
      </trkpt>
      <trkpt lat="45.3715" lon="4.52794">
        <ele>1107.36</ele>
        <time>2017-03-26T12:19:59Z</time>
      </trkpt>
      <trkpt lat="45.37128" lon="4.52802">
        <ele>1108.46</ele>
        <time>2017-03-26T12:20:00Z</time>
      </trkpt>
      <trkpt lat="45.37106" lon="4.52811">
        <ele>1109.48</ele>
        <time>2017-03-26T12:20:01Z</time>
      </trkpt>
      <trkpt lat="45.37084" lon="4.52818">
        <ele>1110.56</ele>
        <time>2017-03-26T12:20:02Z</time>
      </trkpt>
      <trkpt lat="45.37061" lon="4.52825">
        <ele>1111.5</ele>
        <time>2017-03-26T12:20:03Z</time>
      </trkpt>
      <trkpt lat="45.37038" lon="4.52829">
        <ele>1112.56</ele>
        <time>2017-03-26T12:20:04Z</time>
      </trkpt>
      <trkpt lat="45.37013" lon="4.52831">
        <ele>1113.74</ele>
        <time>2017-03-26T12:20:05Z</time>
      </trkpt>
      <trkpt lat="45.36989" lon="4.5283">
        <ele>1115.01</ele>
        <time>2017-03-26T12:20:06Z</time>
      </trkpt>
      <trkpt lat="45.36966" lon="4.52828">
        <ele>1116.15</ele>
        <time>2017-03-26T12:20:07Z</time>
      </trkpt>
      <trkpt lat="45.36944" lon="4.52827">
        <ele>1117.25</ele>
        <time>2017-03-26T12:20:08Z</time>
      </trkpt>
      <trkpt lat="45.36924" lon="4.52827">
        <ele>1118.27</ele>
        <time>2017-03-26T12:20:09Z</time>
      </trkpt>
      <trkpt lat="45.36907" lon="4.52826">
        <ele>1119.36</ele>
        <time>2017-03-26T12:20:10Z</time>
      </trkpt>
      <trkpt lat="45.36893" lon="4.52825">
        <ele>1120.46</ele>
        <time>2017-03-26T12:20:11Z</time>
      </trkpt>
      <trkpt lat="45.3688" lon="4.52828">
        <ele>1122.92</ele>
        <time>2017-03-26T12:20:12Z</time>
      </trkpt>
      <trkpt lat="45.36868" lon="4.52829">
        <ele>1125.33</ele>
        <time>2017-03-26T12:20:13Z</time>
      </trkpt>
      <trkpt lat="45.36857" lon="4.52831">
        <ele>1127.57</ele>
        <time>2017-03-26T12:20:14Z</time>
      </trkpt>
      <trkpt lat="45.36846" lon="4.52831">
        <ele>1128.66</ele>
        <time>2017-03-26T12:20:15Z</time>
      </trkpt>
      <trkpt lat="45.36837" lon="4.5283">
        <ele>1129.52</ele>
        <time>2017-03-26T12:20:16Z</time>
      </trkpt>
      <trkpt lat="45.36829" lon="4.52831">
        <ele>1130.73</ele>
        <time>2017-03-26T12:20:17Z</time>
      </trkpt>
      <trkpt lat="45.36823" lon="4.5283">
        <ele>1131.53</ele>
        <time>2017-03-26T12:20:18Z</time>
      </trkpt>
      <trkpt lat="45.36818" lon="4.5283">
        <ele>1132.33</ele>
        <time>2017-03-26T12:20:19Z</time>
      </trkpt>
      <trkpt lat="45.36813" lon="4.52828">
        <ele>1133.05</ele>
        <time>2017-03-26T12:20:20Z</time>
      </trkpt>
      <trkpt lat="45.36809" lon="4.52827">
        <ele>1134.07</ele>
        <time>2017-03-26T12:20:21Z</time>
      </trkpt>
      <trkpt lat="45.36806" lon="4.52825">
        <ele>1135.08</ele>
        <time>2017-03-26T12:20:22Z</time>
      </trkpt>
      <trkpt lat="45.36803" lon="4.52824">
        <ele>1136</ele>
        <time>2017-03-26T12:20:23Z</time>
      </trkpt>
      <trkpt lat="45.36801" lon="4.52824">
        <ele>1136.66</ele>
        <time>2017-03-26T12:20:24Z</time>
      </trkpt>
      <trkpt lat="45.36801" lon="4.52824">
        <ele>1137.04</ele>
        <time>2017-03-26T12:20:25Z</time>
      </trkpt>
      <trkpt lat="45.36801" lon="4.52824">
        <ele>1137.11</ele>
        <time>2017-03-26T12:20:26Z</time>
      </trkpt>
      <trkpt lat="45.36802" lon="4.52823">
        <ele>1137.21</ele>
        <time>2017-03-26T12:20:27Z</time>
      </trkpt>
      <trkpt lat="45.36802" lon="4.52823">
        <ele>1137.23</ele>
        <time>2017-03-26T12:20:28Z</time>
      </trkpt>
      <trkpt lat="45.36802" lon="4.52823">
        <ele>1137.23</ele>
        <time>2017-03-26T12:20:29Z</time>
      </trkpt>
      <trkpt lat="45.36802" lon="4.52823">
        <ele>1137.23</ele>
        <time>2017-03-26T12:20:30Z</time>
      </trkpt>
      <trkpt lat="45.36802" lon="4.52823">
        <ele>1137.23</ele>
        <time>2017-03-26T12:20:31Z</time>
      </trkpt>
      <trkpt lat="45.36802" lon="4.52823">
        <ele>1137.23</ele>
        <time>2017-03-26T12:20:32Z</time>
      </trkpt>
      <trkpt lat="45.36802" lon="4.52823">
        <ele>1137.23</ele>
        <time>2017-03-26T12:20:33Z</time>
      </trkpt>
      <trkpt lat="45.36802" lon="4.52823">
        <ele>1137.23</ele>
        <time>2017-03-26T12:20:34Z</time>
      </trkpt>
      <trkpt lat="45.36802" lon="4.52823">
        <ele>1137.23</ele>
        <time>2017-03-26T12:20:35Z</time>
      </trkpt>
      <trkpt lat="45.36802" lon="4.52823">
        <ele>1137.23</ele>
        <time>2017-03-26T12:20:36Z</time>
      </trkpt>
      <trkpt lat="45.36802" lon="4.52823">
        <ele>1137.23</ele>
        <time>2017-03-26T12:20:37Z</time>
      </trkpt>
      <trkpt lat="45.36802" lon="4.52823">
        <ele>1137.23</ele>
        <time>2017-03-26T12:20:38Z</time>
      </trkpt>
      <trkpt lat="45.36801" lon="4.52823">
        <ele>1137.55</ele>
        <time>2017-03-26T12:20:39Z</time>
      </trkpt>
      <trkpt lat="45.36799" lon="4.52823">
        <ele>1137.69</ele>
        <time>2017-03-26T12:20:40Z</time>
      </trkpt>
      <trkpt lat="45.36797" lon="4.52823">
        <ele>1137.72</ele>
        <time>2017-03-26T12:20:41Z</time>
      </trkpt>
      <trkpt lat="45.36795" lon="4.52823">
        <ele>1137.73</ele>
        <time>2017-03-26T12:20:42Z</time>
      </trkpt>
      <trkpt lat="45.36792" lon="4.52825">
        <ele>1137.73</ele>
        <time>2017-03-26T12:20:43Z</time>
      </trkpt>
      <trkpt lat="45.36789" lon="4.52827">
        <ele>1137.81</ele>
        <time>2017-03-26T12:20:44Z</time>
      </trkpt>
      <trkpt lat="45.36786" lon="4.52833">
        <ele>1137.91</ele>
        <time>2017-03-26T12:20:45Z</time>
      </trkpt>
      <trkpt lat="45.36783" lon="4.5284">
        <ele>1138.09</ele>
        <time>2017-03-26T12:20:46Z</time>
      </trkpt>
      <trkpt lat="45.3678" lon="4.52848">
        <ele>1138.2</ele>
        <time>2017-03-26T12:20:47Z</time>
      </trkpt>
      <trkpt lat="45.36778" lon="4.52858">
        <ele>1138.14</ele>
        <time>2017-03-26T12:20:48Z</time>
      </trkpt>
      <trkpt lat="45.36775" lon="4.52869">
        <ele>1137.81</ele>
        <time>2017-03-26T12:20:49Z</time>
      </trkpt>
      <trkpt lat="45.36772" lon="4.5288">
        <ele>1137.59</ele>
        <time>2017-03-26T12:20:50Z</time>
      </trkpt>
      <trkpt lat="45.36769" lon="4.52891">
        <ele>1137.46</ele>
        <time>2017-03-26T12:20:51Z</time>
      </trkpt>
      <trkpt lat="45.36765" lon="4.52903">
        <ele>1137.36</ele>
        <time>2017-03-26T12:20:52Z</time>
      </trkpt>
      <trkpt lat="45.36762" lon="4.52915">
        <ele>1137.18</ele>
        <time>2017-03-26T12:20:53Z</time>
      </trkpt>
      <trkpt lat="45.36758" lon="4.52927">
        <ele>1137.06</ele>
        <time>2017-03-26T12:20:54Z</time>
      </trkpt>
      <trkpt lat="45.36754" lon="4.52939">
        <ele>1136.88</ele>
        <time>2017-03-26T12:20:55Z</time>
      </trkpt>
      <trkpt lat="45.36749" lon="4.52952">
        <ele>1136.76</ele>
        <time>2017-03-26T12:20:56Z</time>
      </trkpt>
      <trkpt lat="45.36745" lon="4.52966">
        <ele>1136.66</ele>
        <time>2017-03-26T12:20:57Z</time>
      </trkpt>
      <trkpt lat="45.3674" lon="4.52981">
        <ele>1136.56</ele>
        <time>2017-03-26T12:20:58Z</time>
      </trkpt>
      <trkpt lat="45.36734" lon="4.52998">
        <ele>1136.22</ele>
        <time>2017-03-26T12:20:59Z</time>
      </trkpt>
      <trkpt lat="45.36729" lon="4.53016">
        <ele>1135.43</ele>
        <time>2017-03-26T12:21:00Z</time>
      </trkpt>
      <trkpt lat="45.36724" lon="4.53035">
        <ele>1134.79</ele>
        <time>2017-03-26T12:21:01Z</time>
      </trkpt>
      <trkpt lat="45.3672" lon="4.53055">
        <ele>1133.86</ele>
        <time>2017-03-26T12:21:02Z</time>
      </trkpt>
      <trkpt lat="45.36717" lon="4.53076">
        <ele>1132.72</ele>
        <time>2017-03-26T12:21:03Z</time>
      </trkpt>
      <trkpt lat="45.36714" lon="4.53099">
        <ele>1131.37</ele>
        <time>2017-03-26T12:21:04Z</time>
      </trkpt>
      <trkpt lat="45.36711" lon="4.53123">
        <ele>1130.06</ele>
        <time>2017-03-26T12:21:05Z</time>
      </trkpt>
      <trkpt lat="45.36709" lon="4.53148">
        <ele>1128.84</ele>
        <time>2017-03-26T12:21:06Z</time>
      </trkpt>
      <trkpt lat="45.36707" lon="4.53173">
        <ele>1127.55</ele>
        <time>2017-03-26T12:21:07Z</time>
      </trkpt>
      <trkpt lat="45.36704" lon="4.53199">
        <ele>1126.33</ele>
        <time>2017-03-26T12:21:08Z</time>
      </trkpt>
      <trkpt lat="45.367" lon="4.53225">
        <ele>1125.29</ele>
        <time>2017-03-26T12:21:09Z</time>
      </trkpt>
      <trkpt lat="45.36697" lon="4.5325">
        <ele>1124.04</ele>
        <time>2017-03-26T12:21:10Z</time>
      </trkpt>
      <trkpt lat="45.36693" lon="4.53274">
        <ele>1122.83</ele>
        <time>2017-03-26T12:21:11Z</time>
      </trkpt>
      <trkpt lat="45.3669" lon="4.53297">
        <ele>1121.87</ele>
        <time>2017-03-26T12:21:12Z</time>
      </trkpt>
      <trkpt lat="45.36687" lon="4.53318">
        <ele>1120.96</ele>
        <time>2017-03-26T12:21:13Z</time>
      </trkpt>
      <trkpt lat="45.36684" lon="4.53339">
        <ele>1120.54</ele>
        <time>2017-03-26T12:21:14Z</time>
      </trkpt>
      <trkpt lat="45.3668" lon="4.5336">
        <ele>1119.89</ele>
        <time>2017-03-26T12:21:15Z</time>
      </trkpt>
      <trkpt lat="45.36676" lon="4.53382">
        <ele>1119.2</ele>
        <time>2017-03-26T12:21:16Z</time>
      </trkpt>
      <trkpt lat="45.36673" lon="4.53407">
        <ele>1118.42</ele>
        <time>2017-03-26T12:21:17Z</time>
      </trkpt>
      <trkpt lat="45.36671" lon="4.53435">
        <ele>1117.63</ele>
        <time>2017-03-26T12:21:18Z</time>
      </trkpt>
      <trkpt lat="45.36668" lon="4.53465">
        <ele>1117.07</ele>
        <time>2017-03-26T12:21:19Z</time>
      </trkpt>
      <trkpt lat="45.36666" lon="4.53496">
        <ele>1116.48</ele>
        <time>2017-03-26T12:21:20Z</time>
      </trkpt>
      <trkpt lat="45.36665" lon="4.53526">
        <ele>1116.52</ele>
        <time>2017-03-26T12:21:21Z</time>
      </trkpt>
      <trkpt lat="45.36664" lon="4.53556">
        <ele>1116.53</ele>
        <time>2017-03-26T12:21:22Z</time>
      </trkpt>
      <trkpt lat="45.36663" lon="4.53585">
        <ele>1116.61</ele>
        <time>2017-03-26T12:21:23Z</time>
      </trkpt>
      <trkpt lat="45.36662" lon="4.53615">
        <ele>1116.71</ele>
        <time>2017-03-26T12:21:24Z</time>
      </trkpt>
      <trkpt lat="45.36663" lon="4.53646">
        <ele>1116.73</ele>
        <time>2017-03-26T12:21:25Z</time>
      </trkpt>
      <trkpt lat="45.36664" lon="4.53678">
        <ele>1116.57</ele>
        <time>2017-03-26T12:21:26Z</time>
      </trkpt>
      <trkpt lat="45.36667" lon="4.5371">
        <ele>1116.38</ele>
        <time>2017-03-26T12:21:27Z</time>
      </trkpt>
      <trkpt lat="45.36672" lon="4.53742">
        <ele>1116.5</ele>
        <time>2017-03-26T12:21:28Z</time>
      </trkpt>
      <trkpt lat="45.36679" lon="4.53772">
        <ele>1116.52</ele>
        <time>2017-03-26T12:21:29Z</time>
      </trkpt>
      <trkpt lat="45.36687" lon="4.53801">
        <ele>1116.45</ele>
        <time>2017-03-26T12:21:30Z</time>
      </trkpt>
      <trkpt lat="45.36698" lon="4.53828">
        <ele>1116.27</ele>
        <time>2017-03-26T12:21:31Z</time>
      </trkpt>
      <trkpt lat="45.36713" lon="4.53855">
        <ele>1116.4</ele>
        <time>2017-03-26T12:21:32Z</time>
      </trkpt>
      <trkpt lat="45.36728" lon="4.53883">
        <ele>1117.14</ele>
        <time>2017-03-26T12:21:33Z</time>
      </trkpt>
      <trkpt lat="45.36743" lon="4.5391">
        <ele>1117.85</ele>
        <time>2017-03-26T12:21:34Z</time>
      </trkpt>
      <trkpt lat="45.36758" lon="4.53937">
        <ele>1118.71</ele>
        <time>2017-03-26T12:21:35Z</time>
      </trkpt>
      <trkpt lat="45.36772" lon="4.53963">
        <ele>1119.29</ele>
        <time>2017-03-26T12:21:36Z</time>
      </trkpt>
      <trkpt lat="45.36785" lon="4.53989">
        <ele>1120.2</ele>
        <time>2017-03-26T12:21:37Z</time>
      </trkpt>
      <trkpt lat="45.36795" lon="4.54017">
        <ele>1120.94</ele>
        <time>2017-03-26T12:21:38Z</time>
      </trkpt>
      <trkpt lat="45.36801" lon="4.54046">
        <ele>1121.97</ele>
        <time>2017-03-26T12:21:39Z</time>
      </trkpt>
      <trkpt lat="45.36807" lon="4.54074">
        <ele>1123.22</ele>
        <time>2017-03-26T12:21:40Z</time>
      </trkpt>
      <trkpt lat="45.36814" lon="4.54101">
        <ele>1124.51</ele>
        <time>2017-03-26T12:21:41Z</time>
      </trkpt>
      <trkpt lat="45.36821" lon="4.54124">
        <ele>1125.89</ele>
        <time>2017-03-26T12:21:42Z</time>
      </trkpt>
      <trkpt lat="45.36832" lon="4.54146">
        <ele>1127.2</ele>
        <time>2017-03-26T12:21:43Z</time>
      </trkpt>
      <trkpt lat="45.36846" lon="4.54165">
        <ele>1128.26</ele>
        <time>2017-03-26T12:21:44Z</time>
      </trkpt>
      <trkpt lat="45.36863" lon="4.54184">
        <ele>1129.28</ele>
        <time>2017-03-26T12:21:45Z</time>
      </trkpt>
      <trkpt lat="45.36881" lon="4.54201">
        <ele>1130.52</ele>
        <time>2017-03-26T12:21:46Z</time>
      </trkpt>
      <trkpt lat="45.369" lon="4.54219">
        <ele>1132.05</ele>
        <time>2017-03-26T12:21:47Z</time>
      </trkpt>
      <trkpt lat="45.3692" lon="4.54236">
        <ele>1133.55</ele>
        <time>2017-03-26T12:21:48Z</time>
      </trkpt>
      <trkpt lat="45.36939" lon="4.54252">
        <ele>1134.81</ele>
        <time>2017-03-26T12:21:49Z</time>
      </trkpt>
      <trkpt lat="45.36959" lon="4.54268">
        <ele>1136.83</ele>
        <time>2017-03-26T12:21:50Z</time>
      </trkpt>
      <trkpt lat="45.36976" lon="4.54283">
        <ele>1138.91</ele>
        <time>2017-03-26T12:21:51Z</time>
      </trkpt>
      <trkpt lat="45.36988" lon="4.54299">
        <ele>1140.77</ele>
        <time>2017-03-26T12:21:52Z</time>
      </trkpt>
      <trkpt lat="45.37" lon="4.54317">
        <ele>1141.94</ele>
        <time>2017-03-26T12:21:53Z</time>
      </trkpt>
      <trkpt lat="45.37008" lon="4.5434">
        <ele>1143.13</ele>
        <time>2017-03-26T12:21:54Z</time>
      </trkpt>
      <trkpt lat="45.37013" lon="4.54364">
        <ele>1144.65</ele>
        <time>2017-03-26T12:21:55Z</time>
      </trkpt>
      <trkpt lat="45.37017" lon="4.54388">
        <ele>1146.15</ele>
        <time>2017-03-26T12:21:56Z</time>
      </trkpt>
      <trkpt lat="45.37022" lon="4.54409">
        <ele>1147.81</ele>
        <time>2017-03-26T12:21:57Z</time>
      </trkpt>
      <trkpt lat="45.37029" lon="4.54429">
        <ele>1149.43</ele>
        <time>2017-03-26T12:21:58Z</time>
      </trkpt>
      <trkpt lat="45.37039" lon="4.54444">
        <ele>1151.03</ele>
        <time>2017-03-26T12:21:59Z</time>
      </trkpt>
      <trkpt lat="45.37052" lon="4.54459">
        <ele>1152.47</ele>
        <time>2017-03-26T12:22:00Z</time>
      </trkpt>
      <trkpt lat="45.37065" lon="4.54473">
        <ele>1154.04</ele>
        <time>2017-03-26T12:22:01Z</time>
      </trkpt>
      <trkpt lat="45.37078" lon="4.54488">
        <ele>1155.55</ele>
        <time>2017-03-26T12:22:02Z</time>
      </trkpt>
      <trkpt lat="45.37091" lon="4.54503">
        <ele>1157.13</ele>
        <time>2017-03-26T12:22:03Z</time>
      </trkpt>
      <trkpt lat="45.37106" lon="4.54519">
        <ele>1158.81</ele>
        <time>2017-03-26T12:22:04Z</time>
      </trkpt>
      <trkpt lat="45.37123" lon="4.54534">
        <ele>1160.19</ele>
        <time>2017-03-26T12:22:05Z</time>
      </trkpt>
      <trkpt lat="45.37139" lon="4.54549">
        <ele>1161.82</ele>
        <time>2017-03-26T12:22:06Z</time>
      </trkpt>
      <trkpt lat="45.37153" lon="4.54563">
        <ele>1163.35</ele>
        <time>2017-03-26T12:22:07Z</time>
      </trkpt>
      <trkpt lat="45.37165" lon="4.54579">
        <ele>1165.01</ele>
        <time>2017-03-26T12:22:08Z</time>
      </trkpt>
      <trkpt lat="45.37178" lon="4.54593">
        <ele>1166.95</ele>
        <time>2017-03-26T12:22:09Z</time>
      </trkpt>
      <trkpt lat="45.37189" lon="4.54603">
        <ele>1168.61</ele>
        <time>2017-03-26T12:22:10Z</time>
      </trkpt>
      <trkpt lat="45.372" lon="4.5461">
        <ele>1170.07</ele>
        <time>2017-03-26T12:22:11Z</time>
      </trkpt>
      <trkpt lat="45.37212" lon="4.54618">
        <ele>1171.48</ele>
        <time>2017-03-26T12:22:12Z</time>
      </trkpt>
      <trkpt lat="45.37224" lon="4.54625">
        <ele>1172.88</ele>
        <time>2017-03-26T12:22:13Z</time>
      </trkpt>
      <trkpt lat="45.37236" lon="4.54632">
        <ele>1174.2</ele>
        <time>2017-03-26T12:22:14Z</time>
      </trkpt>
      <trkpt lat="45.37254" lon="4.54633">
        <ele>1175.5</ele>
        <time>2017-03-26T12:22:15Z</time>
      </trkpt>
      <trkpt lat="45.37272" lon="4.54636">
        <ele>1176.88</ele>
        <time>2017-03-26T12:22:16Z</time>
      </trkpt>
      <trkpt lat="45.3729" lon="4.5464">
        <ele>1178.2</ele>
        <time>2017-03-26T12:22:17Z</time>
      </trkpt>
      <trkpt lat="45.37309" lon="4.54646">
        <ele>1179.5</ele>
        <time>2017-03-26T12:22:18Z</time>
      </trkpt>
      <trkpt lat="45.37328" lon="4.54654">
        <ele>1180.72</ele>
        <time>2017-03-26T12:22:19Z</time>
      </trkpt>
      <trkpt lat="45.37345" lon="4.54661">
        <ele>1182.09</ele>
        <time>2017-03-26T12:22:20Z</time>
      </trkpt>
      <trkpt lat="45.37362" lon="4.54666">
        <ele>1183.48</ele>
        <time>2017-03-26T12:22:21Z</time>
      </trkpt>
      <trkpt lat="45.37375" lon="4.54679">
        <ele>1184.72</ele>
        <time>2017-03-26T12:22:22Z</time>
      </trkpt>
      <trkpt lat="45.37388" lon="4.54692">
        <ele>1185.93</ele>
        <time>2017-03-26T12:22:23Z</time>
      </trkpt>
      <trkpt lat="45.37399" lon="4.54707">
        <ele>1187.21</ele>
        <time>2017-03-26T12:22:24Z</time>
      </trkpt>
      <trkpt lat="45.3741" lon="4.54718">
        <ele>1188.83</ele>
        <time>2017-03-26T12:22:25Z</time>
      </trkpt>
      <trkpt lat="45.37412" lon="4.54742">
        <ele>1190.43</ele>
        <time>2017-03-26T12:22:26Z</time>
      </trkpt>
      <trkpt lat="45.37416" lon="4.54766">
        <ele>1191.63</ele>
        <time>2017-03-26T12:22:27Z</time>
      </trkpt>
      <trkpt lat="45.37416" lon="4.54791">
        <ele>1192.75</ele>
        <time>2017-03-26T12:22:28Z</time>
      </trkpt>
      <trkpt lat="45.37416" lon="4.54815">
        <ele>1194.01</ele>
        <time>2017-03-26T12:22:29Z</time>
      </trkpt>
      <trkpt lat="45.37413" lon="4.54838">
        <ele>1195.39</ele>
        <time>2017-03-26T12:22:30Z</time>
      </trkpt>
      <trkpt lat="45.3741" lon="4.54862">
        <ele>1196.78</ele>
        <time>2017-03-26T12:22:31Z</time>
      </trkpt>
      <trkpt lat="45.37404" lon="4.54882">
        <ele>1198.1</ele>
        <time>2017-03-26T12:22:32Z</time>
      </trkpt>
      <trkpt lat="45.37395" lon="4.54895">
        <ele>1199.64</ele>
        <time>2017-03-26T12:22:33Z</time>
      </trkpt>
      <trkpt lat="45.37383" lon="4.54906">
        <ele>1201.23</ele>
        <time>2017-03-26T12:22:34Z</time>
      </trkpt>
      <trkpt lat="45.3737" lon="4.54916">
        <ele>1202.75</ele>
        <time>2017-03-26T12:22:35Z</time>
      </trkpt>
      <trkpt lat="45.37356" lon="4.54924">
        <ele>1204.25</ele>
        <time>2017-03-26T12:22:36Z</time>
      </trkpt>
      <trkpt lat="45.37341" lon="4.54933">
        <ele>1205.67</ele>
        <time>2017-03-26T12:22:37Z</time>
      </trkpt>
      <trkpt lat="45.37321" lon="4.54945">
        <ele>1207.08</ele>
        <time>2017-03-26T12:22:38Z</time>
      </trkpt>
      <trkpt lat="45.37301" lon="4.54955">
        <ele>1208.56</ele>
        <time>2017-03-26T12:22:39Z</time>
      </trkpt>
      <trkpt lat="45.37285" lon="4.5497">
        <ele>1209.9</ele>
        <time>2017-03-26T12:22:40Z</time>
      </trkpt>
      <trkpt lat="45.37275" lon="4.54991">
        <ele>1211.2</ele>
        <time>2017-03-26T12:22:41Z</time>
      </trkpt>
      <trkpt lat="45.37261" lon="4.55011">
        <ele>1212.42</ele>
        <time>2017-03-26T12:22:42Z</time>
      </trkpt>
      <trkpt lat="45.37246" lon="4.55032">
        <ele>1213.63</ele>
        <time>2017-03-26T12:22:43Z</time>
      </trkpt>
      <trkpt lat="45.37226" lon="4.55053">
        <ele>1215.07</ele>
        <time>2017-03-26T12:22:44Z</time>
      </trkpt>
      <trkpt lat="45.37208" lon="4.55076">
        <ele>1216.56</ele>
        <time>2017-03-26T12:22:45Z</time>
      </trkpt>
      <trkpt lat="45.37191" lon="4.551">
        <ele>1217.9</ele>
        <time>2017-03-26T12:22:46Z</time>
      </trkpt>
      <trkpt lat="45.37176" lon="4.55124">
        <ele>1219.12</ele>
        <time>2017-03-26T12:22:47Z</time>
      </trkpt>
      <trkpt lat="45.3716" lon="4.55146">
        <ele>1220.25</ele>
        <time>2017-03-26T12:22:48Z</time>
      </trkpt>
      <trkpt lat="45.37146" lon="4.5517">
        <ele>1221.27</ele>
        <time>2017-03-26T12:22:49Z</time>
      </trkpt>
      <trkpt lat="45.37134" lon="4.55196">
        <ele>1222.28</ele>
        <time>2017-03-26T12:22:50Z</time>
      </trkpt>
      <trkpt lat="45.37125" lon="4.55223">
        <ele>1223.2</ele>
        <time>2017-03-26T12:22:51Z</time>
      </trkpt>
      <trkpt lat="45.37118" lon="4.55251">
        <ele>1224.26</ele>
        <time>2017-03-26T12:22:52Z</time>
      </trkpt>
      <trkpt lat="45.37117" lon="4.55284">
        <ele>1225.52</ele>
        <time>2017-03-26T12:22:53Z</time>
      </trkpt>
      <trkpt lat="45.37117" lon="4.55318">
        <ele>1226.73</ele>
        <time>2017-03-26T12:22:54Z</time>
      </trkpt>
      <trkpt lat="45.37117" lon="4.55356">
        <ele>1228.25</ele>
        <time>2017-03-26T12:22:55Z</time>
      </trkpt>
      <trkpt lat="45.37115" lon="4.5539">
        <ele>1229.35</ele>
        <time>2017-03-26T12:22:56Z</time>
      </trkpt>
      <trkpt lat="45.37113" lon="4.55429">
        <ele>1230.21</ele>
        <time>2017-03-26T12:22:57Z</time>
      </trkpt>
      <trkpt lat="45.37108" lon="4.55463">
        <ele>1231.03</ele>
        <time>2017-03-26T12:22:58Z</time>
      </trkpt>
      <trkpt lat="45.37102" lon="4.55494">
        <ele>1231.99</ele>
        <time>2017-03-26T12:22:59Z</time>
      </trkpt>
      <trkpt lat="45.37097" lon="4.55525">
        <ele>1232.82</ele>
        <time>2017-03-26T12:23:00Z</time>
      </trkpt>
      <trkpt lat="45.37105" lon="4.55573">
        <ele>1233.15</ele>
        <time>2017-03-26T12:23:01Z</time>
      </trkpt>
      <trkpt lat="45.37102" lon="4.55603">
        <ele>1233.69</ele>
        <time>2017-03-26T12:23:02Z</time>
      </trkpt>
      <trkpt lat="45.37101" lon="4.55633">
        <ele>1234.28</ele>
        <time>2017-03-26T12:23:03Z</time>
      </trkpt>
      <trkpt lat="45.37101" lon="4.55664">
        <ele>1234.72</ele>
        <time>2017-03-26T12:23:04Z</time>
      </trkpt>
      <trkpt lat="45.37102" lon="4.55695">
        <ele>1234.97</ele>
        <time>2017-03-26T12:23:05Z</time>
      </trkpt>
      <trkpt lat="45.37105" lon="4.55725">
        <ele>1235.26</ele>
        <time>2017-03-26T12:23:06Z</time>
      </trkpt>
      <trkpt lat="45.37112" lon="4.55755">
        <ele>1235.4</ele>
        <time>2017-03-26T12:23:07Z</time>
      </trkpt>
      <trkpt lat="45.37121" lon="4.55785">
        <ele>1235.5</ele>
        <time>2017-03-26T12:23:08Z</time>
      </trkpt>
      <trkpt lat="45.37153" lon="4.55816">
        <ele>1235.84</ele>
        <time>2017-03-26T12:23:09Z</time>
      </trkpt>
      <trkpt lat="45.37169" lon="4.55841">
        <ele>1236.63</ele>
        <time>2017-03-26T12:23:10Z</time>
      </trkpt>
      <trkpt lat="45.37184" lon="4.55866">
        <ele>1238.07</ele>
        <time>2017-03-26T12:23:11Z</time>
      </trkpt>
      <trkpt lat="45.37194" lon="4.55889">
        <ele>1238.6</ele>
        <time>2017-03-26T12:23:12Z</time>
      </trkpt>
      <trkpt lat="45.372" lon="4.55915">
        <ele>1239.1</ele>
        <time>2017-03-26T12:23:13Z</time>
      </trkpt>
      <trkpt lat="45.37207" lon="4.55939">
        <ele>1239.92</ele>
        <time>2017-03-26T12:23:14Z</time>
      </trkpt>
      <trkpt lat="45.37211" lon="4.55965">
        <ele>1240.49</ele>
        <time>2017-03-26T12:23:15Z</time>
      </trkpt>
      <trkpt lat="45.37217" lon="4.55991">
        <ele>1240.92</ele>
        <time>2017-03-26T12:23:16Z</time>
      </trkpt>
      <trkpt lat="45.37225" lon="4.56017">
        <ele>1241.25</ele>
        <time>2017-03-26T12:23:17Z</time>
      </trkpt>
      <trkpt lat="45.37237" lon="4.56042">
        <ele>1242.19</ele>
        <time>2017-03-26T12:23:18Z</time>
      </trkpt>
      <trkpt lat="45.37247" lon="4.56068">
        <ele>1242.46</ele>
        <time>2017-03-26T12:23:19Z</time>
      </trkpt>
      <trkpt lat="45.37258" lon="4.56094">
        <ele>1242.68</ele>
        <time>2017-03-26T12:23:20Z</time>
      </trkpt>
      <trkpt lat="45.37271" lon="4.5612">
        <ele>1242.88</ele>
        <time>2017-03-26T12:23:21Z</time>
      </trkpt>
      <trkpt lat="45.37285" lon="4.56145">
        <ele>1242.92</ele>
        <time>2017-03-26T12:23:22Z</time>
      </trkpt>
      <trkpt lat="45.37301" lon="4.56169">
        <ele>1243.33</ele>
        <time>2017-03-26T12:23:23Z</time>
      </trkpt>
      <trkpt lat="45.37316" lon="4.56193">
        <ele>1244.21</ele>
        <time>2017-03-26T12:23:24Z</time>
      </trkpt>
      <trkpt lat="45.3733" lon="4.56214">
        <ele>1244.87</ele>
        <time>2017-03-26T12:23:25Z</time>
      </trkpt>
      <trkpt lat="45.37344" lon="4.56234">
        <ele>1245</ele>
        <time>2017-03-26T12:23:26Z</time>
      </trkpt>
      <trkpt lat="45.37359" lon="4.56252">
        <ele>1245.9</ele>
        <time>2017-03-26T12:23:27Z</time>
      </trkpt>
      <trkpt lat="45.37374" lon="4.56269">
        <ele>1246.72</ele>
        <time>2017-03-26T12:23:28Z</time>
      </trkpt>
      <trkpt lat="45.3739" lon="4.56283">
        <ele>1247.69</ele>
        <time>2017-03-26T12:23:29Z</time>
      </trkpt>
      <trkpt lat="45.37406" lon="4.56294">
        <ele>1248.76</ele>
        <time>2017-03-26T12:23:30Z</time>
      </trkpt>
      <trkpt lat="45.37424" lon="4.56303">
        <ele>1249.78</ele>
        <time>2017-03-26T12:23:31Z</time>
      </trkpt>
      <trkpt lat="45.37444" lon="4.56311">
        <ele>1250.62</ele>
        <time>2017-03-26T12:23:32Z</time>
      </trkpt>
      <trkpt lat="45.37464" lon="4.56318">
        <ele>1251.35</ele>
        <time>2017-03-26T12:23:33Z</time>
      </trkpt>
      <trkpt lat="45.37486" lon="4.56322">
        <ele>1252.45</ele>
        <time>2017-03-26T12:23:34Z</time>
      </trkpt>
      <trkpt lat="45.37508" lon="4.5633">
        <ele>1253.07</ele>
        <time>2017-03-26T12:23:35Z</time>
      </trkpt>
      <trkpt lat="45.37528" lon="4.56342">
        <ele>1253.84</ele>
        <time>2017-03-26T12:23:36Z</time>
      </trkpt>
      <trkpt lat="45.37548" lon="4.56352">
        <ele>1254.79</ele>
        <time>2017-03-26T12:23:37Z</time>
      </trkpt>
      <trkpt lat="45.37569" lon="4.56362">
        <ele>1255.78</ele>
        <time>2017-03-26T12:23:38Z</time>
      </trkpt>
      <trkpt lat="45.3759" lon="4.5637">
        <ele>1256.78</ele>
        <time>2017-03-26T12:23:39Z</time>
      </trkpt>
      <trkpt lat="45.37611" lon="4.56378">
        <ele>1257.78</ele>
        <time>2017-03-26T12:23:40Z</time>
      </trkpt>
      <trkpt lat="45.3763" lon="4.56388">
        <ele>1258.86</ele>
        <time>2017-03-26T12:23:41Z</time>
      </trkpt>
      <trkpt lat="45.3765" lon="4.56399">
        <ele>1259.8</ele>
        <time>2017-03-26T12:23:42Z</time>
      </trkpt>
      <trkpt lat="45.3767" lon="4.56414">
        <ele>1260.94</ele>
        <time>2017-03-26T12:23:43Z</time>
      </trkpt>
      <trkpt lat="45.37689" lon="4.5643">
        <ele>1262.13</ele>
        <time>2017-03-26T12:23:44Z</time>
      </trkpt>
      <trkpt lat="45.37709" lon="4.56448">
        <ele>1263.49</ele>
        <time>2017-03-26T12:23:45Z</time>
      </trkpt>
      <trkpt lat="45.37729" lon="4.56466">
        <ele>1264.96</ele>
        <time>2017-03-26T12:23:46Z</time>
      </trkpt>
      <trkpt lat="45.3775" lon="4.56484">
        <ele>1266.38</ele>
        <time>2017-03-26T12:23:47Z</time>
      </trkpt>
      <trkpt lat="45.3777" lon="4.56499">
        <ele>1267.62</ele>
        <time>2017-03-26T12:23:48Z</time>
      </trkpt>
      <trkpt lat="45.3779" lon="4.56514">
        <ele>1268.83</ele>
        <time>2017-03-26T12:23:49Z</time>
      </trkpt>
      <trkpt lat="45.37808" lon="4.56527">
        <ele>1270.03</ele>
        <time>2017-03-26T12:23:50Z</time>
      </trkpt>
      <trkpt lat="45.37825" lon="4.56537">
        <ele>1271.31</ele>
        <time>2017-03-26T12:23:51Z</time>
      </trkpt>
      <trkpt lat="45.3784" lon="4.56543">
        <ele>1272.61</ele>
        <time>2017-03-26T12:23:52Z</time>
      </trkpt>
      <trkpt lat="45.37856" lon="4.56542">
        <ele>1274.07</ele>
        <time>2017-03-26T12:23:53Z</time>
      </trkpt>
      <trkpt lat="45.37869" lon="4.5654">
        <ele>1275.48</ele>
        <time>2017-03-26T12:23:54Z</time>
      </trkpt>
      <trkpt lat="45.3788" lon="4.56536">
        <ele>1277.2</ele>
        <time>2017-03-26T12:23:55Z</time>
      </trkpt>
      <trkpt lat="45.37891" lon="4.56531">
        <ele>1278.9</ele>
        <time>2017-03-26T12:23:56Z</time>
      </trkpt>
      <trkpt lat="45.37902" lon="4.56528">
        <ele>1280.68</ele>
        <time>2017-03-26T12:23:57Z</time>
      </trkpt>
      <trkpt lat="45.37913" lon="4.56519">
        <ele>1282.56</ele>
        <time>2017-03-26T12:23:58Z</time>
      </trkpt>
      <trkpt lat="45.37924" lon="4.56511">
        <ele>1284.3</ele>
        <time>2017-03-26T12:23:59Z</time>
      </trkpt>
      <trkpt lat="45.37935" lon="4.56501">
        <ele>1286</ele>
        <time>2017-03-26T12:24:00Z</time>
      </trkpt>
      <trkpt lat="45.37936" lon="4.56483">
        <ele>1288.02</ele>
        <time>2017-03-26T12:24:01Z</time>
      </trkpt>
      <trkpt lat="45.37937" lon="4.56461">
        <ele>1290.19</ele>
        <time>2017-03-26T12:24:02Z</time>
      </trkpt>
      <trkpt lat="45.37942" lon="4.56436">
        <ele>1292.54</ele>
        <time>2017-03-26T12:24:03Z</time>
      </trkpt>
      <trkpt lat="45.37933" lon="4.564">
        <ele>1295.17</ele>
        <time>2017-03-26T12:24:04Z</time>
      </trkpt>
      <trkpt lat="45.37934" lon="4.56373">
        <ele>1297.38</ele>
        <time>2017-03-26T12:24:05Z</time>
      </trkpt>
      <trkpt lat="45.37948" lon="4.56357">
        <ele>1299.18</ele>
        <time>2017-03-26T12:24:06Z</time>
      </trkpt>
      <trkpt lat="45.37961" lon="4.5634">
        <ele>1300.9</ele>
        <time>2017-03-26T12:24:07Z</time>
      </trkpt>
      <trkpt lat="45.37973" lon="4.56324">
        <ele>1302.6</ele>
        <time>2017-03-26T12:24:08Z</time>
      </trkpt>
      <trkpt lat="45.37968" lon="4.56317">
        <ele>1302.94</ele>
        <time>2017-03-26T12:24:09Z</time>
      </trkpt>
      <trkpt lat="45.37985" lon="4.56333">
        <ele>1303.97</ele>
        <time>2017-03-26T12:24:10Z</time>
      </trkpt>
      <trkpt lat="45.37977" lon="4.56323">
        <ele>1303.06</ele>
        <time>2017-03-26T12:24:11Z</time>
      </trkpt>
      <trkpt lat="45.3799" lon="4.56335">
        <ele>1303.6</ele>
        <time>2017-03-26T12:24:12Z</time>
      </trkpt>
      <trkpt lat="45.37996" lon="4.56338">
        <ele>1305.62</ele>
        <time>2017-03-26T12:24:13Z</time>
      </trkpt>
      <trkpt lat="45.38008" lon="4.56354">
        <ele>1306.91</ele>
        <time>2017-03-26T12:24:14Z</time>
      </trkpt>
      <trkpt lat="45.38017" lon="4.56372">
        <ele>1308.29</ele>
        <time>2017-03-26T12:24:15Z</time>
      </trkpt>
      <trkpt lat="45.38024" lon="4.56397">
        <ele>1309.6</ele>
        <time>2017-03-26T12:24:16Z</time>
      </trkpt>
      <trkpt lat="45.38024" lon="4.56426">
        <ele>1311.14</ele>
        <time>2017-03-26T12:24:17Z</time>
      </trkpt>
      <trkpt lat="45.38028" lon="4.56457">
        <ele>1312.57</ele>
        <time>2017-03-26T12:24:18Z</time>
      </trkpt>
      <trkpt lat="45.3803" lon="4.56489">
        <ele>1313.42</ele>
        <time>2017-03-26T12:24:19Z</time>
      </trkpt>
      <trkpt lat="45.38035" lon="4.56519">
        <ele>1314.23</ele>
        <time>2017-03-26T12:24:20Z</time>
      </trkpt>
      <trkpt lat="45.38038" lon="4.56546">
        <ele>1315.11</ele>
        <time>2017-03-26T12:24:21Z</time>
      </trkpt>
      <trkpt lat="45.38046" lon="4.5657">
        <ele>1316.25</ele>
        <time>2017-03-26T12:24:22Z</time>
      </trkpt>
      <trkpt lat="45.38057" lon="4.56592">
        <ele>1317.19</ele>
        <time>2017-03-26T12:24:23Z</time>
      </trkpt>
      <trkpt lat="45.38071" lon="4.56612">
        <ele>1318.26</ele>
        <time>2017-03-26T12:24:24Z</time>
      </trkpt>
      <trkpt lat="45.38091" lon="4.56623">
        <ele>1319.36</ele>
        <time>2017-03-26T12:24:25Z</time>
      </trkpt>
      <trkpt lat="45.3811" lon="4.56636">
        <ele>1320.46</ele>
        <time>2017-03-26T12:24:26Z</time>
      </trkpt>
      <trkpt lat="45.38129" lon="4.5665">
        <ele>1321.64</ele>
        <time>2017-03-26T12:24:27Z</time>
      </trkpt>
      <trkpt lat="45.38149" lon="4.56664">
        <ele>1322.99</ele>
        <time>2017-03-26T12:24:28Z</time>
      </trkpt>
      <trkpt lat="45.38169" lon="4.56679">
        <ele>1324.06</ele>
        <time>2017-03-26T12:24:29Z</time>
      </trkpt>
      <trkpt lat="45.38188" lon="4.56693">
        <ele>1325.24</ele>
        <time>2017-03-26T12:24:30Z</time>
      </trkpt>
      <trkpt lat="45.38207" lon="4.56709">
        <ele>1326.11</ele>
        <time>2017-03-26T12:24:31Z</time>
      </trkpt>
      <trkpt lat="45.38225" lon="4.56725">
        <ele>1326.53</ele>
        <time>2017-03-26T12:24:32Z</time>
      </trkpt>
      <trkpt lat="45.38242" lon="4.56743">
        <ele>1326.45</ele>
        <time>2017-03-26T12:24:33Z</time>
      </trkpt>
      <trkpt lat="45.38259" lon="4.5676">
        <ele>1326.35</ele>
        <time>2017-03-26T12:24:34Z</time>
      </trkpt>
      <trkpt lat="45.38276" lon="4.56776">
        <ele>1326.57</ele>
        <time>2017-03-26T12:24:35Z</time>
      </trkpt>
      <trkpt lat="45.38292" lon="4.56792">
        <ele>1326.78</ele>
        <time>2017-03-26T12:24:36Z</time>
      </trkpt>
      <trkpt lat="45.38308" lon="4.56807">
        <ele>1326.98</ele>
        <time>2017-03-26T12:24:37Z</time>
      </trkpt>
      <trkpt lat="45.38323" lon="4.56821">
        <ele>1327.42</ele>
        <time>2017-03-26T12:24:38Z</time>
      </trkpt>
      <trkpt lat="45.38339" lon="4.56833">
        <ele>1327.75</ele>
        <time>2017-03-26T12:24:39Z</time>
      </trkpt>
      <trkpt lat="45.38355" lon="4.56844">
        <ele>1328.21</ele>
        <time>2017-03-26T12:24:40Z</time>
      </trkpt>
      <trkpt lat="45.38372" lon="4.56851">
        <ele>1328.95</ele>
        <time>2017-03-26T12:24:41Z</time>
      </trkpt>
      <trkpt lat="45.38393" lon="4.56849">
        <ele>1329.41</ele>
        <time>2017-03-26T12:24:42Z</time>
      </trkpt>
      <trkpt lat="45.38412" lon="4.56846">
        <ele>1330.07</ele>
        <time>2017-03-26T12:24:43Z</time>
      </trkpt>
      <trkpt lat="45.38432" lon="4.5684">
        <ele>1330.6</ele>
        <time>2017-03-26T12:24:44Z</time>
      </trkpt>
      <trkpt lat="45.38453" lon="4.56836">
        <ele>1331.1</ele>
        <time>2017-03-26T12:24:45Z</time>
      </trkpt>
      <trkpt lat="45.38472" lon="4.56834">
        <ele>1331.28</ele>
        <time>2017-03-26T12:24:46Z</time>
      </trkpt>
      <trkpt lat="45.3849" lon="4.56836">
        <ele>1331.24</ele>
        <time>2017-03-26T12:24:47Z</time>
      </trkpt>
      <trkpt lat="45.38505" lon="4.5684">
        <ele>1330.91</ele>
        <time>2017-03-26T12:24:48Z</time>
      </trkpt>
      <trkpt lat="45.38519" lon="4.56847">
        <ele>1330.53</ele>
        <time>2017-03-26T12:24:49Z</time>
      </trkpt>
      <trkpt lat="45.38528" lon="4.56863">
        <ele>1329.97</ele>
        <time>2017-03-26T12:24:50Z</time>
      </trkpt>
      <trkpt lat="45.38539" lon="4.56882">
        <ele>1329.54</ele>
        <time>2017-03-26T12:24:51Z</time>
      </trkpt>
      <trkpt lat="45.38549" lon="4.56904">
        <ele>1329.05</ele>
        <time>2017-03-26T12:24:52Z</time>
      </trkpt>
      <trkpt lat="45.3856" lon="4.56928">
        <ele>1328.55</ele>
        <time>2017-03-26T12:24:53Z</time>
      </trkpt>
      <trkpt lat="45.3857" lon="4.56954">
        <ele>1327.97</ele>
        <time>2017-03-26T12:24:54Z</time>
      </trkpt>
      <trkpt lat="45.3858" lon="4.56981">
        <ele>1327.46</ele>
        <time>2017-03-26T12:24:55Z</time>
      </trkpt>
      <trkpt lat="45.38589" lon="4.57009">
        <ele>1326.64</ele>
        <time>2017-03-26T12:24:56Z</time>
      </trkpt>
      <trkpt lat="45.38598" lon="4.57036">
        <ele>1325.75</ele>
        <time>2017-03-26T12:24:57Z</time>
      </trkpt>
      <trkpt lat="45.38605" lon="4.57064">
        <ele>1324.93</ele>
        <time>2017-03-26T12:24:58Z</time>
      </trkpt>
      <trkpt lat="45.38609" lon="4.57092">
        <ele>1324.13</ele>
        <time>2017-03-26T12:24:59Z</time>
      </trkpt>
      <trkpt lat="45.38611" lon="4.57122">
        <ele>1323.25</ele>
        <time>2017-03-26T12:25:00Z</time>
      </trkpt>
      <trkpt lat="45.38611" lon="4.57154">
        <ele>1322.19</ele>
        <time>2017-03-26T12:25:01Z</time>
      </trkpt>
      <trkpt lat="45.3861" lon="4.57189">
        <ele>1320.78</ele>
        <time>2017-03-26T12:25:02Z</time>
      </trkpt>
      <trkpt lat="45.38608" lon="4.57225">
        <ele>1319.22</ele>
        <time>2017-03-26T12:25:03Z</time>
      </trkpt>
      <trkpt lat="45.38607" lon="4.57261">
        <ele>1317.63</ele>
        <time>2017-03-26T12:25:04Z</time>
      </trkpt>
      <trkpt lat="45.38606" lon="4.57297">
        <ele>1316.35</ele>
        <time>2017-03-26T12:25:05Z</time>
      </trkpt>
      <trkpt lat="45.38605" lon="4.57332">
        <ele>1315.21</ele>
        <time>2017-03-26T12:25:06Z</time>
      </trkpt>
      <trkpt lat="45.38605" lon="4.57366">
        <ele>1313.95</ele>
        <time>2017-03-26T12:25:07Z</time>
      </trkpt>
      <trkpt lat="45.38606" lon="4.574">
        <ele>1312.41</ele>
        <time>2017-03-26T12:25:08Z</time>
      </trkpt>
      <trkpt lat="45.38608" lon="4.57433">
        <ele>1310.99</ele>
        <time>2017-03-26T12:25:09Z</time>
      </trkpt>
      <trkpt lat="45.38611" lon="4.57464">
        <ele>1309.5</ele>
        <time>2017-03-26T12:25:10Z</time>
      </trkpt>
      <trkpt lat="45.38618" lon="4.57493">
        <ele>1307.92</ele>
        <time>2017-03-26T12:25:11Z</time>
      </trkpt>
      <trkpt lat="45.38626" lon="4.5752">
        <ele>1306.41</ele>
        <time>2017-03-26T12:25:12Z</time>
      </trkpt>
      <trkpt lat="45.38635" lon="4.57544">
        <ele>1304.83</ele>
        <time>2017-03-26T12:25:13Z</time>
      </trkpt>
      <trkpt lat="45.38649" lon="4.57565">
        <ele>1303.23</ele>
        <time>2017-03-26T12:25:14Z</time>
      </trkpt>
      <trkpt lat="45.38664" lon="4.57583">
        <ele>1301.79</ele>
        <time>2017-03-26T12:25:15Z</time>
      </trkpt>
      <trkpt lat="45.38681" lon="4.57599">
        <ele>1300.22</ele>
        <time>2017-03-26T12:25:16Z</time>
      </trkpt>
      <trkpt lat="45.387" lon="4.57613">
        <ele>1298.95</ele>
        <time>2017-03-26T12:25:17Z</time>
      </trkpt>
      <trkpt lat="45.38719" lon="4.57626">
        <ele>1297.73</ele>
        <time>2017-03-26T12:25:18Z</time>
      </trkpt>
      <trkpt lat="45.38741" lon="4.57634">
        <ele>1296.29</ele>
        <time>2017-03-26T12:25:19Z</time>
      </trkpt>
      <trkpt lat="45.38763" lon="4.5764">
        <ele>1294.72</ele>
        <time>2017-03-26T12:25:20Z</time>
      </trkpt>
      <trkpt lat="45.38786" lon="4.57643">
        <ele>1293.21</ele>
        <time>2017-03-26T12:25:21Z</time>
      </trkpt>
      <trkpt lat="45.38809" lon="4.57642">
        <ele>1291.71</ele>
        <time>2017-03-26T12:25:22Z</time>
      </trkpt>
      <trkpt lat="45.38831" lon="4.57638">
        <ele>1290.21</ele>
        <time>2017-03-26T12:25:23Z</time>
      </trkpt>
      <trkpt lat="45.38853" lon="4.57633">
        <ele>1288.95</ele>
        <time>2017-03-26T12:25:24Z</time>
      </trkpt>
      <trkpt lat="45.38874" lon="4.57627">
        <ele>1287.41</ele>
        <time>2017-03-26T12:25:25Z</time>
      </trkpt>
      <trkpt lat="45.38894" lon="4.57622">
        <ele>1286.31</ele>
        <time>2017-03-26T12:25:26Z</time>
      </trkpt>
      <trkpt lat="45.38914" lon="4.57616">
        <ele>1285.29</ele>
        <time>2017-03-26T12:25:27Z</time>
      </trkpt>
      <trkpt lat="45.38934" lon="4.57609">
        <ele>1284.04</ele>
        <time>2017-03-26T12:25:28Z</time>
      </trkpt>
      <trkpt lat="45.38953" lon="4.57604">
        <ele>1282.91</ele>
        <time>2017-03-26T12:25:29Z</time>
      </trkpt>
      <trkpt lat="45.38971" lon="4.57598">
        <ele>1282.21</ele>
        <time>2017-03-26T12:25:30Z</time>
      </trkpt>
      <trkpt lat="45.38989" lon="4.57591">
        <ele>1281.35</ele>
        <time>2017-03-26T12:25:31Z</time>
      </trkpt>
      <trkpt lat="45.39005" lon="4.57585">
        <ele>1280.45</ele>
        <time>2017-03-26T12:25:32Z</time>
      </trkpt>
      <trkpt lat="45.39021" lon="4.57578">
        <ele>1279.79</ele>
        <time>2017-03-26T12:25:33Z</time>
      </trkpt>
      <trkpt lat="45.39038" lon="4.57573">
        <ele>1279.18</ele>
        <time>2017-03-26T12:25:34Z</time>
      </trkpt>
      <trkpt lat="45.39055" lon="4.57568">
        <ele>1278.42</ele>
        <time>2017-03-26T12:25:35Z</time>
      </trkpt>
      <trkpt lat="45.39072" lon="4.57562">
        <ele>1276.75</ele>
        <time>2017-03-26T12:25:36Z</time>
      </trkpt>
      <trkpt lat="45.3909" lon="4.57556">
        <ele>1274.97</ele>
        <time>2017-03-26T12:25:37Z</time>
      </trkpt>
      <trkpt lat="45.39106" lon="4.57549">
        <ele>1273.98</ele>
        <time>2017-03-26T12:25:38Z</time>
      </trkpt>
      <trkpt lat="45.39122" lon="4.57543">
        <ele>1272.82</ele>
        <time>2017-03-26T12:25:39Z</time>
      </trkpt>
      <trkpt lat="45.39136" lon="4.57537">
        <ele>1272.03</ele>
        <time>2017-03-26T12:25:40Z</time>
      </trkpt>
      <trkpt lat="45.3915" lon="4.57534">
        <ele>1271.63</ele>
        <time>2017-03-26T12:25:41Z</time>
      </trkpt>
      <trkpt lat="45.39163" lon="4.57532">
        <ele>1270.99</ele>
        <time>2017-03-26T12:25:42Z</time>
      </trkpt>
      <trkpt lat="45.39174" lon="4.57531">
        <ele>1269.98</ele>
        <time>2017-03-26T12:25:43Z</time>
      </trkpt>
      <trkpt lat="45.39185" lon="4.57531">
        <ele>1269.14</ele>
        <time>2017-03-26T12:25:44Z</time>
      </trkpt>
      <trkpt lat="45.39195" lon="4.57531">
        <ele>1268.25</ele>
        <time>2017-03-26T12:25:45Z</time>
      </trkpt>
      <trkpt lat="45.39204" lon="4.57532">
        <ele>1267.59</ele>
        <time>2017-03-26T12:25:46Z</time>
      </trkpt>
      <trkpt lat="45.39212" lon="4.57531">
        <ele>1267.46</ele>
        <time>2017-03-26T12:25:47Z</time>
      </trkpt>
      <trkpt lat="45.39218" lon="4.57529">
        <ele>1267.12</ele>
        <time>2017-03-26T12:25:48Z</time>
      </trkpt>
      <trkpt lat="45.3922" lon="4.57527">
        <ele>1266.89</ele>
        <time>2017-03-26T12:25:49Z</time>
      </trkpt>
      <trkpt lat="45.39221" lon="4.57525">
        <ele>1266.36</ele>
        <time>2017-03-26T12:25:50Z</time>
      </trkpt>
      <trkpt lat="45.39221" lon="4.57523">
        <ele>1265.78</ele>
        <time>2017-03-26T12:25:51Z</time>
      </trkpt>
      <trkpt lat="45.39221" lon="4.57523">
        <ele>1265.26</ele>
        <time>2017-03-26T12:25:52Z</time>
      </trkpt>
      <trkpt lat="45.39221" lon="4.57523">
        <ele>1264.68</ele>
        <time>2017-03-26T12:25:53Z</time>
      </trkpt>
      <trkpt lat="45.39221" lon="4.57523">
        <ele>1264.56</ele>
        <time>2017-03-26T12:25:54Z</time>
      </trkpt>
      <trkpt lat="45.39221" lon="4.57523">
        <ele>1264.54</ele>
        <time>2017-03-26T12:25:55Z</time>
      </trkpt>
      <trkpt lat="45.39221" lon="4.57523">
        <ele>1264.53</ele>
        <time>2017-03-26T12:25:56Z</time>
      </trkpt>
      <trkpt lat="45.39221" lon="4.57523">
        <ele>1264.53</ele>
        <time>2017-03-26T12:25:57Z</time>
      </trkpt>
      <trkpt lat="45.39221" lon="4.57523">
        <ele>1264.53</ele>
        <time>2017-03-26T12:25:58Z</time>
      </trkpt>
      <trkpt lat="45.39221" lon="4.57523">
        <ele>1264.53</ele>
        <time>2017-03-26T12:25:59Z</time>
      </trkpt>
      <trkpt lat="45.39221" lon="4.57523">
        <ele>1264.53</ele>
        <time>2017-03-26T12:26:00Z</time>
      </trkpt>
      <trkpt lat="45.39221" lon="4.57523">
        <ele>1264.53</ele>
        <time>2017-03-26T12:26:01Z</time>
      </trkpt>
      <trkpt lat="45.39221" lon="4.57523">
        <ele>1264.53</ele>
        <time>2017-03-26T12:26:02Z</time>
      </trkpt>
      <trkpt lat="45.39221" lon="4.57523">
        <ele>1264.53</ele>
        <time>2017-03-26T12:26:03Z</time>
      </trkpt>
      <trkpt lat="45.39221" lon="4.57523">
        <ele>1264.53</ele>
        <time>2017-03-26T12:26:04Z</time>
      </trkpt>
      <trkpt lat="45.39221" lon="4.57523">
        <ele>1264.53</ele>
        <time>2017-03-26T12:26:05Z</time>
      </trkpt>
      <trkpt lat="45.39221" lon="4.57523">
        <ele>1264.53</ele>
        <time>2017-03-26T12:26:06Z</time>
      </trkpt>
      <trkpt lat="45.39221" lon="4.57523">
        <ele>1264.53</ele>
        <time>2017-03-26T12:26:07Z</time>
      </trkpt>
      <trkpt lat="45.39221" lon="4.57523">
        <ele>1264.53</ele>
        <time>2017-03-26T12:26:08Z</time>
      </trkpt>
      <trkpt lat="45.39221" lon="4.57523">
        <ele>1264.53</ele>
        <time>2017-03-26T12:26:09Z</time>
      </trkpt>
      <trkpt lat="45.39221" lon="4.57523">
        <ele>1264.53</ele>
        <time>2017-03-26T12:26:10Z</time>
      </trkpt>
      <trkpt lat="45.39221" lon="4.57523">
        <ele>1264.53</ele>
        <time>2017-03-26T12:26:11Z</time>
      </trkpt>
      <trkpt lat="45.39221" lon="4.57523">
        <ele>1264.53</ele>
        <time>2017-03-26T12:26:12Z</time>
      </trkpt>
      <trkpt lat="45.39221" lon="4.57523">
        <ele>1264.53</ele>
        <time>2017-03-26T12:26:13Z</time>
      </trkpt>
      <trkpt lat="45.39221" lon="4.57523">
        <ele>1264.53</ele>
        <time>2017-03-26T12:26:14Z</time>
      </trkpt>
      <trkpt lat="45.39221" lon="4.57523">
        <ele>1264.53</ele>
        <time>2017-03-26T12:26:15Z</time>
      </trkpt>
      <trkpt lat="45.39221" lon="4.57523">
        <ele>1264.53</ele>
        <time>2017-03-26T12:26:16Z</time>
      </trkpt>
      <trkpt lat="45.39221" lon="4.57523">
        <ele>1264.53</ele>
        <time>2017-03-26T12:26:17Z</time>
      </trkpt>
      <trkpt lat="45.39221" lon="4.57523">
        <ele>1264.53</ele>
        <time>2017-03-26T12:26:18Z</time>
      </trkpt>
      <trkpt lat="45.39221" lon="4.57523">
        <ele>1264.53</ele>
        <time>2017-03-26T12:26:19Z</time>
      </trkpt>
      <trkpt lat="45.39221" lon="4.57523">
        <ele>1264.53</ele>
        <time>2017-03-26T12:26:20Z</time>
      </trkpt>
      <trkpt lat="45.39221" lon="4.57523">
        <ele>1264.53</ele>
        <time>2017-03-26T12:26:21Z</time>
      </trkpt>
      <trkpt lat="45.39221" lon="4.57523">
        <ele>1264.53</ele>
        <time>2017-03-26T12:26:22Z</time>
      </trkpt>
      <trkpt lat="45.39221" lon="4.57523">
        <ele>1264.53</ele>
        <time>2017-03-26T12:26:23Z</time>
      </trkpt>
      <trkpt lat="45.39221" lon="4.57523">
        <ele>1264.53</ele>
        <time>2017-03-26T12:26:24Z</time>
      </trkpt>
      <trkpt lat="45.39221" lon="4.57523">
        <ele>1264.53</ele>
        <time>2017-03-26T12:26:25Z</time>
      </trkpt>
      <trkpt lat="45.39221" lon="4.57523">
        <ele>1264.53</ele>
        <time>2017-03-26T12:26:26Z</time>
      </trkpt>
      <trkpt lat="45.39221" lon="4.57523">
        <ele>1264.53</ele>
        <time>2017-03-26T12:26:27Z</time>
      </trkpt>
      <trkpt lat="45.39221" lon="4.57523">
        <ele>1264.53</ele>
        <time>2017-03-26T12:26:28Z</time>
      </trkpt>
      <trkpt lat="45.39221" lon="4.57523">
        <ele>1264.53</ele>
        <time>2017-03-26T12:26:29Z</time>
      </trkpt>
      <trkpt lat="45.39221" lon="4.57523">
        <ele>1264.53</ele>
        <time>2017-03-26T12:26:30Z</time>
      </trkpt>
      <trkpt lat="45.39221" lon="4.57523">
        <ele>1264.53</ele>
        <time>2017-03-26T12:26:31Z</time>
      </trkpt>
      <trkpt lat="45.39221" lon="4.57523">
        <ele>1264.53</ele>
        <time>2017-03-26T12:26:32Z</time>
      </trkpt>
      <trkpt lat="45.39221" lon="4.57523">
        <ele>1264.53</ele>
        <time>2017-03-26T12:26:33Z</time>
      </trkpt>
      <trkpt lat="45.39221" lon="4.57523">
        <ele>1264.53</ele>
        <time>2017-03-26T12:26:34Z</time>
      </trkpt>
      <trkpt lat="45.39221" lon="4.57523">
        <ele>1264.53</ele>
        <time>2017-03-26T12:26:35Z</time>
      </trkpt>
      <trkpt lat="45.39221" lon="4.57523">
        <ele>1264.53</ele>
        <time>2017-03-26T12:26:36Z</time>
      </trkpt>
      <trkpt lat="45.39221" lon="4.5752">
        <ele>1265.65</ele>
        <time>2017-03-26T12:26:37Z</time>
      </trkpt>
      <trkpt lat="45.3922" lon="4.57517">
        <ele>1265.79</ele>
        <time>2017-03-26T12:26:38Z</time>
      </trkpt>
      <trkpt lat="45.3922" lon="4.57513">
        <ele>1265.82</ele>
        <time>2017-03-26T12:26:39Z</time>
      </trkpt>
      <trkpt lat="45.3922" lon="4.57508">
        <ele>1265.83</ele>
        <time>2017-03-26T12:26:40Z</time>
      </trkpt>
      <trkpt lat="45.39219" lon="4.57503">
        <ele>1265.75</ele>
        <time>2017-03-26T12:26:41Z</time>
      </trkpt>
      <trkpt lat="45.39218" lon="4.57497">
        <ele>1265.65</ele>
        <time>2017-03-26T12:26:42Z</time>
      </trkpt>
      <trkpt lat="45.39217" lon="4.57491">
        <ele>1265.63</ele>
        <time>2017-03-26T12:26:43Z</time>
      </trkpt>
      <trkpt lat="45.39217" lon="4.57485">
        <ele>1265.55</ele>
        <time>2017-03-26T12:26:44Z</time>
      </trkpt>
      <trkpt lat="45.39216" lon="4.57479">
        <ele>1265.45</ele>
        <time>2017-03-26T12:26:45Z</time>
      </trkpt>
      <trkpt lat="45.39214" lon="4.57472">
        <ele>1265.35</ele>
        <time>2017-03-26T12:26:46Z</time>
      </trkpt>
      <trkpt lat="45.39212" lon="4.57464">
        <ele>1265.17</ele>
        <time>2017-03-26T12:26:47Z</time>
      </trkpt>
      <trkpt lat="45.39209" lon="4.57456">
        <ele>1264.82</ele>
        <time>2017-03-26T12:26:48Z</time>
      </trkpt>
      <trkpt lat="45.39207" lon="4.57448">
        <ele>1264.35</ele>
        <time>2017-03-26T12:26:49Z</time>
      </trkpt>
      <trkpt lat="45.39204" lon="4.57441">
        <ele>1264.09</ele>
        <time>2017-03-26T12:26:50Z</time>
      </trkpt>
      <trkpt lat="45.39201" lon="4.57434">
        <ele>1263.88</ele>
        <time>2017-03-26T12:26:51Z</time>
      </trkpt>
      <trkpt lat="45.39197" lon="4.57428">
        <ele>1263.76</ele>
        <time>2017-03-26T12:26:52Z</time>
      </trkpt>
      <trkpt lat="45.39193" lon="4.57423">
        <ele>1263.5</ele>
        <time>2017-03-26T12:26:53Z</time>
      </trkpt>
      <trkpt lat="45.39189" lon="4.57417">
        <ele>1263.28</ele>
        <time>2017-03-26T12:26:54Z</time>
      </trkpt>
      <trkpt lat="45.39184" lon="4.57412">
        <ele>1263</ele>
        <time>2017-03-26T12:26:55Z</time>
      </trkpt>
      <trkpt lat="45.39179" lon="4.57407">
        <ele>1262.46</ele>
        <time>2017-03-26T12:26:56Z</time>
      </trkpt>
      <trkpt lat="45.39173" lon="4.57404">
        <ele>1261.72</ele>
        <time>2017-03-26T12:26:57Z</time>
      </trkpt>
      <trkpt lat="45.39167" lon="4.57401">
        <ele>1261.09</ele>
        <time>2017-03-26T12:26:58Z</time>
      </trkpt>
      <trkpt lat="45.39162" lon="4.57399">
        <ele>1260.4</ele>
        <time>2017-03-26T12:26:59Z</time>
      </trkpt>
      <trkpt lat="45.39156" lon="4.57397">
        <ele>1259.46</ele>
        <time>2017-03-26T12:27:00Z</time>
      </trkpt>
      <trkpt lat="45.3915" lon="4.57396">
        <ele>1258.88</ele>
        <time>2017-03-26T12:27:01Z</time>
      </trkpt>
      <trkpt lat="45.39144" lon="4.57394">
        <ele>1258.36</ele>
        <time>2017-03-26T12:27:02Z</time>
      </trkpt>
      <trkpt lat="45.39138" lon="4.57393">
        <ele>1257.62</ele>
        <time>2017-03-26T12:27:03Z</time>
      </trkpt>
      <trkpt lat="45.39131" lon="4.57392">
        <ele>1256.67</ele>
        <time>2017-03-26T12:27:04Z</time>
      </trkpt>
      <trkpt lat="45.39123" lon="4.57391">
        <ele>1255.84</ele>
        <time>2017-03-26T12:27:05Z</time>
      </trkpt>
      <trkpt lat="45.39115" lon="4.5739">
        <ele>1254.87</ele>
        <time>2017-03-26T12:27:06Z</time>
      </trkpt>
      <trkpt lat="45.39106" lon="4.57389">
        <ele>1253.8</ele>
        <time>2017-03-26T12:27:07Z</time>
      </trkpt>
      <trkpt lat="45.39098" lon="4.5739">
        <ele>1252.78</ele>
        <time>2017-03-26T12:27:08Z</time>
      </trkpt>
      <trkpt lat="45.3909" lon="4.57392">
        <ele>1252.18</ele>
        <time>2017-03-26T12:27:09Z</time>
      </trkpt>
      <trkpt lat="45.39082" lon="4.57394">
        <ele>1251.74</ele>
        <time>2017-03-26T12:27:10Z</time>
      </trkpt>
      <trkpt lat="45.39075" lon="4.57396">
        <ele>1251.01</ele>
        <time>2017-03-26T12:27:11Z</time>
      </trkpt>
      <trkpt lat="45.39069" lon="4.57399">
        <ele>1250.79</ele>
        <time>2017-03-26T12:27:12Z</time>
      </trkpt>
      <trkpt lat="45.39063" lon="4.57401">
        <ele>1250.26</ele>
        <time>2017-03-26T12:27:13Z</time>
      </trkpt>
      <trkpt lat="45.39058" lon="4.57402">
        <ele>1250.16</ele>
        <time>2017-03-26T12:27:14Z</time>
      </trkpt>
      <trkpt lat="45.39054" lon="4.57402">
        <ele>1249.98</ele>
        <time>2017-03-26T12:27:15Z</time>
      </trkpt>
      <trkpt lat="45.3905" lon="4.57403">
        <ele>1249.94</ele>
        <time>2017-03-26T12:27:16Z</time>
      </trkpt>
      <trkpt lat="45.39046" lon="4.57403">
        <ele>1249.69</ele>
        <time>2017-03-26T12:27:17Z</time>
      </trkpt>
      <trkpt lat="45.39042" lon="4.57403">
        <ele>1249.48</ele>
        <time>2017-03-26T12:27:18Z</time>
      </trkpt>
      <trkpt lat="45.39038" lon="4.57403">
        <ele>1249.2</ele>
        <time>2017-03-26T12:27:19Z</time>
      </trkpt>
      <trkpt lat="45.39034" lon="4.57404">
        <ele>1248.98</ele>
        <time>2017-03-26T12:27:20Z</time>
      </trkpt>
      <trkpt lat="45.3903" lon="4.57404">
        <ele>1248.7</ele>
        <time>2017-03-26T12:27:21Z</time>
      </trkpt>
      <trkpt lat="45.39026" lon="4.57405">
        <ele>1248.4</ele>
        <time>2017-03-26T12:27:22Z</time>
      </trkpt>
      <trkpt lat="45.39022" lon="4.57407">
        <ele>1248.1</ele>
        <time>2017-03-26T12:27:23Z</time>
      </trkpt>
      <trkpt lat="45.39019" lon="4.57408">
        <ele>1248.2</ele>
        <time>2017-03-26T12:27:24Z</time>
      </trkpt>
      <trkpt lat="45.39016" lon="4.57409">
        <ele>1248.15</ele>
        <time>2017-03-26T12:27:25Z</time>
      </trkpt>
      <trkpt lat="45.39013" lon="4.5741">
        <ele>1248.05</ele>
        <time>2017-03-26T12:27:26Z</time>
      </trkpt>
      <trkpt lat="45.39011" lon="4.57412">
        <ele>1248.19</ele>
        <time>2017-03-26T12:27:27Z</time>
      </trkpt>
      <trkpt lat="45.39008" lon="4.57412">
        <ele>1248.7</ele>
        <time>2017-03-26T12:27:28Z</time>
      </trkpt>
      <trkpt lat="45.39005" lon="4.57412">
        <ele>1249.04</ele>
        <time>2017-03-26T12:27:29Z</time>
      </trkpt>
      <trkpt lat="45.39002" lon="4.57413">
        <ele>1249.35</ele>
        <time>2017-03-26T12:27:30Z</time>
      </trkpt>
      <trkpt lat="45.38999" lon="4.57413">
        <ele>1249.49</ele>
        <time>2017-03-26T12:27:31Z</time>
      </trkpt>
      <trkpt lat="45.38996" lon="4.57412">
        <ele>1249.28</ele>
        <time>2017-03-26T12:27:32Z</time>
      </trkpt>
      <trkpt lat="45.38994" lon="4.5741">
        <ele>1249</ele>
        <time>2017-03-26T12:27:33Z</time>
      </trkpt>
      <trkpt lat="45.38993" lon="4.57408">
        <ele>1248.86</ele>
        <time>2017-03-26T12:27:34Z</time>
      </trkpt>
      <trkpt lat="45.38994" lon="4.57405">
        <ele>1248.92</ele>
        <time>2017-03-26T12:27:35Z</time>
      </trkpt>
      <trkpt lat="45.38995" lon="4.57403">
        <ele>1249.17</ele>
        <time>2017-03-26T12:27:36Z</time>
      </trkpt>
      <trkpt lat="45.38996" lon="4.57402">
        <ele>1249.14</ele>
        <time>2017-03-26T12:27:37Z</time>
      </trkpt>
      <trkpt lat="45.38999" lon="4.57401">
        <ele>1249.13</ele>
        <time>2017-03-26T12:27:38Z</time>
      </trkpt>
      <trkpt lat="45.39001" lon="4.57401">
        <ele>1249.05</ele>
        <time>2017-03-26T12:27:39Z</time>
      </trkpt>
      <trkpt lat="45.39004" lon="4.574">
        <ele>1249.19</ele>
        <time>2017-03-26T12:27:40Z</time>
      </trkpt>
      <trkpt lat="45.39007" lon="4.574">
        <ele>1249.46</ele>
        <time>2017-03-26T12:27:41Z</time>
      </trkpt>
      <trkpt lat="45.39009" lon="4.574">
        <ele>1249.68</ele>
        <time>2017-03-26T12:27:42Z</time>
      </trkpt>
      <trkpt lat="45.39012" lon="4.574">
        <ele>1249.72</ele>
        <time>2017-03-26T12:27:43Z</time>
      </trkpt>
      <trkpt lat="45.39014" lon="4.57402">
        <ele>1249.65</ele>
        <time>2017-03-26T12:27:44Z</time>
      </trkpt>
      <trkpt lat="45.39016" lon="4.57404">
        <ele>1249.63</ele>
        <time>2017-03-26T12:27:45Z</time>
      </trkpt>
      <trkpt lat="45.39017" lon="4.57406">
        <ele>1248.99</ele>
        <time>2017-03-26T12:27:46Z</time>
      </trkpt>
      <trkpt lat="45.39019" lon="4.57408">
        <ele>1248.7</ele>
        <time>2017-03-26T12:27:47Z</time>
      </trkpt>
      <trkpt lat="45.39021" lon="4.5741">
        <ele>1248.4</ele>
        <time>2017-03-26T12:27:48Z</time>
      </trkpt>
      <trkpt lat="45.39024" lon="4.5741">
        <ele>1248.42</ele>
        <time>2017-03-26T12:27:49Z</time>
      </trkpt>
      <trkpt lat="45.39029" lon="4.57409">
        <ele>1248.59</ele>
        <time>2017-03-26T12:27:50Z</time>
      </trkpt>
      <trkpt lat="45.39034" lon="4.57409">
        <ele>1249.1</ele>
        <time>2017-03-26T12:27:51Z</time>
      </trkpt>
      <trkpt lat="45.39039" lon="4.57408">
        <ele>1249.2</ele>
        <time>2017-03-26T12:27:52Z</time>
      </trkpt>
      <trkpt lat="45.39046" lon="4.57407">
        <ele>1249.3</ele>
        <time>2017-03-26T12:27:53Z</time>
      </trkpt>
      <trkpt lat="45.39054" lon="4.57405">
        <ele>1249.48</ele>
        <time>2017-03-26T12:27:54Z</time>
      </trkpt>
      <trkpt lat="45.39062" lon="4.57404">
        <ele>1249.84</ele>
        <time>2017-03-26T12:27:55Z</time>
      </trkpt>
      <trkpt lat="45.39071" lon="4.57401">
        <ele>1250.07</ele>
        <time>2017-03-26T12:27:56Z</time>
      </trkpt>
      <trkpt lat="45.3908" lon="4.57398">
        <ele>1250.28</ele>
        <time>2017-03-26T12:27:57Z</time>
      </trkpt>
      <trkpt lat="45.39089" lon="4.57396">
        <ele>1250.48</ele>
        <time>2017-03-26T12:27:58Z</time>
      </trkpt>
      <trkpt lat="45.391" lon="4.57394">
        <ele>1251</ele>
        <time>2017-03-26T12:27:59Z</time>
      </trkpt>
      <trkpt lat="45.39111" lon="4.57394">
        <ele>1251.34</ele>
        <time>2017-03-26T12:28:00Z</time>
      </trkpt>
      <trkpt lat="45.39123" lon="4.57396">
        <ele>1252.29</ele>
        <time>2017-03-26T12:28:01Z</time>
      </trkpt>
      <trkpt lat="45.39135" lon="4.57398">
        <ele>1253.6</ele>
        <time>2017-03-26T12:28:02Z</time>
      </trkpt>
      <trkpt lat="45.39147" lon="4.57401">
        <ele>1254.82</ele>
        <time>2017-03-26T12:28:03Z</time>
      </trkpt>
      <trkpt lat="45.39159" lon="4.57405">
        <ele>1255.87</ele>
        <time>2017-03-26T12:28:04Z</time>
      </trkpt>
      <trkpt lat="45.3917" lon="4.5741">
        <ele>1256.96</ele>
        <time>2017-03-26T12:28:05Z</time>
      </trkpt>
      <trkpt lat="45.39181" lon="4.57417">
        <ele>1257.82</ele>
        <time>2017-03-26T12:28:06Z</time>
      </trkpt>
      <trkpt lat="45.39189" lon="4.57428">
        <ele>1258.15</ele>
        <time>2017-03-26T12:28:07Z</time>
      </trkpt>
      <trkpt lat="45.39196" lon="4.57442">
        <ele>1258.69</ele>
        <time>2017-03-26T12:28:08Z</time>
      </trkpt>
      <trkpt lat="45.39201" lon="4.57458">
        <ele>1259.28</ele>
        <time>2017-03-26T12:28:09Z</time>
      </trkpt>
      <trkpt lat="45.39206" lon="4.57475">
        <ele>1259.88</ele>
        <time>2017-03-26T12:28:10Z</time>
      </trkpt>
      <trkpt lat="45.39209" lon="4.57493">
        <ele>1260.56</ele>
        <time>2017-03-26T12:28:11Z</time>
      </trkpt>
      <trkpt lat="45.3921" lon="4.57508">
        <ele>1261.42</ele>
        <time>2017-03-26T12:28:12Z</time>
      </trkpt>
      <trkpt lat="45.39208" lon="4.57521">
        <ele>1262.71</ele>
        <time>2017-03-26T12:28:13Z</time>
      </trkpt>
      <trkpt lat="45.39202" lon="4.57527">
        <ele>1263.45</ele>
        <time>2017-03-26T12:28:14Z</time>
      </trkpt>
      <trkpt lat="45.39194" lon="4.57528">
        <ele>1264.55</ele>
        <time>2017-03-26T12:28:15Z</time>
      </trkpt>
      <trkpt lat="45.39184" lon="4.57528">
        <ele>1265.65</ele>
        <time>2017-03-26T12:28:16Z</time>
      </trkpt>
      <trkpt lat="45.39172" lon="4.57527">
        <ele>1266.43</ele>
        <time>2017-03-26T12:28:17Z</time>
      </trkpt>
      <trkpt lat="45.39159" lon="4.57527">
        <ele>1267.31</ele>
        <time>2017-03-26T12:28:18Z</time>
      </trkpt>
      <trkpt lat="45.39146" lon="4.57529">
        <ele>1268.13</ele>
        <time>2017-03-26T12:28:19Z</time>
      </trkpt>
      <trkpt lat="45.39133" lon="4.57532">
        <ele>1269.17</ele>
        <time>2017-03-26T12:28:20Z</time>
      </trkpt>
      <trkpt lat="45.3912" lon="4.57535">
        <ele>1269.94</ele>
        <time>2017-03-26T12:28:21Z</time>
      </trkpt>
      <trkpt lat="45.39107" lon="4.57539">
        <ele>1270.25</ele>
        <time>2017-03-26T12:28:22Z</time>
      </trkpt>
      <trkpt lat="45.39093" lon="4.57545">
        <ele>1270.39</ele>
        <time>2017-03-26T12:28:23Z</time>
      </trkpt>
      <trkpt lat="45.39079" lon="4.57552">
        <ele>1270.58</ele>
        <time>2017-03-26T12:28:24Z</time>
      </trkpt>
      <trkpt lat="45.39065" lon="4.57558">
        <ele>1270.86</ele>
        <time>2017-03-26T12:28:25Z</time>
      </trkpt>
      <trkpt lat="45.3905" lon="4.57563">
        <ele>1271.56</ele>
        <time>2017-03-26T12:28:26Z</time>
      </trkpt>
      <trkpt lat="45.39035" lon="4.57567">
        <ele>1272.26</ele>
        <time>2017-03-26T12:28:27Z</time>
      </trkpt>
      <trkpt lat="45.3902" lon="4.57571">
        <ele>1273.11</ele>
        <time>2017-03-26T12:28:28Z</time>
      </trkpt>
      <trkpt lat="45.39005" lon="4.57576">
        <ele>1273.85</ele>
        <time>2017-03-26T12:28:29Z</time>
      </trkpt>
      <trkpt lat="45.3899" lon="4.57581">
        <ele>1274.47</ele>
        <time>2017-03-26T12:28:30Z</time>
      </trkpt>
      <trkpt lat="45.38974" lon="4.57587">
        <ele>1275.24</ele>
        <time>2017-03-26T12:28:31Z</time>
      </trkpt>
      <trkpt lat="45.38958" lon="4.57592">
        <ele>1276.27</ele>
        <time>2017-03-26T12:28:32Z</time>
      </trkpt>
      <trkpt lat="45.38943" lon="4.57597">
        <ele>1277.44</ele>
        <time>2017-03-26T12:28:33Z</time>
      </trkpt>
      <trkpt lat="45.38927" lon="4.576">
        <ele>1278.71</ele>
        <time>2017-03-26T12:28:34Z</time>
      </trkpt>
      <trkpt lat="45.38911" lon="4.57603">
        <ele>1280.09</ele>
        <time>2017-03-26T12:28:35Z</time>
      </trkpt>
      <trkpt lat="45.38895" lon="4.57607">
        <ele>1281.4</ele>
        <time>2017-03-26T12:28:36Z</time>
      </trkpt>
      <trkpt lat="45.38879" lon="4.57611">
        <ele>1282.54</ele>
        <time>2017-03-26T12:28:37Z</time>
      </trkpt>
      <trkpt lat="45.38863" lon="4.57615">
        <ele>1283.57</ele>
        <time>2017-03-26T12:28:38Z</time>
      </trkpt>
      <trkpt lat="45.38847" lon="4.57619">
        <ele>1284.74</ele>
        <time>2017-03-26T12:28:39Z</time>
      </trkpt>
      <trkpt lat="45.3883" lon="4.57623">
        <ele>1285.93</ele>
        <time>2017-03-26T12:28:40Z</time>
      </trkpt>
      <trkpt lat="45.38814" lon="4.57627">
        <ele>1286.97</ele>
        <time>2017-03-26T12:28:41Z</time>
      </trkpt>
      <trkpt lat="45.38798" lon="4.5763">
        <ele>1287.82</ele>
        <time>2017-03-26T12:28:42Z</time>
      </trkpt>
      <trkpt lat="45.38782" lon="4.57632">
        <ele>1288.71</ele>
        <time>2017-03-26T12:28:43Z</time>
      </trkpt>
      <trkpt lat="45.38767" lon="4.57631">
        <ele>1289.69</ele>
        <time>2017-03-26T12:28:44Z</time>
      </trkpt>
      <trkpt lat="45.38751" lon="4.57628">
        <ele>1290.76</ele>
        <time>2017-03-26T12:28:45Z</time>
      </trkpt>
      <trkpt lat="45.38737" lon="4.57623">
        <ele>1291.78</ele>
        <time>2017-03-26T12:28:46Z</time>
      </trkpt>
      <trkpt lat="45.38723" lon="4.57617">
        <ele>1292.86</ele>
        <time>2017-03-26T12:28:47Z</time>
      </trkpt>
      <trkpt lat="45.38711" lon="4.57611">
        <ele>1293.64</ele>
        <time>2017-03-26T12:28:48Z</time>
      </trkpt>
      <trkpt lat="45.38699" lon="4.57603">
        <ele>1294.03</ele>
        <time>2017-03-26T12:28:49Z</time>
      </trkpt>
      <trkpt lat="45.38688" lon="4.57595">
        <ele>1294.67</ele>
        <time>2017-03-26T12:28:50Z</time>
      </trkpt>
      <trkpt lat="45.38677" lon="4.57585">
        <ele>1295.52</ele>
        <time>2017-03-26T12:28:51Z</time>
      </trkpt>
      <trkpt lat="45.38667" lon="4.57575">
        <ele>1296.17</ele>
        <time>2017-03-26T12:28:52Z</time>
      </trkpt>
      <trkpt lat="45.38657" lon="4.57564">
        <ele>1296.78</ele>
        <time>2017-03-26T12:28:53Z</time>
      </trkpt>
      <trkpt lat="45.38648" lon="4.57552">
        <ele>1297.3</ele>
        <time>2017-03-26T12:28:54Z</time>
      </trkpt>
      <trkpt lat="45.38639" lon="4.57541">
        <ele>1297.88</ele>
        <time>2017-03-26T12:28:55Z</time>
      </trkpt>
      <trkpt lat="45.38631" lon="4.57529">
        <ele>1298.32</ele>
        <time>2017-03-26T12:28:56Z</time>
      </trkpt>
      <trkpt lat="45.38623" lon="4.57517">
        <ele>1298.73</ele>
        <time>2017-03-26T12:28:57Z</time>
      </trkpt>
      <trkpt lat="45.38616" lon="4.57502">
        <ele>1299.37</ele>
        <time>2017-03-26T12:28:58Z</time>
      </trkpt>
      <trkpt lat="45.38609" lon="4.57486">
        <ele>1300.14</ele>
        <time>2017-03-26T12:28:59Z</time>
      </trkpt>
      <trkpt lat="45.38602" lon="4.57467">
        <ele>1300.77</ele>
        <time>2017-03-26T12:29:00Z</time>
      </trkpt>
      <trkpt lat="45.38597" lon="4.57447">
        <ele>1301.3</ele>
        <time>2017-03-26T12:29:01Z</time>
      </trkpt>
      <trkpt lat="45.38593" lon="4.57424">
        <ele>1301.72</ele>
        <time>2017-03-26T12:29:02Z</time>
      </trkpt>
      <trkpt lat="45.38594" lon="4.57398">
        <ele>1302.13</ele>
        <time>2017-03-26T12:29:03Z</time>
      </trkpt>
      <trkpt lat="45.38593" lon="4.57372">
        <ele>1302.61</ele>
        <time>2017-03-26T12:29:04Z</time>
      </trkpt>
      <trkpt lat="45.38593" lon="4.57346">
        <ele>1303.27</ele>
        <time>2017-03-26T12:29:05Z</time>
      </trkpt>
      <trkpt lat="45.38594" lon="4.5732">
        <ele>1303.96</ele>
        <time>2017-03-26T12:29:06Z</time>
      </trkpt>
      <trkpt lat="45.38595" lon="4.57294">
        <ele>1304.34</ele>
        <time>2017-03-26T12:29:07Z</time>
      </trkpt>
      <trkpt lat="45.38595" lon="4.57267">
        <ele>1305.21</ele>
        <time>2017-03-26T12:29:08Z</time>
      </trkpt>
      <trkpt lat="45.38595" lon="4.5724">
        <ele>1306.19</ele>
        <time>2017-03-26T12:29:09Z</time>
      </trkpt>
      <trkpt lat="45.38594" lon="4.5721">
        <ele>1306.54</ele>
        <time>2017-03-26T12:29:10Z</time>
      </trkpt>
      <trkpt lat="45.38594" lon="4.57181">
        <ele>1307.09</ele>
        <time>2017-03-26T12:29:11Z</time>
      </trkpt>
      <trkpt lat="45.38595" lon="4.57151">
        <ele>1308</ele>
        <time>2017-03-26T12:29:12Z</time>
      </trkpt>
      <trkpt lat="45.38596" lon="4.57122">
        <ele>1309.22</ele>
        <time>2017-03-26T12:29:13Z</time>
      </trkpt>
      <trkpt lat="45.38595" lon="4.57094">
        <ele>1310.35</ele>
        <time>2017-03-26T12:29:14Z</time>
      </trkpt>
      <trkpt lat="45.38592" lon="4.57065">
        <ele>1311.77</ele>
        <time>2017-03-26T12:29:15Z</time>
      </trkpt>
      <trkpt lat="45.38588" lon="4.57038">
        <ele>1313.1</ele>
        <time>2017-03-26T12:29:16Z</time>
      </trkpt>
      <trkpt lat="45.38582" lon="4.57011">
        <ele>1314.4</ele>
        <time>2017-03-26T12:29:17Z</time>
      </trkpt>
      <trkpt lat="45.38574" lon="4.56985">
        <ele>1315.7</ele>
        <time>2017-03-26T12:29:18Z</time>
      </trkpt>
      <trkpt lat="45.38565" lon="4.56959">
        <ele>1316.92</ele>
        <time>2017-03-26T12:29:19Z</time>
      </trkpt>
      <trkpt lat="45.38555" lon="4.56934">
        <ele>1317.73</ele>
        <time>2017-03-26T12:29:20Z</time>
      </trkpt>
      <trkpt lat="45.38546" lon="4.56909">
        <ele>1318.37</ele>
        <time>2017-03-26T12:29:21Z</time>
      </trkpt>
      <trkpt lat="45.38536" lon="4.56885">
        <ele>1319.14</ele>
        <time>2017-03-26T12:29:22Z</time>
      </trkpt>
      <trkpt lat="45.38528" lon="4.56862">
        <ele>1319.85</ele>
        <time>2017-03-26T12:29:23Z</time>
      </trkpt>
      <trkpt lat="45.38519" lon="4.56842">
        <ele>1320.39</ele>
        <time>2017-03-26T12:29:24Z</time>
      </trkpt>
      <trkpt lat="45.38511" lon="4.56826">
        <ele>1320.98</ele>
        <time>2017-03-26T12:29:25Z</time>
      </trkpt>
      <trkpt lat="45.38501" lon="4.56812">
        <ele>1321.5</ele>
        <time>2017-03-26T12:29:26Z</time>
      </trkpt>
      <trkpt lat="45.3849" lon="4.56801">
        <ele>1321.76</ele>
        <time>2017-03-26T12:29:27Z</time>
      </trkpt>
      <trkpt lat="45.38477" lon="4.56794">
        <ele>1321.82</ele>
        <time>2017-03-26T12:29:28Z</time>
      </trkpt>
      <trkpt lat="45.38462" lon="4.56791">
        <ele>1322.07</ele>
        <time>2017-03-26T12:29:29Z</time>
      </trkpt>
      <trkpt lat="45.38439" lon="4.56799">
        <ele>1322.36</ele>
        <time>2017-03-26T12:29:30Z</time>
      </trkpt>
      <trkpt lat="45.3842" lon="4.56804">
        <ele>1322.58</ele>
        <time>2017-03-26T12:29:31Z</time>
      </trkpt>
      <trkpt lat="45.384" lon="4.5681">
        <ele>1322.46</ele>
        <time>2017-03-26T12:29:32Z</time>
      </trkpt>
      <trkpt lat="45.38381" lon="4.56816">
        <ele>1322.28</ele>
        <time>2017-03-26T12:29:33Z</time>
      </trkpt>
      <trkpt lat="45.38362" lon="4.56818">
        <ele>1322.16</ele>
        <time>2017-03-26T12:29:34Z</time>
      </trkpt>
      <trkpt lat="45.38343" lon="4.56816">
        <ele>1322.14</ele>
        <time>2017-03-26T12:29:35Z</time>
      </trkpt>
      <trkpt lat="45.38325" lon="4.56811">
        <ele>1322.37</ele>
        <time>2017-03-26T12:29:36Z</time>
      </trkpt>
      <trkpt lat="45.38308" lon="4.568">
        <ele>1321.86</ele>
        <time>2017-03-26T12:29:37Z</time>
      </trkpt>
      <trkpt lat="45.38291" lon="4.56786">
        <ele>1321.76</ele>
        <time>2017-03-26T12:29:38Z</time>
      </trkpt>
      <trkpt lat="45.38274" lon="4.56773">
        <ele>1322.62</ele>
        <time>2017-03-26T12:29:39Z</time>
      </trkpt>
      <trkpt lat="45.38257" lon="4.56758">
        <ele>1323.35</ele>
        <time>2017-03-26T12:29:40Z</time>
      </trkpt>
      <trkpt lat="45.3824" lon="4.56742">
        <ele>1323.89</ele>
        <time>2017-03-26T12:29:41Z</time>
      </trkpt>
      <trkpt lat="45.38224" lon="4.56726">
        <ele>1324.32</ele>
        <time>2017-03-26T12:29:42Z</time>
      </trkpt>
      <trkpt lat="45.38207" lon="4.5671">
        <ele>1324.57</ele>
        <time>2017-03-26T12:29:43Z</time>
      </trkpt>
      <trkpt lat="45.3819" lon="4.56694">
        <ele>1324.62</ele>
        <time>2017-03-26T12:29:44Z</time>
      </trkpt>
      <trkpt lat="45.38173" lon="4.56679">
        <ele>1324.23</ele>
        <time>2017-03-26T12:29:45Z</time>
      </trkpt>
      <trkpt lat="45.38155" lon="4.56665">
        <ele>1323.51</ele>
        <time>2017-03-26T12:29:46Z</time>
      </trkpt>
      <trkpt lat="45.38137" lon="4.56652">
        <ele>1322.57</ele>
        <time>2017-03-26T12:29:47Z</time>
      </trkpt>
      <trkpt lat="45.3812" lon="4.56639">
        <ele>1321.34</ele>
        <time>2017-03-26T12:29:48Z</time>
      </trkpt>
      <trkpt lat="45.38102" lon="4.56626">
        <ele>1319.81</ele>
        <time>2017-03-26T12:29:49Z</time>
      </trkpt>
      <trkpt lat="45.38085" lon="4.56613">
        <ele>1318.31</ele>
        <time>2017-03-26T12:29:50Z</time>
      </trkpt>
      <trkpt lat="45.38068" lon="4.56601">
        <ele>1316.73</ele>
        <time>2017-03-26T12:29:51Z</time>
      </trkpt>
      <trkpt lat="45.38052" lon="4.5659">
        <ele>1315.21</ele>
        <time>2017-03-26T12:29:52Z</time>
      </trkpt>
      <trkpt lat="45.38037" lon="4.56578">
        <ele>1313.87</ele>
        <time>2017-03-26T12:29:53Z</time>
      </trkpt>
      <trkpt lat="45.38024" lon="4.56563">
        <ele>1312.56</ele>
        <time>2017-03-26T12:29:54Z</time>
      </trkpt>
      <trkpt lat="45.38012" lon="4.56545">
        <ele>1311.18</ele>
        <time>2017-03-26T12:29:55Z</time>
      </trkpt>
      <trkpt lat="45.38002" lon="4.56526">
        <ele>1309.94</ele>
        <time>2017-03-26T12:29:56Z</time>
      </trkpt>
      <trkpt lat="45.37994" lon="4.56504">
        <ele>1308.81</ele>
        <time>2017-03-26T12:29:57Z</time>
      </trkpt>
      <trkpt lat="45.37988" lon="4.56479">
        <ele>1307.71</ele>
        <time>2017-03-26T12:29:58Z</time>
      </trkpt>
      <trkpt lat="45.37984" lon="4.56452">
        <ele>1306.53</ele>
        <time>2017-03-26T12:29:59Z</time>
      </trkpt>
      <trkpt lat="45.37981" lon="4.56426">
        <ele>1305.41</ele>
        <time>2017-03-26T12:30:00Z</time>
      </trkpt>
      <trkpt lat="45.37978" lon="4.56399">
        <ele>1304.39</ele>
        <time>2017-03-26T12:30:01Z</time>
      </trkpt>
      <trkpt lat="45.37975" lon="4.56375">
        <ele>1303.38</ele>
        <time>2017-03-26T12:30:02Z</time>
      </trkpt>
      <trkpt lat="45.37971" lon="4.56351">
        <ele>1302.14</ele>
        <time>2017-03-26T12:30:03Z</time>
      </trkpt>
      <trkpt lat="45.37965" lon="4.56329">
        <ele>1301.01</ele>
        <time>2017-03-26T12:30:04Z</time>
      </trkpt>
      <trkpt lat="45.37956" lon="4.56311">
        <ele>1299.75</ele>
        <time>2017-03-26T12:30:05Z</time>
      </trkpt>
      <trkpt lat="45.37946" lon="4.56295">
        <ele>1298.69</ele>
        <time>2017-03-26T12:30:06Z</time>
      </trkpt>
      <trkpt lat="45.37932" lon="4.56282">
        <ele>1297.44</ele>
        <time>2017-03-26T12:30:07Z</time>
      </trkpt>
      <trkpt lat="45.37919" lon="4.56268">
        <ele>1296.39</ele>
        <time>2017-03-26T12:30:08Z</time>
      </trkpt>
      <trkpt lat="45.37907" lon="4.56254">
        <ele>1295.3</ele>
        <time>2017-03-26T12:30:09Z</time>
      </trkpt>
      <trkpt lat="45.37895" lon="4.5624">
        <ele>1294.04</ele>
        <time>2017-03-26T12:30:10Z</time>
      </trkpt>
      <trkpt lat="45.37882" lon="4.56228">
        <ele>1292.99</ele>
        <time>2017-03-26T12:30:11Z</time>
      </trkpt>
      <trkpt lat="45.37865" lon="4.56223">
        <ele>1291.82</ele>
        <time>2017-03-26T12:30:12Z</time>
      </trkpt>
      <trkpt lat="45.3785" lon="4.56221">
        <ele>1290.55</ele>
        <time>2017-03-26T12:30:13Z</time>
      </trkpt>
      <trkpt lat="45.37832" lon="4.56224">
        <ele>1289.17</ele>
        <time>2017-03-26T12:30:14Z</time>
      </trkpt>
      <trkpt lat="45.37813" lon="4.56229">
        <ele>1287.86</ele>
        <time>2017-03-26T12:30:15Z</time>
      </trkpt>
      <trkpt lat="45.37796" lon="4.56236">
        <ele>1286.56</ele>
        <time>2017-03-26T12:30:16Z</time>
      </trkpt>
      <trkpt lat="45.3778" lon="4.56247">
        <ele>1285.18</ele>
        <time>2017-03-26T12:30:17Z</time>
      </trkpt>
      <trkpt lat="45.37767" lon="4.5626">
        <ele>1283.94</ele>
        <time>2017-03-26T12:30:18Z</time>
      </trkpt>
      <trkpt lat="45.37763" lon="4.56279">
        <ele>1282.57</ele>
        <time>2017-03-26T12:30:19Z</time>
      </trkpt>
      <trkpt lat="45.37762" lon="4.563">
        <ele>1281.18</ele>
        <time>2017-03-26T12:30:20Z</time>
      </trkpt>
      <trkpt lat="45.37762" lon="4.5632">
        <ele>1279.62</ele>
        <time>2017-03-26T12:30:21Z</time>
      </trkpt>
      <trkpt lat="45.37762" lon="4.56341">
        <ele>1277.87</ele>
        <time>2017-03-26T12:30:22Z</time>
      </trkpt>
      <trkpt lat="45.37764" lon="4.56361">
        <ele>1276</ele>
        <time>2017-03-26T12:30:23Z</time>
      </trkpt>
      <trkpt lat="45.37766" lon="4.5638">
        <ele>1274.02</ele>
        <time>2017-03-26T12:30:24Z</time>
      </trkpt>
      <trkpt lat="45.37768" lon="4.56396">
        <ele>1272.11</ele>
        <time>2017-03-26T12:30:25Z</time>
      </trkpt>
      <trkpt lat="45.37769" lon="4.56414">
        <ele>1270.05</ele>
        <time>2017-03-26T12:30:26Z</time>
      </trkpt>
      <trkpt lat="45.37772" lon="4.56428">
        <ele>1268.19</ele>
        <time>2017-03-26T12:30:27Z</time>
      </trkpt>
      <trkpt lat="45.37775" lon="4.56441">
        <ele>1266.38</ele>
        <time>2017-03-26T12:30:28Z</time>
      </trkpt>
      <trkpt lat="45.37776" lon="4.56454">
        <ele>1264.66</ele>
        <time>2017-03-26T12:30:29Z</time>
      </trkpt>
      <trkpt lat="45.37779" lon="4.56468">
        <ele>1263.6</ele>
        <time>2017-03-26T12:30:30Z</time>
      </trkpt>
      <trkpt lat="45.37777" lon="4.56478">
        <ele>1262.34</ele>
        <time>2017-03-26T12:30:31Z</time>
      </trkpt>
      <trkpt lat="45.37775" lon="4.56486">
        <ele>1261.21</ele>
        <time>2017-03-26T12:30:32Z</time>
      </trkpt>
      <trkpt lat="45.3777" lon="4.56492">
        <ele>1260.11</ele>
        <time>2017-03-26T12:30:33Z</time>
      </trkpt>
      <trkpt lat="45.37764" lon="4.56495">
        <ele>1258.93</ele>
        <time>2017-03-26T12:30:34Z</time>
      </trkpt>
      <trkpt lat="45.37757" lon="4.56495">
        <ele>1257.89</ele>
        <time>2017-03-26T12:30:35Z</time>
      </trkpt>
      <trkpt lat="45.37746" lon="4.56493">
        <ele>1258.48</ele>
        <time>2017-03-26T12:30:36Z</time>
      </trkpt>
      <trkpt lat="45.37736" lon="4.56489">
        <ele>1257.96</ele>
        <time>2017-03-26T12:30:37Z</time>
      </trkpt>
      <trkpt lat="45.37728" lon="4.5648">
        <ele>1257.3</ele>
        <time>2017-03-26T12:30:38Z</time>
      </trkpt>
      <trkpt lat="45.37718" lon="4.56472">
        <ele>1256.52</ele>
        <time>2017-03-26T12:30:39Z</time>
      </trkpt>
      <trkpt lat="45.37705" lon="4.56455">
        <ele>1255.97</ele>
        <time>2017-03-26T12:30:40Z</time>
      </trkpt>
      <trkpt lat="45.37691" lon="4.56441">
        <ele>1255.22</ele>
        <time>2017-03-26T12:30:41Z</time>
      </trkpt>
      <trkpt lat="45.37676" lon="4.56427">
        <ele>1254.51</ele>
        <time>2017-03-26T12:30:42Z</time>
      </trkpt>
      <trkpt lat="45.37661" lon="4.56412">
        <ele>1253.65</ele>
        <time>2017-03-26T12:30:43Z</time>
      </trkpt>
      <trkpt lat="45.37647" lon="4.56397">
        <ele>1252.75</ele>
        <time>2017-03-26T12:30:44Z</time>
      </trkpt>
      <trkpt lat="45.37632" lon="4.56383">
        <ele>1251.77</ele>
        <time>2017-03-26T12:30:45Z</time>
      </trkpt>
      <trkpt lat="45.37617" lon="4.56371">
        <ele>1250.86</ele>
        <time>2017-03-26T12:30:46Z</time>
      </trkpt>
      <trkpt lat="45.37602" lon="4.5636">
        <ele>1249.88</ele>
        <time>2017-03-26T12:30:47Z</time>
      </trkpt>
      <trkpt lat="45.37584" lon="4.56351">
        <ele>1249.04</ele>
        <time>2017-03-26T12:30:48Z</time>
      </trkpt>
      <trkpt lat="45.37568" lon="4.56343">
        <ele>1248.15</ele>
        <time>2017-03-26T12:30:49Z</time>
      </trkpt>
      <trkpt lat="45.3755" lon="4.56334">
        <ele>1247.17</ele>
        <time>2017-03-26T12:30:50Z</time>
      </trkpt>
      <trkpt lat="45.37532" lon="4.56324">
        <ele>1246.58</ele>
        <time>2017-03-26T12:30:51Z</time>
      </trkpt>
      <trkpt lat="45.37512" lon="4.5631">
        <ele>1246.22</ele>
        <time>2017-03-26T12:30:52Z</time>
      </trkpt>
      <trkpt lat="45.37491" lon="4.56295">
        <ele>1245.91</ele>
        <time>2017-03-26T12:30:53Z</time>
      </trkpt>
      <trkpt lat="45.37472" lon="4.56284">
        <ele>1244.97</ele>
        <time>2017-03-26T12:30:54Z</time>
      </trkpt>
      <trkpt lat="45.37452" lon="4.56273">
        <ele>1243.98</ele>
        <time>2017-03-26T12:30:55Z</time>
      </trkpt>
      <trkpt lat="45.37433" lon="4.56265">
        <ele>1242.98</ele>
        <time>2017-03-26T12:30:56Z</time>
      </trkpt>
      <trkpt lat="45.37412" lon="4.5626">
        <ele>1241.98</ele>
        <time>2017-03-26T12:30:57Z</time>
      </trkpt>
      <trkpt lat="45.37393" lon="4.56255">
        <ele>1240.9</ele>
        <time>2017-03-26T12:30:58Z</time>
      </trkpt>
      <trkpt lat="45.37373" lon="4.56248">
        <ele>1239.48</ele>
        <time>2017-03-26T12:30:59Z</time>
      </trkpt>
      <trkpt lat="45.37354" lon="4.56238">
        <ele>1238.56</ele>
        <time>2017-03-26T12:31:00Z</time>
      </trkpt>
      <trkpt lat="45.37336" lon="4.56225">
        <ele>1237.82</ele>
        <time>2017-03-26T12:31:01Z</time>
      </trkpt>
      <trkpt lat="45.37324" lon="4.56206">
        <ele>1236.31</ele>
        <time>2017-03-26T12:31:02Z</time>
      </trkpt>
      <trkpt lat="45.37311" lon="4.56186">
        <ele>1235.61</ele>
        <time>2017-03-26T12:31:03Z</time>
      </trkpt>
      <trkpt lat="45.37299" lon="4.56163">
        <ele>1235.15</ele>
        <time>2017-03-26T12:31:04Z</time>
      </trkpt>
      <trkpt lat="45.37287" lon="4.5614">
        <ele>1234.57</ele>
        <time>2017-03-26T12:31:05Z</time>
      </trkpt>
      <trkpt lat="45.37275" lon="4.56117">
        <ele>1233.9</ele>
        <time>2017-03-26T12:31:06Z</time>
      </trkpt>
      <trkpt lat="45.37264" lon="4.56094">
        <ele>1233.28</ele>
        <time>2017-03-26T12:31:07Z</time>
      </trkpt>
      <trkpt lat="45.37253" lon="4.56072">
        <ele>1232.84</ele>
        <time>2017-03-26T12:31:08Z</time>
      </trkpt>
      <trkpt lat="45.37242" lon="4.56049">
        <ele>1232.59</ele>
        <time>2017-03-26T12:31:09Z</time>
      </trkpt>
      <trkpt lat="45.37233" lon="4.56026">
        <ele>1232.3</ele>
        <time>2017-03-26T12:31:10Z</time>
      </trkpt>
      <trkpt lat="45.37225" lon="4.56004">
        <ele>1231.92</ele>
        <time>2017-03-26T12:31:11Z</time>
      </trkpt>
      <trkpt lat="45.37218" lon="4.55983">
        <ele>1231.69</ele>
        <time>2017-03-26T12:31:12Z</time>
      </trkpt>
      <trkpt lat="45.37211" lon="4.55963">
        <ele>1231.24</ele>
        <time>2017-03-26T12:31:13Z</time>
      </trkpt>
      <trkpt lat="45.37204" lon="4.55942">
        <ele>1230.91</ele>
        <time>2017-03-26T12:31:14Z</time>
      </trkpt>
      <trkpt lat="45.372" lon="4.55922">
        <ele>1230.45</ele>
        <time>2017-03-26T12:31:15Z</time>
      </trkpt>
      <trkpt lat="45.37196" lon="4.55901">
        <ele>1229.47</ele>
        <time>2017-03-26T12:31:16Z</time>
      </trkpt>
      <trkpt lat="45.37193" lon="4.5588">
        <ele>1228.4</ele>
        <time>2017-03-26T12:31:17Z</time>
      </trkpt>
      <trkpt lat="45.37189" lon="4.55859">
        <ele>1227.62</ele>
        <time>2017-03-26T12:31:18Z</time>
      </trkpt>
      <trkpt lat="45.37183" lon="4.55838">
        <ele>1227.47</ele>
        <time>2017-03-26T12:31:19Z</time>
      </trkpt>
      <trkpt lat="45.37176" lon="4.55818">
        <ele>1227.04</ele>
        <time>2017-03-26T12:31:20Z</time>
      </trkpt>
      <trkpt lat="45.37167" lon="4.55798">
        <ele>1226.39</ele>
        <time>2017-03-26T12:31:21Z</time>
      </trkpt>
      <trkpt lat="45.37156" lon="4.55779">
        <ele>1225.54</ele>
        <time>2017-03-26T12:31:22Z</time>
      </trkpt>
      <trkpt lat="45.37147" lon="4.55757">
        <ele>1224.41</ele>
        <time>2017-03-26T12:31:23Z</time>
      </trkpt>
      <trkpt lat="45.37138" lon="4.55734">
        <ele>1223.31</ele>
        <time>2017-03-26T12:31:24Z</time>
      </trkpt>
      <trkpt lat="45.3713" lon="4.5571">
        <ele>1222.13</ele>
        <time>2017-03-26T12:31:25Z</time>
      </trkpt>
      <trkpt lat="45.37122" lon="4.55685">
        <ele>1221.41</ele>
        <time>2017-03-26T12:31:26Z</time>
      </trkpt>
      <trkpt lat="45.37114" lon="4.55661">
        <ele>1220.63</ele>
        <time>2017-03-26T12:31:27Z</time>
      </trkpt>
      <trkpt lat="45.37107" lon="4.55637">
        <ele>1219.91</ele>
        <time>2017-03-26T12:31:28Z</time>
      </trkpt>
      <trkpt lat="45.37101" lon="4.55612">
        <ele>1219.61</ele>
        <time>2017-03-26T12:31:29Z</time>
      </trkpt>
      <trkpt lat="45.37096" lon="4.55587">
        <ele>1219.23</ele>
        <time>2017-03-26T12:31:30Z</time>
      </trkpt>
      <trkpt lat="45.37093" lon="4.55562">
        <ele>1218.67</ele>
        <time>2017-03-26T12:31:31Z</time>
      </trkpt>
      <trkpt lat="45.37096" lon="4.55534">
        <ele>1218.24</ele>
        <time>2017-03-26T12:31:32Z</time>
      </trkpt>
      <trkpt lat="45.37099" lon="4.55505">
        <ele>1217.35</ele>
        <time>2017-03-26T12:31:33Z</time>
      </trkpt>
      <trkpt lat="45.37104" lon="4.55476">
        <ele>1216.45</ele>
        <time>2017-03-26T12:31:34Z</time>
      </trkpt>
      <trkpt lat="45.3711" lon="4.55449">
        <ele>1215.71</ele>
        <time>2017-03-26T12:31:35Z</time>
      </trkpt>
      <trkpt lat="45.37115" lon="4.55423">
        <ele>1215.09</ele>
        <time>2017-03-26T12:31:36Z</time>
      </trkpt>
      <trkpt lat="45.3712" lon="4.55398">
        <ele>1214.08</ele>
        <time>2017-03-26T12:31:37Z</time>
      </trkpt>
      <trkpt lat="45.37124" lon="4.55374">
        <ele>1213.08</ele>
        <time>2017-03-26T12:31:38Z</time>
      </trkpt>
      <trkpt lat="45.37125" lon="4.55349">
        <ele>1212.16</ele>
        <time>2017-03-26T12:31:39Z</time>
      </trkpt>
      <trkpt lat="45.37126" lon="4.55324">
        <ele>1211.5</ele>
        <time>2017-03-26T12:31:40Z</time>
      </trkpt>
      <trkpt lat="45.37126" lon="4.55299">
        <ele>1210.88</ele>
        <time>2017-03-26T12:31:41Z</time>
      </trkpt>
      <trkpt lat="45.37127" lon="4.55272">
        <ele>1210.44</ele>
        <time>2017-03-26T12:31:42Z</time>
      </trkpt>
      <trkpt lat="45.3713" lon="4.55245">
        <ele>1210.11</ele>
        <time>2017-03-26T12:31:43Z</time>
      </trkpt>
      <trkpt lat="45.37134" lon="4.55218">
        <ele>1209.49</ele>
        <time>2017-03-26T12:31:44Z</time>
      </trkpt>
      <trkpt lat="45.37138" lon="4.5519">
        <ele>1208.8</ele>
        <time>2017-03-26T12:31:45Z</time>
      </trkpt>
      <trkpt lat="45.37143" lon="4.55162">
        <ele>1208.1</ele>
        <time>2017-03-26T12:31:46Z</time>
      </trkpt>
      <trkpt lat="45.37148" lon="4.55134">
        <ele>1207.32</ele>
        <time>2017-03-26T12:31:47Z</time>
      </trkpt>
      <trkpt lat="45.37154" lon="4.55105">
        <ele>1206.77</ele>
        <time>2017-03-26T12:31:48Z</time>
      </trkpt>
      <trkpt lat="45.37161" lon="4.55076">
        <ele>1206.1</ele>
        <time>2017-03-26T12:31:49Z</time>
      </trkpt>
      <trkpt lat="45.37167" lon="4.55048">
        <ele>1205.32</ele>
        <time>2017-03-26T12:31:50Z</time>
      </trkpt>
      <trkpt lat="45.37173" lon="4.5502">
        <ele>1204.61</ele>
        <time>2017-03-26T12:31:51Z</time>
      </trkpt>
      <trkpt lat="45.37179" lon="4.54992">
        <ele>1203.83</ele>
        <time>2017-03-26T12:31:52Z</time>
      </trkpt>
      <trkpt lat="45.37186" lon="4.54966">
        <ele>1203.19</ele>
        <time>2017-03-26T12:31:53Z</time>
      </trkpt>
      <trkpt lat="45.37193" lon="4.54938">
        <ele>1202.66</ele>
        <time>2017-03-26T12:31:54Z</time>
      </trkpt>
      <trkpt lat="45.37199" lon="4.54911">
        <ele>1202.08</ele>
        <time>2017-03-26T12:31:55Z</time>
      </trkpt>
      <trkpt lat="45.37212" lon="4.5489">
        <ele>1203.64</ele>
        <time>2017-03-26T12:31:56Z</time>
      </trkpt>
      <trkpt lat="45.37217" lon="4.54866">
        <ele>1202.99</ele>
        <time>2017-03-26T12:31:57Z</time>
      </trkpt>
      <trkpt lat="45.37224" lon="4.54845">
        <ele>1201.82</ele>
        <time>2017-03-26T12:31:58Z</time>
      </trkpt>
      <trkpt lat="45.37233" lon="4.54827">
        <ele>1200.47</ele>
        <time>2017-03-26T12:31:59Z</time>
      </trkpt>
      <trkpt lat="45.37241" lon="4.54812">
        <ele>1199.08</ele>
        <time>2017-03-26T12:32:00Z</time>
      </trkpt>
      <trkpt lat="45.37252" lon="4.548">
        <ele>1197.36</ele>
        <time>2017-03-26T12:32:01Z</time>
      </trkpt>
      <trkpt lat="45.37265" lon="4.54792">
        <ele>1195.66</ele>
        <time>2017-03-26T12:32:02Z</time>
      </trkpt>
      <trkpt lat="45.3728" lon="4.54787">
        <ele>1193.8</ele>
        <time>2017-03-26T12:32:03Z</time>
      </trkpt>
      <trkpt lat="45.37295" lon="4.54783">
        <ele>1191.98</ele>
        <time>2017-03-26T12:32:04Z</time>
      </trkpt>
      <trkpt lat="45.3731" lon="4.54778">
        <ele>1190.26</ele>
        <time>2017-03-26T12:32:05Z</time>
      </trkpt>
      <trkpt lat="45.37328" lon="4.54772">
        <ele>1188.48</ele>
        <time>2017-03-26T12:32:06Z</time>
      </trkpt>
      <trkpt lat="45.37344" lon="4.54763">
        <ele>1186.84</ele>
        <time>2017-03-26T12:32:07Z</time>
      </trkpt>
      <trkpt lat="45.37359" lon="4.5475">
        <ele>1185.47</ele>
        <time>2017-03-26T12:32:08Z</time>
      </trkpt>
      <trkpt lat="45.37372" lon="4.54736">
        <ele>1184.08</ele>
        <time>2017-03-26T12:32:09Z</time>
      </trkpt>
      <trkpt lat="45.37384" lon="4.5472">
        <ele>1182.76</ele>
        <time>2017-03-26T12:32:10Z</time>
      </trkpt>
      <trkpt lat="45.37393" lon="4.54704">
        <ele>1181.54</ele>
        <time>2017-03-26T12:32:11Z</time>
      </trkpt>
      <trkpt lat="45.37403" lon="4.5469">
        <ele>1180.41</ele>
        <time>2017-03-26T12:32:12Z</time>
      </trkpt>
      <trkpt lat="45.37403" lon="4.54667">
        <ele>1179.31</ele>
        <time>2017-03-26T12:32:13Z</time>
      </trkpt>
      <trkpt lat="45.37403" lon="4.54645">
        <ele>1178.29</ele>
        <time>2017-03-26T12:32:14Z</time>
      </trkpt>
      <trkpt lat="45.374" lon="4.54623">
        <ele>1177.12</ele>
        <time>2017-03-26T12:32:15Z</time>
      </trkpt>
      <trkpt lat="45.37382" lon="4.54598">
        <ele>1176.41</ele>
        <time>2017-03-26T12:32:16Z</time>
      </trkpt>
      <trkpt lat="45.37369" lon="4.54582">
        <ele>1175.47</ele>
        <time>2017-03-26T12:32:17Z</time>
      </trkpt>
      <trkpt lat="45.37354" lon="4.54568">
        <ele>1174.32</ele>
        <time>2017-03-26T12:32:18Z</time>
      </trkpt>
      <trkpt lat="45.37336" lon="4.54558">
        <ele>1173.05</ele>
        <time>2017-03-26T12:32:19Z</time>
      </trkpt>
      <trkpt lat="45.37317" lon="4.54549">
        <ele>1171.91</ele>
        <time>2017-03-26T12:32:20Z</time>
      </trkpt>
      <trkpt lat="45.37299" lon="4.54543">
        <ele>1170.57</ele>
        <time>2017-03-26T12:32:21Z</time>
      </trkpt>
      <trkpt lat="45.37281" lon="4.54539">
        <ele>1169.18</ele>
        <time>2017-03-26T12:32:22Z</time>
      </trkpt>
      <trkpt lat="45.37263" lon="4.54536">
        <ele>1167.62</ele>
        <time>2017-03-26T12:32:23Z</time>
      </trkpt>
      <trkpt lat="45.3724" lon="4.54542">
        <ele>1166.11</ele>
        <time>2017-03-26T12:32:24Z</time>
      </trkpt>
      <trkpt lat="45.37221" lon="4.54545">
        <ele>1164.69</ele>
        <time>2017-03-26T12:32:25Z</time>
      </trkpt>
      <trkpt lat="45.37203" lon="4.54549">
        <ele>1163.36</ele>
        <time>2017-03-26T12:32:26Z</time>
      </trkpt>
      <trkpt lat="45.37187" lon="4.54554">
        <ele>1161.98</ele>
        <time>2017-03-26T12:32:27Z</time>
      </trkpt>
      <trkpt lat="45.37171" lon="4.54558">
        <ele>1160.58</ele>
        <time>2017-03-26T12:32:28Z</time>
      </trkpt>
      <trkpt lat="45.37164" lon="4.54554">
        <ele>1159.1</ele>
        <time>2017-03-26T12:32:29Z</time>
      </trkpt>
      <trkpt lat="45.37153" lon="4.54547">
        <ele>1157.76</ele>
        <time>2017-03-26T12:32:30Z</time>
      </trkpt>
      <trkpt lat="45.37142" lon="4.5454">
        <ele>1156.46</ele>
        <time>2017-03-26T12:32:31Z</time>
      </trkpt>
      <trkpt lat="45.37129" lon="4.54532">
        <ele>1155.48</ele>
        <time>2017-03-26T12:32:32Z</time>
      </trkpt>
      <trkpt lat="45.37115" lon="4.54522">
        <ele>1154.48</ele>
        <time>2017-03-26T12:32:33Z</time>
      </trkpt>
      <trkpt lat="45.371" lon="4.54509">
        <ele>1153.32</ele>
        <time>2017-03-26T12:32:34Z</time>
      </trkpt>
      <trkpt lat="45.37085" lon="4.54496">
        <ele>1152.37</ele>
        <time>2017-03-26T12:32:35Z</time>
      </trkpt>
      <trkpt lat="45.37068" lon="4.5448">
        <ele>1151.14</ele>
        <time>2017-03-26T12:32:36Z</time>
      </trkpt>
      <trkpt lat="45.37052" lon="4.54466">
        <ele>1150.01</ele>
        <time>2017-03-26T12:32:37Z</time>
      </trkpt>
      <trkpt lat="45.37037" lon="4.5445">
        <ele>1148.91</ele>
        <time>2017-03-26T12:32:38Z</time>
      </trkpt>
      <trkpt lat="45.37021" lon="4.54431">
        <ele>1149.41</ele>
        <time>2017-03-26T12:32:39Z</time>
      </trkpt>
      <trkpt lat="45.37009" lon="4.54412">
        <ele>1149.43</ele>
        <time>2017-03-26T12:32:40Z</time>
      </trkpt>
      <trkpt lat="45.37001" lon="4.54392">
        <ele>1148.87</ele>
        <time>2017-03-26T12:32:41Z</time>
      </trkpt>
      <trkpt lat="45.36995" lon="4.5437">
        <ele>1147.96</ele>
        <time>2017-03-26T12:32:42Z</time>
      </trkpt>
      <trkpt lat="45.36991" lon="4.54346">
        <ele>1147.06</ele>
        <time>2017-03-26T12:32:43Z</time>
      </trkpt>
      <trkpt lat="45.36988" lon="4.54322">
        <ele>1145.6</ele>
        <time>2017-03-26T12:32:44Z</time>
      </trkpt>
      <trkpt lat="45.36984" lon="4.543">
        <ele>1144.02</ele>
        <time>2017-03-26T12:32:45Z</time>
      </trkpt>
      <trkpt lat="45.36976" lon="4.5428">
        <ele>1142.51</ele>
        <time>2017-03-26T12:32:46Z</time>
      </trkpt>
      <trkpt lat="45.36964" lon="4.54263">
        <ele>1141.41</ele>
        <time>2017-03-26T12:32:47Z</time>
      </trkpt>
      <trkpt lat="45.36952" lon="4.54247">
        <ele>1140.39</ele>
        <time>2017-03-26T12:32:48Z</time>
      </trkpt>
      <trkpt lat="45.36937" lon="4.54232">
        <ele>1139.54</ele>
        <time>2017-03-26T12:32:49Z</time>
      </trkpt>
      <trkpt lat="45.36922" lon="4.54217">
        <ele>1139.05</ele>
        <time>2017-03-26T12:32:50Z</time>
      </trkpt>
      <trkpt lat="45.36905" lon="4.54202">
        <ele>1139.19</ele>
        <time>2017-03-26T12:32:51Z</time>
      </trkpt>
      <trkpt lat="45.36888" lon="4.54186">
        <ele>1139.14</ele>
        <time>2017-03-26T12:32:52Z</time>
      </trkpt>
      <trkpt lat="45.36871" lon="4.5417">
        <ele>1138.97</ele>
        <time>2017-03-26T12:32:53Z</time>
      </trkpt>
      <trkpt lat="45.36855" lon="4.54154">
        <ele>1138.7</ele>
        <time>2017-03-26T12:32:54Z</time>
      </trkpt>
      <trkpt lat="45.36839" lon="4.54137">
        <ele>1138.32</ele>
        <time>2017-03-26T12:32:55Z</time>
      </trkpt>
      <trkpt lat="45.36826" lon="4.5412">
        <ele>1137.69</ele>
        <time>2017-03-26T12:32:56Z</time>
      </trkpt>
      <trkpt lat="45.36815" lon="4.541">
        <ele>1137.24</ele>
        <time>2017-03-26T12:32:57Z</time>
      </trkpt>
      <trkpt lat="45.36807" lon="4.54078">
        <ele>1136.59</ele>
        <time>2017-03-26T12:32:58Z</time>
      </trkpt>
      <trkpt lat="45.36801" lon="4.54053">
        <ele>1136.3</ele>
        <time>2017-03-26T12:32:59Z</time>
      </trkpt>
      <trkpt lat="45.36796" lon="4.54026">
        <ele>1135.76</ele>
        <time>2017-03-26T12:33:00Z</time>
      </trkpt>
      <trkpt lat="45.36791" lon="4.54">
        <ele>1135.1</ele>
        <time>2017-03-26T12:33:01Z</time>
      </trkpt>
      <trkpt lat="45.36783" lon="4.53976">
        <ele>1134.88</ele>
        <time>2017-03-26T12:33:02Z</time>
      </trkpt>
      <trkpt lat="45.36774" lon="4.53953">
        <ele>1134.44</ele>
        <time>2017-03-26T12:33:03Z</time>
      </trkpt>
      <trkpt lat="45.36764" lon="4.5393">
        <ele>1134.03</ele>
        <time>2017-03-26T12:33:04Z</time>
      </trkpt>
      <trkpt lat="45.36752" lon="4.53908">
        <ele>1133.55</ele>
        <time>2017-03-26T12:33:05Z</time>
      </trkpt>
      <trkpt lat="45.3674" lon="4.53887">
        <ele>1132.89</ele>
        <time>2017-03-26T12:33:06Z</time>
      </trkpt>
      <trkpt lat="45.36728" lon="4.53865">
        <ele>1132.2</ele>
        <time>2017-03-26T12:33:07Z</time>
      </trkpt>
      <trkpt lat="45.36716" lon="4.53843">
        <ele>1131.26</ele>
        <time>2017-03-26T12:33:08Z</time>
      </trkpt>
      <trkpt lat="45.36705" lon="4.5382">
        <ele>1130.36</ele>
        <time>2017-03-26T12:33:09Z</time>
      </trkpt>
      <trkpt lat="45.36694" lon="4.53796">
        <ele>1129.7</ele>
        <time>2017-03-26T12:33:10Z</time>
      </trkpt>
      <trkpt lat="45.36684" lon="4.53772">
        <ele>1128.92</ele>
        <time>2017-03-26T12:33:11Z</time>
      </trkpt>
      <trkpt lat="45.36677" lon="4.53747">
        <ele>1127.81</ele>
        <time>2017-03-26T12:33:12Z</time>
      </trkpt>
      <trkpt lat="45.36671" lon="4.5372">
        <ele>1127.03</ele>
        <time>2017-03-26T12:33:13Z</time>
      </trkpt>
      <trkpt lat="45.36667" lon="4.53693">
        <ele>1126.47</ele>
        <time>2017-03-26T12:33:14Z</time>
      </trkpt>
      <trkpt lat="45.36664" lon="4.53665">
        <ele>1126.36</ele>
        <time>2017-03-26T12:33:15Z</time>
      </trkpt>
      <trkpt lat="45.36662" lon="4.53637">
        <ele>1126.66</ele>
        <time>2017-03-26T12:33:16Z</time>
      </trkpt>
      <trkpt lat="45.36661" lon="4.53609">
        <ele>1127.2</ele>
        <time>2017-03-26T12:33:17Z</time>
      </trkpt>
      <trkpt lat="45.36661" lon="4.53582">
        <ele>1127.3</ele>
        <time>2017-03-26T12:33:18Z</time>
      </trkpt>
      <trkpt lat="45.36661" lon="4.53555">
        <ele>1127.64</ele>
        <time>2017-03-26T12:33:19Z</time>
      </trkpt>
      <trkpt lat="45.36663" lon="4.5353">
        <ele>1127.47</ele>
        <time>2017-03-26T12:33:20Z</time>
      </trkpt>
      <trkpt lat="45.36664" lon="4.53505">
        <ele>1126.96</ele>
        <time>2017-03-26T12:33:21Z</time>
      </trkpt>
      <trkpt lat="45.36666" lon="4.53482">
        <ele>1126.38</ele>
        <time>2017-03-26T12:33:22Z</time>
      </trkpt>
      <trkpt lat="45.36667" lon="4.53459">
        <ele>1125.94</ele>
        <time>2017-03-26T12:33:23Z</time>
      </trkpt>
      <trkpt lat="45.36669" lon="4.53437">
        <ele>1125.61</ele>
        <time>2017-03-26T12:33:24Z</time>
      </trkpt>
      <trkpt lat="45.3667" lon="4.53415">
        <ele>1125.23</ele>
        <time>2017-03-26T12:33:25Z</time>
      </trkpt>
      <trkpt lat="45.36672" lon="4.53393">
        <ele>1124.51</ele>
        <time>2017-03-26T12:33:26Z</time>
      </trkpt>
      <trkpt lat="45.36676" lon="4.53372">
        <ele>1123.73</ele>
        <time>2017-03-26T12:33:27Z</time>
      </trkpt>
      <trkpt lat="45.36681" lon="4.53351">
        <ele>1123.01</ele>
        <time>2017-03-26T12:33:28Z</time>
      </trkpt>
      <trkpt lat="45.36687" lon="4.53333">
        <ele>1122.63</ele>
        <time>2017-03-26T12:33:29Z</time>
      </trkpt>
      <trkpt lat="45.36691" lon="4.53317">
        <ele>1122.07</ele>
        <time>2017-03-26T12:33:30Z</time>
      </trkpt>
      <trkpt lat="45.36693" lon="4.53302">
        <ele>1121.88</ele>
        <time>2017-03-26T12:33:31Z</time>
      </trkpt>
      <trkpt lat="45.36695" lon="4.53287">
        <ele>1121.68</ele>
        <time>2017-03-26T12:33:32Z</time>
      </trkpt>
      <trkpt lat="45.36698" lon="4.53271">
        <ele>1121.64</ele>
        <time>2017-03-26T12:33:33Z</time>
      </trkpt>
      <trkpt lat="45.36701" lon="4.53254">
        <ele>1121.63</ele>
        <time>2017-03-26T12:33:34Z</time>
      </trkpt>
      <trkpt lat="45.36705" lon="4.53233">
        <ele>1121.95</ele>
        <time>2017-03-26T12:33:35Z</time>
      </trkpt>
      <trkpt lat="45.36709" lon="4.53211">
        <ele>1122.33</ele>
        <time>2017-03-26T12:33:36Z</time>
      </trkpt>
      <trkpt lat="45.36712" lon="4.53186">
        <ele>1122.73</ele>
        <time>2017-03-26T12:33:37Z</time>
      </trkpt>
      <trkpt lat="45.36716" lon="4.53159">
        <ele>1123.13</ele>
        <time>2017-03-26T12:33:38Z</time>
      </trkpt>
      <trkpt lat="45.36719" lon="4.53133">
        <ele>1123.77</ele>
        <time>2017-03-26T12:33:39Z</time>
      </trkpt>
      <trkpt lat="45.3672" lon="4.53108">
        <ele>1125.02</ele>
        <time>2017-03-26T12:33:40Z</time>
      </trkpt>
      <trkpt lat="45.36722" lon="4.53084">
        <ele>1125.67</ele>
        <time>2017-03-26T12:33:41Z</time>
      </trkpt>
      <trkpt lat="45.36725" lon="4.5306">
        <ele>1126.6</ele>
        <time>2017-03-26T12:33:42Z</time>
      </trkpt>
      <trkpt lat="45.36729" lon="4.53037">
        <ele>1127.42</ele>
        <time>2017-03-26T12:33:43Z</time>
      </trkpt>
      <trkpt lat="45.36733" lon="4.53017">
        <ele>1128.31</ele>
        <time>2017-03-26T12:33:44Z</time>
      </trkpt>
      <trkpt lat="45.36739" lon="4.52998">
        <ele>1129.37</ele>
        <time>2017-03-26T12:33:45Z</time>
      </trkpt>
      <trkpt lat="45.36744" lon="4.5298">
        <ele>1130.3</ele>
        <time>2017-03-26T12:33:46Z</time>
      </trkpt>
      <trkpt lat="45.36749" lon="4.52964">
        <ele>1131.04</ele>
        <time>2017-03-26T12:33:47Z</time>
      </trkpt>
      <trkpt lat="45.36753" lon="4.5295">
        <ele>1132.07</ele>
        <time>2017-03-26T12:33:48Z</time>
      </trkpt>
      <trkpt lat="45.36758" lon="4.52936">
        <ele>1133</ele>
        <time>2017-03-26T12:33:49Z</time>
      </trkpt>
      <trkpt lat="45.36762" lon="4.52922">
        <ele>1133.98</ele>
        <time>2017-03-26T12:33:50Z</time>
      </trkpt>
      <trkpt lat="45.36765" lon="4.5291">
        <ele>1134.9</ele>
        <time>2017-03-26T12:33:51Z</time>
      </trkpt>
      <trkpt lat="45.36769" lon="4.52901">
        <ele>1135.64</ele>
        <time>2017-03-26T12:33:52Z</time>
      </trkpt>
      <trkpt lat="45.36772" lon="4.52894">
        <ele>1136.67</ele>
        <time>2017-03-26T12:33:53Z</time>
      </trkpt>
      <trkpt lat="45.36774" lon="4.5289">
        <ele>1137.36</ele>
        <time>2017-03-26T12:33:54Z</time>
      </trkpt>
      <trkpt lat="45.36775" lon="4.52888">
        <ele>1137.98</ele>
        <time>2017-03-26T12:33:55Z</time>
      </trkpt>
      <trkpt lat="45.36775" lon="4.52888">
        <ele>1138.58</ele>
        <time>2017-03-26T12:33:56Z</time>
      </trkpt>
      <trkpt lat="45.36775" lon="4.52889">
        <ele>1139.26</ele>
        <time>2017-03-26T12:33:57Z</time>
      </trkpt>
      <trkpt lat="45.36774" lon="4.52889">
        <ele>1138.68</ele>
        <time>2017-03-26T12:33:58Z</time>
      </trkpt>
      <trkpt lat="45.36774" lon="4.52889">
        <ele>1138.56</ele>
        <time>2017-03-26T12:33:59Z</time>
      </trkpt>
      <trkpt lat="45.36774" lon="4.52889">
        <ele>1138.54</ele>
        <time>2017-03-26T12:34:00Z</time>
      </trkpt>
      <trkpt lat="45.36774" lon="4.52889">
        <ele>1138.53</ele>
        <time>2017-03-26T12:34:01Z</time>
      </trkpt>
      <trkpt lat="45.36774" lon="4.52889">
        <ele>1138.53</ele>
        <time>2017-03-26T12:34:02Z</time>
      </trkpt>
      <trkpt lat="45.36774" lon="4.52889">
        <ele>1138.53</ele>
        <time>2017-03-26T12:34:03Z</time>
      </trkpt>
      <trkpt lat="45.36774" lon="4.52889">
        <ele>1138.53</ele>
        <time>2017-03-26T12:34:04Z</time>
      </trkpt>
      <trkpt lat="45.36774" lon="4.52889">
        <ele>1138.53</ele>
        <time>2017-03-26T12:34:05Z</time>
      </trkpt>
      <trkpt lat="45.36774" lon="4.52889">
        <ele>1138.53</ele>
        <time>2017-03-26T12:34:06Z</time>
      </trkpt>
      <trkpt lat="45.36774" lon="4.52889">
        <ele>1138.53</ele>
        <time>2017-03-26T12:34:07Z</time>
      </trkpt>
      <trkpt lat="45.36774" lon="4.52889">
        <ele>1138.53</ele>
        <time>2017-03-26T12:34:08Z</time>
      </trkpt>
      <trkpt lat="45.36774" lon="4.52889">
        <ele>1138.53</ele>
        <time>2017-03-26T12:34:09Z</time>
      </trkpt>
      <trkpt lat="45.36774" lon="4.52889">
        <ele>1138.53</ele>
        <time>2017-03-26T12:34:10Z</time>
      </trkpt>
      <trkpt lat="45.36774" lon="4.52889">
        <ele>1138.53</ele>
        <time>2017-03-26T12:34:11Z</time>
      </trkpt>
      <trkpt lat="45.36774" lon="4.52889">
        <ele>1138.53</ele>
        <time>2017-03-26T12:34:12Z</time>
      </trkpt>
      <trkpt lat="45.36774" lon="4.52889">
        <ele>1138.53</ele>
        <time>2017-03-26T12:34:13Z</time>
      </trkpt>
      <trkpt lat="45.36774" lon="4.52889">
        <ele>1138.53</ele>
        <time>2017-03-26T12:34:14Z</time>
      </trkpt>
      <trkpt lat="45.36774" lon="4.52889">
        <ele>1138.53</ele>
        <time>2017-03-26T12:34:15Z</time>
      </trkpt>
      <trkpt lat="45.36774" lon="4.52889">
        <ele>1138.53</ele>
        <time>2017-03-26T12:34:16Z</time>
      </trkpt>
      <trkpt lat="45.36774" lon="4.52889">
        <ele>1138.53</ele>
        <time>2017-03-26T12:34:17Z</time>
      </trkpt>
      <trkpt lat="45.36774" lon="4.52889">
        <ele>1138.53</ele>
        <time>2017-03-26T12:34:18Z</time>
      </trkpt>
      <trkpt lat="45.36774" lon="4.52889">
        <ele>1138.53</ele>
        <time>2017-03-26T12:34:19Z</time>
      </trkpt>
      <trkpt lat="45.36774" lon="4.52889">
        <ele>1138.53</ele>
        <time>2017-03-26T12:34:20Z</time>
      </trkpt>
      <trkpt lat="45.36774" lon="4.52889">
        <ele>1138.53</ele>
        <time>2017-03-26T12:34:21Z</time>
      </trkpt>
      <trkpt lat="45.36774" lon="4.52889">
        <ele>1138.53</ele>
        <time>2017-03-26T12:34:22Z</time>
      </trkpt>
      <trkpt lat="45.36774" lon="4.52889">
        <ele>1138.53</ele>
        <time>2017-03-26T12:34:23Z</time>
      </trkpt>
      <trkpt lat="45.36774" lon="4.52889">
        <ele>1138.53</ele>
        <time>2017-03-26T12:34:24Z</time>
      </trkpt>
      <trkpt lat="45.36774" lon="4.52889">
        <ele>1138.53</ele>
        <time>2017-03-26T12:34:25Z</time>
      </trkpt>
      <trkpt lat="45.36774" lon="4.52889">
        <ele>1138.53</ele>
        <time>2017-03-26T12:34:26Z</time>
      </trkpt>
      <trkpt lat="45.36774" lon="4.52889">
        <ele>1138.53</ele>
        <time>2017-03-26T12:34:27Z</time>
      </trkpt>
      <trkpt lat="45.36774" lon="4.52889">
        <ele>1138.53</ele>
        <time>2017-03-26T12:34:28Z</time>
      </trkpt>
      <trkpt lat="45.36774" lon="4.52889">
        <ele>1138.53</ele>
        <time>2017-03-26T12:34:29Z</time>
      </trkpt>
      <trkpt lat="45.36774" lon="4.52889">
        <ele>1138.53</ele>
        <time>2017-03-26T12:34:30Z</time>
      </trkpt>
      <trkpt lat="45.36774" lon="4.52889">
        <ele>1138.53</ele>
        <time>2017-03-26T12:34:31Z</time>
      </trkpt>
      <trkpt lat="45.36774" lon="4.52889">
        <ele>1138.53</ele>
        <time>2017-03-26T12:34:32Z</time>
      </trkpt>
      <trkpt lat="45.36774" lon="4.52889">
        <ele>1138.53</ele>
        <time>2017-03-26T12:34:33Z</time>
      </trkpt>
      <trkpt lat="45.36774" lon="4.52889">
        <ele>1138.53</ele>
        <time>2017-03-26T12:34:34Z</time>
      </trkpt>
      <trkpt lat="45.36774" lon="4.52889">
        <ele>1138.53</ele>
        <time>2017-03-26T12:34:35Z</time>
      </trkpt>
      <trkpt lat="45.36774" lon="4.52889">
        <ele>1138.53</ele>
        <time>2017-03-26T12:34:36Z</time>
      </trkpt>
      <trkpt lat="45.36774" lon="4.52889">
        <ele>1138.53</ele>
        <time>2017-03-26T12:34:37Z</time>
      </trkpt>
      <trkpt lat="45.36774" lon="4.52889">
        <ele>1138.53</ele>
        <time>2017-03-26T12:34:38Z</time>
      </trkpt>
      <trkpt lat="45.36774" lon="4.52889">
        <ele>1138.53</ele>
        <time>2017-03-26T12:34:39Z</time>
      </trkpt>
      <trkpt lat="45.36774" lon="4.52889">
        <ele>1138.53</ele>
        <time>2017-03-26T12:34:40Z</time>
      </trkpt>
      <trkpt lat="45.36774" lon="4.52889">
        <ele>1138.53</ele>
        <time>2017-03-26T12:34:41Z</time>
      </trkpt>
      <trkpt lat="45.36774" lon="4.52889">
        <ele>1138.53</ele>
        <time>2017-03-26T12:34:42Z</time>
      </trkpt>
      <trkpt lat="45.36774" lon="4.52889">
        <ele>1138.53</ele>
        <time>2017-03-26T12:34:43Z</time>
      </trkpt>
      <trkpt lat="45.36774" lon="4.52889">
        <ele>1138.53</ele>
        <time>2017-03-26T12:34:44Z</time>
      </trkpt>
      <trkpt lat="45.36774" lon="4.52889">
        <ele>1138.53</ele>
        <time>2017-03-26T12:34:45Z</time>
      </trkpt>
      <trkpt lat="45.36774" lon="4.52889">
        <ele>1138.53</ele>
        <time>2017-03-26T12:34:46Z</time>
      </trkpt>
      <trkpt lat="45.36774" lon="4.52889">
        <ele>1138.53</ele>
        <time>2017-03-26T12:34:47Z</time>
      </trkpt>
      <trkpt lat="45.36774" lon="4.52889">
        <ele>1138.53</ele>
        <time>2017-03-26T12:34:48Z</time>
      </trkpt>
      <trkpt lat="45.36774" lon="4.52889">
        <ele>1138.53</ele>
        <time>2017-03-26T12:34:49Z</time>
      </trkpt>
      <trkpt lat="45.36774" lon="4.52889">
        <ele>1138.53</ele>
        <time>2017-03-26T12:34:50Z</time>
      </trkpt>
      <trkpt lat="45.36774" lon="4.52889">
        <ele>1138.53</ele>
        <time>2017-03-26T12:34:51Z</time>
      </trkpt>
      <trkpt lat="45.36774" lon="4.52889">
        <ele>1138.53</ele>
        <time>2017-03-26T12:34:52Z</time>
      </trkpt>
      <trkpt lat="45.36774" lon="4.52889">
        <ele>1138.53</ele>
        <time>2017-03-26T12:34:53Z</time>
      </trkpt>
      <trkpt lat="45.36774" lon="4.52889">
        <ele>1138.53</ele>
        <time>2017-03-26T12:34:54Z</time>
      </trkpt>
      <trkpt lat="45.36774" lon="4.52889">
        <ele>1138.53</ele>
        <time>2017-03-26T12:34:55Z</time>
      </trkpt>
      <trkpt lat="45.36774" lon="4.52889">
        <ele>1138.53</ele>
        <time>2017-03-26T12:34:56Z</time>
      </trkpt>
      <trkpt lat="45.36774" lon="4.52889">
        <ele>1138.53</ele>
        <time>2017-03-26T12:34:57Z</time>
      </trkpt>
      <trkpt lat="45.36774" lon="4.52889">
        <ele>1138.53</ele>
        <time>2017-03-26T12:34:58Z</time>
      </trkpt>
      <trkpt lat="45.36774" lon="4.52889">
        <ele>1138.53</ele>
        <time>2017-03-26T12:34:59Z</time>
      </trkpt>
      <trkpt lat="45.36774" lon="4.52889">
        <ele>1138.53</ele>
        <time>2017-03-26T12:35:00Z</time>
      </trkpt>
      <trkpt lat="45.36774" lon="4.52889">
        <ele>1138.53</ele>
        <time>2017-03-26T12:35:01Z</time>
      </trkpt>
      <trkpt lat="45.36774" lon="4.52889">
        <ele>1138.53</ele>
        <time>2017-03-26T12:35:02Z</time>
      </trkpt>
      <trkpt lat="45.36774" lon="4.52889">
        <ele>1138.53</ele>
        <time>2017-03-26T12:35:03Z</time>
      </trkpt>
      <trkpt lat="45.36774" lon="4.52889">
        <ele>1138.53</ele>
        <time>2017-03-26T12:35:04Z</time>
      </trkpt>
      <trkpt lat="45.36774" lon="4.52889">
        <ele>1138.53</ele>
        <time>2017-03-26T12:35:05Z</time>
      </trkpt>
      <trkpt lat="45.36774" lon="4.52889">
        <ele>1138.53</ele>
        <time>2017-03-26T12:35:06Z</time>
      </trkpt>
      <trkpt lat="45.36774" lon="4.52889">
        <ele>1138.53</ele>
        <time>2017-03-26T12:35:07Z</time>
      </trkpt>
      <trkpt lat="45.36774" lon="4.52889">
        <ele>1138.53</ele>
        <time>2017-03-26T12:35:08Z</time>
      </trkpt>
      <trkpt lat="45.36774" lon="4.52889">
        <ele>1138.53</ele>
        <time>2017-03-26T12:35:09Z</time>
      </trkpt>
      <trkpt lat="45.36774" lon="4.52889">
        <ele>1138.53</ele>
        <time>2017-03-26T12:35:10Z</time>
      </trkpt>
      <trkpt lat="45.36774" lon="4.52889">
        <ele>1138.53</ele>
        <time>2017-03-26T12:35:11Z</time>
      </trkpt>
      <trkpt lat="45.36774" lon="4.52889">
        <ele>1138.53</ele>
        <time>2017-03-26T12:35:12Z</time>
      </trkpt>
      <trkpt lat="45.36774" lon="4.52889">
        <ele>1138.53</ele>
        <time>2017-03-26T12:35:13Z</time>
      </trkpt>
      <trkpt lat="45.36774" lon="4.52889">
        <ele>1138.53</ele>
        <time>2017-03-26T12:35:14Z</time>
      </trkpt>
      <trkpt lat="45.36774" lon="4.52889">
        <ele>1138.53</ele>
        <time>2017-03-26T12:35:15Z</time>
      </trkpt>
      <trkpt lat="45.36774" lon="4.52889">
        <ele>1138.53</ele>
        <time>2017-03-26T12:35:16Z</time>
      </trkpt>
      <trkpt lat="45.36774" lon="4.52889">
        <ele>1138.53</ele>
        <time>2017-03-26T12:35:17Z</time>
      </trkpt>
      <trkpt lat="45.36774" lon="4.52889">
        <ele>1138.53</ele>
        <time>2017-03-26T12:35:18Z</time>
      </trkpt>
      <trkpt lat="45.36774" lon="4.52889">
        <ele>1138.53</ele>
        <time>2017-03-26T12:35:19Z</time>
      </trkpt>
      <trkpt lat="45.36774" lon="4.52889">
        <ele>1138.53</ele>
        <time>2017-03-26T12:35:20Z</time>
      </trkpt>
      <trkpt lat="45.36774" lon="4.52889">
        <ele>1138.53</ele>
        <time>2017-03-26T12:35:21Z</time>
      </trkpt>
      <trkpt lat="45.36774" lon="4.52889">
        <ele>1138.53</ele>
        <time>2017-03-26T12:35:22Z</time>
      </trkpt>
      <trkpt lat="45.36774" lon="4.52889">
        <ele>1138.53</ele>
        <time>2017-03-26T12:35:23Z</time>
      </trkpt>
      <trkpt lat="45.36774" lon="4.52889">
        <ele>1138.53</ele>
        <time>2017-03-26T12:35:24Z</time>
      </trkpt>
      <trkpt lat="45.36774" lon="4.52889">
        <ele>1138.53</ele>
        <time>2017-03-26T12:35:25Z</time>
      </trkpt>
      <trkpt lat="45.36774" lon="4.52889">
        <ele>1138.53</ele>
        <time>2017-03-26T12:35:26Z</time>
      </trkpt>
      <trkpt lat="45.36774" lon="4.52889">
        <ele>1138.53</ele>
        <time>2017-03-26T12:35:27Z</time>
      </trkpt>
      <trkpt lat="45.36774" lon="4.52889">
        <ele>1138.53</ele>
        <time>2017-03-26T12:35:28Z</time>
      </trkpt>
      <trkpt lat="45.36774" lon="4.52889">
        <ele>1138.53</ele>
        <time>2017-03-26T12:35:29Z</time>
      </trkpt>
      <trkpt lat="45.36774" lon="4.52889">
        <ele>1138.53</ele>
        <time>2017-03-26T12:35:30Z</time>
      </trkpt>
      <trkpt lat="45.36774" lon="4.52889">
        <ele>1138.53</ele>
        <time>2017-03-26T12:35:31Z</time>
      </trkpt>
      <trkpt lat="45.36774" lon="4.52889">
        <ele>1138.53</ele>
        <time>2017-03-26T12:35:32Z</time>
      </trkpt>
      <trkpt lat="45.36774" lon="4.52889">
        <ele>1138.53</ele>
        <time>2017-03-26T12:35:33Z</time>
      </trkpt>
      <trkpt lat="45.36774" lon="4.52889">
        <ele>1138.53</ele>
        <time>2017-03-26T12:35:34Z</time>
      </trkpt>
      <trkpt lat="45.36774" lon="4.52889">
        <ele>1138.53</ele>
        <time>2017-03-26T12:35:35Z</time>
      </trkpt>
      <trkpt lat="45.36774" lon="4.52889">
        <ele>1138.53</ele>
        <time>2017-03-26T12:35:36Z</time>
      </trkpt>
      <trkpt lat="45.36774" lon="4.52889">
        <ele>1138.53</ele>
        <time>2017-03-26T12:35:37Z</time>
      </trkpt>
      <trkpt lat="45.36774" lon="4.52889">
        <ele>1138.53</ele>
        <time>2017-03-26T12:35:38Z</time>
      </trkpt>
      <trkpt lat="45.36774" lon="4.52889">
        <ele>1138.53</ele>
        <time>2017-03-26T12:35:39Z</time>
      </trkpt>
      <trkpt lat="45.36774" lon="4.52889">
        <ele>1138.53</ele>
        <time>2017-03-26T12:35:40Z</time>
      </trkpt>
      <trkpt lat="45.36774" lon="4.52889">
        <ele>1138.53</ele>
        <time>2017-03-26T12:35:41Z</time>
      </trkpt>
      <trkpt lat="45.36774" lon="4.52889">
        <ele>1138.53</ele>
        <time>2017-03-26T12:35:42Z</time>
      </trkpt>
      <trkpt lat="45.36774" lon="4.52889">
        <ele>1138.53</ele>
        <time>2017-03-26T12:35:43Z</time>
      </trkpt>
      <trkpt lat="45.36774" lon="4.52889">
        <ele>1138.53</ele>
        <time>2017-03-26T12:35:44Z</time>
      </trkpt>
      <trkpt lat="45.36774" lon="4.52889">
        <ele>1138.53</ele>
        <time>2017-03-26T12:35:45Z</time>
      </trkpt>
      <trkpt lat="45.36774" lon="4.52889">
        <ele>1138.53</ele>
        <time>2017-03-26T12:35:46Z</time>
      </trkpt>
      <trkpt lat="45.36774" lon="4.52889">
        <ele>1138.53</ele>
        <time>2017-03-26T12:35:47Z</time>
      </trkpt>
      <trkpt lat="45.36774" lon="4.52889">
        <ele>1138.53</ele>
        <time>2017-03-26T12:35:48Z</time>
      </trkpt>
      <trkpt lat="45.36774" lon="4.52889">
        <ele>1138.53</ele>
        <time>2017-03-26T12:35:49Z</time>
      </trkpt>
      <trkpt lat="45.36774" lon="4.52889">
        <ele>1138.53</ele>
        <time>2017-03-26T12:35:50Z</time>
      </trkpt>
      <trkpt lat="45.36774" lon="4.52889">
        <ele>1138.53</ele>
        <time>2017-03-26T12:35:51Z</time>
      </trkpt>
      <trkpt lat="45.36774" lon="4.52889">
        <ele>1138.53</ele>
        <time>2017-03-26T12:35:52Z</time>
      </trkpt>
      <trkpt lat="45.36774" lon="4.52889">
        <ele>1138.53</ele>
        <time>2017-03-26T12:35:53Z</time>
      </trkpt>
      <trkpt lat="45.36774" lon="4.52889">
        <ele>1138.53</ele>
        <time>2017-03-26T12:35:54Z</time>
      </trkpt>
      <trkpt lat="45.36774" lon="4.52889">
        <ele>1138.53</ele>
        <time>2017-03-26T12:35:55Z</time>
      </trkpt>
      <trkpt lat="45.36774" lon="4.52889">
        <ele>1138.53</ele>
        <time>2017-03-26T12:35:56Z</time>
      </trkpt>
      <trkpt lat="45.36774" lon="4.52889">
        <ele>1138.53</ele>
        <time>2017-03-26T12:35:57Z</time>
      </trkpt>
      <trkpt lat="45.36774" lon="4.52889">
        <ele>1138.53</ele>
        <time>2017-03-26T12:35:58Z</time>
      </trkpt>
      <trkpt lat="45.36774" lon="4.52889">
        <ele>1138.53</ele>
        <time>2017-03-26T12:35:59Z</time>
      </trkpt>
      <trkpt lat="45.36774" lon="4.52889">
        <ele>1138.53</ele>
        <time>2017-03-26T12:36:00Z</time>
      </trkpt>
      <trkpt lat="45.36774" lon="4.52889">
        <ele>1138.53</ele>
        <time>2017-03-26T12:36:01Z</time>
      </trkpt>
      <trkpt lat="45.36774" lon="4.52889">
        <ele>1138.53</ele>
        <time>2017-03-26T12:36:02Z</time>
      </trkpt>
      <trkpt lat="45.36774" lon="4.52889">
        <ele>1138.53</ele>
        <time>2017-03-26T12:36:03Z</time>
      </trkpt>
      <trkpt lat="45.36774" lon="4.52889">
        <ele>1138.53</ele>
        <time>2017-03-26T12:36:04Z</time>
      </trkpt>
      <trkpt lat="45.36774" lon="4.52889">
        <ele>1138.53</ele>
        <time>2017-03-26T12:36:05Z</time>
      </trkpt>
      <trkpt lat="45.36774" lon="4.52889">
        <ele>1138.53</ele>
        <time>2017-03-26T12:36:06Z</time>
      </trkpt>
      <trkpt lat="45.36774" lon="4.52889">
        <ele>1138.53</ele>
        <time>2017-03-26T12:36:07Z</time>
      </trkpt>
      <trkpt lat="45.36774" lon="4.52889">
        <ele>1138.53</ele>
        <time>2017-03-26T12:36:08Z</time>
      </trkpt>
      <trkpt lat="45.36774" lon="4.52889">
        <ele>1138.53</ele>
        <time>2017-03-26T12:36:09Z</time>
      </trkpt>
      <trkpt lat="45.36774" lon="4.52889">
        <ele>1138.53</ele>
        <time>2017-03-26T12:36:10Z</time>
      </trkpt>
      <trkpt lat="45.36774" lon="4.52889">
        <ele>1138.53</ele>
        <time>2017-03-26T12:36:11Z</time>
      </trkpt>
      <trkpt lat="45.36774" lon="4.52889">
        <ele>1138.53</ele>
        <time>2017-03-26T12:36:12Z</time>
      </trkpt>
      <trkpt lat="45.36774" lon="4.52889">
        <ele>1138.53</ele>
        <time>2017-03-26T12:36:13Z</time>
      </trkpt>
      <trkpt lat="45.36774" lon="4.52889">
        <ele>1138.53</ele>
        <time>2017-03-26T12:36:14Z</time>
      </trkpt>
      <trkpt lat="45.36774" lon="4.52889">
        <ele>1138.53</ele>
        <time>2017-03-26T12:36:15Z</time>
      </trkpt>
      <trkpt lat="45.36774" lon="4.52889">
        <ele>1138.53</ele>
        <time>2017-03-26T12:36:16Z</time>
      </trkpt>
      <trkpt lat="45.36774" lon="4.52889">
        <ele>1138.53</ele>
        <time>2017-03-26T12:36:17Z</time>
      </trkpt>
      <trkpt lat="45.36774" lon="4.52889">
        <ele>1138.53</ele>
        <time>2017-03-26T12:36:18Z</time>
      </trkpt>
      <trkpt lat="45.36774" lon="4.52889">
        <ele>1138.53</ele>
        <time>2017-03-26T12:36:19Z</time>
      </trkpt>
      <trkpt lat="45.36774" lon="4.52889">
        <ele>1138.53</ele>
        <time>2017-03-26T12:36:20Z</time>
      </trkpt>
      <trkpt lat="45.36774" lon="4.52889">
        <ele>1138.53</ele>
        <time>2017-03-26T12:36:21Z</time>
      </trkpt>
      <trkpt lat="45.36774" lon="4.52889">
        <ele>1138.53</ele>
        <time>2017-03-26T12:36:22Z</time>
      </trkpt>
      <trkpt lat="45.36774" lon="4.52889">
        <ele>1138.53</ele>
        <time>2017-03-26T12:36:23Z</time>
      </trkpt>
      <trkpt lat="45.36774" lon="4.52889">
        <ele>1138.53</ele>
        <time>2017-03-26T12:36:24Z</time>
      </trkpt>
      <trkpt lat="45.36774" lon="4.52889">
        <ele>1138.53</ele>
        <time>2017-03-26T12:36:25Z</time>
      </trkpt>
      <trkpt lat="45.36774" lon="4.52889">
        <ele>1138.53</ele>
        <time>2017-03-26T12:36:26Z</time>
      </trkpt>
      <trkpt lat="45.36774" lon="4.52889">
        <ele>1138.53</ele>
        <time>2017-03-26T12:36:27Z</time>
      </trkpt>
      <trkpt lat="45.36774" lon="4.52889">
        <ele>1138.53</ele>
        <time>2017-03-26T12:36:28Z</time>
      </trkpt>
      <trkpt lat="45.36774" lon="4.52889">
        <ele>1138.53</ele>
        <time>2017-03-26T12:36:29Z</time>
      </trkpt>
      <trkpt lat="45.36774" lon="4.52889">
        <ele>1138.53</ele>
        <time>2017-03-26T12:36:30Z</time>
      </trkpt>
      <trkpt lat="45.36774" lon="4.52889">
        <ele>1138.53</ele>
        <time>2017-03-26T12:36:31Z</time>
      </trkpt>
      <trkpt lat="45.36774" lon="4.52889">
        <ele>1138.53</ele>
        <time>2017-03-26T12:36:32Z</time>
      </trkpt>
      <trkpt lat="45.36774" lon="4.52889">
        <ele>1138.53</ele>
        <time>2017-03-26T12:36:33Z</time>
      </trkpt>
      <trkpt lat="45.36774" lon="4.52889">
        <ele>1138.53</ele>
        <time>2017-03-26T12:36:34Z</time>
      </trkpt>
      <trkpt lat="45.36774" lon="4.52889">
        <ele>1138.53</ele>
        <time>2017-03-26T12:36:35Z</time>
      </trkpt>
      <trkpt lat="45.36774" lon="4.52889">
        <ele>1138.53</ele>
        <time>2017-03-26T12:36:36Z</time>
      </trkpt>
      <trkpt lat="45.36774" lon="4.52889">
        <ele>1138.53</ele>
        <time>2017-03-26T12:36:37Z</time>
      </trkpt>
      <trkpt lat="45.36774" lon="4.52889">
        <ele>1138.53</ele>
        <time>2017-03-26T12:36:38Z</time>
      </trkpt>
      <trkpt lat="45.36774" lon="4.52889">
        <ele>1138.53</ele>
        <time>2017-03-26T12:36:39Z</time>
      </trkpt>
      <trkpt lat="45.36774" lon="4.52889">
        <ele>1138.53</ele>
        <time>2017-03-26T12:36:40Z</time>
      </trkpt>
      <trkpt lat="45.36774" lon="4.52889">
        <ele>1138.53</ele>
        <time>2017-03-26T12:36:41Z</time>
      </trkpt>
      <trkpt lat="45.36774" lon="4.52889">
        <ele>1138.53</ele>
        <time>2017-03-26T12:36:42Z</time>
      </trkpt>
      <trkpt lat="45.36774" lon="4.52889">
        <ele>1138.53</ele>
        <time>2017-03-26T12:36:43Z</time>
      </trkpt>
      <trkpt lat="45.36774" lon="4.52889">
        <ele>1138.53</ele>
        <time>2017-03-26T12:36:44Z</time>
      </trkpt>
      <trkpt lat="45.36774" lon="4.52889">
        <ele>1138.53</ele>
        <time>2017-03-26T12:36:45Z</time>
      </trkpt>
      <trkpt lat="45.36774" lon="4.52889">
        <ele>1138.53</ele>
        <time>2017-03-26T12:36:46Z</time>
      </trkpt>
      <trkpt lat="45.36774" lon="4.52889">
        <ele>1138.53</ele>
        <time>2017-03-26T12:36:47Z</time>
      </trkpt>
      <trkpt lat="45.36774" lon="4.52889">
        <ele>1138.53</ele>
        <time>2017-03-26T12:36:48Z</time>
      </trkpt>
      <trkpt lat="45.36774" lon="4.52889">
        <ele>1138.53</ele>
        <time>2017-03-26T12:36:49Z</time>
      </trkpt>
      <trkpt lat="45.36774" lon="4.52889">
        <ele>1138.53</ele>
        <time>2017-03-26T12:36:50Z</time>
      </trkpt>
      <trkpt lat="45.36774" lon="4.52889">
        <ele>1138.53</ele>
        <time>2017-03-26T12:36:51Z</time>
      </trkpt>
      <trkpt lat="45.36774" lon="4.52889">
        <ele>1138.53</ele>
        <time>2017-03-26T12:36:52Z</time>
      </trkpt>
      <trkpt lat="45.36774" lon="4.52889">
        <ele>1138.53</ele>
        <time>2017-03-26T12:36:53Z</time>
      </trkpt>
      <trkpt lat="45.36774" lon="4.52889">
        <ele>1138.53</ele>
        <time>2017-03-26T12:36:54Z</time>
      </trkpt>
      <trkpt lat="45.36774" lon="4.52889">
        <ele>1138.53</ele>
        <time>2017-03-26T12:36:55Z</time>
      </trkpt>
      <trkpt lat="45.36774" lon="4.52889">
        <ele>1138.53</ele>
        <time>2017-03-26T12:36:56Z</time>
      </trkpt>
      <trkpt lat="45.36774" lon="4.52889">
        <ele>1138.53</ele>
        <time>2017-03-26T12:36:57Z</time>
      </trkpt>
      <trkpt lat="45.36774" lon="4.52889">
        <ele>1138.53</ele>
        <time>2017-03-26T12:36:58Z</time>
      </trkpt>
      <trkpt lat="45.36774" lon="4.52889">
        <ele>1138.53</ele>
        <time>2017-03-26T12:36:59Z</time>
      </trkpt>
      <trkpt lat="45.36774" lon="4.52889">
        <ele>1138.53</ele>
        <time>2017-03-26T12:37:00Z</time>
      </trkpt>
      <trkpt lat="45.36774" lon="4.52889">
        <ele>1138.53</ele>
        <time>2017-03-26T12:37:01Z</time>
      </trkpt>
      <trkpt lat="45.36774" lon="4.52889">
        <ele>1138.53</ele>
        <time>2017-03-26T12:37:02Z</time>
      </trkpt>
      <trkpt lat="45.36774" lon="4.52889">
        <ele>1138.53</ele>
        <time>2017-03-26T12:37:03Z</time>
      </trkpt>
      <trkpt lat="45.36774" lon="4.52889">
        <ele>1138.53</ele>
        <time>2017-03-26T12:37:04Z</time>
      </trkpt>
      <trkpt lat="45.36774" lon="4.52889">
        <ele>1138.53</ele>
        <time>2017-03-26T12:37:05Z</time>
      </trkpt>
      <trkpt lat="45.36774" lon="4.52889">
        <ele>1138.53</ele>
        <time>2017-03-26T12:37:06Z</time>
      </trkpt>
      <trkpt lat="45.36774" lon="4.52889">
        <ele>1138.53</ele>
        <time>2017-03-26T12:37:07Z</time>
      </trkpt>
      <trkpt lat="45.36774" lon="4.52889">
        <ele>1138.53</ele>
        <time>2017-03-26T12:37:08Z</time>
      </trkpt>
      <trkpt lat="45.36774" lon="4.52889">
        <ele>1138.53</ele>
        <time>2017-03-26T12:37:09Z</time>
      </trkpt>
      <trkpt lat="45.36774" lon="4.52889">
        <ele>1138.53</ele>
        <time>2017-03-26T12:37:10Z</time>
      </trkpt>
      <trkpt lat="45.36774" lon="4.52889">
        <ele>1138.53</ele>
        <time>2017-03-26T12:37:11Z</time>
      </trkpt>
      <trkpt lat="45.36774" lon="4.52889">
        <ele>1138.53</ele>
        <time>2017-03-26T12:37:12Z</time>
      </trkpt>
      <trkpt lat="45.36774" lon="4.52889">
        <ele>1138.53</ele>
        <time>2017-03-26T12:37:13Z</time>
      </trkpt>
      <trkpt lat="45.36774" lon="4.52889">
        <ele>1138.53</ele>
        <time>2017-03-26T12:37:14Z</time>
      </trkpt>
      <trkpt lat="45.36774" lon="4.52889">
        <ele>1138.53</ele>
        <time>2017-03-26T12:37:15Z</time>
      </trkpt>
      <trkpt lat="45.36774" lon="4.52889">
        <ele>1138.53</ele>
        <time>2017-03-26T12:37:16Z</time>
      </trkpt>
      <trkpt lat="45.36774" lon="4.52889">
        <ele>1138.53</ele>
        <time>2017-03-26T12:37:17Z</time>
      </trkpt>
      <trkpt lat="45.36774" lon="4.52889">
        <ele>1138.53</ele>
        <time>2017-03-26T12:37:18Z</time>
      </trkpt>
      <trkpt lat="45.36774" lon="4.52889">
        <ele>1138.53</ele>
        <time>2017-03-26T12:37:19Z</time>
      </trkpt>
      <trkpt lat="45.36774" lon="4.52889">
        <ele>1138.53</ele>
        <time>2017-03-26T12:37:20Z</time>
      </trkpt>
      <trkpt lat="45.36774" lon="4.52889">
        <ele>1138.53</ele>
        <time>2017-03-26T12:37:21Z</time>
      </trkpt>
      <trkpt lat="45.36774" lon="4.52889">
        <ele>1138.53</ele>
        <time>2017-03-26T12:37:22Z</time>
      </trkpt>
      <trkpt lat="45.36774" lon="4.52889">
        <ele>1138.53</ele>
        <time>2017-03-26T12:37:23Z</time>
      </trkpt>
      <trkpt lat="45.36774" lon="4.52889">
        <ele>1138.53</ele>
        <time>2017-03-26T12:37:24Z</time>
      </trkpt>
      <trkpt lat="45.36774" lon="4.52889">
        <ele>1138.53</ele>
        <time>2017-03-26T12:37:25Z</time>
      </trkpt>
      <trkpt lat="45.36774" lon="4.52889">
        <ele>1138.53</ele>
        <time>2017-03-26T12:37:26Z</time>
      </trkpt>
      <trkpt lat="45.36774" lon="4.52889">
        <ele>1138.53</ele>
        <time>2017-03-26T12:37:27Z</time>
      </trkpt>
      <trkpt lat="45.36774" lon="4.52889">
        <ele>1138.53</ele>
        <time>2017-03-26T12:37:28Z</time>
      </trkpt>
      <trkpt lat="45.36774" lon="4.52889">
        <ele>1138.53</ele>
        <time>2017-03-26T12:37:29Z</time>
      </trkpt>
      <trkpt lat="45.36774" lon="4.52889">
        <ele>1138.53</ele>
        <time>2017-03-26T12:37:30Z</time>
      </trkpt>
      <trkpt lat="45.36774" lon="4.52889">
        <ele>1138.53</ele>
        <time>2017-03-26T12:37:31Z</time>
      </trkpt>
      <trkpt lat="45.36774" lon="4.52889">
        <ele>1138.53</ele>
        <time>2017-03-26T12:37:32Z</time>
      </trkpt>
      <trkpt lat="45.36774" lon="4.52889">
        <ele>1138.53</ele>
        <time>2017-03-26T12:37:33Z</time>
      </trkpt>
      <trkpt lat="45.36774" lon="4.52889">
        <ele>1138.53</ele>
        <time>2017-03-26T12:37:34Z</time>
      </trkpt>
      <trkpt lat="45.36774" lon="4.52889">
        <ele>1138.53</ele>
        <time>2017-03-26T12:37:35Z</time>
      </trkpt>
      <trkpt lat="45.36774" lon="4.52889">
        <ele>1138.53</ele>
        <time>2017-03-26T12:37:36Z</time>
      </trkpt>
      <trkpt lat="45.36774" lon="4.52889">
        <ele>1138.53</ele>
        <time>2017-03-26T12:37:37Z</time>
      </trkpt>
      <trkpt lat="45.36774" lon="4.52889">
        <ele>1138.53</ele>
        <time>2017-03-26T12:37:38Z</time>
      </trkpt>
      <trkpt lat="45.36774" lon="4.52889">
        <ele>1138.53</ele>
        <time>2017-03-26T12:37:39Z</time>
      </trkpt>
      <trkpt lat="45.36774" lon="4.52889">
        <ele>1138.53</ele>
        <time>2017-03-26T12:37:40Z</time>
      </trkpt>
      <trkpt lat="45.36774" lon="4.52889">
        <ele>1138.53</ele>
        <time>2017-03-26T12:37:41Z</time>
      </trkpt>
      <trkpt lat="45.36774" lon="4.52889">
        <ele>1138.53</ele>
        <time>2017-03-26T12:37:42Z</time>
      </trkpt>
      <trkpt lat="45.36774" lon="4.52889">
        <ele>1138.53</ele>
        <time>2017-03-26T12:37:43Z</time>
      </trkpt>
      <trkpt lat="45.36774" lon="4.52889">
        <ele>1138.53</ele>
        <time>2017-03-26T12:37:44Z</time>
      </trkpt>
      <trkpt lat="45.36774" lon="4.52889">
        <ele>1138.53</ele>
        <time>2017-03-26T12:37:45Z</time>
      </trkpt>
      <trkpt lat="45.36774" lon="4.52889">
        <ele>1138.53</ele>
        <time>2017-03-26T12:37:46Z</time>
      </trkpt>
      <trkpt lat="45.36774" lon="4.52889">
        <ele>1138.53</ele>
        <time>2017-03-26T12:37:47Z</time>
      </trkpt>
      <trkpt lat="45.36774" lon="4.52889">
        <ele>1138.53</ele>
        <time>2017-03-26T12:37:48Z</time>
      </trkpt>
      <trkpt lat="45.36774" lon="4.52889">
        <ele>1138.53</ele>
        <time>2017-03-26T12:37:49Z</time>
      </trkpt>
      <trkpt lat="45.36774" lon="4.52889">
        <ele>1138.53</ele>
        <time>2017-03-26T12:37:50Z</time>
      </trkpt>
      <trkpt lat="45.36774" lon="4.52889">
        <ele>1138.53</ele>
        <time>2017-03-26T12:37:51Z</time>
      </trkpt>
      <trkpt lat="45.36774" lon="4.52889">
        <ele>1138.53</ele>
        <time>2017-03-26T12:37:52Z</time>
      </trkpt>
      <trkpt lat="45.36774" lon="4.52889">
        <ele>1138.53</ele>
        <time>2017-03-26T12:37:53Z</time>
      </trkpt>
      <trkpt lat="45.36774" lon="4.52889">
        <ele>1138.53</ele>
        <time>2017-03-26T12:37:54Z</time>
      </trkpt>
      <trkpt lat="45.36774" lon="4.52889">
        <ele>1138.53</ele>
        <time>2017-03-26T12:37:55Z</time>
      </trkpt>
      <trkpt lat="45.36774" lon="4.52889">
        <ele>1138.53</ele>
        <time>2017-03-26T12:37:56Z</time>
      </trkpt>
      <trkpt lat="45.36774" lon="4.52889">
        <ele>1138.53</ele>
        <time>2017-03-26T12:37:57Z</time>
      </trkpt>
      <trkpt lat="45.36774" lon="4.52889">
        <ele>1138.53</ele>
        <time>2017-03-26T12:37:58Z</time>
      </trkpt>
      <trkpt lat="45.36774" lon="4.52889">
        <ele>1138.53</ele>
        <time>2017-03-26T12:37:59Z</time>
      </trkpt>
      <trkpt lat="45.36774" lon="4.52889">
        <ele>1138.53</ele>
        <time>2017-03-26T12:38:00Z</time>
      </trkpt>
      <trkpt lat="45.36774" lon="4.52889">
        <ele>1138.53</ele>
        <time>2017-03-26T12:38:01Z</time>
      </trkpt>
      <trkpt lat="45.36774" lon="4.52889">
        <ele>1138.53</ele>
        <time>2017-03-26T12:38:02Z</time>
      </trkpt>
      <trkpt lat="45.36774" lon="4.52889">
        <ele>1138.53</ele>
        <time>2017-03-26T12:38:03Z</time>
      </trkpt>
      <trkpt lat="45.36774" lon="4.52889">
        <ele>1138.53</ele>
        <time>2017-03-26T12:38:04Z</time>
      </trkpt>
      <trkpt lat="45.36774" lon="4.52889">
        <ele>1138.53</ele>
        <time>2017-03-26T12:38:05Z</time>
      </trkpt>
      <trkpt lat="45.36774" lon="4.52889">
        <ele>1138.53</ele>
        <time>2017-03-26T12:38:06Z</time>
      </trkpt>
      <trkpt lat="45.36774" lon="4.52889">
        <ele>1138.53</ele>
        <time>2017-03-26T12:38:07Z</time>
      </trkpt>
      <trkpt lat="45.36774" lon="4.52889">
        <ele>1138.53</ele>
        <time>2017-03-26T12:38:08Z</time>
      </trkpt>
      <trkpt lat="45.36774" lon="4.52889">
        <ele>1138.53</ele>
        <time>2017-03-26T12:38:09Z</time>
      </trkpt>
      <trkpt lat="45.36774" lon="4.52889">
        <ele>1138.53</ele>
        <time>2017-03-26T12:38:10Z</time>
      </trkpt>
      <trkpt lat="45.36774" lon="4.52889">
        <ele>1138.53</ele>
        <time>2017-03-26T12:38:11Z</time>
      </trkpt>
      <trkpt lat="45.36774" lon="4.52889">
        <ele>1138.53</ele>
        <time>2017-03-26T12:38:12Z</time>
      </trkpt>
      <trkpt lat="45.36774" lon="4.52889">
        <ele>1138.53</ele>
        <time>2017-03-26T12:38:13Z</time>
      </trkpt>
      <trkpt lat="45.36774" lon="4.52889">
        <ele>1138.53</ele>
        <time>2017-03-26T12:38:14Z</time>
      </trkpt>
      <trkpt lat="45.36774" lon="4.52889">
        <ele>1138.53</ele>
        <time>2017-03-26T12:38:15Z</time>
      </trkpt>
      <trkpt lat="45.36774" lon="4.52889">
        <ele>1138.53</ele>
        <time>2017-03-26T12:38:16Z</time>
      </trkpt>
      <trkpt lat="45.36774" lon="4.52889">
        <ele>1138.53</ele>
        <time>2017-03-26T12:38:17Z</time>
      </trkpt>
      <trkpt lat="45.36774" lon="4.52889">
        <ele>1138.53</ele>
        <time>2017-03-26T12:38:18Z</time>
      </trkpt>
      <trkpt lat="45.36774" lon="4.52889">
        <ele>1138.53</ele>
        <time>2017-03-26T12:38:19Z</time>
      </trkpt>
      <trkpt lat="45.36774" lon="4.52889">
        <ele>1138.53</ele>
        <time>2017-03-26T12:38:20Z</time>
      </trkpt>
      <trkpt lat="45.36774" lon="4.52889">
        <ele>1138.53</ele>
        <time>2017-03-26T12:38:21Z</time>
      </trkpt>
      <trkpt lat="45.36774" lon="4.52889">
        <ele>1138.53</ele>
        <time>2017-03-26T12:38:22Z</time>
      </trkpt>
      <trkpt lat="45.36774" lon="4.52889">
        <ele>1138.53</ele>
        <time>2017-03-26T12:38:23Z</time>
      </trkpt>
      <trkpt lat="45.36774" lon="4.52889">
        <ele>1138.53</ele>
        <time>2017-03-26T12:38:24Z</time>
      </trkpt>
      <trkpt lat="45.36774" lon="4.52889">
        <ele>1138.53</ele>
        <time>2017-03-26T12:38:25Z</time>
      </trkpt>
      <trkpt lat="45.36774" lon="4.52889">
        <ele>1138.53</ele>
        <time>2017-03-26T12:38:26Z</time>
      </trkpt>
      <trkpt lat="45.36774" lon="4.52889">
        <ele>1138.53</ele>
        <time>2017-03-26T12:38:27Z</time>
      </trkpt>
      <trkpt lat="45.36774" lon="4.52889">
        <ele>1138.53</ele>
        <time>2017-03-26T12:38:28Z</time>
      </trkpt>
      <trkpt lat="45.36774" lon="4.52889">
        <ele>1138.53</ele>
        <time>2017-03-26T12:38:29Z</time>
      </trkpt>
      <trkpt lat="45.36774" lon="4.52889">
        <ele>1138.53</ele>
        <time>2017-03-26T12:38:30Z</time>
      </trkpt>
      <trkpt lat="45.36774" lon="4.52889">
        <ele>1138.53</ele>
        <time>2017-03-26T12:38:31Z</time>
      </trkpt>
      <trkpt lat="45.36774" lon="4.52889">
        <ele>1138.53</ele>
        <time>2017-03-26T12:38:32Z</time>
      </trkpt>
      <trkpt lat="45.36774" lon="4.52889">
        <ele>1138.53</ele>
        <time>2017-03-26T12:38:33Z</time>
      </trkpt>
      <trkpt lat="45.36774" lon="4.52889">
        <ele>1138.53</ele>
        <time>2017-03-26T12:38:34Z</time>
      </trkpt>
      <trkpt lat="45.36774" lon="4.52889">
        <ele>1138.53</ele>
        <time>2017-03-26T12:38:35Z</time>
      </trkpt>
      <trkpt lat="45.36774" lon="4.52889">
        <ele>1138.53</ele>
        <time>2017-03-26T12:38:36Z</time>
      </trkpt>
      <trkpt lat="45.36774" lon="4.52889">
        <ele>1138.53</ele>
        <time>2017-03-26T12:38:37Z</time>
      </trkpt>
      <trkpt lat="45.36774" lon="4.52889">
        <ele>1138.53</ele>
        <time>2017-03-26T12:38:38Z</time>
      </trkpt>
      <trkpt lat="45.36774" lon="4.52889">
        <ele>1138.53</ele>
        <time>2017-03-26T12:38:39Z</time>
      </trkpt>
      <trkpt lat="45.36774" lon="4.52889">
        <ele>1138.53</ele>
        <time>2017-03-26T12:38:40Z</time>
      </trkpt>
      <trkpt lat="45.36774" lon="4.52889">
        <ele>1138.53</ele>
        <time>2017-03-26T12:38:41Z</time>
      </trkpt>
      <trkpt lat="45.36774" lon="4.52889">
        <ele>1138.53</ele>
        <time>2017-03-26T12:38:42Z</time>
      </trkpt>
      <trkpt lat="45.36774" lon="4.52889">
        <ele>1138.53</ele>
        <time>2017-03-26T12:38:43Z</time>
      </trkpt>
      <trkpt lat="45.36774" lon="4.52889">
        <ele>1138.53</ele>
        <time>2017-03-26T12:38:44Z</time>
      </trkpt>
      <trkpt lat="45.36774" lon="4.52889">
        <ele>1138.53</ele>
        <time>2017-03-26T12:38:45Z</time>
      </trkpt>
      <trkpt lat="45.36774" lon="4.52889">
        <ele>1138.53</ele>
        <time>2017-03-26T12:38:46Z</time>
      </trkpt>
      <trkpt lat="45.36774" lon="4.52889">
        <ele>1138.53</ele>
        <time>2017-03-26T12:38:47Z</time>
      </trkpt>
      <trkpt lat="45.36774" lon="4.52889">
        <ele>1138.53</ele>
        <time>2017-03-26T12:38:48Z</time>
      </trkpt>
      <trkpt lat="45.36774" lon="4.52889">
        <ele>1138.53</ele>
        <time>2017-03-26T12:38:49Z</time>
      </trkpt>
      <trkpt lat="45.36774" lon="4.52889">
        <ele>1138.53</ele>
        <time>2017-03-26T12:38:50Z</time>
      </trkpt>
      <trkpt lat="45.36774" lon="4.52889">
        <ele>1138.53</ele>
        <time>2017-03-26T12:38:51Z</time>
      </trkpt>
      <trkpt lat="45.36775" lon="4.52886">
        <ele>1142.29</ele>
        <time>2017-03-26T12:38:52Z</time>
      </trkpt>
      <trkpt lat="45.36776" lon="4.52881">
        <ele>1143.2</ele>
        <time>2017-03-26T12:38:53Z</time>
      </trkpt>
      <trkpt lat="45.36778" lon="4.52875">
        <ele>1143.38</ele>
        <time>2017-03-26T12:38:54Z</time>
      </trkpt>
      <trkpt lat="45.3678" lon="4.52868">
        <ele>1143.5</ele>
        <time>2017-03-26T12:38:55Z</time>
      </trkpt>
      <trkpt lat="45.36783" lon="4.5286">
        <ele>1143.6</ele>
        <time>2017-03-26T12:38:56Z</time>
      </trkpt>
      <trkpt lat="45.36785" lon="4.52852">
        <ele>1143.78</ele>
        <time>2017-03-26T12:38:57Z</time>
      </trkpt>
      <trkpt lat="45.36787" lon="4.52845">
        <ele>1143.82</ele>
        <time>2017-03-26T12:38:58Z</time>
      </trkpt>
      <trkpt lat="45.36788" lon="4.5284">
        <ele>1143.91</ele>
        <time>2017-03-26T12:38:59Z</time>
      </trkpt>
      <trkpt lat="45.36789" lon="4.52836">
        <ele>1143.93</ele>
        <time>2017-03-26T12:39:00Z</time>
      </trkpt>
      <trkpt lat="45.3679" lon="4.52833">
        <ele>1144.09</ele>
        <time>2017-03-26T12:39:01Z</time>
      </trkpt>
      <trkpt lat="45.3679" lon="4.52831">
        <ele>1144.28</ele>
        <time>2017-03-26T12:39:02Z</time>
      </trkpt>
      <trkpt lat="45.36791" lon="4.52829">
        <ele>1144.56</ele>
        <time>2017-03-26T12:39:03Z</time>
      </trkpt>
      <trkpt lat="45.36791" lon="4.52828">
        <ele>1144.78</ele>
        <time>2017-03-26T12:39:04Z</time>
      </trkpt>
      <trkpt lat="45.36791" lon="4.52827">
        <ele>1144.9</ele>
        <time>2017-03-26T12:39:05Z</time>
      </trkpt>
      <trkpt lat="45.36791" lon="4.52826">
        <ele>1145.08</ele>
        <time>2017-03-26T12:39:06Z</time>
      </trkpt>
      <trkpt lat="45.36791" lon="4.52824">
        <ele>1145.28</ele>
        <time>2017-03-26T12:39:07Z</time>
      </trkpt>
      <trkpt lat="45.3679" lon="4.52821">
        <ele>1145.48</ele>
        <time>2017-03-26T12:39:08Z</time>
      </trkpt>
      <trkpt lat="45.36785" lon="4.52819">
        <ele>1145.6</ele>
        <time>2017-03-26T12:39:09Z</time>
      </trkpt>
      <trkpt lat="45.36779" lon="4.52819">
        <ele>1145.86</ele>
        <time>2017-03-26T12:39:10Z</time>
      </trkpt>
      <trkpt lat="45.36772" lon="4.5282">
        <ele>1146.16</ele>
        <time>2017-03-26T12:39:11Z</time>
      </trkpt>
      <trkpt lat="45.36764" lon="4.52821">
        <ele>1146.38</ele>
        <time>2017-03-26T12:39:12Z</time>
      </trkpt>
      <trkpt lat="45.36755" lon="4.52822">
        <ele>1146.42</ele>
        <time>2017-03-26T12:39:13Z</time>
      </trkpt>
      <trkpt lat="45.36746" lon="4.52822">
        <ele>1146.43</ele>
        <time>2017-03-26T12:39:14Z</time>
      </trkpt>
      <trkpt lat="45.36736" lon="4.52822">
        <ele>1146.43</ele>
        <time>2017-03-26T12:39:15Z</time>
      </trkpt>
      <trkpt lat="45.36724" lon="4.52822">
        <ele>1146.27</ele>
        <time>2017-03-26T12:39:16Z</time>
      </trkpt>
      <trkpt lat="45.36712" lon="4.52822">
        <ele>1146.32</ele>
        <time>2017-03-26T12:39:17Z</time>
      </trkpt>
      <trkpt lat="45.36698" lon="4.52824">
        <ele>1146.17</ele>
        <time>2017-03-26T12:39:18Z</time>
      </trkpt>
      <trkpt lat="45.36685" lon="4.52827">
        <ele>1146.06</ele>
        <time>2017-03-26T12:39:19Z</time>
      </trkpt>
      <trkpt lat="45.36671" lon="4.52833">
        <ele>1145.88</ele>
        <time>2017-03-26T12:39:20Z</time>
      </trkpt>
      <trkpt lat="45.36656" lon="4.52841">
        <ele>1145.68</ele>
        <time>2017-03-26T12:39:21Z</time>
      </trkpt>
      <trkpt lat="45.36642" lon="4.5285">
        <ele>1145.48</ele>
        <time>2017-03-26T12:39:22Z</time>
      </trkpt>
      <trkpt lat="45.36629" lon="4.52863">
        <ele>1145.28</ele>
        <time>2017-03-26T12:39:23Z</time>
      </trkpt>
      <trkpt lat="45.3662" lon="4.52881">
        <ele>1145.16</ele>
        <time>2017-03-26T12:39:24Z</time>
      </trkpt>
      <trkpt lat="45.3661" lon="4.529">
        <ele>1145.06</ele>
        <time>2017-03-26T12:39:25Z</time>
      </trkpt>
      <trkpt lat="45.36602" lon="4.52919">
        <ele>1144.96</ele>
        <time>2017-03-26T12:39:26Z</time>
      </trkpt>
      <trkpt lat="45.36594" lon="4.52939">
        <ele>1144.7</ele>
        <time>2017-03-26T12:39:27Z</time>
      </trkpt>
      <trkpt lat="45.36587" lon="4.52959">
        <ele>1144.4</ele>
        <time>2017-03-26T12:39:28Z</time>
      </trkpt>
      <trkpt lat="45.3658" lon="4.5298">
        <ele>1144.1</ele>
        <time>2017-03-26T12:39:29Z</time>
      </trkpt>
      <trkpt lat="45.36573" lon="4.52999">
        <ele>1143.8</ele>
        <time>2017-03-26T12:39:30Z</time>
      </trkpt>
      <trkpt lat="45.36565" lon="4.53017">
        <ele>1143.58</ele>
        <time>2017-03-26T12:39:31Z</time>
      </trkpt>
      <trkpt lat="45.36555" lon="4.53036">
        <ele>1143.22</ele>
        <time>2017-03-26T12:39:32Z</time>
      </trkpt>
      <trkpt lat="45.36544" lon="4.53055">
        <ele>1142.91</ele>
        <time>2017-03-26T12:39:33Z</time>
      </trkpt>
      <trkpt lat="45.36532" lon="4.53073">
        <ele>1142.61</ele>
        <time>2017-03-26T12:39:34Z</time>
      </trkpt>
      <trkpt lat="45.36517" lon="4.53088">
        <ele>1142.47</ele>
        <time>2017-03-26T12:39:35Z</time>
      </trkpt>
      <trkpt lat="45.36502" lon="4.53102">
        <ele>1142.36</ele>
        <time>2017-03-26T12:39:36Z</time>
      </trkpt>
      <trkpt lat="45.36484" lon="4.53111">
        <ele>1142.34</ele>
        <time>2017-03-26T12:39:37Z</time>
      </trkpt>
      <trkpt lat="45.36467" lon="4.53121">
        <ele>1142.25</ele>
        <time>2017-03-26T12:39:38Z</time>
      </trkpt>
      <trkpt lat="45.36451" lon="4.5313">
        <ele>1142.23</ele>
        <time>2017-03-26T12:39:39Z</time>
      </trkpt>
      <trkpt lat="45.36434" lon="4.53138">
        <ele>1142.23</ele>
        <time>2017-03-26T12:39:40Z</time>
      </trkpt>
      <trkpt lat="45.36417" lon="4.53147">
        <ele>1142.23</ele>
        <time>2017-03-26T12:39:41Z</time>
      </trkpt>
      <trkpt lat="45.364" lon="4.53156">
        <ele>1142.23</ele>
        <time>2017-03-26T12:39:42Z</time>
      </trkpt>
      <trkpt lat="45.36383" lon="4.53166">
        <ele>1142.23</ele>
        <time>2017-03-26T12:39:43Z</time>
      </trkpt>
      <trkpt lat="45.36366" lon="4.53176">
        <ele>1142.23</ele>
        <time>2017-03-26T12:39:44Z</time>
      </trkpt>
      <trkpt lat="45.36349" lon="4.53187">
        <ele>1142.15</ele>
        <time>2017-03-26T12:39:45Z</time>
      </trkpt>
      <trkpt lat="45.36332" lon="4.532">
        <ele>1142.13</ele>
        <time>2017-03-26T12:39:46Z</time>
      </trkpt>
      <trkpt lat="45.36317" lon="4.53215">
        <ele>1142.05</ele>
        <time>2017-03-26T12:39:47Z</time>
      </trkpt>
      <trkpt lat="45.36301" lon="4.53231">
        <ele>1141.95</ele>
        <time>2017-03-26T12:39:48Z</time>
      </trkpt>
      <trkpt lat="45.36285" lon="4.53246">
        <ele>1141.77</ele>
        <time>2017-03-26T12:39:49Z</time>
      </trkpt>
      <trkpt lat="45.36271" lon="4.53263">
        <ele>1141.58</ele>
        <time>2017-03-26T12:39:50Z</time>
      </trkpt>
      <trkpt lat="45.36255" lon="4.53279">
        <ele>1141.3</ele>
        <time>2017-03-26T12:39:51Z</time>
      </trkpt>
      <trkpt lat="45.3624" lon="4.53296">
        <ele>1141.08</ele>
        <time>2017-03-26T12:39:52Z</time>
      </trkpt>
      <trkpt lat="45.36225" lon="4.53313">
        <ele>1140.96</ele>
        <time>2017-03-26T12:39:53Z</time>
      </trkpt>
      <trkpt lat="45.3621" lon="4.53331">
        <ele>1140.7</ele>
        <time>2017-03-26T12:39:54Z</time>
      </trkpt>
      <trkpt lat="45.36196" lon="4.5335">
        <ele>1140.4</ele>
        <time>2017-03-26T12:39:55Z</time>
      </trkpt>
      <trkpt lat="45.36183" lon="4.53372">
        <ele>1140.02</ele>
        <time>2017-03-26T12:39:56Z</time>
      </trkpt>
      <trkpt lat="45.3617" lon="4.53395">
        <ele>1139.55</ele>
        <time>2017-03-26T12:39:57Z</time>
      </trkpt>
      <trkpt lat="45.36158" lon="4.53417">
        <ele>1139.05</ele>
        <time>2017-03-26T12:39:58Z</time>
      </trkpt>
      <trkpt lat="45.36146" lon="4.53439">
        <ele>1138.55</ele>
        <time>2017-03-26T12:39:59Z</time>
      </trkpt>
      <trkpt lat="45.36134" lon="4.5346">
        <ele>1138.05</ele>
        <time>2017-03-26T12:40:00Z</time>
      </trkpt>
      <trkpt lat="45.36122" lon="4.53481">
        <ele>1137.64</ele>
        <time>2017-03-26T12:40:01Z</time>
      </trkpt>
      <trkpt lat="45.36109" lon="4.53499">
        <ele>1137.31</ele>
        <time>2017-03-26T12:40:02Z</time>
      </trkpt>
      <trkpt lat="45.36096" lon="4.53517">
        <ele>1137.09</ele>
        <time>2017-03-26T12:40:03Z</time>
      </trkpt>
      <trkpt lat="45.36084" lon="4.53534">
        <ele>1136.88</ele>
        <time>2017-03-26T12:40:04Z</time>
      </trkpt>
      <trkpt lat="45.36071" lon="4.53552">
        <ele>1136.68</ele>
        <time>2017-03-26T12:40:05Z</time>
      </trkpt>
      <trkpt lat="45.36058" lon="4.5357">
        <ele>1136.4</ele>
        <time>2017-03-26T12:40:06Z</time>
      </trkpt>
      <trkpt lat="45.36045" lon="4.5359">
        <ele>1136.1</ele>
        <time>2017-03-26T12:40:07Z</time>
      </trkpt>
      <trkpt lat="45.36032" lon="4.53611">
        <ele>1135.72</ele>
        <time>2017-03-26T12:40:08Z</time>
      </trkpt>
      <trkpt lat="45.3602" lon="4.53632">
        <ele>1135.41</ele>
        <time>2017-03-26T12:40:09Z</time>
      </trkpt>
      <trkpt lat="45.36007" lon="4.53654">
        <ele>1135.03</ele>
        <time>2017-03-26T12:40:10Z</time>
      </trkpt>
      <trkpt lat="45.35993" lon="4.53676">
        <ele>1134.71</ele>
        <time>2017-03-26T12:40:11Z</time>
      </trkpt>
      <trkpt lat="45.35978" lon="4.53696">
        <ele>1134.33</ele>
        <time>2017-03-26T12:40:12Z</time>
      </trkpt>
      <trkpt lat="45.35963" lon="4.53717">
        <ele>1133.93</ele>
        <time>2017-03-26T12:40:13Z</time>
      </trkpt>
      <trkpt lat="45.35948" lon="4.53738">
        <ele>1133.53</ele>
        <time>2017-03-26T12:40:14Z</time>
      </trkpt>
      <trkpt lat="45.35934" lon="4.53761">
        <ele>1133.13</ele>
        <time>2017-03-26T12:40:15Z</time>
      </trkpt>
      <trkpt lat="45.35919" lon="4.53784">
        <ele>1132.65</ele>
        <time>2017-03-26T12:40:16Z</time>
      </trkpt>
      <trkpt lat="45.35904" lon="4.53805">
        <ele>1131.43</ele>
        <time>2017-03-26T12:40:17Z</time>
      </trkpt>
      <trkpt lat="45.3589" lon="4.53829">
        <ele>1130.55</ele>
        <time>2017-03-26T12:40:18Z</time>
      </trkpt>
      <trkpt lat="45.35877" lon="4.53853">
        <ele>1129.81</ele>
        <time>2017-03-26T12:40:19Z</time>
      </trkpt>
      <trkpt lat="45.35865" lon="4.53875">
        <ele>1129.11</ele>
        <time>2017-03-26T12:40:20Z</time>
      </trkpt>
      <trkpt lat="45.35856" lon="4.53897">
        <ele>1128.33</ele>
        <time>2017-03-26T12:40:21Z</time>
      </trkpt>
      <trkpt lat="45.35844" lon="4.53917">
        <ele>1127.61</ele>
        <time>2017-03-26T12:40:22Z</time>
      </trkpt>
      <trkpt lat="45.35833" lon="4.53934">
        <ele>1127.07</ele>
        <time>2017-03-26T12:40:23Z</time>
      </trkpt>
      <trkpt lat="45.35821" lon="4.53946">
        <ele>1126.56</ele>
        <time>2017-03-26T12:40:24Z</time>
      </trkpt>
      <trkpt lat="45.35806" lon="4.53955">
        <ele>1125.74</ele>
        <time>2017-03-26T12:40:25Z</time>
      </trkpt>
      <trkpt lat="45.35791" lon="4.53963">
        <ele>1125.09</ele>
        <time>2017-03-26T12:40:26Z</time>
      </trkpt>
      <trkpt lat="45.35776" lon="4.53968">
        <ele>1124.56</ele>
        <time>2017-03-26T12:40:27Z</time>
      </trkpt>
      <trkpt lat="45.3576" lon="4.53971">
        <ele>1124.14</ele>
        <time>2017-03-26T12:40:28Z</time>
      </trkpt>
      <trkpt lat="45.35744" lon="4.53973">
        <ele>1123.81</ele>
        <time>2017-03-26T12:40:29Z</time>
      </trkpt>
      <trkpt lat="45.35729" lon="4.53973">
        <ele>1123.43</ele>
        <time>2017-03-26T12:40:30Z</time>
      </trkpt>
      <trkpt lat="45.35715" lon="4.53966">
        <ele>1123.03</ele>
        <time>2017-03-26T12:40:31Z</time>
      </trkpt>
      <trkpt lat="45.357" lon="4.53957">
        <ele>1122.79</ele>
        <time>2017-03-26T12:40:32Z</time>
      </trkpt>
      <trkpt lat="45.35688" lon="4.53942">
        <ele>1122.58</ele>
        <time>2017-03-26T12:40:33Z</time>
      </trkpt>
      <trkpt lat="45.35673" lon="4.53926">
        <ele>1122.46</ele>
        <time>2017-03-26T12:40:34Z</time>
      </trkpt>
      <trkpt lat="45.35658" lon="4.53916">
        <ele>1122.2</ele>
        <time>2017-03-26T12:40:35Z</time>
      </trkpt>
      <trkpt lat="45.35645" lon="4.53908">
        <ele>1122.06</ele>
        <time>2017-03-26T12:40:36Z</time>
      </trkpt>
      <trkpt lat="45.35632" lon="4.53902">
        <ele>1121.96</ele>
        <time>2017-03-26T12:40:37Z</time>
      </trkpt>
      <trkpt lat="45.35617" lon="4.53901">
        <ele>1121.78</ele>
        <time>2017-03-26T12:40:38Z</time>
      </trkpt>
      <trkpt lat="45.35603" lon="4.53903">
        <ele>1121.42</ele>
        <time>2017-03-26T12:40:39Z</time>
      </trkpt>
      <trkpt lat="45.35589" lon="4.5391">
        <ele>1121.11</ele>
        <time>2017-03-26T12:40:40Z</time>
      </trkpt>
      <trkpt lat="45.35576" lon="4.53923">
        <ele>1120.73</ele>
        <time>2017-03-26T12:40:41Z</time>
      </trkpt>
      <trkpt lat="45.35566" lon="4.53941">
        <ele>1120.41</ele>
        <time>2017-03-26T12:40:42Z</time>
      </trkpt>
      <trkpt lat="45.35557" lon="4.53959">
        <ele>1120.03</ele>
        <time>2017-03-26T12:40:43Z</time>
      </trkpt>
      <trkpt lat="45.35552" lon="4.53979">
        <ele>1119.55</ele>
        <time>2017-03-26T12:40:44Z</time>
      </trkpt>
      <trkpt lat="45.35545" lon="4.54">
        <ele>1118.97</ele>
        <time>2017-03-26T12:40:45Z</time>
      </trkpt>
      <trkpt lat="45.35539" lon="4.54023">
        <ele>1118.38</ele>
        <time>2017-03-26T12:40:46Z</time>
      </trkpt>
      <trkpt lat="45.35536" lon="4.54049">
        <ele>1117.62</ele>
        <time>2017-03-26T12:40:47Z</time>
      </trkpt>
      <trkpt lat="45.35537" lon="4.54076">
        <ele>1116.91</ele>
        <time>2017-03-26T12:40:48Z</time>
      </trkpt>
      <trkpt lat="45.35537" lon="4.54102">
        <ele>1116.05</ele>
        <time>2017-03-26T12:40:49Z</time>
      </trkpt>
      <trkpt lat="45.35539" lon="4.5413">
        <ele>1115.07</ele>
        <time>2017-03-26T12:40:50Z</time>
      </trkpt>
      <trkpt lat="45.3554" lon="4.54156">
        <ele>1114.16</ele>
        <time>2017-03-26T12:40:51Z</time>
      </trkpt>
      <trkpt lat="45.35539" lon="4.54182">
        <ele>1113.1</ele>
        <time>2017-03-26T12:40:52Z</time>
      </trkpt>
      <trkpt lat="45.35537" lon="4.54207">
        <ele>1112.08</ele>
        <time>2017-03-26T12:40:53Z</time>
      </trkpt>
      <trkpt lat="45.35536" lon="4.54232">
        <ele>1111.08</ele>
        <time>2017-03-26T12:40:54Z</time>
      </trkpt>
      <trkpt lat="45.35535" lon="4.54259">
        <ele>1110.08</ele>
        <time>2017-03-26T12:40:55Z</time>
      </trkpt>
      <trkpt lat="45.35534" lon="4.54285">
        <ele>1109.08</ele>
        <time>2017-03-26T12:40:56Z</time>
      </trkpt>
      <trkpt lat="45.35532" lon="4.54313">
        <ele>1108</ele>
        <time>2017-03-26T12:40:57Z</time>
      </trkpt>
      <trkpt lat="45.35534" lon="4.54342">
        <ele>1104.98</ele>
        <time>2017-03-26T12:40:58Z</time>
      </trkpt>
      <trkpt lat="45.35532" lon="4.54367">
        <ele>1102.46</ele>
        <time>2017-03-26T12:40:59Z</time>
      </trkpt>
      <trkpt lat="45.3553" lon="4.54393">
        <ele>1099.72</ele>
        <time>2017-03-26T12:41:00Z</time>
      </trkpt>
      <trkpt lat="45.35526" lon="4.54419">
        <ele>1097.33</ele>
        <time>2017-03-26T12:41:01Z</time>
      </trkpt>
      <trkpt lat="45.35519" lon="4.54445">
        <ele>1095.65</ele>
        <time>2017-03-26T12:41:02Z</time>
      </trkpt>
      <trkpt lat="45.35511" lon="4.5447">
        <ele>1094.19</ele>
        <time>2017-03-26T12:41:03Z</time>
      </trkpt>
      <trkpt lat="45.35503" lon="4.54495">
        <ele>1092.78</ele>
        <time>2017-03-26T12:41:04Z</time>
      </trkpt>
      <trkpt lat="45.35493" lon="4.5452">
        <ele>1091.3</ele>
        <time>2017-03-26T12:41:05Z</time>
      </trkpt>
      <trkpt lat="45.35481" lon="4.54544">
        <ele>1089.8</ele>
        <time>2017-03-26T12:41:06Z</time>
      </trkpt>
      <trkpt lat="45.35468" lon="4.54567">
        <ele>1087.98</ele>
        <time>2017-03-26T12:41:07Z</time>
      </trkpt>
      <trkpt lat="45.35456" lon="4.54589">
        <ele>1086.5</ele>
        <time>2017-03-26T12:41:08Z</time>
      </trkpt>
      <trkpt lat="45.35443" lon="4.5461">
        <ele>1084.84</ele>
        <time>2017-03-26T12:41:09Z</time>
      </trkpt>
      <trkpt lat="45.35429" lon="4.54629">
        <ele>1083.47</ele>
        <time>2017-03-26T12:41:10Z</time>
      </trkpt>
      <trkpt lat="45.35415" lon="4.54646">
        <ele>1082.08</ele>
        <time>2017-03-26T12:41:11Z</time>
      </trkpt>
      <trkpt lat="45.35402" lon="4.5466">
        <ele>1081.08</ele>
        <time>2017-03-26T12:41:12Z</time>
      </trkpt>
      <trkpt lat="45.3539" lon="4.54674">
        <ele>1080.24</ele>
        <time>2017-03-26T12:41:13Z</time>
      </trkpt>
      <trkpt lat="45.35378" lon="4.54683">
        <ele>1079.43</ele>
        <time>2017-03-26T12:41:14Z</time>
      </trkpt>
      <trkpt lat="45.35367" lon="4.5469">
        <ele>1078.79</ele>
        <time>2017-03-26T12:41:15Z</time>
      </trkpt>
      <trkpt lat="45.35357" lon="4.5469">
        <ele>1078.26</ele>
        <time>2017-03-26T12:41:16Z</time>
      </trkpt>
      <trkpt lat="45.35346" lon="4.54691">
        <ele>1077.84</ele>
        <time>2017-03-26T12:41:17Z</time>
      </trkpt>
      <trkpt lat="45.35334" lon="4.54691">
        <ele>1077.59</ele>
        <time>2017-03-26T12:41:18Z</time>
      </trkpt>
      <trkpt lat="45.35325" lon="4.54687">
        <ele>1077.46</ele>
        <time>2017-03-26T12:41:19Z</time>
      </trkpt>
      <trkpt lat="45.35316" lon="4.54682">
        <ele>1077.36</ele>
        <time>2017-03-26T12:41:20Z</time>
      </trkpt>
      <trkpt lat="45.35308" lon="4.54679">
        <ele>1077.34</ele>
        <time>2017-03-26T12:41:21Z</time>
      </trkpt>
      <trkpt lat="45.35301" lon="4.54676">
        <ele>1077.33</ele>
        <time>2017-03-26T12:41:22Z</time>
      </trkpt>
      <trkpt lat="45.35285" lon="4.54659">
        <ele>1077.17</ele>
        <time>2017-03-26T12:41:23Z</time>
      </trkpt>
      <trkpt lat="45.3527" lon="4.54644">
        <ele>1076.82</ele>
        <time>2017-03-26T12:41:24Z</time>
      </trkpt>
      <trkpt lat="45.35244" lon="4.54597">
        <ele>1076.75</ele>
        <time>2017-03-26T12:41:25Z</time>
      </trkpt>
      <trkpt lat="45.35222" lon="4.54552">
        <ele>1075.77</ele>
        <time>2017-03-26T12:41:26Z</time>
      </trkpt>
      <trkpt lat="45.35195" lon="4.54471">
        <ele>1074.14</ele>
        <time>2017-03-26T12:41:27Z</time>
      </trkpt>
      <trkpt lat="45.35191" lon="4.54432">
        <ele>1073.49</ele>
        <time>2017-03-26T12:41:28Z</time>
      </trkpt>
      <trkpt lat="45.35185" lon="4.54403">
        <ele>1072.24</ele>
        <time>2017-03-26T12:41:29Z</time>
      </trkpt>
      <trkpt lat="45.35177" lon="4.54382">
        <ele>1071.11</ele>
        <time>2017-03-26T12:41:30Z</time>
      </trkpt>
      <trkpt lat="45.35168" lon="4.54368">
        <ele>1070.17</ele>
        <time>2017-03-26T12:41:31Z</time>
      </trkpt>
      <trkpt lat="45.35158" lon="4.5436">
        <ele>1069.42</ele>
        <time>2017-03-26T12:41:32Z</time>
      </trkpt>
      <trkpt lat="45.35145" lon="4.54358">
        <ele>1068.87</ele>
        <time>2017-03-26T12:41:33Z</time>
      </trkpt>
      <trkpt lat="45.3513" lon="4.5436">
        <ele>1067.96</ele>
        <time>2017-03-26T12:41:34Z</time>
      </trkpt>
      <trkpt lat="45.35114" lon="4.54362">
        <ele>1066.5</ele>
        <time>2017-03-26T12:41:35Z</time>
      </trkpt>
      <trkpt lat="45.35097" lon="4.54367">
        <ele>1065.64</ele>
        <time>2017-03-26T12:41:36Z</time>
      </trkpt>
      <trkpt lat="45.35082" lon="4.54371">
        <ele>1064.83</ele>
        <time>2017-03-26T12:41:37Z</time>
      </trkpt>
      <trkpt lat="45.35067" lon="4.54372">
        <ele>1064.11</ele>
        <time>2017-03-26T12:41:38Z</time>
      </trkpt>
      <trkpt lat="45.35053" lon="4.54368">
        <ele>1063.41</ele>
        <time>2017-03-26T12:41:39Z</time>
      </trkpt>
      <trkpt lat="45.35039" lon="4.5436">
        <ele>1062.71</ele>
        <time>2017-03-26T12:41:40Z</time>
      </trkpt>
      <trkpt lat="45.3502" lon="4.54347">
        <ele>1060.73</ele>
        <time>2017-03-26T12:41:41Z</time>
      </trkpt>
      <trkpt lat="45.35011" lon="4.5433">
        <ele>1059.29</ele>
        <time>2017-03-26T12:41:42Z</time>
      </trkpt>
      <trkpt lat="45.35002" lon="4.54315">
        <ele>1057.32</ele>
        <time>2017-03-26T12:41:43Z</time>
      </trkpt>
      <trkpt lat="45.34993" lon="4.5431">
        <ele>1055.89</ele>
        <time>2017-03-26T12:41:44Z</time>
      </trkpt>
      <trkpt lat="45.34983" lon="4.54309">
        <ele>1054.72</ele>
        <time>2017-03-26T12:41:45Z</time>
      </trkpt>
      <trkpt lat="45.34973" lon="4.54313">
        <ele>1053.61</ele>
        <time>2017-03-26T12:41:46Z</time>
      </trkpt>
      <trkpt lat="45.34963" lon="4.5432">
        <ele>1052.75</ele>
        <time>2017-03-26T12:41:47Z</time>
      </trkpt>
      <trkpt lat="45.34957" lon="4.54332">
        <ele>1051.53</ele>
        <time>2017-03-26T12:41:48Z</time>
      </trkpt>
      <trkpt lat="45.3495" lon="4.54342">
        <ele>1050.09</ele>
        <time>2017-03-26T12:41:49Z</time>
      </trkpt>
      <trkpt lat="45.34946" lon="4.54354">
        <ele>1048.84</ele>
        <time>2017-03-26T12:41:50Z</time>
      </trkpt>
      <trkpt lat="45.34944" lon="4.5436">
        <ele>1046.99</ele>
        <time>2017-03-26T12:41:51Z</time>
      </trkpt>
      <trkpt lat="45.34946" lon="4.54381">
        <ele>1045.74</ele>
        <time>2017-03-26T12:41:52Z</time>
      </trkpt>
      <trkpt lat="45.34949" lon="4.54408">
        <ele>1044.85</ele>
        <time>2017-03-26T12:41:53Z</time>
      </trkpt>
      <trkpt lat="45.34951" lon="4.54431">
        <ele>1044.03</ele>
        <time>2017-03-26T12:41:54Z</time>
      </trkpt>
      <trkpt lat="45.34953" lon="4.54456">
        <ele>1042.83</ele>
        <time>2017-03-26T12:41:55Z</time>
      </trkpt>
      <trkpt lat="45.34955" lon="4.54481">
        <ele>1041.47</ele>
        <time>2017-03-26T12:41:56Z</time>
      </trkpt>
      <trkpt lat="45.34959" lon="4.54508">
        <ele>1040.08</ele>
        <time>2017-03-26T12:41:57Z</time>
      </trkpt>
      <trkpt lat="45.34963" lon="4.54534">
        <ele>1038.36</ele>
        <time>2017-03-26T12:41:58Z</time>
      </trkpt>
      <trkpt lat="45.34966" lon="4.54557">
        <ele>1036.02</ele>
        <time>2017-03-26T12:41:59Z</time>
      </trkpt>
      <trkpt lat="45.34966" lon="4.54582">
        <ele>1034.11</ele>
        <time>2017-03-26T12:42:00Z</time>
      </trkpt>
      <trkpt lat="45.34967" lon="4.54608">
        <ele>1032.53</ele>
        <time>2017-03-26T12:42:01Z</time>
      </trkpt>
      <trkpt lat="45.34971" lon="4.54642">
        <ele>1030.37</ele>
        <time>2017-03-26T12:42:02Z</time>
      </trkpt>
      <trkpt lat="45.34973" lon="4.54669">
        <ele>1028.58</ele>
        <time>2017-03-26T12:42:03Z</time>
      </trkpt>
      <trkpt lat="45.34975" lon="4.54696">
        <ele>1026.94</ele>
        <time>2017-03-26T12:42:04Z</time>
      </trkpt>
      <trkpt lat="45.34978" lon="4.54723">
        <ele>1025.09</ele>
        <time>2017-03-26T12:42:05Z</time>
      </trkpt>
      <trkpt lat="45.34981" lon="4.54749">
        <ele>1023.68</ele>
        <time>2017-03-26T12:42:06Z</time>
      </trkpt>
      <trkpt lat="45.34985" lon="4.54775">
        <ele>1022.04</ele>
        <time>2017-03-26T12:42:07Z</time>
      </trkpt>
      <trkpt lat="45.34989" lon="4.54799">
        <ele>1020.51</ele>
        <time>2017-03-26T12:42:08Z</time>
      </trkpt>
      <trkpt lat="45.34993" lon="4.54825">
        <ele>1019.17</ele>
        <time>2017-03-26T12:42:09Z</time>
      </trkpt>
      <trkpt lat="45.34997" lon="4.5485">
        <ele>1017.94</ele>
        <time>2017-03-26T12:42:10Z</time>
      </trkpt>
      <trkpt lat="45.35" lon="4.54876">
        <ele>1016.41</ele>
        <time>2017-03-26T12:42:11Z</time>
      </trkpt>
      <trkpt lat="45.35006" lon="4.549">
        <ele>1014.11</ele>
        <time>2017-03-26T12:42:12Z</time>
      </trkpt>
      <trkpt lat="45.35009" lon="4.54924">
        <ele>1012.53</ele>
        <time>2017-03-26T12:42:13Z</time>
      </trkpt>
      <trkpt lat="45.3501" lon="4.54946">
        <ele>1011.33</ele>
        <time>2017-03-26T12:42:14Z</time>
      </trkpt>
      <trkpt lat="45.35012" lon="4.54969">
        <ele>1009.97</ele>
        <time>2017-03-26T12:42:15Z</time>
      </trkpt>
      <trkpt lat="45.35013" lon="4.54993">
        <ele>1008.74</ele>
        <time>2017-03-26T12:42:16Z</time>
      </trkpt>
      <trkpt lat="45.35012" lon="4.55017">
        <ele>1007.45</ele>
        <time>2017-03-26T12:42:17Z</time>
      </trkpt>
      <trkpt lat="45.35011" lon="4.55041">
        <ele>1006.15</ele>
        <time>2017-03-26T12:42:18Z</time>
      </trkpt>
      <trkpt lat="45.35008" lon="4.55062">
        <ele>1004.77</ele>
        <time>2017-03-26T12:42:19Z</time>
      </trkpt>
      <trkpt lat="45.35004" lon="4.55084">
        <ele>1003.46</ele>
        <time>2017-03-26T12:42:20Z</time>
      </trkpt>
      <trkpt lat="45.34999" lon="4.55105">
        <ele>1001.84</ele>
        <time>2017-03-26T12:42:21Z</time>
      </trkpt>
      <trkpt lat="45.34992" lon="4.55123">
        <ele>1000.47</ele>
        <time>2017-03-26T12:42:22Z</time>
      </trkpt>
      <trkpt lat="45.34984" lon="4.55142">
        <ele>999.16</ele>
        <time>2017-03-26T12:42:23Z</time>
      </trkpt>
      <trkpt lat="45.34974" lon="4.5516">
        <ele>997.94</ele>
        <time>2017-03-26T12:42:24Z</time>
      </trkpt>
      <trkpt lat="45.34964" lon="4.55177">
        <ele>996.81</ele>
        <time>2017-03-26T12:42:25Z</time>
      </trkpt>
      <trkpt lat="45.34952" lon="4.55192">
        <ele>995.71</ele>
        <time>2017-03-26T12:42:26Z</time>
      </trkpt>
      <trkpt lat="45.34939" lon="4.55207">
        <ele>994.53</ele>
        <time>2017-03-26T12:42:27Z</time>
      </trkpt>
      <trkpt lat="45.34927" lon="4.5522">
        <ele>993.33</ele>
        <time>2017-03-26T12:42:28Z</time>
      </trkpt>
      <trkpt lat="45.34914" lon="4.55232">
        <ele>992.29</ele>
        <time>2017-03-26T12:42:29Z</time>
      </trkpt>
      <trkpt lat="45.349" lon="4.55241">
        <ele>991.2</ele>
        <time>2017-03-26T12:42:30Z</time>
      </trkpt>
      <trkpt lat="45.34887" lon="4.5525">
        <ele>990.34</ele>
        <time>2017-03-26T12:42:31Z</time>
      </trkpt>
      <trkpt lat="45.34871" lon="4.55252">
        <ele>989.45</ele>
        <time>2017-03-26T12:42:32Z</time>
      </trkpt>
      <trkpt lat="45.34854" lon="4.55251">
        <ele>988.47</ele>
        <time>2017-03-26T12:42:33Z</time>
      </trkpt>
      <trkpt lat="45.34839" lon="4.55252">
        <ele>987.64</ele>
        <time>2017-03-26T12:42:34Z</time>
      </trkpt>
      <trkpt lat="45.34825" lon="4.55251">
        <ele>986.59</ele>
        <time>2017-03-26T12:42:35Z</time>
      </trkpt>
      <trkpt lat="45.3481" lon="4.55248">
        <ele>984.94</ele>
        <time>2017-03-26T12:42:36Z</time>
      </trkpt>
      <trkpt lat="45.34796" lon="4.55247">
        <ele>983.81</ele>
        <time>2017-03-26T12:42:37Z</time>
      </trkpt>
      <trkpt lat="45.34781" lon="4.55243">
        <ele>982.95</ele>
        <time>2017-03-26T12:42:38Z</time>
      </trkpt>
      <trkpt lat="45.34766" lon="4.55244">
        <ele>982.13</ele>
        <time>2017-03-26T12:42:39Z</time>
      </trkpt>
      <trkpt lat="45.34751" lon="4.55244">
        <ele>981.25</ele>
        <time>2017-03-26T12:42:40Z</time>
      </trkpt>
      <trkpt lat="45.34736" lon="4.55244">
        <ele>980.43</ele>
        <time>2017-03-26T12:42:41Z</time>
      </trkpt>
      <trkpt lat="45.34721" lon="4.55246">
        <ele>979.63</ele>
        <time>2017-03-26T12:42:42Z</time>
      </trkpt>
      <trkpt lat="45.34706" lon="4.55248">
        <ele>978.75</ele>
        <time>2017-03-26T12:42:43Z</time>
      </trkpt>
      <trkpt lat="45.34691" lon="4.55248">
        <ele>977.77</ele>
        <time>2017-03-26T12:42:44Z</time>
      </trkpt>
      <trkpt lat="45.34675" lon="4.55247">
        <ele>976.78</ele>
        <time>2017-03-26T12:42:45Z</time>
      </trkpt>
      <trkpt lat="45.34659" lon="4.55248">
        <ele>975.78</ele>
        <time>2017-03-26T12:42:46Z</time>
      </trkpt>
      <trkpt lat="45.34643" lon="4.5525">
        <ele>974.7</ele>
        <time>2017-03-26T12:42:47Z</time>
      </trkpt>
      <trkpt lat="45.34628" lon="4.55254">
        <ele>973.68</ele>
        <time>2017-03-26T12:42:48Z</time>
      </trkpt>
      <trkpt lat="45.34613" lon="4.55259">
        <ele>972.68</ele>
        <time>2017-03-26T12:42:49Z</time>
      </trkpt>
      <trkpt lat="45.346" lon="4.5526">
        <ele>971.84</ele>
        <time>2017-03-26T12:42:50Z</time>
      </trkpt>
      <trkpt lat="45.34587" lon="4.55258">
        <ele>970.55</ele>
        <time>2017-03-26T12:42:51Z</time>
      </trkpt>
      <trkpt lat="45.34575" lon="4.55252">
        <ele>969.49</ele>
        <time>2017-03-26T12:42:52Z</time>
      </trkpt>
      <trkpt lat="45.34564" lon="4.55241">
        <ele>968.64</ele>
        <time>2017-03-26T12:42:53Z</time>
      </trkpt>
      <trkpt lat="45.34553" lon="4.55227">
        <ele>967.83</ele>
        <time>2017-03-26T12:42:54Z</time>
      </trkpt>
      <trkpt lat="45.34543" lon="4.55212">
        <ele>966.95</ele>
        <time>2017-03-26T12:42:55Z</time>
      </trkpt>
      <trkpt lat="45.3453" lon="4.55194">
        <ele>964.05</ele>
        <time>2017-03-26T12:42:56Z</time>
      </trkpt>
      <trkpt lat="45.34517" lon="4.55176">
        <ele>961.31</ele>
        <time>2017-03-26T12:42:57Z</time>
      </trkpt>
      <trkpt lat="45.34506" lon="4.55158">
        <ele>959.17</ele>
        <time>2017-03-26T12:42:58Z</time>
      </trkpt>
      <trkpt lat="45.34495" lon="4.5514">
        <ele>957.86</ele>
        <time>2017-03-26T12:42:59Z</time>
      </trkpt>
      <trkpt lat="45.34483" lon="4.55123">
        <ele>955.76</ele>
        <time>2017-03-26T12:43:00Z</time>
      </trkpt>
      <trkpt lat="45.34471" lon="4.55108">
        <ele>954.62</ele>
        <time>2017-03-26T12:43:01Z</time>
      </trkpt>
      <trkpt lat="45.34458" lon="4.55098">
        <ele>953.51</ele>
        <time>2017-03-26T12:43:02Z</time>
      </trkpt>
      <trkpt lat="45.34446" lon="4.55092">
        <ele>952.41</ele>
        <time>2017-03-26T12:43:03Z</time>
      </trkpt>
      <trkpt lat="45.34433" lon="4.55093">
        <ele>951.55</ele>
        <time>2017-03-26T12:43:04Z</time>
      </trkpt>
      <trkpt lat="45.34422" lon="4.55101">
        <ele>950.57</ele>
        <time>2017-03-26T12:43:05Z</time>
      </trkpt>
      <trkpt lat="45.34411" lon="4.55112">
        <ele>949.34</ele>
        <time>2017-03-26T12:43:06Z</time>
      </trkpt>
      <trkpt lat="45.34401" lon="4.55126">
        <ele>948.13</ele>
        <time>2017-03-26T12:43:07Z</time>
      </trkpt>
      <trkpt lat="45.3439" lon="4.5514">
        <ele>946.85</ele>
        <time>2017-03-26T12:43:08Z</time>
      </trkpt>
      <trkpt lat="45.34377" lon="4.55153">
        <ele>945.79</ele>
        <time>2017-03-26T12:43:09Z</time>
      </trkpt>
      <trkpt lat="45.34363" lon="4.55164">
        <ele>944.86</ele>
        <time>2017-03-26T12:43:10Z</time>
      </trkpt>
      <trkpt lat="45.34349" lon="4.55175">
        <ele>943.8</ele>
        <time>2017-03-26T12:43:11Z</time>
      </trkpt>
      <trkpt lat="45.34335" lon="4.55186">
        <ele>942.62</ele>
        <time>2017-03-26T12:43:12Z</time>
      </trkpt>
      <trkpt lat="45.34321" lon="4.552">
        <ele>941.11</ele>
        <time>2017-03-26T12:43:13Z</time>
      </trkpt>
      <trkpt lat="45.34309" lon="4.55216">
        <ele>939.13</ele>
        <time>2017-03-26T12:43:14Z</time>
      </trkpt>
      <trkpt lat="45.34297" lon="4.55235">
        <ele>937.37</ele>
        <time>2017-03-26T12:43:15Z</time>
      </trkpt>
      <trkpt lat="45.34286" lon="4.55255">
        <ele>936.06</ele>
        <time>2017-03-26T12:43:16Z</time>
      </trkpt>
      <trkpt lat="45.34275" lon="4.55275">
        <ele>934.68</ele>
        <time>2017-03-26T12:43:17Z</time>
      </trkpt>
      <trkpt lat="45.34265" lon="4.55296">
        <ele>933.2</ele>
        <time>2017-03-26T12:43:18Z</time>
      </trkpt>
      <trkpt lat="45.34254" lon="4.55317">
        <ele>931.94</ele>
        <time>2017-03-26T12:43:19Z</time>
      </trkpt>
      <trkpt lat="45.34243" lon="4.55336">
        <ele>930.89</ele>
        <time>2017-03-26T12:43:20Z</time>
      </trkpt>
      <trkpt lat="45.34232" lon="4.55352">
        <ele>929.48</ele>
        <time>2017-03-26T12:43:21Z</time>
      </trkpt>
      <trkpt lat="45.34222" lon="4.55363">
        <ele>928.24</ele>
        <time>2017-03-26T12:43:22Z</time>
      </trkpt>
      <trkpt lat="45.3421" lon="4.55368">
        <ele>927.27</ele>
        <time>2017-03-26T12:43:23Z</time>
      </trkpt>
      <trkpt lat="45.34198" lon="4.55371">
        <ele>926.68</ele>
        <time>2017-03-26T12:43:24Z</time>
      </trkpt>
      <trkpt lat="45.34185" lon="4.55369">
        <ele>926.48</ele>
        <time>2017-03-26T12:43:25Z</time>
      </trkpt>
      <trkpt lat="45.34171" lon="4.55363">
        <ele>926.12</ele>
        <time>2017-03-26T12:43:26Z</time>
      </trkpt>
      <trkpt lat="45.34155" lon="4.55352">
        <ele>925.65</ele>
        <time>2017-03-26T12:43:27Z</time>
      </trkpt>
      <trkpt lat="45.34141" lon="4.5534">
        <ele>925.31</ele>
        <time>2017-03-26T12:43:28Z</time>
      </trkpt>
      <trkpt lat="45.34127" lon="4.55325">
        <ele>924.93</ele>
        <time>2017-03-26T12:43:29Z</time>
      </trkpt>
      <trkpt lat="45.34113" lon="4.55309">
        <ele>924.77</ele>
        <time>2017-03-26T12:43:30Z</time>
      </trkpt>
      <trkpt lat="45.34099" lon="4.55293">
        <ele>924.58</ele>
        <time>2017-03-26T12:43:31Z</time>
      </trkpt>
      <trkpt lat="45.34087" lon="4.55276">
        <ele>923.9</ele>
        <time>2017-03-26T12:43:32Z</time>
      </trkpt>
      <trkpt lat="45.34073" lon="4.5526">
        <ele>923.28</ele>
        <time>2017-03-26T12:43:33Z</time>
      </trkpt>
      <trkpt lat="45.3406" lon="4.55245">
        <ele>922.68</ele>
        <time>2017-03-26T12:43:34Z</time>
      </trkpt>
      <trkpt lat="45.34045" lon="4.55232">
        <ele>922.16</ele>
        <time>2017-03-26T12:43:35Z</time>
      </trkpt>
      <trkpt lat="45.3403" lon="4.55219">
        <ele>921.34</ele>
        <time>2017-03-26T12:43:36Z</time>
      </trkpt>
      <trkpt lat="45.34013" lon="4.55209">
        <ele>920.53</ele>
        <time>2017-03-26T12:43:37Z</time>
      </trkpt>
      <trkpt lat="45.33997" lon="4.55201">
        <ele>919.73</ele>
        <time>2017-03-26T12:43:38Z</time>
      </trkpt>
      <trkpt lat="45.3398" lon="4.55195">
        <ele>918.93</ele>
        <time>2017-03-26T12:43:39Z</time>
      </trkpt>
      <trkpt lat="45.33963" lon="4.55194">
        <ele>918.37</ele>
        <time>2017-03-26T12:43:40Z</time>
      </trkpt>
      <trkpt lat="45.33946" lon="4.55196">
        <ele>917.94</ele>
        <time>2017-03-26T12:43:41Z</time>
      </trkpt>
      <trkpt lat="45.33929" lon="4.55202">
        <ele>917.77</ele>
        <time>2017-03-26T12:43:42Z</time>
      </trkpt>
      <trkpt lat="45.33913" lon="4.55213">
        <ele>917.18</ele>
        <time>2017-03-26T12:43:43Z</time>
      </trkpt>
      <trkpt lat="45.33897" lon="4.55225">
        <ele>916.02</ele>
        <time>2017-03-26T12:43:44Z</time>
      </trkpt>
      <trkpt lat="45.33881" lon="4.55239">
        <ele>914.67</ele>
        <time>2017-03-26T12:43:45Z</time>
      </trkpt>
      <trkpt lat="45.33866" lon="4.55254">
        <ele>913.6</ele>
        <time>2017-03-26T12:43:46Z</time>
      </trkpt>
      <trkpt lat="45.3385" lon="4.55268">
        <ele>912.82</ele>
        <time>2017-03-26T12:43:47Z</time>
      </trkpt>
      <trkpt lat="45.33834" lon="4.55283">
        <ele>912.03</ele>
        <time>2017-03-26T12:43:48Z</time>
      </trkpt>
      <trkpt lat="45.33819" lon="4.55299">
        <ele>911.47</ele>
        <time>2017-03-26T12:43:49Z</time>
      </trkpt>
      <trkpt lat="45.33806" lon="4.55313">
        <ele>910.8</ele>
        <time>2017-03-26T12:43:50Z</time>
      </trkpt>
      <trkpt lat="45.33794" lon="4.55326">
        <ele>910.1</ele>
        <time>2017-03-26T12:43:51Z</time>
      </trkpt>
      <trkpt lat="45.33782" lon="4.55335">
        <ele>909.56</ele>
        <time>2017-03-26T12:43:52Z</time>
      </trkpt>
      <trkpt lat="45.33768" lon="4.55339">
        <ele>909.14</ele>
        <time>2017-03-26T12:43:53Z</time>
      </trkpt>
      <trkpt lat="45.33754" lon="4.55338">
        <ele>908.89</ele>
        <time>2017-03-26T12:43:54Z</time>
      </trkpt>
      <trkpt lat="45.3374" lon="4.55334">
        <ele>908.52</ele>
        <time>2017-03-26T12:43:55Z</time>
      </trkpt>
      <trkpt lat="45.33726" lon="4.55322">
        <ele>908.13</ele>
        <time>2017-03-26T12:43:56Z</time>
      </trkpt>
      <trkpt lat="45.33716" lon="4.55305">
        <ele>907.97</ele>
        <time>2017-03-26T12:43:57Z</time>
      </trkpt>
      <trkpt lat="45.33705" lon="4.55286">
        <ele>908.02</ele>
        <time>2017-03-26T12:43:58Z</time>
      </trkpt>
      <trkpt lat="45.33691" lon="4.55269">
        <ele>907.87</ele>
        <time>2017-03-26T12:43:59Z</time>
      </trkpt>
      <trkpt lat="45.33676" lon="4.55253">
        <ele>907.52</ele>
        <time>2017-03-26T12:44:00Z</time>
      </trkpt>
      <trkpt lat="45.3366" lon="4.55239">
        <ele>907.45</ele>
        <time>2017-03-26T12:44:01Z</time>
      </trkpt>
      <trkpt lat="45.33644" lon="4.55227">
        <ele>907.35</ele>
        <time>2017-03-26T12:44:02Z</time>
      </trkpt>
      <trkpt lat="45.33629" lon="4.55216">
        <ele>907.09</ele>
        <time>2017-03-26T12:44:03Z</time>
      </trkpt>
      <trkpt lat="45.33615" lon="4.55206">
        <ele>906.8</ele>
        <time>2017-03-26T12:44:04Z</time>
      </trkpt>
      <trkpt lat="45.33603" lon="4.55196">
        <ele>907.54</ele>
        <time>2017-03-26T12:44:05Z</time>
      </trkpt>
      <trkpt lat="45.33593" lon="4.55182">
        <ele>907.85</ele>
        <time>2017-03-26T12:44:06Z</time>
      </trkpt>
      <trkpt lat="45.33586" lon="4.55165">
        <ele>907.67</ele>
        <time>2017-03-26T12:44:07Z</time>
      </trkpt>
      <trkpt lat="45.3358" lon="4.55146">
        <ele>907.48</ele>
        <time>2017-03-26T12:44:08Z</time>
      </trkpt>
      <trkpt lat="45.33575" lon="4.55125">
        <ele>907.12</ele>
        <time>2017-03-26T12:44:09Z</time>
      </trkpt>
      <trkpt lat="45.33572" lon="4.55101">
        <ele>906.65</ele>
        <time>2017-03-26T12:44:10Z</time>
      </trkpt>
      <trkpt lat="45.33568" lon="4.55075">
        <ele>906.31</ele>
        <time>2017-03-26T12:44:11Z</time>
      </trkpt>
      <trkpt lat="45.33564" lon="4.55051">
        <ele>906.17</ele>
        <time>2017-03-26T12:44:12Z</time>
      </trkpt>
      <trkpt lat="45.33561" lon="4.55026">
        <ele>906.06</ele>
        <time>2017-03-26T12:44:13Z</time>
      </trkpt>
      <trkpt lat="45.33558" lon="4.55003">
        <ele>905.96</ele>
        <time>2017-03-26T12:44:14Z</time>
      </trkpt>
      <trkpt lat="45.33556" lon="4.54981">
        <ele>906.26</ele>
        <time>2017-03-26T12:44:15Z</time>
      </trkpt>
      <trkpt lat="45.33554" lon="4.54959">
        <ele>906.24</ele>
        <time>2017-03-26T12:44:16Z</time>
      </trkpt>
      <trkpt lat="45.33553" lon="4.54936">
        <ele>906.31</ele>
        <time>2017-03-26T12:44:17Z</time>
      </trkpt>
      <trkpt lat="45.33553" lon="4.54913">
        <ele>906.25</ele>
        <time>2017-03-26T12:44:18Z</time>
      </trkpt>
      <trkpt lat="45.33555" lon="4.5489">
        <ele>906.23</ele>
        <time>2017-03-26T12:44:19Z</time>
      </trkpt>
      <trkpt lat="45.33557" lon="4.54867">
        <ele>906.07</ele>
        <time>2017-03-26T12:44:20Z</time>
      </trkpt>
      <trkpt lat="45.3356" lon="4.54845">
        <ele>905.56</ele>
        <time>2017-03-26T12:44:21Z</time>
      </trkpt>
      <trkpt lat="45.33563" lon="4.54825">
        <ele>904.9</ele>
        <time>2017-03-26T12:44:22Z</time>
      </trkpt>
      <trkpt lat="45.33562" lon="4.54808">
        <ele>904.6</ele>
        <time>2017-03-26T12:44:23Z</time>
      </trkpt>
      <trkpt lat="45.33558" lon="4.54794">
        <ele>904.38</ele>
        <time>2017-03-26T12:44:24Z</time>
      </trkpt>
      <trkpt lat="45.33551" lon="4.54783">
        <ele>904.1</ele>
        <time>2017-03-26T12:44:25Z</time>
      </trkpt>
      <trkpt lat="45.33541" lon="4.54781">
        <ele>903.96</ele>
        <time>2017-03-26T12:44:26Z</time>
      </trkpt>
      <trkpt lat="45.33531" lon="4.54783">
        <ele>903.7</ele>
        <time>2017-03-26T12:44:27Z</time>
      </trkpt>
      <trkpt lat="45.33518" lon="4.54789">
        <ele>903.4</ele>
        <time>2017-03-26T12:44:28Z</time>
      </trkpt>
      <trkpt lat="45.33504" lon="4.54799">
        <ele>903.18</ele>
        <time>2017-03-26T12:44:29Z</time>
      </trkpt>
      <trkpt lat="45.33489" lon="4.54812">
        <ele>902.9</ele>
        <time>2017-03-26T12:44:30Z</time>
      </trkpt>
      <trkpt lat="45.33476" lon="4.54826">
        <ele>902.84</ele>
        <time>2017-03-26T12:44:31Z</time>
      </trkpt>
      <trkpt lat="45.33464" lon="4.54838">
        <ele>902.67</ele>
        <time>2017-03-26T12:44:32Z</time>
      </trkpt>
      <trkpt lat="45.33451" lon="4.54846">
        <ele>902.4</ele>
        <time>2017-03-26T12:44:33Z</time>
      </trkpt>
      <trkpt lat="45.33439" lon="4.54852">
        <ele>902.26</ele>
        <time>2017-03-26T12:44:34Z</time>
      </trkpt>
      <trkpt lat="45.33426" lon="4.54856">
        <ele>902.08</ele>
        <time>2017-03-26T12:44:35Z</time>
      </trkpt>
      <trkpt lat="45.33414" lon="4.54856">
        <ele>901.88</ele>
        <time>2017-03-26T12:44:36Z</time>
      </trkpt>
      <trkpt lat="45.33397" lon="4.54847">
        <ele>901.28</ele>
        <time>2017-03-26T12:44:37Z</time>
      </trkpt>
      <trkpt lat="45.3338" lon="4.54832">
        <ele>900.92</ele>
        <time>2017-03-26T12:44:38Z</time>
      </trkpt>
      <trkpt lat="45.33368" lon="4.54817">
        <ele>900.61</ele>
        <time>2017-03-26T12:44:39Z</time>
      </trkpt>
      <trkpt lat="45.33356" lon="4.54801">
        <ele>899.75</ele>
        <time>2017-03-26T12:44:40Z</time>
      </trkpt>
      <trkpt lat="45.33342" lon="4.54789">
        <ele>899.41</ele>
        <time>2017-03-26T12:44:41Z</time>
      </trkpt>
      <trkpt lat="45.33329" lon="4.54779">
        <ele>899.19</ele>
        <time>2017-03-26T12:44:42Z</time>
      </trkpt>
      <trkpt lat="45.33317" lon="4.54776">
        <ele>898.98</ele>
        <time>2017-03-26T12:44:43Z</time>
      </trkpt>
      <trkpt lat="45.33304" lon="4.54776">
        <ele>898.7</ele>
        <time>2017-03-26T12:44:44Z</time>
      </trkpt>
      <trkpt lat="45.33292" lon="4.54779">
        <ele>898.4</ele>
        <time>2017-03-26T12:44:45Z</time>
      </trkpt>
      <trkpt lat="45.33286" lon="4.54794">
        <ele>898.1</ele>
        <time>2017-03-26T12:44:46Z</time>
      </trkpt>
      <trkpt lat="45.33278" lon="4.54808">
        <ele>897.4</ele>
        <time>2017-03-26T12:44:47Z</time>
      </trkpt>
      <trkpt lat="45.33269" lon="4.54822">
        <ele>897.02</ele>
        <time>2017-03-26T12:44:48Z</time>
      </trkpt>
      <trkpt lat="45.33259" lon="4.54838">
        <ele>896.79</ele>
        <time>2017-03-26T12:44:49Z</time>
      </trkpt>
      <trkpt lat="45.33248" lon="4.54855">
        <ele>896.5</ele>
        <time>2017-03-26T12:44:50Z</time>
      </trkpt>
      <trkpt lat="45.33236" lon="4.54875">
        <ele>896.28</ele>
        <time>2017-03-26T12:44:51Z</time>
      </trkpt>
      <trkpt lat="45.33225" lon="4.54895">
        <ele>896.08</ele>
        <time>2017-03-26T12:44:52Z</time>
      </trkpt>
      <trkpt lat="45.33214" lon="4.54916">
        <ele>895.88</ele>
        <time>2017-03-26T12:44:53Z</time>
      </trkpt>
      <trkpt lat="45.33203" lon="4.54937">
        <ele>895.6</ele>
        <time>2017-03-26T12:44:54Z</time>
      </trkpt>
      <trkpt lat="45.33193" lon="4.54957">
        <ele>895.38</ele>
        <time>2017-03-26T12:44:55Z</time>
      </trkpt>
      <trkpt lat="45.33182" lon="4.54976">
        <ele>895.18</ele>
        <time>2017-03-26T12:44:56Z</time>
      </trkpt>
      <trkpt lat="45.33171" lon="4.54994">
        <ele>894.98</ele>
        <time>2017-03-26T12:44:57Z</time>
      </trkpt>
      <trkpt lat="45.33159" lon="4.55012">
        <ele>894.78</ele>
        <time>2017-03-26T12:44:58Z</time>
      </trkpt>
      <trkpt lat="45.33144" lon="4.55027">
        <ele>894.58</ele>
        <time>2017-03-26T12:44:59Z</time>
      </trkpt>
      <trkpt lat="45.33128" lon="4.55039">
        <ele>894.38</ele>
        <time>2017-03-26T12:45:00Z</time>
      </trkpt>
      <trkpt lat="45.33112" lon="4.5505">
        <ele>894.26</ele>
        <time>2017-03-26T12:45:01Z</time>
      </trkpt>
      <trkpt lat="45.33097" lon="4.55062">
        <ele>894.08</ele>
        <time>2017-03-26T12:45:02Z</time>
      </trkpt>
      <trkpt lat="45.3308" lon="4.5507">
        <ele>893.96</ele>
        <time>2017-03-26T12:45:03Z</time>
      </trkpt>
      <trkpt lat="45.33064" lon="4.55078">
        <ele>893.94</ele>
        <time>2017-03-26T12:45:04Z</time>
      </trkpt>
      <trkpt lat="45.33049" lon="4.55085">
        <ele>893.85</ele>
        <time>2017-03-26T12:45:05Z</time>
      </trkpt>
      <trkpt lat="45.33035" lon="4.55089">
        <ele>893.67</ele>
        <time>2017-03-26T12:45:06Z</time>
      </trkpt>
      <trkpt lat="45.33022" lon="4.55087">
        <ele>893.48</ele>
        <time>2017-03-26T12:45:07Z</time>
      </trkpt>
      <trkpt lat="45.33011" lon="4.5508">
        <ele>893.36</ele>
        <time>2017-03-26T12:45:08Z</time>
      </trkpt>
      <trkpt lat="45.32997" lon="4.55069">
        <ele>893.18</ele>
        <time>2017-03-26T12:45:09Z</time>
      </trkpt>
      <trkpt lat="45.32982" lon="4.55057">
        <ele>893.06</ele>
        <time>2017-03-26T12:45:10Z</time>
      </trkpt>
      <trkpt lat="45.32966" lon="4.55046">
        <ele>892.96</ele>
        <time>2017-03-26T12:45:11Z</time>
      </trkpt>
      <trkpt lat="45.32947" lon="4.55034">
        <ele>892.86</ele>
        <time>2017-03-26T12:45:12Z</time>
      </trkpt>
      <trkpt lat="45.32931" lon="4.55021">
        <ele>892.84</ele>
        <time>2017-03-26T12:45:13Z</time>
      </trkpt>
      <trkpt lat="45.32915" lon="4.55008">
        <ele>892.83</ele>
        <time>2017-03-26T12:45:14Z</time>
      </trkpt>
      <trkpt lat="45.329" lon="4.54998">
        <ele>892.67</ele>
        <time>2017-03-26T12:45:15Z</time>
      </trkpt>
      <trkpt lat="45.32883" lon="4.54991">
        <ele>892.48</ele>
        <time>2017-03-26T12:45:16Z</time>
      </trkpt>
      <trkpt lat="45.32868" lon="4.54988">
        <ele>891.8</ele>
        <time>2017-03-26T12:45:17Z</time>
      </trkpt>
      <trkpt lat="45.32851" lon="4.54988">
        <ele>891.58</ele>
        <time>2017-03-26T12:45:18Z</time>
      </trkpt>
      <trkpt lat="45.32835" lon="4.54993">
        <ele>891.38</ele>
        <time>2017-03-26T12:45:19Z</time>
      </trkpt>
      <trkpt lat="45.32817" lon="4.54999">
        <ele>891.26</ele>
        <time>2017-03-26T12:45:20Z</time>
      </trkpt>
      <trkpt lat="45.32801" lon="4.55007">
        <ele>891.08</ele>
        <time>2017-03-26T12:45:21Z</time>
      </trkpt>
      <trkpt lat="45.32784" lon="4.55017">
        <ele>890.88</ele>
        <time>2017-03-26T12:45:22Z</time>
      </trkpt>
      <trkpt lat="45.32767" lon="4.55036">
        <ele>890.68</ele>
        <time>2017-03-26T12:45:23Z</time>
      </trkpt>
      <trkpt lat="45.32753" lon="4.55053">
        <ele>890.56</ele>
        <time>2017-03-26T12:45:24Z</time>
      </trkpt>
      <trkpt lat="45.32741" lon="4.55074">
        <ele>890.46</ele>
        <time>2017-03-26T12:45:25Z</time>
      </trkpt>
      <trkpt lat="45.32729" lon="4.55092">
        <ele>890.28</ele>
        <time>2017-03-26T12:45:26Z</time>
      </trkpt>
      <trkpt lat="45.32717" lon="4.55111">
        <ele>890.08</ele>
        <time>2017-03-26T12:45:27Z</time>
      </trkpt>
      <trkpt lat="45.3271" lon="4.55131">
        <ele>889.72</ele>
        <time>2017-03-26T12:45:28Z</time>
      </trkpt>
      <trkpt lat="45.32705" lon="4.55154">
        <ele>889.49</ele>
        <time>2017-03-26T12:45:29Z</time>
      </trkpt>
      <trkpt lat="45.32702" lon="4.55178">
        <ele>889.04</ele>
        <time>2017-03-26T12:45:30Z</time>
      </trkpt>
      <trkpt lat="45.32699" lon="4.55201">
        <ele>888.63</ele>
        <time>2017-03-26T12:45:31Z</time>
      </trkpt>
      <trkpt lat="45.32694" lon="4.55226">
        <ele>888.31</ele>
        <time>2017-03-26T12:45:32Z</time>
      </trkpt>
      <trkpt lat="45.32691" lon="4.55251">
        <ele>887.93</ele>
        <time>2017-03-26T12:45:33Z</time>
      </trkpt>
      <trkpt lat="45.32687" lon="4.55276">
        <ele>887.53</ele>
        <time>2017-03-26T12:45:34Z</time>
      </trkpt>
      <trkpt lat="45.32683" lon="4.55302">
        <ele>887.13</ele>
        <time>2017-03-26T12:45:35Z</time>
      </trkpt>
      <trkpt lat="45.3268" lon="4.55328">
        <ele>886.73</ele>
        <time>2017-03-26T12:45:36Z</time>
      </trkpt>
      <trkpt lat="45.32679" lon="4.55354">
        <ele>886.17</ele>
        <time>2017-03-26T12:45:37Z</time>
      </trkpt>
      <trkpt lat="45.32676" lon="4.5538">
        <ele>885.74</ele>
        <time>2017-03-26T12:45:38Z</time>
      </trkpt>
      <trkpt lat="45.32675" lon="4.55403">
        <ele>884.21</ele>
        <time>2017-03-26T12:45:39Z</time>
      </trkpt>
      <trkpt lat="45.32673" lon="4.55427">
        <ele>883.59</ele>
        <time>2017-03-26T12:45:40Z</time>
      </trkpt>
      <trkpt lat="45.3267" lon="4.55449">
        <ele>883.14</ele>
        <time>2017-03-26T12:45:41Z</time>
      </trkpt>
      <trkpt lat="45.32667" lon="4.55472">
        <ele>882.65</ele>
        <time>2017-03-26T12:45:42Z</time>
      </trkpt>
      <trkpt lat="45.32663" lon="4.55494">
        <ele>882.23</ele>
        <time>2017-03-26T12:45:43Z</time>
      </trkpt>
      <trkpt lat="45.3266" lon="4.55515">
        <ele>880.79</ele>
        <time>2017-03-26T12:45:44Z</time>
      </trkpt>
      <trkpt lat="45.32654" lon="4.55536">
        <ele>880.18</ele>
        <time>2017-03-26T12:45:45Z</time>
      </trkpt>
      <trkpt lat="45.32647" lon="4.55556">
        <ele>879.74</ele>
        <time>2017-03-26T12:45:46Z</time>
      </trkpt>
      <trkpt lat="45.3264" lon="4.55575">
        <ele>879.33</ele>
        <time>2017-03-26T12:45:47Z</time>
      </trkpt>
      <trkpt lat="45.32626" lon="4.55585">
        <ele>878.85</ele>
        <time>2017-03-26T12:45:48Z</time>
      </trkpt>
      <trkpt lat="45.32615" lon="4.55599">
        <ele>878.35</ele>
        <time>2017-03-26T12:45:49Z</time>
      </trkpt>
      <trkpt lat="45.32603" lon="4.55611">
        <ele>877.85</ele>
        <time>2017-03-26T12:45:50Z</time>
      </trkpt>
      <trkpt lat="45.32592" lon="4.55622">
        <ele>877.43</ele>
        <time>2017-03-26T12:45:51Z</time>
      </trkpt>
      <trkpt lat="45.32581" lon="4.55631">
        <ele>876.95</ele>
        <time>2017-03-26T12:45:52Z</time>
      </trkpt>
      <trkpt lat="45.32568" lon="4.55636">
        <ele>876.53</ele>
        <time>2017-03-26T12:45:53Z</time>
      </trkpt>
      <trkpt lat="45.32556" lon="4.55639">
        <ele>876.13</ele>
        <time>2017-03-26T12:45:54Z</time>
      </trkpt>
      <trkpt lat="45.32542" lon="4.55636">
        <ele>875.65</ele>
        <time>2017-03-26T12:45:55Z</time>
      </trkpt>
      <trkpt lat="45.3253" lon="4.55631">
        <ele>875.15</ele>
        <time>2017-03-26T12:45:56Z</time>
      </trkpt>
      <trkpt lat="45.32516" lon="4.55619">
        <ele>874.65</ele>
        <time>2017-03-26T12:45:57Z</time>
      </trkpt>
      <trkpt lat="45.32502" lon="4.55606">
        <ele>873.99</ele>
        <time>2017-03-26T12:45:58Z</time>
      </trkpt>
      <trkpt lat="45.32488" lon="4.5559">
        <ele>872.82</ele>
        <time>2017-03-26T12:45:59Z</time>
      </trkpt>
      <trkpt lat="45.32474" lon="4.55573">
        <ele>871.71</ele>
        <time>2017-03-26T12:46:00Z</time>
      </trkpt>
      <trkpt lat="45.32459" lon="4.55555">
        <ele>870.85</ele>
        <time>2017-03-26T12:46:01Z</time>
      </trkpt>
      <trkpt lat="45.32442" lon="4.55541">
        <ele>870.19</ele>
        <time>2017-03-26T12:46:02Z</time>
      </trkpt>
      <trkpt lat="45.32424" lon="4.55526">
        <ele>868.62</ele>
        <time>2017-03-26T12:46:03Z</time>
      </trkpt>
      <trkpt lat="45.32408" lon="4.55511">
        <ele>867.51</ele>
        <time>2017-03-26T12:46:04Z</time>
      </trkpt>
      <trkpt lat="45.32392" lon="4.55498">
        <ele>866.41</ele>
        <time>2017-03-26T12:46:05Z</time>
      </trkpt>
      <trkpt lat="45.32375" lon="4.55487">
        <ele>865.47</ele>
        <time>2017-03-26T12:46:06Z</time>
      </trkpt>
      <trkpt lat="45.32358" lon="4.55478">
        <ele>864</ele>
        <time>2017-03-26T12:46:07Z</time>
      </trkpt>
      <trkpt lat="45.32339" lon="4.5547">
        <ele>859.78</ele>
        <time>2017-03-26T12:46:08Z</time>
      </trkpt>
      <trkpt lat="45.3232" lon="4.55467">
        <ele>855.5</ele>
        <time>2017-03-26T12:46:09Z</time>
      </trkpt>
      <trkpt lat="45.32303" lon="4.5547">
        <ele>853.44</ele>
        <time>2017-03-26T12:46:10Z</time>
      </trkpt>
      <trkpt lat="45.32288" lon="4.55479">
        <ele>852.07</ele>
        <time>2017-03-26T12:46:11Z</time>
      </trkpt>
      <trkpt lat="45.32274" lon="4.55495">
        <ele>850.6</ele>
        <time>2017-03-26T12:46:12Z</time>
      </trkpt>
      <trkpt lat="45.3226" lon="4.55513">
        <ele>849.34</ele>
        <time>2017-03-26T12:46:13Z</time>
      </trkpt>
      <trkpt lat="45.32251" lon="4.55535">
        <ele>847.89</ele>
        <time>2017-03-26T12:46:14Z</time>
      </trkpt>
      <trkpt lat="45.32242" lon="4.5556">
        <ele>846.56</ele>
        <time>2017-03-26T12:46:15Z</time>
      </trkpt>
      <trkpt lat="45.32236" lon="4.55586">
        <ele>844.3</ele>
        <time>2017-03-26T12:46:16Z</time>
      </trkpt>
      <trkpt lat="45.32233" lon="4.55613">
        <ele>842.4</ele>
        <time>2017-03-26T12:46:17Z</time>
      </trkpt>
      <trkpt lat="45.32231" lon="4.5564">
        <ele>840.26</ele>
        <time>2017-03-26T12:46:18Z</time>
      </trkpt>
      <trkpt lat="45.32233" lon="4.55666">
        <ele>838.24</ele>
        <time>2017-03-26T12:46:19Z</time>
      </trkpt>
      <trkpt lat="45.32236" lon="4.5569">
        <ele>836.15</ele>
        <time>2017-03-26T12:46:20Z</time>
      </trkpt>
      <trkpt lat="45.3224" lon="4.55712">
        <ele>834.05</ele>
        <time>2017-03-26T12:46:21Z</time>
      </trkpt>
      <trkpt lat="45.32242" lon="4.55732">
        <ele>832.11</ele>
        <time>2017-03-26T12:46:22Z</time>
      </trkpt>
      <trkpt lat="45.32243" lon="4.55751">
        <ele>829.89</ele>
        <time>2017-03-26T12:46:23Z</time>
      </trkpt>
      <trkpt lat="45.3224" lon="4.55767">
        <ele>825.76</ele>
        <time>2017-03-26T12:46:24Z</time>
      </trkpt>
      <trkpt lat="45.32232" lon="4.5578">
        <ele>823.5</ele>
        <time>2017-03-26T12:46:25Z</time>
      </trkpt>
      <trkpt lat="45.32225" lon="4.55792">
        <ele>821.6</ele>
        <time>2017-03-26T12:46:26Z</time>
      </trkpt>
      <trkpt lat="45.32213" lon="4.55796">
        <ele>819.06</ele>
        <time>2017-03-26T12:46:27Z</time>
      </trkpt>
      <trkpt lat="45.32202" lon="4.558">
        <ele>816.88</ele>
        <time>2017-03-26T12:46:28Z</time>
      </trkpt>
      <trkpt lat="45.32186" lon="4.55793">
        <ele>815.16</ele>
        <time>2017-03-26T12:46:29Z</time>
      </trkpt>
      <trkpt lat="45.32171" lon="4.55779">
        <ele>813.62</ele>
        <time>2017-03-26T12:46:30Z</time>
      </trkpt>
      <trkpt lat="45.32158" lon="4.55764">
        <ele>812.35</ele>
        <time>2017-03-26T12:46:31Z</time>
      </trkpt>
      <trkpt lat="45.32145" lon="4.55745">
        <ele>811.13</ele>
        <time>2017-03-26T12:46:32Z</time>
      </trkpt>
      <trkpt lat="45.32133" lon="4.55725">
        <ele>809.93</ele>
        <time>2017-03-26T12:46:33Z</time>
      </trkpt>
      <trkpt lat="45.32121" lon="4.55704">
        <ele>808.65</ele>
        <time>2017-03-26T12:46:34Z</time>
      </trkpt>
      <trkpt lat="45.3211" lon="4.55684">
        <ele>807.51</ele>
        <time>2017-03-26T12:46:35Z</time>
      </trkpt>
      <trkpt lat="45.32098" lon="4.55665">
        <ele>806.41</ele>
        <time>2017-03-26T12:46:36Z</time>
      </trkpt>
      <trkpt lat="45.32085" lon="4.55647">
        <ele>805.39</ele>
        <time>2017-03-26T12:46:37Z</time>
      </trkpt>
      <trkpt lat="45.3207" lon="4.5563">
        <ele>803.34</ele>
        <time>2017-03-26T12:46:38Z</time>
      </trkpt>
      <trkpt lat="45.32054" lon="4.55617">
        <ele>802.29</ele>
        <time>2017-03-26T12:46:39Z</time>
      </trkpt>
      <trkpt lat="45.32037" lon="4.55607">
        <ele>801.36</ele>
        <time>2017-03-26T12:46:40Z</time>
      </trkpt>
      <trkpt lat="45.32016" lon="4.55597">
        <ele>797.66</ele>
        <time>2017-03-26T12:46:41Z</time>
      </trkpt>
      <trkpt lat="45.31995" lon="4.55593">
        <ele>793.32</ele>
        <time>2017-03-26T12:46:42Z</time>
      </trkpt>
      <trkpt lat="45.31974" lon="4.55593">
        <ele>790.13</ele>
        <time>2017-03-26T12:46:43Z</time>
      </trkpt>
      <trkpt lat="45.31955" lon="4.55597">
        <ele>787.17</ele>
        <time>2017-03-26T12:46:44Z</time>
      </trkpt>
      <trkpt lat="45.31938" lon="4.55603">
        <ele>785.14</ele>
        <time>2017-03-26T12:46:45Z</time>
      </trkpt>
      <trkpt lat="45.3192" lon="4.55608">
        <ele>783.05</ele>
        <time>2017-03-26T12:46:46Z</time>
      </trkpt>
      <trkpt lat="45.31904" lon="4.55611">
        <ele>781.43</ele>
        <time>2017-03-26T12:46:47Z</time>
      </trkpt>
      <trkpt lat="45.31888" lon="4.5561">
        <ele>779.99</ele>
        <time>2017-03-26T12:46:48Z</time>
      </trkpt>
      <trkpt lat="45.31872" lon="4.55605">
        <ele>777.78</ele>
        <time>2017-03-26T12:46:49Z</time>
      </trkpt>
      <trkpt lat="45.31861" lon="4.5559">
        <ele>775.74</ele>
        <time>2017-03-26T12:46:50Z</time>
      </trkpt>
      <trkpt lat="45.31852" lon="4.55571">
        <ele>773.81</ele>
        <time>2017-03-26T12:46:51Z</time>
      </trkpt>
      <trkpt lat="45.31846" lon="4.5555">
        <ele>772.15</ele>
        <time>2017-03-26T12:46:52Z</time>
      </trkpt>
      <trkpt lat="45.31841" lon="4.55525">
        <ele>770.45</ele>
        <time>2017-03-26T12:46:53Z</time>
      </trkpt>
      <trkpt lat="45.31838" lon="4.555">
        <ele>768.59</ele>
        <time>2017-03-26T12:46:54Z</time>
      </trkpt>
      <trkpt lat="45.31836" lon="4.55472">
        <ele>766.54</ele>
        <time>2017-03-26T12:46:55Z</time>
      </trkpt>
      <trkpt lat="45.31834" lon="4.55445">
        <ele>765.01</ele>
        <time>2017-03-26T12:46:56Z</time>
      </trkpt>
      <trkpt lat="45.31833" lon="4.55419">
        <ele>763.35</ele>
        <time>2017-03-26T12:46:57Z</time>
      </trkpt>
      <trkpt lat="45.3183" lon="4.55392">
        <ele>761.65</ele>
        <time>2017-03-26T12:46:58Z</time>
      </trkpt>
      <trkpt lat="45.31827" lon="4.55365">
        <ele>759.71</ele>
        <time>2017-03-26T12:46:59Z</time>
      </trkpt>
      <trkpt lat="45.31827" lon="4.55336">
        <ele>755.73</ele>
        <time>2017-03-26T12:47:00Z</time>
      </trkpt>
      <trkpt lat="45.31823" lon="4.5531">
        <ele>753.65</ele>
        <time>2017-03-26T12:47:01Z</time>
      </trkpt>
      <trkpt lat="45.31819" lon="4.55287">
        <ele>751.95</ele>
        <time>2017-03-26T12:47:02Z</time>
      </trkpt>
      <trkpt lat="45.31814" lon="4.55264">
        <ele>749.61</ele>
        <time>2017-03-26T12:47:03Z</time>
      </trkpt>
      <trkpt lat="45.31807" lon="4.55242">
        <ele>747.71</ele>
        <time>2017-03-26T12:47:04Z</time>
      </trkpt>
      <trkpt lat="45.31799" lon="4.55222">
        <ele>745.49</ele>
        <time>2017-03-26T12:47:05Z</time>
      </trkpt>
      <trkpt lat="45.31791" lon="4.55204">
        <ele>743.84</ele>
        <time>2017-03-26T12:47:06Z</time>
      </trkpt>
      <trkpt lat="45.31781" lon="4.55187">
        <ele>742.07</ele>
        <time>2017-03-26T12:47:07Z</time>
      </trkpt>
      <trkpt lat="45.3176" lon="4.55186">
        <ele>740.92</ele>
        <time>2017-03-26T12:47:08Z</time>
      </trkpt>
      <trkpt lat="45.31742" lon="4.55184">
        <ele>739.17</ele>
        <time>2017-03-26T12:47:09Z</time>
      </trkpt>
      <trkpt lat="45.31724" lon="4.55182">
        <ele>736.98</ele>
        <time>2017-03-26T12:47:10Z</time>
      </trkpt>
      <trkpt lat="45.31705" lon="4.55179">
        <ele>734.94</ele>
        <time>2017-03-26T12:47:11Z</time>
      </trkpt>
      <trkpt lat="45.31688" lon="4.55176">
        <ele>732.05</ele>
        <time>2017-03-26T12:47:12Z</time>
      </trkpt>
      <trkpt lat="45.3167" lon="4.55173">
        <ele>730.03</ele>
        <time>2017-03-26T12:47:13Z</time>
      </trkpt>
      <trkpt lat="45.31653" lon="4.5517">
        <ele>728.27</ele>
        <time>2017-03-26T12:47:14Z</time>
      </trkpt>
      <trkpt lat="45.31637" lon="4.55167">
        <ele>726.64</ele>
        <time>2017-03-26T12:47:15Z</time>
      </trkpt>
      <trkpt lat="45.31622" lon="4.55162">
        <ele>725.03</ele>
        <time>2017-03-26T12:47:16Z</time>
      </trkpt>
      <trkpt lat="45.31607" lon="4.55154">
        <ele>723.67</ele>
        <time>2017-03-26T12:47:17Z</time>
      </trkpt>
      <trkpt lat="45.31594" lon="4.55142">
        <ele>722.44</ele>
        <time>2017-03-26T12:47:18Z</time>
      </trkpt>
      <trkpt lat="45.31584" lon="4.55126">
        <ele>721.15</ele>
        <time>2017-03-26T12:47:19Z</time>
      </trkpt>
      <trkpt lat="45.31582" lon="4.55101">
        <ele>719.77</ele>
        <time>2017-03-26T12:47:20Z</time>
      </trkpt>
      <trkpt lat="45.3158" lon="4.55079">
        <ele>718.54</ele>
        <time>2017-03-26T12:47:21Z</time>
      </trkpt>
      <trkpt lat="45.31584" lon="4.55054">
        <ele>716.21</ele>
        <time>2017-03-26T12:47:22Z</time>
      </trkpt>
      <trkpt lat="45.3159" lon="4.55028">
        <ele>713.51</ele>
        <time>2017-03-26T12:47:23Z</time>
      </trkpt>
      <trkpt lat="45.31597" lon="4.55003">
        <ele>710.97</ele>
        <time>2017-03-26T12:47:24Z</time>
      </trkpt>
      <trkpt lat="45.31606" lon="4.54979">
        <ele>708.62</ele>
        <time>2017-03-26T12:47:25Z</time>
      </trkpt>
      <trkpt lat="45.31614" lon="4.54955">
        <ele>706.31</ele>
        <time>2017-03-26T12:47:26Z</time>
      </trkpt>
      <trkpt lat="45.31623" lon="4.54933">
        <ele>704.25</ele>
        <time>2017-03-26T12:47:27Z</time>
      </trkpt>
      <trkpt lat="45.3163" lon="4.54911">
        <ele>702.39</ele>
        <time>2017-03-26T12:47:28Z</time>
      </trkpt>
      <trkpt lat="45.31636" lon="4.5489">
        <ele>700.58</ele>
        <time>2017-03-26T12:47:29Z</time>
      </trkpt>
      <trkpt lat="45.31641" lon="4.54869">
        <ele>698.86</ele>
        <time>2017-03-26T12:47:30Z</time>
      </trkpt>
      <trkpt lat="45.31646" lon="4.5485">
        <ele>697.4</ele>
        <time>2017-03-26T12:47:31Z</time>
      </trkpt>
      <trkpt lat="45.3165" lon="4.5483">
        <ele>696.14</ele>
        <time>2017-03-26T12:47:32Z</time>
      </trkpt>
      <trkpt lat="45.31654" lon="4.5481">
        <ele>694.93</ele>
        <time>2017-03-26T12:47:33Z</time>
      </trkpt>
      <trkpt lat="45.31658" lon="4.5479">
        <ele>693.65</ele>
        <time>2017-03-26T12:47:34Z</time>
      </trkpt>
      <trkpt lat="45.31662" lon="4.54769">
        <ele>691.95</ele>
        <time>2017-03-26T12:47:35Z</time>
      </trkpt>
      <trkpt lat="45.31666" lon="4.54748">
        <ele>690.17</ele>
        <time>2017-03-26T12:47:36Z</time>
      </trkpt>
      <trkpt lat="45.3167" lon="4.54725">
        <ele>689.18</ele>
        <time>2017-03-26T12:47:37Z</time>
      </trkpt>
      <trkpt lat="45.31675" lon="4.54702">
        <ele>688.5</ele>
        <time>2017-03-26T12:47:38Z</time>
      </trkpt>
      <trkpt lat="45.31679" lon="4.54678">
        <ele>687.72</ele>
        <time>2017-03-26T12:47:39Z</time>
      </trkpt>
      <trkpt lat="45.31682" lon="4.54653">
        <ele>686.69</ele>
        <time>2017-03-26T12:47:40Z</time>
      </trkpt>
      <trkpt lat="45.31684" lon="4.54628">
        <ele>685.84</ele>
        <time>2017-03-26T12:47:41Z</time>
      </trkpt>
      <trkpt lat="45.31686" lon="4.54602">
        <ele>684.71</ele>
        <time>2017-03-26T12:47:42Z</time>
      </trkpt>
      <trkpt lat="45.31688" lon="4.54576">
        <ele>683.93</ele>
        <time>2017-03-26T12:47:43Z</time>
      </trkpt>
      <trkpt lat="45.31689" lon="4.54551">
        <ele>683.69</ele>
        <time>2017-03-26T12:47:44Z</time>
      </trkpt>
      <trkpt lat="45.31692" lon="4.54526">
        <ele>683.32</ele>
        <time>2017-03-26T12:47:45Z</time>
      </trkpt>
      <trkpt lat="45.31695" lon="4.54502">
        <ele>682.69</ele>
        <time>2017-03-26T12:47:46Z</time>
      </trkpt>
      <trkpt lat="45.31701" lon="4.5448">
        <ele>682.72</ele>
        <time>2017-03-26T12:47:47Z</time>
      </trkpt>
      <trkpt lat="45.31707" lon="4.54461">
        <ele>682.01</ele>
        <time>2017-03-26T12:47:48Z</time>
      </trkpt>
      <trkpt lat="45.31712" lon="4.54445">
        <ele>681.07</ele>
        <time>2017-03-26T12:47:49Z</time>
      </trkpt>
      <trkpt lat="45.31713" lon="4.54429">
        <ele>680.08</ele>
        <time>2017-03-26T12:47:50Z</time>
      </trkpt>
      <trkpt lat="45.31712" lon="4.54415">
        <ele>678.92</ele>
        <time>2017-03-26T12:47:51Z</time>
      </trkpt>
      <trkpt lat="45.31708" lon="4.54403">
        <ele>677.81</ele>
        <time>2017-03-26T12:47:52Z</time>
      </trkpt>
      <trkpt lat="45.31697" lon="4.544">
        <ele>676.63</ele>
        <time>2017-03-26T12:47:53Z</time>
      </trkpt>
      <trkpt lat="45.31681" lon="4.544">
        <ele>675.83</ele>
        <time>2017-03-26T12:47:54Z</time>
      </trkpt>
      <trkpt lat="45.31663" lon="4.54402">
        <ele>674.07</ele>
        <time>2017-03-26T12:47:55Z</time>
      </trkpt>
      <trkpt lat="45.31643" lon="4.54404">
        <ele>672.12</ele>
        <time>2017-03-26T12:47:56Z</time>
      </trkpt>
      <trkpt lat="45.31623" lon="4.54407">
        <ele>671.01</ele>
        <time>2017-03-26T12:47:57Z</time>
      </trkpt>
      <trkpt lat="45.31601" lon="4.5441">
        <ele>669.91</ele>
        <time>2017-03-26T12:47:58Z</time>
      </trkpt>
      <trkpt lat="45.31578" lon="4.54414">
        <ele>668.89</ele>
        <time>2017-03-26T12:47:59Z</time>
      </trkpt>
      <trkpt lat="45.31555" lon="4.54417">
        <ele>668.6</ele>
        <time>2017-03-26T12:48:00Z</time>
      </trkpt>
      <trkpt lat="45.31533" lon="4.54422">
        <ele>668.06</ele>
        <time>2017-03-26T12:48:01Z</time>
      </trkpt>
      <trkpt lat="45.31512" lon="4.54429">
        <ele>667.4</ele>
        <time>2017-03-26T12:48:02Z</time>
      </trkpt>
      <trkpt lat="45.31491" lon="4.5444">
        <ele>666.62</ele>
        <time>2017-03-26T12:48:03Z</time>
      </trkpt>
      <trkpt lat="45.31469" lon="4.54454">
        <ele>666.63</ele>
        <time>2017-03-26T12:48:04Z</time>
      </trkpt>
      <trkpt lat="45.31448" lon="4.54469">
        <ele>666.39</ele>
        <time>2017-03-26T12:48:05Z</time>
      </trkpt>
      <trkpt lat="45.3143" lon="4.54487">
        <ele>665.94</ele>
        <time>2017-03-26T12:48:06Z</time>
      </trkpt>
      <trkpt lat="45.31414" lon="4.54504">
        <ele>665.37</ele>
        <time>2017-03-26T12:48:07Z</time>
      </trkpt>
      <trkpt lat="45.31399" lon="4.54517">
        <ele>665.02</ele>
        <time>2017-03-26T12:48:08Z</time>
      </trkpt>
      <trkpt lat="45.31383" lon="4.54527">
        <ele>664.79</ele>
        <time>2017-03-26T12:48:09Z</time>
      </trkpt>
      <trkpt lat="45.31367" lon="4.54535">
        <ele>664.9</ele>
        <time>2017-03-26T12:48:10Z</time>
      </trkpt>
      <trkpt lat="45.3135" lon="4.54542">
        <ele>665.32</ele>
        <time>2017-03-26T12:48:11Z</time>
      </trkpt>
      <trkpt lat="45.31331" lon="4.54547">
        <ele>665.33</ele>
        <time>2017-03-26T12:48:12Z</time>
      </trkpt>
      <trkpt lat="45.31311" lon="4.54551">
        <ele>665.81</ele>
        <time>2017-03-26T12:48:13Z</time>
      </trkpt>
      <trkpt lat="45.31291" lon="4.54555">
        <ele>666.71</ele>
        <time>2017-03-26T12:48:14Z</time>
      </trkpt>
      <trkpt lat="45.31271" lon="4.54558">
        <ele>667.45</ele>
        <time>2017-03-26T12:48:15Z</time>
      </trkpt>
      <trkpt lat="45.31251" lon="4.5456">
        <ele>668.47</ele>
        <time>2017-03-26T12:48:16Z</time>
      </trkpt>
      <trkpt lat="45.31231" lon="4.5456">
        <ele>669.64</ele>
        <time>2017-03-26T12:48:17Z</time>
      </trkpt>
      <trkpt lat="45.31211" lon="4.54557">
        <ele>670.11</ele>
        <time>2017-03-26T12:48:18Z</time>
      </trkpt>
      <trkpt lat="45.31191" lon="4.54555">
        <ele>670.61</ele>
        <time>2017-03-26T12:48:19Z</time>
      </trkpt>
      <trkpt lat="45.31171" lon="4.54551">
        <ele>671.11</ele>
        <time>2017-03-26T12:48:20Z</time>
      </trkpt>
      <trkpt lat="45.3115" lon="4.54548">
        <ele>671.61</ele>
        <time>2017-03-26T12:48:21Z</time>
      </trkpt>
      <trkpt lat="45.3113" lon="4.54544">
        <ele>672.03</ele>
        <time>2017-03-26T12:48:22Z</time>
      </trkpt>
      <trkpt lat="45.31109" lon="4.54542">
        <ele>672.43</ele>
        <time>2017-03-26T12:48:23Z</time>
      </trkpt>
      <trkpt lat="45.31088" lon="4.54542">
        <ele>672.83</ele>
        <time>2017-03-26T12:48:24Z</time>
      </trkpt>
      <trkpt lat="45.31067" lon="4.54542">
        <ele>673.31</ele>
        <time>2017-03-26T12:48:25Z</time>
      </trkpt>
      <trkpt lat="45.31046" lon="4.54542">
        <ele>673.89</ele>
        <time>2017-03-26T12:48:26Z</time>
      </trkpt>
      <trkpt lat="45.31024" lon="4.5454">
        <ele>674.64</ele>
        <time>2017-03-26T12:48:27Z</time>
      </trkpt>
      <trkpt lat="45.31004" lon="4.54536">
        <ele>675.27</ele>
        <time>2017-03-26T12:48:28Z</time>
      </trkpt>
      <trkpt lat="45.30985" lon="4.5453">
        <ele>675.8</ele>
        <time>2017-03-26T12:48:29Z</time>
      </trkpt>
      <trkpt lat="45.30968" lon="4.54524">
        <ele>676.46</ele>
        <time>2017-03-26T12:48:30Z</time>
      </trkpt>
      <trkpt lat="45.30951" lon="4.54515">
        <ele>677.08</ele>
        <time>2017-03-26T12:48:31Z</time>
      </trkpt>
      <trkpt lat="45.30936" lon="4.54505">
        <ele>677.76</ele>
        <time>2017-03-26T12:48:32Z</time>
      </trkpt>
      <trkpt lat="45.30922" lon="4.54493">
        <ele>678.3</ele>
        <time>2017-03-26T12:48:33Z</time>
      </trkpt>
      <trkpt lat="45.30911" lon="4.5448">
        <ele>678.96</ele>
        <time>2017-03-26T12:48:34Z</time>
      </trkpt>
      <trkpt lat="45.30902" lon="4.54467">
        <ele>679.5</ele>
        <time>2017-03-26T12:48:35Z</time>
      </trkpt>
      <trkpt lat="45.30896" lon="4.54455">
        <ele>679.68</ele>
        <time>2017-03-26T12:48:36Z</time>
      </trkpt>
      <trkpt lat="45.3089" lon="4.54444">
        <ele>680.44</ele>
        <time>2017-03-26T12:48:37Z</time>
      </trkpt>
      <trkpt lat="45.30887" lon="4.54434">
        <ele>681.95</ele>
        <time>2017-03-26T12:48:38Z</time>
      </trkpt>
      <trkpt lat="45.30885" lon="4.54422">
        <ele>683.61</ele>
        <time>2017-03-26T12:48:39Z</time>
      </trkpt>
      <trkpt lat="45.30885" lon="4.54409">
        <ele>685.71</ele>
        <time>2017-03-26T12:48:40Z</time>
      </trkpt>
      <trkpt lat="45.30887" lon="4.54397">
        <ele>687.17</ele>
        <time>2017-03-26T12:48:41Z</time>
      </trkpt>
      <trkpt lat="45.30888" lon="4.54387">
        <ele>688.18</ele>
        <time>2017-03-26T12:48:42Z</time>
      </trkpt>
      <trkpt lat="45.30888" lon="4.5438">
        <ele>688.78</ele>
        <time>2017-03-26T12:48:43Z</time>
      </trkpt>
      <trkpt lat="45.30889" lon="4.54377">
        <ele>690.1</ele>
        <time>2017-03-26T12:48:44Z</time>
      </trkpt>
      <trkpt lat="45.30889" lon="4.54377">
        <ele>691.56</ele>
        <time>2017-03-26T12:48:45Z</time>
      </trkpt>
      <trkpt lat="45.3089" lon="4.54376">
        <ele>692.26</ele>
        <time>2017-03-26T12:48:46Z</time>
      </trkpt>
      <trkpt lat="45.3089" lon="4.54376">
        <ele>692.48</ele>
        <time>2017-03-26T12:48:47Z</time>
      </trkpt>
      <trkpt lat="45.3089" lon="4.54376">
        <ele>692.52</ele>
        <time>2017-03-26T12:48:48Z</time>
      </trkpt>
      <trkpt lat="45.3089" lon="4.54376">
        <ele>692.53</ele>
        <time>2017-03-26T12:48:49Z</time>
      </trkpt>
      <trkpt lat="45.3089" lon="4.54376">
        <ele>692.53</ele>
        <time>2017-03-26T12:48:50Z</time>
      </trkpt>
      <trkpt lat="45.3089" lon="4.54376">
        <ele>692.53</ele>
        <time>2017-03-26T12:48:51Z</time>
      </trkpt>
      <trkpt lat="45.3089" lon="4.54376">
        <ele>692.53</ele>
        <time>2017-03-26T12:48:52Z</time>
      </trkpt>
      <trkpt lat="45.3089" lon="4.54376">
        <ele>692.53</ele>
        <time>2017-03-26T12:48:53Z</time>
      </trkpt>
      <trkpt lat="45.3089" lon="4.54376">
        <ele>692.53</ele>
        <time>2017-03-26T12:48:54Z</time>
      </trkpt>
      <trkpt lat="45.3089" lon="4.54376">
        <ele>692.53</ele>
        <time>2017-03-26T12:48:55Z</time>
      </trkpt>
      <trkpt lat="45.3089" lon="4.54376">
        <ele>692.53</ele>
        <time>2017-03-26T12:48:56Z</time>
      </trkpt>
      <trkpt lat="45.3089" lon="4.54376">
        <ele>692.53</ele>
        <time>2017-03-26T12:48:57Z</time>
      </trkpt>
      <trkpt lat="45.3089" lon="4.54376">
        <ele>692.53</ele>
        <time>2017-03-26T12:48:58Z</time>
      </trkpt>
      <trkpt lat="45.3089" lon="4.54376">
        <ele>692.53</ele>
        <time>2017-03-26T12:48:59Z</time>
      </trkpt>
      <trkpt lat="45.30891" lon="4.54374">
        <ele>692.45</ele>
        <time>2017-03-26T12:49:00Z</time>
      </trkpt>
      <trkpt lat="45.30889" lon="4.54369">
        <ele>692.51</ele>
        <time>2017-03-26T12:49:01Z</time>
      </trkpt>
      <trkpt lat="45.30887" lon="4.54362">
        <ele>692.61</ele>
        <time>2017-03-26T12:49:02Z</time>
      </trkpt>
      <trkpt lat="45.30883" lon="4.54354">
        <ele>692.71</ele>
        <time>2017-03-26T12:49:03Z</time>
      </trkpt>
      <trkpt lat="45.30879" lon="4.54344">
        <ele>692.73</ele>
        <time>2017-03-26T12:49:04Z</time>
      </trkpt>
      <trkpt lat="45.30874" lon="4.54331">
        <ele>692.81</ele>
        <time>2017-03-26T12:49:05Z</time>
      </trkpt>
      <trkpt lat="45.30871" lon="4.54316">
        <ele>692.91</ele>
        <time>2017-03-26T12:49:06Z</time>
      </trkpt>
      <trkpt lat="45.30866" lon="4.54301">
        <ele>693.01</ele>
        <time>2017-03-26T12:49:07Z</time>
      </trkpt>
      <trkpt lat="45.30862" lon="4.54285">
        <ele>693.11</ele>
        <time>2017-03-26T12:49:08Z</time>
      </trkpt>
      <trkpt lat="45.30856" lon="4.5427">
        <ele>693.29</ele>
        <time>2017-03-26T12:49:09Z</time>
      </trkpt>
      <trkpt lat="45.30849" lon="4.54256">
        <ele>693.4</ele>
        <time>2017-03-26T12:49:10Z</time>
      </trkpt>
      <trkpt lat="45.3084" lon="4.54241">
        <ele>693.5</ele>
        <time>2017-03-26T12:49:11Z</time>
      </trkpt>
      <trkpt lat="45.3083" lon="4.54227">
        <ele>693.6</ele>
        <time>2017-03-26T12:49:12Z</time>
      </trkpt>
      <trkpt lat="45.3082" lon="4.54211">
        <ele>693.78</ele>
        <time>2017-03-26T12:49:13Z</time>
      </trkpt>
      <trkpt lat="45.30813" lon="4.54192">
        <ele>693.9</ele>
        <time>2017-03-26T12:49:14Z</time>
      </trkpt>
      <trkpt lat="45.30807" lon="4.5417">
        <ele>694.08</ele>
        <time>2017-03-26T12:49:15Z</time>
      </trkpt>
      <trkpt lat="45.30804" lon="4.54147">
        <ele>694.28</ele>
        <time>2017-03-26T12:49:16Z</time>
      </trkpt>
      <trkpt lat="45.30803" lon="4.54122">
        <ele>694.4</ele>
        <time>2017-03-26T12:49:17Z</time>
      </trkpt>
      <trkpt lat="45.30802" lon="4.54096">
        <ele>694.5</ele>
        <time>2017-03-26T12:49:18Z</time>
      </trkpt>
      <trkpt lat="45.30802" lon="4.5407">
        <ele>694.52</ele>
        <time>2017-03-26T12:49:19Z</time>
      </trkpt>
      <trkpt lat="45.30801" lon="4.54044">
        <ele>694.61</ele>
        <time>2017-03-26T12:49:20Z</time>
      </trkpt>
      <trkpt lat="45.30799" lon="4.54017">
        <ele>694.71</ele>
        <time>2017-03-26T12:49:21Z</time>
      </trkpt>
      <trkpt lat="45.30797" lon="4.53991">
        <ele>694.73</ele>
        <time>2017-03-26T12:49:22Z</time>
      </trkpt>
      <trkpt lat="45.30795" lon="4.53965">
        <ele>694.73</ele>
        <time>2017-03-26T12:49:23Z</time>
      </trkpt>
      <trkpt lat="45.30792" lon="4.5394">
        <ele>694.73</ele>
        <time>2017-03-26T12:49:24Z</time>
      </trkpt>
      <trkpt lat="45.30787" lon="4.53918">
        <ele>694.81</ele>
        <time>2017-03-26T12:49:25Z</time>
      </trkpt>
      <trkpt lat="45.30779" lon="4.539">
        <ele>694.67</ele>
        <time>2017-03-26T12:49:26Z</time>
      </trkpt>
      <trkpt lat="45.30769" lon="4.53885">
        <ele>694.56</ele>
        <time>2017-03-26T12:49:27Z</time>
      </trkpt>
      <trkpt lat="45.30757" lon="4.53878">
        <ele>694.46</ele>
        <time>2017-03-26T12:49:28Z</time>
      </trkpt>
      <trkpt lat="45.30744" lon="4.53878">
        <ele>694.2</ele>
        <time>2017-03-26T12:49:29Z</time>
      </trkpt>
      <trkpt lat="45.30731" lon="4.53885">
        <ele>693.9</ele>
        <time>2017-03-26T12:49:30Z</time>
      </trkpt>
      <trkpt lat="45.30718" lon="4.53899">
        <ele>693.52</ele>
        <time>2017-03-26T12:49:31Z</time>
      </trkpt>
      <trkpt lat="45.30707" lon="4.5392">
        <ele>693.13</ele>
        <time>2017-03-26T12:49:32Z</time>
      </trkpt>
      <trkpt lat="45.30696" lon="4.53946">
        <ele>692.81</ele>
        <time>2017-03-26T12:49:33Z</time>
      </trkpt>
      <trkpt lat="45.30685" lon="4.53973">
        <ele>692.51</ele>
        <time>2017-03-26T12:49:34Z</time>
      </trkpt>
      <trkpt lat="45.30675" lon="4.54003">
        <ele>692.13</ele>
        <time>2017-03-26T12:49:35Z</time>
      </trkpt>
      <trkpt lat="45.30663" lon="4.54032">
        <ele>691.81</ele>
        <time>2017-03-26T12:49:36Z</time>
      </trkpt>
      <trkpt lat="45.30652" lon="4.54061">
        <ele>691.35</ele>
        <time>2017-03-26T12:49:37Z</time>
      </trkpt>
      <trkpt lat="45.30639" lon="4.5409">
        <ele>690.69</ele>
        <time>2017-03-26T12:49:38Z</time>
      </trkpt>
      <trkpt lat="45.30626" lon="4.54118">
        <ele>690</ele>
        <time>2017-03-26T12:49:39Z</time>
      </trkpt>
      <trkpt lat="45.30612" lon="4.54145">
        <ele>689.06</ele>
        <time>2017-03-26T12:49:40Z</time>
      </trkpt>
      <trkpt lat="45.30597" lon="4.5417">
        <ele>688.08</ele>
        <time>2017-03-26T12:49:41Z</time>
      </trkpt>
      <trkpt lat="45.30578" lon="4.54194">
        <ele>687.16</ele>
        <time>2017-03-26T12:49:42Z</time>
      </trkpt>
      <trkpt lat="45.30558" lon="4.54215">
        <ele>686.26</ele>
        <time>2017-03-26T12:49:43Z</time>
      </trkpt>
      <trkpt lat="45.30537" lon="4.54234">
        <ele>685.36</ele>
        <time>2017-03-26T12:49:44Z</time>
      </trkpt>
      <trkpt lat="45.30517" lon="4.5425">
        <ele>684.54</ele>
        <time>2017-03-26T12:49:45Z</time>
      </trkpt>
      <trkpt lat="45.30498" lon="4.54266">
        <ele>683.81</ele>
        <time>2017-03-26T12:49:46Z</time>
      </trkpt>
      <trkpt lat="45.30479" lon="4.54281">
        <ele>683.03</ele>
        <time>2017-03-26T12:49:47Z</time>
      </trkpt>
      <trkpt lat="45.30459" lon="4.54291">
        <ele>682.23</ele>
        <time>2017-03-26T12:49:48Z</time>
      </trkpt>
      <trkpt lat="45.3044" lon="4.54298">
        <ele>681.59</ele>
        <time>2017-03-26T12:49:49Z</time>
      </trkpt>
      <trkpt lat="45.30421" lon="4.54301">
        <ele>680.98</ele>
        <time>2017-03-26T12:49:50Z</time>
      </trkpt>
      <trkpt lat="45.30405" lon="4.54302">
        <ele>680.54</ele>
        <time>2017-03-26T12:49:51Z</time>
      </trkpt>
      <trkpt lat="45.30389" lon="4.54297">
        <ele>680.13</ele>
        <time>2017-03-26T12:49:52Z</time>
      </trkpt>
      <trkpt lat="45.30372" lon="4.54281">
        <ele>679.81</ele>
        <time>2017-03-26T12:49:53Z</time>
      </trkpt>
      <trkpt lat="45.30352" lon="4.54248">
        <ele>679.67</ele>
        <time>2017-03-26T12:49:54Z</time>
      </trkpt>
      <trkpt lat="45.30337" lon="4.54223">
        <ele>679.4</ele>
        <time>2017-03-26T12:49:55Z</time>
      </trkpt>
      <trkpt lat="45.30325" lon="4.54198">
        <ele>679.1</ele>
        <time>2017-03-26T12:49:56Z</time>
      </trkpt>
      <trkpt lat="45.30317" lon="4.54171">
        <ele>678.48</ele>
        <time>2017-03-26T12:49:57Z</time>
      </trkpt>
      <trkpt lat="45.30306" lon="4.54145">
        <ele>677.88</ele>
        <time>2017-03-26T12:49:58Z</time>
      </trkpt>
      <trkpt lat="45.30298" lon="4.54127">
        <ele>677.04</ele>
        <time>2017-03-26T12:49:59Z</time>
      </trkpt>
      <trkpt lat="45.30289" lon="4.5411">
        <ele>676.15</ele>
        <time>2017-03-26T12:50:00Z</time>
      </trkpt>
      <trkpt lat="45.30281" lon="4.54098">
        <ele>675.57</ele>
        <time>2017-03-26T12:50:01Z</time>
      </trkpt>
      <trkpt lat="45.30273" lon="4.5409">
        <ele>674.98</ele>
        <time>2017-03-26T12:50:02Z</time>
      </trkpt>
      <trkpt lat="45.3026" lon="4.54087">
        <ele>674.14</ele>
        <time>2017-03-26T12:50:03Z</time>
      </trkpt>
      <trkpt lat="45.30249" lon="4.54086">
        <ele>673.25</ele>
        <time>2017-03-26T12:50:04Z</time>
      </trkpt>
      <trkpt lat="45.30239" lon="4.54086">
        <ele>672.43</ele>
        <time>2017-03-26T12:50:05Z</time>
      </trkpt>
      <trkpt lat="45.30228" lon="4.54086">
        <ele>671.55</ele>
        <time>2017-03-26T12:50:06Z</time>
      </trkpt>
      <trkpt lat="45.30216" lon="4.54085">
        <ele>670.81</ele>
        <time>2017-03-26T12:50:07Z</time>
      </trkpt>
      <trkpt lat="45.30203" lon="4.54084">
        <ele>670.03</ele>
        <time>2017-03-26T12:50:08Z</time>
      </trkpt>
      <trkpt lat="45.30191" lon="4.54089">
        <ele>668.75</ele>
        <time>2017-03-26T12:50:09Z</time>
      </trkpt>
      <trkpt lat="45.30178" lon="4.54092">
        <ele>667.69</ele>
        <time>2017-03-26T12:50:10Z</time>
      </trkpt>
      <trkpt lat="45.30166" lon="4.54099">
        <ele>666.68</ele>
        <time>2017-03-26T12:50:11Z</time>
      </trkpt>
      <trkpt lat="45.30153" lon="4.54113">
        <ele>665.44</ele>
        <time>2017-03-26T12:50:12Z</time>
      </trkpt>
      <trkpt lat="45.3014" lon="4.54128">
        <ele>664.23</ele>
        <time>2017-03-26T12:50:13Z</time>
      </trkpt>
      <trkpt lat="45.30127" lon="4.54145">
        <ele>662.87</ele>
        <time>2017-03-26T12:50:14Z</time>
      </trkpt>
      <trkpt lat="45.30116" lon="4.54164">
        <ele>660.84</ele>
        <time>2017-03-26T12:50:15Z</time>
      </trkpt>
      <trkpt lat="45.30107" lon="4.54185">
        <ele>658.75</ele>
        <time>2017-03-26T12:50:16Z</time>
      </trkpt>
      <trkpt lat="45.30097" lon="4.54207">
        <ele>657.13</ele>
        <time>2017-03-26T12:50:17Z</time>
      </trkpt>
      <trkpt lat="45.30086" lon="4.54227">
        <ele>655.61</ele>
        <time>2017-03-26T12:50:18Z</time>
      </trkpt>
      <trkpt lat="45.30074" lon="4.54247">
        <ele>654.11</ele>
        <time>2017-03-26T12:50:19Z</time>
      </trkpt>
      <trkpt lat="45.30058" lon="4.54262">
        <ele>652.53</ele>
        <time>2017-03-26T12:50:20Z</time>
      </trkpt>
      <trkpt lat="45.30043" lon="4.54275">
        <ele>651.01</ele>
        <time>2017-03-26T12:50:21Z</time>
      </trkpt>
      <trkpt lat="45.30026" lon="4.54285">
        <ele>649.35</ele>
        <time>2017-03-26T12:50:22Z</time>
      </trkpt>
      <trkpt lat="45.30009" lon="4.54293">
        <ele>647.81</ele>
        <time>2017-03-26T12:50:23Z</time>
      </trkpt>
      <trkpt lat="45.2999" lon="4.54294">
        <ele>646.47</ele>
        <time>2017-03-26T12:50:24Z</time>
      </trkpt>
      <trkpt lat="45.29973" lon="4.54295">
        <ele>644.92</ele>
        <time>2017-03-26T12:50:25Z</time>
      </trkpt>
      <trkpt lat="45.29956" lon="4.54293">
        <ele>643.49</ele>
        <time>2017-03-26T12:50:26Z</time>
      </trkpt>
      <trkpt lat="45.29941" lon="4.5429">
        <ele>642.16</ele>
        <time>2017-03-26T12:50:27Z</time>
      </trkpt>
      <trkpt lat="45.29925" lon="4.54284">
        <ele>640.94</ele>
        <time>2017-03-26T12:50:28Z</time>
      </trkpt>
      <trkpt lat="45.29909" lon="4.54276">
        <ele>639.73</ele>
        <time>2017-03-26T12:50:29Z</time>
      </trkpt>
      <trkpt lat="45.29891" lon="4.54262">
        <ele>638.69</ele>
        <time>2017-03-26T12:50:30Z</time>
      </trkpt>
      <trkpt lat="45.29874" lon="4.5425">
        <ele>637.6</ele>
        <time>2017-03-26T12:50:31Z</time>
      </trkpt>
      <trkpt lat="45.29859" lon="4.5424">
        <ele>636.5</ele>
        <time>2017-03-26T12:50:32Z</time>
      </trkpt>
      <trkpt lat="45.29847" lon="4.54217">
        <ele>635.56</ele>
        <time>2017-03-26T12:50:33Z</time>
      </trkpt>
      <trkpt lat="45.29839" lon="4.54195">
        <ele>634.5</ele>
        <time>2017-03-26T12:50:34Z</time>
      </trkpt>
      <trkpt lat="45.29832" lon="4.54176">
        <ele>633.16</ele>
        <time>2017-03-26T12:50:35Z</time>
      </trkpt>
      <trkpt lat="45.29821" lon="4.54157">
        <ele>631.78</ele>
        <time>2017-03-26T12:50:36Z</time>
      </trkpt>
      <trkpt lat="45.29809" lon="4.54143">
        <ele>630.46</ele>
        <time>2017-03-26T12:50:37Z</time>
      </trkpt>
      <trkpt lat="45.29797" lon="4.54134">
        <ele>629</ele>
        <time>2017-03-26T12:50:38Z</time>
      </trkpt>
      <trkpt lat="45.29784" lon="4.54127">
        <ele>627.74</ele>
        <time>2017-03-26T12:50:39Z</time>
      </trkpt>
      <trkpt lat="45.29771" lon="4.54126">
        <ele>626.29</ele>
        <time>2017-03-26T12:50:40Z</time>
      </trkpt>
      <trkpt lat="45.29755" lon="4.54138">
        <ele>624.72</ele>
        <time>2017-03-26T12:50:41Z</time>
      </trkpt>
      <trkpt lat="45.29737" lon="4.54148">
        <ele>623.05</ele>
        <time>2017-03-26T12:50:42Z</time>
      </trkpt>
      <trkpt lat="45.29719" lon="4.54158">
        <ele>621.43</ele>
        <time>2017-03-26T12:50:43Z</time>
      </trkpt>
      <trkpt lat="45.297" lon="4.54167">
        <ele>619.91</ele>
        <time>2017-03-26T12:50:44Z</time>
      </trkpt>
      <trkpt lat="45.2968" lon="4.54173">
        <ele>618.41</ele>
        <time>2017-03-26T12:50:45Z</time>
      </trkpt>
      <trkpt lat="45.29661" lon="4.5418">
        <ele>616.83</ele>
        <time>2017-03-26T12:50:46Z</time>
      </trkpt>
      <trkpt lat="45.29642" lon="4.54186">
        <ele>615.31</ele>
        <time>2017-03-26T12:50:47Z</time>
      </trkpt>
      <trkpt lat="45.29623" lon="4.54195">
        <ele>613.81</ele>
        <time>2017-03-26T12:50:48Z</time>
      </trkpt>
      <trkpt lat="45.29606" lon="4.54206">
        <ele>612.39</ele>
        <time>2017-03-26T12:50:49Z</time>
      </trkpt>
      <trkpt lat="45.29591" lon="4.54224">
        <ele>610.82</ele>
        <time>2017-03-26T12:50:50Z</time>
      </trkpt>
      <trkpt lat="45.29577" lon="4.54246">
        <ele>609.07</ele>
        <time>2017-03-26T12:50:51Z</time>
      </trkpt>
      <trkpt lat="45.29567" lon="4.54269">
        <ele>606.08</ele>
        <time>2017-03-26T12:50:52Z</time>
      </trkpt>
      <trkpt lat="45.29556" lon="4.54295">
        <ele>603.72</ele>
        <time>2017-03-26T12:50:53Z</time>
      </trkpt>
      <trkpt lat="45.29544" lon="4.54322">
        <ele>601.57</ele>
        <time>2017-03-26T12:50:54Z</time>
      </trkpt>
      <trkpt lat="45.29532" lon="4.5435">
        <ele>599.38</ele>
        <time>2017-03-26T12:50:55Z</time>
      </trkpt>
      <trkpt lat="45.29519" lon="4.54377">
        <ele>597.5</ele>
        <time>2017-03-26T12:50:56Z</time>
      </trkpt>
      <trkpt lat="45.29506" lon="4.54404">
        <ele>595.6</ele>
        <time>2017-03-26T12:50:57Z</time>
      </trkpt>
      <trkpt lat="45.29496" lon="4.54429">
        <ele>592.5</ele>
        <time>2017-03-26T12:50:58Z</time>
      </trkpt>
      <trkpt lat="45.29486" lon="4.54457">
        <ele>589.4</ele>
        <time>2017-03-26T12:50:59Z</time>
      </trkpt>
      <trkpt lat="45.29475" lon="4.54488">
        <ele>586.46</ele>
        <time>2017-03-26T12:51:00Z</time>
      </trkpt>
      <trkpt lat="45.29466" lon="4.54518">
        <ele>584.2</ele>
        <time>2017-03-26T12:51:01Z</time>
      </trkpt>
      <trkpt lat="45.29458" lon="4.5455">
        <ele>581.74</ele>
        <time>2017-03-26T12:51:02Z</time>
      </trkpt>
      <trkpt lat="45.2945" lon="4.54581">
        <ele>579.49</ele>
        <time>2017-03-26T12:51:03Z</time>
      </trkpt>
      <trkpt lat="45.29442" lon="4.54613">
        <ele>577.68</ele>
        <time>2017-03-26T12:51:04Z</time>
      </trkpt>
      <trkpt lat="45.29431" lon="4.54642">
        <ele>575.8</ele>
        <time>2017-03-26T12:51:05Z</time>
      </trkpt>
      <trkpt lat="45.29419" lon="4.5467">
        <ele>573.98</ele>
        <time>2017-03-26T12:51:06Z</time>
      </trkpt>
      <trkpt lat="45.29404" lon="4.54696">
        <ele>572.02</ele>
        <time>2017-03-26T12:51:07Z</time>
      </trkpt>
      <trkpt lat="45.29389" lon="4.5472">
        <ele>569.95</ele>
        <time>2017-03-26T12:51:08Z</time>
      </trkpt>
      <trkpt lat="45.29372" lon="4.54741">
        <ele>568.01</ele>
        <time>2017-03-26T12:51:09Z</time>
      </trkpt>
      <trkpt lat="45.29355" lon="4.54763">
        <ele>566.19</ele>
        <time>2017-03-26T12:51:10Z</time>
      </trkpt>
      <trkpt lat="45.2934" lon="4.54783">
        <ele>564.38</ele>
        <time>2017-03-26T12:51:11Z</time>
      </trkpt>
      <trkpt lat="45.29326" lon="4.54803">
        <ele>562.42</ele>
        <time>2017-03-26T12:51:12Z</time>
      </trkpt>
      <trkpt lat="45.29314" lon="4.54823">
        <ele>560.51</ele>
        <time>2017-03-26T12:51:13Z</time>
      </trkpt>
      <trkpt lat="45.29305" lon="4.54845">
        <ele>558.37</ele>
        <time>2017-03-26T12:51:14Z</time>
      </trkpt>
      <trkpt lat="45.29302" lon="4.5487">
        <ele>555.86</ele>
        <time>2017-03-26T12:51:15Z</time>
      </trkpt>
      <trkpt lat="45.293" lon="4.54897">
        <ele>553.28</ele>
        <time>2017-03-26T12:51:16Z</time>
      </trkpt>
      <trkpt lat="45.29299" lon="4.54927">
        <ele>550.84</ele>
        <time>2017-03-26T12:51:17Z</time>
      </trkpt>
      <trkpt lat="45.29299" lon="4.54958">
        <ele>548.51</ele>
        <time>2017-03-26T12:51:18Z</time>
      </trkpt>
      <trkpt lat="45.293" lon="4.5499">
        <ele>546.29</ele>
        <time>2017-03-26T12:51:19Z</time>
      </trkpt>
      <trkpt lat="45.293" lon="4.55022">
        <ele>544.08</ele>
        <time>2017-03-26T12:51:20Z</time>
      </trkpt>
      <trkpt lat="45.293" lon="4.55054">
        <ele>542.04</ele>
        <time>2017-03-26T12:51:21Z</time>
      </trkpt>
      <trkpt lat="45.29301" lon="4.55082">
        <ele>540.03</ele>
        <time>2017-03-26T12:51:22Z</time>
      </trkpt>
      <trkpt lat="45.29302" lon="4.55111">
        <ele>538.27</ele>
        <time>2017-03-26T12:51:23Z</time>
      </trkpt>
      <trkpt lat="45.29307" lon="4.55137">
        <ele>536.8</ele>
        <time>2017-03-26T12:51:24Z</time>
      </trkpt>
      <trkpt lat="45.29314" lon="4.55163">
        <ele>534.9</ele>
        <time>2017-03-26T12:51:25Z</time>
      </trkpt>
      <trkpt lat="45.29325" lon="4.55188">
        <ele>532.04</ele>
        <time>2017-03-26T12:51:26Z</time>
      </trkpt>
      <trkpt lat="45.29337" lon="4.55212">
        <ele>529.31</ele>
        <time>2017-03-26T12:51:27Z</time>
      </trkpt>
      <trkpt lat="45.2935" lon="4.55234">
        <ele>527.01</ele>
        <time>2017-03-26T12:51:28Z</time>
      </trkpt>
      <trkpt lat="45.29362" lon="4.55254">
        <ele>525.11</ele>
        <time>2017-03-26T12:51:29Z</time>
      </trkpt>
      <trkpt lat="45.29374" lon="4.55275">
        <ele>523.45</ele>
        <time>2017-03-26T12:51:30Z</time>
      </trkpt>
      <trkpt lat="45.29384" lon="4.55295">
        <ele>521.75</ele>
        <time>2017-03-26T12:51:31Z</time>
      </trkpt>
      <trkpt lat="45.29393" lon="4.55316">
        <ele>520.05</ele>
        <time>2017-03-26T12:51:32Z</time>
      </trkpt>
      <trkpt lat="45.29395" lon="4.5534">
        <ele>518.67</ele>
        <time>2017-03-26T12:51:33Z</time>
      </trkpt>
      <trkpt lat="45.29397" lon="4.55363">
        <ele>517.2</ele>
        <time>2017-03-26T12:51:34Z</time>
      </trkpt>
      <trkpt lat="45.29398" lon="4.55386">
        <ele>515.7</ele>
        <time>2017-03-26T12:51:35Z</time>
      </trkpt>
      <trkpt lat="45.29402" lon="4.55408">
        <ele>514.36</ele>
        <time>2017-03-26T12:51:36Z</time>
      </trkpt>
      <trkpt lat="45.29408" lon="4.55429">
        <ele>512.9</ele>
        <time>2017-03-26T12:51:37Z</time>
      </trkpt>
      <trkpt lat="45.29415" lon="4.55449">
        <ele>511.16</ele>
        <time>2017-03-26T12:51:38Z</time>
      </trkpt>
      <trkpt lat="45.29423" lon="4.55468">
        <ele>509.38</ele>
        <time>2017-03-26T12:51:39Z</time>
      </trkpt>
      <trkpt lat="45.29431" lon="4.55486">
        <ele>507.74</ele>
        <time>2017-03-26T12:51:40Z</time>
      </trkpt>
      <trkpt lat="45.29439" lon="4.55504">
        <ele>506.29</ele>
        <time>2017-03-26T12:51:41Z</time>
      </trkpt>
      <trkpt lat="45.29446" lon="4.55522">
        <ele>504.88</ele>
        <time>2017-03-26T12:51:42Z</time>
      </trkpt>
      <trkpt lat="45.29454" lon="4.55538">
        <ele>503.64</ele>
        <time>2017-03-26T12:51:43Z</time>
      </trkpt>
      <trkpt lat="45.29461" lon="4.55555">
        <ele>502.59</ele>
        <time>2017-03-26T12:51:44Z</time>
      </trkpt>
      <trkpt lat="45.29468" lon="4.5557">
        <ele>501.66</ele>
        <time>2017-03-26T12:51:45Z</time>
      </trkpt>
      <trkpt lat="45.29476" lon="4.55586">
        <ele>500.68</ele>
        <time>2017-03-26T12:51:46Z</time>
      </trkpt>
      <trkpt lat="45.29484" lon="4.55602">
        <ele>499.68</ele>
        <time>2017-03-26T12:51:47Z</time>
      </trkpt>
      <trkpt lat="45.29492" lon="4.55618">
        <ele>499.16</ele>
        <time>2017-03-26T12:51:48Z</time>
      </trkpt>
      <trkpt lat="45.295" lon="4.55634">
        <ele>498.42</ele>
        <time>2017-03-26T12:51:49Z</time>
      </trkpt>
      <trkpt lat="45.29509" lon="4.55648">
        <ele>497.47</ele>
        <time>2017-03-26T12:51:50Z</time>
      </trkpt>
      <trkpt lat="45.29518" lon="4.55662">
        <ele>496.4</ele>
        <time>2017-03-26T12:51:51Z</time>
      </trkpt>
      <trkpt lat="45.29528" lon="4.55675">
        <ele>495.46</ele>
        <time>2017-03-26T12:51:52Z</time>
      </trkpt>
      <trkpt lat="45.29538" lon="4.55687">
        <ele>494.72</ele>
        <time>2017-03-26T12:51:53Z</time>
      </trkpt>
      <trkpt lat="45.29549" lon="4.55698">
        <ele>493.93</ele>
        <time>2017-03-26T12:51:54Z</time>
      </trkpt>
      <trkpt lat="45.29559" lon="4.55708">
        <ele>493.29</ele>
        <time>2017-03-26T12:51:55Z</time>
      </trkpt>
      <trkpt lat="45.29569" lon="4.55718">
        <ele>493</ele>
        <time>2017-03-26T12:51:56Z</time>
      </trkpt>
      <trkpt lat="45.29578" lon="4.55728">
        <ele>492.7</ele>
        <time>2017-03-26T12:51:57Z</time>
      </trkpt>
      <trkpt lat="45.29587" lon="4.55737">
        <ele>492.08</ele>
        <time>2017-03-26T12:51:58Z</time>
      </trkpt>
      <trkpt lat="45.29595" lon="4.55748">
        <ele>491.32</ele>
        <time>2017-03-26T12:51:59Z</time>
      </trkpt>
      <trkpt lat="45.29603" lon="4.55759">
        <ele>490.69</ele>
        <time>2017-03-26T12:52:00Z</time>
      </trkpt>
      <trkpt lat="45.2961" lon="4.5577">
        <ele>490.16</ele>
        <time>2017-03-26T12:52:01Z</time>
      </trkpt>
      <trkpt lat="45.29616" lon="4.55783">
        <ele>489.5</ele>
        <time>2017-03-26T12:52:02Z</time>
      </trkpt>
      <trkpt lat="45.29622" lon="4.55796">
        <ele>488.96</ele>
        <time>2017-03-26T12:52:03Z</time>
      </trkpt>
      <trkpt lat="45.29627" lon="4.55809">
        <ele>488.62</ele>
        <time>2017-03-26T12:52:04Z</time>
      </trkpt>
      <trkpt lat="45.29632" lon="4.55822">
        <ele>488.15</ele>
        <time>2017-03-26T12:52:05Z</time>
      </trkpt>
      <trkpt lat="45.29637" lon="4.55836">
        <ele>487.65</ele>
        <time>2017-03-26T12:52:06Z</time>
      </trkpt>
      <trkpt lat="45.29642" lon="4.55849">
        <ele>487.07</ele>
        <time>2017-03-26T12:52:07Z</time>
      </trkpt>
      <trkpt lat="45.29647" lon="4.55862">
        <ele>486.56</ele>
        <time>2017-03-26T12:52:08Z</time>
      </trkpt>
      <trkpt lat="45.29652" lon="4.55876">
        <ele>486.06</ele>
        <time>2017-03-26T12:52:09Z</time>
      </trkpt>
      <trkpt lat="45.29656" lon="4.55888">
        <ele>485.56</ele>
        <time>2017-03-26T12:52:10Z</time>
      </trkpt>
      <trkpt lat="45.29661" lon="4.559">
        <ele>485.22</ele>
        <time>2017-03-26T12:52:11Z</time>
      </trkpt>
      <trkpt lat="45.29665" lon="4.55913">
        <ele>484.91</ele>
        <time>2017-03-26T12:52:12Z</time>
      </trkpt>
      <trkpt lat="45.2967" lon="4.55924">
        <ele>484.05</ele>
        <time>2017-03-26T12:52:13Z</time>
      </trkpt>
      <trkpt lat="45.29674" lon="4.55935">
        <ele>483.15</ele>
        <time>2017-03-26T12:52:14Z</time>
      </trkpt>
      <trkpt lat="45.29679" lon="4.55945">
        <ele>482.09</ele>
        <time>2017-03-26T12:52:15Z</time>
      </trkpt>
      <trkpt lat="45.29682" lon="4.55956">
        <ele>481.4</ele>
        <time>2017-03-26T12:52:16Z</time>
      </trkpt>
      <trkpt lat="45.29686" lon="4.55967">
        <ele>480.94</ele>
        <time>2017-03-26T12:52:17Z</time>
      </trkpt>
      <trkpt lat="45.29689" lon="4.55977">
        <ele>480.53</ele>
        <time>2017-03-26T12:52:18Z</time>
      </trkpt>
      <trkpt lat="45.29691" lon="4.55988">
        <ele>480.29</ele>
        <time>2017-03-26T12:52:19Z</time>
      </trkpt>
      <trkpt lat="45.29693" lon="4.55999">
        <ele>480.24</ele>
        <time>2017-03-26T12:52:20Z</time>
      </trkpt>
      <trkpt lat="45.29694" lon="4.5601">
        <ele>480.07</ele>
        <time>2017-03-26T12:52:21Z</time>
      </trkpt>
      <trkpt lat="45.29694" lon="4.5602">
        <ele>479.4</ele>
        <time>2017-03-26T12:52:22Z</time>
      </trkpt>
      <trkpt lat="45.29692" lon="4.5603">
        <ele>478.7</ele>
        <time>2017-03-26T12:52:23Z</time>
      </trkpt>
      <trkpt lat="45.29689" lon="4.5604">
        <ele>477.2</ele>
        <time>2017-03-26T12:52:24Z</time>
      </trkpt>
      <trkpt lat="45.29686" lon="4.5605">
        <ele>475.94</ele>
        <time>2017-03-26T12:52:25Z</time>
      </trkpt>
      <trkpt lat="45.29682" lon="4.56059">
        <ele>475.13</ele>
        <time>2017-03-26T12:52:26Z</time>
      </trkpt>
      <trkpt lat="45.29678" lon="4.56068">
        <ele>474.09</ele>
        <time>2017-03-26T12:52:27Z</time>
      </trkpt>
      <trkpt lat="45.29673" lon="4.56077">
        <ele>472.92</ele>
        <time>2017-03-26T12:52:28Z</time>
      </trkpt>
      <trkpt lat="45.29669" lon="4.56087">
        <ele>472.21</ele>
        <time>2017-03-26T12:52:29Z</time>
      </trkpt>
      <trkpt lat="45.29666" lon="4.56098">
        <ele>471.35</ele>
        <time>2017-03-26T12:52:30Z</time>
      </trkpt>
      <trkpt lat="45.29664" lon="4.56109">
        <ele>470.53</ele>
        <time>2017-03-26T12:52:31Z</time>
      </trkpt>
      <trkpt lat="45.29662" lon="4.56121">
        <ele>469.81</ele>
        <time>2017-03-26T12:52:32Z</time>
      </trkpt>
      <trkpt lat="45.2966" lon="4.56132">
        <ele>469.03</ele>
        <time>2017-03-26T12:52:33Z</time>
      </trkpt>
      <trkpt lat="45.29656" lon="4.56143">
        <ele>468.47</ele>
        <time>2017-03-26T12:52:34Z</time>
      </trkpt>
      <trkpt lat="45.29652" lon="4.56153">
        <ele>467.96</ele>
        <time>2017-03-26T12:52:35Z</time>
      </trkpt>
      <trkpt lat="45.29647" lon="4.56163">
        <ele>467.38</ele>
        <time>2017-03-26T12:52:36Z</time>
      </trkpt>
      <trkpt lat="45.29644" lon="4.56173">
        <ele>467.1</ele>
        <time>2017-03-26T12:52:37Z</time>
      </trkpt>
      <trkpt lat="45.2964" lon="4.56184">
        <ele>466.4</ele>
        <time>2017-03-26T12:52:38Z</time>
      </trkpt>
      <trkpt lat="45.29638" lon="4.56194">
        <ele>465.78</ele>
        <time>2017-03-26T12:52:39Z</time>
      </trkpt>
      <trkpt lat="45.29636" lon="4.56204">
        <ele>465.66</ele>
        <time>2017-03-26T12:52:40Z</time>
      </trkpt>
      <trkpt lat="45.29636" lon="4.56214">
        <ele>465.64</ele>
        <time>2017-03-26T12:52:41Z</time>
      </trkpt>
      <trkpt lat="45.29635" lon="4.56223">
        <ele>465.39</ele>
        <time>2017-03-26T12:52:42Z</time>
      </trkpt>
      <trkpt lat="45.29634" lon="4.56232">
        <ele>465.02</ele>
        <time>2017-03-26T12:52:43Z</time>
      </trkpt>
      <trkpt lat="45.29634" lon="4.56241">
        <ele>464.63</ele>
        <time>2017-03-26T12:52:44Z</time>
      </trkpt>
      <trkpt lat="45.29635" lon="4.5625">
        <ele>464.79</ele>
        <time>2017-03-26T12:52:45Z</time>
      </trkpt>
      <trkpt lat="45.29636" lon="4.56259">
        <ele>464.74</ele>
        <time>2017-03-26T12:52:46Z</time>
      </trkpt>
      <trkpt lat="45.29637" lon="4.56268">
        <ele>464.65</ele>
        <time>2017-03-26T12:52:47Z</time>
      </trkpt>
      <trkpt lat="45.29638" lon="4.56276">
        <ele>464.39</ele>
        <time>2017-03-26T12:52:48Z</time>
      </trkpt>
      <trkpt lat="45.29639" lon="4.56285">
        <ele>464.18</ele>
        <time>2017-03-26T12:52:49Z</time>
      </trkpt>
      <trkpt lat="45.29639" lon="4.56293">
        <ele>463.98</ele>
        <time>2017-03-26T12:52:50Z</time>
      </trkpt>
      <trkpt lat="45.2964" lon="4.56301">
        <ele>463.94</ele>
        <time>2017-03-26T12:52:51Z</time>
      </trkpt>
      <trkpt lat="45.29641" lon="4.5631">
        <ele>463.61</ele>
        <time>2017-03-26T12:52:52Z</time>
      </trkpt>
      <trkpt lat="45.29642" lon="4.5632">
        <ele>463.55</ele>
        <time>2017-03-26T12:52:53Z</time>
      </trkpt>
      <trkpt lat="45.29642" lon="4.5633">
        <ele>463.37</ele>
        <time>2017-03-26T12:52:54Z</time>
      </trkpt>
      <trkpt lat="45.29642" lon="4.56342">
        <ele>463.26</ele>
        <time>2017-03-26T12:52:55Z</time>
      </trkpt>
      <trkpt lat="45.29644" lon="4.56353">
        <ele>463</ele>
        <time>2017-03-26T12:52:56Z</time>
      </trkpt>
      <trkpt lat="45.29645" lon="4.56365">
        <ele>462.62</ele>
        <time>2017-03-26T12:52:57Z</time>
      </trkpt>
      <trkpt lat="45.29648" lon="4.56377">
        <ele>462.31</ele>
        <time>2017-03-26T12:52:58Z</time>
      </trkpt>
      <trkpt lat="45.29651" lon="4.5639">
        <ele>461.93</ele>
        <time>2017-03-26T12:52:59Z</time>
      </trkpt>
      <trkpt lat="45.29654" lon="4.56402">
        <ele>461.53</ele>
        <time>2017-03-26T12:53:00Z</time>
      </trkpt>
      <trkpt lat="45.29657" lon="4.56415">
        <ele>461.05</ele>
        <time>2017-03-26T12:53:01Z</time>
      </trkpt>
      <trkpt lat="45.29662" lon="4.56427">
        <ele>460.63</ele>
        <time>2017-03-26T12:53:02Z</time>
      </trkpt>
      <trkpt lat="45.29666" lon="4.56439">
        <ele>460.47</ele>
        <time>2017-03-26T12:53:03Z</time>
      </trkpt>
      <trkpt lat="45.29669" lon="4.56451">
        <ele>460.12</ele>
        <time>2017-03-26T12:53:04Z</time>
      </trkpt>
      <trkpt lat="45.29674" lon="4.56463">
        <ele>459.65</ele>
        <time>2017-03-26T12:53:05Z</time>
      </trkpt>
      <trkpt lat="45.29679" lon="4.56476">
        <ele>459.39</ele>
        <time>2017-03-26T12:53:06Z</time>
      </trkpt>
      <trkpt lat="45.29684" lon="4.56489">
        <ele>459.02</ele>
        <time>2017-03-26T12:53:07Z</time>
      </trkpt>
      <trkpt lat="45.29689" lon="4.56503">
        <ele>459.27</ele>
        <time>2017-03-26T12:53:08Z</time>
      </trkpt>
      <trkpt lat="45.29694" lon="4.56517">
        <ele>459.32</ele>
        <time>2017-03-26T12:53:09Z</time>
      </trkpt>
      <trkpt lat="45.297" lon="4.5653">
        <ele>459.17</ele>
        <time>2017-03-26T12:53:10Z</time>
      </trkpt>
      <trkpt lat="45.29705" lon="4.56543">
        <ele>458.98</ele>
        <time>2017-03-26T12:53:11Z</time>
      </trkpt>
      <trkpt lat="45.29711" lon="4.56555">
        <ele>458.54</ele>
        <time>2017-03-26T12:53:12Z</time>
      </trkpt>
      <trkpt lat="45.29715" lon="4.56567">
        <ele>458.37</ele>
        <time>2017-03-26T12:53:13Z</time>
      </trkpt>
      <trkpt lat="45.2972" lon="4.5658">
        <ele>458.26</ele>
        <time>2017-03-26T12:53:14Z</time>
      </trkpt>
      <trkpt lat="45.29725" lon="4.56593">
        <ele>458.16</ele>
        <time>2017-03-26T12:53:15Z</time>
      </trkpt>
      <trkpt lat="45.29729" lon="4.56606">
        <ele>457.9</ele>
        <time>2017-03-26T12:53:16Z</time>
      </trkpt>
      <trkpt lat="45.29735" lon="4.5662">
        <ele>457.92</ele>
        <time>2017-03-26T12:53:17Z</time>
      </trkpt>
      <trkpt lat="45.2974" lon="4.56634">
        <ele>457.85</ele>
        <time>2017-03-26T12:53:18Z</time>
      </trkpt>
      <trkpt lat="45.29745" lon="4.56648">
        <ele>457.67</ele>
        <time>2017-03-26T12:53:19Z</time>
      </trkpt>
      <trkpt lat="45.2975" lon="4.56662">
        <ele>457.32</ele>
        <time>2017-03-26T12:53:20Z</time>
      </trkpt>
      <trkpt lat="45.29755" lon="4.56677">
        <ele>457.17</ele>
        <time>2017-03-26T12:53:21Z</time>
      </trkpt>
      <trkpt lat="45.2976" lon="4.56691">
        <ele>456.82</ele>
        <time>2017-03-26T12:53:22Z</time>
      </trkpt>
      <trkpt lat="45.29765" lon="4.56706">
        <ele>456.43</ele>
        <time>2017-03-26T12:53:23Z</time>
      </trkpt>
      <trkpt lat="45.29771" lon="4.56721">
        <ele>456.19</ele>
        <time>2017-03-26T12:53:24Z</time>
      </trkpt>
      <trkpt lat="45.29777" lon="4.56736">
        <ele>455.98</ele>
        <time>2017-03-26T12:53:25Z</time>
      </trkpt>
      <trkpt lat="45.29782" lon="4.56751">
        <ele>455.54</ele>
        <time>2017-03-26T12:53:26Z</time>
      </trkpt>
      <trkpt lat="45.29788" lon="4.56766">
        <ele>455.29</ele>
        <time>2017-03-26T12:53:27Z</time>
      </trkpt>
      <trkpt lat="45.29792" lon="4.56781">
        <ele>455.24</ele>
        <time>2017-03-26T12:53:28Z</time>
      </trkpt>
      <trkpt lat="45.29797" lon="4.56796">
        <ele>455.15</ele>
        <time>2017-03-26T12:53:29Z</time>
      </trkpt>
      <trkpt lat="45.29802" lon="4.56811">
        <ele>455.13</ele>
        <time>2017-03-26T12:53:30Z</time>
      </trkpt>
      <trkpt lat="45.29807" lon="4.56825">
        <ele>454.97</ele>
        <time>2017-03-26T12:53:31Z</time>
      </trkpt>
      <trkpt lat="45.29813" lon="4.5684">
        <ele>454.7</ele>
        <time>2017-03-26T12:53:32Z</time>
      </trkpt>
      <trkpt lat="45.29818" lon="4.56854">
        <ele>454.64</ele>
        <time>2017-03-26T12:53:33Z</time>
      </trkpt>
      <trkpt lat="45.29823" lon="4.56869">
        <ele>454.63</ele>
        <time>2017-03-26T12:53:34Z</time>
      </trkpt>
      <trkpt lat="45.29828" lon="4.56882">
        <ele>454.71</ele>
        <time>2017-03-26T12:53:35Z</time>
      </trkpt>
      <trkpt lat="45.29833" lon="4.56896">
        <ele>454.65</ele>
        <time>2017-03-26T12:53:36Z</time>
      </trkpt>
      <trkpt lat="45.29837" lon="4.5691">
        <ele>454.71</ele>
        <time>2017-03-26T12:53:37Z</time>
      </trkpt>
      <trkpt lat="45.29841" lon="4.56922">
        <ele>454.97</ele>
        <time>2017-03-26T12:53:38Z</time>
      </trkpt>
      <trkpt lat="45.29845" lon="4.56933">
        <ele>455.26</ele>
        <time>2017-03-26T12:53:39Z</time>
      </trkpt>
      <trkpt lat="45.29849" lon="4.56942">
        <ele>455.72</ele>
        <time>2017-03-26T12:53:40Z</time>
      </trkpt>
      <trkpt lat="45.29853" lon="4.56949">
        <ele>455.49</ele>
        <time>2017-03-26T12:53:41Z</time>
      </trkpt>
      <trkpt lat="45.29854" lon="4.56953">
        <ele>454.88</ele>
        <time>2017-03-26T12:53:42Z</time>
      </trkpt>
      <trkpt lat="45.29854" lon="4.56954">
        <ele>454.28</ele>
        <time>2017-03-26T12:53:43Z</time>
      </trkpt>
      <trkpt lat="45.29855" lon="4.56954">
        <ele>453.92</ele>
        <time>2017-03-26T12:53:44Z</time>
      </trkpt>
      <trkpt lat="45.29854" lon="4.56953">
        <ele>453.85</ele>
        <time>2017-03-26T12:53:45Z</time>
      </trkpt>
      <trkpt lat="45.29853" lon="4.56952">
        <ele>454.31</ele>
        <time>2017-03-26T12:53:46Z</time>
      </trkpt>
      <trkpt lat="45.29853" lon="4.56952">
        <ele>454.41</ele>
        <time>2017-03-26T12:53:47Z</time>
      </trkpt>
      <trkpt lat="45.29853" lon="4.56952">
        <ele>454.43</ele>
        <time>2017-03-26T12:53:48Z</time>
      </trkpt>
      <trkpt lat="45.29853" lon="4.56952">
        <ele>454.43</ele>
        <time>2017-03-26T12:53:49Z</time>
      </trkpt>
      <trkpt lat="45.29855" lon="4.56959">
        <ele>454.51</ele>
        <time>2017-03-26T12:53:50Z</time>
      </trkpt>
      <trkpt lat="45.29857" lon="4.56965">
        <ele>454.37</ele>
        <time>2017-03-26T12:53:51Z</time>
      </trkpt>
      <trkpt lat="45.2986" lon="4.56973">
        <ele>454.26</ele>
        <time>2017-03-26T12:53:52Z</time>
      </trkpt>
      <trkpt lat="45.29865" lon="4.56985">
        <ele>454.08</ele>
        <time>2017-03-26T12:53:53Z</time>
      </trkpt>
      <trkpt lat="45.29869" lon="4.56997">
        <ele>453.8</ele>
        <time>2017-03-26T12:53:54Z</time>
      </trkpt>
      <trkpt lat="45.29874" lon="4.57011">
        <ele>453.5</ele>
        <time>2017-03-26T12:53:55Z</time>
      </trkpt>
      <trkpt lat="45.29879" lon="4.57025">
        <ele>453.36</ele>
        <time>2017-03-26T12:53:56Z</time>
      </trkpt>
      <trkpt lat="45.29883" lon="4.57041">
        <ele>453.34</ele>
        <time>2017-03-26T12:53:57Z</time>
      </trkpt>
      <trkpt lat="45.29888" lon="4.57056">
        <ele>453.17</ele>
        <time>2017-03-26T12:53:58Z</time>
      </trkpt>
      <trkpt lat="45.29894" lon="4.57072">
        <ele>452.9</ele>
        <time>2017-03-26T12:53:59Z</time>
      </trkpt>
      <trkpt lat="45.299" lon="4.57089">
        <ele>452.76</ele>
        <time>2017-03-26T12:54:00Z</time>
      </trkpt>
      <trkpt lat="45.29906" lon="4.57106">
        <ele>452.66</ele>
        <time>2017-03-26T12:54:01Z</time>
      </trkpt>
      <trkpt lat="45.2991" lon="4.57124">
        <ele>452.64</ele>
        <time>2017-03-26T12:54:02Z</time>
      </trkpt>
      <trkpt lat="45.29914" lon="4.57142">
        <ele>452.55</ele>
        <time>2017-03-26T12:54:03Z</time>
      </trkpt>
      <trkpt lat="45.29918" lon="4.57161">
        <ele>452.45</ele>
        <time>2017-03-26T12:54:04Z</time>
      </trkpt>
      <trkpt lat="45.29921" lon="4.57181">
        <ele>452.35</ele>
        <time>2017-03-26T12:54:05Z</time>
      </trkpt>
      <trkpt lat="45.29923" lon="4.572">
        <ele>452.33</ele>
        <time>2017-03-26T12:54:06Z</time>
      </trkpt>
      <trkpt lat="45.29925" lon="4.5722">
        <ele>452.25</ele>
        <time>2017-03-26T12:54:07Z</time>
      </trkpt>
      <trkpt lat="45.29926" lon="4.5724">
        <ele>452.31</ele>
        <time>2017-03-26T12:54:08Z</time>
      </trkpt>
      <trkpt lat="45.29928" lon="4.57259">
        <ele>452.41</ele>
        <time>2017-03-26T12:54:09Z</time>
      </trkpt>
      <trkpt lat="45.29929" lon="4.57278">
        <ele>452.51</ele>
        <time>2017-03-26T12:54:10Z</time>
      </trkpt>
      <trkpt lat="45.2993" lon="4.57296">
        <ele>452.61</ele>
        <time>2017-03-26T12:54:11Z</time>
      </trkpt>
      <trkpt lat="45.29929" lon="4.57311">
        <ele>452.55</ele>
        <time>2017-03-26T12:54:12Z</time>
      </trkpt>
      <trkpt lat="45.29927" lon="4.57324">
        <ele>452.45</ele>
        <time>2017-03-26T12:54:13Z</time>
      </trkpt>
      <trkpt lat="45.29923" lon="4.57335">
        <ele>452.35</ele>
        <time>2017-03-26T12:54:14Z</time>
      </trkpt>
      <trkpt lat="45.29919" lon="4.57343">
        <ele>452.17</ele>
        <time>2017-03-26T12:54:15Z</time>
      </trkpt>
      <trkpt lat="45.29915" lon="4.57349">
        <ele>452.14</ele>
        <time>2017-03-26T12:54:16Z</time>
      </trkpt>
      <trkpt lat="45.29911" lon="4.57355">
        <ele>452.29</ele>
        <time>2017-03-26T12:54:17Z</time>
      </trkpt>
      <trkpt lat="45.29909" lon="4.57359">
        <ele>452.32</ele>
        <time>2017-03-26T12:54:18Z</time>
      </trkpt>
      <trkpt lat="45.29908" lon="4.57362">
        <ele>452.33</ele>
        <time>2017-03-26T12:54:19Z</time>
      </trkpt>
      <trkpt lat="45.29907" lon="4.57364">
        <ele>452.17</ele>
        <time>2017-03-26T12:54:20Z</time>
      </trkpt>
      <trkpt lat="45.29906" lon="4.57365">
        <ele>452.14</ele>
        <time>2017-03-26T12:54:21Z</time>
      </trkpt>
      <trkpt lat="45.29903" lon="4.57366">
        <ele>451.97</ele>
        <time>2017-03-26T12:54:22Z</time>
      </trkpt>
      <trkpt lat="45.299" lon="4.57366">
        <ele>451.62</ele>
        <time>2017-03-26T12:54:23Z</time>
      </trkpt>
      <trkpt lat="45.29895" lon="4.57366">
        <ele>451.31</ele>
        <time>2017-03-26T12:54:24Z</time>
      </trkpt>
      <trkpt lat="45.29888" lon="4.57366">
        <ele>450.85</ele>
        <time>2017-03-26T12:54:25Z</time>
      </trkpt>
      <trkpt lat="45.29879" lon="4.57366">
        <ele>450.35</ele>
        <time>2017-03-26T12:54:26Z</time>
      </trkpt>
      <trkpt lat="45.2987" lon="4.57367">
        <ele>450.01</ele>
        <time>2017-03-26T12:54:27Z</time>
      </trkpt>
      <trkpt lat="45.29861" lon="4.57369">
        <ele>449.55</ele>
        <time>2017-03-26T12:54:28Z</time>
      </trkpt>
      <trkpt lat="45.29851" lon="4.57371">
        <ele>448.97</ele>
        <time>2017-03-26T12:54:29Z</time>
      </trkpt>
      <trkpt lat="45.29842" lon="4.57373">
        <ele>448.62</ele>
        <time>2017-03-26T12:54:30Z</time>
      </trkpt>
      <trkpt lat="45.29833" lon="4.57374">
        <ele>448.15</ele>
        <time>2017-03-26T12:54:31Z</time>
      </trkpt>
      <trkpt lat="45.29826" lon="4.57374">
        <ele>447.81</ele>
        <time>2017-03-26T12:54:32Z</time>
      </trkpt>
      <trkpt lat="45.29819" lon="4.57373">
        <ele>447.83</ele>
        <time>2017-03-26T12:54:33Z</time>
      </trkpt>
      <trkpt lat="45.29813" lon="4.57369">
        <ele>447.83</ele>
        <time>2017-03-26T12:54:34Z</time>
      </trkpt>
      <trkpt lat="45.29808" lon="4.57364">
        <ele>447.75</ele>
        <time>2017-03-26T12:54:35Z</time>
      </trkpt>
      <trkpt lat="45.29805" lon="4.57358">
        <ele>447.57</ele>
        <time>2017-03-26T12:54:36Z</time>
      </trkpt>
      <trkpt lat="45.29801" lon="4.57352">
        <ele>447.3</ele>
        <time>2017-03-26T12:54:37Z</time>
      </trkpt>
      <trkpt lat="45.29798" lon="4.57347">
        <ele>447.08</ele>
        <time>2017-03-26T12:54:38Z</time>
      </trkpt>
      <trkpt lat="45.29794" lon="4.57343">
        <ele>446.64</ele>
        <time>2017-03-26T12:54:39Z</time>
      </trkpt>
      <trkpt lat="45.2979" lon="4.57343">
        <ele>446.39</ele>
        <time>2017-03-26T12:54:40Z</time>
      </trkpt>
      <trkpt lat="45.29787" lon="4.57344">
        <ele>446.1</ele>
        <time>2017-03-26T12:54:41Z</time>
      </trkpt>
      <trkpt lat="45.29784" lon="4.57346">
        <ele>445.8</ele>
        <time>2017-03-26T12:54:42Z</time>
      </trkpt>
      <trkpt lat="45.29785" lon="4.57349">
        <ele>445.5</ele>
        <time>2017-03-26T12:54:43Z</time>
      </trkpt>
      <trkpt lat="45.29785" lon="4.57352">
        <ele>445.44</ele>
        <time>2017-03-26T12:54:44Z</time>
      </trkpt>
      <trkpt lat="45.29786" lon="4.57354">
        <ele>445.27</ele>
        <time>2017-03-26T12:54:45Z</time>
      </trkpt>
      <trkpt lat="45.29787" lon="4.57355">
        <ele>445.16</ele>
        <time>2017-03-26T12:54:46Z</time>
      </trkpt>
      <trkpt lat="45.29787" lon="4.57355">
        <ele>445.14</ele>
        <time>2017-03-26T12:54:47Z</time>
      </trkpt>
      <trkpt lat="45.29788" lon="4.57356">
        <ele>445.13</ele>
        <time>2017-03-26T12:54:48Z</time>
      </trkpt>
      <trkpt lat="45.29788" lon="4.57356">
        <ele>445.13</ele>
        <time>2017-03-26T12:54:49Z</time>
      </trkpt>
      <trkpt lat="45.29788" lon="4.57356">
        <ele>445.13</ele>
        <time>2017-03-26T12:54:50Z</time>
      </trkpt>
      <trkpt lat="45.29788" lon="4.57356">
        <ele>445.13</ele>
        <time>2017-03-26T12:54:51Z</time>
      </trkpt>
      <trkpt lat="45.29788" lon="4.57356">
        <ele>445.13</ele>
        <time>2017-03-26T12:54:52Z</time>
      </trkpt>
      <trkpt lat="45.29788" lon="4.57356">
        <ele>445.13</ele>
        <time>2017-03-26T12:54:53Z</time>
      </trkpt>
      <trkpt lat="45.29788" lon="4.57356">
        <ele>445.13</ele>
        <time>2017-03-26T12:54:54Z</time>
      </trkpt>
      <trkpt lat="45.29788" lon="4.57356">
        <ele>445.13</ele>
        <time>2017-03-26T12:54:55Z</time>
      </trkpt>
      <trkpt lat="45.29788" lon="4.57356">
        <ele>445.13</ele>
        <time>2017-03-26T12:54:56Z</time>
      </trkpt>
      <trkpt lat="45.29788" lon="4.57356">
        <ele>445.13</ele>
        <time>2017-03-26T12:54:57Z</time>
      </trkpt>
      <trkpt lat="45.29788" lon="4.57356">
        <ele>445.13</ele>
        <time>2017-03-26T12:54:58Z</time>
      </trkpt>
      <trkpt lat="45.29788" lon="4.57356">
        <ele>445.13</ele>
        <time>2017-03-26T12:54:59Z</time>
      </trkpt>
      <trkpt lat="45.29788" lon="4.57356">
        <ele>445.13</ele>
        <time>2017-03-26T12:55:00Z</time>
      </trkpt>
      <trkpt lat="45.29788" lon="4.57356">
        <ele>445.13</ele>
        <time>2017-03-26T12:55:01Z</time>
      </trkpt>
      <trkpt lat="45.29788" lon="4.57356">
        <ele>445.13</ele>
        <time>2017-03-26T12:55:02Z</time>
      </trkpt>
      <trkpt lat="45.29788" lon="4.57356">
        <ele>445.13</ele>
        <time>2017-03-26T12:55:03Z</time>
      </trkpt>
      <trkpt lat="45.29788" lon="4.57356">
        <ele>445.13</ele>
        <time>2017-03-26T12:55:04Z</time>
      </trkpt>
      <trkpt lat="45.29788" lon="4.57356">
        <ele>445.13</ele>
        <time>2017-03-26T12:55:05Z</time>
      </trkpt>
      <trkpt lat="45.29788" lon="4.57356">
        <ele>445.13</ele>
        <time>2017-03-26T12:55:06Z</time>
      </trkpt>
      <trkpt lat="45.29788" lon="4.57356">
        <ele>445.13</ele>
        <time>2017-03-26T12:55:07Z</time>
      </trkpt>
      <trkpt lat="45.29788" lon="4.57356">
        <ele>445.13</ele>
        <time>2017-03-26T12:55:08Z</time>
      </trkpt>
      <trkpt lat="45.29788" lon="4.57356">
        <ele>445.13</ele>
        <time>2017-03-26T12:55:09Z</time>
      </trkpt>
      <trkpt lat="45.29788" lon="4.57356">
        <ele>445.13</ele>
        <time>2017-03-26T12:55:10Z</time>
      </trkpt>
      <trkpt lat="45.29788" lon="4.57356">
        <ele>445.13</ele>
        <time>2017-03-26T12:55:11Z</time>
      </trkpt>
      <trkpt lat="45.29788" lon="4.57356">
        <ele>445.13</ele>
        <time>2017-03-26T12:55:12Z</time>
      </trkpt>
      <trkpt lat="45.29788" lon="4.57356">
        <ele>445.13</ele>
        <time>2017-03-26T12:55:13Z</time>
      </trkpt>
      <trkpt lat="45.29788" lon="4.57356">
        <ele>445.13</ele>
        <time>2017-03-26T12:55:14Z</time>
      </trkpt>
      <trkpt lat="45.29788" lon="4.57356">
        <ele>445.13</ele>
        <time>2017-03-26T12:55:15Z</time>
      </trkpt>
      <trkpt lat="45.29788" lon="4.57356">
        <ele>445.13</ele>
        <time>2017-03-26T12:55:16Z</time>
      </trkpt>
      <trkpt lat="45.29788" lon="4.57356">
        <ele>445.13</ele>
        <time>2017-03-26T12:55:17Z</time>
      </trkpt>
      <trkpt lat="45.29788" lon="4.57356">
        <ele>445.13</ele>
        <time>2017-03-26T12:55:18Z</time>
      </trkpt>
      <trkpt lat="45.29788" lon="4.57356">
        <ele>445.13</ele>
        <time>2017-03-26T12:55:19Z</time>
      </trkpt>
      <trkpt lat="45.29788" lon="4.57356">
        <ele>445.13</ele>
        <time>2017-03-26T12:55:20Z</time>
      </trkpt>
      <trkpt lat="45.29788" lon="4.57356">
        <ele>445.13</ele>
        <time>2017-03-26T12:55:21Z</time>
      </trkpt>
      <trkpt lat="45.29788" lon="4.57356">
        <ele>445.13</ele>
        <time>2017-03-26T12:55:22Z</time>
      </trkpt>
      <trkpt lat="45.29788" lon="4.57356">
        <ele>445.13</ele>
        <time>2017-03-26T12:55:23Z</time>
      </trkpt>
      <trkpt lat="45.29788" lon="4.57356">
        <ele>445.13</ele>
        <time>2017-03-26T12:55:24Z</time>
      </trkpt>
      <trkpt lat="45.29788" lon="4.57356">
        <ele>445.13</ele>
        <time>2017-03-26T12:55:25Z</time>
      </trkpt>
      <trkpt lat="45.29788" lon="4.57356">
        <ele>445.13</ele>
        <time>2017-03-26T12:55:26Z</time>
      </trkpt>
      <trkpt lat="45.29788" lon="4.57356">
        <ele>445.13</ele>
        <time>2017-03-26T12:55:27Z</time>
      </trkpt>
      <trkpt lat="45.29788" lon="4.57356">
        <ele>445.13</ele>
        <time>2017-03-26T12:55:28Z</time>
      </trkpt>
      <trkpt lat="45.29788" lon="4.57356">
        <ele>445.13</ele>
        <time>2017-03-26T12:55:29Z</time>
      </trkpt>
      <trkpt lat="45.29788" lon="4.57356">
        <ele>445.13</ele>
        <time>2017-03-26T12:55:30Z</time>
      </trkpt>
      <trkpt lat="45.29788" lon="4.57356">
        <ele>445.13</ele>
        <time>2017-03-26T12:55:31Z</time>
      </trkpt>
      <trkpt lat="45.29788" lon="4.57356">
        <ele>445.13</ele>
        <time>2017-03-26T12:55:32Z</time>
      </trkpt>
      <trkpt lat="45.29788" lon="4.57356">
        <ele>445.13</ele>
        <time>2017-03-26T12:55:33Z</time>
      </trkpt>
      <trkpt lat="45.29788" lon="4.57356">
        <ele>445.13</ele>
        <time>2017-03-26T12:55:34Z</time>
      </trkpt>
      <trkpt lat="45.29788" lon="4.57356">
        <ele>445.13</ele>
        <time>2017-03-26T12:55:35Z</time>
      </trkpt>
      <trkpt lat="45.29788" lon="4.57356">
        <ele>445.13</ele>
        <time>2017-03-26T12:55:36Z</time>
      </trkpt>
      <trkpt lat="45.29788" lon="4.57356">
        <ele>445.13</ele>
        <time>2017-03-26T12:55:37Z</time>
      </trkpt>
      <trkpt lat="45.29788" lon="4.57356">
        <ele>445.13</ele>
        <time>2017-03-26T12:55:38Z</time>
      </trkpt>
      <trkpt lat="45.29788" lon="4.57356">
        <ele>445.13</ele>
        <time>2017-03-26T12:55:39Z</time>
      </trkpt>
      <trkpt lat="45.29788" lon="4.57356">
        <ele>445.13</ele>
        <time>2017-03-26T12:55:40Z</time>
      </trkpt>
      <trkpt lat="45.29788" lon="4.57356">
        <ele>445.13</ele>
        <time>2017-03-26T12:55:41Z</time>
      </trkpt>
      <trkpt lat="45.29788" lon="4.57356">
        <ele>445.13</ele>
        <time>2017-03-26T12:55:42Z</time>
      </trkpt>
      <trkpt lat="45.29788" lon="4.57356">
        <ele>445.13</ele>
        <time>2017-03-26T12:55:43Z</time>
      </trkpt>
      <trkpt lat="45.29788" lon="4.57356">
        <ele>445.13</ele>
        <time>2017-03-26T12:55:44Z</time>
      </trkpt>
      <trkpt lat="45.29788" lon="4.57356">
        <ele>445.13</ele>
        <time>2017-03-26T12:55:45Z</time>
      </trkpt>
      <trkpt lat="45.29788" lon="4.57356">
        <ele>445.13</ele>
        <time>2017-03-26T12:55:46Z</time>
      </trkpt>
      <trkpt lat="45.29788" lon="4.57356">
        <ele>445.13</ele>
        <time>2017-03-26T12:55:47Z</time>
      </trkpt>
      <trkpt lat="45.29788" lon="4.57356">
        <ele>445.13</ele>
        <time>2017-03-26T12:55:48Z</time>
      </trkpt>
      <trkpt lat="45.29788" lon="4.57356">
        <ele>445.13</ele>
        <time>2017-03-26T12:55:49Z</time>
      </trkpt>
      <trkpt lat="45.29788" lon="4.57356">
        <ele>445.13</ele>
        <time>2017-03-26T12:55:50Z</time>
      </trkpt>
      <trkpt lat="45.29788" lon="4.57356">
        <ele>445.13</ele>
        <time>2017-03-26T12:55:51Z</time>
      </trkpt>
      <trkpt lat="45.29788" lon="4.57356">
        <ele>445.13</ele>
        <time>2017-03-26T12:55:52Z</time>
      </trkpt>
      <trkpt lat="45.29788" lon="4.57356">
        <ele>445.13</ele>
        <time>2017-03-26T12:55:53Z</time>
      </trkpt>
      <trkpt lat="45.29788" lon="4.57356">
        <ele>445.13</ele>
        <time>2017-03-26T12:55:54Z</time>
      </trkpt>
      <trkpt lat="45.29788" lon="4.57356">
        <ele>445.13</ele>
        <time>2017-03-26T12:55:55Z</time>
      </trkpt>
      <trkpt lat="45.29788" lon="4.57356">
        <ele>445.13</ele>
        <time>2017-03-26T12:55:56Z</time>
      </trkpt>
      <trkpt lat="45.29788" lon="4.57356">
        <ele>445.13</ele>
        <time>2017-03-26T12:55:57Z</time>
      </trkpt>
      <trkpt lat="45.29788" lon="4.57356">
        <ele>445.13</ele>
        <time>2017-03-26T12:55:58Z</time>
      </trkpt>
      <trkpt lat="45.29788" lon="4.57356">
        <ele>445.13</ele>
        <time>2017-03-26T12:55:59Z</time>
      </trkpt>
      <trkpt lat="45.29788" lon="4.57356">
        <ele>445.13</ele>
        <time>2017-03-26T12:56:00Z</time>
      </trkpt>
      <trkpt lat="45.29788" lon="4.57356">
        <ele>445.13</ele>
        <time>2017-03-26T12:56:01Z</time>
      </trkpt>
      <trkpt lat="45.29788" lon="4.57356">
        <ele>445.13</ele>
        <time>2017-03-26T12:56:02Z</time>
      </trkpt>
      <trkpt lat="45.29788" lon="4.57356">
        <ele>445.13</ele>
        <time>2017-03-26T12:56:03Z</time>
      </trkpt>
      <trkpt lat="45.29788" lon="4.57356">
        <ele>445.13</ele>
        <time>2017-03-26T12:56:04Z</time>
      </trkpt>
      <trkpt lat="45.29788" lon="4.57356">
        <ele>445.13</ele>
        <time>2017-03-26T12:56:05Z</time>
      </trkpt>
      <trkpt lat="45.29788" lon="4.57356">
        <ele>445.13</ele>
        <time>2017-03-26T12:56:06Z</time>
      </trkpt>
      <trkpt lat="45.29788" lon="4.57356">
        <ele>445.13</ele>
        <time>2017-03-26T12:56:07Z</time>
      </trkpt>
      <trkpt lat="45.29788" lon="4.57356">
        <ele>445.13</ele>
        <time>2017-03-26T12:56:08Z</time>
      </trkpt>
      <trkpt lat="45.29788" lon="4.57356">
        <ele>445.13</ele>
        <time>2017-03-26T12:56:09Z</time>
      </trkpt>
      <trkpt lat="45.29788" lon="4.57356">
        <ele>445.13</ele>
        <time>2017-03-26T12:56:10Z</time>
      </trkpt>
      <trkpt lat="45.29788" lon="4.57356">
        <ele>445.13</ele>
        <time>2017-03-26T12:56:11Z</time>
      </trkpt>
      <trkpt lat="45.29788" lon="4.57356">
        <ele>445.13</ele>
        <time>2017-03-26T12:56:12Z</time>
      </trkpt>
      <trkpt lat="45.29788" lon="4.57356">
        <ele>445.13</ele>
        <time>2017-03-26T12:56:13Z</time>
      </trkpt>
      <trkpt lat="45.29788" lon="4.57356">
        <ele>445.13</ele>
        <time>2017-03-26T12:56:14Z</time>
      </trkpt>
      <trkpt lat="45.29788" lon="4.57356">
        <ele>445.13</ele>
        <time>2017-03-26T12:56:15Z</time>
      </trkpt>
      <trkpt lat="45.29788" lon="4.57356">
        <ele>445.13</ele>
        <time>2017-03-26T12:56:16Z</time>
      </trkpt>
      <trkpt lat="45.29788" lon="4.57356">
        <ele>445.13</ele>
        <time>2017-03-26T12:56:17Z</time>
      </trkpt>
      <trkpt lat="45.29788" lon="4.57356">
        <ele>445.13</ele>
        <time>2017-03-26T12:56:18Z</time>
      </trkpt>
      <trkpt lat="45.29788" lon="4.57356">
        <ele>445.13</ele>
        <time>2017-03-26T12:56:19Z</time>
      </trkpt>
      <trkpt lat="45.29788" lon="4.57356">
        <ele>445.13</ele>
        <time>2017-03-26T12:56:20Z</time>
      </trkpt>
      <trkpt lat="45.29788" lon="4.57356">
        <ele>445.13</ele>
        <time>2017-03-26T12:56:21Z</time>
      </trkpt>
      <trkpt lat="45.29788" lon="4.57356">
        <ele>445.13</ele>
        <time>2017-03-26T12:56:22Z</time>
      </trkpt>
      <trkpt lat="45.29788" lon="4.57356">
        <ele>445.13</ele>
        <time>2017-03-26T12:56:23Z</time>
      </trkpt>
      <trkpt lat="45.29788" lon="4.57356">
        <ele>445.13</ele>
        <time>2017-03-26T12:56:24Z</time>
      </trkpt>
      <trkpt lat="45.29788" lon="4.57356">
        <ele>445.13</ele>
        <time>2017-03-26T12:56:25Z</time>
      </trkpt>
      <trkpt lat="45.29788" lon="4.57356">
        <ele>445.13</ele>
        <time>2017-03-26T12:56:26Z</time>
      </trkpt>
      <trkpt lat="45.29788" lon="4.57356">
        <ele>445.13</ele>
        <time>2017-03-26T12:56:27Z</time>
      </trkpt>
      <trkpt lat="45.29788" lon="4.57356">
        <ele>445.13</ele>
        <time>2017-03-26T12:56:28Z</time>
      </trkpt>
      <trkpt lat="45.29788" lon="4.57356">
        <ele>445.13</ele>
        <time>2017-03-26T12:56:29Z</time>
      </trkpt>
      <trkpt lat="45.29788" lon="4.57356">
        <ele>445.13</ele>
        <time>2017-03-26T12:56:30Z</time>
      </trkpt>
      <trkpt lat="45.29788" lon="4.57356">
        <ele>445.13</ele>
        <time>2017-03-26T12:56:31Z</time>
      </trkpt>
      <trkpt lat="45.29788" lon="4.57356">
        <ele>445.13</ele>
        <time>2017-03-26T12:56:32Z</time>
      </trkpt>
      <trkpt lat="45.29788" lon="4.57356">
        <ele>445.13</ele>
        <time>2017-03-26T12:56:33Z</time>
      </trkpt>
      <trkpt lat="45.29788" lon="4.57356">
        <ele>445.13</ele>
        <time>2017-03-26T12:56:34Z</time>
      </trkpt>
      <trkpt lat="45.29788" lon="4.57356">
        <ele>445.13</ele>
        <time>2017-03-26T12:56:35Z</time>
      </trkpt>
      <trkpt lat="45.29788" lon="4.57356">
        <ele>445.13</ele>
        <time>2017-03-26T12:56:36Z</time>
      </trkpt>
      <trkpt lat="45.29788" lon="4.57356">
        <ele>445.13</ele>
        <time>2017-03-26T12:56:37Z</time>
      </trkpt>
      <trkpt lat="45.29788" lon="4.57356">
        <ele>445.13</ele>
        <time>2017-03-26T12:56:38Z</time>
      </trkpt>
      <trkpt lat="45.29788" lon="4.57356">
        <ele>445.13</ele>
        <time>2017-03-26T12:56:39Z</time>
      </trkpt>
      <trkpt lat="45.29788" lon="4.57356">
        <ele>445.13</ele>
        <time>2017-03-26T12:56:40Z</time>
      </trkpt>
      <trkpt lat="45.29788" lon="4.57356">
        <ele>445.13</ele>
        <time>2017-03-26T12:56:41Z</time>
      </trkpt>
      <trkpt lat="45.29788" lon="4.57356">
        <ele>445.13</ele>
        <time>2017-03-26T12:56:42Z</time>
      </trkpt>
      <trkpt lat="45.29788" lon="4.57356">
        <ele>445.13</ele>
        <time>2017-03-26T12:56:43Z</time>
      </trkpt>
      <trkpt lat="45.29788" lon="4.57356">
        <ele>445.13</ele>
        <time>2017-03-26T12:56:44Z</time>
      </trkpt>
      <trkpt lat="45.29788" lon="4.57356">
        <ele>445.13</ele>
        <time>2017-03-26T12:56:45Z</time>
      </trkpt>
      <trkpt lat="45.29788" lon="4.57356">
        <ele>445.13</ele>
        <time>2017-03-26T12:56:46Z</time>
      </trkpt>
      <trkpt lat="45.29788" lon="4.57356">
        <ele>445.13</ele>
        <time>2017-03-26T12:56:47Z</time>
      </trkpt>
      <trkpt lat="45.29788" lon="4.57356">
        <ele>445.13</ele>
        <time>2017-03-26T12:56:48Z</time>
      </trkpt>
      <trkpt lat="45.29788" lon="4.57356">
        <ele>445.13</ele>
        <time>2017-03-26T12:56:49Z</time>
      </trkpt>
      <trkpt lat="45.29788" lon="4.57356">
        <ele>445.13</ele>
        <time>2017-03-26T12:56:50Z</time>
      </trkpt>
      <trkpt lat="45.29788" lon="4.57356">
        <ele>445.13</ele>
        <time>2017-03-26T12:56:51Z</time>
      </trkpt>
      <trkpt lat="45.29788" lon="4.57356">
        <ele>445.13</ele>
        <time>2017-03-26T12:56:52Z</time>
      </trkpt>
      <trkpt lat="45.29788" lon="4.57356">
        <ele>445.13</ele>
        <time>2017-03-26T12:56:53Z</time>
      </trkpt>
      <trkpt lat="45.29788" lon="4.57356">
        <ele>445.13</ele>
        <time>2017-03-26T12:56:54Z</time>
      </trkpt>
      <trkpt lat="45.29788" lon="4.57356">
        <ele>445.13</ele>
        <time>2017-03-26T12:56:55Z</time>
      </trkpt>
      <trkpt lat="45.29788" lon="4.57356">
        <ele>445.13</ele>
        <time>2017-03-26T12:56:56Z</time>
      </trkpt>
      <trkpt lat="45.29788" lon="4.57356">
        <ele>445.13</ele>
        <time>2017-03-26T12:56:57Z</time>
      </trkpt>
      <trkpt lat="45.29788" lon="4.57356">
        <ele>445.13</ele>
        <time>2017-03-26T12:56:58Z</time>
      </trkpt>
      <trkpt lat="45.29788" lon="4.57356">
        <ele>445.13</ele>
        <time>2017-03-26T12:56:59Z</time>
      </trkpt>
      <trkpt lat="45.29788" lon="4.57356">
        <ele>445.13</ele>
        <time>2017-03-26T12:57:00Z</time>
      </trkpt>
      <trkpt lat="45.29788" lon="4.57356">
        <ele>445.13</ele>
        <time>2017-03-26T12:57:01Z</time>
      </trkpt>
      <trkpt lat="45.29788" lon="4.57356">
        <ele>445.13</ele>
        <time>2017-03-26T12:57:02Z</time>
      </trkpt>
      <trkpt lat="45.29788" lon="4.57356">
        <ele>445.13</ele>
        <time>2017-03-26T12:57:03Z</time>
      </trkpt>
      <trkpt lat="45.29788" lon="4.57356">
        <ele>445.13</ele>
        <time>2017-03-26T12:57:04Z</time>
      </trkpt>
      <trkpt lat="45.29788" lon="4.57356">
        <ele>445.13</ele>
        <time>2017-03-26T12:57:05Z</time>
      </trkpt>
      <trkpt lat="45.29788" lon="4.57356">
        <ele>445.13</ele>
        <time>2017-03-26T12:57:06Z</time>
      </trkpt>
      <trkpt lat="45.29788" lon="4.57356">
        <ele>445.13</ele>
        <time>2017-03-26T12:57:07Z</time>
      </trkpt>
      <trkpt lat="45.29788" lon="4.57356">
        <ele>445.13</ele>
        <time>2017-03-26T12:57:08Z</time>
      </trkpt>
      <trkpt lat="45.29788" lon="4.57356">
        <ele>445.13</ele>
        <time>2017-03-26T12:57:09Z</time>
      </trkpt>
      <trkpt lat="45.29788" lon="4.57356">
        <ele>445.13</ele>
        <time>2017-03-26T12:57:10Z</time>
      </trkpt>
      <trkpt lat="45.29788" lon="4.57356">
        <ele>445.13</ele>
        <time>2017-03-26T12:57:11Z</time>
      </trkpt>
      <trkpt lat="45.29788" lon="4.57356">
        <ele>445.13</ele>
        <time>2017-03-26T12:57:12Z</time>
      </trkpt>
      <trkpt lat="45.29788" lon="4.57356">
        <ele>445.13</ele>
        <time>2017-03-26T12:57:13Z</time>
      </trkpt>
      <trkpt lat="45.29788" lon="4.57356">
        <ele>445.13</ele>
        <time>2017-03-26T12:57:14Z</time>
      </trkpt>
      <trkpt lat="45.29788" lon="4.57356">
        <ele>445.13</ele>
        <time>2017-03-26T12:57:15Z</time>
      </trkpt>
      <trkpt lat="45.29788" lon="4.57356">
        <ele>445.13</ele>
        <time>2017-03-26T12:57:16Z</time>
      </trkpt>
      <trkpt lat="45.29788" lon="4.57356">
        <ele>445.13</ele>
        <time>2017-03-26T12:57:17Z</time>
      </trkpt>
      <trkpt lat="45.29788" lon="4.57356">
        <ele>445.13</ele>
        <time>2017-03-26T12:57:18Z</time>
      </trkpt>
      <trkpt lat="45.29788" lon="4.57356">
        <ele>445.13</ele>
        <time>2017-03-26T12:57:19Z</time>
      </trkpt>
      <trkpt lat="45.29788" lon="4.57356">
        <ele>445.13</ele>
        <time>2017-03-26T12:57:20Z</time>
      </trkpt>
      <trkpt lat="45.29788" lon="4.57356">
        <ele>445.13</ele>
        <time>2017-03-26T12:57:21Z</time>
      </trkpt>
      <trkpt lat="45.29788" lon="4.57356">
        <ele>445.13</ele>
        <time>2017-03-26T12:57:22Z</time>
      </trkpt>
      <trkpt lat="45.29788" lon="4.57356">
        <ele>445.13</ele>
        <time>2017-03-26T12:57:23Z</time>
      </trkpt>
      <trkpt lat="45.29788" lon="4.57356">
        <ele>445.13</ele>
        <time>2017-03-26T12:57:24Z</time>
      </trkpt>
      <trkpt lat="45.29788" lon="4.57356">
        <ele>445.13</ele>
        <time>2017-03-26T12:57:25Z</time>
      </trkpt>
      <trkpt lat="45.29788" lon="4.57356">
        <ele>445.13</ele>
        <time>2017-03-26T12:57:26Z</time>
      </trkpt>
      <trkpt lat="45.29788" lon="4.57356">
        <ele>445.13</ele>
        <time>2017-03-26T12:57:27Z</time>
      </trkpt>
      <trkpt lat="45.29788" lon="4.57356">
        <ele>445.13</ele>
        <time>2017-03-26T12:57:28Z</time>
      </trkpt>
      <trkpt lat="45.29788" lon="4.57356">
        <ele>445.13</ele>
        <time>2017-03-26T12:57:29Z</time>
      </trkpt>
      <trkpt lat="45.29788" lon="4.57356">
        <ele>445.13</ele>
        <time>2017-03-26T12:57:30Z</time>
      </trkpt>
      <trkpt lat="45.29788" lon="4.57356">
        <ele>445.13</ele>
        <time>2017-03-26T12:57:31Z</time>
      </trkpt>
      <trkpt lat="45.29788" lon="4.57356">
        <ele>445.13</ele>
        <time>2017-03-26T12:57:32Z</time>
      </trkpt>
      <trkpt lat="45.29788" lon="4.57356">
        <ele>445.13</ele>
        <time>2017-03-26T12:57:33Z</time>
      </trkpt>
      <trkpt lat="45.29788" lon="4.57356">
        <ele>445.13</ele>
        <time>2017-03-26T12:57:34Z</time>
      </trkpt>
      <trkpt lat="45.29788" lon="4.57356">
        <ele>445.13</ele>
        <time>2017-03-26T12:57:35Z</time>
      </trkpt>
      <trkpt lat="45.29788" lon="4.57356">
        <ele>445.13</ele>
        <time>2017-03-26T12:57:36Z</time>
      </trkpt>
      <trkpt lat="45.29788" lon="4.57356">
        <ele>445.13</ele>
        <time>2017-03-26T12:57:37Z</time>
      </trkpt>
      <trkpt lat="45.29788" lon="4.57356">
        <ele>445.13</ele>
        <time>2017-03-26T12:57:38Z</time>
      </trkpt>
      <trkpt lat="45.29788" lon="4.57356">
        <ele>445.13</ele>
        <time>2017-03-26T12:57:39Z</time>
      </trkpt>
      <trkpt lat="45.29788" lon="4.57356">
        <ele>445.13</ele>
        <time>2017-03-26T12:57:40Z</time>
      </trkpt>
      <trkpt lat="45.29788" lon="4.57356">
        <ele>445.13</ele>
        <time>2017-03-26T12:57:41Z</time>
      </trkpt>
      <trkpt lat="45.29788" lon="4.57356">
        <ele>445.13</ele>
        <time>2017-03-26T12:57:42Z</time>
      </trkpt>
      <trkpt lat="45.29788" lon="4.57356">
        <ele>445.13</ele>
        <time>2017-03-26T12:57:43Z</time>
      </trkpt>
      <trkpt lat="45.29788" lon="4.57356">
        <ele>445.13</ele>
        <time>2017-03-26T12:57:44Z</time>
      </trkpt>
      <trkpt lat="45.29788" lon="4.57356">
        <ele>445.13</ele>
        <time>2017-03-26T12:57:45Z</time>
      </trkpt>
      <trkpt lat="45.29788" lon="4.57356">
        <ele>445.13</ele>
        <time>2017-03-26T12:57:46Z</time>
      </trkpt>
      <trkpt lat="45.29788" lon="4.57356">
        <ele>445.13</ele>
        <time>2017-03-26T12:57:47Z</time>
      </trkpt>
      <trkpt lat="45.29788" lon="4.57356">
        <ele>445.13</ele>
        <time>2017-03-26T12:57:48Z</time>
      </trkpt>
      <trkpt lat="45.29788" lon="4.57356">
        <ele>445.13</ele>
        <time>2017-03-26T12:57:49Z</time>
      </trkpt>
      <trkpt lat="45.29788" lon="4.57356">
        <ele>445.13</ele>
        <time>2017-03-26T12:57:50Z</time>
      </trkpt>
      <trkpt lat="45.29788" lon="4.57356">
        <ele>445.13</ele>
        <time>2017-03-26T12:57:51Z</time>
      </trkpt>
      <trkpt lat="45.29788" lon="4.57356">
        <ele>445.13</ele>
        <time>2017-03-26T12:57:52Z</time>
      </trkpt>
      <trkpt lat="45.29788" lon="4.57356">
        <ele>445.13</ele>
        <time>2017-03-26T12:57:53Z</time>
      </trkpt>
      <trkpt lat="45.29788" lon="4.57356">
        <ele>445.13</ele>
        <time>2017-03-26T12:57:54Z</time>
      </trkpt>
      <trkpt lat="45.29788" lon="4.57356">
        <ele>445.13</ele>
        <time>2017-03-26T12:57:55Z</time>
      </trkpt>
      <trkpt lat="45.29788" lon="4.57356">
        <ele>445.13</ele>
        <time>2017-03-26T12:57:56Z</time>
      </trkpt>
      <trkpt lat="45.29788" lon="4.57356">
        <ele>445.13</ele>
        <time>2017-03-26T12:57:57Z</time>
      </trkpt>
      <trkpt lat="45.29788" lon="4.57356">
        <ele>445.13</ele>
        <time>2017-03-26T12:57:58Z</time>
      </trkpt>
      <trkpt lat="45.29788" lon="4.57356">
        <ele>445.13</ele>
        <time>2017-03-26T12:57:59Z</time>
      </trkpt>
      <trkpt lat="45.29788" lon="4.57356">
        <ele>445.13</ele>
        <time>2017-03-26T12:58:00Z</time>
      </trkpt>
      <trkpt lat="45.29788" lon="4.57356">
        <ele>445.13</ele>
        <time>2017-03-26T12:58:01Z</time>
      </trkpt>
      <trkpt lat="45.29788" lon="4.57356">
        <ele>445.13</ele>
        <time>2017-03-26T12:58:02Z</time>
      </trkpt>
      <trkpt lat="45.29788" lon="4.57356">
        <ele>445.13</ele>
        <time>2017-03-26T12:58:03Z</time>
      </trkpt>
      <trkpt lat="45.29788" lon="4.57356">
        <ele>445.13</ele>
        <time>2017-03-26T12:58:04Z</time>
      </trkpt>
      <trkpt lat="45.29788" lon="4.57356">
        <ele>445.13</ele>
        <time>2017-03-26T12:58:05Z</time>
      </trkpt>
      <trkpt lat="45.29788" lon="4.57356">
        <ele>445.13</ele>
        <time>2017-03-26T12:58:06Z</time>
      </trkpt>
      <trkpt lat="45.29788" lon="4.57356">
        <ele>445.13</ele>
        <time>2017-03-26T12:58:07Z</time>
      </trkpt>
      <trkpt lat="45.29788" lon="4.57356">
        <ele>445.13</ele>
        <time>2017-03-26T12:58:08Z</time>
      </trkpt>
      <trkpt lat="45.29788" lon="4.57356">
        <ele>445.13</ele>
        <time>2017-03-26T12:58:09Z</time>
      </trkpt>
      <trkpt lat="45.29788" lon="4.57356">
        <ele>445.13</ele>
        <time>2017-03-26T12:58:10Z</time>
      </trkpt>
      <trkpt lat="45.29788" lon="4.57356">
        <ele>445.13</ele>
        <time>2017-03-26T12:58:11Z</time>
      </trkpt>
      <trkpt lat="45.29788" lon="4.57356">
        <ele>445.13</ele>
        <time>2017-03-26T12:58:12Z</time>
      </trkpt>
      <trkpt lat="45.29788" lon="4.57356">
        <ele>445.13</ele>
        <time>2017-03-26T12:58:13Z</time>
      </trkpt>
      <trkpt lat="45.29788" lon="4.57356">
        <ele>445.13</ele>
        <time>2017-03-26T12:58:14Z</time>
      </trkpt>
      <trkpt lat="45.29788" lon="4.57356">
        <ele>445.13</ele>
        <time>2017-03-26T12:58:15Z</time>
      </trkpt>
      <trkpt lat="45.29788" lon="4.57356">
        <ele>445.13</ele>
        <time>2017-03-26T12:58:16Z</time>
      </trkpt>
      <trkpt lat="45.29788" lon="4.57356">
        <ele>445.13</ele>
        <time>2017-03-26T12:58:17Z</time>
      </trkpt>
      <trkpt lat="45.29788" lon="4.57356">
        <ele>445.13</ele>
        <time>2017-03-26T12:58:18Z</time>
      </trkpt>
      <trkpt lat="45.29788" lon="4.57356">
        <ele>445.13</ele>
        <time>2017-03-26T12:58:19Z</time>
      </trkpt>
      <trkpt lat="45.29788" lon="4.57356">
        <ele>445.13</ele>
        <time>2017-03-26T12:58:20Z</time>
      </trkpt>
      <trkpt lat="45.29788" lon="4.57356">
        <ele>445.13</ele>
        <time>2017-03-26T12:58:21Z</time>
      </trkpt>
      <trkpt lat="45.29788" lon="4.57356">
        <ele>445.13</ele>
        <time>2017-03-26T12:58:22Z</time>
      </trkpt>
      <trkpt lat="45.29788" lon="4.57356">
        <ele>445.13</ele>
        <time>2017-03-26T12:58:23Z</time>
      </trkpt>
      <trkpt lat="45.29788" lon="4.57356">
        <ele>445.13</ele>
        <time>2017-03-26T12:58:24Z</time>
      </trkpt>
      <trkpt lat="45.29788" lon="4.57356">
        <ele>445.13</ele>
        <time>2017-03-26T12:58:25Z</time>
      </trkpt>
      <trkpt lat="45.29788" lon="4.57356">
        <ele>445.13</ele>
        <time>2017-03-26T12:58:26Z</time>
      </trkpt>
      <trkpt lat="45.29788" lon="4.57356">
        <ele>445.13</ele>
        <time>2017-03-26T12:58:27Z</time>
      </trkpt>
      <trkpt lat="45.29788" lon="4.57356">
        <ele>445.13</ele>
        <time>2017-03-26T12:58:28Z</time>
      </trkpt>
      <trkpt lat="45.29788" lon="4.57356">
        <ele>445.13</ele>
        <time>2017-03-26T12:58:29Z</time>
      </trkpt>
      <trkpt lat="45.29788" lon="4.57356">
        <ele>445.13</ele>
        <time>2017-03-26T12:58:30Z</time>
      </trkpt>
      <trkpt lat="45.29788" lon="4.57356">
        <ele>445.13</ele>
        <time>2017-03-26T12:58:31Z</time>
      </trkpt>
      <trkpt lat="45.29788" lon="4.57356">
        <ele>445.13</ele>
        <time>2017-03-26T12:58:32Z</time>
      </trkpt>
      <trkpt lat="45.29788" lon="4.57356">
        <ele>445.13</ele>
        <time>2017-03-26T12:58:33Z</time>
      </trkpt>
      <trkpt lat="45.29788" lon="4.57356">
        <ele>445.13</ele>
        <time>2017-03-26T12:58:34Z</time>
      </trkpt>
      <trkpt lat="45.29788" lon="4.57356">
        <ele>445.13</ele>
        <time>2017-03-26T12:58:35Z</time>
      </trkpt>
      <trkpt lat="45.29788" lon="4.57356">
        <ele>445.13</ele>
        <time>2017-03-26T12:58:36Z</time>
      </trkpt>
      <trkpt lat="45.29788" lon="4.57356">
        <ele>445.13</ele>
        <time>2017-03-26T12:58:37Z</time>
      </trkpt>
      <trkpt lat="45.29788" lon="4.57356">
        <ele>445.13</ele>
        <time>2017-03-26T12:58:38Z</time>
      </trkpt>
      <trkpt lat="45.29788" lon="4.57356">
        <ele>445.13</ele>
        <time>2017-03-26T12:58:39Z</time>
      </trkpt>
      <trkpt lat="45.29788" lon="4.57356">
        <ele>445.13</ele>
        <time>2017-03-26T12:58:40Z</time>
      </trkpt>
      <trkpt lat="45.29788" lon="4.57356">
        <ele>445.13</ele>
        <time>2017-03-26T12:58:41Z</time>
      </trkpt>
      <trkpt lat="45.29788" lon="4.57356">
        <ele>445.13</ele>
        <time>2017-03-26T12:58:42Z</time>
      </trkpt>
      <trkpt lat="45.29788" lon="4.57356">
        <ele>445.13</ele>
        <time>2017-03-26T12:58:43Z</time>
      </trkpt>
      <trkpt lat="45.29788" lon="4.57356">
        <ele>445.13</ele>
        <time>2017-03-26T12:58:44Z</time>
      </trkpt>
      <trkpt lat="45.29788" lon="4.57356">
        <ele>445.13</ele>
        <time>2017-03-26T12:58:45Z</time>
      </trkpt>
      <trkpt lat="45.29788" lon="4.57356">
        <ele>445.13</ele>
        <time>2017-03-26T12:58:46Z</time>
      </trkpt>
      <trkpt lat="45.29788" lon="4.57356">
        <ele>445.13</ele>
        <time>2017-03-26T12:58:47Z</time>
      </trkpt>
      <trkpt lat="45.29788" lon="4.57356">
        <ele>445.13</ele>
        <time>2017-03-26T12:58:48Z</time>
      </trkpt>
      <trkpt lat="45.29788" lon="4.57356">
        <ele>445.13</ele>
        <time>2017-03-26T12:58:49Z</time>
      </trkpt>
      <trkpt lat="45.29788" lon="4.57356">
        <ele>445.13</ele>
        <time>2017-03-26T12:58:50Z</time>
      </trkpt>
      <trkpt lat="45.29788" lon="4.57356">
        <ele>445.13</ele>
        <time>2017-03-26T12:58:51Z</time>
      </trkpt>
      <trkpt lat="45.29788" lon="4.57356">
        <ele>445.13</ele>
        <time>2017-03-26T12:58:52Z</time>
      </trkpt>
      <trkpt lat="45.29788" lon="4.57356">
        <ele>445.13</ele>
        <time>2017-03-26T12:58:53Z</time>
      </trkpt>
      <trkpt lat="45.29788" lon="4.57356">
        <ele>445.13</ele>
        <time>2017-03-26T12:58:54Z</time>
      </trkpt>
      <trkpt lat="45.29788" lon="4.57356">
        <ele>445.13</ele>
        <time>2017-03-26T12:58:55Z</time>
      </trkpt>
      <trkpt lat="45.29788" lon="4.57356">
        <ele>445.13</ele>
        <time>2017-03-26T12:58:56Z</time>
      </trkpt>
      <trkpt lat="45.29788" lon="4.57356">
        <ele>445.13</ele>
        <time>2017-03-26T12:58:57Z</time>
      </trkpt>
      <trkpt lat="45.29788" lon="4.57356">
        <ele>445.13</ele>
        <time>2017-03-26T12:58:58Z</time>
      </trkpt>
      <trkpt lat="45.29788" lon="4.57356">
        <ele>445.13</ele>
        <time>2017-03-26T12:58:59Z</time>
      </trkpt>
      <trkpt lat="45.29788" lon="4.57356">
        <ele>445.13</ele>
        <time>2017-03-26T12:59:00Z</time>
      </trkpt>
      <trkpt lat="45.29788" lon="4.57356">
        <ele>445.13</ele>
        <time>2017-03-26T12:59:01Z</time>
      </trkpt>
      <trkpt lat="45.29788" lon="4.57356">
        <ele>445.13</ele>
        <time>2017-03-26T12:59:02Z</time>
      </trkpt>
      <trkpt lat="45.29788" lon="4.57356">
        <ele>445.13</ele>
        <time>2017-03-26T12:59:03Z</time>
      </trkpt>
      <trkpt lat="45.29788" lon="4.57356">
        <ele>445.13</ele>
        <time>2017-03-26T12:59:04Z</time>
      </trkpt>
      <trkpt lat="45.29788" lon="4.57356">
        <ele>445.13</ele>
        <time>2017-03-26T12:59:05Z</time>
      </trkpt>
      <trkpt lat="45.29788" lon="4.57356">
        <ele>445.13</ele>
        <time>2017-03-26T12:59:06Z</time>
      </trkpt>
      <trkpt lat="45.29788" lon="4.57356">
        <ele>445.13</ele>
        <time>2017-03-26T12:59:07Z</time>
      </trkpt>
      <trkpt lat="45.29788" lon="4.57356">
        <ele>445.13</ele>
        <time>2017-03-26T12:59:08Z</time>
      </trkpt>
      <trkpt lat="45.29788" lon="4.57356">
        <ele>445.13</ele>
        <time>2017-03-26T12:59:09Z</time>
      </trkpt>
      <trkpt lat="45.29788" lon="4.57356">
        <ele>445.13</ele>
        <time>2017-03-26T12:59:10Z</time>
      </trkpt>
      <trkpt lat="45.29788" lon="4.57356">
        <ele>445.13</ele>
        <time>2017-03-26T12:59:11Z</time>
      </trkpt>
      <trkpt lat="45.29788" lon="4.57356">
        <ele>445.13</ele>
        <time>2017-03-26T12:59:12Z</time>
      </trkpt>
      <trkpt lat="45.29788" lon="4.57356">
        <ele>445.13</ele>
        <time>2017-03-26T12:59:13Z</time>
      </trkpt>
      <trkpt lat="45.29788" lon="4.57356">
        <ele>445.13</ele>
        <time>2017-03-26T12:59:14Z</time>
      </trkpt>
      <trkpt lat="45.29788" lon="4.57356">
        <ele>445.13</ele>
        <time>2017-03-26T12:59:15Z</time>
      </trkpt>
      <trkpt lat="45.29788" lon="4.57356">
        <ele>445.13</ele>
        <time>2017-03-26T12:59:16Z</time>
      </trkpt>
      <trkpt lat="45.29788" lon="4.57356">
        <ele>445.13</ele>
        <time>2017-03-26T12:59:17Z</time>
      </trkpt>
      <trkpt lat="45.29788" lon="4.57356">
        <ele>445.13</ele>
        <time>2017-03-26T12:59:18Z</time>
      </trkpt>
      <trkpt lat="45.29788" lon="4.57356">
        <ele>445.13</ele>
        <time>2017-03-26T12:59:19Z</time>
      </trkpt>
      <trkpt lat="45.29788" lon="4.57356">
        <ele>445.13</ele>
        <time>2017-03-26T12:59:20Z</time>
      </trkpt>
      <trkpt lat="45.29788" lon="4.57356">
        <ele>445.13</ele>
        <time>2017-03-26T12:59:21Z</time>
      </trkpt>
      <trkpt lat="45.29788" lon="4.57356">
        <ele>445.13</ele>
        <time>2017-03-26T12:59:22Z</time>
      </trkpt>
      <trkpt lat="45.29788" lon="4.57356">
        <ele>445.13</ele>
        <time>2017-03-26T12:59:23Z</time>
      </trkpt>
      <trkpt lat="45.29788" lon="4.57356">
        <ele>445.13</ele>
        <time>2017-03-26T12:59:24Z</time>
      </trkpt>
      <trkpt lat="45.29788" lon="4.57356">
        <ele>445.13</ele>
        <time>2017-03-26T12:59:25Z</time>
      </trkpt>
      <trkpt lat="45.29788" lon="4.57356">
        <ele>445.13</ele>
        <time>2017-03-26T12:59:26Z</time>
      </trkpt>
      <trkpt lat="45.29788" lon="4.57356">
        <ele>445.13</ele>
        <time>2017-03-26T12:59:27Z</time>
      </trkpt>
      <trkpt lat="45.29788" lon="4.57356">
        <ele>445.13</ele>
        <time>2017-03-26T12:59:28Z</time>
      </trkpt>
      <trkpt lat="45.29788" lon="4.57356">
        <ele>445.13</ele>
        <time>2017-03-26T12:59:29Z</time>
      </trkpt>
      <trkpt lat="45.29788" lon="4.57356">
        <ele>445.13</ele>
        <time>2017-03-26T12:59:30Z</time>
      </trkpt>
      <trkpt lat="45.29788" lon="4.57356">
        <ele>445.13</ele>
        <time>2017-03-26T12:59:31Z</time>
      </trkpt>
      <trkpt lat="45.29788" lon="4.57356">
        <ele>445.13</ele>
        <time>2017-03-26T12:59:32Z</time>
      </trkpt>
      <trkpt lat="45.29788" lon="4.57356">
        <ele>445.13</ele>
        <time>2017-03-26T12:59:33Z</time>
      </trkpt>
      <trkpt lat="45.29788" lon="4.57356">
        <ele>445.13</ele>
        <time>2017-03-26T12:59:34Z</time>
      </trkpt>
      <trkpt lat="45.29788" lon="4.57356">
        <ele>445.13</ele>
        <time>2017-03-26T12:59:35Z</time>
      </trkpt>
      <trkpt lat="45.29788" lon="4.57356">
        <ele>445.13</ele>
        <time>2017-03-26T12:59:36Z</time>
      </trkpt>
      <trkpt lat="45.29788" lon="4.57356">
        <ele>445.13</ele>
        <time>2017-03-26T12:59:37Z</time>
      </trkpt>
      <trkpt lat="45.29788" lon="4.57356">
        <ele>445.13</ele>
        <time>2017-03-26T12:59:38Z</time>
      </trkpt>
      <trkpt lat="45.29788" lon="4.57356">
        <ele>445.13</ele>
        <time>2017-03-26T12:59:39Z</time>
      </trkpt>
      <trkpt lat="45.29788" lon="4.57356">
        <ele>445.13</ele>
        <time>2017-03-26T12:59:40Z</time>
      </trkpt>
      <trkpt lat="45.29788" lon="4.57356">
        <ele>445.13</ele>
        <time>2017-03-26T12:59:41Z</time>
      </trkpt>
      <trkpt lat="45.29788" lon="4.57356">
        <ele>445.13</ele>
        <time>2017-03-26T12:59:42Z</time>
      </trkpt>
      <trkpt lat="45.29788" lon="4.57356">
        <ele>445.13</ele>
        <time>2017-03-26T12:59:43Z</time>
      </trkpt>
      <trkpt lat="45.29788" lon="4.57356">
        <ele>445.13</ele>
        <time>2017-03-26T12:59:44Z</time>
      </trkpt>
      <trkpt lat="45.29788" lon="4.57356">
        <ele>445.13</ele>
        <time>2017-03-26T12:59:45Z</time>
      </trkpt>
      <trkpt lat="45.29788" lon="4.57356">
        <ele>445.13</ele>
        <time>2017-03-26T12:59:46Z</time>
      </trkpt>
      <trkpt lat="45.29788" lon="4.57356">
        <ele>445.13</ele>
        <time>2017-03-26T12:59:47Z</time>
      </trkpt>
      <trkpt lat="45.29788" lon="4.57356">
        <ele>445.13</ele>
        <time>2017-03-26T12:59:48Z</time>
      </trkpt>
      <trkpt lat="45.29788" lon="4.57356">
        <ele>445.13</ele>
        <time>2017-03-26T12:59:49Z</time>
      </trkpt>
      <trkpt lat="45.29788" lon="4.57356">
        <ele>445.13</ele>
        <time>2017-03-26T12:59:50Z</time>
      </trkpt>
      <trkpt lat="45.29788" lon="4.57356">
        <ele>445.13</ele>
        <time>2017-03-26T12:59:51Z</time>
      </trkpt>
      <trkpt lat="45.29788" lon="4.57356">
        <ele>445.13</ele>
        <time>2017-03-26T12:59:52Z</time>
      </trkpt>
      <trkpt lat="45.29788" lon="4.57356">
        <ele>445.13</ele>
        <time>2017-03-26T12:59:53Z</time>
      </trkpt>
      <trkpt lat="45.29788" lon="4.57356">
        <ele>445.13</ele>
        <time>2017-03-26T12:59:54Z</time>
      </trkpt>
      <trkpt lat="45.29788" lon="4.57356">
        <ele>445.13</ele>
        <time>2017-03-26T12:59:55Z</time>
      </trkpt>
      <trkpt lat="45.29788" lon="4.57356">
        <ele>445.13</ele>
        <time>2017-03-26T12:59:56Z</time>
      </trkpt>
      <trkpt lat="45.29788" lon="4.57356">
        <ele>445.13</ele>
        <time>2017-03-26T12:59:57Z</time>
      </trkpt>
      <trkpt lat="45.29788" lon="4.57356">
        <ele>445.13</ele>
        <time>2017-03-26T12:59:58Z</time>
      </trkpt>
      <trkpt lat="45.29788" lon="4.57356">
        <ele>445.13</ele>
        <time>2017-03-26T12:59:59Z</time>
      </trkpt>
      <trkpt lat="45.29788" lon="4.57356">
        <ele>445.13</ele>
        <time>2017-03-26T13:00:00Z</time>
      </trkpt>
      <trkpt lat="45.29788" lon="4.57356">
        <ele>445.13</ele>
        <time>2017-03-26T13:00:01Z</time>
      </trkpt>
      <trkpt lat="45.29788" lon="4.57356">
        <ele>445.13</ele>
        <time>2017-03-26T13:00:02Z</time>
      </trkpt>
      <trkpt lat="45.29788" lon="4.57356">
        <ele>445.13</ele>
        <time>2017-03-26T13:00:03Z</time>
      </trkpt>
      <trkpt lat="45.29788" lon="4.57356">
        <ele>445.13</ele>
        <time>2017-03-26T13:00:04Z</time>
      </trkpt>
      <trkpt lat="45.29788" lon="4.57356">
        <ele>445.13</ele>
        <time>2017-03-26T13:00:05Z</time>
      </trkpt>
      <trkpt lat="45.29788" lon="4.57356">
        <ele>445.13</ele>
        <time>2017-03-26T13:00:06Z</time>
      </trkpt>
      <trkpt lat="45.29788" lon="4.57356">
        <ele>445.13</ele>
        <time>2017-03-26T13:00:07Z</time>
      </trkpt>
      <trkpt lat="45.29788" lon="4.57356">
        <ele>445.13</ele>
        <time>2017-03-26T13:00:08Z</time>
      </trkpt>
      <trkpt lat="45.29788" lon="4.57356">
        <ele>445.13</ele>
        <time>2017-03-26T13:00:09Z</time>
      </trkpt>
      <trkpt lat="45.29788" lon="4.57356">
        <ele>445.13</ele>
        <time>2017-03-26T13:00:10Z</time>
      </trkpt>
      <trkpt lat="45.29788" lon="4.57356">
        <ele>445.13</ele>
        <time>2017-03-26T13:00:11Z</time>
      </trkpt>
      <trkpt lat="45.29788" lon="4.57356">
        <ele>445.13</ele>
        <time>2017-03-26T13:00:12Z</time>
      </trkpt>
      <trkpt lat="45.29788" lon="4.57356">
        <ele>445.13</ele>
        <time>2017-03-26T13:00:13Z</time>
      </trkpt>
      <trkpt lat="45.29788" lon="4.57356">
        <ele>445.13</ele>
        <time>2017-03-26T13:00:14Z</time>
      </trkpt>
      <trkpt lat="45.29788" lon="4.57356">
        <ele>445.13</ele>
        <time>2017-03-26T13:00:15Z</time>
      </trkpt>
      <trkpt lat="45.29788" lon="4.57356">
        <ele>445.13</ele>
        <time>2017-03-26T13:00:16Z</time>
      </trkpt>
      <trkpt lat="45.29788" lon="4.57356">
        <ele>445.13</ele>
        <time>2017-03-26T13:00:17Z</time>
      </trkpt>
      <trkpt lat="45.29788" lon="4.57356">
        <ele>445.13</ele>
        <time>2017-03-26T13:00:18Z</time>
      </trkpt>
      <trkpt lat="45.29788" lon="4.57356">
        <ele>445.13</ele>
        <time>2017-03-26T13:00:19Z</time>
      </trkpt>
      <trkpt lat="45.29788" lon="4.57356">
        <ele>445.13</ele>
        <time>2017-03-26T13:00:20Z</time>
      </trkpt>
      <trkpt lat="45.29788" lon="4.57356">
        <ele>445.13</ele>
        <time>2017-03-26T13:00:21Z</time>
      </trkpt>
      <trkpt lat="45.29788" lon="4.57356">
        <ele>445.13</ele>
        <time>2017-03-26T13:00:22Z</time>
      </trkpt>
      <trkpt lat="45.29788" lon="4.57356">
        <ele>445.13</ele>
        <time>2017-03-26T13:00:23Z</time>
      </trkpt>
      <trkpt lat="45.29788" lon="4.57356">
        <ele>445.13</ele>
        <time>2017-03-26T13:00:24Z</time>
      </trkpt>
      <trkpt lat="45.29788" lon="4.57356">
        <ele>445.13</ele>
        <time>2017-03-26T13:00:25Z</time>
      </trkpt>
      <trkpt lat="45.29788" lon="4.57356">
        <ele>445.13</ele>
        <time>2017-03-26T13:00:26Z</time>
      </trkpt>
      <trkpt lat="45.29788" lon="4.57356">
        <ele>445.13</ele>
        <time>2017-03-26T13:00:27Z</time>
      </trkpt>
      <trkpt lat="45.29788" lon="4.57356">
        <ele>445.13</ele>
        <time>2017-03-26T13:00:28Z</time>
      </trkpt>
      <trkpt lat="45.29788" lon="4.57356">
        <ele>445.13</ele>
        <time>2017-03-26T13:00:29Z</time>
      </trkpt>
      <trkpt lat="45.29788" lon="4.57356">
        <ele>445.13</ele>
        <time>2017-03-26T13:00:30Z</time>
      </trkpt>
      <trkpt lat="45.29788" lon="4.57356">
        <ele>445.13</ele>
        <time>2017-03-26T13:00:31Z</time>
      </trkpt>
      <trkpt lat="45.29788" lon="4.57356">
        <ele>445.13</ele>
        <time>2017-03-26T13:00:32Z</time>
      </trkpt>
      <trkpt lat="45.29788" lon="4.57356">
        <ele>445.13</ele>
        <time>2017-03-26T13:00:33Z</time>
      </trkpt>
      <trkpt lat="45.29788" lon="4.57356">
        <ele>445.13</ele>
        <time>2017-03-26T13:00:34Z</time>
      </trkpt>
      <trkpt lat="45.29788" lon="4.57356">
        <ele>445.13</ele>
        <time>2017-03-26T13:00:35Z</time>
      </trkpt>
      <trkpt lat="45.29788" lon="4.57356">
        <ele>445.13</ele>
        <time>2017-03-26T13:00:36Z</time>
      </trkpt>
      <trkpt lat="45.29788" lon="4.57356">
        <ele>445.13</ele>
        <time>2017-03-26T13:00:37Z</time>
      </trkpt>
      <trkpt lat="45.29788" lon="4.57356">
        <ele>445.13</ele>
        <time>2017-03-26T13:00:38Z</time>
      </trkpt>
      <trkpt lat="45.29788" lon="4.57356">
        <ele>445.13</ele>
        <time>2017-03-26T13:00:39Z</time>
      </trkpt>
      <trkpt lat="45.29788" lon="4.57356">
        <ele>445.13</ele>
        <time>2017-03-26T13:00:40Z</time>
      </trkpt>
      <trkpt lat="45.29788" lon="4.57356">
        <ele>445.13</ele>
        <time>2017-03-26T13:00:41Z</time>
      </trkpt>
      <trkpt lat="45.29788" lon="4.57356">
        <ele>445.13</ele>
        <time>2017-03-26T13:00:42Z</time>
      </trkpt>
      <trkpt lat="45.29788" lon="4.57356">
        <ele>445.13</ele>
        <time>2017-03-26T13:00:43Z</time>
      </trkpt>
      <trkpt lat="45.29788" lon="4.57356">
        <ele>445.13</ele>
        <time>2017-03-26T13:00:44Z</time>
      </trkpt>
      <trkpt lat="45.29788" lon="4.57356">
        <ele>445.13</ele>
        <time>2017-03-26T13:00:45Z</time>
      </trkpt>
      <trkpt lat="45.29788" lon="4.57356">
        <ele>445.13</ele>
        <time>2017-03-26T13:00:46Z</time>
      </trkpt>
      <trkpt lat="45.29788" lon="4.57356">
        <ele>445.13</ele>
        <time>2017-03-26T13:00:47Z</time>
      </trkpt>
      <trkpt lat="45.29788" lon="4.57356">
        <ele>445.13</ele>
        <time>2017-03-26T13:00:48Z</time>
      </trkpt>
      <trkpt lat="45.29788" lon="4.57356">
        <ele>445.13</ele>
        <time>2017-03-26T13:00:49Z</time>
      </trkpt>
      <trkpt lat="45.29788" lon="4.57356">
        <ele>445.13</ele>
        <time>2017-03-26T13:00:50Z</time>
      </trkpt>
      <trkpt lat="45.29788" lon="4.57356">
        <ele>445.13</ele>
        <time>2017-03-26T13:00:51Z</time>
      </trkpt>
      <trkpt lat="45.29788" lon="4.57356">
        <ele>445.13</ele>
        <time>2017-03-26T13:00:52Z</time>
      </trkpt>
      <trkpt lat="45.29788" lon="4.57356">
        <ele>445.13</ele>
        <time>2017-03-26T13:00:53Z</time>
      </trkpt>
      <trkpt lat="45.29788" lon="4.57356">
        <ele>445.13</ele>
        <time>2017-03-26T13:00:54Z</time>
      </trkpt>
      <trkpt lat="45.29788" lon="4.57356">
        <ele>445.13</ele>
        <time>2017-03-26T13:00:55Z</time>
      </trkpt>
      <trkpt lat="45.29788" lon="4.57356">
        <ele>445.13</ele>
        <time>2017-03-26T13:00:56Z</time>
      </trkpt>
      <trkpt lat="45.29788" lon="4.57356">
        <ele>445.13</ele>
        <time>2017-03-26T13:00:57Z</time>
      </trkpt>
      <trkpt lat="45.29788" lon="4.57356">
        <ele>445.13</ele>
        <time>2017-03-26T13:00:58Z</time>
      </trkpt>
      <trkpt lat="45.29788" lon="4.57356">
        <ele>445.13</ele>
        <time>2017-03-26T13:00:59Z</time>
      </trkpt>
      <trkpt lat="45.29788" lon="4.57356">
        <ele>445.13</ele>
        <time>2017-03-26T13:01:00Z</time>
      </trkpt>
      <trkpt lat="45.29788" lon="4.57356">
        <ele>445.13</ele>
        <time>2017-03-26T13:01:01Z</time>
      </trkpt>
      <trkpt lat="45.29788" lon="4.57356">
        <ele>445.13</ele>
        <time>2017-03-26T13:01:02Z</time>
      </trkpt>
      <trkpt lat="45.29788" lon="4.57356">
        <ele>445.13</ele>
        <time>2017-03-26T13:01:03Z</time>
      </trkpt>
      <trkpt lat="45.29788" lon="4.57356">
        <ele>445.13</ele>
        <time>2017-03-26T13:01:04Z</time>
      </trkpt>
      <trkpt lat="45.29788" lon="4.57356">
        <ele>445.13</ele>
        <time>2017-03-26T13:01:05Z</time>
      </trkpt>
      <trkpt lat="45.29788" lon="4.57356">
        <ele>445.13</ele>
        <time>2017-03-26T13:01:06Z</time>
      </trkpt>
      <trkpt lat="45.29788" lon="4.57356">
        <ele>445.13</ele>
        <time>2017-03-26T13:01:07Z</time>
      </trkpt>
      <trkpt lat="45.29788" lon="4.57356">
        <ele>445.13</ele>
        <time>2017-03-26T13:01:08Z</time>
      </trkpt>
      <trkpt lat="45.29788" lon="4.57356">
        <ele>445.13</ele>
        <time>2017-03-26T13:01:09Z</time>
      </trkpt>
      <trkpt lat="45.29788" lon="4.57356">
        <ele>445.13</ele>
        <time>2017-03-26T13:01:10Z</time>
      </trkpt>
      <trkpt lat="45.29788" lon="4.57356">
        <ele>445.13</ele>
        <time>2017-03-26T13:01:11Z</time>
      </trkpt>
      <trkpt lat="45.29788" lon="4.57356">
        <ele>445.13</ele>
        <time>2017-03-26T13:01:12Z</time>
      </trkpt>
      <trkpt lat="45.29788" lon="4.57356">
        <ele>445.13</ele>
        <time>2017-03-26T13:01:13Z</time>
      </trkpt>
      <trkpt lat="45.29788" lon="4.57356">
        <ele>445.13</ele>
        <time>2017-03-26T13:01:14Z</time>
      </trkpt>
      <trkpt lat="45.29788" lon="4.57356">
        <ele>445.13</ele>
        <time>2017-03-26T13:01:15Z</time>
      </trkpt>
      <trkpt lat="45.29788" lon="4.57356">
        <ele>445.13</ele>
        <time>2017-03-26T13:01:16Z</time>
      </trkpt>
      <trkpt lat="45.29788" lon="4.57356">
        <ele>445.13</ele>
        <time>2017-03-26T13:01:17Z</time>
      </trkpt>
      <trkpt lat="45.29788" lon="4.57356">
        <ele>445.13</ele>
        <time>2017-03-26T13:01:18Z</time>
      </trkpt>
      <trkpt lat="45.29788" lon="4.57356">
        <ele>445.13</ele>
        <time>2017-03-26T13:01:19Z</time>
      </trkpt>
      <trkpt lat="45.29788" lon="4.57356">
        <ele>445.13</ele>
        <time>2017-03-26T13:01:20Z</time>
      </trkpt>
      <trkpt lat="45.29788" lon="4.57356">
        <ele>445.13</ele>
        <time>2017-03-26T13:01:21Z</time>
      </trkpt>
      <trkpt lat="45.29788" lon="4.57356">
        <ele>445.13</ele>
        <time>2017-03-26T13:01:22Z</time>
      </trkpt>
      <trkpt lat="45.29788" lon="4.57356">
        <ele>445.13</ele>
        <time>2017-03-26T13:01:23Z</time>
      </trkpt>
      <trkpt lat="45.29788" lon="4.57356">
        <ele>445.13</ele>
        <time>2017-03-26T13:01:24Z</time>
      </trkpt>
      <trkpt lat="45.29788" lon="4.57356">
        <ele>445.13</ele>
        <time>2017-03-26T13:01:25Z</time>
      </trkpt>
      <trkpt lat="45.29788" lon="4.57356">
        <ele>445.13</ele>
        <time>2017-03-26T13:01:26Z</time>
      </trkpt>
      <trkpt lat="45.29788" lon="4.57356">
        <ele>445.13</ele>
        <time>2017-03-26T13:01:27Z</time>
      </trkpt>
      <trkpt lat="45.29788" lon="4.57356">
        <ele>445.13</ele>
        <time>2017-03-26T13:01:28Z</time>
      </trkpt>
      <trkpt lat="45.29788" lon="4.57356">
        <ele>445.13</ele>
        <time>2017-03-26T13:01:29Z</time>
      </trkpt>
      <trkpt lat="45.29788" lon="4.57356">
        <ele>445.13</ele>
        <time>2017-03-26T13:01:30Z</time>
      </trkpt>
      <trkpt lat="45.29788" lon="4.57356">
        <ele>445.13</ele>
        <time>2017-03-26T13:01:31Z</time>
      </trkpt>
      <trkpt lat="45.29788" lon="4.57356">
        <ele>445.13</ele>
        <time>2017-03-26T13:01:32Z</time>
      </trkpt>
      <trkpt lat="45.29788" lon="4.57356">
        <ele>445.13</ele>
        <time>2017-03-26T13:01:33Z</time>
      </trkpt>
      <trkpt lat="45.29788" lon="4.57356">
        <ele>445.13</ele>
        <time>2017-03-26T13:01:34Z</time>
      </trkpt>
      <trkpt lat="45.29788" lon="4.57356">
        <ele>445.13</ele>
        <time>2017-03-26T13:01:35Z</time>
      </trkpt>
      <trkpt lat="45.29788" lon="4.57356">
        <ele>445.13</ele>
        <time>2017-03-26T13:01:36Z</time>
      </trkpt>
      <trkpt lat="45.29788" lon="4.57356">
        <ele>445.13</ele>
        <time>2017-03-26T13:01:37Z</time>
      </trkpt>
      <trkpt lat="45.29788" lon="4.57356">
        <ele>445.13</ele>
        <time>2017-03-26T13:01:38Z</time>
      </trkpt>
      <trkpt lat="45.29788" lon="4.57356">
        <ele>445.13</ele>
        <time>2017-03-26T13:01:39Z</time>
      </trkpt>
      <trkpt lat="45.29788" lon="4.57356">
        <ele>445.13</ele>
        <time>2017-03-26T13:01:40Z</time>
      </trkpt>
      <trkpt lat="45.29788" lon="4.57356">
        <ele>445.13</ele>
        <time>2017-03-26T13:01:41Z</time>
      </trkpt>
      <trkpt lat="45.29788" lon="4.57356">
        <ele>445.13</ele>
        <time>2017-03-26T13:01:42Z</time>
      </trkpt>
      <trkpt lat="45.29788" lon="4.57356">
        <ele>445.13</ele>
        <time>2017-03-26T13:01:43Z</time>
      </trkpt>
      <trkpt lat="45.29788" lon="4.57356">
        <ele>445.13</ele>
        <time>2017-03-26T13:01:44Z</time>
      </trkpt>
      <trkpt lat="45.29788" lon="4.57356">
        <ele>445.13</ele>
        <time>2017-03-26T13:01:45Z</time>
      </trkpt>
      <trkpt lat="45.29788" lon="4.57356">
        <ele>445.13</ele>
        <time>2017-03-26T13:01:46Z</time>
      </trkpt>
      <trkpt lat="45.29788" lon="4.57356">
        <ele>445.13</ele>
        <time>2017-03-26T13:01:47Z</time>
      </trkpt>
      <trkpt lat="45.29788" lon="4.57356">
        <ele>445.13</ele>
        <time>2017-03-26T13:01:48Z</time>
      </trkpt>
      <trkpt lat="45.29788" lon="4.57356">
        <ele>445.13</ele>
        <time>2017-03-26T13:01:49Z</time>
      </trkpt>
      <trkpt lat="45.29788" lon="4.57356">
        <ele>445.13</ele>
        <time>2017-03-26T13:01:50Z</time>
      </trkpt>
      <trkpt lat="45.29788" lon="4.57356">
        <ele>445.13</ele>
        <time>2017-03-26T13:01:51Z</time>
      </trkpt>
      <trkpt lat="45.29788" lon="4.57356">
        <ele>445.13</ele>
        <time>2017-03-26T13:01:52Z</time>
      </trkpt>
      <trkpt lat="45.29788" lon="4.57356">
        <ele>445.13</ele>
        <time>2017-03-26T13:01:53Z</time>
      </trkpt>
      <trkpt lat="45.29788" lon="4.57356">
        <ele>445.13</ele>
        <time>2017-03-26T13:01:54Z</time>
      </trkpt>
      <trkpt lat="45.29788" lon="4.57356">
        <ele>445.13</ele>
        <time>2017-03-26T13:01:55Z</time>
      </trkpt>
      <trkpt lat="45.29788" lon="4.57356">
        <ele>445.13</ele>
        <time>2017-03-26T13:01:56Z</time>
      </trkpt>
      <trkpt lat="45.29788" lon="4.57356">
        <ele>445.13</ele>
        <time>2017-03-26T13:01:57Z</time>
      </trkpt>
      <trkpt lat="45.29788" lon="4.57356">
        <ele>445.13</ele>
        <time>2017-03-26T13:01:58Z</time>
      </trkpt>
      <trkpt lat="45.29788" lon="4.57356">
        <ele>445.13</ele>
        <time>2017-03-26T13:01:59Z</time>
      </trkpt>
      <trkpt lat="45.29788" lon="4.57356">
        <ele>445.13</ele>
        <time>2017-03-26T13:02:00Z</time>
      </trkpt>
      <trkpt lat="45.29788" lon="4.57356">
        <ele>445.13</ele>
        <time>2017-03-26T13:02:01Z</time>
      </trkpt>
      <trkpt lat="45.29788" lon="4.57356">
        <ele>445.13</ele>
        <time>2017-03-26T13:02:02Z</time>
      </trkpt>
      <trkpt lat="45.29788" lon="4.57356">
        <ele>445.13</ele>
        <time>2017-03-26T13:02:03Z</time>
      </trkpt>
      <trkpt lat="45.29788" lon="4.57356">
        <ele>445.13</ele>
        <time>2017-03-26T13:02:04Z</time>
      </trkpt>
      <trkpt lat="45.29788" lon="4.57356">
        <ele>445.13</ele>
        <time>2017-03-26T13:02:05Z</time>
      </trkpt>
      <trkpt lat="45.29788" lon="4.57356">
        <ele>445.13</ele>
        <time>2017-03-26T13:02:06Z</time>
      </trkpt>
      <trkpt lat="45.29788" lon="4.57356">
        <ele>445.13</ele>
        <time>2017-03-26T13:02:07Z</time>
      </trkpt>
      <trkpt lat="45.29788" lon="4.57356">
        <ele>445.13</ele>
        <time>2017-03-26T13:02:08Z</time>
      </trkpt>
      <trkpt lat="45.29788" lon="4.57356">
        <ele>445.13</ele>
        <time>2017-03-26T13:02:09Z</time>
      </trkpt>
      <trkpt lat="45.29788" lon="4.57356">
        <ele>445.13</ele>
        <time>2017-03-26T13:02:10Z</time>
      </trkpt>
      <trkpt lat="45.29788" lon="4.57356">
        <ele>445.13</ele>
        <time>2017-03-26T13:02:11Z</time>
      </trkpt>
      <trkpt lat="45.29788" lon="4.57356">
        <ele>445.13</ele>
        <time>2017-03-26T13:02:12Z</time>
      </trkpt>
      <trkpt lat="45.29788" lon="4.57356">
        <ele>445.13</ele>
        <time>2017-03-26T13:02:13Z</time>
      </trkpt>
      <trkpt lat="45.29788" lon="4.57356">
        <ele>445.13</ele>
        <time>2017-03-26T13:02:14Z</time>
      </trkpt>
      <trkpt lat="45.29788" lon="4.57356">
        <ele>445.13</ele>
        <time>2017-03-26T13:02:15Z</time>
      </trkpt>
      <trkpt lat="45.29788" lon="4.57356">
        <ele>445.13</ele>
        <time>2017-03-26T13:02:16Z</time>
      </trkpt>
      <trkpt lat="45.29788" lon="4.57356">
        <ele>445.13</ele>
        <time>2017-03-26T13:02:17Z</time>
      </trkpt>
      <trkpt lat="45.29788" lon="4.57356">
        <ele>445.13</ele>
        <time>2017-03-26T13:02:18Z</time>
      </trkpt>
      <trkpt lat="45.29788" lon="4.57356">
        <ele>445.13</ele>
        <time>2017-03-26T13:02:19Z</time>
      </trkpt>
      <trkpt lat="45.29788" lon="4.57356">
        <ele>445.13</ele>
        <time>2017-03-26T13:02:20Z</time>
      </trkpt>
      <trkpt lat="45.29788" lon="4.57356">
        <ele>445.13</ele>
        <time>2017-03-26T13:02:21Z</time>
      </trkpt>
      <trkpt lat="45.29788" lon="4.57356">
        <ele>445.13</ele>
        <time>2017-03-26T13:02:22Z</time>
      </trkpt>
      <trkpt lat="45.29788" lon="4.57356">
        <ele>445.13</ele>
        <time>2017-03-26T13:02:23Z</time>
      </trkpt>
      <trkpt lat="45.29788" lon="4.57356">
        <ele>445.13</ele>
        <time>2017-03-26T13:02:24Z</time>
      </trkpt>
      <trkpt lat="45.29788" lon="4.57356">
        <ele>445.13</ele>
        <time>2017-03-26T13:02:25Z</time>
      </trkpt>
      <trkpt lat="45.29788" lon="4.57356">
        <ele>445.13</ele>
        <time>2017-03-26T13:02:26Z</time>
      </trkpt>
      <trkpt lat="45.29788" lon="4.57356">
        <ele>445.13</ele>
        <time>2017-03-26T13:02:27Z</time>
      </trkpt>
      <trkpt lat="45.29788" lon="4.57356">
        <ele>445.13</ele>
        <time>2017-03-26T13:02:28Z</time>
      </trkpt>
      <trkpt lat="45.29788" lon="4.57356">
        <ele>445.13</ele>
        <time>2017-03-26T13:02:29Z</time>
      </trkpt>
      <trkpt lat="45.29788" lon="4.57356">
        <ele>445.13</ele>
        <time>2017-03-26T13:02:30Z</time>
      </trkpt>
      <trkpt lat="45.29788" lon="4.57356">
        <ele>445.13</ele>
        <time>2017-03-26T13:02:31Z</time>
      </trkpt>
      <trkpt lat="45.29788" lon="4.57356">
        <ele>445.13</ele>
        <time>2017-03-26T13:02:32Z</time>
      </trkpt>
      <trkpt lat="45.29788" lon="4.57356">
        <ele>445.13</ele>
        <time>2017-03-26T13:02:33Z</time>
      </trkpt>
      <trkpt lat="45.29788" lon="4.57356">
        <ele>445.13</ele>
        <time>2017-03-26T13:02:34Z</time>
      </trkpt>
      <trkpt lat="45.29788" lon="4.57356">
        <ele>445.13</ele>
        <time>2017-03-26T13:02:35Z</time>
      </trkpt>
      <trkpt lat="45.29788" lon="4.57356">
        <ele>445.13</ele>
        <time>2017-03-26T13:02:36Z</time>
      </trkpt>
      <trkpt lat="45.29788" lon="4.57356">
        <ele>445.13</ele>
        <time>2017-03-26T13:02:37Z</time>
      </trkpt>
      <trkpt lat="45.29788" lon="4.57356">
        <ele>445.13</ele>
        <time>2017-03-26T13:02:38Z</time>
      </trkpt>
      <trkpt lat="45.29788" lon="4.57356">
        <ele>445.13</ele>
        <time>2017-03-26T13:02:39Z</time>
      </trkpt>
      <trkpt lat="45.29788" lon="4.57356">
        <ele>445.13</ele>
        <time>2017-03-26T13:02:40Z</time>
      </trkpt>
      <trkpt lat="45.29788" lon="4.57356">
        <ele>445.13</ele>
        <time>2017-03-26T13:02:41Z</time>
      </trkpt>
      <trkpt lat="45.29788" lon="4.57356">
        <ele>445.13</ele>
        <time>2017-03-26T13:02:42Z</time>
      </trkpt>
      <trkpt lat="45.29788" lon="4.57356">
        <ele>445.13</ele>
        <time>2017-03-26T13:02:43Z</time>
      </trkpt>
      <trkpt lat="45.29788" lon="4.57356">
        <ele>445.13</ele>
        <time>2017-03-26T13:02:44Z</time>
      </trkpt>
      <trkpt lat="45.29788" lon="4.57356">
        <ele>445.13</ele>
        <time>2017-03-26T13:02:45Z</time>
      </trkpt>
      <trkpt lat="45.29788" lon="4.57356">
        <ele>445.13</ele>
        <time>2017-03-26T13:02:46Z</time>
      </trkpt>
      <trkpt lat="45.29788" lon="4.57356">
        <ele>445.13</ele>
        <time>2017-03-26T13:02:47Z</time>
      </trkpt>
      <trkpt lat="45.29788" lon="4.57356">
        <ele>445.13</ele>
        <time>2017-03-26T13:02:48Z</time>
      </trkpt>
      <trkpt lat="45.29788" lon="4.57356">
        <ele>445.13</ele>
        <time>2017-03-26T13:02:49Z</time>
      </trkpt>
      <trkpt lat="45.29788" lon="4.57356">
        <ele>445.13</ele>
        <time>2017-03-26T13:02:50Z</time>
      </trkpt>
      <trkpt lat="45.29788" lon="4.57356">
        <ele>445.13</ele>
        <time>2017-03-26T13:02:51Z</time>
      </trkpt>
      <trkpt lat="45.29788" lon="4.57356">
        <ele>445.13</ele>
        <time>2017-03-26T13:02:52Z</time>
      </trkpt>
      <trkpt lat="45.29788" lon="4.57356">
        <ele>445.13</ele>
        <time>2017-03-26T13:02:53Z</time>
      </trkpt>
      <trkpt lat="45.29788" lon="4.57356">
        <ele>445.13</ele>
        <time>2017-03-26T13:02:54Z</time>
      </trkpt>
      <trkpt lat="45.29788" lon="4.57356">
        <ele>445.13</ele>
        <time>2017-03-26T13:02:55Z</time>
      </trkpt>
      <trkpt lat="45.29788" lon="4.57356">
        <ele>445.13</ele>
        <time>2017-03-26T13:02:56Z</time>
      </trkpt>
      <trkpt lat="45.29788" lon="4.57356">
        <ele>445.13</ele>
        <time>2017-03-26T13:02:57Z</time>
      </trkpt>
      <trkpt lat="45.29788" lon="4.57356">
        <ele>445.13</ele>
        <time>2017-03-26T13:02:58Z</time>
      </trkpt>
      <trkpt lat="45.29788" lon="4.57356">
        <ele>445.13</ele>
        <time>2017-03-26T13:02:59Z</time>
      </trkpt>
      <trkpt lat="45.29788" lon="4.57356">
        <ele>445.13</ele>
        <time>2017-03-26T13:03:00Z</time>
      </trkpt>
      <trkpt lat="45.29788" lon="4.57356">
        <ele>445.13</ele>
        <time>2017-03-26T13:03:01Z</time>
      </trkpt>
      <trkpt lat="45.29788" lon="4.57356">
        <ele>445.13</ele>
        <time>2017-03-26T13:03:02Z</time>
      </trkpt>
      <trkpt lat="45.29788" lon="4.57356">
        <ele>445.13</ele>
        <time>2017-03-26T13:03:03Z</time>
      </trkpt>
      <trkpt lat="45.29788" lon="4.57356">
        <ele>445.13</ele>
        <time>2017-03-26T13:03:04Z</time>
      </trkpt>
      <trkpt lat="45.29788" lon="4.57356">
        <ele>445.13</ele>
        <time>2017-03-26T13:03:05Z</time>
      </trkpt>
      <trkpt lat="45.29788" lon="4.57356">
        <ele>445.13</ele>
        <time>2017-03-26T13:03:06Z</time>
      </trkpt>
      <trkpt lat="45.29788" lon="4.57356">
        <ele>445.13</ele>
        <time>2017-03-26T13:03:07Z</time>
      </trkpt>
      <trkpt lat="45.29788" lon="4.57356">
        <ele>445.13</ele>
        <time>2017-03-26T13:03:08Z</time>
      </trkpt>
      <trkpt lat="45.29788" lon="4.57356">
        <ele>445.13</ele>
        <time>2017-03-26T13:03:09Z</time>
      </trkpt>
      <trkpt lat="45.29788" lon="4.57356">
        <ele>445.13</ele>
        <time>2017-03-26T13:03:10Z</time>
      </trkpt>
      <trkpt lat="45.29788" lon="4.57356">
        <ele>445.13</ele>
        <time>2017-03-26T13:03:11Z</time>
      </trkpt>
      <trkpt lat="45.29788" lon="4.57356">
        <ele>445.13</ele>
        <time>2017-03-26T13:03:12Z</time>
      </trkpt>
      <trkpt lat="45.29788" lon="4.57356">
        <ele>445.13</ele>
        <time>2017-03-26T13:03:13Z</time>
      </trkpt>
      <trkpt lat="45.29788" lon="4.57356">
        <ele>445.13</ele>
        <time>2017-03-26T13:03:14Z</time>
      </trkpt>
      <trkpt lat="45.29788" lon="4.57356">
        <ele>445.13</ele>
        <time>2017-03-26T13:03:15Z</time>
      </trkpt>
      <trkpt lat="45.29788" lon="4.57356">
        <ele>445.13</ele>
        <time>2017-03-26T13:03:16Z</time>
      </trkpt>
      <trkpt lat="45.29788" lon="4.57356">
        <ele>445.13</ele>
        <time>2017-03-26T13:03:17Z</time>
      </trkpt>
      <trkpt lat="45.29788" lon="4.57356">
        <ele>445.13</ele>
        <time>2017-03-26T13:03:18Z</time>
      </trkpt>
      <trkpt lat="45.29788" lon="4.57356">
        <ele>445.13</ele>
        <time>2017-03-26T13:03:19Z</time>
      </trkpt>
      <trkpt lat="45.29788" lon="4.57356">
        <ele>445.13</ele>
        <time>2017-03-26T13:03:20Z</time>
      </trkpt>
      <trkpt lat="45.29788" lon="4.57356">
        <ele>445.13</ele>
        <time>2017-03-26T13:03:21Z</time>
      </trkpt>
      <trkpt lat="45.29788" lon="4.57356">
        <ele>445.13</ele>
        <time>2017-03-26T13:03:22Z</time>
      </trkpt>
      <trkpt lat="45.29788" lon="4.57356">
        <ele>445.13</ele>
        <time>2017-03-26T13:03:23Z</time>
      </trkpt>
      <trkpt lat="45.29788" lon="4.57356">
        <ele>445.13</ele>
        <time>2017-03-26T13:03:24Z</time>
      </trkpt>
      <trkpt lat="45.29788" lon="4.57356">
        <ele>445.13</ele>
        <time>2017-03-26T13:03:25Z</time>
      </trkpt>
      <trkpt lat="45.29788" lon="4.57356">
        <ele>445.13</ele>
        <time>2017-03-26T13:03:26Z</time>
      </trkpt>
      <trkpt lat="45.29788" lon="4.57356">
        <ele>445.13</ele>
        <time>2017-03-26T13:03:27Z</time>
      </trkpt>
      <trkpt lat="45.29788" lon="4.57356">
        <ele>445.13</ele>
        <time>2017-03-26T13:03:28Z</time>
      </trkpt>
      <trkpt lat="45.29788" lon="4.57356">
        <ele>445.13</ele>
        <time>2017-03-26T13:03:29Z</time>
      </trkpt>
      <trkpt lat="45.29788" lon="4.57356">
        <ele>445.13</ele>
        <time>2017-03-26T13:03:30Z</time>
      </trkpt>
      <trkpt lat="45.29788" lon="4.57356">
        <ele>445.13</ele>
        <time>2017-03-26T13:03:31Z</time>
      </trkpt>
      <trkpt lat="45.29788" lon="4.57356">
        <ele>445.13</ele>
        <time>2017-03-26T13:03:32Z</time>
      </trkpt>
      <trkpt lat="45.29788" lon="4.57356">
        <ele>445.13</ele>
        <time>2017-03-26T13:03:33Z</time>
      </trkpt>
      <trkpt lat="45.29788" lon="4.57356">
        <ele>445.13</ele>
        <time>2017-03-26T13:03:34Z</time>
      </trkpt>
      <trkpt lat="45.29788" lon="4.57356">
        <ele>445.13</ele>
        <time>2017-03-26T13:03:35Z</time>
      </trkpt>
      <trkpt lat="45.29788" lon="4.57356">
        <ele>445.13</ele>
        <time>2017-03-26T13:03:36Z</time>
      </trkpt>
      <trkpt lat="45.29788" lon="4.57356">
        <ele>445.13</ele>
        <time>2017-03-26T13:03:37Z</time>
      </trkpt>
      <trkpt lat="45.29788" lon="4.57356">
        <ele>445.13</ele>
        <time>2017-03-26T13:03:38Z</time>
      </trkpt>
      <trkpt lat="45.29788" lon="4.57356">
        <ele>445.13</ele>
        <time>2017-03-26T13:03:39Z</time>
      </trkpt>
      <trkpt lat="45.29788" lon="4.57356">
        <ele>445.13</ele>
        <time>2017-03-26T13:03:40Z</time>
      </trkpt>
      <trkpt lat="45.29788" lon="4.57356">
        <ele>445.13</ele>
        <time>2017-03-26T13:03:41Z</time>
      </trkpt>
      <trkpt lat="45.29788" lon="4.57356">
        <ele>445.13</ele>
        <time>2017-03-26T13:03:42Z</time>
      </trkpt>
      <trkpt lat="45.29788" lon="4.57356">
        <ele>445.13</ele>
        <time>2017-03-26T13:03:43Z</time>
      </trkpt>
      <trkpt lat="45.29788" lon="4.57356">
        <ele>445.13</ele>
        <time>2017-03-26T13:03:44Z</time>
      </trkpt>
      <trkpt lat="45.29788" lon="4.57356">
        <ele>445.13</ele>
        <time>2017-03-26T13:03:45Z</time>
      </trkpt>
      <trkpt lat="45.29788" lon="4.57356">
        <ele>445.13</ele>
        <time>2017-03-26T13:03:46Z</time>
      </trkpt>
      <trkpt lat="45.29788" lon="4.57356">
        <ele>445.13</ele>
        <time>2017-03-26T13:03:47Z</time>
      </trkpt>
      <trkpt lat="45.29788" lon="4.57356">
        <ele>445.13</ele>
        <time>2017-03-26T13:03:48Z</time>
      </trkpt>
      <trkpt lat="45.29788" lon="4.57356">
        <ele>445.13</ele>
        <time>2017-03-26T13:03:49Z</time>
      </trkpt>
      <trkpt lat="45.29788" lon="4.57356">
        <ele>445.13</ele>
        <time>2017-03-26T13:03:50Z</time>
      </trkpt>
      <trkpt lat="45.29788" lon="4.57356">
        <ele>445.13</ele>
        <time>2017-03-26T13:03:51Z</time>
      </trkpt>
      <trkpt lat="45.29788" lon="4.57356">
        <ele>445.13</ele>
        <time>2017-03-26T13:03:52Z</time>
      </trkpt>
      <trkpt lat="45.29788" lon="4.57356">
        <ele>445.13</ele>
        <time>2017-03-26T13:03:53Z</time>
      </trkpt>
      <trkpt lat="45.29788" lon="4.57356">
        <ele>445.13</ele>
        <time>2017-03-26T13:03:54Z</time>
      </trkpt>
      <trkpt lat="45.29788" lon="4.57356">
        <ele>445.13</ele>
        <time>2017-03-26T13:03:55Z</time>
      </trkpt>
      <trkpt lat="45.29788" lon="4.57356">
        <ele>445.13</ele>
        <time>2017-03-26T13:03:56Z</time>
      </trkpt>
      <trkpt lat="45.29788" lon="4.57356">
        <ele>445.13</ele>
        <time>2017-03-26T13:03:57Z</time>
      </trkpt>
      <trkpt lat="45.29788" lon="4.57356">
        <ele>445.13</ele>
        <time>2017-03-26T13:03:58Z</time>
      </trkpt>
      <trkpt lat="45.29788" lon="4.57356">
        <ele>445.13</ele>
        <time>2017-03-26T13:03:59Z</time>
      </trkpt>
      <trkpt lat="45.29788" lon="4.57356">
        <ele>445.13</ele>
        <time>2017-03-26T13:04:00Z</time>
      </trkpt>
      <trkpt lat="45.29788" lon="4.57356">
        <ele>445.13</ele>
        <time>2017-03-26T13:04:01Z</time>
      </trkpt>
      <trkpt lat="45.29788" lon="4.57356">
        <ele>445.13</ele>
        <time>2017-03-26T13:04:02Z</time>
      </trkpt>
      <trkpt lat="45.29788" lon="4.57356">
        <ele>445.13</ele>
        <time>2017-03-26T13:04:03Z</time>
      </trkpt>
      <trkpt lat="45.29788" lon="4.57356">
        <ele>445.13</ele>
        <time>2017-03-26T13:04:04Z</time>
      </trkpt>
      <trkpt lat="45.29788" lon="4.57356">
        <ele>445.13</ele>
        <time>2017-03-26T13:04:05Z</time>
      </trkpt>
      <trkpt lat="45.29788" lon="4.57356">
        <ele>445.13</ele>
        <time>2017-03-26T13:04:06Z</time>
      </trkpt>
      <trkpt lat="45.29788" lon="4.57356">
        <ele>445.13</ele>
        <time>2017-03-26T13:04:07Z</time>
      </trkpt>
      <trkpt lat="45.29788" lon="4.57356">
        <ele>445.13</ele>
        <time>2017-03-26T13:04:08Z</time>
      </trkpt>
      <trkpt lat="45.29788" lon="4.57356">
        <ele>445.13</ele>
        <time>2017-03-26T13:04:09Z</time>
      </trkpt>
      <trkpt lat="45.29788" lon="4.57356">
        <ele>445.13</ele>
        <time>2017-03-26T13:04:10Z</time>
      </trkpt>
      <trkpt lat="45.29788" lon="4.57356">
        <ele>445.13</ele>
        <time>2017-03-26T13:04:11Z</time>
      </trkpt>
      <trkpt lat="45.29788" lon="4.57356">
        <ele>445.13</ele>
        <time>2017-03-26T13:04:12Z</time>
      </trkpt>
      <trkpt lat="45.29788" lon="4.57356">
        <ele>445.13</ele>
        <time>2017-03-26T13:04:13Z</time>
      </trkpt>
      <trkpt lat="45.29788" lon="4.57356">
        <ele>445.13</ele>
        <time>2017-03-26T13:04:14Z</time>
      </trkpt>
      <trkpt lat="45.29788" lon="4.57356">
        <ele>445.13</ele>
        <time>2017-03-26T13:04:15Z</time>
      </trkpt>
      <trkpt lat="45.29788" lon="4.57356">
        <ele>445.13</ele>
        <time>2017-03-26T13:04:16Z</time>
      </trkpt>
      <trkpt lat="45.29788" lon="4.57356">
        <ele>445.13</ele>
        <time>2017-03-26T13:04:17Z</time>
      </trkpt>
      <trkpt lat="45.29788" lon="4.57356">
        <ele>445.13</ele>
        <time>2017-03-26T13:04:18Z</time>
      </trkpt>
      <trkpt lat="45.29788" lon="4.57356">
        <ele>445.13</ele>
        <time>2017-03-26T13:04:19Z</time>
      </trkpt>
      <trkpt lat="45.29788" lon="4.57356">
        <ele>445.13</ele>
        <time>2017-03-26T13:04:20Z</time>
      </trkpt>
      <trkpt lat="45.29788" lon="4.57356">
        <ele>445.13</ele>
        <time>2017-03-26T13:04:21Z</time>
      </trkpt>
      <trkpt lat="45.29788" lon="4.57356">
        <ele>445.13</ele>
        <time>2017-03-26T13:04:22Z</time>
      </trkpt>
      <trkpt lat="45.29788" lon="4.57356">
        <ele>445.13</ele>
        <time>2017-03-26T13:04:23Z</time>
      </trkpt>
      <trkpt lat="45.29788" lon="4.57356">
        <ele>445.13</ele>
        <time>2017-03-26T13:04:24Z</time>
      </trkpt>
      <trkpt lat="45.29788" lon="4.57356">
        <ele>445.13</ele>
        <time>2017-03-26T13:04:25Z</time>
      </trkpt>
      <trkpt lat="45.29788" lon="4.57356">
        <ele>445.13</ele>
        <time>2017-03-26T13:04:26Z</time>
      </trkpt>
      <trkpt lat="45.29788" lon="4.57356">
        <ele>445.13</ele>
        <time>2017-03-26T13:04:27Z</time>
      </trkpt>
      <trkpt lat="45.29788" lon="4.57356">
        <ele>445.13</ele>
        <time>2017-03-26T13:04:28Z</time>
      </trkpt>
      <trkpt lat="45.29788" lon="4.57356">
        <ele>445.13</ele>
        <time>2017-03-26T13:04:29Z</time>
      </trkpt>
      <trkpt lat="45.29788" lon="4.57356">
        <ele>445.13</ele>
        <time>2017-03-26T13:04:30Z</time>
      </trkpt>
      <trkpt lat="45.29788" lon="4.57356">
        <ele>445.13</ele>
        <time>2017-03-26T13:04:31Z</time>
      </trkpt>
      <trkpt lat="45.29788" lon="4.57356">
        <ele>445.13</ele>
        <time>2017-03-26T13:04:32Z</time>
      </trkpt>
      <trkpt lat="45.29788" lon="4.57356">
        <ele>445.13</ele>
        <time>2017-03-26T13:04:33Z</time>
      </trkpt>
      <trkpt lat="45.29788" lon="4.57356">
        <ele>445.13</ele>
        <time>2017-03-26T13:04:34Z</time>
      </trkpt>
      <trkpt lat="45.29788" lon="4.57356">
        <ele>445.13</ele>
        <time>2017-03-26T13:04:35Z</time>
      </trkpt>
      <trkpt lat="45.29788" lon="4.57356">
        <ele>445.13</ele>
        <time>2017-03-26T13:04:36Z</time>
      </trkpt>
      <trkpt lat="45.29788" lon="4.57356">
        <ele>445.13</ele>
        <time>2017-03-26T13:04:37Z</time>
      </trkpt>
      <trkpt lat="45.29788" lon="4.57356">
        <ele>445.13</ele>
        <time>2017-03-26T13:04:38Z</time>
      </trkpt>
      <trkpt lat="45.29788" lon="4.57356">
        <ele>445.13</ele>
        <time>2017-03-26T13:04:39Z</time>
      </trkpt>
      <trkpt lat="45.29788" lon="4.57356">
        <ele>445.13</ele>
        <time>2017-03-26T13:04:40Z</time>
      </trkpt>
      <trkpt lat="45.29788" lon="4.57356">
        <ele>445.13</ele>
        <time>2017-03-26T13:04:41Z</time>
      </trkpt>
      <trkpt lat="45.29788" lon="4.57356">
        <ele>445.13</ele>
        <time>2017-03-26T13:04:42Z</time>
      </trkpt>
      <trkpt lat="45.29788" lon="4.57356">
        <ele>445.13</ele>
        <time>2017-03-26T13:04:43Z</time>
      </trkpt>
      <trkpt lat="45.29788" lon="4.57356">
        <ele>445.13</ele>
        <time>2017-03-26T13:04:44Z</time>
      </trkpt>
      <trkpt lat="45.29788" lon="4.57356">
        <ele>445.13</ele>
        <time>2017-03-26T13:04:45Z</time>
      </trkpt>
      <trkpt lat="45.29788" lon="4.57356">
        <ele>445.13</ele>
        <time>2017-03-26T13:04:46Z</time>
      </trkpt>
      <trkpt lat="45.29788" lon="4.57356">
        <ele>445.13</ele>
        <time>2017-03-26T13:04:47Z</time>
      </trkpt>
      <trkpt lat="45.29788" lon="4.57356">
        <ele>445.13</ele>
        <time>2017-03-26T13:04:48Z</time>
      </trkpt>
      <trkpt lat="45.29788" lon="4.57356">
        <ele>445.13</ele>
        <time>2017-03-26T13:04:49Z</time>
      </trkpt>
      <trkpt lat="45.29788" lon="4.57356">
        <ele>445.13</ele>
        <time>2017-03-26T13:04:50Z</time>
      </trkpt>
      <trkpt lat="45.29788" lon="4.57356">
        <ele>445.13</ele>
        <time>2017-03-26T13:04:51Z</time>
      </trkpt>
      <trkpt lat="45.29788" lon="4.57356">
        <ele>445.13</ele>
        <time>2017-03-26T13:04:52Z</time>
      </trkpt>
      <trkpt lat="45.29788" lon="4.57356">
        <ele>445.13</ele>
        <time>2017-03-26T13:04:53Z</time>
      </trkpt>
      <trkpt lat="45.29788" lon="4.57356">
        <ele>445.13</ele>
        <time>2017-03-26T13:04:54Z</time>
      </trkpt>
      <trkpt lat="45.29788" lon="4.57356">
        <ele>445.13</ele>
        <time>2017-03-26T13:04:55Z</time>
      </trkpt>
      <trkpt lat="45.29788" lon="4.57356">
        <ele>445.13</ele>
        <time>2017-03-26T13:04:56Z</time>
      </trkpt>
      <trkpt lat="45.29788" lon="4.57356">
        <ele>445.13</ele>
        <time>2017-03-26T13:04:57Z</time>
      </trkpt>
      <trkpt lat="45.29788" lon="4.57356">
        <ele>445.13</ele>
        <time>2017-03-26T13:04:58Z</time>
      </trkpt>
      <trkpt lat="45.29788" lon="4.57356">
        <ele>445.13</ele>
        <time>2017-03-26T13:04:59Z</time>
      </trkpt>
      <trkpt lat="45.29788" lon="4.57356">
        <ele>445.13</ele>
        <time>2017-03-26T13:05:00Z</time>
      </trkpt>
      <trkpt lat="45.29788" lon="4.57356">
        <ele>445.13</ele>
        <time>2017-03-26T13:05:01Z</time>
      </trkpt>
      <trkpt lat="45.29788" lon="4.57356">
        <ele>445.13</ele>
        <time>2017-03-26T13:05:02Z</time>
      </trkpt>
      <trkpt lat="45.29788" lon="4.57356">
        <ele>445.13</ele>
        <time>2017-03-26T13:05:03Z</time>
      </trkpt>
      <trkpt lat="45.29788" lon="4.57356">
        <ele>445.13</ele>
        <time>2017-03-26T13:05:04Z</time>
      </trkpt>
      <trkpt lat="45.29788" lon="4.57356">
        <ele>445.13</ele>
        <time>2017-03-26T13:05:05Z</time>
      </trkpt>
      <trkpt lat="45.29788" lon="4.57356">
        <ele>445.13</ele>
        <time>2017-03-26T13:05:06Z</time>
      </trkpt>
      <trkpt lat="45.29788" lon="4.57356">
        <ele>445.13</ele>
        <time>2017-03-26T13:05:07Z</time>
      </trkpt>
      <trkpt lat="45.29788" lon="4.57356">
        <ele>445.13</ele>
        <time>2017-03-26T13:05:08Z</time>
      </trkpt>
      <trkpt lat="45.29788" lon="4.57356">
        <ele>445.13</ele>
        <time>2017-03-26T13:05:09Z</time>
      </trkpt>
      <trkpt lat="45.29788" lon="4.57356">
        <ele>445.13</ele>
        <time>2017-03-26T13:05:10Z</time>
      </trkpt>
      <trkpt lat="45.29788" lon="4.57356">
        <ele>445.13</ele>
        <time>2017-03-26T13:05:11Z</time>
      </trkpt>
      <trkpt lat="45.29788" lon="4.57356">
        <ele>445.13</ele>
        <time>2017-03-26T13:05:12Z</time>
      </trkpt>
      <trkpt lat="45.29788" lon="4.57356">
        <ele>445.13</ele>
        <time>2017-03-26T13:05:13Z</time>
      </trkpt>
      <trkpt lat="45.29788" lon="4.57356">
        <ele>445.13</ele>
        <time>2017-03-26T13:05:14Z</time>
      </trkpt>
      <trkpt lat="45.29788" lon="4.57356">
        <ele>445.13</ele>
        <time>2017-03-26T13:05:15Z</time>
      </trkpt>
      <trkpt lat="45.29788" lon="4.57356">
        <ele>445.13</ele>
        <time>2017-03-26T13:05:16Z</time>
      </trkpt>
      <trkpt lat="45.29788" lon="4.57356">
        <ele>445.13</ele>
        <time>2017-03-26T13:05:17Z</time>
      </trkpt>
      <trkpt lat="45.29788" lon="4.57356">
        <ele>445.13</ele>
        <time>2017-03-26T13:05:18Z</time>
      </trkpt>
      <trkpt lat="45.29788" lon="4.57356">
        <ele>445.13</ele>
        <time>2017-03-26T13:05:19Z</time>
      </trkpt>
      <trkpt lat="45.29788" lon="4.57356">
        <ele>445.13</ele>
        <time>2017-03-26T13:05:20Z</time>
      </trkpt>
      <trkpt lat="45.29788" lon="4.57356">
        <ele>445.13</ele>
        <time>2017-03-26T13:05:21Z</time>
      </trkpt>
      <trkpt lat="45.29788" lon="4.57356">
        <ele>445.13</ele>
        <time>2017-03-26T13:05:22Z</time>
      </trkpt>
      <trkpt lat="45.29788" lon="4.57356">
        <ele>445.13</ele>
        <time>2017-03-26T13:05:23Z</time>
      </trkpt>
      <trkpt lat="45.29788" lon="4.57356">
        <ele>445.13</ele>
        <time>2017-03-26T13:05:24Z</time>
      </trkpt>
      <trkpt lat="45.29788" lon="4.57356">
        <ele>445.13</ele>
        <time>2017-03-26T13:05:25Z</time>
      </trkpt>
      <trkpt lat="45.29788" lon="4.57356">
        <ele>445.13</ele>
        <time>2017-03-26T13:05:26Z</time>
      </trkpt>
      <trkpt lat="45.29788" lon="4.57356">
        <ele>445.13</ele>
        <time>2017-03-26T13:05:27Z</time>
      </trkpt>
      <trkpt lat="45.29788" lon="4.57356">
        <ele>445.13</ele>
        <time>2017-03-26T13:05:28Z</time>
      </trkpt>
      <trkpt lat="45.29788" lon="4.57356">
        <ele>445.13</ele>
        <time>2017-03-26T13:05:29Z</time>
      </trkpt>
      <trkpt lat="45.29788" lon="4.57356">
        <ele>445.13</ele>
        <time>2017-03-26T13:05:30Z</time>
      </trkpt>
      <trkpt lat="45.29788" lon="4.57356">
        <ele>445.13</ele>
        <time>2017-03-26T13:05:31Z</time>
      </trkpt>
      <trkpt lat="45.29788" lon="4.57356">
        <ele>445.13</ele>
        <time>2017-03-26T13:05:32Z</time>
      </trkpt>
      <trkpt lat="45.29788" lon="4.57356">
        <ele>445.13</ele>
        <time>2017-03-26T13:05:33Z</time>
      </trkpt>
      <trkpt lat="45.29788" lon="4.57356">
        <ele>445.13</ele>
        <time>2017-03-26T13:05:34Z</time>
      </trkpt>
      <trkpt lat="45.29788" lon="4.57356">
        <ele>445.13</ele>
        <time>2017-03-26T13:05:35Z</time>
      </trkpt>
      <trkpt lat="45.29788" lon="4.57356">
        <ele>445.13</ele>
        <time>2017-03-26T13:05:36Z</time>
      </trkpt>
      <trkpt lat="45.29788" lon="4.57356">
        <ele>445.13</ele>
        <time>2017-03-26T13:05:37Z</time>
      </trkpt>
      <trkpt lat="45.29788" lon="4.57356">
        <ele>445.13</ele>
        <time>2017-03-26T13:05:38Z</time>
      </trkpt>
      <trkpt lat="45.29788" lon="4.57356">
        <ele>445.13</ele>
        <time>2017-03-26T13:05:39Z</time>
      </trkpt>
      <trkpt lat="45.29788" lon="4.57356">
        <ele>445.13</ele>
        <time>2017-03-26T13:05:40Z</time>
      </trkpt>
      <trkpt lat="45.29788" lon="4.57356">
        <ele>445.13</ele>
        <time>2017-03-26T13:05:41Z</time>
      </trkpt>
      <trkpt lat="45.29788" lon="4.57356">
        <ele>445.13</ele>
        <time>2017-03-26T13:05:42Z</time>
      </trkpt>
      <trkpt lat="45.29788" lon="4.57356">
        <ele>445.13</ele>
        <time>2017-03-26T13:05:43Z</time>
      </trkpt>
      <trkpt lat="45.29788" lon="4.57356">
        <ele>445.13</ele>
        <time>2017-03-26T13:05:44Z</time>
      </trkpt>
      <trkpt lat="45.29788" lon="4.57356">
        <ele>445.13</ele>
        <time>2017-03-26T13:05:45Z</time>
      </trkpt>
      <trkpt lat="45.29788" lon="4.57356">
        <ele>445.13</ele>
        <time>2017-03-26T13:05:46Z</time>
      </trkpt>
      <trkpt lat="45.29788" lon="4.57356">
        <ele>445.13</ele>
        <time>2017-03-26T13:05:47Z</time>
      </trkpt>
      <trkpt lat="45.29788" lon="4.57356">
        <ele>445.13</ele>
        <time>2017-03-26T13:05:48Z</time>
      </trkpt>
      <trkpt lat="45.29788" lon="4.57356">
        <ele>445.13</ele>
        <time>2017-03-26T13:05:49Z</time>
      </trkpt>
      <trkpt lat="45.29788" lon="4.57356">
        <ele>445.13</ele>
        <time>2017-03-26T13:05:50Z</time>
      </trkpt>
      <trkpt lat="45.29788" lon="4.57356">
        <ele>445.13</ele>
        <time>2017-03-26T13:05:51Z</time>
      </trkpt>
      <trkpt lat="45.29788" lon="4.57356">
        <ele>445.13</ele>
        <time>2017-03-26T13:05:52Z</time>
      </trkpt>
      <trkpt lat="45.29788" lon="4.57356">
        <ele>445.13</ele>
        <time>2017-03-26T13:05:53Z</time>
      </trkpt>
      <trkpt lat="45.29788" lon="4.57356">
        <ele>445.13</ele>
        <time>2017-03-26T13:05:54Z</time>
      </trkpt>
      <trkpt lat="45.29788" lon="4.57356">
        <ele>445.13</ele>
        <time>2017-03-26T13:05:55Z</time>
      </trkpt>
      <trkpt lat="45.29788" lon="4.57356">
        <ele>445.13</ele>
        <time>2017-03-26T13:05:56Z</time>
      </trkpt>
      <trkpt lat="45.29788" lon="4.57356">
        <ele>445.13</ele>
        <time>2017-03-26T13:05:57Z</time>
      </trkpt>
      <trkpt lat="45.29788" lon="4.57356">
        <ele>445.13</ele>
        <time>2017-03-26T13:05:58Z</time>
      </trkpt>
      <trkpt lat="45.29788" lon="4.57356">
        <ele>445.13</ele>
        <time>2017-03-26T13:05:59Z</time>
      </trkpt>
      <trkpt lat="45.29788" lon="4.57356">
        <ele>445.13</ele>
        <time>2017-03-26T13:06:00Z</time>
      </trkpt>
      <trkpt lat="45.29788" lon="4.57356">
        <ele>445.13</ele>
        <time>2017-03-26T13:06:01Z</time>
      </trkpt>
      <trkpt lat="45.29788" lon="4.57356">
        <ele>445.13</ele>
        <time>2017-03-26T13:06:02Z</time>
      </trkpt>
      <trkpt lat="45.29788" lon="4.57356">
        <ele>445.13</ele>
        <time>2017-03-26T13:06:03Z</time>
      </trkpt>
      <trkpt lat="45.29788" lon="4.57356">
        <ele>445.13</ele>
        <time>2017-03-26T13:06:04Z</time>
      </trkpt>
      <trkpt lat="45.29788" lon="4.57356">
        <ele>445.13</ele>
        <time>2017-03-26T13:06:05Z</time>
      </trkpt>
      <trkpt lat="45.29788" lon="4.57356">
        <ele>445.13</ele>
        <time>2017-03-26T13:06:06Z</time>
      </trkpt>
      <trkpt lat="45.29788" lon="4.57356">
        <ele>445.13</ele>
        <time>2017-03-26T13:06:07Z</time>
      </trkpt>
      <trkpt lat="45.29788" lon="4.57356">
        <ele>445.13</ele>
        <time>2017-03-26T13:06:08Z</time>
      </trkpt>
      <trkpt lat="45.29788" lon="4.57356">
        <ele>445.13</ele>
        <time>2017-03-26T13:06:09Z</time>
      </trkpt>
      <trkpt lat="45.29788" lon="4.57356">
        <ele>445.13</ele>
        <time>2017-03-26T13:06:10Z</time>
      </trkpt>
      <trkpt lat="45.29788" lon="4.57356">
        <ele>445.13</ele>
        <time>2017-03-26T13:06:11Z</time>
      </trkpt>
      <trkpt lat="45.29788" lon="4.57356">
        <ele>445.13</ele>
        <time>2017-03-26T13:06:12Z</time>
      </trkpt>
      <trkpt lat="45.29788" lon="4.57356">
        <ele>445.13</ele>
        <time>2017-03-26T13:06:13Z</time>
      </trkpt>
      <trkpt lat="45.29788" lon="4.57356">
        <ele>445.13</ele>
        <time>2017-03-26T13:06:14Z</time>
      </trkpt>
      <trkpt lat="45.29788" lon="4.57356">
        <ele>445.13</ele>
        <time>2017-03-26T13:06:15Z</time>
      </trkpt>
      <trkpt lat="45.29788" lon="4.57356">
        <ele>445.13</ele>
        <time>2017-03-26T13:06:16Z</time>
      </trkpt>
      <trkpt lat="45.29788" lon="4.57356">
        <ele>445.13</ele>
        <time>2017-03-26T13:06:17Z</time>
      </trkpt>
      <trkpt lat="45.29788" lon="4.57356">
        <ele>445.13</ele>
        <time>2017-03-26T13:06:18Z</time>
      </trkpt>
      <trkpt lat="45.29788" lon="4.57356">
        <ele>445.13</ele>
        <time>2017-03-26T13:06:19Z</time>
      </trkpt>
      <trkpt lat="45.29788" lon="4.57356">
        <ele>445.13</ele>
        <time>2017-03-26T13:06:20Z</time>
      </trkpt>
      <trkpt lat="45.29788" lon="4.57356">
        <ele>445.13</ele>
        <time>2017-03-26T13:06:21Z</time>
      </trkpt>
      <trkpt lat="45.29788" lon="4.57356">
        <ele>445.13</ele>
        <time>2017-03-26T13:06:22Z</time>
      </trkpt>
      <trkpt lat="45.29788" lon="4.57356">
        <ele>445.13</ele>
        <time>2017-03-26T13:06:23Z</time>
      </trkpt>
      <trkpt lat="45.29788" lon="4.57356">
        <ele>445.13</ele>
        <time>2017-03-26T13:06:24Z</time>
      </trkpt>
      <trkpt lat="45.29788" lon="4.57356">
        <ele>445.13</ele>
        <time>2017-03-26T13:06:25Z</time>
      </trkpt>
      <trkpt lat="45.29788" lon="4.57356">
        <ele>445.13</ele>
        <time>2017-03-26T13:06:26Z</time>
      </trkpt>
      <trkpt lat="45.29788" lon="4.57356">
        <ele>445.13</ele>
        <time>2017-03-26T13:06:27Z</time>
      </trkpt>
      <trkpt lat="45.29788" lon="4.57356">
        <ele>445.13</ele>
        <time>2017-03-26T13:06:28Z</time>
      </trkpt>
      <trkpt lat="45.29788" lon="4.57356">
        <ele>445.13</ele>
        <time>2017-03-26T13:06:29Z</time>
      </trkpt>
      <trkpt lat="45.29788" lon="4.57356">
        <ele>445.13</ele>
        <time>2017-03-26T13:06:30Z</time>
      </trkpt>
      <trkpt lat="45.29788" lon="4.57356">
        <ele>445.13</ele>
        <time>2017-03-26T13:06:31Z</time>
      </trkpt>
      <trkpt lat="45.29788" lon="4.57356">
        <ele>445.13</ele>
        <time>2017-03-26T13:06:32Z</time>
      </trkpt>
      <trkpt lat="45.29788" lon="4.57356">
        <ele>445.13</ele>
        <time>2017-03-26T13:06:33Z</time>
      </trkpt>
      <trkpt lat="45.29788" lon="4.57356">
        <ele>445.13</ele>
        <time>2017-03-26T13:06:34Z</time>
      </trkpt>
      <trkpt lat="45.29788" lon="4.57356">
        <ele>445.13</ele>
        <time>2017-03-26T13:06:35Z</time>
      </trkpt>
      <trkpt lat="45.29788" lon="4.57356">
        <ele>445.13</ele>
        <time>2017-03-26T13:06:36Z</time>
      </trkpt>
      <trkpt lat="45.29788" lon="4.57356">
        <ele>445.13</ele>
        <time>2017-03-26T13:06:37Z</time>
      </trkpt>
      <trkpt lat="45.29788" lon="4.57356">
        <ele>445.13</ele>
        <time>2017-03-26T13:06:38Z</time>
      </trkpt>
      <trkpt lat="45.29788" lon="4.57356">
        <ele>445.13</ele>
        <time>2017-03-26T13:06:39Z</time>
      </trkpt>
      <trkpt lat="45.29788" lon="4.57356">
        <ele>445.13</ele>
        <time>2017-03-26T13:06:40Z</time>
      </trkpt>
      <trkpt lat="45.29788" lon="4.57356">
        <ele>445.13</ele>
        <time>2017-03-26T13:06:41Z</time>
      </trkpt>
      <trkpt lat="45.29788" lon="4.57356">
        <ele>445.13</ele>
        <time>2017-03-26T13:06:42Z</time>
      </trkpt>
      <trkpt lat="45.29788" lon="4.57356">
        <ele>445.13</ele>
        <time>2017-03-26T13:06:43Z</time>
      </trkpt>
      <trkpt lat="45.29788" lon="4.57356">
        <ele>445.13</ele>
        <time>2017-03-26T13:06:44Z</time>
      </trkpt>
      <trkpt lat="45.29788" lon="4.57356">
        <ele>445.13</ele>
        <time>2017-03-26T13:06:45Z</time>
      </trkpt>
      <trkpt lat="45.29788" lon="4.57356">
        <ele>445.13</ele>
        <time>2017-03-26T13:06:46Z</time>
      </trkpt>
      <trkpt lat="45.29788" lon="4.57356">
        <ele>445.13</ele>
        <time>2017-03-26T13:06:47Z</time>
      </trkpt>
      <trkpt lat="45.29788" lon="4.57356">
        <ele>445.13</ele>
        <time>2017-03-26T13:06:48Z</time>
      </trkpt>
      <trkpt lat="45.29788" lon="4.57356">
        <ele>445.13</ele>
        <time>2017-03-26T13:06:49Z</time>
      </trkpt>
      <trkpt lat="45.29788" lon="4.57356">
        <ele>445.13</ele>
        <time>2017-03-26T13:06:50Z</time>
      </trkpt>
      <trkpt lat="45.29788" lon="4.57356">
        <ele>445.13</ele>
        <time>2017-03-26T13:06:51Z</time>
      </trkpt>
      <trkpt lat="45.29788" lon="4.57356">
        <ele>445.13</ele>
        <time>2017-03-26T13:06:52Z</time>
      </trkpt>
      <trkpt lat="45.29788" lon="4.57356">
        <ele>445.13</ele>
        <time>2017-03-26T13:06:53Z</time>
      </trkpt>
      <trkpt lat="45.29788" lon="4.57356">
        <ele>445.13</ele>
        <time>2017-03-26T13:06:54Z</time>
      </trkpt>
      <trkpt lat="45.29788" lon="4.57356">
        <ele>445.13</ele>
        <time>2017-03-26T13:06:55Z</time>
      </trkpt>
      <trkpt lat="45.29788" lon="4.57356">
        <ele>445.13</ele>
        <time>2017-03-26T13:06:56Z</time>
      </trkpt>
      <trkpt lat="45.29788" lon="4.57356">
        <ele>445.13</ele>
        <time>2017-03-26T13:06:57Z</time>
      </trkpt>
      <trkpt lat="45.29788" lon="4.57356">
        <ele>445.13</ele>
        <time>2017-03-26T13:06:58Z</time>
      </trkpt>
      <trkpt lat="45.29788" lon="4.57356">
        <ele>445.13</ele>
        <time>2017-03-26T13:06:59Z</time>
      </trkpt>
      <trkpt lat="45.29788" lon="4.57356">
        <ele>445.13</ele>
        <time>2017-03-26T13:07:00Z</time>
      </trkpt>
      <trkpt lat="45.29788" lon="4.57356">
        <ele>445.13</ele>
        <time>2017-03-26T13:07:01Z</time>
      </trkpt>
      <trkpt lat="45.29788" lon="4.57356">
        <ele>445.13</ele>
        <time>2017-03-26T13:07:02Z</time>
      </trkpt>
      <trkpt lat="45.29788" lon="4.57356">
        <ele>445.13</ele>
        <time>2017-03-26T13:07:03Z</time>
      </trkpt>
      <trkpt lat="45.29788" lon="4.57356">
        <ele>445.13</ele>
        <time>2017-03-26T13:07:04Z</time>
      </trkpt>
      <trkpt lat="45.29788" lon="4.57356">
        <ele>445.13</ele>
        <time>2017-03-26T13:07:05Z</time>
      </trkpt>
      <trkpt lat="45.29788" lon="4.57356">
        <ele>445.13</ele>
        <time>2017-03-26T13:07:06Z</time>
      </trkpt>
      <trkpt lat="45.29788" lon="4.57356">
        <ele>445.13</ele>
        <time>2017-03-26T13:07:07Z</time>
      </trkpt>
      <trkpt lat="45.29788" lon="4.57356">
        <ele>445.13</ele>
        <time>2017-03-26T13:07:08Z</time>
      </trkpt>
      <trkpt lat="45.29788" lon="4.57356">
        <ele>445.13</ele>
        <time>2017-03-26T13:07:09Z</time>
      </trkpt>
      <trkpt lat="45.29788" lon="4.57356">
        <ele>445.13</ele>
        <time>2017-03-26T13:07:10Z</time>
      </trkpt>
      <trkpt lat="45.29788" lon="4.57356">
        <ele>445.13</ele>
        <time>2017-03-26T13:07:11Z</time>
      </trkpt>
      <trkpt lat="45.29788" lon="4.57356">
        <ele>445.13</ele>
        <time>2017-03-26T13:07:12Z</time>
      </trkpt>
      <trkpt lat="45.29788" lon="4.57356">
        <ele>445.13</ele>
        <time>2017-03-26T13:07:13Z</time>
      </trkpt>
      <trkpt lat="45.29788" lon="4.57356">
        <ele>445.13</ele>
        <time>2017-03-26T13:07:14Z</time>
      </trkpt>
      <trkpt lat="45.29788" lon="4.57356">
        <ele>445.13</ele>
        <time>2017-03-26T13:07:15Z</time>
      </trkpt>
      <trkpt lat="45.29788" lon="4.57356">
        <ele>445.13</ele>
        <time>2017-03-26T13:07:16Z</time>
      </trkpt>
      <trkpt lat="45.29788" lon="4.57356">
        <ele>445.13</ele>
        <time>2017-03-26T13:07:17Z</time>
      </trkpt>
      <trkpt lat="45.29788" lon="4.57356">
        <ele>445.13</ele>
        <time>2017-03-26T13:07:18Z</time>
      </trkpt>
      <trkpt lat="45.29788" lon="4.57356">
        <ele>445.13</ele>
        <time>2017-03-26T13:07:19Z</time>
      </trkpt>
      <trkpt lat="45.29788" lon="4.57356">
        <ele>445.13</ele>
        <time>2017-03-26T13:07:20Z</time>
      </trkpt>
      <trkpt lat="45.29788" lon="4.57356">
        <ele>445.13</ele>
        <time>2017-03-26T13:07:21Z</time>
      </trkpt>
      <trkpt lat="45.29788" lon="4.57356">
        <ele>445.13</ele>
        <time>2017-03-26T13:07:22Z</time>
      </trkpt>
      <trkpt lat="45.29788" lon="4.57356">
        <ele>445.13</ele>
        <time>2017-03-26T13:07:23Z</time>
      </trkpt>
      <trkpt lat="45.29788" lon="4.57356">
        <ele>445.13</ele>
        <time>2017-03-26T13:07:24Z</time>
      </trkpt>
      <trkpt lat="45.29788" lon="4.57356">
        <ele>445.13</ele>
        <time>2017-03-26T13:07:25Z</time>
      </trkpt>
      <trkpt lat="45.29788" lon="4.57356">
        <ele>445.13</ele>
        <time>2017-03-26T13:07:26Z</time>
      </trkpt>
      <trkpt lat="45.29788" lon="4.57356">
        <ele>445.13</ele>
        <time>2017-03-26T13:07:27Z</time>
      </trkpt>
      <trkpt lat="45.29788" lon="4.57356">
        <ele>445.13</ele>
        <time>2017-03-26T13:07:28Z</time>
      </trkpt>
      <trkpt lat="45.29788" lon="4.57356">
        <ele>445.13</ele>
        <time>2017-03-26T13:07:29Z</time>
      </trkpt>
      <trkpt lat="45.29788" lon="4.57356">
        <ele>445.13</ele>
        <time>2017-03-26T13:07:30Z</time>
      </trkpt>
      <trkpt lat="45.29788" lon="4.57356">
        <ele>445.13</ele>
        <time>2017-03-26T13:07:31Z</time>
      </trkpt>
      <trkpt lat="45.29788" lon="4.57356">
        <ele>445.13</ele>
        <time>2017-03-26T13:07:32Z</time>
      </trkpt>
      <trkpt lat="45.29788" lon="4.57356">
        <ele>445.13</ele>
        <time>2017-03-26T13:07:33Z</time>
      </trkpt>
      <trkpt lat="45.29788" lon="4.57356">
        <ele>445.13</ele>
        <time>2017-03-26T13:07:34Z</time>
      </trkpt>
      <trkpt lat="45.29788" lon="4.57356">
        <ele>445.13</ele>
        <time>2017-03-26T13:07:35Z</time>
      </trkpt>
      <trkpt lat="45.29788" lon="4.57356">
        <ele>445.13</ele>
        <time>2017-03-26T13:07:36Z</time>
      </trkpt>
      <trkpt lat="45.29788" lon="4.57356">
        <ele>445.13</ele>
        <time>2017-03-26T13:07:37Z</time>
      </trkpt>
      <trkpt lat="45.29788" lon="4.57356">
        <ele>445.13</ele>
        <time>2017-03-26T13:07:38Z</time>
      </trkpt>
      <trkpt lat="45.29788" lon="4.57356">
        <ele>445.13</ele>
        <time>2017-03-26T13:07:39Z</time>
      </trkpt>
      <trkpt lat="45.29788" lon="4.57356">
        <ele>445.13</ele>
        <time>2017-03-26T13:07:40Z</time>
      </trkpt>
      <trkpt lat="45.29788" lon="4.57356">
        <ele>445.13</ele>
        <time>2017-03-26T13:07:41Z</time>
      </trkpt>
      <trkpt lat="45.29788" lon="4.57356">
        <ele>445.13</ele>
        <time>2017-03-26T13:07:42Z</time>
      </trkpt>
      <trkpt lat="45.29788" lon="4.57356">
        <ele>445.13</ele>
        <time>2017-03-26T13:07:43Z</time>
      </trkpt>
      <trkpt lat="45.29788" lon="4.57356">
        <ele>445.13</ele>
        <time>2017-03-26T13:07:44Z</time>
      </trkpt>
      <trkpt lat="45.29788" lon="4.57356">
        <ele>445.13</ele>
        <time>2017-03-26T13:07:45Z</time>
      </trkpt>
      <trkpt lat="45.29788" lon="4.57356">
        <ele>445.13</ele>
        <time>2017-03-26T13:07:46Z</time>
      </trkpt>
      <trkpt lat="45.29788" lon="4.57356">
        <ele>445.13</ele>
        <time>2017-03-26T13:07:47Z</time>
      </trkpt>
      <trkpt lat="45.29788" lon="4.57356">
        <ele>445.13</ele>
        <time>2017-03-26T13:07:48Z</time>
      </trkpt>
      <trkpt lat="45.29788" lon="4.57356">
        <ele>445.13</ele>
        <time>2017-03-26T13:07:49Z</time>
      </trkpt>
      <trkpt lat="45.29788" lon="4.57356">
        <ele>445.13</ele>
        <time>2017-03-26T13:07:50Z</time>
      </trkpt>
      <trkpt lat="45.29788" lon="4.57356">
        <ele>445.13</ele>
        <time>2017-03-26T13:07:51Z</time>
      </trkpt>
      <trkpt lat="45.29788" lon="4.57356">
        <ele>445.13</ele>
        <time>2017-03-26T13:07:52Z</time>
      </trkpt>
      <trkpt lat="45.29788" lon="4.57356">
        <ele>445.13</ele>
        <time>2017-03-26T13:07:53Z</time>
      </trkpt>
      <trkpt lat="45.29788" lon="4.57356">
        <ele>445.13</ele>
        <time>2017-03-26T13:07:54Z</time>
      </trkpt>
      <trkpt lat="45.29788" lon="4.57356">
        <ele>445.13</ele>
        <time>2017-03-26T13:07:55Z</time>
      </trkpt>
      <trkpt lat="45.29788" lon="4.57356">
        <ele>445.13</ele>
        <time>2017-03-26T13:07:56Z</time>
      </trkpt>
      <trkpt lat="45.29788" lon="4.57356">
        <ele>445.13</ele>
        <time>2017-03-26T13:07:57Z</time>
      </trkpt>
      <trkpt lat="45.29788" lon="4.57356">
        <ele>445.13</ele>
        <time>2017-03-26T13:07:58Z</time>
      </trkpt>
      <trkpt lat="45.29788" lon="4.57356">
        <ele>445.13</ele>
        <time>2017-03-26T13:07:59Z</time>
      </trkpt>
      <trkpt lat="45.29788" lon="4.57356">
        <ele>445.13</ele>
        <time>2017-03-26T13:08:00Z</time>
      </trkpt>
      <trkpt lat="45.29788" lon="4.57356">
        <ele>445.13</ele>
        <time>2017-03-26T13:08:01Z</time>
      </trkpt>
      <trkpt lat="45.29788" lon="4.57356">
        <ele>445.13</ele>
        <time>2017-03-26T13:08:02Z</time>
      </trkpt>
      <trkpt lat="45.29788" lon="4.57356">
        <ele>445.13</ele>
        <time>2017-03-26T13:08:03Z</time>
      </trkpt>
      <trkpt lat="45.29788" lon="4.57356">
        <ele>445.13</ele>
        <time>2017-03-26T13:08:04Z</time>
      </trkpt>
      <trkpt lat="45.29788" lon="4.57356">
        <ele>445.13</ele>
        <time>2017-03-26T13:08:05Z</time>
      </trkpt>
      <trkpt lat="45.29788" lon="4.57356">
        <ele>445.13</ele>
        <time>2017-03-26T13:08:06Z</time>
      </trkpt>
      <trkpt lat="45.29788" lon="4.57356">
        <ele>445.13</ele>
        <time>2017-03-26T13:08:07Z</time>
      </trkpt>
      <trkpt lat="45.29788" lon="4.57356">
        <ele>445.13</ele>
        <time>2017-03-26T13:08:08Z</time>
      </trkpt>
      <trkpt lat="45.29788" lon="4.57356">
        <ele>445.13</ele>
        <time>2017-03-26T13:08:09Z</time>
      </trkpt>
      <trkpt lat="45.29788" lon="4.57356">
        <ele>445.13</ele>
        <time>2017-03-26T13:08:10Z</time>
      </trkpt>
      <trkpt lat="45.29788" lon="4.57356">
        <ele>445.13</ele>
        <time>2017-03-26T13:08:11Z</time>
      </trkpt>
      <trkpt lat="45.29788" lon="4.57356">
        <ele>445.13</ele>
        <time>2017-03-26T13:08:12Z</time>
      </trkpt>
      <trkpt lat="45.29788" lon="4.57356">
        <ele>445.13</ele>
        <time>2017-03-26T13:08:13Z</time>
      </trkpt>
      <trkpt lat="45.29788" lon="4.57356">
        <ele>445.13</ele>
        <time>2017-03-26T13:08:14Z</time>
      </trkpt>
      <trkpt lat="45.29788" lon="4.57356">
        <ele>445.13</ele>
        <time>2017-03-26T13:08:15Z</time>
      </trkpt>
      <trkpt lat="45.29788" lon="4.57356">
        <ele>445.13</ele>
        <time>2017-03-26T13:08:16Z</time>
      </trkpt>
      <trkpt lat="45.29788" lon="4.57356">
        <ele>445.13</ele>
        <time>2017-03-26T13:08:17Z</time>
      </trkpt>
      <trkpt lat="45.29788" lon="4.57356">
        <ele>445.13</ele>
        <time>2017-03-26T13:08:18Z</time>
      </trkpt>
      <trkpt lat="45.29788" lon="4.57356">
        <ele>445.13</ele>
        <time>2017-03-26T13:08:19Z</time>
      </trkpt>
      <trkpt lat="45.29788" lon="4.57356">
        <ele>445.13</ele>
        <time>2017-03-26T13:08:20Z</time>
      </trkpt>
      <trkpt lat="45.29788" lon="4.57356">
        <ele>445.13</ele>
        <time>2017-03-26T13:08:21Z</time>
      </trkpt>
      <trkpt lat="45.29788" lon="4.57356">
        <ele>445.13</ele>
        <time>2017-03-26T13:08:22Z</time>
      </trkpt>
      <trkpt lat="45.29788" lon="4.57356">
        <ele>445.13</ele>
        <time>2017-03-26T13:08:23Z</time>
      </trkpt>
      <trkpt lat="45.29788" lon="4.57356">
        <ele>445.13</ele>
        <time>2017-03-26T13:08:24Z</time>
      </trkpt>
      <trkpt lat="45.29788" lon="4.57356">
        <ele>445.13</ele>
        <time>2017-03-26T13:08:25Z</time>
      </trkpt>
      <trkpt lat="45.29788" lon="4.57356">
        <ele>445.13</ele>
        <time>2017-03-26T13:08:26Z</time>
      </trkpt>
      <trkpt lat="45.29788" lon="4.57356">
        <ele>445.13</ele>
        <time>2017-03-26T13:08:27Z</time>
      </trkpt>
      <trkpt lat="45.29788" lon="4.57356">
        <ele>445.13</ele>
        <time>2017-03-26T13:08:28Z</time>
      </trkpt>
      <trkpt lat="45.29788" lon="4.57356">
        <ele>445.13</ele>
        <time>2017-03-26T13:08:29Z</time>
      </trkpt>
      <trkpt lat="45.29788" lon="4.57356">
        <ele>445.13</ele>
        <time>2017-03-26T13:08:30Z</time>
      </trkpt>
      <trkpt lat="45.29788" lon="4.57356">
        <ele>445.13</ele>
        <time>2017-03-26T13:08:31Z</time>
      </trkpt>
      <trkpt lat="45.29788" lon="4.57356">
        <ele>445.13</ele>
        <time>2017-03-26T13:08:32Z</time>
      </trkpt>
      <trkpt lat="45.29788" lon="4.57356">
        <ele>445.13</ele>
        <time>2017-03-26T13:08:33Z</time>
      </trkpt>
      <trkpt lat="45.29788" lon="4.57356">
        <ele>445.13</ele>
        <time>2017-03-26T13:08:34Z</time>
      </trkpt>
      <trkpt lat="45.29788" lon="4.57356">
        <ele>445.13</ele>
        <time>2017-03-26T13:08:35Z</time>
      </trkpt>
      <trkpt lat="45.29788" lon="4.57356">
        <ele>445.13</ele>
        <time>2017-03-26T13:08:36Z</time>
      </trkpt>
      <trkpt lat="45.29788" lon="4.57356">
        <ele>445.13</ele>
        <time>2017-03-26T13:08:37Z</time>
      </trkpt>
      <trkpt lat="45.29788" lon="4.57356">
        <ele>445.13</ele>
        <time>2017-03-26T13:08:38Z</time>
      </trkpt>
      <trkpt lat="45.29788" lon="4.57356">
        <ele>445.13</ele>
        <time>2017-03-26T13:08:39Z</time>
      </trkpt>
      <trkpt lat="45.29788" lon="4.57356">
        <ele>445.13</ele>
        <time>2017-03-26T13:08:40Z</time>
      </trkpt>
      <trkpt lat="45.29788" lon="4.57356">
        <ele>445.13</ele>
        <time>2017-03-26T13:08:41Z</time>
      </trkpt>
      <trkpt lat="45.29788" lon="4.57356">
        <ele>445.13</ele>
        <time>2017-03-26T13:08:42Z</time>
      </trkpt>
      <trkpt lat="45.29788" lon="4.57356">
        <ele>445.13</ele>
        <time>2017-03-26T13:08:43Z</time>
      </trkpt>
      <trkpt lat="45.29788" lon="4.57356">
        <ele>445.13</ele>
        <time>2017-03-26T13:08:44Z</time>
      </trkpt>
      <trkpt lat="45.29788" lon="4.57356">
        <ele>445.13</ele>
        <time>2017-03-26T13:08:45Z</time>
      </trkpt>
      <trkpt lat="45.29788" lon="4.57356">
        <ele>445.13</ele>
        <time>2017-03-26T13:08:46Z</time>
      </trkpt>
      <trkpt lat="45.29788" lon="4.57356">
        <ele>445.13</ele>
        <time>2017-03-26T13:08:47Z</time>
      </trkpt>
      <trkpt lat="45.29788" lon="4.57356">
        <ele>445.13</ele>
        <time>2017-03-26T13:08:48Z</time>
      </trkpt>
      <trkpt lat="45.29788" lon="4.57356">
        <ele>445.13</ele>
        <time>2017-03-26T13:08:49Z</time>
      </trkpt>
      <trkpt lat="45.29788" lon="4.57356">
        <ele>445.13</ele>
        <time>2017-03-26T13:08:50Z</time>
      </trkpt>
      <trkpt lat="45.29788" lon="4.57356">
        <ele>445.13</ele>
        <time>2017-03-26T13:08:51Z</time>
      </trkpt>
      <trkpt lat="45.29788" lon="4.57356">
        <ele>445.13</ele>
        <time>2017-03-26T13:08:52Z</time>
      </trkpt>
      <trkpt lat="45.29788" lon="4.57356">
        <ele>445.13</ele>
        <time>2017-03-26T13:08:53Z</time>
      </trkpt>
      <trkpt lat="45.29788" lon="4.57356">
        <ele>445.13</ele>
        <time>2017-03-26T13:08:54Z</time>
      </trkpt>
      <trkpt lat="45.29788" lon="4.57356">
        <ele>445.13</ele>
        <time>2017-03-26T13:08:55Z</time>
      </trkpt>
      <trkpt lat="45.29788" lon="4.57356">
        <ele>445.13</ele>
        <time>2017-03-26T13:08:56Z</time>
      </trkpt>
      <trkpt lat="45.29788" lon="4.57356">
        <ele>445.13</ele>
        <time>2017-03-26T13:08:57Z</time>
      </trkpt>
      <trkpt lat="45.29788" lon="4.57356">
        <ele>445.13</ele>
        <time>2017-03-26T13:08:58Z</time>
      </trkpt>
      <trkpt lat="45.29788" lon="4.57356">
        <ele>445.13</ele>
        <time>2017-03-26T13:08:59Z</time>
      </trkpt>
      <trkpt lat="45.29788" lon="4.57356">
        <ele>445.13</ele>
        <time>2017-03-26T13:09:00Z</time>
      </trkpt>
      <trkpt lat="45.29788" lon="4.57356">
        <ele>445.13</ele>
        <time>2017-03-26T13:09:01Z</time>
      </trkpt>
      <trkpt lat="45.29788" lon="4.57356">
        <ele>445.13</ele>
        <time>2017-03-26T13:09:02Z</time>
      </trkpt>
      <trkpt lat="45.29788" lon="4.57356">
        <ele>445.13</ele>
        <time>2017-03-26T13:09:03Z</time>
      </trkpt>
      <trkpt lat="45.29788" lon="4.57356">
        <ele>445.13</ele>
        <time>2017-03-26T13:09:04Z</time>
      </trkpt>
      <trkpt lat="45.29788" lon="4.57356">
        <ele>445.13</ele>
        <time>2017-03-26T13:09:05Z</time>
      </trkpt>
      <trkpt lat="45.29788" lon="4.57356">
        <ele>445.13</ele>
        <time>2017-03-26T13:09:06Z</time>
      </trkpt>
      <trkpt lat="45.29788" lon="4.57356">
        <ele>445.13</ele>
        <time>2017-03-26T13:09:07Z</time>
      </trkpt>
      <trkpt lat="45.29788" lon="4.57356">
        <ele>445.13</ele>
        <time>2017-03-26T13:09:08Z</time>
      </trkpt>
      <trkpt lat="45.29788" lon="4.57356">
        <ele>445.13</ele>
        <time>2017-03-26T13:09:09Z</time>
      </trkpt>
      <trkpt lat="45.29788" lon="4.57356">
        <ele>445.13</ele>
        <time>2017-03-26T13:09:10Z</time>
      </trkpt>
      <trkpt lat="45.29788" lon="4.57356">
        <ele>445.13</ele>
        <time>2017-03-26T13:09:11Z</time>
      </trkpt>
      <trkpt lat="45.29788" lon="4.57356">
        <ele>445.13</ele>
        <time>2017-03-26T13:09:12Z</time>
      </trkpt>
      <trkpt lat="45.29788" lon="4.57356">
        <ele>445.13</ele>
        <time>2017-03-26T13:09:13Z</time>
      </trkpt>
      <trkpt lat="45.29788" lon="4.57356">
        <ele>445.13</ele>
        <time>2017-03-26T13:09:14Z</time>
      </trkpt>
      <trkpt lat="45.29788" lon="4.57356">
        <ele>445.13</ele>
        <time>2017-03-26T13:09:15Z</time>
      </trkpt>
      <trkpt lat="45.29788" lon="4.57356">
        <ele>445.13</ele>
        <time>2017-03-26T13:09:16Z</time>
      </trkpt>
      <trkpt lat="45.29788" lon="4.57356">
        <ele>445.13</ele>
        <time>2017-03-26T13:09:17Z</time>
      </trkpt>
      <trkpt lat="45.29788" lon="4.57356">
        <ele>445.13</ele>
        <time>2017-03-26T13:09:18Z</time>
      </trkpt>
      <trkpt lat="45.29788" lon="4.57356">
        <ele>445.13</ele>
        <time>2017-03-26T13:09:19Z</time>
      </trkpt>
      <trkpt lat="45.29788" lon="4.57356">
        <ele>445.13</ele>
        <time>2017-03-26T13:09:20Z</time>
      </trkpt>
      <trkpt lat="45.29788" lon="4.57356">
        <ele>445.13</ele>
        <time>2017-03-26T13:09:21Z</time>
      </trkpt>
      <trkpt lat="45.29788" lon="4.57356">
        <ele>445.13</ele>
        <time>2017-03-26T13:09:22Z</time>
      </trkpt>
      <trkpt lat="45.29788" lon="4.57356">
        <ele>445.13</ele>
        <time>2017-03-26T13:09:23Z</time>
      </trkpt>
      <trkpt lat="45.29788" lon="4.57356">
        <ele>445.13</ele>
        <time>2017-03-26T13:09:24Z</time>
      </trkpt>
      <trkpt lat="45.29788" lon="4.57356">
        <ele>445.13</ele>
        <time>2017-03-26T13:09:25Z</time>
      </trkpt>
      <trkpt lat="45.29788" lon="4.57356">
        <ele>445.13</ele>
        <time>2017-03-26T13:09:26Z</time>
      </trkpt>
      <trkpt lat="45.29788" lon="4.57356">
        <ele>445.13</ele>
        <time>2017-03-26T13:09:27Z</time>
      </trkpt>
      <trkpt lat="45.29788" lon="4.57356">
        <ele>445.13</ele>
        <time>2017-03-26T13:09:28Z</time>
      </trkpt>
      <trkpt lat="45.29788" lon="4.57356">
        <ele>445.13</ele>
        <time>2017-03-26T13:09:29Z</time>
      </trkpt>
      <trkpt lat="45.29788" lon="4.57356">
        <ele>445.13</ele>
        <time>2017-03-26T13:09:30Z</time>
      </trkpt>
      <trkpt lat="45.29788" lon="4.57356">
        <ele>445.13</ele>
        <time>2017-03-26T13:09:31Z</time>
      </trkpt>
      <trkpt lat="45.29788" lon="4.57356">
        <ele>445.13</ele>
        <time>2017-03-26T13:09:32Z</time>
      </trkpt>
      <trkpt lat="45.29788" lon="4.57356">
        <ele>445.13</ele>
        <time>2017-03-26T13:09:33Z</time>
      </trkpt>
      <trkpt lat="45.29788" lon="4.57356">
        <ele>445.13</ele>
        <time>2017-03-26T13:09:34Z</time>
      </trkpt>
      <trkpt lat="45.29788" lon="4.57356">
        <ele>445.13</ele>
        <time>2017-03-26T13:09:35Z</time>
      </trkpt>
      <trkpt lat="45.29788" lon="4.57356">
        <ele>445.13</ele>
        <time>2017-03-26T13:09:36Z</time>
      </trkpt>
      <trkpt lat="45.29788" lon="4.57356">
        <ele>445.13</ele>
        <time>2017-03-26T13:09:37Z</time>
      </trkpt>
      <trkpt lat="45.29788" lon="4.57356">
        <ele>445.13</ele>
        <time>2017-03-26T13:09:38Z</time>
      </trkpt>
      <trkpt lat="45.29788" lon="4.57356">
        <ele>445.13</ele>
        <time>2017-03-26T13:09:39Z</time>
      </trkpt>
      <trkpt lat="45.29788" lon="4.57356">
        <ele>445.13</ele>
        <time>2017-03-26T13:09:40Z</time>
      </trkpt>
      <trkpt lat="45.29788" lon="4.57356">
        <ele>445.13</ele>
        <time>2017-03-26T13:09:41Z</time>
      </trkpt>
      <trkpt lat="45.29788" lon="4.57356">
        <ele>445.13</ele>
        <time>2017-03-26T13:09:42Z</time>
      </trkpt>
      <trkpt lat="45.29788" lon="4.57356">
        <ele>445.13</ele>
        <time>2017-03-26T13:09:43Z</time>
      </trkpt>
      <trkpt lat="45.29788" lon="4.57356">
        <ele>445.13</ele>
        <time>2017-03-26T13:09:44Z</time>
      </trkpt>
      <trkpt lat="45.29788" lon="4.57356">
        <ele>445.13</ele>
        <time>2017-03-26T13:09:45Z</time>
      </trkpt>
      <trkpt lat="45.29788" lon="4.57356">
        <ele>445.13</ele>
        <time>2017-03-26T13:09:46Z</time>
      </trkpt>
      <trkpt lat="45.29788" lon="4.57356">
        <ele>445.13</ele>
        <time>2017-03-26T13:09:47Z</time>
      </trkpt>
      <trkpt lat="45.29788" lon="4.57356">
        <ele>445.13</ele>
        <time>2017-03-26T13:09:48Z</time>
      </trkpt>
      <trkpt lat="45.29788" lon="4.57356">
        <ele>445.13</ele>
        <time>2017-03-26T13:09:49Z</time>
      </trkpt>
      <trkpt lat="45.29788" lon="4.57356">
        <ele>445.13</ele>
        <time>2017-03-26T13:09:50Z</time>
      </trkpt>
      <trkpt lat="45.29788" lon="4.57356">
        <ele>445.13</ele>
        <time>2017-03-26T13:09:51Z</time>
      </trkpt>
      <trkpt lat="45.29788" lon="4.57356">
        <ele>445.13</ele>
        <time>2017-03-26T13:09:52Z</time>
      </trkpt>
      <trkpt lat="45.29788" lon="4.57356">
        <ele>445.13</ele>
        <time>2017-03-26T13:09:53Z</time>
      </trkpt>
      <trkpt lat="45.29788" lon="4.57356">
        <ele>445.13</ele>
        <time>2017-03-26T13:09:54Z</time>
      </trkpt>
      <trkpt lat="45.29788" lon="4.57356">
        <ele>445.13</ele>
        <time>2017-03-26T13:09:55Z</time>
      </trkpt>
      <trkpt lat="45.29788" lon="4.57356">
        <ele>445.13</ele>
        <time>2017-03-26T13:09:56Z</time>
      </trkpt>
      <trkpt lat="45.29788" lon="4.57356">
        <ele>445.13</ele>
        <time>2017-03-26T13:09:57Z</time>
      </trkpt>
      <trkpt lat="45.29788" lon="4.57356">
        <ele>445.13</ele>
        <time>2017-03-26T13:09:58Z</time>
      </trkpt>
      <trkpt lat="45.29788" lon="4.57356">
        <ele>445.13</ele>
        <time>2017-03-26T13:09:59Z</time>
      </trkpt>
      <trkpt lat="45.29788" lon="4.57356">
        <ele>445.13</ele>
        <time>2017-03-26T13:10:00Z</time>
      </trkpt>
      <trkpt lat="45.29788" lon="4.57356">
        <ele>445.13</ele>
        <time>2017-03-26T13:10:01Z</time>
      </trkpt>
      <trkpt lat="45.29788" lon="4.57356">
        <ele>445.13</ele>
        <time>2017-03-26T13:10:02Z</time>
      </trkpt>
      <trkpt lat="45.29788" lon="4.57356">
        <ele>445.13</ele>
        <time>2017-03-26T13:10:03Z</time>
      </trkpt>
      <trkpt lat="45.29788" lon="4.57356">
        <ele>445.13</ele>
        <time>2017-03-26T13:10:04Z</time>
      </trkpt>
      <trkpt lat="45.29788" lon="4.57356">
        <ele>445.13</ele>
        <time>2017-03-26T13:10:05Z</time>
      </trkpt>
      <trkpt lat="45.29788" lon="4.57356">
        <ele>445.13</ele>
        <time>2017-03-26T13:10:06Z</time>
      </trkpt>
      <trkpt lat="45.29788" lon="4.57356">
        <ele>445.13</ele>
        <time>2017-03-26T13:10:07Z</time>
      </trkpt>
      <trkpt lat="45.29788" lon="4.57356">
        <ele>445.13</ele>
        <time>2017-03-26T13:10:08Z</time>
      </trkpt>
      <trkpt lat="45.29788" lon="4.57356">
        <ele>445.13</ele>
        <time>2017-03-26T13:10:09Z</time>
      </trkpt>
      <trkpt lat="45.29791" lon="4.57368">
        <ele>446.25</ele>
        <time>2017-03-26T13:10:10Z</time>
      </trkpt>
      <trkpt lat="45.29795" lon="4.57371">
        <ele>446.55</ele>
        <time>2017-03-26T13:10:11Z</time>
      </trkpt>
      <trkpt lat="45.29799" lon="4.57372">
        <ele>446.53</ele>
        <time>2017-03-26T13:10:12Z</time>
      </trkpt>
      <trkpt lat="45.29804" lon="4.57373">
        <ele>446.53</ele>
        <time>2017-03-26T13:10:13Z</time>
      </trkpt>
      <trkpt lat="45.29809" lon="4.57373">
        <ele>446.53</ele>
        <time>2017-03-26T13:10:14Z</time>
      </trkpt>
      <trkpt lat="45.29815" lon="4.57375">
        <ele>446.45</ele>
        <time>2017-03-26T13:10:15Z</time>
      </trkpt>
      <trkpt lat="45.2982" lon="4.57376">
        <ele>446.35</ele>
        <time>2017-03-26T13:10:16Z</time>
      </trkpt>
      <trkpt lat="45.29827" lon="4.57376">
        <ele>446.33</ele>
        <time>2017-03-26T13:10:17Z</time>
      </trkpt>
      <trkpt lat="45.29833" lon="4.57375">
        <ele>446.25</ele>
        <time>2017-03-26T13:10:18Z</time>
      </trkpt>
      <trkpt lat="45.2984" lon="4.57374">
        <ele>446.23</ele>
        <time>2017-03-26T13:10:19Z</time>
      </trkpt>
      <trkpt lat="45.29849" lon="4.57372">
        <ele>446.23</ele>
        <time>2017-03-26T13:10:20Z</time>
      </trkpt>
      <trkpt lat="45.29859" lon="4.57371">
        <ele>446.31</ele>
        <time>2017-03-26T13:10:21Z</time>
      </trkpt>
      <trkpt lat="45.29869" lon="4.57369">
        <ele>446.49</ele>
        <time>2017-03-26T13:10:22Z</time>
      </trkpt>
      <trkpt lat="45.2988" lon="4.57368">
        <ele>446.6</ele>
        <time>2017-03-26T13:10:23Z</time>
      </trkpt>
      <trkpt lat="45.2989" lon="4.57367">
        <ele>446.78</ele>
        <time>2017-03-26T13:10:24Z</time>
      </trkpt>
      <trkpt lat="45.299" lon="4.57367">
        <ele>446.74</ele>
        <time>2017-03-26T13:10:25Z</time>
      </trkpt>
      <trkpt lat="45.29908" lon="4.5737">
        <ele>446.89</ele>
        <time>2017-03-26T13:10:26Z</time>
      </trkpt>
      <trkpt lat="45.29915" lon="4.57377">
        <ele>447.08</ele>
        <time>2017-03-26T13:10:27Z</time>
      </trkpt>
      <trkpt lat="45.29921" lon="4.57387">
        <ele>447.2</ele>
        <time>2017-03-26T13:10:28Z</time>
      </trkpt>
      <trkpt lat="45.29926" lon="4.57398">
        <ele>447.3</ele>
        <time>2017-03-26T13:10:29Z</time>
      </trkpt>
      <trkpt lat="45.2993" lon="4.5741">
        <ele>447.4</ele>
        <time>2017-03-26T13:10:30Z</time>
      </trkpt>
      <trkpt lat="45.29935" lon="4.57423">
        <ele>447.42</ele>
        <time>2017-03-26T13:10:31Z</time>
      </trkpt>
      <trkpt lat="45.29938" lon="4.57439">
        <ele>447.51</ele>
        <time>2017-03-26T13:10:32Z</time>
      </trkpt>
      <trkpt lat="45.29942" lon="4.57456">
        <ele>447.61</ele>
        <time>2017-03-26T13:10:33Z</time>
      </trkpt>
      <trkpt lat="45.29944" lon="4.57475">
        <ele>447.71</ele>
        <time>2017-03-26T13:10:34Z</time>
      </trkpt>
      <trkpt lat="45.29946" lon="4.57497">
        <ele>447.65</ele>
        <time>2017-03-26T13:10:35Z</time>
      </trkpt>
      <trkpt lat="45.29947" lon="4.57518">
        <ele>447.63</ele>
        <time>2017-03-26T13:10:36Z</time>
      </trkpt>
      <trkpt lat="45.29949" lon="4.57541">
        <ele>447.63</ele>
        <time>2017-03-26T13:10:37Z</time>
      </trkpt>
      <trkpt lat="45.2995" lon="4.57563">
        <ele>447.63</ele>
        <time>2017-03-26T13:10:38Z</time>
      </trkpt>
      <trkpt lat="45.29951" lon="4.57586">
        <ele>447.71</ele>
        <time>2017-03-26T13:10:39Z</time>
      </trkpt>
      <trkpt lat="45.29953" lon="4.57609">
        <ele>447.73</ele>
        <time>2017-03-26T13:10:40Z</time>
      </trkpt>
      <trkpt lat="45.29954" lon="4.57633">
        <ele>447.81</ele>
        <time>2017-03-26T13:10:41Z</time>
      </trkpt>
      <trkpt lat="45.29956" lon="4.57657">
        <ele>447.91</ele>
        <time>2017-03-26T13:10:42Z</time>
      </trkpt>
      <trkpt lat="45.29957" lon="4.57682">
        <ele>448.09</ele>
        <time>2017-03-26T13:10:43Z</time>
      </trkpt>
      <trkpt lat="45.29959" lon="4.57706">
        <ele>448.28</ele>
        <time>2017-03-26T13:10:44Z</time>
      </trkpt>
      <trkpt lat="45.2996" lon="4.57731">
        <ele>448.56</ele>
        <time>2017-03-26T13:10:45Z</time>
      </trkpt>
      <trkpt lat="45.29961" lon="4.57756">
        <ele>448.78</ele>
        <time>2017-03-26T13:10:46Z</time>
      </trkpt>
      <trkpt lat="45.29961" lon="4.57781">
        <ele>448.98</ele>
        <time>2017-03-26T13:10:47Z</time>
      </trkpt>
      <trkpt lat="45.29961" lon="4.57805">
        <ele>449.18</ele>
        <time>2017-03-26T13:10:48Z</time>
      </trkpt>
      <trkpt lat="45.2996" lon="4.57831">
        <ele>449.54</ele>
        <time>2017-03-26T13:10:49Z</time>
      </trkpt>
      <trkpt lat="45.29959" lon="4.57856">
        <ele>449.53</ele>
        <time>2017-03-26T13:10:50Z</time>
      </trkpt>
      <trkpt lat="45.29958" lon="4.57882">
        <ele>449.53</ele>
        <time>2017-03-26T13:10:51Z</time>
      </trkpt>
      <trkpt lat="45.29958" lon="4.57908">
        <ele>449.45</ele>
        <time>2017-03-26T13:10:52Z</time>
      </trkpt>
      <trkpt lat="45.29959" lon="4.57934">
        <ele>449.51</ele>
        <time>2017-03-26T13:10:53Z</time>
      </trkpt>
      <trkpt lat="45.29959" lon="4.57959">
        <ele>449.45</ele>
        <time>2017-03-26T13:10:54Z</time>
      </trkpt>
      <trkpt lat="45.2996" lon="4.57984">
        <ele>449.51</ele>
        <time>2017-03-26T13:10:55Z</time>
      </trkpt>
      <trkpt lat="45.29962" lon="4.58009">
        <ele>449.45</ele>
        <time>2017-03-26T13:10:56Z</time>
      </trkpt>
      <trkpt lat="45.29964" lon="4.58035">
        <ele>449.43</ele>
        <time>2017-03-26T13:10:57Z</time>
      </trkpt>
      <trkpt lat="45.29966" lon="4.5806">
        <ele>449.51</ele>
        <time>2017-03-26T13:10:58Z</time>
      </trkpt>
      <trkpt lat="45.29968" lon="4.58086">
        <ele>449.45</ele>
        <time>2017-03-26T13:10:59Z</time>
      </trkpt>
      <trkpt lat="45.29969" lon="4.58111">
        <ele>449.51</ele>
        <time>2017-03-26T13:11:00Z</time>
      </trkpt>
      <trkpt lat="45.2997" lon="4.58135">
        <ele>449.77</ele>
        <time>2017-03-26T13:11:01Z</time>
      </trkpt>
      <trkpt lat="45.29971" lon="4.58158">
        <ele>449.98</ele>
        <time>2017-03-26T13:11:02Z</time>
      </trkpt>
      <trkpt lat="45.29973" lon="4.58181">
        <ele>450.26</ele>
        <time>2017-03-26T13:11:03Z</time>
      </trkpt>
      <trkpt lat="45.29974" lon="4.58204">
        <ele>450.64</ele>
        <time>2017-03-26T13:11:04Z</time>
      </trkpt>
      <trkpt lat="45.29975" lon="4.58227">
        <ele>450.87</ele>
        <time>2017-03-26T13:11:05Z</time>
      </trkpt>
      <trkpt lat="45.29976" lon="4.58252">
        <ele>450.92</ele>
        <time>2017-03-26T13:11:06Z</time>
      </trkpt>
      <trkpt lat="45.29977" lon="4.58277">
        <ele>450.93</ele>
        <time>2017-03-26T13:11:07Z</time>
      </trkpt>
      <trkpt lat="45.29977" lon="4.58301">
        <ele>450.93</ele>
        <time>2017-03-26T13:11:08Z</time>
      </trkpt>
      <trkpt lat="45.29974" lon="4.58325">
        <ele>450.93</ele>
        <time>2017-03-26T13:11:09Z</time>
      </trkpt>
      <trkpt lat="45.29969" lon="4.58349">
        <ele>450.77</ele>
        <time>2017-03-26T13:11:10Z</time>
      </trkpt>
      <trkpt lat="45.29963" lon="4.58372">
        <ele>450.74</ele>
        <time>2017-03-26T13:11:11Z</time>
      </trkpt>
      <trkpt lat="45.29956" lon="4.58396">
        <ele>450.57</ele>
        <time>2017-03-26T13:11:12Z</time>
      </trkpt>
      <trkpt lat="45.29951" lon="4.58421">
        <ele>450.62</ele>
        <time>2017-03-26T13:11:13Z</time>
      </trkpt>
      <trkpt lat="45.29946" lon="4.58446">
        <ele>450.55</ele>
        <time>2017-03-26T13:11:14Z</time>
      </trkpt>
      <trkpt lat="45.29942" lon="4.58472">
        <ele>450.29</ele>
        <time>2017-03-26T13:11:15Z</time>
      </trkpt>
      <trkpt lat="45.29939" lon="4.58498">
        <ele>450.16</ele>
        <time>2017-03-26T13:11:16Z</time>
      </trkpt>
      <trkpt lat="45.29936" lon="4.58524">
        <ele>449.9</ele>
        <time>2017-03-26T13:11:17Z</time>
      </trkpt>
      <trkpt lat="45.29934" lon="4.58551">
        <ele>449.68</ele>
        <time>2017-03-26T13:11:18Z</time>
      </trkpt>
      <trkpt lat="45.29933" lon="4.58578">
        <ele>449.48</ele>
        <time>2017-03-26T13:11:19Z</time>
      </trkpt>
      <trkpt lat="45.29931" lon="4.58605">
        <ele>449.04</ele>
        <time>2017-03-26T13:11:20Z</time>
      </trkpt>
      <trkpt lat="45.29931" lon="4.58633">
        <ele>449.03</ele>
        <time>2017-03-26T13:11:21Z</time>
      </trkpt>
      <trkpt lat="45.29932" lon="4.5866">
        <ele>448.79</ele>
        <time>2017-03-26T13:11:22Z</time>
      </trkpt>
      <trkpt lat="45.29933" lon="4.58687">
        <ele>448.5</ele>
        <time>2017-03-26T13:11:23Z</time>
      </trkpt>
      <trkpt lat="45.29935" lon="4.58713">
        <ele>447.96</ele>
        <time>2017-03-26T13:11:24Z</time>
      </trkpt>
      <trkpt lat="45.29938" lon="4.58739">
        <ele>447.62</ele>
        <time>2017-03-26T13:11:25Z</time>
      </trkpt>
      <trkpt lat="45.2994" lon="4.58763">
        <ele>447.23</ele>
        <time>2017-03-26T13:11:26Z</time>
      </trkpt>
      <trkpt lat="45.29942" lon="4.58787">
        <ele>446.75</ele>
        <time>2017-03-26T13:11:27Z</time>
      </trkpt>
      <trkpt lat="45.29944" lon="4.58811">
        <ele>446.17</ele>
        <time>2017-03-26T13:11:28Z</time>
      </trkpt>
      <trkpt lat="45.29944" lon="4.58835">
        <ele>445.26</ele>
        <time>2017-03-26T13:11:29Z</time>
      </trkpt>
      <trkpt lat="45.29943" lon="4.5886">
        <ele>444.44</ele>
        <time>2017-03-26T13:11:30Z</time>
      </trkpt>
      <trkpt lat="45.29939" lon="4.58886">
        <ele>443.47</ele>
        <time>2017-03-26T13:11:31Z</time>
      </trkpt>
      <trkpt lat="45.29931" lon="4.58911">
        <ele>442.56</ele>
        <time>2017-03-26T13:11:32Z</time>
      </trkpt>
      <trkpt lat="45.2992" lon="4.58936">
        <ele>441.82</ele>
        <time>2017-03-26T13:11:33Z</time>
      </trkpt>
      <trkpt lat="45.29907" lon="4.58958">
        <ele>440.95</ele>
        <time>2017-03-26T13:11:34Z</time>
      </trkpt>
      <trkpt lat="45.29893" lon="4.5898">
        <ele>440.05</ele>
        <time>2017-03-26T13:11:35Z</time>
      </trkpt>
      <trkpt lat="45.29878" lon="4.59">
        <ele>439.31</ele>
        <time>2017-03-26T13:11:36Z</time>
      </trkpt>
      <trkpt lat="45.29864" lon="4.5902">
        <ele>438.77</ele>
        <time>2017-03-26T13:11:37Z</time>
      </trkpt>
      <trkpt lat="45.2985" lon="4.59039">
        <ele>438.18</ele>
        <time>2017-03-26T13:11:38Z</time>
      </trkpt>
      <trkpt lat="45.29836" lon="4.59058">
        <ele>437.66</ele>
        <time>2017-03-26T13:11:39Z</time>
      </trkpt>
      <trkpt lat="45.29823" lon="4.59075">
        <ele>437.24</ele>
        <time>2017-03-26T13:11:40Z</time>
      </trkpt>
      <trkpt lat="45.29809" lon="4.59091">
        <ele>436.91</ele>
        <time>2017-03-26T13:11:41Z</time>
      </trkpt>
      <trkpt lat="45.29795" lon="4.59105">
        <ele>436.45</ele>
        <time>2017-03-26T13:11:42Z</time>
      </trkpt>
      <trkpt lat="45.2978" lon="4.59118">
        <ele>436.03</ele>
        <time>2017-03-26T13:11:43Z</time>
      </trkpt>
      <trkpt lat="45.29765" lon="4.59129">
        <ele>435.79</ele>
        <time>2017-03-26T13:11:44Z</time>
      </trkpt>
      <trkpt lat="45.29749" lon="4.59139">
        <ele>435.66</ele>
        <time>2017-03-26T13:11:45Z</time>
      </trkpt>
      <trkpt lat="45.29732" lon="4.5915">
        <ele>435.4</ele>
        <time>2017-03-26T13:11:46Z</time>
      </trkpt>
      <trkpt lat="45.29716" lon="4.59161">
        <ele>435.1</ele>
        <time>2017-03-26T13:11:47Z</time>
      </trkpt>
      <trkpt lat="45.29699" lon="4.59171">
        <ele>434.96</ele>
        <time>2017-03-26T13:11:48Z</time>
      </trkpt>
      <trkpt lat="45.29682" lon="4.59181">
        <ele>434.7</ele>
        <time>2017-03-26T13:11:49Z</time>
      </trkpt>
      <trkpt lat="45.29665" lon="4.59189">
        <ele>434.48</ele>
        <time>2017-03-26T13:11:50Z</time>
      </trkpt>
      <trkpt lat="45.29647" lon="4.59197">
        <ele>434.44</ele>
        <time>2017-03-26T13:11:51Z</time>
      </trkpt>
      <trkpt lat="45.29629" lon="4.59205">
        <ele>433.79</ele>
        <time>2017-03-26T13:11:52Z</time>
      </trkpt>
      <trkpt lat="45.2961" lon="4.59212">
        <ele>433.34</ele>
        <time>2017-03-26T13:11:53Z</time>
      </trkpt>
      <trkpt lat="45.2959" lon="4.59219">
        <ele>432.37</ele>
        <time>2017-03-26T13:11:54Z</time>
      </trkpt>
      <trkpt lat="45.29569" lon="4.59224">
        <ele>431.38</ele>
        <time>2017-03-26T13:11:55Z</time>
      </trkpt>
      <trkpt lat="45.29549" lon="4.59227">
        <ele>430.62</ele>
        <time>2017-03-26T13:11:56Z</time>
      </trkpt>
      <trkpt lat="45.29529" lon="4.59229">
        <ele>430.15</ele>
        <time>2017-03-26T13:11:57Z</time>
      </trkpt>
      <trkpt lat="45.29508" lon="4.59231">
        <ele>429.73</ele>
        <time>2017-03-26T13:11:58Z</time>
      </trkpt>
      <trkpt lat="45.29487" lon="4.59234">
        <ele>429.25</ele>
        <time>2017-03-26T13:11:59Z</time>
      </trkpt>
      <trkpt lat="45.29467" lon="4.59236">
        <ele>428.91</ele>
        <time>2017-03-26T13:12:00Z</time>
      </trkpt>
      <trkpt lat="45.29446" lon="4.59238">
        <ele>428.37</ele>
        <time>2017-03-26T13:12:01Z</time>
      </trkpt>
      <trkpt lat="45.29425" lon="4.5924">
        <ele>427.78</ele>
        <time>2017-03-26T13:12:02Z</time>
      </trkpt>
      <trkpt lat="45.29404" lon="4.59241">
        <ele>427.18</ele>
        <time>2017-03-26T13:12:03Z</time>
      </trkpt>
      <trkpt lat="45.29382" lon="4.59242">
        <ele>426.74</ele>
        <time>2017-03-26T13:12:04Z</time>
      </trkpt>
      <trkpt lat="45.29361" lon="4.59244">
        <ele>426.49</ele>
        <time>2017-03-26T13:12:05Z</time>
      </trkpt>
      <trkpt lat="45.29339" lon="4.59246">
        <ele>426.36</ele>
        <time>2017-03-26T13:12:06Z</time>
      </trkpt>
      <trkpt lat="45.29317" lon="4.59249">
        <ele>426.1</ele>
        <time>2017-03-26T13:12:07Z</time>
      </trkpt>
      <trkpt lat="45.29292" lon="4.5925">
        <ele>425.56</ele>
        <time>2017-03-26T13:12:08Z</time>
      </trkpt>
      <trkpt lat="45.29267" lon="4.59253">
        <ele>425.22</ele>
        <time>2017-03-26T13:12:09Z</time>
      </trkpt>
      <trkpt lat="45.29243" lon="4.59255">
        <ele>424.67</ele>
        <time>2017-03-26T13:12:10Z</time>
      </trkpt>
      <trkpt lat="45.29219" lon="4.59257">
        <ele>424.16</ele>
        <time>2017-03-26T13:12:11Z</time>
      </trkpt>
      <trkpt lat="45.29197" lon="4.5926">
        <ele>423.82</ele>
        <time>2017-03-26T13:12:12Z</time>
      </trkpt>
      <trkpt lat="45.29176" lon="4.59264">
        <ele>423.51</ele>
        <time>2017-03-26T13:12:13Z</time>
      </trkpt>
      <trkpt lat="45.29157" lon="4.5927">
        <ele>423.13</ele>
        <time>2017-03-26T13:12:14Z</time>
      </trkpt>
      <trkpt lat="45.29139" lon="4.59284">
        <ele>422.57</ele>
        <time>2017-03-26T13:12:15Z</time>
      </trkpt>
      <trkpt lat="45.29121" lon="4.59298">
        <ele>422.14</ele>
        <time>2017-03-26T13:12:16Z</time>
      </trkpt>
      <trkpt lat="45.29104" lon="4.59315">
        <ele>421.65</ele>
        <time>2017-03-26T13:12:17Z</time>
      </trkpt>
      <trkpt lat="45.29093" lon="4.59338">
        <ele>421.15</ele>
        <time>2017-03-26T13:12:18Z</time>
      </trkpt>
      <trkpt lat="45.29089" lon="4.59372">
        <ele>420.89</ele>
        <time>2017-03-26T13:12:19Z</time>
      </trkpt>
      <trkpt lat="45.29084" lon="4.59408">
        <ele>420.04</ele>
        <time>2017-03-26T13:12:20Z</time>
      </trkpt>
      <trkpt lat="45.29076" lon="4.59442">
        <ele>420.75</ele>
        <time>2017-03-26T13:12:21Z</time>
      </trkpt>
      <trkpt lat="45.29066" lon="4.59475">
        <ele>420.73</ele>
        <time>2017-03-26T13:12:22Z</time>
      </trkpt>
      <trkpt lat="45.29054" lon="4.59505">
        <ele>420.33</ele>
        <time>2017-03-26T13:12:23Z</time>
      </trkpt>
      <trkpt lat="45.2904" lon="4.59532">
        <ele>420.01</ele>
        <time>2017-03-26T13:12:24Z</time>
      </trkpt>
      <trkpt lat="45.29026" lon="4.59556">
        <ele>419.71</ele>
        <time>2017-03-26T13:12:25Z</time>
      </trkpt>
      <trkpt lat="45.29011" lon="4.59576">
        <ele>419.33</ele>
        <time>2017-03-26T13:12:26Z</time>
      </trkpt>
      <trkpt lat="45.28996" lon="4.59595">
        <ele>419.01</ele>
        <time>2017-03-26T13:12:27Z</time>
      </trkpt>
      <trkpt lat="45.28982" lon="4.59612">
        <ele>418.87</ele>
        <time>2017-03-26T13:12:28Z</time>
      </trkpt>
      <trkpt lat="45.28971" lon="4.59631">
        <ele>418.6</ele>
        <time>2017-03-26T13:12:29Z</time>
      </trkpt>
      <trkpt lat="45.28963" lon="4.59653">
        <ele>418.46</ele>
        <time>2017-03-26T13:12:30Z</time>
      </trkpt>
      <trkpt lat="45.28957" lon="4.59678">
        <ele>418.28</ele>
        <time>2017-03-26T13:12:31Z</time>
      </trkpt>
      <trkpt lat="45.28959" lon="4.59708">
        <ele>418.16</ele>
        <time>2017-03-26T13:12:32Z</time>
      </trkpt>
      <trkpt lat="45.28962" lon="4.59739">
        <ele>417.9</ele>
        <time>2017-03-26T13:12:33Z</time>
      </trkpt>
      <trkpt lat="45.28965" lon="4.59772">
        <ele>417.6</ele>
        <time>2017-03-26T13:12:34Z</time>
      </trkpt>
      <trkpt lat="45.28968" lon="4.59805">
        <ele>417.38</ele>
        <time>2017-03-26T13:12:35Z</time>
      </trkpt>
      <trkpt lat="45.28973" lon="4.59837">
        <ele>417.02</ele>
        <time>2017-03-26T13:12:36Z</time>
      </trkpt>
      <trkpt lat="45.28981" lon="4.59867">
        <ele>416.63</ele>
        <time>2017-03-26T13:12:37Z</time>
      </trkpt>
      <trkpt lat="45.28991" lon="4.59896">
        <ele>416.31</ele>
        <time>2017-03-26T13:12:38Z</time>
      </trkpt>
      <trkpt lat="45.29008" lon="4.59922">
        <ele>415.77</ele>
        <time>2017-03-26T13:12:39Z</time>
      </trkpt>
      <trkpt lat="45.29027" lon="4.59944">
        <ele>415.26</ele>
        <time>2017-03-26T13:12:40Z</time>
      </trkpt>
      <trkpt lat="45.29046" lon="4.59966">
        <ele>415</ele>
        <time>2017-03-26T13:12:41Z</time>
      </trkpt>
      <trkpt lat="45.29065" lon="4.59987">
        <ele>414.7</ele>
        <time>2017-03-26T13:12:42Z</time>
      </trkpt>
      <trkpt lat="45.29085" lon="4.60008">
        <ele>414.16</ele>
        <time>2017-03-26T13:12:43Z</time>
      </trkpt>
      <trkpt lat="45.29106" lon="4.6003">
        <ele>413.66</ele>
        <time>2017-03-26T13:12:44Z</time>
      </trkpt>
      <trkpt lat="45.29125" lon="4.60053">
        <ele>413.32</ele>
        <time>2017-03-26T13:12:45Z</time>
      </trkpt>
      <trkpt lat="45.29144" lon="4.60077">
        <ele>413.25</ele>
        <time>2017-03-26T13:12:46Z</time>
      </trkpt>
      <trkpt lat="45.2916" lon="4.60104">
        <ele>413.15</ele>
        <time>2017-03-26T13:12:47Z</time>
      </trkpt>
      <trkpt lat="45.29174" lon="4.60132">
        <ele>412.65</ele>
        <time>2017-03-26T13:12:48Z</time>
      </trkpt>
      <trkpt lat="45.29182" lon="4.60162">
        <ele>411.91</ele>
        <time>2017-03-26T13:12:49Z</time>
      </trkpt>
      <trkpt lat="45.29188" lon="4.60194">
        <ele>411.21</ele>
        <time>2017-03-26T13:12:50Z</time>
      </trkpt>
      <trkpt lat="45.29192" lon="4.60226">
        <ele>410.59</ele>
        <time>2017-03-26T13:12:51Z</time>
      </trkpt>
      <trkpt lat="45.29194" lon="4.6026">
        <ele>410.06</ele>
        <time>2017-03-26T13:12:52Z</time>
      </trkpt>
      <trkpt lat="45.29196" lon="4.60294">
        <ele>409.64</ele>
        <time>2017-03-26T13:12:53Z</time>
      </trkpt>
      <trkpt lat="45.29198" lon="4.60329">
        <ele>408.75</ele>
        <time>2017-03-26T13:12:54Z</time>
      </trkpt>
      <trkpt lat="45.29201" lon="4.60364">
        <ele>408.17</ele>
        <time>2017-03-26T13:12:55Z</time>
      </trkpt>
      <trkpt lat="45.29204" lon="4.60398">
        <ele>407.5</ele>
        <time>2017-03-26T13:12:56Z</time>
      </trkpt>
      <trkpt lat="45.29207" lon="4.60433">
        <ele>406.88</ele>
        <time>2017-03-26T13:12:57Z</time>
      </trkpt>
      <trkpt lat="45.2921" lon="4.60467">
        <ele>406.2</ele>
        <time>2017-03-26T13:12:58Z</time>
      </trkpt>
      <trkpt lat="45.29213" lon="4.60502">
        <ele>405.5</ele>
        <time>2017-03-26T13:12:59Z</time>
      </trkpt>
      <trkpt lat="45.29216" lon="4.60536">
        <ele>404.64</ele>
        <time>2017-03-26T13:13:00Z</time>
      </trkpt>
      <trkpt lat="45.29219" lon="4.6057">
        <ele>403.67</ele>
        <time>2017-03-26T13:13:01Z</time>
      </trkpt>
      <trkpt lat="45.29222" lon="4.60605">
        <ele>403.08</ele>
        <time>2017-03-26T13:13:02Z</time>
      </trkpt>
      <trkpt lat="45.29225" lon="4.60638">
        <ele>402.4</ele>
        <time>2017-03-26T13:13:03Z</time>
      </trkpt>
      <trkpt lat="45.29229" lon="4.60672">
        <ele>401.78</ele>
        <time>2017-03-26T13:13:04Z</time>
      </trkpt>
      <trkpt lat="45.29232" lon="4.60706">
        <ele>401.66</ele>
        <time>2017-03-26T13:13:05Z</time>
      </trkpt>
      <trkpt lat="45.29239" lon="4.60741">
        <ele>401.8</ele>
        <time>2017-03-26T13:13:06Z</time>
      </trkpt>
      <trkpt lat="45.29246" lon="4.60773">
        <ele>401.98</ele>
        <time>2017-03-26T13:13:07Z</time>
      </trkpt>
      <trkpt lat="45.29256" lon="4.60806">
        <ele>402.02</ele>
        <time>2017-03-26T13:13:08Z</time>
      </trkpt>
      <trkpt lat="45.29266" lon="4.60838">
        <ele>402.19</ele>
        <time>2017-03-26T13:13:09Z</time>
      </trkpt>
      <trkpt lat="45.29274" lon="4.6087">
        <ele>402.46</ele>
        <time>2017-03-26T13:13:10Z</time>
      </trkpt>
      <trkpt lat="45.2928" lon="4.60904">
        <ele>402.6</ele>
        <time>2017-03-26T13:13:11Z</time>
      </trkpt>
      <trkpt lat="45.29282" lon="4.60938">
        <ele>403.1</ele>
        <time>2017-03-26T13:13:12Z</time>
      </trkpt>
      <trkpt lat="45.29283" lon="4.60973">
        <ele>403.04</ele>
        <time>2017-03-26T13:13:13Z</time>
      </trkpt>
      <trkpt lat="45.29283" lon="4.61008">
        <ele>403.03</ele>
        <time>2017-03-26T13:13:14Z</time>
      </trkpt>
      <trkpt lat="45.29282" lon="4.61043">
        <ele>402.95</ele>
        <time>2017-03-26T13:13:15Z</time>
      </trkpt>
      <trkpt lat="45.2928" lon="4.61078">
        <ele>402.69</ele>
        <time>2017-03-26T13:13:16Z</time>
      </trkpt>
      <trkpt lat="45.29278" lon="4.61112">
        <ele>402.08</ele>
        <time>2017-03-26T13:13:17Z</time>
      </trkpt>
      <trkpt lat="45.29272" lon="4.61145">
        <ele>401.64</ele>
        <time>2017-03-26T13:13:18Z</time>
      </trkpt>
      <trkpt lat="45.29263" lon="4.61175">
        <ele>401.23</ele>
        <time>2017-03-26T13:13:19Z</time>
      </trkpt>
      <trkpt lat="45.29251" lon="4.61204">
        <ele>400.91</ele>
        <time>2017-03-26T13:13:20Z</time>
      </trkpt>
      <trkpt lat="45.2924" lon="4.61232">
        <ele>400.37</ele>
        <time>2017-03-26T13:13:21Z</time>
      </trkpt>
      <trkpt lat="45.29229" lon="4.61262">
        <ele>399.78</ele>
        <time>2017-03-26T13:13:22Z</time>
      </trkpt>
      <trkpt lat="45.29224" lon="4.61295">
        <ele>399.26</ele>
        <time>2017-03-26T13:13:23Z</time>
      </trkpt>
      <trkpt lat="45.2922" lon="4.61328">
        <ele>398.68</ele>
        <time>2017-03-26T13:13:24Z</time>
      </trkpt>
      <trkpt lat="45.2922" lon="4.6136">
        <ele>398.24</ele>
        <time>2017-03-26T13:13:25Z</time>
      </trkpt>
      <trkpt lat="45.29221" lon="4.61389">
        <ele>397.83</ele>
        <time>2017-03-26T13:13:26Z</time>
      </trkpt>
      <trkpt lat="45.29225" lon="4.61417">
        <ele>397.27</ele>
        <time>2017-03-26T13:13:27Z</time>
      </trkpt>
      <trkpt lat="45.29233" lon="4.61445">
        <ele>397</ele>
        <time>2017-03-26T13:13:28Z</time>
      </trkpt>
      <trkpt lat="45.29241" lon="4.61474">
        <ele>396.7</ele>
        <time>2017-03-26T13:13:29Z</time>
      </trkpt>
      <trkpt lat="45.2925" lon="4.61503">
        <ele>395.92</ele>
        <time>2017-03-26T13:13:30Z</time>
      </trkpt>
      <trkpt lat="45.29259" lon="4.61533">
        <ele>395.13</ele>
        <time>2017-03-26T13:13:31Z</time>
      </trkpt>
      <trkpt lat="45.29268" lon="4.61563">
        <ele>394.33</ele>
        <time>2017-03-26T13:13:32Z</time>
      </trkpt>
      <trkpt lat="45.29276" lon="4.61593">
        <ele>393.53</ele>
        <time>2017-03-26T13:13:33Z</time>
      </trkpt>
      <trkpt lat="45.29285" lon="4.61622">
        <ele>392.97</ele>
        <time>2017-03-26T13:13:34Z</time>
      </trkpt>
      <trkpt lat="45.29293" lon="4.6165">
        <ele>392.54</ele>
        <time>2017-03-26T13:13:35Z</time>
      </trkpt>
      <trkpt lat="45.293" lon="4.61678">
        <ele>391.81</ele>
        <time>2017-03-26T13:13:36Z</time>
      </trkpt>
      <trkpt lat="45.29306" lon="4.61706">
        <ele>391.19</ele>
        <time>2017-03-26T13:13:37Z</time>
      </trkpt>
      <trkpt lat="45.2931" lon="4.61734">
        <ele>390.66</ele>
        <time>2017-03-26T13:13:38Z</time>
      </trkpt>
      <trkpt lat="45.29311" lon="4.61763">
        <ele>390.08</ele>
        <time>2017-03-26T13:13:39Z</time>
      </trkpt>
      <trkpt lat="45.2931" lon="4.61792">
        <ele>389.4</ele>
        <time>2017-03-26T13:13:40Z</time>
      </trkpt>
      <trkpt lat="45.29307" lon="4.61822">
        <ele>388.46</ele>
        <time>2017-03-26T13:13:41Z</time>
      </trkpt>
      <trkpt lat="45.29303" lon="4.61853">
        <ele>387.56</ele>
        <time>2017-03-26T13:13:42Z</time>
      </trkpt>
      <trkpt lat="45.29298" lon="4.61883">
        <ele>386.74</ele>
        <time>2017-03-26T13:13:43Z</time>
      </trkpt>
      <trkpt lat="45.29294" lon="4.61913">
        <ele>385.45</ele>
        <time>2017-03-26T13:13:44Z</time>
      </trkpt>
      <trkpt lat="45.29289" lon="4.61944">
        <ele>384.47</ele>
        <time>2017-03-26T13:13:45Z</time>
      </trkpt>
      <trkpt lat="45.29284" lon="4.61975">
        <ele>383.8</ele>
        <time>2017-03-26T13:13:46Z</time>
      </trkpt>
      <trkpt lat="45.29279" lon="4.62006">
        <ele>383.1</ele>
        <time>2017-03-26T13:13:47Z</time>
      </trkpt>
      <trkpt lat="45.29274" lon="4.62037">
        <ele>382.4</ele>
        <time>2017-03-26T13:13:48Z</time>
      </trkpt>
      <trkpt lat="45.29269" lon="4.62068">
        <ele>381.86</ele>
        <time>2017-03-26T13:13:49Z</time>
      </trkpt>
      <trkpt lat="45.29265" lon="4.62099">
        <ele>381.2</ele>
        <time>2017-03-26T13:13:50Z</time>
      </trkpt>
      <trkpt lat="45.2926" lon="4.6213">
        <ele>380.74</ele>
        <time>2017-03-26T13:13:51Z</time>
      </trkpt>
      <trkpt lat="45.29255" lon="4.62161">
        <ele>380.33</ele>
        <time>2017-03-26T13:13:52Z</time>
      </trkpt>
      <trkpt lat="45.29251" lon="4.62192">
        <ele>380.17</ele>
        <time>2017-03-26T13:13:53Z</time>
      </trkpt>
      <trkpt lat="45.29246" lon="4.62222">
        <ele>380.22</ele>
        <time>2017-03-26T13:13:54Z</time>
      </trkpt>
      <trkpt lat="45.29241" lon="4.62252">
        <ele>380.95</ele>
        <time>2017-03-26T13:13:55Z</time>
      </trkpt>
      <trkpt lat="45.29236" lon="4.62281">
        <ele>381.17</ele>
        <time>2017-03-26T13:13:56Z</time>
      </trkpt>
      <trkpt lat="45.29232" lon="4.62309">
        <ele>381.06</ele>
        <time>2017-03-26T13:13:57Z</time>
      </trkpt>
      <trkpt lat="45.29228" lon="4.62336">
        <ele>381.52</ele>
        <time>2017-03-26T13:13:58Z</time>
      </trkpt>
      <trkpt lat="45.29225" lon="4.62362">
        <ele>381.77</ele>
        <time>2017-03-26T13:13:59Z</time>
      </trkpt>
      <trkpt lat="45.29224" lon="4.62386">
        <ele>381.74</ele>
        <time>2017-03-26T13:14:00Z</time>
      </trkpt>
      <trkpt lat="45.29224" lon="4.6241">
        <ele>381.81</ele>
        <time>2017-03-26T13:14:01Z</time>
      </trkpt>
      <trkpt lat="45.29225" lon="4.62434">
        <ele>381.83</ele>
        <time>2017-03-26T13:14:02Z</time>
      </trkpt>
      <trkpt lat="45.29225" lon="4.62458">
        <ele>381.59</ele>
        <time>2017-03-26T13:14:03Z</time>
      </trkpt>
      <trkpt lat="45.29224" lon="4.62484">
        <ele>381.46</ele>
        <time>2017-03-26T13:14:04Z</time>
      </trkpt>
      <trkpt lat="45.29223" lon="4.62511">
        <ele>381.28</ele>
        <time>2017-03-26T13:14:05Z</time>
      </trkpt>
      <trkpt lat="45.2922" lon="4.62538">
        <ele>380.92</ele>
        <time>2017-03-26T13:14:06Z</time>
      </trkpt>
      <trkpt lat="45.29217" lon="4.62566">
        <ele>380.45</ele>
        <time>2017-03-26T13:14:07Z</time>
      </trkpt>
      <trkpt lat="45.29212" lon="4.62594">
        <ele>380.03</ele>
        <time>2017-03-26T13:14:08Z</time>
      </trkpt>
      <trkpt lat="45.29207" lon="4.62622">
        <ele>379.71</ele>
        <time>2017-03-26T13:14:09Z</time>
      </trkpt>
      <trkpt lat="45.29201" lon="4.62648">
        <ele>379.33</ele>
        <time>2017-03-26T13:14:10Z</time>
      </trkpt>
      <trkpt lat="45.29193" lon="4.62675">
        <ele>379.17</ele>
        <time>2017-03-26T13:14:11Z</time>
      </trkpt>
      <trkpt lat="45.29185" lon="4.62701">
        <ele>378.98</ele>
        <time>2017-03-26T13:14:12Z</time>
      </trkpt>
      <trkpt lat="45.29175" lon="4.62726">
        <ele>378.94</ele>
        <time>2017-03-26T13:14:13Z</time>
      </trkpt>
      <trkpt lat="45.29164" lon="4.6275">
        <ele>379.17</ele>
        <time>2017-03-26T13:14:14Z</time>
      </trkpt>
      <trkpt lat="45.29151" lon="4.62774">
        <ele>379.7</ele>
        <time>2017-03-26T13:14:15Z</time>
      </trkpt>
      <trkpt lat="45.29139" lon="4.62797">
        <ele>380.04</ele>
        <time>2017-03-26T13:14:16Z</time>
      </trkpt>
      <trkpt lat="45.29126" lon="4.6282">
        <ele>380.03</ele>
        <time>2017-03-26T13:14:17Z</time>
      </trkpt>
      <trkpt lat="45.29113" lon="4.62843">
        <ele>379.79</ele>
        <time>2017-03-26T13:14:18Z</time>
      </trkpt>
      <trkpt lat="45.29099" lon="4.62866">
        <ele>379.98</ele>
        <time>2017-03-26T13:14:19Z</time>
      </trkpt>
      <trkpt lat="45.29085" lon="4.62887">
        <ele>379.94</ele>
        <time>2017-03-26T13:14:20Z</time>
      </trkpt>
      <trkpt lat="45.2907" lon="4.62909">
        <ele>379.93</ele>
        <time>2017-03-26T13:14:21Z</time>
      </trkpt>
      <trkpt lat="45.29054" lon="4.62929">
        <ele>380.17</ele>
        <time>2017-03-26T13:14:22Z</time>
      </trkpt>
      <trkpt lat="45.29036" lon="4.62945">
        <ele>380.46</ele>
        <time>2017-03-26T13:14:23Z</time>
      </trkpt>
      <trkpt lat="45.29017" lon="4.6296">
        <ele>380.92</ele>
        <time>2017-03-26T13:14:24Z</time>
      </trkpt>
      <trkpt lat="45.28997" lon="4.62971">
        <ele>381.81</ele>
        <time>2017-03-26T13:14:25Z</time>
      </trkpt>
      <trkpt lat="45.28978" lon="4.62982">
        <ele>382.31</ele>
        <time>2017-03-26T13:14:26Z</time>
      </trkpt>
      <trkpt lat="45.28959" lon="4.62991">
        <ele>382.81</ele>
        <time>2017-03-26T13:14:27Z</time>
      </trkpt>
      <trkpt lat="45.2894" lon="4.62997">
        <ele>383.47</ele>
        <time>2017-03-26T13:14:28Z</time>
      </trkpt>
      <trkpt lat="45.28922" lon="4.63002">
        <ele>384.08</ele>
        <time>2017-03-26T13:14:29Z</time>
      </trkpt>
      <trkpt lat="45.28905" lon="4.63005">
        <ele>384.6</ele>
        <time>2017-03-26T13:14:30Z</time>
      </trkpt>
      <trkpt lat="45.28889" lon="4.6301">
        <ele>385.1</ele>
        <time>2017-03-26T13:14:31Z</time>
      </trkpt>
      <trkpt lat="45.28873" lon="4.63016">
        <ele>385.52</ele>
        <time>2017-03-26T13:14:32Z</time>
      </trkpt>
      <trkpt lat="45.28859" lon="4.63024">
        <ele>385.69</ele>
        <time>2017-03-26T13:14:33Z</time>
      </trkpt>
      <trkpt lat="45.28845" lon="4.63032">
        <ele>385.88</ele>
        <time>2017-03-26T13:14:34Z</time>
      </trkpt>
      <trkpt lat="45.28832" lon="4.6304">
        <ele>386</ele>
        <time>2017-03-26T13:14:35Z</time>
      </trkpt>
      <trkpt lat="45.28819" lon="4.63047">
        <ele>386.26</ele>
        <time>2017-03-26T13:14:36Z</time>
      </trkpt>
      <trkpt lat="45.28806" lon="4.63052">
        <ele>386.24</ele>
        <time>2017-03-26T13:14:37Z</time>
      </trkpt>
      <trkpt lat="45.28792" lon="4.63057">
        <ele>386.39</ele>
        <time>2017-03-26T13:14:38Z</time>
      </trkpt>
      <trkpt lat="45.28779" lon="4.63062">
        <ele>386.34</ele>
        <time>2017-03-26T13:14:39Z</time>
      </trkpt>
      <trkpt lat="45.28766" lon="4.63066">
        <ele>386.41</ele>
        <time>2017-03-26T13:14:40Z</time>
      </trkpt>
      <trkpt lat="45.28752" lon="4.63069">
        <ele>386.43</ele>
        <time>2017-03-26T13:14:41Z</time>
      </trkpt>
      <trkpt lat="45.28739" lon="4.63073">
        <ele>386.43</ele>
        <time>2017-03-26T13:14:42Z</time>
      </trkpt>
      <trkpt lat="45.28726" lon="4.63076">
        <ele>386.19</ele>
        <time>2017-03-26T13:14:43Z</time>
      </trkpt>
      <trkpt lat="45.28714" lon="4.63079">
        <ele>386.06</ele>
        <time>2017-03-26T13:14:44Z</time>
      </trkpt>
      <trkpt lat="45.287" lon="4.63082">
        <ele>385.72</ele>
        <time>2017-03-26T13:14:45Z</time>
      </trkpt>
      <trkpt lat="45.28687" lon="4.63084">
        <ele>385.41</ele>
        <time>2017-03-26T13:14:46Z</time>
      </trkpt>
      <trkpt lat="45.28674" lon="4.63087">
        <ele>385.27</ele>
        <time>2017-03-26T13:14:47Z</time>
      </trkpt>
      <trkpt lat="45.28662" lon="4.63089">
        <ele>384.92</ele>
        <time>2017-03-26T13:14:48Z</time>
      </trkpt>
      <trkpt lat="45.2865" lon="4.63092">
        <ele>384.69</ele>
        <time>2017-03-26T13:14:49Z</time>
      </trkpt>
      <trkpt lat="45.28638" lon="4.63094">
        <ele>384.56</ele>
        <time>2017-03-26T13:14:50Z</time>
      </trkpt>
      <trkpt lat="45.28625" lon="4.63096">
        <ele>384.46</ele>
        <time>2017-03-26T13:14:51Z</time>
      </trkpt>
      <trkpt lat="45.28612" lon="4.63099">
        <ele>384.36</ele>
        <time>2017-03-26T13:14:52Z</time>
      </trkpt>
      <trkpt lat="45.286" lon="4.63102">
        <ele>384.26</ele>
        <time>2017-03-26T13:14:53Z</time>
      </trkpt>
      <trkpt lat="45.28586" lon="4.63103">
        <ele>384.08</ele>
        <time>2017-03-26T13:14:54Z</time>
      </trkpt>
      <trkpt lat="45.28574" lon="4.63106">
        <ele>383.96</ele>
        <time>2017-03-26T13:14:55Z</time>
      </trkpt>
      <trkpt lat="45.28562" lon="4.63109">
        <ele>383.94</ele>
        <time>2017-03-26T13:14:56Z</time>
      </trkpt>
      <trkpt lat="45.2855" lon="4.63112">
        <ele>383.77</ele>
        <time>2017-03-26T13:14:57Z</time>
      </trkpt>
      <trkpt lat="45.28538" lon="4.63117">
        <ele>383.58</ele>
        <time>2017-03-26T13:14:58Z</time>
      </trkpt>
      <trkpt lat="45.28526" lon="4.63122">
        <ele>383.46</ele>
        <time>2017-03-26T13:14:59Z</time>
      </trkpt>
      <trkpt lat="45.28514" lon="4.63129">
        <ele>383.36</ele>
        <time>2017-03-26T13:15:00Z</time>
      </trkpt>
      <trkpt lat="45.28504" lon="4.63136">
        <ele>383.34</ele>
        <time>2017-03-26T13:15:01Z</time>
      </trkpt>
      <trkpt lat="45.28492" lon="4.63143">
        <ele>383.09</ele>
        <time>2017-03-26T13:15:02Z</time>
      </trkpt>
      <trkpt lat="45.28481" lon="4.63151">
        <ele>382.88</ele>
        <time>2017-03-26T13:15:03Z</time>
      </trkpt>
      <trkpt lat="45.2847" lon="4.63159">
        <ele>382.6</ele>
        <time>2017-03-26T13:15:04Z</time>
      </trkpt>
      <trkpt lat="45.28458" lon="4.63167">
        <ele>382.06</ele>
        <time>2017-03-26T13:15:05Z</time>
      </trkpt>
      <trkpt lat="45.28446" lon="4.63175">
        <ele>381.72</ele>
        <time>2017-03-26T13:15:06Z</time>
      </trkpt>
      <trkpt lat="45.28434" lon="4.63183">
        <ele>381.57</ele>
        <time>2017-03-26T13:15:07Z</time>
      </trkpt>
      <trkpt lat="45.28422" lon="4.63191">
        <ele>381.38</ele>
        <time>2017-03-26T13:15:08Z</time>
      </trkpt>
      <trkpt lat="45.28409" lon="4.63199">
        <ele>380.7</ele>
        <time>2017-03-26T13:15:09Z</time>
      </trkpt>
      <trkpt lat="45.28397" lon="4.63208">
        <ele>380</ele>
        <time>2017-03-26T13:15:10Z</time>
      </trkpt>
      <trkpt lat="45.28385" lon="4.63219">
        <ele>379.46</ele>
        <time>2017-03-26T13:15:11Z</time>
      </trkpt>
      <trkpt lat="45.28373" lon="4.63231">
        <ele>378.88</ele>
        <time>2017-03-26T13:15:12Z</time>
      </trkpt>
      <trkpt lat="45.28364" lon="4.63247">
        <ele>378.36</ele>
        <time>2017-03-26T13:15:13Z</time>
      </trkpt>
      <trkpt lat="45.28357" lon="4.63264">
        <ele>377.7</ele>
        <time>2017-03-26T13:15:14Z</time>
      </trkpt>
      <trkpt lat="45.2835" lon="4.63281">
        <ele>377.08</ele>
        <time>2017-03-26T13:15:15Z</time>
      </trkpt>
      <trkpt lat="45.28343" lon="4.63299">
        <ele>376.24</ele>
        <time>2017-03-26T13:15:16Z</time>
      </trkpt>
      <trkpt lat="45.28336" lon="4.63317">
        <ele>375.59</ele>
        <time>2017-03-26T13:15:17Z</time>
      </trkpt>
      <trkpt lat="45.28329" lon="4.63334">
        <ele>374.98</ele>
        <time>2017-03-26T13:15:18Z</time>
      </trkpt>
      <trkpt lat="45.28322" lon="4.63352">
        <ele>374.3</ele>
        <time>2017-03-26T13:15:19Z</time>
      </trkpt>
      <trkpt lat="45.28315" lon="4.63369">
        <ele>373.92</ele>
        <time>2017-03-26T13:15:20Z</time>
      </trkpt>
      <trkpt lat="45.28308" lon="4.63387">
        <ele>373.53</ele>
        <time>2017-03-26T13:15:21Z</time>
      </trkpt>
      <trkpt lat="45.283" lon="4.63403">
        <ele>372.73</ele>
        <time>2017-03-26T13:15:22Z</time>
      </trkpt>
      <trkpt lat="45.28291" lon="4.6342">
        <ele>372.65</ele>
        <time>2017-03-26T13:15:23Z</time>
      </trkpt>
      <trkpt lat="45.28282" lon="4.63436">
        <ele>373.75</ele>
        <time>2017-03-26T13:15:24Z</time>
      </trkpt>
      <trkpt lat="45.28273" lon="4.63451">
        <ele>374.37</ele>
        <time>2017-03-26T13:15:25Z</time>
      </trkpt>
      <trkpt lat="45.28264" lon="4.63465">
        <ele>374.34</ele>
        <time>2017-03-26T13:15:26Z</time>
      </trkpt>
      <trkpt lat="45.28256" lon="4.63479">
        <ele>374.01</ele>
        <time>2017-03-26T13:15:27Z</time>
      </trkpt>
      <trkpt lat="45.28248" lon="4.63492">
        <ele>373.39</ele>
        <time>2017-03-26T13:15:28Z</time>
      </trkpt>
      <trkpt lat="45.28239" lon="4.63505">
        <ele>372.86</ele>
        <time>2017-03-26T13:15:29Z</time>
      </trkpt>
      <trkpt lat="45.28231" lon="4.63519">
        <ele>372.36</ele>
        <time>2017-03-26T13:15:30Z</time>
      </trkpt>
      <trkpt lat="45.28223" lon="4.63532">
        <ele>371.86</ele>
        <time>2017-03-26T13:15:31Z</time>
      </trkpt>
      <trkpt lat="45.28215" lon="4.63544">
        <ele>371.76</ele>
        <time>2017-03-26T13:15:32Z</time>
      </trkpt>
      <trkpt lat="45.28208" lon="4.63556">
        <ele>371.49</ele>
        <time>2017-03-26T13:15:33Z</time>
      </trkpt>
      <trkpt lat="45.28201" lon="4.63567">
        <ele>371.04</ele>
        <time>2017-03-26T13:15:34Z</time>
      </trkpt>
      <trkpt lat="45.28194" lon="4.63578">
        <ele>370.95</ele>
        <time>2017-03-26T13:15:35Z</time>
      </trkpt>
      <trkpt lat="45.28187" lon="4.6359">
        <ele>370.45</ele>
        <time>2017-03-26T13:15:36Z</time>
      </trkpt>
      <trkpt lat="45.28181" lon="4.63601">
        <ele>369.95</ele>
        <time>2017-03-26T13:15:37Z</time>
      </trkpt>
      <trkpt lat="45.28174" lon="4.63614">
        <ele>369.53</ele>
        <time>2017-03-26T13:15:38Z</time>
      </trkpt>
      <trkpt lat="45.28168" lon="4.63627">
        <ele>368.33</ele>
        <time>2017-03-26T13:15:39Z</time>
      </trkpt>
      <trkpt lat="45.28161" lon="4.63641">
        <ele>367.37</ele>
        <time>2017-03-26T13:15:40Z</time>
      </trkpt>
      <trkpt lat="45.28154" lon="4.63655">
        <ele>366.62</ele>
        <time>2017-03-26T13:15:41Z</time>
      </trkpt>
      <trkpt lat="45.28147" lon="4.6367">
        <ele>365.91</ele>
        <time>2017-03-26T13:15:42Z</time>
      </trkpt>
      <trkpt lat="45.2814" lon="4.63686">
        <ele>364.89</ele>
        <time>2017-03-26T13:15:43Z</time>
      </trkpt>
      <trkpt lat="45.28132" lon="4.63702">
        <ele>364.44</ele>
        <time>2017-03-26T13:15:44Z</time>
      </trkpt>
      <trkpt lat="45.28125" lon="4.63718">
        <ele>364.11</ele>
        <time>2017-03-26T13:15:45Z</time>
      </trkpt>
      <trkpt lat="45.28117" lon="4.63735">
        <ele>363.41</ele>
        <time>2017-03-26T13:15:46Z</time>
      </trkpt>
      <trkpt lat="45.28108" lon="4.63753">
        <ele>362.79</ele>
        <time>2017-03-26T13:15:47Z</time>
      </trkpt>
      <trkpt lat="45.281" lon="4.63772">
        <ele>362.18</ele>
        <time>2017-03-26T13:15:48Z</time>
      </trkpt>
      <trkpt lat="45.28092" lon="4.63791">
        <ele>361.66</ele>
        <time>2017-03-26T13:15:49Z</time>
      </trkpt>
      <trkpt lat="45.28084" lon="4.63811">
        <ele>361.08</ele>
        <time>2017-03-26T13:15:50Z</time>
      </trkpt>
      <trkpt lat="45.28075" lon="4.63831">
        <ele>360.32</ele>
        <time>2017-03-26T13:15:51Z</time>
      </trkpt>
      <trkpt lat="45.28067" lon="4.63852">
        <ele>359.69</ele>
        <time>2017-03-26T13:15:52Z</time>
      </trkpt>
      <trkpt lat="45.28058" lon="4.63873">
        <ele>358.84</ele>
        <time>2017-03-26T13:15:53Z</time>
      </trkpt>
      <trkpt lat="45.28049" lon="4.63895">
        <ele>358.03</ele>
        <time>2017-03-26T13:15:54Z</time>
      </trkpt>
      <trkpt lat="45.28041" lon="4.63917">
        <ele>356.91</ele>
        <time>2017-03-26T13:15:55Z</time>
      </trkpt>
      <trkpt lat="45.28032" lon="4.63939">
        <ele>355.81</ele>
        <time>2017-03-26T13:15:56Z</time>
      </trkpt>
      <trkpt lat="45.28023" lon="4.63962">
        <ele>354.79</ele>
        <time>2017-03-26T13:15:57Z</time>
      </trkpt>
      <trkpt lat="45.28014" lon="4.63984">
        <ele>353.78</ele>
        <time>2017-03-26T13:15:58Z</time>
      </trkpt>
      <trkpt lat="45.28004" lon="4.64007">
        <ele>353.02</ele>
        <time>2017-03-26T13:15:59Z</time>
      </trkpt>
      <trkpt lat="45.27994" lon="4.6403">
        <ele>352.31</ele>
        <time>2017-03-26T13:16:00Z</time>
      </trkpt>
      <trkpt lat="45.27984" lon="4.64052">
        <ele>351.45</ele>
        <time>2017-03-26T13:16:01Z</time>
      </trkpt>
      <trkpt lat="45.27974" lon="4.64075">
        <ele>350.63</ele>
        <time>2017-03-26T13:16:02Z</time>
      </trkpt>
      <trkpt lat="45.27964" lon="4.64098">
        <ele>349.75</ele>
        <time>2017-03-26T13:16:03Z</time>
      </trkpt>
      <trkpt lat="45.27954" lon="4.64122">
        <ele>349.49</ele>
        <time>2017-03-26T13:16:04Z</time>
      </trkpt>
      <trkpt lat="45.27945" lon="4.64145">
        <ele>349.6</ele>
        <time>2017-03-26T13:16:05Z</time>
      </trkpt>
      <trkpt lat="45.27935" lon="4.64168">
        <ele>349.54</ele>
        <time>2017-03-26T13:16:06Z</time>
      </trkpt>
      <trkpt lat="45.27924" lon="4.64191">
        <ele>349.93</ele>
        <time>2017-03-26T13:16:07Z</time>
      </trkpt>
      <trkpt lat="45.27914" lon="4.64214">
        <ele>350.33</ele>
        <time>2017-03-26T13:16:08Z</time>
      </trkpt>
      <trkpt lat="45.27904" lon="4.64237">
        <ele>350.81</ele>
        <time>2017-03-26T13:16:09Z</time>
      </trkpt>
      <trkpt lat="45.27894" lon="4.6426">
        <ele>351.07</ele>
        <time>2017-03-26T13:16:10Z</time>
      </trkpt>
      <trkpt lat="45.27885" lon="4.64283">
        <ele>351.36</ele>
        <time>2017-03-26T13:16:11Z</time>
      </trkpt>
      <trkpt lat="45.27875" lon="4.64306">
        <ele>352.22</ele>
        <time>2017-03-26T13:16:12Z</time>
      </trkpt>
      <trkpt lat="45.27865" lon="4.64329">
        <ele>352.47</ele>
        <time>2017-03-26T13:16:13Z</time>
      </trkpt>
      <trkpt lat="45.27855" lon="4.64352">
        <ele>353.08</ele>
        <time>2017-03-26T13:16:14Z</time>
      </trkpt>
      <trkpt lat="45.27844" lon="4.64376">
        <ele>353.44</ele>
        <time>2017-03-26T13:16:15Z</time>
      </trkpt>
      <trkpt lat="45.27834" lon="4.64399">
        <ele>353.27</ele>
        <time>2017-03-26T13:16:16Z</time>
      </trkpt>
      <trkpt lat="45.27824" lon="4.64422">
        <ele>353.4</ele>
        <time>2017-03-26T13:16:17Z</time>
      </trkpt>
      <trkpt lat="45.27814" lon="4.64446">
        <ele>353.82</ele>
        <time>2017-03-26T13:16:18Z</time>
      </trkpt>
      <trkpt lat="45.27803" lon="4.6447">
        <ele>354.31</ele>
        <time>2017-03-26T13:16:19Z</time>
      </trkpt>
      <trkpt lat="45.27793" lon="4.64493">
        <ele>354.65</ele>
        <time>2017-03-26T13:16:20Z</time>
      </trkpt>
      <trkpt lat="45.27783" lon="4.64517">
        <ele>355.11</ele>
        <time>2017-03-26T13:16:21Z</time>
      </trkpt>
      <trkpt lat="45.27773" lon="4.64541">
        <ele>355.69</ele>
        <time>2017-03-26T13:16:22Z</time>
      </trkpt>
      <trkpt lat="45.27763" lon="4.64563">
        <ele>356.76</ele>
        <time>2017-03-26T13:16:23Z</time>
      </trkpt>
      <trkpt lat="45.27754" lon="4.64585">
        <ele>357.38</ele>
        <time>2017-03-26T13:16:24Z</time>
      </trkpt>
      <trkpt lat="45.27744" lon="4.64607">
        <ele>357.82</ele>
        <time>2017-03-26T13:16:25Z</time>
      </trkpt>
      <trkpt lat="45.27735" lon="4.64628">
        <ele>358.07</ele>
        <time>2017-03-26T13:16:26Z</time>
      </trkpt>
      <trkpt lat="45.27726" lon="4.6465">
        <ele>358.2</ele>
        <time>2017-03-26T13:16:27Z</time>
      </trkpt>
      <trkpt lat="45.27716" lon="4.64671">
        <ele>358.06</ele>
        <time>2017-03-26T13:16:28Z</time>
      </trkpt>
      <trkpt lat="45.27707" lon="4.64693">
        <ele>358.36</ele>
        <time>2017-03-26T13:16:29Z</time>
      </trkpt>
      <trkpt lat="45.27698" lon="4.64714">
        <ele>358.58</ele>
        <time>2017-03-26T13:16:30Z</time>
      </trkpt>
      <trkpt lat="45.27688" lon="4.64735">
        <ele>358.94</ele>
        <time>2017-03-26T13:16:31Z</time>
      </trkpt>
      <trkpt lat="45.27679" lon="4.64756">
        <ele>359.33</ele>
        <time>2017-03-26T13:16:32Z</time>
      </trkpt>
      <trkpt lat="45.27671" lon="4.64776">
        <ele>359.41</ele>
        <time>2017-03-26T13:16:33Z</time>
      </trkpt>
      <trkpt lat="45.27662" lon="4.64797">
        <ele>359.67</ele>
        <time>2017-03-26T13:16:34Z</time>
      </trkpt>
      <trkpt lat="45.27654" lon="4.64816">
        <ele>359.96</ele>
        <time>2017-03-26T13:16:35Z</time>
      </trkpt>
      <trkpt lat="45.27646" lon="4.64834">
        <ele>359.86</ele>
        <time>2017-03-26T13:16:36Z</time>
      </trkpt>
      <trkpt lat="45.27638" lon="4.64851">
        <ele>359.84</ele>
        <time>2017-03-26T13:16:37Z</time>
      </trkpt>
      <trkpt lat="45.27629" lon="4.64867">
        <ele>359.67</ele>
        <time>2017-03-26T13:16:38Z</time>
      </trkpt>
      <trkpt lat="45.2762" lon="4.64884">
        <ele>360.04</ele>
        <time>2017-03-26T13:16:39Z</time>
      </trkpt>
      <trkpt lat="45.2761" lon="4.649">
        <ele>360.59</ele>
        <time>2017-03-26T13:16:40Z</time>
      </trkpt>
      <trkpt lat="45.27599" lon="4.64914">
        <ele>360.86</ele>
        <time>2017-03-26T13:16:41Z</time>
      </trkpt>
      <trkpt lat="45.27587" lon="4.64928">
        <ele>360.76</ele>
        <time>2017-03-26T13:16:42Z</time>
      </trkpt>
      <trkpt lat="45.27574" lon="4.6494">
        <ele>360.58</ele>
        <time>2017-03-26T13:16:43Z</time>
      </trkpt>
      <trkpt lat="45.2756" lon="4.64951">
        <ele>360.86</ele>
        <time>2017-03-26T13:16:44Z</time>
      </trkpt>
      <trkpt lat="45.27546" lon="4.6496">
        <ele>361.32</ele>
        <time>2017-03-26T13:16:45Z</time>
      </trkpt>
      <trkpt lat="45.2753" lon="4.64968">
        <ele>361.89</ele>
        <time>2017-03-26T13:16:46Z</time>
      </trkpt>
      <trkpt lat="45.27513" lon="4.64977">
        <ele>362.72</ele>
        <time>2017-03-26T13:16:47Z</time>
      </trkpt>
      <trkpt lat="45.27496" lon="4.64987">
        <ele>363.45</ele>
        <time>2017-03-26T13:16:48Z</time>
      </trkpt>
      <trkpt lat="45.27478" lon="4.64997">
        <ele>364.15</ele>
        <time>2017-03-26T13:16:49Z</time>
      </trkpt>
      <trkpt lat="45.2746" lon="4.65007">
        <ele>365.25</ele>
        <time>2017-03-26T13:16:50Z</time>
      </trkpt>
      <trkpt lat="45.27442" lon="4.65017">
        <ele>365.95</ele>
        <time>2017-03-26T13:16:51Z</time>
      </trkpt>
      <trkpt lat="45.27425" lon="4.65027">
        <ele>366.33</ele>
        <time>2017-03-26T13:16:52Z</time>
      </trkpt>
      <trkpt lat="45.27407" lon="4.65037">
        <ele>367.05</ele>
        <time>2017-03-26T13:16:53Z</time>
      </trkpt>
      <trkpt lat="45.27391" lon="4.65046">
        <ele>367.99</ele>
        <time>2017-03-26T13:16:54Z</time>
      </trkpt>
      <trkpt lat="45.27375" lon="4.65056">
        <ele>368.9</ele>
        <time>2017-03-26T13:16:55Z</time>
      </trkpt>
      <trkpt lat="45.27361" lon="4.65066">
        <ele>369.8</ele>
        <time>2017-03-26T13:16:56Z</time>
      </trkpt>
      <trkpt lat="45.27348" lon="4.65078">
        <ele>370.62</ele>
        <time>2017-03-26T13:16:57Z</time>
      </trkpt>
      <trkpt lat="45.27335" lon="4.65091">
        <ele>371.35</ele>
        <time>2017-03-26T13:16:58Z</time>
      </trkpt>
      <trkpt lat="45.27323" lon="4.65105">
        <ele>372.13</ele>
        <time>2017-03-26T13:16:59Z</time>
      </trkpt>
      <trkpt lat="45.27311" lon="4.65121">
        <ele>372.77</ele>
        <time>2017-03-26T13:17:00Z</time>
      </trkpt>
      <trkpt lat="45.273" lon="4.65137">
        <ele>373.38</ele>
        <time>2017-03-26T13:17:01Z</time>
      </trkpt>
      <trkpt lat="45.2729" lon="4.65155">
        <ele>373.9</ele>
        <time>2017-03-26T13:17:02Z</time>
      </trkpt>
      <trkpt lat="45.27281" lon="4.65175">
        <ele>374.4</ele>
        <time>2017-03-26T13:17:03Z</time>
      </trkpt>
      <trkpt lat="45.27272" lon="4.65197">
        <ele>374.9</ele>
        <time>2017-03-26T13:17:04Z</time>
      </trkpt>
      <trkpt lat="45.27265" lon="4.65219">
        <ele>375.4</ele>
        <time>2017-03-26T13:17:05Z</time>
      </trkpt>
      <trkpt lat="45.27258" lon="4.65241">
        <ele>376.07</ele>
        <time>2017-03-26T13:17:06Z</time>
      </trkpt>
      <trkpt lat="45.27252" lon="4.65264">
        <ele>376.92</ele>
        <time>2017-03-26T13:17:07Z</time>
      </trkpt>
      <trkpt lat="45.27247" lon="4.65286">
        <ele>377.65</ele>
        <time>2017-03-26T13:17:08Z</time>
      </trkpt>
      <trkpt lat="45.27242" lon="4.65308">
        <ele>378.11</ele>
        <time>2017-03-26T13:17:09Z</time>
      </trkpt>
      <trkpt lat="45.27237" lon="4.65329">
        <ele>378.53</ele>
        <time>2017-03-26T13:17:10Z</time>
      </trkpt>
      <trkpt lat="45.27231" lon="4.65352">
        <ele>379.01</ele>
        <time>2017-03-26T13:17:11Z</time>
      </trkpt>
      <trkpt lat="45.27226" lon="4.65374">
        <ele>379.19</ele>
        <time>2017-03-26T13:17:12Z</time>
      </trkpt>
      <trkpt lat="45.2722" lon="4.65396">
        <ele>379.78</ele>
        <time>2017-03-26T13:17:13Z</time>
      </trkpt>
      <trkpt lat="45.27215" lon="4.65419">
        <ele>380.22</ele>
        <time>2017-03-26T13:17:14Z</time>
      </trkpt>
      <trkpt lat="45.2721" lon="4.65442">
        <ele>380.95</ele>
        <time>2017-03-26T13:17:15Z</time>
      </trkpt>
      <trkpt lat="45.27205" lon="4.65464">
        <ele>381.25</ele>
        <time>2017-03-26T13:17:16Z</time>
      </trkpt>
      <trkpt lat="45.272" lon="4.65486">
        <ele>381.55</ele>
        <time>2017-03-26T13:17:17Z</time>
      </trkpt>
      <trkpt lat="45.27195" lon="4.65509">
        <ele>381.77</ele>
        <time>2017-03-26T13:17:18Z</time>
      </trkpt>
      <trkpt lat="45.2719" lon="4.65531">
        <ele>382.06</ele>
        <time>2017-03-26T13:17:19Z</time>
      </trkpt>
      <trkpt lat="45.27185" lon="4.65553">
        <ele>382.36</ele>
        <time>2017-03-26T13:17:20Z</time>
      </trkpt>
      <trkpt lat="45.2718" lon="4.65575">
        <ele>382.58</ele>
        <time>2017-03-26T13:17:21Z</time>
      </trkpt>
      <trkpt lat="45.27175" lon="4.65596">
        <ele>382.94</ele>
        <time>2017-03-26T13:17:22Z</time>
      </trkpt>
      <trkpt lat="45.2717" lon="4.65618">
        <ele>383.25</ele>
        <time>2017-03-26T13:17:23Z</time>
      </trkpt>
      <trkpt lat="45.27166" lon="4.6564">
        <ele>383.63</ele>
        <time>2017-03-26T13:17:24Z</time>
      </trkpt>
      <trkpt lat="45.27162" lon="4.65661">
        <ele>383.95</ele>
        <time>2017-03-26T13:17:25Z</time>
      </trkpt>
      <trkpt lat="45.27157" lon="4.65682">
        <ele>383.85</ele>
        <time>2017-03-26T13:17:26Z</time>
      </trkpt>
      <trkpt lat="45.27153" lon="4.65703">
        <ele>383.83</ele>
        <time>2017-03-26T13:17:27Z</time>
      </trkpt>
      <trkpt lat="45.27149" lon="4.65723">
        <ele>383.67</ele>
        <time>2017-03-26T13:17:28Z</time>
      </trkpt>
      <trkpt lat="45.27146" lon="4.65743">
        <ele>383.56</ele>
        <time>2017-03-26T13:17:29Z</time>
      </trkpt>
      <trkpt lat="45.27144" lon="4.65762">
        <ele>383.14</ele>
        <time>2017-03-26T13:17:30Z</time>
      </trkpt>
      <trkpt lat="45.27143" lon="4.65781">
        <ele>383.29</ele>
        <time>2017-03-26T13:17:31Z</time>
      </trkpt>
      <trkpt lat="45.27142" lon="4.658">
        <ele>383.4</ele>
        <time>2017-03-26T13:17:32Z</time>
      </trkpt>
      <trkpt lat="45.27143" lon="4.6582">
        <ele>382.94</ele>
        <time>2017-03-26T13:17:33Z</time>
      </trkpt>
      <trkpt lat="45.27144" lon="4.65839">
        <ele>382.53</ele>
        <time>2017-03-26T13:17:34Z</time>
      </trkpt>
      <trkpt lat="45.27146" lon="4.65859">
        <ele>382.21</ele>
        <time>2017-03-26T13:17:35Z</time>
      </trkpt>
      <trkpt lat="45.27149" lon="4.65878">
        <ele>381.83</ele>
        <time>2017-03-26T13:17:36Z</time>
      </trkpt>
      <trkpt lat="45.27152" lon="4.65896">
        <ele>381.51</ele>
        <time>2017-03-26T13:17:37Z</time>
      </trkpt>
      <trkpt lat="45.27155" lon="4.65914">
        <ele>381.37</ele>
        <time>2017-03-26T13:17:38Z</time>
      </trkpt>
      <trkpt lat="45.27158" lon="4.65932">
        <ele>381.1</ele>
        <time>2017-03-26T13:17:39Z</time>
      </trkpt>
      <trkpt lat="45.2716" lon="4.65949">
        <ele>380.72</ele>
        <time>2017-03-26T13:17:40Z</time>
      </trkpt>
      <trkpt lat="45.27162" lon="4.65965">
        <ele>380.49</ele>
        <time>2017-03-26T13:17:41Z</time>
      </trkpt>
      <trkpt lat="45.27164" lon="4.65982">
        <ele>380.36</ele>
        <time>2017-03-26T13:17:42Z</time>
      </trkpt>
      <trkpt lat="45.27166" lon="4.65998">
        <ele>380.18</ele>
        <time>2017-03-26T13:17:43Z</time>
      </trkpt>
      <trkpt lat="45.27166" lon="4.66015">
        <ele>379.98</ele>
        <time>2017-03-26T13:17:44Z</time>
      </trkpt>
      <trkpt lat="45.27166" lon="4.66032">
        <ele>379.7</ele>
        <time>2017-03-26T13:17:45Z</time>
      </trkpt>
      <trkpt lat="45.27166" lon="4.66049">
        <ele>379.64</ele>
        <time>2017-03-26T13:17:46Z</time>
      </trkpt>
      <trkpt lat="45.27166" lon="4.66067">
        <ele>379.79</ele>
        <time>2017-03-26T13:17:47Z</time>
      </trkpt>
      <trkpt lat="45.27166" lon="4.66084">
        <ele>380.14</ele>
        <time>2017-03-26T13:17:48Z</time>
      </trkpt>
      <trkpt lat="45.27165" lon="4.66101">
        <ele>380.37</ele>
        <time>2017-03-26T13:17:49Z</time>
      </trkpt>
      <trkpt lat="45.27163" lon="4.66118">
        <ele>380.66</ele>
        <time>2017-03-26T13:17:50Z</time>
      </trkpt>
      <trkpt lat="45.27162" lon="4.66135">
        <ele>380.8</ele>
        <time>2017-03-26T13:17:51Z</time>
      </trkpt>
      <trkpt lat="45.27159" lon="4.66151">
        <ele>381.14</ele>
        <time>2017-03-26T13:17:52Z</time>
      </trkpt>
      <trkpt lat="45.27156" lon="4.66167">
        <ele>381.53</ele>
        <time>2017-03-26T13:17:53Z</time>
      </trkpt>
      <trkpt lat="45.27153" lon="4.66183">
        <ele>382.33</ele>
        <time>2017-03-26T13:17:54Z</time>
      </trkpt>
      <trkpt lat="45.2715" lon="4.66199">
        <ele>382.73</ele>
        <time>2017-03-26T13:17:55Z</time>
      </trkpt>
      <trkpt lat="45.27146" lon="4.66214">
        <ele>383.29</ele>
        <time>2017-03-26T13:17:56Z</time>
      </trkpt>
      <trkpt lat="45.27141" lon="4.6623">
        <ele>383.72</ele>
        <time>2017-03-26T13:17:57Z</time>
      </trkpt>
      <trkpt lat="45.27137" lon="4.66246">
        <ele>383.65</ele>
        <time>2017-03-26T13:17:58Z</time>
      </trkpt>
      <trkpt lat="45.27132" lon="4.66261">
        <ele>383.79</ele>
        <time>2017-03-26T13:17:59Z</time>
      </trkpt>
      <trkpt lat="45.27127" lon="4.66277">
        <ele>384.22</ele>
        <time>2017-03-26T13:18:00Z</time>
      </trkpt>
      <trkpt lat="45.27123" lon="4.66293">
        <ele>384.55</ele>
        <time>2017-03-26T13:18:01Z</time>
      </trkpt>
      <trkpt lat="45.27118" lon="4.66309">
        <ele>384.85</ele>
        <time>2017-03-26T13:18:02Z</time>
      </trkpt>
      <trkpt lat="45.27113" lon="4.66325">
        <ele>384.99</ele>
        <time>2017-03-26T13:18:03Z</time>
      </trkpt>
      <trkpt lat="45.27109" lon="4.66342">
        <ele>385.26</ele>
        <time>2017-03-26T13:18:04Z</time>
      </trkpt>
      <trkpt lat="45.27105" lon="4.66359">
        <ele>385.64</ele>
        <time>2017-03-26T13:18:05Z</time>
      </trkpt>
      <trkpt lat="45.27103" lon="4.66376">
        <ele>386.03</ele>
        <time>2017-03-26T13:18:06Z</time>
      </trkpt>
      <trkpt lat="45.27101" lon="4.66393">
        <ele>386.35</ele>
        <time>2017-03-26T13:18:07Z</time>
      </trkpt>
      <trkpt lat="45.27101" lon="4.6641">
        <ele>386.81</ele>
        <time>2017-03-26T13:18:08Z</time>
      </trkpt>
      <trkpt lat="45.27101" lon="4.66427">
        <ele>387.23</ele>
        <time>2017-03-26T13:18:09Z</time>
      </trkpt>
      <trkpt lat="45.27102" lon="4.66442">
        <ele>387.39</ele>
        <time>2017-03-26T13:18:10Z</time>
      </trkpt>
      <trkpt lat="45.27103" lon="4.66457">
        <ele>387.5</ele>
        <time>2017-03-26T13:18:11Z</time>
      </trkpt>
      <trkpt lat="45.27105" lon="4.66471">
        <ele>387.76</ele>
        <time>2017-03-26T13:18:12Z</time>
      </trkpt>
      <trkpt lat="45.27107" lon="4.66484">
        <ele>387.82</ele>
        <time>2017-03-26T13:18:13Z</time>
      </trkpt>
      <trkpt lat="45.2711" lon="4.66496">
        <ele>387.91</ele>
        <time>2017-03-26T13:18:14Z</time>
      </trkpt>
      <trkpt lat="45.27111" lon="4.66506">
        <ele>388.17</ele>
        <time>2017-03-26T13:18:15Z</time>
      </trkpt>
      <trkpt lat="45.27112" lon="4.66516">
        <ele>388.06</ele>
        <time>2017-03-26T13:18:16Z</time>
      </trkpt>
      <trkpt lat="45.27113" lon="4.66525">
        <ele>387.72</ele>
        <time>2017-03-26T13:18:17Z</time>
      </trkpt>
      <trkpt lat="45.27116" lon="4.66534">
        <ele>387.73</ele>
        <time>2017-03-26T13:18:18Z</time>
      </trkpt>
      <trkpt lat="45.27121" lon="4.66542">
        <ele>387.17</ele>
        <time>2017-03-26T13:18:19Z</time>
      </trkpt>
      <trkpt lat="45.27126" lon="4.66549">
        <ele>386.98</ele>
        <time>2017-03-26T13:18:20Z</time>
      </trkpt>
      <trkpt lat="45.27132" lon="4.66558">
        <ele>387.18</ele>
        <time>2017-03-26T13:18:21Z</time>
      </trkpt>
      <trkpt lat="45.27138" lon="4.66568">
        <ele>387.7</ele>
        <time>2017-03-26T13:18:22Z</time>
      </trkpt>
      <trkpt lat="45.27144" lon="4.66579">
        <ele>388.2</ele>
        <time>2017-03-26T13:18:23Z</time>
      </trkpt>
      <trkpt lat="45.2715" lon="4.6659">
        <ele>388.38</ele>
        <time>2017-03-26T13:18:24Z</time>
      </trkpt>
      <trkpt lat="45.27156" lon="4.66603">
        <ele>388.66</ele>
        <time>2017-03-26T13:18:25Z</time>
      </trkpt>
      <trkpt lat="45.27163" lon="4.66616">
        <ele>388.8</ele>
        <time>2017-03-26T13:18:26Z</time>
      </trkpt>
      <trkpt lat="45.2717" lon="4.66631">
        <ele>388.82</ele>
        <time>2017-03-26T13:18:27Z</time>
      </trkpt>
      <trkpt lat="45.27178" lon="4.66645">
        <ele>388.99</ele>
        <time>2017-03-26T13:18:28Z</time>
      </trkpt>
      <trkpt lat="45.27187" lon="4.6666">
        <ele>389.1</ele>
        <time>2017-03-26T13:18:29Z</time>
      </trkpt>
      <trkpt lat="45.27194" lon="4.66676">
        <ele>389.44</ele>
        <time>2017-03-26T13:18:30Z</time>
      </trkpt>
      <trkpt lat="45.27201" lon="4.66692">
        <ele>389.75</ele>
        <time>2017-03-26T13:18:31Z</time>
      </trkpt>
      <trkpt lat="45.27207" lon="4.66709">
        <ele>390.13</ele>
        <time>2017-03-26T13:18:32Z</time>
      </trkpt>
      <trkpt lat="45.27213" lon="4.66728">
        <ele>390.37</ele>
        <time>2017-03-26T13:18:33Z</time>
      </trkpt>
      <trkpt lat="45.27218" lon="4.66751">
        <ele>390.66</ele>
        <time>2017-03-26T13:18:34Z</time>
      </trkpt>
      <trkpt lat="45.27222" lon="4.66776">
        <ele>390.32</ele>
        <time>2017-03-26T13:18:35Z</time>
      </trkpt>
      <trkpt lat="45.27225" lon="4.66803">
        <ele>389.77</ele>
        <time>2017-03-26T13:18:36Z</time>
      </trkpt>
      <trkpt lat="45.27226" lon="4.6683">
        <ele>389.58</ele>
        <time>2017-03-26T13:18:37Z</time>
      </trkpt>
      <trkpt lat="45.27224" lon="4.66856">
        <ele>389.3</ele>
        <time>2017-03-26T13:18:38Z</time>
      </trkpt>
      <trkpt lat="45.2722" lon="4.66881">
        <ele>389.08</ele>
        <time>2017-03-26T13:18:39Z</time>
      </trkpt>
      <trkpt lat="45.27216" lon="4.66904">
        <ele>389.2</ele>
        <time>2017-03-26T13:18:40Z</time>
      </trkpt>
      <trkpt lat="45.27211" lon="4.66926">
        <ele>389.14</ele>
        <time>2017-03-26T13:18:41Z</time>
      </trkpt>
      <trkpt lat="45.27206" lon="4.66948">
        <ele>389.05</ele>
        <time>2017-03-26T13:18:42Z</time>
      </trkpt>
      <trkpt lat="45.27201" lon="4.66969">
        <ele>388.63</ele>
        <time>2017-03-26T13:18:43Z</time>
      </trkpt>
      <trkpt lat="45.27196" lon="4.6699">
        <ele>388.15</ele>
        <time>2017-03-26T13:18:44Z</time>
      </trkpt>
      <trkpt lat="45.27191" lon="4.67011">
        <ele>387.33</ele>
        <time>2017-03-26T13:18:45Z</time>
      </trkpt>
      <trkpt lat="45.27187" lon="4.67032">
        <ele>386.21</ele>
        <time>2017-03-26T13:18:46Z</time>
      </trkpt>
      <trkpt lat="45.27182" lon="4.67052">
        <ele>385.19</ele>
        <time>2017-03-26T13:18:47Z</time>
      </trkpt>
      <trkpt lat="45.27178" lon="4.67073">
        <ele>384.1</ele>
        <time>2017-03-26T13:18:48Z</time>
      </trkpt>
      <trkpt lat="45.27173" lon="4.67093">
        <ele>383</ele>
        <time>2017-03-26T13:18:49Z</time>
      </trkpt>
      <trkpt lat="45.27169" lon="4.67114">
        <ele>381.5</ele>
        <time>2017-03-26T13:18:50Z</time>
      </trkpt>
      <trkpt lat="45.27165" lon="4.67136">
        <ele>380.16</ele>
        <time>2017-03-26T13:18:51Z</time>
      </trkpt>
      <trkpt lat="45.27161" lon="4.67157">
        <ele>378.78</ele>
        <time>2017-03-26T13:18:52Z</time>
      </trkpt>
      <trkpt lat="45.27157" lon="4.67179">
        <ele>377.46</ele>
        <time>2017-03-26T13:18:53Z</time>
      </trkpt>
      <trkpt lat="45.27152" lon="4.67201">
        <ele>376.24</ele>
        <time>2017-03-26T13:18:54Z</time>
      </trkpt>
      <trkpt lat="45.27147" lon="4.67224">
        <ele>375.11</ele>
        <time>2017-03-26T13:18:55Z</time>
      </trkpt>
      <trkpt lat="45.27142" lon="4.67246">
        <ele>373.77</ele>
        <time>2017-03-26T13:18:56Z</time>
      </trkpt>
      <trkpt lat="45.27137" lon="4.67269">
        <ele>372.46</ele>
        <time>2017-03-26T13:18:57Z</time>
      </trkpt>
      <trkpt lat="45.27132" lon="4.67292">
        <ele>371.24</ele>
        <time>2017-03-26T13:18:58Z</time>
      </trkpt>
      <trkpt lat="45.27126" lon="4.67315">
        <ele>370.51</ele>
        <time>2017-03-26T13:18:59Z</time>
      </trkpt>
      <trkpt lat="45.27121" lon="4.67339">
        <ele>369.73</ele>
        <time>2017-03-26T13:19:00Z</time>
      </trkpt>
      <trkpt lat="45.27116" lon="4.67362">
        <ele>369.33</ele>
        <time>2017-03-26T13:19:01Z</time>
      </trkpt>
      <trkpt lat="45.27109" lon="4.67385">
        <ele>368.85</ele>
        <time>2017-03-26T13:19:02Z</time>
      </trkpt>
      <trkpt lat="45.27101" lon="4.67408">
        <ele>368.43</ele>
        <time>2017-03-26T13:19:03Z</time>
      </trkpt>
      <trkpt lat="45.27092" lon="4.6743">
        <ele>368.19</ele>
        <time>2017-03-26T13:19:04Z</time>
      </trkpt>
      <trkpt lat="45.27083" lon="4.67451">
        <ele>367.82</ele>
        <time>2017-03-26T13:19:05Z</time>
      </trkpt>
      <trkpt lat="45.27074" lon="4.67472">
        <ele>367.43</ele>
        <time>2017-03-26T13:19:06Z</time>
      </trkpt>
      <trkpt lat="45.27065" lon="4.67492">
        <ele>367.19</ele>
        <time>2017-03-26T13:19:07Z</time>
      </trkpt>
      <trkpt lat="45.27055" lon="4.67512">
        <ele>366.98</ele>
        <time>2017-03-26T13:19:08Z</time>
      </trkpt>
      <trkpt lat="45.27046" lon="4.67531">
        <ele>366.7</ele>
        <time>2017-03-26T13:19:09Z</time>
      </trkpt>
      <trkpt lat="45.27037" lon="4.6755">
        <ele>366.4</ele>
        <time>2017-03-26T13:19:10Z</time>
      </trkpt>
      <trkpt lat="45.27028" lon="4.67569">
        <ele>366.42</ele>
        <time>2017-03-26T13:19:11Z</time>
      </trkpt>
      <trkpt lat="45.27019" lon="4.67587">
        <ele>366.27</ele>
        <time>2017-03-26T13:19:12Z</time>
      </trkpt>
      <trkpt lat="45.27011" lon="4.67606">
        <ele>366</ele>
        <time>2017-03-26T13:19:13Z</time>
      </trkpt>
      <trkpt lat="45.27002" lon="4.67624">
        <ele>365.78</ele>
        <time>2017-03-26T13:19:14Z</time>
      </trkpt>
      <trkpt lat="45.26994" lon="4.67642">
        <ele>365.26</ele>
        <time>2017-03-26T13:19:15Z</time>
      </trkpt>
      <trkpt lat="45.26987" lon="4.67661">
        <ele>365</ele>
        <time>2017-03-26T13:19:16Z</time>
      </trkpt>
      <trkpt lat="45.2698" lon="4.67679">
        <ele>364.7</ele>
        <time>2017-03-26T13:19:17Z</time>
      </trkpt>
      <trkpt lat="45.26973" lon="4.67698">
        <ele>364.16</ele>
        <time>2017-03-26T13:19:18Z</time>
      </trkpt>
      <trkpt lat="45.26968" lon="4.67718">
        <ele>362.94</ele>
        <time>2017-03-26T13:19:19Z</time>
      </trkpt>
      <trkpt lat="45.26964" lon="4.67738">
        <ele>362.21</ele>
        <time>2017-03-26T13:19:20Z</time>
      </trkpt>
      <trkpt lat="45.2696" lon="4.67758">
        <ele>361.43</ele>
        <time>2017-03-26T13:19:21Z</time>
      </trkpt>
      <trkpt lat="45.26957" lon="4.6778">
        <ele>360.71</ele>
        <time>2017-03-26T13:19:22Z</time>
      </trkpt>
      <trkpt lat="45.26956" lon="4.67804">
        <ele>359.53</ele>
        <time>2017-03-26T13:19:23Z</time>
      </trkpt>
      <trkpt lat="45.26955" lon="4.67829">
        <ele>359.05</ele>
        <time>2017-03-26T13:19:24Z</time>
      </trkpt>
      <trkpt lat="45.26954" lon="4.67854">
        <ele>358.63</ele>
        <time>2017-03-26T13:19:25Z</time>
      </trkpt>
      <trkpt lat="45.26953" lon="4.67878">
        <ele>358.39</ele>
        <time>2017-03-26T13:19:26Z</time>
      </trkpt>
      <trkpt lat="45.26951" lon="4.67902">
        <ele>358.1</ele>
        <time>2017-03-26T13:19:27Z</time>
      </trkpt>
      <trkpt lat="45.26948" lon="4.67926">
        <ele>357.56</ele>
        <time>2017-03-26T13:19:28Z</time>
      </trkpt>
      <trkpt lat="45.26945" lon="4.6795">
        <ele>357.06</ele>
        <time>2017-03-26T13:19:29Z</time>
      </trkpt>
      <trkpt lat="45.26941" lon="4.67974">
        <ele>356.56</ele>
        <time>2017-03-26T13:19:30Z</time>
      </trkpt>
      <trkpt lat="45.26935" lon="4.67998">
        <ele>356.06</ele>
        <time>2017-03-26T13:19:31Z</time>
      </trkpt>
      <trkpt lat="45.26928" lon="4.68021">
        <ele>355.64</ele>
        <time>2017-03-26T13:19:32Z</time>
      </trkpt>
      <trkpt lat="45.26921" lon="4.68044">
        <ele>355.23</ele>
        <time>2017-03-26T13:19:33Z</time>
      </trkpt>
      <trkpt lat="45.26912" lon="4.68067">
        <ele>355.23</ele>
        <time>2017-03-26T13:19:34Z</time>
      </trkpt>
      <trkpt lat="45.26903" lon="4.6809">
        <ele>355.39</ele>
        <time>2017-03-26T13:19:35Z</time>
      </trkpt>
      <trkpt lat="45.26894" lon="4.68113">
        <ele>355.1</ele>
        <time>2017-03-26T13:19:36Z</time>
      </trkpt>
      <trkpt lat="45.26884" lon="4.68136">
        <ele>354.8</ele>
        <time>2017-03-26T13:19:37Z</time>
      </trkpt>
      <trkpt lat="45.26874" lon="4.68159">
        <ele>354.42</ele>
        <time>2017-03-26T13:19:38Z</time>
      </trkpt>
      <trkpt lat="45.26864" lon="4.68183">
        <ele>354.19</ele>
        <time>2017-03-26T13:19:39Z</time>
      </trkpt>
      <trkpt lat="45.26855" lon="4.68207">
        <ele>353.9</ele>
        <time>2017-03-26T13:19:40Z</time>
      </trkpt>
      <trkpt lat="45.26846" lon="4.68232">
        <ele>353.44</ele>
        <time>2017-03-26T13:19:41Z</time>
      </trkpt>
      <trkpt lat="45.26839" lon="4.68257">
        <ele>353.11</ele>
        <time>2017-03-26T13:19:42Z</time>
      </trkpt>
      <trkpt lat="45.26832" lon="4.68284">
        <ele>352.81</ele>
        <time>2017-03-26T13:19:43Z</time>
      </trkpt>
      <trkpt lat="45.26826" lon="4.68311">
        <ele>352.83</ele>
        <time>2017-03-26T13:19:44Z</time>
      </trkpt>
      <trkpt lat="45.26821" lon="4.6834">
        <ele>352.91</ele>
        <time>2017-03-26T13:19:45Z</time>
      </trkpt>
      <trkpt lat="45.26819" lon="4.68368">
        <ele>353.09</ele>
        <time>2017-03-26T13:19:46Z</time>
      </trkpt>
      <trkpt lat="45.26819" lon="4.68396">
        <ele>353.2</ele>
        <time>2017-03-26T13:19:47Z</time>
      </trkpt>
      <trkpt lat="45.2682" lon="4.68422">
        <ele>353.46</ele>
        <time>2017-03-26T13:19:48Z</time>
      </trkpt>
      <trkpt lat="45.26822" lon="4.68447">
        <ele>353.76</ele>
        <time>2017-03-26T13:19:49Z</time>
      </trkpt>
      <trkpt lat="45.26826" lon="4.68469">
        <ele>354.38</ele>
        <time>2017-03-26T13:19:50Z</time>
      </trkpt>
      <trkpt lat="45.2683" lon="4.68489">
        <ele>354.5</ele>
        <time>2017-03-26T13:19:51Z</time>
      </trkpt>
      <trkpt lat="45.26834" lon="4.68501">
        <ele>354.6</ele>
        <time>2017-03-26T13:19:52Z</time>
      </trkpt>
      <trkpt lat="45.26838" lon="4.68511">
        <ele>354.46</ele>
        <time>2017-03-26T13:19:53Z</time>
      </trkpt>
      <trkpt lat="45.26842" lon="4.68519">
        <ele>354.2</ele>
        <time>2017-03-26T13:19:54Z</time>
      </trkpt>
      <trkpt lat="45.26845" lon="4.68527">
        <ele>353.9</ele>
        <time>2017-03-26T13:19:55Z</time>
      </trkpt>
      <trkpt lat="45.26848" lon="4.68537">
        <ele>353.44</ele>
        <time>2017-03-26T13:19:56Z</time>
      </trkpt>
      <trkpt lat="45.2685" lon="4.68547">
        <ele>353.59</ele>
        <time>2017-03-26T13:19:57Z</time>
      </trkpt>
      <trkpt lat="45.26853" lon="4.68557">
        <ele>353.54</ele>
        <time>2017-03-26T13:19:58Z</time>
      </trkpt>
      <trkpt lat="45.26856" lon="4.68567">
        <ele>353.53</ele>
        <time>2017-03-26T13:19:59Z</time>
      </trkpt>
      <trkpt lat="45.26858" lon="4.68576">
        <ele>353.45</ele>
        <time>2017-03-26T13:20:00Z</time>
      </trkpt>
      <trkpt lat="45.2686" lon="4.68583">
        <ele>353.19</ele>
        <time>2017-03-26T13:20:01Z</time>
      </trkpt>
      <trkpt lat="45.26863" lon="4.68589">
        <ele>353.46</ele>
        <time>2017-03-26T13:20:02Z</time>
      </trkpt>
      <trkpt lat="45.26864" lon="4.68594">
        <ele>353.28</ele>
        <time>2017-03-26T13:20:03Z</time>
      </trkpt>
      <trkpt lat="45.26864" lon="4.68598">
        <ele>353.24</ele>
        <time>2017-03-26T13:20:04Z</time>
      </trkpt>
      <trkpt lat="45.26863" lon="4.686">
        <ele>353.63</ele>
        <time>2017-03-26T13:20:05Z</time>
      </trkpt>
      <trkpt lat="45.26863" lon="4.68601">
        <ele>353.87</ele>
        <time>2017-03-26T13:20:06Z</time>
      </trkpt>
      <trkpt lat="45.26864" lon="4.68602">
        <ele>354.16</ele>
        <time>2017-03-26T13:20:07Z</time>
      </trkpt>
      <trkpt lat="45.26864" lon="4.68604">
        <ele>354.22</ele>
        <time>2017-03-26T13:20:08Z</time>
      </trkpt>
      <trkpt lat="45.26865" lon="4.68606">
        <ele>354.23</ele>
        <time>2017-03-26T13:20:09Z</time>
      </trkpt>
      <trkpt lat="45.26866" lon="4.68609">
        <ele>354.23</ele>
        <time>2017-03-26T13:20:10Z</time>
      </trkpt>
      <trkpt lat="45.26866" lon="4.6861">
        <ele>354.39</ele>
        <time>2017-03-26T13:20:11Z</time>
      </trkpt>
      <trkpt lat="45.26866" lon="4.6861">
        <ele>354.66</ele>
        <time>2017-03-26T13:20:12Z</time>
      </trkpt>
      <trkpt lat="45.26865" lon="4.68609">
        <ele>354.8</ele>
        <time>2017-03-26T13:20:13Z</time>
      </trkpt>
      <trkpt lat="45.26865" lon="4.68609">
        <ele>354.82</ele>
        <time>2017-03-26T13:20:14Z</time>
      </trkpt>
      <trkpt lat="45.26865" lon="4.68609">
        <ele>354.83</ele>
        <time>2017-03-26T13:20:15Z</time>
      </trkpt>
      <trkpt lat="45.26865" lon="4.68609">
        <ele>354.83</ele>
        <time>2017-03-26T13:20:16Z</time>
      </trkpt>
      <trkpt lat="45.26865" lon="4.68609">
        <ele>354.83</ele>
        <time>2017-03-26T13:20:17Z</time>
      </trkpt>
      <trkpt lat="45.26865" lon="4.68609">
        <ele>354.83</ele>
        <time>2017-03-26T13:20:18Z</time>
      </trkpt>
      <trkpt lat="45.26865" lon="4.68609">
        <ele>354.83</ele>
        <time>2017-03-26T13:20:19Z</time>
      </trkpt>
      <trkpt lat="45.26865" lon="4.68609">
        <ele>354.83</ele>
        <time>2017-03-26T13:20:20Z</time>
      </trkpt>
      <trkpt lat="45.26865" lon="4.68609">
        <ele>354.83</ele>
        <time>2017-03-26T13:20:21Z</time>
      </trkpt>
      <trkpt lat="45.26865" lon="4.68609">
        <ele>354.83</ele>
        <time>2017-03-26T13:20:22Z</time>
      </trkpt>
      <trkpt lat="45.26865" lon="4.68609">
        <ele>354.83</ele>
        <time>2017-03-26T13:20:23Z</time>
      </trkpt>
      <trkpt lat="45.26865" lon="4.68609">
        <ele>354.83</ele>
        <time>2017-03-26T13:20:24Z</time>
      </trkpt>
      <trkpt lat="45.26865" lon="4.68609">
        <ele>354.83</ele>
        <time>2017-03-26T13:20:25Z</time>
      </trkpt>
      <trkpt lat="45.26865" lon="4.68609">
        <ele>354.83</ele>
        <time>2017-03-26T13:20:26Z</time>
      </trkpt>
      <trkpt lat="45.26865" lon="4.68609">
        <ele>354.83</ele>
        <time>2017-03-26T13:20:27Z</time>
      </trkpt>
      <trkpt lat="45.26865" lon="4.68609">
        <ele>354.83</ele>
        <time>2017-03-26T13:20:28Z</time>
      </trkpt>
      <trkpt lat="45.26865" lon="4.68609">
        <ele>354.83</ele>
        <time>2017-03-26T13:20:29Z</time>
      </trkpt>
      <trkpt lat="45.26865" lon="4.68609">
        <ele>354.83</ele>
        <time>2017-03-26T13:20:30Z</time>
      </trkpt>
      <trkpt lat="45.26865" lon="4.68609">
        <ele>354.83</ele>
        <time>2017-03-26T13:20:31Z</time>
      </trkpt>
      <trkpt lat="45.26865" lon="4.68609">
        <ele>354.83</ele>
        <time>2017-03-26T13:20:32Z</time>
      </trkpt>
      <trkpt lat="45.26865" lon="4.68609">
        <ele>354.83</ele>
        <time>2017-03-26T13:20:33Z</time>
      </trkpt>
      <trkpt lat="45.26865" lon="4.68609">
        <ele>354.83</ele>
        <time>2017-03-26T13:20:34Z</time>
      </trkpt>
      <trkpt lat="45.26865" lon="4.68609">
        <ele>354.83</ele>
        <time>2017-03-26T13:20:35Z</time>
      </trkpt>
      <trkpt lat="45.26865" lon="4.68609">
        <ele>354.83</ele>
        <time>2017-03-26T13:20:36Z</time>
      </trkpt>
      <trkpt lat="45.26865" lon="4.68609">
        <ele>354.83</ele>
        <time>2017-03-26T13:20:37Z</time>
      </trkpt>
      <trkpt lat="45.26865" lon="4.68609">
        <ele>354.83</ele>
        <time>2017-03-26T13:20:38Z</time>
      </trkpt>
      <trkpt lat="45.26865" lon="4.68609">
        <ele>354.83</ele>
        <time>2017-03-26T13:20:39Z</time>
      </trkpt>
      <trkpt lat="45.26865" lon="4.68609">
        <ele>354.83</ele>
        <time>2017-03-26T13:20:40Z</time>
      </trkpt>
      <trkpt lat="45.26865" lon="4.68609">
        <ele>354.83</ele>
        <time>2017-03-26T13:20:41Z</time>
      </trkpt>
      <trkpt lat="45.26865" lon="4.68609">
        <ele>354.83</ele>
        <time>2017-03-26T13:20:42Z</time>
      </trkpt>
      <trkpt lat="45.26865" lon="4.68609">
        <ele>354.83</ele>
        <time>2017-03-26T13:20:43Z</time>
      </trkpt>
      <trkpt lat="45.26865" lon="4.68609">
        <ele>354.83</ele>
        <time>2017-03-26T13:20:44Z</time>
      </trkpt>
      <trkpt lat="45.26865" lon="4.68609">
        <ele>354.83</ele>
        <time>2017-03-26T13:20:45Z</time>
      </trkpt>
      <trkpt lat="45.26865" lon="4.68609">
        <ele>354.83</ele>
        <time>2017-03-26T13:20:46Z</time>
      </trkpt>
      <trkpt lat="45.26865" lon="4.68609">
        <ele>354.83</ele>
        <time>2017-03-26T13:20:47Z</time>
      </trkpt>
      <trkpt lat="45.26865" lon="4.68609">
        <ele>354.83</ele>
        <time>2017-03-26T13:20:48Z</time>
      </trkpt>
      <trkpt lat="45.26865" lon="4.68609">
        <ele>354.83</ele>
        <time>2017-03-26T13:20:49Z</time>
      </trkpt>
      <trkpt lat="45.26865" lon="4.68609">
        <ele>354.83</ele>
        <time>2017-03-26T13:20:50Z</time>
      </trkpt>
      <trkpt lat="45.26865" lon="4.68609">
        <ele>354.83</ele>
        <time>2017-03-26T13:20:51Z</time>
      </trkpt>
      <trkpt lat="45.26865" lon="4.68609">
        <ele>354.83</ele>
        <time>2017-03-26T13:20:52Z</time>
      </trkpt>
      <trkpt lat="45.26865" lon="4.68609">
        <ele>354.83</ele>
        <time>2017-03-26T13:20:53Z</time>
      </trkpt>
      <trkpt lat="45.26865" lon="4.68609">
        <ele>354.83</ele>
        <time>2017-03-26T13:20:54Z</time>
      </trkpt>
      <trkpt lat="45.26865" lon="4.68609">
        <ele>354.83</ele>
        <time>2017-03-26T13:20:55Z</time>
      </trkpt>
      <trkpt lat="45.26865" lon="4.68609">
        <ele>354.83</ele>
        <time>2017-03-26T13:20:56Z</time>
      </trkpt>
      <trkpt lat="45.26865" lon="4.68609">
        <ele>354.83</ele>
        <time>2017-03-26T13:20:57Z</time>
      </trkpt>
      <trkpt lat="45.26865" lon="4.68609">
        <ele>354.83</ele>
        <time>2017-03-26T13:20:58Z</time>
      </trkpt>
      <trkpt lat="45.26865" lon="4.68609">
        <ele>354.83</ele>
        <time>2017-03-26T13:20:59Z</time>
      </trkpt>
      <trkpt lat="45.26865" lon="4.68609">
        <ele>354.83</ele>
        <time>2017-03-26T13:21:00Z</time>
      </trkpt>
      <trkpt lat="45.26865" lon="4.68609">
        <ele>354.83</ele>
        <time>2017-03-26T13:21:01Z</time>
      </trkpt>
      <trkpt lat="45.26865" lon="4.68609">
        <ele>354.83</ele>
        <time>2017-03-26T13:21:02Z</time>
      </trkpt>
      <trkpt lat="45.26865" lon="4.68609">
        <ele>354.83</ele>
        <time>2017-03-26T13:21:03Z</time>
      </trkpt>
      <trkpt lat="45.26865" lon="4.68609">
        <ele>354.83</ele>
        <time>2017-03-26T13:21:04Z</time>
      </trkpt>
      <trkpt lat="45.26865" lon="4.68609">
        <ele>354.83</ele>
        <time>2017-03-26T13:21:05Z</time>
      </trkpt>
      <trkpt lat="45.26865" lon="4.68609">
        <ele>354.83</ele>
        <time>2017-03-26T13:21:06Z</time>
      </trkpt>
      <trkpt lat="45.26865" lon="4.68609">
        <ele>354.83</ele>
        <time>2017-03-26T13:21:07Z</time>
      </trkpt>
      <trkpt lat="45.26865" lon="4.68609">
        <ele>354.83</ele>
        <time>2017-03-26T13:21:08Z</time>
      </trkpt>
      <trkpt lat="45.26865" lon="4.68609">
        <ele>354.83</ele>
        <time>2017-03-26T13:21:09Z</time>
      </trkpt>
      <trkpt lat="45.26865" lon="4.68609">
        <ele>354.83</ele>
        <time>2017-03-26T13:21:10Z</time>
      </trkpt>
      <trkpt lat="45.26865" lon="4.68609">
        <ele>354.83</ele>
        <time>2017-03-26T13:21:11Z</time>
      </trkpt>
      <trkpt lat="45.26865" lon="4.68609">
        <ele>354.83</ele>
        <time>2017-03-26T13:21:12Z</time>
      </trkpt>
      <trkpt lat="45.26865" lon="4.68609">
        <ele>354.83</ele>
        <time>2017-03-26T13:21:13Z</time>
      </trkpt>
      <trkpt lat="45.26865" lon="4.68609">
        <ele>354.83</ele>
        <time>2017-03-26T13:21:14Z</time>
      </trkpt>
      <trkpt lat="45.26865" lon="4.68609">
        <ele>354.83</ele>
        <time>2017-03-26T13:21:15Z</time>
      </trkpt>
      <trkpt lat="45.26865" lon="4.68609">
        <ele>354.83</ele>
        <time>2017-03-26T13:21:16Z</time>
      </trkpt>
      <trkpt lat="45.26865" lon="4.68609">
        <ele>354.83</ele>
        <time>2017-03-26T13:21:17Z</time>
      </trkpt>
      <trkpt lat="45.26865" lon="4.68609">
        <ele>354.83</ele>
        <time>2017-03-26T13:21:18Z</time>
      </trkpt>
      <trkpt lat="45.26865" lon="4.68609">
        <ele>354.83</ele>
        <time>2017-03-26T13:21:19Z</time>
      </trkpt>
      <trkpt lat="45.26865" lon="4.68609">
        <ele>354.83</ele>
        <time>2017-03-26T13:21:20Z</time>
      </trkpt>
      <trkpt lat="45.26866" lon="4.68613">
        <ele>355.63</ele>
        <time>2017-03-26T13:21:21Z</time>
      </trkpt>
      <trkpt lat="45.26868" lon="4.68622">
        <ele>355.95</ele>
        <time>2017-03-26T13:21:22Z</time>
      </trkpt>
      <trkpt lat="45.26871" lon="4.68631">
        <ele>356.25</ele>
        <time>2017-03-26T13:21:23Z</time>
      </trkpt>
      <trkpt lat="45.26875" lon="4.68644">
        <ele>356.55</ele>
        <time>2017-03-26T13:21:24Z</time>
      </trkpt>
      <trkpt lat="45.26878" lon="4.68658">
        <ele>356.85</ele>
        <time>2017-03-26T13:21:25Z</time>
      </trkpt>
      <trkpt lat="45.26883" lon="4.68674">
        <ele>357.07</ele>
        <time>2017-03-26T13:21:26Z</time>
      </trkpt>
      <trkpt lat="45.26887" lon="4.68692">
        <ele>357.36</ele>
        <time>2017-03-26T13:21:27Z</time>
      </trkpt>
      <trkpt lat="45.26893" lon="4.68711">
        <ele>357.58</ele>
        <time>2017-03-26T13:21:28Z</time>
      </trkpt>
      <trkpt lat="45.26899" lon="4.68732">
        <ele>357.86</ele>
        <time>2017-03-26T13:21:29Z</time>
      </trkpt>
      <trkpt lat="45.26905" lon="4.68754">
        <ele>358.16</ele>
        <time>2017-03-26T13:21:30Z</time>
      </trkpt>
      <trkpt lat="45.26911" lon="4.68777">
        <ele>358.38</ele>
        <time>2017-03-26T13:21:31Z</time>
      </trkpt>
      <trkpt lat="45.26917" lon="4.688">
        <ele>358.66</ele>
        <time>2017-03-26T13:21:32Z</time>
      </trkpt>
      <trkpt lat="45.26923" lon="4.68823">
        <ele>358.88</ele>
        <time>2017-03-26T13:21:33Z</time>
      </trkpt>
      <trkpt lat="45.26928" lon="4.68847">
        <ele>359.16</ele>
        <time>2017-03-26T13:21:34Z</time>
      </trkpt>
      <trkpt lat="45.26934" lon="4.68872">
        <ele>359.46</ele>
        <time>2017-03-26T13:21:35Z</time>
      </trkpt>
      <trkpt lat="45.26939" lon="4.68896">
        <ele>359.68</ele>
        <time>2017-03-26T13:21:36Z</time>
      </trkpt>
      <trkpt lat="45.26943" lon="4.68921">
        <ele>359.96</ele>
        <time>2017-03-26T13:21:37Z</time>
      </trkpt>
      <trkpt lat="45.26948" lon="4.68946">
        <ele>360.18</ele>
        <time>2017-03-26T13:21:38Z</time>
      </trkpt>
      <trkpt lat="45.26953" lon="4.68972">
        <ele>360.46</ele>
        <time>2017-03-26T13:21:39Z</time>
      </trkpt>
      <trkpt lat="45.26958" lon="4.68998">
        <ele>360.68</ele>
        <time>2017-03-26T13:21:40Z</time>
      </trkpt>
      <trkpt lat="45.26964" lon="4.69025">
        <ele>360.96</ele>
        <time>2017-03-26T13:21:41Z</time>
      </trkpt>
      <trkpt lat="45.2697" lon="4.69051">
        <ele>361.26</ele>
        <time>2017-03-26T13:21:42Z</time>
      </trkpt>
      <trkpt lat="45.26975" lon="4.69079">
        <ele>361.48</ele>
        <time>2017-03-26T13:21:43Z</time>
      </trkpt>
      <trkpt lat="45.26977" lon="4.69107">
        <ele>361.76</ele>
        <time>2017-03-26T13:21:44Z</time>
      </trkpt>
      <trkpt lat="45.26976" lon="4.69136">
        <ele>361.9</ele>
        <time>2017-03-26T13:21:45Z</time>
      </trkpt>
      <trkpt lat="45.26974" lon="4.69165">
        <ele>362.16</ele>
        <time>2017-03-26T13:21:46Z</time>
      </trkpt>
      <trkpt lat="45.26968" lon="4.69194">
        <ele>362.46</ele>
        <time>2017-03-26T13:21:47Z</time>
      </trkpt>
      <trkpt lat="45.2696" lon="4.6922">
        <ele>362.76</ele>
        <time>2017-03-26T13:21:48Z</time>
      </trkpt>
      <trkpt lat="45.26949" lon="4.69246">
        <ele>363.06</ele>
        <time>2017-03-26T13:21:49Z</time>
      </trkpt>
      <trkpt lat="45.26935" lon="4.69271">
        <ele>363.44</ele>
        <time>2017-03-26T13:21:50Z</time>
      </trkpt>
      <trkpt lat="45.2692" lon="4.69294">
        <ele>363.67</ele>
        <time>2017-03-26T13:21:51Z</time>
      </trkpt>
      <trkpt lat="45.26902" lon="4.69314">
        <ele>363.96</ele>
        <time>2017-03-26T13:21:52Z</time>
      </trkpt>
      <trkpt lat="45.26881" lon="4.69327">
        <ele>364.18</ele>
        <time>2017-03-26T13:21:53Z</time>
      </trkpt>
      <trkpt lat="45.26857" lon="4.69337">
        <ele>364.54</ele>
        <time>2017-03-26T13:21:54Z</time>
      </trkpt>
      <trkpt lat="45.26834" lon="4.69347">
        <ele>364.93</ele>
        <time>2017-03-26T13:21:55Z</time>
      </trkpt>
      <trkpt lat="45.26812" lon="4.69357">
        <ele>365.25</ele>
        <time>2017-03-26T13:21:56Z</time>
      </trkpt>
      <trkpt lat="45.2679" lon="4.69366">
        <ele>365.63</ele>
        <time>2017-03-26T13:21:57Z</time>
      </trkpt>
      <trkpt lat="45.26768" lon="4.69376">
        <ele>366.03</ele>
        <time>2017-03-26T13:21:58Z</time>
      </trkpt>
      <trkpt lat="45.26747" lon="4.69386">
        <ele>366.51</ele>
        <time>2017-03-26T13:21:59Z</time>
      </trkpt>
      <trkpt lat="45.26725" lon="4.69395">
        <ele>367.09</ele>
        <time>2017-03-26T13:22:00Z</time>
      </trkpt>
      <trkpt lat="45.26705" lon="4.69405">
        <ele>367.68</ele>
        <time>2017-03-26T13:22:01Z</time>
      </trkpt>
      <trkpt lat="45.26684" lon="4.69415">
        <ele>368.2</ele>
        <time>2017-03-26T13:22:02Z</time>
      </trkpt>
      <trkpt lat="45.26664" lon="4.69427">
        <ele>368.78</ele>
        <time>2017-03-26T13:22:03Z</time>
      </trkpt>
      <trkpt lat="45.26645" lon="4.6944">
        <ele>369.38</ele>
        <time>2017-03-26T13:22:04Z</time>
      </trkpt>
      <trkpt lat="45.26627" lon="4.69455">
        <ele>369.9</ele>
        <time>2017-03-26T13:22:05Z</time>
      </trkpt>
      <trkpt lat="45.26612" lon="4.69477">
        <ele>370.24</ele>
        <time>2017-03-26T13:22:06Z</time>
      </trkpt>
      <trkpt lat="45.26598" lon="4.69501">
        <ele>370.55</ele>
        <time>2017-03-26T13:22:07Z</time>
      </trkpt>
      <trkpt lat="45.26585" lon="4.69525">
        <ele>370.85</ele>
        <time>2017-03-26T13:22:08Z</time>
      </trkpt>
      <trkpt lat="45.26573" lon="4.69549">
        <ele>371.15</ele>
        <time>2017-03-26T13:22:09Z</time>
      </trkpt>
      <trkpt lat="45.2656" lon="4.69574">
        <ele>371.37</ele>
        <time>2017-03-26T13:22:10Z</time>
      </trkpt>
      <trkpt lat="45.26545" lon="4.69597">
        <ele>371.58</ele>
        <time>2017-03-26T13:22:11Z</time>
      </trkpt>
      <trkpt lat="45.26529" lon="4.69619">
        <ele>371.78</ele>
        <time>2017-03-26T13:22:12Z</time>
      </trkpt>
      <trkpt lat="45.26513" lon="4.69639">
        <ele>372.06</ele>
        <time>2017-03-26T13:22:13Z</time>
      </trkpt>
      <trkpt lat="45.26495" lon="4.69658">
        <ele>372.36</ele>
        <time>2017-03-26T13:22:14Z</time>
      </trkpt>
      <trkpt lat="45.26477" lon="4.69676">
        <ele>372.66</ele>
        <time>2017-03-26T13:22:15Z</time>
      </trkpt>
      <trkpt lat="45.2646" lon="4.69694">
        <ele>372.96</ele>
        <time>2017-03-26T13:22:16Z</time>
      </trkpt>
      <trkpt lat="45.26442" lon="4.69711">
        <ele>373.26</ele>
        <time>2017-03-26T13:22:17Z</time>
      </trkpt>
      <trkpt lat="45.26424" lon="4.69728">
        <ele>373.55</ele>
        <time>2017-03-26T13:22:18Z</time>
      </trkpt>
      <trkpt lat="45.26407" lon="4.69746">
        <ele>373.86</ele>
        <time>2017-03-26T13:22:19Z</time>
      </trkpt>
      <trkpt lat="45.2639" lon="4.69763">
        <ele>374.08</ele>
        <time>2017-03-26T13:22:20Z</time>
      </trkpt>
      <trkpt lat="45.26373" lon="4.69781">
        <ele>374.28</ele>
        <time>2017-03-26T13:22:21Z</time>
      </trkpt>
      <trkpt lat="45.26356" lon="4.69799">
        <ele>374.64</ele>
        <time>2017-03-26T13:22:22Z</time>
      </trkpt>
      <trkpt lat="45.26341" lon="4.69818">
        <ele>374.87</ele>
        <time>2017-03-26T13:22:23Z</time>
      </trkpt>
      <trkpt lat="45.26326" lon="4.69839">
        <ele>375.24</ele>
        <time>2017-03-26T13:22:24Z</time>
      </trkpt>
      <trkpt lat="45.26314" lon="4.6986">
        <ele>375.47</ele>
        <time>2017-03-26T13:22:25Z</time>
      </trkpt>
      <trkpt lat="45.26303" lon="4.69884">
        <ele>375.76</ele>
        <time>2017-03-26T13:22:26Z</time>
      </trkpt>
      <trkpt lat="45.26296" lon="4.6991">
        <ele>375.9</ele>
        <time>2017-03-26T13:22:27Z</time>
      </trkpt>
      <trkpt lat="45.2629" lon="4.69939">
        <ele>376.32</ele>
        <time>2017-03-26T13:22:28Z</time>
      </trkpt>
      <trkpt lat="45.26287" lon="4.69967">
        <ele>376.65</ele>
        <time>2017-03-26T13:22:29Z</time>
      </trkpt>
      <trkpt lat="45.26287" lon="4.69996">
        <ele>376.95</ele>
        <time>2017-03-26T13:22:30Z</time>
      </trkpt>
      <trkpt lat="45.26292" lon="4.70027">
        <ele>377.33</ele>
        <time>2017-03-26T13:22:31Z</time>
      </trkpt>
      <trkpt lat="45.26295" lon="4.70058">
        <ele>377.57</ele>
        <time>2017-03-26T13:22:32Z</time>
      </trkpt>
      <trkpt lat="45.26298" lon="4.70089">
        <ele>377.78</ele>
        <time>2017-03-26T13:22:33Z</time>
      </trkpt>
      <trkpt lat="45.263" lon="4.7012">
        <ele>378.06</ele>
        <time>2017-03-26T13:22:34Z</time>
      </trkpt>
      <trkpt lat="45.263" lon="4.7015">
        <ele>378.36</ele>
        <time>2017-03-26T13:22:35Z</time>
      </trkpt>
      <trkpt lat="45.26301" lon="4.70181">
        <ele>378.5</ele>
        <time>2017-03-26T13:22:36Z</time>
      </trkpt>
      <trkpt lat="45.263" lon="4.70212">
        <ele>378.76</ele>
        <time>2017-03-26T13:22:37Z</time>
      </trkpt>
      <trkpt lat="45.26299" lon="4.70243">
        <ele>379.06</ele>
        <time>2017-03-26T13:22:38Z</time>
      </trkpt>
      <trkpt lat="45.26298" lon="4.70274">
        <ele>379.28</ele>
        <time>2017-03-26T13:22:39Z</time>
      </trkpt>
      <trkpt lat="45.26297" lon="4.70306">
        <ele>379.56</ele>
        <time>2017-03-26T13:22:40Z</time>
      </trkpt>
      <trkpt lat="45.26295" lon="4.70338">
        <ele>379.7</ele>
        <time>2017-03-26T13:22:41Z</time>
      </trkpt>
      <trkpt lat="45.26293" lon="4.70368">
        <ele>379.8</ele>
        <time>2017-03-26T13:22:42Z</time>
      </trkpt>
      <trkpt lat="45.26291" lon="4.70398">
        <ele>379.9</ele>
        <time>2017-03-26T13:22:43Z</time>
      </trkpt>
      <trkpt lat="45.26289" lon="4.70428">
        <ele>380.08</ele>
        <time>2017-03-26T13:22:44Z</time>
      </trkpt>
      <trkpt lat="45.26286" lon="4.70457">
        <ele>380.28</ele>
        <time>2017-03-26T13:22:45Z</time>
      </trkpt>
      <trkpt lat="45.26284" lon="4.70486">
        <ele>380.56</ele>
        <time>2017-03-26T13:22:46Z</time>
      </trkpt>
      <trkpt lat="45.26281" lon="4.70514">
        <ele>380.78</ele>
        <time>2017-03-26T13:22:47Z</time>
      </trkpt>
      <trkpt lat="45.26277" lon="4.70541">
        <ele>381.06</ele>
        <time>2017-03-26T13:22:48Z</time>
      </trkpt>
      <trkpt lat="45.26273" lon="4.70568">
        <ele>381.44</ele>
        <time>2017-03-26T13:22:49Z</time>
      </trkpt>
      <trkpt lat="45.26269" lon="4.70593">
        <ele>381.99</ele>
        <time>2017-03-26T13:22:50Z</time>
      </trkpt>
      <trkpt lat="45.26264" lon="4.70616">
        <ele>382.82</ele>
        <time>2017-03-26T13:22:51Z</time>
      </trkpt>
      <trkpt lat="45.26259" lon="4.70636">
        <ele>383.31</ele>
        <time>2017-03-26T13:22:52Z</time>
      </trkpt>
      <trkpt lat="45.26252" lon="4.70654">
        <ele>383.81</ele>
        <time>2017-03-26T13:22:53Z</time>
      </trkpt>
      <trkpt lat="45.26244" lon="4.70663">
        <ele>384.07</ele>
        <time>2017-03-26T13:22:54Z</time>
      </trkpt>
      <trkpt lat="45.26235" lon="4.70671">
        <ele>384.52</ele>
        <time>2017-03-26T13:22:55Z</time>
      </trkpt>
      <trkpt lat="45.26224" lon="4.7067">
        <ele>385.01</ele>
        <time>2017-03-26T13:22:56Z</time>
      </trkpt>
      <trkpt lat="45.26213" lon="4.70667">
        <ele>385.59</ele>
        <time>2017-03-26T13:22:57Z</time>
      </trkpt>
      <trkpt lat="45.26205" lon="4.70655">
        <ele>385.54</ele>
        <time>2017-03-26T13:22:58Z</time>
      </trkpt>
      <trkpt lat="45.26197" lon="4.70642">
        <ele>385.85</ele>
        <time>2017-03-26T13:22:59Z</time>
      </trkpt>
      <trkpt lat="45.2619" lon="4.70627">
        <ele>386.23</ele>
        <time>2017-03-26T13:23:00Z</time>
      </trkpt>
      <trkpt lat="45.26185" lon="4.70608">
        <ele>386.71</ele>
        <time>2017-03-26T13:23:01Z</time>
      </trkpt>
      <trkpt lat="45.26179" lon="4.70591">
        <ele>387.21</ele>
        <time>2017-03-26T13:23:02Z</time>
      </trkpt>
      <trkpt lat="45.26172" lon="4.70574">
        <ele>387.71</ele>
        <time>2017-03-26T13:23:03Z</time>
      </trkpt>
      <trkpt lat="45.26166" lon="4.70556">
        <ele>388.29</ele>
        <time>2017-03-26T13:23:04Z</time>
      </trkpt>
      <trkpt lat="45.2616" lon="4.70538">
        <ele>388.96</ele>
        <time>2017-03-26T13:23:05Z</time>
      </trkpt>
      <trkpt lat="45.26154" lon="4.70521">
        <ele>389.42</ele>
        <time>2017-03-26T13:23:06Z</time>
      </trkpt>
      <trkpt lat="45.26148" lon="4.70505">
        <ele>389.91</ele>
        <time>2017-03-26T13:23:07Z</time>
      </trkpt>
      <trkpt lat="45.26142" lon="4.70489">
        <ele>390.09</ele>
        <time>2017-03-26T13:23:08Z</time>
      </trkpt>
      <trkpt lat="45.26138" lon="4.70473">
        <ele>390.12</ele>
        <time>2017-03-26T13:23:09Z</time>
      </trkpt>
      <trkpt lat="45.26136" lon="4.70457">
        <ele>389.89</ele>
        <time>2017-03-26T13:23:10Z</time>
      </trkpt>
      <trkpt lat="45.26134" lon="4.70441">
        <ele>389.84</ele>
        <time>2017-03-26T13:23:11Z</time>
      </trkpt>
      <trkpt lat="45.26134" lon="4.70424">
        <ele>390.15</ele>
        <time>2017-03-26T13:23:12Z</time>
      </trkpt>
      <trkpt lat="45.26134" lon="4.70408">
        <ele>390.61</ele>
        <time>2017-03-26T13:23:13Z</time>
      </trkpt>
      <trkpt lat="45.26129" lon="4.70395">
        <ele>390.71</ele>
        <time>2017-03-26T13:23:14Z</time>
      </trkpt>
      <trkpt lat="45.26123" lon="4.70385">
        <ele>390.73</ele>
        <time>2017-03-26T13:23:15Z</time>
      </trkpt>
      <trkpt lat="45.26117" lon="4.70376">
        <ele>390.41</ele>
        <time>2017-03-26T13:23:16Z</time>
      </trkpt>
      <trkpt lat="45.2611" lon="4.70366">
        <ele>390.11</ele>
        <time>2017-03-26T13:23:17Z</time>
      </trkpt>
      <trkpt lat="45.26103" lon="4.70356">
        <ele>389.73</ele>
        <time>2017-03-26T13:23:18Z</time>
      </trkpt>
      <trkpt lat="45.26098" lon="4.70344">
        <ele>389.73</ele>
        <time>2017-03-26T13:23:19Z</time>
      </trkpt>
      <trkpt lat="45.26092" lon="4.70331">
        <ele>389.65</ele>
        <time>2017-03-26T13:23:20Z</time>
      </trkpt>
      <trkpt lat="45.26086" lon="4.70316">
        <ele>389.47</ele>
        <time>2017-03-26T13:23:21Z</time>
      </trkpt>
      <trkpt lat="45.2608" lon="4.703">
        <ele>389.36</ele>
        <time>2017-03-26T13:23:22Z</time>
      </trkpt>
      <trkpt lat="45.26073" lon="4.70284">
        <ele>389.1</ele>
        <time>2017-03-26T13:23:23Z</time>
      </trkpt>
      <trkpt lat="45.26066" lon="4.70267">
        <ele>388.96</ele>
        <time>2017-03-26T13:23:24Z</time>
      </trkpt>
      <trkpt lat="45.26059" lon="4.7025">
        <ele>388.78</ele>
        <time>2017-03-26T13:23:25Z</time>
      </trkpt>
      <trkpt lat="45.26052" lon="4.70232">
        <ele>388.74</ele>
        <time>2017-03-26T13:23:26Z</time>
      </trkpt>
      <trkpt lat="45.26046" lon="4.70214">
        <ele>388.65</ele>
        <time>2017-03-26T13:23:27Z</time>
      </trkpt>
      <trkpt lat="45.26038" lon="4.70197">
        <ele>388.63</ele>
        <time>2017-03-26T13:23:28Z</time>
      </trkpt>
      <trkpt lat="45.26031" lon="4.70178">
        <ele>388.55</ele>
        <time>2017-03-26T13:23:29Z</time>
      </trkpt>
      <trkpt lat="45.26023" lon="4.7016">
        <ele>388.53</ele>
        <time>2017-03-26T13:23:30Z</time>
      </trkpt>
      <trkpt lat="45.26016" lon="4.70142">
        <ele>388.45</ele>
        <time>2017-03-26T13:23:31Z</time>
      </trkpt>
      <trkpt lat="45.26008" lon="4.70123">
        <ele>388.19</ele>
        <time>2017-03-26T13:23:32Z</time>
      </trkpt>
      <trkpt lat="45.25999" lon="4.70104">
        <ele>387.82</ele>
        <time>2017-03-26T13:23:33Z</time>
      </trkpt>
      <trkpt lat="45.2599" lon="4.70086">
        <ele>387.43</ele>
        <time>2017-03-26T13:23:34Z</time>
      </trkpt>
      <trkpt lat="45.25979" lon="4.70069">
        <ele>387.27</ele>
        <time>2017-03-26T13:23:35Z</time>
      </trkpt>
      <trkpt lat="45.25968" lon="4.70052">
        <ele>387</ele>
        <time>2017-03-26T13:23:36Z</time>
      </trkpt>
      <trkpt lat="45.25955" lon="4.70036">
        <ele>386.62</ele>
        <time>2017-03-26T13:23:37Z</time>
      </trkpt>
      <trkpt lat="45.25942" lon="4.70022">
        <ele>385.83</ele>
        <time>2017-03-26T13:23:38Z</time>
      </trkpt>
      <trkpt lat="45.25929" lon="4.70008">
        <ele>385.11</ele>
        <time>2017-03-26T13:23:39Z</time>
      </trkpt>
      <trkpt lat="45.25915" lon="4.69994">
        <ele>384.41</ele>
        <time>2017-03-26T13:23:40Z</time>
      </trkpt>
      <trkpt lat="45.25902" lon="4.6998">
        <ele>383.87</ele>
        <time>2017-03-26T13:23:41Z</time>
      </trkpt>
      <trkpt lat="45.25888" lon="4.69967">
        <ele>383.04</ele>
        <time>2017-03-26T13:23:42Z</time>
      </trkpt>
      <trkpt lat="45.25876" lon="4.69954">
        <ele>381.99</ele>
        <time>2017-03-26T13:23:43Z</time>
      </trkpt>
      <trkpt lat="45.25864" lon="4.69941">
        <ele>381.22</ele>
        <time>2017-03-26T13:23:44Z</time>
      </trkpt>
      <trkpt lat="45.25852" lon="4.69927">
        <ele>380.75</ele>
        <time>2017-03-26T13:23:45Z</time>
      </trkpt>
      <trkpt lat="45.25843" lon="4.69912">
        <ele>380.09</ele>
        <time>2017-03-26T13:23:46Z</time>
      </trkpt>
      <trkpt lat="45.25833" lon="4.69897">
        <ele>379.56</ele>
        <time>2017-03-26T13:23:47Z</time>
      </trkpt>
      <trkpt lat="45.25826" lon="4.69883">
        <ele>378.82</ele>
        <time>2017-03-26T13:23:48Z</time>
      </trkpt>
      <trkpt lat="45.25821" lon="4.69869">
        <ele>378.35</ele>
        <time>2017-03-26T13:23:49Z</time>
      </trkpt>
      <trkpt lat="45.25816" lon="4.69856">
        <ele>378.09</ele>
        <time>2017-03-26T13:23:50Z</time>
      </trkpt>
      <trkpt lat="45.25811" lon="4.69845">
        <ele>377.72</ele>
        <time>2017-03-26T13:23:51Z</time>
      </trkpt>
      <trkpt lat="45.25804" lon="4.69836">
        <ele>377.01</ele>
        <time>2017-03-26T13:23:52Z</time>
      </trkpt>
      <trkpt lat="45.25796" lon="4.69828">
        <ele>376.31</ele>
        <time>2017-03-26T13:23:53Z</time>
      </trkpt>
      <trkpt lat="45.25786" lon="4.69819">
        <ele>375.77</ele>
        <time>2017-03-26T13:23:54Z</time>
      </trkpt>
      <trkpt lat="45.25777" lon="4.69806">
        <ele>375.02</ele>
        <time>2017-03-26T13:23:55Z</time>
      </trkpt>
      <trkpt lat="45.25767" lon="4.69792">
        <ele>374.31</ele>
        <time>2017-03-26T13:23:56Z</time>
      </trkpt>
      <trkpt lat="45.25757" lon="4.69776">
        <ele>373.69</ele>
        <time>2017-03-26T13:23:57Z</time>
      </trkpt>
      <trkpt lat="45.25748" lon="4.6976">
        <ele>373.24</ele>
        <time>2017-03-26T13:23:58Z</time>
      </trkpt>
      <trkpt lat="45.25739" lon="4.69744">
        <ele>372.91</ele>
        <time>2017-03-26T13:23:59Z</time>
      </trkpt>
      <trkpt lat="45.2573" lon="4.69728">
        <ele>372.53</ele>
        <time>2017-03-26T13:24:00Z</time>
      </trkpt>
      <trkpt lat="45.2572" lon="4.69711">
        <ele>372.05</ele>
        <time>2017-03-26T13:24:01Z</time>
      </trkpt>
      <trkpt lat="45.2571" lon="4.69695">
        <ele>371.63</ele>
        <time>2017-03-26T13:24:02Z</time>
      </trkpt>
      <trkpt lat="45.257" lon="4.69678">
        <ele>371.23</ele>
        <time>2017-03-26T13:24:03Z</time>
      </trkpt>
      <trkpt lat="45.25691" lon="4.69661">
        <ele>370.75</ele>
        <time>2017-03-26T13:24:04Z</time>
      </trkpt>
      <trkpt lat="45.25681" lon="4.69644">
        <ele>370.41</ele>
        <time>2017-03-26T13:24:05Z</time>
      </trkpt>
      <trkpt lat="45.25671" lon="4.69628">
        <ele>370.19</ele>
        <time>2017-03-26T13:24:06Z</time>
      </trkpt>
      <trkpt lat="45.25662" lon="4.69612">
        <ele>369.82</ele>
        <time>2017-03-26T13:24:07Z</time>
      </trkpt>
      <trkpt lat="45.25653" lon="4.69598">
        <ele>369.51</ele>
        <time>2017-03-26T13:24:08Z</time>
      </trkpt>
      <trkpt lat="45.25644" lon="4.69584">
        <ele>369.05</ele>
        <time>2017-03-26T13:24:09Z</time>
      </trkpt>
      <trkpt lat="45.25636" lon="4.69571">
        <ele>368.55</ele>
        <time>2017-03-26T13:24:10Z</time>
      </trkpt>
      <trkpt lat="45.25628" lon="4.69559">
        <ele>367.81</ele>
        <time>2017-03-26T13:24:11Z</time>
      </trkpt>
      <trkpt lat="45.2562" lon="4.69548">
        <ele>366.87</ele>
        <time>2017-03-26T13:24:12Z</time>
      </trkpt>
      <trkpt lat="45.25613" lon="4.69537">
        <ele>365.88</ele>
        <time>2017-03-26T13:24:13Z</time>
      </trkpt>
      <trkpt lat="45.25608" lon="4.69526">
        <ele>365.28</ele>
        <time>2017-03-26T13:24:14Z</time>
      </trkpt>
      <trkpt lat="45.25602" lon="4.69517">
        <ele>364.52</ele>
        <time>2017-03-26T13:24:15Z</time>
      </trkpt>
      <trkpt lat="45.25596" lon="4.6951">
        <ele>363.97</ele>
        <time>2017-03-26T13:24:16Z</time>
      </trkpt>
      <trkpt lat="45.25589" lon="4.69506">
        <ele>363.14</ele>
        <time>2017-03-26T13:24:17Z</time>
      </trkpt>
      <trkpt lat="45.25582" lon="4.69505">
        <ele>362.09</ele>
        <time>2017-03-26T13:24:18Z</time>
      </trkpt>
      <trkpt lat="45.25576" lon="4.69508">
        <ele>361.16</ele>
        <time>2017-03-26T13:24:19Z</time>
      </trkpt>
      <trkpt lat="45.2557" lon="4.69513">
        <ele>360.18</ele>
        <time>2017-03-26T13:24:20Z</time>
      </trkpt>
      <trkpt lat="45.25567" lon="4.69521">
        <ele>359.34</ele>
        <time>2017-03-26T13:24:21Z</time>
      </trkpt>
      <trkpt lat="45.25565" lon="4.69531">
        <ele>358.69</ele>
        <time>2017-03-26T13:24:22Z</time>
      </trkpt>
      <trkpt lat="45.25566" lon="4.69542">
        <ele>357.92</ele>
        <time>2017-03-26T13:24:23Z</time>
      </trkpt>
      <trkpt lat="45.25568" lon="4.69554">
        <ele>357.77</ele>
        <time>2017-03-26T13:24:24Z</time>
      </trkpt>
      <trkpt lat="45.25574" lon="4.69563">
        <ele>357.66</ele>
        <time>2017-03-26T13:24:25Z</time>
      </trkpt>
      <trkpt lat="45.2558" lon="4.69569">
        <ele>357.4</ele>
        <time>2017-03-26T13:24:26Z</time>
      </trkpt>
      <trkpt lat="45.25589" lon="4.6957">
        <ele>357.34</ele>
        <time>2017-03-26T13:24:27Z</time>
      </trkpt>
      <trkpt lat="45.25596" lon="4.69568">
        <ele>357.17</ele>
        <time>2017-03-26T13:24:28Z</time>
      </trkpt>
      <trkpt lat="45.25603" lon="4.69562">
        <ele>356.98</ele>
        <time>2017-03-26T13:24:29Z</time>
      </trkpt>
      <trkpt lat="45.25608" lon="4.69555">
        <ele>357.02</ele>
        <time>2017-03-26T13:24:30Z</time>
      </trkpt>
      <trkpt lat="45.2561" lon="4.69546">
        <ele>356.95</ele>
        <time>2017-03-26T13:24:31Z</time>
      </trkpt>
      <trkpt lat="45.25609" lon="4.69535">
        <ele>356.93</ele>
        <time>2017-03-26T13:24:32Z</time>
      </trkpt>
      <trkpt lat="45.25608" lon="4.69524">
        <ele>357.17</ele>
        <time>2017-03-26T13:24:33Z</time>
      </trkpt>
      <trkpt lat="45.25602" lon="4.69516">
        <ele>357.14</ele>
        <time>2017-03-26T13:24:34Z</time>
      </trkpt>
      <trkpt lat="45.25596" lon="4.69508">
        <ele>356.81</ele>
        <time>2017-03-26T13:24:35Z</time>
      </trkpt>
      <trkpt lat="45.2559" lon="4.695">
        <ele>356.67</ele>
        <time>2017-03-26T13:24:36Z</time>
      </trkpt>
      <trkpt lat="45.25585" lon="4.69491">
        <ele>356.64</ele>
        <time>2017-03-26T13:24:37Z</time>
      </trkpt>
      <trkpt lat="45.25581" lon="4.6948">
        <ele>356.63</ele>
        <time>2017-03-26T13:24:38Z</time>
      </trkpt>
      <trkpt lat="45.25578" lon="4.69468">
        <ele>356.63</ele>
        <time>2017-03-26T13:24:39Z</time>
      </trkpt>
      <trkpt lat="45.25574" lon="4.69456">
        <ele>356.71</ele>
        <time>2017-03-26T13:24:40Z</time>
      </trkpt>
      <trkpt lat="45.25571" lon="4.69444">
        <ele>356.81</ele>
        <time>2017-03-26T13:24:41Z</time>
      </trkpt>
      <trkpt lat="45.25567" lon="4.69431">
        <ele>357.23</ele>
        <time>2017-03-26T13:24:42Z</time>
      </trkpt>
      <trkpt lat="45.25563" lon="4.69417">
        <ele>357.47</ele>
        <time>2017-03-26T13:24:43Z</time>
      </trkpt>
      <trkpt lat="45.25558" lon="4.69403">
        <ele>357.76</ele>
        <time>2017-03-26T13:24:44Z</time>
      </trkpt>
      <trkpt lat="45.25553" lon="4.69389">
        <ele>357.58</ele>
        <time>2017-03-26T13:24:45Z</time>
      </trkpt>
      <trkpt lat="45.25548" lon="4.69374">
        <ele>357.46</ele>
        <time>2017-03-26T13:24:46Z</time>
      </trkpt>
      <trkpt lat="45.25542" lon="4.69358">
        <ele>357.2</ele>
        <time>2017-03-26T13:24:47Z</time>
      </trkpt>
      <trkpt lat="45.25537" lon="4.69341">
        <ele>356.98</ele>
        <time>2017-03-26T13:24:48Z</time>
      </trkpt>
      <trkpt lat="45.25531" lon="4.69324">
        <ele>356.86</ele>
        <time>2017-03-26T13:24:49Z</time>
      </trkpt>
      <trkpt lat="45.25525" lon="4.69306">
        <ele>356.76</ele>
        <time>2017-03-26T13:24:50Z</time>
      </trkpt>
      <trkpt lat="45.25519" lon="4.69289">
        <ele>356.74</ele>
        <time>2017-03-26T13:24:51Z</time>
      </trkpt>
      <trkpt lat="45.25514" lon="4.6927">
        <ele>356.73</ele>
        <time>2017-03-26T13:24:52Z</time>
      </trkpt>
      <trkpt lat="45.25508" lon="4.69251">
        <ele>356.65</ele>
        <time>2017-03-26T13:24:53Z</time>
      </trkpt>
      <trkpt lat="45.25503" lon="4.69233">
        <ele>356.15</ele>
        <time>2017-03-26T13:24:54Z</time>
      </trkpt>
      <trkpt lat="45.25498" lon="4.69214">
        <ele>355.81</ele>
        <time>2017-03-26T13:24:55Z</time>
      </trkpt>
      <trkpt lat="45.25492" lon="4.69195">
        <ele>355.59</ele>
        <time>2017-03-26T13:24:56Z</time>
      </trkpt>
      <trkpt lat="45.25486" lon="4.69176">
        <ele>355.38</ele>
        <time>2017-03-26T13:24:57Z</time>
      </trkpt>
      <trkpt lat="45.25481" lon="4.69157">
        <ele>355.1</ele>
        <time>2017-03-26T13:24:58Z</time>
      </trkpt>
      <trkpt lat="45.25475" lon="4.69138">
        <ele>354.48</ele>
        <time>2017-03-26T13:24:59Z</time>
      </trkpt>
      <trkpt lat="45.2547" lon="4.69118">
        <ele>354.04</ele>
        <time>2017-03-26T13:25:00Z</time>
      </trkpt>
      <trkpt lat="45.25464" lon="4.69099">
        <ele>353.79</ele>
        <time>2017-03-26T13:25:01Z</time>
      </trkpt>
      <trkpt lat="45.25458" lon="4.69079">
        <ele>353.18</ele>
        <time>2017-03-26T13:25:02Z</time>
      </trkpt>
      <trkpt lat="45.25454" lon="4.69058">
        <ele>353.22</ele>
        <time>2017-03-26T13:25:03Z</time>
      </trkpt>
      <trkpt lat="45.25451" lon="4.69038">
        <ele>352.83</ele>
        <time>2017-03-26T13:25:04Z</time>
      </trkpt>
      <trkpt lat="45.25449" lon="4.69017">
        <ele>352.43</ele>
        <time>2017-03-26T13:25:05Z</time>
      </trkpt>
      <trkpt lat="45.25448" lon="4.68997">
        <ele>352.19</ele>
        <time>2017-03-26T13:25:06Z</time>
      </trkpt>
      <trkpt lat="45.25447" lon="4.68977">
        <ele>351.82</ele>
        <time>2017-03-26T13:25:07Z</time>
      </trkpt>
      <trkpt lat="45.25447" lon="4.68958">
        <ele>351.83</ele>
        <time>2017-03-26T13:25:08Z</time>
      </trkpt>
      <trkpt lat="45.25448" lon="4.68939">
        <ele>351.67</ele>
        <time>2017-03-26T13:25:09Z</time>
      </trkpt>
      <trkpt lat="45.25449" lon="4.6892">
        <ele>351.56</ele>
        <time>2017-03-26T13:25:10Z</time>
      </trkpt>
      <trkpt lat="45.2545" lon="4.68902">
        <ele>351.38</ele>
        <time>2017-03-26T13:25:11Z</time>
      </trkpt>
      <trkpt lat="45.25451" lon="4.68884">
        <ele>351.42</ele>
        <time>2017-03-26T13:25:12Z</time>
      </trkpt>
      <trkpt lat="45.25453" lon="4.68866">
        <ele>351.99</ele>
        <time>2017-03-26T13:25:13Z</time>
      </trkpt>
      <trkpt lat="45.25454" lon="4.68849">
        <ele>352.5</ele>
        <time>2017-03-26T13:25:14Z</time>
      </trkpt>
      <trkpt lat="45.25456" lon="4.68832">
        <ele>353.08</ele>
        <time>2017-03-26T13:25:15Z</time>
      </trkpt>
      <trkpt lat="45.25458" lon="4.68817">
        <ele>352.96</ele>
        <time>2017-03-26T13:25:16Z</time>
      </trkpt>
      <trkpt lat="45.25461" lon="4.68807">
        <ele>351.82</ele>
        <time>2017-03-26T13:25:17Z</time>
      </trkpt>
      <trkpt lat="45.25465" lon="4.68798">
        <ele>350.87</ele>
        <time>2017-03-26T13:25:18Z</time>
      </trkpt>
      <trkpt lat="45.2547" lon="4.68791">
        <ele>350.2</ele>
        <time>2017-03-26T13:25:19Z</time>
      </trkpt>
      <trkpt lat="45.25474" lon="4.68784">
        <ele>350.22</ele>
        <time>2017-03-26T13:25:20Z</time>
      </trkpt>
      <trkpt lat="45.25479" lon="4.68777">
        <ele>350.07</ele>
        <time>2017-03-26T13:25:21Z</time>
      </trkpt>
      <trkpt lat="45.25482" lon="4.68768">
        <ele>350.12</ele>
        <time>2017-03-26T13:25:22Z</time>
      </trkpt>
      <trkpt lat="45.25484" lon="4.68759">
        <ele>350.37</ele>
        <time>2017-03-26T13:25:23Z</time>
      </trkpt>
      <trkpt lat="45.25483" lon="4.6875">
        <ele>350.42</ele>
        <time>2017-03-26T13:25:24Z</time>
      </trkpt>
      <trkpt lat="45.25481" lon="4.6874">
        <ele>350.51</ele>
        <time>2017-03-26T13:25:25Z</time>
      </trkpt>
      <trkpt lat="45.2548" lon="4.68729">
        <ele>350.77</ele>
        <time>2017-03-26T13:25:26Z</time>
      </trkpt>
      <trkpt lat="45.2548" lon="4.68716">
        <ele>351.14</ele>
        <time>2017-03-26T13:25:27Z</time>
      </trkpt>
      <trkpt lat="45.2548" lon="4.68702">
        <ele>351.21</ele>
        <time>2017-03-26T13:25:28Z</time>
      </trkpt>
      <trkpt lat="45.25482" lon="4.68687">
        <ele>351.23</ele>
        <time>2017-03-26T13:25:29Z</time>
      </trkpt>
      <trkpt lat="45.25485" lon="4.6867">
        <ele>351.15</ele>
        <time>2017-03-26T13:25:30Z</time>
      </trkpt>
      <trkpt lat="45.25488" lon="4.68653">
        <ele>350.81</ele>
        <time>2017-03-26T13:25:31Z</time>
      </trkpt>
      <trkpt lat="45.25491" lon="4.68636">
        <ele>350.59</ele>
        <time>2017-03-26T13:25:32Z</time>
      </trkpt>
      <trkpt lat="45.25494" lon="4.68617">
        <ele>350.38</ele>
        <time>2017-03-26T13:25:33Z</time>
      </trkpt>
      <trkpt lat="45.25497" lon="4.68598">
        <ele>350.1</ele>
        <time>2017-03-26T13:25:34Z</time>
      </trkpt>
      <trkpt lat="45.255" lon="4.68578">
        <ele>349.8</ele>
        <time>2017-03-26T13:25:35Z</time>
      </trkpt>
      <trkpt lat="45.25503" lon="4.68559">
        <ele>349.5</ele>
        <time>2017-03-26T13:25:36Z</time>
      </trkpt>
      <trkpt lat="45.25505" lon="4.6854">
        <ele>349.2</ele>
        <time>2017-03-26T13:25:37Z</time>
      </trkpt>
      <trkpt lat="45.25505" lon="4.68521">
        <ele>348.9</ele>
        <time>2017-03-26T13:25:38Z</time>
      </trkpt>
      <trkpt lat="45.25504" lon="4.68502">
        <ele>348.76</ele>
        <time>2017-03-26T13:25:39Z</time>
      </trkpt>
      <trkpt lat="45.255" lon="4.68484">
        <ele>348.74</ele>
        <time>2017-03-26T13:25:40Z</time>
      </trkpt>
      <trkpt lat="45.25495" lon="4.68466">
        <ele>348.73</ele>
        <time>2017-03-26T13:25:41Z</time>
      </trkpt>
      <trkpt lat="45.25488" lon="4.68449">
        <ele>348.89</ele>
        <time>2017-03-26T13:25:42Z</time>
      </trkpt>
      <trkpt lat="45.25479" lon="4.68433">
        <ele>349.08</ele>
        <time>2017-03-26T13:25:43Z</time>
      </trkpt>
      <trkpt lat="45.2547" lon="4.68417">
        <ele>349.2</ele>
        <time>2017-03-26T13:25:44Z</time>
      </trkpt>
      <trkpt lat="45.25461" lon="4.68403">
        <ele>349.22</ele>
        <time>2017-03-26T13:25:45Z</time>
      </trkpt>
      <trkpt lat="45.25451" lon="4.68391">
        <ele>349.15</ele>
        <time>2017-03-26T13:25:46Z</time>
      </trkpt>
      <trkpt lat="45.2544" lon="4.6838">
        <ele>348.81</ele>
        <time>2017-03-26T13:25:47Z</time>
      </trkpt>
      <trkpt lat="45.25429" lon="4.68372">
        <ele>348.43</ele>
        <time>2017-03-26T13:25:48Z</time>
      </trkpt>
      <trkpt lat="45.25417" lon="4.68365">
        <ele>347.95</ele>
        <time>2017-03-26T13:25:49Z</time>
      </trkpt>
      <trkpt lat="45.25404" lon="4.68361">
        <ele>347.13</ele>
        <time>2017-03-26T13:25:50Z</time>
      </trkpt>
      <trkpt lat="45.2539" lon="4.68358">
        <ele>346.57</ele>
        <time>2017-03-26T13:25:51Z</time>
      </trkpt>
      <trkpt lat="45.25376" lon="4.68354">
        <ele>346.14</ele>
        <time>2017-03-26T13:25:52Z</time>
      </trkpt>
      <trkpt lat="45.25363" lon="4.6835">
        <ele>345.65</ele>
        <time>2017-03-26T13:25:53Z</time>
      </trkpt>
      <trkpt lat="45.25349" lon="4.68344">
        <ele>345.23</ele>
        <time>2017-03-26T13:25:54Z</time>
      </trkpt>
      <trkpt lat="45.25337" lon="4.68336">
        <ele>344.51</ele>
        <time>2017-03-26T13:25:55Z</time>
      </trkpt>
      <trkpt lat="45.25326" lon="4.68327">
        <ele>343.89</ele>
        <time>2017-03-26T13:25:56Z</time>
      </trkpt>
      <trkpt lat="45.25316" lon="4.68317">
        <ele>343.28</ele>
        <time>2017-03-26T13:25:57Z</time>
      </trkpt>
      <trkpt lat="45.25305" lon="4.68305">
        <ele>342.84</ele>
        <time>2017-03-26T13:25:58Z</time>
      </trkpt>
      <trkpt lat="45.25295" lon="4.68294">
        <ele>342.43</ele>
        <time>2017-03-26T13:25:59Z</time>
      </trkpt>
      <trkpt lat="45.25284" lon="4.68281">
        <ele>341.79</ele>
        <time>2017-03-26T13:26:00Z</time>
      </trkpt>
      <trkpt lat="45.25274" lon="4.68269">
        <ele>341.02</ele>
        <time>2017-03-26T13:26:01Z</time>
      </trkpt>
      <trkpt lat="45.25264" lon="4.68257">
        <ele>340.39</ele>
        <time>2017-03-26T13:26:02Z</time>
      </trkpt>
      <trkpt lat="45.25253" lon="4.68245">
        <ele>339.54</ele>
        <time>2017-03-26T13:26:03Z</time>
      </trkpt>
      <trkpt lat="45.25243" lon="4.68233">
        <ele>338.89</ele>
        <time>2017-03-26T13:26:04Z</time>
      </trkpt>
      <trkpt lat="45.25233" lon="4.68222">
        <ele>338.12</ele>
        <time>2017-03-26T13:26:05Z</time>
      </trkpt>
      <trkpt lat="45.25222" lon="4.68212">
        <ele>337.17</ele>
        <time>2017-03-26T13:26:06Z</time>
      </trkpt>
      <trkpt lat="45.2521" lon="4.68202">
        <ele>336.1</ele>
        <time>2017-03-26T13:26:07Z</time>
      </trkpt>
      <trkpt lat="45.25198" lon="4.68193">
        <ele>334.6</ele>
        <time>2017-03-26T13:26:08Z</time>
      </trkpt>
      <trkpt lat="45.25186" lon="4.68186">
        <ele>333.66</ele>
        <time>2017-03-26T13:26:09Z</time>
      </trkpt>
      <trkpt lat="45.25174" lon="4.68179">
        <ele>332.52</ele>
        <time>2017-03-26T13:26:10Z</time>
      </trkpt>
      <trkpt lat="45.25161" lon="4.68172">
        <ele>331.57</ele>
        <time>2017-03-26T13:26:11Z</time>
      </trkpt>
      <trkpt lat="45.25148" lon="4.68165">
        <ele>330.5</ele>
        <time>2017-03-26T13:26:12Z</time>
      </trkpt>
      <trkpt lat="45.25135" lon="4.68158">
        <ele>329.4</ele>
        <time>2017-03-26T13:26:13Z</time>
      </trkpt>
      <trkpt lat="45.25122" lon="4.68151">
        <ele>328.22</ele>
        <time>2017-03-26T13:26:14Z</time>
      </trkpt>
      <trkpt lat="45.25109" lon="4.68143">
        <ele>326.87</ele>
        <time>2017-03-26T13:26:15Z</time>
      </trkpt>
      <trkpt lat="45.25097" lon="4.68135">
        <ele>325.48</ele>
        <time>2017-03-26T13:26:16Z</time>
      </trkpt>
      <trkpt lat="45.25084" lon="4.68126">
        <ele>324.16</ele>
        <time>2017-03-26T13:26:17Z</time>
      </trkpt>
      <trkpt lat="45.25073" lon="4.68117">
        <ele>322.78</ele>
        <time>2017-03-26T13:26:18Z</time>
      </trkpt>
      <trkpt lat="45.2506" lon="4.68109">
        <ele>321.3</ele>
        <time>2017-03-26T13:26:19Z</time>
      </trkpt>
      <trkpt lat="45.25048" lon="4.68101">
        <ele>319.8</ele>
        <time>2017-03-26T13:26:20Z</time>
      </trkpt>
      <trkpt lat="45.25035" lon="4.68095">
        <ele>318.62</ele>
        <time>2017-03-26T13:26:21Z</time>
      </trkpt>
      <trkpt lat="45.25022" lon="4.68089">
        <ele>317.59</ele>
        <time>2017-03-26T13:26:22Z</time>
      </trkpt>
      <trkpt lat="45.2501" lon="4.68082">
        <ele>316.5</ele>
        <time>2017-03-26T13:26:23Z</time>
      </trkpt>
      <trkpt lat="45.24997" lon="4.68074">
        <ele>315.64</ele>
        <time>2017-03-26T13:26:24Z</time>
      </trkpt>
      <trkpt lat="45.24985" lon="4.68066">
        <ele>314.67</ele>
        <time>2017-03-26T13:26:25Z</time>
      </trkpt>
      <trkpt lat="45.24974" lon="4.68055">
        <ele>313.6</ele>
        <time>2017-03-26T13:26:26Z</time>
      </trkpt>
      <trkpt lat="45.24962" lon="4.68043">
        <ele>312.5</ele>
        <time>2017-03-26T13:26:27Z</time>
      </trkpt>
      <trkpt lat="45.24951" lon="4.6803">
        <ele>311.4</ele>
        <time>2017-03-26T13:26:28Z</time>
      </trkpt>
      <trkpt lat="45.24939" lon="4.68018">
        <ele>310.46</ele>
        <time>2017-03-26T13:26:29Z</time>
      </trkpt>
      <trkpt lat="45.24928" lon="4.68006">
        <ele>309.4</ele>
        <time>2017-03-26T13:26:30Z</time>
      </trkpt>
      <trkpt lat="45.24915" lon="4.67995">
        <ele>308.22</ele>
        <time>2017-03-26T13:26:31Z</time>
      </trkpt>
      <trkpt lat="45.24902" lon="4.67986">
        <ele>306.87</ele>
        <time>2017-03-26T13:26:32Z</time>
      </trkpt>
      <trkpt lat="45.24889" lon="4.67977">
        <ele>305.96</ele>
        <time>2017-03-26T13:26:33Z</time>
      </trkpt>
      <trkpt lat="45.24876" lon="4.67969">
        <ele>304.74</ele>
        <time>2017-03-26T13:26:34Z</time>
      </trkpt>
      <trkpt lat="45.24863" lon="4.6796">
        <ele>304.01</ele>
        <time>2017-03-26T13:26:35Z</time>
      </trkpt>
      <trkpt lat="45.2485" lon="4.6795">
        <ele>303.71</ele>
        <time>2017-03-26T13:26:36Z</time>
      </trkpt>
      <trkpt lat="45.24839" lon="4.6794">
        <ele>303.09</ele>
        <time>2017-03-26T13:26:37Z</time>
      </trkpt>
      <trkpt lat="45.24827" lon="4.67929">
        <ele>302.4</ele>
        <time>2017-03-26T13:26:38Z</time>
      </trkpt>
      <trkpt lat="45.24816" lon="4.67919">
        <ele>301.86</ele>
        <time>2017-03-26T13:26:39Z</time>
      </trkpt>
      <trkpt lat="45.24805" lon="4.67907">
        <ele>301.44</ele>
        <time>2017-03-26T13:26:40Z</time>
      </trkpt>
      <trkpt lat="45.24795" lon="4.67896">
        <ele>300.79</ele>
        <time>2017-03-26T13:26:41Z</time>
      </trkpt>
      <trkpt lat="45.24786" lon="4.67884">
        <ele>300.18</ele>
        <time>2017-03-26T13:26:42Z</time>
      </trkpt>
      <trkpt lat="45.24779" lon="4.67872">
        <ele>299.58</ele>
        <time>2017-03-26T13:26:43Z</time>
      </trkpt>
      <trkpt lat="45.24774" lon="4.67859">
        <ele>299.3</ele>
        <time>2017-03-26T13:26:44Z</time>
      </trkpt>
      <trkpt lat="45.24771" lon="4.67846">
        <ele>299</ele>
        <time>2017-03-26T13:26:45Z</time>
      </trkpt>
      <trkpt lat="45.2477" lon="4.67833">
        <ele>298.7</ele>
        <time>2017-03-26T13:26:46Z</time>
      </trkpt>
      <trkpt lat="45.2477" lon="4.67818">
        <ele>298.56</ele>
        <time>2017-03-26T13:26:47Z</time>
      </trkpt>
      <trkpt lat="45.24773" lon="4.67804">
        <ele>298.3</ele>
        <time>2017-03-26T13:26:48Z</time>
      </trkpt>
      <trkpt lat="45.24777" lon="4.67788">
        <ele>298</ele>
        <time>2017-03-26T13:26:49Z</time>
      </trkpt>
      <trkpt lat="45.2478" lon="4.67773">
        <ele>297.7</ele>
        <time>2017-03-26T13:26:50Z</time>
      </trkpt>
      <trkpt lat="45.24781" lon="4.67757">
        <ele>297.48</ele>
        <time>2017-03-26T13:26:51Z</time>
      </trkpt>
      <trkpt lat="45.24782" lon="4.67741">
        <ele>297.36</ele>
        <time>2017-03-26T13:26:52Z</time>
      </trkpt>
      <trkpt lat="45.2478" lon="4.67726">
        <ele>297.18</ele>
        <time>2017-03-26T13:26:53Z</time>
      </trkpt>
      <trkpt lat="45.24778" lon="4.67712">
        <ele>297.06</ele>
        <time>2017-03-26T13:26:54Z</time>
      </trkpt>
      <trkpt lat="45.24776" lon="4.67699">
        <ele>297.12</ele>
        <time>2017-03-26T13:26:55Z</time>
      </trkpt>
      <trkpt lat="45.24773" lon="4.67686">
        <ele>296.81</ele>
        <time>2017-03-26T13:26:56Z</time>
      </trkpt>
      <trkpt lat="45.24771" lon="4.67674">
        <ele>296.59</ele>
        <time>2017-03-26T13:26:57Z</time>
      </trkpt>
      <trkpt lat="45.24764" lon="4.67665">
        <ele>295.18</ele>
        <time>2017-03-26T13:26:58Z</time>
      </trkpt>
      <trkpt lat="45.24755" lon="4.67659">
        <ele>294.82</ele>
        <time>2017-03-26T13:26:59Z</time>
      </trkpt>
      <trkpt lat="45.24745" lon="4.67652">
        <ele>293.79</ele>
        <time>2017-03-26T13:27:00Z</time>
      </trkpt>
      <trkpt lat="45.24735" lon="4.67644">
        <ele>293.02</ele>
        <time>2017-03-26T13:27:01Z</time>
      </trkpt>
      <trkpt lat="45.24724" lon="4.67636">
        <ele>292.39</ele>
        <time>2017-03-26T13:27:02Z</time>
      </trkpt>
      <trkpt lat="45.24713" lon="4.67628">
        <ele>291.94</ele>
        <time>2017-03-26T13:27:03Z</time>
      </trkpt>
      <trkpt lat="45.24701" lon="4.6762">
        <ele>291.61</ele>
        <time>2017-03-26T13:27:04Z</time>
      </trkpt>
      <trkpt lat="45.2469" lon="4.67612">
        <ele>291.39</ele>
        <time>2017-03-26T13:27:05Z</time>
      </trkpt>
      <trkpt lat="45.2468" lon="4.67604">
        <ele>291.26</ele>
        <time>2017-03-26T13:27:06Z</time>
      </trkpt>
      <trkpt lat="45.24669" lon="4.67594">
        <ele>291.4</ele>
        <time>2017-03-26T13:27:07Z</time>
      </trkpt>
      <trkpt lat="45.24659" lon="4.67584">
        <ele>291.58</ele>
        <time>2017-03-26T13:27:08Z</time>
      </trkpt>
      <trkpt lat="45.24648" lon="4.67575">
        <ele>291.7</ele>
        <time>2017-03-26T13:27:09Z</time>
      </trkpt>
      <trkpt lat="45.24638" lon="4.67565">
        <ele>291.72</ele>
        <time>2017-03-26T13:27:10Z</time>
      </trkpt>
      <trkpt lat="45.24627" lon="4.67557">
        <ele>291.57</ele>
        <time>2017-03-26T13:27:11Z</time>
      </trkpt>
      <trkpt lat="45.24616" lon="4.67548">
        <ele>291.86</ele>
        <time>2017-03-26T13:27:12Z</time>
      </trkpt>
      <trkpt lat="45.24606" lon="4.6754">
        <ele>292.08</ele>
        <time>2017-03-26T13:27:13Z</time>
      </trkpt>
      <trkpt lat="45.24594" lon="4.67532">
        <ele>292.36</ele>
        <time>2017-03-26T13:27:14Z</time>
      </trkpt>
      <trkpt lat="45.24583" lon="4.67524">
        <ele>292.58</ele>
        <time>2017-03-26T13:27:15Z</time>
      </trkpt>
      <trkpt lat="45.24573" lon="4.67517">
        <ele>293.26</ele>
        <time>2017-03-26T13:27:16Z</time>
      </trkpt>
      <trkpt lat="45.24562" lon="4.6751">
        <ele>293.48</ele>
        <time>2017-03-26T13:27:17Z</time>
      </trkpt>
      <trkpt lat="45.24552" lon="4.67502">
        <ele>293.44</ele>
        <time>2017-03-26T13:27:18Z</time>
      </trkpt>
      <trkpt lat="45.24542" lon="4.67494">
        <ele>293.99</ele>
        <time>2017-03-26T13:27:19Z</time>
      </trkpt>
      <trkpt lat="45.24532" lon="4.67485">
        <ele>294.66</ele>
        <time>2017-03-26T13:27:20Z</time>
      </trkpt>
      <trkpt lat="45.24523" lon="4.67478">
        <ele>295.04</ele>
        <time>2017-03-26T13:27:21Z</time>
      </trkpt>
      <trkpt lat="45.24514" lon="4.6747">
        <ele>295.35</ele>
        <time>2017-03-26T13:27:22Z</time>
      </trkpt>
      <trkpt lat="45.24508" lon="4.67461">
        <ele>295.81</ele>
        <time>2017-03-26T13:27:23Z</time>
      </trkpt>
      <trkpt lat="45.24503" lon="4.67452">
        <ele>296.07</ele>
        <time>2017-03-26T13:27:24Z</time>
      </trkpt>
      <trkpt lat="45.24497" lon="4.67446">
        <ele>296.04</ele>
        <time>2017-03-26T13:27:25Z</time>
      </trkpt>
      <trkpt lat="45.24491" lon="4.6744">
        <ele>295.71</ele>
        <time>2017-03-26T13:27:26Z</time>
      </trkpt>
      <trkpt lat="45.24486" lon="4.67436">
        <ele>295.17</ele>
        <time>2017-03-26T13:27:27Z</time>
      </trkpt>
      <trkpt lat="45.24483" lon="4.67443">
        <ele>294.02</ele>
        <time>2017-03-26T13:27:28Z</time>
      </trkpt>
      <trkpt lat="45.24482" lon="4.67451">
        <ele>292.67</ele>
        <time>2017-03-26T13:27:29Z</time>
      </trkpt>
      <trkpt lat="45.24483" lon="4.6746">
        <ele>291.44</ele>
        <time>2017-03-26T13:27:30Z</time>
      </trkpt>
      <trkpt lat="45.24485" lon="4.6747">
        <ele>290.15</ele>
        <time>2017-03-26T13:27:31Z</time>
      </trkpt>
      <trkpt lat="45.24487" lon="4.67482">
        <ele>289.01</ele>
        <time>2017-03-26T13:27:32Z</time>
      </trkpt>
      <trkpt lat="45.24487" lon="4.67496">
        <ele>288.23</ele>
        <time>2017-03-26T13:27:33Z</time>
      </trkpt>
      <trkpt lat="45.24486" lon="4.67509">
        <ele>287.59</ele>
        <time>2017-03-26T13:27:34Z</time>
      </trkpt>
      <trkpt lat="45.24479" lon="4.67526">
        <ele>286.82</ele>
        <time>2017-03-26T13:27:35Z</time>
      </trkpt>
      <trkpt lat="45.2447" lon="4.6754">
        <ele>286.03</ele>
        <time>2017-03-26T13:27:36Z</time>
      </trkpt>
      <trkpt lat="45.2446" lon="4.67551">
        <ele>285.39</ele>
        <time>2017-03-26T13:27:37Z</time>
      </trkpt>
      <trkpt lat="45.24449" lon="4.67561">
        <ele>284.94</ele>
        <time>2017-03-26T13:27:38Z</time>
      </trkpt>
      <trkpt lat="45.24438" lon="4.67567">
        <ele>284.37</ele>
        <time>2017-03-26T13:27:39Z</time>
      </trkpt>
      <trkpt lat="45.24426" lon="4.67572">
        <ele>283.86</ele>
        <time>2017-03-26T13:27:40Z</time>
      </trkpt>
      <trkpt lat="45.24413" lon="4.67574">
        <ele>283.36</ele>
        <time>2017-03-26T13:27:41Z</time>
      </trkpt>
      <trkpt lat="45.244" lon="4.67573">
        <ele>282.86</ele>
        <time>2017-03-26T13:27:42Z</time>
      </trkpt>
      <trkpt lat="45.24389" lon="4.67572">
        <ele>282.44</ele>
        <time>2017-03-26T13:27:43Z</time>
      </trkpt>
      <trkpt lat="45.24377" lon="4.67571">
        <ele>282.03</ele>
        <time>2017-03-26T13:27:44Z</time>
      </trkpt>
      <trkpt lat="45.24367" lon="4.67568">
        <ele>281.55</ele>
        <time>2017-03-26T13:27:45Z</time>
      </trkpt>
      <trkpt lat="45.24355" lon="4.67566">
        <ele>281.21</ele>
        <time>2017-03-26T13:27:46Z</time>
      </trkpt>
      <trkpt lat="45.24344" lon="4.67565">
        <ele>280.99</ele>
        <time>2017-03-26T13:27:47Z</time>
      </trkpt>
      <trkpt lat="45.24333" lon="4.67564">
        <ele>280.86</ele>
        <time>2017-03-26T13:27:48Z</time>
      </trkpt>
      <trkpt lat="45.24322" lon="4.67563">
        <ele>280.52</ele>
        <time>2017-03-26T13:27:49Z</time>
      </trkpt>
      <trkpt lat="45.2431" lon="4.67562">
        <ele>280.37</ele>
        <time>2017-03-26T13:27:50Z</time>
      </trkpt>
      <trkpt lat="45.24298" lon="4.67564">
        <ele>280.18</ele>
        <time>2017-03-26T13:27:51Z</time>
      </trkpt>
      <trkpt lat="45.24285" lon="4.67567">
        <ele>279.9</ele>
        <time>2017-03-26T13:27:52Z</time>
      </trkpt>
      <trkpt lat="45.24271" lon="4.67574">
        <ele>279.68</ele>
        <time>2017-03-26T13:27:53Z</time>
      </trkpt>
      <trkpt lat="45.24256" lon="4.67581">
        <ele>279.16</ele>
        <time>2017-03-26T13:27:54Z</time>
      </trkpt>
      <trkpt lat="45.24239" lon="4.67588">
        <ele>278.66</ele>
        <time>2017-03-26T13:27:55Z</time>
      </trkpt>
      <trkpt lat="45.24224" lon="4.67594">
        <ele>278.08</ele>
        <time>2017-03-26T13:27:56Z</time>
      </trkpt>
      <trkpt lat="45.24209" lon="4.676">
        <ele>277.4</ele>
        <time>2017-03-26T13:27:57Z</time>
      </trkpt>
      <trkpt lat="45.24195" lon="4.67609">
        <ele>276.94</ele>
        <time>2017-03-26T13:27:58Z</time>
      </trkpt>
      <trkpt lat="45.24182" lon="4.67616">
        <ele>276.61</ele>
        <time>2017-03-26T13:27:59Z</time>
      </trkpt>
      <trkpt lat="45.24171" lon="4.67624">
        <ele>276.23</ele>
        <time>2017-03-26T13:28:00Z</time>
      </trkpt>
      <trkpt lat="45.24162" lon="4.67634">
        <ele>276.15</ele>
        <time>2017-03-26T13:28:01Z</time>
      </trkpt>
      <trkpt lat="45.24154" lon="4.67646">
        <ele>275.97</ele>
        <time>2017-03-26T13:28:02Z</time>
      </trkpt>
      <trkpt lat="45.24148" lon="4.67663">
        <ele>275.7</ele>
        <time>2017-03-26T13:28:03Z</time>
      </trkpt>
      <trkpt lat="45.24143" lon="4.67678">
        <ele>275.56</ele>
        <time>2017-03-26T13:28:04Z</time>
      </trkpt>
      <trkpt lat="45.24138" lon="4.67694">
        <ele>275.38</ele>
        <time>2017-03-26T13:28:05Z</time>
      </trkpt>
      <trkpt lat="45.24132" lon="4.67709">
        <ele>275.34</ele>
        <time>2017-03-26T13:28:06Z</time>
      </trkpt>
      <trkpt lat="45.24126" lon="4.67723">
        <ele>275.17</ele>
        <time>2017-03-26T13:28:07Z</time>
      </trkpt>
      <trkpt lat="45.24119" lon="4.67738">
        <ele>275.3</ele>
        <time>2017-03-26T13:28:08Z</time>
      </trkpt>
      <trkpt lat="45.24112" lon="4.67751">
        <ele>275.32</ele>
        <time>2017-03-26T13:28:09Z</time>
      </trkpt>
      <trkpt lat="45.24107" lon="4.67763">
        <ele>275.57</ele>
        <time>2017-03-26T13:28:10Z</time>
      </trkpt>
      <trkpt lat="45.24102" lon="4.67777">
        <ele>275.62</ele>
        <time>2017-03-26T13:28:11Z</time>
      </trkpt>
      <trkpt lat="45.24097" lon="4.67791">
        <ele>275.47</ele>
        <time>2017-03-26T13:28:12Z</time>
      </trkpt>
      <trkpt lat="45.24091" lon="4.67805">
        <ele>275.28</ele>
        <time>2017-03-26T13:28:13Z</time>
      </trkpt>
      <trkpt lat="45.24086" lon="4.67819">
        <ele>275.16</ele>
        <time>2017-03-26T13:28:14Z</time>
      </trkpt>
      <trkpt lat="45.24082" lon="4.67833">
        <ele>275.06</ele>
        <time>2017-03-26T13:28:15Z</time>
      </trkpt>
      <trkpt lat="45.24077" lon="4.67846">
        <ele>275.04</ele>
        <time>2017-03-26T13:28:16Z</time>
      </trkpt>
      <trkpt lat="45.24073" lon="4.67858">
        <ele>275.03</ele>
        <time>2017-03-26T13:28:17Z</time>
      </trkpt>
      <trkpt lat="45.2407" lon="4.67871">
        <ele>274.95</ele>
        <time>2017-03-26T13:28:18Z</time>
      </trkpt>
      <trkpt lat="45.24067" lon="4.67884">
        <ele>274.85</ele>
        <time>2017-03-26T13:28:19Z</time>
      </trkpt>
      <trkpt lat="45.24065" lon="4.67899">
        <ele>274.67</ele>
        <time>2017-03-26T13:28:20Z</time>
      </trkpt>
      <trkpt lat="45.24063" lon="4.67915">
        <ele>274.56</ele>
        <time>2017-03-26T13:28:21Z</time>
      </trkpt>
      <trkpt lat="45.24061" lon="4.67931">
        <ele>274.54</ele>
        <time>2017-03-26T13:28:22Z</time>
      </trkpt>
      <trkpt lat="45.2406" lon="4.67948">
        <ele>274.45</ele>
        <time>2017-03-26T13:28:23Z</time>
      </trkpt>
      <trkpt lat="45.24059" lon="4.67967">
        <ele>274.27</ele>
        <time>2017-03-26T13:28:24Z</time>
      </trkpt>
      <trkpt lat="45.24059" lon="4.67985">
        <ele>274</ele>
        <time>2017-03-26T13:28:25Z</time>
      </trkpt>
      <trkpt lat="45.24059" lon="4.68004">
        <ele>273.7</ele>
        <time>2017-03-26T13:28:26Z</time>
      </trkpt>
      <trkpt lat="45.24058" lon="4.68024">
        <ele>273.64</ele>
        <time>2017-03-26T13:28:27Z</time>
      </trkpt>
      <trkpt lat="45.24057" lon="4.68043">
        <ele>273.55</ele>
        <time>2017-03-26T13:28:28Z</time>
      </trkpt>
      <trkpt lat="45.24056" lon="4.68063">
        <ele>273.53</ele>
        <time>2017-03-26T13:28:29Z</time>
      </trkpt>
      <trkpt lat="45.24054" lon="4.68083">
        <ele>273.53</ele>
        <time>2017-03-26T13:28:30Z</time>
      </trkpt>
      <trkpt lat="45.24051" lon="4.68104">
        <ele>274.09</ele>
        <time>2017-03-26T13:28:31Z</time>
      </trkpt>
      <trkpt lat="45.24049" lon="4.68124">
        <ele>274.36</ele>
        <time>2017-03-26T13:28:32Z</time>
      </trkpt>
      <trkpt lat="45.24043" lon="4.6815">
        <ele>278.82</ele>
        <time>2017-03-26T13:28:33Z</time>
      </trkpt>
      <trkpt lat="45.24036" lon="4.68176">
        <ele>284.43</ele>
        <time>2017-03-26T13:28:34Z</time>
      </trkpt>
      <trkpt lat="45.24033" lon="4.68197">
        <ele>285.79</ele>
        <time>2017-03-26T13:28:35Z</time>
      </trkpt>
      <trkpt lat="45.2403" lon="4.68219">
        <ele>287.42</ele>
        <time>2017-03-26T13:28:36Z</time>
      </trkpt>
      <trkpt lat="45.24026" lon="4.6824">
        <ele>288.95</ele>
        <time>2017-03-26T13:28:37Z</time>
      </trkpt>
      <trkpt lat="45.24023" lon="4.68259">
        <ele>289.73</ele>
        <time>2017-03-26T13:28:38Z</time>
      </trkpt>
      <trkpt lat="45.24021" lon="4.68278">
        <ele>290.69</ele>
        <time>2017-03-26T13:28:39Z</time>
      </trkpt>
      <trkpt lat="45.24018" lon="4.68296">
        <ele>291.84</ele>
        <time>2017-03-26T13:28:40Z</time>
      </trkpt>
      <trkpt lat="45.24015" lon="4.68313">
        <ele>293.11</ele>
        <time>2017-03-26T13:28:41Z</time>
      </trkpt>
      <trkpt lat="45.24012" lon="4.6833">
        <ele>294.33</ele>
        <time>2017-03-26T13:28:42Z</time>
      </trkpt>
      <trkpt lat="45.24008" lon="4.68348">
        <ele>296.01</ele>
        <time>2017-03-26T13:28:43Z</time>
      </trkpt>
      <trkpt lat="45.24004" lon="4.68369">
        <ele>298.43</ele>
        <time>2017-03-26T13:28:44Z</time>
      </trkpt>
      <trkpt lat="45.24001" lon="4.68387">
        <ele>299.07</ele>
        <time>2017-03-26T13:28:45Z</time>
      </trkpt>
      <trkpt lat="45.23999" lon="4.68406">
        <ele>299.36</ele>
        <time>2017-03-26T13:28:46Z</time>
      </trkpt>
      <trkpt lat="45.23997" lon="4.68425">
        <ele>299.58</ele>
        <time>2017-03-26T13:28:47Z</time>
      </trkpt>
      <trkpt lat="45.23996" lon="4.68444">
        <ele>299.86</ele>
        <time>2017-03-26T13:28:48Z</time>
      </trkpt>
      <trkpt lat="45.23994" lon="4.68463">
        <ele>299.84</ele>
        <time>2017-03-26T13:28:49Z</time>
      </trkpt>
      <trkpt lat="45.23992" lon="4.68481">
        <ele>300.47</ele>
        <time>2017-03-26T13:28:50Z</time>
      </trkpt>
      <trkpt lat="45.23989" lon="4.68498">
        <ele>301.24</ele>
        <time>2017-03-26T13:28:51Z</time>
      </trkpt>
      <trkpt lat="45.23986" lon="4.68513">
        <ele>301.87</ele>
        <time>2017-03-26T13:28:52Z</time>
      </trkpt>
      <trkpt lat="45.23983" lon="4.68526">
        <ele>302.48</ele>
        <time>2017-03-26T13:28:53Z</time>
      </trkpt>
      <trkpt lat="45.23981" lon="4.68538">
        <ele>303.48</ele>
        <time>2017-03-26T13:28:54Z</time>
      </trkpt>
      <trkpt lat="45.23978" lon="4.68552">
        <ele>304.24</ele>
        <time>2017-03-26T13:28:55Z</time>
      </trkpt>
      <trkpt lat="45.23976" lon="4.68567">
        <ele>304.95</ele>
        <time>2017-03-26T13:28:56Z</time>
      </trkpt>
      <trkpt lat="45.23973" lon="4.68584">
        <ele>305.89</ele>
        <time>2017-03-26T13:28:57Z</time>
      </trkpt>
      <trkpt lat="45.2397" lon="4.68601">
        <ele>307.04</ele>
        <time>2017-03-26T13:28:58Z</time>
      </trkpt>
      <trkpt lat="45.23967" lon="4.68619">
        <ele>308.15</ele>
        <time>2017-03-26T13:28:59Z</time>
      </trkpt>
      <trkpt lat="45.23964" lon="4.68637">
        <ele>309.17</ele>
        <time>2017-03-26T13:29:00Z</time>
      </trkpt>
      <trkpt lat="45.2396" lon="4.68655">
        <ele>310.02</ele>
        <time>2017-03-26T13:29:01Z</time>
      </trkpt>
      <trkpt lat="45.23956" lon="4.68674">
        <ele>310.99</ele>
        <time>2017-03-26T13:29:02Z</time>
      </trkpt>
      <trkpt lat="45.23953" lon="4.68694">
        <ele>312.06</ele>
        <time>2017-03-26T13:29:03Z</time>
      </trkpt>
      <trkpt lat="45.2395" lon="4.68713">
        <ele>312.6</ele>
        <time>2017-03-26T13:29:04Z</time>
      </trkpt>
      <trkpt lat="45.23946" lon="4.68734">
        <ele>313.26</ele>
        <time>2017-03-26T13:29:05Z</time>
      </trkpt>
      <trkpt lat="45.23942" lon="4.68754">
        <ele>313.72</ele>
        <time>2017-03-26T13:29:06Z</time>
      </trkpt>
      <trkpt lat="45.23937" lon="4.68775">
        <ele>313.57</ele>
        <time>2017-03-26T13:29:07Z</time>
      </trkpt>
      <trkpt lat="45.23933" lon="4.68796">
        <ele>313.54</ele>
        <time>2017-03-26T13:29:08Z</time>
      </trkpt>
      <trkpt lat="45.23929" lon="4.68817">
        <ele>313.53</ele>
        <time>2017-03-26T13:29:09Z</time>
      </trkpt>
      <trkpt lat="45.23925" lon="4.68839">
        <ele>313.77</ele>
        <time>2017-03-26T13:29:10Z</time>
      </trkpt>
      <trkpt lat="45.23922" lon="4.68862">
        <ele>313.98</ele>
        <time>2017-03-26T13:29:11Z</time>
      </trkpt>
      <trkpt lat="45.23919" lon="4.68885">
        <ele>314.02</ele>
        <time>2017-03-26T13:29:12Z</time>
      </trkpt>
      <trkpt lat="45.23916" lon="4.68907">
        <ele>314.11</ele>
        <time>2017-03-26T13:29:13Z</time>
      </trkpt>
      <trkpt lat="45.23914" lon="4.68929">
        <ele>314.05</ele>
        <time>2017-03-26T13:29:14Z</time>
      </trkpt>
      <trkpt lat="45.23911" lon="4.6895">
        <ele>313.95</ele>
        <time>2017-03-26T13:29:15Z</time>
      </trkpt>
      <trkpt lat="45.23908" lon="4.68971">
        <ele>313.77</ele>
        <time>2017-03-26T13:29:16Z</time>
      </trkpt>
      <trkpt lat="45.23904" lon="4.68987">
        <ele>314.38</ele>
        <time>2017-03-26T13:29:17Z</time>
      </trkpt>
      <trkpt lat="45.23898" lon="4.69001">
        <ele>315.22</ele>
        <time>2017-03-26T13:29:18Z</time>
      </trkpt>
      <trkpt lat="45.23891" lon="4.69013">
        <ele>315.79</ele>
        <time>2017-03-26T13:29:19Z</time>
      </trkpt>
      <trkpt lat="45.23884" lon="4.69024">
        <ele>315.9</ele>
        <time>2017-03-26T13:29:20Z</time>
      </trkpt>
      <trkpt lat="45.23877" lon="4.69037">
        <ele>315.92</ele>
        <time>2017-03-26T13:29:21Z</time>
      </trkpt>
      <trkpt lat="45.23872" lon="4.69049">
        <ele>315.77</ele>
        <time>2017-03-26T13:29:22Z</time>
      </trkpt>
      <trkpt lat="45.23873" lon="4.69066">
        <ele>315.82</ele>
        <time>2017-03-26T13:29:23Z</time>
      </trkpt>
      <trkpt lat="45.23873" lon="4.69083">
        <ele>316.15</ele>
        <time>2017-03-26T13:29:24Z</time>
      </trkpt>
      <trkpt lat="45.23871" lon="4.69099">
        <ele>316.61</ele>
        <time>2017-03-26T13:29:25Z</time>
      </trkpt>
      <trkpt lat="45.23865" lon="4.69113">
        <ele>317.91</ele>
        <time>2017-03-26T13:29:26Z</time>
      </trkpt>
      <trkpt lat="45.23857" lon="4.69124">
        <ele>318.73</ele>
        <time>2017-03-26T13:29:27Z</time>
      </trkpt>
      <trkpt lat="45.23846" lon="4.69134">
        <ele>319.29</ele>
        <time>2017-03-26T13:29:28Z</time>
      </trkpt>
      <trkpt lat="45.23833" lon="4.69144">
        <ele>319.96</ele>
        <time>2017-03-26T13:29:29Z</time>
      </trkpt>
      <trkpt lat="45.23817" lon="4.69154">
        <ele>320.74</ele>
        <time>2017-03-26T13:29:30Z</time>
      </trkpt>
      <trkpt lat="45.23802" lon="4.69166">
        <ele>321.29</ele>
        <time>2017-03-26T13:29:31Z</time>
      </trkpt>
      <trkpt lat="45.23787" lon="4.69181">
        <ele>321.8</ele>
        <time>2017-03-26T13:29:32Z</time>
      </trkpt>
      <trkpt lat="45.23773" lon="4.69199">
        <ele>322.06</ele>
        <time>2017-03-26T13:29:33Z</time>
      </trkpt>
      <trkpt lat="45.2376" lon="4.69219">
        <ele>322.2</ele>
        <time>2017-03-26T13:29:34Z</time>
      </trkpt>
      <trkpt lat="45.23749" lon="4.6924">
        <ele>322.3</ele>
        <time>2017-03-26T13:29:35Z</time>
      </trkpt>
      <trkpt lat="45.23739" lon="4.69263">
        <ele>322.48</ele>
        <time>2017-03-26T13:29:36Z</time>
      </trkpt>
      <trkpt lat="45.23731" lon="4.69288">
        <ele>322.68</ele>
        <time>2017-03-26T13:29:37Z</time>
      </trkpt>
      <trkpt lat="45.23722" lon="4.69314">
        <ele>322.88</ele>
        <time>2017-03-26T13:29:38Z</time>
      </trkpt>
      <trkpt lat="45.23713" lon="4.69339">
        <ele>322.76</ele>
        <time>2017-03-26T13:29:39Z</time>
      </trkpt>
      <trkpt lat="45.23702" lon="4.69363">
        <ele>322.82</ele>
        <time>2017-03-26T13:29:40Z</time>
      </trkpt>
      <trkpt lat="45.23691" lon="4.69386">
        <ele>323.07</ele>
        <time>2017-03-26T13:29:41Z</time>
      </trkpt>
      <trkpt lat="45.23681" lon="4.69407">
        <ele>323.12</ele>
        <time>2017-03-26T13:29:42Z</time>
      </trkpt>
      <trkpt lat="45.23669" lon="4.69428">
        <ele>322.89</ele>
        <time>2017-03-26T13:29:43Z</time>
      </trkpt>
      <trkpt lat="45.23657" lon="4.69447">
        <ele>323</ele>
        <time>2017-03-26T13:29:44Z</time>
      </trkpt>
      <trkpt lat="45.23641" lon="4.69456">
        <ele>323.34</ele>
        <time>2017-03-26T13:29:45Z</time>
      </trkpt>
      <trkpt lat="45.23625" lon="4.69468">
        <ele>323.81</ele>
        <time>2017-03-26T13:29:46Z</time>
      </trkpt>
      <trkpt lat="45.23611" lon="4.69477">
        <ele>324.07</ele>
        <time>2017-03-26T13:29:47Z</time>
      </trkpt>
      <trkpt lat="45.23597" lon="4.69488">
        <ele>324.36</ele>
        <time>2017-03-26T13:29:48Z</time>
      </trkpt>
      <trkpt lat="45.23582" lon="4.69496">
        <ele>324.66</ele>
        <time>2017-03-26T13:29:49Z</time>
      </trkpt>
      <trkpt lat="45.23568" lon="4.69506">
        <ele>324.64</ele>
        <time>2017-03-26T13:29:50Z</time>
      </trkpt>
      <trkpt lat="45.23556" lon="4.69518">
        <ele>324.63</ele>
        <time>2017-03-26T13:29:51Z</time>
      </trkpt>
      <trkpt lat="45.23546" lon="4.69533">
        <ele>324.71</ele>
        <time>2017-03-26T13:29:52Z</time>
      </trkpt>
      <trkpt lat="45.23538" lon="4.69551">
        <ele>324.81</ele>
        <time>2017-03-26T13:29:53Z</time>
      </trkpt>
      <trkpt lat="45.23531" lon="4.69572">
        <ele>324.75</ele>
        <time>2017-03-26T13:29:54Z</time>
      </trkpt>
      <trkpt lat="45.23525" lon="4.69594">
        <ele>324.73</ele>
        <time>2017-03-26T13:29:55Z</time>
      </trkpt>
      <trkpt lat="45.2352" lon="4.69617">
        <ele>324.73</ele>
        <time>2017-03-26T13:29:56Z</time>
      </trkpt>
      <trkpt lat="45.23515" lon="4.69642">
        <ele>324.73</ele>
        <time>2017-03-26T13:29:57Z</time>
      </trkpt>
      <trkpt lat="45.23509" lon="4.69667">
        <ele>325.05</ele>
        <time>2017-03-26T13:29:58Z</time>
      </trkpt>
      <trkpt lat="45.23503" lon="4.69691">
        <ele>325.83</ele>
        <time>2017-03-26T13:29:59Z</time>
      </trkpt>
      <trkpt lat="45.23496" lon="4.69713">
        <ele>326.39</ele>
        <time>2017-03-26T13:30:00Z</time>
      </trkpt>
      <trkpt lat="45.23488" lon="4.69735">
        <ele>326.9</ele>
        <time>2017-03-26T13:30:01Z</time>
      </trkpt>
      <trkpt lat="45.2348" lon="4.69758">
        <ele>327.24</ele>
        <time>2017-03-26T13:30:02Z</time>
      </trkpt>
      <trkpt lat="45.23471" lon="4.69779">
        <ele>327.95</ele>
        <time>2017-03-26T13:30:03Z</time>
      </trkpt>
      <trkpt lat="45.23462" lon="4.69801">
        <ele>328.81</ele>
        <time>2017-03-26T13:30:04Z</time>
      </trkpt>
      <trkpt lat="45.23454" lon="4.69822">
        <ele>329.55</ele>
        <time>2017-03-26T13:30:05Z</time>
      </trkpt>
      <trkpt lat="45.23446" lon="4.69842">
        <ele>330.41</ele>
        <time>2017-03-26T13:30:06Z</time>
      </trkpt>
      <trkpt lat="45.23438" lon="4.69863">
        <ele>330.83</ele>
        <time>2017-03-26T13:30:07Z</time>
      </trkpt>
      <trkpt lat="45.23433" lon="4.69884">
        <ele>328.59</ele>
        <time>2017-03-26T13:30:08Z</time>
      </trkpt>
      <trkpt lat="45.23428" lon="4.69911">
        <ele>330.3</ele>
        <time>2017-03-26T13:30:09Z</time>
      </trkpt>
      <trkpt lat="45.23425" lon="4.69937">
        <ele>330.72</ele>
        <time>2017-03-26T13:30:10Z</time>
      </trkpt>
      <trkpt lat="45.23423" lon="4.69965">
        <ele>330.97</ele>
        <time>2017-03-26T13:30:11Z</time>
      </trkpt>
      <trkpt lat="45.23422" lon="4.69992">
        <ele>331.18</ele>
        <time>2017-03-26T13:30:12Z</time>
      </trkpt>
      <trkpt lat="45.23421" lon="4.70019">
        <ele>331.14</ele>
        <time>2017-03-26T13:30:13Z</time>
      </trkpt>
      <trkpt lat="45.23421" lon="4.70046">
        <ele>330.57</ele>
        <time>2017-03-26T13:30:14Z</time>
      </trkpt>
      <trkpt lat="45.23421" lon="4.70072">
        <ele>329.9</ele>
        <time>2017-03-26T13:30:15Z</time>
      </trkpt>
      <trkpt lat="45.23421" lon="4.70098">
        <ele>328.96</ele>
        <time>2017-03-26T13:30:16Z</time>
      </trkpt>
      <trkpt lat="45.23422" lon="4.70125">
        <ele>327.9</ele>
        <time>2017-03-26T13:30:17Z</time>
      </trkpt>
      <trkpt lat="45.23423" lon="4.70151">
        <ele>327.04</ele>
        <time>2017-03-26T13:30:18Z</time>
      </trkpt>
      <trkpt lat="45.23426" lon="4.70177">
        <ele>325.99</ele>
        <time>2017-03-26T13:30:19Z</time>
      </trkpt>
      <trkpt lat="45.23428" lon="4.70204">
        <ele>325.14</ele>
        <time>2017-03-26T13:30:20Z</time>
      </trkpt>
      <trkpt lat="45.23427" lon="4.7023">
        <ele>324.49</ele>
        <time>2017-03-26T13:30:21Z</time>
      </trkpt>
      <trkpt lat="45.23424" lon="4.70257">
        <ele>324.04</ele>
        <time>2017-03-26T13:30:22Z</time>
      </trkpt>
      <trkpt lat="45.23419" lon="4.70283">
        <ele>323.23</ele>
        <time>2017-03-26T13:30:23Z</time>
      </trkpt>
      <trkpt lat="45.23413" lon="4.70309">
        <ele>322.51</ele>
        <time>2017-03-26T13:30:24Z</time>
      </trkpt>
      <trkpt lat="45.23408" lon="4.70336">
        <ele>322.13</ele>
        <time>2017-03-26T13:30:25Z</time>
      </trkpt>
      <trkpt lat="45.23404" lon="4.70364">
        <ele>321.65</ele>
        <time>2017-03-26T13:30:26Z</time>
      </trkpt>
      <trkpt lat="45.234" lon="4.70393">
        <ele>321.23</ele>
        <time>2017-03-26T13:30:27Z</time>
      </trkpt>
      <trkpt lat="45.23397" lon="4.70423">
        <ele>320.67</ele>
        <time>2017-03-26T13:30:28Z</time>
      </trkpt>
      <trkpt lat="45.23394" lon="4.70452">
        <ele>320.4</ele>
        <time>2017-03-26T13:30:29Z</time>
      </trkpt>
      <trkpt lat="45.23392" lon="4.70482">
        <ele>319.94</ele>
        <time>2017-03-26T13:30:30Z</time>
      </trkpt>
      <trkpt lat="45.23391" lon="4.70511">
        <ele>319.13</ele>
        <time>2017-03-26T13:30:31Z</time>
      </trkpt>
      <trkpt lat="45.23391" lon="4.7054">
        <ele>318.49</ele>
        <time>2017-03-26T13:30:32Z</time>
      </trkpt>
      <trkpt lat="45.23395" lon="4.70569">
        <ele>318.6</ele>
        <time>2017-03-26T13:30:33Z</time>
      </trkpt>
      <trkpt lat="45.23401" lon="4.70596">
        <ele>318.14</ele>
        <time>2017-03-26T13:30:34Z</time>
      </trkpt>
      <trkpt lat="45.23406" lon="4.70625">
        <ele>317.41</ele>
        <time>2017-03-26T13:30:35Z</time>
      </trkpt>
      <trkpt lat="45.23408" lon="4.70653">
        <ele>316.79</ele>
        <time>2017-03-26T13:30:36Z</time>
      </trkpt>
      <trkpt lat="45.23407" lon="4.70681">
        <ele>316.34</ele>
        <time>2017-03-26T13:30:37Z</time>
      </trkpt>
      <trkpt lat="45.23401" lon="4.70709">
        <ele>315.93</ele>
        <time>2017-03-26T13:30:38Z</time>
      </trkpt>
      <trkpt lat="45.23394" lon="4.70736">
        <ele>315.61</ele>
        <time>2017-03-26T13:30:39Z</time>
      </trkpt>
      <trkpt lat="45.23385" lon="4.70763">
        <ele>315.47</ele>
        <time>2017-03-26T13:30:40Z</time>
      </trkpt>
      <trkpt lat="45.23376" lon="4.7079">
        <ele>315.28</ele>
        <time>2017-03-26T13:30:41Z</time>
      </trkpt>
      <trkpt lat="45.23367" lon="4.70816">
        <ele>315.16</ele>
        <time>2017-03-26T13:30:42Z</time>
      </trkpt>
      <trkpt lat="45.2336" lon="4.70845">
        <ele>314.9</ele>
        <time>2017-03-26T13:30:43Z</time>
      </trkpt>
      <trkpt lat="45.23356" lon="4.70874">
        <ele>314.68</ele>
        <time>2017-03-26T13:30:44Z</time>
      </trkpt>
      <trkpt lat="45.23353" lon="4.70904">
        <ele>314.48</ele>
        <time>2017-03-26T13:30:45Z</time>
      </trkpt>
      <trkpt lat="45.23351" lon="4.70933">
        <ele>314.28</ele>
        <time>2017-03-26T13:30:46Z</time>
      </trkpt>
      <trkpt lat="45.23348" lon="4.7096">
        <ele>314.4</ele>
        <time>2017-03-26T13:30:47Z</time>
      </trkpt>
      <trkpt lat="45.23345" lon="4.70987">
        <ele>314.74</ele>
        <time>2017-03-26T13:30:48Z</time>
      </trkpt>
      <trkpt lat="45.23343" lon="4.71012">
        <ele>315.45</ele>
        <time>2017-03-26T13:30:49Z</time>
      </trkpt>
      <trkpt lat="45.2334" lon="4.71037">
        <ele>316.15</ele>
        <time>2017-03-26T13:30:50Z</time>
      </trkpt>
      <trkpt lat="45.23337" lon="4.71063">
        <ele>317.01</ele>
        <time>2017-03-26T13:30:51Z</time>
      </trkpt>
      <trkpt lat="45.23335" lon="4.71088">
        <ele>318.15</ele>
        <time>2017-03-26T13:30:52Z</time>
      </trkpt>
      <trkpt lat="45.23332" lon="4.71112">
        <ele>319.41</ele>
        <time>2017-03-26T13:30:53Z</time>
      </trkpt>
      <trkpt lat="45.23329" lon="4.71136">
        <ele>320.07</ele>
        <time>2017-03-26T13:30:54Z</time>
      </trkpt>
      <trkpt lat="45.23328" lon="4.7116">
        <ele>320.84</ele>
        <time>2017-03-26T13:30:55Z</time>
      </trkpt>
      <trkpt lat="45.23328" lon="4.71184">
        <ele>321.55</ele>
        <time>2017-03-26T13:30:56Z</time>
      </trkpt>
      <trkpt lat="45.2333" lon="4.71208">
        <ele>322.09</ele>
        <time>2017-03-26T13:30:57Z</time>
      </trkpt>
      <trkpt lat="45.23334" lon="4.71232">
        <ele>322.68</ele>
        <time>2017-03-26T13:30:58Z</time>
      </trkpt>
      <trkpt lat="45.23339" lon="4.71256">
        <ele>322.88</ele>
        <time>2017-03-26T13:30:59Z</time>
      </trkpt>
      <trkpt lat="45.23344" lon="4.71279">
        <ele>323</ele>
        <time>2017-03-26T13:31:00Z</time>
      </trkpt>
      <trkpt lat="45.23348" lon="4.71301">
        <ele>323.1</ele>
        <time>2017-03-26T13:31:01Z</time>
      </trkpt>
      <trkpt lat="45.23352" lon="4.71323">
        <ele>323.44</ele>
        <time>2017-03-26T13:31:02Z</time>
      </trkpt>
      <trkpt lat="45.23356" lon="4.71344">
        <ele>323.99</ele>
        <time>2017-03-26T13:31:03Z</time>
      </trkpt>
      <trkpt lat="45.2336" lon="4.71365">
        <ele>324.18</ele>
        <time>2017-03-26T13:31:04Z</time>
      </trkpt>
      <trkpt lat="45.23363" lon="4.71385">
        <ele>324.78</ele>
        <time>2017-03-26T13:31:05Z</time>
      </trkpt>
      <trkpt lat="45.23366" lon="4.71405">
        <ele>325.46</ele>
        <time>2017-03-26T13:31:06Z</time>
      </trkpt>
      <trkpt lat="45.23369" lon="4.71425">
        <ele>326</ele>
        <time>2017-03-26T13:31:07Z</time>
      </trkpt>
      <trkpt lat="45.23372" lon="4.71444">
        <ele>326.5</ele>
        <time>2017-03-26T13:31:08Z</time>
      </trkpt>
      <trkpt lat="45.23375" lon="4.71463">
        <ele>326.84</ele>
        <time>2017-03-26T13:31:09Z</time>
      </trkpt>
      <trkpt lat="45.2338" lon="4.71482">
        <ele>327.55</ele>
        <time>2017-03-26T13:31:10Z</time>
      </trkpt>
      <trkpt lat="45.23385" lon="4.715">
        <ele>327.77</ele>
        <time>2017-03-26T13:31:11Z</time>
      </trkpt>
      <trkpt lat="45.23392" lon="4.71519">
        <ele>328.22</ele>
        <time>2017-03-26T13:31:12Z</time>
      </trkpt>
      <trkpt lat="45.23398" lon="4.71537">
        <ele>328.31</ele>
        <time>2017-03-26T13:31:13Z</time>
      </trkpt>
      <trkpt lat="45.23402" lon="4.71555">
        <ele>328.17</ele>
        <time>2017-03-26T13:31:14Z</time>
      </trkpt>
      <trkpt lat="45.23403" lon="4.71573">
        <ele>328.62</ele>
        <time>2017-03-26T13:31:15Z</time>
      </trkpt>
      <trkpt lat="45.23401" lon="4.7159">
        <ele>328.87</ele>
        <time>2017-03-26T13:31:16Z</time>
      </trkpt>
      <trkpt lat="45.23397" lon="4.71605">
        <ele>329.08</ele>
        <time>2017-03-26T13:31:17Z</time>
      </trkpt>
      <trkpt lat="45.23394" lon="4.71621">
        <ele>329.28</ele>
        <time>2017-03-26T13:31:18Z</time>
      </trkpt>
      <trkpt lat="45.23393" lon="4.71639">
        <ele>329.72</ele>
        <time>2017-03-26T13:31:19Z</time>
      </trkpt>
      <trkpt lat="45.23392" lon="4.71658">
        <ele>330.29</ele>
        <time>2017-03-26T13:31:20Z</time>
      </trkpt>
      <trkpt lat="45.23389" lon="4.71677">
        <ele>331.12</ele>
        <time>2017-03-26T13:31:21Z</time>
      </trkpt>
      <trkpt lat="45.23384" lon="4.71696">
        <ele>331.53</ele>
        <time>2017-03-26T13:31:22Z</time>
      </trkpt>
      <trkpt lat="45.23378" lon="4.71716">
        <ele>331.53</ele>
        <time>2017-03-26T13:31:23Z</time>
      </trkpt>
      <trkpt lat="45.23372" lon="4.71736">
        <ele>331.61</ele>
        <time>2017-03-26T13:31:24Z</time>
      </trkpt>
      <trkpt lat="45.23366" lon="4.71755">
        <ele>331.55</ele>
        <time>2017-03-26T13:31:25Z</time>
      </trkpt>
      <trkpt lat="45.23359" lon="4.71774">
        <ele>331.53</ele>
        <time>2017-03-26T13:31:26Z</time>
      </trkpt>
      <trkpt lat="45.23354" lon="4.71793">
        <ele>331.53</ele>
        <time>2017-03-26T13:31:27Z</time>
      </trkpt>
      <trkpt lat="45.2335" lon="4.71813">
        <ele>331.13</ele>
        <time>2017-03-26T13:31:28Z</time>
      </trkpt>
      <trkpt lat="45.23346" lon="4.71834">
        <ele>330.65</ele>
        <time>2017-03-26T13:31:29Z</time>
      </trkpt>
      <trkpt lat="45.23342" lon="4.71856">
        <ele>330.23</ele>
        <time>2017-03-26T13:31:30Z</time>
      </trkpt>
      <trkpt lat="45.2334" lon="4.7188">
        <ele>329.83</ele>
        <time>2017-03-26T13:31:31Z</time>
      </trkpt>
      <trkpt lat="45.23339" lon="4.71905">
        <ele>328.95</ele>
        <time>2017-03-26T13:31:32Z</time>
      </trkpt>
      <trkpt lat="45.2334" lon="4.7193">
        <ele>328.37</ele>
        <time>2017-03-26T13:31:33Z</time>
      </trkpt>
      <trkpt lat="45.23343" lon="4.71957">
        <ele>328.34</ele>
        <time>2017-03-26T13:31:34Z</time>
      </trkpt>
      <trkpt lat="45.23348" lon="4.71984">
        <ele>328.49</ele>
        <time>2017-03-26T13:31:35Z</time>
      </trkpt>
      <trkpt lat="45.23354" lon="4.72011">
        <ele>328.84</ele>
        <time>2017-03-26T13:31:36Z</time>
      </trkpt>
      <trkpt lat="45.23362" lon="4.72038">
        <ele>329.63</ele>
        <time>2017-03-26T13:31:37Z</time>
      </trkpt>
      <trkpt lat="45.23369" lon="4.72065">
        <ele>330.59</ele>
        <time>2017-03-26T13:31:38Z</time>
      </trkpt>
      <trkpt lat="45.23376" lon="4.72093">
        <ele>330.62</ele>
        <time>2017-03-26T13:31:39Z</time>
      </trkpt>
      <trkpt lat="45.23384" lon="4.72121">
        <ele>330.79</ele>
        <time>2017-03-26T13:31:40Z</time>
      </trkpt>
      <trkpt lat="45.2339" lon="4.72149">
        <ele>331.22</ele>
        <time>2017-03-26T13:31:41Z</time>
      </trkpt>
      <trkpt lat="45.23395" lon="4.72178">
        <ele>330.91</ele>
        <time>2017-03-26T13:31:42Z</time>
      </trkpt>
      <trkpt lat="45.23397" lon="4.72207">
        <ele>330.45</ele>
        <time>2017-03-26T13:31:43Z</time>
      </trkpt>
      <trkpt lat="45.23396" lon="4.72237">
        <ele>329.87</ele>
        <time>2017-03-26T13:31:44Z</time>
      </trkpt>
      <trkpt lat="45.23392" lon="4.72267">
        <ele>329.92</ele>
        <time>2017-03-26T13:31:45Z</time>
      </trkpt>
      <trkpt lat="45.23386" lon="4.72296">
        <ele>329.85</ele>
        <time>2017-03-26T13:31:46Z</time>
      </trkpt>
      <trkpt lat="45.23379" lon="4.72325">
        <ele>329.27</ele>
        <time>2017-03-26T13:31:47Z</time>
      </trkpt>
      <trkpt lat="45.23371" lon="4.72356">
        <ele>328.28</ele>
        <time>2017-03-26T13:31:48Z</time>
      </trkpt>
      <trkpt lat="45.23365" lon="4.72387">
        <ele>327.04</ele>
        <time>2017-03-26T13:31:49Z</time>
      </trkpt>
      <trkpt lat="45.23358" lon="4.7242">
        <ele>325.91</ele>
        <time>2017-03-26T13:31:50Z</time>
      </trkpt>
      <trkpt lat="45.23351" lon="4.72452">
        <ele>324.73</ele>
        <time>2017-03-26T13:31:51Z</time>
      </trkpt>
      <trkpt lat="45.23344" lon="4.72485">
        <ele>323.85</ele>
        <time>2017-03-26T13:31:52Z</time>
      </trkpt>
      <trkpt lat="45.23337" lon="4.72517">
        <ele>322.87</ele>
        <time>2017-03-26T13:31:53Z</time>
      </trkpt>
      <trkpt lat="45.23329" lon="4.72549">
        <ele>321.64</ele>
        <time>2017-03-26T13:31:54Z</time>
      </trkpt>
      <trkpt lat="45.23318" lon="4.7258">
        <ele>320.59</ele>
        <time>2017-03-26T13:31:55Z</time>
      </trkpt>
      <trkpt lat="45.23306" lon="4.72608">
        <ele>319.74</ele>
        <time>2017-03-26T13:31:56Z</time>
      </trkpt>
      <trkpt lat="45.23291" lon="4.72636">
        <ele>319.17</ele>
        <time>2017-03-26T13:31:57Z</time>
      </trkpt>
      <trkpt lat="45.23276" lon="4.72665">
        <ele>318.42</ele>
        <time>2017-03-26T13:31:58Z</time>
      </trkpt>
      <trkpt lat="45.23261" lon="4.72692">
        <ele>317.63</ele>
        <time>2017-03-26T13:31:59Z</time>
      </trkpt>
      <trkpt lat="45.23246" lon="4.7272">
        <ele>316.75</ele>
        <time>2017-03-26T13:32:00Z</time>
      </trkpt>
      <trkpt lat="45.23232" lon="4.72747">
        <ele>316.09</ele>
        <time>2017-03-26T13:32:01Z</time>
      </trkpt>
      <trkpt lat="45.23217" lon="4.72775">
        <ele>315.56</ele>
        <time>2017-03-26T13:32:02Z</time>
      </trkpt>
      <trkpt lat="45.23203" lon="4.72803">
        <ele>315.14</ele>
        <time>2017-03-26T13:32:03Z</time>
      </trkpt>
      <trkpt lat="45.23188" lon="4.72831">
        <ele>314.49</ele>
        <time>2017-03-26T13:32:04Z</time>
      </trkpt>
      <trkpt lat="45.23175" lon="4.72859">
        <ele>314.04</ele>
        <time>2017-03-26T13:32:05Z</time>
      </trkpt>
      <trkpt lat="45.23162" lon="4.72889">
        <ele>313.47</ele>
        <time>2017-03-26T13:32:06Z</time>
      </trkpt>
      <trkpt lat="45.23149" lon="4.72919">
        <ele>313.28</ele>
        <time>2017-03-26T13:32:07Z</time>
      </trkpt>
      <trkpt lat="45.23137" lon="4.72949">
        <ele>313.16</ele>
        <time>2017-03-26T13:32:08Z</time>
      </trkpt>
      <trkpt lat="45.23124" lon="4.72978">
        <ele>313.38</ele>
        <time>2017-03-26T13:32:09Z</time>
      </trkpt>
      <trkpt lat="45.23111" lon="4.73007">
        <ele>313.74</ele>
        <time>2017-03-26T13:32:10Z</time>
      </trkpt>
      <trkpt lat="45.23098" lon="4.73036">
        <ele>314.29</ele>
        <time>2017-03-26T13:32:11Z</time>
      </trkpt>
      <trkpt lat="45.23083" lon="4.73063">
        <ele>315.12</ele>
        <time>2017-03-26T13:32:12Z</time>
      </trkpt>
      <trkpt lat="45.23067" lon="4.7309">
        <ele>315.69</ele>
        <time>2017-03-26T13:32:13Z</time>
      </trkpt>
      <trkpt lat="45.2305" lon="4.73116">
        <ele>316.44</ele>
        <time>2017-03-26T13:32:14Z</time>
      </trkpt>
      <trkpt lat="45.23034" lon="4.73141">
        <ele>316.51</ele>
        <time>2017-03-26T13:32:15Z</time>
      </trkpt>
      <trkpt lat="45.23019" lon="4.73167">
        <ele>316.85</ele>
        <time>2017-03-26T13:32:16Z</time>
      </trkpt>
      <trkpt lat="45.23006" lon="4.73194">
        <ele>317.23</ele>
        <time>2017-03-26T13:32:17Z</time>
      </trkpt>
      <trkpt lat="45.22993" lon="4.73221">
        <ele>318.11</ele>
        <time>2017-03-26T13:32:18Z</time>
      </trkpt>
      <trkpt lat="45.2298" lon="4.73248">
        <ele>319.33</ele>
        <time>2017-03-26T13:32:19Z</time>
      </trkpt>
      <trkpt lat="45.22968" lon="4.73274">
        <ele>320.29</ele>
        <time>2017-03-26T13:32:20Z</time>
      </trkpt>
      <trkpt lat="45.22956" lon="4.733">
        <ele>320.88</ele>
        <time>2017-03-26T13:32:21Z</time>
      </trkpt>
      <trkpt lat="45.22944" lon="4.73326">
        <ele>321.48</ele>
        <time>2017-03-26T13:32:22Z</time>
      </trkpt>
      <trkpt lat="45.22932" lon="4.7335">
        <ele>321.92</ele>
        <time>2017-03-26T13:32:23Z</time>
      </trkpt>
      <trkpt lat="45.22923" lon="4.73375">
        <ele>322.49</ele>
        <time>2017-03-26T13:32:24Z</time>
      </trkpt>
      <trkpt lat="45.22915" lon="4.734">
        <ele>322.84</ele>
        <time>2017-03-26T13:32:25Z</time>
      </trkpt>
      <trkpt lat="45.2291" lon="4.73426">
        <ele>323.15</ele>
        <time>2017-03-26T13:32:26Z</time>
      </trkpt>
      <trkpt lat="45.22908" lon="4.73453">
        <ele>324.01</ele>
        <time>2017-03-26T13:32:27Z</time>
      </trkpt>
      <trkpt lat="45.22907" lon="4.73481">
        <ele>324.51</ele>
        <time>2017-03-26T13:32:28Z</time>
      </trkpt>
      <trkpt lat="45.22907" lon="4.73508">
        <ele>324.85</ele>
        <time>2017-03-26T13:32:29Z</time>
      </trkpt>
      <trkpt lat="45.22906" lon="4.73536">
        <ele>324.75</ele>
        <time>2017-03-26T13:32:30Z</time>
      </trkpt>
      <trkpt lat="45.22903" lon="4.73565">
        <ele>324.97</ele>
        <time>2017-03-26T13:32:31Z</time>
      </trkpt>
      <trkpt lat="45.22898" lon="4.73592">
        <ele>325.1</ele>
        <time>2017-03-26T13:32:32Z</time>
      </trkpt>
      <trkpt lat="45.22891" lon="4.73619">
        <ele>325.28</ele>
        <time>2017-03-26T13:32:33Z</time>
      </trkpt>
      <trkpt lat="45.22882" lon="4.73645">
        <ele>325.4</ele>
        <time>2017-03-26T13:32:34Z</time>
      </trkpt>
      <trkpt lat="45.22872" lon="4.73671">
        <ele>325.5</ele>
        <time>2017-03-26T13:32:35Z</time>
      </trkpt>
      <trkpt lat="45.22861" lon="4.73696">
        <ele>325.2</ele>
        <time>2017-03-26T13:32:36Z</time>
      </trkpt>
      <trkpt lat="45.22849" lon="4.73721">
        <ele>324.5</ele>
        <time>2017-03-26T13:32:37Z</time>
      </trkpt>
      <trkpt lat="45.22836" lon="4.73745">
        <ele>323.57</ele>
        <time>2017-03-26T13:32:38Z</time>
      </trkpt>
      <trkpt lat="45.22823" lon="4.73769">
        <ele>322.26</ele>
        <time>2017-03-26T13:32:39Z</time>
      </trkpt>
      <trkpt lat="45.2281" lon="4.73793">
        <ele>321.12</ele>
        <time>2017-03-26T13:32:40Z</time>
      </trkpt>
      <trkpt lat="45.22797" lon="4.73817">
        <ele>319.93</ele>
        <time>2017-03-26T13:32:41Z</time>
      </trkpt>
      <trkpt lat="45.22784" lon="4.73841">
        <ele>318.65</ele>
        <time>2017-03-26T13:32:42Z</time>
      </trkpt>
      <trkpt lat="45.2277" lon="4.73865">
        <ele>317.43</ele>
        <time>2017-03-26T13:32:43Z</time>
      </trkpt>
      <trkpt lat="45.22757" lon="4.7389">
        <ele>316.23</ele>
        <time>2017-03-26T13:32:44Z</time>
      </trkpt>
      <trkpt lat="45.22744" lon="4.73915">
        <ele>314.87</ele>
        <time>2017-03-26T13:32:45Z</time>
      </trkpt>
      <trkpt lat="45.2273" lon="4.7394">
        <ele>313.32</ele>
        <time>2017-03-26T13:32:46Z</time>
      </trkpt>
      <trkpt lat="45.22718" lon="4.73966">
        <ele>311.73</ele>
        <time>2017-03-26T13:32:47Z</time>
      </trkpt>
      <trkpt lat="45.22707" lon="4.73993">
        <ele>310.21</ele>
        <time>2017-03-26T13:32:48Z</time>
      </trkpt>
      <trkpt lat="45.22695" lon="4.74021">
        <ele>308.95</ele>
        <time>2017-03-26T13:32:49Z</time>
      </trkpt>
      <trkpt lat="45.22683" lon="4.74048">
        <ele>308.05</ele>
        <time>2017-03-26T13:32:50Z</time>
      </trkpt>
      <trkpt lat="45.22669" lon="4.74074">
        <ele>307.15</ele>
        <time>2017-03-26T13:32:51Z</time>
      </trkpt>
      <trkpt lat="45.22655" lon="4.74098">
        <ele>306.33</ele>
        <time>2017-03-26T13:32:52Z</time>
      </trkpt>
      <trkpt lat="45.22636" lon="4.74118">
        <ele>305.61</ele>
        <time>2017-03-26T13:32:53Z</time>
      </trkpt>
      <trkpt lat="45.22617" lon="4.74137">
        <ele>304.67</ele>
        <time>2017-03-26T13:32:54Z</time>
      </trkpt>
      <trkpt lat="45.22597" lon="4.74154">
        <ele>303.84</ele>
        <time>2017-03-26T13:32:55Z</time>
      </trkpt>
      <trkpt lat="45.22577" lon="4.74169">
        <ele>303.19</ele>
        <time>2017-03-26T13:32:56Z</time>
      </trkpt>
      <trkpt lat="45.22558" lon="4.74185">
        <ele>302.82</ele>
        <time>2017-03-26T13:32:57Z</time>
      </trkpt>
      <trkpt lat="45.2254" lon="4.74201">
        <ele>302.35</ele>
        <time>2017-03-26T13:32:58Z</time>
      </trkpt>
      <trkpt lat="45.22524" lon="4.74221">
        <ele>301.61</ele>
        <time>2017-03-26T13:32:59Z</time>
      </trkpt>
      <trkpt lat="45.22511" lon="4.74245">
        <ele>301.07</ele>
        <time>2017-03-26T13:33:00Z</time>
      </trkpt>
      <trkpt lat="45.22503" lon="4.74275">
        <ele>300.16</ele>
        <time>2017-03-26T13:33:01Z</time>
      </trkpt>
      <trkpt lat="45.22498" lon="4.74308">
        <ele>299.5</ele>
        <time>2017-03-26T13:33:02Z</time>
      </trkpt>
      <trkpt lat="45.22494" lon="4.74344">
        <ele>299.04</ele>
        <time>2017-03-26T13:33:03Z</time>
      </trkpt>
      <trkpt lat="45.22491" lon="4.74379">
        <ele>299.03</ele>
        <time>2017-03-26T13:33:04Z</time>
      </trkpt>
      <trkpt lat="45.22486" lon="4.74414">
        <ele>299.67</ele>
        <time>2017-03-26T13:33:05Z</time>
      </trkpt>
      <trkpt lat="45.2248" lon="4.74447">
        <ele>299.88</ele>
        <time>2017-03-26T13:33:06Z</time>
      </trkpt>
      <trkpt lat="45.22473" lon="4.74479">
        <ele>300</ele>
        <time>2017-03-26T13:33:07Z</time>
      </trkpt>
      <trkpt lat="45.22465" lon="4.7451">
        <ele>299.86</ele>
        <time>2017-03-26T13:33:08Z</time>
      </trkpt>
      <trkpt lat="45.22457" lon="4.74541">
        <ele>299.68</ele>
        <time>2017-03-26T13:33:09Z</time>
      </trkpt>
      <trkpt lat="45.2245" lon="4.74572">
        <ele>299.56</ele>
        <time>2017-03-26T13:33:10Z</time>
      </trkpt>
      <trkpt lat="45.22442" lon="4.74603">
        <ele>299.62</ele>
        <time>2017-03-26T13:33:11Z</time>
      </trkpt>
      <trkpt lat="45.22434" lon="4.74633">
        <ele>299.39</ele>
        <time>2017-03-26T13:33:12Z</time>
      </trkpt>
      <trkpt lat="45.22426" lon="4.74664">
        <ele>299.1</ele>
        <time>2017-03-26T13:33:13Z</time>
      </trkpt>
      <trkpt lat="45.22418" lon="4.74695">
        <ele>298.8</ele>
        <time>2017-03-26T13:33:14Z</time>
      </trkpt>
      <trkpt lat="45.22409" lon="4.74726">
        <ele>298.74</ele>
        <time>2017-03-26T13:33:15Z</time>
      </trkpt>
      <trkpt lat="45.224" lon="4.74756">
        <ele>299.05</ele>
        <time>2017-03-26T13:33:16Z</time>
      </trkpt>
      <trkpt lat="45.22389" lon="4.74785">
        <ele>299.03</ele>
        <time>2017-03-26T13:33:17Z</time>
      </trkpt>
      <trkpt lat="45.22378" lon="4.74815">
        <ele>298.79</ele>
        <time>2017-03-26T13:33:18Z</time>
      </trkpt>
      <trkpt lat="45.22369" lon="4.74845">
        <ele>298.74</ele>
        <time>2017-03-26T13:33:19Z</time>
      </trkpt>
      <trkpt lat="45.2236" lon="4.74875">
        <ele>299.05</ele>
        <time>2017-03-26T13:33:20Z</time>
      </trkpt>
      <trkpt lat="45.22354" lon="4.74907">
        <ele>299.35</ele>
        <time>2017-03-26T13:33:21Z</time>
      </trkpt>
      <trkpt lat="45.22348" lon="4.74938">
        <ele>299.65</ele>
        <time>2017-03-26T13:33:22Z</time>
      </trkpt>
      <trkpt lat="45.22344" lon="4.74971">
        <ele>301.23</ele>
        <time>2017-03-26T13:33:23Z</time>
      </trkpt>
      <trkpt lat="45.22339" lon="4.75003">
        <ele>302.83</ele>
        <time>2017-03-26T13:33:24Z</time>
      </trkpt>
      <trkpt lat="45.22334" lon="4.75034">
        <ele>304.27</ele>
        <time>2017-03-26T13:33:25Z</time>
      </trkpt>
      <trkpt lat="45.22327" lon="4.75062">
        <ele>305.12</ele>
        <time>2017-03-26T13:33:26Z</time>
      </trkpt>
      <trkpt lat="45.22319" lon="4.75088">
        <ele>305.45</ele>
        <time>2017-03-26T13:33:27Z</time>
      </trkpt>
      <trkpt lat="45.2231" lon="4.75115">
        <ele>305.35</ele>
        <time>2017-03-26T13:33:28Z</time>
      </trkpt>
      <trkpt lat="45.223" lon="4.75142">
        <ele>305.25</ele>
        <time>2017-03-26T13:33:29Z</time>
      </trkpt>
      <trkpt lat="45.22291" lon="4.7517">
        <ele>305.23</ele>
        <time>2017-03-26T13:33:30Z</time>
      </trkpt>
      <trkpt lat="45.22281" lon="4.75199">
        <ele>305.23</ele>
        <time>2017-03-26T13:33:31Z</time>
      </trkpt>
      <trkpt lat="45.22271" lon="4.75228">
        <ele>305.23</ele>
        <time>2017-03-26T13:33:32Z</time>
      </trkpt>
      <trkpt lat="45.22262" lon="4.75258">
        <ele>305.15</ele>
        <time>2017-03-26T13:33:33Z</time>
      </trkpt>
      <trkpt lat="45.22253" lon="4.75288">
        <ele>305.05</ele>
        <time>2017-03-26T13:33:34Z</time>
      </trkpt>
      <trkpt lat="45.22244" lon="4.75319">
        <ele>305.03</ele>
        <time>2017-03-26T13:33:35Z</time>
      </trkpt>
      <trkpt lat="45.22235" lon="4.7535">
        <ele>305.27</ele>
        <time>2017-03-26T13:33:36Z</time>
      </trkpt>
      <trkpt lat="45.22227" lon="4.7538">
        <ele>305.16</ele>
        <time>2017-03-26T13:33:37Z</time>
      </trkpt>
      <trkpt lat="45.22219" lon="4.7541">
        <ele>305.14</ele>
        <time>2017-03-26T13:33:38Z</time>
      </trkpt>
      <trkpt lat="45.2221" lon="4.7544">
        <ele>305.21</ele>
        <time>2017-03-26T13:33:39Z</time>
      </trkpt>
      <trkpt lat="45.222" lon="4.7547">
        <ele>304.91</ele>
        <time>2017-03-26T13:33:40Z</time>
      </trkpt>
      <trkpt lat="45.22191" lon="4.755">
        <ele>304.45</ele>
        <time>2017-03-26T13:33:41Z</time>
      </trkpt>
      <trkpt lat="45.22181" lon="4.75531">
        <ele>303.87</ele>
        <time>2017-03-26T13:33:42Z</time>
      </trkpt>
      <trkpt lat="45.22172" lon="4.75562">
        <ele>303.36</ele>
        <time>2017-03-26T13:33:43Z</time>
      </trkpt>
      <trkpt lat="45.22166" lon="4.75592">
        <ele>303.02</ele>
        <time>2017-03-26T13:33:44Z</time>
      </trkpt>
      <trkpt lat="45.2216" lon="4.75624">
        <ele>302.39</ele>
        <time>2017-03-26T13:33:45Z</time>
      </trkpt>
      <trkpt lat="45.22156" lon="4.75657">
        <ele>301.7</ele>
        <time>2017-03-26T13:33:46Z</time>
      </trkpt>
      <trkpt lat="45.22156" lon="4.75692">
        <ele>302.52</ele>
        <time>2017-03-26T13:33:47Z</time>
      </trkpt>
      <trkpt lat="45.22157" lon="4.75726">
        <ele>303.49</ele>
        <time>2017-03-26T13:33:48Z</time>
      </trkpt>
      <trkpt lat="45.2216" lon="4.75761">
        <ele>304.56</ele>
        <time>2017-03-26T13:33:49Z</time>
      </trkpt>
      <trkpt lat="45.22164" lon="4.75794">
        <ele>306.22</ele>
        <time>2017-03-26T13:33:50Z</time>
      </trkpt>
      <trkpt lat="45.22168" lon="4.75828">
        <ele>307.99</ele>
        <time>2017-03-26T13:33:51Z</time>
      </trkpt>
      <trkpt lat="45.22172" lon="4.7586">
        <ele>309.78</ele>
        <time>2017-03-26T13:33:52Z</time>
      </trkpt>
      <trkpt lat="45.22176" lon="4.75893">
        <ele>310.94</ele>
        <time>2017-03-26T13:33:53Z</time>
      </trkpt>
      <trkpt lat="45.22182" lon="4.75925">
        <ele>312.45</ele>
        <time>2017-03-26T13:33:54Z</time>
      </trkpt>
      <trkpt lat="45.2219" lon="4.75956">
        <ele>313.71</ele>
        <time>2017-03-26T13:33:55Z</time>
      </trkpt>
      <trkpt lat="45.22197" lon="4.75986">
        <ele>315.49</ele>
        <time>2017-03-26T13:33:56Z</time>
      </trkpt>
      <trkpt lat="45.22205" lon="4.76016">
        <ele>316.8</ele>
        <time>2017-03-26T13:33:57Z</time>
      </trkpt>
      <trkpt lat="45.22211" lon="4.76047">
        <ele>318.42</ele>
        <time>2017-03-26T13:33:58Z</time>
      </trkpt>
      <trkpt lat="45.22215" lon="4.76078">
        <ele>319.63</ele>
        <time>2017-03-26T13:33:59Z</time>
      </trkpt>
      <trkpt lat="45.22219" lon="4.76109">
        <ele>320.67</ele>
        <time>2017-03-26T13:34:00Z</time>
      </trkpt>
      <trkpt lat="45.22222" lon="4.76139">
        <ele>321.68</ele>
        <time>2017-03-26T13:34:01Z</time>
      </trkpt>
      <trkpt lat="45.22224" lon="4.7617">
        <ele>322.76</ele>
        <time>2017-03-26T13:34:02Z</time>
      </trkpt>
      <trkpt lat="45.22226" lon="4.762">
        <ele>323.54</ele>
        <time>2017-03-26T13:34:03Z</time>
      </trkpt>
      <trkpt lat="45.22228" lon="4.7623">
        <ele>324.49</ele>
        <time>2017-03-26T13:34:04Z</time>
      </trkpt>
      <trkpt lat="45.2223" lon="4.7626">
        <ele>325.16</ele>
        <time>2017-03-26T13:34:05Z</time>
      </trkpt>
      <trkpt lat="45.2223" lon="4.7629">
        <ele>325.78</ele>
        <time>2017-03-26T13:34:06Z</time>
      </trkpt>
      <trkpt lat="45.2223" lon="4.7632">
        <ele>326.3</ele>
        <time>2017-03-26T13:34:07Z</time>
      </trkpt>
      <trkpt lat="45.22228" lon="4.76351">
        <ele>326.64</ele>
        <time>2017-03-26T13:34:08Z</time>
      </trkpt>
      <trkpt lat="45.22225" lon="4.76382">
        <ele>326.87</ele>
        <time>2017-03-26T13:34:09Z</time>
      </trkpt>
      <trkpt lat="45.22222" lon="4.76413">
        <ele>327.16</ele>
        <time>2017-03-26T13:34:10Z</time>
      </trkpt>
      <trkpt lat="45.2222" lon="4.76444">
        <ele>327.46</ele>
        <time>2017-03-26T13:34:11Z</time>
      </trkpt>
      <trkpt lat="45.22217" lon="4.76474">
        <ele>327.36</ele>
        <time>2017-03-26T13:34:12Z</time>
      </trkpt>
      <trkpt lat="45.22214" lon="4.76505">
        <ele>327.02</ele>
        <time>2017-03-26T13:34:13Z</time>
      </trkpt>
      <trkpt lat="45.22211" lon="4.76535">
        <ele>327.03</ele>
        <time>2017-03-26T13:34:14Z</time>
      </trkpt>
      <trkpt lat="45.2221" lon="4.76565">
        <ele>327.11</ele>
        <time>2017-03-26T13:34:15Z</time>
      </trkpt>
      <trkpt lat="45.22208" lon="4.76593">
        <ele>327.37</ele>
        <time>2017-03-26T13:34:16Z</time>
      </trkpt>
      <trkpt lat="45.22206" lon="4.7662">
        <ele>327.66</ele>
        <time>2017-03-26T13:34:17Z</time>
      </trkpt>
      <trkpt lat="45.22205" lon="4.76645">
        <ele>328.28</ele>
        <time>2017-03-26T13:34:18Z</time>
      </trkpt>
      <trkpt lat="45.22203" lon="4.7667">
        <ele>328.72</ele>
        <time>2017-03-26T13:34:19Z</time>
      </trkpt>
      <trkpt lat="45.22202" lon="4.76693">
        <ele>328.89</ele>
        <time>2017-03-26T13:34:20Z</time>
      </trkpt>
      <trkpt lat="45.22201" lon="4.76715">
        <ele>329.4</ele>
        <time>2017-03-26T13:34:21Z</time>
      </trkpt>
      <trkpt lat="45.22201" lon="4.76738">
        <ele>329.9</ele>
        <time>2017-03-26T13:34:22Z</time>
      </trkpt>
      <trkpt lat="45.22201" lon="4.7676">
        <ele>330.32</ele>
        <time>2017-03-26T13:34:23Z</time>
      </trkpt>
      <trkpt lat="45.22199" lon="4.76783">
        <ele>330.41</ele>
        <time>2017-03-26T13:34:24Z</time>
      </trkpt>
      <trkpt lat="45.22197" lon="4.76804">
        <ele>330.43</ele>
        <time>2017-03-26T13:34:25Z</time>
      </trkpt>
      <trkpt lat="45.22194" lon="4.76826">
        <ele>330.27</ele>
        <time>2017-03-26T13:34:26Z</time>
      </trkpt>
      <trkpt lat="45.22192" lon="4.76848">
        <ele>330</ele>
        <time>2017-03-26T13:34:27Z</time>
      </trkpt>
      <trkpt lat="45.22189" lon="4.76868">
        <ele>330.02</ele>
        <time>2017-03-26T13:34:28Z</time>
      </trkpt>
      <trkpt lat="45.22187" lon="4.76889">
        <ele>330.19</ele>
        <time>2017-03-26T13:34:29Z</time>
      </trkpt>
      <trkpt lat="45.22186" lon="4.76909">
        <ele>330.22</ele>
        <time>2017-03-26T13:34:30Z</time>
      </trkpt>
      <trkpt lat="45.22185" lon="4.76928">
        <ele>330.55</ele>
        <time>2017-03-26T13:34:31Z</time>
      </trkpt>
      <trkpt lat="45.22184" lon="4.76947">
        <ele>330.53</ele>
        <time>2017-03-26T13:34:32Z</time>
      </trkpt>
      <trkpt lat="45.22183" lon="4.76966">
        <ele>330.13</ele>
        <time>2017-03-26T13:34:33Z</time>
      </trkpt>
      <trkpt lat="45.22182" lon="4.76985">
        <ele>330.05</ele>
        <time>2017-03-26T13:34:34Z</time>
      </trkpt>
      <trkpt lat="45.22181" lon="4.77003">
        <ele>330.11</ele>
        <time>2017-03-26T13:34:35Z</time>
      </trkpt>
      <trkpt lat="45.2218" lon="4.77021">
        <ele>330.37</ele>
        <time>2017-03-26T13:34:36Z</time>
      </trkpt>
      <trkpt lat="45.22179" lon="4.77039">
        <ele>330.9</ele>
        <time>2017-03-26T13:34:37Z</time>
      </trkpt>
      <trkpt lat="45.22179" lon="4.77056">
        <ele>330.84</ele>
        <time>2017-03-26T13:34:38Z</time>
      </trkpt>
      <trkpt lat="45.22178" lon="4.77074">
        <ele>330.51</ele>
        <time>2017-03-26T13:34:39Z</time>
      </trkpt>
      <trkpt lat="45.22177" lon="4.77092">
        <ele>330.53</ele>
        <time>2017-03-26T13:34:40Z</time>
      </trkpt>
      <trkpt lat="45.22177" lon="4.7711">
        <ele>330.45</ele>
        <time>2017-03-26T13:34:41Z</time>
      </trkpt>
      <trkpt lat="45.22176" lon="4.77128">
        <ele>330.27</ele>
        <time>2017-03-26T13:34:42Z</time>
      </trkpt>
      <trkpt lat="45.22175" lon="4.77146">
        <ele>329.84</ele>
        <time>2017-03-26T13:34:43Z</time>
      </trkpt>
      <trkpt lat="45.22173" lon="4.77165">
        <ele>329.35</ele>
        <time>2017-03-26T13:34:44Z</time>
      </trkpt>
      <trkpt lat="45.22172" lon="4.77184">
        <ele>328.69</ele>
        <time>2017-03-26T13:34:45Z</time>
      </trkpt>
      <trkpt lat="45.22172" lon="4.77203">
        <ele>327.76</ele>
        <time>2017-03-26T13:34:46Z</time>
      </trkpt>
      <trkpt lat="45.22172" lon="4.77222">
        <ele>327.18</ele>
        <time>2017-03-26T13:34:47Z</time>
      </trkpt>
      <trkpt lat="45.22172" lon="4.7724">
        <ele>326.74</ele>
        <time>2017-03-26T13:34:48Z</time>
      </trkpt>
      <trkpt lat="45.22173" lon="4.77258">
        <ele>326.33</ele>
        <time>2017-03-26T13:34:49Z</time>
      </trkpt>
      <trkpt lat="45.22174" lon="4.77275">
        <ele>326.09</ele>
        <time>2017-03-26T13:34:50Z</time>
      </trkpt>
      <trkpt lat="45.22176" lon="4.77293">
        <ele>325.72</ele>
        <time>2017-03-26T13:34:51Z</time>
      </trkpt>
      <trkpt lat="45.22177" lon="4.7731">
        <ele>325.41</ele>
        <time>2017-03-26T13:34:52Z</time>
      </trkpt>
      <trkpt lat="45.22178" lon="4.77327">
        <ele>324.79</ele>
        <time>2017-03-26T13:34:53Z</time>
      </trkpt>
      <trkpt lat="45.2218" lon="4.77344">
        <ele>324.1</ele>
        <time>2017-03-26T13:34:54Z</time>
      </trkpt>
      <trkpt lat="45.22182" lon="4.77362">
        <ele>323.56</ele>
        <time>2017-03-26T13:34:55Z</time>
      </trkpt>
      <trkpt lat="45.22183" lon="4.77379">
        <ele>323.14</ele>
        <time>2017-03-26T13:34:56Z</time>
      </trkpt>
      <trkpt lat="45.22184" lon="4.77397">
        <ele>322.73</ele>
        <time>2017-03-26T13:34:57Z</time>
      </trkpt>
      <trkpt lat="45.22184" lon="4.77415">
        <ele>322.49</ele>
        <time>2017-03-26T13:34:58Z</time>
      </trkpt>
      <trkpt lat="45.22184" lon="4.77433">
        <ele>321.96</ele>
        <time>2017-03-26T13:34:59Z</time>
      </trkpt>
      <trkpt lat="45.22184" lon="4.77452">
        <ele>321.62</ele>
        <time>2017-03-26T13:35:00Z</time>
      </trkpt>
      <trkpt lat="45.22184" lon="4.77472">
        <ele>320.75</ele>
        <time>2017-03-26T13:35:01Z</time>
      </trkpt>
      <trkpt lat="45.22184" lon="4.77492">
        <ele>319.93</ele>
        <time>2017-03-26T13:35:02Z</time>
      </trkpt>
      <trkpt lat="45.22183" lon="4.77511">
        <ele>319.05</ele>
        <time>2017-03-26T13:35:03Z</time>
      </trkpt>
      <trkpt lat="45.22184" lon="4.77531">
        <ele>318.47</ele>
        <time>2017-03-26T13:35:04Z</time>
      </trkpt>
      <trkpt lat="45.22184" lon="4.77551">
        <ele>318.2</ele>
        <time>2017-03-26T13:35:05Z</time>
      </trkpt>
      <trkpt lat="45.22185" lon="4.77569">
        <ele>318.06</ele>
        <time>2017-03-26T13:35:06Z</time>
      </trkpt>
      <trkpt lat="45.22187" lon="4.77587">
        <ele>317.72</ele>
        <time>2017-03-26T13:35:07Z</time>
      </trkpt>
      <trkpt lat="45.22188" lon="4.77604">
        <ele>317.01</ele>
        <time>2017-03-26T13:35:08Z</time>
      </trkpt>
      <trkpt lat="45.22189" lon="4.77621">
        <ele>316.71</ele>
        <time>2017-03-26T13:35:09Z</time>
      </trkpt>
      <trkpt lat="45.2219" lon="4.77637">
        <ele>316.33</ele>
        <time>2017-03-26T13:35:10Z</time>
      </trkpt>
      <trkpt lat="45.22189" lon="4.77652">
        <ele>316.01</ele>
        <time>2017-03-26T13:35:11Z</time>
      </trkpt>
      <trkpt lat="45.22188" lon="4.77667">
        <ele>315.15</ele>
        <time>2017-03-26T13:35:12Z</time>
      </trkpt>
      <trkpt lat="45.22188" lon="4.7768">
        <ele>314.65</ele>
        <time>2017-03-26T13:35:13Z</time>
      </trkpt>
      <trkpt lat="45.22189" lon="4.77694">
        <ele>314.07</ele>
        <time>2017-03-26T13:35:14Z</time>
      </trkpt>
      <trkpt lat="45.22192" lon="4.77707">
        <ele>313.08</ele>
        <time>2017-03-26T13:35:15Z</time>
      </trkpt>
      <trkpt lat="45.22197" lon="4.7772">
        <ele>312.24</ele>
        <time>2017-03-26T13:35:16Z</time>
      </trkpt>
      <trkpt lat="45.22203" lon="4.77732">
        <ele>311.59</ele>
        <time>2017-03-26T13:35:17Z</time>
      </trkpt>
      <trkpt lat="45.22209" lon="4.77744">
        <ele>310.9</ele>
        <time>2017-03-26T13:35:18Z</time>
      </trkpt>
      <trkpt lat="45.22217" lon="4.77755">
        <ele>310.04</ele>
        <time>2017-03-26T13:35:19Z</time>
      </trkpt>
      <trkpt lat="45.22224" lon="4.77766">
        <ele>309.23</ele>
        <time>2017-03-26T13:35:20Z</time>
      </trkpt>
      <trkpt lat="45.2223" lon="4.77777">
        <ele>308.51</ele>
        <time>2017-03-26T13:35:21Z</time>
      </trkpt>
      <trkpt lat="45.22233" lon="4.77786">
        <ele>307.97</ele>
        <time>2017-03-26T13:35:22Z</time>
      </trkpt>
      <trkpt lat="45.22234" lon="4.77791">
        <ele>307.7</ele>
        <time>2017-03-26T13:35:23Z</time>
      </trkpt>
      <trkpt lat="45.22234" lon="4.77796">
        <ele>307.4</ele>
        <time>2017-03-26T13:35:24Z</time>
      </trkpt>
      <trkpt lat="45.22233" lon="4.77795">
        <ele>307.34</ele>
        <time>2017-03-26T13:35:25Z</time>
      </trkpt>
      <trkpt lat="45.22233" lon="4.77795">
        <ele>307.09</ele>
        <time>2017-03-26T13:35:26Z</time>
      </trkpt>
      <trkpt lat="45.22233" lon="4.77794">
        <ele>306.96</ele>
        <time>2017-03-26T13:35:27Z</time>
      </trkpt>
      <trkpt lat="45.22233" lon="4.77794">
        <ele>306.94</ele>
        <time>2017-03-26T13:35:28Z</time>
      </trkpt>
      <trkpt lat="45.22233" lon="4.77794">
        <ele>306.93</ele>
        <time>2017-03-26T13:35:29Z</time>
      </trkpt>
      <trkpt lat="45.22233" lon="4.77794">
        <ele>306.93</ele>
        <time>2017-03-26T13:35:30Z</time>
      </trkpt>
      <trkpt lat="45.22233" lon="4.77794">
        <ele>306.93</ele>
        <time>2017-03-26T13:35:31Z</time>
      </trkpt>
      <trkpt lat="45.22233" lon="4.77794">
        <ele>306.93</ele>
        <time>2017-03-26T13:35:32Z</time>
      </trkpt>
      <trkpt lat="45.22233" lon="4.77794">
        <ele>306.93</ele>
        <time>2017-03-26T13:35:33Z</time>
      </trkpt>
      <trkpt lat="45.22233" lon="4.77794">
        <ele>306.93</ele>
        <time>2017-03-26T13:35:34Z</time>
      </trkpt>
      <trkpt lat="45.22233" lon="4.77794">
        <ele>306.93</ele>
        <time>2017-03-26T13:35:35Z</time>
      </trkpt>
      <trkpt lat="45.22233" lon="4.77794">
        <ele>306.93</ele>
        <time>2017-03-26T13:35:36Z</time>
      </trkpt>
      <trkpt lat="45.22233" lon="4.77794">
        <ele>306.93</ele>
        <time>2017-03-26T13:35:37Z</time>
      </trkpt>
      <trkpt lat="45.22233" lon="4.77794">
        <ele>306.93</ele>
        <time>2017-03-26T13:35:38Z</time>
      </trkpt>
      <trkpt lat="45.22233" lon="4.77794">
        <ele>306.93</ele>
        <time>2017-03-26T13:35:39Z</time>
      </trkpt>
      <trkpt lat="45.22233" lon="4.77794">
        <ele>306.93</ele>
        <time>2017-03-26T13:35:40Z</time>
      </trkpt>
      <trkpt lat="45.22233" lon="4.77794">
        <ele>306.93</ele>
        <time>2017-03-26T13:35:41Z</time>
      </trkpt>
      <trkpt lat="45.22233" lon="4.77794">
        <ele>306.93</ele>
        <time>2017-03-26T13:35:42Z</time>
      </trkpt>
      <trkpt lat="45.22233" lon="4.77794">
        <ele>306.93</ele>
        <time>2017-03-26T13:35:43Z</time>
      </trkpt>
      <trkpt lat="45.22233" lon="4.77794">
        <ele>306.93</ele>
        <time>2017-03-26T13:35:44Z</time>
      </trkpt>
      <trkpt lat="45.22233" lon="4.77794">
        <ele>306.93</ele>
        <time>2017-03-26T13:35:45Z</time>
      </trkpt>
      <trkpt lat="45.22233" lon="4.77801">
        <ele>307.97</ele>
        <time>2017-03-26T13:35:46Z</time>
      </trkpt>
      <trkpt lat="45.22234" lon="4.77809">
        <ele>308.26</ele>
        <time>2017-03-26T13:35:47Z</time>
      </trkpt>
      <trkpt lat="45.22235" lon="4.77818">
        <ele>308.4</ele>
        <time>2017-03-26T13:35:48Z</time>
      </trkpt>
      <trkpt lat="45.22236" lon="4.77829">
        <ele>308.42</ele>
        <time>2017-03-26T13:35:49Z</time>
      </trkpt>
      <trkpt lat="45.22236" lon="4.77842">
        <ele>308.51</ele>
        <time>2017-03-26T13:35:50Z</time>
      </trkpt>
      <trkpt lat="45.22235" lon="4.77855">
        <ele>308.53</ele>
        <time>2017-03-26T13:35:51Z</time>
      </trkpt>
      <trkpt lat="45.22233" lon="4.77868">
        <ele>308.61</ele>
        <time>2017-03-26T13:35:52Z</time>
      </trkpt>
      <trkpt lat="45.22229" lon="4.77881">
        <ele>308.63</ele>
        <time>2017-03-26T13:35:53Z</time>
      </trkpt>
      <trkpt lat="45.22222" lon="4.77895">
        <ele>308.71</ele>
        <time>2017-03-26T13:35:54Z</time>
      </trkpt>
      <trkpt lat="45.22211" lon="4.77909">
        <ele>308.73</ele>
        <time>2017-03-26T13:35:55Z</time>
      </trkpt>
      <trkpt lat="45.22201" lon="4.77922">
        <ele>308.73</ele>
        <time>2017-03-26T13:35:56Z</time>
      </trkpt>
      <trkpt lat="45.2219" lon="4.77935">
        <ele>308.81</ele>
        <time>2017-03-26T13:35:57Z</time>
      </trkpt>
      <trkpt lat="45.22179" lon="4.77948">
        <ele>308.83</ele>
        <time>2017-03-26T13:35:58Z</time>
      </trkpt>
      <trkpt lat="45.22168" lon="4.77961">
        <ele>308.83</ele>
        <time>2017-03-26T13:35:59Z</time>
      </trkpt>
      <trkpt lat="45.22157" lon="4.77975">
        <ele>308.83</ele>
        <time>2017-03-26T13:36:00Z</time>
      </trkpt>
      <trkpt lat="45.22147" lon="4.7799">
        <ele>308.83</ele>
        <time>2017-03-26T13:36:01Z</time>
      </trkpt>
      <trkpt lat="45.22137" lon="4.78006">
        <ele>308.83</ele>
        <time>2017-03-26T13:36:02Z</time>
      </trkpt>
      <trkpt lat="45.22133" lon="4.78024">
        <ele>308.83</ele>
        <time>2017-03-26T13:36:03Z</time>
      </trkpt>
      <trkpt lat="45.22129" lon="4.78042">
        <ele>308.83</ele>
        <time>2017-03-26T13:36:04Z</time>
      </trkpt>
      <trkpt lat="45.22126" lon="4.78061">
        <ele>308.83</ele>
        <time>2017-03-26T13:36:05Z</time>
      </trkpt>
      <trkpt lat="45.22126" lon="4.78079">
        <ele>308.83</ele>
        <time>2017-03-26T13:36:06Z</time>
      </trkpt>
      <trkpt lat="45.22126" lon="4.78096">
        <ele>308.83</ele>
        <time>2017-03-26T13:36:07Z</time>
      </trkpt>
      <trkpt lat="45.22127" lon="4.78113">
        <ele>308.83</ele>
        <time>2017-03-26T13:36:08Z</time>
      </trkpt>
      <trkpt lat="45.22129" lon="4.78129">
        <ele>308.83</ele>
        <time>2017-03-26T13:36:09Z</time>
      </trkpt>
      <trkpt lat="45.22133" lon="4.78144">
        <ele>308.83</ele>
        <time>2017-03-26T13:36:10Z</time>
      </trkpt>
      <trkpt lat="45.22139" lon="4.78159">
        <ele>308.75</ele>
        <time>2017-03-26T13:36:11Z</time>
      </trkpt>
      <trkpt lat="45.22145" lon="4.78172">
        <ele>308.73</ele>
        <time>2017-03-26T13:36:12Z</time>
      </trkpt>
      <trkpt lat="45.22155" lon="4.78186">
        <ele>308.73</ele>
        <time>2017-03-26T13:36:13Z</time>
      </trkpt>
      <trkpt lat="45.22163" lon="4.782">
        <ele>308.73</ele>
        <time>2017-03-26T13:36:14Z</time>
      </trkpt>
      <trkpt lat="45.22171" lon="4.78214">
        <ele>308.73</ele>
        <time>2017-03-26T13:36:15Z</time>
      </trkpt>
      <trkpt lat="45.2218" lon="4.78229">
        <ele>308.65</ele>
        <time>2017-03-26T13:36:16Z</time>
      </trkpt>
      <trkpt lat="45.22186" lon="4.78244">
        <ele>308.63</ele>
        <time>2017-03-26T13:36:17Z</time>
      </trkpt>
      <trkpt lat="45.22191" lon="4.78261">
        <ele>308.63</ele>
        <time>2017-03-26T13:36:18Z</time>
      </trkpt>
      <trkpt lat="45.22194" lon="4.78279">
        <ele>308.71</ele>
        <time>2017-03-26T13:36:19Z</time>
      </trkpt>
      <trkpt lat="45.22197" lon="4.78299">
        <ele>308.73</ele>
        <time>2017-03-26T13:36:20Z</time>
      </trkpt>
      <trkpt lat="45.22198" lon="4.78319">
        <ele>308.73</ele>
        <time>2017-03-26T13:36:21Z</time>
      </trkpt>
      <trkpt lat="45.22201" lon="4.78339">
        <ele>308.73</ele>
        <time>2017-03-26T13:36:22Z</time>
      </trkpt>
      <trkpt lat="45.22204" lon="4.78359">
        <ele>308.65</ele>
        <time>2017-03-26T13:36:23Z</time>
      </trkpt>
      <trkpt lat="45.22206" lon="4.78382">
        <ele>308.79</ele>
        <time>2017-03-26T13:36:24Z</time>
      </trkpt>
      <trkpt lat="45.22209" lon="4.78405">
        <ele>308.98</ele>
        <time>2017-03-26T13:36:25Z</time>
      </trkpt>
      <trkpt lat="45.22211" lon="4.78426">
        <ele>309.02</ele>
        <time>2017-03-26T13:36:26Z</time>
      </trkpt>
      <trkpt lat="45.22211" lon="4.78449">
        <ele>309.03</ele>
        <time>2017-03-26T13:36:27Z</time>
      </trkpt>
      <trkpt lat="45.2221" lon="4.78472">
        <ele>309.03</ele>
        <time>2017-03-26T13:36:28Z</time>
      </trkpt>
      <trkpt lat="45.22208" lon="4.78495">
        <ele>308.95</ele>
        <time>2017-03-26T13:36:29Z</time>
      </trkpt>
      <trkpt lat="45.22207" lon="4.78518">
        <ele>308.85</ele>
        <time>2017-03-26T13:36:30Z</time>
      </trkpt>
      <trkpt lat="45.22207" lon="4.7854">
        <ele>308.75</ele>
        <time>2017-03-26T13:36:31Z</time>
      </trkpt>
      <trkpt lat="45.22208" lon="4.78562">
        <ele>308.73</ele>
        <time>2017-03-26T13:36:32Z</time>
      </trkpt>
      <trkpt lat="45.22211" lon="4.78584">
        <ele>308.73</ele>
        <time>2017-03-26T13:36:33Z</time>
      </trkpt>
      <trkpt lat="45.22215" lon="4.78605">
        <ele>308.57</ele>
        <time>2017-03-26T13:36:34Z</time>
      </trkpt>
      <trkpt lat="45.22217" lon="4.78625">
        <ele>308.3</ele>
        <time>2017-03-26T13:36:35Z</time>
      </trkpt>
      <trkpt lat="45.22218" lon="4.78646">
        <ele>308.08</ele>
        <time>2017-03-26T13:36:36Z</time>
      </trkpt>
      <trkpt lat="45.22217" lon="4.78665">
        <ele>307.88</ele>
        <time>2017-03-26T13:36:37Z</time>
      </trkpt>
      <trkpt lat="45.22214" lon="4.78686">
        <ele>307.68</ele>
        <time>2017-03-26T13:36:38Z</time>
      </trkpt>
      <trkpt lat="45.2221" lon="4.78707">
        <ele>307.4</ele>
        <time>2017-03-26T13:36:39Z</time>
      </trkpt>
      <trkpt lat="45.22206" lon="4.78728">
        <ele>307.1</ele>
        <time>2017-03-26T13:36:40Z</time>
      </trkpt>
      <trkpt lat="45.22201" lon="4.7875">
        <ele>306.64</ele>
        <time>2017-03-26T13:36:41Z</time>
      </trkpt>
      <trkpt lat="45.22196" lon="4.78772">
        <ele>306.31</ele>
        <time>2017-03-26T13:36:42Z</time>
      </trkpt>
      <trkpt lat="45.22191" lon="4.78793">
        <ele>305.93</ele>
        <time>2017-03-26T13:36:43Z</time>
      </trkpt>
      <trkpt lat="45.22186" lon="4.78815">
        <ele>305.53</ele>
        <time>2017-03-26T13:36:44Z</time>
      </trkpt>
      <trkpt lat="45.2218" lon="4.78836">
        <ele>305.13</ele>
        <time>2017-03-26T13:36:45Z</time>
      </trkpt>
      <trkpt lat="45.22175" lon="4.78857">
        <ele>304.73</ele>
        <time>2017-03-26T13:36:46Z</time>
      </trkpt>
      <trkpt lat="45.2217" lon="4.78878">
        <ele>304.17</ele>
        <time>2017-03-26T13:36:47Z</time>
      </trkpt>
      <trkpt lat="45.22165" lon="4.78899">
        <ele>303.5</ele>
        <time>2017-03-26T13:36:48Z</time>
      </trkpt>
      <trkpt lat="45.22159" lon="4.78919">
        <ele>302.88</ele>
        <time>2017-03-26T13:36:49Z</time>
      </trkpt>
      <trkpt lat="45.22154" lon="4.7894">
        <ele>302.12</ele>
        <time>2017-03-26T13:36:50Z</time>
      </trkpt>
      <trkpt lat="45.22147" lon="4.78961">
        <ele>301.09</ele>
        <time>2017-03-26T13:36:51Z</time>
      </trkpt>
      <trkpt lat="45.2214" lon="4.78981">
        <ele>300.08</ele>
        <time>2017-03-26T13:36:52Z</time>
      </trkpt>
      <trkpt lat="45.22133" lon="4.79001">
        <ele>299</ele>
        <time>2017-03-26T13:36:53Z</time>
      </trkpt>
      <trkpt lat="45.22127" lon="4.79021">
        <ele>297.9</ele>
        <time>2017-03-26T13:36:54Z</time>
      </trkpt>
      <trkpt lat="45.2212" lon="4.79039">
        <ele>296.8</ele>
        <time>2017-03-26T13:36:55Z</time>
      </trkpt>
      <trkpt lat="45.22112" lon="4.79055">
        <ele>295.7</ele>
        <time>2017-03-26T13:36:56Z</time>
      </trkpt>
      <trkpt lat="45.22101" lon="4.79067">
        <ele>294.52</ele>
        <time>2017-03-26T13:36:57Z</time>
      </trkpt>
      <trkpt lat="45.22088" lon="4.79077">
        <ele>293.49</ele>
        <time>2017-03-26T13:36:58Z</time>
      </trkpt>
      <trkpt lat="45.22074" lon="4.79086">
        <ele>292.32</ele>
        <time>2017-03-26T13:36:59Z</time>
      </trkpt>
      <trkpt lat="45.22059" lon="4.79095">
        <ele>291.21</ele>
        <time>2017-03-26T13:37:00Z</time>
      </trkpt>
      <trkpt lat="45.22043" lon="4.79103">
        <ele>290.19</ele>
        <time>2017-03-26T13:37:01Z</time>
      </trkpt>
      <trkpt lat="45.22027" lon="4.79111">
        <ele>289.18</ele>
        <time>2017-03-26T13:37:02Z</time>
      </trkpt>
      <trkpt lat="45.2201" lon="4.7912">
        <ele>288.18</ele>
        <time>2017-03-26T13:37:03Z</time>
      </trkpt>
      <trkpt lat="45.21994" lon="4.79127">
        <ele>287.26</ele>
        <time>2017-03-26T13:37:04Z</time>
      </trkpt>
      <trkpt lat="45.21976" lon="4.79134">
        <ele>286.28</ele>
        <time>2017-03-26T13:37:05Z</time>
      </trkpt>
      <trkpt lat="45.21958" lon="4.79141">
        <ele>285.28</ele>
        <time>2017-03-26T13:37:06Z</time>
      </trkpt>
      <trkpt lat="45.2194" lon="4.79148">
        <ele>284.28</ele>
        <time>2017-03-26T13:37:07Z</time>
      </trkpt>
      <trkpt lat="45.21922" lon="4.79156">
        <ele>283.28</ele>
        <time>2017-03-26T13:37:08Z</time>
      </trkpt>
      <trkpt lat="45.21904" lon="4.79163">
        <ele>282.44</ele>
        <time>2017-03-26T13:37:09Z</time>
      </trkpt>
      <trkpt lat="45.21886" lon="4.79169">
        <ele>281.55</ele>
        <time>2017-03-26T13:37:10Z</time>
      </trkpt>
      <trkpt lat="45.21868" lon="4.7917">
        <ele>280.81</ele>
        <time>2017-03-26T13:37:11Z</time>
      </trkpt>
      <trkpt lat="45.21851" lon="4.79166">
        <ele>280.03</ele>
        <time>2017-03-26T13:37:12Z</time>
      </trkpt>
      <trkpt lat="45.21835" lon="4.79163">
        <ele>279.23</ele>
        <time>2017-03-26T13:37:13Z</time>
      </trkpt>
      <trkpt lat="45.21824" lon="4.79154">
        <ele>278.27</ele>
        <time>2017-03-26T13:37:14Z</time>
      </trkpt>
      <trkpt lat="45.21816" lon="4.79143">
        <ele>277.36</ele>
        <time>2017-03-26T13:37:15Z</time>
      </trkpt>
      <trkpt lat="45.21809" lon="4.79131">
        <ele>276.46</ele>
        <time>2017-03-26T13:37:16Z</time>
      </trkpt>
      <trkpt lat="45.21802" lon="4.79118">
        <ele>275.64</ele>
        <time>2017-03-26T13:37:17Z</time>
      </trkpt>
      <trkpt lat="45.21793" lon="4.7911">
        <ele>274.75</ele>
        <time>2017-03-26T13:37:18Z</time>
      </trkpt>
      <trkpt lat="45.21784" lon="4.79108">
        <ele>273.85</ele>
        <time>2017-03-26T13:37:19Z</time>
      </trkpt>
      <trkpt lat="45.21773" lon="4.79111">
        <ele>272.95</ele>
        <time>2017-03-26T13:37:20Z</time>
      </trkpt>
      <trkpt lat="45.21762" lon="4.79116">
        <ele>272.05</ele>
        <time>2017-03-26T13:37:21Z</time>
      </trkpt>
      <trkpt lat="45.21749" lon="4.79122">
        <ele>271.15</ele>
        <time>2017-03-26T13:37:22Z</time>
      </trkpt>
      <trkpt lat="45.21736" lon="4.79127">
        <ele>270.17</ele>
        <time>2017-03-26T13:37:23Z</time>
      </trkpt>
      <trkpt lat="45.21721" lon="4.79131">
        <ele>269.18</ele>
        <time>2017-03-26T13:37:24Z</time>
      </trkpt>
      <trkpt lat="45.21706" lon="4.79133">
        <ele>268.18</ele>
        <time>2017-03-26T13:37:25Z</time>
      </trkpt>
      <trkpt lat="45.21688" lon="4.79135">
        <ele>267.1</ele>
        <time>2017-03-26T13:37:26Z</time>
      </trkpt>
      <trkpt lat="45.21671" lon="4.79133">
        <ele>265.92</ele>
        <time>2017-03-26T13:37:27Z</time>
      </trkpt>
      <trkpt lat="45.21653" lon="4.79132">
        <ele>264.65</ele>
        <time>2017-03-26T13:37:28Z</time>
      </trkpt>
      <trkpt lat="45.21636" lon="4.79134">
        <ele>263.35</ele>
        <time>2017-03-26T13:37:29Z</time>
      </trkpt>
      <trkpt lat="45.2162" lon="4.79138">
        <ele>262.05</ele>
        <time>2017-03-26T13:37:30Z</time>
      </trkpt>
      <trkpt lat="45.21603" lon="4.79141">
        <ele>260.75</ele>
        <time>2017-03-26T13:37:31Z</time>
      </trkpt>
      <trkpt lat="45.21586" lon="4.79144">
        <ele>259.54</ele>
        <time>2017-03-26T13:37:32Z</time>
      </trkpt>
      <trkpt lat="45.21569" lon="4.79149">
        <ele>258.33</ele>
        <time>2017-03-26T13:37:33Z</time>
      </trkpt>
      <trkpt lat="45.21553" lon="4.79153">
        <ele>257.13</ele>
        <time>2017-03-26T13:37:34Z</time>
      </trkpt>
      <trkpt lat="45.21536" lon="4.79158">
        <ele>255.93</ele>
        <time>2017-03-26T13:37:35Z</time>
      </trkpt>
      <trkpt lat="45.21519" lon="4.79163">
        <ele>254.81</ele>
        <time>2017-03-26T13:37:36Z</time>
      </trkpt>
      <trkpt lat="45.21502" lon="4.79169">
        <ele>253.71</ele>
        <time>2017-03-26T13:37:37Z</time>
      </trkpt>
      <trkpt lat="45.21485" lon="4.79173">
        <ele>252.45</ele>
        <time>2017-03-26T13:37:38Z</time>
      </trkpt>
      <trkpt lat="45.21469" lon="4.79178">
        <ele>251.07</ele>
        <time>2017-03-26T13:37:39Z</time>
      </trkpt>
      <trkpt lat="45.21452" lon="4.79181">
        <ele>249.84</ele>
        <time>2017-03-26T13:37:40Z</time>
      </trkpt>
      <trkpt lat="45.21436" lon="4.79183">
        <ele>248.55</ele>
        <time>2017-03-26T13:37:41Z</time>
      </trkpt>
      <trkpt lat="45.2142" lon="4.79186">
        <ele>247.25</ele>
        <time>2017-03-26T13:37:42Z</time>
      </trkpt>
      <trkpt lat="45.21404" lon="4.79192">
        <ele>246.03</ele>
        <time>2017-03-26T13:37:43Z</time>
      </trkpt>
      <trkpt lat="45.21388" lon="4.79198">
        <ele>244.83</ele>
        <time>2017-03-26T13:37:44Z</time>
      </trkpt>
      <trkpt lat="45.21373" lon="4.79203">
        <ele>243.47</ele>
        <time>2017-03-26T13:37:45Z</time>
      </trkpt>
      <trkpt lat="45.21358" lon="4.79209">
        <ele>242.32</ele>
        <time>2017-03-26T13:37:46Z</time>
      </trkpt>
      <trkpt lat="45.21343" lon="4.79216">
        <ele>241.13</ele>
        <time>2017-03-26T13:37:47Z</time>
      </trkpt>
      <trkpt lat="45.2133" lon="4.79225">
        <ele>239.93</ele>
        <time>2017-03-26T13:37:48Z</time>
      </trkpt>
      <trkpt lat="45.21317" lon="4.79237">
        <ele>238.57</ele>
        <time>2017-03-26T13:37:49Z</time>
      </trkpt>
      <trkpt lat="45.21303" lon="4.7925">
        <ele>237.1</ele>
        <time>2017-03-26T13:37:50Z</time>
      </trkpt>
      <trkpt lat="45.21289" lon="4.79262">
        <ele>235.76</ele>
        <time>2017-03-26T13:37:51Z</time>
      </trkpt>
      <trkpt lat="45.21276" lon="4.79274">
        <ele>234.3</ele>
        <time>2017-03-26T13:37:52Z</time>
      </trkpt>
      <trkpt lat="45.21263" lon="4.79285">
        <ele>232.88</ele>
        <time>2017-03-26T13:37:53Z</time>
      </trkpt>
      <trkpt lat="45.2125" lon="4.79297">
        <ele>231.4</ele>
        <time>2017-03-26T13:37:54Z</time>
      </trkpt>
      <trkpt lat="45.21239" lon="4.79309">
        <ele>229.9</ele>
        <time>2017-03-26T13:37:55Z</time>
      </trkpt>
      <trkpt lat="45.21228" lon="4.79322">
        <ele>228.4</ele>
        <time>2017-03-26T13:37:56Z</time>
      </trkpt>
      <trkpt lat="45.21218" lon="4.79336">
        <ele>226.9</ele>
        <time>2017-03-26T13:37:57Z</time>
      </trkpt>
      <trkpt lat="45.21208" lon="4.79349">
        <ele>225.4</ele>
        <time>2017-03-26T13:37:58Z</time>
      </trkpt>
      <trkpt lat="45.21198" lon="4.79361">
        <ele>223.9</ele>
        <time>2017-03-26T13:37:59Z</time>
      </trkpt>
      <trkpt lat="45.21187" lon="4.79372">
        <ele>222.57</ele>
        <time>2017-03-26T13:38:00Z</time>
      </trkpt>
      <trkpt lat="45.21177" lon="4.79381">
        <ele>220.86</ele>
        <time>2017-03-26T13:38:01Z</time>
      </trkpt>
      <trkpt lat="45.21167" lon="4.79393">
        <ele>219.24</ele>
        <time>2017-03-26T13:38:02Z</time>
      </trkpt>
      <trkpt lat="45.2116" lon="4.79408">
        <ele>217.63</ele>
        <time>2017-03-26T13:38:03Z</time>
      </trkpt>
      <trkpt lat="45.21154" lon="4.79427">
        <ele>216.11</ele>
        <time>2017-03-26T13:38:04Z</time>
      </trkpt>
      <trkpt lat="45.21148" lon="4.79445">
        <ele>214.45</ele>
        <time>2017-03-26T13:38:05Z</time>
      </trkpt>
      <trkpt lat="45.21143" lon="4.79464">
        <ele>212.83</ele>
        <time>2017-03-26T13:38:06Z</time>
      </trkpt>
      <trkpt lat="45.21137" lon="4.79485">
        <ele>211.39</ele>
        <time>2017-03-26T13:38:07Z</time>
      </trkpt>
      <trkpt lat="45.21131" lon="4.79504">
        <ele>209.9</ele>
        <time>2017-03-26T13:38:08Z</time>
      </trkpt>
      <trkpt lat="45.21122" lon="4.79523">
        <ele>208.48</ele>
        <time>2017-03-26T13:38:09Z</time>
      </trkpt>
      <trkpt lat="45.21116" lon="4.79542">
        <ele>207.08</ele>
        <time>2017-03-26T13:38:10Z</time>
      </trkpt>
      <trkpt lat="45.21112" lon="4.79562">
        <ele>205.68</ele>
        <time>2017-03-26T13:38:11Z</time>
      </trkpt>
      <trkpt lat="45.21109" lon="4.79583">
        <ele>204.36</ele>
        <time>2017-03-26T13:38:12Z</time>
      </trkpt>
      <trkpt lat="45.21109" lon="4.79605">
        <ele>202.98</ele>
        <time>2017-03-26T13:38:13Z</time>
      </trkpt>
      <trkpt lat="45.21111" lon="4.7963">
        <ele>201.42</ele>
        <time>2017-03-26T13:38:14Z</time>
      </trkpt>
      <trkpt lat="45.21115" lon="4.79652">
        <ele>199.59</ele>
        <time>2017-03-26T13:38:15Z</time>
      </trkpt>
      <trkpt lat="45.2112" lon="4.79673">
        <ele>197.86</ele>
        <time>2017-03-26T13:38:16Z</time>
      </trkpt>
      <trkpt lat="45.21124" lon="4.79694">
        <ele>196.08</ele>
        <time>2017-03-26T13:38:17Z</time>
      </trkpt>
      <trkpt lat="45.2113" lon="4.7971">
        <ele>193.64</ele>
        <time>2017-03-26T13:38:18Z</time>
      </trkpt>
      <trkpt lat="45.21134" lon="4.79729">
        <ele>191.47</ele>
        <time>2017-03-26T13:38:19Z</time>
      </trkpt>
      <trkpt lat="45.21137" lon="4.79746">
        <ele>189.6</ele>
        <time>2017-03-26T13:38:20Z</time>
      </trkpt>
      <trkpt lat="45.21138" lon="4.79763">
        <ele>187.86</ele>
        <time>2017-03-26T13:38:21Z</time>
      </trkpt>
      <trkpt lat="45.21137" lon="4.79781">
        <ele>186.16</ele>
        <time>2017-03-26T13:38:22Z</time>
      </trkpt>
      <trkpt lat="45.21134" lon="4.79797">
        <ele>184.46</ele>
        <time>2017-03-26T13:38:23Z</time>
      </trkpt>
      <trkpt lat="45.21132" lon="4.79813">
        <ele>182.44</ele>
        <time>2017-03-26T13:38:24Z</time>
      </trkpt>
      <trkpt lat="45.2113" lon="4.79826">
        <ele>180.11</ele>
        <time>2017-03-26T13:38:25Z</time>
      </trkpt>
      <trkpt lat="45.21128" lon="4.7984">
        <ele>178.13</ele>
        <time>2017-03-26T13:38:26Z</time>
      </trkpt>
      <trkpt lat="45.21125" lon="4.79855">
        <ele>176.05</ele>
        <time>2017-03-26T13:38:27Z</time>
      </trkpt>
      <trkpt lat="45.21122" lon="4.79869">
        <ele>173.95</ele>
        <time>2017-03-26T13:38:28Z</time>
      </trkpt>
      <trkpt lat="45.21118" lon="4.79883">
        <ele>172.01</ele>
        <time>2017-03-26T13:38:29Z</time>
      </trkpt>
      <trkpt lat="45.21114" lon="4.79897">
        <ele>170.19</ele>
        <time>2017-03-26T13:38:30Z</time>
      </trkpt>
      <trkpt lat="45.21109" lon="4.7991">
        <ele>168.38</ele>
        <time>2017-03-26T13:38:31Z</time>
      </trkpt>
      <trkpt lat="45.21103" lon="4.79923">
        <ele>166.82</ele>
        <time>2017-03-26T13:38:32Z</time>
      </trkpt>
      <trkpt lat="45.21094" lon="4.79935">
        <ele>165.31</ele>
        <time>2017-03-26T13:38:33Z</time>
      </trkpt>
      <trkpt lat="45.21083" lon="4.79946">
        <ele>163.65</ele>
        <time>2017-03-26T13:38:34Z</time>
      </trkpt>
      <trkpt lat="45.21068" lon="4.79957">
        <ele>161.71</ele>
        <time>2017-03-26T13:38:35Z</time>
      </trkpt>
      <trkpt lat="45.21053" lon="4.79967">
        <ele>159.73</ele>
        <time>2017-03-26T13:38:36Z</time>
      </trkpt>
      <trkpt lat="45.21038" lon="4.79976">
        <ele>157.49</ele>
        <time>2017-03-26T13:38:37Z</time>
      </trkpt>
      <trkpt lat="45.21025" lon="4.79986">
        <ele>155.52</ele>
        <time>2017-03-26T13:38:38Z</time>
      </trkpt>
      <trkpt lat="45.21013" lon="4.79997">
        <ele>153.61</ele>
        <time>2017-03-26T13:38:39Z</time>
      </trkpt>
      <trkpt lat="45.21001" lon="4.80008">
        <ele>151.71</ele>
        <time>2017-03-26T13:38:40Z</time>
      </trkpt>
      <trkpt lat="45.20989" lon="4.80018">
        <ele>149.97</ele>
        <time>2017-03-26T13:38:41Z</time>
      </trkpt>
      <trkpt lat="45.20977" lon="4.80027">
        <ele>148.18</ele>
        <time>2017-03-26T13:38:42Z</time>
      </trkpt>
      <trkpt lat="45.20965" lon="4.80036">
        <ele>146.62</ele>
        <time>2017-03-26T13:38:43Z</time>
      </trkpt>
      <trkpt lat="45.20954" lon="4.80044">
        <ele>144.71</ele>
        <time>2017-03-26T13:38:44Z</time>
      </trkpt>
      <trkpt lat="45.20943" lon="4.80053">
        <ele>142.57</ele>
        <time>2017-03-26T13:38:45Z</time>
      </trkpt>
      <trkpt lat="45.20932" lon="4.80063">
        <ele>140.94</ele>
        <time>2017-03-26T13:38:46Z</time>
      </trkpt>
      <trkpt lat="45.2092" lon="4.80072">
        <ele>139.25</ele>
        <time>2017-03-26T13:38:47Z</time>
      </trkpt>
      <trkpt lat="45.20909" lon="4.8008">
        <ele>137.23</ele>
        <time>2017-03-26T13:38:48Z</time>
      </trkpt>
      <trkpt lat="45.20897" lon="4.80087">
        <ele>134.83</ele>
        <time>2017-03-26T13:38:49Z</time>
      </trkpt>
      <trkpt lat="45.20886" lon="4.80093">
        <ele>133.23</ele>
        <time>2017-03-26T13:38:50Z</time>
      </trkpt>
      <trkpt lat="45.20874" lon="4.80096">
        <ele>130.99</ele>
        <time>2017-03-26T13:38:51Z</time>
      </trkpt>
      <trkpt lat="45.20862" lon="4.801">
        <ele>129.1</ele>
        <time>2017-03-26T13:38:52Z</time>
      </trkpt>
      <trkpt lat="45.2085" lon="4.80104">
        <ele>127.04</ele>
        <time>2017-03-26T13:38:53Z</time>
      </trkpt>
      <trkpt lat="45.20839" lon="4.80108">
        <ele>124.79</ele>
        <time>2017-03-26T13:38:54Z</time>
      </trkpt>
      <trkpt lat="45.20829" lon="4.8011">
        <ele>121.78</ele>
        <time>2017-03-26T13:38:55Z</time>
      </trkpt>
      <trkpt lat="45.20818" lon="4.80111">
        <ele>119.26</ele>
        <time>2017-03-26T13:38:56Z</time>
      </trkpt>
      <trkpt lat="45.20808" lon="4.8011">
        <ele>117.72</ele>
        <time>2017-03-26T13:38:57Z</time>
      </trkpt>
      <trkpt lat="45.20799" lon="4.80107">
        <ele>115.73</ele>
        <time>2017-03-26T13:38:58Z</time>
      </trkpt>
      <trkpt lat="45.2079" lon="4.80106">
        <ele>114.29</ele>
        <time>2017-03-26T13:38:59Z</time>
      </trkpt>
      <trkpt lat="45.20787" lon="4.80107">
        <ele>112.8</ele>
        <time>2017-03-26T13:39:00Z</time>
      </trkpt>
      <trkpt lat="45.20785" lon="4.8011">
        <ele>111.62</ele>
        <time>2017-03-26T13:39:01Z</time>
      </trkpt>
      <trkpt lat="45.20785" lon="4.80115">
        <ele>110.27</ele>
        <time>2017-03-26T13:39:02Z</time>
      </trkpt>
      <trkpt lat="45.20787" lon="4.80123">
        <ele>109.76</ele>
        <time>2017-03-26T13:39:03Z</time>
      </trkpt>
      <trkpt lat="45.2079" lon="4.8013">
        <ele>108.46</ele>
        <time>2017-03-26T13:39:04Z</time>
      </trkpt>
      <trkpt lat="45.20795" lon="4.80137">
        <ele>107.64</ele>
        <time>2017-03-26T13:39:05Z</time>
      </trkpt>
      <trkpt lat="45.208" lon="4.80145">
        <ele>106.35</ele>
        <time>2017-03-26T13:39:06Z</time>
      </trkpt>
      <trkpt lat="45.20806" lon="4.80152">
        <ele>104.89</ele>
        <time>2017-03-26T13:39:07Z</time>
      </trkpt>
      <trkpt lat="45.20813" lon="4.80157">
        <ele>103.64</ele>
        <time>2017-03-26T13:39:08Z</time>
      </trkpt>
      <trkpt lat="45.20824" lon="4.80157">
        <ele>102.35</ele>
        <time>2017-03-26T13:39:09Z</time>
      </trkpt>
      <trkpt lat="45.20833" lon="4.80157">
        <ele>101.13</ele>
        <time>2017-03-26T13:39:10Z</time>
      </trkpt>
      <trkpt lat="45.20842" lon="4.80155">
        <ele>99.77</ele>
        <time>2017-03-26T13:39:11Z</time>
      </trkpt>
      <trkpt lat="45.20852" lon="4.80151">
        <ele>98.38</ele>
        <time>2017-03-26T13:39:12Z</time>
      </trkpt>
      <trkpt lat="45.20862" lon="4.80148">
        <ele>97.06</ele>
        <time>2017-03-26T13:39:13Z</time>
      </trkpt>
      <trkpt lat="45.20873" lon="4.80144">
        <ele>95.84</ele>
        <time>2017-03-26T13:39:14Z</time>
      </trkpt>
      <trkpt lat="45.20885" lon="4.80139">
        <ele>94.55</ele>
        <time>2017-03-26T13:39:15Z</time>
      </trkpt>
      <trkpt lat="45.20896" lon="4.80136">
        <ele>93.33</ele>
        <time>2017-03-26T13:39:16Z</time>
      </trkpt>
      <trkpt lat="45.20907" lon="4.80132">
        <ele>91.89</ele>
        <time>2017-03-26T13:39:17Z</time>
      </trkpt>
      <trkpt lat="45.20918" lon="4.80129">
        <ele>90.64</ele>
        <time>2017-03-26T13:39:18Z</time>
      </trkpt>
      <trkpt lat="45.20928" lon="4.80124">
        <ele>89.35</ele>
        <time>2017-03-26T13:39:19Z</time>
      </trkpt>
      <trkpt lat="45.20939" lon="4.80118">
        <ele>87.89</ele>
        <time>2017-03-26T13:39:20Z</time>
      </trkpt>
      <trkpt lat="45.20949" lon="4.80111">
        <ele>86.4</ele>
        <time>2017-03-26T13:39:21Z</time>
      </trkpt>
      <trkpt lat="45.20959" lon="4.80104">
        <ele>84.98</ele>
        <time>2017-03-26T13:39:22Z</time>
      </trkpt>
      <trkpt lat="45.20967" lon="4.80099">
        <ele>83.82</ele>
        <time>2017-03-26T13:39:23Z</time>
      </trkpt>
      <trkpt lat="45.20972" lon="4.80101">
        <ele>82.63</ele>
        <time>2017-03-26T13:39:24Z</time>
      </trkpt>
      <trkpt lat="45.20973" lon="4.80105">
        <ele>81.43</ele>
        <time>2017-03-26T13:39:25Z</time>
      </trkpt>
      <trkpt lat="45.20972" lon="4.80108">
        <ele>80.31</ele>
        <time>2017-03-26T13:39:26Z</time>
      </trkpt>
      <trkpt lat="45.20969" lon="4.8011">
        <ele>79.05</ele>
        <time>2017-03-26T13:39:27Z</time>
      </trkpt>
      <trkpt lat="45.20965" lon="4.80113">
        <ele>77.83</ele>
        <time>2017-03-26T13:39:28Z</time>
      </trkpt>
      <trkpt lat="45.20957" lon="4.80116">
        <ele>77.99</ele>
        <time>2017-03-26T13:39:29Z</time>
      </trkpt>
      <trkpt lat="45.20949" lon="4.8012">
        <ele>77.3</ele>
        <time>2017-03-26T13:39:30Z</time>
      </trkpt>
      <trkpt lat="45.2094" lon="4.80126">
        <ele>76.44</ele>
        <time>2017-03-26T13:39:31Z</time>
      </trkpt>
      <trkpt lat="45.20928" lon="4.80132">
        <ele>75.55</ele>
        <time>2017-03-26T13:39:32Z</time>
      </trkpt>
      <trkpt lat="45.20916" lon="4.8014">
        <ele>74.65</ele>
        <time>2017-03-26T13:39:33Z</time>
      </trkpt>
      <trkpt lat="45.20905" lon="4.80149">
        <ele>73.83</ele>
        <time>2017-03-26T13:39:34Z</time>
      </trkpt>
      <trkpt lat="45.20893" lon="4.80158">
        <ele>73.11</ele>
        <time>2017-03-26T13:39:35Z</time>
      </trkpt>
      <trkpt lat="45.20881" lon="4.80167">
        <ele>72.25</ele>
        <time>2017-03-26T13:39:36Z</time>
      </trkpt>
      <trkpt lat="45.2087" lon="4.80177">
        <ele>71.59</ele>
        <time>2017-03-26T13:39:37Z</time>
      </trkpt>
      <trkpt lat="45.20859" lon="4.80187">
        <ele>70.66</ele>
        <time>2017-03-26T13:39:38Z</time>
      </trkpt>
      <trkpt lat="45.20848" lon="4.80196">
        <ele>69.92</ele>
        <time>2017-03-26T13:39:39Z</time>
      </trkpt>
      <trkpt lat="45.20838" lon="4.80206">
        <ele>68.89</ele>
        <time>2017-03-26T13:39:40Z</time>
      </trkpt>
      <trkpt lat="45.20828" lon="4.80215">
        <ele>68.2</ele>
        <time>2017-03-26T13:39:41Z</time>
      </trkpt>
      <trkpt lat="45.20819" lon="4.80224">
        <ele>67.42</ele>
        <time>2017-03-26T13:39:42Z</time>
      </trkpt>
      <trkpt lat="45.20813" lon="4.80234">
        <ele>66.55</ele>
        <time>2017-03-26T13:39:43Z</time>
      </trkpt>
      <trkpt lat="45.2081" lon="4.80246">
        <ele>65.65</ele>
        <time>2017-03-26T13:39:44Z</time>
      </trkpt>
      <trkpt lat="45.20807" lon="4.8026">
        <ele>64.75</ele>
        <time>2017-03-26T13:39:45Z</time>
      </trkpt>
      <trkpt lat="45.20804" lon="4.80272">
        <ele>63.77</ele>
        <time>2017-03-26T13:39:46Z</time>
      </trkpt>
      <trkpt lat="45.20801" lon="4.80279">
        <ele>62.78</ele>
        <time>2017-03-26T13:39:47Z</time>
      </trkpt>
      <trkpt lat="45.20801" lon="4.80282">
        <ele>61.78</ele>
        <time>2017-03-26T13:39:48Z</time>
      </trkpt>
      <trkpt lat="45.208" lon="4.80284">
        <ele>60.22</ele>
        <time>2017-03-26T13:39:50Z</time>
      </trkpt>
      <trkpt lat="45.20806" lon="4.80279">
        <ele>59.51</ele>
        <time>2017-03-26T13:39:51Z</time>
      </trkpt>
      <trkpt lat="45.20808" lon="4.80278">
        <ele>60.41</ele>
        <time>2017-03-26T13:39:52Z</time>
      </trkpt>
      <trkpt lat="45.20809" lon="4.80277">
        <ele>61.87</ele>
        <time>2017-03-26T13:39:53Z</time>
      </trkpt>
      <trkpt lat="45.20809" lon="4.80277">
        <ele>62.16</ele>
        <time>2017-03-26T13:39:54Z</time>
      </trkpt>
      <trkpt lat="45.20806" lon="4.80277">
        <ele>62.38</ele>
        <time>2017-03-26T13:39:55Z</time>
      </trkpt>
      <trkpt lat="45.20799" lon="4.80274">
        <ele>62.82</ele>
        <time>2017-03-26T13:39:56Z</time>
      </trkpt>
      <trkpt lat="45.2079" lon="4.80271">
        <ele>63.07</ele>
        <time>2017-03-26T13:39:57Z</time>
      </trkpt>
      <trkpt lat="45.2078" lon="4.80267">
        <ele>63.12</ele>
        <time>2017-03-26T13:39:58Z</time>
      </trkpt>
      <trkpt lat="45.20769" lon="4.80264">
        <ele>63.21</ele>
        <time>2017-03-26T13:39:59Z</time>
      </trkpt>
      <trkpt lat="45.20757" lon="4.8026">
        <ele>63.15</ele>
        <time>2017-03-26T13:40:00Z</time>
      </trkpt>
      <trkpt lat="45.20745" lon="4.80257">
        <ele>63.13</ele>
        <time>2017-03-26T13:40:01Z</time>
      </trkpt>
      <trkpt lat="45.20733" lon="4.80254">
        <ele>63.13</ele>
        <time>2017-03-26T13:40:02Z</time>
      </trkpt>
      <trkpt lat="45.2072" lon="4.8025">
        <ele>63.21</ele>
        <time>2017-03-26T13:40:03Z</time>
      </trkpt>
      <trkpt lat="45.20707" lon="4.80247">
        <ele>63.55</ele>
        <time>2017-03-26T13:40:04Z</time>
      </trkpt>
      <trkpt lat="45.20693" lon="4.80244">
        <ele>65.53</ele>
        <time>2017-03-26T13:40:05Z</time>
      </trkpt>
      <trkpt lat="45.20679" lon="4.80241">
        <ele>66.97</ele>
        <time>2017-03-26T13:40:06Z</time>
      </trkpt>
      <trkpt lat="45.20665" lon="4.80237">
        <ele>67.9</ele>
        <time>2017-03-26T13:40:07Z</time>
      </trkpt>
      <trkpt lat="45.20651" lon="4.80233">
        <ele>68.56</ele>
        <time>2017-03-26T13:40:08Z</time>
      </trkpt>
      <trkpt lat="45.20636" lon="4.80228">
        <ele>68.78</ele>
        <time>2017-03-26T13:40:09Z</time>
      </trkpt>
      <trkpt lat="45.20621" lon="4.80224">
        <ele>68.5</ele>
        <time>2017-03-26T13:40:10Z</time>
      </trkpt>
      <trkpt lat="45.20605" lon="4.80219">
        <ele>68.28</ele>
        <time>2017-03-26T13:40:11Z</time>
      </trkpt>
      <trkpt lat="45.20589" lon="4.80213">
        <ele>68.24</ele>
        <time>2017-03-26T13:40:12Z</time>
      </trkpt>
      <trkpt lat="45.20572" lon="4.80209">
        <ele>68.39</ele>
        <time>2017-03-26T13:40:13Z</time>
      </trkpt>
      <trkpt lat="45.20555" lon="4.80204">
        <ele>68.74</ele>
        <time>2017-03-26T13:40:14Z</time>
      </trkpt>
      <trkpt lat="45.20538" lon="4.80201">
        <ele>68.89</ele>
        <time>2017-03-26T13:40:15Z</time>
      </trkpt>
      <trkpt lat="45.20521" lon="4.80198">
        <ele>68.6</ele>
        <time>2017-03-26T13:40:16Z</time>
      </trkpt>
      <trkpt lat="45.20503" lon="4.80196">
        <ele>68.22</ele>
        <time>2017-03-26T13:40:17Z</time>
      </trkpt>
      <trkpt lat="45.20486" lon="4.80195">
        <ele>67.83</ele>
        <time>2017-03-26T13:40:18Z</time>
      </trkpt>
      <trkpt lat="45.20469" lon="4.80194">
        <ele>67.43</ele>
        <time>2017-03-26T13:40:19Z</time>
      </trkpt>
      <trkpt lat="45.20451" lon="4.80192">
        <ele>67.27</ele>
        <time>2017-03-26T13:40:20Z</time>
      </trkpt>
      <trkpt lat="45.20434" lon="4.80191">
        <ele>67.16</ele>
        <time>2017-03-26T13:40:21Z</time>
      </trkpt>
      <trkpt lat="45.20416" lon="4.80189">
        <ele>67.14</ele>
        <time>2017-03-26T13:40:22Z</time>
      </trkpt>
      <trkpt lat="45.20398" lon="4.80188">
        <ele>67.21</ele>
        <time>2017-03-26T13:40:23Z</time>
      </trkpt>
      <trkpt lat="45.2038" lon="4.80187">
        <ele>67.47</ele>
        <time>2017-03-26T13:40:24Z</time>
      </trkpt>
      <trkpt lat="45.20362" lon="4.80186">
        <ele>67.68</ele>
        <time>2017-03-26T13:40:25Z</time>
      </trkpt>
      <trkpt lat="45.20344" lon="4.80184">
        <ele>67.8</ele>
        <time>2017-03-26T13:40:26Z</time>
      </trkpt>
      <trkpt lat="45.20327" lon="4.80181">
        <ele>67.98</ele>
        <time>2017-03-26T13:40:27Z</time>
      </trkpt>
      <trkpt lat="45.20309" lon="4.80178">
        <ele>68.26</ele>
        <time>2017-03-26T13:40:28Z</time>
      </trkpt>
      <trkpt lat="45.20291" lon="4.80176">
        <ele>68.56</ele>
        <time>2017-03-26T13:40:29Z</time>
      </trkpt>
      <trkpt lat="45.20274" lon="4.80174">
        <ele>68.7</ele>
        <time>2017-03-26T13:40:30Z</time>
      </trkpt>
      <trkpt lat="45.20257" lon="4.80172">
        <ele>68.56</ele>
        <time>2017-03-26T13:40:31Z</time>
      </trkpt>
      <trkpt lat="45.2024" lon="4.80172">
        <ele>68.3</ele>
        <time>2017-03-26T13:40:32Z</time>
      </trkpt>
      <trkpt lat="45.20224" lon="4.80171">
        <ele>67.92</ele>
        <time>2017-03-26T13:40:33Z</time>
      </trkpt>
      <trkpt lat="45.20207" lon="4.80171">
        <ele>67.53</ele>
        <time>2017-03-26T13:40:34Z</time>
      </trkpt>
      <trkpt lat="45.20192" lon="4.8017">
        <ele>67.45</ele>
        <time>2017-03-26T13:40:35Z</time>
      </trkpt>
      <trkpt lat="45.20177" lon="4.8017">
        <ele>67.35</ele>
        <time>2017-03-26T13:40:36Z</time>
      </trkpt>
      <trkpt lat="45.20162" lon="4.80169">
        <ele>67.17</ele>
        <time>2017-03-26T13:40:37Z</time>
      </trkpt>
      <trkpt lat="45.20148" lon="4.80167">
        <ele>67.14</ele>
        <time>2017-03-26T13:40:38Z</time>
      </trkpt>
      <trkpt lat="45.20134" lon="4.80166">
        <ele>67.05</ele>
        <time>2017-03-26T13:40:39Z</time>
      </trkpt>
      <trkpt lat="45.20121" lon="4.80165">
        <ele>67.27</ele>
        <time>2017-03-26T13:40:40Z</time>
      </trkpt>
      <trkpt lat="45.20108" lon="4.80164">
        <ele>67.48</ele>
        <time>2017-03-26T13:40:41Z</time>
      </trkpt>
      <trkpt lat="45.20095" lon="4.80163">
        <ele>67.84</ele>
        <time>2017-03-26T13:40:42Z</time>
      </trkpt>
      <trkpt lat="45.20081" lon="4.80161">
        <ele>68.23</ele>
        <time>2017-03-26T13:40:43Z</time>
      </trkpt>
      <trkpt lat="45.20068" lon="4.8016">
        <ele>68.55</ele>
        <time>2017-03-26T13:40:44Z</time>
      </trkpt>
      <trkpt lat="45.20055" lon="4.80159">
        <ele>68.93</ele>
        <time>2017-03-26T13:40:45Z</time>
      </trkpt>
      <trkpt lat="45.20041" lon="4.80157">
        <ele>69.25</ele>
        <time>2017-03-26T13:40:46Z</time>
      </trkpt>
      <trkpt lat="45.20028" lon="4.80156">
        <ele>69.47</ele>
        <time>2017-03-26T13:40:47Z</time>
      </trkpt>
      <trkpt lat="45.20015" lon="4.80155">
        <ele>69.44</ele>
        <time>2017-03-26T13:40:48Z</time>
      </trkpt>
      <trkpt lat="45.20003" lon="4.80154">
        <ele>69.35</ele>
        <time>2017-03-26T13:40:49Z</time>
      </trkpt>
      <trkpt lat="45.19991" lon="4.80153">
        <ele>69.01</ele>
        <time>2017-03-26T13:40:50Z</time>
      </trkpt>
      <trkpt lat="45.1998" lon="4.80151">
        <ele>68.79</ele>
        <time>2017-03-26T13:40:51Z</time>
      </trkpt>
      <trkpt lat="45.1997" lon="4.80148">
        <ele>68.66</ele>
        <time>2017-03-26T13:40:52Z</time>
      </trkpt>
      <trkpt lat="45.1996" lon="4.80146">
        <ele>68.4</ele>
        <time>2017-03-26T13:40:53Z</time>
      </trkpt>
      <trkpt lat="45.19951" lon="4.80145">
        <ele>68.1</ele>
        <time>2017-03-26T13:40:54Z</time>
      </trkpt>
      <trkpt lat="45.19941" lon="4.80145">
        <ele>67.88</ele>
        <time>2017-03-26T13:40:55Z</time>
      </trkpt>
      <trkpt lat="45.19931" lon="4.80147">
        <ele>67.68</ele>
        <time>2017-03-26T13:40:56Z</time>
      </trkpt>
      <trkpt lat="45.19922" lon="4.80147">
        <ele>67.72</ele>
        <time>2017-03-26T13:40:57Z</time>
      </trkpt>
      <trkpt lat="45.19911" lon="4.80147">
        <ele>67.65</ele>
        <time>2017-03-26T13:40:58Z</time>
      </trkpt>
      <trkpt lat="45.199" lon="4.80146">
        <ele>67.63</ele>
        <time>2017-03-26T13:40:59Z</time>
      </trkpt>
      <trkpt lat="45.19889" lon="4.80145">
        <ele>67.55</ele>
        <time>2017-03-26T13:41:00Z</time>
      </trkpt>
      <trkpt lat="45.19878" lon="4.80143">
        <ele>67.61</ele>
        <time>2017-03-26T13:41:01Z</time>
      </trkpt>
      <trkpt lat="45.19866" lon="4.80142">
        <ele>67.71</ele>
        <time>2017-03-26T13:41:02Z</time>
      </trkpt>
      <trkpt lat="45.19855" lon="4.80141">
        <ele>67.65</ele>
        <time>2017-03-26T13:41:03Z</time>
      </trkpt>
      <trkpt lat="45.19844" lon="4.8014">
        <ele>67.63</ele>
        <time>2017-03-26T13:41:04Z</time>
      </trkpt>
      <trkpt lat="45.19832" lon="4.80138">
        <ele>67.55</ele>
        <time>2017-03-26T13:41:05Z</time>
      </trkpt>
      <trkpt lat="45.19821" lon="4.80137">
        <ele>67.61</ele>
        <time>2017-03-26T13:41:06Z</time>
      </trkpt>
      <trkpt lat="45.19809" lon="4.80136">
        <ele>67.79</ele>
        <time>2017-03-26T13:41:07Z</time>
      </trkpt>
      <trkpt lat="45.19797" lon="4.80134">
        <ele>67.98</ele>
        <time>2017-03-26T13:41:08Z</time>
      </trkpt>
      <trkpt lat="45.19785" lon="4.80133">
        <ele>68.1</ele>
        <time>2017-03-26T13:41:09Z</time>
      </trkpt>
      <trkpt lat="45.19773" lon="4.80132">
        <ele>68.44</ele>
        <time>2017-03-26T13:41:10Z</time>
      </trkpt>
      <trkpt lat="45.19762" lon="4.80132">
        <ele>68.67</ele>
        <time>2017-03-26T13:41:11Z</time>
      </trkpt>
      <trkpt lat="45.1975" lon="4.8013">
        <ele>68.8</ele>
        <time>2017-03-26T13:41:12Z</time>
      </trkpt>
      <trkpt lat="45.19738" lon="4.80129">
        <ele>68.9</ele>
        <time>2017-03-26T13:41:13Z</time>
      </trkpt>
      <trkpt lat="45.19726" lon="4.80127">
        <ele>68.92</ele>
        <time>2017-03-26T13:41:14Z</time>
      </trkpt>
      <trkpt lat="45.19713" lon="4.80125">
        <ele>69.17</ele>
        <time>2017-03-26T13:41:15Z</time>
      </trkpt>
      <trkpt lat="45.19701" lon="4.80125">
        <ele>69.7</ele>
        <time>2017-03-26T13:41:16Z</time>
      </trkpt>
      <trkpt lat="45.19689" lon="4.80124">
        <ele>70.04</ele>
        <time>2017-03-26T13:41:17Z</time>
      </trkpt>
      <trkpt lat="45.19676" lon="4.80123">
        <ele>70.27</ele>
        <time>2017-03-26T13:41:18Z</time>
      </trkpt>
      <trkpt lat="45.19664" lon="4.80121">
        <ele>70.48</ele>
        <time>2017-03-26T13:41:19Z</time>
      </trkpt>
      <trkpt lat="45.19651" lon="4.8012">
        <ele>70.6</ele>
        <time>2017-03-26T13:41:20Z</time>
      </trkpt>
      <trkpt lat="45.19639" lon="4.80119">
        <ele>70.94</ele>
        <time>2017-03-26T13:41:21Z</time>
      </trkpt>
      <trkpt lat="45.19626" lon="4.80118">
        <ele>71.33</ele>
        <time>2017-03-26T13:41:22Z</time>
      </trkpt>
      <trkpt lat="45.19614" lon="4.80117">
        <ele>71.73</ele>
        <time>2017-03-26T13:41:23Z</time>
      </trkpt>
      <trkpt lat="45.19601" lon="4.80116">
        <ele>71.97</ele>
        <time>2017-03-26T13:41:24Z</time>
      </trkpt>
      <trkpt lat="45.19588" lon="4.80115">
        <ele>72.26</ele>
        <time>2017-03-26T13:41:25Z</time>
      </trkpt>
      <trkpt lat="45.19575" lon="4.80113">
        <ele>72.56</ele>
        <time>2017-03-26T13:41:26Z</time>
      </trkpt>
      <trkpt lat="45.19561" lon="4.80112">
        <ele>72.78</ele>
        <time>2017-03-26T13:41:27Z</time>
      </trkpt>
      <trkpt lat="45.19548" lon="4.80111">
        <ele>72.9</ele>
        <time>2017-03-26T13:41:28Z</time>
      </trkpt>
      <trkpt lat="45.19534" lon="4.8011">
        <ele>72.84</ele>
        <time>2017-03-26T13:41:29Z</time>
      </trkpt>
      <trkpt lat="45.19521" lon="4.80109">
        <ele>73.07</ele>
        <time>2017-03-26T13:41:30Z</time>
      </trkpt>
      <trkpt lat="45.19507" lon="4.80107">
        <ele>73.28</ele>
        <time>2017-03-26T13:41:31Z</time>
      </trkpt>
      <trkpt lat="45.19493" lon="4.80106">
        <ele>73.48</ele>
        <time>2017-03-26T13:41:32Z</time>
      </trkpt>
      <trkpt lat="45.19478" lon="4.80105">
        <ele>73.68</ele>
        <time>2017-03-26T13:41:33Z</time>
      </trkpt>
      <trkpt lat="45.19464" lon="4.80105">
        <ele>73.8</ele>
        <time>2017-03-26T13:41:34Z</time>
      </trkpt>
      <trkpt lat="45.19449" lon="4.80104">
        <ele>73.74</ele>
        <time>2017-03-26T13:41:35Z</time>
      </trkpt>
      <trkpt lat="45.19435" lon="4.80102">
        <ele>73.73</ele>
        <time>2017-03-26T13:41:36Z</time>
      </trkpt>
      <trkpt lat="45.1942" lon="4.801">
        <ele>73.65</ele>
        <time>2017-03-26T13:41:37Z</time>
      </trkpt>
      <trkpt lat="45.19405" lon="4.80098">
        <ele>73.47</ele>
        <time>2017-03-26T13:41:38Z</time>
      </trkpt>
      <trkpt lat="45.1939" lon="4.80094">
        <ele>73.36</ele>
        <time>2017-03-26T13:41:39Z</time>
      </trkpt>
      <trkpt lat="45.19375" lon="4.8009">
        <ele>73.26</ele>
        <time>2017-03-26T13:41:40Z</time>
      </trkpt>
      <trkpt lat="45.1936" lon="4.80085">
        <ele>73.16</ele>
        <time>2017-03-26T13:41:41Z</time>
      </trkpt>
      <trkpt lat="45.19346" lon="4.80078">
        <ele>72.98</ele>
        <time>2017-03-26T13:41:42Z</time>
      </trkpt>
      <trkpt lat="45.19332" lon="4.8007">
        <ele>73.18</ele>
        <time>2017-03-26T13:41:43Z</time>
      </trkpt>
      <trkpt lat="45.19318" lon="4.80061">
        <ele>73.22</ele>
        <time>2017-03-26T13:41:44Z</time>
      </trkpt>
      <trkpt lat="45.19305" lon="4.8005">
        <ele>73.15</ele>
        <time>2017-03-26T13:41:45Z</time>
      </trkpt>
      <trkpt lat="45.19294" lon="4.80038">
        <ele>73.21</ele>
        <time>2017-03-26T13:41:46Z</time>
      </trkpt>
      <trkpt lat="45.19283" lon="4.80025">
        <ele>73.39</ele>
        <time>2017-03-26T13:41:47Z</time>
      </trkpt>
      <trkpt lat="45.19273" lon="4.80011">
        <ele>73.66</ele>
        <time>2017-03-26T13:41:48Z</time>
      </trkpt>
      <trkpt lat="45.19263" lon="4.79997">
        <ele>73.88</ele>
        <time>2017-03-26T13:41:49Z</time>
      </trkpt>
      <trkpt lat="45.19253" lon="4.79984">
        <ele>74.16</ele>
        <time>2017-03-26T13:41:50Z</time>
      </trkpt>
      <trkpt lat="45.19244" lon="4.79971">
        <ele>74.38</ele>
        <time>2017-03-26T13:41:51Z</time>
      </trkpt>
      <trkpt lat="45.19235" lon="4.79959">
        <ele>74.42</ele>
        <time>2017-03-26T13:41:52Z</time>
      </trkpt>
      <trkpt lat="45.19226" lon="4.79948">
        <ele>74.59</ele>
        <time>2017-03-26T13:41:53Z</time>
      </trkpt>
      <trkpt lat="45.19219" lon="4.79937">
        <ele>74.78</ele>
        <time>2017-03-26T13:41:54Z</time>
      </trkpt>
      <trkpt lat="45.19211" lon="4.79927">
        <ele>75.06</ele>
        <time>2017-03-26T13:41:55Z</time>
      </trkpt>
      <trkpt lat="45.19203" lon="4.79917">
        <ele>75.36</ele>
        <time>2017-03-26T13:41:56Z</time>
      </trkpt>
      <trkpt lat="45.19196" lon="4.79907">
        <ele>75.58</ele>
        <time>2017-03-26T13:41:57Z</time>
      </trkpt>
      <trkpt lat="45.19188" lon="4.79898">
        <ele>75.78</ele>
        <time>2017-03-26T13:41:58Z</time>
      </trkpt>
      <trkpt lat="45.19181" lon="4.79888">
        <ele>76.14</ele>
        <time>2017-03-26T13:41:59Z</time>
      </trkpt>
      <trkpt lat="45.19173" lon="4.79878">
        <ele>76.69</ele>
        <time>2017-03-26T13:42:00Z</time>
      </trkpt>
      <trkpt lat="45.19165" lon="4.79868">
        <ele>76.96</ele>
        <time>2017-03-26T13:42:01Z</time>
      </trkpt>
      <trkpt lat="45.19157" lon="4.79857">
        <ele>76.94</ele>
        <time>2017-03-26T13:42:02Z</time>
      </trkpt>
      <trkpt lat="45.19149" lon="4.79847">
        <ele>76.69</ele>
        <time>2017-03-26T13:42:03Z</time>
      </trkpt>
      <trkpt lat="45.19141" lon="4.79838">
        <ele>76.48</ele>
        <time>2017-03-26T13:42:04Z</time>
      </trkpt>
      <trkpt lat="45.19133" lon="4.79829">
        <ele>76.28</ele>
        <time>2017-03-26T13:42:05Z</time>
      </trkpt>
      <trkpt lat="45.19123" lon="4.79823">
        <ele>75.92</ele>
        <time>2017-03-26T13:42:06Z</time>
      </trkpt>
      <trkpt lat="45.19114" lon="4.79819">
        <ele>75.45</ele>
        <time>2017-03-26T13:42:07Z</time>
      </trkpt>
      <trkpt lat="45.19103" lon="4.79818">
        <ele>74.79</ele>
        <time>2017-03-26T13:42:08Z</time>
      </trkpt>
      <trkpt lat="45.19092" lon="4.79818">
        <ele>74.26</ele>
        <time>2017-03-26T13:42:09Z</time>
      </trkpt>
      <trkpt lat="45.19081" lon="4.7982">
        <ele>73.92</ele>
        <time>2017-03-26T13:42:10Z</time>
      </trkpt>
      <trkpt lat="45.1907" lon="4.79822">
        <ele>73.69</ele>
        <time>2017-03-26T13:42:11Z</time>
      </trkpt>
      <trkpt lat="45.19059" lon="4.79825">
        <ele>73.56</ele>
        <time>2017-03-26T13:42:12Z</time>
      </trkpt>
      <trkpt lat="45.19047" lon="4.79827">
        <ele>73.3</ele>
        <time>2017-03-26T13:42:13Z</time>
      </trkpt>
      <trkpt lat="45.19036" lon="4.79829">
        <ele>73.08</ele>
        <time>2017-03-26T13:42:14Z</time>
      </trkpt>
      <trkpt lat="45.19025" lon="4.79831">
        <ele>72.96</ele>
        <time>2017-03-26T13:42:15Z</time>
      </trkpt>
      <trkpt lat="45.19014" lon="4.79833">
        <ele>72.78</ele>
        <time>2017-03-26T13:42:16Z</time>
      </trkpt>
      <trkpt lat="45.19003" lon="4.79835">
        <ele>72.58</ele>
        <time>2017-03-26T13:42:17Z</time>
      </trkpt>
      <trkpt lat="45.18991" lon="4.79838">
        <ele>72.86</ele>
        <time>2017-03-26T13:42:18Z</time>
      </trkpt>
      <trkpt lat="45.1898" lon="4.7984">
        <ele>73</ele>
        <time>2017-03-26T13:42:19Z</time>
      </trkpt>
      <trkpt lat="45.18969" lon="4.79843">
        <ele>73.02</ele>
        <time>2017-03-26T13:42:20Z</time>
      </trkpt>
      <trkpt lat="45.18957" lon="4.79845">
        <ele>72.87</ele>
        <time>2017-03-26T13:42:21Z</time>
      </trkpt>
      <trkpt lat="45.18946" lon="4.79848">
        <ele>72.84</ele>
        <time>2017-03-26T13:42:22Z</time>
      </trkpt>
      <trkpt lat="45.18935" lon="4.7985">
        <ele>72.75</ele>
        <time>2017-03-26T13:42:23Z</time>
      </trkpt>
      <trkpt lat="45.18925" lon="4.79852">
        <ele>72.97</ele>
        <time>2017-03-26T13:42:24Z</time>
      </trkpt>
      <trkpt lat="45.18914" lon="4.79854">
        <ele>73.18</ele>
        <time>2017-03-26T13:42:25Z</time>
      </trkpt>
      <trkpt lat="45.18904" lon="4.79856">
        <ele>73.38</ele>
        <time>2017-03-26T13:42:26Z</time>
      </trkpt>
      <trkpt lat="45.18894" lon="4.79858">
        <ele>73.58</ele>
        <time>2017-03-26T13:42:27Z</time>
      </trkpt>
      <trkpt lat="45.18884" lon="4.7986">
        <ele>73.78</ele>
        <time>2017-03-26T13:42:28Z</time>
      </trkpt>
      <trkpt lat="45.18873" lon="4.79862">
        <ele>73.74</ele>
        <time>2017-03-26T13:42:29Z</time>
      </trkpt>
      <trkpt lat="45.18863" lon="4.79864">
        <ele>73.65</ele>
        <time>2017-03-26T13:42:30Z</time>
      </trkpt>
      <trkpt lat="45.18854" lon="4.79866">
        <ele>73.55</ele>
        <time>2017-03-26T13:42:31Z</time>
      </trkpt>
      <trkpt lat="45.18844" lon="4.79868">
        <ele>73.29</ele>
        <time>2017-03-26T13:42:32Z</time>
      </trkpt>
      <trkpt lat="45.18834" lon="4.7987">
        <ele>73</ele>
        <time>2017-03-26T13:42:33Z</time>
      </trkpt>
      <trkpt lat="45.18825" lon="4.79872">
        <ele>72.54</ele>
        <time>2017-03-26T13:42:34Z</time>
      </trkpt>
      <trkpt lat="45.18815" lon="4.79874">
        <ele>72.37</ele>
        <time>2017-03-26T13:42:35Z</time>
      </trkpt>
      <trkpt lat="45.18806" lon="4.79876">
        <ele>72.42</ele>
        <time>2017-03-26T13:42:36Z</time>
      </trkpt>
      <trkpt lat="45.18797" lon="4.79877">
        <ele>72.67</ele>
        <time>2017-03-26T13:42:37Z</time>
      </trkpt>
      <trkpt lat="45.1879" lon="4.79879">
        <ele>72.88</ele>
        <time>2017-03-26T13:42:38Z</time>
      </trkpt>
      <trkpt lat="45.18784" lon="4.7988">
        <ele>73.08</ele>
        <time>2017-03-26T13:42:39Z</time>
      </trkpt>
      <trkpt lat="45.18779" lon="4.79881">
        <ele>73.2</ele>
        <time>2017-03-26T13:42:40Z</time>
      </trkpt>
      <trkpt lat="45.18777" lon="4.79882">
        <ele>73.3</ele>
        <time>2017-03-26T13:42:41Z</time>
      </trkpt>
      <trkpt lat="45.18775" lon="4.79882">
        <ele>73.32</ele>
        <time>2017-03-26T13:42:42Z</time>
      </trkpt>
      <trkpt lat="45.18774" lon="4.79882">
        <ele>73.17</ele>
        <time>2017-03-26T13:42:43Z</time>
      </trkpt>
      <trkpt lat="45.18773" lon="4.79883">
        <ele>73.06</ele>
        <time>2017-03-26T13:42:44Z</time>
      </trkpt>
      <trkpt lat="45.18774" lon="4.79883">
        <ele>72.8</ele>
        <time>2017-03-26T13:42:45Z</time>
      </trkpt>
      <trkpt lat="45.18774" lon="4.79883">
        <ele>72.58</ele>
        <time>2017-03-26T13:42:46Z</time>
      </trkpt>
      <trkpt lat="45.18774" lon="4.79883">
        <ele>72.54</ele>
        <time>2017-03-26T13:42:47Z</time>
      </trkpt>
      <trkpt lat="45.18774" lon="4.79883">
        <ele>72.53</ele>
        <time>2017-03-26T13:42:48Z</time>
      </trkpt>
      <trkpt lat="45.18772" lon="4.79883">
        <ele>72.45</ele>
        <time>2017-03-26T13:42:49Z</time>
      </trkpt>
      <trkpt lat="45.18768" lon="4.79884">
        <ele>72.75</ele>
        <time>2017-03-26T13:42:50Z</time>
      </trkpt>
      <trkpt lat="45.18763" lon="4.79885">
        <ele>73.05</ele>
        <time>2017-03-26T13:42:51Z</time>
      </trkpt>
      <trkpt lat="45.18756" lon="4.79887">
        <ele>73.19</ele>
        <time>2017-03-26T13:42:52Z</time>
      </trkpt>
      <trkpt lat="45.1875" lon="4.79888">
        <ele>73.22</ele>
        <time>2017-03-26T13:42:53Z</time>
      </trkpt>
      <trkpt lat="45.18743" lon="4.79889">
        <ele>73.31</ele>
        <time>2017-03-26T13:42:54Z</time>
      </trkpt>
      <trkpt lat="45.18735" lon="4.79891">
        <ele>73.17</ele>
        <time>2017-03-26T13:42:55Z</time>
      </trkpt>
      <trkpt lat="45.18728" lon="4.79892">
        <ele>73.22</ele>
        <time>2017-03-26T13:42:56Z</time>
      </trkpt>
      <trkpt lat="45.18721" lon="4.79894">
        <ele>73.15</ele>
        <time>2017-03-26T13:42:57Z</time>
      </trkpt>
      <trkpt lat="45.18715" lon="4.79895">
        <ele>73.29</ele>
        <time>2017-03-26T13:42:58Z</time>
      </trkpt>
      <trkpt lat="45.18708" lon="4.79897">
        <ele>73.64</ele>
        <time>2017-03-26T13:42:59Z</time>
      </trkpt>
      <trkpt lat="45.18702" lon="4.79898">
        <ele>73.87</ele>
        <time>2017-03-26T13:43:00Z</time>
      </trkpt>
      <trkpt lat="45.18697" lon="4.79899">
        <ele>74.24</ele>
        <time>2017-03-26T13:43:01Z</time>
      </trkpt>
      <trkpt lat="45.18693" lon="4.799">
        <ele>74.47</ele>
        <time>2017-03-26T13:43:02Z</time>
      </trkpt>
      <trkpt lat="45.1869" lon="4.799">
        <ele>74.6</ele>
        <time>2017-03-26T13:43:03Z</time>
      </trkpt>
      <trkpt lat="45.18688" lon="4.79901">
        <ele>74.78</ele>
        <time>2017-03-26T13:43:04Z</time>
      </trkpt>
      <trkpt lat="45.18688" lon="4.79901">
        <ele>74.98</ele>
        <time>2017-03-26T13:43:05Z</time>
      </trkpt>
      <trkpt lat="45.18688" lon="4.79901">
        <ele>75.18</ele>
        <time>2017-03-26T13:43:06Z</time>
      </trkpt>
      <trkpt lat="45.18687" lon="4.79901">
        <ele>75.22</ele>
        <time>2017-03-26T13:43:07Z</time>
      </trkpt>
      <trkpt lat="45.18687" lon="4.79901">
        <ele>75.23</ele>
        <time>2017-03-26T13:43:08Z</time>
      </trkpt>
      <trkpt lat="45.18687" lon="4.79901">
        <ele>75.23</ele>
        <time>2017-03-26T13:43:09Z</time>
      </trkpt>
      <trkpt lat="45.18687" lon="4.79901">
        <ele>75.23</ele>
        <time>2017-03-26T13:43:10Z</time>
      </trkpt>
      <trkpt lat="45.18687" lon="4.79901">
        <ele>75.23</ele>
        <time>2017-03-26T13:43:11Z</time>
      </trkpt>
      <trkpt lat="45.18687" lon="4.79901">
        <ele>75.23</ele>
        <time>2017-03-26T13:43:12Z</time>
      </trkpt>
      <trkpt lat="45.18687" lon="4.79901">
        <ele>75.23</ele>
        <time>2017-03-26T13:43:13Z</time>
      </trkpt>
      <trkpt lat="45.18687" lon="4.79901">
        <ele>75.23</ele>
        <time>2017-03-26T13:43:14Z</time>
      </trkpt>
      <trkpt lat="45.18687" lon="4.79901">
        <ele>75.23</ele>
        <time>2017-03-26T13:43:15Z</time>
      </trkpt>
      <trkpt lat="45.18687" lon="4.79901">
        <ele>75.23</ele>
        <time>2017-03-26T13:43:16Z</time>
      </trkpt>
      <trkpt lat="45.18687" lon="4.79901">
        <ele>75.23</ele>
        <time>2017-03-26T13:43:17Z</time>
      </trkpt>
      <trkpt lat="45.18687" lon="4.79901">
        <ele>75.23</ele>
        <time>2017-03-26T13:43:18Z</time>
      </trkpt>
      <trkpt lat="45.18687" lon="4.79901">
        <ele>75.23</ele>
        <time>2017-03-26T13:43:19Z</time>
      </trkpt>
      <trkpt lat="45.18687" lon="4.79901">
        <ele>75.23</ele>
        <time>2017-03-26T13:43:20Z</time>
      </trkpt>
      <trkpt lat="45.18687" lon="4.79901">
        <ele>75.23</ele>
        <time>2017-03-26T13:43:21Z</time>
      </trkpt>
      <trkpt lat="45.18687" lon="4.79901">
        <ele>75.23</ele>
        <time>2017-03-26T13:43:22Z</time>
      </trkpt>
      <trkpt lat="45.18687" lon="4.79901">
        <ele>75.23</ele>
        <time>2017-03-26T13:43:23Z</time>
      </trkpt>
      <trkpt lat="45.1868" lon="4.79904">
        <ele>75.79</ele>
        <time>2017-03-26T13:43:24Z</time>
      </trkpt>
      <trkpt lat="45.18676" lon="4.79906">
        <ele>75.82</ele>
        <time>2017-03-26T13:43:25Z</time>
      </trkpt>
      <trkpt lat="45.18675" lon="4.79911">
        <ele>75.75</ele>
        <time>2017-03-26T13:43:26Z</time>
      </trkpt>
      <trkpt lat="45.18674" lon="4.79917">
        <ele>75.65</ele>
        <time>2017-03-26T13:43:27Z</time>
      </trkpt>
      <trkpt lat="45.18674" lon="4.79925">
        <ele>75.63</ele>
        <time>2017-03-26T13:43:28Z</time>
      </trkpt>
      <trkpt lat="45.18675" lon="4.79934">
        <ele>75.55</ele>
        <time>2017-03-26T13:43:29Z</time>
      </trkpt>
      <trkpt lat="45.18675" lon="4.79946">
        <ele>75.45</ele>
        <time>2017-03-26T13:43:30Z</time>
      </trkpt>
      <trkpt lat="45.18674" lon="4.79958">
        <ele>75.35</ele>
        <time>2017-03-26T13:43:31Z</time>
      </trkpt>
      <trkpt lat="45.18674" lon="4.7997">
        <ele>75.25</ele>
        <time>2017-03-26T13:43:32Z</time>
      </trkpt>
      <trkpt lat="45.18674" lon="4.79981">
        <ele>75.07</ele>
        <time>2017-03-26T13:43:33Z</time>
      </trkpt>
      <trkpt lat="45.18676" lon="4.79989">
        <ele>75.28</ele>
        <time>2017-03-26T13:43:34Z</time>
      </trkpt>
      <trkpt lat="45.18676" lon="4.79999">
        <ele>75.4</ele>
        <time>2017-03-26T13:43:35Z</time>
      </trkpt>
      <trkpt lat="45.18676" lon="4.80009">
        <ele>75.5</ele>
        <time>2017-03-26T13:43:36Z</time>
      </trkpt>
      <trkpt lat="45.18676" lon="4.80018">
        <ele>75.52</ele>
        <time>2017-03-26T13:43:37Z</time>
      </trkpt>
      <trkpt lat="45.18675" lon="4.80028">
        <ele>75.53</ele>
        <time>2017-03-26T13:43:38Z</time>
      </trkpt>
      <trkpt lat="45.18675" lon="4.80038">
        <ele>75.29</ele>
        <time>2017-03-26T13:43:39Z</time>
      </trkpt>
      <trkpt lat="45.18675" lon="4.80049">
        <ele>75.16</ele>
        <time>2017-03-26T13:43:40Z</time>
      </trkpt>
      <trkpt lat="45.18674" lon="4.80062">
        <ele>74.9</ele>
        <time>2017-03-26T13:43:41Z</time>
      </trkpt>
      <trkpt lat="45.18674" lon="4.80074">
        <ele>74.68</ele>
        <time>2017-03-26T13:43:42Z</time>
      </trkpt>
      <trkpt lat="45.18674" lon="4.80087">
        <ele>74.56</ele>
        <time>2017-03-26T13:43:43Z</time>
      </trkpt>
      <trkpt lat="45.18673" lon="4.80098">
        <ele>74.54</ele>
        <time>2017-03-26T13:43:44Z</time>
      </trkpt>
      <trkpt lat="45.18671" lon="4.8011">
        <ele>74.53</ele>
        <time>2017-03-26T13:43:45Z</time>
      </trkpt>
      <trkpt lat="45.18667" lon="4.80121">
        <ele>74.61</ele>
        <time>2017-03-26T13:43:46Z</time>
      </trkpt>
      <trkpt lat="45.18662" lon="4.80134">
        <ele>74.71</ele>
        <time>2017-03-26T13:43:47Z</time>
      </trkpt>
      <trkpt lat="45.18656" lon="4.80146">
        <ele>74.73</ele>
        <time>2017-03-26T13:43:48Z</time>
      </trkpt>
      <trkpt lat="45.18651" lon="4.80158">
        <ele>74.65</ele>
        <time>2017-03-26T13:43:49Z</time>
      </trkpt>
      <trkpt lat="45.18645" lon="4.80171">
        <ele>74.71</ele>
        <time>2017-03-26T13:43:50Z</time>
      </trkpt>
      <trkpt lat="45.18639" lon="4.80185">
        <ele>74.81</ele>
        <time>2017-03-26T13:43:51Z</time>
      </trkpt>
      <trkpt lat="45.18634" lon="4.80197">
        <ele>75.07</ele>
        <time>2017-03-26T13:43:52Z</time>
      </trkpt>
      <trkpt lat="45.18628" lon="4.80209">
        <ele>75.2</ele>
        <time>2017-03-26T13:43:53Z</time>
      </trkpt>
      <trkpt lat="45.18623" lon="4.80221">
        <ele>75.22</ele>
        <time>2017-03-26T13:43:54Z</time>
      </trkpt>
      <trkpt lat="45.18617" lon="4.80235">
        <ele>75.31</ele>
        <time>2017-03-26T13:43:55Z</time>
      </trkpt>
      <trkpt lat="45.18612" lon="4.80248">
        <ele>75.33</ele>
        <time>2017-03-26T13:43:56Z</time>
      </trkpt>
      <trkpt lat="45.18606" lon="4.80263">
        <ele>75.41</ele>
        <time>2017-03-26T13:43:57Z</time>
      </trkpt>
      <trkpt lat="45.18599" lon="4.80278">
        <ele>75.35</ele>
        <time>2017-03-26T13:43:58Z</time>
      </trkpt>
      <trkpt lat="45.18593" lon="4.80294">
        <ele>75.33</ele>
        <time>2017-03-26T13:43:59Z</time>
      </trkpt>
      <trkpt lat="45.18586" lon="4.8031">
        <ele>75.41</ele>
        <time>2017-03-26T13:44:00Z</time>
      </trkpt>
      <trkpt lat="45.1858" lon="4.80326">
        <ele>75.35</ele>
        <time>2017-03-26T13:44:01Z</time>
      </trkpt>
      <trkpt lat="45.18572" lon="4.80342">
        <ele>75.25</ele>
        <time>2017-03-26T13:44:02Z</time>
      </trkpt>
      <trkpt lat="45.18565" lon="4.80359">
        <ele>75.07</ele>
        <time>2017-03-26T13:44:03Z</time>
      </trkpt>
      <trkpt lat="45.18558" lon="4.80377">
        <ele>74.88</ele>
        <time>2017-03-26T13:44:04Z</time>
      </trkpt>
      <trkpt lat="45.1855" lon="4.80395">
        <ele>74.6</ele>
        <time>2017-03-26T13:44:05Z</time>
      </trkpt>
      <trkpt lat="45.18543" lon="4.80413">
        <ele>74.54</ele>
        <time>2017-03-26T13:44:06Z</time>
      </trkpt>
      <trkpt lat="45.18535" lon="4.80431">
        <ele>74.37</ele>
        <time>2017-03-26T13:44:07Z</time>
      </trkpt>
      <trkpt lat="45.18527" lon="4.80449">
        <ele>74.1</ele>
        <time>2017-03-26T13:44:08Z</time>
      </trkpt>
      <trkpt lat="45.1852" lon="4.80468">
        <ele>73.72</ele>
        <time>2017-03-26T13:44:09Z</time>
      </trkpt>
      <trkpt lat="45.18512" lon="4.80486">
        <ele>73.49</ele>
        <time>2017-03-26T13:44:10Z</time>
      </trkpt>
      <trkpt lat="45.18505" lon="4.80505">
        <ele>73.28</ele>
        <time>2017-03-26T13:44:11Z</time>
      </trkpt>
      <trkpt lat="45.18497" lon="4.80524">
        <ele>73.08</ele>
        <time>2017-03-26T13:44:12Z</time>
      </trkpt>
      <trkpt lat="45.18489" lon="4.80543">
        <ele>72.96</ele>
        <time>2017-03-26T13:44:13Z</time>
      </trkpt>
      <trkpt lat="45.18482" lon="4.80562">
        <ele>72.86</ele>
        <time>2017-03-26T13:44:14Z</time>
      </trkpt>
      <trkpt lat="45.18474" lon="4.80582">
        <ele>72.92</ele>
        <time>2017-03-26T13:44:15Z</time>
      </trkpt>
      <trkpt lat="45.18466" lon="4.80601">
        <ele>72.93</ele>
        <time>2017-03-26T13:44:16Z</time>
      </trkpt>
      <trkpt lat="45.18458" lon="4.8062">
        <ele>72.77</ele>
        <time>2017-03-26T13:44:17Z</time>
      </trkpt>
      <trkpt lat="45.1845" lon="4.80639">
        <ele>72.58</ele>
        <time>2017-03-26T13:44:18Z</time>
      </trkpt>
      <trkpt lat="45.18443" lon="4.80657">
        <ele>72.3</ele>
        <time>2017-03-26T13:44:19Z</time>
      </trkpt>
      <trkpt lat="45.18436" lon="4.80675">
        <ele>72.24</ele>
        <time>2017-03-26T13:44:20Z</time>
      </trkpt>
      <trkpt lat="45.18429" lon="4.80691">
        <ele>72.47</ele>
        <time>2017-03-26T13:44:21Z</time>
      </trkpt>
      <trkpt lat="45.18422" lon="4.80707">
        <ele>72.52</ele>
        <time>2017-03-26T13:44:22Z</time>
      </trkpt>
      <trkpt lat="45.18416" lon="4.80722">
        <ele>72.61</ele>
        <time>2017-03-26T13:44:23Z</time>
      </trkpt>
      <trkpt lat="45.1841" lon="4.80734">
        <ele>72.95</ele>
        <time>2017-03-26T13:44:24Z</time>
      </trkpt>
      <trkpt lat="45.18404" lon="4.80745">
        <ele>72.69</ele>
        <time>2017-03-26T13:44:25Z</time>
      </trkpt>
      <trkpt lat="45.18397" lon="4.80754">
        <ele>72.64</ele>
        <time>2017-03-26T13:44:26Z</time>
      </trkpt>
      <trkpt lat="45.18391" lon="4.80762">
        <ele>72.39</ele>
        <time>2017-03-26T13:44:27Z</time>
      </trkpt>
      <trkpt lat="45.18387" lon="4.80772">
        <ele>72.18</ele>
        <time>2017-03-26T13:44:28Z</time>
      </trkpt>
      <trkpt lat="45.18385" lon="4.80785">
        <ele>72.14</ele>
        <time>2017-03-26T13:44:29Z</time>
      </trkpt>
      <trkpt lat="45.18383" lon="4.80798">
        <ele>72.69</ele>
        <time>2017-03-26T13:44:30Z</time>
      </trkpt>
      <trkpt lat="45.18381" lon="4.80812">
        <ele>72.8</ele>
        <time>2017-03-26T13:44:31Z</time>
      </trkpt>
      <trkpt lat="45.18378" lon="4.80826">
        <ele>72.82</ele>
        <time>2017-03-26T13:44:32Z</time>
      </trkpt>
      <trkpt lat="45.18374" lon="4.8084">
        <ele>72.83</ele>
        <time>2017-03-26T13:44:33Z</time>
      </trkpt>
      <trkpt lat="45.1837" lon="4.80856">
        <ele>72.75</ele>
        <time>2017-03-26T13:44:34Z</time>
      </trkpt>
      <trkpt lat="45.18368" lon="4.80873">
        <ele>72.97</ele>
        <time>2017-03-26T13:44:35Z</time>
      </trkpt>
      <trkpt lat="45.18366" lon="4.80891">
        <ele>73.34</ele>
        <time>2017-03-26T13:44:36Z</time>
      </trkpt>
      <trkpt lat="45.18364" lon="4.80911">
        <ele>73.97</ele>
        <time>2017-03-26T13:44:37Z</time>
      </trkpt>
      <trkpt lat="45.18364" lon="4.80931">
        <ele>74.74</ele>
        <time>2017-03-26T13:44:38Z</time>
      </trkpt>
      <trkpt lat="45.18364" lon="4.80952">
        <ele>75.45</ele>
        <time>2017-03-26T13:44:39Z</time>
      </trkpt>
      <trkpt lat="45.18365" lon="4.80973">
        <ele>76.23</ele>
        <time>2017-03-26T13:44:40Z</time>
      </trkpt>
      <trkpt lat="45.18366" lon="4.80994">
        <ele>76.95</ele>
        <time>2017-03-26T13:44:41Z</time>
      </trkpt>
      <trkpt lat="45.18369" lon="4.81016">
        <ele>77.65</ele>
        <time>2017-03-26T13:44:42Z</time>
      </trkpt>
      <trkpt lat="45.18372" lon="4.81036">
        <ele>78.19</ele>
        <time>2017-03-26T13:44:43Z</time>
      </trkpt>
      <trkpt lat="45.18376" lon="4.81056">
        <ele>78.54</ele>
        <time>2017-03-26T13:44:44Z</time>
      </trkpt>
      <trkpt lat="45.1838" lon="4.81075">
        <ele>79.09</ele>
        <time>2017-03-26T13:44:45Z</time>
      </trkpt>
      <trkpt lat="45.18383" lon="4.81094">
        <ele>79.76</ele>
        <time>2017-03-26T13:44:46Z</time>
      </trkpt>
      <trkpt lat="45.18387" lon="4.81112">
        <ele>80.22</ele>
        <time>2017-03-26T13:44:47Z</time>
      </trkpt>
      <trkpt lat="45.1839" lon="4.8113">
        <ele>80.71</ele>
        <time>2017-03-26T13:44:48Z</time>
      </trkpt>
      <trkpt lat="45.18393" lon="4.81147">
        <ele>81.21</ele>
        <time>2017-03-26T13:44:49Z</time>
      </trkpt>
      <trkpt lat="45.18396" lon="4.81164">
        <ele>81.63</ele>
        <time>2017-03-26T13:44:50Z</time>
      </trkpt>
      <trkpt lat="45.18399" lon="4.8118">
        <ele>82.03</ele>
        <time>2017-03-26T13:44:51Z</time>
      </trkpt>
      <trkpt lat="45.18402" lon="4.81196">
        <ele>82.19</ele>
        <time>2017-03-26T13:44:52Z</time>
      </trkpt>
      <trkpt lat="45.18405" lon="4.81211">
        <ele>82.3</ele>
        <time>2017-03-26T13:44:53Z</time>
      </trkpt>
      <trkpt lat="45.18407" lon="4.81225">
        <ele>82.4</ele>
        <time>2017-03-26T13:44:54Z</time>
      </trkpt>
      <trkpt lat="45.1841" lon="4.81238">
        <ele>82.42</ele>
        <time>2017-03-26T13:44:55Z</time>
      </trkpt>
      <trkpt lat="45.18412" lon="4.81251">
        <ele>82.51</ele>
        <time>2017-03-26T13:44:56Z</time>
      </trkpt>
      <trkpt lat="45.18415" lon="4.81264">
        <ele>82.21</ele>
        <time>2017-03-26T13:44:57Z</time>
      </trkpt>
      <trkpt lat="45.18418" lon="4.81277">
        <ele>81.83</ele>
        <time>2017-03-26T13:44:58Z</time>
      </trkpt>
      <trkpt lat="45.1842" lon="4.81291">
        <ele>81.51</ele>
        <time>2017-03-26T13:44:59Z</time>
      </trkpt>
      <trkpt lat="45.18423" lon="4.81305">
        <ele>81.21</ele>
        <time>2017-03-26T13:45:00Z</time>
      </trkpt>
      <trkpt lat="45.18426" lon="4.81318">
        <ele>80.91</ele>
        <time>2017-03-26T13:45:01Z</time>
      </trkpt>
      <trkpt lat="45.18428" lon="4.81331">
        <ele>80.53</ele>
        <time>2017-03-26T13:45:02Z</time>
      </trkpt>
      <trkpt lat="45.1843" lon="4.81342">
        <ele>80.29</ele>
        <time>2017-03-26T13:45:03Z</time>
      </trkpt>
      <trkpt lat="45.18431" lon="4.81352">
        <ele>80.08</ele>
        <time>2017-03-26T13:45:04Z</time>
      </trkpt>
      <trkpt lat="45.18431" lon="4.81359">
        <ele>79.88</ele>
        <time>2017-03-26T13:45:05Z</time>
      </trkpt>
      <trkpt lat="45.18429" lon="4.81366">
        <ele>79.76</ele>
        <time>2017-03-26T13:45:06Z</time>
      </trkpt>
      <trkpt lat="45.18427" lon="4.81372">
        <ele>79.66</ele>
        <time>2017-03-26T13:45:07Z</time>
      </trkpt>
      <trkpt lat="45.18424" lon="4.81377">
        <ele>79.56</ele>
        <time>2017-03-26T13:45:08Z</time>
      </trkpt>
      <trkpt lat="45.18422" lon="4.81383">
        <ele>79.46</ele>
        <time>2017-03-26T13:45:09Z</time>
      </trkpt>
      <trkpt lat="45.18421" lon="4.81388">
        <ele>79.36</ele>
        <time>2017-03-26T13:45:10Z</time>
      </trkpt>
      <trkpt lat="45.18421" lon="4.81394">
        <ele>79.1</ele>
        <time>2017-03-26T13:45:11Z</time>
      </trkpt>
      <trkpt lat="45.18423" lon="4.81399">
        <ele>78.8</ele>
        <time>2017-03-26T13:45:12Z</time>
      </trkpt>
      <trkpt lat="45.18426" lon="4.81402">
        <ele>78.34</ele>
        <time>2017-03-26T13:45:13Z</time>
      </trkpt>
      <trkpt lat="45.1843" lon="4.81405">
        <ele>77.93</ele>
        <time>2017-03-26T13:45:14Z</time>
      </trkpt>
      <trkpt lat="45.18433" lon="4.81407">
        <ele>77.77</ele>
        <time>2017-03-26T13:45:15Z</time>
      </trkpt>
      <trkpt lat="45.18436" lon="4.81408">
        <ele>77.5</ele>
        <time>2017-03-26T13:45:16Z</time>
      </trkpt>
      <trkpt lat="45.18437" lon="4.81408">
        <ele>77.36</ele>
        <time>2017-03-26T13:45:17Z</time>
      </trkpt>
      <trkpt lat="45.18438" lon="4.81408">
        <ele>77.26</ele>
        <time>2017-03-26T13:45:18Z</time>
      </trkpt>
      <trkpt lat="45.18437" lon="4.81408">
        <ele>77.4</ele>
        <time>2017-03-26T13:45:19Z</time>
      </trkpt>
      <trkpt lat="45.18437" lon="4.81408">
        <ele>77.42</ele>
        <time>2017-03-26T13:45:20Z</time>
      </trkpt>
      <trkpt lat="45.18437" lon="4.81408">
        <ele>77.43</ele>
        <time>2017-03-26T13:45:21Z</time>
      </trkpt>
      <trkpt lat="45.18437" lon="4.81408">
        <ele>77.43</ele>
        <time>2017-03-26T13:45:22Z</time>
      </trkpt>
      <trkpt lat="45.18437" lon="4.81408">
        <ele>77.43</ele>
        <time>2017-03-26T13:45:23Z</time>
      </trkpt>
      <trkpt lat="45.18437" lon="4.81408">
        <ele>77.43</ele>
        <time>2017-03-26T13:45:24Z</time>
      </trkpt>
      <trkpt lat="45.18437" lon="4.81408">
        <ele>77.43</ele>
        <time>2017-03-26T13:45:25Z</time>
      </trkpt>
      <trkpt lat="45.18437" lon="4.81408">
        <ele>77.43</ele>
        <time>2017-03-26T13:45:26Z</time>
      </trkpt>
      <trkpt lat="45.18437" lon="4.81408">
        <ele>77.43</ele>
        <time>2017-03-26T13:45:27Z</time>
      </trkpt>
      <trkpt lat="45.18437" lon="4.81408">
        <ele>77.43</ele>
        <time>2017-03-26T13:45:28Z</time>
      </trkpt>
      <trkpt lat="45.18437" lon="4.81408">
        <ele>77.43</ele>
        <time>2017-03-26T13:45:29Z</time>
      </trkpt>
      <trkpt lat="45.18437" lon="4.81408">
        <ele>77.43</ele>
        <time>2017-03-26T13:45:30Z</time>
      </trkpt>
      <trkpt lat="45.18437" lon="4.81408">
        <ele>77.43</ele>
        <time>2017-03-26T13:45:31Z</time>
      </trkpt>
      <trkpt lat="45.18437" lon="4.81408">
        <ele>77.43</ele>
        <time>2017-03-26T13:45:32Z</time>
      </trkpt>
      <trkpt lat="45.18437" lon="4.81408">
        <ele>77.43</ele>
        <time>2017-03-26T13:45:33Z</time>
      </trkpt>
      <trkpt lat="45.18437" lon="4.81408">
        <ele>77.43</ele>
        <time>2017-03-26T13:45:34Z</time>
      </trkpt>
      <trkpt lat="45.18437" lon="4.81408">
        <ele>77.43</ele>
        <time>2017-03-26T13:45:35Z</time>
      </trkpt>
      <trkpt lat="45.18437" lon="4.81408">
        <ele>77.43</ele>
        <time>2017-03-26T13:45:36Z</time>
      </trkpt>
      <trkpt lat="45.18437" lon="4.81408">
        <ele>77.43</ele>
        <time>2017-03-26T13:45:37Z</time>
      </trkpt>
      <trkpt lat="45.18437" lon="4.81408">
        <ele>77.43</ele>
        <time>2017-03-26T13:45:38Z</time>
      </trkpt>
      <trkpt lat="45.18437" lon="4.81408">
        <ele>77.43</ele>
        <time>2017-03-26T13:45:39Z</time>
      </trkpt>
      <trkpt lat="45.18437" lon="4.81408">
        <ele>77.43</ele>
        <time>2017-03-26T13:45:40Z</time>
      </trkpt>
      <trkpt lat="45.18437" lon="4.81408">
        <ele>77.43</ele>
        <time>2017-03-26T13:45:41Z</time>
      </trkpt>
      <trkpt lat="45.18437" lon="4.81408">
        <ele>77.43</ele>
        <time>2017-03-26T13:45:42Z</time>
      </trkpt>
      <trkpt lat="45.18437" lon="4.81408">
        <ele>77.43</ele>
        <time>2017-03-26T13:45:43Z</time>
      </trkpt>
      <trkpt lat="45.18437" lon="4.81408">
        <ele>77.43</ele>
        <time>2017-03-26T13:45:44Z</time>
      </trkpt>
      <trkpt lat="45.18437" lon="4.81408">
        <ele>77.43</ele>
        <time>2017-03-26T13:45:45Z</time>
      </trkpt>
      <trkpt lat="45.18437" lon="4.81408">
        <ele>77.43</ele>
        <time>2017-03-26T13:45:46Z</time>
      </trkpt>
      <trkpt lat="45.18437" lon="4.81408">
        <ele>77.43</ele>
        <time>2017-03-26T13:45:47Z</time>
      </trkpt>
      <trkpt lat="45.18437" lon="4.81408">
        <ele>77.43</ele>
        <time>2017-03-26T13:45:48Z</time>
      </trkpt>
      <trkpt lat="45.18437" lon="4.81408">
        <ele>77.43</ele>
        <time>2017-03-26T13:45:49Z</time>
      </trkpt>
      <trkpt lat="45.18437" lon="4.81408">
        <ele>77.43</ele>
        <time>2017-03-26T13:45:50Z</time>
      </trkpt>
      <trkpt lat="45.18437" lon="4.81408">
        <ele>77.43</ele>
        <time>2017-03-26T13:45:51Z</time>
      </trkpt>
      <trkpt lat="45.18437" lon="4.81408">
        <ele>77.43</ele>
        <time>2017-03-26T13:45:52Z</time>
      </trkpt>
      <trkpt lat="45.18437" lon="4.81408">
        <ele>77.43</ele>
        <time>2017-03-26T13:45:53Z</time>
      </trkpt>
      <trkpt lat="45.18437" lon="4.81408">
        <ele>77.43</ele>
        <time>2017-03-26T13:45:54Z</time>
      </trkpt>
      <trkpt lat="45.18437" lon="4.81408">
        <ele>77.43</ele>
        <time>2017-03-26T13:45:55Z</time>
      </trkpt>
      <trkpt lat="45.18437" lon="4.81408">
        <ele>77.43</ele>
        <time>2017-03-26T13:45:56Z</time>
      </trkpt>
      <trkpt lat="45.18437" lon="4.81408">
        <ele>77.43</ele>
        <time>2017-03-26T13:45:57Z</time>
      </trkpt>
      <trkpt lat="45.18437" lon="4.81408">
        <ele>77.43</ele>
        <time>2017-03-26T13:45:58Z</time>
      </trkpt>
      <trkpt lat="45.18437" lon="4.81408">
        <ele>77.43</ele>
        <time>2017-03-26T13:45:59Z</time>
      </trkpt>
      <trkpt lat="45.18437" lon="4.81408">
        <ele>77.43</ele>
        <time>2017-03-26T13:46:00Z</time>
      </trkpt>
      <trkpt lat="45.18437" lon="4.81408">
        <ele>77.43</ele>
        <time>2017-03-26T13:46:01Z</time>
      </trkpt>
      <trkpt lat="45.18437" lon="4.81408">
        <ele>77.43</ele>
        <time>2017-03-26T13:46:02Z</time>
      </trkpt>
      <trkpt lat="45.18437" lon="4.81408">
        <ele>77.43</ele>
        <time>2017-03-26T13:46:03Z</time>
      </trkpt>
      <trkpt lat="45.18437" lon="4.81408">
        <ele>77.43</ele>
        <time>2017-03-26T13:46:04Z</time>
      </trkpt>
      <trkpt lat="45.18437" lon="4.81408">
        <ele>77.43</ele>
        <time>2017-03-26T13:46:05Z</time>
      </trkpt>
      <trkpt lat="45.18437" lon="4.81408">
        <ele>77.43</ele>
        <time>2017-03-26T13:46:06Z</time>
      </trkpt>
      <trkpt lat="45.18437" lon="4.81408">
        <ele>77.43</ele>
        <time>2017-03-26T13:46:07Z</time>
      </trkpt>
      <trkpt lat="45.18437" lon="4.81408">
        <ele>77.43</ele>
        <time>2017-03-26T13:46:08Z</time>
      </trkpt>
      <trkpt lat="45.18437" lon="4.81408">
        <ele>77.43</ele>
        <time>2017-03-26T13:46:09Z</time>
      </trkpt>
      <trkpt lat="45.18437" lon="4.81408">
        <ele>77.43</ele>
        <time>2017-03-26T13:46:10Z</time>
      </trkpt>
      <trkpt lat="45.18437" lon="4.81408">
        <ele>77.43</ele>
        <time>2017-03-26T13:46:11Z</time>
      </trkpt>
      <trkpt lat="45.18437" lon="4.81408">
        <ele>77.43</ele>
        <time>2017-03-26T13:46:12Z</time>
      </trkpt>
      <trkpt lat="45.18437" lon="4.81408">
        <ele>77.43</ele>
        <time>2017-03-26T13:46:13Z</time>
      </trkpt>
      <trkpt lat="45.18437" lon="4.81408">
        <ele>77.43</ele>
        <time>2017-03-26T13:46:14Z</time>
      </trkpt>
      <trkpt lat="45.18437" lon="4.81408">
        <ele>77.43</ele>
        <time>2017-03-26T13:46:15Z</time>
      </trkpt>
      <trkpt lat="45.18437" lon="4.81408">
        <ele>77.43</ele>
        <time>2017-03-26T13:46:16Z</time>
      </trkpt>
      <trkpt lat="45.18437" lon="4.81408">
        <ele>77.43</ele>
        <time>2017-03-26T13:46:17Z</time>
      </trkpt>
      <trkpt lat="45.18437" lon="4.81408">
        <ele>77.43</ele>
        <time>2017-03-26T13:46:18Z</time>
      </trkpt>
      <trkpt lat="45.18437" lon="4.81408">
        <ele>77.43</ele>
        <time>2017-03-26T13:46:19Z</time>
      </trkpt>
      <trkpt lat="45.18437" lon="4.81408">
        <ele>77.43</ele>
        <time>2017-03-26T13:46:20Z</time>
      </trkpt>
      <trkpt lat="45.18437" lon="4.81408">
        <ele>77.43</ele>
        <time>2017-03-26T13:46:21Z</time>
      </trkpt>
      <trkpt lat="45.18437" lon="4.81408">
        <ele>77.43</ele>
        <time>2017-03-26T13:46:22Z</time>
      </trkpt>
      <trkpt lat="45.18437" lon="4.81408">
        <ele>77.43</ele>
        <time>2017-03-26T13:46:23Z</time>
      </trkpt>
      <trkpt lat="45.18437" lon="4.81408">
        <ele>77.43</ele>
        <time>2017-03-26T13:46:24Z</time>
      </trkpt>
      <trkpt lat="45.18437" lon="4.81408">
        <ele>77.43</ele>
        <time>2017-03-26T13:46:25Z</time>
      </trkpt>
      <trkpt lat="45.18437" lon="4.81408">
        <ele>77.43</ele>
        <time>2017-03-26T13:46:26Z</time>
      </trkpt>
      <trkpt lat="45.18437" lon="4.81408">
        <ele>77.43</ele>
        <time>2017-03-26T13:46:27Z</time>
      </trkpt>
      <trkpt lat="45.18437" lon="4.81408">
        <ele>77.43</ele>
        <time>2017-03-26T13:46:28Z</time>
      </trkpt>
      <trkpt lat="45.18437" lon="4.81408">
        <ele>77.43</ele>
        <time>2017-03-26T13:46:29Z</time>
      </trkpt>
      <trkpt lat="45.18437" lon="4.81408">
        <ele>77.43</ele>
        <time>2017-03-26T13:46:30Z</time>
      </trkpt>
      <trkpt lat="45.18437" lon="4.81408">
        <ele>77.43</ele>
        <time>2017-03-26T13:46:31Z</time>
      </trkpt>
      <trkpt lat="45.18437" lon="4.81408">
        <ele>77.43</ele>
        <time>2017-03-26T13:46:32Z</time>
      </trkpt>
      <trkpt lat="45.18437" lon="4.81408">
        <ele>77.43</ele>
        <time>2017-03-26T13:46:33Z</time>
      </trkpt>
      <trkpt lat="45.18437" lon="4.81408">
        <ele>77.43</ele>
        <time>2017-03-26T13:46:34Z</time>
      </trkpt>
      <trkpt lat="45.18437" lon="4.81408">
        <ele>77.43</ele>
        <time>2017-03-26T13:46:35Z</time>
      </trkpt>
      <trkpt lat="45.18437" lon="4.81408">
        <ele>77.43</ele>
        <time>2017-03-26T13:46:36Z</time>
      </trkpt>
      <trkpt lat="45.18437" lon="4.81408">
        <ele>77.43</ele>
        <time>2017-03-26T13:46:37Z</time>
      </trkpt>
      <trkpt lat="45.18437" lon="4.81408">
        <ele>77.43</ele>
        <time>2017-03-26T13:46:38Z</time>
      </trkpt>
      <trkpt lat="45.18437" lon="4.81408">
        <ele>77.43</ele>
        <time>2017-03-26T13:46:39Z</time>
      </trkpt>
      <trkpt lat="45.18437" lon="4.81408">
        <ele>77.43</ele>
        <time>2017-03-26T13:46:40Z</time>
      </trkpt>
      <trkpt lat="45.18437" lon="4.81408">
        <ele>77.43</ele>
        <time>2017-03-26T13:46:41Z</time>
      </trkpt>
      <trkpt lat="45.18437" lon="4.81408">
        <ele>77.43</ele>
        <time>2017-03-26T13:46:42Z</time>
      </trkpt>
      <trkpt lat="45.18437" lon="4.81408">
        <ele>77.43</ele>
        <time>2017-03-26T13:46:43Z</time>
      </trkpt>
      <trkpt lat="45.18437" lon="4.81408">
        <ele>77.43</ele>
        <time>2017-03-26T13:46:45Z</time>
      </trkpt>
      <trkpt lat="45.18437" lon="4.81408">
        <ele>77.43</ele>
        <time>2017-03-26T13:46:46Z</time>
      </trkpt>
      <trkpt lat="45.18437" lon="4.81408">
        <ele>77.43</ele>
        <time>2017-03-26T13:46:47Z</time>
      </trkpt>
      <trkpt lat="45.18437" lon="4.81408">
        <ele>77.43</ele>
        <time>2017-03-26T13:46:48Z</time>
      </trkpt>
      <trkpt lat="45.18437" lon="4.81408">
        <ele>77.43</ele>
        <time>2017-03-26T13:46:49Z</time>
      </trkpt>
      <trkpt lat="45.18437" lon="4.81408">
        <ele>77.43</ele>
        <time>2017-03-26T13:46:50Z</time>
      </trkpt>
      <trkpt lat="45.18437" lon="4.81408">
        <ele>77.43</ele>
        <time>2017-03-26T13:46:51Z</time>
      </trkpt>
      <trkpt lat="45.18437" lon="4.81408">
        <ele>77.43</ele>
        <time>2017-03-26T13:46:52Z</time>
      </trkpt>
      <trkpt lat="45.18437" lon="4.81408">
        <ele>77.43</ele>
        <time>2017-03-26T13:46:53Z</time>
      </trkpt>
      <trkpt lat="45.18437" lon="4.81408">
        <ele>77.43</ele>
        <time>2017-03-26T13:46:54Z</time>
      </trkpt>
      <trkpt lat="45.18437" lon="4.81408">
        <ele>77.43</ele>
        <time>2017-03-26T13:46:55Z</time>
      </trkpt>
      <trkpt lat="45.18437" lon="4.81408">
        <ele>77.43</ele>
        <time>2017-03-26T13:46:56Z</time>
      </trkpt>
      <trkpt lat="45.18437" lon="4.81408">
        <ele>77.43</ele>
        <time>2017-03-26T13:46:57Z</time>
      </trkpt>
      <trkpt lat="45.18437" lon="4.81408">
        <ele>77.43</ele>
        <time>2017-03-26T13:46:58Z</time>
      </trkpt>
      <trkpt lat="45.18437" lon="4.81408">
        <ele>77.43</ele>
        <time>2017-03-26T13:46:59Z</time>
      </trkpt>
      <trkpt lat="45.18437" lon="4.81408">
        <ele>77.43</ele>
        <time>2017-03-26T13:47:00Z</time>
      </trkpt>
      <trkpt lat="45.18437" lon="4.81408">
        <ele>77.43</ele>
        <time>2017-03-26T13:47:01Z</time>
      </trkpt>
      <trkpt lat="45.18437" lon="4.81408">
        <ele>77.43</ele>
        <time>2017-03-26T13:47:02Z</time>
      </trkpt>
      <trkpt lat="45.18437" lon="4.81408">
        <ele>77.43</ele>
        <time>2017-03-26T13:47:03Z</time>
      </trkpt>
      <trkpt lat="45.18437" lon="4.81408">
        <ele>77.43</ele>
        <time>2017-03-26T13:47:04Z</time>
      </trkpt>
      <trkpt lat="45.18437" lon="4.81408">
        <ele>77.43</ele>
        <time>2017-03-26T13:47:05Z</time>
      </trkpt>
      <trkpt lat="45.18437" lon="4.81408">
        <ele>77.43</ele>
        <time>2017-03-26T13:47:06Z</time>
      </trkpt>
      <trkpt lat="45.18437" lon="4.81408">
        <ele>77.43</ele>
        <time>2017-03-26T13:47:07Z</time>
      </trkpt>
      <trkpt lat="45.18437" lon="4.81408">
        <ele>77.43</ele>
        <time>2017-03-26T13:47:08Z</time>
      </trkpt>
      <trkpt lat="45.18437" lon="4.81408">
        <ele>77.43</ele>
        <time>2017-03-26T13:47:09Z</time>
      </trkpt>
      <trkpt lat="45.18437" lon="4.81408">
        <ele>77.43</ele>
        <time>2017-03-26T13:47:10Z</time>
      </trkpt>
      <trkpt lat="45.18437" lon="4.81408">
        <ele>77.43</ele>
        <time>2017-03-26T13:47:11Z</time>
      </trkpt>
      <trkpt lat="45.18437" lon="4.81408">
        <ele>77.43</ele>
        <time>2017-03-26T13:47:12Z</time>
      </trkpt>
      <trkpt lat="45.18437" lon="4.81408">
        <ele>77.43</ele>
        <time>2017-03-26T13:47:13Z</time>
      </trkpt>
      <trkpt lat="45.18437" lon="4.81408">
        <ele>77.43</ele>
        <time>2017-03-26T13:47:14Z</time>
      </trkpt>
      <trkpt lat="45.18437" lon="4.81408">
        <ele>77.43</ele>
        <time>2017-03-26T13:47:15Z</time>
      </trkpt>
      <trkpt lat="45.18437" lon="4.81408">
        <ele>77.43</ele>
        <time>2017-03-26T13:47:16Z</time>
      </trkpt>
      <trkpt lat="45.18437" lon="4.81408">
        <ele>77.43</ele>
        <time>2017-03-26T13:47:17Z</time>
      </trkpt>
      <trkpt lat="45.18437" lon="4.81408">
        <ele>77.43</ele>
        <time>2017-03-26T13:47:18Z</time>
      </trkpt>
      <trkpt lat="45.18437" lon="4.81408">
        <ele>77.43</ele>
        <time>2017-03-26T13:47:19Z</time>
      </trkpt>
      <trkpt lat="45.18437" lon="4.81408">
        <ele>77.43</ele>
        <time>2017-03-26T13:47:20Z</time>
      </trkpt>
      <trkpt lat="45.18437" lon="4.81408">
        <ele>77.43</ele>
        <time>2017-03-26T13:47:21Z</time>
      </trkpt>
      <trkpt lat="45.18437" lon="4.81408">
        <ele>77.43</ele>
        <time>2017-03-26T13:47:22Z</time>
      </trkpt>
      <trkpt lat="45.18437" lon="4.81408">
        <ele>77.43</ele>
        <time>2017-03-26T13:47:23Z</time>
      </trkpt>
      <trkpt lat="45.18437" lon="4.81408">
        <ele>77.43</ele>
        <time>2017-03-26T13:47:24Z</time>
      </trkpt>
      <trkpt lat="45.18437" lon="4.81408">
        <ele>77.43</ele>
        <time>2017-03-26T13:47:25Z</time>
      </trkpt>
      <trkpt lat="45.18437" lon="4.81408">
        <ele>77.43</ele>
        <time>2017-03-26T13:47:26Z</time>
      </trkpt>
      <trkpt lat="45.18437" lon="4.81408">
        <ele>77.43</ele>
        <time>2017-03-26T13:47:27Z</time>
      </trkpt>
      <trkpt lat="45.18437" lon="4.81408">
        <ele>77.43</ele>
        <time>2017-03-26T13:47:28Z</time>
      </trkpt>
      <trkpt lat="45.18437" lon="4.81408">
        <ele>77.43</ele>
        <time>2017-03-26T13:47:29Z</time>
      </trkpt>
      <trkpt lat="45.18437" lon="4.81408">
        <ele>77.43</ele>
        <time>2017-03-26T13:47:30Z</time>
      </trkpt>
      <trkpt lat="45.18437" lon="4.81408">
        <ele>77.43</ele>
        <time>2017-03-26T13:47:31Z</time>
      </trkpt>
      <trkpt lat="45.18437" lon="4.81408">
        <ele>77.43</ele>
        <time>2017-03-26T13:47:32Z</time>
      </trkpt>
      <trkpt lat="45.18437" lon="4.81408">
        <ele>77.43</ele>
        <time>2017-03-26T13:47:33Z</time>
      </trkpt>
      <trkpt lat="45.18437" lon="4.81408">
        <ele>77.43</ele>
        <time>2017-03-26T13:47:34Z</time>
      </trkpt>
      <trkpt lat="45.18437" lon="4.81408">
        <ele>77.43</ele>
        <time>2017-03-26T13:47:35Z</time>
      </trkpt>
      <trkpt lat="45.18437" lon="4.81408">
        <ele>77.43</ele>
        <time>2017-03-26T13:47:36Z</time>
      </trkpt>
      <trkpt lat="45.18437" lon="4.81408">
        <ele>77.43</ele>
        <time>2017-03-26T13:47:37Z</time>
      </trkpt>
      <trkpt lat="45.18437" lon="4.81408">
        <ele>77.43</ele>
        <time>2017-03-26T13:47:38Z</time>
      </trkpt>
      <trkpt lat="45.18437" lon="4.81408">
        <ele>77.43</ele>
        <time>2017-03-26T13:47:39Z</time>
      </trkpt>
      <trkpt lat="45.18437" lon="4.81408">
        <ele>77.43</ele>
        <time>2017-03-26T13:47:40Z</time>
      </trkpt>
      <trkpt lat="45.18437" lon="4.81408">
        <ele>77.43</ele>
        <time>2017-03-26T13:47:41Z</time>
      </trkpt>
      <trkpt lat="45.18437" lon="4.81408">
        <ele>77.43</ele>
        <time>2017-03-26T13:47:42Z</time>
      </trkpt>
      <trkpt lat="45.18437" lon="4.81408">
        <ele>77.43</ele>
        <time>2017-03-26T13:47:43Z</time>
      </trkpt>
      <trkpt lat="45.18437" lon="4.81408">
        <ele>77.43</ele>
        <time>2017-03-26T13:47:44Z</time>
      </trkpt>
      <trkpt lat="45.18437" lon="4.81408">
        <ele>77.43</ele>
        <time>2017-03-26T13:47:45Z</time>
      </trkpt>
      <trkpt lat="45.18437" lon="4.81408">
        <ele>77.43</ele>
        <time>2017-03-26T13:47:46Z</time>
      </trkpt>
      <trkpt lat="45.18437" lon="4.81408">
        <ele>77.43</ele>
        <time>2017-03-26T13:47:47Z</time>
      </trkpt>
      <trkpt lat="45.18437" lon="4.81408">
        <ele>77.43</ele>
        <time>2017-03-26T13:47:48Z</time>
      </trkpt>
      <trkpt lat="45.18437" lon="4.81408">
        <ele>77.43</ele>
        <time>2017-03-26T13:47:49Z</time>
      </trkpt>
      <trkpt lat="45.18437" lon="4.81408">
        <ele>77.43</ele>
        <time>2017-03-26T13:47:50Z</time>
      </trkpt>
      <trkpt lat="45.18437" lon="4.81408">
        <ele>77.43</ele>
        <time>2017-03-26T13:47:51Z</time>
      </trkpt>
      <trkpt lat="45.18437" lon="4.81408">
        <ele>77.43</ele>
        <time>2017-03-26T13:47:52Z</time>
      </trkpt>
      <trkpt lat="45.18437" lon="4.81408">
        <ele>77.43</ele>
        <time>2017-03-26T13:47:53Z</time>
      </trkpt>
      <trkpt lat="45.18437" lon="4.81408">
        <ele>77.43</ele>
        <time>2017-03-26T13:47:54Z</time>
      </trkpt>
      <trkpt lat="45.18437" lon="4.81408">
        <ele>77.43</ele>
        <time>2017-03-26T13:47:55Z</time>
      </trkpt>
      <trkpt lat="45.18437" lon="4.81408">
        <ele>77.43</ele>
        <time>2017-03-26T13:47:56Z</time>
      </trkpt>
      <trkpt lat="45.18437" lon="4.81408">
        <ele>77.43</ele>
        <time>2017-03-26T13:47:57Z</time>
      </trkpt>
      <trkpt lat="45.18437" lon="4.81408">
        <ele>77.43</ele>
        <time>2017-03-26T13:47:58Z</time>
      </trkpt>
      <trkpt lat="45.18437" lon="4.81408">
        <ele>77.43</ele>
        <time>2017-03-26T13:47:59Z</time>
      </trkpt>
      <trkpt lat="45.18437" lon="4.81408">
        <ele>77.43</ele>
        <time>2017-03-26T13:48:00Z</time>
      </trkpt>
      <trkpt lat="45.18437" lon="4.81408">
        <ele>77.43</ele>
        <time>2017-03-26T13:48:01Z</time>
      </trkpt>
      <trkpt lat="45.18437" lon="4.81408">
        <ele>77.43</ele>
        <time>2017-03-26T13:48:02Z</time>
      </trkpt>
      <trkpt lat="45.18437" lon="4.81408">
        <ele>77.43</ele>
        <time>2017-03-26T13:48:03Z</time>
      </trkpt>
      <trkpt lat="45.18437" lon="4.81408">
        <ele>77.43</ele>
        <time>2017-03-26T13:48:04Z</time>
      </trkpt>
      <trkpt lat="45.18437" lon="4.81408">
        <ele>77.43</ele>
        <time>2017-03-26T13:48:05Z</time>
      </trkpt>
      <trkpt lat="45.18437" lon="4.81408">
        <ele>77.43</ele>
        <time>2017-03-26T13:48:06Z</time>
      </trkpt>
      <trkpt lat="45.18437" lon="4.81408">
        <ele>77.43</ele>
        <time>2017-03-26T13:48:07Z</time>
      </trkpt>
      <trkpt lat="45.18437" lon="4.81408">
        <ele>77.43</ele>
        <time>2017-03-26T13:48:08Z</time>
      </trkpt>
      <trkpt lat="45.18437" lon="4.81408">
        <ele>77.43</ele>
        <time>2017-03-26T13:48:09Z</time>
      </trkpt>
      <trkpt lat="45.18437" lon="4.81408">
        <ele>77.43</ele>
        <time>2017-03-26T13:48:10Z</time>
      </trkpt>
      <trkpt lat="45.18437" lon="4.81408">
        <ele>77.43</ele>
        <time>2017-03-26T13:48:11Z</time>
      </trkpt>
      <trkpt lat="45.18437" lon="4.81408">
        <ele>77.43</ele>
        <time>2017-03-26T13:48:12Z</time>
      </trkpt>
      <trkpt lat="45.18437" lon="4.81408">
        <ele>77.43</ele>
        <time>2017-03-26T13:48:13Z</time>
      </trkpt>
      <trkpt lat="45.18437" lon="4.81408">
        <ele>77.43</ele>
        <time>2017-03-26T13:48:14Z</time>
      </trkpt>
      <trkpt lat="45.18437" lon="4.81408">
        <ele>77.43</ele>
        <time>2017-03-26T13:48:15Z</time>
      </trkpt>
      <trkpt lat="45.18437" lon="4.81408">
        <ele>77.43</ele>
        <time>2017-03-26T13:48:16Z</time>
      </trkpt>
      <trkpt lat="45.18437" lon="4.81408">
        <ele>77.43</ele>
        <time>2017-03-26T13:48:17Z</time>
      </trkpt>
      <trkpt lat="45.18437" lon="4.81408">
        <ele>77.43</ele>
        <time>2017-03-26T13:48:18Z</time>
      </trkpt>
      <trkpt lat="45.18437" lon="4.81408">
        <ele>77.43</ele>
        <time>2017-03-26T13:48:19Z</time>
      </trkpt>
      <trkpt lat="45.18437" lon="4.81408">
        <ele>77.43</ele>
        <time>2017-03-26T13:48:20Z</time>
      </trkpt>
      <trkpt lat="45.18437" lon="4.81408">
        <ele>77.43</ele>
        <time>2017-03-26T13:48:21Z</time>
      </trkpt>
      <trkpt lat="45.18437" lon="4.81408">
        <ele>77.43</ele>
        <time>2017-03-26T13:48:22Z</time>
      </trkpt>
      <trkpt lat="45.18437" lon="4.81408">
        <ele>77.43</ele>
        <time>2017-03-26T13:48:23Z</time>
      </trkpt>
      <trkpt lat="45.18437" lon="4.81408">
        <ele>77.43</ele>
        <time>2017-03-26T13:48:24Z</time>
      </trkpt>
      <trkpt lat="45.18437" lon="4.81408">
        <ele>77.43</ele>
        <time>2017-03-26T13:48:25Z</time>
      </trkpt>
      <trkpt lat="45.18437" lon="4.81408">
        <ele>77.43</ele>
        <time>2017-03-26T13:48:26Z</time>
      </trkpt>
      <trkpt lat="45.18437" lon="4.81408">
        <ele>77.43</ele>
        <time>2017-03-26T13:48:27Z</time>
      </trkpt>
      <trkpt lat="45.18437" lon="4.81408">
        <ele>77.43</ele>
        <time>2017-03-26T13:48:28Z</time>
      </trkpt>
      <trkpt lat="45.18437" lon="4.81408">
        <ele>77.43</ele>
        <time>2017-03-26T13:48:29Z</time>
      </trkpt>
      <trkpt lat="45.18437" lon="4.81408">
        <ele>77.43</ele>
        <time>2017-03-26T13:48:30Z</time>
      </trkpt>
      <trkpt lat="45.18437" lon="4.81408">
        <ele>77.43</ele>
        <time>2017-03-26T13:48:31Z</time>
      </trkpt>
      <trkpt lat="45.18437" lon="4.81408">
        <ele>77.43</ele>
        <time>2017-03-26T13:48:32Z</time>
      </trkpt>
      <trkpt lat="45.18437" lon="4.81408">
        <ele>77.43</ele>
        <time>2017-03-26T13:48:33Z</time>
      </trkpt>
      <trkpt lat="45.18437" lon="4.81408">
        <ele>77.43</ele>
        <time>2017-03-26T13:48:34Z</time>
      </trkpt>
      <trkpt lat="45.18437" lon="4.81408">
        <ele>77.43</ele>
        <time>2017-03-26T13:48:35Z</time>
      </trkpt>
      <trkpt lat="45.18437" lon="4.81408">
        <ele>77.43</ele>
        <time>2017-03-26T13:48:36Z</time>
      </trkpt>
      <trkpt lat="45.18437" lon="4.81408">
        <ele>77.43</ele>
        <time>2017-03-26T13:48:37Z</time>
      </trkpt>
      <trkpt lat="45.18437" lon="4.81408">
        <ele>77.43</ele>
        <time>2017-03-26T13:48:38Z</time>
      </trkpt>
      <trkpt lat="45.18437" lon="4.81408">
        <ele>77.43</ele>
        <time>2017-03-26T13:48:39Z</time>
      </trkpt>
      <trkpt lat="45.18437" lon="4.81408">
        <ele>77.43</ele>
        <time>2017-03-26T13:48:40Z</time>
      </trkpt>
      <trkpt lat="45.18437" lon="4.81408">
        <ele>77.43</ele>
        <time>2017-03-26T13:48:41Z</time>
      </trkpt>
      <trkpt lat="45.18437" lon="4.81408">
        <ele>77.43</ele>
        <time>2017-03-26T13:48:42Z</time>
      </trkpt>
      <trkpt lat="45.18437" lon="4.81408">
        <ele>77.43</ele>
        <time>2017-03-26T13:48:43Z</time>
      </trkpt>
      <trkpt lat="45.18437" lon="4.81408">
        <ele>77.43</ele>
        <time>2017-03-26T13:48:44Z</time>
      </trkpt>
      <trkpt lat="45.18437" lon="4.81408">
        <ele>77.43</ele>
        <time>2017-03-26T13:48:45Z</time>
      </trkpt>
      <trkpt lat="45.18437" lon="4.81408">
        <ele>77.43</ele>
        <time>2017-03-26T13:48:46Z</time>
      </trkpt>
      <trkpt lat="45.18437" lon="4.81408">
        <ele>77.43</ele>
        <time>2017-03-26T13:48:47Z</time>
      </trkpt>
      <trkpt lat="45.18437" lon="4.81408">
        <ele>77.43</ele>
        <time>2017-03-26T13:48:48Z</time>
      </trkpt>
      <trkpt lat="45.18437" lon="4.81408">
        <ele>77.43</ele>
        <time>2017-03-26T13:48:49Z</time>
      </trkpt>
      <trkpt lat="45.18437" lon="4.81408">
        <ele>77.43</ele>
        <time>2017-03-26T13:48:50Z</time>
      </trkpt>
      <trkpt lat="45.18437" lon="4.81408">
        <ele>77.43</ele>
        <time>2017-03-26T13:48:51Z</time>
      </trkpt>
      <trkpt lat="45.18437" lon="4.81408">
        <ele>77.43</ele>
        <time>2017-03-26T13:48:52Z</time>
      </trkpt>
      <trkpt lat="45.18437" lon="4.81408">
        <ele>77.43</ele>
        <time>2017-03-26T13:48:53Z</time>
      </trkpt>
      <trkpt lat="45.18437" lon="4.81408">
        <ele>77.43</ele>
        <time>2017-03-26T13:48:54Z</time>
      </trkpt>
      <trkpt lat="45.18437" lon="4.81408">
        <ele>77.43</ele>
        <time>2017-03-26T13:48:55Z</time>
      </trkpt>
      <trkpt lat="45.18437" lon="4.81408">
        <ele>77.43</ele>
        <time>2017-03-26T13:48:56Z</time>
      </trkpt>
      <trkpt lat="45.18437" lon="4.81408">
        <ele>77.43</ele>
        <time>2017-03-26T13:48:57Z</time>
      </trkpt>
      <trkpt lat="45.18437" lon="4.81408">
        <ele>77.43</ele>
        <time>2017-03-26T13:48:58Z</time>
      </trkpt>
      <trkpt lat="45.18437" lon="4.81408">
        <ele>77.43</ele>
        <time>2017-03-26T13:48:59Z</time>
      </trkpt>
      <trkpt lat="45.18437" lon="4.81408">
        <ele>77.43</ele>
        <time>2017-03-26T13:49:00Z</time>
      </trkpt>
      <trkpt lat="45.18437" lon="4.81408">
        <ele>77.43</ele>
        <time>2017-03-26T13:49:01Z</time>
      </trkpt>
      <trkpt lat="45.18437" lon="4.81408">
        <ele>77.43</ele>
        <time>2017-03-26T13:49:02Z</time>
      </trkpt>
      <trkpt lat="45.18437" lon="4.81408">
        <ele>77.43</ele>
        <time>2017-03-26T13:49:03Z</time>
      </trkpt>
      <trkpt lat="45.18437" lon="4.81408">
        <ele>77.43</ele>
        <time>2017-03-26T13:49:04Z</time>
      </trkpt>
      <trkpt lat="45.18437" lon="4.81408">
        <ele>77.43</ele>
        <time>2017-03-26T13:49:05Z</time>
      </trkpt>
      <trkpt lat="45.18437" lon="4.81408">
        <ele>77.43</ele>
        <time>2017-03-26T13:49:06Z</time>
      </trkpt>
      <trkpt lat="45.18437" lon="4.81408">
        <ele>77.43</ele>
        <time>2017-03-26T13:49:07Z</time>
      </trkpt>
      <trkpt lat="45.18437" lon="4.81408">
        <ele>77.43</ele>
        <time>2017-03-26T13:49:08Z</time>
      </trkpt>
      <trkpt lat="45.18437" lon="4.81408">
        <ele>77.43</ele>
        <time>2017-03-26T13:49:09Z</time>
      </trkpt>
      <trkpt lat="45.18437" lon="4.81408">
        <ele>77.43</ele>
        <time>2017-03-26T13:49:10Z</time>
      </trkpt>
      <trkpt lat="45.18437" lon="4.81408">
        <ele>77.43</ele>
        <time>2017-03-26T13:49:11Z</time>
      </trkpt>
      <trkpt lat="45.18437" lon="4.81408">
        <ele>77.43</ele>
        <time>2017-03-26T13:49:12Z</time>
      </trkpt>
      <trkpt lat="45.18437" lon="4.81408">
        <ele>77.43</ele>
        <time>2017-03-26T13:49:13Z</time>
      </trkpt>
      <trkpt lat="45.18437" lon="4.81408">
        <ele>77.43</ele>
        <time>2017-03-26T13:49:14Z</time>
      </trkpt>
      <trkpt lat="45.18437" lon="4.81408">
        <ele>77.43</ele>
        <time>2017-03-26T13:49:15Z</time>
      </trkpt>
      <trkpt lat="45.18437" lon="4.81408">
        <ele>77.43</ele>
        <time>2017-03-26T13:49:16Z</time>
      </trkpt>
      <trkpt lat="45.18437" lon="4.81408">
        <ele>77.43</ele>
        <time>2017-03-26T13:49:17Z</time>
      </trkpt>
      <trkpt lat="45.18437" lon="4.81408">
        <ele>77.43</ele>
        <time>2017-03-26T13:49:18Z</time>
      </trkpt>
      <trkpt lat="45.18437" lon="4.81408">
        <ele>77.43</ele>
        <time>2017-03-26T13:49:19Z</time>
      </trkpt>
      <trkpt lat="45.18437" lon="4.81408">
        <ele>77.43</ele>
        <time>2017-03-26T13:49:20Z</time>
      </trkpt>
      <trkpt lat="45.18437" lon="4.81408">
        <ele>77.43</ele>
        <time>2017-03-26T13:49:21Z</time>
      </trkpt>
      <trkpt lat="45.18437" lon="4.81408">
        <ele>77.43</ele>
        <time>2017-03-26T13:49:22Z</time>
      </trkpt>
      <trkpt lat="45.18437" lon="4.81408">
        <ele>77.43</ele>
        <time>2017-03-26T13:49:23Z</time>
      </trkpt>
      <trkpt lat="45.18437" lon="4.81408">
        <ele>77.43</ele>
        <time>2017-03-26T13:49:24Z</time>
      </trkpt>
      <trkpt lat="45.18437" lon="4.81408">
        <ele>77.43</ele>
        <time>2017-03-26T13:49:25Z</time>
      </trkpt>
      <trkpt lat="45.18437" lon="4.81408">
        <ele>77.43</ele>
        <time>2017-03-26T13:49:26Z</time>
      </trkpt>
      <trkpt lat="45.18437" lon="4.81408">
        <ele>77.43</ele>
        <time>2017-03-26T13:49:27Z</time>
      </trkpt>
      <trkpt lat="45.18437" lon="4.81408">
        <ele>77.43</ele>
        <time>2017-03-26T13:49:28Z</time>
      </trkpt>
      <trkpt lat="45.18437" lon="4.81408">
        <ele>77.43</ele>
        <time>2017-03-26T13:49:29Z</time>
      </trkpt>
      <trkpt lat="45.18437" lon="4.81408">
        <ele>77.43</ele>
        <time>2017-03-26T13:49:30Z</time>
      </trkpt>
      <trkpt lat="45.18437" lon="4.81408">
        <ele>77.43</ele>
        <time>2017-03-26T13:49:31Z</time>
      </trkpt>
      <trkpt lat="45.18437" lon="4.81408">
        <ele>77.43</ele>
        <time>2017-03-26T13:49:32Z</time>
      </trkpt>
      <trkpt lat="45.18437" lon="4.81408">
        <ele>77.43</ele>
        <time>2017-03-26T13:49:33Z</time>
      </trkpt>
      <trkpt lat="45.18437" lon="4.81408">
        <ele>77.43</ele>
        <time>2017-03-26T13:49:34Z</time>
      </trkpt>
      <trkpt lat="45.18437" lon="4.81408">
        <ele>77.43</ele>
        <time>2017-03-26T13:49:35Z</time>
      </trkpt>
      <trkpt lat="45.18437" lon="4.81408">
        <ele>77.43</ele>
        <time>2017-03-26T13:49:36Z</time>
      </trkpt>
      <trkpt lat="45.18437" lon="4.81408">
        <ele>77.43</ele>
        <time>2017-03-26T13:49:37Z</time>
      </trkpt>
      <trkpt lat="45.18437" lon="4.81408">
        <ele>77.43</ele>
        <time>2017-03-26T13:49:38Z</time>
      </trkpt>
      <trkpt lat="45.18437" lon="4.81408">
        <ele>77.43</ele>
        <time>2017-03-26T13:49:39Z</time>
      </trkpt>
      <trkpt lat="45.18437" lon="4.81408">
        <ele>77.43</ele>
        <time>2017-03-26T13:49:40Z</time>
      </trkpt>
      <trkpt lat="45.18437" lon="4.81408">
        <ele>77.43</ele>
        <time>2017-03-26T13:49:41Z</time>
      </trkpt>
      <trkpt lat="45.18437" lon="4.81408">
        <ele>77.43</ele>
        <time>2017-03-26T13:49:42Z</time>
      </trkpt>
      <trkpt lat="45.18437" lon="4.81408">
        <ele>77.43</ele>
        <time>2017-03-26T13:49:43Z</time>
      </trkpt>
      <trkpt lat="45.18437" lon="4.81408">
        <ele>77.43</ele>
        <time>2017-03-26T13:49:44Z</time>
      </trkpt>
      <trkpt lat="45.18437" lon="4.81408">
        <ele>77.43</ele>
        <time>2017-03-26T13:49:45Z</time>
      </trkpt>
      <trkpt lat="45.18437" lon="4.81408">
        <ele>77.43</ele>
        <time>2017-03-26T13:49:46Z</time>
      </trkpt>
      <trkpt lat="45.18437" lon="4.81408">
        <ele>77.43</ele>
        <time>2017-03-26T13:49:47Z</time>
      </trkpt>
      <trkpt lat="45.18437" lon="4.81408">
        <ele>77.43</ele>
        <time>2017-03-26T13:49:48Z</time>
      </trkpt>
      <trkpt lat="45.18437" lon="4.81408">
        <ele>77.43</ele>
        <time>2017-03-26T13:49:49Z</time>
      </trkpt>
      <trkpt lat="45.18437" lon="4.81408">
        <ele>77.43</ele>
        <time>2017-03-26T13:49:50Z</time>
      </trkpt>
      <trkpt lat="45.18437" lon="4.81408">
        <ele>77.43</ele>
        <time>2017-03-26T13:49:51Z</time>
      </trkpt>
      <trkpt lat="45.18437" lon="4.81408">
        <ele>77.43</ele>
        <time>2017-03-26T13:49:52Z</time>
      </trkpt>
      <trkpt lat="45.18437" lon="4.81408">
        <ele>77.43</ele>
        <time>2017-03-26T13:49:53Z</time>
      </trkpt>
      <trkpt lat="45.18437" lon="4.81408">
        <ele>77.43</ele>
        <time>2017-03-26T13:49:54Z</time>
      </trkpt>
      <trkpt lat="45.18437" lon="4.81408">
        <ele>77.43</ele>
        <time>2017-03-26T13:49:55Z</time>
      </trkpt>
      <trkpt lat="45.18437" lon="4.81408">
        <ele>77.43</ele>
        <time>2017-03-26T13:49:56Z</time>
      </trkpt>
      <trkpt lat="45.18437" lon="4.81408">
        <ele>77.43</ele>
        <time>2017-03-26T13:49:57Z</time>
      </trkpt>
      <trkpt lat="45.18437" lon="4.81408">
        <ele>77.43</ele>
        <time>2017-03-26T13:49:58Z</time>
      </trkpt>
      <trkpt lat="45.18437" lon="4.81408">
        <ele>77.43</ele>
        <time>2017-03-26T13:49:59Z</time>
      </trkpt>
      <trkpt lat="45.18437" lon="4.81408">
        <ele>77.43</ele>
        <time>2017-03-26T13:50:00Z</time>
      </trkpt>
      <trkpt lat="45.18437" lon="4.81408">
        <ele>77.43</ele>
        <time>2017-03-26T13:50:01Z</time>
      </trkpt>
      <trkpt lat="45.18437" lon="4.81408">
        <ele>77.43</ele>
        <time>2017-03-26T13:50:02Z</time>
      </trkpt>
      <trkpt lat="45.18437" lon="4.81408">
        <ele>77.43</ele>
        <time>2017-03-26T13:50:03Z</time>
      </trkpt>
      <trkpt lat="45.18437" lon="4.81408">
        <ele>77.43</ele>
        <time>2017-03-26T13:50:04Z</time>
      </trkpt>
      <trkpt lat="45.18437" lon="4.81408">
        <ele>77.43</ele>
        <time>2017-03-26T13:50:05Z</time>
      </trkpt>
      <trkpt lat="45.18437" lon="4.81408">
        <ele>77.43</ele>
        <time>2017-03-26T13:50:06Z</time>
      </trkpt>
      <trkpt lat="45.18437" lon="4.81408">
        <ele>77.43</ele>
        <time>2017-03-26T13:50:07Z</time>
      </trkpt>
      <trkpt lat="45.18437" lon="4.81408">
        <ele>77.43</ele>
        <time>2017-03-26T13:50:08Z</time>
      </trkpt>
      <trkpt lat="45.18437" lon="4.81408">
        <ele>77.43</ele>
        <time>2017-03-26T13:50:09Z</time>
      </trkpt>
      <trkpt lat="45.18437" lon="4.81408">
        <ele>77.43</ele>
        <time>2017-03-26T13:50:10Z</time>
      </trkpt>
      <trkpt lat="45.18437" lon="4.81408">
        <ele>77.43</ele>
        <time>2017-03-26T13:50:11Z</time>
      </trkpt>
      <trkpt lat="45.18437" lon="4.81408">
        <ele>77.43</ele>
        <time>2017-03-26T13:50:12Z</time>
      </trkpt>
      <trkpt lat="45.18437" lon="4.81408">
        <ele>77.43</ele>
        <time>2017-03-26T13:50:13Z</time>
      </trkpt>
      <trkpt lat="45.18437" lon="4.81408">
        <ele>77.43</ele>
        <time>2017-03-26T13:50:14Z</time>
      </trkpt>
      <trkpt lat="45.18437" lon="4.81408">
        <ele>77.43</ele>
        <time>2017-03-26T13:50:15Z</time>
      </trkpt>
      <trkpt lat="45.18437" lon="4.81408">
        <ele>77.43</ele>
        <time>2017-03-26T13:50:16Z</time>
      </trkpt>
      <trkpt lat="45.18437" lon="4.81408">
        <ele>77.43</ele>
        <time>2017-03-26T13:50:17Z</time>
      </trkpt>
      <trkpt lat="45.18437" lon="4.81408">
        <ele>77.43</ele>
        <time>2017-03-26T13:50:18Z</time>
      </trkpt>
      <trkpt lat="45.18437" lon="4.81408">
        <ele>77.43</ele>
        <time>2017-03-26T13:50:19Z</time>
      </trkpt>
      <trkpt lat="45.18437" lon="4.81408">
        <ele>77.43</ele>
        <time>2017-03-26T13:50:20Z</time>
      </trkpt>
      <trkpt lat="45.18437" lon="4.81408">
        <ele>77.43</ele>
        <time>2017-03-26T13:50:21Z</time>
      </trkpt>
      <trkpt lat="45.18437" lon="4.81408">
        <ele>77.43</ele>
        <time>2017-03-26T13:50:22Z</time>
      </trkpt>
      <trkpt lat="45.18437" lon="4.81408">
        <ele>77.43</ele>
        <time>2017-03-26T13:50:23Z</time>
      </trkpt>
      <trkpt lat="45.18437" lon="4.81408">
        <ele>77.43</ele>
        <time>2017-03-26T13:50:24Z</time>
      </trkpt>
      <trkpt lat="45.18437" lon="4.81408">
        <ele>77.43</ele>
        <time>2017-03-26T13:50:25Z</time>
      </trkpt>
      <trkpt lat="45.18437" lon="4.81408">
        <ele>77.43</ele>
        <time>2017-03-26T13:50:26Z</time>
      </trkpt>
      <trkpt lat="45.18437" lon="4.81408">
        <ele>77.43</ele>
        <time>2017-03-26T13:50:27Z</time>
      </trkpt>
      <trkpt lat="45.18437" lon="4.81408">
        <ele>77.43</ele>
        <time>2017-03-26T13:50:28Z</time>
      </trkpt>
      <trkpt lat="45.18437" lon="4.81408">
        <ele>77.43</ele>
        <time>2017-03-26T13:50:29Z</time>
      </trkpt>
      <trkpt lat="45.18437" lon="4.81408">
        <ele>77.43</ele>
        <time>2017-03-26T13:50:30Z</time>
      </trkpt>
      <trkpt lat="45.18437" lon="4.81408">
        <ele>77.43</ele>
        <time>2017-03-26T13:50:31Z</time>
      </trkpt>
      <trkpt lat="45.18437" lon="4.81408">
        <ele>77.43</ele>
        <time>2017-03-26T13:50:32Z</time>
      </trkpt>
      <trkpt lat="45.18437" lon="4.81408">
        <ele>77.43</ele>
        <time>2017-03-26T13:50:33Z</time>
      </trkpt>
      <trkpt lat="45.18437" lon="4.81408">
        <ele>77.43</ele>
        <time>2017-03-26T13:50:34Z</time>
      </trkpt>
      <trkpt lat="45.18437" lon="4.81408">
        <ele>77.43</ele>
        <time>2017-03-26T13:50:35Z</time>
      </trkpt>
      <trkpt lat="45.18437" lon="4.81408">
        <ele>77.43</ele>
        <time>2017-03-26T13:50:36Z</time>
      </trkpt>
      <trkpt lat="45.18437" lon="4.81408">
        <ele>77.43</ele>
        <time>2017-03-26T13:50:37Z</time>
      </trkpt>
      <trkpt lat="45.18437" lon="4.81408">
        <ele>77.43</ele>
        <time>2017-03-26T13:50:38Z</time>
      </trkpt>
      <trkpt lat="45.18437" lon="4.81408">
        <ele>77.43</ele>
        <time>2017-03-26T13:50:39Z</time>
      </trkpt>
      <trkpt lat="45.18437" lon="4.81408">
        <ele>77.43</ele>
        <time>2017-03-26T13:50:40Z</time>
      </trkpt>
      <trkpt lat="45.18437" lon="4.81408">
        <ele>77.43</ele>
        <time>2017-03-26T13:50:41Z</time>
      </trkpt>
      <trkpt lat="45.18437" lon="4.81408">
        <ele>77.43</ele>
        <time>2017-03-26T13:50:42Z</time>
      </trkpt>
      <trkpt lat="45.18437" lon="4.81408">
        <ele>77.43</ele>
        <time>2017-03-26T13:50:43Z</time>
      </trkpt>
      <trkpt lat="45.18437" lon="4.81408">
        <ele>77.43</ele>
        <time>2017-03-26T13:50:44Z</time>
      </trkpt>
      <trkpt lat="45.18437" lon="4.81408">
        <ele>77.43</ele>
        <time>2017-03-26T13:50:45Z</time>
      </trkpt>
      <trkpt lat="45.18437" lon="4.81408">
        <ele>77.43</ele>
        <time>2017-03-26T13:50:46Z</time>
      </trkpt>
      <trkpt lat="45.18437" lon="4.81408">
        <ele>77.43</ele>
        <time>2017-03-26T13:50:47Z</time>
      </trkpt>
      <trkpt lat="45.18437" lon="4.81408">
        <ele>77.43</ele>
        <time>2017-03-26T13:50:48Z</time>
      </trkpt>
      <trkpt lat="45.18437" lon="4.81408">
        <ele>77.43</ele>
        <time>2017-03-26T13:50:49Z</time>
      </trkpt>
      <trkpt lat="45.18437" lon="4.81408">
        <ele>77.43</ele>
        <time>2017-03-26T13:50:50Z</time>
      </trkpt>
      <trkpt lat="45.18437" lon="4.81408">
        <ele>77.43</ele>
        <time>2017-03-26T13:50:51Z</time>
      </trkpt>
      <trkpt lat="45.18437" lon="4.81408">
        <ele>77.43</ele>
        <time>2017-03-26T13:50:52Z</time>
      </trkpt>
      <trkpt lat="45.18437" lon="4.81408">
        <ele>77.43</ele>
        <time>2017-03-26T13:50:53Z</time>
      </trkpt>
      <trkpt lat="45.18437" lon="4.81408">
        <ele>77.43</ele>
        <time>2017-03-26T13:50:54Z</time>
      </trkpt>
      <trkpt lat="45.18437" lon="4.81408">
        <ele>77.43</ele>
        <time>2017-03-26T13:50:55Z</time>
      </trkpt>
      <trkpt lat="45.18437" lon="4.81408">
        <ele>77.43</ele>
        <time>2017-03-26T13:50:56Z</time>
      </trkpt>
      <trkpt lat="45.18437" lon="4.81408">
        <ele>77.43</ele>
        <time>2017-03-26T13:50:57Z</time>
      </trkpt>
      <trkpt lat="45.18437" lon="4.81408">
        <ele>77.43</ele>
        <time>2017-03-26T13:50:58Z</time>
      </trkpt>
      <trkpt lat="45.18437" lon="4.81408">
        <ele>77.43</ele>
        <time>2017-03-26T13:50:59Z</time>
      </trkpt>
      <trkpt lat="45.18437" lon="4.81408">
        <ele>77.43</ele>
        <time>2017-03-26T13:51:00Z</time>
      </trkpt>
      <trkpt lat="45.18437" lon="4.81408">
        <ele>77.43</ele>
        <time>2017-03-26T13:51:01Z</time>
      </trkpt>
      <trkpt lat="45.18437" lon="4.81408">
        <ele>77.43</ele>
        <time>2017-03-26T13:51:02Z</time>
      </trkpt>
      <trkpt lat="45.18437" lon="4.81408">
        <ele>77.43</ele>
        <time>2017-03-26T13:51:03Z</time>
      </trkpt>
      <trkpt lat="45.18437" lon="4.81408">
        <ele>77.43</ele>
        <time>2017-03-26T13:51:04Z</time>
      </trkpt>
      <trkpt lat="45.18437" lon="4.81408">
        <ele>77.43</ele>
        <time>2017-03-26T13:51:05Z</time>
      </trkpt>
      <trkpt lat="45.18437" lon="4.81408">
        <ele>77.43</ele>
        <time>2017-03-26T13:51:06Z</time>
      </trkpt>
      <trkpt lat="45.18437" lon="4.81408">
        <ele>77.43</ele>
        <time>2017-03-26T13:51:07Z</time>
      </trkpt>
      <trkpt lat="45.18437" lon="4.81408">
        <ele>77.43</ele>
        <time>2017-03-26T13:51:08Z</time>
      </trkpt>
      <trkpt lat="45.18437" lon="4.81408">
        <ele>77.43</ele>
        <time>2017-03-26T13:51:09Z</time>
      </trkpt>
      <trkpt lat="45.18437" lon="4.81408">
        <ele>77.43</ele>
        <time>2017-03-26T13:51:10Z</time>
      </trkpt>
      <trkpt lat="45.18437" lon="4.81408">
        <ele>77.43</ele>
        <time>2017-03-26T13:51:11Z</time>
      </trkpt>
      <trkpt lat="45.18437" lon="4.81408">
        <ele>77.43</ele>
        <time>2017-03-26T13:51:12Z</time>
      </trkpt>
      <trkpt lat="45.18437" lon="4.81408">
        <ele>77.43</ele>
        <time>2017-03-26T13:51:13Z</time>
      </trkpt>
      <trkpt lat="45.18438" lon="4.81404">
        <ele>77.91</ele>
        <time>2017-03-26T13:51:14Z</time>
      </trkpt>
      <trkpt lat="45.18439" lon="4.81398">
        <ele>77.53</ele>
        <time>2017-03-26T13:51:15Z</time>
      </trkpt>
      <trkpt lat="45.18439" lon="4.81392">
        <ele>76.97</ele>
        <time>2017-03-26T13:51:16Z</time>
      </trkpt>
      <trkpt lat="45.18438" lon="4.81385">
        <ele>76.46</ele>
        <time>2017-03-26T13:51:17Z</time>
      </trkpt>
      <trkpt lat="45.18436" lon="4.8138">
        <ele>75.88</ele>
        <time>2017-03-26T13:51:18Z</time>
      </trkpt>
      <trkpt lat="45.18432" lon="4.81376">
        <ele>75.36</ele>
        <time>2017-03-26T13:51:19Z</time>
      </trkpt>
      <trkpt lat="45.18428" lon="4.81374">
        <ele>74.78</ele>
        <time>2017-03-26T13:51:20Z</time>
      </trkpt>
      <trkpt lat="45.18422" lon="4.81375">
        <ele>74.18</ele>
        <time>2017-03-26T13:51:21Z</time>
      </trkpt>
      <trkpt lat="45.18417" lon="4.81375">
        <ele>73.66</ele>
        <time>2017-03-26T13:51:22Z</time>
      </trkpt>
      <trkpt lat="45.1841" lon="4.81375">
        <ele>73.08</ele>
        <time>2017-03-26T13:51:23Z</time>
      </trkpt>
      <trkpt lat="45.18401" lon="4.81376">
        <ele>72.56</ele>
        <time>2017-03-26T13:51:24Z</time>
      </trkpt>
      <trkpt lat="45.18393" lon="4.81376">
        <ele>71.98</ele>
        <time>2017-03-26T13:51:25Z</time>
      </trkpt>
      <trkpt lat="45.18385" lon="4.81377">
        <ele>71.38</ele>
        <time>2017-03-26T13:51:26Z</time>
      </trkpt>
      <trkpt lat="45.18376" lon="4.81378">
        <ele>70.86</ele>
        <time>2017-03-26T13:51:27Z</time>
      </trkpt>
      <trkpt lat="45.18367" lon="4.8138">
        <ele>70.28</ele>
        <time>2017-03-26T13:51:28Z</time>
      </trkpt>
      <trkpt lat="45.18358" lon="4.81382">
        <ele>69.76</ele>
        <time>2017-03-26T13:51:29Z</time>
      </trkpt>
      <trkpt lat="45.18348" lon="4.81385">
        <ele>69.18</ele>
        <time>2017-03-26T13:51:30Z</time>
      </trkpt>
      <trkpt lat="45.18339" lon="4.81387">
        <ele>68.58</ele>
        <time>2017-03-26T13:51:31Z</time>
      </trkpt>
      <trkpt lat="45.18329" lon="4.81389">
        <ele>68.06</ele>
        <time>2017-03-26T13:51:32Z</time>
      </trkpt>
      <trkpt lat="45.18319" lon="4.8139">
        <ele>67.48</ele>
        <time>2017-03-26T13:51:33Z</time>
      </trkpt>
      <trkpt lat="45.18309" lon="4.81392">
        <ele>66.96</ele>
        <time>2017-03-26T13:51:34Z</time>
      </trkpt>
      <trkpt lat="45.18299" lon="4.81394">
        <ele>66.38</ele>
        <time>2017-03-26T13:51:35Z</time>
      </trkpt>
      <trkpt lat="45.18289" lon="4.81396">
        <ele>65.86</ele>
        <time>2017-03-26T13:51:36Z</time>
      </trkpt>
      <trkpt lat="45.18279" lon="4.81397">
        <ele>65.36</ele>
        <time>2017-03-26T13:51:37Z</time>
      </trkpt>
      <trkpt lat="45.18269" lon="4.81397">
        <ele>64.78</ele>
        <time>2017-03-26T13:51:38Z</time>
      </trkpt>
      <trkpt lat="45.18259" lon="4.81397">
        <ele>64.26</ele>
        <time>2017-03-26T13:51:39Z</time>
      </trkpt>
      <trkpt lat="45.18249" lon="4.81398">
        <ele>63.76</ele>
        <time>2017-03-26T13:51:40Z</time>
      </trkpt>
      <trkpt lat="45.18238" lon="4.81399">
        <ele>63.26</ele>
        <time>2017-03-26T13:51:41Z</time>
      </trkpt>
      <trkpt lat="45.18228" lon="4.814">
        <ele>62.76</ele>
        <time>2017-03-26T13:51:42Z</time>
      </trkpt>
      <trkpt lat="45.18219" lon="4.81401">
        <ele>62.26</ele>
        <time>2017-03-26T13:51:43Z</time>
      </trkpt>
      <trkpt lat="45.18209" lon="4.81402">
        <ele>61.76</ele>
        <time>2017-03-26T13:51:44Z</time>
      </trkpt>
      <trkpt lat="45.18199" lon="4.81403">
        <ele>61.26</ele>
        <time>2017-03-26T13:51:45Z</time>
      </trkpt>
      <trkpt lat="45.18189" lon="4.81405">
        <ele>60.67</ele>
        <time>2017-03-26T13:51:46Z</time>
      </trkpt>
      <trkpt lat="45.18179" lon="4.81406">
        <ele>60.16</ele>
        <time>2017-03-26T13:51:47Z</time>
      </trkpt>
      <trkpt lat="45.18169" lon="4.81408">
        <ele>59.66</ele>
        <time>2017-03-26T13:51:48Z</time>
      </trkpt>
      <trkpt lat="45.1816" lon="4.8141">
        <ele>59.16</ele>
        <time>2017-03-26T13:51:49Z</time>
      </trkpt>
      <trkpt lat="45.18151" lon="4.81412">
        <ele>58.66</ele>
        <time>2017-03-26T13:51:50Z</time>
      </trkpt>
      <trkpt lat="45.18142" lon="4.81413">
        <ele>58.16</ele>
        <time>2017-03-26T13:51:51Z</time>
      </trkpt>
      <trkpt lat="45.18133" lon="4.81414">
        <ele>57.66</ele>
        <time>2017-03-26T13:51:52Z</time>
      </trkpt>
      <trkpt lat="45.18124" lon="4.81416">
        <ele>57.15</ele>
        <time>2017-03-26T13:51:53Z</time>
      </trkpt>
      <trkpt lat="45.18115" lon="4.81417">
        <ele>56.65</ele>
        <time>2017-03-26T13:51:54Z</time>
      </trkpt>
      <trkpt lat="45.18105" lon="4.81417">
        <ele>56.15</ele>
        <time>2017-03-26T13:51:55Z</time>
      </trkpt>
      <trkpt lat="45.18096" lon="4.81417">
        <ele>55.65</ele>
        <time>2017-03-26T13:51:56Z</time>
      </trkpt>
      <trkpt lat="45.18086" lon="4.81416">
        <ele>55.24</ele>
        <time>2017-03-26T13:51:57Z</time>
      </trkpt>
      <trkpt lat="45.18076" lon="4.81416">
        <ele>54.75</ele>
        <time>2017-03-26T13:51:58Z</time>
      </trkpt>
      <trkpt lat="45.18066" lon="4.81415">
        <ele>54.25</ele>
        <time>2017-03-26T13:51:59Z</time>
      </trkpt>
      <trkpt lat="45.18055" lon="4.81413">
        <ele>53.83</ele>
        <time>2017-03-26T13:52:00Z</time>
      </trkpt>
      <trkpt lat="45.18045" lon="4.81411">
        <ele>53.35</ele>
        <time>2017-03-26T13:52:01Z</time>
      </trkpt>
      <trkpt lat="45.18035" lon="4.81409">
        <ele>52.85</ele>
        <time>2017-03-26T13:52:02Z</time>
      </trkpt>
      <trkpt lat="45.18025" lon="4.81407">
        <ele>52.35</ele>
        <time>2017-03-26T13:52:03Z</time>
      </trkpt>
      <trkpt lat="45.18015" lon="4.81405">
        <ele>51.85</ele>
        <time>2017-03-26T13:52:04Z</time>
      </trkpt>
      <trkpt lat="45.18004" lon="4.81402">
        <ele>51.43</ele>
        <time>2017-03-26T13:52:05Z</time>
      </trkpt>
      <trkpt lat="45.17995" lon="4.81399">
        <ele>50.95</ele>
        <time>2017-03-26T13:52:06Z</time>
      </trkpt>
      <trkpt lat="45.17985" lon="4.81395">
        <ele>50.53</ele>
        <time>2017-03-26T13:52:07Z</time>
      </trkpt>
      <trkpt lat="45.17975" lon="4.81392">
        <ele>50.13</ele>
        <time>2017-03-26T13:52:08Z</time>
      </trkpt>
      <trkpt lat="45.17965" lon="4.81388">
        <ele>49.65</ele>
        <time>2017-03-26T13:52:09Z</time>
      </trkpt>
      <trkpt lat="45.17955" lon="4.81384">
        <ele>49.15</ele>
        <time>2017-03-26T13:52:10Z</time>
      </trkpt>
      <trkpt lat="45.17945" lon="4.81381">
        <ele>48.73</ele>
        <time>2017-03-26T13:52:11Z</time>
      </trkpt>
      <trkpt lat="45.17935" lon="4.81377">
        <ele>48.25</ele>
        <time>2017-03-26T13:52:12Z</time>
      </trkpt>
      <trkpt lat="45.17925" lon="4.81373">
        <ele>47.83</ele>
        <time>2017-03-26T13:52:13Z</time>
      </trkpt>
      <trkpt lat="45.17915" lon="4.81369">
        <ele>47.43</ele>
        <time>2017-03-26T13:52:14Z</time>
      </trkpt>
      <trkpt lat="45.17906" lon="4.81365">
        <ele>47.03</ele>
        <time>2017-03-26T13:52:15Z</time>
      </trkpt>
      <trkpt lat="45.17895" lon="4.8136">
        <ele>46.71</ele>
        <time>2017-03-26T13:52:16Z</time>
      </trkpt>
      <trkpt lat="45.17885" lon="4.81354">
        <ele>46.33</ele>
        <time>2017-03-26T13:52:17Z</time>
      </trkpt>
      <trkpt lat="45.17874" lon="4.81349">
        <ele>45.93</ele>
        <time>2017-03-26T13:52:18Z</time>
      </trkpt>
      <trkpt lat="45.17864" lon="4.81345">
        <ele>45.53</ele>
        <time>2017-03-26T13:52:19Z</time>
      </trkpt>
      <trkpt lat="45.17854" lon="4.81342">
        <ele>45.13</ele>
        <time>2017-03-26T13:52:20Z</time>
      </trkpt>
      <trkpt lat="45.17843" lon="4.81338">
        <ele>44.73</ele>
        <time>2017-03-26T13:52:21Z</time>
      </trkpt>
      <trkpt lat="45.17833" lon="4.81335">
        <ele>44.33</ele>
        <time>2017-03-26T13:52:22Z</time>
      </trkpt>
      <trkpt lat="45.17822" lon="4.81332">
        <ele>43.93</ele>
        <time>2017-03-26T13:52:23Z</time>
      </trkpt>
      <trkpt lat="45.17812" lon="4.81329">
        <ele>43.53</ele>
        <time>2017-03-26T13:52:24Z</time>
      </trkpt>
      <trkpt lat="45.17803" lon="4.81327">
        <ele>43.13</ele>
        <time>2017-03-26T13:52:25Z</time>
      </trkpt>
      <trkpt lat="45.17793" lon="4.81326">
        <ele>42.73</ele>
        <time>2017-03-26T13:52:26Z</time>
      </trkpt>
      <trkpt lat="45.17784" lon="4.81325">
        <ele>42.49</ele>
        <time>2017-03-26T13:52:27Z</time>
      </trkpt>
      <trkpt lat="45.17775" lon="4.81323">
        <ele>42.28</ele>
        <time>2017-03-26T13:52:28Z</time>
      </trkpt>
      <trkpt lat="45.17765" lon="4.81323">
        <ele>42</ele>
        <time>2017-03-26T13:52:29Z</time>
      </trkpt>
      <trkpt lat="45.17754" lon="4.81322">
        <ele>41.7</ele>
        <time>2017-03-26T13:52:30Z</time>
      </trkpt>
      <trkpt lat="45.17744" lon="4.81323">
        <ele>41.4</ele>
        <time>2017-03-26T13:52:31Z</time>
      </trkpt>
      <trkpt lat="45.17734" lon="4.81323">
        <ele>41.1</ele>
        <time>2017-03-26T13:52:32Z</time>
      </trkpt>
      <trkpt lat="45.17724" lon="4.81325">
        <ele>40.8</ele>
        <time>2017-03-26T13:52:33Z</time>
      </trkpt>
      <trkpt lat="45.17714" lon="4.81327">
        <ele>40.42</ele>
        <time>2017-03-26T13:52:34Z</time>
      </trkpt>
      <trkpt lat="45.17704" lon="4.81329">
        <ele>40.03</ele>
        <time>2017-03-26T13:52:35Z</time>
      </trkpt>
      <trkpt lat="45.17695" lon="4.81332">
        <ele>39.63</ele>
        <time>2017-03-26T13:52:36Z</time>
      </trkpt>
      <trkpt lat="45.17686" lon="4.81335">
        <ele>39.47</ele>
        <time>2017-03-26T13:52:37Z</time>
      </trkpt>
      <trkpt lat="45.1768" lon="4.81338">
        <ele>39.2</ele>
        <time>2017-03-26T13:52:38Z</time>
      </trkpt>
      <trkpt lat="45.17677" lon="4.81342">
        <ele>38.98</ele>
        <time>2017-03-26T13:52:39Z</time>
      </trkpt>
      <trkpt lat="45.17677" lon="4.81348">
        <ele>38.7</ele>
        <time>2017-03-26T13:52:40Z</time>
      </trkpt>
      <trkpt lat="45.17677" lon="4.81354">
        <ele>38.8</ele>
        <time>2017-03-26T13:52:41Z</time>
      </trkpt>
      <trkpt lat="45.1768" lon="4.81362">
        <ele>38.66</ele>
        <time>2017-03-26T13:52:42Z</time>
      </trkpt>
      <trkpt lat="45.17683" lon="4.81371">
        <ele>38.56</ele>
        <time>2017-03-26T13:52:43Z</time>
      </trkpt>
      <trkpt lat="45.17687" lon="4.8138">
        <ele>38.46</ele>
        <time>2017-03-26T13:52:44Z</time>
      </trkpt>
      <trkpt lat="45.1769" lon="4.8139">
        <ele>38.52</ele>
        <time>2017-03-26T13:52:45Z</time>
      </trkpt>
      <trkpt lat="45.17694" lon="4.81402">
        <ele>38.61</ele>
        <time>2017-03-26T13:52:46Z</time>
      </trkpt>
      <trkpt lat="45.17698" lon="4.81413">
        <ele>38.71</ele>
        <time>2017-03-26T13:52:47Z</time>
      </trkpt>
      <trkpt lat="45.17701" lon="4.81424">
        <ele>38.65</ele>
        <time>2017-03-26T13:52:48Z</time>
      </trkpt>
      <trkpt lat="45.17704" lon="4.81434">
        <ele>38.63</ele>
        <time>2017-03-26T13:52:49Z</time>
      </trkpt>
      <trkpt lat="45.17707" lon="4.81443">
        <ele>38.55</ele>
        <time>2017-03-26T13:52:50Z</time>
      </trkpt>
      <trkpt lat="45.1771" lon="4.81449">
        <ele>38.45</ele>
        <time>2017-03-26T13:52:51Z</time>
      </trkpt>
      <trkpt lat="45.17709" lon="4.81453">
        <ele>38.27</ele>
        <time>2017-03-26T13:52:52Z</time>
      </trkpt>
      <trkpt lat="45.17709" lon="4.81455">
        <ele>38.08</ele>
        <time>2017-03-26T13:52:53Z</time>
      </trkpt>
      <trkpt lat="45.17708" lon="4.81457">
        <ele>37.88</ele>
        <time>2017-03-26T13:52:54Z</time>
      </trkpt>
      <trkpt lat="45.17707" lon="4.81458">
        <ele>37.68</ele>
        <time>2017-03-26T13:52:55Z</time>
      </trkpt>
      <trkpt lat="45.17705" lon="4.8146">
        <ele>37.56</ele>
        <time>2017-03-26T13:52:56Z</time>
      </trkpt>
      <trkpt lat="45.17704" lon="4.8146">
        <ele>37.3</ele>
        <time>2017-03-26T13:52:57Z</time>
      </trkpt>
      <trkpt lat="45.17703" lon="4.81461">
        <ele>37.16</ele>
        <time>2017-03-26T13:52:58Z</time>
      </trkpt>
      <trkpt lat="45.17701" lon="4.81461">
        <ele>37.06</ele>
        <time>2017-03-26T13:52:59Z</time>
      </trkpt>
      <trkpt lat="45.177" lon="4.81461">
        <ele>36.88</ele>
        <time>2017-03-26T13:53:00Z</time>
      </trkpt>
      <trkpt lat="45.177" lon="4.81461">
        <ele>36.84</ele>
        <time>2017-03-26T13:53:01Z</time>
      </trkpt>
      <trkpt lat="45.177" lon="4.81461">
        <ele>36.83</ele>
        <time>2017-03-26T13:53:02Z</time>
      </trkpt>
      <trkpt lat="45.177" lon="4.81461">
        <ele>36.83</ele>
        <time>2017-03-26T13:53:03Z</time>
      </trkpt>
      <trkpt lat="45.177" lon="4.81461">
        <ele>36.83</ele>
        <time>2017-03-26T13:53:04Z</time>
      </trkpt>
      <trkpt lat="45.177" lon="4.81461">
        <ele>36.83</ele>
        <time>2017-03-26T13:53:05Z</time>
      </trkpt>
      <trkpt lat="45.177" lon="4.81461">
        <ele>36.83</ele>
        <time>2017-03-26T13:53:06Z</time>
      </trkpt>
      <trkpt lat="45.177" lon="4.81461">
        <ele>36.83</ele>
        <time>2017-03-26T13:53:07Z</time>
      </trkpt>
      <trkpt lat="45.177" lon="4.81461">
        <ele>36.83</ele>
        <time>2017-03-26T13:53:08Z</time>
      </trkpt>
      <trkpt lat="45.177" lon="4.81461">
        <ele>36.83</ele>
        <time>2017-03-26T13:53:09Z</time>
      </trkpt>
      <trkpt lat="45.17694" lon="4.8147">
        <ele>36.75</ele>
        <time>2017-03-26T13:53:10Z</time>
      </trkpt>
      <trkpt lat="45.17693" lon="4.81475">
        <ele>36.81</ele>
        <time>2017-03-26T13:53:11Z</time>
      </trkpt>
      <trkpt lat="45.17694" lon="4.8148">
        <ele>37.07</ele>
        <time>2017-03-26T13:53:12Z</time>
      </trkpt>
      <trkpt lat="45.17695" lon="4.81487">
        <ele>37.2</ele>
        <time>2017-03-26T13:53:13Z</time>
      </trkpt>
      <trkpt lat="45.17695" lon="4.81494">
        <ele>37.3</ele>
        <time>2017-03-26T13:53:14Z</time>
      </trkpt>
      <trkpt lat="45.17695" lon="4.81501">
        <ele>37.4</ele>
        <time>2017-03-26T13:53:15Z</time>
      </trkpt>
      <trkpt lat="45.17693" lon="4.8151">
        <ele>37.58</ele>
        <time>2017-03-26T13:53:16Z</time>
      </trkpt>
      <trkpt lat="45.17692" lon="4.81519">
        <ele>37.7</ele>
        <time>2017-03-26T13:53:17Z</time>
      </trkpt>
      <trkpt lat="45.1769" lon="4.81528">
        <ele>37.8</ele>
        <time>2017-03-26T13:53:18Z</time>
      </trkpt>
      <trkpt lat="45.17689" lon="4.81537">
        <ele>37.82</ele>
        <time>2017-03-26T13:53:19Z</time>
      </trkpt>
      <trkpt lat="45.17687" lon="4.81546">
        <ele>37.83</ele>
        <time>2017-03-26T13:53:20Z</time>
      </trkpt>
      <trkpt lat="45.17686" lon="4.81554">
        <ele>37.83</ele>
        <time>2017-03-26T13:53:21Z</time>
      </trkpt>
      <trkpt lat="45.17685" lon="4.81562">
        <ele>37.91</ele>
        <time>2017-03-26T13:53:22Z</time>
      </trkpt>
      <trkpt lat="45.17685" lon="4.81571">
        <ele>38.09</ele>
        <time>2017-03-26T13:53:23Z</time>
      </trkpt>
      <trkpt lat="45.17684" lon="4.81581">
        <ele>38.12</ele>
        <time>2017-03-26T13:53:24Z</time>
      </trkpt>
      <trkpt lat="45.17682" lon="4.81592">
        <ele>38.21</ele>
        <time>2017-03-26T13:53:25Z</time>
      </trkpt>
      <trkpt lat="45.17682" lon="4.81603">
        <ele>38.23</ele>
        <time>2017-03-26T13:53:26Z</time>
      </trkpt>
      <trkpt lat="45.17682" lon="4.81616">
        <ele>38.31</ele>
        <time>2017-03-26T13:53:27Z</time>
      </trkpt>
      <trkpt lat="45.17683" lon="4.81629">
        <ele>38.33</ele>
        <time>2017-03-26T13:53:28Z</time>
      </trkpt>
      <trkpt lat="45.17684" lon="4.81641">
        <ele>38.33</ele>
        <time>2017-03-26T13:53:29Z</time>
      </trkpt>
      <trkpt lat="45.17685" lon="4.81655">
        <ele>38.25</ele>
        <time>2017-03-26T13:53:30Z</time>
      </trkpt>
      <trkpt lat="45.17685" lon="4.81669">
        <ele>38.23</ele>
        <time>2017-03-26T13:53:31Z</time>
      </trkpt>
      <trkpt lat="45.17685" lon="4.81683">
        <ele>38.31</ele>
        <time>2017-03-26T13:53:32Z</time>
      </trkpt>
      <trkpt lat="45.17694" lon="4.81693">
        <ele>39.53</ele>
        <time>2017-03-26T13:53:33Z</time>
      </trkpt>
      <trkpt lat="45.17699" lon="4.81706">
        <ele>40.81</ele>
        <time>2017-03-26T13:53:34Z</time>
      </trkpt>
      <trkpt lat="45.177" lon="4.81721">
        <ele>41.55</ele>
        <time>2017-03-26T13:53:35Z</time>
      </trkpt>
      <trkpt lat="45.17701" lon="4.81736">
        <ele>42.01</ele>
        <time>2017-03-26T13:53:36Z</time>
      </trkpt>
      <trkpt lat="45.17701" lon="4.8175">
        <ele>42.27</ele>
        <time>2017-03-26T13:53:37Z</time>
      </trkpt>
      <trkpt lat="45.17699" lon="4.81762">
        <ele>42.48</ele>
        <time>2017-03-26T13:53:38Z</time>
      </trkpt>
      <trkpt lat="45.17699" lon="4.81774">
        <ele>42.76</ele>
        <time>2017-03-26T13:53:39Z</time>
      </trkpt>
      <trkpt lat="45.17696" lon="4.81786">
        <ele>43.06</ele>
        <time>2017-03-26T13:53:40Z</time>
      </trkpt>
      <trkpt lat="45.17695" lon="4.81798">
        <ele>43.36</ele>
        <time>2017-03-26T13:53:41Z</time>
      </trkpt>
      <trkpt lat="45.17693" lon="4.81811">
        <ele>43.58</ele>
        <time>2017-03-26T13:53:42Z</time>
      </trkpt>
      <trkpt lat="45.17691" lon="4.81823">
        <ele>43.78</ele>
        <time>2017-03-26T13:53:43Z</time>
      </trkpt>
      <trkpt lat="45.17687" lon="4.81835">
        <ele>44.46</ele>
        <time>2017-03-26T13:53:44Z</time>
      </trkpt>
      <trkpt lat="45.17684" lon="4.81848">
        <ele>44.92</ele>
        <time>2017-03-26T13:53:45Z</time>
      </trkpt>
      <trkpt lat="45.17681" lon="4.8186">
        <ele>45.25</ele>
        <time>2017-03-26T13:53:46Z</time>
      </trkpt>
      <trkpt lat="45.17678" lon="4.81872">
        <ele>45.55</ele>
        <time>2017-03-26T13:53:47Z</time>
      </trkpt>
      <trkpt lat="45.17675" lon="4.81883">
        <ele>45.93</ele>
        <time>2017-03-26T13:53:48Z</time>
      </trkpt>
      <trkpt lat="45.17672" lon="4.81894">
        <ele>46.17</ele>
        <time>2017-03-26T13:53:49Z</time>
      </trkpt>
      <trkpt lat="45.17667" lon="4.81906">
        <ele>46.46</ele>
        <time>2017-03-26T13:53:50Z</time>
      </trkpt>
      <trkpt lat="45.17662" lon="4.81917">
        <ele>46.76</ele>
        <time>2017-03-26T13:53:51Z</time>
      </trkpt>
      <trkpt lat="45.17657" lon="4.81928">
        <ele>47.06</ele>
        <time>2017-03-26T13:53:52Z</time>
      </trkpt>
      <trkpt lat="45.17652" lon="4.81939">
        <ele>47.36</ele>
        <time>2017-03-26T13:53:53Z</time>
      </trkpt>
      <trkpt lat="45.17645" lon="4.8195">
        <ele>47.5</ele>
        <time>2017-03-26T13:53:54Z</time>
      </trkpt>
      <trkpt lat="45.17638" lon="4.8196">
        <ele>47.68</ele>
        <time>2017-03-26T13:53:55Z</time>
      </trkpt>
      <trkpt lat="45.17631" lon="4.81971">
        <ele>47.8</ele>
        <time>2017-03-26T13:53:56Z</time>
      </trkpt>
      <trkpt lat="45.17625" lon="4.81981">
        <ele>47.9</ele>
        <time>2017-03-26T13:53:57Z</time>
      </trkpt>
      <trkpt lat="45.17619" lon="4.81991">
        <ele>48.08</ele>
        <time>2017-03-26T13:53:58Z</time>
      </trkpt>
      <trkpt lat="45.17613" lon="4.82001">
        <ele>48.28</ele>
        <time>2017-03-26T13:53:59Z</time>
      </trkpt>
      <trkpt lat="45.17606" lon="4.82012">
        <ele>48.64</ele>
        <time>2017-03-26T13:54:00Z</time>
      </trkpt>
      <trkpt lat="45.176" lon="4.82025">
        <ele>49.03</ele>
        <time>2017-03-26T13:54:01Z</time>
      </trkpt>
      <trkpt lat="45.17594" lon="4.82037">
        <ele>49.27</ele>
        <time>2017-03-26T13:54:02Z</time>
      </trkpt>
      <trkpt lat="45.17588" lon="4.8205">
        <ele>49.48</ele>
        <time>2017-03-26T13:54:03Z</time>
      </trkpt>
      <trkpt lat="45.17582" lon="4.82062">
        <ele>49.76</ele>
        <time>2017-03-26T13:54:04Z</time>
      </trkpt>
      <trkpt lat="45.17575" lon="4.82074">
        <ele>49.98</ele>
        <time>2017-03-26T13:54:05Z</time>
      </trkpt>
      <trkpt lat="45.17568" lon="4.82085">
        <ele>50.26</ele>
        <time>2017-03-26T13:54:06Z</time>
      </trkpt>
      <trkpt lat="45.17559" lon="4.82095">
        <ele>50.72</ele>
        <time>2017-03-26T13:54:07Z</time>
      </trkpt>
      <trkpt lat="45.1755" lon="4.82103">
        <ele>51.37</ele>
        <time>2017-03-26T13:54:08Z</time>
      </trkpt>
      <trkpt lat="45.17542" lon="4.82112">
        <ele>51.82</ele>
        <time>2017-03-26T13:54:09Z</time>
      </trkpt>
      <trkpt lat="45.17534" lon="4.82119">
        <ele>52.07</ele>
        <time>2017-03-26T13:54:10Z</time>
      </trkpt>
      <trkpt lat="45.17526" lon="4.82126">
        <ele>52.36</ele>
        <time>2017-03-26T13:54:11Z</time>
      </trkpt>
      <trkpt lat="45.17517" lon="4.8213">
        <ele>52.82</ele>
        <time>2017-03-26T13:54:12Z</time>
      </trkpt>
      <trkpt lat="45.1751" lon="4.82135">
        <ele>53.15</ele>
        <time>2017-03-26T13:54:13Z</time>
      </trkpt>
      <trkpt lat="45.17502" lon="4.82142">
        <ele>53.53</ele>
        <time>2017-03-26T13:54:14Z</time>
      </trkpt>
      <trkpt lat="45.17496" lon="4.82148">
        <ele>53.93</ele>
        <time>2017-03-26T13:54:15Z</time>
      </trkpt>
      <trkpt lat="45.17498" lon="4.82151">
        <ele>54.65</ele>
        <time>2017-03-26T13:54:16Z</time>
      </trkpt>
      <trkpt lat="45.17495" lon="4.82157">
        <ele>55.19</ele>
        <time>2017-03-26T13:54:17Z</time>
      </trkpt>
      <trkpt lat="45.1749" lon="4.82162">
        <ele>55.54</ele>
        <time>2017-03-26T13:54:18Z</time>
      </trkpt>
      <trkpt lat="45.17484" lon="4.82166">
        <ele>55.85</ele>
        <time>2017-03-26T13:54:19Z</time>
      </trkpt>
      <trkpt lat="45.17478" lon="4.8217">
        <ele>56.15</ele>
        <time>2017-03-26T13:54:20Z</time>
      </trkpt>
      <trkpt lat="45.17471" lon="4.82174">
        <ele>56.53</ele>
        <time>2017-03-26T13:54:21Z</time>
      </trkpt>
      <trkpt lat="45.17464" lon="4.82179">
        <ele>56.93</ele>
        <time>2017-03-26T13:54:22Z</time>
      </trkpt>
      <trkpt lat="45.17456" lon="4.82184">
        <ele>57.17</ele>
        <time>2017-03-26T13:54:23Z</time>
      </trkpt>
      <trkpt lat="45.17448" lon="4.82188">
        <ele>57.46</ele>
        <time>2017-03-26T13:54:24Z</time>
      </trkpt>
      <trkpt lat="45.17441" lon="4.82194">
        <ele>57.76</ele>
        <time>2017-03-26T13:54:25Z</time>
      </trkpt>
      <trkpt lat="45.17432" lon="4.82199">
        <ele>58.06</ele>
        <time>2017-03-26T13:54:26Z</time>
      </trkpt>
      <trkpt lat="45.17422" lon="4.82206">
        <ele>58.44</ele>
        <time>2017-03-26T13:54:27Z</time>
      </trkpt>
      <trkpt lat="45.17413" lon="4.82213">
        <ele>58.75</ele>
        <time>2017-03-26T13:54:28Z</time>
      </trkpt>
      <trkpt lat="45.17403" lon="4.8222">
        <ele>59.05</ele>
        <time>2017-03-26T13:54:29Z</time>
      </trkpt>
      <trkpt lat="45.17394" lon="4.82227">
        <ele>59.35</ele>
        <time>2017-03-26T13:54:30Z</time>
      </trkpt>
      <trkpt lat="45.17384" lon="4.82233">
        <ele>59.57</ele>
        <time>2017-03-26T13:54:31Z</time>
      </trkpt>
      <trkpt lat="45.17374" lon="4.8224">
        <ele>59.86</ele>
        <time>2017-03-26T13:54:32Z</time>
      </trkpt>
      <trkpt lat="45.17363" lon="4.82248">
        <ele>60.08</ele>
        <time>2017-03-26T13:54:33Z</time>
      </trkpt>
      <trkpt lat="45.17353" lon="4.82255">
        <ele>60.44</ele>
        <time>2017-03-26T13:54:34Z</time>
      </trkpt>
      <trkpt lat="45.17343" lon="4.82263">
        <ele>60.99</ele>
        <time>2017-03-26T13:54:35Z</time>
      </trkpt>
      <trkpt lat="45.17333" lon="4.82274">
        <ele>61.42</ele>
        <time>2017-03-26T13:54:36Z</time>
      </trkpt>
      <trkpt lat="45.17323" lon="4.82284">
        <ele>61.91</ele>
        <time>2017-03-26T13:54:37Z</time>
      </trkpt>
      <trkpt lat="45.17318" lon="4.82296">
        <ele>62.41</ele>
        <time>2017-03-26T13:54:38Z</time>
      </trkpt>
      <trkpt lat="45.17312" lon="4.82305">
        <ele>62.67</ele>
        <time>2017-03-26T13:54:39Z</time>
      </trkpt>
      <trkpt lat="45.17307" lon="4.82313">
        <ele>62.88</ele>
        <time>2017-03-26T13:54:40Z</time>
      </trkpt>
      <trkpt lat="45.17302" lon="4.82319">
        <ele>63.08</ele>
        <time>2017-03-26T13:54:41Z</time>
      </trkpt>
      <trkpt lat="45.17299" lon="4.82324">
        <ele>63.28</ele>
        <time>2017-03-26T13:54:42Z</time>
      </trkpt>
      <trkpt lat="45.17297" lon="4.82327">
        <ele>63.48</ele>
        <time>2017-03-26T13:54:43Z</time>
      </trkpt>
      <trkpt lat="45.17299" lon="4.82325">
        <ele>63.76</ele>
        <time>2017-03-26T13:54:44Z</time>
      </trkpt>
      <trkpt lat="45.17297" lon="4.82327">
        <ele>63.98</ele>
        <time>2017-03-26T13:54:45Z</time>
      </trkpt>
      <trkpt lat="45.17295" lon="4.82328">
        <ele>64.26</ele>
        <time>2017-03-26T13:54:46Z</time>
      </trkpt>
      <trkpt lat="45.17294" lon="4.82329">
        <ele>64.56</ele>
        <time>2017-03-26T13:54:47Z</time>
      </trkpt>
      <trkpt lat="45.17293" lon="4.82329">
        <ele>64.86</ele>
        <time>2017-03-26T13:54:48Z</time>
      </trkpt>
      <trkpt lat="45.17293" lon="4.82329">
        <ele>65.16</ele>
        <time>2017-03-26T13:54:49Z</time>
      </trkpt>
      <trkpt lat="45.17293" lon="4.82328">
        <ele>65.46</ele>
        <time>2017-03-26T13:54:50Z</time>
      </trkpt>
      <trkpt lat="45.17293" lon="4.82329">
        <ele>65.83</ele>
        <time>2017-03-26T13:54:51Z</time>
      </trkpt>
      <trkpt lat="45.17293" lon="4.82329">
        <ele>65.91</ele>
        <time>2017-03-26T13:54:52Z</time>
      </trkpt>
      <trkpt lat="45.17293" lon="4.82329">
        <ele>65.93</ele>
        <time>2017-03-26T13:54:53Z</time>
      </trkpt>
      <trkpt lat="45.17293" lon="4.82329">
        <ele>65.93</ele>
        <time>2017-03-26T13:54:54Z</time>
      </trkpt>
      <trkpt lat="45.17293" lon="4.82329">
        <ele>65.93</ele>
        <time>2017-03-26T13:54:55Z</time>
      </trkpt>
      <trkpt lat="45.17293" lon="4.82329">
        <ele>65.93</ele>
        <time>2017-03-26T13:54:56Z</time>
      </trkpt>
      <trkpt lat="45.17293" lon="4.82329">
        <ele>65.93</ele>
        <time>2017-03-26T13:54:57Z</time>
      </trkpt>
      <trkpt lat="45.17293" lon="4.82329">
        <ele>65.93</ele>
        <time>2017-03-26T13:54:58Z</time>
      </trkpt>
      <trkpt lat="45.17293" lon="4.82329">
        <ele>65.93</ele>
        <time>2017-03-26T13:54:59Z</time>
      </trkpt>
      <trkpt lat="45.17293" lon="4.82329">
        <ele>65.93</ele>
        <time>2017-03-26T13:55:00Z</time>
      </trkpt>
      <trkpt lat="45.17293" lon="4.82329">
        <ele>65.93</ele>
        <time>2017-03-26T13:55:01Z</time>
      </trkpt>
      <trkpt lat="45.17293" lon="4.82329">
        <ele>65.93</ele>
        <time>2017-03-26T13:55:02Z</time>
      </trkpt>
      <trkpt lat="45.17293" lon="4.82329">
        <ele>65.93</ele>
        <time>2017-03-26T13:55:03Z</time>
      </trkpt>
      <trkpt lat="45.17293" lon="4.82329">
        <ele>65.93</ele>
        <time>2017-03-26T13:55:04Z</time>
      </trkpt>
      <trkpt lat="45.17293" lon="4.82329">
        <ele>65.93</ele>
        <time>2017-03-26T13:55:05Z</time>
      </trkpt>
      <trkpt lat="45.17293" lon="4.82329">
        <ele>65.93</ele>
        <time>2017-03-26T13:55:06Z</time>
      </trkpt>
      <trkpt lat="45.17293" lon="4.82329">
        <ele>65.93</ele>
        <time>2017-03-26T13:55:07Z</time>
      </trkpt>
      <trkpt lat="45.17293" lon="4.82329">
        <ele>65.93</ele>
        <time>2017-03-26T13:55:08Z</time>
      </trkpt>
      <trkpt lat="45.17293" lon="4.82329">
        <ele>65.93</ele>
        <time>2017-03-26T13:55:09Z</time>
      </trkpt>
      <trkpt lat="45.17293" lon="4.82329">
        <ele>65.93</ele>
        <time>2017-03-26T13:55:10Z</time>
      </trkpt>
      <trkpt lat="45.17293" lon="4.82329">
        <ele>65.93</ele>
        <time>2017-03-26T13:55:11Z</time>
      </trkpt>
      <trkpt lat="45.17293" lon="4.82329">
        <ele>65.93</ele>
        <time>2017-03-26T13:55:12Z</time>
      </trkpt>
      <trkpt lat="45.17293" lon="4.82329">
        <ele>65.93</ele>
        <time>2017-03-26T13:55:13Z</time>
      </trkpt>
      <trkpt lat="45.17293" lon="4.82329">
        <ele>65.93</ele>
        <time>2017-03-26T13:55:14Z</time>
      </trkpt>
      <trkpt lat="45.17291" lon="4.8233">
        <ele>66.41</ele>
        <time>2017-03-26T13:55:15Z</time>
      </trkpt>
      <trkpt lat="45.17289" lon="4.82332">
        <ele>66.43</ele>
        <time>2017-03-26T13:55:16Z</time>
      </trkpt>
      <trkpt lat="45.17286" lon="4.82332">
        <ele>66.43</ele>
        <time>2017-03-26T13:55:17Z</time>
      </trkpt>
      <trkpt lat="45.17282" lon="4.82331">
        <ele>66.43</ele>
        <time>2017-03-26T13:55:18Z</time>
      </trkpt>
      <trkpt lat="45.17278" lon="4.82329">
        <ele>66.43</ele>
        <time>2017-03-26T13:55:19Z</time>
      </trkpt>
      <trkpt lat="45.17274" lon="4.82328">
        <ele>66.43</ele>
        <time>2017-03-26T13:55:20Z</time>
      </trkpt>
      <trkpt lat="45.1727" lon="4.82325">
        <ele>66.43</ele>
        <time>2017-03-26T13:55:21Z</time>
      </trkpt>
      <trkpt lat="45.17266" lon="4.82323">
        <ele>66.35</ele>
        <time>2017-03-26T13:55:22Z</time>
      </trkpt>
      <trkpt lat="45.17261" lon="4.8232">
        <ele>66.33</ele>
        <time>2017-03-26T13:55:23Z</time>
      </trkpt>
      <trkpt lat="45.17256" lon="4.82317">
        <ele>66.33</ele>
        <time>2017-03-26T13:55:24Z</time>
      </trkpt>
      <trkpt lat="45.17251" lon="4.82314">
        <ele>66.33</ele>
        <time>2017-03-26T13:55:25Z</time>
      </trkpt>
      <trkpt lat="45.17246" lon="4.82311">
        <ele>66.33</ele>
        <time>2017-03-26T13:55:26Z</time>
      </trkpt>
      <trkpt lat="45.17241" lon="4.82308">
        <ele>66.33</ele>
        <time>2017-03-26T13:55:27Z</time>
      </trkpt>
      <trkpt lat="45.17237" lon="4.82305">
        <ele>66.25</ele>
        <time>2017-03-26T13:55:28Z</time>
      </trkpt>
      <trkpt lat="45.17232" lon="4.82302">
        <ele>66.23</ele>
        <time>2017-03-26T13:55:29Z</time>
      </trkpt>
      <trkpt lat="45.17043" lon="4.82059">
        <ele>70.87</ele>
        <time>2017-03-26T13:55:46Z</time>
      </trkpt>
      <trkpt lat="45.17042" lon="4.82049">
        <ele>72.04</ele>
        <time>2017-03-26T13:55:47Z</time>
      </trkpt>
      <trkpt lat="45.1704" lon="4.82039">
        <ele>71.87</ele>
        <time>2017-03-26T13:55:48Z</time>
      </trkpt>
      <trkpt lat="45.17037" lon="4.82031">
        <ele>71.12</ele>
        <time>2017-03-26T13:55:49Z</time>
      </trkpt>
      <trkpt lat="45.1703" lon="4.82029">
        <ele>71.37</ele>
        <time>2017-03-26T13:55:50Z</time>
      </trkpt>
      <trkpt lat="45.17024" lon="4.82031">
        <ele>70.94</ele>
        <time>2017-03-26T13:55:51Z</time>
      </trkpt>
      <trkpt lat="45.17019" lon="4.82038">
        <ele>68.85</ele>
        <time>2017-03-26T13:55:52Z</time>
      </trkpt>
      <trkpt lat="45.17017" lon="4.82046">
        <ele>67.47</ele>
        <time>2017-03-26T13:55:53Z</time>
      </trkpt>
      <trkpt lat="45.17016" lon="4.82055">
        <ele>66</ele>
        <time>2017-03-26T13:55:54Z</time>
      </trkpt>
      <trkpt lat="45.17022" lon="4.82062">
        <ele>65.38</ele>
        <time>2017-03-26T13:55:55Z</time>
      </trkpt>
      <trkpt lat="45.17025" lon="4.82069">
        <ele>64.94</ele>
        <time>2017-03-26T13:55:56Z</time>
      </trkpt>
      <trkpt lat="45.17029" lon="4.82075">
        <ele>65.41</ele>
        <time>2017-03-26T13:55:57Z</time>
      </trkpt>
      <trkpt lat="45.17034" lon="4.8208">
        <ele>65.75</ele>
        <time>2017-03-26T13:55:58Z</time>
      </trkpt>
      <trkpt lat="45.17039" lon="4.82085">
        <ele>65.73</ele>
        <time>2017-03-26T13:55:59Z</time>
      </trkpt>
      <trkpt lat="45.17044" lon="4.82091">
        <ele>65.73</ele>
        <time>2017-03-26T13:56:00Z</time>
      </trkpt>
      <trkpt lat="45.17049" lon="4.821">
        <ele>66.21</ele>
        <time>2017-03-26T13:56:01Z</time>
      </trkpt>
      <trkpt lat="45.17054" lon="4.82109">
        <ele>66.39</ele>
        <time>2017-03-26T13:56:02Z</time>
      </trkpt>
      <trkpt lat="45.17059" lon="4.82118">
        <ele>66.42</ele>
        <time>2017-03-26T13:56:03Z</time>
      </trkpt>
      <trkpt lat="45.17064" lon="4.82127">
        <ele>66.35</ele>
        <time>2017-03-26T13:56:04Z</time>
      </trkpt>
      <trkpt lat="45.17069" lon="4.82136">
        <ele>66.17</ele>
        <time>2017-03-26T13:56:05Z</time>
      </trkpt>
      <trkpt lat="45.17075" lon="4.82145">
        <ele>66.06</ele>
        <time>2017-03-26T13:56:06Z</time>
      </trkpt>
      <trkpt lat="45.1708" lon="4.82154">
        <ele>65.96</ele>
        <time>2017-03-26T13:56:07Z</time>
      </trkpt>
      <trkpt lat="45.17085" lon="4.82163">
        <ele>65.86</ele>
        <time>2017-03-26T13:56:08Z</time>
      </trkpt>
      <trkpt lat="45.1709" lon="4.82172">
        <ele>65.76</ele>
        <time>2017-03-26T13:56:09Z</time>
      </trkpt>
      <trkpt lat="45.17095" lon="4.82181">
        <ele>65.66</ele>
        <time>2017-03-26T13:56:10Z</time>
      </trkpt>
      <trkpt lat="45.17101" lon="4.82191">
        <ele>65.56</ele>
        <time>2017-03-26T13:56:11Z</time>
      </trkpt>
      <trkpt lat="45.17106" lon="4.822">
        <ele>65.46</ele>
        <time>2017-03-26T13:56:12Z</time>
      </trkpt>
      <trkpt lat="45.17111" lon="4.82209">
        <ele>65.36</ele>
        <time>2017-03-26T13:56:13Z</time>
      </trkpt>
      <trkpt lat="45.17116" lon="4.82218">
        <ele>65.25</ele>
        <time>2017-03-26T13:56:14Z</time>
      </trkpt>
      <trkpt lat="45.17122" lon="4.82227">
        <ele>65.15</ele>
        <time>2017-03-26T13:56:15Z</time>
      </trkpt>
      <trkpt lat="45.17232" lon="4.82357">
        <ele>64.25</ele>
        <time>2017-03-26T13:56:19Z</time>
      </trkpt>
      <trkpt lat="45.17229" lon="4.82366">
        <ele>64.24</ele>
        <time>2017-03-26T13:56:20Z</time>
      </trkpt>
      <trkpt lat="45.17223" lon="4.82383">
        <ele>64.31</ele>
        <time>2017-03-26T13:56:21Z</time>
      </trkpt>
      <trkpt lat="45.17242" lon="4.82387">
        <ele>64.33</ele>
        <time>2017-03-26T13:56:22Z</time>
      </trkpt>
      <trkpt lat="45.17242" lon="4.82395">
        <ele>64.41</ele>
        <time>2017-03-26T13:56:23Z</time>
      </trkpt>
      <trkpt lat="45.17244" lon="4.82402">
        <ele>64.51</ele>
        <time>2017-03-26T13:56:24Z</time>
      </trkpt>
      <trkpt lat="45.17245" lon="4.82408">
        <ele>64.53</ele>
        <time>2017-03-26T13:56:25Z</time>
      </trkpt>
      <trkpt lat="45.17247" lon="4.82412">
        <ele>64.61</ele>
        <time>2017-03-26T13:56:26Z</time>
      </trkpt>
      <trkpt lat="45.17249" lon="4.82416">
        <ele>64.63</ele>
        <time>2017-03-26T13:56:27Z</time>
      </trkpt>
      <trkpt lat="45.17253" lon="4.82418">
        <ele>64.63</ele>
        <time>2017-03-26T13:56:28Z</time>
      </trkpt>
      <trkpt lat="45.17248" lon="4.82429">
        <ele>64.63</ele>
        <time>2017-03-26T13:56:29Z</time>
      </trkpt>
      <trkpt lat="45.17253" lon="4.82429">
        <ele>64.71</ele>
        <time>2017-03-26T13:56:30Z</time>
      </trkpt>
      <trkpt lat="45.17255" lon="4.82432">
        <ele>64.73</ele>
        <time>2017-03-26T13:56:31Z</time>
      </trkpt>
      <trkpt lat="45.17256" lon="4.82434">
        <ele>64.81</ele>
        <time>2017-03-26T13:56:32Z</time>
      </trkpt>
      <trkpt lat="45.17257" lon="4.82436">
        <ele>64.83</ele>
        <time>2017-03-26T13:56:33Z</time>
      </trkpt>
      <trkpt lat="45.17258" lon="4.82436">
        <ele>64.83</ele>
        <time>2017-03-26T13:56:34Z</time>
      </trkpt>
      <trkpt lat="45.17259" lon="4.82436">
        <ele>64.91</ele>
        <time>2017-03-26T13:56:35Z</time>
      </trkpt>
      <trkpt lat="45.17261" lon="4.82434">
        <ele>64.85</ele>
        <time>2017-03-26T13:56:36Z</time>
      </trkpt>
      <trkpt lat="45.17261" lon="4.82434">
        <ele>64.83</ele>
        <time>2017-03-26T13:56:37Z</time>
      </trkpt>
      <trkpt lat="45.17261" lon="4.82434">
        <ele>64.83</ele>
        <time>2017-03-26T13:56:38Z</time>
      </trkpt>
      <trkpt lat="45.17261" lon="4.82434">
        <ele>64.83</ele>
        <time>2017-03-26T13:56:39Z</time>
      </trkpt>
      <trkpt lat="45.17261" lon="4.82434">
        <ele>64.83</ele>
        <time>2017-03-26T13:56:40Z</time>
      </trkpt>
      <trkpt lat="45.17261" lon="4.82434">
        <ele>64.83</ele>
        <time>2017-03-26T13:56:41Z</time>
      </trkpt>
      <trkpt lat="45.17261" lon="4.82434">
        <ele>64.83</ele>
        <time>2017-03-26T13:56:42Z</time>
      </trkpt>
      <trkpt lat="45.17261" lon="4.82434">
        <ele>64.83</ele>
        <time>2017-03-26T13:56:43Z</time>
      </trkpt>
      <trkpt lat="45.17261" lon="4.82434">
        <ele>64.83</ele>
        <time>2017-03-26T13:56:44Z</time>
      </trkpt>
      <trkpt lat="45.17261" lon="4.82434">
        <ele>64.83</ele>
        <time>2017-03-26T13:56:45Z</time>
      </trkpt>
      <trkpt lat="45.17261" lon="4.82434">
        <ele>64.83</ele>
        <time>2017-03-26T13:56:46Z</time>
      </trkpt>
      <trkpt lat="45.17261" lon="4.82434">
        <ele>64.83</ele>
        <time>2017-03-26T13:56:47Z</time>
      </trkpt>
      <trkpt lat="45.17261" lon="4.82434">
        <ele>64.83</ele>
        <time>2017-03-26T13:56:48Z</time>
      </trkpt>
      <trkpt lat="45.17261" lon="4.82434">
        <ele>64.83</ele>
        <time>2017-03-26T13:56:49Z</time>
      </trkpt>
      <trkpt lat="45.17261" lon="4.82434">
        <ele>64.83</ele>
        <time>2017-03-26T13:56:50Z</time>
      </trkpt>
      <trkpt lat="45.17261" lon="4.82434">
        <ele>64.83</ele>
        <time>2017-03-26T13:56:51Z</time>
      </trkpt>
      <trkpt lat="45.17267" lon="4.82441">
        <ele>64.75</ele>
        <time>2017-03-26T13:56:52Z</time>
      </trkpt>
      <trkpt lat="45.17271" lon="4.82447">
        <ele>64.73</ele>
        <time>2017-03-26T13:56:53Z</time>
      </trkpt>
      <trkpt lat="45.17276" lon="4.82454">
        <ele>64.73</ele>
        <time>2017-03-26T13:56:54Z</time>
      </trkpt>
      <trkpt lat="45.17282" lon="4.82462">
        <ele>64.65</ele>
        <time>2017-03-26T13:56:55Z</time>
      </trkpt>
      <trkpt lat="45.1729" lon="4.82472">
        <ele>64.63</ele>
        <time>2017-03-26T13:56:56Z</time>
      </trkpt>
      <trkpt lat="45.17296" lon="4.82484">
        <ele>64.63</ele>
        <time>2017-03-26T13:56:57Z</time>
      </trkpt>
      <trkpt lat="45.17302" lon="4.82495">
        <ele>64.55</ele>
        <time>2017-03-26T13:56:58Z</time>
      </trkpt>
      <trkpt lat="45.17305" lon="4.82508">
        <ele>64.53</ele>
        <time>2017-03-26T13:56:59Z</time>
      </trkpt>
      <trkpt lat="45.17305" lon="4.82521">
        <ele>64.53</ele>
        <time>2017-03-26T13:57:00Z</time>
      </trkpt>
      <trkpt lat="45.17303" lon="4.82533">
        <ele>64.53</ele>
        <time>2017-03-26T13:57:01Z</time>
      </trkpt>
      <trkpt lat="45.17298" lon="4.82545">
        <ele>64.45</ele>
        <time>2017-03-26T13:57:02Z</time>
      </trkpt>
      <trkpt lat="45.17286" lon="4.82559">
        <ele>64.43</ele>
        <time>2017-03-26T13:57:03Z</time>
      </trkpt>
      <trkpt lat="45.17276" lon="4.82563">
        <ele>64.43</ele>
        <time>2017-03-26T13:57:04Z</time>
      </trkpt>
      <trkpt lat="45.17266" lon="4.82566">
        <ele>64.43</ele>
        <time>2017-03-26T13:57:05Z</time>
      </trkpt>
      <trkpt lat="45.17258" lon="4.82568">
        <ele>64.43</ele>
        <time>2017-03-26T13:57:06Z</time>
      </trkpt>
      <trkpt lat="45.17251" lon="4.82554">
        <ele>64.51</ele>
        <time>2017-03-26T13:57:07Z</time>
      </trkpt>
      <trkpt lat="45.17243" lon="4.8254">
        <ele>64.53</ele>
        <time>2017-03-26T13:57:08Z</time>
      </trkpt>
      <trkpt lat="45.17236" lon="4.82523">
        <ele>64.53</ele>
        <time>2017-03-26T13:57:09Z</time>
      </trkpt>
      <trkpt lat="45.17229" lon="4.82509">
        <ele>64.53</ele>
        <time>2017-03-26T13:57:10Z</time>
      </trkpt>
      <trkpt lat="45.1722" lon="4.82496">
        <ele>64.53</ele>
        <time>2017-03-26T13:57:11Z</time>
      </trkpt>
      <trkpt lat="45.1721" lon="4.82489">
        <ele>64.45</ele>
        <time>2017-03-26T13:57:12Z</time>
      </trkpt>
      <trkpt lat="45.17202" lon="4.82485">
        <ele>64.35</ele>
        <time>2017-03-26T13:57:13Z</time>
      </trkpt>
      <trkpt lat="45.17194" lon="4.82485">
        <ele>64.25</ele>
        <time>2017-03-26T13:57:14Z</time>
      </trkpt>
      <trkpt lat="45.17188" lon="4.82492">
        <ele>64.15</ele>
        <time>2017-03-26T13:57:15Z</time>
      </trkpt>
      <trkpt lat="45.17182" lon="4.82503">
        <ele>64.05</ele>
        <time>2017-03-26T13:57:16Z</time>
      </trkpt>
      <trkpt lat="45.17172" lon="4.8251">
        <ele>64.11</ele>
        <time>2017-03-26T13:57:17Z</time>
      </trkpt>
      <trkpt lat="45.17166" lon="4.82523">
        <ele>64.05</ele>
        <time>2017-03-26T13:57:18Z</time>
      </trkpt>
      <trkpt lat="45.17159" lon="4.82537">
        <ele>63.95</ele>
        <time>2017-03-26T13:57:19Z</time>
      </trkpt>
      <trkpt lat="45.17153" lon="4.82546">
        <ele>63.85</ele>
        <time>2017-03-26T13:57:20Z</time>
      </trkpt>
      <trkpt lat="45.17148" lon="4.82547">
        <ele>63.67</ele>
        <time>2017-03-26T13:57:21Z</time>
      </trkpt>
      <trkpt lat="45.17141" lon="4.82547">
        <ele>63.64</ele>
        <time>2017-03-26T13:57:22Z</time>
      </trkpt>
      <trkpt lat="45.17132" lon="4.82541">
        <ele>63.55</ele>
        <time>2017-03-26T13:57:23Z</time>
      </trkpt>
      <trkpt lat="45.17131" lon="4.82525">
        <ele>63.53</ele>
        <time>2017-03-26T13:57:24Z</time>
      </trkpt>
      <trkpt lat="45.17126" lon="4.8251">
        <ele>63.53</ele>
        <time>2017-03-26T13:57:25Z</time>
      </trkpt>
      <trkpt lat="45.17119" lon="4.82494">
        <ele>63.61</ele>
        <time>2017-03-26T13:57:26Z</time>
      </trkpt>
      <trkpt lat="45.17114" lon="4.82479">
        <ele>63.71</ele>
        <time>2017-03-26T13:57:27Z</time>
      </trkpt>
      <trkpt lat="45.17107" lon="4.82463">
        <ele>63.81</ele>
        <time>2017-03-26T13:57:28Z</time>
      </trkpt>
      <trkpt lat="45.17101" lon="4.82455">
        <ele>63.83</ele>
        <time>2017-03-26T13:57:29Z</time>
      </trkpt>
      <trkpt lat="45.17093" lon="4.82449">
        <ele>64.07</ele>
        <time>2017-03-26T13:57:30Z</time>
      </trkpt>
      <trkpt lat="45.17087" lon="4.82449">
        <ele>64.2</ele>
        <time>2017-03-26T13:57:31Z</time>
      </trkpt>
      <trkpt lat="45.17082" lon="4.82453">
        <ele>64.22</ele>
        <time>2017-03-26T13:57:32Z</time>
      </trkpt>
      <trkpt lat="45.1708" lon="4.82464">
        <ele>64.31</ele>
        <time>2017-03-26T13:57:33Z</time>
      </trkpt>
      <trkpt lat="45.17077" lon="4.82475">
        <ele>64.41</ele>
        <time>2017-03-26T13:57:34Z</time>
      </trkpt>
      <trkpt lat="45.17076" lon="4.82486">
        <ele>64.59</ele>
        <time>2017-03-26T13:57:35Z</time>
      </trkpt>
      <trkpt lat="45.17074" lon="4.82499">
        <ele>64.78</ele>
        <time>2017-03-26T13:57:36Z</time>
      </trkpt>
      <trkpt lat="45.17073" lon="4.82513">
        <ele>64.9</ele>
        <time>2017-03-26T13:57:37Z</time>
      </trkpt>
      <trkpt lat="45.17072" lon="4.82527">
        <ele>65.08</ele>
        <time>2017-03-26T13:57:38Z</time>
      </trkpt>
      <trkpt lat="45.17072" lon="4.8254">
        <ele>65.44</ele>
        <time>2017-03-26T13:57:39Z</time>
      </trkpt>
      <trkpt lat="45.1707" lon="4.82553">
        <ele>65.75</ele>
        <time>2017-03-26T13:57:40Z</time>
      </trkpt>
      <trkpt lat="45.17069" lon="4.82561">
        <ele>66.45</ele>
        <time>2017-03-26T13:57:41Z</time>
      </trkpt>
      <trkpt lat="45.17069" lon="4.82566">
        <ele>66.91</ele>
        <time>2017-03-26T13:57:42Z</time>
      </trkpt>
      <trkpt lat="45.1707" lon="4.82569">
        <ele>67.17</ele>
        <time>2017-03-26T13:57:43Z</time>
      </trkpt>
      <trkpt lat="45.1707" lon="4.82569">
        <ele>67.3</ele>
        <time>2017-03-26T13:57:44Z</time>
      </trkpt>
      <trkpt lat="45.1707" lon="4.82569">
        <ele>67.48</ele>
        <time>2017-03-26T13:57:45Z</time>
      </trkpt>
      <trkpt lat="45.1707" lon="4.82569">
        <ele>67.6</ele>
        <time>2017-03-26T13:57:46Z</time>
      </trkpt>
      <trkpt lat="45.1707" lon="4.82569">
        <ele>67.62</ele>
        <time>2017-03-26T13:57:47Z</time>
      </trkpt>
      <trkpt lat="45.1707" lon="4.82569">
        <ele>67.63</ele>
        <time>2017-03-26T13:57:48Z</time>
      </trkpt>
      <trkpt lat="45.1707" lon="4.82569">
        <ele>67.63</ele>
        <time>2017-03-26T13:57:49Z</time>
      </trkpt>
      <trkpt lat="45.1707" lon="4.82569">
        <ele>67.63</ele>
        <time>2017-03-26T13:57:50Z</time>
      </trkpt>
      <trkpt lat="45.1707" lon="4.82569">
        <ele>67.63</ele>
        <time>2017-03-26T13:57:51Z</time>
      </trkpt>
      <trkpt lat="45.1707" lon="4.82569">
        <ele>67.63</ele>
        <time>2017-03-26T13:57:52Z</time>
      </trkpt>
      <trkpt lat="45.1707" lon="4.82569">
        <ele>67.63</ele>
        <time>2017-03-26T13:57:53Z</time>
      </trkpt>
      <trkpt lat="45.1707" lon="4.82569">
        <ele>67.63</ele>
        <time>2017-03-26T13:57:54Z</time>
      </trkpt>
      <trkpt lat="45.1707" lon="4.82569">
        <ele>67.63</ele>
        <time>2017-03-26T13:57:55Z</time>
      </trkpt>
      <trkpt lat="45.1707" lon="4.82569">
        <ele>67.63</ele>
        <time>2017-03-26T13:57:56Z</time>
      </trkpt>
      <trkpt lat="45.1707" lon="4.82569">
        <ele>67.63</ele>
        <time>2017-03-26T13:57:57Z</time>
      </trkpt>
      <trkpt lat="45.1707" lon="4.82569">
        <ele>67.63</ele>
        <time>2017-03-26T13:57:58Z</time>
      </trkpt>
      <trkpt lat="45.1707" lon="4.82569">
        <ele>67.63</ele>
        <time>2017-03-26T13:57:59Z</time>
      </trkpt>
      <trkpt lat="45.1707" lon="4.82569">
        <ele>67.63</ele>
        <time>2017-03-26T13:58:00Z</time>
      </trkpt>
      <trkpt lat="45.1707" lon="4.82569">
        <ele>67.63</ele>
        <time>2017-03-26T13:58:01Z</time>
      </trkpt>
      <trkpt lat="45.1707" lon="4.82569">
        <ele>67.63</ele>
        <time>2017-03-26T13:58:02Z</time>
      </trkpt>
      <trkpt lat="45.1707" lon="4.82569">
        <ele>67.63</ele>
        <time>2017-03-26T13:58:03Z</time>
      </trkpt>
      <trkpt lat="45.1707" lon="4.82569">
        <ele>67.63</ele>
        <time>2017-03-26T13:58:04Z</time>
      </trkpt>
      <trkpt lat="45.1707" lon="4.82569">
        <ele>67.63</ele>
        <time>2017-03-26T13:58:05Z</time>
      </trkpt>
      <trkpt lat="45.1707" lon="4.82569">
        <ele>67.63</ele>
        <time>2017-03-26T13:58:06Z</time>
      </trkpt>
      <trkpt lat="45.1707" lon="4.82569">
        <ele>67.63</ele>
        <time>2017-03-26T13:58:07Z</time>
      </trkpt>
      <trkpt lat="45.1707" lon="4.82569">
        <ele>67.63</ele>
        <time>2017-03-26T13:58:08Z</time>
      </trkpt>
      <trkpt lat="45.1707" lon="4.82569">
        <ele>67.63</ele>
        <time>2017-03-26T13:58:09Z</time>
      </trkpt>
      <trkpt lat="45.1707" lon="4.82569">
        <ele>67.63</ele>
        <time>2017-03-26T13:58:10Z</time>
      </trkpt>
      <trkpt lat="45.1707" lon="4.82569">
        <ele>67.63</ele>
        <time>2017-03-26T13:58:11Z</time>
      </trkpt>
      <trkpt lat="45.1707" lon="4.82569">
        <ele>67.63</ele>
        <time>2017-03-26T13:58:12Z</time>
      </trkpt>
      <trkpt lat="45.1707" lon="4.82569">
        <ele>67.63</ele>
        <time>2017-03-26T13:58:13Z</time>
      </trkpt>
      <trkpt lat="45.1707" lon="4.82569">
        <ele>67.63</ele>
        <time>2017-03-26T13:58:14Z</time>
      </trkpt>
      <trkpt lat="45.1707" lon="4.82569">
        <ele>67.63</ele>
        <time>2017-03-26T13:58:15Z</time>
      </trkpt>
      <trkpt lat="45.1707" lon="4.82569">
        <ele>67.63</ele>
        <time>2017-03-26T13:58:16Z</time>
      </trkpt>
      <trkpt lat="45.1707" lon="4.82569">
        <ele>67.63</ele>
        <time>2017-03-26T13:58:17Z</time>
      </trkpt>
      <trkpt lat="45.1707" lon="4.82569">
        <ele>67.63</ele>
        <time>2017-03-26T13:58:18Z</time>
      </trkpt>
      <trkpt lat="45.1707" lon="4.82569">
        <ele>67.63</ele>
        <time>2017-03-26T13:58:19Z</time>
      </trkpt>
      <trkpt lat="45.1707" lon="4.82569">
        <ele>67.63</ele>
        <time>2017-03-26T13:58:20Z</time>
      </trkpt>
      <trkpt lat="45.1707" lon="4.82569">
        <ele>67.63</ele>
        <time>2017-03-26T13:58:21Z</time>
      </trkpt>
      <trkpt lat="45.1707" lon="4.82569">
        <ele>67.63</ele>
        <time>2017-03-26T13:58:22Z</time>
      </trkpt>
      <trkpt lat="45.17071" lon="4.82576">
        <ele>68.11</ele>
        <time>2017-03-26T13:58:23Z</time>
      </trkpt>
      <trkpt lat="45.17071" lon="4.82584">
        <ele>68.21</ele>
        <time>2017-03-26T13:58:24Z</time>
      </trkpt>
      <trkpt lat="45.17071" lon="4.82591">
        <ele>68.23</ele>
        <time>2017-03-26T13:58:25Z</time>
      </trkpt>
      <trkpt lat="45.1707" lon="4.82599">
        <ele>68.23</ele>
        <time>2017-03-26T13:58:26Z</time>
      </trkpt>
      <trkpt lat="45.17068" lon="4.82609">
        <ele>68.31</ele>
        <time>2017-03-26T13:58:27Z</time>
      </trkpt>
      <trkpt lat="45.17065" lon="4.82619">
        <ele>68.41</ele>
        <time>2017-03-26T13:58:28Z</time>
      </trkpt>
      <trkpt lat="45.17063" lon="4.8263">
        <ele>68.51</ele>
        <time>2017-03-26T13:58:29Z</time>
      </trkpt>
      <trkpt lat="45.1706" lon="4.82642">
        <ele>68.61</ele>
        <time>2017-03-26T13:58:30Z</time>
      </trkpt>
      <trkpt lat="45.17056" lon="4.82655">
        <ele>68.79</ele>
        <time>2017-03-26T13:58:31Z</time>
      </trkpt>
      <trkpt lat="45.17053" lon="4.82668">
        <ele>68.9</ele>
        <time>2017-03-26T13:58:32Z</time>
      </trkpt>
      <trkpt lat="45.1705" lon="4.8268">
        <ele>69</ele>
        <time>2017-03-26T13:58:33Z</time>
      </trkpt>
      <trkpt lat="45.17048" lon="4.8269">
        <ele>69.18</ele>
        <time>2017-03-26T13:58:34Z</time>
      </trkpt>
      <trkpt lat="45.17046" lon="4.82699">
        <ele>69.3</ele>
        <time>2017-03-26T13:58:35Z</time>
      </trkpt>
      <trkpt lat="45.17045" lon="4.82708">
        <ele>69.4</ele>
        <time>2017-03-26T13:58:36Z</time>
      </trkpt>
      <trkpt lat="45.17045" lon="4.82716">
        <ele>69.58</ele>
        <time>2017-03-26T13:58:37Z</time>
      </trkpt>
      <trkpt lat="45.1705" lon="4.82722">
        <ele>69.78</ele>
        <time>2017-03-26T13:58:38Z</time>
      </trkpt>
      <trkpt lat="45.17053" lon="4.8273">
        <ele>69.9</ele>
        <time>2017-03-26T13:58:39Z</time>
      </trkpt>
      <trkpt lat="45.17056" lon="4.82739">
        <ele>70.08</ele>
        <time>2017-03-26T13:58:40Z</time>
      </trkpt>
      <trkpt lat="45.17061" lon="4.82748">
        <ele>70.28</ele>
        <time>2017-03-26T13:58:41Z</time>
      </trkpt>
      <trkpt lat="45.17067" lon="4.82755">
        <ele>70.4</ele>
        <time>2017-03-26T13:58:42Z</time>
      </trkpt>
      <trkpt lat="45.17078" lon="4.82759">
        <ele>70.58</ele>
        <time>2017-03-26T13:58:43Z</time>
      </trkpt>
      <trkpt lat="45.17086" lon="4.82763">
        <ele>70.78</ele>
        <time>2017-03-26T13:58:44Z</time>
      </trkpt>
      <trkpt lat="45.17094" lon="4.82767">
        <ele>71.06</ele>
        <time>2017-03-26T13:58:45Z</time>
      </trkpt>
      <trkpt lat="45.17105" lon="4.82768">
        <ele>71.28</ele>
        <time>2017-03-26T13:58:46Z</time>
      </trkpt>
      <trkpt lat="45.17115" lon="4.82771">
        <ele>71.56</ele>
        <time>2017-03-26T13:58:47Z</time>
      </trkpt>
      <trkpt lat="45.17126" lon="4.82774">
        <ele>71.86</ele>
        <time>2017-03-26T13:58:48Z</time>
      </trkpt>
      <trkpt lat="45.17138" lon="4.82776">
        <ele>72.08</ele>
        <time>2017-03-26T13:58:49Z</time>
      </trkpt>
      <trkpt lat="45.17152" lon="4.82778">
        <ele>72.44</ele>
        <time>2017-03-26T13:58:50Z</time>
      </trkpt>
      <trkpt lat="45.17163" lon="4.82783">
        <ele>72.67</ele>
        <time>2017-03-26T13:58:51Z</time>
      </trkpt>
      <trkpt lat="45.17176" lon="4.82792">
        <ele>72.88</ele>
        <time>2017-03-26T13:58:52Z</time>
      </trkpt>
      <trkpt lat="45.1719" lon="4.82796">
        <ele>73.16</ele>
        <time>2017-03-26T13:58:53Z</time>
      </trkpt>
      <trkpt lat="45.17203" lon="4.82801">
        <ele>73.54</ele>
        <time>2017-03-26T13:58:54Z</time>
      </trkpt>
      <trkpt lat="45.17212" lon="4.82804">
        <ele>73.93</ele>
        <time>2017-03-26T13:58:55Z</time>
      </trkpt>
      <trkpt lat="45.17221" lon="4.82803">
        <ele>74.49</ele>
        <time>2017-03-26T13:58:56Z</time>
      </trkpt>
      <trkpt lat="45.1723" lon="4.82807">
        <ele>75.08</ele>
        <time>2017-03-26T13:58:57Z</time>
      </trkpt>
      <trkpt lat="45.17233" lon="4.82814">
        <ele>75.6</ele>
        <time>2017-03-26T13:58:58Z</time>
      </trkpt>
      <trkpt lat="45.17239" lon="4.82817">
        <ele>76.18</ele>
        <time>2017-03-26T13:58:59Z</time>
      </trkpt>
      <trkpt lat="45.17233" lon="4.82824">
        <ele>76.62</ele>
        <time>2017-03-26T13:59:00Z</time>
      </trkpt>
      <trkpt lat="45.1723" lon="4.82829">
        <ele>77.11</ele>
        <time>2017-03-26T13:59:01Z</time>
      </trkpt>
      <trkpt lat="45.17225" lon="4.82834">
        <ele>77.61</ele>
        <time>2017-03-26T13:59:02Z</time>
      </trkpt>
      <trkpt lat="45.17219" lon="4.82838">
        <ele>77.95</ele>
        <time>2017-03-26T13:59:03Z</time>
      </trkpt>
      <trkpt lat="45.17211" lon="4.82843">
        <ele>78.41</ele>
        <time>2017-03-26T13:59:04Z</time>
      </trkpt>
      <trkpt lat="45.17203" lon="4.82848">
        <ele>78.99</ele>
        <time>2017-03-26T13:59:05Z</time>
      </trkpt>
      <trkpt lat="45.17193" lon="4.82853">
        <ele>79.42</ele>
        <time>2017-03-26T13:59:06Z</time>
      </trkpt>
      <trkpt lat="45.17183" lon="4.82859">
        <ele>79.83</ele>
        <time>2017-03-26T13:59:07Z</time>
      </trkpt>
      <trkpt lat="45.17173" lon="4.82865">
        <ele>80.31</ele>
        <time>2017-03-26T13:59:08Z</time>
      </trkpt>
      <trkpt lat="45.17164" lon="4.82868">
        <ele>80.89</ele>
        <time>2017-03-26T13:59:09Z</time>
      </trkpt>
      <trkpt lat="45.17157" lon="4.82871">
        <ele>81.4</ele>
        <time>2017-03-26T13:59:10Z</time>
      </trkpt>
      <trkpt lat="45.1715" lon="4.82874">
        <ele>81.9</ele>
        <time>2017-03-26T13:59:11Z</time>
      </trkpt>
      <trkpt lat="45.17143" lon="4.82876">
        <ele>82.24</ele>
        <time>2017-03-26T13:59:12Z</time>
      </trkpt>
      <trkpt lat="45.1714" lon="4.82879">
        <ele>82.55</ele>
        <time>2017-03-26T13:59:13Z</time>
      </trkpt>
      <trkpt lat="45.17139" lon="4.82884">
        <ele>83.09</ele>
        <time>2017-03-26T13:59:14Z</time>
      </trkpt>
      <trkpt lat="45.17137" lon="4.82889">
        <ele>83.52</ele>
        <time>2017-03-26T13:59:15Z</time>
      </trkpt>
      <trkpt lat="45.17138" lon="4.82895">
        <ele>84.01</ele>
        <time>2017-03-26T13:59:16Z</time>
      </trkpt>
      <trkpt lat="45.17154" lon="4.82896">
        <ele>84.75</ele>
        <time>2017-03-26T13:59:17Z</time>
      </trkpt>
      <trkpt lat="45.17161" lon="4.82898">
        <ele>85.29</ele>
        <time>2017-03-26T13:59:18Z</time>
      </trkpt>
      <trkpt lat="45.17169" lon="4.82902">
        <ele>85.88</ele>
        <time>2017-03-26T13:59:19Z</time>
      </trkpt>
      <trkpt lat="45.17177" lon="4.82907">
        <ele>86.4</ele>
        <time>2017-03-26T13:59:20Z</time>
      </trkpt>
      <trkpt lat="45.17186" lon="4.82911">
        <ele>86.98</ele>
        <time>2017-03-26T13:59:21Z</time>
      </trkpt>
      <trkpt lat="45.17197" lon="4.82912">
        <ele>87.74</ele>
        <time>2017-03-26T13:59:22Z</time>
      </trkpt>
      <trkpt lat="45.17207" lon="4.82913">
        <ele>88.45</ele>
        <time>2017-03-26T13:59:23Z</time>
      </trkpt>
      <trkpt lat="45.17216" lon="4.82914">
        <ele>89.15</ele>
        <time>2017-03-26T13:59:24Z</time>
      </trkpt>
      <trkpt lat="45.17224" lon="4.82915">
        <ele>89.85</ele>
        <time>2017-03-26T13:59:25Z</time>
      </trkpt>
      <trkpt lat="45.17225" lon="4.82909">
        <ele>91.43</ele>
        <time>2017-03-26T13:59:26Z</time>
      </trkpt>
      <trkpt lat="45.17228" lon="4.82912">
        <ele>92.39</ele>
        <time>2017-03-26T13:59:27Z</time>
      </trkpt>
      <trkpt lat="45.1723" lon="4.82916">
        <ele>93.14</ele>
        <time>2017-03-26T13:59:28Z</time>
      </trkpt>
      <trkpt lat="45.17231" lon="4.82918">
        <ele>93.93</ele>
        <time>2017-03-26T13:59:29Z</time>
      </trkpt>
      <trkpt lat="45.17229" lon="4.82917">
        <ele>95.21</ele>
        <time>2017-03-26T13:59:30Z</time>
      </trkpt>
      <trkpt lat="45.17226" lon="4.8292">
        <ele>96.51</ele>
        <time>2017-03-26T13:59:31Z</time>
      </trkpt>
      <trkpt lat="45.17215" lon="4.82921">
        <ele>98.05</ele>
        <time>2017-03-26T13:59:32Z</time>
      </trkpt>
      <trkpt lat="45.17208" lon="4.82924">
        <ele>99.31</ele>
        <time>2017-03-26T13:59:33Z</time>
      </trkpt>
      <trkpt lat="45.17199" lon="4.82927">
        <ele>100.53</ele>
        <time>2017-03-26T13:59:34Z</time>
      </trkpt>
      <trkpt lat="45.17189" lon="4.82933">
        <ele>101.97</ele>
        <time>2017-03-26T13:59:35Z</time>
      </trkpt>
      <trkpt lat="45.17179" lon="4.82939">
        <ele>103.22</ele>
        <time>2017-03-26T13:59:36Z</time>
      </trkpt>
      <trkpt lat="45.1717" lon="4.82945">
        <ele>104.35</ele>
        <time>2017-03-26T13:59:37Z</time>
      </trkpt>
      <trkpt lat="45.17162" lon="4.82951">
        <ele>105.53</ele>
        <time>2017-03-26T13:59:38Z</time>
      </trkpt>
      <trkpt lat="45.17158" lon="4.82956">
        <ele>106.65</ele>
        <time>2017-03-26T13:59:39Z</time>
      </trkpt>
      <trkpt lat="45.17153" lon="4.82963">
        <ele>107.83</ele>
        <time>2017-03-26T13:59:40Z</time>
      </trkpt>
      <trkpt lat="45.17151" lon="4.82971">
        <ele>108.95</ele>
        <time>2017-03-26T13:59:41Z</time>
      </trkpt>
      <trkpt lat="45.17152" lon="4.82978">
        <ele>110.77</ele>
        <time>2017-03-26T13:59:42Z</time>
      </trkpt>
      <trkpt lat="45.17153" lon="4.82987">
        <ele>112.34</ele>
        <time>2017-03-26T13:59:43Z</time>
      </trkpt>
      <trkpt lat="45.17153" lon="4.82997">
        <ele>113.53</ele>
        <time>2017-03-26T13:59:44Z</time>
      </trkpt>
      <trkpt lat="45.17154" lon="4.83007">
        <ele>115.13</ele>
        <time>2017-03-26T13:59:45Z</time>
      </trkpt>
      <trkpt lat="45.17153" lon="4.83015">
        <ele>116.17</ele>
        <time>2017-03-26T13:59:46Z</time>
      </trkpt>
      <trkpt lat="45.17149" lon="4.83024">
        <ele>117.42</ele>
        <time>2017-03-26T13:59:47Z</time>
      </trkpt>
      <trkpt lat="45.17144" lon="4.83036">
        <ele>118.79</ele>
        <time>2017-03-26T13:59:48Z</time>
      </trkpt>
      <trkpt lat="45.1714" lon="4.83046">
        <ele>120.02</ele>
        <time>2017-03-26T13:59:49Z</time>
      </trkpt>
      <trkpt lat="45.17135" lon="4.83058">
        <ele>121.47</ele>
        <time>2017-03-26T13:59:50Z</time>
      </trkpt>
      <trkpt lat="45.1713" lon="4.83067">
        <ele>122.64</ele>
        <time>2017-03-26T13:59:51Z</time>
      </trkpt>
      <trkpt lat="45.17124" lon="4.83076">
        <ele>123.75</ele>
        <time>2017-03-26T13:59:52Z</time>
      </trkpt>
      <trkpt lat="45.17118" lon="4.83084">
        <ele>124.77</ele>
        <time>2017-03-26T13:59:53Z</time>
      </trkpt>
      <trkpt lat="45.1711" lon="4.83088">
        <ele>125.78</ele>
        <time>2017-03-26T13:59:54Z</time>
      </trkpt>
      <trkpt lat="45.171" lon="4.83089">
        <ele>127.02</ele>
        <time>2017-03-26T13:59:55Z</time>
      </trkpt>
      <trkpt lat="45.1709" lon="4.83088">
        <ele>128.39</ele>
        <time>2017-03-26T13:59:56Z</time>
      </trkpt>
      <trkpt lat="45.1708" lon="4.83085">
        <ele>129.7</ele>
        <time>2017-03-26T13:59:57Z</time>
      </trkpt>
      <trkpt lat="45.17068" lon="4.8308">
        <ele>131</ele>
        <time>2017-03-26T13:59:58Z</time>
      </trkpt>
      <trkpt lat="45.17057" lon="4.83076">
        <ele>132.54</ele>
        <time>2017-03-26T13:59:59Z</time>
      </trkpt>
      <trkpt lat="45.17048" lon="4.83073">
        <ele>134.13</ele>
        <time>2017-03-26T14:00:00Z</time>
      </trkpt>
      <trkpt lat="45.17037" lon="4.8307">
        <ele>135.49</ele>
        <time>2017-03-26T14:00:01Z</time>
      </trkpt>
      <trkpt lat="45.17027" lon="4.83065">
        <ele>136.96</ele>
        <time>2017-03-26T14:00:02Z</time>
      </trkpt>
      <trkpt lat="45.17017" lon="4.83064">
        <ele>138.62</ele>
        <time>2017-03-26T14:00:03Z</time>
      </trkpt>
      <trkpt lat="45.17008" lon="4.83064">
        <ele>139.99</ele>
        <time>2017-03-26T14:00:04Z</time>
      </trkpt>
      <trkpt lat="45.17" lon="4.83066">
        <ele>141.3</ele>
        <time>2017-03-26T14:00:05Z</time>
      </trkpt>
      <trkpt lat="45.16993" lon="4.83073">
        <ele>142.76</ele>
        <time>2017-03-26T14:00:06Z</time>
      </trkpt>
      <trkpt lat="45.16986" lon="4.83079">
        <ele>144.34</ele>
        <time>2017-03-26T14:00:07Z</time>
      </trkpt>
      <trkpt lat="45.16985" lon="4.8309">
        <ele>146.25</ele>
        <time>2017-03-26T14:00:08Z</time>
      </trkpt>
      <trkpt lat="45.16984" lon="4.83102">
        <ele>147.99</ele>
        <time>2017-03-26T14:00:09Z</time>
      </trkpt>
      <trkpt lat="45.16982" lon="4.83115">
        <ele>149.78</ele>
        <time>2017-03-26T14:00:10Z</time>
      </trkpt>
      <trkpt lat="45.16978" lon="4.83128">
        <ele>151.66</ele>
        <time>2017-03-26T14:00:11Z</time>
      </trkpt>
      <trkpt lat="45.16975" lon="4.83139">
        <ele>153.08</ele>
        <time>2017-03-26T14:00:12Z</time>
      </trkpt>
      <trkpt lat="45.1697" lon="4.8315">
        <ele>154.56</ele>
        <time>2017-03-26T14:00:13Z</time>
      </trkpt>
      <trkpt lat="45.16964" lon="4.83157">
        <ele>156.06</ele>
        <time>2017-03-26T14:00:14Z</time>
      </trkpt>
      <trkpt lat="45.16956" lon="4.83163">
        <ele>157.56</ele>
        <time>2017-03-26T14:00:15Z</time>
      </trkpt>
      <trkpt lat="45.16947" lon="4.83167">
        <ele>159.06</ele>
        <time>2017-03-26T14:00:16Z</time>
      </trkpt>
      <trkpt lat="45.16938" lon="4.83168">
        <ele>161.44</ele>
        <time>2017-03-26T14:00:17Z</time>
      </trkpt>
      <trkpt lat="45.16928" lon="4.83166">
        <ele>163.91</ele>
        <time>2017-03-26T14:00:18Z</time>
      </trkpt>
      <trkpt lat="45.16918" lon="4.83163">
        <ele>165.85</ele>
        <time>2017-03-26T14:00:19Z</time>
      </trkpt>
      <trkpt lat="45.16909" lon="4.83161">
        <ele>167.27</ele>
        <time>2017-03-26T14:00:20Z</time>
      </trkpt>
      <trkpt lat="45.16898" lon="4.83159">
        <ele>168.52</ele>
        <time>2017-03-26T14:00:21Z</time>
      </trkpt>
      <trkpt lat="45.16888" lon="4.83159">
        <ele>169.73</ele>
        <time>2017-03-26T14:00:22Z</time>
      </trkpt>
      <trkpt lat="45.16878" lon="4.8316">
        <ele>170.93</ele>
        <time>2017-03-26T14:00:23Z</time>
      </trkpt>
      <trkpt lat="45.16869" lon="4.83161">
        <ele>172.21</ele>
        <time>2017-03-26T14:00:24Z</time>
      </trkpt>
      <trkpt lat="45.16858" lon="4.83165">
        <ele>173.51</ele>
        <time>2017-03-26T14:00:25Z</time>
      </trkpt>
      <trkpt lat="45.16848" lon="4.83169">
        <ele>174.73</ele>
        <time>2017-03-26T14:00:26Z</time>
      </trkpt>
      <trkpt lat="45.16839" lon="4.83173">
        <ele>176.01</ele>
        <time>2017-03-26T14:00:27Z</time>
      </trkpt>
      <trkpt lat="45.16829" lon="4.83179">
        <ele>177.31</ele>
        <time>2017-03-26T14:00:28Z</time>
      </trkpt>
      <trkpt lat="45.1682" lon="4.83183">
        <ele>178.53</ele>
        <time>2017-03-26T14:00:29Z</time>
      </trkpt>
      <trkpt lat="45.16813" lon="4.83188">
        <ele>179.73</ele>
        <time>2017-03-26T14:00:30Z</time>
      </trkpt>
      <trkpt lat="45.16808" lon="4.83192">
        <ele>180.93</ele>
        <time>2017-03-26T14:00:31Z</time>
      </trkpt>
      <trkpt lat="45.16808" lon="4.83196">
        <ele>182.45</ele>
        <time>2017-03-26T14:00:32Z</time>
      </trkpt>
      <trkpt lat="45.16808" lon="4.83198">
        <ele>184.19</ele>
        <time>2017-03-26T14:00:33Z</time>
      </trkpt>
      <trkpt lat="45.16808" lon="4.832">
        <ele>185.5</ele>
        <time>2017-03-26T14:00:34Z</time>
      </trkpt>
      <trkpt lat="45.16811" lon="4.83201">
        <ele>187.76</ele>
        <time>2017-03-26T14:00:35Z</time>
      </trkpt>
      <trkpt lat="45.16815" lon="4.83197">
        <ele>190.14</ele>
        <time>2017-03-26T14:00:36Z</time>
      </trkpt>
      <trkpt lat="45.16821" lon="4.83195">
        <ele>192.13</ele>
        <time>2017-03-26T14:00:37Z</time>
      </trkpt>
      <trkpt lat="45.16829" lon="4.83193">
        <ele>194.05</ele>
        <time>2017-03-26T14:00:38Z</time>
      </trkpt>
      <trkpt lat="45.16836" lon="4.83192">
        <ele>196.27</ele>
        <time>2017-03-26T14:00:39Z</time>
      </trkpt>
      <trkpt lat="45.16844" lon="4.83193">
        <ele>198</ele>
        <time>2017-03-26T14:00:40Z</time>
      </trkpt>
      <trkpt lat="45.16851" lon="4.83192">
        <ele>200.42</ele>
        <time>2017-03-26T14:00:41Z</time>
      </trkpt>
      <trkpt lat="45.16858" lon="4.83193">
        <ele>202.11</ele>
        <time>2017-03-26T14:00:42Z</time>
      </trkpt>
      <trkpt lat="45.16865" lon="4.83195">
        <ele>203.97</ele>
        <time>2017-03-26T14:00:43Z</time>
      </trkpt>
      <trkpt lat="45.16874" lon="4.83196">
        <ele>206.18</ele>
        <time>2017-03-26T14:00:44Z</time>
      </trkpt>
      <trkpt lat="45.16882" lon="4.83199">
        <ele>208.06</ele>
        <time>2017-03-26T14:00:45Z</time>
      </trkpt>
      <trkpt lat="45.1689" lon="4.83203">
        <ele>209.72</ele>
        <time>2017-03-26T14:00:46Z</time>
      </trkpt>
      <trkpt lat="45.16898" lon="4.83207">
        <ele>211.73</ele>
        <time>2017-03-26T14:00:47Z</time>
      </trkpt>
      <trkpt lat="45.16906" lon="4.83212">
        <ele>213.57</ele>
        <time>2017-03-26T14:00:48Z</time>
      </trkpt>
      <trkpt lat="45.16914" lon="4.83217">
        <ele>215.22</ele>
        <time>2017-03-26T14:00:49Z</time>
      </trkpt>
      <trkpt lat="45.16922" lon="4.83222">
        <ele>216.75</ele>
        <time>2017-03-26T14:00:50Z</time>
      </trkpt>
      <trkpt lat="45.16931" lon="4.83227">
        <ele>218.33</ele>
        <time>2017-03-26T14:00:51Z</time>
      </trkpt>
      <trkpt lat="45.16939" lon="4.83232">
        <ele>219.85</ele>
        <time>2017-03-26T14:00:52Z</time>
      </trkpt>
      <trkpt lat="45.16948" lon="4.83237">
        <ele>221.27</ele>
        <time>2017-03-26T14:00:53Z</time>
      </trkpt>
      <trkpt lat="45.16956" lon="4.83243">
        <ele>221.32</ele>
        <time>2017-03-26T14:00:54Z</time>
      </trkpt>
      <trkpt lat="45.16965" lon="4.83248">
        <ele>222.13</ele>
        <time>2017-03-26T14:00:55Z</time>
      </trkpt>
      <trkpt lat="45.16974" lon="4.83254">
        <ele>223.41</ele>
        <time>2017-03-26T14:00:56Z</time>
      </trkpt>
      <trkpt lat="45.16983" lon="4.8326">
        <ele>224.71</ele>
        <time>2017-03-26T14:00:57Z</time>
      </trkpt>
      <trkpt lat="45.16992" lon="4.83267">
        <ele>225.85</ele>
        <time>2017-03-26T14:00:58Z</time>
      </trkpt>
      <trkpt lat="45.17001" lon="4.83273">
        <ele>227.35</ele>
        <time>2017-03-26T14:00:59Z</time>
      </trkpt>
      <trkpt lat="45.17009" lon="4.83278">
        <ele>229.33</ele>
        <time>2017-03-26T14:01:00Z</time>
      </trkpt>
      <trkpt lat="45.17018" lon="4.83283">
        <ele>230.85</ele>
        <time>2017-03-26T14:01:01Z</time>
      </trkpt>
      <trkpt lat="45.17028" lon="4.83288">
        <ele>232.03</ele>
        <time>2017-03-26T14:01:02Z</time>
      </trkpt>
      <trkpt lat="45.17044" lon="4.83288">
        <ele>234.35</ele>
        <time>2017-03-26T14:01:03Z</time>
      </trkpt>
      <trkpt lat="45.17056" lon="4.8329">
        <ele>236.01</ele>
        <time>2017-03-26T14:01:04Z</time>
      </trkpt>
      <trkpt lat="45.17068" lon="4.83291">
        <ele>237.47</ele>
        <time>2017-03-26T14:01:05Z</time>
      </trkpt>
      <trkpt lat="45.17079" lon="4.83292">
        <ele>239.04</ele>
        <time>2017-03-26T14:01:06Z</time>
      </trkpt>
      <trkpt lat="45.17089" lon="4.83294">
        <ele>240.63</ele>
        <time>2017-03-26T14:01:07Z</time>
      </trkpt>
      <trkpt lat="45.17099" lon="4.83295">
        <ele>242.39</ele>
        <time>2017-03-26T14:01:08Z</time>
      </trkpt>
      <trkpt lat="45.17107" lon="4.83294">
        <ele>245.62</ele>
        <time>2017-03-26T14:01:09Z</time>
      </trkpt>
      <trkpt lat="45.17117" lon="4.83297">
        <ele>247.79</ele>
        <time>2017-03-26T14:01:10Z</time>
      </trkpt>
      <trkpt lat="45.17126" lon="4.833">
        <ele>249.98</ele>
        <time>2017-03-26T14:01:11Z</time>
      </trkpt>
      <trkpt lat="45.17134" lon="4.83308">
        <ele>251.54</ele>
        <time>2017-03-26T14:01:12Z</time>
      </trkpt>
      <trkpt lat="45.17142" lon="4.83316">
        <ele>252.97</ele>
        <time>2017-03-26T14:01:13Z</time>
      </trkpt>
      <trkpt lat="45.17136" lon="4.83334">
        <ele>254.22</ele>
        <time>2017-03-26T14:01:14Z</time>
      </trkpt>
      <trkpt lat="45.17135" lon="4.83348">
        <ele>255.51</ele>
        <time>2017-03-26T14:01:15Z</time>
      </trkpt>
      <trkpt lat="45.17134" lon="4.83362">
        <ele>256.81</ele>
        <time>2017-03-26T14:01:16Z</time>
      </trkpt>
      <trkpt lat="45.17133" lon="4.83377">
        <ele>257.95</ele>
        <time>2017-03-26T14:01:17Z</time>
      </trkpt>
      <trkpt lat="45.17133" lon="4.83392">
        <ele>259.13</ele>
        <time>2017-03-26T14:01:18Z</time>
      </trkpt>
      <trkpt lat="45.17133" lon="4.83407">
        <ele>260.17</ele>
        <time>2017-03-26T14:01:19Z</time>
      </trkpt>
      <trkpt lat="45.17133" lon="4.83421">
        <ele>261.26</ele>
        <time>2017-03-26T14:01:20Z</time>
      </trkpt>
      <trkpt lat="45.17134" lon="4.83435">
        <ele>262.36</ele>
        <time>2017-03-26T14:01:21Z</time>
      </trkpt>
      <trkpt lat="45.17135" lon="4.83448">
        <ele>263.54</ele>
        <time>2017-03-26T14:01:22Z</time>
      </trkpt>
      <trkpt lat="45.17136" lon="4.83461">
        <ele>264.81</ele>
        <time>2017-03-26T14:01:23Z</time>
      </trkpt>
      <trkpt lat="45.17138" lon="4.83473">
        <ele>265.95</ele>
        <time>2017-03-26T14:01:24Z</time>
      </trkpt>
      <trkpt lat="45.17139" lon="4.83485">
        <ele>266.97</ele>
        <time>2017-03-26T14:01:25Z</time>
      </trkpt>
      <trkpt lat="45.1714" lon="4.83497">
        <ele>267.98</ele>
        <time>2017-03-26T14:01:26Z</time>
      </trkpt>
      <trkpt lat="45.17142" lon="4.83508">
        <ele>268.9</ele>
        <time>2017-03-26T14:01:27Z</time>
      </trkpt>
      <trkpt lat="45.17143" lon="4.83519">
        <ele>269.88</ele>
        <time>2017-03-26T14:01:28Z</time>
      </trkpt>
      <trkpt lat="45.17145" lon="4.8353">
        <ele>270.88</ele>
        <time>2017-03-26T14:01:29Z</time>
      </trkpt>
      <trkpt lat="45.17147" lon="4.8354">
        <ele>272.12</ele>
        <time>2017-03-26T14:01:30Z</time>
      </trkpt>
      <trkpt lat="45.17149" lon="4.83549">
        <ele>273.49</ele>
        <time>2017-03-26T14:01:31Z</time>
      </trkpt>
      <trkpt lat="45.17153" lon="4.83558">
        <ele>274.8</ele>
        <time>2017-03-26T14:01:32Z</time>
      </trkpt>
      <trkpt lat="45.17157" lon="4.83566">
        <ele>276.42</ele>
        <time>2017-03-26T14:01:33Z</time>
      </trkpt>
      <trkpt lat="45.17162" lon="4.83573">
        <ele>277.71</ele>
        <time>2017-03-26T14:01:34Z</time>
      </trkpt>
      <trkpt lat="45.17168" lon="4.83581">
        <ele>278.85</ele>
        <time>2017-03-26T14:01:35Z</time>
      </trkpt>
      <trkpt lat="45.17175" lon="4.83587">
        <ele>279.79</ele>
        <time>2017-03-26T14:01:36Z</time>
      </trkpt>
      <trkpt lat="45.17182" lon="4.83595">
        <ele>280.7</ele>
        <time>2017-03-26T14:01:37Z</time>
      </trkpt>
      <trkpt lat="45.17188" lon="4.83602">
        <ele>281.6</ele>
        <time>2017-03-26T14:01:38Z</time>
      </trkpt>
      <trkpt lat="45.17195" lon="4.8361">
        <ele>282.74</ele>
        <time>2017-03-26T14:01:39Z</time>
      </trkpt>
      <trkpt lat="45.17203" lon="4.83619">
        <ele>283.69</ele>
        <time>2017-03-26T14:01:40Z</time>
      </trkpt>
      <trkpt lat="45.17211" lon="4.83629">
        <ele>284.36</ele>
        <time>2017-03-26T14:01:41Z</time>
      </trkpt>
      <trkpt lat="45.17218" lon="4.8364">
        <ele>285.14</ele>
        <time>2017-03-26T14:01:42Z</time>
      </trkpt>
      <trkpt lat="45.17224" lon="4.83652">
        <ele>286.01</ele>
        <time>2017-03-26T14:01:43Z</time>
      </trkpt>
      <trkpt lat="45.17229" lon="4.83665">
        <ele>286.91</ele>
        <time>2017-03-26T14:01:44Z</time>
      </trkpt>
      <trkpt lat="45.17233" lon="4.83678">
        <ele>287.65</ele>
        <time>2017-03-26T14:01:45Z</time>
      </trkpt>
      <trkpt lat="45.17234" lon="4.83693">
        <ele>288.43</ele>
        <time>2017-03-26T14:01:46Z</time>
      </trkpt>
      <trkpt lat="45.17235" lon="4.83707">
        <ele>289.31</ele>
        <time>2017-03-26T14:01:47Z</time>
      </trkpt>
      <trkpt lat="45.17232" lon="4.83723">
        <ele>289.97</ele>
        <time>2017-03-26T14:01:48Z</time>
      </trkpt>
      <trkpt lat="45.17226" lon="4.83741">
        <ele>290.34</ele>
        <time>2017-03-26T14:01:49Z</time>
      </trkpt>
      <trkpt lat="45.17222" lon="4.83756">
        <ele>290.81</ele>
        <time>2017-03-26T14:01:50Z</time>
      </trkpt>
      <trkpt lat="45.17218" lon="4.83771">
        <ele>291.23</ele>
        <time>2017-03-26T14:01:51Z</time>
      </trkpt>
      <trkpt lat="45.17215" lon="4.83786">
        <ele>291.79</ele>
        <time>2017-03-26T14:01:52Z</time>
      </trkpt>
      <trkpt lat="45.17213" lon="4.83801">
        <ele>292.38</ele>
        <time>2017-03-26T14:01:53Z</time>
      </trkpt>
      <trkpt lat="45.1721" lon="4.83816">
        <ele>292.9</ele>
        <time>2017-03-26T14:01:54Z</time>
      </trkpt>
      <trkpt lat="45.17206" lon="4.83832">
        <ele>293.16</ele>
        <time>2017-03-26T14:01:55Z</time>
      </trkpt>
      <trkpt lat="45.17203" lon="4.83848">
        <ele>293.54</ele>
        <time>2017-03-26T14:01:56Z</time>
      </trkpt>
      <trkpt lat="45.172" lon="4.83865">
        <ele>294.01</ele>
        <time>2017-03-26T14:01:57Z</time>
      </trkpt>
      <trkpt lat="45.17197" lon="4.83882">
        <ele>294.51</ele>
        <time>2017-03-26T14:01:58Z</time>
      </trkpt>
      <trkpt lat="45.17194" lon="4.839">
        <ele>295.01</ele>
        <time>2017-03-26T14:01:59Z</time>
      </trkpt>
      <trkpt lat="45.1719" lon="4.8392">
        <ele>295.27</ele>
        <time>2017-03-26T14:02:00Z</time>
      </trkpt>
      <trkpt lat="45.17187" lon="4.83938">
        <ele>295.64</ele>
        <time>2017-03-26T14:02:01Z</time>
      </trkpt>
      <trkpt lat="45.17184" lon="4.83957">
        <ele>296.03</ele>
        <time>2017-03-26T14:02:02Z</time>
      </trkpt>
      <trkpt lat="45.17181" lon="4.83975">
        <ele>296.35</ele>
        <time>2017-03-26T14:02:03Z</time>
      </trkpt>
      <trkpt lat="45.17177" lon="4.83993">
        <ele>296.73</ele>
        <time>2017-03-26T14:02:04Z</time>
      </trkpt>
      <trkpt lat="45.17173" lon="4.84011">
        <ele>297.13</ele>
        <time>2017-03-26T14:02:05Z</time>
      </trkpt>
      <trkpt lat="45.17169" lon="4.84029">
        <ele>297.61</ele>
        <time>2017-03-26T14:02:06Z</time>
      </trkpt>
      <trkpt lat="45.17165" lon="4.84046">
        <ele>297.71</ele>
        <time>2017-03-26T14:02:07Z</time>
      </trkpt>
      <trkpt lat="45.1716" lon="4.84064">
        <ele>297.73</ele>
        <time>2017-03-26T14:02:08Z</time>
      </trkpt>
      <trkpt lat="45.17156" lon="4.84081">
        <ele>297.57</ele>
        <time>2017-03-26T14:02:09Z</time>
      </trkpt>
      <trkpt lat="45.1715" lon="4.84098">
        <ele>297.54</ele>
        <time>2017-03-26T14:02:10Z</time>
      </trkpt>
      <trkpt lat="45.17143" lon="4.84117">
        <ele>296.81</ele>
        <time>2017-03-26T14:02:11Z</time>
      </trkpt>
      <trkpt lat="45.17135" lon="4.84136">
        <ele>296.59</ele>
        <time>2017-03-26T14:02:12Z</time>
      </trkpt>
      <trkpt lat="45.17126" lon="4.84155">
        <ele>296.38</ele>
        <time>2017-03-26T14:02:13Z</time>
      </trkpt>
      <trkpt lat="45.17118" lon="4.84172">
        <ele>296.34</ele>
        <time>2017-03-26T14:02:14Z</time>
      </trkpt>
      <trkpt lat="45.17112" lon="4.84188">
        <ele>296.57</ele>
        <time>2017-03-26T14:02:15Z</time>
      </trkpt>
      <trkpt lat="45.17106" lon="4.84203">
        <ele>296.62</ele>
        <time>2017-03-26T14:02:16Z</time>
      </trkpt>
      <trkpt lat="45.17101" lon="4.84218">
        <ele>296.95</ele>
        <time>2017-03-26T14:02:17Z</time>
      </trkpt>
      <trkpt lat="45.17099" lon="4.84233">
        <ele>297.01</ele>
        <time>2017-03-26T14:02:18Z</time>
      </trkpt>
      <trkpt lat="45.17098" lon="4.84249">
        <ele>296.95</ele>
        <time>2017-03-26T14:02:19Z</time>
      </trkpt>
      <trkpt lat="45.17098" lon="4.84265">
        <ele>297.09</ele>
        <time>2017-03-26T14:02:20Z</time>
      </trkpt>
      <trkpt lat="45.17098" lon="4.84282">
        <ele>297.12</ele>
        <time>2017-03-26T14:02:21Z</time>
      </trkpt>
      <trkpt lat="45.17098" lon="4.84298">
        <ele>297.29</ele>
        <time>2017-03-26T14:02:22Z</time>
      </trkpt>
      <trkpt lat="45.17097" lon="4.84313">
        <ele>297.56</ele>
        <time>2017-03-26T14:02:23Z</time>
      </trkpt>
      <trkpt lat="45.17095" lon="4.84328">
        <ele>297.3</ele>
        <time>2017-03-26T14:02:24Z</time>
      </trkpt>
      <trkpt lat="45.17094" lon="4.8434">
        <ele>297.32</ele>
        <time>2017-03-26T14:02:25Z</time>
      </trkpt>
      <trkpt lat="45.17092" lon="4.84349">
        <ele>297.33</ele>
        <time>2017-03-26T14:02:26Z</time>
      </trkpt>
      <trkpt lat="45.17091" lon="4.84354">
        <ele>297.33</ele>
        <time>2017-03-26T14:02:27Z</time>
      </trkpt>
      <trkpt lat="45.17092" lon="4.84352">
        <ele>297.33</ele>
        <time>2017-03-26T14:02:28Z</time>
      </trkpt>
      <trkpt lat="45.17092" lon="4.84352">
        <ele>297.25</ele>
        <time>2017-03-26T14:02:29Z</time>
      </trkpt>
      <trkpt lat="45.17092" lon="4.84351">
        <ele>297.15</ele>
        <time>2017-03-26T14:02:30Z</time>
      </trkpt>
      <trkpt lat="45.17092" lon="4.84351">
        <ele>297.13</ele>
        <time>2017-03-26T14:02:31Z</time>
      </trkpt>
      <trkpt lat="45.17092" lon="4.84351">
        <ele>297.13</ele>
        <time>2017-03-26T14:02:32Z</time>
      </trkpt>
      <trkpt lat="45.17092" lon="4.84351">
        <ele>297.13</ele>
        <time>2017-03-26T14:02:33Z</time>
      </trkpt>
      <trkpt lat="45.17092" lon="4.84351">
        <ele>297.13</ele>
        <time>2017-03-26T14:02:34Z</time>
      </trkpt>
      <trkpt lat="45.17092" lon="4.84351">
        <ele>297.13</ele>
        <time>2017-03-26T14:02:35Z</time>
      </trkpt>
      <trkpt lat="45.17092" lon="4.84351">
        <ele>297.13</ele>
        <time>2017-03-26T14:02:36Z</time>
      </trkpt>
      <trkpt lat="45.17092" lon="4.84351">
        <ele>297.13</ele>
        <time>2017-03-26T14:02:37Z</time>
      </trkpt>
      <trkpt lat="45.17092" lon="4.84351">
        <ele>297.13</ele>
        <time>2017-03-26T14:02:38Z</time>
      </trkpt>
      <trkpt lat="45.17092" lon="4.84351">
        <ele>297.13</ele>
        <time>2017-03-26T14:02:39Z</time>
      </trkpt>
      <trkpt lat="45.17092" lon="4.84351">
        <ele>297.13</ele>
        <time>2017-03-26T14:02:40Z</time>
      </trkpt>
      <trkpt lat="45.17092" lon="4.84351">
        <ele>297.13</ele>
        <time>2017-03-26T14:02:41Z</time>
      </trkpt>
      <trkpt lat="45.17092" lon="4.84351">
        <ele>297.13</ele>
        <time>2017-03-26T14:02:42Z</time>
      </trkpt>
      <trkpt lat="45.17092" lon="4.84351">
        <ele>297.13</ele>
        <time>2017-03-26T14:02:43Z</time>
      </trkpt>
      <trkpt lat="45.17092" lon="4.84351">
        <ele>297.13</ele>
        <time>2017-03-26T14:02:44Z</time>
      </trkpt>
      <trkpt lat="45.17092" lon="4.84351">
        <ele>297.13</ele>
        <time>2017-03-26T14:02:45Z</time>
      </trkpt>
      <trkpt lat="45.17092" lon="4.84351">
        <ele>297.13</ele>
        <time>2017-03-26T14:02:46Z</time>
      </trkpt>
      <trkpt lat="45.17092" lon="4.84351">
        <ele>297.13</ele>
        <time>2017-03-26T14:02:47Z</time>
      </trkpt>
      <trkpt lat="45.17092" lon="4.84351">
        <ele>297.13</ele>
        <time>2017-03-26T14:02:48Z</time>
      </trkpt>
      <trkpt lat="45.17092" lon="4.84351">
        <ele>297.13</ele>
        <time>2017-03-26T14:02:49Z</time>
      </trkpt>
      <trkpt lat="45.17092" lon="4.84351">
        <ele>297.13</ele>
        <time>2017-03-26T14:02:50Z</time>
      </trkpt>
      <trkpt lat="45.17092" lon="4.84351">
        <ele>297.13</ele>
        <time>2017-03-26T14:02:51Z</time>
      </trkpt>
      <trkpt lat="45.17092" lon="4.84351">
        <ele>297.13</ele>
        <time>2017-03-26T14:02:52Z</time>
      </trkpt>
      <trkpt lat="45.17092" lon="4.84351">
        <ele>297.13</ele>
        <time>2017-03-26T14:02:53Z</time>
      </trkpt>
      <trkpt lat="45.17092" lon="4.84351">
        <ele>297.13</ele>
        <time>2017-03-26T14:02:54Z</time>
      </trkpt>
      <trkpt lat="45.17092" lon="4.84351">
        <ele>297.13</ele>
        <time>2017-03-26T14:02:55Z</time>
      </trkpt>
      <trkpt lat="45.17092" lon="4.84351">
        <ele>297.13</ele>
        <time>2017-03-26T14:02:56Z</time>
      </trkpt>
      <trkpt lat="45.17092" lon="4.84351">
        <ele>297.13</ele>
        <time>2017-03-26T14:02:57Z</time>
      </trkpt>
      <trkpt lat="45.17092" lon="4.84351">
        <ele>297.13</ele>
        <time>2017-03-26T14:02:58Z</time>
      </trkpt>
      <trkpt lat="45.17092" lon="4.84351">
        <ele>297.13</ele>
        <time>2017-03-26T14:02:59Z</time>
      </trkpt>
      <trkpt lat="45.17092" lon="4.84351">
        <ele>297.13</ele>
        <time>2017-03-26T14:03:00Z</time>
      </trkpt>
      <trkpt lat="45.17092" lon="4.84351">
        <ele>297.13</ele>
        <time>2017-03-26T14:03:01Z</time>
      </trkpt>
      <trkpt lat="45.17092" lon="4.84351">
        <ele>297.13</ele>
        <time>2017-03-26T14:03:02Z</time>
      </trkpt>
      <trkpt lat="45.17092" lon="4.84351">
        <ele>297.13</ele>
        <time>2017-03-26T14:03:03Z</time>
      </trkpt>
      <trkpt lat="45.17092" lon="4.84351">
        <ele>297.13</ele>
        <time>2017-03-26T14:03:04Z</time>
      </trkpt>
      <trkpt lat="45.17092" lon="4.84351">
        <ele>297.13</ele>
        <time>2017-03-26T14:03:05Z</time>
      </trkpt>
      <trkpt lat="45.17092" lon="4.84351">
        <ele>297.13</ele>
        <time>2017-03-26T14:03:06Z</time>
      </trkpt>
      <trkpt lat="45.17092" lon="4.84351">
        <ele>297.13</ele>
        <time>2017-03-26T14:03:07Z</time>
      </trkpt>
      <trkpt lat="45.17092" lon="4.84351">
        <ele>297.13</ele>
        <time>2017-03-26T14:03:08Z</time>
      </trkpt>
      <trkpt lat="45.17092" lon="4.84351">
        <ele>297.13</ele>
        <time>2017-03-26T14:03:09Z</time>
      </trkpt>
      <trkpt lat="45.17091" lon="4.84357">
        <ele>297.05</ele>
        <time>2017-03-26T14:03:10Z</time>
      </trkpt>
      <trkpt lat="45.17089" lon="4.84364">
        <ele>297.11</ele>
        <time>2017-03-26T14:03:11Z</time>
      </trkpt>
      <trkpt lat="45.17088" lon="4.84373">
        <ele>297.21</ele>
        <time>2017-03-26T14:03:12Z</time>
      </trkpt>
      <trkpt lat="45.17086" lon="4.84381">
        <ele>297.47</ele>
        <time>2017-03-26T14:03:13Z</time>
      </trkpt>
      <trkpt lat="45.17084" lon="4.8439">
        <ele>297.6</ele>
        <time>2017-03-26T14:03:14Z</time>
      </trkpt>
      <trkpt lat="45.17081" lon="4.844">
        <ele>297.62</ele>
        <time>2017-03-26T14:03:15Z</time>
      </trkpt>
      <trkpt lat="45.17079" lon="4.8441">
        <ele>297.71</ele>
        <time>2017-03-26T14:03:16Z</time>
      </trkpt>
      <trkpt lat="45.17077" lon="4.8442">
        <ele>297.49</ele>
        <time>2017-03-26T14:03:17Z</time>
      </trkpt>
      <trkpt lat="45.17075" lon="4.8443">
        <ele>297.6</ele>
        <time>2017-03-26T14:03:18Z</time>
      </trkpt>
      <trkpt lat="45.17072" lon="4.84441">
        <ele>297.62</ele>
        <time>2017-03-26T14:03:19Z</time>
      </trkpt>
      <trkpt lat="45.1707" lon="4.84452">
        <ele>297.39</ele>
        <time>2017-03-26T14:03:20Z</time>
      </trkpt>
      <trkpt lat="45.17068" lon="4.84462">
        <ele>297.18</ele>
        <time>2017-03-26T14:03:21Z</time>
      </trkpt>
      <trkpt lat="45.17066" lon="4.84471">
        <ele>297.14</ele>
        <time>2017-03-26T14:03:22Z</time>
      </trkpt>
      <trkpt lat="45.17063" lon="4.84481">
        <ele>296.89</ele>
        <time>2017-03-26T14:03:23Z</time>
      </trkpt>
      <trkpt lat="45.17061" lon="4.8449">
        <ele>296.76</ele>
        <time>2017-03-26T14:03:24Z</time>
      </trkpt>
      <trkpt lat="45.17059" lon="4.845">
        <ele>296.58</ele>
        <time>2017-03-26T14:03:25Z</time>
      </trkpt>
      <trkpt lat="45.17057" lon="4.84509">
        <ele>296.38</ele>
        <time>2017-03-26T14:03:26Z</time>
      </trkpt>
      <trkpt lat="45.17055" lon="4.8452">
        <ele>296.26</ele>
        <time>2017-03-26T14:03:27Z</time>
      </trkpt>
      <trkpt lat="45.17052" lon="4.8453">
        <ele>296.08</ele>
        <time>2017-03-26T14:03:28Z</time>
      </trkpt>
      <trkpt lat="45.1705" lon="4.84542">
        <ele>295.88</ele>
        <time>2017-03-26T14:03:29Z</time>
      </trkpt>
      <trkpt lat="45.17047" lon="4.84554">
        <ele>295.6</ele>
        <time>2017-03-26T14:03:30Z</time>
      </trkpt>
      <trkpt lat="45.17045" lon="4.84565">
        <ele>295.46</ele>
        <time>2017-03-26T14:03:31Z</time>
      </trkpt>
      <trkpt lat="45.17043" lon="4.84577">
        <ele>295.36</ele>
        <time>2017-03-26T14:03:32Z</time>
      </trkpt>
      <trkpt lat="45.1704" lon="4.84589">
        <ele>295.1</ele>
        <time>2017-03-26T14:03:33Z</time>
      </trkpt>
      <trkpt lat="45.17039" lon="4.84601">
        <ele>295.04</ele>
        <time>2017-03-26T14:03:34Z</time>
      </trkpt>
      <trkpt lat="45.17036" lon="4.84614">
        <ele>294.87</ele>
        <time>2017-03-26T14:03:35Z</time>
      </trkpt>
      <trkpt lat="45.17034" lon="4.84627">
        <ele>294.52</ele>
        <time>2017-03-26T14:03:36Z</time>
      </trkpt>
      <trkpt lat="45.17031" lon="4.84642">
        <ele>294.05</ele>
        <time>2017-03-26T14:03:37Z</time>
      </trkpt>
      <trkpt lat="45.17027" lon="4.84656">
        <ele>293.63</ele>
        <time>2017-03-26T14:03:38Z</time>
      </trkpt>
      <trkpt lat="45.17022" lon="4.84671">
        <ele>293.23</ele>
        <time>2017-03-26T14:03:39Z</time>
      </trkpt>
      <trkpt lat="45.17015" lon="4.84685">
        <ele>292.91</ele>
        <time>2017-03-26T14:03:40Z</time>
      </trkpt>
      <trkpt lat="45.17008" lon="4.84699">
        <ele>292.45</ele>
        <time>2017-03-26T14:03:41Z</time>
      </trkpt>
      <trkpt lat="45.16999" lon="4.84713">
        <ele>291.95</ele>
        <time>2017-03-26T14:03:42Z</time>
      </trkpt>
      <trkpt lat="45.1699" lon="4.84726">
        <ele>291.53</ele>
        <time>2017-03-26T14:03:43Z</time>
      </trkpt>
      <trkpt lat="45.16981" lon="4.8474">
        <ele>291.29</ele>
        <time>2017-03-26T14:03:44Z</time>
      </trkpt>
      <trkpt lat="45.16973" lon="4.84755">
        <ele>291.08</ele>
        <time>2017-03-26T14:03:45Z</time>
      </trkpt>
      <trkpt lat="45.16967" lon="4.8477">
        <ele>290.8</ele>
        <time>2017-03-26T14:03:46Z</time>
      </trkpt>
      <trkpt lat="45.16961" lon="4.84787">
        <ele>290.66</ele>
        <time>2017-03-26T14:03:47Z</time>
      </trkpt>
      <trkpt lat="45.16957" lon="4.84804">
        <ele>290.64</ele>
        <time>2017-03-26T14:03:48Z</time>
      </trkpt>
      <trkpt lat="45.16953" lon="4.84822">
        <ele>290.71</ele>
        <time>2017-03-26T14:03:49Z</time>
      </trkpt>
      <trkpt lat="45.1695" lon="4.8484">
        <ele>290.89</ele>
        <time>2017-03-26T14:03:50Z</time>
      </trkpt>
      <trkpt lat="45.16948" lon="4.84857">
        <ele>291</ele>
        <time>2017-03-26T14:03:51Z</time>
      </trkpt>
      <trkpt lat="45.16947" lon="4.84874">
        <ele>291.02</ele>
        <time>2017-03-26T14:03:52Z</time>
      </trkpt>
      <trkpt lat="45.16945" lon="4.84891">
        <ele>290.79</ele>
        <time>2017-03-26T14:03:53Z</time>
      </trkpt>
      <trkpt lat="45.16944" lon="4.84907">
        <ele>290.02</ele>
        <time>2017-03-26T14:03:54Z</time>
      </trkpt>
      <trkpt lat="45.16942" lon="4.84923">
        <ele>289.63</ele>
        <time>2017-03-26T14:03:55Z</time>
      </trkpt>
      <trkpt lat="45.16939" lon="4.84939">
        <ele>289.31</ele>
        <time>2017-03-26T14:03:56Z</time>
      </trkpt>
      <trkpt lat="45.16934" lon="4.84953">
        <ele>288.85</ele>
        <time>2017-03-26T14:03:57Z</time>
      </trkpt>
      <trkpt lat="45.16927" lon="4.84965">
        <ele>288.43</ele>
        <time>2017-03-26T14:03:58Z</time>
      </trkpt>
      <trkpt lat="45.16918" lon="4.84978">
        <ele>287.95</ele>
        <time>2017-03-26T14:03:59Z</time>
      </trkpt>
      <trkpt lat="45.16909" lon="4.84989">
        <ele>287.37</ele>
        <time>2017-03-26T14:04:00Z</time>
      </trkpt>
      <trkpt lat="45.16898" lon="4.85">
        <ele>286.54</ele>
        <time>2017-03-26T14:04:01Z</time>
      </trkpt>
      <trkpt lat="45.16887" lon="4.8501">
        <ele>285.65</ele>
        <time>2017-03-26T14:04:02Z</time>
      </trkpt>
      <trkpt lat="45.16876" lon="4.85019">
        <ele>284.27</ele>
        <time>2017-03-26T14:04:03Z</time>
      </trkpt>
      <trkpt lat="45.16864" lon="4.85029">
        <ele>282.72</ele>
        <time>2017-03-26T14:04:04Z</time>
      </trkpt>
      <trkpt lat="45.16854" lon="4.85038">
        <ele>281.37</ele>
        <time>2017-03-26T14:04:05Z</time>
      </trkpt>
      <trkpt lat="45.16843" lon="4.85048">
        <ele>279.98</ele>
        <time>2017-03-26T14:04:06Z</time>
      </trkpt>
      <trkpt lat="45.16834" lon="4.85058">
        <ele>278.66</ele>
        <time>2017-03-26T14:04:07Z</time>
      </trkpt>
      <trkpt lat="45.16825" lon="4.8507">
        <ele>277.28</ele>
        <time>2017-03-26T14:04:08Z</time>
      </trkpt>
      <trkpt lat="45.16816" lon="4.85081">
        <ele>275.96</ele>
        <time>2017-03-26T14:04:09Z</time>
      </trkpt>
      <trkpt lat="45.16807" lon="4.85091">
        <ele>274.58</ele>
        <time>2017-03-26T14:04:10Z</time>
      </trkpt>
      <trkpt lat="45.16798" lon="4.85102">
        <ele>273.26</ele>
        <time>2017-03-26T14:04:11Z</time>
      </trkpt>
      <trkpt lat="45.1679" lon="4.85113">
        <ele>271.96</ele>
        <time>2017-03-26T14:04:12Z</time>
      </trkpt>
      <trkpt lat="45.16781" lon="4.85124">
        <ele>270.74</ele>
        <time>2017-03-26T14:04:13Z</time>
      </trkpt>
      <trkpt lat="45.16772" lon="4.85134">
        <ele>269.61</ele>
        <time>2017-03-26T14:04:14Z</time>
      </trkpt>
      <trkpt lat="45.16762" lon="4.85143">
        <ele>268.67</ele>
        <time>2017-03-26T14:04:15Z</time>
      </trkpt>
      <trkpt lat="45.16753" lon="4.8515">
        <ele>267.76</ele>
        <time>2017-03-26T14:04:16Z</time>
      </trkpt>
      <trkpt lat="45.16743" lon="4.85157">
        <ele>266.94</ele>
        <time>2017-03-26T14:04:17Z</time>
      </trkpt>
      <trkpt lat="45.16734" lon="4.85165">
        <ele>265.97</ele>
        <time>2017-03-26T14:04:18Z</time>
      </trkpt>
      <trkpt lat="45.16726" lon="4.85173">
        <ele>265.06</ele>
        <time>2017-03-26T14:04:19Z</time>
      </trkpt>
      <trkpt lat="45.16718" lon="4.85182">
        <ele>264.24</ele>
        <time>2017-03-26T14:04:20Z</time>
      </trkpt>
      <trkpt lat="45.16712" lon="4.85193">
        <ele>263.51</ele>
        <time>2017-03-26T14:04:21Z</time>
      </trkpt>
      <trkpt lat="45.16708" lon="4.85204">
        <ele>262.89</ele>
        <time>2017-03-26T14:04:22Z</time>
      </trkpt>
      <trkpt lat="45.16707" lon="4.85215">
        <ele>262.12</ele>
        <time>2017-03-26T14:04:23Z</time>
      </trkpt>
      <trkpt lat="45.16706" lon="4.85226">
        <ele>261.33</ele>
        <time>2017-03-26T14:04:24Z</time>
      </trkpt>
      <trkpt lat="45.16708" lon="4.85237">
        <ele>260.61</ele>
        <time>2017-03-26T14:04:25Z</time>
      </trkpt>
      <trkpt lat="45.16711" lon="4.85248">
        <ele>259.91</ele>
        <time>2017-03-26T14:04:26Z</time>
      </trkpt>
      <trkpt lat="45.16715" lon="4.85258">
        <ele>259.45</ele>
        <time>2017-03-26T14:04:27Z</time>
      </trkpt>
      <trkpt lat="45.16718" lon="4.85268">
        <ele>259.03</ele>
        <time>2017-03-26T14:04:28Z</time>
      </trkpt>
      <trkpt lat="45.16721" lon="4.85279">
        <ele>258.39</ele>
        <time>2017-03-26T14:04:29Z</time>
      </trkpt>
      <trkpt lat="45.16723" lon="4.85288">
        <ele>257.62</ele>
        <time>2017-03-26T14:04:30Z</time>
      </trkpt>
      <trkpt lat="45.16725" lon="4.85298">
        <ele>256.99</ele>
        <time>2017-03-26T14:04:31Z</time>
      </trkpt>
      <trkpt lat="45.16725" lon="4.85308">
        <ele>256.22</ele>
        <time>2017-03-26T14:04:32Z</time>
      </trkpt>
      <trkpt lat="45.16723" lon="4.85318">
        <ele>255.51</ele>
        <time>2017-03-26T14:04:33Z</time>
      </trkpt>
      <trkpt lat="45.16722" lon="4.85329">
        <ele>254.89</ele>
        <time>2017-03-26T14:04:34Z</time>
      </trkpt>
      <trkpt lat="45.1672" lon="4.85342">
        <ele>254.2</ele>
        <time>2017-03-26T14:04:35Z</time>
      </trkpt>
      <trkpt lat="45.16717" lon="4.85355">
        <ele>253.5</ele>
        <time>2017-03-26T14:04:36Z</time>
      </trkpt>
      <trkpt lat="45.16715" lon="4.85368">
        <ele>252.72</ele>
        <time>2017-03-26T14:04:37Z</time>
      </trkpt>
      <trkpt lat="45.16715" lon="4.8538">
        <ele>252.09</ele>
        <time>2017-03-26T14:04:38Z</time>
      </trkpt>
      <trkpt lat="45.16714" lon="4.85394">
        <ele>251.4</ele>
        <time>2017-03-26T14:04:39Z</time>
      </trkpt>
      <trkpt lat="45.16713" lon="4.85408">
        <ele>250.78</ele>
        <time>2017-03-26T14:04:40Z</time>
      </trkpt>
      <trkpt lat="45.16713" lon="4.85422">
        <ele>250.18</ele>
        <time>2017-03-26T14:04:41Z</time>
      </trkpt>
      <trkpt lat="45.16712" lon="4.85436">
        <ele>249.58</ele>
        <time>2017-03-26T14:04:42Z</time>
      </trkpt>
      <trkpt lat="45.1671" lon="4.85451">
        <ele>249.06</ele>
        <time>2017-03-26T14:04:43Z</time>
      </trkpt>
      <trkpt lat="45.16708" lon="4.85465">
        <ele>248.48</ele>
        <time>2017-03-26T14:04:44Z</time>
      </trkpt>
      <trkpt lat="45.16705" lon="4.8548">
        <ele>247.88</ele>
        <time>2017-03-26T14:04:45Z</time>
      </trkpt>
      <trkpt lat="45.16702" lon="4.85493">
        <ele>247.28</ele>
        <time>2017-03-26T14:04:46Z</time>
      </trkpt>
      <trkpt lat="45.16697" lon="4.85506">
        <ele>246.6</ele>
        <time>2017-03-26T14:04:47Z</time>
      </trkpt>
      <trkpt lat="45.16692" lon="4.85518">
        <ele>245.9</ele>
        <time>2017-03-26T14:04:48Z</time>
      </trkpt>
      <trkpt lat="45.16687" lon="4.8553">
        <ele>245.2</ele>
        <time>2017-03-26T14:04:49Z</time>
      </trkpt>
      <trkpt lat="45.16681" lon="4.85539">
        <ele>244.58</ele>
        <time>2017-03-26T14:04:50Z</time>
      </trkpt>
      <trkpt lat="45.16673" lon="4.85547">
        <ele>243.98</ele>
        <time>2017-03-26T14:04:51Z</time>
      </trkpt>
      <trkpt lat="45.16665" lon="4.85551">
        <ele>243.46</ele>
        <time>2017-03-26T14:04:52Z</time>
      </trkpt>
      <trkpt lat="45.16656" lon="4.85551">
        <ele>242.88</ele>
        <time>2017-03-26T14:04:53Z</time>
      </trkpt>
      <trkpt lat="45.16644" lon="4.85542">
        <ele>242.28</ele>
        <time>2017-03-26T14:04:54Z</time>
      </trkpt>
      <trkpt lat="45.16634" lon="4.85539">
        <ele>241.76</ele>
        <time>2017-03-26T14:04:55Z</time>
      </trkpt>
      <trkpt lat="45.16622" lon="4.85535">
        <ele>241.18</ele>
        <time>2017-03-26T14:04:56Z</time>
      </trkpt>
      <trkpt lat="45.1661" lon="4.85531">
        <ele>240.58</ele>
        <time>2017-03-26T14:04:57Z</time>
      </trkpt>
      <trkpt lat="45.16597" lon="4.85526">
        <ele>240.14</ele>
        <time>2017-03-26T14:04:58Z</time>
      </trkpt>
      <trkpt lat="45.16585" lon="4.8552">
        <ele>239.73</ele>
        <time>2017-03-26T14:04:59Z</time>
      </trkpt>
      <trkpt lat="45.16574" lon="4.85511">
        <ele>239.33</ele>
        <time>2017-03-26T14:05:00Z</time>
      </trkpt>
      <trkpt lat="45.16563" lon="4.85499">
        <ele>238.93</ele>
        <time>2017-03-26T14:05:01Z</time>
      </trkpt>
      <trkpt lat="45.16554" lon="4.85486">
        <ele>238.45</ele>
        <time>2017-03-26T14:05:02Z</time>
      </trkpt>
      <trkpt lat="45.16545" lon="4.85471">
        <ele>238.03</ele>
        <time>2017-03-26T14:05:03Z</time>
      </trkpt>
      <trkpt lat="45.16537" lon="4.85457">
        <ele>237.47</ele>
        <time>2017-03-26T14:05:04Z</time>
      </trkpt>
      <trkpt lat="45.16529" lon="4.85442">
        <ele>236.96</ele>
        <time>2017-03-26T14:05:05Z</time>
      </trkpt>
      <trkpt lat="45.1652" lon="4.85426">
        <ele>236.54</ele>
        <time>2017-03-26T14:05:06Z</time>
      </trkpt>
      <trkpt lat="45.1651" lon="4.8541">
        <ele>236.21</ele>
        <time>2017-03-26T14:05:07Z</time>
      </trkpt>
      <trkpt lat="45.16499" lon="4.85397">
        <ele>235.91</ele>
        <time>2017-03-26T14:05:08Z</time>
      </trkpt>
      <trkpt lat="45.16489" lon="4.85386">
        <ele>235.53</ele>
        <time>2017-03-26T14:05:09Z</time>
      </trkpt>
      <trkpt lat="45.1648" lon="4.8538">
        <ele>235.05</ele>
        <time>2017-03-26T14:05:10Z</time>
      </trkpt>
      <trkpt lat="45.16472" lon="4.85376">
        <ele>234.87</ele>
        <time>2017-03-26T14:05:11Z</time>
      </trkpt>
      <trkpt lat="45.16465" lon="4.85379">
        <ele>234.52</ele>
        <time>2017-03-26T14:05:12Z</time>
      </trkpt>
      <trkpt lat="45.1646" lon="4.85388">
        <ele>234.21</ele>
        <time>2017-03-26T14:05:13Z</time>
      </trkpt>
      <trkpt lat="45.16456" lon="4.85398">
        <ele>233.83</ele>
        <time>2017-03-26T14:05:14Z</time>
      </trkpt>
      <trkpt lat="45.16451" lon="4.8541">
        <ele>233.35</ele>
        <time>2017-03-26T14:05:15Z</time>
      </trkpt>
      <trkpt lat="45.16445" lon="4.85423">
        <ele>233.09</ele>
        <time>2017-03-26T14:05:16Z</time>
      </trkpt>
      <trkpt lat="45.16438" lon="4.85435">
        <ele>232.64</ele>
        <time>2017-03-26T14:05:17Z</time>
      </trkpt>
      <trkpt lat="45.16429" lon="4.85445">
        <ele>232.23</ele>
        <time>2017-03-26T14:05:18Z</time>
      </trkpt>
      <trkpt lat="45.1642" lon="4.85452">
        <ele>231.83</ele>
        <time>2017-03-26T14:05:19Z</time>
      </trkpt>
      <trkpt lat="45.16408" lon="4.85456">
        <ele>231.75</ele>
        <time>2017-03-26T14:05:20Z</time>
      </trkpt>
      <trkpt lat="45.16398" lon="4.85462">
        <ele>231.65</ele>
        <time>2017-03-26T14:05:21Z</time>
      </trkpt>
      <trkpt lat="45.16387" lon="4.8547">
        <ele>231.39</ele>
        <time>2017-03-26T14:05:22Z</time>
      </trkpt>
      <trkpt lat="45.16377" lon="4.85479">
        <ele>231.1</ele>
        <time>2017-03-26T14:05:23Z</time>
      </trkpt>
      <trkpt lat="45.16368" lon="4.85487">
        <ele>231.12</ele>
        <time>2017-03-26T14:05:24Z</time>
      </trkpt>
      <trkpt lat="45.16359" lon="4.85494">
        <ele>230.89</ele>
        <time>2017-03-26T14:05:25Z</time>
      </trkpt>
      <trkpt lat="45.16349" lon="4.85502">
        <ele>230.6</ele>
        <time>2017-03-26T14:05:26Z</time>
      </trkpt>
      <trkpt lat="45.16338" lon="4.85508">
        <ele>230.22</ele>
        <time>2017-03-26T14:05:27Z</time>
      </trkpt>
      <trkpt lat="45.16326" lon="4.85509">
        <ele>229.91</ele>
        <time>2017-03-26T14:05:28Z</time>
      </trkpt>
      <trkpt lat="45.16315" lon="4.85509">
        <ele>229.45</ele>
        <time>2017-03-26T14:05:29Z</time>
      </trkpt>
      <trkpt lat="45.16303" lon="4.85508">
        <ele>229.03</ele>
        <time>2017-03-26T14:05:30Z</time>
      </trkpt>
      <trkpt lat="45.16292" lon="4.85506">
        <ele>228.47</ele>
        <time>2017-03-26T14:05:31Z</time>
      </trkpt>
      <trkpt lat="45.1628" lon="4.85506">
        <ele>228.04</ele>
        <time>2017-03-26T14:05:32Z</time>
      </trkpt>
      <trkpt lat="45.16269" lon="4.85509">
        <ele>227.55</ele>
        <time>2017-03-26T14:05:33Z</time>
      </trkpt>
      <trkpt lat="45.16259" lon="4.85516">
        <ele>227.05</ele>
        <time>2017-03-26T14:05:34Z</time>
      </trkpt>
      <trkpt lat="45.16249" lon="4.85523">
        <ele>226.55</ele>
        <time>2017-03-26T14:05:35Z</time>
      </trkpt>
      <trkpt lat="45.16238" lon="4.85531">
        <ele>226.05</ele>
        <time>2017-03-26T14:05:36Z</time>
      </trkpt>
      <trkpt lat="45.16228" lon="4.85539">
        <ele>225.63</ele>
        <time>2017-03-26T14:05:37Z</time>
      </trkpt>
      <trkpt lat="45.16219" lon="4.85548">
        <ele>225.31</ele>
        <time>2017-03-26T14:05:38Z</time>
      </trkpt>
      <trkpt lat="45.1621" lon="4.85559">
        <ele>224.85</ele>
        <time>2017-03-26T14:05:39Z</time>
      </trkpt>
      <trkpt lat="45.16203" lon="4.85571">
        <ele>224.51</ele>
        <time>2017-03-26T14:05:40Z</time>
      </trkpt>
      <trkpt lat="45.16195" lon="4.85583">
        <ele>224.21</ele>
        <time>2017-03-26T14:05:41Z</time>
      </trkpt>
      <trkpt lat="45.16187" lon="4.85595">
        <ele>223.83</ele>
        <time>2017-03-26T14:05:42Z</time>
      </trkpt>
      <trkpt lat="45.16179" lon="4.85604">
        <ele>223.59</ele>
        <time>2017-03-26T14:05:43Z</time>
      </trkpt>
      <trkpt lat="45.1617" lon="4.85611">
        <ele>223.46</ele>
        <time>2017-03-26T14:05:44Z</time>
      </trkpt>
      <trkpt lat="45.1616" lon="4.85617">
        <ele>223.28</ele>
        <time>2017-03-26T14:05:45Z</time>
      </trkpt>
      <trkpt lat="45.1615" lon="4.85623">
        <ele>222.92</ele>
        <time>2017-03-26T14:05:46Z</time>
      </trkpt>
      <trkpt lat="45.16139" lon="4.85626">
        <ele>222.61</ele>
        <time>2017-03-26T14:05:47Z</time>
      </trkpt>
      <trkpt lat="45.16128" lon="4.85627">
        <ele>222.39</ele>
        <time>2017-03-26T14:05:48Z</time>
      </trkpt>
      <trkpt lat="45.16117" lon="4.85627">
        <ele>222.1</ele>
        <time>2017-03-26T14:05:49Z</time>
      </trkpt>
      <trkpt lat="45.16105" lon="4.85625">
        <ele>221.72</ele>
        <time>2017-03-26T14:05:50Z</time>
      </trkpt>
      <trkpt lat="45.16094" lon="4.85623">
        <ele>221.41</ele>
        <time>2017-03-26T14:05:51Z</time>
      </trkpt>
      <trkpt lat="45.16083" lon="4.85622">
        <ele>221.19</ele>
        <time>2017-03-26T14:05:52Z</time>
      </trkpt>
      <trkpt lat="45.16072" lon="4.85624">
        <ele>220.74</ele>
        <time>2017-03-26T14:05:53Z</time>
      </trkpt>
      <trkpt lat="45.1606" lon="4.85627">
        <ele>220.25</ele>
        <time>2017-03-26T14:05:54Z</time>
      </trkpt>
      <trkpt lat="45.16049" lon="4.85632">
        <ele>219.59</ele>
        <time>2017-03-26T14:05:55Z</time>
      </trkpt>
      <trkpt lat="45.16038" lon="4.85639">
        <ele>218.9</ele>
        <time>2017-03-26T14:05:56Z</time>
      </trkpt>
      <trkpt lat="45.16028" lon="4.85648">
        <ele>218.12</ele>
        <time>2017-03-26T14:05:57Z</time>
      </trkpt>
      <trkpt lat="45.16018" lon="4.85659">
        <ele>217.33</ele>
        <time>2017-03-26T14:05:58Z</time>
      </trkpt>
      <trkpt lat="45.16009" lon="4.85669">
        <ele>216.45</ele>
        <time>2017-03-26T14:05:59Z</time>
      </trkpt>
      <trkpt lat="45.15999" lon="4.85678">
        <ele>215.63</ele>
        <time>2017-03-26T14:06:00Z</time>
      </trkpt>
      <trkpt lat="45.15991" lon="4.85686">
        <ele>214.91</ele>
        <time>2017-03-26T14:06:01Z</time>
      </trkpt>
      <trkpt lat="45.15983" lon="4.85693">
        <ele>214.45</ele>
        <time>2017-03-26T14:06:02Z</time>
      </trkpt>
      <trkpt lat="45.15979" lon="4.85701">
        <ele>213.63</ele>
        <time>2017-03-26T14:06:03Z</time>
      </trkpt>
      <trkpt lat="45.15976" lon="4.85709">
        <ele>212.91</ele>
        <time>2017-03-26T14:06:04Z</time>
      </trkpt>
      <trkpt lat="45.15982" lon="4.85715">
        <ele>212.37</ele>
        <time>2017-03-26T14:06:05Z</time>
      </trkpt>
      <trkpt lat="45.15987" lon="4.85721">
        <ele>211.46</ele>
        <time>2017-03-26T14:06:06Z</time>
      </trkpt>
      <trkpt lat="45.15994" lon="4.85727">
        <ele>210.48</ele>
        <time>2017-03-26T14:06:07Z</time>
      </trkpt>
      <trkpt lat="45.16005" lon="4.85733">
        <ele>209.56</ele>
        <time>2017-03-26T14:06:08Z</time>
      </trkpt>
      <trkpt lat="45.16015" lon="4.85739">
        <ele>208.66</ele>
        <time>2017-03-26T14:06:09Z</time>
      </trkpt>
      <trkpt lat="45.16026" lon="4.85743">
        <ele>207.92</ele>
        <time>2017-03-26T14:06:10Z</time>
      </trkpt>
      <trkpt lat="45.16037" lon="4.85744">
        <ele>207.13</ele>
        <time>2017-03-26T14:06:11Z</time>
      </trkpt>
      <trkpt lat="45.16049" lon="4.85744">
        <ele>206.49</ele>
        <time>2017-03-26T14:06:12Z</time>
      </trkpt>
      <trkpt lat="45.1606" lon="4.85744">
        <ele>205.64</ele>
        <time>2017-03-26T14:06:13Z</time>
      </trkpt>
      <trkpt lat="45.1607" lon="4.85744">
        <ele>204.67</ele>
        <time>2017-03-26T14:06:14Z</time>
      </trkpt>
      <trkpt lat="45.1608" lon="4.85745">
        <ele>203.76</ele>
        <time>2017-03-26T14:06:15Z</time>
      </trkpt>
      <trkpt lat="45.16089" lon="4.85749">
        <ele>202.78</ele>
        <time>2017-03-26T14:06:16Z</time>
      </trkpt>
      <trkpt lat="45.16098" lon="4.85753">
        <ele>201.94</ele>
        <time>2017-03-26T14:06:17Z</time>
      </trkpt>
      <trkpt lat="45.16098" lon="4.85765">
        <ele>201.05</ele>
        <time>2017-03-26T14:06:18Z</time>
      </trkpt>
      <trkpt lat="45.161" lon="4.85778">
        <ele>200.47</ele>
        <time>2017-03-26T14:06:19Z</time>
      </trkpt>
      <trkpt lat="45.16101" lon="4.8579">
        <ele>199.72</ele>
        <time>2017-03-26T14:06:20Z</time>
      </trkpt>
      <trkpt lat="45.16102" lon="4.85805">
        <ele>198.77</ele>
        <time>2017-03-26T14:06:21Z</time>
      </trkpt>
      <trkpt lat="45.16101" lon="4.8582">
        <ele>197.86</ele>
        <time>2017-03-26T14:06:22Z</time>
      </trkpt>
      <trkpt lat="45.16101" lon="4.85835">
        <ele>196.88</ele>
        <time>2017-03-26T14:06:23Z</time>
      </trkpt>
      <trkpt lat="45.16101" lon="4.8585">
        <ele>195.8</ele>
        <time>2017-03-26T14:06:24Z</time>
      </trkpt>
      <trkpt lat="45.16101" lon="4.85863">
        <ele>194.7</ele>
        <time>2017-03-26T14:06:25Z</time>
      </trkpt>
      <trkpt lat="45.16101" lon="4.85874">
        <ele>193.6</ele>
        <time>2017-03-26T14:06:26Z</time>
      </trkpt>
      <trkpt lat="45.16101" lon="4.85884">
        <ele>192.58</ele>
        <time>2017-03-26T14:06:27Z</time>
      </trkpt>
      <trkpt lat="45.16101" lon="4.8589">
        <ele>191.74</ele>
        <time>2017-03-26T14:06:28Z</time>
      </trkpt>
      <trkpt lat="45.16101" lon="4.85894">
        <ele>191.01</ele>
        <time>2017-03-26T14:06:29Z</time>
      </trkpt>
      <trkpt lat="45.16101" lon="4.85897">
        <ele>190.47</ele>
        <time>2017-03-26T14:06:30Z</time>
      </trkpt>
      <trkpt lat="45.16101" lon="4.85899">
        <ele>189.8</ele>
        <time>2017-03-26T14:06:31Z</time>
      </trkpt>
      <trkpt lat="45.16101" lon="4.859">
        <ele>189.26</ele>
        <time>2017-03-26T14:06:32Z</time>
      </trkpt>
      <trkpt lat="45.161" lon="4.859">
        <ele>188.68</ele>
        <time>2017-03-26T14:06:33Z</time>
      </trkpt>
      <trkpt lat="45.161" lon="4.85901">
        <ele>188.16</ele>
        <time>2017-03-26T14:06:34Z</time>
      </trkpt>
      <trkpt lat="45.161" lon="4.85901">
        <ele>188.06</ele>
        <time>2017-03-26T14:06:35Z</time>
      </trkpt>
      <trkpt lat="45.161" lon="4.85901">
        <ele>188.04</ele>
        <time>2017-03-26T14:06:36Z</time>
      </trkpt>
      <trkpt lat="45.161" lon="4.85901">
        <ele>188.03</ele>
        <time>2017-03-26T14:06:37Z</time>
      </trkpt>
      <trkpt lat="45.161" lon="4.85901">
        <ele>188.03</ele>
        <time>2017-03-26T14:06:38Z</time>
      </trkpt>
      <trkpt lat="45.161" lon="4.85901">
        <ele>188.03</ele>
        <time>2017-03-26T14:06:39Z</time>
      </trkpt>
      <trkpt lat="45.161" lon="4.85901">
        <ele>188.03</ele>
        <time>2017-03-26T14:06:40Z</time>
      </trkpt>
      <trkpt lat="45.161" lon="4.85901">
        <ele>188.03</ele>
        <time>2017-03-26T14:06:41Z</time>
      </trkpt>
      <trkpt lat="45.16096" lon="4.85904">
        <ele>188.51</ele>
        <time>2017-03-26T14:06:42Z</time>
      </trkpt>
      <trkpt lat="45.16095" lon="4.85904">
        <ele>188.69</ele>
        <time>2017-03-26T14:06:43Z</time>
      </trkpt>
      <trkpt lat="45.16093" lon="4.85905">
        <ele>188.88</ele>
        <time>2017-03-26T14:06:44Z</time>
      </trkpt>
      <trkpt lat="45.16093" lon="4.85908">
        <ele>189</ele>
        <time>2017-03-26T14:06:45Z</time>
      </trkpt>
      <trkpt lat="45.16093" lon="4.8591">
        <ele>189.18</ele>
        <time>2017-03-26T14:06:46Z</time>
      </trkpt>
      <trkpt lat="45.16092" lon="4.85914">
        <ele>189.3</ele>
        <time>2017-03-26T14:06:47Z</time>
      </trkpt>
      <trkpt lat="45.16092" lon="4.85918">
        <ele>189.48</ele>
        <time>2017-03-26T14:06:48Z</time>
      </trkpt>
      <trkpt lat="45.16091" lon="4.85923">
        <ele>189.68</ele>
        <time>2017-03-26T14:06:49Z</time>
      </trkpt>
      <trkpt lat="45.1609" lon="4.85929">
        <ele>189.96</ele>
        <time>2017-03-26T14:06:50Z</time>
      </trkpt>
      <trkpt lat="45.16089" lon="4.85934">
        <ele>190.18</ele>
        <time>2017-03-26T14:06:51Z</time>
      </trkpt>
      <trkpt lat="45.16088" lon="4.85938">
        <ele>190.46</ele>
        <time>2017-03-26T14:06:52Z</time>
      </trkpt>
      <trkpt lat="45.16087" lon="4.85943">
        <ele>190.68</ele>
        <time>2017-03-26T14:06:53Z</time>
      </trkpt>
      <trkpt lat="45.16087" lon="4.85945">
        <ele>190.96</ele>
        <time>2017-03-26T14:06:54Z</time>
      </trkpt>
      <trkpt lat="45.16087" lon="4.85948">
        <ele>191.26</ele>
        <time>2017-03-26T14:06:55Z</time>
      </trkpt>
      <trkpt lat="45.16087" lon="4.8595">
        <ele>191.4</ele>
        <time>2017-03-26T14:06:56Z</time>
      </trkpt>
      <trkpt lat="45.16086" lon="4.85952">
        <ele>191.66</ele>
        <time>2017-03-26T14:06:57Z</time>
      </trkpt>
      <trkpt lat="45.16085" lon="4.85952">
        <ele>191.88</ele>
        <time>2017-03-26T14:06:58Z</time>
      </trkpt>
      <trkpt lat="45.16085" lon="4.85952">
        <ele>192.08</ele>
        <time>2017-03-26T14:06:59Z</time>
      </trkpt>
      <trkpt lat="45.16084" lon="4.85952">
        <ele>192.2</ele>
        <time>2017-03-26T14:07:00Z</time>
      </trkpt>
      <trkpt lat="45.16084" lon="4.85952">
        <ele>192.22</ele>
        <time>2017-03-26T14:07:01Z</time>
      </trkpt>
      <trkpt lat="45.16084" lon="4.85952">
        <ele>192.23</ele>
        <time>2017-03-26T14:07:02Z</time>
      </trkpt>
      <trkpt lat="45.16084" lon="4.85952">
        <ele>192.23</ele>
        <time>2017-03-26T14:07:03Z</time>
      </trkpt>
      <trkpt lat="45.16084" lon="4.85952">
        <ele>192.23</ele>
        <time>2017-03-26T14:07:04Z</time>
      </trkpt>
      <trkpt lat="45.16084" lon="4.85952">
        <ele>192.23</ele>
        <time>2017-03-26T14:07:05Z</time>
      </trkpt>
      <trkpt lat="45.16084" lon="4.85952">
        <ele>192.23</ele>
        <time>2017-03-26T14:07:06Z</time>
      </trkpt>
      <trkpt lat="45.16084" lon="4.85952">
        <ele>192.23</ele>
        <time>2017-03-26T14:07:07Z</time>
      </trkpt>
      <trkpt lat="45.16084" lon="4.85952">
        <ele>192.23</ele>
        <time>2017-03-26T14:07:08Z</time>
      </trkpt>
      <trkpt lat="45.16084" lon="4.85952">
        <ele>192.23</ele>
        <time>2017-03-26T14:07:09Z</time>
      </trkpt>
      <trkpt lat="45.16084" lon="4.85952">
        <ele>192.23</ele>
        <time>2017-03-26T14:07:10Z</time>
      </trkpt>
      <trkpt lat="45.16084" lon="4.85952">
        <ele>192.23</ele>
        <time>2017-03-26T14:07:11Z</time>
      </trkpt>
      <trkpt lat="45.16084" lon="4.85952">
        <ele>192.23</ele>
        <time>2017-03-26T14:07:12Z</time>
      </trkpt>
      <trkpt lat="45.16084" lon="4.85952">
        <ele>192.23</ele>
        <time>2017-03-26T14:07:13Z</time>
      </trkpt>
      <trkpt lat="45.16084" lon="4.85952">
        <ele>192.23</ele>
        <time>2017-03-26T14:07:14Z</time>
      </trkpt>
      <trkpt lat="45.16084" lon="4.85952">
        <ele>192.23</ele>
        <time>2017-03-26T14:07:15Z</time>
      </trkpt>
      <trkpt lat="45.16084" lon="4.85952">
        <ele>192.23</ele>
        <time>2017-03-26T14:07:16Z</time>
      </trkpt>
      <trkpt lat="45.16084" lon="4.85952">
        <ele>192.23</ele>
        <time>2017-03-26T14:07:17Z</time>
      </trkpt>
      <trkpt lat="45.16084" lon="4.85952">
        <ele>192.23</ele>
        <time>2017-03-26T14:07:18Z</time>
      </trkpt>
      <trkpt lat="45.16084" lon="4.85952">
        <ele>192.23</ele>
        <time>2017-03-26T14:07:19Z</time>
      </trkpt>
      <trkpt lat="45.16084" lon="4.85952">
        <ele>192.23</ele>
        <time>2017-03-26T14:07:20Z</time>
      </trkpt>
      <trkpt lat="45.16084" lon="4.85952">
        <ele>192.23</ele>
        <time>2017-03-26T14:07:21Z</time>
      </trkpt>
      <trkpt lat="45.16084" lon="4.85952">
        <ele>192.23</ele>
        <time>2017-03-26T14:07:22Z</time>
      </trkpt>
      <trkpt lat="45.16084" lon="4.85952">
        <ele>192.23</ele>
        <time>2017-03-26T14:07:23Z</time>
      </trkpt>
      <trkpt lat="45.16084" lon="4.85952">
        <ele>192.23</ele>
        <time>2017-03-26T14:07:24Z</time>
      </trkpt>
      <trkpt lat="45.16084" lon="4.85952">
        <ele>192.23</ele>
        <time>2017-03-26T14:07:25Z</time>
      </trkpt>
      <trkpt lat="45.16084" lon="4.85952">
        <ele>192.23</ele>
        <time>2017-03-26T14:07:26Z</time>
      </trkpt>
      <trkpt lat="45.16084" lon="4.85952">
        <ele>192.23</ele>
        <time>2017-03-26T14:07:27Z</time>
      </trkpt>
      <trkpt lat="45.16084" lon="4.85952">
        <ele>192.23</ele>
        <time>2017-03-26T14:07:28Z</time>
      </trkpt>
      <trkpt lat="45.16084" lon="4.85952">
        <ele>192.23</ele>
        <time>2017-03-26T14:07:29Z</time>
      </trkpt>
      <trkpt lat="45.16084" lon="4.85952">
        <ele>192.23</ele>
        <time>2017-03-26T14:07:30Z</time>
      </trkpt>
      <trkpt lat="45.16084" lon="4.85952">
        <ele>192.23</ele>
        <time>2017-03-26T14:07:31Z</time>
      </trkpt>
      <trkpt lat="45.16084" lon="4.85952">
        <ele>192.23</ele>
        <time>2017-03-26T14:07:32Z</time>
      </trkpt>
      <trkpt lat="45.16084" lon="4.85952">
        <ele>192.23</ele>
        <time>2017-03-26T14:07:33Z</time>
      </trkpt>
      <trkpt lat="45.16084" lon="4.85952">
        <ele>192.23</ele>
        <time>2017-03-26T14:07:34Z</time>
      </trkpt>
      <trkpt lat="45.16084" lon="4.85952">
        <ele>192.23</ele>
        <time>2017-03-26T14:07:35Z</time>
      </trkpt>
      <trkpt lat="45.16084" lon="4.85952">
        <ele>192.23</ele>
        <time>2017-03-26T14:07:36Z</time>
      </trkpt>
      <trkpt lat="45.16084" lon="4.85952">
        <ele>192.23</ele>
        <time>2017-03-26T14:07:37Z</time>
      </trkpt>
      <trkpt lat="45.16084" lon="4.85952">
        <ele>192.23</ele>
        <time>2017-03-26T14:07:38Z</time>
      </trkpt>
      <trkpt lat="45.16084" lon="4.85952">
        <ele>192.23</ele>
        <time>2017-03-26T14:07:39Z</time>
      </trkpt>
      <trkpt lat="45.16084" lon="4.85952">
        <ele>192.23</ele>
        <time>2017-03-26T14:07:40Z</time>
      </trkpt>
      <trkpt lat="45.16084" lon="4.85952">
        <ele>192.23</ele>
        <time>2017-03-26T14:07:41Z</time>
      </trkpt>
      <trkpt lat="45.16084" lon="4.85952">
        <ele>192.23</ele>
        <time>2017-03-26T14:07:42Z</time>
      </trkpt>
      <trkpt lat="45.16084" lon="4.85952">
        <ele>192.23</ele>
        <time>2017-03-26T14:07:43Z</time>
      </trkpt>
      <trkpt lat="45.16084" lon="4.85952">
        <ele>192.23</ele>
        <time>2017-03-26T14:07:44Z</time>
      </trkpt>
      <trkpt lat="45.16084" lon="4.85952">
        <ele>192.23</ele>
        <time>2017-03-26T14:07:45Z</time>
      </trkpt>
      <trkpt lat="45.16084" lon="4.85952">
        <ele>192.23</ele>
        <time>2017-03-26T14:07:46Z</time>
      </trkpt>
      <trkpt lat="45.16084" lon="4.85952">
        <ele>192.23</ele>
        <time>2017-03-26T14:07:47Z</time>
      </trkpt>
      <trkpt lat="45.16084" lon="4.85952">
        <ele>192.23</ele>
        <time>2017-03-26T14:07:48Z</time>
      </trkpt>
      <trkpt lat="45.16084" lon="4.85952">
        <ele>192.23</ele>
        <time>2017-03-26T14:07:49Z</time>
      </trkpt>
      <trkpt lat="45.16084" lon="4.85952">
        <ele>192.23</ele>
        <time>2017-03-26T14:07:50Z</time>
      </trkpt>
      <trkpt lat="45.16084" lon="4.85952">
        <ele>192.23</ele>
        <time>2017-03-26T14:07:51Z</time>
      </trkpt>
      <trkpt lat="45.16084" lon="4.85952">
        <ele>192.23</ele>
        <time>2017-03-26T14:07:52Z</time>
      </trkpt>
      <trkpt lat="45.16084" lon="4.85952">
        <ele>192.23</ele>
        <time>2017-03-26T14:07:53Z</time>
      </trkpt>
      <trkpt lat="45.16084" lon="4.85952">
        <ele>192.23</ele>
        <time>2017-03-26T14:07:54Z</time>
      </trkpt>
      <trkpt lat="45.16084" lon="4.85952">
        <ele>192.23</ele>
        <time>2017-03-26T14:07:55Z</time>
      </trkpt>
      <trkpt lat="45.16084" lon="4.85952">
        <ele>192.23</ele>
        <time>2017-03-26T14:07:56Z</time>
      </trkpt>
      <trkpt lat="45.16084" lon="4.85952">
        <ele>192.23</ele>
        <time>2017-03-26T14:07:57Z</time>
      </trkpt>
      <trkpt lat="45.16084" lon="4.85952">
        <ele>192.23</ele>
        <time>2017-03-26T14:07:58Z</time>
      </trkpt>
      <trkpt lat="45.16084" lon="4.85952">
        <ele>192.23</ele>
        <time>2017-03-26T14:07:59Z</time>
      </trkpt>
      <trkpt lat="45.16084" lon="4.85952">
        <ele>192.23</ele>
        <time>2017-03-26T14:08:00Z</time>
      </trkpt>
      <trkpt lat="45.16084" lon="4.85952">
        <ele>192.23</ele>
        <time>2017-03-26T14:08:01Z</time>
      </trkpt>
      <trkpt lat="45.16084" lon="4.85952">
        <ele>192.23</ele>
        <time>2017-03-26T14:08:02Z</time>
      </trkpt>
      <trkpt lat="45.16084" lon="4.85952">
        <ele>192.23</ele>
        <time>2017-03-26T14:08:03Z</time>
      </trkpt>
      <trkpt lat="45.16084" lon="4.85952">
        <ele>192.23</ele>
        <time>2017-03-26T14:08:04Z</time>
      </trkpt>
      <trkpt lat="45.16084" lon="4.85952">
        <ele>192.23</ele>
        <time>2017-03-26T14:08:05Z</time>
      </trkpt>
      <trkpt lat="45.16084" lon="4.85952">
        <ele>192.23</ele>
        <time>2017-03-26T14:08:06Z</time>
      </trkpt>
      <trkpt lat="45.16084" lon="4.85952">
        <ele>192.23</ele>
        <time>2017-03-26T14:08:07Z</time>
      </trkpt>
      <trkpt lat="45.16084" lon="4.85952">
        <ele>192.23</ele>
        <time>2017-03-26T14:08:08Z</time>
      </trkpt>
      <trkpt lat="45.16084" lon="4.85952">
        <ele>192.23</ele>
        <time>2017-03-26T14:08:09Z</time>
      </trkpt>
      <trkpt lat="45.16084" lon="4.85952">
        <ele>192.23</ele>
        <time>2017-03-26T14:08:10Z</time>
      </trkpt>
      <trkpt lat="45.16084" lon="4.85952">
        <ele>192.23</ele>
        <time>2017-03-26T14:08:11Z</time>
      </trkpt>
      <trkpt lat="45.16084" lon="4.85952">
        <ele>192.23</ele>
        <time>2017-03-26T14:08:12Z</time>
      </trkpt>
      <trkpt lat="45.16084" lon="4.85952">
        <ele>192.23</ele>
        <time>2017-03-26T14:08:13Z</time>
      </trkpt>
      <trkpt lat="45.16084" lon="4.85952">
        <ele>192.23</ele>
        <time>2017-03-26T14:08:14Z</time>
      </trkpt>
      <trkpt lat="45.16084" lon="4.85952">
        <ele>192.23</ele>
        <time>2017-03-26T14:08:15Z</time>
      </trkpt>
      <trkpt lat="45.16084" lon="4.85952">
        <ele>192.23</ele>
        <time>2017-03-26T14:08:16Z</time>
      </trkpt>
      <trkpt lat="45.16084" lon="4.85952">
        <ele>192.23</ele>
        <time>2017-03-26T14:08:17Z</time>
      </trkpt>
      <trkpt lat="45.16084" lon="4.85952">
        <ele>192.23</ele>
        <time>2017-03-26T14:08:18Z</time>
      </trkpt>
      <trkpt lat="45.16084" lon="4.85952">
        <ele>192.23</ele>
        <time>2017-03-26T14:08:19Z</time>
      </trkpt>
      <trkpt lat="45.16084" lon="4.85952">
        <ele>192.23</ele>
        <time>2017-03-26T14:08:20Z</time>
      </trkpt>
      <trkpt lat="45.16084" lon="4.85952">
        <ele>192.23</ele>
        <time>2017-03-26T14:08:21Z</time>
      </trkpt>
      <trkpt lat="45.16084" lon="4.85952">
        <ele>192.23</ele>
        <time>2017-03-26T14:08:22Z</time>
      </trkpt>
      <trkpt lat="45.16084" lon="4.85952">
        <ele>192.23</ele>
        <time>2017-03-26T14:08:23Z</time>
      </trkpt>
      <trkpt lat="45.16084" lon="4.85952">
        <ele>192.23</ele>
        <time>2017-03-26T14:08:24Z</time>
      </trkpt>
      <trkpt lat="45.16084" lon="4.85952">
        <ele>192.23</ele>
        <time>2017-03-26T14:08:25Z</time>
      </trkpt>
      <trkpt lat="45.16084" lon="4.85952">
        <ele>192.23</ele>
        <time>2017-03-26T14:08:26Z</time>
      </trkpt>
      <trkpt lat="45.16084" lon="4.85952">
        <ele>192.23</ele>
        <time>2017-03-26T14:08:27Z</time>
      </trkpt>
      <trkpt lat="45.16084" lon="4.85952">
        <ele>192.23</ele>
        <time>2017-03-26T14:08:28Z</time>
      </trkpt>
      <trkpt lat="45.16084" lon="4.85952">
        <ele>192.23</ele>
        <time>2017-03-26T14:08:29Z</time>
      </trkpt>
      <trkpt lat="45.16084" lon="4.85952">
        <ele>192.23</ele>
        <time>2017-03-26T14:08:30Z</time>
      </trkpt>
      <trkpt lat="45.16084" lon="4.85952">
        <ele>192.23</ele>
        <time>2017-03-26T14:08:31Z</time>
      </trkpt>
      <trkpt lat="45.16084" lon="4.85952">
        <ele>192.23</ele>
        <time>2017-03-26T14:08:32Z</time>
      </trkpt>
      <trkpt lat="45.16084" lon="4.85952">
        <ele>192.23</ele>
        <time>2017-03-26T14:08:33Z</time>
      </trkpt>
      <trkpt lat="45.16084" lon="4.85952">
        <ele>192.23</ele>
        <time>2017-03-26T14:08:34Z</time>
      </trkpt>
      <trkpt lat="45.16084" lon="4.85952">
        <ele>192.23</ele>
        <time>2017-03-26T14:08:35Z</time>
      </trkpt>
      <trkpt lat="45.16084" lon="4.85952">
        <ele>192.23</ele>
        <time>2017-03-26T14:08:36Z</time>
      </trkpt>
      <trkpt lat="45.16084" lon="4.85952">
        <ele>192.23</ele>
        <time>2017-03-26T14:08:37Z</time>
      </trkpt>
      <trkpt lat="45.16084" lon="4.85952">
        <ele>192.23</ele>
        <time>2017-03-26T14:08:38Z</time>
      </trkpt>
      <trkpt lat="45.16084" lon="4.85952">
        <ele>192.23</ele>
        <time>2017-03-26T14:08:39Z</time>
      </trkpt>
      <trkpt lat="45.16084" lon="4.85952">
        <ele>192.23</ele>
        <time>2017-03-26T14:08:40Z</time>
      </trkpt>
      <trkpt lat="45.16084" lon="4.85952">
        <ele>192.23</ele>
        <time>2017-03-26T14:08:41Z</time>
      </trkpt>
      <trkpt lat="45.16084" lon="4.85952">
        <ele>192.23</ele>
        <time>2017-03-26T14:08:42Z</time>
      </trkpt>
      <trkpt lat="45.16084" lon="4.85952">
        <ele>192.23</ele>
        <time>2017-03-26T14:08:43Z</time>
      </trkpt>
      <trkpt lat="45.16084" lon="4.85952">
        <ele>192.23</ele>
        <time>2017-03-26T14:08:44Z</time>
      </trkpt>
      <trkpt lat="45.16084" lon="4.85952">
        <ele>192.23</ele>
        <time>2017-03-26T14:08:45Z</time>
      </trkpt>
      <trkpt lat="45.16084" lon="4.85952">
        <ele>192.23</ele>
        <time>2017-03-26T14:08:46Z</time>
      </trkpt>
      <trkpt lat="45.16084" lon="4.85952">
        <ele>192.23</ele>
        <time>2017-03-26T14:08:47Z</time>
      </trkpt>
      <trkpt lat="45.16084" lon="4.85952">
        <ele>192.23</ele>
        <time>2017-03-26T14:08:48Z</time>
      </trkpt>
      <trkpt lat="45.16084" lon="4.85952">
        <ele>192.23</ele>
        <time>2017-03-26T14:08:49Z</time>
      </trkpt>
      <trkpt lat="45.16084" lon="4.85952">
        <ele>192.23</ele>
        <time>2017-03-26T14:08:50Z</time>
      </trkpt>
      <trkpt lat="45.16084" lon="4.85952">
        <ele>192.23</ele>
        <time>2017-03-26T14:08:51Z</time>
      </trkpt>
      <trkpt lat="45.16084" lon="4.85952">
        <ele>192.23</ele>
        <time>2017-03-26T14:08:52Z</time>
      </trkpt>
      <trkpt lat="45.16084" lon="4.85952">
        <ele>192.23</ele>
        <time>2017-03-26T14:08:53Z</time>
      </trkpt>
      <trkpt lat="45.16084" lon="4.85952">
        <ele>192.23</ele>
        <time>2017-03-26T14:08:54Z</time>
      </trkpt>
      <trkpt lat="45.16084" lon="4.85952">
        <ele>192.23</ele>
        <time>2017-03-26T14:08:55Z</time>
      </trkpt>
      <trkpt lat="45.16084" lon="4.85952">
        <ele>192.23</ele>
        <time>2017-03-26T14:08:56Z</time>
      </trkpt>
      <trkpt lat="45.16084" lon="4.85952">
        <ele>192.23</ele>
        <time>2017-03-26T14:08:57Z</time>
      </trkpt>
      <trkpt lat="45.16084" lon="4.85952">
        <ele>192.23</ele>
        <time>2017-03-26T14:08:58Z</time>
      </trkpt>
      <trkpt lat="45.16084" lon="4.85952">
        <ele>192.23</ele>
        <time>2017-03-26T14:08:59Z</time>
      </trkpt>
      <trkpt lat="45.16084" lon="4.85952">
        <ele>192.23</ele>
        <time>2017-03-26T14:09:00Z</time>
      </trkpt>
      <trkpt lat="45.16084" lon="4.85952">
        <ele>192.23</ele>
        <time>2017-03-26T14:09:01Z</time>
      </trkpt>
      <trkpt lat="45.16084" lon="4.85952">
        <ele>192.23</ele>
        <time>2017-03-26T14:09:02Z</time>
      </trkpt>
      <trkpt lat="45.16084" lon="4.85952">
        <ele>192.23</ele>
        <time>2017-03-26T14:09:03Z</time>
      </trkpt>
      <trkpt lat="45.16084" lon="4.85952">
        <ele>192.23</ele>
        <time>2017-03-26T14:09:04Z</time>
      </trkpt>
      <trkpt lat="45.16084" lon="4.85952">
        <ele>192.23</ele>
        <time>2017-03-26T14:09:05Z</time>
      </trkpt>
      <trkpt lat="45.16084" lon="4.85952">
        <ele>192.23</ele>
        <time>2017-03-26T14:09:06Z</time>
      </trkpt>
      <trkpt lat="45.16084" lon="4.85952">
        <ele>192.23</ele>
        <time>2017-03-26T14:09:07Z</time>
      </trkpt>
      <trkpt lat="45.16084" lon="4.85952">
        <ele>192.23</ele>
        <time>2017-03-26T14:09:08Z</time>
      </trkpt>
      <trkpt lat="45.16084" lon="4.85952">
        <ele>192.23</ele>
        <time>2017-03-26T14:09:09Z</time>
      </trkpt>
      <trkpt lat="45.16084" lon="4.85952">
        <ele>192.23</ele>
        <time>2017-03-26T14:09:10Z</time>
      </trkpt>
      <trkpt lat="45.16084" lon="4.85952">
        <ele>192.23</ele>
        <time>2017-03-26T14:09:11Z</time>
      </trkpt>
      <trkpt lat="45.16084" lon="4.85952">
        <ele>192.23</ele>
        <time>2017-03-26T14:09:12Z</time>
      </trkpt>
      <trkpt lat="45.16084" lon="4.85952">
        <ele>192.23</ele>
        <time>2017-03-26T14:09:13Z</time>
      </trkpt>
      <trkpt lat="45.16084" lon="4.85952">
        <ele>192.23</ele>
        <time>2017-03-26T14:09:14Z</time>
      </trkpt>
      <trkpt lat="45.16084" lon="4.85952">
        <ele>192.23</ele>
        <time>2017-03-26T14:09:15Z</time>
      </trkpt>
      <trkpt lat="45.16084" lon="4.85952">
        <ele>192.23</ele>
        <time>2017-03-26T14:09:16Z</time>
      </trkpt>
      <trkpt lat="45.16084" lon="4.85952">
        <ele>192.23</ele>
        <time>2017-03-26T14:09:17Z</time>
      </trkpt>
      <trkpt lat="45.16084" lon="4.85952">
        <ele>192.23</ele>
        <time>2017-03-26T14:09:18Z</time>
      </trkpt>
      <trkpt lat="45.16084" lon="4.85952">
        <ele>192.23</ele>
        <time>2017-03-26T14:09:19Z</time>
      </trkpt>
      <trkpt lat="45.16084" lon="4.85952">
        <ele>192.23</ele>
        <time>2017-03-26T14:09:20Z</time>
      </trkpt>
      <trkpt lat="45.16084" lon="4.85952">
        <ele>192.23</ele>
        <time>2017-03-26T14:09:21Z</time>
      </trkpt>
      <trkpt lat="45.16084" lon="4.85952">
        <ele>192.23</ele>
        <time>2017-03-26T14:09:22Z</time>
      </trkpt>
      <trkpt lat="45.16084" lon="4.85952">
        <ele>192.23</ele>
        <time>2017-03-26T14:09:23Z</time>
      </trkpt>
      <trkpt lat="45.16084" lon="4.85952">
        <ele>192.23</ele>
        <time>2017-03-26T14:09:24Z</time>
      </trkpt>
      <trkpt lat="45.16084" lon="4.85952">
        <ele>192.23</ele>
        <time>2017-03-26T14:09:25Z</time>
      </trkpt>
      <trkpt lat="45.16084" lon="4.85952">
        <ele>192.23</ele>
        <time>2017-03-26T14:09:26Z</time>
      </trkpt>
      <trkpt lat="45.16084" lon="4.85952">
        <ele>192.23</ele>
        <time>2017-03-26T14:09:27Z</time>
      </trkpt>
      <trkpt lat="45.16084" lon="4.85952">
        <ele>192.23</ele>
        <time>2017-03-26T14:09:28Z</time>
      </trkpt>
      <trkpt lat="45.16084" lon="4.85952">
        <ele>192.23</ele>
        <time>2017-03-26T14:09:29Z</time>
      </trkpt>
      <trkpt lat="45.16084" lon="4.85952">
        <ele>192.23</ele>
        <time>2017-03-26T14:09:30Z</time>
      </trkpt>
      <trkpt lat="45.16084" lon="4.85952">
        <ele>192.23</ele>
        <time>2017-03-26T14:09:31Z</time>
      </trkpt>
      <trkpt lat="45.16084" lon="4.85952">
        <ele>192.23</ele>
        <time>2017-03-26T14:09:32Z</time>
      </trkpt>
      <trkpt lat="45.16084" lon="4.85952">
        <ele>192.23</ele>
        <time>2017-03-26T14:09:33Z</time>
      </trkpt>
      <trkpt lat="45.16084" lon="4.85952">
        <ele>192.23</ele>
        <time>2017-03-26T14:09:34Z</time>
      </trkpt>
      <trkpt lat="45.16084" lon="4.85952">
        <ele>192.23</ele>
        <time>2017-03-26T14:09:35Z</time>
      </trkpt>
      <trkpt lat="45.16084" lon="4.85952">
        <ele>192.23</ele>
        <time>2017-03-26T14:09:36Z</time>
      </trkpt>
      <trkpt lat="45.16084" lon="4.85952">
        <ele>192.23</ele>
        <time>2017-03-26T14:09:37Z</time>
      </trkpt>
      <trkpt lat="45.16084" lon="4.85952">
        <ele>192.23</ele>
        <time>2017-03-26T14:09:38Z</time>
      </trkpt>
      <trkpt lat="45.16084" lon="4.85952">
        <ele>192.23</ele>
        <time>2017-03-26T14:09:39Z</time>
      </trkpt>
      <trkpt lat="45.16084" lon="4.85952">
        <ele>192.23</ele>
        <time>2017-03-26T14:09:40Z</time>
      </trkpt>
      <trkpt lat="45.16084" lon="4.85952">
        <ele>192.23</ele>
        <time>2017-03-26T14:09:41Z</time>
      </trkpt>
      <trkpt lat="45.16084" lon="4.85952">
        <ele>192.23</ele>
        <time>2017-03-26T14:09:42Z</time>
      </trkpt>
      <trkpt lat="45.16084" lon="4.85952">
        <ele>192.23</ele>
        <time>2017-03-26T14:09:43Z</time>
      </trkpt>
      <trkpt lat="45.16084" lon="4.85952">
        <ele>192.23</ele>
        <time>2017-03-26T14:09:44Z</time>
      </trkpt>
      <trkpt lat="45.16084" lon="4.85952">
        <ele>192.23</ele>
        <time>2017-03-26T14:09:45Z</time>
      </trkpt>
      <trkpt lat="45.16084" lon="4.85952">
        <ele>192.23</ele>
        <time>2017-03-26T14:09:46Z</time>
      </trkpt>
      <trkpt lat="45.16084" lon="4.85952">
        <ele>192.23</ele>
        <time>2017-03-26T14:09:47Z</time>
      </trkpt>
      <trkpt lat="45.16084" lon="4.85952">
        <ele>192.23</ele>
        <time>2017-03-26T14:09:48Z</time>
      </trkpt>
      <trkpt lat="45.16084" lon="4.85952">
        <ele>192.23</ele>
        <time>2017-03-26T14:09:49Z</time>
      </trkpt>
      <trkpt lat="45.16084" lon="4.85952">
        <ele>192.23</ele>
        <time>2017-03-26T14:09:50Z</time>
      </trkpt>
      <trkpt lat="45.16084" lon="4.85952">
        <ele>192.23</ele>
        <time>2017-03-26T14:09:51Z</time>
      </trkpt>
      <trkpt lat="45.16084" lon="4.85952">
        <ele>192.23</ele>
        <time>2017-03-26T14:09:52Z</time>
      </trkpt>
      <trkpt lat="45.16084" lon="4.85952">
        <ele>192.23</ele>
        <time>2017-03-26T14:09:53Z</time>
      </trkpt>
      <trkpt lat="45.16084" lon="4.85952">
        <ele>192.23</ele>
        <time>2017-03-26T14:09:54Z</time>
      </trkpt>
      <trkpt lat="45.16084" lon="4.85952">
        <ele>192.23</ele>
        <time>2017-03-26T14:09:55Z</time>
      </trkpt>
      <trkpt lat="45.16084" lon="4.85952">
        <ele>192.23</ele>
        <time>2017-03-26T14:09:56Z</time>
      </trkpt>
      <trkpt lat="45.16084" lon="4.85952">
        <ele>192.23</ele>
        <time>2017-03-26T14:09:57Z</time>
      </trkpt>
      <trkpt lat="45.16084" lon="4.85952">
        <ele>192.23</ele>
        <time>2017-03-26T14:09:58Z</time>
      </trkpt>
      <trkpt lat="45.16084" lon="4.85952">
        <ele>192.23</ele>
        <time>2017-03-26T14:09:59Z</time>
      </trkpt>
      <trkpt lat="45.16084" lon="4.85952">
        <ele>192.23</ele>
        <time>2017-03-26T14:10:00Z</time>
      </trkpt>
      <trkpt lat="45.16084" lon="4.85952">
        <ele>192.23</ele>
        <time>2017-03-26T14:10:01Z</time>
      </trkpt>
      <trkpt lat="45.16084" lon="4.85952">
        <ele>192.23</ele>
        <time>2017-03-26T14:10:02Z</time>
      </trkpt>
      <trkpt lat="45.16084" lon="4.85952">
        <ele>192.23</ele>
        <time>2017-03-26T14:10:03Z</time>
      </trkpt>
      <trkpt lat="45.16084" lon="4.85952">
        <ele>192.23</ele>
        <time>2017-03-26T14:10:04Z</time>
      </trkpt>
      <trkpt lat="45.16084" lon="4.85952">
        <ele>192.23</ele>
        <time>2017-03-26T14:10:05Z</time>
      </trkpt>
      <trkpt lat="45.16084" lon="4.85952">
        <ele>192.23</ele>
        <time>2017-03-26T14:10:06Z</time>
      </trkpt>
      <trkpt lat="45.16084" lon="4.85952">
        <ele>192.23</ele>
        <time>2017-03-26T14:10:07Z</time>
      </trkpt>
      <trkpt lat="45.16084" lon="4.85952">
        <ele>192.23</ele>
        <time>2017-03-26T14:10:08Z</time>
      </trkpt>
      <trkpt lat="45.16084" lon="4.85952">
        <ele>192.23</ele>
        <time>2017-03-26T14:10:09Z</time>
      </trkpt>
      <trkpt lat="45.16084" lon="4.85952">
        <ele>192.23</ele>
        <time>2017-03-26T14:10:10Z</time>
      </trkpt>
      <trkpt lat="45.16084" lon="4.85952">
        <ele>192.23</ele>
        <time>2017-03-26T14:10:11Z</time>
      </trkpt>
      <trkpt lat="45.16084" lon="4.85952">
        <ele>192.23</ele>
        <time>2017-03-26T14:10:12Z</time>
      </trkpt>
      <trkpt lat="45.16084" lon="4.85952">
        <ele>192.23</ele>
        <time>2017-03-26T14:10:13Z</time>
      </trkpt>
      <trkpt lat="45.16084" lon="4.85952">
        <ele>192.23</ele>
        <time>2017-03-26T14:10:14Z</time>
      </trkpt>
      <trkpt lat="45.16084" lon="4.85952">
        <ele>192.23</ele>
        <time>2017-03-26T14:10:15Z</time>
      </trkpt>
      <trkpt lat="45.16084" lon="4.85952">
        <ele>192.23</ele>
        <time>2017-03-26T14:10:16Z</time>
      </trkpt>
      <trkpt lat="45.16084" lon="4.85952">
        <ele>192.23</ele>
        <time>2017-03-26T14:10:17Z</time>
      </trkpt>
      <trkpt lat="45.16084" lon="4.85952">
        <ele>192.23</ele>
        <time>2017-03-26T14:10:18Z</time>
      </trkpt>
      <trkpt lat="45.16084" lon="4.85952">
        <ele>192.23</ele>
        <time>2017-03-26T14:10:19Z</time>
      </trkpt>
      <trkpt lat="45.16084" lon="4.85952">
        <ele>192.23</ele>
        <time>2017-03-26T14:10:20Z</time>
      </trkpt>
      <trkpt lat="45.16084" lon="4.85952">
        <ele>192.23</ele>
        <time>2017-03-26T14:10:21Z</time>
      </trkpt>
      <trkpt lat="45.16084" lon="4.85952">
        <ele>192.23</ele>
        <time>2017-03-26T14:10:22Z</time>
      </trkpt>
      <trkpt lat="45.16084" lon="4.85952">
        <ele>192.23</ele>
        <time>2017-03-26T14:10:23Z</time>
      </trkpt>
      <trkpt lat="45.16084" lon="4.85952">
        <ele>192.23</ele>
        <time>2017-03-26T14:10:24Z</time>
      </trkpt>
      <trkpt lat="45.16084" lon="4.85952">
        <ele>192.23</ele>
        <time>2017-03-26T14:10:25Z</time>
      </trkpt>
      <trkpt lat="45.16084" lon="4.85952">
        <ele>192.23</ele>
        <time>2017-03-26T14:10:26Z</time>
      </trkpt>
      <trkpt lat="45.16084" lon="4.85952">
        <ele>192.23</ele>
        <time>2017-03-26T14:10:27Z</time>
      </trkpt>
      <trkpt lat="45.16084" lon="4.85952">
        <ele>192.23</ele>
        <time>2017-03-26T14:10:28Z</time>
      </trkpt>
      <trkpt lat="45.16084" lon="4.85952">
        <ele>192.23</ele>
        <time>2017-03-26T14:10:29Z</time>
      </trkpt>
      <trkpt lat="45.16084" lon="4.85952">
        <ele>192.23</ele>
        <time>2017-03-26T14:10:30Z</time>
      </trkpt>
      <trkpt lat="45.16084" lon="4.85952">
        <ele>192.23</ele>
        <time>2017-03-26T14:10:31Z</time>
      </trkpt>
      <trkpt lat="45.16084" lon="4.85952">
        <ele>192.23</ele>
        <time>2017-03-26T14:10:32Z</time>
      </trkpt>
      <trkpt lat="45.16084" lon="4.85952">
        <ele>192.23</ele>
        <time>2017-03-26T14:10:33Z</time>
      </trkpt>
      <trkpt lat="45.16084" lon="4.85952">
        <ele>192.23</ele>
        <time>2017-03-26T14:10:34Z</time>
      </trkpt>
      <trkpt lat="45.16084" lon="4.85952">
        <ele>192.23</ele>
        <time>2017-03-26T14:10:35Z</time>
      </trkpt>
      <trkpt lat="45.16084" lon="4.85952">
        <ele>192.23</ele>
        <time>2017-03-26T14:10:36Z</time>
      </trkpt>
      <trkpt lat="45.16084" lon="4.85952">
        <ele>192.23</ele>
        <time>2017-03-26T14:10:37Z</time>
      </trkpt>
      <trkpt lat="45.16084" lon="4.85952">
        <ele>192.23</ele>
        <time>2017-03-26T14:10:38Z</time>
      </trkpt>
      <trkpt lat="45.16084" lon="4.85952">
        <ele>192.23</ele>
        <time>2017-03-26T14:10:39Z</time>
      </trkpt>
      <trkpt lat="45.16084" lon="4.85952">
        <ele>192.23</ele>
        <time>2017-03-26T14:10:40Z</time>
      </trkpt>
      <trkpt lat="45.16084" lon="4.85952">
        <ele>192.23</ele>
        <time>2017-03-26T14:10:41Z</time>
      </trkpt>
      <trkpt lat="45.16084" lon="4.85952">
        <ele>192.23</ele>
        <time>2017-03-26T14:10:42Z</time>
      </trkpt>
      <trkpt lat="45.16084" lon="4.85952">
        <ele>192.23</ele>
        <time>2017-03-26T14:10:43Z</time>
      </trkpt>
      <trkpt lat="45.16084" lon="4.85952">
        <ele>192.23</ele>
        <time>2017-03-26T14:10:44Z</time>
      </trkpt>
      <trkpt lat="45.16084" lon="4.85952">
        <ele>192.23</ele>
        <time>2017-03-26T14:10:45Z</time>
      </trkpt>
      <trkpt lat="45.16084" lon="4.85952">
        <ele>192.23</ele>
        <time>2017-03-26T14:10:46Z</time>
      </trkpt>
      <trkpt lat="45.16084" lon="4.85952">
        <ele>192.23</ele>
        <time>2017-03-26T14:10:47Z</time>
      </trkpt>
      <trkpt lat="45.16084" lon="4.85952">
        <ele>192.23</ele>
        <time>2017-03-26T14:10:48Z</time>
      </trkpt>
      <trkpt lat="45.16084" lon="4.85952">
        <ele>192.23</ele>
        <time>2017-03-26T14:10:49Z</time>
      </trkpt>
      <trkpt lat="45.16084" lon="4.85952">
        <ele>192.23</ele>
        <time>2017-03-26T14:10:50Z</time>
      </trkpt>
      <trkpt lat="45.16084" lon="4.85952">
        <ele>192.23</ele>
        <time>2017-03-26T14:10:51Z</time>
      </trkpt>
      <trkpt lat="45.16084" lon="4.85952">
        <ele>192.23</ele>
        <time>2017-03-26T14:10:52Z</time>
      </trkpt>
      <trkpt lat="45.16084" lon="4.85952">
        <ele>192.23</ele>
        <time>2017-03-26T14:10:53Z</time>
      </trkpt>
      <trkpt lat="45.16084" lon="4.85952">
        <ele>192.23</ele>
        <time>2017-03-26T14:10:54Z</time>
      </trkpt>
      <trkpt lat="45.16084" lon="4.85952">
        <ele>192.23</ele>
        <time>2017-03-26T14:10:55Z</time>
      </trkpt>
      <trkpt lat="45.16084" lon="4.85952">
        <ele>192.23</ele>
        <time>2017-03-26T14:10:56Z</time>
      </trkpt>
      <trkpt lat="45.16084" lon="4.85952">
        <ele>192.23</ele>
        <time>2017-03-26T14:10:57Z</time>
      </trkpt>
      <trkpt lat="45.16084" lon="4.85952">
        <ele>192.23</ele>
        <time>2017-03-26T14:10:58Z</time>
      </trkpt>
      <trkpt lat="45.16084" lon="4.85952">
        <ele>192.23</ele>
        <time>2017-03-26T14:10:59Z</time>
      </trkpt>
      <trkpt lat="45.16084" lon="4.85952">
        <ele>192.23</ele>
        <time>2017-03-26T14:11:00Z</time>
      </trkpt>
      <trkpt lat="45.16084" lon="4.85952">
        <ele>192.23</ele>
        <time>2017-03-26T14:11:01Z</time>
      </trkpt>
      <trkpt lat="45.16084" lon="4.85952">
        <ele>192.23</ele>
        <time>2017-03-26T14:11:02Z</time>
      </trkpt>
      <trkpt lat="45.16084" lon="4.85952">
        <ele>192.23</ele>
        <time>2017-03-26T14:11:03Z</time>
      </trkpt>
      <trkpt lat="45.16084" lon="4.85952">
        <ele>192.23</ele>
        <time>2017-03-26T14:11:04Z</time>
      </trkpt>
      <trkpt lat="45.16084" lon="4.85952">
        <ele>192.23</ele>
        <time>2017-03-26T14:11:05Z</time>
      </trkpt>
      <trkpt lat="45.16084" lon="4.85952">
        <ele>192.23</ele>
        <time>2017-03-26T14:11:06Z</time>
      </trkpt>
      <trkpt lat="45.16084" lon="4.85952">
        <ele>192.23</ele>
        <time>2017-03-26T14:11:07Z</time>
      </trkpt>
      <trkpt lat="45.16084" lon="4.85952">
        <ele>192.23</ele>
        <time>2017-03-26T14:11:08Z</time>
      </trkpt>
      <trkpt lat="45.16084" lon="4.85952">
        <ele>192.23</ele>
        <time>2017-03-26T14:11:09Z</time>
      </trkpt>
      <trkpt lat="45.16084" lon="4.85952">
        <ele>192.23</ele>
        <time>2017-03-26T14:11:10Z</time>
      </trkpt>
      <trkpt lat="45.16084" lon="4.85952">
        <ele>192.23</ele>
        <time>2017-03-26T14:11:11Z</time>
      </trkpt>
      <trkpt lat="45.16084" lon="4.85952">
        <ele>192.23</ele>
        <time>2017-03-26T14:11:12Z</time>
      </trkpt>
      <trkpt lat="45.16084" lon="4.85952">
        <ele>192.23</ele>
        <time>2017-03-26T14:11:13Z</time>
      </trkpt>
      <trkpt lat="45.16084" lon="4.85952">
        <ele>192.23</ele>
        <time>2017-03-26T14:11:14Z</time>
      </trkpt>
      <trkpt lat="45.16084" lon="4.85952">
        <ele>192.23</ele>
        <time>2017-03-26T14:11:15Z</time>
      </trkpt>
      <trkpt lat="45.16084" lon="4.85952">
        <ele>192.23</ele>
        <time>2017-03-26T14:11:16Z</time>
      </trkpt>
      <trkpt lat="45.16084" lon="4.85952">
        <ele>192.23</ele>
        <time>2017-03-26T14:11:17Z</time>
      </trkpt>
      <trkpt lat="45.16084" lon="4.85952">
        <ele>192.23</ele>
        <time>2017-03-26T14:11:18Z</time>
      </trkpt>
      <trkpt lat="45.16084" lon="4.85952">
        <ele>192.23</ele>
        <time>2017-03-26T14:11:19Z</time>
      </trkpt>
      <trkpt lat="45.16084" lon="4.85952">
        <ele>192.23</ele>
        <time>2017-03-26T14:11:20Z</time>
      </trkpt>
      <trkpt lat="45.16084" lon="4.85952">
        <ele>192.23</ele>
        <time>2017-03-26T14:11:21Z</time>
      </trkpt>
      <trkpt lat="45.16084" lon="4.85952">
        <ele>192.23</ele>
        <time>2017-03-26T14:11:22Z</time>
      </trkpt>
      <trkpt lat="45.16084" lon="4.85952">
        <ele>192.23</ele>
        <time>2017-03-26T14:11:23Z</time>
      </trkpt>
      <trkpt lat="45.16084" lon="4.85952">
        <ele>192.23</ele>
        <time>2017-03-26T14:11:24Z</time>
      </trkpt>
      <trkpt lat="45.16084" lon="4.85952">
        <ele>192.23</ele>
        <time>2017-03-26T14:11:25Z</time>
      </trkpt>
      <trkpt lat="45.16084" lon="4.85952">
        <ele>192.23</ele>
        <time>2017-03-26T14:11:26Z</time>
      </trkpt>
      <trkpt lat="45.16084" lon="4.85952">
        <ele>192.23</ele>
        <time>2017-03-26T14:11:27Z</time>
      </trkpt>
      <trkpt lat="45.16084" lon="4.85952">
        <ele>192.23</ele>
        <time>2017-03-26T14:11:28Z</time>
      </trkpt>
      <trkpt lat="45.16084" lon="4.85952">
        <ele>192.23</ele>
        <time>2017-03-26T14:11:29Z</time>
      </trkpt>
      <trkpt lat="45.16084" lon="4.85952">
        <ele>192.23</ele>
        <time>2017-03-26T14:11:30Z</time>
      </trkpt>
      <trkpt lat="45.16084" lon="4.85952">
        <ele>192.23</ele>
        <time>2017-03-26T14:11:31Z</time>
      </trkpt>
      <trkpt lat="45.16084" lon="4.85952">
        <ele>192.23</ele>
        <time>2017-03-26T14:11:32Z</time>
      </trkpt>
      <trkpt lat="45.16084" lon="4.85952">
        <ele>192.23</ele>
        <time>2017-03-26T14:11:33Z</time>
      </trkpt>
      <trkpt lat="45.16084" lon="4.85952">
        <ele>192.23</ele>
        <time>2017-03-26T14:11:34Z</time>
      </trkpt>
      <trkpt lat="45.16084" lon="4.85952">
        <ele>192.23</ele>
        <time>2017-03-26T14:11:35Z</time>
      </trkpt>
      <trkpt lat="45.16084" lon="4.85952">
        <ele>192.23</ele>
        <time>2017-03-26T14:11:36Z</time>
      </trkpt>
      <trkpt lat="45.16084" lon="4.85952">
        <ele>192.23</ele>
        <time>2017-03-26T14:11:37Z</time>
      </trkpt>
      <trkpt lat="45.16084" lon="4.85952">
        <ele>192.23</ele>
        <time>2017-03-26T14:11:38Z</time>
      </trkpt>
      <trkpt lat="45.16084" lon="4.85952">
        <ele>192.23</ele>
        <time>2017-03-26T14:11:39Z</time>
      </trkpt>
      <trkpt lat="45.16084" lon="4.85952">
        <ele>192.23</ele>
        <time>2017-03-26T14:11:40Z</time>
      </trkpt>
      <trkpt lat="45.16084" lon="4.85952">
        <ele>192.23</ele>
        <time>2017-03-26T14:11:41Z</time>
      </trkpt>
      <trkpt lat="45.16084" lon="4.85952">
        <ele>192.23</ele>
        <time>2017-03-26T14:11:42Z</time>
      </trkpt>
      <trkpt lat="45.16084" lon="4.85952">
        <ele>192.23</ele>
        <time>2017-03-26T14:11:43Z</time>
      </trkpt>
      <trkpt lat="45.16084" lon="4.85952">
        <ele>192.23</ele>
        <time>2017-03-26T14:11:44Z</time>
      </trkpt>
      <trkpt lat="45.16084" lon="4.85952">
        <ele>192.23</ele>
        <time>2017-03-26T14:11:45Z</time>
      </trkpt>
      <trkpt lat="45.16084" lon="4.85952">
        <ele>192.23</ele>
        <time>2017-03-26T14:11:46Z</time>
      </trkpt>
      <trkpt lat="45.16084" lon="4.85952">
        <ele>192.23</ele>
        <time>2017-03-26T14:11:47Z</time>
      </trkpt>
      <trkpt lat="45.16084" lon="4.85952">
        <ele>192.23</ele>
        <time>2017-03-26T14:11:48Z</time>
      </trkpt>
      <trkpt lat="45.16084" lon="4.85952">
        <ele>192.23</ele>
        <time>2017-03-26T14:11:49Z</time>
      </trkpt>
      <trkpt lat="45.16084" lon="4.85952">
        <ele>192.23</ele>
        <time>2017-03-26T14:11:50Z</time>
      </trkpt>
      <trkpt lat="45.16084" lon="4.85952">
        <ele>192.23</ele>
        <time>2017-03-26T14:11:51Z</time>
      </trkpt>
      <trkpt lat="45.16084" lon="4.85952">
        <ele>192.23</ele>
        <time>2017-03-26T14:11:52Z</time>
      </trkpt>
      <trkpt lat="45.16084" lon="4.85952">
        <ele>192.23</ele>
        <time>2017-03-26T14:11:53Z</time>
      </trkpt>
      <trkpt lat="45.16084" lon="4.85952">
        <ele>192.23</ele>
        <time>2017-03-26T14:11:54Z</time>
      </trkpt>
      <trkpt lat="45.16084" lon="4.85952">
        <ele>192.23</ele>
        <time>2017-03-26T14:11:55Z</time>
      </trkpt>
      <trkpt lat="45.16084" lon="4.85952">
        <ele>192.23</ele>
        <time>2017-03-26T14:11:56Z</time>
      </trkpt>
      <trkpt lat="45.16084" lon="4.85952">
        <ele>192.23</ele>
        <time>2017-03-26T14:11:57Z</time>
      </trkpt>
      <trkpt lat="45.16084" lon="4.85952">
        <ele>192.23</ele>
        <time>2017-03-26T14:11:58Z</time>
      </trkpt>
      <trkpt lat="45.16084" lon="4.85952">
        <ele>192.23</ele>
        <time>2017-03-26T14:11:59Z</time>
      </trkpt>
      <trkpt lat="45.16084" lon="4.85952">
        <ele>192.23</ele>
        <time>2017-03-26T14:12:00Z</time>
      </trkpt>
      <trkpt lat="45.16084" lon="4.85952">
        <ele>192.23</ele>
        <time>2017-03-26T14:12:01Z</time>
      </trkpt>
      <trkpt lat="45.16084" lon="4.85952">
        <ele>192.23</ele>
        <time>2017-03-26T14:12:02Z</time>
      </trkpt>
      <trkpt lat="45.16084" lon="4.85952">
        <ele>192.23</ele>
        <time>2017-03-26T14:12:03Z</time>
      </trkpt>
      <trkpt lat="45.16084" lon="4.85952">
        <ele>192.23</ele>
        <time>2017-03-26T14:12:04Z</time>
      </trkpt>
      <trkpt lat="45.16084" lon="4.85952">
        <ele>192.23</ele>
        <time>2017-03-26T14:12:05Z</time>
      </trkpt>
      <trkpt lat="45.16084" lon="4.85952">
        <ele>192.23</ele>
        <time>2017-03-26T14:12:06Z</time>
      </trkpt>
      <trkpt lat="45.16084" lon="4.85952">
        <ele>192.23</ele>
        <time>2017-03-26T14:12:07Z</time>
      </trkpt>
      <trkpt lat="45.16084" lon="4.85952">
        <ele>192.23</ele>
        <time>2017-03-26T14:12:08Z</time>
      </trkpt>
      <trkpt lat="45.16084" lon="4.85952">
        <ele>192.23</ele>
        <time>2017-03-26T14:12:09Z</time>
      </trkpt>
      <trkpt lat="45.16084" lon="4.85952">
        <ele>192.23</ele>
        <time>2017-03-26T14:12:10Z</time>
      </trkpt>
      <trkpt lat="45.16084" lon="4.85952">
        <ele>192.23</ele>
        <time>2017-03-26T14:12:11Z</time>
      </trkpt>
      <trkpt lat="45.16084" lon="4.85952">
        <ele>192.23</ele>
        <time>2017-03-26T14:12:12Z</time>
      </trkpt>
      <trkpt lat="45.16084" lon="4.85952">
        <ele>192.23</ele>
        <time>2017-03-26T14:12:13Z</time>
      </trkpt>
      <trkpt lat="45.16084" lon="4.85952">
        <ele>192.23</ele>
        <time>2017-03-26T14:12:14Z</time>
      </trkpt>
      <trkpt lat="45.16084" lon="4.85952">
        <ele>192.23</ele>
        <time>2017-03-26T14:12:15Z</time>
      </trkpt>
      <trkpt lat="45.16084" lon="4.85952">
        <ele>192.23</ele>
        <time>2017-03-26T14:12:16Z</time>
      </trkpt>
      <trkpt lat="45.16084" lon="4.85952">
        <ele>192.23</ele>
        <time>2017-03-26T14:12:17Z</time>
      </trkpt>
      <trkpt lat="45.16084" lon="4.85952">
        <ele>192.23</ele>
        <time>2017-03-26T14:12:18Z</time>
      </trkpt>
      <trkpt lat="45.16084" lon="4.85952">
        <ele>192.23</ele>
        <time>2017-03-26T14:12:19Z</time>
      </trkpt>
      <trkpt lat="45.16084" lon="4.85952">
        <ele>192.23</ele>
        <time>2017-03-26T14:12:20Z</time>
      </trkpt>
      <trkpt lat="45.16084" lon="4.85952">
        <ele>192.23</ele>
        <time>2017-03-26T14:12:21Z</time>
      </trkpt>
      <trkpt lat="45.16084" lon="4.85952">
        <ele>192.23</ele>
        <time>2017-03-26T14:12:22Z</time>
      </trkpt>
      <trkpt lat="45.16084" lon="4.85952">
        <ele>192.23</ele>
        <time>2017-03-26T14:12:23Z</time>
      </trkpt>
      <trkpt lat="45.16084" lon="4.85952">
        <ele>192.23</ele>
        <time>2017-03-26T14:12:24Z</time>
      </trkpt>
      <trkpt lat="45.16084" lon="4.85952">
        <ele>192.23</ele>
        <time>2017-03-26T14:12:25Z</time>
      </trkpt>
      <trkpt lat="45.16084" lon="4.85952">
        <ele>192.23</ele>
        <time>2017-03-26T14:12:26Z</time>
      </trkpt>
      <trkpt lat="45.16084" lon="4.85952">
        <ele>192.23</ele>
        <time>2017-03-26T14:12:27Z</time>
      </trkpt>
      <trkpt lat="45.16084" lon="4.85952">
        <ele>192.23</ele>
        <time>2017-03-26T14:12:28Z</time>
      </trkpt>
      <trkpt lat="45.16084" lon="4.85952">
        <ele>192.23</ele>
        <time>2017-03-26T14:12:29Z</time>
      </trkpt>
      <trkpt lat="45.16084" lon="4.85952">
        <ele>192.23</ele>
        <time>2017-03-26T14:12:30Z</time>
      </trkpt>
      <trkpt lat="45.16084" lon="4.85952">
        <ele>192.23</ele>
        <time>2017-03-26T14:12:31Z</time>
      </trkpt>
      <trkpt lat="45.16084" lon="4.85952">
        <ele>192.23</ele>
        <time>2017-03-26T14:12:32Z</time>
      </trkpt>
      <trkpt lat="45.16084" lon="4.85952">
        <ele>192.23</ele>
        <time>2017-03-26T14:12:33Z</time>
      </trkpt>
      <trkpt lat="45.16084" lon="4.85952">
        <ele>192.23</ele>
        <time>2017-03-26T14:12:34Z</time>
      </trkpt>
      <trkpt lat="45.16084" lon="4.85952">
        <ele>192.23</ele>
        <time>2017-03-26T14:12:35Z</time>
      </trkpt>
      <trkpt lat="45.16084" lon="4.85952">
        <ele>192.23</ele>
        <time>2017-03-26T14:12:36Z</time>
      </trkpt>
      <trkpt lat="45.16084" lon="4.85952">
        <ele>192.23</ele>
        <time>2017-03-26T14:12:37Z</time>
      </trkpt>
      <trkpt lat="45.16084" lon="4.85952">
        <ele>192.23</ele>
        <time>2017-03-26T14:12:38Z</time>
      </trkpt>
      <trkpt lat="45.16084" lon="4.85952">
        <ele>192.23</ele>
        <time>2017-03-26T14:12:39Z</time>
      </trkpt>
      <trkpt lat="45.16084" lon="4.85952">
        <ele>192.23</ele>
        <time>2017-03-26T14:12:40Z</time>
      </trkpt>
      <trkpt lat="45.16084" lon="4.85952">
        <ele>192.23</ele>
        <time>2017-03-26T14:12:41Z</time>
      </trkpt>
      <trkpt lat="45.16084" lon="4.85952">
        <ele>192.23</ele>
        <time>2017-03-26T14:12:42Z</time>
      </trkpt>
      <trkpt lat="45.16084" lon="4.85952">
        <ele>192.23</ele>
        <time>2017-03-26T14:12:43Z</time>
      </trkpt>
      <trkpt lat="45.16084" lon="4.85952">
        <ele>192.23</ele>
        <time>2017-03-26T14:12:44Z</time>
      </trkpt>
      <trkpt lat="45.16084" lon="4.85952">
        <ele>192.23</ele>
        <time>2017-03-26T14:12:45Z</time>
      </trkpt>
      <trkpt lat="45.16084" lon="4.85952">
        <ele>192.23</ele>
        <time>2017-03-26T14:12:46Z</time>
      </trkpt>
      <trkpt lat="45.16084" lon="4.85952">
        <ele>192.23</ele>
        <time>2017-03-26T14:12:47Z</time>
      </trkpt>
      <trkpt lat="45.16084" lon="4.85952">
        <ele>192.23</ele>
        <time>2017-03-26T14:12:48Z</time>
      </trkpt>
      <trkpt lat="45.16084" lon="4.85952">
        <ele>192.23</ele>
        <time>2017-03-26T14:12:49Z</time>
      </trkpt>
      <trkpt lat="45.16084" lon="4.85952">
        <ele>192.23</ele>
        <time>2017-03-26T14:12:50Z</time>
      </trkpt>
      <trkpt lat="45.16084" lon="4.85952">
        <ele>192.23</ele>
        <time>2017-03-26T14:12:51Z</time>
      </trkpt>
      <trkpt lat="45.16084" lon="4.85952">
        <ele>192.23</ele>
        <time>2017-03-26T14:12:52Z</time>
      </trkpt>
      <trkpt lat="45.16084" lon="4.85952">
        <ele>192.23</ele>
        <time>2017-03-26T14:12:53Z</time>
      </trkpt>
      <trkpt lat="45.16084" lon="4.85952">
        <ele>192.23</ele>
        <time>2017-03-26T14:12:54Z</time>
      </trkpt>
      <trkpt lat="45.16084" lon="4.85952">
        <ele>192.23</ele>
        <time>2017-03-26T14:12:55Z</time>
      </trkpt>
      <trkpt lat="45.16084" lon="4.85952">
        <ele>192.23</ele>
        <time>2017-03-26T14:12:56Z</time>
      </trkpt>
      <trkpt lat="45.16084" lon="4.85952">
        <ele>192.23</ele>
        <time>2017-03-26T14:12:57Z</time>
      </trkpt>
      <trkpt lat="45.16084" lon="4.85952">
        <ele>192.23</ele>
        <time>2017-03-26T14:12:58Z</time>
      </trkpt>
      <trkpt lat="45.16084" lon="4.85952">
        <ele>192.23</ele>
        <time>2017-03-26T14:12:59Z</time>
      </trkpt>
      <trkpt lat="45.16084" lon="4.85952">
        <ele>192.23</ele>
        <time>2017-03-26T14:13:00Z</time>
      </trkpt>
      <trkpt lat="45.16084" lon="4.85952">
        <ele>192.23</ele>
        <time>2017-03-26T14:13:01Z</time>
      </trkpt>
      <trkpt lat="45.16084" lon="4.85952">
        <ele>192.23</ele>
        <time>2017-03-26T14:13:02Z</time>
      </trkpt>
      <trkpt lat="45.16084" lon="4.85952">
        <ele>192.23</ele>
        <time>2017-03-26T14:13:03Z</time>
      </trkpt>
      <trkpt lat="45.16084" lon="4.85952">
        <ele>192.23</ele>
        <time>2017-03-26T14:13:04Z</time>
      </trkpt>
      <trkpt lat="45.16084" lon="4.85952">
        <ele>192.23</ele>
        <time>2017-03-26T14:13:05Z</time>
      </trkpt>
      <trkpt lat="45.16084" lon="4.85952">
        <ele>192.23</ele>
        <time>2017-03-26T14:13:06Z</time>
      </trkpt>
      <trkpt lat="45.16084" lon="4.85952">
        <ele>192.23</ele>
        <time>2017-03-26T14:13:07Z</time>
      </trkpt>
      <trkpt lat="45.16084" lon="4.85952">
        <ele>192.23</ele>
        <time>2017-03-26T14:13:08Z</time>
      </trkpt>
      <trkpt lat="45.16084" lon="4.85952">
        <ele>192.23</ele>
        <time>2017-03-26T14:13:09Z</time>
      </trkpt>
      <trkpt lat="45.16084" lon="4.85952">
        <ele>192.23</ele>
        <time>2017-03-26T14:13:10Z</time>
      </trkpt>
      <trkpt lat="45.16084" lon="4.85952">
        <ele>192.23</ele>
        <time>2017-03-26T14:13:11Z</time>
      </trkpt>
      <trkpt lat="45.16084" lon="4.85952">
        <ele>192.23</ele>
        <time>2017-03-26T14:13:12Z</time>
      </trkpt>
      <trkpt lat="45.16084" lon="4.85952">
        <ele>192.23</ele>
        <time>2017-03-26T14:13:13Z</time>
      </trkpt>
      <trkpt lat="45.16084" lon="4.85952">
        <ele>192.23</ele>
        <time>2017-03-26T14:13:14Z</time>
      </trkpt>
      <trkpt lat="45.16084" lon="4.85952">
        <ele>192.23</ele>
        <time>2017-03-26T14:13:15Z</time>
      </trkpt>
      <trkpt lat="45.16084" lon="4.85952">
        <ele>192.23</ele>
        <time>2017-03-26T14:13:16Z</time>
      </trkpt>
      <trkpt lat="45.16084" lon="4.85952">
        <ele>192.23</ele>
        <time>2017-03-26T14:13:17Z</time>
      </trkpt>
      <trkpt lat="45.16084" lon="4.85952">
        <ele>192.23</ele>
        <time>2017-03-26T14:13:18Z</time>
      </trkpt>
      <trkpt lat="45.16084" lon="4.85952">
        <ele>192.23</ele>
        <time>2017-03-26T14:13:19Z</time>
      </trkpt>
      <trkpt lat="45.16084" lon="4.85952">
        <ele>192.23</ele>
        <time>2017-03-26T14:13:20Z</time>
      </trkpt>
      <trkpt lat="45.16084" lon="4.85952">
        <ele>192.23</ele>
        <time>2017-03-26T14:13:21Z</time>
      </trkpt>
      <trkpt lat="45.16084" lon="4.85952">
        <ele>192.23</ele>
        <time>2017-03-26T14:13:22Z</time>
      </trkpt>
      <trkpt lat="45.16084" lon="4.85952">
        <ele>192.23</ele>
        <time>2017-03-26T14:13:23Z</time>
      </trkpt>
      <trkpt lat="45.16084" lon="4.85952">
        <ele>192.23</ele>
        <time>2017-03-26T14:13:24Z</time>
      </trkpt>
      <trkpt lat="45.16084" lon="4.85952">
        <ele>192.23</ele>
        <time>2017-03-26T14:13:25Z</time>
      </trkpt>
      <trkpt lat="45.16084" lon="4.85952">
        <ele>192.23</ele>
        <time>2017-03-26T14:13:26Z</time>
      </trkpt>
      <trkpt lat="45.16084" lon="4.85952">
        <ele>192.23</ele>
        <time>2017-03-26T14:13:27Z</time>
      </trkpt>
      <trkpt lat="45.16084" lon="4.85952">
        <ele>192.23</ele>
        <time>2017-03-26T14:13:28Z</time>
      </trkpt>
      <trkpt lat="45.16084" lon="4.85952">
        <ele>192.23</ele>
        <time>2017-03-26T14:13:29Z</time>
      </trkpt>
      <trkpt lat="45.16084" lon="4.85952">
        <ele>192.23</ele>
        <time>2017-03-26T14:13:30Z</time>
      </trkpt>
      <trkpt lat="45.16084" lon="4.85952">
        <ele>192.23</ele>
        <time>2017-03-26T14:13:31Z</time>
      </trkpt>
      <trkpt lat="45.16084" lon="4.85952">
        <ele>192.23</ele>
        <time>2017-03-26T14:13:32Z</time>
      </trkpt>
      <trkpt lat="45.16084" lon="4.85952">
        <ele>192.23</ele>
        <time>2017-03-26T14:13:33Z</time>
      </trkpt>
      <trkpt lat="45.16084" lon="4.85952">
        <ele>192.23</ele>
        <time>2017-03-26T14:13:34Z</time>
      </trkpt>
      <trkpt lat="45.16084" lon="4.85952">
        <ele>192.23</ele>
        <time>2017-03-26T14:13:35Z</time>
      </trkpt>
      <trkpt lat="45.16084" lon="4.85952">
        <ele>192.23</ele>
        <time>2017-03-26T14:13:36Z</time>
      </trkpt>
      <trkpt lat="45.16084" lon="4.85952">
        <ele>192.23</ele>
        <time>2017-03-26T14:13:37Z</time>
      </trkpt>
      <trkpt lat="45.16084" lon="4.85952">
        <ele>192.23</ele>
        <time>2017-03-26T14:13:38Z</time>
      </trkpt>
      <trkpt lat="45.16084" lon="4.85952">
        <ele>192.23</ele>
        <time>2017-03-26T14:13:39Z</time>
      </trkpt>
      <trkpt lat="45.16084" lon="4.85952">
        <ele>192.23</ele>
        <time>2017-03-26T14:13:40Z</time>
      </trkpt>
      <trkpt lat="45.16084" lon="4.85952">
        <ele>192.23</ele>
        <time>2017-03-26T14:13:41Z</time>
      </trkpt>
      <trkpt lat="45.16084" lon="4.85952">
        <ele>192.23</ele>
        <time>2017-03-26T14:13:42Z</time>
      </trkpt>
      <trkpt lat="45.16084" lon="4.85952">
        <ele>192.23</ele>
        <time>2017-03-26T14:13:43Z</time>
      </trkpt>
      <trkpt lat="45.16084" lon="4.85952">
        <ele>192.23</ele>
        <time>2017-03-26T14:13:44Z</time>
      </trkpt>
      <trkpt lat="45.16084" lon="4.85952">
        <ele>192.23</ele>
        <time>2017-03-26T14:13:45Z</time>
      </trkpt>
      <trkpt lat="45.16084" lon="4.85952">
        <ele>192.23</ele>
        <time>2017-03-26T14:13:46Z</time>
      </trkpt>
      <trkpt lat="45.16084" lon="4.85952">
        <ele>192.23</ele>
        <time>2017-03-26T14:13:47Z</time>
      </trkpt>
      <trkpt lat="45.16084" lon="4.85952">
        <ele>192.23</ele>
        <time>2017-03-26T14:13:48Z</time>
      </trkpt>
      <trkpt lat="45.16084" lon="4.85952">
        <ele>192.23</ele>
        <time>2017-03-26T14:13:49Z</time>
      </trkpt>
      <trkpt lat="45.16084" lon="4.85952">
        <ele>192.23</ele>
        <time>2017-03-26T14:13:50Z</time>
      </trkpt>
      <trkpt lat="45.16084" lon="4.85952">
        <ele>192.23</ele>
        <time>2017-03-26T14:13:51Z</time>
      </trkpt>
      <trkpt lat="45.16084" lon="4.85952">
        <ele>192.23</ele>
        <time>2017-03-26T14:13:52Z</time>
      </trkpt>
      <trkpt lat="45.16084" lon="4.85952">
        <ele>192.23</ele>
        <time>2017-03-26T14:13:53Z</time>
      </trkpt>
      <trkpt lat="45.16084" lon="4.85952">
        <ele>192.23</ele>
        <time>2017-03-26T14:13:54Z</time>
      </trkpt>
      <trkpt lat="45.16084" lon="4.85952">
        <ele>192.23</ele>
        <time>2017-03-26T14:13:55Z</time>
      </trkpt>
      <trkpt lat="45.16084" lon="4.85952">
        <ele>192.23</ele>
        <time>2017-03-26T14:13:56Z</time>
      </trkpt>
      <trkpt lat="45.16084" lon="4.85952">
        <ele>192.23</ele>
        <time>2017-03-26T14:13:57Z</time>
      </trkpt>
      <trkpt lat="45.16084" lon="4.85952">
        <ele>192.23</ele>
        <time>2017-03-26T14:13:58Z</time>
      </trkpt>
      <trkpt lat="45.16084" lon="4.85952">
        <ele>192.23</ele>
        <time>2017-03-26T14:13:59Z</time>
      </trkpt>
      <trkpt lat="45.16084" lon="4.85952">
        <ele>192.23</ele>
        <time>2017-03-26T14:14:00Z</time>
      </trkpt>
      <trkpt lat="45.16084" lon="4.85952">
        <ele>192.23</ele>
        <time>2017-03-26T14:14:01Z</time>
      </trkpt>
      <trkpt lat="45.16084" lon="4.85952">
        <ele>192.23</ele>
        <time>2017-03-26T14:14:02Z</time>
      </trkpt>
      <trkpt lat="45.16084" lon="4.85952">
        <ele>192.23</ele>
        <time>2017-03-26T14:14:03Z</time>
      </trkpt>
      <trkpt lat="45.16084" lon="4.85952">
        <ele>192.23</ele>
        <time>2017-03-26T14:14:04Z</time>
      </trkpt>
      <trkpt lat="45.16084" lon="4.85952">
        <ele>192.23</ele>
        <time>2017-03-26T14:14:05Z</time>
      </trkpt>
      <trkpt lat="45.16084" lon="4.85952">
        <ele>192.23</ele>
        <time>2017-03-26T14:14:06Z</time>
      </trkpt>
      <trkpt lat="45.16084" lon="4.85952">
        <ele>192.23</ele>
        <time>2017-03-26T14:14:07Z</time>
      </trkpt>
      <trkpt lat="45.16084" lon="4.85952">
        <ele>192.23</ele>
        <time>2017-03-26T14:14:08Z</time>
      </trkpt>
      <trkpt lat="45.16084" lon="4.85952">
        <ele>192.23</ele>
        <time>2017-03-26T14:14:09Z</time>
      </trkpt>
      <trkpt lat="45.16084" lon="4.85952">
        <ele>192.23</ele>
        <time>2017-03-26T14:14:10Z</time>
      </trkpt>
      <trkpt lat="45.16084" lon="4.85952">
        <ele>192.23</ele>
        <time>2017-03-26T14:14:11Z</time>
      </trkpt>
      <trkpt lat="45.16084" lon="4.85952">
        <ele>192.23</ele>
        <time>2017-03-26T14:14:12Z</time>
      </trkpt>
      <trkpt lat="45.16084" lon="4.85952">
        <ele>192.23</ele>
        <time>2017-03-26T14:14:13Z</time>
      </trkpt>
      <trkpt lat="45.16084" lon="4.85952">
        <ele>192.23</ele>
        <time>2017-03-26T14:14:14Z</time>
      </trkpt>
      <trkpt lat="45.16084" lon="4.85952">
        <ele>192.23</ele>
        <time>2017-03-26T14:14:15Z</time>
      </trkpt>
      <trkpt lat="45.16084" lon="4.85952">
        <ele>192.23</ele>
        <time>2017-03-26T14:14:16Z</time>
      </trkpt>
      <trkpt lat="45.16084" lon="4.85952">
        <ele>192.23</ele>
        <time>2017-03-26T14:14:17Z</time>
      </trkpt>
      <trkpt lat="45.16084" lon="4.85952">
        <ele>192.23</ele>
        <time>2017-03-26T14:14:18Z</time>
      </trkpt>
      <trkpt lat="45.16084" lon="4.85952">
        <ele>192.23</ele>
        <time>2017-03-26T14:14:19Z</time>
      </trkpt>
      <trkpt lat="45.16084" lon="4.85952">
        <ele>192.23</ele>
        <time>2017-03-26T14:14:20Z</time>
      </trkpt>
      <trkpt lat="45.16084" lon="4.85952">
        <ele>192.23</ele>
        <time>2017-03-26T14:14:21Z</time>
      </trkpt>
      <trkpt lat="45.16084" lon="4.85952">
        <ele>192.23</ele>
        <time>2017-03-26T14:14:22Z</time>
      </trkpt>
      <trkpt lat="45.16084" lon="4.85952">
        <ele>192.23</ele>
        <time>2017-03-26T14:14:23Z</time>
      </trkpt>
      <trkpt lat="45.16084" lon="4.85952">
        <ele>192.23</ele>
        <time>2017-03-26T14:14:24Z</time>
      </trkpt>
      <trkpt lat="45.16084" lon="4.85952">
        <ele>192.23</ele>
        <time>2017-03-26T14:14:25Z</time>
      </trkpt>
      <trkpt lat="45.16084" lon="4.85952">
        <ele>192.23</ele>
        <time>2017-03-26T14:14:26Z</time>
      </trkpt>
      <trkpt lat="45.16084" lon="4.85952">
        <ele>192.23</ele>
        <time>2017-03-26T14:14:27Z</time>
      </trkpt>
      <trkpt lat="45.16084" lon="4.85952">
        <ele>192.23</ele>
        <time>2017-03-26T14:14:28Z</time>
      </trkpt>
      <trkpt lat="45.16084" lon="4.85952">
        <ele>192.23</ele>
        <time>2017-03-26T14:14:29Z</time>
      </trkpt>
      <trkpt lat="45.16084" lon="4.85952">
        <ele>192.23</ele>
        <time>2017-03-26T14:14:30Z</time>
      </trkpt>
      <trkpt lat="45.16084" lon="4.85952">
        <ele>192.23</ele>
        <time>2017-03-26T14:14:31Z</time>
      </trkpt>
      <trkpt lat="45.16084" lon="4.85952">
        <ele>192.23</ele>
        <time>2017-03-26T14:14:32Z</time>
      </trkpt>
      <trkpt lat="45.16084" lon="4.85952">
        <ele>192.23</ele>
        <time>2017-03-26T14:14:33Z</time>
      </trkpt>
      <trkpt lat="45.16084" lon="4.85952">
        <ele>192.23</ele>
        <time>2017-03-26T14:14:34Z</time>
      </trkpt>
      <trkpt lat="45.16084" lon="4.85952">
        <ele>192.23</ele>
        <time>2017-03-26T14:14:35Z</time>
      </trkpt>
      <trkpt lat="45.16084" lon="4.85952">
        <ele>192.23</ele>
        <time>2017-03-26T14:14:36Z</time>
      </trkpt>
      <trkpt lat="45.16084" lon="4.85952">
        <ele>192.23</ele>
        <time>2017-03-26T14:14:37Z</time>
      </trkpt>
      <trkpt lat="45.16084" lon="4.85952">
        <ele>192.23</ele>
        <time>2017-03-26T14:14:38Z</time>
      </trkpt>
      <trkpt lat="45.16084" lon="4.85952">
        <ele>192.23</ele>
        <time>2017-03-26T14:14:39Z</time>
      </trkpt>
      <trkpt lat="45.16084" lon="4.85952">
        <ele>192.23</ele>
        <time>2017-03-26T14:14:40Z</time>
      </trkpt>
      <trkpt lat="45.16084" lon="4.85952">
        <ele>192.23</ele>
        <time>2017-03-26T14:14:41Z</time>
      </trkpt>
      <trkpt lat="45.16084" lon="4.85952">
        <ele>192.23</ele>
        <time>2017-03-26T14:14:42Z</time>
      </trkpt>
      <trkpt lat="45.16084" lon="4.85952">
        <ele>192.23</ele>
        <time>2017-03-26T14:14:43Z</time>
      </trkpt>
      <trkpt lat="45.16084" lon="4.85952">
        <ele>192.23</ele>
        <time>2017-03-26T14:14:44Z</time>
      </trkpt>
      <trkpt lat="45.16084" lon="4.85952">
        <ele>192.23</ele>
        <time>2017-03-26T14:14:45Z</time>
      </trkpt>
      <trkpt lat="45.16084" lon="4.85952">
        <ele>192.23</ele>
        <time>2017-03-26T14:14:46Z</time>
      </trkpt>
      <trkpt lat="45.16084" lon="4.85952">
        <ele>192.23</ele>
        <time>2017-03-26T14:14:47Z</time>
      </trkpt>
      <trkpt lat="45.16084" lon="4.85952">
        <ele>192.23</ele>
        <time>2017-03-26T14:14:48Z</time>
      </trkpt>
      <trkpt lat="45.16084" lon="4.85952">
        <ele>192.23</ele>
        <time>2017-03-26T14:14:49Z</time>
      </trkpt>
      <trkpt lat="45.16084" lon="4.85952">
        <ele>192.23</ele>
        <time>2017-03-26T14:14:50Z</time>
      </trkpt>
      <trkpt lat="45.16084" lon="4.85952">
        <ele>192.23</ele>
        <time>2017-03-26T14:14:51Z</time>
      </trkpt>
      <trkpt lat="45.16084" lon="4.85952">
        <ele>192.23</ele>
        <time>2017-03-26T14:14:52Z</time>
      </trkpt>
      <trkpt lat="45.16084" lon="4.85952">
        <ele>192.23</ele>
        <time>2017-03-26T14:14:53Z</time>
      </trkpt>
      <trkpt lat="45.16084" lon="4.85952">
        <ele>192.23</ele>
        <time>2017-03-26T14:14:54Z</time>
      </trkpt>
      <trkpt lat="45.16084" lon="4.85952">
        <ele>192.23</ele>
        <time>2017-03-26T14:14:55Z</time>
      </trkpt>
      <trkpt lat="45.16084" lon="4.85952">
        <ele>192.23</ele>
        <time>2017-03-26T14:14:56Z</time>
      </trkpt>
      <trkpt lat="45.16084" lon="4.85952">
        <ele>192.23</ele>
        <time>2017-03-26T14:14:57Z</time>
      </trkpt>
      <trkpt lat="45.16084" lon="4.85952">
        <ele>192.23</ele>
        <time>2017-03-26T14:14:58Z</time>
      </trkpt>
      <trkpt lat="45.16084" lon="4.85952">
        <ele>192.23</ele>
        <time>2017-03-26T14:14:59Z</time>
      </trkpt>
      <trkpt lat="45.16084" lon="4.85952">
        <ele>192.23</ele>
        <time>2017-03-26T14:15:00Z</time>
      </trkpt>
      <trkpt lat="45.16084" lon="4.85952">
        <ele>192.23</ele>
        <time>2017-03-26T14:15:01Z</time>
      </trkpt>
      <trkpt lat="45.16084" lon="4.85952">
        <ele>192.23</ele>
        <time>2017-03-26T14:15:02Z</time>
      </trkpt>
      <trkpt lat="45.16084" lon="4.85952">
        <ele>192.23</ele>
        <time>2017-03-26T14:15:03Z</time>
      </trkpt>
      <trkpt lat="45.16084" lon="4.85952">
        <ele>192.23</ele>
        <time>2017-03-26T14:15:04Z</time>
      </trkpt>
      <trkpt lat="45.16084" lon="4.85952">
        <ele>192.23</ele>
        <time>2017-03-26T14:15:05Z</time>
      </trkpt>
      <trkpt lat="45.16084" lon="4.85952">
        <ele>192.23</ele>
        <time>2017-03-26T14:15:06Z</time>
      </trkpt>
      <trkpt lat="45.16084" lon="4.85952">
        <ele>192.23</ele>
        <time>2017-03-26T14:15:07Z</time>
      </trkpt>
      <trkpt lat="45.16084" lon="4.85952">
        <ele>192.23</ele>
        <time>2017-03-26T14:15:08Z</time>
      </trkpt>
      <trkpt lat="45.16084" lon="4.85952">
        <ele>192.23</ele>
        <time>2017-03-26T14:15:09Z</time>
      </trkpt>
      <trkpt lat="45.16084" lon="4.85952">
        <ele>192.23</ele>
        <time>2017-03-26T14:15:10Z</time>
      </trkpt>
      <trkpt lat="45.16084" lon="4.85952">
        <ele>192.23</ele>
        <time>2017-03-26T14:15:11Z</time>
      </trkpt>
      <trkpt lat="45.16084" lon="4.85952">
        <ele>192.23</ele>
        <time>2017-03-26T14:15:12Z</time>
      </trkpt>
      <trkpt lat="45.16084" lon="4.85952">
        <ele>192.23</ele>
        <time>2017-03-26T14:15:13Z</time>
      </trkpt>
      <trkpt lat="45.16084" lon="4.85952">
        <ele>192.23</ele>
        <time>2017-03-26T14:15:14Z</time>
      </trkpt>
      <trkpt lat="45.16084" lon="4.85952">
        <ele>192.23</ele>
        <time>2017-03-26T14:15:15Z</time>
      </trkpt>
      <trkpt lat="45.16084" lon="4.85952">
        <ele>192.23</ele>
        <time>2017-03-26T14:15:16Z</time>
      </trkpt>
      <trkpt lat="45.16084" lon="4.85952">
        <ele>192.23</ele>
        <time>2017-03-26T14:15:17Z</time>
      </trkpt>
      <trkpt lat="45.16084" lon="4.85952">
        <ele>192.23</ele>
        <time>2017-03-26T14:15:18Z</time>
      </trkpt>
      <trkpt lat="45.16084" lon="4.85952">
        <ele>192.23</ele>
        <time>2017-03-26T14:15:19Z</time>
      </trkpt>
      <trkpt lat="45.16084" lon="4.85952">
        <ele>192.23</ele>
        <time>2017-03-26T14:15:20Z</time>
      </trkpt>
      <trkpt lat="45.16084" lon="4.85952">
        <ele>192.23</ele>
        <time>2017-03-26T14:15:21Z</time>
      </trkpt>
      <trkpt lat="45.16084" lon="4.85952">
        <ele>192.23</ele>
        <time>2017-03-26T14:15:22Z</time>
      </trkpt>
      <trkpt lat="45.16084" lon="4.85952">
        <ele>192.23</ele>
        <time>2017-03-26T14:15:23Z</time>
      </trkpt>
      <trkpt lat="45.16084" lon="4.85952">
        <ele>192.23</ele>
        <time>2017-03-26T14:15:24Z</time>
      </trkpt>
      <trkpt lat="45.16084" lon="4.85952">
        <ele>192.23</ele>
        <time>2017-03-26T14:15:25Z</time>
      </trkpt>
      <trkpt lat="45.16084" lon="4.85952">
        <ele>192.23</ele>
        <time>2017-03-26T14:15:26Z</time>
      </trkpt>
      <trkpt lat="45.16084" lon="4.85952">
        <ele>192.23</ele>
        <time>2017-03-26T14:15:27Z</time>
      </trkpt>
      <trkpt lat="45.16084" lon="4.85952">
        <ele>192.23</ele>
        <time>2017-03-26T14:15:28Z</time>
      </trkpt>
      <trkpt lat="45.16084" lon="4.85952">
        <ele>192.23</ele>
        <time>2017-03-26T14:15:29Z</time>
      </trkpt>
      <trkpt lat="45.16084" lon="4.85952">
        <ele>192.23</ele>
        <time>2017-03-26T14:15:30Z</time>
      </trkpt>
      <trkpt lat="45.16084" lon="4.85952">
        <ele>192.23</ele>
        <time>2017-03-26T14:15:31Z</time>
      </trkpt>
      <trkpt lat="45.16084" lon="4.85952">
        <ele>192.23</ele>
        <time>2017-03-26T14:15:32Z</time>
      </trkpt>
      <trkpt lat="45.16084" lon="4.85952">
        <ele>192.23</ele>
        <time>2017-03-26T14:15:33Z</time>
      </trkpt>
      <trkpt lat="45.16084" lon="4.85952">
        <ele>192.23</ele>
        <time>2017-03-26T14:15:34Z</time>
      </trkpt>
      <trkpt lat="45.16084" lon="4.85952">
        <ele>192.23</ele>
        <time>2017-03-26T14:15:35Z</time>
      </trkpt>
      <trkpt lat="45.16084" lon="4.85952">
        <ele>192.23</ele>
        <time>2017-03-26T14:15:36Z</time>
      </trkpt>
      <trkpt lat="45.16084" lon="4.85952">
        <ele>192.23</ele>
        <time>2017-03-26T14:15:37Z</time>
      </trkpt>
      <trkpt lat="45.16084" lon="4.85952">
        <ele>192.23</ele>
        <time>2017-03-26T14:15:38Z</time>
      </trkpt>
      <trkpt lat="45.16084" lon="4.85952">
        <ele>192.23</ele>
        <time>2017-03-26T14:15:39Z</time>
      </trkpt>
      <trkpt lat="45.16084" lon="4.85952">
        <ele>192.23</ele>
        <time>2017-03-26T14:15:40Z</time>
      </trkpt>
      <trkpt lat="45.16084" lon="4.85952">
        <ele>192.23</ele>
        <time>2017-03-26T14:15:41Z</time>
      </trkpt>
      <trkpt lat="45.16084" lon="4.85952">
        <ele>192.23</ele>
        <time>2017-03-26T14:15:42Z</time>
      </trkpt>
      <trkpt lat="45.16084" lon="4.85952">
        <ele>192.23</ele>
        <time>2017-03-26T14:15:43Z</time>
      </trkpt>
      <trkpt lat="45.16084" lon="4.85952">
        <ele>192.23</ele>
        <time>2017-03-26T14:15:44Z</time>
      </trkpt>
      <trkpt lat="45.16084" lon="4.85952">
        <ele>192.23</ele>
        <time>2017-03-26T14:15:45Z</time>
      </trkpt>
      <trkpt lat="45.16084" lon="4.85952">
        <ele>192.23</ele>
        <time>2017-03-26T14:15:46Z</time>
      </trkpt>
      <trkpt lat="45.16084" lon="4.85952">
        <ele>192.23</ele>
        <time>2017-03-26T14:15:47Z</time>
      </trkpt>
      <trkpt lat="45.16084" lon="4.85952">
        <ele>192.23</ele>
        <time>2017-03-26T14:15:48Z</time>
      </trkpt>
      <trkpt lat="45.16084" lon="4.85952">
        <ele>192.23</ele>
        <time>2017-03-26T14:15:49Z</time>
      </trkpt>
      <trkpt lat="45.16084" lon="4.85952">
        <ele>192.23</ele>
        <time>2017-03-26T14:15:50Z</time>
      </trkpt>
      <trkpt lat="45.16084" lon="4.85952">
        <ele>192.23</ele>
        <time>2017-03-26T14:15:51Z</time>
      </trkpt>
      <trkpt lat="45.16084" lon="4.85952">
        <ele>192.23</ele>
        <time>2017-03-26T14:15:52Z</time>
      </trkpt>
      <trkpt lat="45.16084" lon="4.85952">
        <ele>192.23</ele>
        <time>2017-03-26T14:15:53Z</time>
      </trkpt>
      <trkpt lat="45.16084" lon="4.85952">
        <ele>192.23</ele>
        <time>2017-03-26T14:15:54Z</time>
      </trkpt>
      <trkpt lat="45.16084" lon="4.85952">
        <ele>192.23</ele>
        <time>2017-03-26T14:15:55Z</time>
      </trkpt>
      <trkpt lat="45.16084" lon="4.85952">
        <ele>192.23</ele>
        <time>2017-03-26T14:15:56Z</time>
      </trkpt>
      <trkpt lat="45.16084" lon="4.85952">
        <ele>192.23</ele>
        <time>2017-03-26T14:15:57Z</time>
      </trkpt>
      <trkpt lat="45.16084" lon="4.85952">
        <ele>192.23</ele>
        <time>2017-03-26T14:15:58Z</time>
      </trkpt>
      <trkpt lat="45.16084" lon="4.85952">
        <ele>192.23</ele>
        <time>2017-03-26T14:15:59Z</time>
      </trkpt>
      <trkpt lat="45.16084" lon="4.85952">
        <ele>192.23</ele>
        <time>2017-03-26T14:16:00Z</time>
      </trkpt>
      <trkpt lat="45.16084" lon="4.85952">
        <ele>192.23</ele>
        <time>2017-03-26T14:16:01Z</time>
      </trkpt>
      <trkpt lat="45.16084" lon="4.85952">
        <ele>192.23</ele>
        <time>2017-03-26T14:16:02Z</time>
      </trkpt>
      <trkpt lat="45.16084" lon="4.85952">
        <ele>192.23</ele>
        <time>2017-03-26T14:16:03Z</time>
      </trkpt>
      <trkpt lat="45.16084" lon="4.85952">
        <ele>192.23</ele>
        <time>2017-03-26T14:16:04Z</time>
      </trkpt>
      <trkpt lat="45.16084" lon="4.85952">
        <ele>192.23</ele>
        <time>2017-03-26T14:16:05Z</time>
      </trkpt>
      <trkpt lat="45.16084" lon="4.85952">
        <ele>192.23</ele>
        <time>2017-03-26T14:16:06Z</time>
      </trkpt>
      <trkpt lat="45.16084" lon="4.85952">
        <ele>192.23</ele>
        <time>2017-03-26T14:16:07Z</time>
      </trkpt>
      <trkpt lat="45.16084" lon="4.85952">
        <ele>192.23</ele>
        <time>2017-03-26T14:16:08Z</time>
      </trkpt>
      <trkpt lat="45.16084" lon="4.85952">
        <ele>192.23</ele>
        <time>2017-03-26T14:16:09Z</time>
      </trkpt>
      <trkpt lat="45.16084" lon="4.85952">
        <ele>192.23</ele>
        <time>2017-03-26T14:16:10Z</time>
      </trkpt>
      <trkpt lat="45.16084" lon="4.85952">
        <ele>192.23</ele>
        <time>2017-03-26T14:16:11Z</time>
      </trkpt>
      <trkpt lat="45.16084" lon="4.85952">
        <ele>192.23</ele>
        <time>2017-03-26T14:16:12Z</time>
      </trkpt>
      <trkpt lat="45.16084" lon="4.85952">
        <ele>192.23</ele>
        <time>2017-03-26T14:16:13Z</time>
      </trkpt>
      <trkpt lat="45.16084" lon="4.85952">
        <ele>192.23</ele>
        <time>2017-03-26T14:16:14Z</time>
      </trkpt>
      <trkpt lat="45.16084" lon="4.85952">
        <ele>192.23</ele>
        <time>2017-03-26T14:16:15Z</time>
      </trkpt>
      <trkpt lat="45.16084" lon="4.85952">
        <ele>192.23</ele>
        <time>2017-03-26T14:16:16Z</time>
      </trkpt>
      <trkpt lat="45.16084" lon="4.85952">
        <ele>192.23</ele>
        <time>2017-03-26T14:16:17Z</time>
      </trkpt>
      <trkpt lat="45.16084" lon="4.85952">
        <ele>192.23</ele>
        <time>2017-03-26T14:16:18Z</time>
      </trkpt>
      <trkpt lat="45.16084" lon="4.85952">
        <ele>192.23</ele>
        <time>2017-03-26T14:16:19Z</time>
      </trkpt>
      <trkpt lat="45.16084" lon="4.85952">
        <ele>192.23</ele>
        <time>2017-03-26T14:16:20Z</time>
      </trkpt>
      <trkpt lat="45.16084" lon="4.85952">
        <ele>192.23</ele>
        <time>2017-03-26T14:16:21Z</time>
      </trkpt>
      <trkpt lat="45.16084" lon="4.85952">
        <ele>192.23</ele>
        <time>2017-03-26T14:16:22Z</time>
      </trkpt>
      <trkpt lat="45.16086" lon="4.85941">
        <ele>193.43</ele>
        <time>2017-03-26T14:16:23Z</time>
      </trkpt>
      <trkpt lat="45.16087" lon="4.85939">
        <ele>193.67</ele>
        <time>2017-03-26T14:16:24Z</time>
      </trkpt>
      <trkpt lat="45.16087" lon="4.85935">
        <ele>193.72</ele>
        <time>2017-03-26T14:16:25Z</time>
      </trkpt>
      <trkpt lat="45.16088" lon="4.85931">
        <ele>193.65</ele>
        <time>2017-03-26T14:16:26Z</time>
      </trkpt>
      <trkpt lat="45.16089" lon="4.85926">
        <ele>193.63</ele>
        <time>2017-03-26T14:16:27Z</time>
      </trkpt>
      <trkpt lat="45.16089" lon="4.8592">
        <ele>193.55</ele>
        <time>2017-03-26T14:16:28Z</time>
      </trkpt>
      <trkpt lat="45.16089" lon="4.85917">
        <ele>193.53</ele>
        <time>2017-03-26T14:16:29Z</time>
      </trkpt>
      <trkpt lat="45.16089" lon="4.85914">
        <ele>193.53</ele>
        <time>2017-03-26T14:16:30Z</time>
      </trkpt>
      <trkpt lat="45.1609" lon="4.85911">
        <ele>193.45</ele>
        <time>2017-03-26T14:16:31Z</time>
      </trkpt>
      <trkpt lat="45.1609" lon="4.85909">
        <ele>193.43</ele>
        <time>2017-03-26T14:16:32Z</time>
      </trkpt>
      <trkpt lat="45.16091" lon="4.85906">
        <ele>193.43</ele>
        <time>2017-03-26T14:16:33Z</time>
      </trkpt>
      <trkpt lat="45.16093" lon="4.85905">
        <ele>193.43</ele>
        <time>2017-03-26T14:16:34Z</time>
      </trkpt>
      <trkpt lat="45.16095" lon="4.85904">
        <ele>193.35</ele>
        <time>2017-03-26T14:16:35Z</time>
      </trkpt>
      <trkpt lat="45.16098" lon="4.85906">
        <ele>193.25</ele>
        <time>2017-03-26T14:16:36Z</time>
      </trkpt>
      <trkpt lat="45.16101" lon="4.85908">
        <ele>193.23</ele>
        <time>2017-03-26T14:16:37Z</time>
      </trkpt>
      <trkpt lat="45.16104" lon="4.85912">
        <ele>193.15</ele>
        <time>2017-03-26T14:16:38Z</time>
      </trkpt>
      <trkpt lat="45.16109" lon="4.85918">
        <ele>193.13</ele>
        <time>2017-03-26T14:16:39Z</time>
      </trkpt>
      <trkpt lat="45.16115" lon="4.85923">
        <ele>193.05</ele>
        <time>2017-03-26T14:16:40Z</time>
      </trkpt>
      <trkpt lat="45.16123" lon="4.85927">
        <ele>193.03</ele>
        <time>2017-03-26T14:16:41Z</time>
      </trkpt>
      <trkpt lat="45.16132" lon="4.85931">
        <ele>192.95</ele>
        <time>2017-03-26T14:16:42Z</time>
      </trkpt>
      <trkpt lat="45.1614" lon="4.85934">
        <ele>192.77</ele>
        <time>2017-03-26T14:16:43Z</time>
      </trkpt>
      <trkpt lat="45.1615" lon="4.85936">
        <ele>192.66</ele>
        <time>2017-03-26T14:16:44Z</time>
      </trkpt>
      <trkpt lat="45.16159" lon="4.85939">
        <ele>192.48</ele>
        <time>2017-03-26T14:16:45Z</time>
      </trkpt>
      <trkpt lat="45.16169" lon="4.85944">
        <ele>192.28</ele>
        <time>2017-03-26T14:16:46Z</time>
      </trkpt>
      <trkpt lat="45.16177" lon="4.85951">
        <ele>192.16</ele>
        <time>2017-03-26T14:16:47Z</time>
      </trkpt>
      <trkpt lat="45.16184" lon="4.8596">
        <ele>192.06</ele>
        <time>2017-03-26T14:16:48Z</time>
      </trkpt>
      <trkpt lat="45.1619" lon="4.8597">
        <ele>191.96</ele>
        <time>2017-03-26T14:16:49Z</time>
      </trkpt>
      <trkpt lat="45.16191" lon="4.85985">
        <ele>191.78</ele>
        <time>2017-03-26T14:16:50Z</time>
      </trkpt>
      <trkpt lat="45.16192" lon="4.85998">
        <ele>191.58</ele>
        <time>2017-03-26T14:16:51Z</time>
      </trkpt>
      <trkpt lat="45.16193" lon="4.86011">
        <ele>191.38</ele>
        <time>2017-03-26T14:16:52Z</time>
      </trkpt>
      <trkpt lat="45.16193" lon="4.86025">
        <ele>191.18</ele>
        <time>2017-03-26T14:16:53Z</time>
      </trkpt>
      <trkpt lat="45.16191" lon="4.8604">
        <ele>190.98</ele>
        <time>2017-03-26T14:16:54Z</time>
      </trkpt>
      <trkpt lat="45.16191" lon="4.86055">
        <ele>190.78</ele>
        <time>2017-03-26T14:16:55Z</time>
      </trkpt>
      <trkpt lat="45.16192" lon="4.86069">
        <ele>190.58</ele>
        <time>2017-03-26T14:16:56Z</time>
      </trkpt>
      <trkpt lat="45.16193" lon="4.86084">
        <ele>190.46</ele>
        <time>2017-03-26T14:16:57Z</time>
      </trkpt>
      <trkpt lat="45.16194" lon="4.86099">
        <ele>190.28</ele>
        <time>2017-03-26T14:16:58Z</time>
      </trkpt>
      <trkpt lat="45.162" lon="4.86116">
        <ele>190.16</ele>
        <time>2017-03-26T14:16:59Z</time>
      </trkpt>
      <trkpt lat="45.16208" lon="4.8613">
        <ele>189.98</ele>
        <time>2017-03-26T14:17:00Z</time>
      </trkpt>
      <trkpt lat="45.16218" lon="4.86144">
        <ele>189.78</ele>
        <time>2017-03-26T14:17:01Z</time>
      </trkpt>
      <trkpt lat="45.16231" lon="4.86154">
        <ele>189.5</ele>
        <time>2017-03-26T14:17:02Z</time>
      </trkpt>
      <trkpt lat="45.16244" lon="4.86167">
        <ele>189.28</ele>
        <time>2017-03-26T14:17:03Z</time>
      </trkpt>
      <trkpt lat="45.1626" lon="4.86176">
        <ele>189.08</ele>
        <time>2017-03-26T14:17:04Z</time>
      </trkpt>
      <trkpt lat="45.16278" lon="4.86185">
        <ele>188.8</ele>
        <time>2017-03-26T14:17:05Z</time>
      </trkpt>
      <trkpt lat="45.16294" lon="4.86196">
        <ele>188.58</ele>
        <time>2017-03-26T14:17:06Z</time>
      </trkpt>
      <trkpt lat="45.16309" lon="4.86207">
        <ele>188.3</ele>
        <time>2017-03-26T14:17:07Z</time>
      </trkpt>
      <trkpt lat="45.16324" lon="4.86217">
        <ele>188</ele>
        <time>2017-03-26T14:17:08Z</time>
      </trkpt>
      <trkpt lat="45.16337" lon="4.86228">
        <ele>187.7</ele>
        <time>2017-03-26T14:17:09Z</time>
      </trkpt>
      <trkpt lat="45.16351" lon="4.86238">
        <ele>187.32</ele>
        <time>2017-03-26T14:17:10Z</time>
      </trkpt>
      <trkpt lat="45.16366" lon="4.86248">
        <ele>186.93</ele>
        <time>2017-03-26T14:17:11Z</time>
      </trkpt>
      <trkpt lat="45.16382" lon="4.86256">
        <ele>186.53</ele>
        <time>2017-03-26T14:17:12Z</time>
      </trkpt>
      <trkpt lat="45.16397" lon="4.86263">
        <ele>186.29</ele>
        <time>2017-03-26T14:17:13Z</time>
      </trkpt>
      <trkpt lat="45.16411" lon="4.86268">
        <ele>186</ele>
        <time>2017-03-26T14:17:14Z</time>
      </trkpt>
      <trkpt lat="45.16426" lon="4.86271">
        <ele>185.62</ele>
        <time>2017-03-26T14:17:15Z</time>
      </trkpt>
      <trkpt lat="45.16441" lon="4.86272">
        <ele>185.31</ele>
        <time>2017-03-26T14:17:16Z</time>
      </trkpt>
      <trkpt lat="45.16457" lon="4.86272">
        <ele>185.01</ele>
        <time>2017-03-26T14:17:17Z</time>
      </trkpt>
      <trkpt lat="45.16473" lon="4.86273">
        <ele>184.63</ele>
        <time>2017-03-26T14:17:18Z</time>
      </trkpt>
      <trkpt lat="45.16488" lon="4.86274">
        <ele>184.39</ele>
        <time>2017-03-26T14:17:19Z</time>
      </trkpt>
      <trkpt lat="45.16503" lon="4.86277">
        <ele>184.1</ele>
        <time>2017-03-26T14:17:20Z</time>
      </trkpt>
      <trkpt lat="45.16518" lon="4.86281">
        <ele>183.72</ele>
        <time>2017-03-26T14:17:21Z</time>
      </trkpt>
      <trkpt lat="45.16533" lon="4.86287">
        <ele>183.41</ele>
        <time>2017-03-26T14:17:22Z</time>
      </trkpt>
      <trkpt lat="45.16547" lon="4.86294">
        <ele>183.03</ele>
        <time>2017-03-26T14:17:23Z</time>
      </trkpt>
      <trkpt lat="45.16561" lon="4.86303">
        <ele>182.71</ele>
        <time>2017-03-26T14:17:24Z</time>
      </trkpt>
      <trkpt lat="45.16576" lon="4.86313">
        <ele>182.33</ele>
        <time>2017-03-26T14:17:25Z</time>
      </trkpt>
      <trkpt lat="45.16592" lon="4.86323">
        <ele>182.01</ele>
        <time>2017-03-26T14:17:26Z</time>
      </trkpt>
      <trkpt lat="45.16608" lon="4.86336">
        <ele>181.63</ele>
        <time>2017-03-26T14:17:27Z</time>
      </trkpt>
      <trkpt lat="45.16623" lon="4.86349">
        <ele>181.23</ele>
        <time>2017-03-26T14:17:28Z</time>
      </trkpt>
      <trkpt lat="45.16637" lon="4.86361">
        <ele>180.75</ele>
        <time>2017-03-26T14:17:29Z</time>
      </trkpt>
      <trkpt lat="45.16649" lon="4.86374">
        <ele>180.33</ele>
        <time>2017-03-26T14:17:30Z</time>
      </trkpt>
      <trkpt lat="45.16663" lon="4.86386">
        <ele>179.93</ele>
        <time>2017-03-26T14:17:31Z</time>
      </trkpt>
      <trkpt lat="45.16676" lon="4.86397">
        <ele>179.53</ele>
        <time>2017-03-26T14:17:32Z</time>
      </trkpt>
      <trkpt lat="45.1669" lon="4.86407">
        <ele>179.05</ele>
        <time>2017-03-26T14:17:33Z</time>
      </trkpt>
      <trkpt lat="45.16703" lon="4.86416">
        <ele>178.55</ele>
        <time>2017-03-26T14:17:34Z</time>
      </trkpt>
      <trkpt lat="45.16718" lon="4.86424">
        <ele>178.05</ele>
        <time>2017-03-26T14:17:35Z</time>
      </trkpt>
      <trkpt lat="45.16732" lon="4.86434">
        <ele>177.47</ele>
        <time>2017-03-26T14:17:36Z</time>
      </trkpt>
      <trkpt lat="45.16745" lon="4.86445">
        <ele>176.96</ele>
        <time>2017-03-26T14:17:37Z</time>
      </trkpt>
      <trkpt lat="45.16757" lon="4.86459">
        <ele>176.46</ele>
        <time>2017-03-26T14:17:38Z</time>
      </trkpt>
      <trkpt lat="45.16768" lon="4.86476">
        <ele>175.8</ele>
        <time>2017-03-26T14:17:39Z</time>
      </trkpt>
      <trkpt lat="45.16779" lon="4.86492">
        <ele>175.1</ele>
        <time>2017-03-26T14:17:40Z</time>
      </trkpt>
      <trkpt lat="45.16786" lon="4.86512">
        <ele>174</ele>
        <time>2017-03-26T14:17:41Z</time>
      </trkpt>
      <trkpt lat="45.16797" lon="4.8653">
        <ele>173.22</ele>
        <time>2017-03-26T14:17:42Z</time>
      </trkpt>
      <trkpt lat="45.16809" lon="4.86548">
        <ele>172.43</ele>
        <time>2017-03-26T14:17:43Z</time>
      </trkpt>
      <trkpt lat="45.16816" lon="4.86569">
        <ele>170.83</ele>
        <time>2017-03-26T14:17:44Z</time>
      </trkpt>
      <trkpt lat="45.16824" lon="4.86588">
        <ele>169.55</ele>
        <time>2017-03-26T14:17:45Z</time>
      </trkpt>
      <trkpt lat="45.16833" lon="4.86607">
        <ele>168.73</ele>
        <time>2017-03-26T14:17:46Z</time>
      </trkpt>
      <trkpt lat="45.1684" lon="4.86627">
        <ele>167.93</ele>
        <time>2017-03-26T14:17:47Z</time>
      </trkpt>
      <trkpt lat="45.16846" lon="4.86646">
        <ele>167.13</ele>
        <time>2017-03-26T14:17:48Z</time>
      </trkpt>
      <trkpt lat="45.16851" lon="4.86665">
        <ele>166.41</ele>
        <time>2017-03-26T14:17:49Z</time>
      </trkpt>
      <trkpt lat="45.16856" lon="4.86684">
        <ele>165.55</ele>
        <time>2017-03-26T14:17:50Z</time>
      </trkpt>
      <trkpt lat="45.1686" lon="4.86703">
        <ele>164.81</ele>
        <time>2017-03-26T14:17:51Z</time>
      </trkpt>
      <trkpt lat="45.16863" lon="4.86723">
        <ele>164.11</ele>
        <time>2017-03-26T14:17:52Z</time>
      </trkpt>
      <trkpt lat="45.16864" lon="4.86744">
        <ele>163.25</ele>
        <time>2017-03-26T14:17:53Z</time>
      </trkpt>
      <trkpt lat="45.16865" lon="4.86764">
        <ele>162.43</ele>
        <time>2017-03-26T14:17:54Z</time>
      </trkpt>
      <trkpt lat="45.16865" lon="4.86786">
        <ele>161.71</ele>
        <time>2017-03-26T14:17:55Z</time>
      </trkpt>
      <trkpt lat="45.16864" lon="4.86808">
        <ele>161.09</ele>
        <time>2017-03-26T14:17:56Z</time>
      </trkpt>
      <trkpt lat="45.16861" lon="4.86831">
        <ele>160.4</ele>
        <time>2017-03-26T14:17:57Z</time>
      </trkpt>
      <trkpt lat="45.16858" lon="4.86853">
        <ele>159.7</ele>
        <time>2017-03-26T14:17:58Z</time>
      </trkpt>
      <trkpt lat="45.16856" lon="4.86876">
        <ele>159</ele>
        <time>2017-03-26T14:17:59Z</time>
      </trkpt>
      <trkpt lat="45.16854" lon="4.86899">
        <ele>158.3</ele>
        <time>2017-03-26T14:18:00Z</time>
      </trkpt>
      <trkpt lat="45.16851" lon="4.86921">
        <ele>157.68</ele>
        <time>2017-03-26T14:18:01Z</time>
      </trkpt>
      <trkpt lat="45.16848" lon="4.86943">
        <ele>157.08</ele>
        <time>2017-03-26T14:18:02Z</time>
      </trkpt>
      <trkpt lat="45.16843" lon="4.86968">
        <ele>156.32</ele>
        <time>2017-03-26T14:18:03Z</time>
      </trkpt>
      <trkpt lat="45.1684" lon="4.86988">
        <ele>155.69</ele>
        <time>2017-03-26T14:18:04Z</time>
      </trkpt>
      <trkpt lat="45.16838" lon="4.87006">
        <ele>155.08</ele>
        <time>2017-03-26T14:18:05Z</time>
      </trkpt>
      <trkpt lat="45.16836" lon="4.87021">
        <ele>154.48</ele>
        <time>2017-03-26T14:18:06Z</time>
      </trkpt>
      <trkpt lat="45.16831" lon="4.87039">
        <ele>153.72</ele>
        <time>2017-03-26T14:18:07Z</time>
      </trkpt>
      <trkpt lat="45.16836" lon="4.87046">
        <ele>153.17</ele>
        <time>2017-03-26T14:18:08Z</time>
      </trkpt>
      <trkpt lat="45.1684" lon="4.87055">
        <ele>152.5</ele>
        <time>2017-03-26T14:18:09Z</time>
      </trkpt>
      <trkpt lat="45.16844" lon="4.87063">
        <ele>151.88</ele>
        <time>2017-03-26T14:18:10Z</time>
      </trkpt>
      <trkpt lat="45.1685" lon="4.8707">
        <ele>151.36</ele>
        <time>2017-03-26T14:18:11Z</time>
      </trkpt>
      <trkpt lat="45.16855" lon="4.87077">
        <ele>150.78</ele>
        <time>2017-03-26T14:18:12Z</time>
      </trkpt>
      <trkpt lat="45.16862" lon="4.87083">
        <ele>150.18</ele>
        <time>2017-03-26T14:18:13Z</time>
      </trkpt>
      <trkpt lat="45.16868" lon="4.8709">
        <ele>149.66</ele>
        <time>2017-03-26T14:18:14Z</time>
      </trkpt>
      <trkpt lat="45.16873" lon="4.87096">
        <ele>148.76</ele>
        <time>2017-03-26T14:18:15Z</time>
      </trkpt>
      <trkpt lat="45.1688" lon="4.87102">
        <ele>148.1</ele>
        <time>2017-03-26T14:18:16Z</time>
      </trkpt>
      <trkpt lat="45.16887" lon="4.87108">
        <ele>147.48</ele>
        <time>2017-03-26T14:18:17Z</time>
      </trkpt>
      <trkpt lat="45.16894" lon="4.87113">
        <ele>146.72</ele>
        <time>2017-03-26T14:18:18Z</time>
      </trkpt>
      <trkpt lat="45.16901" lon="4.87119">
        <ele>146.09</ele>
        <time>2017-03-26T14:18:19Z</time>
      </trkpt>
      <trkpt lat="45.16908" lon="4.87125">
        <ele>145.48</ele>
        <time>2017-03-26T14:18:20Z</time>
      </trkpt>
      <trkpt lat="45.16915" lon="4.8713">
        <ele>144.88</ele>
        <time>2017-03-26T14:18:21Z</time>
      </trkpt>
      <trkpt lat="45.16921" lon="4.87135">
        <ele>144.28</ele>
        <time>2017-03-26T14:18:22Z</time>
      </trkpt>
      <trkpt lat="45.16927" lon="4.8714">
        <ele>143.6</ele>
        <time>2017-03-26T14:18:23Z</time>
      </trkpt>
      <trkpt lat="45.16934" lon="4.87141">
        <ele>142.74</ele>
        <time>2017-03-26T14:18:24Z</time>
      </trkpt>
      <trkpt lat="45.16941" lon="4.87145">
        <ele>142.01</ele>
        <time>2017-03-26T14:18:25Z</time>
      </trkpt>
      <trkpt lat="45.16948" lon="4.87147">
        <ele>141.31</ele>
        <time>2017-03-26T14:18:26Z</time>
      </trkpt>
      <trkpt lat="45.16955" lon="4.87151">
        <ele>140.61</ele>
        <time>2017-03-26T14:18:27Z</time>
      </trkpt>
      <trkpt lat="45.16962" lon="4.87155">
        <ele>139.91</ele>
        <time>2017-03-26T14:18:28Z</time>
      </trkpt>
      <trkpt lat="45.1697" lon="4.87159">
        <ele>139.21</ele>
        <time>2017-03-26T14:18:29Z</time>
      </trkpt>
      <trkpt lat="45.16979" lon="4.87162">
        <ele>138.35</ele>
        <time>2017-03-26T14:18:30Z</time>
      </trkpt>
      <trkpt lat="45.16987" lon="4.87167">
        <ele>137.53</ele>
        <time>2017-03-26T14:18:31Z</time>
      </trkpt>
      <trkpt lat="45.16995" lon="4.87171">
        <ele>136.73</ele>
        <time>2017-03-26T14:18:32Z</time>
      </trkpt>
      <trkpt lat="45.17002" lon="4.87175">
        <ele>135.77</ele>
        <time>2017-03-26T14:18:33Z</time>
      </trkpt>
      <trkpt lat="45.17007" lon="4.87178">
        <ele>135.02</ele>
        <time>2017-03-26T14:18:34Z</time>
      </trkpt>
      <trkpt lat="45.17012" lon="4.87182">
        <ele>134.23</ele>
        <time>2017-03-26T14:18:35Z</time>
      </trkpt>
      <trkpt lat="45.17015" lon="4.87187">
        <ele>133.35</ele>
        <time>2017-03-26T14:18:36Z</time>
      </trkpt>
      <trkpt lat="45.17017" lon="4.87192">
        <ele>132.61</ele>
        <time>2017-03-26T14:18:37Z</time>
      </trkpt>
      <trkpt lat="45.17017" lon="4.87197">
        <ele>131.91</ele>
        <time>2017-03-26T14:18:38Z</time>
      </trkpt>
      <trkpt lat="45.17017" lon="4.87203">
        <ele>131.21</ele>
        <time>2017-03-26T14:18:39Z</time>
      </trkpt>
      <trkpt lat="45.17018" lon="4.87209">
        <ele>130.59</ele>
        <time>2017-03-26T14:18:40Z</time>
      </trkpt>
      <trkpt lat="45.17017" lon="4.87218">
        <ele>129.98</ele>
        <time>2017-03-26T14:18:41Z</time>
      </trkpt>
      <trkpt lat="45.17018" lon="4.87227">
        <ele>129.46</ele>
        <time>2017-03-26T14:18:42Z</time>
      </trkpt>
      <trkpt lat="45.17018" lon="4.87237">
        <ele>128.88</ele>
        <time>2017-03-26T14:18:43Z</time>
      </trkpt>
      <trkpt lat="45.17019" lon="4.87248">
        <ele>128.28</ele>
        <time>2017-03-26T14:18:44Z</time>
      </trkpt>
      <trkpt lat="45.1702" lon="4.8726">
        <ele>127.68</ele>
        <time>2017-03-26T14:18:45Z</time>
      </trkpt>
      <trkpt lat="45.17021" lon="4.87272">
        <ele>127.16</ele>
        <time>2017-03-26T14:18:46Z</time>
      </trkpt>
      <trkpt lat="45.17023" lon="4.87285">
        <ele>126.66</ele>
        <time>2017-03-26T14:18:47Z</time>
      </trkpt>
      <trkpt lat="45.17024" lon="4.87298">
        <ele>126.24</ele>
        <time>2017-03-26T14:18:48Z</time>
      </trkpt>
      <trkpt lat="45.17024" lon="4.87312">
        <ele>125.75</ele>
        <time>2017-03-26T14:18:49Z</time>
      </trkpt>
      <trkpt lat="45.17025" lon="4.87325">
        <ele>125.25</ele>
        <time>2017-03-26T14:18:50Z</time>
      </trkpt>
      <trkpt lat="45.17026" lon="4.87339">
        <ele>124.75</ele>
        <time>2017-03-26T14:18:51Z</time>
      </trkpt>
      <trkpt lat="45.17028" lon="4.87352">
        <ele>124.33</ele>
        <time>2017-03-26T14:18:52Z</time>
      </trkpt>
      <trkpt lat="45.17029" lon="4.87365">
        <ele>123.77</ele>
        <time>2017-03-26T14:18:53Z</time>
      </trkpt>
      <trkpt lat="45.17031" lon="4.87378">
        <ele>123.34</ele>
        <time>2017-03-26T14:18:54Z</time>
      </trkpt>
      <trkpt lat="45.17032" lon="4.87391">
        <ele>122.85</ele>
        <time>2017-03-26T14:18:55Z</time>
      </trkpt>
      <trkpt lat="45.17033" lon="4.87405">
        <ele>122.35</ele>
        <time>2017-03-26T14:18:56Z</time>
      </trkpt>
      <trkpt lat="45.17034" lon="4.87418">
        <ele>121.69</ele>
        <time>2017-03-26T14:18:57Z</time>
      </trkpt>
      <trkpt lat="45.17034" lon="4.87432">
        <ele>121.08</ele>
        <time>2017-03-26T14:18:58Z</time>
      </trkpt>
      <trkpt lat="45.17034" lon="4.87446">
        <ele>120.48</ele>
        <time>2017-03-26T14:18:59Z</time>
      </trkpt>
      <trkpt lat="45.17035" lon="4.87461">
        <ele>120.12</ele>
        <time>2017-03-26T14:19:00Z</time>
      </trkpt>
      <trkpt lat="45.17035" lon="4.87475">
        <ele>119.73</ele>
        <time>2017-03-26T14:19:01Z</time>
      </trkpt>
      <trkpt lat="45.17036" lon="4.8749">
        <ele>119.41</ele>
        <time>2017-03-26T14:19:02Z</time>
      </trkpt>
      <trkpt lat="45.17037" lon="4.87506">
        <ele>119.03</ele>
        <time>2017-03-26T14:19:03Z</time>
      </trkpt>
      <trkpt lat="45.17038" lon="4.87523">
        <ele>118.63</ele>
        <time>2017-03-26T14:19:04Z</time>
      </trkpt>
      <trkpt lat="45.17039" lon="4.8754">
        <ele>118.23</ele>
        <time>2017-03-26T14:19:05Z</time>
      </trkpt>
      <trkpt lat="45.1704" lon="4.87558">
        <ele>117.91</ele>
        <time>2017-03-26T14:19:06Z</time>
      </trkpt>
      <trkpt lat="45.1704" lon="4.87576">
        <ele>117.53</ele>
        <time>2017-03-26T14:19:07Z</time>
      </trkpt>
      <trkpt lat="45.17038" lon="4.87597">
        <ele>116.89</ele>
        <time>2017-03-26T14:19:08Z</time>
      </trkpt>
      <trkpt lat="45.17035" lon="4.87617">
        <ele>116.44</ele>
        <time>2017-03-26T14:19:09Z</time>
      </trkpt>
      <trkpt lat="45.17033" lon="4.87637">
        <ele>116.11</ele>
        <time>2017-03-26T14:19:10Z</time>
      </trkpt>
      <trkpt lat="45.1703" lon="4.87657">
        <ele>115.57</ele>
        <time>2017-03-26T14:19:11Z</time>
      </trkpt>
      <trkpt lat="45.17026" lon="4.87676">
        <ele>115.22</ele>
        <time>2017-03-26T14:19:12Z</time>
      </trkpt>
      <trkpt lat="45.17021" lon="4.87695">
        <ele>114.27</ele>
        <time>2017-03-26T14:19:13Z</time>
      </trkpt>
      <trkpt lat="45.17017" lon="4.87711">
        <ele>113.6</ele>
        <time>2017-03-26T14:19:14Z</time>
      </trkpt>
      <trkpt lat="45.17012" lon="4.87726">
        <ele>112.74</ele>
        <time>2017-03-26T14:19:15Z</time>
      </trkpt>
      <trkpt lat="45.17006" lon="4.87738">
        <ele>112.57</ele>
        <time>2017-03-26T14:19:16Z</time>
      </trkpt>
      <trkpt lat="45.17" lon="4.87751">
        <ele>112.3</ele>
        <time>2017-03-26T14:19:17Z</time>
      </trkpt>
      <trkpt lat="45.16998" lon="4.87763">
        <ele>111.84</ele>
        <time>2017-03-26T14:19:18Z</time>
      </trkpt>
      <trkpt lat="45.16996" lon="4.87777">
        <ele>111.27</ele>
        <time>2017-03-26T14:19:19Z</time>
      </trkpt>
      <trkpt lat="45.16994" lon="4.87793">
        <ele>110.84</ele>
        <time>2017-03-26T14:19:20Z</time>
      </trkpt>
      <trkpt lat="45.16991" lon="4.87813">
        <ele>110.59</ele>
        <time>2017-03-26T14:19:21Z</time>
      </trkpt>
      <trkpt lat="45.16988" lon="4.87834">
        <ele>110.38</ele>
        <time>2017-03-26T14:19:22Z</time>
      </trkpt>
      <trkpt lat="45.16984" lon="4.87857">
        <ele>110.26</ele>
        <time>2017-03-26T14:19:23Z</time>
      </trkpt>
      <trkpt lat="45.1698" lon="4.87881">
        <ele>110</ele>
        <time>2017-03-26T14:19:24Z</time>
      </trkpt>
      <trkpt lat="45.16975" lon="4.87908">
        <ele>109.78</ele>
        <time>2017-03-26T14:19:25Z</time>
      </trkpt>
      <trkpt lat="45.16971" lon="4.8794">
        <ele>109.66</ele>
        <time>2017-03-26T14:19:26Z</time>
      </trkpt>
      <trkpt lat="45.16968" lon="4.87969">
        <ele>109.48</ele>
        <time>2017-03-26T14:19:27Z</time>
      </trkpt>
      <trkpt lat="45.16969" lon="4.88003">
        <ele>109.28</ele>
        <time>2017-03-26T14:19:28Z</time>
      </trkpt>
      <trkpt lat="45.1697" lon="4.88039">
        <ele>109.32</ele>
        <time>2017-03-26T14:19:29Z</time>
      </trkpt>
      <trkpt lat="45.16972" lon="4.88073">
        <ele>109.17</ele>
        <time>2017-03-26T14:19:30Z</time>
      </trkpt>
      <trkpt lat="45.16976" lon="4.8811">
        <ele>109.3</ele>
        <time>2017-03-26T14:19:31Z</time>
      </trkpt>
      <trkpt lat="45.16979" lon="4.88147">
        <ele>109.48</ele>
        <time>2017-03-26T14:19:32Z</time>
      </trkpt>
      <trkpt lat="45.16982" lon="4.88183">
        <ele>109.6</ele>
        <time>2017-03-26T14:19:33Z</time>
      </trkpt>
      <trkpt lat="45.16985" lon="4.88218">
        <ele>109.7</ele>
        <time>2017-03-26T14:19:34Z</time>
      </trkpt>
      <trkpt lat="45.16986" lon="4.88252">
        <ele>109.72</ele>
        <time>2017-03-26T14:19:35Z</time>
      </trkpt>
      <trkpt lat="45.16985" lon="4.88287">
        <ele>109.57</ele>
        <time>2017-03-26T14:19:36Z</time>
      </trkpt>
      <trkpt lat="45.16984" lon="4.8832">
        <ele>109.46</ele>
        <time>2017-03-26T14:19:37Z</time>
      </trkpt>
      <trkpt lat="45.16981" lon="4.88354">
        <ele>109.36</ele>
        <time>2017-03-26T14:19:38Z</time>
      </trkpt>
      <trkpt lat="45.16975" lon="4.88388">
        <ele>109.1</ele>
        <time>2017-03-26T14:19:39Z</time>
      </trkpt>
      <trkpt lat="45.16969" lon="4.88422">
        <ele>108.96</ele>
        <time>2017-03-26T14:19:40Z</time>
      </trkpt>
      <trkpt lat="45.16962" lon="4.88456">
        <ele>108.86</ele>
        <time>2017-03-26T14:19:41Z</time>
      </trkpt>
      <trkpt lat="45.16956" lon="4.8849">
        <ele>108.76</ele>
        <time>2017-03-26T14:19:42Z</time>
      </trkpt>
      <trkpt lat="45.16949" lon="4.88524">
        <ele>108.66</ele>
        <time>2017-03-26T14:19:43Z</time>
      </trkpt>
      <trkpt lat="45.16942" lon="4.88558">
        <ele>108.64</ele>
        <time>2017-03-26T14:19:44Z</time>
      </trkpt>
      <trkpt lat="45.16936" lon="4.8859">
        <ele>108.87</ele>
        <time>2017-03-26T14:19:45Z</time>
      </trkpt>
      <trkpt lat="45.1693" lon="4.88622">
        <ele>109.16</ele>
        <time>2017-03-26T14:19:46Z</time>
      </trkpt>
      <trkpt lat="45.16923" lon="4.88654">
        <ele>109.86</ele>
        <time>2017-03-26T14:19:47Z</time>
      </trkpt>
      <trkpt lat="45.16916" lon="4.88685">
        <ele>110.16</ele>
        <time>2017-03-26T14:19:48Z</time>
      </trkpt>
      <trkpt lat="45.1691" lon="4.88716">
        <ele>110.3</ele>
        <time>2017-03-26T14:19:49Z</time>
      </trkpt>
      <trkpt lat="45.16903" lon="4.88746">
        <ele>110.48</ele>
        <time>2017-03-26T14:19:50Z</time>
      </trkpt>
      <trkpt lat="45.16897" lon="4.88775">
        <ele>110.76</ele>
        <time>2017-03-26T14:19:51Z</time>
      </trkpt>
      <trkpt lat="45.16891" lon="4.88804">
        <ele>111.06</ele>
        <time>2017-03-26T14:19:52Z</time>
      </trkpt>
      <trkpt lat="45.16886" lon="4.88832">
        <ele>111.36</ele>
        <time>2017-03-26T14:19:53Z</time>
      </trkpt>
      <trkpt lat="45.16881" lon="4.8886">
        <ele>111.74</ele>
        <time>2017-03-26T14:19:54Z</time>
      </trkpt>
      <trkpt lat="45.16878" lon="4.88887">
        <ele>112.45</ele>
        <time>2017-03-26T14:19:55Z</time>
      </trkpt>
      <trkpt lat="45.16874" lon="4.88913">
        <ele>112.91</ele>
        <time>2017-03-26T14:19:56Z</time>
      </trkpt>
      <trkpt lat="45.1687" lon="4.88937">
        <ele>113.25</ele>
        <time>2017-03-26T14:19:57Z</time>
      </trkpt>
      <trkpt lat="45.16866" lon="4.8896">
        <ele>113.55</ele>
        <time>2017-03-26T14:19:58Z</time>
      </trkpt>
      <trkpt lat="45.16862" lon="4.88982">
        <ele>113.85</ele>
        <time>2017-03-26T14:19:59Z</time>
      </trkpt>
      <trkpt lat="45.16858" lon="4.89002">
        <ele>114.31</ele>
        <time>2017-03-26T14:20:00Z</time>
      </trkpt>
      <trkpt lat="45.16854" lon="4.8902">
        <ele>115.05</ele>
        <time>2017-03-26T14:20:01Z</time>
      </trkpt>
      <trkpt lat="45.16849" lon="4.89037">
        <ele>115.51</ele>
        <time>2017-03-26T14:20:02Z</time>
      </trkpt>
      <trkpt lat="45.16844" lon="4.89052">
        <ele>116.09</ele>
        <time>2017-03-26T14:20:03Z</time>
      </trkpt>
      <trkpt lat="45.16839" lon="4.89067">
        <ele>116.52</ele>
        <time>2017-03-26T14:20:04Z</time>
      </trkpt>
      <trkpt lat="45.16833" lon="4.89084">
        <ele>116.93</ele>
        <time>2017-03-26T14:20:05Z</time>
      </trkpt>
      <trkpt lat="45.16827" lon="4.89102">
        <ele>117.25</ele>
        <time>2017-03-26T14:20:06Z</time>
      </trkpt>
      <trkpt lat="45.1682" lon="4.8912">
        <ele>117.55</ele>
        <time>2017-03-26T14:20:07Z</time>
      </trkpt>
      <trkpt lat="45.16812" lon="4.89137">
        <ele>117.93</ele>
        <time>2017-03-26T14:20:08Z</time>
      </trkpt>
      <trkpt lat="45.16801" lon="4.89154">
        <ele>118.17</ele>
        <time>2017-03-26T14:20:09Z</time>
      </trkpt>
      <trkpt lat="45.16776" lon="4.89173">
        <ele>118.3</ele>
        <time>2017-03-26T14:20:10Z</time>
      </trkpt>
      <trkpt lat="45.16758" lon="4.89187">
        <ele>118.48</ele>
        <time>2017-03-26T14:20:11Z</time>
      </trkpt>
      <trkpt lat="45.16736" lon="4.892">
        <ele>118.68</ele>
        <time>2017-03-26T14:20:12Z</time>
      </trkpt>
      <trkpt lat="45.16713" lon="4.89204">
        <ele>118.48</ele>
        <time>2017-03-26T14:20:13Z</time>
      </trkpt>
      <trkpt lat="45.1669" lon="4.89208">
        <ele>118.6</ele>
        <time>2017-03-26T14:20:14Z</time>
      </trkpt>
      <trkpt lat="45.16666" lon="4.89211">
        <ele>119.18</ele>
        <time>2017-03-26T14:20:15Z</time>
      </trkpt>
      <trkpt lat="45.16643" lon="4.89217">
        <ele>119.62</ele>
        <time>2017-03-26T14:20:16Z</time>
      </trkpt>
      <trkpt lat="45.16621" lon="4.89223">
        <ele>121.63</ele>
        <time>2017-03-26T14:20:17Z</time>
      </trkpt>
      <trkpt lat="45.16601" lon="4.89237">
        <ele>122.99</ele>
        <time>2017-03-26T14:20:18Z</time>
      </trkpt>
      <trkpt lat="45.16583" lon="4.89255">
        <ele>123.42</ele>
        <time>2017-03-26T14:20:19Z</time>
      </trkpt>
      <trkpt lat="45.16567" lon="4.89276">
        <ele>123.67</ele>
        <time>2017-03-26T14:20:20Z</time>
      </trkpt>
      <trkpt lat="45.16555" lon="4.89304">
        <ele>124.04</ele>
        <time>2017-03-26T14:20:21Z</time>
      </trkpt>
      <trkpt lat="45.16543" lon="4.89333">
        <ele>124.03</ele>
        <time>2017-03-26T14:20:22Z</time>
      </trkpt>
      <trkpt lat="45.16532" lon="4.89363">
        <ele>124.11</ele>
        <time>2017-03-26T14:20:23Z</time>
      </trkpt>
      <trkpt lat="45.16522" lon="4.89396">
        <ele>124.21</ele>
        <time>2017-03-26T14:20:24Z</time>
      </trkpt>
      <trkpt lat="45.16514" lon="4.89428">
        <ele>124.63</ele>
        <time>2017-03-26T14:20:25Z</time>
      </trkpt>
      <trkpt lat="45.16508" lon="4.89461">
        <ele>125.27</ele>
        <time>2017-03-26T14:20:26Z</time>
      </trkpt>
      <trkpt lat="45.16502" lon="4.89494">
        <ele>126.04</ele>
        <time>2017-03-26T14:20:27Z</time>
      </trkpt>
      <trkpt lat="45.16496" lon="4.89527">
        <ele>126.67</ele>
        <time>2017-03-26T14:20:28Z</time>
      </trkpt>
      <trkpt lat="45.16489" lon="4.8956">
        <ele>127.28</ele>
        <time>2017-03-26T14:20:29Z</time>
      </trkpt>
      <trkpt lat="45.16484" lon="4.89591">
        <ele>128.2</ele>
        <time>2017-03-26T14:20:30Z</time>
      </trkpt>
      <trkpt lat="45.16477" lon="4.89623">
        <ele>128.86</ele>
        <time>2017-03-26T14:20:31Z</time>
      </trkpt>
      <trkpt lat="45.16471" lon="4.89654">
        <ele>129.48</ele>
        <time>2017-03-26T14:20:32Z</time>
      </trkpt>
      <trkpt lat="45.16465" lon="4.89686">
        <ele>129.84</ele>
        <time>2017-03-26T14:20:33Z</time>
      </trkpt>
      <trkpt lat="45.16459" lon="4.89718">
        <ele>130.47</ele>
        <time>2017-03-26T14:20:34Z</time>
      </trkpt>
      <trkpt lat="45.16453" lon="4.89749">
        <ele>131</ele>
        <time>2017-03-26T14:20:35Z</time>
      </trkpt>
      <trkpt lat="45.16445" lon="4.89781">
        <ele>131.66</ele>
        <time>2017-03-26T14:20:36Z</time>
      </trkpt>
      <trkpt lat="45.16437" lon="4.89813">
        <ele>132.44</ele>
        <time>2017-03-26T14:20:37Z</time>
      </trkpt>
      <trkpt lat="45.16428" lon="4.89844">
        <ele>133.07</ele>
        <time>2017-03-26T14:20:38Z</time>
      </trkpt>
      <trkpt lat="45.16418" lon="4.89874">
        <ele>133.68</ele>
        <time>2017-03-26T14:20:39Z</time>
      </trkpt>
      <trkpt lat="45.16407" lon="4.89903">
        <ele>134.52</ele>
        <time>2017-03-26T14:20:40Z</time>
      </trkpt>
      <trkpt lat="45.16396" lon="4.89931">
        <ele>135.65</ele>
        <time>2017-03-26T14:20:41Z</time>
      </trkpt>
      <trkpt lat="45.16384" lon="4.89959">
        <ele>136.59</ele>
        <time>2017-03-26T14:20:42Z</time>
      </trkpt>
      <trkpt lat="45.16372" lon="4.89988">
        <ele>137.26</ele>
        <time>2017-03-26T14:20:43Z</time>
      </trkpt>
      <trkpt lat="45.16359" lon="4.90018">
        <ele>137.88</ele>
        <time>2017-03-26T14:20:44Z</time>
      </trkpt>
      <trkpt lat="45.16346" lon="4.90047">
        <ele>138.56</ele>
        <time>2017-03-26T14:20:45Z</time>
      </trkpt>
      <trkpt lat="45.1633" lon="4.90074">
        <ele>139.9</ele>
        <time>2017-03-26T14:20:46Z</time>
      </trkpt>
      <trkpt lat="45.16314" lon="4.90099">
        <ele>141.36</ele>
        <time>2017-03-26T14:20:47Z</time>
      </trkpt>
      <trkpt lat="45.16298" lon="4.90124">
        <ele>142.94</ele>
        <time>2017-03-26T14:20:48Z</time>
      </trkpt>
      <trkpt lat="45.16282" lon="4.90148">
        <ele>144.13</ele>
        <time>2017-03-26T14:20:49Z</time>
      </trkpt>
      <trkpt lat="45.16267" lon="4.90173">
        <ele>145.33</ele>
        <time>2017-03-26T14:20:50Z</time>
      </trkpt>
      <trkpt lat="45.16251" lon="4.90197">
        <ele>146.29</ele>
        <time>2017-03-26T14:20:51Z</time>
      </trkpt>
      <trkpt lat="45.16236" lon="4.90222">
        <ele>147.68</ele>
        <time>2017-03-26T14:20:52Z</time>
      </trkpt>
      <trkpt lat="45.16221" lon="4.90247">
        <ele>148.6</ele>
        <time>2017-03-26T14:20:53Z</time>
      </trkpt>
      <trkpt lat="45.16206" lon="4.90273">
        <ele>149.58</ele>
        <time>2017-03-26T14:20:54Z</time>
      </trkpt>
      <trkpt lat="45.16192" lon="4.903">
        <ele>150.42</ele>
        <time>2017-03-26T14:20:55Z</time>
      </trkpt>
      <trkpt lat="45.16179" lon="4.90327">
        <ele>151.47</ele>
        <time>2017-03-26T14:20:56Z</time>
      </trkpt>
      <trkpt lat="45.16166" lon="4.90355">
        <ele>152.32</ele>
        <time>2017-03-26T14:20:57Z</time>
      </trkpt>
      <trkpt lat="45.16153" lon="4.90383">
        <ele>153.45</ele>
        <time>2017-03-26T14:20:58Z</time>
      </trkpt>
      <trkpt lat="45.1614" lon="4.90411">
        <ele>154.71</ele>
        <time>2017-03-26T14:20:59Z</time>
      </trkpt>
      <trkpt lat="45.16127" lon="4.90438">
        <ele>155.93</ele>
        <time>2017-03-26T14:21:00Z</time>
      </trkpt>
      <trkpt lat="45.16114" lon="4.90464">
        <ele>156.81</ele>
        <time>2017-03-26T14:21:01Z</time>
      </trkpt>
      <trkpt lat="45.16102" lon="4.90491">
        <ele>158.51</ele>
        <time>2017-03-26T14:21:02Z</time>
      </trkpt>
      <trkpt lat="45.1609" lon="4.90518">
        <ele>160.05</ele>
        <time>2017-03-26T14:21:03Z</time>
      </trkpt>
      <trkpt lat="45.16079" lon="4.90546">
        <ele>161.15</ele>
        <time>2017-03-26T14:21:04Z</time>
      </trkpt>
      <trkpt lat="45.16069" lon="4.90575">
        <ele>162.09</ele>
        <time>2017-03-26T14:21:05Z</time>
      </trkpt>
      <trkpt lat="45.16061" lon="4.90605">
        <ele>162.92</ele>
        <time>2017-03-26T14:21:06Z</time>
      </trkpt>
      <trkpt lat="45.16052" lon="4.90634">
        <ele>163.25</ele>
        <time>2017-03-26T14:21:07Z</time>
      </trkpt>
      <trkpt lat="45.16043" lon="4.90662">
        <ele>163.47</ele>
        <time>2017-03-26T14:21:08Z</time>
      </trkpt>
      <trkpt lat="45.16033" lon="4.9069">
        <ele>163.52</ele>
        <time>2017-03-26T14:21:09Z</time>
      </trkpt>
      <trkpt lat="45.16023" lon="4.90718">
        <ele>164.09</ele>
        <time>2017-03-26T14:21:10Z</time>
      </trkpt>
      <trkpt lat="45.16013" lon="4.90747">
        <ele>164.76</ele>
        <time>2017-03-26T14:21:11Z</time>
      </trkpt>
      <trkpt lat="45.16002" lon="4.90776">
        <ele>165.54</ele>
        <time>2017-03-26T14:21:12Z</time>
      </trkpt>
      <trkpt lat="45.15991" lon="4.90806">
        <ele>166.33</ele>
        <time>2017-03-26T14:21:13Z</time>
      </trkpt>
      <trkpt lat="45.15981" lon="4.90834">
        <ele>167.45</ele>
        <time>2017-03-26T14:21:14Z</time>
      </trkpt>
      <trkpt lat="45.15971" lon="4.90863">
        <ele>168.71</ele>
        <time>2017-03-26T14:21:15Z</time>
      </trkpt>
      <trkpt lat="45.1596" lon="4.9089">
        <ele>169.85</ele>
        <time>2017-03-26T14:21:16Z</time>
      </trkpt>
      <trkpt lat="45.15949" lon="4.90916">
        <ele>170.87</ele>
        <time>2017-03-26T14:21:17Z</time>
      </trkpt>
      <trkpt lat="45.15936" lon="4.9094">
        <ele>171.56</ele>
        <time>2017-03-26T14:21:18Z</time>
      </trkpt>
      <trkpt lat="45.15922" lon="4.90963">
        <ele>172.02</ele>
        <time>2017-03-26T14:21:19Z</time>
      </trkpt>
      <trkpt lat="45.15907" lon="4.90984">
        <ele>172.43</ele>
        <time>2017-03-26T14:21:20Z</time>
      </trkpt>
      <trkpt lat="45.15889" lon="4.91004">
        <ele>172.91</ele>
        <time>2017-03-26T14:21:21Z</time>
      </trkpt>
      <trkpt lat="45.1587" lon="4.91022">
        <ele>173.09</ele>
        <time>2017-03-26T14:21:22Z</time>
      </trkpt>
      <trkpt lat="45.15849" lon="4.91038">
        <ele>173.6</ele>
        <time>2017-03-26T14:21:23Z</time>
      </trkpt>
      <trkpt lat="45.15828" lon="4.91052">
        <ele>174.18</ele>
        <time>2017-03-26T14:21:24Z</time>
      </trkpt>
      <trkpt lat="45.15806" lon="4.91065">
        <ele>174.7</ele>
        <time>2017-03-26T14:21:25Z</time>
      </trkpt>
      <trkpt lat="45.15784" lon="4.9108">
        <ele>175.36</ele>
        <time>2017-03-26T14:21:26Z</time>
      </trkpt>
      <trkpt lat="45.15761" lon="4.91094">
        <ele>176.14</ele>
        <time>2017-03-26T14:21:27Z</time>
      </trkpt>
      <trkpt lat="45.15739" lon="4.91109">
        <ele>176.85</ele>
        <time>2017-03-26T14:21:28Z</time>
      </trkpt>
      <trkpt lat="45.15717" lon="4.91124">
        <ele>177.87</ele>
        <time>2017-03-26T14:21:29Z</time>
      </trkpt>
      <trkpt lat="45.15695" lon="4.91139">
        <ele>178.88</ele>
        <time>2017-03-26T14:21:30Z</time>
      </trkpt>
      <trkpt lat="45.15673" lon="4.91154">
        <ele>180.28</ele>
        <time>2017-03-26T14:21:31Z</time>
      </trkpt>
      <trkpt lat="45.15651" lon="4.91169">
        <ele>181.2</ele>
        <time>2017-03-26T14:21:32Z</time>
      </trkpt>
      <trkpt lat="45.15631" lon="4.91184">
        <ele>182.18</ele>
        <time>2017-03-26T14:21:33Z</time>
      </trkpt>
      <trkpt lat="45.15611" lon="4.91199">
        <ele>182.94</ele>
        <time>2017-03-26T14:21:34Z</time>
      </trkpt>
      <trkpt lat="45.15593" lon="4.91214">
        <ele>183.73</ele>
        <time>2017-03-26T14:21:35Z</time>
      </trkpt>
      <trkpt lat="45.15576" lon="4.9123">
        <ele>184.53</ele>
        <time>2017-03-26T14:21:36Z</time>
      </trkpt>
      <trkpt lat="45.1556" lon="4.91245">
        <ele>185.33</ele>
        <time>2017-03-26T14:21:37Z</time>
      </trkpt>
      <trkpt lat="45.15546" lon="4.9126">
        <ele>186.05</ele>
        <time>2017-03-26T14:21:38Z</time>
      </trkpt>
      <trkpt lat="45.15532" lon="4.91275">
        <ele>186.59</ele>
        <time>2017-03-26T14:21:39Z</time>
      </trkpt>
      <trkpt lat="45.15519" lon="4.91289">
        <ele>187.1</ele>
        <time>2017-03-26T14:21:40Z</time>
      </trkpt>
      <trkpt lat="45.15506" lon="4.91304">
        <ele>187.52</ele>
        <time>2017-03-26T14:21:41Z</time>
      </trkpt>
      <trkpt lat="45.15493" lon="4.91319">
        <ele>187.93</ele>
        <time>2017-03-26T14:21:42Z</time>
      </trkpt>
      <trkpt lat="45.15481" lon="4.91334">
        <ele>188.33</ele>
        <time>2017-03-26T14:21:43Z</time>
      </trkpt>
      <trkpt lat="45.15469" lon="4.91348">
        <ele>188.57</ele>
        <time>2017-03-26T14:21:44Z</time>
      </trkpt>
      <trkpt lat="45.1546" lon="4.91361">
        <ele>188.7</ele>
        <time>2017-03-26T14:21:45Z</time>
      </trkpt>
      <trkpt lat="45.15451" lon="4.91373">
        <ele>188.64</ele>
        <time>2017-03-26T14:21:46Z</time>
      </trkpt>
      <trkpt lat="45.15443" lon="4.91384">
        <ele>188.79</ele>
        <time>2017-03-26T14:21:47Z</time>
      </trkpt>
      <trkpt lat="45.15435" lon="4.91394">
        <ele>189.06</ele>
        <time>2017-03-26T14:21:48Z</time>
      </trkpt>
      <trkpt lat="45.15429" lon="4.914">
        <ele>188.8</ele>
        <time>2017-03-26T14:21:49Z</time>
      </trkpt>
      <trkpt lat="45.15426" lon="4.914">
        <ele>188.5</ele>
        <time>2017-03-26T14:21:50Z</time>
      </trkpt>
      <trkpt lat="45.15425" lon="4.914">
        <ele>188.52</ele>
        <time>2017-03-26T14:21:51Z</time>
      </trkpt>
      <trkpt lat="45.15424" lon="4.914">
        <ele>188.77</ele>
        <time>2017-03-26T14:21:52Z</time>
      </trkpt>
      <trkpt lat="45.15425" lon="4.91399">
        <ele>188.82</ele>
        <time>2017-03-26T14:21:53Z</time>
      </trkpt>
      <trkpt lat="45.15425" lon="4.91399">
        <ele>188.99</ele>
        <time>2017-03-26T14:21:54Z</time>
      </trkpt>
      <trkpt lat="45.15426" lon="4.91398">
        <ele>188.94</ele>
        <time>2017-03-26T14:21:55Z</time>
      </trkpt>
      <trkpt lat="45.15426" lon="4.91398">
        <ele>188.93</ele>
        <time>2017-03-26T14:21:56Z</time>
      </trkpt>
      <trkpt lat="45.15426" lon="4.91398">
        <ele>188.93</ele>
        <time>2017-03-26T14:21:57Z</time>
      </trkpt>
      <trkpt lat="45.15426" lon="4.91398">
        <ele>188.93</ele>
        <time>2017-03-26T14:21:58Z</time>
      </trkpt>
      <trkpt lat="45.15426" lon="4.91398">
        <ele>188.93</ele>
        <time>2017-03-26T14:21:59Z</time>
      </trkpt>
      <trkpt lat="45.15426" lon="4.91398">
        <ele>188.93</ele>
        <time>2017-03-26T14:22:00Z</time>
      </trkpt>
      <trkpt lat="45.15426" lon="4.91398">
        <ele>188.93</ele>
        <time>2017-03-26T14:22:01Z</time>
      </trkpt>
      <trkpt lat="45.15426" lon="4.91398">
        <ele>188.93</ele>
        <time>2017-03-26T14:22:02Z</time>
      </trkpt>
      <trkpt lat="45.15426" lon="4.91398">
        <ele>188.93</ele>
        <time>2017-03-26T14:22:03Z</time>
      </trkpt>
      <trkpt lat="45.15426" lon="4.91398">
        <ele>188.93</ele>
        <time>2017-03-26T14:22:04Z</time>
      </trkpt>
      <trkpt lat="45.15426" lon="4.91398">
        <ele>188.93</ele>
        <time>2017-03-26T14:22:05Z</time>
      </trkpt>
      <trkpt lat="45.15426" lon="4.91398">
        <ele>188.93</ele>
        <time>2017-03-26T14:22:06Z</time>
      </trkpt>
      <trkpt lat="45.15426" lon="4.91398">
        <ele>188.93</ele>
        <time>2017-03-26T14:22:07Z</time>
      </trkpt>
      <trkpt lat="45.15426" lon="4.91398">
        <ele>188.93</ele>
        <time>2017-03-26T14:22:08Z</time>
      </trkpt>
      <trkpt lat="45.15426" lon="4.91398">
        <ele>188.93</ele>
        <time>2017-03-26T14:22:09Z</time>
      </trkpt>
      <trkpt lat="45.15426" lon="4.91398">
        <ele>188.93</ele>
        <time>2017-03-26T14:22:10Z</time>
      </trkpt>
      <trkpt lat="45.15426" lon="4.91398">
        <ele>188.93</ele>
        <time>2017-03-26T14:22:11Z</time>
      </trkpt>
      <trkpt lat="45.15426" lon="4.91398">
        <ele>188.93</ele>
        <time>2017-03-26T14:22:12Z</time>
      </trkpt>
      <trkpt lat="45.15427" lon="4.91397">
        <ele>188.69</ele>
        <time>2017-03-26T14:22:13Z</time>
      </trkpt>
      <trkpt lat="45.15424" lon="4.91397">
        <ele>188.64</ele>
        <time>2017-03-26T14:22:14Z</time>
      </trkpt>
      <trkpt lat="45.15421" lon="4.91397">
        <ele>188.63</ele>
        <time>2017-03-26T14:22:15Z</time>
      </trkpt>
      <trkpt lat="45.15416" lon="4.91398">
        <ele>188.63</ele>
        <time>2017-03-26T14:22:16Z</time>
      </trkpt>
      <trkpt lat="45.15412" lon="4.91401">
        <ele>188.71</ele>
        <time>2017-03-26T14:22:17Z</time>
      </trkpt>
      <trkpt lat="45.15408" lon="4.91406">
        <ele>188.73</ele>
        <time>2017-03-26T14:22:18Z</time>
      </trkpt>
      <trkpt lat="45.15405" lon="4.91414">
        <ele>188.73</ele>
        <time>2017-03-26T14:22:19Z</time>
      </trkpt>
      <trkpt lat="45.15404" lon="4.91422">
        <ele>188.73</ele>
        <time>2017-03-26T14:22:20Z</time>
      </trkpt>
      <trkpt lat="45.15402" lon="4.91432">
        <ele>188.73</ele>
        <time>2017-03-26T14:22:21Z</time>
      </trkpt>
      <trkpt lat="45.15399" lon="4.91443">
        <ele>188.81</ele>
        <time>2017-03-26T14:22:22Z</time>
      </trkpt>
      <trkpt lat="45.15395" lon="4.91455">
        <ele>188.83</ele>
        <time>2017-03-26T14:22:23Z</time>
      </trkpt>
      <trkpt lat="45.15388" lon="4.91469">
        <ele>188.75</ele>
        <time>2017-03-26T14:22:24Z</time>
      </trkpt>
      <trkpt lat="45.1538" lon="4.91483">
        <ele>188.73</ele>
        <time>2017-03-26T14:22:25Z</time>
      </trkpt>
      <trkpt lat="45.15371" lon="4.91497">
        <ele>188.73</ele>
        <time>2017-03-26T14:22:26Z</time>
      </trkpt>
      <trkpt lat="45.15361" lon="4.91513">
        <ele>188.65</ele>
        <time>2017-03-26T14:22:27Z</time>
      </trkpt>
      <trkpt lat="45.1535" lon="4.91529">
        <ele>188.63</ele>
        <time>2017-03-26T14:22:28Z</time>
      </trkpt>
      <trkpt lat="45.15338" lon="4.91546">
        <ele>188.55</ele>
        <time>2017-03-26T14:22:29Z</time>
      </trkpt>
      <trkpt lat="45.15326" lon="4.91564">
        <ele>188.45</ele>
        <time>2017-03-26T14:22:30Z</time>
      </trkpt>
      <trkpt lat="45.15312" lon="4.91583">
        <ele>188.27</ele>
        <time>2017-03-26T14:22:31Z</time>
      </trkpt>
      <trkpt lat="45.15298" lon="4.91603">
        <ele>188.16</ele>
        <time>2017-03-26T14:22:32Z</time>
      </trkpt>
      <trkpt lat="45.15284" lon="4.91622">
        <ele>188.06</ele>
        <time>2017-03-26T14:22:33Z</time>
      </trkpt>
      <trkpt lat="45.15271" lon="4.91642">
        <ele>187.88</ele>
        <time>2017-03-26T14:22:34Z</time>
      </trkpt>
      <trkpt lat="45.15257" lon="4.91663">
        <ele>187.68</ele>
        <time>2017-03-26T14:22:35Z</time>
      </trkpt>
      <trkpt lat="45.15242" lon="4.91684">
        <ele>187.56</ele>
        <time>2017-03-26T14:22:36Z</time>
      </trkpt>
      <trkpt lat="45.15227" lon="4.91706">
        <ele>187.3</ele>
        <time>2017-03-26T14:22:37Z</time>
      </trkpt>
      <trkpt lat="45.15212" lon="4.91727">
        <ele>187</ele>
        <time>2017-03-26T14:22:38Z</time>
      </trkpt>
      <trkpt lat="45.15197" lon="4.91748">
        <ele>186.7</ele>
        <time>2017-03-26T14:22:39Z</time>
      </trkpt>
      <trkpt lat="45.15183" lon="4.91769">
        <ele>186.48</ele>
        <time>2017-03-26T14:22:40Z</time>
      </trkpt>
      <trkpt lat="45.15168" lon="4.91791">
        <ele>186.12</ele>
        <time>2017-03-26T14:22:41Z</time>
      </trkpt>
      <trkpt lat="45.15155" lon="4.91812">
        <ele>185.89</ele>
        <time>2017-03-26T14:22:42Z</time>
      </trkpt>
      <trkpt lat="45.15143" lon="4.91831">
        <ele>185.68</ele>
        <time>2017-03-26T14:22:43Z</time>
      </trkpt>
      <trkpt lat="45.15132" lon="4.9185">
        <ele>185.4</ele>
        <time>2017-03-26T14:22:44Z</time>
      </trkpt>
      <trkpt lat="45.15121" lon="4.91868">
        <ele>185.18</ele>
        <time>2017-03-26T14:22:45Z</time>
      </trkpt>
      <trkpt lat="45.15111" lon="4.91886">
        <ele>184.9</ele>
        <time>2017-03-26T14:22:46Z</time>
      </trkpt>
      <trkpt lat="45.15101" lon="4.91904">
        <ele>184.68</ele>
        <time>2017-03-26T14:22:47Z</time>
      </trkpt>
      <trkpt lat="45.15091" lon="4.91922">
        <ele>184.32</ele>
        <time>2017-03-26T14:22:48Z</time>
      </trkpt>
      <trkpt lat="45.15081" lon="4.91941">
        <ele>184.09</ele>
        <time>2017-03-26T14:22:49Z</time>
      </trkpt>
      <trkpt lat="45.15072" lon="4.9196">
        <ele>183.72</ele>
        <time>2017-03-26T14:22:50Z</time>
      </trkpt>
      <trkpt lat="45.15062" lon="4.9198">
        <ele>183.41</ele>
        <time>2017-03-26T14:22:51Z</time>
      </trkpt>
      <trkpt lat="45.15053" lon="4.92001">
        <ele>183.11</ele>
        <time>2017-03-26T14:22:52Z</time>
      </trkpt>
      <trkpt lat="45.15044" lon="4.92022">
        <ele>182.65</ele>
        <time>2017-03-26T14:22:53Z</time>
      </trkpt>
      <trkpt lat="45.15034" lon="4.92043">
        <ele>182.15</ele>
        <time>2017-03-26T14:22:54Z</time>
      </trkpt>
      <trkpt lat="45.15024" lon="4.92065">
        <ele>181.73</ele>
        <time>2017-03-26T14:22:55Z</time>
      </trkpt>
      <trkpt lat="45.15015" lon="4.92088">
        <ele>181.33</ele>
        <time>2017-03-26T14:22:56Z</time>
      </trkpt>
      <trkpt lat="45.15005" lon="4.92111">
        <ele>181.01</ele>
        <time>2017-03-26T14:22:57Z</time>
      </trkpt>
      <trkpt lat="45.14994" lon="4.92135">
        <ele>180.71</ele>
        <time>2017-03-26T14:22:58Z</time>
      </trkpt>
      <trkpt lat="45.14984" lon="4.92159">
        <ele>180.41</ele>
        <time>2017-03-26T14:22:59Z</time>
      </trkpt>
      <trkpt lat="45.14974" lon="4.92183">
        <ele>180.19</ele>
        <time>2017-03-26T14:23:00Z</time>
      </trkpt>
      <trkpt lat="45.14963" lon="4.92207">
        <ele>179.98</ele>
        <time>2017-03-26T14:23:01Z</time>
      </trkpt>
      <trkpt lat="45.14952" lon="4.92231">
        <ele>179.7</ele>
        <time>2017-03-26T14:23:02Z</time>
      </trkpt>
      <trkpt lat="45.14941" lon="4.92255">
        <ele>179.48</ele>
        <time>2017-03-26T14:23:03Z</time>
      </trkpt>
      <trkpt lat="45.14931" lon="4.9228">
        <ele>179.28</ele>
        <time>2017-03-26T14:23:04Z</time>
      </trkpt>
      <trkpt lat="45.1492" lon="4.92304">
        <ele>179.08</ele>
        <time>2017-03-26T14:23:05Z</time>
      </trkpt>
      <trkpt lat="45.14909" lon="4.92328">
        <ele>179.04</ele>
        <time>2017-03-26T14:23:06Z</time>
      </trkpt>
      <trkpt lat="45.14898" lon="4.92352">
        <ele>178.95</ele>
        <time>2017-03-26T14:23:07Z</time>
      </trkpt>
      <trkpt lat="45.14888" lon="4.92376">
        <ele>178.85</ele>
        <time>2017-03-26T14:23:08Z</time>
      </trkpt>
      <trkpt lat="45.14877" lon="4.92399">
        <ele>178.99</ele>
        <time>2017-03-26T14:23:09Z</time>
      </trkpt>
      <trkpt lat="45.14867" lon="4.92423">
        <ele>179.02</ele>
        <time>2017-03-26T14:23:10Z</time>
      </trkpt>
      <trkpt lat="45.14856" lon="4.92447">
        <ele>178.95</ele>
        <time>2017-03-26T14:23:11Z</time>
      </trkpt>
      <trkpt lat="45.14845" lon="4.92471">
        <ele>178.77</ele>
        <time>2017-03-26T14:23:12Z</time>
      </trkpt>
      <trkpt lat="45.14835" lon="4.92495">
        <ele>178.66</ele>
        <time>2017-03-26T14:23:13Z</time>
      </trkpt>
      <trkpt lat="45.14824" lon="4.9252">
        <ele>178.56</ele>
        <time>2017-03-26T14:23:14Z</time>
      </trkpt>
      <trkpt lat="45.14814" lon="4.92545">
        <ele>178.46</ele>
        <time>2017-03-26T14:23:15Z</time>
      </trkpt>
      <trkpt lat="45.14804" lon="4.9257">
        <ele>178.36</ele>
        <time>2017-03-26T14:23:16Z</time>
      </trkpt>
      <trkpt lat="45.14794" lon="4.92597">
        <ele>178.26</ele>
        <time>2017-03-26T14:23:17Z</time>
      </trkpt>
      <trkpt lat="45.14784" lon="4.92624">
        <ele>178.15</ele>
        <time>2017-03-26T14:23:18Z</time>
      </trkpt>
      <trkpt lat="45.14775" lon="4.92651">
        <ele>178.05</ele>
        <time>2017-03-26T14:23:19Z</time>
      </trkpt>
      <trkpt lat="45.14764" lon="4.92678">
        <ele>177.96</ele>
        <time>2017-03-26T14:23:20Z</time>
      </trkpt>
      <trkpt lat="45.14754" lon="4.92705">
        <ele>177.77</ele>
        <time>2017-03-26T14:23:21Z</time>
      </trkpt>
      <trkpt lat="45.14744" lon="4.92732">
        <ele>177.66</ele>
        <time>2017-03-26T14:23:22Z</time>
      </trkpt>
      <trkpt lat="45.14734" lon="4.9276">
        <ele>177.48</ele>
        <time>2017-03-26T14:23:23Z</time>
      </trkpt>
      <trkpt lat="45.14724" lon="4.92788">
        <ele>177.36</ele>
        <time>2017-03-26T14:23:24Z</time>
      </trkpt>
      <trkpt lat="45.14713" lon="4.92816">
        <ele>177.42</ele>
        <time>2017-03-26T14:23:25Z</time>
      </trkpt>
      <trkpt lat="45.14702" lon="4.92844">
        <ele>177.35</ele>
        <time>2017-03-26T14:23:26Z</time>
      </trkpt>
      <trkpt lat="45.14692" lon="4.92872">
        <ele>177.25</ele>
        <time>2017-03-26T14:23:27Z</time>
      </trkpt>
      <trkpt lat="45.1468" lon="4.92901">
        <ele>177.15</ele>
        <time>2017-03-26T14:23:28Z</time>
      </trkpt>
      <trkpt lat="45.14667" lon="4.9293">
        <ele>177.05</ele>
        <time>2017-03-26T14:23:29Z</time>
      </trkpt>
      <trkpt lat="45.14653" lon="4.92959">
        <ele>177.03</ele>
        <time>2017-03-26T14:23:30Z</time>
      </trkpt>
      <trkpt lat="45.14637" lon="4.92988">
        <ele>177.11</ele>
        <time>2017-03-26T14:23:31Z</time>
      </trkpt>
      <trkpt lat="45.14618" lon="4.93016">
        <ele>177.13</ele>
        <time>2017-03-26T14:23:32Z</time>
      </trkpt>
      <trkpt lat="45.14598" lon="4.93044">
        <ele>177.21</ele>
        <time>2017-03-26T14:23:33Z</time>
      </trkpt>
      <trkpt lat="45.14579" lon="4.93072">
        <ele>177.23</ele>
        <time>2017-03-26T14:23:34Z</time>
      </trkpt>
      <trkpt lat="45.14561" lon="4.931">
        <ele>177.15</ele>
        <time>2017-03-26T14:23:35Z</time>
      </trkpt>
      <trkpt lat="45.14543" lon="4.93126">
        <ele>177.29</ele>
        <time>2017-03-26T14:23:36Z</time>
      </trkpt>
      <trkpt lat="45.14525" lon="4.93153">
        <ele>177.4</ele>
        <time>2017-03-26T14:23:37Z</time>
      </trkpt>
      <trkpt lat="45.14508" lon="4.93179">
        <ele>177.58</ele>
        <time>2017-03-26T14:23:38Z</time>
      </trkpt>
      <trkpt lat="45.1449" lon="4.93206">
        <ele>177.94</ele>
        <time>2017-03-26T14:23:39Z</time>
      </trkpt>
      <trkpt lat="45.14472" lon="4.93232">
        <ele>178.17</ele>
        <time>2017-03-26T14:23:40Z</time>
      </trkpt>
      <trkpt lat="45.14455" lon="4.93258">
        <ele>178.7</ele>
        <time>2017-03-26T14:23:41Z</time>
      </trkpt>
      <trkpt lat="45.14437" lon="4.93284">
        <ele>179.12</ele>
        <time>2017-03-26T14:23:42Z</time>
      </trkpt>
      <trkpt lat="45.1442" lon="4.93309">
        <ele>179.53</ele>
        <time>2017-03-26T14:23:43Z</time>
      </trkpt>
      <trkpt lat="45.14403" lon="4.93335">
        <ele>180.25</ele>
        <time>2017-03-26T14:23:44Z</time>
      </trkpt>
      <trkpt lat="45.14386" lon="4.9336">
        <ele>180.95</ele>
        <time>2017-03-26T14:23:45Z</time>
      </trkpt>
      <trkpt lat="45.14369" lon="4.93385">
        <ele>181.49</ele>
        <time>2017-03-26T14:23:46Z</time>
      </trkpt>
      <trkpt lat="45.14352" lon="4.93411">
        <ele>182.16</ele>
        <time>2017-03-26T14:23:47Z</time>
      </trkpt>
      <trkpt lat="45.14336" lon="4.93437">
        <ele>182.7</ele>
        <time>2017-03-26T14:23:48Z</time>
      </trkpt>
      <trkpt lat="45.1432" lon="4.93463">
        <ele>183.12</ele>
        <time>2017-03-26T14:23:49Z</time>
      </trkpt>
      <trkpt lat="45.14304" lon="4.93489">
        <ele>183.69</ele>
        <time>2017-03-26T14:23:50Z</time>
      </trkpt>
      <trkpt lat="45.14288" lon="4.93516">
        <ele>184.36</ele>
        <time>2017-03-26T14:23:51Z</time>
      </trkpt>
      <trkpt lat="45.14273" lon="4.93542">
        <ele>185.14</ele>
        <time>2017-03-26T14:23:52Z</time>
      </trkpt>
      <trkpt lat="45.14258" lon="4.93569">
        <ele>186.01</ele>
        <time>2017-03-26T14:23:53Z</time>
      </trkpt>
      <trkpt lat="45.14244" lon="4.93595">
        <ele>186.99</ele>
        <time>2017-03-26T14:23:54Z</time>
      </trkpt>
      <trkpt lat="45.14229" lon="4.93621">
        <ele>187.82</ele>
        <time>2017-03-26T14:23:55Z</time>
      </trkpt>
      <trkpt lat="45.14215" lon="4.93647">
        <ele>188.87</ele>
        <time>2017-03-26T14:23:56Z</time>
      </trkpt>
      <trkpt lat="45.142" lon="4.93673">
        <ele>190.28</ele>
        <time>2017-03-26T14:23:57Z</time>
      </trkpt>
      <trkpt lat="45.14185" lon="4.93699">
        <ele>191.52</ele>
        <time>2017-03-26T14:23:58Z</time>
      </trkpt>
      <trkpt lat="45.14171" lon="4.93725">
        <ele>192.81</ele>
        <time>2017-03-26T14:23:59Z</time>
      </trkpt>
      <trkpt lat="45.14157" lon="4.93751">
        <ele>194.19</ele>
        <time>2017-03-26T14:24:00Z</time>
      </trkpt>
      <trkpt lat="45.14144" lon="4.93777">
        <ele>195.5</ele>
        <time>2017-03-26T14:24:01Z</time>
      </trkpt>
      <trkpt lat="45.14132" lon="4.93804">
        <ele>196.72</ele>
        <time>2017-03-26T14:24:02Z</time>
      </trkpt>
      <trkpt lat="45.1412" lon="4.93831">
        <ele>197.85</ele>
        <time>2017-03-26T14:24:03Z</time>
      </trkpt>
      <trkpt lat="45.14108" lon="4.93859">
        <ele>199.03</ele>
        <time>2017-03-26T14:24:04Z</time>
      </trkpt>
      <trkpt lat="45.14096" lon="4.93888">
        <ele>200.15</ele>
        <time>2017-03-26T14:24:05Z</time>
      </trkpt>
      <trkpt lat="45.14085" lon="4.93917">
        <ele>201.25</ele>
        <time>2017-03-26T14:24:06Z</time>
      </trkpt>
      <trkpt lat="45.14073" lon="4.93946">
        <ele>202.35</ele>
        <time>2017-03-26T14:24:07Z</time>
      </trkpt>
      <trkpt lat="45.1406" lon="4.93975">
        <ele>203.45</ele>
        <time>2017-03-26T14:24:08Z</time>
      </trkpt>
      <trkpt lat="45.14048" lon="4.94005">
        <ele>204.47</ele>
        <time>2017-03-26T14:24:09Z</time>
      </trkpt>
      <trkpt lat="45.14036" lon="4.94034">
        <ele>205.56</ele>
        <time>2017-03-26T14:24:10Z</time>
      </trkpt>
      <trkpt lat="45.14024" lon="4.94064">
        <ele>206.74</ele>
        <time>2017-03-26T14:24:11Z</time>
      </trkpt>
      <trkpt lat="45.14012" lon="4.94093">
        <ele>207.85</ele>
        <time>2017-03-26T14:24:12Z</time>
      </trkpt>
      <trkpt lat="45.14" lon="4.94122">
        <ele>209.11</ele>
        <time>2017-03-26T14:24:13Z</time>
      </trkpt>
      <trkpt lat="45.13988" lon="4.94151">
        <ele>210.25</ele>
        <time>2017-03-26T14:24:14Z</time>
      </trkpt>
      <trkpt lat="45.13976" lon="4.94179">
        <ele>211.19</ele>
        <time>2017-03-26T14:24:15Z</time>
      </trkpt>
      <trkpt lat="45.13963" lon="4.94206">
        <ele>212.18</ele>
        <time>2017-03-26T14:24:16Z</time>
      </trkpt>
      <trkpt lat="45.13948" lon="4.94231">
        <ele>213.18</ele>
        <time>2017-03-26T14:24:17Z</time>
      </trkpt>
      <trkpt lat="45.13933" lon="4.94253">
        <ele>214.26</ele>
        <time>2017-03-26T14:24:18Z</time>
      </trkpt>
      <trkpt lat="45.13918" lon="4.94275">
        <ele>215.2</ele>
        <time>2017-03-26T14:24:19Z</time>
      </trkpt>
      <trkpt lat="45.13902" lon="4.94295">
        <ele>216.18</ele>
        <time>2017-03-26T14:24:20Z</time>
      </trkpt>
      <trkpt lat="45.13886" lon="4.94313">
        <ele>216.94</ele>
        <time>2017-03-26T14:24:21Z</time>
      </trkpt>
      <trkpt lat="45.1387" lon="4.94332">
        <ele>217.89</ele>
        <time>2017-03-26T14:24:22Z</time>
      </trkpt>
      <trkpt lat="45.13856" lon="4.9435">
        <ele>219.04</ele>
        <time>2017-03-26T14:24:23Z</time>
      </trkpt>
      <trkpt lat="45.13842" lon="4.9437">
        <ele>219.91</ele>
        <time>2017-03-26T14:24:24Z</time>
      </trkpt>
      <trkpt lat="45.1383" lon="4.94391">
        <ele>221.05</ele>
        <time>2017-03-26T14:24:25Z</time>
      </trkpt>
      <trkpt lat="45.13819" lon="4.94414">
        <ele>222.07</ele>
        <time>2017-03-26T14:24:26Z</time>
      </trkpt>
      <trkpt lat="45.13809" lon="4.94438">
        <ele>222.79</ele>
        <time>2017-03-26T14:24:27Z</time>
      </trkpt>
      <trkpt lat="45.13799" lon="4.94464">
        <ele>223.49</ele>
        <time>2017-03-26T14:24:28Z</time>
      </trkpt>
      <trkpt lat="45.13789" lon="4.94491">
        <ele>224.11</ele>
        <time>2017-03-26T14:24:29Z</time>
      </trkpt>
      <trkpt lat="45.13779" lon="4.94517">
        <ele>224.72</ele>
        <time>2017-03-26T14:24:30Z</time>
      </trkpt>
      <trkpt lat="45.13769" lon="4.94543">
        <ele>225.48</ele>
        <time>2017-03-26T14:24:31Z</time>
      </trkpt>
      <trkpt lat="45.13761" lon="4.94567">
        <ele>225.87</ele>
        <time>2017-03-26T14:24:32Z</time>
      </trkpt>
      <trkpt lat="45.13752" lon="4.94589">
        <ele>226.59</ele>
        <time>2017-03-26T14:24:33Z</time>
      </trkpt>
      <trkpt lat="45.13744" lon="4.94607">
        <ele>227.21</ele>
        <time>2017-03-26T14:24:34Z</time>
      </trkpt>
      <trkpt lat="45.13734" lon="4.94625">
        <ele>227.74</ele>
        <time>2017-03-26T14:24:35Z</time>
      </trkpt>
      <trkpt lat="45.13724" lon="4.94642">
        <ele>228.32</ele>
        <time>2017-03-26T14:24:36Z</time>
      </trkpt>
      <trkpt lat="45.13714" lon="4.94658">
        <ele>228.92</ele>
        <time>2017-03-26T14:24:37Z</time>
      </trkpt>
      <trkpt lat="45.13703" lon="4.94675">
        <ele>229.36</ele>
        <time>2017-03-26T14:24:38Z</time>
      </trkpt>
      <trkpt lat="45.13692" lon="4.94691">
        <ele>229.85</ele>
        <time>2017-03-26T14:24:39Z</time>
      </trkpt>
      <trkpt lat="45.1368" lon="4.94706">
        <ele>230.1</ele>
        <time>2017-03-26T14:24:40Z</time>
      </trkpt>
      <trkpt lat="45.13668" lon="4.94722">
        <ele>230.48</ele>
        <time>2017-03-26T14:24:41Z</time>
      </trkpt>
      <trkpt lat="45.13656" lon="4.94736">
        <ele>230.95</ele>
        <time>2017-03-26T14:24:42Z</time>
      </trkpt>
      <trkpt lat="45.13643" lon="4.9475">
        <ele>231.12</ele>
        <time>2017-03-26T14:24:43Z</time>
      </trkpt>
      <trkpt lat="45.1363" lon="4.94763">
        <ele>231.4</ele>
        <time>2017-03-26T14:24:44Z</time>
      </trkpt>
      <trkpt lat="45.13618" lon="4.94774">
        <ele>231.69</ele>
        <time>2017-03-26T14:24:45Z</time>
      </trkpt>
      <trkpt lat="45.13606" lon="4.94785">
        <ele>231.99</ele>
        <time>2017-03-26T14:24:46Z</time>
      </trkpt>
      <trkpt lat="45.13595" lon="4.94794">
        <ele>232.45</ele>
        <time>2017-03-26T14:24:47Z</time>
      </trkpt>
      <trkpt lat="45.13584" lon="4.94802">
        <ele>232.71</ele>
        <time>2017-03-26T14:24:48Z</time>
      </trkpt>
      <trkpt lat="45.13573" lon="4.94807">
        <ele>233.16</ele>
        <time>2017-03-26T14:24:49Z</time>
      </trkpt>
      <trkpt lat="45.13563" lon="4.94811">
        <ele>233.49</ele>
        <time>2017-03-26T14:24:50Z</time>
      </trkpt>
      <trkpt lat="45.13553" lon="4.94815">
        <ele>233.71</ele>
        <time>2017-03-26T14:24:51Z</time>
      </trkpt>
      <trkpt lat="45.13543" lon="4.94819">
        <ele>234</ele>
        <time>2017-03-26T14:24:52Z</time>
      </trkpt>
      <trkpt lat="45.1353" lon="4.94824">
        <ele>233.89</ele>
        <time>2017-03-26T14:24:53Z</time>
      </trkpt>
      <trkpt lat="45.1352" lon="4.94828">
        <ele>234.19</ele>
        <time>2017-03-26T14:24:54Z</time>
      </trkpt>
      <trkpt lat="45.13509" lon="4.9483">
        <ele>234.73</ele>
        <time>2017-03-26T14:24:55Z</time>
      </trkpt>
      <trkpt lat="45.13498" lon="4.9483">
        <ele>234.92</ele>
        <time>2017-03-26T14:24:56Z</time>
      </trkpt>
      <trkpt lat="45.13486" lon="4.9483">
        <ele>234.96</ele>
        <time>2017-03-26T14:24:57Z</time>
      </trkpt>
      <trkpt lat="45.13473" lon="4.94829">
        <ele>235.05</ele>
        <time>2017-03-26T14:24:58Z</time>
      </trkpt>
      <trkpt lat="45.13459" lon="4.94828">
        <ele>235.22</ele>
        <time>2017-03-26T14:24:59Z</time>
      </trkpt>
      <trkpt lat="45.13446" lon="4.94827">
        <ele>235.26</ele>
        <time>2017-03-26T14:25:00Z</time>
      </trkpt>
      <trkpt lat="45.13433" lon="4.94827">
        <ele>235.35</ele>
        <time>2017-03-26T14:25:01Z</time>
      </trkpt>
      <trkpt lat="45.1342" lon="4.94826">
        <ele>235.2</ele>
        <time>2017-03-26T14:25:02Z</time>
      </trkpt>
      <trkpt lat="45.13408" lon="4.94827">
        <ele>234.86</ele>
        <time>2017-03-26T14:25:03Z</time>
      </trkpt>
      <trkpt lat="45.13397" lon="4.94828">
        <ele>234.55</ele>
        <time>2017-03-26T14:25:04Z</time>
      </trkpt>
      <trkpt lat="45.13387" lon="4.94831">
        <ele>233.84</ele>
        <time>2017-03-26T14:25:05Z</time>
      </trkpt>
      <trkpt lat="45.13377" lon="4.94833">
        <ele>232.98</ele>
        <time>2017-03-26T14:25:06Z</time>
      </trkpt>
      <trkpt lat="45.13367" lon="4.94837">
        <ele>232.41</ele>
        <time>2017-03-26T14:25:07Z</time>
      </trkpt>
      <trkpt lat="45.13357" lon="4.94842">
        <ele>231.58</ele>
        <time>2017-03-26T14:25:08Z</time>
      </trkpt>
      <trkpt lat="45.13346" lon="4.94848">
        <ele>231.01</ele>
        <time>2017-03-26T14:25:09Z</time>
      </trkpt>
      <trkpt lat="45.13336" lon="4.94855">
        <ele>230.1</ele>
        <time>2017-03-26T14:25:10Z</time>
      </trkpt>
      <trkpt lat="45.13325" lon="4.94863">
        <ele>228.79</ele>
        <time>2017-03-26T14:25:11Z</time>
      </trkpt>
      <trkpt lat="45.13315" lon="4.94874">
        <ele>228.13</ele>
        <time>2017-03-26T14:25:12Z</time>
      </trkpt>
      <trkpt lat="45.13305" lon="4.9489">
        <ele>227.76</ele>
        <time>2017-03-26T14:25:13Z</time>
      </trkpt>
      <trkpt lat="45.13296" lon="4.94905">
        <ele>227.29</ele>
        <time>2017-03-26T14:25:14Z</time>
      </trkpt>
      <trkpt lat="45.13289" lon="4.94929">
        <ele>226.79</ele>
        <time>2017-03-26T14:25:15Z</time>
      </trkpt>
      <trkpt lat="45.13285" lon="4.94956">
        <ele>226.29</ele>
        <time>2017-03-26T14:25:16Z</time>
      </trkpt>
      <trkpt lat="45.1328" lon="4.94981">
        <ele>225.95</ele>
        <time>2017-03-26T14:25:17Z</time>
      </trkpt>
      <trkpt lat="45.13271" lon="4.95006">
        <ele>225.56</ele>
        <time>2017-03-26T14:25:18Z</time>
      </trkpt>
      <trkpt lat="45.1326" lon="4.95028">
        <ele>225.17</ele>
        <time>2017-03-26T14:25:19Z</time>
      </trkpt>
      <trkpt lat="45.13247" lon="4.95049">
        <ele>224.69</ele>
        <time>2017-03-26T14:25:20Z</time>
      </trkpt>
      <trkpt lat="45.13235" lon="4.9507">
        <ele>224.27</ele>
        <time>2017-03-26T14:25:21Z</time>
      </trkpt>
      <trkpt lat="45.13221" lon="4.95089">
        <ele>223.79</ele>
        <time>2017-03-26T14:25:22Z</time>
      </trkpt>
      <trkpt lat="45.13207" lon="4.95106">
        <ele>223.37</ele>
        <time>2017-03-26T14:25:23Z</time>
      </trkpt>
      <trkpt lat="45.1319" lon="4.95121">
        <ele>222.97</ele>
        <time>2017-03-26T14:25:24Z</time>
      </trkpt>
      <trkpt lat="45.13176" lon="4.95137">
        <ele>222.57</ele>
        <time>2017-03-26T14:25:25Z</time>
      </trkpt>
      <trkpt lat="45.13162" lon="4.95155">
        <ele>222.17</ele>
        <time>2017-03-26T14:25:26Z</time>
      </trkpt>
      <trkpt lat="45.13149" lon="4.95174">
        <ele>221.93</ele>
        <time>2017-03-26T14:25:27Z</time>
      </trkpt>
      <trkpt lat="45.13139" lon="4.95198">
        <ele>221.48</ele>
        <time>2017-03-26T14:25:28Z</time>
      </trkpt>
      <trkpt lat="45.13129" lon="4.9522">
        <ele>221.07</ele>
        <time>2017-03-26T14:25:29Z</time>
      </trkpt>
      <trkpt lat="45.13121" lon="4.95243">
        <ele>220.59</ele>
        <time>2017-03-26T14:25:30Z</time>
      </trkpt>
      <trkpt lat="45.13115" lon="4.95268">
        <ele>220.17</ele>
        <time>2017-03-26T14:25:31Z</time>
      </trkpt>
      <trkpt lat="45.13109" lon="4.95293">
        <ele>219.77</ele>
        <time>2017-03-26T14:25:32Z</time>
      </trkpt>
      <trkpt lat="45.13105" lon="4.95317">
        <ele>219.85</ele>
        <time>2017-03-26T14:25:33Z</time>
      </trkpt>
      <trkpt lat="45.131" lon="4.95345">
        <ele>219.78</ele>
        <time>2017-03-26T14:25:34Z</time>
      </trkpt>
      <trkpt lat="45.13095" lon="4.95375">
        <ele>219.53</ele>
        <time>2017-03-26T14:25:35Z</time>
      </trkpt>
      <trkpt lat="45.13086" lon="4.954">
        <ele>219.24</ele>
        <time>2017-03-26T14:25:36Z</time>
      </trkpt>
      <trkpt lat="45.13073" lon="4.95416">
        <ele>218.94</ele>
        <time>2017-03-26T14:25:37Z</time>
      </trkpt>
      <trkpt lat="45.13061" lon="4.95431">
        <ele>218.56</ele>
        <time>2017-03-26T14:25:38Z</time>
      </trkpt>
      <trkpt lat="45.13048" lon="4.95447">
        <ele>218.25</ele>
        <time>2017-03-26T14:25:39Z</time>
      </trkpt>
      <trkpt lat="45.13033" lon="4.95461">
        <ele>217.86</ele>
        <time>2017-03-26T14:25:40Z</time>
      </trkpt>
      <trkpt lat="45.13016" lon="4.95472">
        <ele>217.23</ele>
        <time>2017-03-26T14:25:41Z</time>
      </trkpt>
      <trkpt lat="45.12994" lon="4.95478">
        <ele>216.86</ele>
        <time>2017-03-26T14:25:42Z</time>
      </trkpt>
      <trkpt lat="45.12971" lon="4.95487">
        <ele>216.47</ele>
        <time>2017-03-26T14:25:43Z</time>
      </trkpt>
      <trkpt lat="45.12946" lon="4.95494">
        <ele>215.83</ele>
        <time>2017-03-26T14:25:44Z</time>
      </trkpt>
      <trkpt lat="45.12924" lon="4.95502">
        <ele>215.3</ele>
        <time>2017-03-26T14:25:45Z</time>
      </trkpt>
      <trkpt lat="45.12903" lon="4.9551">
        <ele>214.87</ele>
        <time>2017-03-26T14:25:46Z</time>
      </trkpt>
      <trkpt lat="45.12881" lon="4.95519">
        <ele>214.31</ele>
        <time>2017-03-26T14:25:47Z</time>
      </trkpt>
      <trkpt lat="45.12862" lon="4.95527">
        <ele>213.88</ele>
        <time>2017-03-26T14:25:48Z</time>
      </trkpt>
      <trkpt lat="45.12844" lon="4.95536">
        <ele>213.47</ele>
        <time>2017-03-26T14:25:49Z</time>
      </trkpt>
      <trkpt lat="45.12827" lon="4.95547">
        <ele>213.15</ele>
        <time>2017-03-26T14:25:50Z</time>
      </trkpt>
      <trkpt lat="45.1281" lon="4.9556">
        <ele>212.76</ele>
        <time>2017-03-26T14:25:51Z</time>
      </trkpt>
      <trkpt lat="45.12794" lon="4.95576">
        <ele>212.37</ele>
        <time>2017-03-26T14:25:52Z</time>
      </trkpt>
      <trkpt lat="45.12777" lon="4.95593">
        <ele>211.97</ele>
        <time>2017-03-26T14:25:53Z</time>
      </trkpt>
      <trkpt lat="45.12761" lon="4.95612">
        <ele>211.49</ele>
        <time>2017-03-26T14:25:54Z</time>
      </trkpt>
      <trkpt lat="45.12744" lon="4.95631">
        <ele>211.07</ele>
        <time>2017-03-26T14:25:55Z</time>
      </trkpt>
      <trkpt lat="45.12729" lon="4.95652">
        <ele>210.27</ele>
        <time>2017-03-26T14:25:56Z</time>
      </trkpt>
      <trkpt lat="45.12712" lon="4.95671">
        <ele>209.55</ele>
        <time>2017-03-26T14:25:57Z</time>
      </trkpt>
      <trkpt lat="45.12695" lon="4.95688">
        <ele>209</ele>
        <time>2017-03-26T14:25:58Z</time>
      </trkpt>
      <trkpt lat="45.12678" lon="4.95704">
        <ele>208.42</ele>
        <time>2017-03-26T14:25:59Z</time>
      </trkpt>
      <trkpt lat="45.1266" lon="4.95715">
        <ele>207.82</ele>
        <time>2017-03-26T14:26:00Z</time>
      </trkpt>
      <trkpt lat="45.12643" lon="4.95722">
        <ele>207.14</ele>
        <time>2017-03-26T14:26:01Z</time>
      </trkpt>
      <trkpt lat="45.12626" lon="4.95732">
        <ele>206.6</ele>
        <time>2017-03-26T14:26:02Z</time>
      </trkpt>
      <trkpt lat="45.12611" lon="4.95742">
        <ele>205.85</ele>
        <time>2017-03-26T14:26:03Z</time>
      </trkpt>
      <trkpt lat="45.12598" lon="4.95759">
        <ele>205.39</ele>
        <time>2017-03-26T14:26:04Z</time>
      </trkpt>
      <trkpt lat="45.12585" lon="4.95778">
        <ele>204.65</ele>
        <time>2017-03-26T14:26:05Z</time>
      </trkpt>
      <trkpt lat="45.12574" lon="4.95801">
        <ele>203.78</ele>
        <time>2017-03-26T14:26:06Z</time>
      </trkpt>
      <trkpt lat="45.12562" lon="4.95825">
        <ele>202.89</ele>
        <time>2017-03-26T14:26:07Z</time>
      </trkpt>
      <trkpt lat="45.12551" lon="4.95851">
        <ele>201.91</ele>
        <time>2017-03-26T14:26:08Z</time>
      </trkpt>
      <trkpt lat="45.1254" lon="4.95878">
        <ele>200.92</ele>
        <time>2017-03-26T14:26:09Z</time>
      </trkpt>
      <trkpt lat="45.12528" lon="4.95906">
        <ele>200</ele>
        <time>2017-03-26T14:26:10Z</time>
      </trkpt>
      <trkpt lat="45.12516" lon="4.95933">
        <ele>199.09</ele>
        <time>2017-03-26T14:26:11Z</time>
      </trkpt>
      <trkpt lat="45.12504" lon="4.95962">
        <ele>198.19</ele>
        <time>2017-03-26T14:26:12Z</time>
      </trkpt>
      <trkpt lat="45.12492" lon="4.9599">
        <ele>197.37</ele>
        <time>2017-03-26T14:26:13Z</time>
      </trkpt>
      <trkpt lat="45.12479" lon="4.96019">
        <ele>196.41</ele>
        <time>2017-03-26T14:26:14Z</time>
      </trkpt>
      <trkpt lat="45.12466" lon="4.96048">
        <ele>195.34</ele>
        <time>2017-03-26T14:26:15Z</time>
      </trkpt>
      <trkpt lat="45.12454" lon="4.96077">
        <ele>194.08</ele>
        <time>2017-03-26T14:26:16Z</time>
      </trkpt>
      <trkpt lat="45.12441" lon="4.96106">
        <ele>192.87</ele>
        <time>2017-03-26T14:26:17Z</time>
      </trkpt>
      <trkpt lat="45.12429" lon="4.96135">
        <ele>191.67</ele>
        <time>2017-03-26T14:26:18Z</time>
      </trkpt>
      <trkpt lat="45.12416" lon="4.96163">
        <ele>190.23</ele>
        <time>2017-03-26T14:26:19Z</time>
      </trkpt>
      <trkpt lat="45.12404" lon="4.96191">
        <ele>188.74</ele>
        <time>2017-03-26T14:26:20Z</time>
      </trkpt>
      <trkpt lat="45.12392" lon="4.96216">
        <ele>187</ele>
        <time>2017-03-26T14:26:21Z</time>
      </trkpt>
      <trkpt lat="45.12378" lon="4.9624">
        <ele>185.29</ele>
        <time>2017-03-26T14:26:22Z</time>
      </trkpt>
      <trkpt lat="45.12363" lon="4.96263">
        <ele>183.99</ele>
        <time>2017-03-26T14:26:23Z</time>
      </trkpt>
      <trkpt lat="45.12348" lon="4.96284">
        <ele>182.77</ele>
        <time>2017-03-26T14:26:24Z</time>
      </trkpt>
      <trkpt lat="45.12331" lon="4.96301">
        <ele>181.57</ele>
        <time>2017-03-26T14:26:25Z</time>
      </trkpt>
      <trkpt lat="45.12313" lon="4.96316">
        <ele>180.29</ele>
        <time>2017-03-26T14:26:26Z</time>
      </trkpt>
      <trkpt lat="45.12293" lon="4.9633">
        <ele>178.75</ele>
        <time>2017-03-26T14:26:27Z</time>
      </trkpt>
      <trkpt lat="45.12272" lon="4.96342">
        <ele>177.24</ele>
        <time>2017-03-26T14:26:28Z</time>
      </trkpt>
      <trkpt lat="45.12251" lon="4.96355">
        <ele>175.66</ele>
        <time>2017-03-26T14:26:29Z</time>
      </trkpt>
      <trkpt lat="45.1223" lon="4.96367">
        <ele>174.23</ele>
        <time>2017-03-26T14:26:30Z</time>
      </trkpt>
      <trkpt lat="45.12209" lon="4.96378">
        <ele>172.74</ele>
        <time>2017-03-26T14:26:31Z</time>
      </trkpt>
      <trkpt lat="45.12188" lon="4.96388">
        <ele>171.08</ele>
        <time>2017-03-26T14:26:32Z</time>
      </trkpt>
      <trkpt lat="45.12167" lon="4.96398">
        <ele>169.63</ele>
        <time>2017-03-26T14:26:33Z</time>
      </trkpt>
      <trkpt lat="45.12146" lon="4.96407">
        <ele>168.14</ele>
        <time>2017-03-26T14:26:34Z</time>
      </trkpt>
      <trkpt lat="45.12125" lon="4.96414">
        <ele>166.64</ele>
        <time>2017-03-26T14:26:35Z</time>
      </trkpt>
      <trkpt lat="45.12105" lon="4.96421">
        <ele>164.82</ele>
        <time>2017-03-26T14:26:36Z</time>
      </trkpt>
      <trkpt lat="45.12085" lon="4.96429">
        <ele>163.5</ele>
        <time>2017-03-26T14:26:37Z</time>
      </trkpt>
      <trkpt lat="45.12066" lon="4.96439">
        <ele>162.27</ele>
        <time>2017-03-26T14:26:38Z</time>
      </trkpt>
      <trkpt lat="45.12048" lon="4.96453">
        <ele>160.59</ele>
        <time>2017-03-26T14:26:39Z</time>
      </trkpt>
      <trkpt lat="45.12033" lon="4.96471">
        <ele>159.05</ele>
        <time>2017-03-26T14:26:40Z</time>
      </trkpt>
      <trkpt lat="45.12016" lon="4.96485">
        <ele>157.54</ele>
        <time>2017-03-26T14:26:41Z</time>
      </trkpt>
      <trkpt lat="45.11999" lon="4.96499">
        <ele>155.96</ele>
        <time>2017-03-26T14:26:42Z</time>
      </trkpt>
      <trkpt lat="45.1198" lon="4.96509">
        <ele>154.45</ele>
        <time>2017-03-26T14:26:43Z</time>
      </trkpt>
      <trkpt lat="45.11961" lon="4.96518">
        <ele>152.94</ele>
        <time>2017-03-26T14:26:44Z</time>
      </trkpt>
      <trkpt lat="45.11941" lon="4.96524">
        <ele>151.76</ele>
        <time>2017-03-26T14:26:45Z</time>
      </trkpt>
      <trkpt lat="45.11922" lon="4.96531">
        <ele>150.25</ele>
        <time>2017-03-26T14:26:46Z</time>
      </trkpt>
      <trkpt lat="45.11904" lon="4.96541">
        <ele>148.9</ele>
        <time>2017-03-26T14:26:47Z</time>
      </trkpt>
      <trkpt lat="45.11888" lon="4.96552">
        <ele>147.68</ele>
        <time>2017-03-26T14:26:48Z</time>
      </trkpt>
      <trkpt lat="45.11873" lon="4.96564">
        <ele>146.47</ele>
        <time>2017-03-26T14:26:49Z</time>
      </trkpt>
      <trkpt lat="45.1186" lon="4.96579">
        <ele>144.95</ele>
        <time>2017-03-26T14:26:50Z</time>
      </trkpt>
      <trkpt lat="45.11853" lon="4.96599">
        <ele>144</ele>
        <time>2017-03-26T14:26:51Z</time>
      </trkpt>
      <trkpt lat="45.11852" lon="4.96626">
        <ele>143.26</ele>
        <time>2017-03-26T14:26:52Z</time>
      </trkpt>
      <trkpt lat="45.1185" lon="4.96653">
        <ele>142.55</ele>
        <time>2017-03-26T14:26:53Z</time>
      </trkpt>
      <trkpt lat="45.11844" lon="4.96678">
        <ele>141.84</ele>
        <time>2017-03-26T14:26:54Z</time>
      </trkpt>
      <trkpt lat="45.11837" lon="4.96704">
        <ele>141.46</ele>
        <time>2017-03-26T14:26:55Z</time>
      </trkpt>
      <trkpt lat="45.11829" lon="4.96728">
        <ele>141.15</ele>
        <time>2017-03-26T14:26:56Z</time>
      </trkpt>
      <trkpt lat="45.1182" lon="4.9675">
        <ele>140.6</ele>
        <time>2017-03-26T14:26:57Z</time>
      </trkpt>
      <trkpt lat="45.11811" lon="4.96769">
        <ele>140.26</ele>
        <time>2017-03-26T14:26:58Z</time>
      </trkpt>
      <trkpt lat="45.118" lon="4.96785">
        <ele>139.79</ele>
        <time>2017-03-26T14:26:59Z</time>
      </trkpt>
      <trkpt lat="45.11791" lon="4.96799">
        <ele>139.61</ele>
        <time>2017-03-26T14:27:00Z</time>
      </trkpt>
      <trkpt lat="45.11782" lon="4.96811">
        <ele>139.58</ele>
        <time>2017-03-26T14:27:01Z</time>
      </trkpt>
      <trkpt lat="45.11774" lon="4.96821">
        <ele>139.33</ele>
        <time>2017-03-26T14:27:02Z</time>
      </trkpt>
      <trkpt lat="45.11768" lon="4.96828">
        <ele>139.04</ele>
        <time>2017-03-26T14:27:03Z</time>
      </trkpt>
      <trkpt lat="45.11762" lon="4.96833">
        <ele>138.82</ele>
        <time>2017-03-26T14:27:04Z</time>
      </trkpt>
      <trkpt lat="45.11756" lon="4.96837">
        <ele>138.78</ele>
        <time>2017-03-26T14:27:05Z</time>
      </trkpt>
      <trkpt lat="45.11749" lon="4.96837">
        <ele>139.01</ele>
        <time>2017-03-26T14:27:06Z</time>
      </trkpt>
      <trkpt lat="45.11742" lon="4.96838">
        <ele>138.98</ele>
        <time>2017-03-26T14:27:07Z</time>
      </trkpt>
      <trkpt lat="45.11736" lon="4.96839">
        <ele>138.97</ele>
        <time>2017-03-26T14:27:08Z</time>
      </trkpt>
      <trkpt lat="45.11731" lon="4.96844">
        <ele>138.89</ele>
        <time>2017-03-26T14:27:09Z</time>
      </trkpt>
      <trkpt lat="45.11727" lon="4.9685">
        <ele>138.87</ele>
        <time>2017-03-26T14:27:10Z</time>
      </trkpt>
      <trkpt lat="45.11724" lon="4.96856">
        <ele>138.71</ele>
        <time>2017-03-26T14:27:11Z</time>
      </trkpt>
      <trkpt lat="45.11731" lon="4.96866">
        <ele>138.6</ele>
        <time>2017-03-26T14:27:12Z</time>
      </trkpt>
      <trkpt lat="45.11735" lon="4.96875">
        <ele>138.73</ele>
        <time>2017-03-26T14:27:13Z</time>
      </trkpt>
      <trkpt lat="45.11742" lon="4.96882">
        <ele>138.6</ele>
        <time>2017-03-26T14:27:14Z</time>
      </trkpt>
      <trkpt lat="45.11749" lon="4.9689">
        <ele>138.17</ele>
        <time>2017-03-26T14:27:15Z</time>
      </trkpt>
      <trkpt lat="45.11758" lon="4.969">
        <ele>138.01</ele>
        <time>2017-03-26T14:27:16Z</time>
      </trkpt>
      <trkpt lat="45.11767" lon="4.96911">
        <ele>137.82</ele>
        <time>2017-03-26T14:27:17Z</time>
      </trkpt>
      <trkpt lat="45.11776" lon="4.96923">
        <ele>137.78</ele>
        <time>2017-03-26T14:27:18Z</time>
      </trkpt>
      <trkpt lat="45.11784" lon="4.96935">
        <ele>137.61</ele>
        <time>2017-03-26T14:27:19Z</time>
      </trkpt>
      <trkpt lat="45.11792" lon="4.96947">
        <ele>137.5</ele>
        <time>2017-03-26T14:27:20Z</time>
      </trkpt>
      <trkpt lat="45.11801" lon="4.9696">
        <ele>137.23</ele>
        <time>2017-03-26T14:27:21Z</time>
      </trkpt>
      <trkpt lat="45.1181" lon="4.96972">
        <ele>137.02</ele>
        <time>2017-03-26T14:27:22Z</time>
      </trkpt>
      <trkpt lat="45.11819" lon="4.96985">
        <ele>136.98</ele>
        <time>2017-03-26T14:27:23Z</time>
      </trkpt>
      <trkpt lat="45.11828" lon="4.96997">
        <ele>136.89</ele>
        <time>2017-03-26T14:27:24Z</time>
      </trkpt>
      <trkpt lat="45.11837" lon="4.9701">
        <ele>136.95</ele>
        <time>2017-03-26T14:27:25Z</time>
      </trkpt>
      <trkpt lat="45.11845" lon="4.97022">
        <ele>136.96</ele>
        <time>2017-03-26T14:27:26Z</time>
      </trkpt>
      <trkpt lat="45.11854" lon="4.97034">
        <ele>136.89</ele>
        <time>2017-03-26T14:27:27Z</time>
      </trkpt>
      <trkpt lat="45.11861" lon="4.97045">
        <ele>137.03</ele>
        <time>2017-03-26T14:27:28Z</time>
      </trkpt>
      <trkpt lat="45.11869" lon="4.97055">
        <ele>136.98</ele>
        <time>2017-03-26T14:27:29Z</time>
      </trkpt>
      <trkpt lat="45.11875" lon="4.97066">
        <ele>136.97</ele>
        <time>2017-03-26T14:27:30Z</time>
      </trkpt>
      <trkpt lat="45.11879" lon="4.97077">
        <ele>136.73</ele>
        <time>2017-03-26T14:27:31Z</time>
      </trkpt>
      <trkpt lat="45.1188" lon="4.9709">
        <ele>136.28</ele>
        <time>2017-03-26T14:27:32Z</time>
      </trkpt>
      <trkpt lat="45.11881" lon="4.97103">
        <ele>136.19</ele>
        <time>2017-03-26T14:27:33Z</time>
      </trkpt>
      <trkpt lat="45.11882" lon="4.97117">
        <ele>136.25</ele>
        <time>2017-03-26T14:27:34Z</time>
      </trkpt>
      <trkpt lat="45.11881" lon="4.97131">
        <ele>136.34</ele>
        <time>2017-03-26T14:27:35Z</time>
      </trkpt>
      <trkpt lat="45.1188" lon="4.97147">
        <ele>136.52</ele>
        <time>2017-03-26T14:27:36Z</time>
      </trkpt>
      <trkpt lat="45.11881" lon="4.97164">
        <ele>136.72</ele>
        <time>2017-03-26T14:27:37Z</time>
      </trkpt>
      <trkpt lat="45.11882" lon="4.97181">
        <ele>136.76</ele>
        <time>2017-03-26T14:27:38Z</time>
      </trkpt>
      <trkpt lat="45.11885" lon="4.97199">
        <ele>136.77</ele>
        <time>2017-03-26T14:27:39Z</time>
      </trkpt>
      <trkpt lat="45.11888" lon="4.97217">
        <ele>136.77</ele>
        <time>2017-03-26T14:27:40Z</time>
      </trkpt>
      <trkpt lat="45.11891" lon="4.97236">
        <ele>136.85</ele>
        <time>2017-03-26T14:27:41Z</time>
      </trkpt>
      <trkpt lat="45.11894" lon="4.97255">
        <ele>137.02</ele>
        <time>2017-03-26T14:27:42Z</time>
      </trkpt>
      <trkpt lat="45.11898" lon="4.97274">
        <ele>137.14</ele>
        <time>2017-03-26T14:27:43Z</time>
      </trkpt>
      <trkpt lat="45.11901" lon="4.97294">
        <ele>137.24</ele>
        <time>2017-03-26T14:27:44Z</time>
      </trkpt>
      <trkpt lat="45.11904" lon="4.97314">
        <ele>137.26</ele>
        <time>2017-03-26T14:27:45Z</time>
      </trkpt>
      <trkpt lat="45.11907" lon="4.97334">
        <ele>137.27</ele>
        <time>2017-03-26T14:27:46Z</time>
      </trkpt>
      <trkpt lat="45.1191" lon="4.97353">
        <ele>137.59</ele>
        <time>2017-03-26T14:27:47Z</time>
      </trkpt>
      <trkpt lat="45.11914" lon="4.97372">
        <ele>137.97</ele>
        <time>2017-03-26T14:27:48Z</time>
      </trkpt>
      <trkpt lat="45.11916" lon="4.97389">
        <ele>138.21</ele>
        <time>2017-03-26T14:27:49Z</time>
      </trkpt>
      <trkpt lat="45.11919" lon="4.97408">
        <ele>138.1</ele>
        <time>2017-03-26T14:27:50Z</time>
      </trkpt>
      <trkpt lat="45.11922" lon="4.97425">
        <ele>138.23</ele>
        <time>2017-03-26T14:27:51Z</time>
      </trkpt>
      <trkpt lat="45.11925" lon="4.97443">
        <ele>138.42</ele>
        <time>2017-03-26T14:27:52Z</time>
      </trkpt>
      <trkpt lat="45.11928" lon="4.97461">
        <ele>138.94</ele>
        <time>2017-03-26T14:27:53Z</time>
      </trkpt>
      <trkpt lat="45.11931" lon="4.97479">
        <ele>139.52</ele>
        <time>2017-03-26T14:27:54Z</time>
      </trkpt>
      <trkpt lat="45.11934" lon="4.97497">
        <ele>140.12</ele>
        <time>2017-03-26T14:27:55Z</time>
      </trkpt>
      <trkpt lat="45.11937" lon="4.97514">
        <ele>140.48</ele>
        <time>2017-03-26T14:27:56Z</time>
      </trkpt>
      <trkpt lat="45.1194" lon="4.97532">
        <ele>140.39</ele>
        <time>2017-03-26T14:27:57Z</time>
      </trkpt>
      <trkpt lat="45.11943" lon="4.97549">
        <ele>140.69</ele>
        <time>2017-03-26T14:27:58Z</time>
      </trkpt>
      <trkpt lat="45.11946" lon="4.97565">
        <ele>140.91</ele>
        <time>2017-03-26T14:27:59Z</time>
      </trkpt>
      <trkpt lat="45.11949" lon="4.97581">
        <ele>141.04</ele>
        <time>2017-03-26T14:28:00Z</time>
      </trkpt>
      <trkpt lat="45.11951" lon="4.97598">
        <ele>141.22</ele>
        <time>2017-03-26T14:28:01Z</time>
      </trkpt>
      <trkpt lat="45.11955" lon="4.97614">
        <ele>141.58</ele>
        <time>2017-03-26T14:28:02Z</time>
      </trkpt>
      <trkpt lat="45.11958" lon="4.97631">
        <ele>141.97</ele>
        <time>2017-03-26T14:28:03Z</time>
      </trkpt>
      <trkpt lat="45.11962" lon="4.97647">
        <ele>142.21</ele>
        <time>2017-03-26T14:28:04Z</time>
      </trkpt>
      <trkpt lat="45.11965" lon="4.97665">
        <ele>142.18</ele>
        <time>2017-03-26T14:28:05Z</time>
      </trkpt>
      <trkpt lat="45.11969" lon="4.97682">
        <ele>142.01</ele>
        <time>2017-03-26T14:28:06Z</time>
      </trkpt>
      <trkpt lat="45.11972" lon="4.97699">
        <ele>141.98</ele>
        <time>2017-03-26T14:28:07Z</time>
      </trkpt>
      <trkpt lat="45.11976" lon="4.97717">
        <ele>142.05</ele>
        <time>2017-03-26T14:28:08Z</time>
      </trkpt>
      <trkpt lat="45.11979" lon="4.97734">
        <ele>142.14</ele>
        <time>2017-03-26T14:28:09Z</time>
      </trkpt>
      <trkpt lat="45.11982" lon="4.97752">
        <ele>142.08</ele>
        <time>2017-03-26T14:28:10Z</time>
      </trkpt>
      <trkpt lat="45.11986" lon="4.9777">
        <ele>141.99</ele>
        <time>2017-03-26T14:28:11Z</time>
      </trkpt>
      <trkpt lat="45.11989" lon="4.97787">
        <ele>142.05</ele>
        <time>2017-03-26T14:28:12Z</time>
      </trkpt>
      <trkpt lat="45.11993" lon="4.97805">
        <ele>142.14</ele>
        <time>2017-03-26T14:28:13Z</time>
      </trkpt>
      <trkpt lat="45.11996" lon="4.97824">
        <ele>142.16</ele>
        <time>2017-03-26T14:28:14Z</time>
      </trkpt>
      <trkpt lat="45.11999" lon="4.97842">
        <ele>142.41</ele>
        <time>2017-03-26T14:28:15Z</time>
      </trkpt>
      <trkpt lat="45.12003" lon="4.9786">
        <ele>142.78</ele>
        <time>2017-03-26T14:28:16Z</time>
      </trkpt>
      <trkpt lat="45.12006" lon="4.97878">
        <ele>142.93</ele>
        <time>2017-03-26T14:28:17Z</time>
      </trkpt>
      <trkpt lat="45.12009" lon="4.97895">
        <ele>142.96</ele>
        <time>2017-03-26T14:28:18Z</time>
      </trkpt>
      <trkpt lat="45.12012" lon="4.97912">
        <ele>142.89</ele>
        <time>2017-03-26T14:28:19Z</time>
      </trkpt>
      <trkpt lat="45.12015" lon="4.97929">
        <ele>143.03</ele>
        <time>2017-03-26T14:28:20Z</time>
      </trkpt>
      <trkpt lat="45.12018" lon="4.97946">
        <ele>143.38</ele>
        <time>2017-03-26T14:28:21Z</time>
      </trkpt>
      <trkpt lat="45.12022" lon="4.97962">
        <ele>143.77</ele>
        <time>2017-03-26T14:28:22Z</time>
      </trkpt>
      <trkpt lat="45.12025" lon="4.97978">
        <ele>144.41</ele>
        <time>2017-03-26T14:28:23Z</time>
      </trkpt>
      <trkpt lat="45.12029" lon="4.97995">
        <ele>144.78</ele>
        <time>2017-03-26T14:28:24Z</time>
      </trkpt>
      <trkpt lat="45.12034" lon="4.98012">
        <ele>144.85</ele>
        <time>2017-03-26T14:28:25Z</time>
      </trkpt>
      <trkpt lat="45.12038" lon="4.98028">
        <ele>144.78</ele>
        <time>2017-03-26T14:28:26Z</time>
      </trkpt>
      <trkpt lat="45.12043" lon="4.98045">
        <ele>144.69</ele>
        <time>2017-03-26T14:28:27Z</time>
      </trkpt>
      <trkpt lat="45.12048" lon="4.98063">
        <ele>144.75</ele>
        <time>2017-03-26T14:28:28Z</time>
      </trkpt>
      <trkpt lat="45.12052" lon="4.9808">
        <ele>144.92</ele>
        <time>2017-03-26T14:28:29Z</time>
      </trkpt>
      <trkpt lat="45.12056" lon="4.98097">
        <ele>145.2</ele>
        <time>2017-03-26T14:28:30Z</time>
      </trkpt>
      <trkpt lat="45.1206" lon="4.98115">
        <ele>145.33</ele>
        <time>2017-03-26T14:28:31Z</time>
      </trkpt>
      <trkpt lat="45.12064" lon="4.98132">
        <ele>145.28</ele>
        <time>2017-03-26T14:28:32Z</time>
      </trkpt>
      <trkpt lat="45.12068" lon="4.98149">
        <ele>145.43</ele>
        <time>2017-03-26T14:28:33Z</time>
      </trkpt>
      <trkpt lat="45.1207" lon="4.98167">
        <ele>145.3</ele>
        <time>2017-03-26T14:28:34Z</time>
      </trkpt>
      <trkpt lat="45.12072" lon="4.98185">
        <ele>145.11</ele>
        <time>2017-03-26T14:28:35Z</time>
      </trkpt>
      <trkpt lat="45.12073" lon="4.98203">
        <ele>145.16</ele>
        <time>2017-03-26T14:28:36Z</time>
      </trkpt>
      <trkpt lat="45.12074" lon="4.98221">
        <ele>145.25</ele>
        <time>2017-03-26T14:28:37Z</time>
      </trkpt>
      <trkpt lat="45.12074" lon="4.98239">
        <ele>145.26</ele>
        <time>2017-03-26T14:28:38Z</time>
      </trkpt>
      <trkpt lat="45.12073" lon="4.98258">
        <ele>145.51</ele>
        <time>2017-03-26T14:28:39Z</time>
      </trkpt>
      <trkpt lat="45.12072" lon="4.98276">
        <ele>145.8</ele>
        <time>2017-03-26T14:28:40Z</time>
      </trkpt>
      <trkpt lat="45.12071" lon="4.98294">
        <ele>146.25</ele>
        <time>2017-03-26T14:28:41Z</time>
      </trkpt>
      <trkpt lat="45.12069" lon="4.98312">
        <ele>146.43</ele>
        <time>2017-03-26T14:28:42Z</time>
      </trkpt>
      <trkpt lat="45.12066" lon="4.9833">
        <ele>146.3</ele>
        <time>2017-03-26T14:28:43Z</time>
      </trkpt>
      <trkpt lat="45.12063" lon="4.98347">
        <ele>146.27</ele>
        <time>2017-03-26T14:28:44Z</time>
      </trkpt>
      <trkpt lat="45.12059" lon="4.98363">
        <ele>146.51</ele>
        <time>2017-03-26T14:28:45Z</time>
      </trkpt>
      <trkpt lat="45.12055" lon="4.98378">
        <ele>146.4</ele>
        <time>2017-03-26T14:28:46Z</time>
      </trkpt>
      <trkpt lat="45.1205" lon="4.98392">
        <ele>146.45</ele>
        <time>2017-03-26T14:28:47Z</time>
      </trkpt>
      <trkpt lat="45.12046" lon="4.98405">
        <ele>146.39</ele>
        <time>2017-03-26T14:28:48Z</time>
      </trkpt>
      <trkpt lat="45.12041" lon="4.98417">
        <ele>146.45</ele>
        <time>2017-03-26T14:28:49Z</time>
      </trkpt>
      <trkpt lat="45.12037" lon="4.98429">
        <ele>146.54</ele>
        <time>2017-03-26T14:28:50Z</time>
      </trkpt>
      <trkpt lat="45.12033" lon="4.98442">
        <ele>146.56</ele>
        <time>2017-03-26T14:28:51Z</time>
      </trkpt>
      <trkpt lat="45.1203" lon="4.98456">
        <ele>146.65</ele>
        <time>2017-03-26T14:28:52Z</time>
      </trkpt>
      <trkpt lat="45.12027" lon="4.9847">
        <ele>146.74</ele>
        <time>2017-03-26T14:28:53Z</time>
      </trkpt>
      <trkpt lat="45.12023" lon="4.98486">
        <ele>146.84</ele>
        <time>2017-03-26T14:28:54Z</time>
      </trkpt>
      <trkpt lat="45.12021" lon="4.98503">
        <ele>146.7</ele>
        <time>2017-03-26T14:28:55Z</time>
      </trkpt>
      <trkpt lat="45.12019" lon="4.9852">
        <ele>146.68</ele>
        <time>2017-03-26T14:28:56Z</time>
      </trkpt>
      <trkpt lat="45.12018" lon="4.98538">
        <ele>146.83</ele>
        <time>2017-03-26T14:28:57Z</time>
      </trkpt>
      <trkpt lat="45.12017" lon="4.98556">
        <ele>146.94</ele>
        <time>2017-03-26T14:28:58Z</time>
      </trkpt>
      <trkpt lat="45.12017" lon="4.98574">
        <ele>146.96</ele>
        <time>2017-03-26T14:28:59Z</time>
      </trkpt>
      <trkpt lat="45.12016" lon="4.98593">
        <ele>147.21</ele>
        <time>2017-03-26T14:29:00Z</time>
      </trkpt>
      <trkpt lat="45.12017" lon="4.98613">
        <ele>147.5</ele>
        <time>2017-03-26T14:29:01Z</time>
      </trkpt>
      <trkpt lat="45.12018" lon="4.98632">
        <ele>147.79</ele>
        <time>2017-03-26T14:29:02Z</time>
      </trkpt>
      <trkpt lat="45.12019" lon="4.98652">
        <ele>147.93</ele>
        <time>2017-03-26T14:29:03Z</time>
      </trkpt>
      <trkpt lat="45.1202" lon="4.98672">
        <ele>148.12</ele>
        <time>2017-03-26T14:29:04Z</time>
      </trkpt>
      <trkpt lat="45.12022" lon="4.98692">
        <ele>148.24</ele>
        <time>2017-03-26T14:29:05Z</time>
      </trkpt>
      <trkpt lat="45.12025" lon="4.98712">
        <ele>148.42</ele>
        <time>2017-03-26T14:29:06Z</time>
      </trkpt>
      <trkpt lat="45.12029" lon="4.98732">
        <ele>148.46</ele>
        <time>2017-03-26T14:29:07Z</time>
      </trkpt>
      <trkpt lat="45.12034" lon="4.98752">
        <ele>148.47</ele>
        <time>2017-03-26T14:29:08Z</time>
      </trkpt>
      <trkpt lat="45.12039" lon="4.98772">
        <ele>148.39</ele>
        <time>2017-03-26T14:29:09Z</time>
      </trkpt>
      <trkpt lat="45.12044" lon="4.98792">
        <ele>147.73</ele>
        <time>2017-03-26T14:29:10Z</time>
      </trkpt>
      <trkpt lat="45.1205" lon="4.98811">
        <ele>147.44</ele>
        <time>2017-03-26T14:29:11Z</time>
      </trkpt>
      <trkpt lat="45.12057" lon="4.98829">
        <ele>147.14</ele>
        <time>2017-03-26T14:29:12Z</time>
      </trkpt>
      <trkpt lat="45.12064" lon="4.98847">
        <ele>147.16</ele>
        <time>2017-03-26T14:29:13Z</time>
      </trkpt>
      <trkpt lat="45.12072" lon="4.98864">
        <ele>147.33</ele>
        <time>2017-03-26T14:29:14Z</time>
      </trkpt>
      <trkpt lat="45.12079" lon="4.98881">
        <ele>147.52</ele>
        <time>2017-03-26T14:29:15Z</time>
      </trkpt>
      <trkpt lat="45.12087" lon="4.98898">
        <ele>147.64</ele>
        <time>2017-03-26T14:29:16Z</time>
      </trkpt>
      <trkpt lat="45.12096" lon="4.98914">
        <ele>147.9</ele>
        <time>2017-03-26T14:29:17Z</time>
      </trkpt>
      <trkpt lat="45.12106" lon="4.98931">
        <ele>148.27</ele>
        <time>2017-03-26T14:29:18Z</time>
      </trkpt>
      <trkpt lat="45.12117" lon="4.98948">
        <ele>148.83</ele>
        <time>2017-03-26T14:29:19Z</time>
      </trkpt>
      <trkpt lat="45.12129" lon="4.98965">
        <ele>149.5</ele>
        <time>2017-03-26T14:29:20Z</time>
      </trkpt>
      <trkpt lat="45.12142" lon="4.98983">
        <ele>150.27</ele>
        <time>2017-03-26T14:29:21Z</time>
      </trkpt>
      <trkpt lat="45.12154" lon="4.99">
        <ele>151.23</ele>
        <time>2017-03-26T14:29:22Z</time>
      </trkpt>
      <trkpt lat="45.12167" lon="4.99017">
        <ele>152.46</ele>
        <time>2017-03-26T14:29:23Z</time>
      </trkpt>
      <trkpt lat="45.12179" lon="4.99032">
        <ele>153.67</ele>
        <time>2017-03-26T14:29:24Z</time>
      </trkpt>
      <trkpt lat="45.12191" lon="4.99045">
        <ele>154.63</ele>
        <time>2017-03-26T14:29:25Z</time>
      </trkpt>
      <trkpt lat="45.12202" lon="4.99057">
        <ele>155.3</ele>
        <time>2017-03-26T14:29:26Z</time>
      </trkpt>
      <trkpt lat="45.12211" lon="4.99068">
        <ele>155.59</ele>
        <time>2017-03-26T14:29:27Z</time>
      </trkpt>
      <trkpt lat="45.12219" lon="4.9908">
        <ele>155.81</ele>
        <time>2017-03-26T14:29:28Z</time>
      </trkpt>
      <trkpt lat="45.12226" lon="4.99091">
        <ele>156.1</ele>
        <time>2017-03-26T14:29:29Z</time>
      </trkpt>
      <trkpt lat="45.12223" lon="4.99102">
        <ele>156.31</ele>
        <time>2017-03-26T14:29:30Z</time>
      </trkpt>
      <trkpt lat="45.1222" lon="4.99117">
        <ele>156.12</ele>
        <time>2017-03-26T14:29:31Z</time>
      </trkpt>
      <trkpt lat="45.12217" lon="4.99132">
        <ele>156</ele>
        <time>2017-03-26T14:29:32Z</time>
      </trkpt>
      <trkpt lat="45.12212" lon="4.9915">
        <ele>155.65</ele>
        <time>2017-03-26T14:29:33Z</time>
      </trkpt>
      <trkpt lat="45.12206" lon="4.99168">
        <ele>155.27</ele>
        <time>2017-03-26T14:29:34Z</time>
      </trkpt>
      <trkpt lat="45.122" lon="4.99189">
        <ele>155.03</ele>
        <time>2017-03-26T14:29:35Z</time>
      </trkpt>
      <trkpt lat="45.12195" lon="4.99209">
        <ele>154.74</ele>
        <time>2017-03-26T14:29:36Z</time>
      </trkpt>
      <trkpt lat="45.12189" lon="4.99229">
        <ele>154.44</ele>
        <time>2017-03-26T14:29:37Z</time>
      </trkpt>
      <trkpt lat="45.12184" lon="4.9925">
        <ele>154.14</ele>
        <time>2017-03-26T14:29:38Z</time>
      </trkpt>
      <trkpt lat="45.12177" lon="4.99272">
        <ele>153.76</ele>
        <time>2017-03-26T14:29:39Z</time>
      </trkpt>
      <trkpt lat="45.12171" lon="4.99293">
        <ele>153.45</ele>
        <time>2017-03-26T14:29:40Z</time>
      </trkpt>
      <trkpt lat="45.12165" lon="4.99316">
        <ele>153.06</ele>
        <time>2017-03-26T14:29:41Z</time>
      </trkpt>
      <trkpt lat="45.12159" lon="4.99338">
        <ele>152.67</ele>
        <time>2017-03-26T14:29:42Z</time>
      </trkpt>
      <trkpt lat="45.12153" lon="4.99361">
        <ele>152.75</ele>
        <time>2017-03-26T14:29:43Z</time>
      </trkpt>
      <trkpt lat="45.12147" lon="4.99383">
        <ele>152.68</ele>
        <time>2017-03-26T14:29:44Z</time>
      </trkpt>
      <trkpt lat="45.1214" lon="4.99408">
        <ele>151.63</ele>
        <time>2017-03-26T14:29:45Z</time>
      </trkpt>
      <trkpt lat="45.12132" lon="4.99432">
        <ele>150.86</ele>
        <time>2017-03-26T14:29:46Z</time>
      </trkpt>
      <trkpt lat="45.12124" lon="4.99455">
        <ele>150.55</ele>
        <time>2017-03-26T14:29:47Z</time>
      </trkpt>
      <trkpt lat="45.12114" lon="4.99476">
        <ele>150.32</ele>
        <time>2017-03-26T14:29:48Z</time>
      </trkpt>
      <trkpt lat="45.12102" lon="4.99497">
        <ele>150.44</ele>
        <time>2017-03-26T14:29:49Z</time>
      </trkpt>
      <trkpt lat="45.12091" lon="4.99518">
        <ele>150.86</ele>
        <time>2017-03-26T14:29:50Z</time>
      </trkpt>
      <trkpt lat="45.12079" lon="4.99539">
        <ele>151.27</ele>
        <time>2017-03-26T14:29:51Z</time>
      </trkpt>
      <trkpt lat="45.12068" lon="4.99559">
        <ele>151.75</ele>
        <time>2017-03-26T14:29:52Z</time>
      </trkpt>
      <trkpt lat="45.12057" lon="4.9958">
        <ele>152.24</ele>
        <time>2017-03-26T14:29:53Z</time>
      </trkpt>
      <trkpt lat="45.12045" lon="4.99601">
        <ele>152.42</ele>
        <time>2017-03-26T14:29:54Z</time>
      </trkpt>
      <trkpt lat="45.12033" lon="4.99623">
        <ele>152.14</ele>
        <time>2017-03-26T14:29:55Z</time>
      </trkpt>
      <trkpt lat="45.12021" lon="4.99644">
        <ele>152.08</ele>
        <time>2017-03-26T14:29:56Z</time>
      </trkpt>
      <trkpt lat="45.12009" lon="4.99666">
        <ele>151.99</ele>
        <time>2017-03-26T14:29:57Z</time>
      </trkpt>
      <trkpt lat="45.11996" lon="4.99687">
        <ele>151.81</ele>
        <time>2017-03-26T14:29:58Z</time>
      </trkpt>
      <trkpt lat="45.11983" lon="4.99708">
        <ele>151.62</ele>
        <time>2017-03-26T14:29:59Z</time>
      </trkpt>
      <trkpt lat="45.1197" lon="4.99729">
        <ele>151.5</ele>
        <time>2017-03-26T14:30:00Z</time>
      </trkpt>
      <trkpt lat="45.11958" lon="4.9975">
        <ele>151.15</ele>
        <time>2017-03-26T14:30:01Z</time>
      </trkpt>
      <trkpt lat="45.11945" lon="4.99771">
        <ele>151.09</ele>
        <time>2017-03-26T14:30:02Z</time>
      </trkpt>
      <trkpt lat="45.11931" lon="4.99791">
        <ele>151.31</ele>
        <time>2017-03-26T14:30:03Z</time>
      </trkpt>
      <trkpt lat="45.11916" lon="4.99811">
        <ele>151.6</ele>
        <time>2017-03-26T14:30:04Z</time>
      </trkpt>
      <trkpt lat="45.11901" lon="4.99829">
        <ele>152.13</ele>
        <time>2017-03-26T14:30:05Z</time>
      </trkpt>
      <trkpt lat="45.11884" lon="4.99846">
        <ele>152.72</ele>
        <time>2017-03-26T14:30:06Z</time>
      </trkpt>
      <trkpt lat="45.11867" lon="4.99862">
        <ele>153.24</ele>
        <time>2017-03-26T14:30:07Z</time>
      </trkpt>
      <trkpt lat="45.11846" lon="4.99877">
        <ele>153.42</ele>
        <time>2017-03-26T14:30:08Z</time>
      </trkpt>
      <trkpt lat="45.11827" lon="4.9989">
        <ele>153.7</ele>
        <time>2017-03-26T14:30:09Z</time>
      </trkpt>
      <trkpt lat="45.11807" lon="4.99902">
        <ele>154.07</ele>
        <time>2017-03-26T14:30:10Z</time>
      </trkpt>
      <trkpt lat="45.11788" lon="4.99913">
        <ele>154.39</ele>
        <time>2017-03-26T14:30:11Z</time>
      </trkpt>
      <trkpt lat="45.11768" lon="4.99923">
        <ele>154.77</ele>
        <time>2017-03-26T14:30:12Z</time>
      </trkpt>
      <trkpt lat="45.11747" lon="4.99933">
        <ele>155.17</ele>
        <time>2017-03-26T14:30:13Z</time>
      </trkpt>
      <trkpt lat="45.11723" lon="4.9994">
        <ele>155.97</ele>
        <time>2017-03-26T14:30:14Z</time>
      </trkpt>
      <trkpt lat="45.11701" lon="4.9995">
        <ele>156.45</ele>
        <time>2017-03-26T14:30:15Z</time>
      </trkpt>
      <trkpt lat="45.11675" lon="4.99962">
        <ele>157.58</ele>
        <time>2017-03-26T14:30:16Z</time>
      </trkpt>
      <trkpt lat="45.11651" lon="4.9998">
        <ele>158.85</ele>
        <time>2017-03-26T14:30:17Z</time>
      </trkpt>
      <trkpt lat="45.11631" lon="5.00002">
        <ele>159.42</ele>
        <time>2017-03-26T14:30:18Z</time>
      </trkpt>
      <trkpt lat="45.11612" lon="5.00025">
        <ele>159.86</ele>
        <time>2017-03-26T14:30:19Z</time>
      </trkpt>
      <trkpt lat="45.11594" lon="5.00048">
        <ele>160.35</ele>
        <time>2017-03-26T14:30:20Z</time>
      </trkpt>
      <trkpt lat="45.11574" lon="5.00072">
        <ele>160.84</ele>
        <time>2017-03-26T14:30:21Z</time>
      </trkpt>
      <trkpt lat="45.11555" lon="5.00093">
        <ele>161.26</ele>
        <time>2017-03-26T14:30:22Z</time>
      </trkpt>
      <trkpt lat="45.11535" lon="5.00112">
        <ele>161.75</ele>
        <time>2017-03-26T14:30:23Z</time>
      </trkpt>
      <trkpt lat="45.11514" lon="5.00132">
        <ele>162.16</ele>
        <time>2017-03-26T14:30:24Z</time>
      </trkpt>
      <trkpt lat="45.11494" lon="5.00151">
        <ele>162.41</ele>
        <time>2017-03-26T14:30:25Z</time>
      </trkpt>
      <trkpt lat="45.11473" lon="5.0017">
        <ele>162.7</ele>
        <time>2017-03-26T14:30:26Z</time>
      </trkpt>
      <trkpt lat="45.11453" lon="5.00188">
        <ele>163.07</ele>
        <time>2017-03-26T14:30:27Z</time>
      </trkpt>
      <trkpt lat="45.11433" lon="5.00206">
        <ele>163.31</ele>
        <time>2017-03-26T14:30:28Z</time>
      </trkpt>
      <trkpt lat="45.11412" lon="5.00224">
        <ele>163.76</ele>
        <time>2017-03-26T14:30:29Z</time>
      </trkpt>
      <trkpt lat="45.11392" lon="5.00242">
        <ele>164.17</ele>
        <time>2017-03-26T14:30:30Z</time>
      </trkpt>
      <trkpt lat="45.11372" lon="5.0026">
        <ele>164.65</ele>
        <time>2017-03-26T14:30:31Z</time>
      </trkpt>
      <trkpt lat="45.11352" lon="5.00278">
        <ele>165.14</ele>
        <time>2017-03-26T14:30:32Z</time>
      </trkpt>
      <trkpt lat="45.11332" lon="5.00296">
        <ele>165.64</ele>
        <time>2017-03-26T14:30:33Z</time>
      </trkpt>
      <trkpt lat="45.1131" lon="5.00312">
        <ele>166.22</ele>
        <time>2017-03-26T14:30:34Z</time>
      </trkpt>
      <trkpt lat="45.11289" lon="5.00328">
        <ele>166.9</ele>
        <time>2017-03-26T14:30:35Z</time>
      </trkpt>
      <trkpt lat="45.11267" lon="5.00342">
        <ele>167.35</ele>
        <time>2017-03-26T14:30:36Z</time>
      </trkpt>
      <trkpt lat="45.11244" lon="5.00355">
        <ele>168.25</ele>
        <time>2017-03-26T14:30:37Z</time>
      </trkpt>
      <trkpt lat="45.11221" lon="5.00367">
        <ele>169.3</ele>
        <time>2017-03-26T14:30:38Z</time>
      </trkpt>
      <trkpt lat="45.11197" lon="5.00378">
        <ele>171.2</ele>
        <time>2017-03-26T14:30:39Z</time>
      </trkpt>
      <trkpt lat="45.11174" lon="5.00389">
        <ele>172.93</ele>
        <time>2017-03-26T14:30:40Z</time>
      </trkpt>
      <trkpt lat="45.11151" lon="5.00401">
        <ele>174.4</ele>
        <time>2017-03-26T14:30:41Z</time>
      </trkpt>
      <trkpt lat="45.11129" lon="5.00413">
        <ele>176.05</ele>
        <time>2017-03-26T14:30:42Z</time>
      </trkpt>
      <trkpt lat="45.11106" lon="5.00425">
        <ele>178.07</ele>
        <time>2017-03-26T14:30:43Z</time>
      </trkpt>
      <trkpt lat="45.11084" lon="5.00437">
        <ele>179.91</ele>
        <time>2017-03-26T14:30:44Z</time>
      </trkpt>
      <trkpt lat="45.11062" lon="5.00449">
        <ele>181.48</ele>
        <time>2017-03-26T14:30:45Z</time>
      </trkpt>
      <trkpt lat="45.1104" lon="5.00462">
        <ele>183.23</ele>
        <time>2017-03-26T14:30:46Z</time>
      </trkpt>
      <trkpt lat="45.11019" lon="5.00476">
        <ele>185.1</ele>
        <time>2017-03-26T14:30:47Z</time>
      </trkpt>
      <trkpt lat="45.10997" lon="5.00492">
        <ele>186.75</ele>
        <time>2017-03-26T14:30:48Z</time>
      </trkpt>
      <trkpt lat="45.10976" lon="5.00507">
        <ele>188.21</ele>
        <time>2017-03-26T14:30:49Z</time>
      </trkpt>
      <trkpt lat="45.10954" lon="5.00523">
        <ele>188.98</ele>
        <time>2017-03-26T14:30:50Z</time>
      </trkpt>
      <trkpt lat="45.10933" lon="5.00537">
        <ele>190.17</ele>
        <time>2017-03-26T14:30:51Z</time>
      </trkpt>
      <trkpt lat="45.10911" lon="5.00551">
        <ele>191.37</ele>
        <time>2017-03-26T14:30:52Z</time>
      </trkpt>
      <trkpt lat="45.10888" lon="5.00564">
        <ele>192.65</ele>
        <time>2017-03-26T14:30:53Z</time>
      </trkpt>
      <trkpt lat="45.10865" lon="5.00576">
        <ele>193.86</ele>
        <time>2017-03-26T14:30:54Z</time>
      </trkpt>
      <trkpt lat="45.10841" lon="5.00586">
        <ele>194.91</ele>
        <time>2017-03-26T14:30:55Z</time>
      </trkpt>
      <trkpt lat="45.10816" lon="5.00596">
        <ele>195.92</ele>
        <time>2017-03-26T14:30:56Z</time>
      </trkpt>
      <trkpt lat="45.10792" lon="5.00603">
        <ele>196.92</ele>
        <time>2017-03-26T14:30:57Z</time>
      </trkpt>
      <trkpt lat="45.10767" lon="5.00605">
        <ele>198.4</ele>
        <time>2017-03-26T14:30:58Z</time>
      </trkpt>
      <trkpt lat="45.10743" lon="5.0061">
        <ele>199.65</ele>
        <time>2017-03-26T14:30:59Z</time>
      </trkpt>
      <trkpt lat="45.1072" lon="5.00615">
        <ele>200.39</ele>
        <time>2017-03-26T14:31:00Z</time>
      </trkpt>
      <trkpt lat="45.10698" lon="5.00618">
        <ele>200.45</ele>
        <time>2017-03-26T14:31:01Z</time>
      </trkpt>
      <trkpt lat="45.10676" lon="5.00623">
        <ele>200.78</ele>
        <time>2017-03-26T14:31:02Z</time>
      </trkpt>
      <trkpt lat="45.10655" lon="5.00628">
        <ele>200.85</ele>
        <time>2017-03-26T14:31:03Z</time>
      </trkpt>
      <trkpt lat="45.10634" lon="5.00638">
        <ele>201.34</ele>
        <time>2017-03-26T14:31:04Z</time>
      </trkpt>
      <trkpt lat="45.10613" lon="5.00649">
        <ele>201.12</ele>
        <time>2017-03-26T14:31:05Z</time>
      </trkpt>
      <trkpt lat="45.10595" lon="5.00661">
        <ele>200.36</ele>
        <time>2017-03-26T14:31:06Z</time>
      </trkpt>
      <trkpt lat="45.10577" lon="5.00673">
        <ele>199.81</ele>
        <time>2017-03-26T14:31:07Z</time>
      </trkpt>
      <trkpt lat="45.10559" lon="5.00685">
        <ele>198.58</ele>
        <time>2017-03-26T14:31:08Z</time>
      </trkpt>
      <trkpt lat="45.10544" lon="5.00697">
        <ele>197.69</ele>
        <time>2017-03-26T14:31:09Z</time>
      </trkpt>
      <trkpt lat="45.10528" lon="5.0071">
        <ele>197.19</ele>
        <time>2017-03-26T14:31:10Z</time>
      </trkpt>
      <trkpt lat="45.10512" lon="5.00722">
        <ele>196.85</ele>
        <time>2017-03-26T14:31:11Z</time>
      </trkpt>
      <trkpt lat="45.10498" lon="5.00733">
        <ele>195.66</ele>
        <time>2017-03-26T14:31:12Z</time>
      </trkpt>
      <trkpt lat="45.10483" lon="5.00745">
        <ele>194.79</ele>
        <time>2017-03-26T14:31:13Z</time>
      </trkpt>
      <trkpt lat="45.10468" lon="5.00757">
        <ele>194.45</ele>
        <time>2017-03-26T14:31:14Z</time>
      </trkpt>
      <trkpt lat="45.10453" lon="5.00769">
        <ele>193.98</ele>
        <time>2017-03-26T14:31:15Z</time>
      </trkpt>
      <trkpt lat="45.10438" lon="5.00782">
        <ele>193.17</ele>
        <time>2017-03-26T14:31:16Z</time>
      </trkpt>
      <trkpt lat="45.10424" lon="5.00794">
        <ele>192.69</ele>
        <time>2017-03-26T14:31:17Z</time>
      </trkpt>
      <trkpt lat="45.10409" lon="5.00806">
        <ele>191.87</ele>
        <time>2017-03-26T14:31:18Z</time>
      </trkpt>
      <trkpt lat="45.10396" lon="5.00817">
        <ele>191.15</ele>
        <time>2017-03-26T14:31:19Z</time>
      </trkpt>
      <trkpt lat="45.10382" lon="5.00828">
        <ele>190.6</ele>
        <time>2017-03-26T14:31:20Z</time>
      </trkpt>
      <trkpt lat="45.10368" lon="5.00837">
        <ele>189.94</ele>
        <time>2017-03-26T14:31:21Z</time>
      </trkpt>
      <trkpt lat="45.10355" lon="5.00847">
        <ele>189.16</ele>
        <time>2017-03-26T14:31:22Z</time>
      </trkpt>
      <trkpt lat="45.10342" lon="5.00858">
        <ele>188.45</ele>
        <time>2017-03-26T14:31:23Z</time>
      </trkpt>
      <trkpt lat="45.10329" lon="5.00868">
        <ele>187.74</ele>
        <time>2017-03-26T14:31:24Z</time>
      </trkpt>
      <trkpt lat="45.10317" lon="5.00877">
        <ele>186.48</ele>
        <time>2017-03-26T14:31:25Z</time>
      </trkpt>
      <trkpt lat="45.10304" lon="5.00887">
        <ele>185.43</ele>
        <time>2017-03-26T14:31:26Z</time>
      </trkpt>
      <trkpt lat="45.1029" lon="5.00898">
        <ele>184.66</ele>
        <time>2017-03-26T14:31:27Z</time>
      </trkpt>
      <trkpt lat="45.10278" lon="5.00908">
        <ele>183.79</ele>
        <time>2017-03-26T14:31:28Z</time>
      </trkpt>
      <trkpt lat="45.10265" lon="5.00918">
        <ele>183.13</ele>
        <time>2017-03-26T14:31:29Z</time>
      </trkpt>
      <trkpt lat="45.10254" lon="5.00929">
        <ele>182.44</ele>
        <time>2017-03-26T14:31:30Z</time>
      </trkpt>
      <trkpt lat="45.10243" lon="5.00938">
        <ele>182.22</ele>
        <time>2017-03-26T14:31:31Z</time>
      </trkpt>
      <trkpt lat="45.10232" lon="5.00947">
        <ele>181.94</ele>
        <time>2017-03-26T14:31:32Z</time>
      </trkpt>
      <trkpt lat="45.10222" lon="5.00956">
        <ele>181.96</ele>
        <time>2017-03-26T14:31:33Z</time>
      </trkpt>
      <trkpt lat="45.10213" lon="5.00964">
        <ele>181.97</ele>
        <time>2017-03-26T14:31:34Z</time>
      </trkpt>
      <trkpt lat="45.10204" lon="5.00975">
        <ele>181.81</ele>
        <time>2017-03-26T14:31:35Z</time>
      </trkpt>
      <trkpt lat="45.10196" lon="5.00986">
        <ele>181.86</ele>
        <time>2017-03-26T14:31:36Z</time>
      </trkpt>
      <trkpt lat="45.10188" lon="5.00999">
        <ele>181.95</ele>
        <time>2017-03-26T14:31:37Z</time>
      </trkpt>
      <trkpt lat="45.1018" lon="5.01012">
        <ele>182.04</ele>
        <time>2017-03-26T14:31:38Z</time>
      </trkpt>
      <trkpt lat="45.10171" lon="5.01026">
        <ele>181.98</ele>
        <time>2017-03-26T14:31:39Z</time>
      </trkpt>
      <trkpt lat="45.10162" lon="5.01042">
        <ele>181.89</ele>
        <time>2017-03-26T14:31:40Z</time>
      </trkpt>
      <trkpt lat="45.10154" lon="5.01057">
        <ele>181.79</ele>
        <time>2017-03-26T14:31:41Z</time>
      </trkpt>
      <trkpt lat="45.10144" lon="5.01073">
        <ele>181.53</ele>
        <time>2017-03-26T14:31:42Z</time>
      </trkpt>
      <trkpt lat="45.10134" lon="5.01089">
        <ele>181.32</ele>
        <time>2017-03-26T14:31:43Z</time>
      </trkpt>
      <trkpt lat="45.10124" lon="5.01108">
        <ele>179.6</ele>
        <time>2017-03-26T14:31:44Z</time>
      </trkpt>
      <trkpt lat="45.10114" lon="5.01125">
        <ele>178.61</ele>
        <time>2017-03-26T14:31:45Z</time>
      </trkpt>
      <trkpt lat="45.10104" lon="5.01145">
        <ele>177.62</ele>
        <time>2017-03-26T14:31:46Z</time>
      </trkpt>
      <trkpt lat="45.10096" lon="5.01164">
        <ele>177.26</ele>
        <time>2017-03-26T14:31:47Z</time>
      </trkpt>
      <trkpt lat="45.10088" lon="5.01184">
        <ele>176.87</ele>
        <time>2017-03-26T14:31:48Z</time>
      </trkpt>
      <trkpt lat="45.1008" lon="5.01205">
        <ele>176.63</ele>
        <time>2017-03-26T14:31:49Z</time>
      </trkpt>
      <trkpt lat="45.10074" lon="5.01226">
        <ele>176.5</ele>
        <time>2017-03-26T14:31:50Z</time>
      </trkpt>
      <trkpt lat="45.10067" lon="5.01247">
        <ele>176.39</ele>
        <time>2017-03-26T14:31:51Z</time>
      </trkpt>
      <trkpt lat="45.10062" lon="5.01269">
        <ele>176.13</ele>
        <time>2017-03-26T14:31:52Z</time>
      </trkpt>
      <trkpt lat="45.10058" lon="5.01293">
        <ele>175.76</ele>
        <time>2017-03-26T14:31:53Z</time>
      </trkpt>
      <trkpt lat="45.10058" lon="5.0132">
        <ele>175.37</ele>
        <time>2017-03-26T14:31:54Z</time>
      </trkpt>
      <trkpt lat="45.10056" lon="5.01347">
        <ele>174.89</ele>
        <time>2017-03-26T14:31:55Z</time>
      </trkpt>
      <trkpt lat="45.10054" lon="5.01372">
        <ele>174.55</ele>
        <time>2017-03-26T14:31:56Z</time>
      </trkpt>
      <trkpt lat="45.10053" lon="5.01399">
        <ele>174.32</ele>
        <time>2017-03-26T14:31:57Z</time>
      </trkpt>
      <trkpt lat="45.10051" lon="5.01424">
        <ele>173.96</ele>
        <time>2017-03-26T14:31:58Z</time>
      </trkpt>
      <trkpt lat="45.10052" lon="5.01451">
        <ele>173.49</ele>
        <time>2017-03-26T14:31:59Z</time>
      </trkpt>
      <trkpt lat="45.1005" lon="5.01476">
        <ele>173.23</ele>
        <time>2017-03-26T14:32:00Z</time>
      </trkpt>
      <trkpt lat="45.10049" lon="5.01503">
        <ele>172.94</ele>
        <time>2017-03-26T14:32:01Z</time>
      </trkpt>
      <trkpt lat="45.10046" lon="5.01529">
        <ele>172.72</ele>
        <time>2017-03-26T14:32:02Z</time>
      </trkpt>
      <trkpt lat="45.10044" lon="5.01554">
        <ele>172.68</ele>
        <time>2017-03-26T14:32:03Z</time>
      </trkpt>
      <trkpt lat="45.10042" lon="5.01579">
        <ele>172.51</ele>
        <time>2017-03-26T14:32:04Z</time>
      </trkpt>
      <trkpt lat="45.1004" lon="5.01604">
        <ele>172.4</ele>
        <time>2017-03-26T14:32:05Z</time>
      </trkpt>
      <trkpt lat="45.10038" lon="5.0163">
        <ele>172.21</ele>
        <time>2017-03-26T14:32:06Z</time>
      </trkpt>
      <trkpt lat="45.10034" lon="5.01655">
        <ele>171.78</ele>
        <time>2017-03-26T14:32:07Z</time>
      </trkpt>
      <trkpt lat="45.1003" lon="5.01679">
        <ele>171.37</ele>
        <time>2017-03-26T14:32:08Z</time>
      </trkpt>
      <trkpt lat="45.10025" lon="5.01706">
        <ele>170.97</ele>
        <time>2017-03-26T14:32:09Z</time>
      </trkpt>
      <trkpt lat="45.10019" lon="5.01732">
        <ele>170.89</ele>
        <time>2017-03-26T14:32:10Z</time>
      </trkpt>
      <trkpt lat="45.10011" lon="5.01757">
        <ele>170.95</ele>
        <time>2017-03-26T14:32:11Z</time>
      </trkpt>
      <trkpt lat="45.10004" lon="5.01783">
        <ele>171.28</ele>
        <time>2017-03-26T14:32:12Z</time>
      </trkpt>
      <trkpt lat="45.09996" lon="5.01808">
        <ele>171.59</ele>
        <time>2017-03-26T14:32:13Z</time>
      </trkpt>
      <trkpt lat="45.09988" lon="5.01834">
        <ele>172.05</ele>
        <time>2017-03-26T14:32:14Z</time>
      </trkpt>
      <trkpt lat="45.0998" lon="5.01859">
        <ele>172.38</ele>
        <time>2017-03-26T14:32:15Z</time>
      </trkpt>
      <trkpt lat="45.09972" lon="5.01884">
        <ele>172.69</ele>
        <time>2017-03-26T14:32:16Z</time>
      </trkpt>
      <trkpt lat="45.09963" lon="5.01909">
        <ele>172.99</ele>
        <time>2017-03-26T14:32:17Z</time>
      </trkpt>
      <trkpt lat="45.09955" lon="5.01934">
        <ele>173.05</ele>
        <time>2017-03-26T14:32:18Z</time>
      </trkpt>
      <trkpt lat="45.09946" lon="5.01959">
        <ele>173.06</ele>
        <time>2017-03-26T14:32:19Z</time>
      </trkpt>
      <trkpt lat="45.09937" lon="5.01985">
        <ele>173.71</ele>
        <time>2017-03-26T14:32:20Z</time>
      </trkpt>
      <trkpt lat="45.09929" lon="5.02009">
        <ele>174.08</ele>
        <time>2017-03-26T14:32:21Z</time>
      </trkpt>
      <trkpt lat="45.09921" lon="5.02035">
        <ele>174.23</ele>
        <time>2017-03-26T14:32:22Z</time>
      </trkpt>
      <trkpt lat="45.09913" lon="5.02061">
        <ele>174.5</ele>
        <time>2017-03-26T14:32:23Z</time>
      </trkpt>
      <trkpt lat="45.09905" lon="5.02086">
        <ele>174.87</ele>
        <time>2017-03-26T14:32:24Z</time>
      </trkpt>
      <trkpt lat="45.09896" lon="5.02111">
        <ele>175.11</ele>
        <time>2017-03-26T14:32:25Z</time>
      </trkpt>
      <trkpt lat="45.09887" lon="5.02136">
        <ele>175.56</ele>
        <time>2017-03-26T14:32:26Z</time>
      </trkpt>
      <trkpt lat="45.09879" lon="5.02161">
        <ele>176.05</ele>
        <time>2017-03-26T14:32:27Z</time>
      </trkpt>
      <trkpt lat="45.09871" lon="5.02186">
        <ele>176.54</ele>
        <time>2017-03-26T14:32:28Z</time>
      </trkpt>
      <trkpt lat="45.09863" lon="5.0221">
        <ele>177.2</ele>
        <time>2017-03-26T14:32:29Z</time>
      </trkpt>
      <trkpt lat="45.09855" lon="5.02234">
        <ele>177.82</ele>
        <time>2017-03-26T14:32:30Z</time>
      </trkpt>
      <trkpt lat="45.09849" lon="5.02259">
        <ele>178.26</ele>
        <time>2017-03-26T14:32:31Z</time>
      </trkpt>
      <trkpt lat="45.09843" lon="5.02284">
        <ele>178.75</ele>
        <time>2017-03-26T14:32:32Z</time>
      </trkpt>
      <trkpt lat="45.09842" lon="5.02309">
        <ele>179.48</ele>
        <time>2017-03-26T14:32:33Z</time>
      </trkpt>
      <trkpt lat="45.09844" lon="5.02335">
        <ele>180.27</ele>
        <time>2017-03-26T14:32:34Z</time>
      </trkpt>
      <trkpt lat="45.09849" lon="5.02362">
        <ele>180.99</ele>
        <time>2017-03-26T14:32:35Z</time>
      </trkpt>
      <trkpt lat="45.09857" lon="5.02388">
        <ele>181.61</ele>
        <time>2017-03-26T14:32:36Z</time>
      </trkpt>
      <trkpt lat="45.09864" lon="5.02413">
        <ele>182.38</ele>
        <time>2017-03-26T14:32:37Z</time>
      </trkpt>
      <trkpt lat="45.0987" lon="5.02437">
        <ele>183.09</ele>
        <time>2017-03-26T14:32:38Z</time>
      </trkpt>
      <trkpt lat="45.09877" lon="5.0246">
        <ele>183.79</ele>
        <time>2017-03-26T14:32:39Z</time>
      </trkpt>
      <trkpt lat="45.09885" lon="5.02483">
        <ele>184.41</ele>
        <time>2017-03-26T14:32:40Z</time>
      </trkpt>
      <trkpt lat="45.09893" lon="5.02506">
        <ele>184.94</ele>
        <time>2017-03-26T14:32:41Z</time>
      </trkpt>
      <trkpt lat="45.09903" lon="5.02526">
        <ele>185.44</ele>
        <time>2017-03-26T14:32:42Z</time>
      </trkpt>
      <trkpt lat="45.09919" lon="5.02543">
        <ele>185.94</ele>
        <time>2017-03-26T14:32:43Z</time>
      </trkpt>
      <trkpt lat="45.09935" lon="5.0256">
        <ele>186.36</ele>
        <time>2017-03-26T14:32:44Z</time>
      </trkpt>
      <trkpt lat="45.09948" lon="5.0258">
        <ele>186.93</ele>
        <time>2017-03-26T14:32:45Z</time>
      </trkpt>
      <trkpt lat="45.09959" lon="5.02603">
        <ele>187.2</ele>
        <time>2017-03-26T14:32:46Z</time>
      </trkpt>
      <trkpt lat="45.09969" lon="5.02627">
        <ele>187.41</ele>
        <time>2017-03-26T14:32:47Z</time>
      </trkpt>
      <trkpt lat="45.09984" lon="5.02649">
        <ele>187.06</ele>
        <time>2017-03-26T14:32:48Z</time>
      </trkpt>
      <trkpt lat="45.09998" lon="5.0267">
        <ele>186.83</ele>
        <time>2017-03-26T14:32:49Z</time>
      </trkpt>
      <trkpt lat="45.10012" lon="5.02691">
        <ele>186.7</ele>
        <time>2017-03-26T14:32:50Z</time>
      </trkpt>
      <trkpt lat="45.10026" lon="5.02709">
        <ele>186.75</ele>
        <time>2017-03-26T14:32:51Z</time>
      </trkpt>
      <trkpt lat="45.1004" lon="5.02726">
        <ele>187.01</ele>
        <time>2017-03-26T14:32:52Z</time>
      </trkpt>
      <trkpt lat="45.10052" lon="5.02744">
        <ele>187.22</ele>
        <time>2017-03-26T14:32:53Z</time>
      </trkpt>
      <trkpt lat="45.10062" lon="5.02762">
        <ele>187.26</ele>
        <time>2017-03-26T14:32:54Z</time>
      </trkpt>
      <trkpt lat="45.1007" lon="5.02781">
        <ele>187.27</ele>
        <time>2017-03-26T14:32:55Z</time>
      </trkpt>
      <trkpt lat="45.10071" lon="5.028">
        <ele>187.03</ele>
        <time>2017-03-26T14:32:56Z</time>
      </trkpt>
      <trkpt lat="45.10069" lon="5.02817">
        <ele>186.74</ele>
        <time>2017-03-26T14:32:57Z</time>
      </trkpt>
      <trkpt lat="45.10065" lon="5.0283">
        <ele>186.36</ele>
        <time>2017-03-26T14:32:58Z</time>
      </trkpt>
      <trkpt lat="45.10061" lon="5.02841">
        <ele>186.05</ele>
        <time>2017-03-26T14:32:59Z</time>
      </trkpt>
      <trkpt lat="45.10058" lon="5.0285">
        <ele>185.66</ele>
        <time>2017-03-26T14:33:00Z</time>
      </trkpt>
      <trkpt lat="45.10057" lon="5.02859">
        <ele>185.27</ele>
        <time>2017-03-26T14:33:01Z</time>
      </trkpt>
      <trkpt lat="45.10058" lon="5.02869">
        <ele>184.79</ele>
        <time>2017-03-26T14:33:02Z</time>
      </trkpt>
      <trkpt lat="45.10057" lon="5.02882">
        <ele>184.21</ele>
        <time>2017-03-26T14:33:03Z</time>
      </trkpt>
      <trkpt lat="45.10056" lon="5.02896">
        <ele>183.14</ele>
        <time>2017-03-26T14:33:04Z</time>
      </trkpt>
      <trkpt lat="45.10054" lon="5.02912">
        <ele>182.28</ele>
        <time>2017-03-26T14:33:05Z</time>
      </trkpt>
      <trkpt lat="45.10048" lon="5.0293">
        <ele>180.75</ele>
        <time>2017-03-26T14:33:06Z</time>
      </trkpt>
      <trkpt lat="45.10042" lon="5.0295">
        <ele>179.88</ele>
        <time>2017-03-26T14:33:07Z</time>
      </trkpt>
      <trkpt lat="45.10033" lon="5.02971">
        <ele>178.19</ele>
        <time>2017-03-26T14:33:08Z</time>
      </trkpt>
      <trkpt lat="45.10027" lon="5.02993">
        <ele>177.13</ele>
        <time>2017-03-26T14:33:09Z</time>
      </trkpt>
      <trkpt lat="45.10019" lon="5.03015">
        <ele>176.04</ele>
        <time>2017-03-26T14:33:10Z</time>
      </trkpt>
      <trkpt lat="45.10012" lon="5.03038">
        <ele>175.1</ele>
        <time>2017-03-26T14:33:11Z</time>
      </trkpt>
      <trkpt lat="45.10003" lon="5.0306">
        <ele>174.27</ele>
        <time>2017-03-26T14:33:12Z</time>
      </trkpt>
      <trkpt lat="45.09996" lon="5.03084">
        <ele>173.63</ele>
        <time>2017-03-26T14:33:13Z</time>
      </trkpt>
      <trkpt lat="45.09989" lon="5.03107">
        <ele>173.18</ele>
        <time>2017-03-26T14:33:14Z</time>
      </trkpt>
      <trkpt lat="45.09982" lon="5.03131">
        <ele>172.53</ele>
        <time>2017-03-26T14:33:15Z</time>
      </trkpt>
      <trkpt lat="45.09975" lon="5.03155">
        <ele>171.92</ele>
        <time>2017-03-26T14:33:16Z</time>
      </trkpt>
      <trkpt lat="45.09968" lon="5.03179">
        <ele>171.32</ele>
        <time>2017-03-26T14:33:17Z</time>
      </trkpt>
      <trkpt lat="45.09961" lon="5.03202">
        <ele>170.64</ele>
        <time>2017-03-26T14:33:18Z</time>
      </trkpt>
      <trkpt lat="45.09954" lon="5.03227">
        <ele>169.78</ele>
        <time>2017-03-26T14:33:19Z</time>
      </trkpt>
      <trkpt lat="45.09946" lon="5.03252">
        <ele>168.49</ele>
        <time>2017-03-26T14:33:20Z</time>
      </trkpt>
      <trkpt lat="45.09938" lon="5.03277">
        <ele>167.35</ele>
        <time>2017-03-26T14:33:21Z</time>
      </trkpt>
      <trkpt lat="45.0993" lon="5.03303">
        <ele>166.08</ele>
        <time>2017-03-26T14:33:22Z</time>
      </trkpt>
      <trkpt lat="45.09922" lon="5.03329">
        <ele>164.95</ele>
        <time>2017-03-26T14:33:23Z</time>
      </trkpt>
      <trkpt lat="45.09915" lon="5.03354">
        <ele>163.68</ele>
        <time>2017-03-26T14:33:24Z</time>
      </trkpt>
      <trkpt lat="45.09908" lon="5.03379">
        <ele>162.55</ele>
        <time>2017-03-26T14:33:25Z</time>
      </trkpt>
      <trkpt lat="45.09901" lon="5.03403">
        <ele>161.6</ele>
        <time>2017-03-26T14:33:26Z</time>
      </trkpt>
      <trkpt lat="45.09893" lon="5.03426">
        <ele>160.7</ele>
        <time>2017-03-26T14:33:27Z</time>
      </trkpt>
      <trkpt lat="45.09885" lon="5.03447">
        <ele>160.03</ele>
        <time>2017-03-26T14:33:28Z</time>
      </trkpt>
      <trkpt lat="45.09875" lon="5.03467">
        <ele>159.5</ele>
        <time>2017-03-26T14:33:29Z</time>
      </trkpt>
      <trkpt lat="45.09865" lon="5.03485">
        <ele>159.23</ele>
        <time>2017-03-26T14:33:30Z</time>
      </trkpt>
      <trkpt lat="45.09854" lon="5.03502">
        <ele>159.02</ele>
        <time>2017-03-26T14:33:31Z</time>
      </trkpt>
      <trkpt lat="45.09843" lon="5.03518">
        <ele>159.54</ele>
        <time>2017-03-26T14:33:32Z</time>
      </trkpt>
      <trkpt lat="45.09832" lon="5.03534">
        <ele>159.72</ele>
        <time>2017-03-26T14:33:33Z</time>
      </trkpt>
      <trkpt lat="45.09822" lon="5.0355">
        <ele>160</ele>
        <time>2017-03-26T14:33:34Z</time>
      </trkpt>
      <trkpt lat="45.09812" lon="5.03566">
        <ele>160.05</ele>
        <time>2017-03-26T14:33:35Z</time>
      </trkpt>
      <trkpt lat="45.09802" lon="5.03583">
        <ele>160.55</ele>
        <time>2017-03-26T14:33:36Z</time>
      </trkpt>
      <trkpt lat="45.09794" lon="5.03601">
        <ele>160.64</ele>
        <time>2017-03-26T14:33:37Z</time>
      </trkpt>
      <trkpt lat="45.09788" lon="5.03619">
        <ele>160.74</ele>
        <time>2017-03-26T14:33:38Z</time>
      </trkpt>
      <trkpt lat="45.09784" lon="5.03636">
        <ele>160.92</ele>
        <time>2017-03-26T14:33:39Z</time>
      </trkpt>
      <trkpt lat="45.09784" lon="5.03654">
        <ele>160.8</ele>
        <time>2017-03-26T14:33:40Z</time>
      </trkpt>
      <trkpt lat="45.09785" lon="5.03672">
        <ele>160.61</ele>
        <time>2017-03-26T14:33:41Z</time>
      </trkpt>
      <trkpt lat="45.09788" lon="5.03691">
        <ele>160.1</ele>
        <time>2017-03-26T14:33:42Z</time>
      </trkpt>
      <trkpt lat="45.09791" lon="5.0371">
        <ele>159.51</ele>
        <time>2017-03-26T14:33:43Z</time>
      </trkpt>
      <trkpt lat="45.09795" lon="5.03731">
        <ele>158.84</ele>
        <time>2017-03-26T14:33:44Z</time>
      </trkpt>
      <trkpt lat="45.09798" lon="5.03752">
        <ele>158.22</ele>
        <time>2017-03-26T14:33:45Z</time>
      </trkpt>
      <trkpt lat="45.09802" lon="5.03774">
        <ele>157.62</ele>
        <time>2017-03-26T14:33:46Z</time>
      </trkpt>
      <trkpt lat="45.09806" lon="5.03795">
        <ele>156.54</ele>
        <time>2017-03-26T14:33:47Z</time>
      </trkpt>
      <trkpt lat="45.09812" lon="5.03816">
        <ele>155.68</ele>
        <time>2017-03-26T14:33:48Z</time>
      </trkpt>
      <trkpt lat="45.09819" lon="5.03836">
        <ele>155.27</ele>
        <time>2017-03-26T14:33:49Z</time>
      </trkpt>
      <trkpt lat="45.09827" lon="5.03856">
        <ele>154.71</ele>
        <time>2017-03-26T14:33:50Z</time>
      </trkpt>
      <trkpt lat="45.09834" lon="5.03877">
        <ele>154.52</ele>
        <time>2017-03-26T14:33:51Z</time>
      </trkpt>
      <trkpt lat="45.09842" lon="5.03897">
        <ele>154.32</ele>
        <time>2017-03-26T14:33:52Z</time>
      </trkpt>
      <trkpt lat="45.0985" lon="5.03916">
        <ele>153.88</ele>
        <time>2017-03-26T14:33:53Z</time>
      </trkpt>
      <trkpt lat="45.09858" lon="5.03936">
        <ele>153.63</ele>
        <time>2017-03-26T14:33:54Z</time>
      </trkpt>
      <trkpt lat="45.09866" lon="5.03955">
        <ele>153.34</ele>
        <time>2017-03-26T14:33:55Z</time>
      </trkpt>
      <trkpt lat="45.09873" lon="5.03974">
        <ele>152.96</ele>
        <time>2017-03-26T14:33:56Z</time>
      </trkpt>
      <trkpt lat="45.0988" lon="5.03993">
        <ele>152.49</ele>
        <time>2017-03-26T14:33:57Z</time>
      </trkpt>
      <trkpt lat="45.09884" lon="5.04014">
        <ele>151.99</ele>
        <time>2017-03-26T14:33:58Z</time>
      </trkpt>
      <trkpt lat="45.09886" lon="5.04035">
        <ele>151.33</ele>
        <time>2017-03-26T14:33:59Z</time>
      </trkpt>
      <trkpt lat="45.09884" lon="5.04057">
        <ele>150.8</ele>
        <time>2017-03-26T14:34:00Z</time>
      </trkpt>
      <trkpt lat="45.09881" lon="5.04079">
        <ele>150.21</ele>
        <time>2017-03-26T14:34:01Z</time>
      </trkpt>
      <trkpt lat="45.09877" lon="5.041">
        <ele>149.54</ele>
        <time>2017-03-26T14:34:02Z</time>
      </trkpt>
      <trkpt lat="45.09871" lon="5.04121">
        <ele>149.16</ele>
        <time>2017-03-26T14:34:03Z</time>
      </trkpt>
      <trkpt lat="45.09865" lon="5.04141">
        <ele>148.69</ele>
        <time>2017-03-26T14:34:04Z</time>
      </trkpt>
      <trkpt lat="45.09857" lon="5.0416">
        <ele>148.35</ele>
        <time>2017-03-26T14:34:05Z</time>
      </trkpt>
      <trkpt lat="45.09849" lon="5.04177">
        <ele>148.12</ele>
        <time>2017-03-26T14:34:06Z</time>
      </trkpt>
      <trkpt lat="45.09838" lon="5.04193">
        <ele>147.92</ele>
        <time>2017-03-26T14:34:07Z</time>
      </trkpt>
      <trkpt lat="45.09824" lon="5.04206">
        <ele>147.56</ele>
        <time>2017-03-26T14:34:08Z</time>
      </trkpt>
      <trkpt lat="45.0981" lon="5.0422">
        <ele>147.33</ele>
        <time>2017-03-26T14:34:09Z</time>
      </trkpt>
      <trkpt lat="45.09795" lon="5.04235">
        <ele>147.2</ele>
        <time>2017-03-26T14:34:10Z</time>
      </trkpt>
      <trkpt lat="45.0978" lon="5.04249">
        <ele>147.17</ele>
        <time>2017-03-26T14:34:11Z</time>
      </trkpt>
      <trkpt lat="45.09764" lon="5.04264">
        <ele>147.01</ele>
        <time>2017-03-26T14:34:12Z</time>
      </trkpt>
      <trkpt lat="45.09748" lon="5.04278">
        <ele>146.5</ele>
        <time>2017-03-26T14:34:13Z</time>
      </trkpt>
      <trkpt lat="45.09732" lon="5.04293">
        <ele>146.39</ele>
        <time>2017-03-26T14:34:14Z</time>
      </trkpt>
      <trkpt lat="45.09717" lon="5.04308">
        <ele>146.61</ele>
        <time>2017-03-26T14:34:15Z</time>
      </trkpt>
      <trkpt lat="45.09702" lon="5.04323">
        <ele>146.9</ele>
        <time>2017-03-26T14:34:16Z</time>
      </trkpt>
      <trkpt lat="45.09688" lon="5.04338">
        <ele>147.51</ele>
        <time>2017-03-26T14:34:17Z</time>
      </trkpt>
      <trkpt lat="45.09675" lon="5.04355">
        <ele>147.96</ele>
        <time>2017-03-26T14:34:18Z</time>
      </trkpt>
      <trkpt lat="45.09665" lon="5.04372">
        <ele>148.21</ele>
        <time>2017-03-26T14:34:19Z</time>
      </trkpt>
      <trkpt lat="45.09655" lon="5.0439">
        <ele>148.5</ele>
        <time>2017-03-26T14:34:20Z</time>
      </trkpt>
      <trkpt lat="45.09648" lon="5.04407">
        <ele>148.79</ele>
        <time>2017-03-26T14:34:21Z</time>
      </trkpt>
      <trkpt lat="45.09641" lon="5.04423">
        <ele>149.01</ele>
        <time>2017-03-26T14:34:22Z</time>
      </trkpt>
      <trkpt lat="45.09636" lon="5.04439">
        <ele>148.98</ele>
        <time>2017-03-26T14:34:23Z</time>
      </trkpt>
      <trkpt lat="45.09631" lon="5.04455">
        <ele>148.81</ele>
        <time>2017-03-26T14:34:24Z</time>
      </trkpt>
      <trkpt lat="45.09626" lon="5.04469">
        <ele>148.86</ele>
        <time>2017-03-26T14:34:25Z</time>
      </trkpt>
      <trkpt lat="45.09622" lon="5.04483">
        <ele>148.87</ele>
        <time>2017-03-26T14:34:26Z</time>
      </trkpt>
      <trkpt lat="45.09618" lon="5.04496">
        <ele>148.95</ele>
        <time>2017-03-26T14:34:27Z</time>
      </trkpt>
      <trkpt lat="45.09615" lon="5.04508">
        <ele>149.04</ele>
        <time>2017-03-26T14:34:28Z</time>
      </trkpt>
      <trkpt lat="45.09613" lon="5.04518">
        <ele>149.06</ele>
        <time>2017-03-26T14:34:29Z</time>
      </trkpt>
      <trkpt lat="45.09611" lon="5.04525">
        <ele>149.15</ele>
        <time>2017-03-26T14:34:30Z</time>
      </trkpt>
      <trkpt lat="45.0961" lon="5.04531">
        <ele>149.48</ele>
        <time>2017-03-26T14:34:31Z</time>
      </trkpt>
      <trkpt lat="45.0961" lon="5.04536">
        <ele>149.71</ele>
        <time>2017-03-26T14:34:32Z</time>
      </trkpt>
      <trkpt lat="45.0961" lon="5.0454">
        <ele>150.08</ele>
        <time>2017-03-26T14:34:33Z</time>
      </trkpt>
      <trkpt lat="45.09613" lon="5.04543">
        <ele>150.39</ele>
        <time>2017-03-26T14:34:34Z</time>
      </trkpt>
      <trkpt lat="45.09616" lon="5.04546">
        <ele>150.69</ele>
        <time>2017-03-26T14:34:35Z</time>
      </trkpt>
      <trkpt lat="45.09623" lon="5.04546">
        <ele>150.91</ele>
        <time>2017-03-26T14:34:36Z</time>
      </trkpt>
      <trkpt lat="45.09629" lon="5.04545">
        <ele>151.12</ele>
        <time>2017-03-26T14:34:37Z</time>
      </trkpt>
      <trkpt lat="45.09637" lon="5.04542">
        <ele>151.4</ele>
        <time>2017-03-26T14:34:38Z</time>
      </trkpt>
      <trkpt lat="45.09647" lon="5.04539">
        <ele>151.85</ele>
        <time>2017-03-26T14:34:39Z</time>
      </trkpt>
      <trkpt lat="45.09658" lon="5.04535">
        <ele>151.95</ele>
        <time>2017-03-26T14:34:40Z</time>
      </trkpt>
      <trkpt lat="45.0967" lon="5.04531">
        <ele>152.04</ele>
        <time>2017-03-26T14:34:41Z</time>
      </trkpt>
      <trkpt lat="45.09682" lon="5.04527">
        <ele>152.46</ele>
        <time>2017-03-26T14:34:42Z</time>
      </trkpt>
      <trkpt lat="45.09694" lon="5.04523">
        <ele>153.03</ele>
        <time>2017-03-26T14:34:43Z</time>
      </trkpt>
      <trkpt lat="45.09706" lon="5.04519">
        <ele>153.38</ele>
        <time>2017-03-26T14:34:44Z</time>
      </trkpt>
      <trkpt lat="45.09718" lon="5.04514">
        <ele>153.61</ele>
        <time>2017-03-26T14:34:45Z</time>
      </trkpt>
      <trkpt lat="45.09731" lon="5.0451">
        <ele>153.98</ele>
        <time>2017-03-26T14:34:46Z</time>
      </trkpt>
      <trkpt lat="45.09744" lon="5.04506">
        <ele>154.21</ele>
        <time>2017-03-26T14:34:47Z</time>
      </trkpt>
      <trkpt lat="45.09756" lon="5.04503">
        <ele>154.66</ele>
        <time>2017-03-26T14:34:48Z</time>
      </trkpt>
      <trkpt lat="45.09769" lon="5.04499">
        <ele>154.99</ele>
        <time>2017-03-26T14:34:49Z</time>
      </trkpt>
      <trkpt lat="45.09782" lon="5.04495">
        <ele>155.53</ele>
        <time>2017-03-26T14:34:50Z</time>
      </trkpt>
      <trkpt lat="45.09794" lon="5.0449">
        <ele>155.72</ele>
        <time>2017-03-26T14:34:51Z</time>
      </trkpt>
      <trkpt lat="45.09805" lon="5.04486">
        <ele>156.08</ele>
        <time>2017-03-26T14:34:52Z</time>
      </trkpt>
      <trkpt lat="45.09814" lon="5.04481">
        <ele>155.99</ele>
        <time>2017-03-26T14:34:53Z</time>
      </trkpt>
      <trkpt lat="45.09821" lon="5.04476">
        <ele>156.13</ele>
        <time>2017-03-26T14:34:54Z</time>
      </trkpt>
      <trkpt lat="45.09827" lon="5.04472">
        <ele>156.24</ele>
        <time>2017-03-26T14:34:55Z</time>
      </trkpt>
      <trkpt lat="45.09831" lon="5.04468">
        <ele>156.42</ele>
        <time>2017-03-26T14:34:56Z</time>
      </trkpt>
      <trkpt lat="45.09833" lon="5.04464">
        <ele>156.38</ele>
        <time>2017-03-26T14:34:57Z</time>
      </trkpt>
      <trkpt lat="45.09834" lon="5.04462">
        <ele>156.37</ele>
        <time>2017-03-26T14:34:58Z</time>
      </trkpt>
      <trkpt lat="45.09833" lon="5.0446">
        <ele>156.53</ele>
        <time>2017-03-26T14:34:59Z</time>
      </trkpt>
      <trkpt lat="45.09831" lon="5.04459">
        <ele>156.88</ele>
        <time>2017-03-26T14:35:00Z</time>
      </trkpt>
      <trkpt lat="45.09826" lon="5.04459">
        <ele>157.43</ele>
        <time>2017-03-26T14:35:01Z</time>
      </trkpt>
      <trkpt lat="45.09825" lon="5.04461">
        <ele>157.7</ele>
        <time>2017-03-26T14:35:02Z</time>
      </trkpt>
      <trkpt lat="45.09824" lon="5.04465">
        <ele>157.75</ele>
        <time>2017-03-26T14:35:03Z</time>
      </trkpt>
      <trkpt lat="45.09823" lon="5.04467">
        <ele>157.85</ele>
        <time>2017-03-26T14:35:04Z</time>
      </trkpt>
      <trkpt lat="45.09822" lon="5.0447">
        <ele>157.78</ele>
        <time>2017-03-26T14:35:05Z</time>
      </trkpt>
      <trkpt lat="45.0982" lon="5.04473">
        <ele>157.69</ele>
        <time>2017-03-26T14:35:06Z</time>
      </trkpt>
      <trkpt lat="45.09818" lon="5.04475">
        <ele>157.59</ele>
        <time>2017-03-26T14:35:07Z</time>
      </trkpt>
      <trkpt lat="45.09814" lon="5.04477">
        <ele>157.41</ele>
        <time>2017-03-26T14:35:08Z</time>
      </trkpt>
      <trkpt lat="45.09809" lon="5.04479">
        <ele>157.54</ele>
        <time>2017-03-26T14:35:09Z</time>
      </trkpt>
      <trkpt lat="45.09803" lon="5.0448">
        <ele>157.64</ele>
        <time>2017-03-26T14:35:10Z</time>
      </trkpt>
      <trkpt lat="45.09796" lon="5.04482">
        <ele>157.42</ele>
        <time>2017-03-26T14:35:11Z</time>
      </trkpt>
      <trkpt lat="45.09789" lon="5.04485">
        <ele>157.38</ele>
        <time>2017-03-26T14:35:12Z</time>
      </trkpt>
      <trkpt lat="45.09782" lon="5.04486">
        <ele>157.53</ele>
        <time>2017-03-26T14:35:13Z</time>
      </trkpt>
      <trkpt lat="45.09774" lon="5.04488">
        <ele>157.72</ele>
        <time>2017-03-26T14:35:14Z</time>
      </trkpt>
      <trkpt lat="45.09767" lon="5.0449">
        <ele>157.92</ele>
        <time>2017-03-26T14:35:15Z</time>
      </trkpt>
      <trkpt lat="45.09759" lon="5.04492">
        <ele>158.2</ele>
        <time>2017-03-26T14:35:16Z</time>
      </trkpt>
      <trkpt lat="45.0975" lon="5.04494">
        <ele>158.25</ele>
        <time>2017-03-26T14:35:17Z</time>
      </trkpt>
      <trkpt lat="45.0974" lon="5.04496">
        <ele>158.19</ele>
        <time>2017-03-26T14:35:18Z</time>
      </trkpt>
      <trkpt lat="45.09729" lon="5.04498">
        <ele>158.17</ele>
        <time>2017-03-26T14:35:19Z</time>
      </trkpt>
      <trkpt lat="45.09717" lon="5.04502">
        <ele>158.09</ele>
        <time>2017-03-26T14:35:20Z</time>
      </trkpt>
      <trkpt lat="45.09705" lon="5.04505">
        <ele>158.15</ele>
        <time>2017-03-26T14:35:21Z</time>
      </trkpt>
      <trkpt lat="45.09693" lon="5.04509">
        <ele>158.16</ele>
        <time>2017-03-26T14:35:22Z</time>
      </trkpt>
      <trkpt lat="45.09681" lon="5.04512">
        <ele>158.25</ele>
        <time>2017-03-26T14:35:23Z</time>
      </trkpt>
      <trkpt lat="45.09669" lon="5.04516">
        <ele>158.1</ele>
        <time>2017-03-26T14:35:24Z</time>
      </trkpt>
      <trkpt lat="45.09657" lon="5.04519">
        <ele>158</ele>
        <time>2017-03-26T14:35:25Z</time>
      </trkpt>
      <trkpt lat="45.09646" lon="5.04521">
        <ele>158.05</ele>
        <time>2017-03-26T14:35:26Z</time>
      </trkpt>
      <trkpt lat="45.09637" lon="5.04523">
        <ele>158.07</ele>
        <time>2017-03-26T14:35:27Z</time>
      </trkpt>
      <trkpt lat="45.09628" lon="5.04525">
        <ele>158.07</ele>
        <time>2017-03-26T14:35:28Z</time>
      </trkpt>
      <trkpt lat="45.0962" lon="5.04528">
        <ele>158.23</ele>
        <time>2017-03-26T14:35:29Z</time>
      </trkpt>
      <trkpt lat="45.09613" lon="5.04531">
        <ele>157.94</ele>
        <time>2017-03-26T14:35:30Z</time>
      </trkpt>
      <trkpt lat="45.09605" lon="5.04534">
        <ele>157.64</ele>
        <time>2017-03-26T14:35:31Z</time>
      </trkpt>
      <trkpt lat="45.09598" lon="5.04539">
        <ele>157.26</ele>
        <time>2017-03-26T14:35:32Z</time>
      </trkpt>
      <trkpt lat="45.09592" lon="5.04547">
        <ele>156.95</ele>
        <time>2017-03-26T14:35:33Z</time>
      </trkpt>
      <trkpt lat="45.09587" lon="5.04557">
        <ele>156.72</ele>
        <time>2017-03-26T14:35:34Z</time>
      </trkpt>
      <trkpt lat="45.09582" lon="5.04565">
        <ele>156.44</ele>
        <time>2017-03-26T14:35:35Z</time>
      </trkpt>
      <trkpt lat="45.09576" lon="5.04574">
        <ele>156.14</ele>
        <time>2017-03-26T14:35:36Z</time>
      </trkpt>
      <trkpt lat="45.09572" lon="5.04583">
        <ele>156</ele>
        <time>2017-03-26T14:35:37Z</time>
      </trkpt>
      <trkpt lat="45.09567" lon="5.04592">
        <ele>155.89</ele>
        <time>2017-03-26T14:35:38Z</time>
      </trkpt>
      <trkpt lat="45.09562" lon="5.046">
        <ele>155.87</ele>
        <time>2017-03-26T14:35:39Z</time>
      </trkpt>
      <trkpt lat="45.09556" lon="5.04606">
        <ele>155.79</ele>
        <time>2017-03-26T14:35:40Z</time>
      </trkpt>
      <trkpt lat="45.09549" lon="5.04612">
        <ele>155.69</ele>
        <time>2017-03-26T14:35:41Z</time>
      </trkpt>
      <trkpt lat="45.09541" lon="5.04619">
        <ele>155.67</ele>
        <time>2017-03-26T14:35:42Z</time>
      </trkpt>
      <trkpt lat="45.09533" lon="5.04625">
        <ele>155.67</ele>
        <time>2017-03-26T14:35:43Z</time>
      </trkpt>
      <trkpt lat="45.09525" lon="5.04632">
        <ele>155.67</ele>
        <time>2017-03-26T14:35:44Z</time>
      </trkpt>
      <trkpt lat="45.09515" lon="5.04638">
        <ele>155.51</ele>
        <time>2017-03-26T14:35:45Z</time>
      </trkpt>
      <trkpt lat="45.09504" lon="5.04643">
        <ele>155.4</ele>
        <time>2017-03-26T14:35:46Z</time>
      </trkpt>
      <trkpt lat="45.09495" lon="5.04648">
        <ele>155.37</ele>
        <time>2017-03-26T14:35:47Z</time>
      </trkpt>
      <trkpt lat="45.09485" lon="5.04651">
        <ele>155.29</ele>
        <time>2017-03-26T14:35:48Z</time>
      </trkpt>
      <trkpt lat="45.09477" lon="5.04655">
        <ele>155.27</ele>
        <time>2017-03-26T14:35:49Z</time>
      </trkpt>
      <trkpt lat="45.09467" lon="5.04659">
        <ele>155.19</ele>
        <time>2017-03-26T14:35:50Z</time>
      </trkpt>
      <trkpt lat="45.09458" lon="5.04663">
        <ele>155.17</ele>
        <time>2017-03-26T14:35:51Z</time>
      </trkpt>
      <trkpt lat="45.09449" lon="5.04667">
        <ele>155.09</ele>
        <time>2017-03-26T14:35:52Z</time>
      </trkpt>
      <trkpt lat="45.0944" lon="5.0467">
        <ele>154.99</ele>
        <time>2017-03-26T14:35:53Z</time>
      </trkpt>
      <trkpt lat="45.09431" lon="5.04674">
        <ele>154.81</ele>
        <time>2017-03-26T14:35:54Z</time>
      </trkpt>
      <trkpt lat="45.09423" lon="5.04677">
        <ele>154.7</ele>
        <time>2017-03-26T14:35:55Z</time>
      </trkpt>
      <trkpt lat="45.09414" lon="5.0468">
        <ele>154.51</ele>
        <time>2017-03-26T14:35:56Z</time>
      </trkpt>
      <trkpt lat="45.09407" lon="5.04683">
        <ele>154.32</ele>
        <time>2017-03-26T14:35:57Z</time>
      </trkpt>
      <trkpt lat="45.09399" lon="5.04687">
        <ele>154.2</ele>
        <time>2017-03-26T14:35:58Z</time>
      </trkpt>
      <trkpt lat="45.09392" lon="5.04691">
        <ele>154.01</ele>
        <time>2017-03-26T14:35:59Z</time>
      </trkpt>
      <trkpt lat="45.09385" lon="5.04693">
        <ele>153.74</ele>
        <time>2017-03-26T14:36:00Z</time>
      </trkpt>
      <trkpt lat="45.0938" lon="5.04696">
        <ele>153.6</ele>
        <time>2017-03-26T14:36:01Z</time>
      </trkpt>
      <trkpt lat="45.09375" lon="5.047">
        <ele>153.49</ele>
        <time>2017-03-26T14:36:02Z</time>
      </trkpt>
      <trkpt lat="45.09371" lon="5.04702">
        <ele>153.23</ele>
        <time>2017-03-26T14:36:03Z</time>
      </trkpt>
      <trkpt lat="45.09366" lon="5.04703">
        <ele>153.02</ele>
        <time>2017-03-26T14:36:04Z</time>
      </trkpt>
      <trkpt lat="45.0936" lon="5.04707">
        <ele>152.66</ele>
        <time>2017-03-26T14:36:05Z</time>
      </trkpt>
      <trkpt lat="45.09355" lon="5.04711">
        <ele>152.27</ele>
        <time>2017-03-26T14:36:06Z</time>
      </trkpt>
      <trkpt lat="45.09349" lon="5.04716">
        <ele>152.03</ele>
        <time>2017-03-26T14:36:07Z</time>
      </trkpt>
      <trkpt lat="45.09342" lon="5.04722">
        <ele>151.9</ele>
        <time>2017-03-26T14:36:08Z</time>
      </trkpt>
      <trkpt lat="45.09335" lon="5.04729">
        <ele>151.71</ele>
        <time>2017-03-26T14:36:09Z</time>
      </trkpt>
      <trkpt lat="45.09328" lon="5.04736">
        <ele>151.44</ele>
        <time>2017-03-26T14:36:10Z</time>
      </trkpt>
      <trkpt lat="45.0932" lon="5.04742">
        <ele>151.14</ele>
        <time>2017-03-26T14:36:11Z</time>
      </trkpt>
      <trkpt lat="45.09313" lon="5.04749">
        <ele>150.92</ele>
        <time>2017-03-26T14:36:12Z</time>
      </trkpt>
      <trkpt lat="45.09308" lon="5.04757">
        <ele>150.88</ele>
        <time>2017-03-26T14:36:13Z</time>
      </trkpt>
      <trkpt lat="45.09305" lon="5.04765">
        <ele>150.71</ele>
        <time>2017-03-26T14:36:14Z</time>
      </trkpt>
      <trkpt lat="45.09302" lon="5.04773">
        <ele>150.68</ele>
        <time>2017-03-26T14:36:15Z</time>
      </trkpt>
      <trkpt lat="45.09301" lon="5.04781">
        <ele>150.59</ele>
        <time>2017-03-26T14:36:16Z</time>
      </trkpt>
      <trkpt lat="45.09302" lon="5.0479">
        <ele>150.41</ele>
        <time>2017-03-26T14:36:17Z</time>
      </trkpt>
      <trkpt lat="45.09303" lon="5.04798">
        <ele>150.3</ele>
        <time>2017-03-26T14:36:18Z</time>
      </trkpt>
      <trkpt lat="45.09302" lon="5.04805">
        <ele>150.27</ele>
        <time>2017-03-26T14:36:19Z</time>
      </trkpt>
      <trkpt lat="45.09302" lon="5.04811">
        <ele>150.19</ele>
        <time>2017-03-26T14:36:20Z</time>
      </trkpt>
      <trkpt lat="45.09302" lon="5.04815">
        <ele>150.17</ele>
        <time>2017-03-26T14:36:21Z</time>
      </trkpt>
      <trkpt lat="45.09302" lon="5.04818">
        <ele>150.09</ele>
        <time>2017-03-26T14:36:22Z</time>
      </trkpt>
      <trkpt lat="45.09302" lon="5.04822">
        <ele>149.99</ele>
        <time>2017-03-26T14:36:23Z</time>
      </trkpt>
      <trkpt lat="45.09302" lon="5.04827">
        <ele>149.89</ele>
        <time>2017-03-26T14:36:24Z</time>
      </trkpt>
      <trkpt lat="45.09301" lon="5.04833">
        <ele>149.79</ele>
        <time>2017-03-26T14:36:25Z</time>
      </trkpt>
      <trkpt lat="45.09299" lon="5.0484">
        <ele>149.61</ele>
        <time>2017-03-26T14:36:26Z</time>
      </trkpt>
      <trkpt lat="45.09298" lon="5.04848">
        <ele>149.5</ele>
        <time>2017-03-26T14:36:27Z</time>
      </trkpt>
      <trkpt lat="45.09297" lon="5.04855">
        <ele>149.55</ele>
        <time>2017-03-26T14:36:28Z</time>
      </trkpt>
      <trkpt lat="45.09296" lon="5.04863">
        <ele>149.57</ele>
        <time>2017-03-26T14:36:29Z</time>
      </trkpt>
      <trkpt lat="45.09294" lon="5.04871">
        <ele>149.49</ele>
        <time>2017-03-26T14:36:30Z</time>
      </trkpt>
      <trkpt lat="45.09291" lon="5.04879">
        <ele>149.31</ele>
        <time>2017-03-26T14:36:31Z</time>
      </trkpt>
      <trkpt lat="45.09288" lon="5.04888">
        <ele>149.12</ele>
        <time>2017-03-26T14:36:32Z</time>
      </trkpt>
      <trkpt lat="45.09286" lon="5.04899">
        <ele>148.92</ele>
        <time>2017-03-26T14:36:33Z</time>
      </trkpt>
      <trkpt lat="45.09282" lon="5.04911">
        <ele>148.8</ele>
        <time>2017-03-26T14:36:34Z</time>
      </trkpt>
      <trkpt lat="45.09277" lon="5.04921">
        <ele>148.69</ele>
        <time>2017-03-26T14:36:35Z</time>
      </trkpt>
      <trkpt lat="45.09272" lon="5.04932">
        <ele>148.67</ele>
        <time>2017-03-26T14:36:36Z</time>
      </trkpt>
      <trkpt lat="45.09266" lon="5.04944">
        <ele>148.75</ele>
        <time>2017-03-26T14:36:37Z</time>
      </trkpt>
      <trkpt lat="45.0926" lon="5.04956">
        <ele>148.76</ele>
        <time>2017-03-26T14:36:38Z</time>
      </trkpt>
      <trkpt lat="45.09253" lon="5.04968">
        <ele>148.85</ele>
        <time>2017-03-26T14:36:39Z</time>
      </trkpt>
      <trkpt lat="45.09246" lon="5.04983">
        <ele>149.1</ele>
        <time>2017-03-26T14:36:40Z</time>
      </trkpt>
      <trkpt lat="45.0924" lon="5.04998">
        <ele>149.32</ele>
        <time>2017-03-26T14:36:41Z</time>
      </trkpt>
      <trkpt lat="45.09236" lon="5.05013">
        <ele>149.52</ele>
        <time>2017-03-26T14:36:42Z</time>
      </trkpt>
      <trkpt lat="45.09235" lon="5.05031">
        <ele>149.8</ele>
        <time>2017-03-26T14:36:43Z</time>
      </trkpt>
      <trkpt lat="45.09239" lon="5.05052">
        <ele>150.01</ele>
        <time>2017-03-26T14:36:44Z</time>
      </trkpt>
      <trkpt lat="45.09243" lon="5.05074">
        <ele>150.22</ele>
        <time>2017-03-26T14:36:45Z</time>
      </trkpt>
      <trkpt lat="45.09248" lon="5.05096">
        <ele>150.42</ele>
        <time>2017-03-26T14:36:46Z</time>
      </trkpt>
      <trkpt lat="45.09254" lon="5.05118">
        <ele>150.62</ele>
        <time>2017-03-26T14:36:47Z</time>
      </trkpt>
      <trkpt lat="45.09262" lon="5.05141">
        <ele>150.74</ele>
        <time>2017-03-26T14:36:48Z</time>
      </trkpt>
      <trkpt lat="45.09271" lon="5.05165">
        <ele>150.84</ele>
        <time>2017-03-26T14:36:49Z</time>
      </trkpt>
      <trkpt lat="45.09283" lon="5.05189">
        <ele>150.94</ele>
        <time>2017-03-26T14:36:50Z</time>
      </trkpt>
      <trkpt lat="45.09297" lon="5.05211">
        <ele>151.04</ele>
        <time>2017-03-26T14:36:51Z</time>
      </trkpt>
      <trkpt lat="45.09311" lon="5.05234">
        <ele>151.22</ele>
        <time>2017-03-26T14:36:52Z</time>
      </trkpt>
      <trkpt lat="45.09326" lon="5.05256">
        <ele>151.34</ele>
        <time>2017-03-26T14:36:53Z</time>
      </trkpt>
      <trkpt lat="45.09342" lon="5.05279">
        <ele>151.28</ele>
        <time>2017-03-26T14:36:54Z</time>
      </trkpt>
      <trkpt lat="45.09358" lon="5.05303">
        <ele>151.19</ele>
        <time>2017-03-26T14:36:55Z</time>
      </trkpt>
      <trkpt lat="45.09372" lon="5.05327">
        <ele>151.17</ele>
        <time>2017-03-26T14:36:56Z</time>
      </trkpt>
      <trkpt lat="45.09386" lon="5.05351">
        <ele>151.17</ele>
        <time>2017-03-26T14:36:57Z</time>
      </trkpt>
      <trkpt lat="45.09398" lon="5.05378">
        <ele>151.01</ele>
        <time>2017-03-26T14:36:58Z</time>
      </trkpt>
      <trkpt lat="45.09413" lon="5.05406">
        <ele>150.34</ele>
        <time>2017-03-26T14:36:59Z</time>
      </trkpt>
      <trkpt lat="45.09422" lon="5.05433">
        <ele>150.2</ele>
        <time>2017-03-26T14:37:00Z</time>
      </trkpt>
      <trkpt lat="45.09428" lon="5.05462">
        <ele>150.25</ele>
        <time>2017-03-26T14:37:01Z</time>
      </trkpt>
      <trkpt lat="45.09433" lon="5.05492">
        <ele>150.51</ele>
        <time>2017-03-26T14:37:02Z</time>
      </trkpt>
      <trkpt lat="45.09436" lon="5.05522">
        <ele>150.72</ele>
        <time>2017-03-26T14:37:03Z</time>
      </trkpt>
      <trkpt lat="45.09438" lon="5.05553">
        <ele>151.24</ele>
        <time>2017-03-26T14:37:04Z</time>
      </trkpt>
      <trkpt lat="45.09439" lon="5.05582">
        <ele>151.58</ele>
        <time>2017-03-26T14:37:05Z</time>
      </trkpt>
      <trkpt lat="45.0944" lon="5.0561">
        <ele>151.97</ele>
        <time>2017-03-26T14:37:06Z</time>
      </trkpt>
      <trkpt lat="45.0944" lon="5.05638">
        <ele>151.81</ele>
        <time>2017-03-26T14:37:07Z</time>
      </trkpt>
      <trkpt lat="45.09439" lon="5.05666">
        <ele>151.54</ele>
        <time>2017-03-26T14:37:08Z</time>
      </trkpt>
      <trkpt lat="45.09436" lon="5.05694">
        <ele>151.4</ele>
        <time>2017-03-26T14:37:09Z</time>
      </trkpt>
      <trkpt lat="45.09433" lon="5.05722">
        <ele>151.05</ele>
        <time>2017-03-26T14:37:10Z</time>
      </trkpt>
      <trkpt lat="45.09428" lon="5.05749">
        <ele>150.83</ele>
        <time>2017-03-26T14:37:11Z</time>
      </trkpt>
      <trkpt lat="45.09423" lon="5.05778">
        <ele>150.62</ele>
        <time>2017-03-26T14:37:12Z</time>
      </trkpt>
      <trkpt lat="45.09416" lon="5.05806">
        <ele>150.26</ele>
        <time>2017-03-26T14:37:13Z</time>
      </trkpt>
      <trkpt lat="45.09408" lon="5.05834">
        <ele>150.11</ele>
        <time>2017-03-26T14:37:14Z</time>
      </trkpt>
      <trkpt lat="45.09401" lon="5.05862">
        <ele>150.08</ele>
        <time>2017-03-26T14:37:15Z</time>
      </trkpt>
      <trkpt lat="45.09395" lon="5.0589">
        <ele>150.07</ele>
        <time>2017-03-26T14:37:16Z</time>
      </trkpt>
      <trkpt lat="45.09388" lon="5.05918">
        <ele>150.07</ele>
        <time>2017-03-26T14:37:17Z</time>
      </trkpt>
      <trkpt lat="45.09383" lon="5.05947">
        <ele>150.15</ele>
        <time>2017-03-26T14:37:18Z</time>
      </trkpt>
      <trkpt lat="45.09379" lon="5.05975">
        <ele>150.16</ele>
        <time>2017-03-26T14:37:19Z</time>
      </trkpt>
      <trkpt lat="45.09375" lon="5.06004">
        <ele>150.17</ele>
        <time>2017-03-26T14:37:20Z</time>
      </trkpt>
      <trkpt lat="45.09373" lon="5.06033">
        <ele>150.25</ele>
        <time>2017-03-26T14:37:21Z</time>
      </trkpt>
      <trkpt lat="45.0937" lon="5.06062">
        <ele>150.34</ele>
        <time>2017-03-26T14:37:22Z</time>
      </trkpt>
      <trkpt lat="45.09368" lon="5.06091">
        <ele>150.44</ele>
        <time>2017-03-26T14:37:23Z</time>
      </trkpt>
      <trkpt lat="45.09367" lon="5.06121">
        <ele>150.62</ele>
        <time>2017-03-26T14:37:24Z</time>
      </trkpt>
      <trkpt lat="45.09367" lon="5.06151">
        <ele>150.82</ele>
        <time>2017-03-26T14:37:25Z</time>
      </trkpt>
      <trkpt lat="45.09367" lon="5.06181">
        <ele>150.94</ele>
        <time>2017-03-26T14:37:26Z</time>
      </trkpt>
      <trkpt lat="45.09368" lon="5.06211">
        <ele>151.12</ele>
        <time>2017-03-26T14:37:27Z</time>
      </trkpt>
      <trkpt lat="45.09368" lon="5.0624">
        <ele>151.24</ele>
        <time>2017-03-26T14:37:28Z</time>
      </trkpt>
      <trkpt lat="45.09369" lon="5.06268">
        <ele>151.26</ele>
        <time>2017-03-26T14:37:29Z</time>
      </trkpt>
      <trkpt lat="45.0937" lon="5.06295">
        <ele>151.19</ele>
        <time>2017-03-26T14:37:30Z</time>
      </trkpt>
      <trkpt lat="45.09371" lon="5.06321">
        <ele>151.17</ele>
        <time>2017-03-26T14:37:31Z</time>
      </trkpt>
      <trkpt lat="45.09371" lon="5.06346">
        <ele>151.25</ele>
        <time>2017-03-26T14:37:32Z</time>
      </trkpt>
      <trkpt lat="45.09371" lon="5.06371">
        <ele>151.34</ele>
        <time>2017-03-26T14:37:33Z</time>
      </trkpt>
      <trkpt lat="45.09372" lon="5.06395">
        <ele>151.44</ele>
        <time>2017-03-26T14:37:34Z</time>
      </trkpt>
      <trkpt lat="45.09372" lon="5.0642">
        <ele>151.62</ele>
        <time>2017-03-26T14:37:35Z</time>
      </trkpt>
      <trkpt lat="45.09373" lon="5.06446">
        <ele>151.74</ele>
        <time>2017-03-26T14:37:36Z</time>
      </trkpt>
      <trkpt lat="45.09375" lon="5.06472">
        <ele>151.84</ele>
        <time>2017-03-26T14:37:37Z</time>
      </trkpt>
      <trkpt lat="45.09377" lon="5.06497">
        <ele>151.7</ele>
        <time>2017-03-26T14:37:38Z</time>
      </trkpt>
      <trkpt lat="45.09379" lon="5.06523">
        <ele>151.67</ele>
        <time>2017-03-26T14:37:39Z</time>
      </trkpt>
      <trkpt lat="45.0938" lon="5.06549">
        <ele>151.51</ele>
        <time>2017-03-26T14:37:40Z</time>
      </trkpt>
      <trkpt lat="45.09382" lon="5.06576">
        <ele>151.32</ele>
        <time>2017-03-26T14:37:41Z</time>
      </trkpt>
      <trkpt lat="45.09382" lon="5.06603">
        <ele>151.2</ele>
        <time>2017-03-26T14:37:42Z</time>
      </trkpt>
      <trkpt lat="45.09381" lon="5.06629">
        <ele>151.09</ele>
        <time>2017-03-26T14:37:43Z</time>
      </trkpt>
      <trkpt lat="45.0938" lon="5.06656">
        <ele>151.07</ele>
        <time>2017-03-26T14:37:44Z</time>
      </trkpt>
      <trkpt lat="45.09379" lon="5.06683">
        <ele>151.07</ele>
        <time>2017-03-26T14:37:45Z</time>
      </trkpt>
      <trkpt lat="45.09378" lon="5.06709">
        <ele>151.15</ele>
        <time>2017-03-26T14:37:46Z</time>
      </trkpt>
      <trkpt lat="45.09377" lon="5.06735">
        <ele>151.32</ele>
        <time>2017-03-26T14:37:47Z</time>
      </trkpt>
      <trkpt lat="45.09376" lon="5.06761">
        <ele>151.6</ele>
        <time>2017-03-26T14:37:48Z</time>
      </trkpt>
      <trkpt lat="45.09375" lon="5.06788">
        <ele>151.89</ele>
        <time>2017-03-26T14:37:49Z</time>
      </trkpt>
      <trkpt lat="45.09376" lon="5.06815">
        <ele>152.03</ele>
        <time>2017-03-26T14:37:50Z</time>
      </trkpt>
      <trkpt lat="45.09376" lon="5.06843">
        <ele>152.14</ele>
        <time>2017-03-26T14:37:51Z</time>
      </trkpt>
      <trkpt lat="45.09377" lon="5.06872">
        <ele>152.32</ele>
        <time>2017-03-26T14:37:52Z</time>
      </trkpt>
      <trkpt lat="45.09378" lon="5.069">
        <ele>152.6</ele>
        <time>2017-03-26T14:37:53Z</time>
      </trkpt>
      <trkpt lat="45.09379" lon="5.06929">
        <ele>152.97</ele>
        <time>2017-03-26T14:37:54Z</time>
      </trkpt>
      <trkpt lat="45.0938" lon="5.06957">
        <ele>153.69</ele>
        <time>2017-03-26T14:37:55Z</time>
      </trkpt>
      <trkpt lat="45.09382" lon="5.06985">
        <ele>154.63</ele>
        <time>2017-03-26T14:37:56Z</time>
      </trkpt>
      <trkpt lat="45.09383" lon="5.07013">
        <ele>155.14</ele>
        <time>2017-03-26T14:37:57Z</time>
      </trkpt>
      <trkpt lat="45.09385" lon="5.0704">
        <ele>156.12</ele>
        <time>2017-03-26T14:37:58Z</time>
      </trkpt>
      <trkpt lat="45.09386" lon="5.07068">
        <ele>156.96</ele>
        <time>2017-03-26T14:37:59Z</time>
      </trkpt>
      <trkpt lat="45.09388" lon="5.07094">
        <ele>157.45</ele>
        <time>2017-03-26T14:38:00Z</time>
      </trkpt>
      <trkpt lat="45.09389" lon="5.07119">
        <ele>158.02</ele>
        <time>2017-03-26T14:38:01Z</time>
      </trkpt>
      <trkpt lat="45.09391" lon="5.07143">
        <ele>158.46</ele>
        <time>2017-03-26T14:38:02Z</time>
      </trkpt>
      <trkpt lat="45.09393" lon="5.07166">
        <ele>159.03</ele>
        <time>2017-03-26T14:38:03Z</time>
      </trkpt>
      <trkpt lat="45.09392" lon="5.07187">
        <ele>159.38</ele>
        <time>2017-03-26T14:38:04Z</time>
      </trkpt>
      <trkpt lat="45.0939" lon="5.07207">
        <ele>159.77</ele>
        <time>2017-03-26T14:38:05Z</time>
      </trkpt>
      <trkpt lat="45.09388" lon="5.07225">
        <ele>159.85</ele>
        <time>2017-03-26T14:38:06Z</time>
      </trkpt>
      <trkpt lat="45.09388" lon="5.07241">
        <ele>159.94</ele>
        <time>2017-03-26T14:38:07Z</time>
      </trkpt>
      <trkpt lat="45.09385" lon="5.07257">
        <ele>159.96</ele>
        <time>2017-03-26T14:38:08Z</time>
      </trkpt>
      <trkpt lat="45.09377" lon="5.07271">
        <ele>160.05</ele>
        <time>2017-03-26T14:38:09Z</time>
      </trkpt>
      <trkpt lat="45.09365" lon="5.07283">
        <ele>160.3</ele>
        <time>2017-03-26T14:38:10Z</time>
      </trkpt>
      <trkpt lat="45.09353" lon="5.07297">
        <ele>160.6</ele>
        <time>2017-03-26T14:38:11Z</time>
      </trkpt>
      <trkpt lat="45.09341" lon="5.07313">
        <ele>160.81</ele>
        <time>2017-03-26T14:38:12Z</time>
      </trkpt>
      <trkpt lat="45.09325" lon="5.07329">
        <ele>161.18</ele>
        <time>2017-03-26T14:38:13Z</time>
      </trkpt>
      <trkpt lat="45.09314" lon="5.07349">
        <ele>161.09</ele>
        <time>2017-03-26T14:38:14Z</time>
      </trkpt>
      <trkpt lat="45.09299" lon="5.07367">
        <ele>161.23</ele>
        <time>2017-03-26T14:38:15Z</time>
      </trkpt>
      <trkpt lat="45.09287" lon="5.07385">
        <ele>161.02</ele>
        <time>2017-03-26T14:38:16Z</time>
      </trkpt>
      <trkpt lat="45.09277" lon="5.07404">
        <ele>160.82</ele>
        <time>2017-03-26T14:38:17Z</time>
      </trkpt>
      <trkpt lat="45.09267" lon="5.07422">
        <ele>160.54</ele>
        <time>2017-03-26T14:38:18Z</time>
      </trkpt>
      <trkpt lat="45.09257" lon="5.07441">
        <ele>160.32</ele>
        <time>2017-03-26T14:38:19Z</time>
      </trkpt>
      <trkpt lat="45.09247" lon="5.07459">
        <ele>160.12</ele>
        <time>2017-03-26T14:38:20Z</time>
      </trkpt>
      <trkpt lat="45.09238" lon="5.07477">
        <ele>160.24</ele>
        <time>2017-03-26T14:38:21Z</time>
      </trkpt>
      <trkpt lat="45.09229" lon="5.07495">
        <ele>160.34</ele>
        <time>2017-03-26T14:38:22Z</time>
      </trkpt>
      <trkpt lat="45.0922" lon="5.07513">
        <ele>160.6</ele>
        <time>2017-03-26T14:38:23Z</time>
      </trkpt>
      <trkpt lat="45.0921" lon="5.07531">
        <ele>160.65</ele>
        <time>2017-03-26T14:38:24Z</time>
      </trkpt>
      <trkpt lat="45.09201" lon="5.07548">
        <ele>160.67</ele>
        <time>2017-03-26T14:38:25Z</time>
      </trkpt>
      <trkpt lat="45.09191" lon="5.07566">
        <ele>160.75</ele>
        <time>2017-03-26T14:38:26Z</time>
      </trkpt>
      <trkpt lat="45.09182" lon="5.07583">
        <ele>160.84</ele>
        <time>2017-03-26T14:38:27Z</time>
      </trkpt>
      <trkpt lat="45.09173" lon="5.076">
        <ele>160.94</ele>
        <time>2017-03-26T14:38:28Z</time>
      </trkpt>
      <trkpt lat="45.09165" lon="5.07616">
        <ele>161.12</ele>
        <time>2017-03-26T14:38:29Z</time>
      </trkpt>
      <trkpt lat="45.09157" lon="5.07632">
        <ele>161.16</ele>
        <time>2017-03-26T14:38:30Z</time>
      </trkpt>
      <trkpt lat="45.09149" lon="5.07646">
        <ele>161.25</ele>
        <time>2017-03-26T14:38:31Z</time>
      </trkpt>
      <trkpt lat="45.0914" lon="5.07658">
        <ele>162.38</ele>
        <time>2017-03-26T14:38:32Z</time>
      </trkpt>
      <trkpt lat="45.09133" lon="5.07668">
        <ele>162.69</ele>
        <time>2017-03-26T14:38:33Z</time>
      </trkpt>
      <trkpt lat="45.09128" lon="5.07675">
        <ele>162.59</ele>
        <time>2017-03-26T14:38:34Z</time>
      </trkpt>
      <trkpt lat="45.09122" lon="5.07682">
        <ele>163.45</ele>
        <time>2017-03-26T14:38:35Z</time>
      </trkpt>
      <trkpt lat="45.09118" lon="5.07689">
        <ele>164.26</ele>
        <time>2017-03-26T14:38:36Z</time>
      </trkpt>
      <trkpt lat="45.09116" lon="5.07695">
        <ele>164.83</ele>
        <time>2017-03-26T14:38:37Z</time>
      </trkpt>
      <trkpt lat="45.09116" lon="5.07697">
        <ele>165.1</ele>
        <time>2017-03-26T14:38:38Z</time>
      </trkpt>
      <trkpt lat="45.09115" lon="5.077">
        <ele>165.47</ele>
        <time>2017-03-26T14:38:39Z</time>
      </trkpt>
      <trkpt lat="45.09115" lon="5.07701">
        <ele>165.71</ele>
        <time>2017-03-26T14:38:40Z</time>
      </trkpt>
      <trkpt lat="45.09116" lon="5.07702">
        <ele>165.84</ele>
        <time>2017-03-26T14:38:41Z</time>
      </trkpt>
      <trkpt lat="45.09117" lon="5.07701">
        <ele>165.94</ele>
        <time>2017-03-26T14:38:42Z</time>
      </trkpt>
      <trkpt lat="45.09121" lon="5.07696">
        <ele>166.92</ele>
        <time>2017-03-26T14:38:43Z</time>
      </trkpt>
      <trkpt lat="45.09121" lon="5.07696">
        <ele>167.12</ele>
        <time>2017-03-26T14:38:44Z</time>
      </trkpt>
      <trkpt lat="45.09121" lon="5.07696">
        <ele>167.16</ele>
        <time>2017-03-26T14:38:45Z</time>
      </trkpt>
      <trkpt lat="45.09121" lon="5.07696">
        <ele>167.17</ele>
        <time>2017-03-26T14:38:46Z</time>
      </trkpt>
      <trkpt lat="45.09121" lon="5.07696">
        <ele>167.17</ele>
        <time>2017-03-26T14:38:47Z</time>
      </trkpt>
      <trkpt lat="45.09121" lon="5.07696">
        <ele>167.17</ele>
        <time>2017-03-26T14:38:48Z</time>
      </trkpt>
      <trkpt lat="45.09121" lon="5.07696">
        <ele>167.17</ele>
        <time>2017-03-26T14:38:49Z</time>
      </trkpt>
      <trkpt lat="45.09121" lon="5.07696">
        <ele>167.17</ele>
        <time>2017-03-26T14:38:50Z</time>
      </trkpt>
      <trkpt lat="45.09121" lon="5.07696">
        <ele>167.17</ele>
        <time>2017-03-26T14:38:51Z</time>
      </trkpt>
      <trkpt lat="45.09121" lon="5.07696">
        <ele>167.17</ele>
        <time>2017-03-26T14:38:52Z</time>
      </trkpt>
      <trkpt lat="45.09121" lon="5.07696">
        <ele>167.17</ele>
        <time>2017-03-26T14:38:53Z</time>
      </trkpt>
      <trkpt lat="45.09121" lon="5.07696">
        <ele>167.17</ele>
        <time>2017-03-26T14:38:54Z</time>
      </trkpt>
      <trkpt lat="45.09121" lon="5.07696">
        <ele>167.17</ele>
        <time>2017-03-26T14:38:55Z</time>
      </trkpt>
      <trkpt lat="45.09121" lon="5.07696">
        <ele>167.17</ele>
        <time>2017-03-26T14:38:56Z</time>
      </trkpt>
      <trkpt lat="45.09121" lon="5.07696">
        <ele>167.17</ele>
        <time>2017-03-26T14:38:57Z</time>
      </trkpt>
      <trkpt lat="45.09121" lon="5.07696">
        <ele>167.17</ele>
        <time>2017-03-26T14:38:58Z</time>
      </trkpt>
      <trkpt lat="45.09121" lon="5.07696">
        <ele>167.17</ele>
        <time>2017-03-26T14:38:59Z</time>
      </trkpt>
      <trkpt lat="45.09121" lon="5.07696">
        <ele>167.17</ele>
        <time>2017-03-26T14:39:00Z</time>
      </trkpt>
      <trkpt lat="45.09121" lon="5.07696">
        <ele>167.17</ele>
        <time>2017-03-26T14:39:01Z</time>
      </trkpt>
      <trkpt lat="45.09121" lon="5.07696">
        <ele>167.17</ele>
        <time>2017-03-26T14:39:02Z</time>
      </trkpt>
      <trkpt lat="45.09121" lon="5.07696">
        <ele>167.17</ele>
        <time>2017-03-26T14:39:03Z</time>
      </trkpt>
      <trkpt lat="45.09121" lon="5.07696">
        <ele>167.17</ele>
        <time>2017-03-26T14:39:04Z</time>
      </trkpt>
      <trkpt lat="45.09121" lon="5.07696">
        <ele>167.17</ele>
        <time>2017-03-26T14:39:05Z</time>
      </trkpt>
      <trkpt lat="45.09126" lon="5.07692">
        <ele>167.57</ele>
        <time>2017-03-26T14:39:06Z</time>
      </trkpt>
      <trkpt lat="45.09132" lon="5.07691">
        <ele>167.65</ele>
        <time>2017-03-26T14:39:07Z</time>
      </trkpt>
      <trkpt lat="45.09139" lon="5.07689">
        <ele>167.58</ele>
        <time>2017-03-26T14:39:08Z</time>
      </trkpt>
      <trkpt lat="45.09146" lon="5.07686">
        <ele>167.49</ele>
        <time>2017-03-26T14:39:09Z</time>
      </trkpt>
      <trkpt lat="45.09156" lon="5.07684">
        <ele>167.55</ele>
        <time>2017-03-26T14:39:10Z</time>
      </trkpt>
      <trkpt lat="45.09166" lon="5.07682">
        <ele>167.64</ele>
        <time>2017-03-26T14:39:11Z</time>
      </trkpt>
      <trkpt lat="45.09176" lon="5.0768">
        <ele>167.74</ele>
        <time>2017-03-26T14:39:12Z</time>
      </trkpt>
      <trkpt lat="45.09187" lon="5.07678">
        <ele>167.92</ele>
        <time>2017-03-26T14:39:13Z</time>
      </trkpt>
      <trkpt lat="45.09199" lon="5.07677">
        <ele>168.04</ele>
        <time>2017-03-26T14:39:14Z</time>
      </trkpt>
      <trkpt lat="45.0921" lon="5.07676">
        <ele>167.82</ele>
        <time>2017-03-26T14:39:15Z</time>
      </trkpt>
      <trkpt lat="45.09221" lon="5.07676">
        <ele>167.78</ele>
        <time>2017-03-26T14:39:16Z</time>
      </trkpt>
      <trkpt lat="45.09232" lon="5.07677">
        <ele>167.77</ele>
        <time>2017-03-26T14:39:17Z</time>
      </trkpt>
      <trkpt lat="45.09243" lon="5.07679">
        <ele>167.77</ele>
        <time>2017-03-26T14:39:18Z</time>
      </trkpt>
      <trkpt lat="45.09253" lon="5.07681">
        <ele>167.69</ele>
        <time>2017-03-26T14:39:19Z</time>
      </trkpt>
      <trkpt lat="45.09263" lon="5.07683">
        <ele>167.59</ele>
        <time>2017-03-26T14:39:20Z</time>
      </trkpt>
      <trkpt lat="45.09273" lon="5.07686">
        <ele>167.49</ele>
        <time>2017-03-26T14:39:21Z</time>
      </trkpt>
      <trkpt lat="45.09282" lon="5.0769">
        <ele>167.71</ele>
        <time>2017-03-26T14:39:22Z</time>
      </trkpt>
      <trkpt lat="45.09291" lon="5.07694">
        <ele>168.16</ele>
        <time>2017-03-26T14:39:23Z</time>
      </trkpt>
      <trkpt lat="45.093" lon="5.07698">
        <ele>168.41</ele>
        <time>2017-03-26T14:39:24Z</time>
      </trkpt>
      <trkpt lat="45.09309" lon="5.07701">
        <ele>168.7</ele>
        <time>2017-03-26T14:39:25Z</time>
      </trkpt>
      <trkpt lat="45.09317" lon="5.07704">
        <ele>168.91</ele>
        <time>2017-03-26T14:39:26Z</time>
      </trkpt>
      <trkpt lat="45.09325" lon="5.07705">
        <ele>169.6</ele>
        <time>2017-03-26T14:39:27Z</time>
      </trkpt>
      <trkpt lat="45.09333" lon="5.07706">
        <ele>169.65</ele>
        <time>2017-03-26T14:39:28Z</time>
      </trkpt>
      <trkpt lat="45.0934" lon="5.07707">
        <ele>169.67</ele>
        <time>2017-03-26T14:39:29Z</time>
      </trkpt>
      <trkpt lat="45.09348" lon="5.07708">
        <ele>169.75</ele>
        <time>2017-03-26T14:39:30Z</time>
      </trkpt>
      <trkpt lat="45.09356" lon="5.07709">
        <ele>169.68</ele>
        <time>2017-03-26T14:39:31Z</time>
      </trkpt>
      <trkpt lat="45.09364" lon="5.0771">
        <ele>169.59</ele>
        <time>2017-03-26T14:39:32Z</time>
      </trkpt>
      <trkpt lat="45.09373" lon="5.0771">
        <ele>169.65</ele>
        <time>2017-03-26T14:39:33Z</time>
      </trkpt>
      <trkpt lat="45.09382" lon="5.0771">
        <ele>169.74</ele>
        <time>2017-03-26T14:39:34Z</time>
      </trkpt>
      <trkpt lat="45.09392" lon="5.07709">
        <ele>169.6</ele>
        <time>2017-03-26T14:39:35Z</time>
      </trkpt>
      <trkpt lat="45.09403" lon="5.07709">
        <ele>169.66</ele>
        <time>2017-03-26T14:39:36Z</time>
      </trkpt>
      <trkpt lat="45.09414" lon="5.07708">
        <ele>169.75</ele>
        <time>2017-03-26T14:39:37Z</time>
      </trkpt>
      <trkpt lat="45.09426" lon="5.07708">
        <ele>169.76</ele>
        <time>2017-03-26T14:39:38Z</time>
      </trkpt>
      <trkpt lat="45.09438" lon="5.07708">
        <ele>169.85</ele>
        <time>2017-03-26T14:39:39Z</time>
      </trkpt>
      <trkpt lat="45.0945" lon="5.07708">
        <ele>169.78</ele>
        <time>2017-03-26T14:39:40Z</time>
      </trkpt>
      <trkpt lat="45.09462" lon="5.07708">
        <ele>169.69</ele>
        <time>2017-03-26T14:39:41Z</time>
      </trkpt>
      <trkpt lat="45.09475" lon="5.07708">
        <ele>169.75</ele>
        <time>2017-03-26T14:39:42Z</time>
      </trkpt>
      <trkpt lat="45.09488" lon="5.07707">
        <ele>169.76</ele>
        <time>2017-03-26T14:39:43Z</time>
      </trkpt>
      <trkpt lat="45.095" lon="5.07706">
        <ele>169.69</ele>
        <time>2017-03-26T14:39:44Z</time>
      </trkpt>
      <trkpt lat="45.09512" lon="5.07705">
        <ele>169.67</ele>
        <time>2017-03-26T14:39:45Z</time>
      </trkpt>
      <trkpt lat="45.09524" lon="5.07704">
        <ele>169.67</ele>
        <time>2017-03-26T14:39:46Z</time>
      </trkpt>
      <trkpt lat="45.09535" lon="5.07703">
        <ele>169.59</ele>
        <time>2017-03-26T14:39:47Z</time>
      </trkpt>
      <trkpt lat="45.09545" lon="5.07701">
        <ele>169.49</ele>
        <time>2017-03-26T14:39:48Z</time>
      </trkpt>
      <trkpt lat="45.09554" lon="5.07698">
        <ele>169.23</ele>
        <time>2017-03-26T14:39:49Z</time>
      </trkpt>
      <trkpt lat="45.09561" lon="5.07696">
        <ele>168.78</ele>
        <time>2017-03-26T14:39:50Z</time>
      </trkpt>
      <trkpt lat="45.09565" lon="5.07693">
        <ele>168.45</ele>
        <time>2017-03-26T14:39:51Z</time>
      </trkpt>
      <trkpt lat="45.09569" lon="5.0769">
        <ele>168.38</ele>
        <time>2017-03-26T14:39:52Z</time>
      </trkpt>
      <trkpt lat="45.09572" lon="5.07687">
        <ele>168.37</ele>
        <time>2017-03-26T14:39:53Z</time>
      </trkpt>
      <trkpt lat="45.09574" lon="5.07683">
        <ele>168.29</ele>
        <time>2017-03-26T14:39:54Z</time>
      </trkpt>
      <trkpt lat="45.09576" lon="5.0768">
        <ele>168.27</ele>
        <time>2017-03-26T14:39:55Z</time>
      </trkpt>
      <trkpt lat="45.09579" lon="5.07676">
        <ele>168.19</ele>
        <time>2017-03-26T14:39:56Z</time>
      </trkpt>
      <trkpt lat="45.0958" lon="5.07673">
        <ele>167.93</ele>
        <time>2017-03-26T14:39:57Z</time>
      </trkpt>
      <trkpt lat="45.09582" lon="5.0767">
        <ele>167.8</ele>
        <time>2017-03-26T14:39:58Z</time>
      </trkpt>
      <trkpt lat="45.09584" lon="5.07666">
        <ele>167.69</ele>
        <time>2017-03-26T14:39:59Z</time>
      </trkpt>
      <trkpt lat="45.09584" lon="5.07664">
        <ele>167.67</ele>
        <time>2017-03-26T14:40:00Z</time>
      </trkpt>
      <trkpt lat="45.09584" lon="5.07663">
        <ele>167.59</ele>
        <time>2017-03-26T14:40:01Z</time>
      </trkpt>
      <trkpt lat="45.09584" lon="5.07662">
        <ele>167.57</ele>
        <time>2017-03-26T14:40:02Z</time>
      </trkpt>
      <trkpt lat="45.09584" lon="5.07662">
        <ele>167.57</ele>
        <time>2017-03-26T14:40:03Z</time>
      </trkpt>
      <trkpt lat="45.09584" lon="5.07662">
        <ele>167.57</ele>
        <time>2017-03-26T14:40:04Z</time>
      </trkpt>
      <trkpt lat="45.09584" lon="5.07662">
        <ele>167.57</ele>
        <time>2017-03-26T14:40:05Z</time>
      </trkpt>
      <trkpt lat="45.09584" lon="5.07662">
        <ele>167.57</ele>
        <time>2017-03-26T14:40:06Z</time>
      </trkpt>
      <trkpt lat="45.09584" lon="5.07662">
        <ele>167.57</ele>
        <time>2017-03-26T14:40:07Z</time>
      </trkpt>
      <trkpt lat="45.09584" lon="5.07662">
        <ele>167.57</ele>
        <time>2017-03-26T14:40:08Z</time>
      </trkpt>
      <trkpt lat="45.09584" lon="5.07662">
        <ele>167.57</ele>
        <time>2017-03-26T14:40:09Z</time>
      </trkpt>
      <trkpt lat="45.09584" lon="5.07662">
        <ele>167.57</ele>
        <time>2017-03-26T14:40:10Z</time>
      </trkpt>
      <trkpt lat="45.09584" lon="5.07662">
        <ele>167.57</ele>
        <time>2017-03-26T14:40:11Z</time>
      </trkpt>
      <trkpt lat="45.09584" lon="5.07662">
        <ele>167.57</ele>
        <time>2017-03-26T14:40:12Z</time>
      </trkpt>
      <trkpt lat="45.09584" lon="5.07662">
        <ele>167.57</ele>
        <time>2017-03-26T14:40:13Z</time>
      </trkpt>
      <trkpt lat="45.09584" lon="5.07662">
        <ele>167.57</ele>
        <time>2017-03-26T14:40:14Z</time>
      </trkpt>
      <trkpt lat="45.09584" lon="5.07662">
        <ele>167.57</ele>
        <time>2017-03-26T14:40:15Z</time>
      </trkpt>
      <trkpt lat="45.09584" lon="5.07662">
        <ele>167.57</ele>
        <time>2017-03-26T14:40:16Z</time>
      </trkpt>
      <trkpt lat="45.09584" lon="5.07662">
        <ele>167.57</ele>
        <time>2017-03-26T14:40:17Z</time>
      </trkpt>
      <trkpt lat="45.09584" lon="5.07662">
        <ele>167.57</ele>
        <time>2017-03-26T14:40:18Z</time>
      </trkpt>
      <trkpt lat="45.09584" lon="5.07662">
        <ele>167.57</ele>
        <time>2017-03-26T14:40:19Z</time>
      </trkpt>
      <trkpt lat="45.09584" lon="5.07662">
        <ele>167.57</ele>
        <time>2017-03-26T14:40:20Z</time>
      </trkpt>
      <trkpt lat="45.09584" lon="5.07662">
        <ele>167.57</ele>
        <time>2017-03-26T14:40:21Z</time>
      </trkpt>
      <trkpt lat="45.09584" lon="5.07662">
        <ele>167.57</ele>
        <time>2017-03-26T14:40:22Z</time>
      </trkpt>
      <trkpt lat="45.09584" lon="5.07662">
        <ele>167.57</ele>
        <time>2017-03-26T14:40:23Z</time>
      </trkpt>
      <trkpt lat="45.09584" lon="5.07662">
        <ele>167.57</ele>
        <time>2017-03-26T14:40:24Z</time>
      </trkpt>
      <trkpt lat="45.09584" lon="5.07662">
        <ele>167.57</ele>
        <time>2017-03-26T14:40:25Z</time>
      </trkpt>
      <trkpt lat="45.09584" lon="5.07662">
        <ele>167.57</ele>
        <time>2017-03-26T14:40:26Z</time>
      </trkpt>
      <trkpt lat="45.09584" lon="5.07662">
        <ele>167.57</ele>
        <time>2017-03-26T14:40:27Z</time>
      </trkpt>
      <trkpt lat="45.09584" lon="5.07662">
        <ele>167.57</ele>
        <time>2017-03-26T14:40:28Z</time>
      </trkpt>
      <trkpt lat="45.09584" lon="5.07662">
        <ele>167.57</ele>
        <time>2017-03-26T14:40:29Z</time>
      </trkpt>
      <trkpt lat="45.09584" lon="5.07662">
        <ele>167.57</ele>
        <time>2017-03-26T14:40:30Z</time>
      </trkpt>
      <trkpt lat="45.09584" lon="5.07662">
        <ele>167.57</ele>
        <time>2017-03-26T14:40:31Z</time>
      </trkpt>
      <trkpt lat="45.09584" lon="5.07662">
        <ele>167.57</ele>
        <time>2017-03-26T14:40:32Z</time>
      </trkpt>
      <trkpt lat="45.09584" lon="5.07662">
        <ele>167.57</ele>
        <time>2017-03-26T14:40:33Z</time>
      </trkpt>
      <trkpt lat="45.09584" lon="5.07662">
        <ele>167.57</ele>
        <time>2017-03-26T14:40:34Z</time>
      </trkpt>
      <trkpt lat="45.09584" lon="5.07662">
        <ele>167.57</ele>
        <time>2017-03-26T14:40:35Z</time>
      </trkpt>
      <trkpt lat="45.09584" lon="5.07662">
        <ele>167.57</ele>
        <time>2017-03-26T14:40:36Z</time>
      </trkpt>
      <trkpt lat="45.09584" lon="5.07662">
        <ele>167.57</ele>
        <time>2017-03-26T14:40:37Z</time>
      </trkpt>
      <trkpt lat="45.09584" lon="5.07662">
        <ele>167.57</ele>
        <time>2017-03-26T14:40:38Z</time>
      </trkpt>
      <trkpt lat="45.09584" lon="5.07662">
        <ele>167.57</ele>
        <time>2017-03-26T14:40:39Z</time>
      </trkpt>
      <trkpt lat="45.09584" lon="5.07659">
        <ele>167.49</ele>
        <time>2017-03-26T14:40:40Z</time>
      </trkpt>
      <trkpt lat="45.09585" lon="5.07658">
        <ele>167.47</ele>
        <time>2017-03-26T14:40:41Z</time>
      </trkpt>
      <trkpt lat="45.09587" lon="5.07657">
        <ele>167.39</ele>
        <time>2017-03-26T14:40:42Z</time>
      </trkpt>
      <trkpt lat="45.09588" lon="5.07657">
        <ele>167.37</ele>
        <time>2017-03-26T14:40:43Z</time>
      </trkpt>
      <trkpt lat="45.09588" lon="5.07658">
        <ele>167.37</ele>
        <time>2017-03-26T14:40:44Z</time>
      </trkpt>
      <trkpt lat="45.09587" lon="5.07661">
        <ele>167.29</ele>
        <time>2017-03-26T14:40:45Z</time>
      </trkpt>
      <trkpt lat="45.09588" lon="5.07665">
        <ele>167.27</ele>
        <time>2017-03-26T14:40:46Z</time>
      </trkpt>
      <trkpt lat="45.09588" lon="5.07671">
        <ele>167.19</ele>
        <time>2017-03-26T14:40:47Z</time>
      </trkpt>
      <trkpt lat="45.0959" lon="5.07677">
        <ele>167.17</ele>
        <time>2017-03-26T14:40:48Z</time>
      </trkpt>
      <trkpt lat="45.09592" lon="5.07684">
        <ele>167.17</ele>
        <time>2017-03-26T14:40:49Z</time>
      </trkpt>
      <trkpt lat="45.09596" lon="5.07691">
        <ele>167.17</ele>
        <time>2017-03-26T14:40:50Z</time>
      </trkpt>
      <trkpt lat="45.09599" lon="5.077">
        <ele>167.09</ele>
        <time>2017-03-26T14:40:51Z</time>
      </trkpt>
      <trkpt lat="45.09603" lon="5.07709">
        <ele>166.99</ele>
        <time>2017-03-26T14:40:52Z</time>
      </trkpt>
      <trkpt lat="45.09608" lon="5.07719">
        <ele>167.05</ele>
        <time>2017-03-26T14:40:53Z</time>
      </trkpt>
      <trkpt lat="45.09613" lon="5.07728">
        <ele>166.98</ele>
        <time>2017-03-26T14:40:54Z</time>
      </trkpt>
      <trkpt lat="45.09618" lon="5.07738">
        <ele>166.97</ele>
        <time>2017-03-26T14:40:55Z</time>
      </trkpt>
      <trkpt lat="45.09623" lon="5.07748">
        <ele>166.89</ele>
        <time>2017-03-26T14:40:56Z</time>
      </trkpt>
      <trkpt lat="45.09629" lon="5.07759">
        <ele>166.87</ele>
        <time>2017-03-26T14:40:57Z</time>
      </trkpt>
      <trkpt lat="45.09635" lon="5.0777">
        <ele>166.87</ele>
        <time>2017-03-26T14:40:58Z</time>
      </trkpt>
      <trkpt lat="45.09641" lon="5.07781">
        <ele>166.87</ele>
        <time>2017-03-26T14:40:59Z</time>
      </trkpt>
      <trkpt lat="45.09647" lon="5.07795">
        <ele>166.95</ele>
        <time>2017-03-26T14:41:00Z</time>
      </trkpt>
      <trkpt lat="45.09654" lon="5.07808">
        <ele>167.04</ele>
        <time>2017-03-26T14:41:01Z</time>
      </trkpt>
      <trkpt lat="45.09662" lon="5.0782">
        <ele>167.14</ele>
        <time>2017-03-26T14:41:02Z</time>
      </trkpt>
      <trkpt lat="45.09669" lon="5.07833">
        <ele>167.16</ele>
        <time>2017-03-26T14:41:03Z</time>
      </trkpt>
      <trkpt lat="45.09677" lon="5.07845">
        <ele>167.25</ele>
        <time>2017-03-26T14:41:04Z</time>
      </trkpt>
      <trkpt lat="45.09687" lon="5.07857">
        <ele>167.42</ele>
        <time>2017-03-26T14:41:05Z</time>
      </trkpt>
      <trkpt lat="45.09696" lon="5.0787">
        <ele>167.7</ele>
        <time>2017-03-26T14:41:06Z</time>
      </trkpt>
      <trkpt lat="45.09707" lon="5.07882">
        <ele>167.99</ele>
        <time>2017-03-26T14:41:07Z</time>
      </trkpt>
      <trkpt lat="45.09717" lon="5.07893">
        <ele>168.21</ele>
        <time>2017-03-26T14:41:08Z</time>
      </trkpt>
      <trkpt lat="45.09728" lon="5.07901">
        <ele>168.34</ele>
        <time>2017-03-26T14:41:09Z</time>
      </trkpt>
      <trkpt lat="45.0974" lon="5.07909">
        <ele>168.52</ele>
        <time>2017-03-26T14:41:10Z</time>
      </trkpt>
      <trkpt lat="45.09752" lon="5.07915">
        <ele>168.8</ele>
        <time>2017-03-26T14:41:11Z</time>
      </trkpt>
      <trkpt lat="45.09765" lon="5.0792">
        <ele>169.01</ele>
        <time>2017-03-26T14:41:12Z</time>
      </trkpt>
      <trkpt lat="45.09778" lon="5.07925">
        <ele>169.22</ele>
        <time>2017-03-26T14:41:13Z</time>
      </trkpt>
      <trkpt lat="45.09791" lon="5.07929">
        <ele>169.42</ele>
        <time>2017-03-26T14:41:14Z</time>
      </trkpt>
      <trkpt lat="45.09807" lon="5.07932">
        <ele>169.62</ele>
        <time>2017-03-26T14:41:15Z</time>
      </trkpt>
      <trkpt lat="45.09822" lon="5.07936">
        <ele>169.9</ele>
        <time>2017-03-26T14:41:16Z</time>
      </trkpt>
      <trkpt lat="45.09838" lon="5.07942">
        <ele>170.11</ele>
        <time>2017-03-26T14:41:17Z</time>
      </trkpt>
      <trkpt lat="45.09854" lon="5.07949">
        <ele>170.48</ele>
        <time>2017-03-26T14:41:18Z</time>
      </trkpt>
      <trkpt lat="45.09869" lon="5.07956">
        <ele>170.71</ele>
        <time>2017-03-26T14:41:19Z</time>
      </trkpt>
      <trkpt lat="45.09884" lon="5.07963">
        <ele>170.92</ele>
        <time>2017-03-26T14:41:20Z</time>
      </trkpt>
      <trkpt lat="45.09899" lon="5.0797">
        <ele>171.12</ele>
        <time>2017-03-26T14:41:21Z</time>
      </trkpt>
      <trkpt lat="45.09914" lon="5.07978">
        <ele>171.32</ele>
        <time>2017-03-26T14:41:22Z</time>
      </trkpt>
      <trkpt lat="45.0993" lon="5.07986">
        <ele>171.52</ele>
        <time>2017-03-26T14:41:23Z</time>
      </trkpt>
      <trkpt lat="45.09946" lon="5.07993">
        <ele>171.8</ele>
        <time>2017-03-26T14:41:24Z</time>
      </trkpt>
      <trkpt lat="45.09962" lon="5.08">
        <ele>172.01</ele>
        <time>2017-03-26T14:41:25Z</time>
      </trkpt>
      <trkpt lat="45.09978" lon="5.08008">
        <ele>172.22</ele>
        <time>2017-03-26T14:41:26Z</time>
      </trkpt>
      <trkpt lat="45.09994" lon="5.08015">
        <ele>172.42</ele>
        <time>2017-03-26T14:41:27Z</time>
      </trkpt>
      <trkpt lat="45.10011" lon="5.08023">
        <ele>172.54</ele>
        <time>2017-03-26T14:41:28Z</time>
      </trkpt>
      <trkpt lat="45.10027" lon="5.0803">
        <ele>172.72</ele>
        <time>2017-03-26T14:41:29Z</time>
      </trkpt>
      <trkpt lat="45.10043" lon="5.08039">
        <ele>172.92</ele>
        <time>2017-03-26T14:41:30Z</time>
      </trkpt>
      <trkpt lat="45.10058" lon="5.08048">
        <ele>173.12</ele>
        <time>2017-03-26T14:41:31Z</time>
      </trkpt>
      <trkpt lat="45.10073" lon="5.08056">
        <ele>173.24</ele>
        <time>2017-03-26T14:41:32Z</time>
      </trkpt>
      <trkpt lat="45.10087" lon="5.08064">
        <ele>173.34</ele>
        <time>2017-03-26T14:41:33Z</time>
      </trkpt>
      <trkpt lat="45.101" lon="5.08073">
        <ele>173.52</ele>
        <time>2017-03-26T14:41:34Z</time>
      </trkpt>
      <trkpt lat="45.10112" lon="5.08083">
        <ele>173.72</ele>
        <time>2017-03-26T14:41:35Z</time>
      </trkpt>
      <trkpt lat="45.10122" lon="5.08096">
        <ele>173.92</ele>
        <time>2017-03-26T14:41:36Z</time>
      </trkpt>
      <trkpt lat="45.10132" lon="5.0811">
        <ele>174.12</ele>
        <time>2017-03-26T14:41:37Z</time>
      </trkpt>
      <trkpt lat="45.10141" lon="5.08125">
        <ele>174.32</ele>
        <time>2017-03-26T14:41:38Z</time>
      </trkpt>
      <trkpt lat="45.10149" lon="5.08142">
        <ele>174.36</ele>
        <time>2017-03-26T14:41:39Z</time>
      </trkpt>
      <trkpt lat="45.10157" lon="5.0816">
        <ele>174.53</ele>
        <time>2017-03-26T14:41:40Z</time>
      </trkpt>
      <trkpt lat="45.10165" lon="5.08178">
        <ele>174.64</ele>
        <time>2017-03-26T14:41:41Z</time>
      </trkpt>
      <trkpt lat="45.10174" lon="5.08196">
        <ele>174.82</ele>
        <time>2017-03-26T14:41:42Z</time>
      </trkpt>
      <trkpt lat="45.10182" lon="5.08213">
        <ele>174.94</ele>
        <time>2017-03-26T14:41:43Z</time>
      </trkpt>
      <trkpt lat="45.1019" lon="5.08231">
        <ele>175.12</ele>
        <time>2017-03-26T14:41:44Z</time>
      </trkpt>
      <trkpt lat="45.10198" lon="5.08248">
        <ele>175.24</ele>
        <time>2017-03-26T14:41:45Z</time>
      </trkpt>
      <trkpt lat="45.10205" lon="5.08266">
        <ele>175.42</ele>
        <time>2017-03-26T14:41:46Z</time>
      </trkpt>
      <trkpt lat="45.10211" lon="5.08285">
        <ele>175.62</ele>
        <time>2017-03-26T14:41:47Z</time>
      </trkpt>
      <trkpt lat="45.10216" lon="5.08304">
        <ele>175.82</ele>
        <time>2017-03-26T14:41:48Z</time>
      </trkpt>
      <trkpt lat="45.10222" lon="5.08323">
        <ele>176.02</ele>
        <time>2017-03-26T14:41:49Z</time>
      </trkpt>
      <trkpt lat="45.10228" lon="5.08341">
        <ele>176.22</ele>
        <time>2017-03-26T14:41:50Z</time>
      </trkpt>
      <trkpt lat="45.10233" lon="5.08359">
        <ele>176.34</ele>
        <time>2017-03-26T14:41:51Z</time>
      </trkpt>
      <trkpt lat="45.10238" lon="5.08377">
        <ele>176.6</ele>
        <time>2017-03-26T14:41:52Z</time>
      </trkpt>
      <trkpt lat="45.10243" lon="5.08395">
        <ele>176.89</ele>
        <time>2017-03-26T14:41:53Z</time>
      </trkpt>
      <trkpt lat="45.10248" lon="5.08415">
        <ele>177.43</ele>
        <time>2017-03-26T14:41:54Z</time>
      </trkpt>
      <trkpt lat="45.10254" lon="5.08433">
        <ele>177.86</ele>
        <time>2017-03-26T14:41:55Z</time>
      </trkpt>
      <trkpt lat="45.10259" lon="5.08452">
        <ele>178.35</ele>
        <time>2017-03-26T14:41:56Z</time>
      </trkpt>
      <trkpt lat="45.10264" lon="5.0847">
        <ele>178.76</ele>
        <time>2017-03-26T14:41:57Z</time>
      </trkpt>
      <trkpt lat="45.10269" lon="5.08489">
        <ele>179.33</ele>
        <time>2017-03-26T14:41:58Z</time>
      </trkpt>
      <trkpt lat="45.10274" lon="5.08507">
        <ele>179.6</ele>
        <time>2017-03-26T14:41:59Z</time>
      </trkpt>
      <trkpt lat="45.10281" lon="5.08525">
        <ele>180.13</ele>
        <time>2017-03-26T14:42:00Z</time>
      </trkpt>
      <trkpt lat="45.10287" lon="5.08542">
        <ele>180.56</ele>
        <time>2017-03-26T14:42:01Z</time>
      </trkpt>
      <trkpt lat="45.10295" lon="5.08559">
        <ele>181.13</ele>
        <time>2017-03-26T14:42:02Z</time>
      </trkpt>
      <trkpt lat="45.10302" lon="5.08575">
        <ele>181.56</ele>
        <time>2017-03-26T14:42:03Z</time>
      </trkpt>
      <trkpt lat="45.10309" lon="5.0859">
        <ele>181.81</ele>
        <time>2017-03-26T14:42:04Z</time>
      </trkpt>
      <trkpt lat="45.10316" lon="5.08605">
        <ele>182.34</ele>
        <time>2017-03-26T14:42:05Z</time>
      </trkpt>
      <trkpt lat="45.10321" lon="5.0862">
        <ele>182.68</ele>
        <time>2017-03-26T14:42:06Z</time>
      </trkpt>
      <trkpt lat="45.10325" lon="5.08633">
        <ele>183.07</ele>
        <time>2017-03-26T14:42:07Z</time>
      </trkpt>
      <trkpt lat="45.10329" lon="5.08644">
        <ele>183.31</ele>
        <time>2017-03-26T14:42:08Z</time>
      </trkpt>
      <trkpt lat="45.10332" lon="5.08653">
        <ele>183.6</ele>
        <time>2017-03-26T14:42:09Z</time>
      </trkpt>
      <trkpt lat="45.10335" lon="5.0866">
        <ele>183.97</ele>
        <time>2017-03-26T14:42:10Z</time>
      </trkpt>
      <trkpt lat="45.10337" lon="5.08666">
        <ele>183.89</ele>
        <time>2017-03-26T14:42:11Z</time>
      </trkpt>
      <trkpt lat="45.10339" lon="5.08673">
        <ele>184.11</ele>
        <time>2017-03-26T14:42:12Z</time>
      </trkpt>
      <trkpt lat="45.10341" lon="5.08682">
        <ele>184.48</ele>
        <time>2017-03-26T14:42:13Z</time>
      </trkpt>
      <trkpt lat="45.10344" lon="5.08691">
        <ele>185.03</ele>
        <time>2017-03-26T14:42:14Z</time>
      </trkpt>
      <trkpt lat="45.10349" lon="5.08702">
        <ele>185.54</ele>
        <time>2017-03-26T14:42:15Z</time>
      </trkpt>
      <trkpt lat="45.10355" lon="5.08713">
        <ele>186.36</ele>
        <time>2017-03-26T14:42:16Z</time>
      </trkpt>
      <trkpt lat="45.10362" lon="5.08724">
        <ele>187.41</ele>
        <time>2017-03-26T14:42:17Z</time>
      </trkpt>
      <trkpt lat="45.1037" lon="5.08735">
        <ele>188.26</ele>
        <time>2017-03-26T14:42:18Z</time>
      </trkpt>
      <trkpt lat="45.10379" lon="5.08745">
        <ele>189.07</ele>
        <time>2017-03-26T14:42:19Z</time>
      </trkpt>
      <trkpt lat="45.1039" lon="5.08756">
        <ele>189.79</ele>
        <time>2017-03-26T14:42:20Z</time>
      </trkpt>
      <trkpt lat="45.104" lon="5.08765">
        <ele>190.49</ele>
        <time>2017-03-26T14:42:21Z</time>
      </trkpt>
      <trkpt lat="45.10411" lon="5.08773">
        <ele>191.19</ele>
        <time>2017-03-26T14:42:22Z</time>
      </trkpt>
      <trkpt lat="45.10422" lon="5.08781">
        <ele>192.69</ele>
        <time>2017-03-26T14:42:23Z</time>
      </trkpt>
      <trkpt lat="45.10431" lon="5.08789">
        <ele>193.71</ele>
        <time>2017-03-26T14:42:24Z</time>
      </trkpt>
      <trkpt lat="45.1044" lon="5.08797">
        <ele>194.72</ele>
        <time>2017-03-26T14:42:25Z</time>
      </trkpt>
      <trkpt lat="45.10447" lon="5.08806">
        <ele>195.4</ele>
        <time>2017-03-26T14:42:26Z</time>
      </trkpt>
      <trkpt lat="45.10455" lon="5.08816">
        <ele>196.09</ele>
        <time>2017-03-26T14:42:27Z</time>
      </trkpt>
      <trkpt lat="45.10462" lon="5.08828">
        <ele>197.03</ele>
        <time>2017-03-26T14:42:28Z</time>
      </trkpt>
      <trkpt lat="45.10469" lon="5.08843">
        <ele>197.78</ele>
        <time>2017-03-26T14:42:29Z</time>
      </trkpt>
      <trkpt lat="45.10475" lon="5.0886">
        <ele>198.57</ele>
        <time>2017-03-26T14:42:30Z</time>
      </trkpt>
      <trkpt lat="45.10481" lon="5.08878">
        <ele>199.21</ele>
        <time>2017-03-26T14:42:31Z</time>
      </trkpt>
      <trkpt lat="45.10486" lon="5.08897">
        <ele>199.98</ele>
        <time>2017-03-26T14:42:32Z</time>
      </trkpt>
      <trkpt lat="45.10492" lon="5.08916">
        <ele>201.01</ele>
        <time>2017-03-26T14:42:33Z</time>
      </trkpt>
      <trkpt lat="45.10498" lon="5.08935">
        <ele>201.78</ele>
        <time>2017-03-26T14:42:34Z</time>
      </trkpt>
      <trkpt lat="45.10504" lon="5.08954">
        <ele>202.49</ele>
        <time>2017-03-26T14:42:35Z</time>
      </trkpt>
      <trkpt lat="45.1051" lon="5.08974">
        <ele>203.19</ele>
        <time>2017-03-26T14:42:36Z</time>
      </trkpt>
      <trkpt lat="45.10516" lon="5.08994">
        <ele>203.89</ele>
        <time>2017-03-26T14:42:37Z</time>
      </trkpt>
      <trkpt lat="45.10522" lon="5.09014">
        <ele>204.59</ele>
        <time>2017-03-26T14:42:38Z</time>
      </trkpt>
      <trkpt lat="45.10529" lon="5.09034">
        <ele>205.29</ele>
        <time>2017-03-26T14:42:39Z</time>
      </trkpt>
      <trkpt lat="45.10535" lon="5.09055">
        <ele>205.99</ele>
        <time>2017-03-26T14:42:40Z</time>
      </trkpt>
      <trkpt lat="45.10542" lon="5.09077">
        <ele>206.61</ele>
        <time>2017-03-26T14:42:41Z</time>
      </trkpt>
      <trkpt lat="45.10548" lon="5.09099">
        <ele>207.22</ele>
        <time>2017-03-26T14:42:42Z</time>
      </trkpt>
      <trkpt lat="45.10555" lon="5.09121">
        <ele>207.82</ele>
        <time>2017-03-26T14:42:43Z</time>
      </trkpt>
      <trkpt lat="45.10562" lon="5.09144">
        <ele>208.42</ele>
        <time>2017-03-26T14:42:44Z</time>
      </trkpt>
      <trkpt lat="45.10568" lon="5.09167">
        <ele>209.02</ele>
        <time>2017-03-26T14:42:45Z</time>
      </trkpt>
      <trkpt lat="45.10575" lon="5.0919">
        <ele>209.7</ele>
        <time>2017-03-26T14:42:46Z</time>
      </trkpt>
      <trkpt lat="45.10581" lon="5.09213">
        <ele>210.23</ele>
        <time>2017-03-26T14:42:47Z</time>
      </trkpt>
      <trkpt lat="45.10588" lon="5.09236">
        <ele>211.06</ele>
        <time>2017-03-26T14:42:48Z</time>
      </trkpt>
      <trkpt lat="45.10593" lon="5.09258">
        <ele>211.79</ele>
        <time>2017-03-26T14:42:49Z</time>
      </trkpt>
      <trkpt lat="45.10599" lon="5.09279">
        <ele>212.49</ele>
        <time>2017-03-26T14:42:50Z</time>
      </trkpt>
      <trkpt lat="45.10605" lon="5.09299">
        <ele>213.11</ele>
        <time>2017-03-26T14:42:51Z</time>
      </trkpt>
      <trkpt lat="45.10611" lon="5.09319">
        <ele>213.72</ele>
        <time>2017-03-26T14:42:52Z</time>
      </trkpt>
      <trkpt lat="45.10616" lon="5.09338">
        <ele>214.4</ele>
        <time>2017-03-26T14:42:53Z</time>
      </trkpt>
      <trkpt lat="45.10622" lon="5.09357">
        <ele>214.93</ele>
        <time>2017-03-26T14:42:54Z</time>
      </trkpt>
      <trkpt lat="45.10627" lon="5.09375">
        <ele>215.44</ele>
        <time>2017-03-26T14:42:55Z</time>
      </trkpt>
      <trkpt lat="45.10632" lon="5.09395">
        <ele>216.02</ele>
        <time>2017-03-26T14:42:56Z</time>
      </trkpt>
      <trkpt lat="45.10637" lon="5.09414">
        <ele>216.62</ele>
        <time>2017-03-26T14:42:57Z</time>
      </trkpt>
      <trkpt lat="45.10643" lon="5.09433">
        <ele>217.22</ele>
        <time>2017-03-26T14:42:58Z</time>
      </trkpt>
      <trkpt lat="45.1065" lon="5.09451">
        <ele>217.82</ele>
        <time>2017-03-26T14:42:59Z</time>
      </trkpt>
      <trkpt lat="45.10657" lon="5.09468">
        <ele>218.42</ele>
        <time>2017-03-26T14:43:00Z</time>
      </trkpt>
      <trkpt lat="45.10667" lon="5.0948">
        <ele>218.94</ele>
        <time>2017-03-26T14:43:01Z</time>
      </trkpt>
      <trkpt lat="45.10676" lon="5.09492">
        <ele>219.44</ele>
        <time>2017-03-26T14:43:02Z</time>
      </trkpt>
      <trkpt lat="45.10686" lon="5.095">
        <ele>220.02</ele>
        <time>2017-03-26T14:43:03Z</time>
      </trkpt>
      <trkpt lat="45.10696" lon="5.09507">
        <ele>220.7</ele>
        <time>2017-03-26T14:43:04Z</time>
      </trkpt>
      <trkpt lat="45.10706" lon="5.09512">
        <ele>221.23</ele>
        <time>2017-03-26T14:43:05Z</time>
      </trkpt>
      <trkpt lat="45.10719" lon="5.09512">
        <ele>220.94</ele>
        <time>2017-03-26T14:43:06Z</time>
      </trkpt>
      <trkpt lat="45.10732" lon="5.09512">
        <ele>220.64</ele>
        <time>2017-03-26T14:43:07Z</time>
      </trkpt>
      <trkpt lat="45.10744" lon="5.09511">
        <ele>220.5</ele>
        <time>2017-03-26T14:43:08Z</time>
      </trkpt>
      <trkpt lat="45.10757" lon="5.09511">
        <ele>220.47</ele>
        <time>2017-03-26T14:43:09Z</time>
      </trkpt>
      <trkpt lat="45.10772" lon="5.0951">
        <ele>220.87</ele>
        <time>2017-03-26T14:43:10Z</time>
      </trkpt>
      <trkpt lat="45.10787" lon="5.09507">
        <ele>221.03</ele>
        <time>2017-03-26T14:43:11Z</time>
      </trkpt>
      <trkpt lat="45.10801" lon="5.09504">
        <ele>221.06</ele>
        <time>2017-03-26T14:43:12Z</time>
      </trkpt>
      <trkpt lat="45.10815" lon="5.09503">
        <ele>221.15</ele>
        <time>2017-03-26T14:43:13Z</time>
      </trkpt>
      <trkpt lat="45.10829" lon="5.09502">
        <ele>221.24</ele>
        <time>2017-03-26T14:43:14Z</time>
      </trkpt>
      <trkpt lat="45.10842" lon="5.09501">
        <ele>221.58</ele>
        <time>2017-03-26T14:43:15Z</time>
      </trkpt>
      <trkpt lat="45.10856" lon="5.095">
        <ele>221.57</ele>
        <time>2017-03-26T14:43:16Z</time>
      </trkpt>
      <trkpt lat="45.10867" lon="5.09501">
        <ele>221.65</ele>
        <time>2017-03-26T14:43:17Z</time>
      </trkpt>
      <trkpt lat="45.10879" lon="5.09504">
        <ele>221.82</ele>
        <time>2017-03-26T14:43:18Z</time>
      </trkpt>
      <trkpt lat="45.10883" lon="5.09515">
        <ele>221.86</ele>
        <time>2017-03-26T14:43:19Z</time>
      </trkpt>
      <trkpt lat="45.10889" lon="5.09525">
        <ele>222.03</ele>
        <time>2017-03-26T14:43:20Z</time>
      </trkpt>
      <trkpt lat="45.10891" lon="5.09536">
        <ele>222.22</ele>
        <time>2017-03-26T14:43:21Z</time>
      </trkpt>
      <trkpt lat="45.10893" lon="5.09544">
        <ele>222.42</ele>
        <time>2017-03-26T14:43:22Z</time>
      </trkpt>
      <trkpt lat="45.10892" lon="5.09549">
        <ele>222.54</ele>
        <time>2017-03-26T14:43:23Z</time>
      </trkpt>
      <trkpt lat="45.10889" lon="5.09552">
        <ele>222</ele>
        <time>2017-03-26T14:43:24Z</time>
      </trkpt>
      <trkpt lat="45.10888" lon="5.09554">
        <ele>221.41</ele>
        <time>2017-03-26T14:43:25Z</time>
      </trkpt>
      <trkpt lat="45.10886" lon="5.09555">
        <ele>220.98</ele>
        <time>2017-03-26T14:43:26Z</time>
      </trkpt>
      <trkpt lat="45.10884" lon="5.09555">
        <ele>220.09</ele>
        <time>2017-03-26T14:43:27Z</time>
      </trkpt>
      <trkpt lat="45.10882" lon="5.09554">
        <ele>219.27</ele>
        <time>2017-03-26T14:43:28Z</time>
      </trkpt>
      <trkpt lat="45.10882" lon="5.09554">
        <ele>219.11</ele>
        <time>2017-03-26T14:43:29Z</time>
      </trkpt>
      <trkpt lat="45.10882" lon="5.09554">
        <ele>219.08</ele>
        <time>2017-03-26T14:43:30Z</time>
      </trkpt>
      <trkpt lat="45.10882" lon="5.09554">
        <ele>219.07</ele>
        <time>2017-03-26T14:43:31Z</time>
      </trkpt>
      <trkpt lat="45.10882" lon="5.09554">
        <ele>219.07</ele>
        <time>2017-03-26T14:43:32Z</time>
      </trkpt>
      <trkpt lat="45.10882" lon="5.09554">
        <ele>219.07</ele>
        <time>2017-03-26T14:43:33Z</time>
      </trkpt>
      <trkpt lat="45.10882" lon="5.09554">
        <ele>219.07</ele>
        <time>2017-03-26T14:43:34Z</time>
      </trkpt>
      <trkpt lat="45.10882" lon="5.09554">
        <ele>219.07</ele>
        <time>2017-03-26T14:43:35Z</time>
      </trkpt>
      <trkpt lat="45.10882" lon="5.09554">
        <ele>219.07</ele>
        <time>2017-03-26T14:43:36Z</time>
      </trkpt>
      <trkpt lat="45.10882" lon="5.09554">
        <ele>219.07</ele>
        <time>2017-03-26T14:43:37Z</time>
      </trkpt>
      <trkpt lat="45.10882" lon="5.09554">
        <ele>219.07</ele>
        <time>2017-03-26T14:43:38Z</time>
      </trkpt>
      <trkpt lat="45.10882" lon="5.09554">
        <ele>219.07</ele>
        <time>2017-03-26T14:43:39Z</time>
      </trkpt>
      <trkpt lat="45.10882" lon="5.09554">
        <ele>219.07</ele>
        <time>2017-03-26T14:43:40Z</time>
      </trkpt>
      <trkpt lat="45.10882" lon="5.09554">
        <ele>219.07</ele>
        <time>2017-03-26T14:43:41Z</time>
      </trkpt>
      <trkpt lat="45.10882" lon="5.09554">
        <ele>219.07</ele>
        <time>2017-03-26T14:43:42Z</time>
      </trkpt>
      <trkpt lat="45.10882" lon="5.09554">
        <ele>219.07</ele>
        <time>2017-03-26T14:43:43Z</time>
      </trkpt>
      <trkpt lat="45.10882" lon="5.09554">
        <ele>219.07</ele>
        <time>2017-03-26T14:43:44Z</time>
      </trkpt>
      <trkpt lat="45.10882" lon="5.09554">
        <ele>219.07</ele>
        <time>2017-03-26T14:43:45Z</time>
      </trkpt>
      <trkpt lat="45.10882" lon="5.09554">
        <ele>219.07</ele>
        <time>2017-03-26T14:43:46Z</time>
      </trkpt>
      <trkpt lat="45.10882" lon="5.09554">
        <ele>219.07</ele>
        <time>2017-03-26T14:43:47Z</time>
      </trkpt>
      <trkpt lat="45.10882" lon="5.09554">
        <ele>219.07</ele>
        <time>2017-03-26T14:43:48Z</time>
      </trkpt>
      <trkpt lat="45.10882" lon="5.09554">
        <ele>219.07</ele>
        <time>2017-03-26T14:43:49Z</time>
      </trkpt>
      <trkpt lat="45.10882" lon="5.09554">
        <ele>219.07</ele>
        <time>2017-03-26T14:43:50Z</time>
      </trkpt>
      <trkpt lat="45.10882" lon="5.09554">
        <ele>219.07</ele>
        <time>2017-03-26T14:43:51Z</time>
      </trkpt>
      <trkpt lat="45.10882" lon="5.09554">
        <ele>219.07</ele>
        <time>2017-03-26T14:43:52Z</time>
      </trkpt>
      <trkpt lat="45.10882" lon="5.09554">
        <ele>219.07</ele>
        <time>2017-03-26T14:43:53Z</time>
      </trkpt>
      <trkpt lat="45.10882" lon="5.09554">
        <ele>217.23</ele>
        <time>2017-03-26T14:43:54Z</time>
      </trkpt>
      <trkpt lat="45.10885" lon="5.09556">
        <ele>216.94</ele>
        <time>2017-03-26T14:43:55Z</time>
      </trkpt>
      <trkpt lat="45.10889" lon="5.09557">
        <ele>216.8</ele>
        <time>2017-03-26T14:43:56Z</time>
      </trkpt>
      <trkpt lat="45.10896" lon="5.09556">
        <ele>216.69</ele>
        <time>2017-03-26T14:43:57Z</time>
      </trkpt>
      <trkpt lat="45.10904" lon="5.09554">
        <ele>216.59</ele>
        <time>2017-03-26T14:43:58Z</time>
      </trkpt>
      <trkpt lat="45.10913" lon="5.09553">
        <ele>216.57</ele>
        <time>2017-03-26T14:43:59Z</time>
      </trkpt>
      <trkpt lat="45.10924" lon="5.09551">
        <ele>216.49</ele>
        <time>2017-03-26T14:44:00Z</time>
      </trkpt>
      <trkpt lat="45.10935" lon="5.0955">
        <ele>216.31</ele>
        <time>2017-03-26T14:44:01Z</time>
      </trkpt>
      <trkpt lat="45.10947" lon="5.0955">
        <ele>216.44</ele>
        <time>2017-03-26T14:44:02Z</time>
      </trkpt>
      <trkpt lat="45.1096" lon="5.09551">
        <ele>216.54</ele>
        <time>2017-03-26T14:44:03Z</time>
      </trkpt>
      <trkpt lat="45.10973" lon="5.09552">
        <ele>216.72</ele>
        <time>2017-03-26T14:44:04Z</time>
      </trkpt>
      <trkpt lat="45.10987" lon="5.09553">
        <ele>216.84</ele>
        <time>2017-03-26T14:44:05Z</time>
      </trkpt>
      <trkpt lat="45.11001" lon="5.09555">
        <ele>216.94</ele>
        <time>2017-03-26T14:44:06Z</time>
      </trkpt>
      <trkpt lat="45.11014" lon="5.09557">
        <ele>217.04</ele>
        <time>2017-03-26T14:44:07Z</time>
      </trkpt>
      <trkpt lat="45.11029" lon="5.09559">
        <ele>217.14</ele>
        <time>2017-03-26T14:44:08Z</time>
      </trkpt>
      <trkpt lat="45.11044" lon="5.09562">
        <ele>217.08</ele>
        <time>2017-03-26T14:44:09Z</time>
      </trkpt>
      <trkpt lat="45.1106" lon="5.09565">
        <ele>217.07</ele>
        <time>2017-03-26T14:44:10Z</time>
      </trkpt>
      <trkpt lat="45.11076" lon="5.0957">
        <ele>217.23</ele>
        <time>2017-03-26T14:44:11Z</time>
      </trkpt>
      <trkpt lat="45.11092" lon="5.09575">
        <ele>217.66</ele>
        <time>2017-03-26T14:44:12Z</time>
      </trkpt>
      <trkpt lat="45.11109" lon="5.0958">
        <ele>218.07</ele>
        <time>2017-03-26T14:44:13Z</time>
      </trkpt>
      <trkpt lat="45.11127" lon="5.09587">
        <ele>218.71</ele>
        <time>2017-03-26T14:44:14Z</time>
      </trkpt>
      <trkpt lat="45.11146" lon="5.09593">
        <ele>219.08</ele>
        <time>2017-03-26T14:44:15Z</time>
      </trkpt>
      <trkpt lat="45.11167" lon="5.09599">
        <ele>219.47</ele>
        <time>2017-03-26T14:44:16Z</time>
      </trkpt>
      <trkpt lat="45.11187" lon="5.09605">
        <ele>219.79</ele>
        <time>2017-03-26T14:44:17Z</time>
      </trkpt>
      <trkpt lat="45.11208" lon="5.09612">
        <ele>219.93</ele>
        <time>2017-03-26T14:44:18Z</time>
      </trkpt>
      <trkpt lat="45.11227" lon="5.0962">
        <ele>220.04</ele>
        <time>2017-03-26T14:44:19Z</time>
      </trkpt>
      <trkpt lat="45.11248" lon="5.0963">
        <ele>220.3</ele>
        <time>2017-03-26T14:44:20Z</time>
      </trkpt>
      <trkpt lat="45.11268" lon="5.09641">
        <ele>220.75</ele>
        <time>2017-03-26T14:44:21Z</time>
      </trkpt>
      <trkpt lat="45.11289" lon="5.09652">
        <ele>221.01</ele>
        <time>2017-03-26T14:44:22Z</time>
      </trkpt>
      <trkpt lat="45.1131" lon="5.09664">
        <ele>221.22</ele>
        <time>2017-03-26T14:44:23Z</time>
      </trkpt>
      <trkpt lat="45.11331" lon="5.09675">
        <ele>221.34</ele>
        <time>2017-03-26T14:44:24Z</time>
      </trkpt>
      <trkpt lat="45.11351" lon="5.09688">
        <ele>221.52</ele>
        <time>2017-03-26T14:44:25Z</time>
      </trkpt>
      <trkpt lat="45.11373" lon="5.097">
        <ele>221.8</ele>
        <time>2017-03-26T14:44:26Z</time>
      </trkpt>
      <trkpt lat="45.11394" lon="5.09713">
        <ele>222.01</ele>
        <time>2017-03-26T14:44:27Z</time>
      </trkpt>
      <trkpt lat="45.11415" lon="5.09726">
        <ele>222.46</ele>
        <time>2017-03-26T14:44:28Z</time>
      </trkpt>
      <trkpt lat="45.11437" lon="5.09738">
        <ele>222.95</ele>
        <time>2017-03-26T14:44:29Z</time>
      </trkpt>
      <trkpt lat="45.11459" lon="5.0975">
        <ele>223.44</ele>
        <time>2017-03-26T14:44:30Z</time>
      </trkpt>
      <trkpt lat="45.11482" lon="5.09763">
        <ele>223.94</ele>
        <time>2017-03-26T14:44:31Z</time>
      </trkpt>
      <trkpt lat="45.11506" lon="5.09778">
        <ele>224.36</ele>
        <time>2017-03-26T14:44:32Z</time>
      </trkpt>
      <trkpt lat="45.1153" lon="5.09797">
        <ele>224.85</ele>
        <time>2017-03-26T14:44:33Z</time>
      </trkpt>
      <trkpt lat="45.11553" lon="5.09819">
        <ele>225.18</ele>
        <time>2017-03-26T14:44:34Z</time>
      </trkpt>
      <trkpt lat="45.11576" lon="5.09845">
        <ele>225.65</ele>
        <time>2017-03-26T14:44:35Z</time>
      </trkpt>
      <trkpt lat="45.11599" lon="5.09873">
        <ele>226.06</ele>
        <time>2017-03-26T14:44:36Z</time>
      </trkpt>
      <trkpt lat="45.1162" lon="5.09903">
        <ele>226.31</ele>
        <time>2017-03-26T14:44:37Z</time>
      </trkpt>
      <trkpt lat="45.11642" lon="5.09933">
        <ele>226.52</ele>
        <time>2017-03-26T14:44:38Z</time>
      </trkpt>
      <trkpt lat="45.11662" lon="5.09964">
        <ele>226.8</ele>
        <time>2017-03-26T14:44:39Z</time>
      </trkpt>
      <trkpt lat="45.11682" lon="5.09996">
        <ele>227.41</ele>
        <time>2017-03-26T14:44:40Z</time>
      </trkpt>
      <trkpt lat="45.117" lon="5.10029">
        <ele>227.86</ele>
        <time>2017-03-26T14:44:41Z</time>
      </trkpt>
      <trkpt lat="45.11715" lon="5.10065">
        <ele>228.27</ele>
        <time>2017-03-26T14:44:42Z</time>
      </trkpt>
      <trkpt lat="45.1173" lon="5.101">
        <ele>228.43</ele>
        <time>2017-03-26T14:44:43Z</time>
      </trkpt>
      <trkpt lat="45.11743" lon="5.10135">
        <ele>228.62</ele>
        <time>2017-03-26T14:44:44Z</time>
      </trkpt>
      <trkpt lat="45.11757" lon="5.10171">
        <ele>228.98</ele>
        <time>2017-03-26T14:44:45Z</time>
      </trkpt>
      <trkpt lat="45.1177" lon="5.10206">
        <ele>229.29</ele>
        <time>2017-03-26T14:44:46Z</time>
      </trkpt>
      <trkpt lat="45.11785" lon="5.10239">
        <ele>229.51</ele>
        <time>2017-03-26T14:44:47Z</time>
      </trkpt>
      <trkpt lat="45.118" lon="5.10272">
        <ele>229.8</ele>
        <time>2017-03-26T14:44:48Z</time>
      </trkpt>
      <trkpt lat="45.11816" lon="5.10302">
        <ele>230.09</ele>
        <time>2017-03-26T14:44:49Z</time>
      </trkpt>
      <trkpt lat="45.11833" lon="5.10332">
        <ele>230.15</ele>
        <time>2017-03-26T14:44:50Z</time>
      </trkpt>
      <trkpt lat="45.11851" lon="5.10361">
        <ele>230.09</ele>
        <time>2017-03-26T14:44:51Z</time>
      </trkpt>
      <trkpt lat="45.11869" lon="5.1039">
        <ele>229.83</ele>
        <time>2017-03-26T14:44:52Z</time>
      </trkpt>
      <trkpt lat="45.11887" lon="5.10418">
        <ele>229.46</ele>
        <time>2017-03-26T14:44:53Z</time>
      </trkpt>
      <trkpt lat="45.11905" lon="5.10447">
        <ele>229.23</ele>
        <time>2017-03-26T14:44:54Z</time>
      </trkpt>
      <trkpt lat="45.11923" lon="5.10476">
        <ele>228.06</ele>
        <time>2017-03-26T14:44:55Z</time>
      </trkpt>
      <trkpt lat="45.11939" lon="5.10507">
        <ele>227.51</ele>
        <time>2017-03-26T14:44:56Z</time>
      </trkpt>
      <trkpt lat="45.11954" lon="5.10541">
        <ele>227.96</ele>
        <time>2017-03-26T14:44:57Z</time>
      </trkpt>
      <trkpt lat="45.11968" lon="5.10573">
        <ele>228.29</ele>
        <time>2017-03-26T14:44:58Z</time>
      </trkpt>
      <trkpt lat="45.11983" lon="5.10604">
        <ele>228.43</ele>
        <time>2017-03-26T14:44:59Z</time>
      </trkpt>
      <trkpt lat="45.11999" lon="5.10632">
        <ele>228.3</ele>
        <time>2017-03-26T14:45:00Z</time>
      </trkpt>
      <trkpt lat="45.12018" lon="5.10654">
        <ele>228.19</ele>
        <time>2017-03-26T14:45:01Z</time>
      </trkpt>
      <trkpt lat="45.12038" lon="5.10674">
        <ele>228.25</ele>
        <time>2017-03-26T14:45:02Z</time>
      </trkpt>
      <trkpt lat="45.1206" lon="5.10693">
        <ele>228.43</ele>
        <time>2017-03-26T14:45:03Z</time>
      </trkpt>
      <trkpt lat="45.12083" lon="5.1071">
        <ele>228.7</ele>
        <time>2017-03-26T14:45:04Z</time>
      </trkpt>
      <trkpt lat="45.12107" lon="5.10727">
        <ele>229.23</ele>
        <time>2017-03-26T14:45:05Z</time>
      </trkpt>
      <trkpt lat="45.12131" lon="5.10744">
        <ele>229.74</ele>
        <time>2017-03-26T14:45:06Z</time>
      </trkpt>
      <trkpt lat="45.12155" lon="5.10761">
        <ele>230.32</ele>
        <time>2017-03-26T14:45:07Z</time>
      </trkpt>
      <trkpt lat="45.12179" lon="5.10777">
        <ele>230.92</ele>
        <time>2017-03-26T14:45:08Z</time>
      </trkpt>
      <trkpt lat="45.12201" lon="5.10791">
        <ele>231.28</ele>
        <time>2017-03-26T14:45:09Z</time>
      </trkpt>
      <trkpt lat="45.12224" lon="5.108">
        <ele>231.11</ele>
        <time>2017-03-26T14:45:10Z</time>
      </trkpt>
      <trkpt lat="45.12248" lon="5.10805">
        <ele>230.92</ele>
        <time>2017-03-26T14:45:11Z</time>
      </trkpt>
      <trkpt lat="45.12272" lon="5.10807">
        <ele>230.72</ele>
        <time>2017-03-26T14:45:12Z</time>
      </trkpt>
      <trkpt lat="45.12295" lon="5.10801">
        <ele>230.28</ele>
        <time>2017-03-26T14:45:13Z</time>
      </trkpt>
      <trkpt lat="45.12319" lon="5.10795">
        <ele>230.27</ele>
        <time>2017-03-26T14:45:14Z</time>
      </trkpt>
      <trkpt lat="45.12343" lon="5.10787">
        <ele>230.19</ele>
        <time>2017-03-26T14:45:15Z</time>
      </trkpt>
      <trkpt lat="45.12369" lon="5.10778">
        <ele>229.93</ele>
        <time>2017-03-26T14:45:16Z</time>
      </trkpt>
      <trkpt lat="45.12396" lon="5.10769">
        <ele>230.12</ele>
        <time>2017-03-26T14:45:17Z</time>
      </trkpt>
      <trkpt lat="45.12424" lon="5.10753">
        <ele>229.84</ele>
        <time>2017-03-26T14:45:18Z</time>
      </trkpt>
      <trkpt lat="45.1245" lon="5.10745">
        <ele>229.7</ele>
        <time>2017-03-26T14:45:19Z</time>
      </trkpt>
      <trkpt lat="45.12477" lon="5.1074">
        <ele>230.15</ele>
        <time>2017-03-26T14:45:20Z</time>
      </trkpt>
      <trkpt lat="45.12502" lon="5.10734">
        <ele>230.57</ele>
        <time>2017-03-26T14:45:21Z</time>
      </trkpt>
      <trkpt lat="45.12527" lon="5.10727">
        <ele>230.97</ele>
        <time>2017-03-26T14:45:22Z</time>
      </trkpt>
      <trkpt lat="45.12552" lon="5.10722">
        <ele>231.21</ele>
        <time>2017-03-26T14:45:23Z</time>
      </trkpt>
      <trkpt lat="45.12577" lon="5.10717">
        <ele>231.58</ele>
        <time>2017-03-26T14:45:24Z</time>
      </trkpt>
      <trkpt lat="45.12602" lon="5.10713">
        <ele>231.97</ele>
        <time>2017-03-26T14:45:25Z</time>
      </trkpt>
      <trkpt lat="45.12627" lon="5.1071">
        <ele>232.61</ele>
        <time>2017-03-26T14:45:26Z</time>
      </trkpt>
      <trkpt lat="45.12652" lon="5.10709">
        <ele>233.3</ele>
        <time>2017-03-26T14:45:27Z</time>
      </trkpt>
      <trkpt lat="45.12676" lon="5.10709">
        <ele>234.47</ele>
        <time>2017-03-26T14:45:28Z</time>
      </trkpt>
      <trkpt lat="45.12701" lon="5.1071">
        <ele>236.15</ele>
        <time>2017-03-26T14:45:29Z</time>
      </trkpt>
      <trkpt lat="45.12726" lon="5.1071">
        <ele>237.28</ele>
        <time>2017-03-26T14:45:30Z</time>
      </trkpt>
      <trkpt lat="45.1275" lon="5.10711">
        <ele>238.47</ele>
        <time>2017-03-26T14:45:31Z</time>
      </trkpt>
      <trkpt lat="45.12775" lon="5.10712">
        <ele>239.35</ele>
        <time>2017-03-26T14:45:32Z</time>
      </trkpt>
      <trkpt lat="45.128" lon="5.10714">
        <ele>239.92</ele>
        <time>2017-03-26T14:45:33Z</time>
      </trkpt>
      <trkpt lat="45.12825" lon="5.10717">
        <ele>240.76</ele>
        <time>2017-03-26T14:45:34Z</time>
      </trkpt>
      <trkpt lat="45.12849" lon="5.10722">
        <ele>241.33</ele>
        <time>2017-03-26T14:45:35Z</time>
      </trkpt>
      <trkpt lat="45.12873" lon="5.10732">
        <ele>242</ele>
        <time>2017-03-26T14:45:36Z</time>
      </trkpt>
      <trkpt lat="45.12896" lon="5.10744">
        <ele>242.53</ele>
        <time>2017-03-26T14:45:37Z</time>
      </trkpt>
      <trkpt lat="45.12918" lon="5.10762">
        <ele>242.88</ele>
        <time>2017-03-26T14:45:38Z</time>
      </trkpt>
      <trkpt lat="45.1294" lon="5.10781">
        <ele>242.55</ele>
        <time>2017-03-26T14:45:39Z</time>
      </trkpt>
      <trkpt lat="45.12961" lon="5.10802">
        <ele>242.48</ele>
        <time>2017-03-26T14:45:40Z</time>
      </trkpt>
      <trkpt lat="45.12983" lon="5.10823">
        <ele>242.23</ele>
        <time>2017-03-26T14:45:41Z</time>
      </trkpt>
      <trkpt lat="45.13004" lon="5.10845">
        <ele>242.42</ele>
        <time>2017-03-26T14:45:42Z</time>
      </trkpt>
      <trkpt lat="45.13025" lon="5.10867">
        <ele>243.26</ele>
        <time>2017-03-26T14:45:43Z</time>
      </trkpt>
      <trkpt lat="45.13046" lon="5.10889">
        <ele>243.83</ele>
        <time>2017-03-26T14:45:44Z</time>
      </trkpt>
      <trkpt lat="45.13068" lon="5.10911">
        <ele>244.42</ele>
        <time>2017-03-26T14:45:45Z</time>
      </trkpt>
      <trkpt lat="45.1309" lon="5.10933">
        <ele>245.02</ele>
        <time>2017-03-26T14:45:46Z</time>
      </trkpt>
      <trkpt lat="45.13112" lon="5.10954">
        <ele>245.78</ele>
        <time>2017-03-26T14:45:47Z</time>
      </trkpt>
      <trkpt lat="45.13134" lon="5.10976">
        <ele>246.57</ele>
        <time>2017-03-26T14:45:48Z</time>
      </trkpt>
      <trkpt lat="45.13156" lon="5.10998">
        <ele>247.53</ele>
        <time>2017-03-26T14:45:49Z</time>
      </trkpt>
      <trkpt lat="45.13178" lon="5.11019">
        <ele>248.52</ele>
        <time>2017-03-26T14:45:50Z</time>
      </trkpt>
      <trkpt lat="45.13199" lon="5.1104">
        <ele>249.52</ele>
        <time>2017-03-26T14:45:51Z</time>
      </trkpt>
      <trkpt lat="45.13221" lon="5.11062">
        <ele>250.68</ele>
        <time>2017-03-26T14:45:52Z</time>
      </trkpt>
      <trkpt lat="45.13243" lon="5.11083">
        <ele>251.87</ele>
        <time>2017-03-26T14:45:53Z</time>
      </trkpt>
      <trkpt lat="45.13264" lon="5.11105">
        <ele>253.07</ele>
        <time>2017-03-26T14:45:54Z</time>
      </trkpt>
      <trkpt lat="45.13286" lon="5.11126">
        <ele>254.75</ele>
        <time>2017-03-26T14:45:55Z</time>
      </trkpt>
      <trkpt lat="45.13307" lon="5.11147">
        <ele>255.88</ele>
        <time>2017-03-26T14:45:56Z</time>
      </trkpt>
      <trkpt lat="45.13328" lon="5.11167">
        <ele>256.59</ele>
        <time>2017-03-26T14:45:57Z</time>
      </trkpt>
      <trkpt lat="45.13349" lon="5.11187">
        <ele>257.53</ele>
        <time>2017-03-26T14:45:58Z</time>
      </trkpt>
      <trkpt lat="45.1337" lon="5.11206">
        <ele>258.36</ele>
        <time>2017-03-26T14:45:59Z</time>
      </trkpt>
      <trkpt lat="45.13391" lon="5.11225">
        <ele>259.17</ele>
        <time>2017-03-26T14:46:00Z</time>
      </trkpt>
      <trkpt lat="45.13413" lon="5.11243">
        <ele>259.89</ele>
        <time>2017-03-26T14:46:01Z</time>
      </trkpt>
      <trkpt lat="45.13434" lon="5.11261">
        <ele>260.43</ele>
        <time>2017-03-26T14:46:02Z</time>
      </trkpt>
      <trkpt lat="45.13455" lon="5.11279">
        <ele>260.94</ele>
        <time>2017-03-26T14:46:03Z</time>
      </trkpt>
      <trkpt lat="45.13476" lon="5.11296">
        <ele>261.28</ele>
        <time>2017-03-26T14:46:04Z</time>
      </trkpt>
      <trkpt lat="45.13497" lon="5.11313">
        <ele>261.67</ele>
        <time>2017-03-26T14:46:05Z</time>
      </trkpt>
      <trkpt lat="45.13518" lon="5.11329">
        <ele>261.99</ele>
        <time>2017-03-26T14:46:06Z</time>
      </trkpt>
      <trkpt lat="45.13539" lon="5.11346">
        <ele>262.45</ele>
        <time>2017-03-26T14:46:07Z</time>
      </trkpt>
      <trkpt lat="45.13561" lon="5.11362">
        <ele>262.86</ele>
        <time>2017-03-26T14:46:08Z</time>
      </trkpt>
      <trkpt lat="45.13582" lon="5.11379">
        <ele>263.27</ele>
        <time>2017-03-26T14:46:09Z</time>
      </trkpt>
      <trkpt lat="45.13604" lon="5.11396">
        <ele>263.51</ele>
        <time>2017-03-26T14:46:10Z</time>
      </trkpt>
      <trkpt lat="45.13625" lon="5.11413">
        <ele>264.12</ele>
        <time>2017-03-26T14:46:11Z</time>
      </trkpt>
      <trkpt lat="45.13647" lon="5.11431">
        <ele>264.88</ele>
        <time>2017-03-26T14:46:12Z</time>
      </trkpt>
      <trkpt lat="45.13668" lon="5.11448">
        <ele>265.51</ele>
        <time>2017-03-26T14:46:13Z</time>
      </trkpt>
      <trkpt lat="45.13689" lon="5.11466">
        <ele>265.64</ele>
        <time>2017-03-26T14:46:14Z</time>
      </trkpt>
      <trkpt lat="45.13711" lon="5.11484">
        <ele>266.3</ele>
        <time>2017-03-26T14:46:15Z</time>
      </trkpt>
      <trkpt lat="45.13733" lon="5.11502">
        <ele>266.83</ele>
        <time>2017-03-26T14:46:16Z</time>
      </trkpt>
      <trkpt lat="45.13755" lon="5.1152">
        <ele>267.34</ele>
        <time>2017-03-26T14:46:17Z</time>
      </trkpt>
      <trkpt lat="45.13777" lon="5.11538">
        <ele>267.68</ele>
        <time>2017-03-26T14:46:18Z</time>
      </trkpt>
      <trkpt lat="45.13799" lon="5.11555">
        <ele>268.07</ele>
        <time>2017-03-26T14:46:19Z</time>
      </trkpt>
      <trkpt lat="45.13822" lon="5.11573">
        <ele>268.87</ele>
        <time>2017-03-26T14:46:20Z</time>
      </trkpt>
      <trkpt lat="45.13844" lon="5.1159">
        <ele>269.67</ele>
        <time>2017-03-26T14:46:21Z</time>
      </trkpt>
      <trkpt lat="45.13867" lon="5.11608">
        <ele>270.63</ele>
        <time>2017-03-26T14:46:22Z</time>
      </trkpt>
      <trkpt lat="45.13889" lon="5.11626">
        <ele>271.38</ele>
        <time>2017-03-26T14:46:23Z</time>
      </trkpt>
      <trkpt lat="45.13912" lon="5.11644">
        <ele>272.33</ele>
        <time>2017-03-26T14:46:24Z</time>
      </trkpt>
      <trkpt lat="45.13934" lon="5.11663">
        <ele>273.64</ele>
        <time>2017-03-26T14:46:25Z</time>
      </trkpt>
      <trkpt lat="45.13956" lon="5.1168">
        <ele>274.7</ele>
        <time>2017-03-26T14:46:26Z</time>
      </trkpt>
      <trkpt lat="45.13978" lon="5.11697">
        <ele>275.63</ele>
        <time>2017-03-26T14:46:27Z</time>
      </trkpt>
      <trkpt lat="45.13999" lon="5.11713">
        <ele>276.46</ele>
        <time>2017-03-26T14:46:28Z</time>
      </trkpt>
      <trkpt lat="45.14019" lon="5.11728">
        <ele>277.11</ele>
        <time>2017-03-26T14:46:29Z</time>
      </trkpt>
      <trkpt lat="45.14039" lon="5.11743">
        <ele>277.88</ele>
        <time>2017-03-26T14:46:30Z</time>
      </trkpt>
      <trkpt lat="45.14058" lon="5.11757">
        <ele>278.27</ele>
        <time>2017-03-26T14:46:31Z</time>
      </trkpt>
      <trkpt lat="45.14076" lon="5.11772">
        <ele>278.67</ele>
        <time>2017-03-26T14:46:32Z</time>
      </trkpt>
      <trkpt lat="45.14094" lon="5.11785">
        <ele>278.99</ele>
        <time>2017-03-26T14:46:33Z</time>
      </trkpt>
      <trkpt lat="45.1411" lon="5.11798">
        <ele>278.81</ele>
        <time>2017-03-26T14:46:34Z</time>
      </trkpt>
      <trkpt lat="45.14126" lon="5.1181">
        <ele>278.7</ele>
        <time>2017-03-26T14:46:35Z</time>
      </trkpt>
      <trkpt lat="45.1414" lon="5.11822">
        <ele>278.75</ele>
        <time>2017-03-26T14:46:36Z</time>
      </trkpt>
      <trkpt lat="45.14155" lon="5.11834">
        <ele>278.77</ele>
        <time>2017-03-26T14:46:37Z</time>
      </trkpt>
      <trkpt lat="45.14169" lon="5.11846">
        <ele>278.77</ele>
        <time>2017-03-26T14:46:38Z</time>
      </trkpt>
      <trkpt lat="45.14183" lon="5.11858">
        <ele>278.85</ele>
        <time>2017-03-26T14:46:39Z</time>
      </trkpt>
      <trkpt lat="45.14196" lon="5.1187">
        <ele>279.02</ele>
        <time>2017-03-26T14:46:40Z</time>
      </trkpt>
      <trkpt lat="45.14209" lon="5.11881">
        <ele>278.9</ele>
        <time>2017-03-26T14:46:41Z</time>
      </trkpt>
      <trkpt lat="45.14222" lon="5.11893">
        <ele>278.87</ele>
        <time>2017-03-26T14:46:42Z</time>
      </trkpt>
      <trkpt lat="45.14235" lon="5.11905">
        <ele>278.95</ele>
        <time>2017-03-26T14:46:43Z</time>
      </trkpt>
      <trkpt lat="45.14248" lon="5.11917">
        <ele>279.2</ele>
        <time>2017-03-26T14:46:44Z</time>
      </trkpt>
      <trkpt lat="45.14262" lon="5.11929">
        <ele>279.58</ele>
        <time>2017-03-26T14:46:45Z</time>
      </trkpt>
      <trkpt lat="45.14275" lon="5.11941">
        <ele>279.97</ele>
        <time>2017-03-26T14:46:46Z</time>
      </trkpt>
      <trkpt lat="45.14288" lon="5.11951">
        <ele>280.37</ele>
        <time>2017-03-26T14:46:47Z</time>
      </trkpt>
      <trkpt lat="45.14301" lon="5.1196">
        <ele>280.61</ele>
        <time>2017-03-26T14:46:48Z</time>
      </trkpt>
      <trkpt lat="45.14315" lon="5.11968">
        <ele>280.58</ele>
        <time>2017-03-26T14:46:49Z</time>
      </trkpt>
      <trkpt lat="45.14329" lon="5.11976">
        <ele>280.33</ele>
        <time>2017-03-26T14:46:50Z</time>
      </trkpt>
      <trkpt lat="45.14342" lon="5.11985">
        <ele>280.2</ele>
        <time>2017-03-26T14:46:51Z</time>
      </trkpt>
      <trkpt lat="45.14354" lon="5.11993">
        <ele>280.09</ele>
        <time>2017-03-26T14:46:52Z</time>
      </trkpt>
      <trkpt lat="45.14365" lon="5.12">
        <ele>279.75</ele>
        <time>2017-03-26T14:46:53Z</time>
      </trkpt>
      <trkpt lat="45.14376" lon="5.12009">
        <ele>279.21</ele>
        <time>2017-03-26T14:46:54Z</time>
      </trkpt>
      <trkpt lat="45.14386" lon="5.12018">
        <ele>279.5</ele>
        <time>2017-03-26T14:46:55Z</time>
      </trkpt>
      <trkpt lat="45.14396" lon="5.12028">
        <ele>279.63</ele>
        <time>2017-03-26T14:46:56Z</time>
      </trkpt>
      <trkpt lat="45.14405" lon="5.12038">
        <ele>279.5</ele>
        <time>2017-03-26T14:46:57Z</time>
      </trkpt>
      <trkpt lat="45.14414" lon="5.12049">
        <ele>279.15</ele>
        <time>2017-03-26T14:46:58Z</time>
      </trkpt>
      <trkpt lat="45.14424" lon="5.12061">
        <ele>278.85</ele>
        <time>2017-03-26T14:46:59Z</time>
      </trkpt>
      <trkpt lat="45.14432" lon="5.12073">
        <ele>278.86</ele>
        <time>2017-03-26T14:47:00Z</time>
      </trkpt>
      <trkpt lat="45.1444" lon="5.12083">
        <ele>278.71</ele>
        <time>2017-03-26T14:47:01Z</time>
      </trkpt>
      <trkpt lat="45.14447" lon="5.12093">
        <ele>278.52</ele>
        <time>2017-03-26T14:47:02Z</time>
      </trkpt>
      <trkpt lat="45.14452" lon="5.12101">
        <ele>278.72</ele>
        <time>2017-03-26T14:47:03Z</time>
      </trkpt>
      <trkpt lat="45.14455" lon="5.12106">
        <ele>278.84</ele>
        <time>2017-03-26T14:47:04Z</time>
      </trkpt>
      <trkpt lat="45.14457" lon="5.1211">
        <ele>278.86</ele>
        <time>2017-03-26T14:47:05Z</time>
      </trkpt>
      <trkpt lat="45.14461" lon="5.12114">
        <ele>278.95</ele>
        <time>2017-03-26T14:47:06Z</time>
      </trkpt>
      <trkpt lat="45.14464" lon="5.12119">
        <ele>279.2</ele>
        <time>2017-03-26T14:47:07Z</time>
      </trkpt>
      <trkpt lat="45.14468" lon="5.12126">
        <ele>279.34</ele>
        <time>2017-03-26T14:47:08Z</time>
      </trkpt>
      <trkpt lat="45.14472" lon="5.12133">
        <ele>279.36</ele>
        <time>2017-03-26T14:47:09Z</time>
      </trkpt>
      <trkpt lat="45.14476" lon="5.1214">
        <ele>279.21</ele>
        <time>2017-03-26T14:47:10Z</time>
      </trkpt>
      <trkpt lat="45.14481" lon="5.12148">
        <ele>279.18</ele>
        <time>2017-03-26T14:47:11Z</time>
      </trkpt>
      <trkpt lat="45.14486" lon="5.12156">
        <ele>279.09</ele>
        <time>2017-03-26T14:47:12Z</time>
      </trkpt>
      <trkpt lat="45.1449" lon="5.12164">
        <ele>278.83</ele>
        <time>2017-03-26T14:47:13Z</time>
      </trkpt>
      <trkpt lat="45.14494" lon="5.12172">
        <ele>278.7</ele>
        <time>2017-03-26T14:47:14Z</time>
      </trkpt>
      <trkpt lat="45.14498" lon="5.12181">
        <ele>278.75</ele>
        <time>2017-03-26T14:47:15Z</time>
      </trkpt>
      <trkpt lat="45.14503" lon="5.12189">
        <ele>278.69</ele>
        <time>2017-03-26T14:47:16Z</time>
      </trkpt>
      <trkpt lat="45.14509" lon="5.12196">
        <ele>278.67</ele>
        <time>2017-03-26T14:47:17Z</time>
      </trkpt>
      <trkpt lat="45.14514" lon="5.12203">
        <ele>278.43</ele>
        <time>2017-03-26T14:47:18Z</time>
      </trkpt>
      <trkpt lat="45.14519" lon="5.12209">
        <ele>278.3</ele>
        <time>2017-03-26T14:47:19Z</time>
      </trkpt>
      <trkpt lat="45.14522" lon="5.12215">
        <ele>278.27</ele>
        <time>2017-03-26T14:47:20Z</time>
      </trkpt>
      <trkpt lat="45.14525" lon="5.12222">
        <ele>278.43</ele>
        <time>2017-03-26T14:47:21Z</time>
      </trkpt>
      <trkpt lat="45.14528" lon="5.12226">
        <ele>278.38</ele>
        <time>2017-03-26T14:47:22Z</time>
      </trkpt>
      <trkpt lat="45.1453" lon="5.12229">
        <ele>278.13</ele>
        <time>2017-03-26T14:47:23Z</time>
      </trkpt>
      <trkpt lat="45.1453" lon="5.12231">
        <ele>277.6</ele>
        <time>2017-03-26T14:47:24Z</time>
      </trkpt>
      <trkpt lat="45.1453" lon="5.12232">
        <ele>277.25</ele>
        <time>2017-03-26T14:47:25Z</time>
      </trkpt>
      <trkpt lat="45.1453" lon="5.12233">
        <ele>276.79</ele>
        <time>2017-03-26T14:47:26Z</time>
      </trkpt>
      <trkpt lat="45.1453" lon="5.12232">
        <ele>276.37</ele>
        <time>2017-03-26T14:47:27Z</time>
      </trkpt>
      <trkpt lat="45.1453" lon="5.12232">
        <ele>276.21</ele>
        <time>2017-03-26T14:47:28Z</time>
      </trkpt>
      <trkpt lat="45.1453" lon="5.12232">
        <ele>276.18</ele>
        <time>2017-03-26T14:47:29Z</time>
      </trkpt>
      <trkpt lat="45.1453" lon="5.12232">
        <ele>276.17</ele>
        <time>2017-03-26T14:47:30Z</time>
      </trkpt>
      <trkpt lat="45.1453" lon="5.12232">
        <ele>276.17</ele>
        <time>2017-03-26T14:47:31Z</time>
      </trkpt>
      <trkpt lat="45.1453" lon="5.12232">
        <ele>276.17</ele>
        <time>2017-03-26T14:47:32Z</time>
      </trkpt>
      <trkpt lat="45.1453" lon="5.12232">
        <ele>276.17</ele>
        <time>2017-03-26T14:47:33Z</time>
      </trkpt>
      <trkpt lat="45.1453" lon="5.12232">
        <ele>276.17</ele>
        <time>2017-03-26T14:47:34Z</time>
      </trkpt>
      <trkpt lat="45.1453" lon="5.12232">
        <ele>276.17</ele>
        <time>2017-03-26T14:47:35Z</time>
      </trkpt>
      <trkpt lat="45.1453" lon="5.12232">
        <ele>276.17</ele>
        <time>2017-03-26T14:47:36Z</time>
      </trkpt>
      <trkpt lat="45.1453" lon="5.12232">
        <ele>276.17</ele>
        <time>2017-03-26T14:47:37Z</time>
      </trkpt>
      <trkpt lat="45.1453" lon="5.12232">
        <ele>276.17</ele>
        <time>2017-03-26T14:47:38Z</time>
      </trkpt>
      <trkpt lat="45.1453" lon="5.12232">
        <ele>276.17</ele>
        <time>2017-03-26T14:47:39Z</time>
      </trkpt>
      <trkpt lat="45.1453" lon="5.12232">
        <ele>276.17</ele>
        <time>2017-03-26T14:47:40Z</time>
      </trkpt>
      <trkpt lat="45.1453" lon="5.12232">
        <ele>276.17</ele>
        <time>2017-03-26T14:47:41Z</time>
      </trkpt>
      <trkpt lat="45.1453" lon="5.12232">
        <ele>276.17</ele>
        <time>2017-03-26T14:47:42Z</time>
      </trkpt>
      <trkpt lat="45.1453" lon="5.12232">
        <ele>276.17</ele>
        <time>2017-03-26T14:47:43Z</time>
      </trkpt>
      <trkpt lat="45.1453" lon="5.12232">
        <ele>276.17</ele>
        <time>2017-03-26T14:47:44Z</time>
      </trkpt>
      <trkpt lat="45.1453" lon="5.12232">
        <ele>276.17</ele>
        <time>2017-03-26T14:47:45Z</time>
      </trkpt>
      <trkpt lat="45.1453" lon="5.12232">
        <ele>276.17</ele>
        <time>2017-03-26T14:47:46Z</time>
      </trkpt>
      <trkpt lat="45.1453" lon="5.12232">
        <ele>276.17</ele>
        <time>2017-03-26T14:47:47Z</time>
      </trkpt>
      <trkpt lat="45.1453" lon="5.12232">
        <ele>276.17</ele>
        <time>2017-03-26T14:47:48Z</time>
      </trkpt>
      <trkpt lat="45.1453" lon="5.12232">
        <ele>276.17</ele>
        <time>2017-03-26T14:47:49Z</time>
      </trkpt>
      <trkpt lat="45.1453" lon="5.12232">
        <ele>276.17</ele>
        <time>2017-03-26T14:47:50Z</time>
      </trkpt>
      <trkpt lat="45.1453" lon="5.12232">
        <ele>276.17</ele>
        <time>2017-03-26T14:47:51Z</time>
      </trkpt>
      <trkpt lat="45.1453" lon="5.12232">
        <ele>276.17</ele>
        <time>2017-03-26T14:47:52Z</time>
      </trkpt>
      <trkpt lat="45.1453" lon="5.12232">
        <ele>276.17</ele>
        <time>2017-03-26T14:47:53Z</time>
      </trkpt>
      <trkpt lat="45.1453" lon="5.12232">
        <ele>276.17</ele>
        <time>2017-03-26T14:47:54Z</time>
      </trkpt>
      <trkpt lat="45.1453" lon="5.12232">
        <ele>276.17</ele>
        <time>2017-03-26T14:47:55Z</time>
      </trkpt>
      <trkpt lat="45.1453" lon="5.12232">
        <ele>276.17</ele>
        <time>2017-03-26T14:47:56Z</time>
      </trkpt>
      <trkpt lat="45.1453" lon="5.12232">
        <ele>276.17</ele>
        <time>2017-03-26T14:47:57Z</time>
      </trkpt>
      <trkpt lat="45.1453" lon="5.12232">
        <ele>276.17</ele>
        <time>2017-03-26T14:47:58Z</time>
      </trkpt>
      <trkpt lat="45.1453" lon="5.12232">
        <ele>276.17</ele>
        <time>2017-03-26T14:47:59Z</time>
      </trkpt>
      <trkpt lat="45.1453" lon="5.12232">
        <ele>276.17</ele>
        <time>2017-03-26T14:48:00Z</time>
      </trkpt>
      <trkpt lat="45.1453" lon="5.12232">
        <ele>276.17</ele>
        <time>2017-03-26T14:48:01Z</time>
      </trkpt>
      <trkpt lat="45.1453" lon="5.12232">
        <ele>276.17</ele>
        <time>2017-03-26T14:48:02Z</time>
      </trkpt>
      <trkpt lat="45.1453" lon="5.12232">
        <ele>276.17</ele>
        <time>2017-03-26T14:48:03Z</time>
      </trkpt>
      <trkpt lat="45.1453" lon="5.12232">
        <ele>276.17</ele>
        <time>2017-03-26T14:48:04Z</time>
      </trkpt>
      <trkpt lat="45.1453" lon="5.12232">
        <ele>276.17</ele>
        <time>2017-03-26T14:48:05Z</time>
      </trkpt>
      <trkpt lat="45.1453" lon="5.12232">
        <ele>276.17</ele>
        <time>2017-03-26T14:48:06Z</time>
      </trkpt>
      <trkpt lat="45.1453" lon="5.12232">
        <ele>276.17</ele>
        <time>2017-03-26T14:48:07Z</time>
      </trkpt>
      <trkpt lat="45.1453" lon="5.12232">
        <ele>276.17</ele>
        <time>2017-03-26T14:48:08Z</time>
      </trkpt>
      <trkpt lat="45.1453" lon="5.12232">
        <ele>276.17</ele>
        <time>2017-03-26T14:48:09Z</time>
      </trkpt>
      <trkpt lat="45.1453" lon="5.12232">
        <ele>276.17</ele>
        <time>2017-03-26T14:48:10Z</time>
      </trkpt>
      <trkpt lat="45.1453" lon="5.12232">
        <ele>276.17</ele>
        <time>2017-03-26T14:48:11Z</time>
      </trkpt>
      <trkpt lat="45.1453" lon="5.12232">
        <ele>276.17</ele>
        <time>2017-03-26T14:48:12Z</time>
      </trkpt>
      <trkpt lat="45.1453" lon="5.12232">
        <ele>276.17</ele>
        <time>2017-03-26T14:48:13Z</time>
      </trkpt>
      <trkpt lat="45.1453" lon="5.12232">
        <ele>276.17</ele>
        <time>2017-03-26T14:48:14Z</time>
      </trkpt>
      <trkpt lat="45.1453" lon="5.12232">
        <ele>276.17</ele>
        <time>2017-03-26T14:48:15Z</time>
      </trkpt>
      <trkpt lat="45.1453" lon="5.12232">
        <ele>276.17</ele>
        <time>2017-03-26T14:48:16Z</time>
      </trkpt>
      <trkpt lat="45.1453" lon="5.12232">
        <ele>276.17</ele>
        <time>2017-03-26T14:48:17Z</time>
      </trkpt>
      <trkpt lat="45.1453" lon="5.12232">
        <ele>276.17</ele>
        <time>2017-03-26T14:48:18Z</time>
      </trkpt>
      <trkpt lat="45.1453" lon="5.12232">
        <ele>276.17</ele>
        <time>2017-03-26T14:48:19Z</time>
      </trkpt>
      <trkpt lat="45.1453" lon="5.12232">
        <ele>276.17</ele>
        <time>2017-03-26T14:48:20Z</time>
      </trkpt>
      <trkpt lat="45.1453" lon="5.12232">
        <ele>276.17</ele>
        <time>2017-03-26T14:48:21Z</time>
      </trkpt>
      <trkpt lat="45.1453" lon="5.12232">
        <ele>276.17</ele>
        <time>2017-03-26T14:48:22Z</time>
      </trkpt>
      <trkpt lat="45.1453" lon="5.12232">
        <ele>276.17</ele>
        <time>2017-03-26T14:48:23Z</time>
      </trkpt>
      <trkpt lat="45.1453" lon="5.12232">
        <ele>276.17</ele>
        <time>2017-03-26T14:48:24Z</time>
      </trkpt>
      <trkpt lat="45.1453" lon="5.12232">
        <ele>276.17</ele>
        <time>2017-03-26T14:48:25Z</time>
      </trkpt>
      <trkpt lat="45.1453" lon="5.12232">
        <ele>276.17</ele>
        <time>2017-03-26T14:48:26Z</time>
      </trkpt>
      <trkpt lat="45.1453" lon="5.12232">
        <ele>276.17</ele>
        <time>2017-03-26T14:48:27Z</time>
      </trkpt>
      <trkpt lat="45.1453" lon="5.12232">
        <ele>276.17</ele>
        <time>2017-03-26T14:48:28Z</time>
      </trkpt>
      <trkpt lat="45.1453" lon="5.12232">
        <ele>276.17</ele>
        <time>2017-03-26T14:48:29Z</time>
      </trkpt>
      <trkpt lat="45.1453" lon="5.12232">
        <ele>276.17</ele>
        <time>2017-03-26T14:48:30Z</time>
      </trkpt>
      <trkpt lat="45.1453" lon="5.12232">
        <ele>276.17</ele>
        <time>2017-03-26T14:48:31Z</time>
      </trkpt>
      <trkpt lat="45.1453" lon="5.12232">
        <ele>276.17</ele>
        <time>2017-03-26T14:48:32Z</time>
      </trkpt>
      <trkpt lat="45.1453" lon="5.12232">
        <ele>276.17</ele>
        <time>2017-03-26T14:48:33Z</time>
      </trkpt>
      <trkpt lat="45.1453" lon="5.12232">
        <ele>276.17</ele>
        <time>2017-03-26T14:48:34Z</time>
      </trkpt>
      <trkpt lat="45.1453" lon="5.12232">
        <ele>276.17</ele>
        <time>2017-03-26T14:48:35Z</time>
      </trkpt>
      <trkpt lat="45.1453" lon="5.12232">
        <ele>276.17</ele>
        <time>2017-03-26T14:48:36Z</time>
      </trkpt>
      <trkpt lat="45.1453" lon="5.12232">
        <ele>276.17</ele>
        <time>2017-03-26T14:48:37Z</time>
      </trkpt>
      <trkpt lat="45.1453" lon="5.12232">
        <ele>276.17</ele>
        <time>2017-03-26T14:48:38Z</time>
      </trkpt>
      <trkpt lat="45.1453" lon="5.12232">
        <ele>276.17</ele>
        <time>2017-03-26T14:48:39Z</time>
      </trkpt>
      <trkpt lat="45.1453" lon="5.12232">
        <ele>276.17</ele>
        <time>2017-03-26T14:48:40Z</time>
      </trkpt>
      <trkpt lat="45.1453" lon="5.12232">
        <ele>276.17</ele>
        <time>2017-03-26T14:48:41Z</time>
      </trkpt>
      <trkpt lat="45.1453" lon="5.12232">
        <ele>276.17</ele>
        <time>2017-03-26T14:48:42Z</time>
      </trkpt>
      <trkpt lat="45.1453" lon="5.12232">
        <ele>276.17</ele>
        <time>2017-03-26T14:48:43Z</time>
      </trkpt>
      <trkpt lat="45.1453" lon="5.12232">
        <ele>276.17</ele>
        <time>2017-03-26T14:48:44Z</time>
      </trkpt>
      <trkpt lat="45.1453" lon="5.12232">
        <ele>276.17</ele>
        <time>2017-03-26T14:48:45Z</time>
      </trkpt>
      <trkpt lat="45.1453" lon="5.12232">
        <ele>276.17</ele>
        <time>2017-03-26T14:48:46Z</time>
      </trkpt>
      <trkpt lat="45.1453" lon="5.12232">
        <ele>276.17</ele>
        <time>2017-03-26T14:48:47Z</time>
      </trkpt>
      <trkpt lat="45.1453" lon="5.12232">
        <ele>276.17</ele>
        <time>2017-03-26T14:48:48Z</time>
      </trkpt>
      <trkpt lat="45.1453" lon="5.12232">
        <ele>276.17</ele>
        <time>2017-03-26T14:48:49Z</time>
      </trkpt>
      <trkpt lat="45.1453" lon="5.12232">
        <ele>276.17</ele>
        <time>2017-03-26T14:48:50Z</time>
      </trkpt>
      <trkpt lat="45.1453" lon="5.12232">
        <ele>276.17</ele>
        <time>2017-03-26T14:48:51Z</time>
      </trkpt>
      <trkpt lat="45.1453" lon="5.12232">
        <ele>276.17</ele>
        <time>2017-03-26T14:48:52Z</time>
      </trkpt>
      <trkpt lat="45.1453" lon="5.12232">
        <ele>276.17</ele>
        <time>2017-03-26T14:48:53Z</time>
      </trkpt>
      <trkpt lat="45.1453" lon="5.12232">
        <ele>276.17</ele>
        <time>2017-03-26T14:48:54Z</time>
      </trkpt>
      <trkpt lat="45.1453" lon="5.12232">
        <ele>276.17</ele>
        <time>2017-03-26T14:48:55Z</time>
      </trkpt>
      <trkpt lat="45.1453" lon="5.12232">
        <ele>276.17</ele>
        <time>2017-03-26T14:48:56Z</time>
      </trkpt>
      <trkpt lat="45.1453" lon="5.12232">
        <ele>276.17</ele>
        <time>2017-03-26T14:48:57Z</time>
      </trkpt>
      <trkpt lat="45.1453" lon="5.12232">
        <ele>276.17</ele>
        <time>2017-03-26T14:48:58Z</time>
      </trkpt>
      <trkpt lat="45.1453" lon="5.12232">
        <ele>276.17</ele>
        <time>2017-03-26T14:48:59Z</time>
      </trkpt>
      <trkpt lat="45.1453" lon="5.12232">
        <ele>276.17</ele>
        <time>2017-03-26T14:49:00Z</time>
      </trkpt>
      <trkpt lat="45.1453" lon="5.12232">
        <ele>276.17</ele>
        <time>2017-03-26T14:49:01Z</time>
      </trkpt>
      <trkpt lat="45.1453" lon="5.12232">
        <ele>276.17</ele>
        <time>2017-03-26T14:49:02Z</time>
      </trkpt>
      <trkpt lat="45.1453" lon="5.12232">
        <ele>276.17</ele>
        <time>2017-03-26T14:49:03Z</time>
      </trkpt>
      <trkpt lat="45.1453" lon="5.12232">
        <ele>276.17</ele>
        <time>2017-03-26T14:49:04Z</time>
      </trkpt>
      <trkpt lat="45.1453" lon="5.12232">
        <ele>276.17</ele>
        <time>2017-03-26T14:49:05Z</time>
      </trkpt>
      <trkpt lat="45.1453" lon="5.12232">
        <ele>276.17</ele>
        <time>2017-03-26T14:49:06Z</time>
      </trkpt>
      <trkpt lat="45.1453" lon="5.12232">
        <ele>276.17</ele>
        <time>2017-03-26T14:49:07Z</time>
      </trkpt>
      <trkpt lat="45.1453" lon="5.12232">
        <ele>276.17</ele>
        <time>2017-03-26T14:49:08Z</time>
      </trkpt>
      <trkpt lat="45.1453" lon="5.12232">
        <ele>276.17</ele>
        <time>2017-03-26T14:49:09Z</time>
      </trkpt>
      <trkpt lat="45.1453" lon="5.12232">
        <ele>276.17</ele>
        <time>2017-03-26T14:49:10Z</time>
      </trkpt>
      <trkpt lat="45.1453" lon="5.12232">
        <ele>276.17</ele>
        <time>2017-03-26T14:49:11Z</time>
      </trkpt>
      <trkpt lat="45.1453" lon="5.12232">
        <ele>276.17</ele>
        <time>2017-03-26T14:49:12Z</time>
      </trkpt>
      <trkpt lat="45.1453" lon="5.12232">
        <ele>276.17</ele>
        <time>2017-03-26T14:49:13Z</time>
      </trkpt>
      <trkpt lat="45.1453" lon="5.12232">
        <ele>276.17</ele>
        <time>2017-03-26T14:49:14Z</time>
      </trkpt>
      <trkpt lat="45.1453" lon="5.12232">
        <ele>276.17</ele>
        <time>2017-03-26T14:49:15Z</time>
      </trkpt>
      <trkpt lat="45.1453" lon="5.12232">
        <ele>276.17</ele>
        <time>2017-03-26T14:49:16Z</time>
      </trkpt>
      <trkpt lat="45.1453" lon="5.12232">
        <ele>276.17</ele>
        <time>2017-03-26T14:49:17Z</time>
      </trkpt>
      <trkpt lat="45.1453" lon="5.12232">
        <ele>276.17</ele>
        <time>2017-03-26T14:49:18Z</time>
      </trkpt>
      <trkpt lat="45.1453" lon="5.12232">
        <ele>276.17</ele>
        <time>2017-03-26T14:49:19Z</time>
      </trkpt>
      <trkpt lat="45.1453" lon="5.12232">
        <ele>276.17</ele>
        <time>2017-03-26T14:49:20Z</time>
      </trkpt>
      <trkpt lat="45.1453" lon="5.12232">
        <ele>276.17</ele>
        <time>2017-03-26T14:49:21Z</time>
      </trkpt>
      <trkpt lat="45.1453" lon="5.12232">
        <ele>276.17</ele>
        <time>2017-03-26T14:49:22Z</time>
      </trkpt>
      <trkpt lat="45.1453" lon="5.12232">
        <ele>276.17</ele>
        <time>2017-03-26T14:49:23Z</time>
      </trkpt>
      <trkpt lat="45.1453" lon="5.12232">
        <ele>276.17</ele>
        <time>2017-03-26T14:49:24Z</time>
      </trkpt>
      <trkpt lat="45.1453" lon="5.12232">
        <ele>276.17</ele>
        <time>2017-03-26T14:49:25Z</time>
      </trkpt>
      <trkpt lat="45.1453" lon="5.12232">
        <ele>276.17</ele>
        <time>2017-03-26T14:49:26Z</time>
      </trkpt>
      <trkpt lat="45.1453" lon="5.12232">
        <ele>276.17</ele>
        <time>2017-03-26T14:49:27Z</time>
      </trkpt>
      <trkpt lat="45.1453" lon="5.12232">
        <ele>276.17</ele>
        <time>2017-03-26T14:49:28Z</time>
      </trkpt>
      <trkpt lat="45.1453" lon="5.12232">
        <ele>276.17</ele>
        <time>2017-03-26T14:49:29Z</time>
      </trkpt>
      <trkpt lat="45.1453" lon="5.12232">
        <ele>276.17</ele>
        <time>2017-03-26T14:49:30Z</time>
      </trkpt>
      <trkpt lat="45.1453" lon="5.12232">
        <ele>276.17</ele>
        <time>2017-03-26T14:49:31Z</time>
      </trkpt>
      <trkpt lat="45.1453" lon="5.12232">
        <ele>276.17</ele>
        <time>2017-03-26T14:49:32Z</time>
      </trkpt>
      <trkpt lat="45.1453" lon="5.12232">
        <ele>276.17</ele>
        <time>2017-03-26T14:49:33Z</time>
      </trkpt>
      <trkpt lat="45.1453" lon="5.12232">
        <ele>276.17</ele>
        <time>2017-03-26T14:49:34Z</time>
      </trkpt>
      <trkpt lat="45.1453" lon="5.12232">
        <ele>276.17</ele>
        <time>2017-03-26T14:49:35Z</time>
      </trkpt>
      <trkpt lat="45.1453" lon="5.12232">
        <ele>276.17</ele>
        <time>2017-03-26T14:49:36Z</time>
      </trkpt>
      <trkpt lat="45.1453" lon="5.12232">
        <ele>276.17</ele>
        <time>2017-03-26T14:49:37Z</time>
      </trkpt>
      <trkpt lat="45.1453" lon="5.12232">
        <ele>276.17</ele>
        <time>2017-03-26T14:49:38Z</time>
      </trkpt>
      <trkpt lat="45.1453" lon="5.12232">
        <ele>276.17</ele>
        <time>2017-03-26T14:49:39Z</time>
      </trkpt>
      <trkpt lat="45.1453" lon="5.12232">
        <ele>276.17</ele>
        <time>2017-03-26T14:49:40Z</time>
      </trkpt>
      <trkpt lat="45.1453" lon="5.12232">
        <ele>276.17</ele>
        <time>2017-03-26T14:49:41Z</time>
      </trkpt>
      <trkpt lat="45.1453" lon="5.12232">
        <ele>276.17</ele>
        <time>2017-03-26T14:49:42Z</time>
      </trkpt>
      <trkpt lat="45.1453" lon="5.12232">
        <ele>276.17</ele>
        <time>2017-03-26T14:49:43Z</time>
      </trkpt>
      <trkpt lat="45.1453" lon="5.12232">
        <ele>276.17</ele>
        <time>2017-03-26T14:49:44Z</time>
      </trkpt>
      <trkpt lat="45.1453" lon="5.12232">
        <ele>276.17</ele>
        <time>2017-03-26T14:49:45Z</time>
      </trkpt>
      <trkpt lat="45.1453" lon="5.12232">
        <ele>276.17</ele>
        <time>2017-03-26T14:49:46Z</time>
      </trkpt>
      <trkpt lat="45.1453" lon="5.12232">
        <ele>276.17</ele>
        <time>2017-03-26T14:49:47Z</time>
      </trkpt>
      <trkpt lat="45.1453" lon="5.12232">
        <ele>276.17</ele>
        <time>2017-03-26T14:49:48Z</time>
      </trkpt>
      <trkpt lat="45.1453" lon="5.12232">
        <ele>276.17</ele>
        <time>2017-03-26T14:49:49Z</time>
      </trkpt>
      <trkpt lat="45.1453" lon="5.12232">
        <ele>276.17</ele>
        <time>2017-03-26T14:49:50Z</time>
      </trkpt>
      <trkpt lat="45.1453" lon="5.12232">
        <ele>276.17</ele>
        <time>2017-03-26T14:49:51Z</time>
      </trkpt>
      <trkpt lat="45.1453" lon="5.12232">
        <ele>276.17</ele>
        <time>2017-03-26T14:49:52Z</time>
      </trkpt>
      <trkpt lat="45.1453" lon="5.12232">
        <ele>276.17</ele>
        <time>2017-03-26T14:49:53Z</time>
      </trkpt>
      <trkpt lat="45.1453" lon="5.12232">
        <ele>276.17</ele>
        <time>2017-03-26T14:49:54Z</time>
      </trkpt>
      <trkpt lat="45.1453" lon="5.12232">
        <ele>276.17</ele>
        <time>2017-03-26T14:49:55Z</time>
      </trkpt>
      <trkpt lat="45.1453" lon="5.12232">
        <ele>276.17</ele>
        <time>2017-03-26T14:49:56Z</time>
      </trkpt>
      <trkpt lat="45.1453" lon="5.12232">
        <ele>276.17</ele>
        <time>2017-03-26T14:49:57Z</time>
      </trkpt>
      <trkpt lat="45.1453" lon="5.12232">
        <ele>276.17</ele>
        <time>2017-03-26T14:49:58Z</time>
      </trkpt>
      <trkpt lat="45.1453" lon="5.12232">
        <ele>276.17</ele>
        <time>2017-03-26T14:49:59Z</time>
      </trkpt>
      <trkpt lat="45.1453" lon="5.12232">
        <ele>276.17</ele>
        <time>2017-03-26T14:50:00Z</time>
      </trkpt>
      <trkpt lat="45.1453" lon="5.12232">
        <ele>276.17</ele>
        <time>2017-03-26T14:50:01Z</time>
      </trkpt>
      <trkpt lat="45.1453" lon="5.12232">
        <ele>276.17</ele>
        <time>2017-03-26T14:50:02Z</time>
      </trkpt>
      <trkpt lat="45.1453" lon="5.12232">
        <ele>276.17</ele>
        <time>2017-03-26T14:50:03Z</time>
      </trkpt>
      <trkpt lat="45.1453" lon="5.12232">
        <ele>276.17</ele>
        <time>2017-03-26T14:50:04Z</time>
      </trkpt>
      <trkpt lat="45.1453" lon="5.12232">
        <ele>276.17</ele>
        <time>2017-03-26T14:50:05Z</time>
      </trkpt>
      <trkpt lat="45.1453" lon="5.12232">
        <ele>276.17</ele>
        <time>2017-03-26T14:50:06Z</time>
      </trkpt>
      <trkpt lat="45.1453" lon="5.12232">
        <ele>276.17</ele>
        <time>2017-03-26T14:50:07Z</time>
      </trkpt>
      <trkpt lat="45.1453" lon="5.12232">
        <ele>276.17</ele>
        <time>2017-03-26T14:50:08Z</time>
      </trkpt>
      <trkpt lat="45.1453" lon="5.12232">
        <ele>276.17</ele>
        <time>2017-03-26T14:50:09Z</time>
      </trkpt>
      <trkpt lat="45.1453" lon="5.12232">
        <ele>276.17</ele>
        <time>2017-03-26T14:50:10Z</time>
      </trkpt>
      <trkpt lat="45.1453" lon="5.12232">
        <ele>276.17</ele>
        <time>2017-03-26T14:50:11Z</time>
      </trkpt>
      <trkpt lat="45.1453" lon="5.12232">
        <ele>276.17</ele>
        <time>2017-03-26T14:50:12Z</time>
      </trkpt>
      <trkpt lat="45.1453" lon="5.12232">
        <ele>276.17</ele>
        <time>2017-03-26T14:50:13Z</time>
      </trkpt>
      <trkpt lat="45.1453" lon="5.12232">
        <ele>276.17</ele>
        <time>2017-03-26T14:50:14Z</time>
      </trkpt>
      <trkpt lat="45.1453" lon="5.12232">
        <ele>276.17</ele>
        <time>2017-03-26T14:50:15Z</time>
      </trkpt>
      <trkpt lat="45.1453" lon="5.12232">
        <ele>276.17</ele>
        <time>2017-03-26T14:50:16Z</time>
      </trkpt>
      <trkpt lat="45.1453" lon="5.12232">
        <ele>276.17</ele>
        <time>2017-03-26T14:50:17Z</time>
      </trkpt>
      <trkpt lat="45.1453" lon="5.12232">
        <ele>276.17</ele>
        <time>2017-03-26T14:50:18Z</time>
      </trkpt>
      <trkpt lat="45.1453" lon="5.12232">
        <ele>276.17</ele>
        <time>2017-03-26T14:50:19Z</time>
      </trkpt>
      <trkpt lat="45.1453" lon="5.12232">
        <ele>276.17</ele>
        <time>2017-03-26T14:50:20Z</time>
      </trkpt>
      <trkpt lat="45.1453" lon="5.12232">
        <ele>276.17</ele>
        <time>2017-03-26T14:50:21Z</time>
      </trkpt>
      <trkpt lat="45.1453" lon="5.12232">
        <ele>276.17</ele>
        <time>2017-03-26T14:50:22Z</time>
      </trkpt>
      <trkpt lat="45.1453" lon="5.12232">
        <ele>276.17</ele>
        <time>2017-03-26T14:50:23Z</time>
      </trkpt>
      <trkpt lat="45.1453" lon="5.12232">
        <ele>276.17</ele>
        <time>2017-03-26T14:50:24Z</time>
      </trkpt>
      <trkpt lat="45.1453" lon="5.12232">
        <ele>276.17</ele>
        <time>2017-03-26T14:50:25Z</time>
      </trkpt>
      <trkpt lat="45.1453" lon="5.12232">
        <ele>276.17</ele>
        <time>2017-03-26T14:50:26Z</time>
      </trkpt>
      <trkpt lat="45.1453" lon="5.12232">
        <ele>276.17</ele>
        <time>2017-03-26T14:50:27Z</time>
      </trkpt>
      <trkpt lat="45.1453" lon="5.12232">
        <ele>276.17</ele>
        <time>2017-03-26T14:50:28Z</time>
      </trkpt>
      <trkpt lat="45.1453" lon="5.12232">
        <ele>276.17</ele>
        <time>2017-03-26T14:50:29Z</time>
      </trkpt>
      <trkpt lat="45.1453" lon="5.12232">
        <ele>276.17</ele>
        <time>2017-03-26T14:50:30Z</time>
      </trkpt>
      <trkpt lat="45.1453" lon="5.12232">
        <ele>276.17</ele>
        <time>2017-03-26T14:50:31Z</time>
      </trkpt>
      <trkpt lat="45.1453" lon="5.12232">
        <ele>276.17</ele>
        <time>2017-03-26T14:50:32Z</time>
      </trkpt>
      <trkpt lat="45.1453" lon="5.12232">
        <ele>276.17</ele>
        <time>2017-03-26T14:50:33Z</time>
      </trkpt>
      <trkpt lat="45.1453" lon="5.12232">
        <ele>276.17</ele>
        <time>2017-03-26T14:50:34Z</time>
      </trkpt>
      <trkpt lat="45.1453" lon="5.12232">
        <ele>276.17</ele>
        <time>2017-03-26T14:50:35Z</time>
      </trkpt>
      <trkpt lat="45.1453" lon="5.12232">
        <ele>276.17</ele>
        <time>2017-03-26T14:50:36Z</time>
      </trkpt>
      <trkpt lat="45.1453" lon="5.12232">
        <ele>276.17</ele>
        <time>2017-03-26T14:50:37Z</time>
      </trkpt>
      <trkpt lat="45.1453" lon="5.12232">
        <ele>276.17</ele>
        <time>2017-03-26T14:50:38Z</time>
      </trkpt>
      <trkpt lat="45.1453" lon="5.12232">
        <ele>276.17</ele>
        <time>2017-03-26T14:50:39Z</time>
      </trkpt>
      <trkpt lat="45.1453" lon="5.12232">
        <ele>276.17</ele>
        <time>2017-03-26T14:50:40Z</time>
      </trkpt>
      <trkpt lat="45.1453" lon="5.12232">
        <ele>276.17</ele>
        <time>2017-03-26T14:50:41Z</time>
      </trkpt>
      <trkpt lat="45.1453" lon="5.12232">
        <ele>276.17</ele>
        <time>2017-03-26T14:50:42Z</time>
      </trkpt>
      <trkpt lat="45.1453" lon="5.12232">
        <ele>276.17</ele>
        <time>2017-03-26T14:50:43Z</time>
      </trkpt>
      <trkpt lat="45.1453" lon="5.12232">
        <ele>276.17</ele>
        <time>2017-03-26T14:50:44Z</time>
      </trkpt>
      <trkpt lat="45.1453" lon="5.12232">
        <ele>276.17</ele>
        <time>2017-03-26T14:50:45Z</time>
      </trkpt>
      <trkpt lat="45.1453" lon="5.12232">
        <ele>276.17</ele>
        <time>2017-03-26T14:50:46Z</time>
      </trkpt>
      <trkpt lat="45.1453" lon="5.12232">
        <ele>276.17</ele>
        <time>2017-03-26T14:50:47Z</time>
      </trkpt>
      <trkpt lat="45.1453" lon="5.12232">
        <ele>276.17</ele>
        <time>2017-03-26T14:50:48Z</time>
      </trkpt>
      <trkpt lat="45.1453" lon="5.12232">
        <ele>276.17</ele>
        <time>2017-03-26T14:50:49Z</time>
      </trkpt>
      <trkpt lat="45.1453" lon="5.12232">
        <ele>276.17</ele>
        <time>2017-03-26T14:50:50Z</time>
      </trkpt>
      <trkpt lat="45.1453" lon="5.12232">
        <ele>276.17</ele>
        <time>2017-03-26T14:50:51Z</time>
      </trkpt>
      <trkpt lat="45.1453" lon="5.12232">
        <ele>276.17</ele>
        <time>2017-03-26T14:50:52Z</time>
      </trkpt>
      <trkpt lat="45.1453" lon="5.12232">
        <ele>276.17</ele>
        <time>2017-03-26T14:50:53Z</time>
      </trkpt>
      <trkpt lat="45.1453" lon="5.12232">
        <ele>276.17</ele>
        <time>2017-03-26T14:50:54Z</time>
      </trkpt>
      <trkpt lat="45.1453" lon="5.12232">
        <ele>276.17</ele>
        <time>2017-03-26T14:50:55Z</time>
      </trkpt>
      <trkpt lat="45.1453" lon="5.12232">
        <ele>276.17</ele>
        <time>2017-03-26T14:50:56Z</time>
      </trkpt>
      <trkpt lat="45.1453" lon="5.12232">
        <ele>276.17</ele>
        <time>2017-03-26T14:50:57Z</time>
      </trkpt>
      <trkpt lat="45.1453" lon="5.12232">
        <ele>276.17</ele>
        <time>2017-03-26T14:50:58Z</time>
      </trkpt>
      <trkpt lat="45.1453" lon="5.12232">
        <ele>276.17</ele>
        <time>2017-03-26T14:50:59Z</time>
      </trkpt>
      <trkpt lat="45.1453" lon="5.12232">
        <ele>276.17</ele>
        <time>2017-03-26T14:51:00Z</time>
      </trkpt>
      <trkpt lat="45.1453" lon="5.12232">
        <ele>276.17</ele>
        <time>2017-03-26T14:51:01Z</time>
      </trkpt>
      <trkpt lat="45.1453" lon="5.12232">
        <ele>276.17</ele>
        <time>2017-03-26T14:51:02Z</time>
      </trkpt>
      <trkpt lat="45.1453" lon="5.12232">
        <ele>276.17</ele>
        <time>2017-03-26T14:51:03Z</time>
      </trkpt>
      <trkpt lat="45.1453" lon="5.12232">
        <ele>276.17</ele>
        <time>2017-03-26T14:51:04Z</time>
      </trkpt>
      <trkpt lat="45.1453" lon="5.12232">
        <ele>276.17</ele>
        <time>2017-03-26T14:51:05Z</time>
      </trkpt>
      <trkpt lat="45.1453" lon="5.12232">
        <ele>276.17</ele>
        <time>2017-03-26T14:51:06Z</time>
      </trkpt>
      <trkpt lat="45.1453" lon="5.12232">
        <ele>276.17</ele>
        <time>2017-03-26T14:51:07Z</time>
      </trkpt>
      <trkpt lat="45.1453" lon="5.12232">
        <ele>276.17</ele>
        <time>2017-03-26T14:51:08Z</time>
      </trkpt>
      <trkpt lat="45.1453" lon="5.12232">
        <ele>276.17</ele>
        <time>2017-03-26T14:51:09Z</time>
      </trkpt>
      <trkpt lat="45.1453" lon="5.12232">
        <ele>276.17</ele>
        <time>2017-03-26T14:51:10Z</time>
      </trkpt>
      <trkpt lat="45.1453" lon="5.12232">
        <ele>276.17</ele>
        <time>2017-03-26T14:51:11Z</time>
      </trkpt>
      <trkpt lat="45.1453" lon="5.12232">
        <ele>276.17</ele>
        <time>2017-03-26T14:51:12Z</time>
      </trkpt>
      <trkpt lat="45.1453" lon="5.12232">
        <ele>276.17</ele>
        <time>2017-03-26T14:51:13Z</time>
      </trkpt>
      <trkpt lat="45.1453" lon="5.12232">
        <ele>276.17</ele>
        <time>2017-03-26T14:51:14Z</time>
      </trkpt>
      <trkpt lat="45.1453" lon="5.12232">
        <ele>276.17</ele>
        <time>2017-03-26T14:51:15Z</time>
      </trkpt>
      <trkpt lat="45.1453" lon="5.12232">
        <ele>276.17</ele>
        <time>2017-03-26T14:51:16Z</time>
      </trkpt>
      <trkpt lat="45.1453" lon="5.12232">
        <ele>276.17</ele>
        <time>2017-03-26T14:51:17Z</time>
      </trkpt>
      <trkpt lat="45.1453" lon="5.12232">
        <ele>276.17</ele>
        <time>2017-03-26T14:51:18Z</time>
      </trkpt>
      <trkpt lat="45.1453" lon="5.12232">
        <ele>276.17</ele>
        <time>2017-03-26T14:51:19Z</time>
      </trkpt>
      <trkpt lat="45.1453" lon="5.12232">
        <ele>276.17</ele>
        <time>2017-03-26T14:51:20Z</time>
      </trkpt>
      <trkpt lat="45.1453" lon="5.12232">
        <ele>276.17</ele>
        <time>2017-03-26T14:51:21Z</time>
      </trkpt>
      <trkpt lat="45.1453" lon="5.12232">
        <ele>276.17</ele>
        <time>2017-03-26T14:51:22Z</time>
      </trkpt>
      <trkpt lat="45.1453" lon="5.12232">
        <ele>276.17</ele>
        <time>2017-03-26T14:51:23Z</time>
      </trkpt>
      <trkpt lat="45.1453" lon="5.12232">
        <ele>276.17</ele>
        <time>2017-03-26T14:51:24Z</time>
      </trkpt>
      <trkpt lat="45.1453" lon="5.12232">
        <ele>276.17</ele>
        <time>2017-03-26T14:51:25Z</time>
      </trkpt>
      <trkpt lat="45.1453" lon="5.12232">
        <ele>276.17</ele>
        <time>2017-03-26T14:51:26Z</time>
      </trkpt>
      <trkpt lat="45.1453" lon="5.12232">
        <ele>276.17</ele>
        <time>2017-03-26T14:51:27Z</time>
      </trkpt>
      <trkpt lat="45.1453" lon="5.12232">
        <ele>276.17</ele>
        <time>2017-03-26T14:51:28Z</time>
      </trkpt>
      <trkpt lat="45.1453" lon="5.12232">
        <ele>276.17</ele>
        <time>2017-03-26T14:51:29Z</time>
      </trkpt>
      <trkpt lat="45.1453" lon="5.12232">
        <ele>276.17</ele>
        <time>2017-03-26T14:51:30Z</time>
      </trkpt>
      <trkpt lat="45.1453" lon="5.12232">
        <ele>276.17</ele>
        <time>2017-03-26T14:51:31Z</time>
      </trkpt>
      <trkpt lat="45.1453" lon="5.12232">
        <ele>276.17</ele>
        <time>2017-03-26T14:51:32Z</time>
      </trkpt>
      <trkpt lat="45.1453" lon="5.12232">
        <ele>276.17</ele>
        <time>2017-03-26T14:51:33Z</time>
      </trkpt>
      <trkpt lat="45.1453" lon="5.12232">
        <ele>276.17</ele>
        <time>2017-03-26T14:51:34Z</time>
      </trkpt>
      <trkpt lat="45.1453" lon="5.12232">
        <ele>276.17</ele>
        <time>2017-03-26T14:51:35Z</time>
      </trkpt>
      <trkpt lat="45.1453" lon="5.12232">
        <ele>276.17</ele>
        <time>2017-03-26T14:51:36Z</time>
      </trkpt>
      <trkpt lat="45.1453" lon="5.12232">
        <ele>276.17</ele>
        <time>2017-03-26T14:51:37Z</time>
      </trkpt>
      <trkpt lat="45.1453" lon="5.12232">
        <ele>276.17</ele>
        <time>2017-03-26T14:51:38Z</time>
      </trkpt>
      <trkpt lat="45.1453" lon="5.12232">
        <ele>276.17</ele>
        <time>2017-03-26T14:51:39Z</time>
      </trkpt>
      <trkpt lat="45.1453" lon="5.12232">
        <ele>276.17</ele>
        <time>2017-03-26T14:51:40Z</time>
      </trkpt>
      <trkpt lat="45.1453" lon="5.12232">
        <ele>276.17</ele>
        <time>2017-03-26T14:51:41Z</time>
      </trkpt>
      <trkpt lat="45.1453" lon="5.12232">
        <ele>276.17</ele>
        <time>2017-03-26T14:51:42Z</time>
      </trkpt>
      <trkpt lat="45.1453" lon="5.12232">
        <ele>276.17</ele>
        <time>2017-03-26T14:51:43Z</time>
      </trkpt>
      <trkpt lat="45.1453" lon="5.12232">
        <ele>276.17</ele>
        <time>2017-03-26T14:51:44Z</time>
      </trkpt>
      <trkpt lat="45.1453" lon="5.12232">
        <ele>276.17</ele>
        <time>2017-03-26T14:51:45Z</time>
      </trkpt>
      <trkpt lat="45.1453" lon="5.12232">
        <ele>276.17</ele>
        <time>2017-03-26T14:51:46Z</time>
      </trkpt>
      <trkpt lat="45.1453" lon="5.12232">
        <ele>276.17</ele>
        <time>2017-03-26T14:51:47Z</time>
      </trkpt>
      <trkpt lat="45.1453" lon="5.12232">
        <ele>276.17</ele>
        <time>2017-03-26T14:51:48Z</time>
      </trkpt>
      <trkpt lat="45.1453" lon="5.12232">
        <ele>276.17</ele>
        <time>2017-03-26T14:51:49Z</time>
      </trkpt>
      <trkpt lat="45.1453" lon="5.12232">
        <ele>276.17</ele>
        <time>2017-03-26T14:51:50Z</time>
      </trkpt>
      <trkpt lat="45.1453" lon="5.12232">
        <ele>276.17</ele>
        <time>2017-03-26T14:51:51Z</time>
      </trkpt>
      <trkpt lat="45.1453" lon="5.12232">
        <ele>276.17</ele>
        <time>2017-03-26T14:51:52Z</time>
      </trkpt>
      <trkpt lat="45.1453" lon="5.12232">
        <ele>276.17</ele>
        <time>2017-03-26T14:51:53Z</time>
      </trkpt>
      <trkpt lat="45.1453" lon="5.12232">
        <ele>276.17</ele>
        <time>2017-03-26T14:51:54Z</time>
      </trkpt>
      <trkpt lat="45.1453" lon="5.12232">
        <ele>276.17</ele>
        <time>2017-03-26T14:51:55Z</time>
      </trkpt>
      <trkpt lat="45.1453" lon="5.12232">
        <ele>276.17</ele>
        <time>2017-03-26T14:51:56Z</time>
      </trkpt>
      <trkpt lat="45.1453" lon="5.12232">
        <ele>276.17</ele>
        <time>2017-03-26T14:51:57Z</time>
      </trkpt>
      <trkpt lat="45.1453" lon="5.12232">
        <ele>276.17</ele>
        <time>2017-03-26T14:51:58Z</time>
      </trkpt>
      <trkpt lat="45.1453" lon="5.12232">
        <ele>276.17</ele>
        <time>2017-03-26T14:51:59Z</time>
      </trkpt>
      <trkpt lat="45.1453" lon="5.12232">
        <ele>276.17</ele>
        <time>2017-03-26T14:52:00Z</time>
      </trkpt>
      <trkpt lat="45.1453" lon="5.12232">
        <ele>276.17</ele>
        <time>2017-03-26T14:52:01Z</time>
      </trkpt>
      <trkpt lat="45.1453" lon="5.12232">
        <ele>276.17</ele>
        <time>2017-03-26T14:52:02Z</time>
      </trkpt>
      <trkpt lat="45.1453" lon="5.12232">
        <ele>276.17</ele>
        <time>2017-03-26T14:52:03Z</time>
      </trkpt>
      <trkpt lat="45.1453" lon="5.12232">
        <ele>276.17</ele>
        <time>2017-03-26T14:52:04Z</time>
      </trkpt>
      <trkpt lat="45.1453" lon="5.12232">
        <ele>276.17</ele>
        <time>2017-03-26T14:52:05Z</time>
      </trkpt>
      <trkpt lat="45.1453" lon="5.12232">
        <ele>276.17</ele>
        <time>2017-03-26T14:52:06Z</time>
      </trkpt>
      <trkpt lat="45.1453" lon="5.12232">
        <ele>276.17</ele>
        <time>2017-03-26T14:52:07Z</time>
      </trkpt>
      <trkpt lat="45.1453" lon="5.12232">
        <ele>276.17</ele>
        <time>2017-03-26T14:52:08Z</time>
      </trkpt>
      <trkpt lat="45.1453" lon="5.12232">
        <ele>276.17</ele>
        <time>2017-03-26T14:52:09Z</time>
      </trkpt>
      <trkpt lat="45.1453" lon="5.12232">
        <ele>276.17</ele>
        <time>2017-03-26T14:52:10Z</time>
      </trkpt>
      <trkpt lat="45.1453" lon="5.12232">
        <ele>276.17</ele>
        <time>2017-03-26T14:52:11Z</time>
      </trkpt>
      <trkpt lat="45.1453" lon="5.12232">
        <ele>276.17</ele>
        <time>2017-03-26T14:52:12Z</time>
      </trkpt>
      <trkpt lat="45.1453" lon="5.12232">
        <ele>276.17</ele>
        <time>2017-03-26T14:52:13Z</time>
      </trkpt>
      <trkpt lat="45.1453" lon="5.12232">
        <ele>276.17</ele>
        <time>2017-03-26T14:52:14Z</time>
      </trkpt>
      <trkpt lat="45.1453" lon="5.12232">
        <ele>276.17</ele>
        <time>2017-03-26T14:52:15Z</time>
      </trkpt>
      <trkpt lat="45.1453" lon="5.12232">
        <ele>276.17</ele>
        <time>2017-03-26T14:52:16Z</time>
      </trkpt>
      <trkpt lat="45.1453" lon="5.12232">
        <ele>276.17</ele>
        <time>2017-03-26T14:52:17Z</time>
      </trkpt>
      <trkpt lat="45.1453" lon="5.12232">
        <ele>276.17</ele>
        <time>2017-03-26T14:52:18Z</time>
      </trkpt>
      <trkpt lat="45.1453" lon="5.12232">
        <ele>276.17</ele>
        <time>2017-03-26T14:52:19Z</time>
      </trkpt>
      <trkpt lat="45.1453" lon="5.12232">
        <ele>276.17</ele>
        <time>2017-03-26T14:52:20Z</time>
      </trkpt>
      <trkpt lat="45.1453" lon="5.12232">
        <ele>276.17</ele>
        <time>2017-03-26T14:52:21Z</time>
      </trkpt>
      <trkpt lat="45.1453" lon="5.12232">
        <ele>276.17</ele>
        <time>2017-03-26T14:52:22Z</time>
      </trkpt>
      <trkpt lat="45.1453" lon="5.12232">
        <ele>276.17</ele>
        <time>2017-03-26T14:52:23Z</time>
      </trkpt>
      <trkpt lat="45.1453" lon="5.12232">
        <ele>276.17</ele>
        <time>2017-03-26T14:52:24Z</time>
      </trkpt>
      <trkpt lat="45.1453" lon="5.12232">
        <ele>276.17</ele>
        <time>2017-03-26T14:52:25Z</time>
      </trkpt>
      <trkpt lat="45.1453" lon="5.12232">
        <ele>276.17</ele>
        <time>2017-03-26T14:52:26Z</time>
      </trkpt>
      <trkpt lat="45.1453" lon="5.12232">
        <ele>276.17</ele>
        <time>2017-03-26T14:52:27Z</time>
      </trkpt>
      <trkpt lat="45.1453" lon="5.12232">
        <ele>276.17</ele>
        <time>2017-03-26T14:52:28Z</time>
      </trkpt>
      <trkpt lat="45.1453" lon="5.12232">
        <ele>276.17</ele>
        <time>2017-03-26T14:52:29Z</time>
      </trkpt>
      <trkpt lat="45.1453" lon="5.12232">
        <ele>276.17</ele>
        <time>2017-03-26T14:52:30Z</time>
      </trkpt>
      <trkpt lat="45.1453" lon="5.12232">
        <ele>276.17</ele>
        <time>2017-03-26T14:52:31Z</time>
      </trkpt>
      <trkpt lat="45.1453" lon="5.12232">
        <ele>276.17</ele>
        <time>2017-03-26T14:52:32Z</time>
      </trkpt>
      <trkpt lat="45.1453" lon="5.12232">
        <ele>276.17</ele>
        <time>2017-03-26T14:52:33Z</time>
      </trkpt>
      <trkpt lat="45.1453" lon="5.12232">
        <ele>276.17</ele>
        <time>2017-03-26T14:52:34Z</time>
      </trkpt>
      <trkpt lat="45.1453" lon="5.12232">
        <ele>276.17</ele>
        <time>2017-03-26T14:52:35Z</time>
      </trkpt>
      <trkpt lat="45.1453" lon="5.12232">
        <ele>276.17</ele>
        <time>2017-03-26T14:52:36Z</time>
      </trkpt>
      <trkpt lat="45.1453" lon="5.12232">
        <ele>276.17</ele>
        <time>2017-03-26T14:52:37Z</time>
      </trkpt>
      <trkpt lat="45.1453" lon="5.12232">
        <ele>276.17</ele>
        <time>2017-03-26T14:52:38Z</time>
      </trkpt>
      <trkpt lat="45.1453" lon="5.12232">
        <ele>276.17</ele>
        <time>2017-03-26T14:52:39Z</time>
      </trkpt>
      <trkpt lat="45.1453" lon="5.12232">
        <ele>276.17</ele>
        <time>2017-03-26T14:52:40Z</time>
      </trkpt>
      <trkpt lat="45.1453" lon="5.12232">
        <ele>276.17</ele>
        <time>2017-03-26T14:52:41Z</time>
      </trkpt>
      <trkpt lat="45.1453" lon="5.12232">
        <ele>276.17</ele>
        <time>2017-03-26T14:52:42Z</time>
      </trkpt>
      <trkpt lat="45.1453" lon="5.12232">
        <ele>276.17</ele>
        <time>2017-03-26T14:52:43Z</time>
      </trkpt>
      <trkpt lat="45.1453" lon="5.12232">
        <ele>276.17</ele>
        <time>2017-03-26T14:52:44Z</time>
      </trkpt>
      <trkpt lat="45.1453" lon="5.12232">
        <ele>276.17</ele>
        <time>2017-03-26T14:52:45Z</time>
      </trkpt>
      <trkpt lat="45.1453" lon="5.12232">
        <ele>276.17</ele>
        <time>2017-03-26T14:52:46Z</time>
      </trkpt>
      <trkpt lat="45.1453" lon="5.12232">
        <ele>276.17</ele>
        <time>2017-03-26T14:52:47Z</time>
      </trkpt>
      <trkpt lat="45.1453" lon="5.12232">
        <ele>276.17</ele>
        <time>2017-03-26T14:52:48Z</time>
      </trkpt>
      <trkpt lat="45.1453" lon="5.12232">
        <ele>276.17</ele>
        <time>2017-03-26T14:52:49Z</time>
      </trkpt>
      <trkpt lat="45.1453" lon="5.12232">
        <ele>276.17</ele>
        <time>2017-03-26T14:52:50Z</time>
      </trkpt>
      <trkpt lat="45.1453" lon="5.12232">
        <ele>276.17</ele>
        <time>2017-03-26T14:52:51Z</time>
      </trkpt>
      <trkpt lat="45.1453" lon="5.12232">
        <ele>276.17</ele>
        <time>2017-03-26T14:52:52Z</time>
      </trkpt>
      <trkpt lat="45.1453" lon="5.12232">
        <ele>276.17</ele>
        <time>2017-03-26T14:52:53Z</time>
      </trkpt>
      <trkpt lat="45.1453" lon="5.12232">
        <ele>276.17</ele>
        <time>2017-03-26T14:52:54Z</time>
      </trkpt>
      <trkpt lat="45.1453" lon="5.12232">
        <ele>276.17</ele>
        <time>2017-03-26T14:52:55Z</time>
      </trkpt>
      <trkpt lat="45.1453" lon="5.12232">
        <ele>276.17</ele>
        <time>2017-03-26T14:52:56Z</time>
      </trkpt>
      <trkpt lat="45.1453" lon="5.12232">
        <ele>276.17</ele>
        <time>2017-03-26T14:52:57Z</time>
      </trkpt>
      <trkpt lat="45.1453" lon="5.12232">
        <ele>276.17</ele>
        <time>2017-03-26T14:52:58Z</time>
      </trkpt>
      <trkpt lat="45.1453" lon="5.12232">
        <ele>276.17</ele>
        <time>2017-03-26T14:52:59Z</time>
      </trkpt>
      <trkpt lat="45.1453" lon="5.12232">
        <ele>276.17</ele>
        <time>2017-03-26T14:53:00Z</time>
      </trkpt>
      <trkpt lat="45.1453" lon="5.12232">
        <ele>276.17</ele>
        <time>2017-03-26T14:53:01Z</time>
      </trkpt>
      <trkpt lat="45.1453" lon="5.12232">
        <ele>276.17</ele>
        <time>2017-03-26T14:53:02Z</time>
      </trkpt>
      <trkpt lat="45.1453" lon="5.12232">
        <ele>276.17</ele>
        <time>2017-03-26T14:53:03Z</time>
      </trkpt>
      <trkpt lat="45.1453" lon="5.12232">
        <ele>276.17</ele>
        <time>2017-03-26T14:53:04Z</time>
      </trkpt>
      <trkpt lat="45.1453" lon="5.12232">
        <ele>276.17</ele>
        <time>2017-03-26T14:53:05Z</time>
      </trkpt>
      <trkpt lat="45.1453" lon="5.12232">
        <ele>276.17</ele>
        <time>2017-03-26T14:53:06Z</time>
      </trkpt>
      <trkpt lat="45.1453" lon="5.12232">
        <ele>276.17</ele>
        <time>2017-03-26T14:53:07Z</time>
      </trkpt>
      <trkpt lat="45.1453" lon="5.12232">
        <ele>276.17</ele>
        <time>2017-03-26T14:53:08Z</time>
      </trkpt>
      <trkpt lat="45.1453" lon="5.12232">
        <ele>276.17</ele>
        <time>2017-03-26T14:53:09Z</time>
      </trkpt>
      <trkpt lat="45.1453" lon="5.12232">
        <ele>276.17</ele>
        <time>2017-03-26T14:53:10Z</time>
      </trkpt>
      <trkpt lat="45.1453" lon="5.12232">
        <ele>276.17</ele>
        <time>2017-03-26T14:53:11Z</time>
      </trkpt>
      <trkpt lat="45.1453" lon="5.12232">
        <ele>276.17</ele>
        <time>2017-03-26T14:53:12Z</time>
      </trkpt>
      <trkpt lat="45.1453" lon="5.12232">
        <ele>276.17</ele>
        <time>2017-03-26T14:53:13Z</time>
      </trkpt>
      <trkpt lat="45.1453" lon="5.12232">
        <ele>276.17</ele>
        <time>2017-03-26T14:53:14Z</time>
      </trkpt>
      <trkpt lat="45.1453" lon="5.12232">
        <ele>276.17</ele>
        <time>2017-03-26T14:53:15Z</time>
      </trkpt>
      <trkpt lat="45.1453" lon="5.12232">
        <ele>276.17</ele>
        <time>2017-03-26T14:53:16Z</time>
      </trkpt>
      <trkpt lat="45.1453" lon="5.12232">
        <ele>276.17</ele>
        <time>2017-03-26T14:53:17Z</time>
      </trkpt>
      <trkpt lat="45.1453" lon="5.12232">
        <ele>276.17</ele>
        <time>2017-03-26T14:53:18Z</time>
      </trkpt>
      <trkpt lat="45.1453" lon="5.12232">
        <ele>276.17</ele>
        <time>2017-03-26T14:53:19Z</time>
      </trkpt>
      <trkpt lat="45.1453" lon="5.12232">
        <ele>276.17</ele>
        <time>2017-03-26T14:53:20Z</time>
      </trkpt>
      <trkpt lat="45.1453" lon="5.12232">
        <ele>276.17</ele>
        <time>2017-03-26T14:53:21Z</time>
      </trkpt>
      <trkpt lat="45.1453" lon="5.12232">
        <ele>276.17</ele>
        <time>2017-03-26T14:53:22Z</time>
      </trkpt>
      <trkpt lat="45.1453" lon="5.12232">
        <ele>276.17</ele>
        <time>2017-03-26T14:53:23Z</time>
      </trkpt>
      <trkpt lat="45.1453" lon="5.12232">
        <ele>276.17</ele>
        <time>2017-03-26T14:53:24Z</time>
      </trkpt>
      <trkpt lat="45.1453" lon="5.12232">
        <ele>276.17</ele>
        <time>2017-03-26T14:53:25Z</time>
      </trkpt>
      <trkpt lat="45.1453" lon="5.12232">
        <ele>276.17</ele>
        <time>2017-03-26T14:53:26Z</time>
      </trkpt>
      <trkpt lat="45.1453" lon="5.12232">
        <ele>276.17</ele>
        <time>2017-03-26T14:53:27Z</time>
      </trkpt>
      <trkpt lat="45.1453" lon="5.12232">
        <ele>276.17</ele>
        <time>2017-03-26T14:53:28Z</time>
      </trkpt>
      <trkpt lat="45.1453" lon="5.12232">
        <ele>276.17</ele>
        <time>2017-03-26T14:53:29Z</time>
      </trkpt>
      <trkpt lat="45.1453" lon="5.12232">
        <ele>276.17</ele>
        <time>2017-03-26T14:53:30Z</time>
      </trkpt>
      <trkpt lat="45.1453" lon="5.12232">
        <ele>276.17</ele>
        <time>2017-03-26T14:53:31Z</time>
      </trkpt>
      <trkpt lat="45.1453" lon="5.12232">
        <ele>276.17</ele>
        <time>2017-03-26T14:53:32Z</time>
      </trkpt>
      <trkpt lat="45.1453" lon="5.12232">
        <ele>276.17</ele>
        <time>2017-03-26T14:53:33Z</time>
      </trkpt>
      <trkpt lat="45.1453" lon="5.12232">
        <ele>276.17</ele>
        <time>2017-03-26T14:53:34Z</time>
      </trkpt>
      <trkpt lat="45.1453" lon="5.12232">
        <ele>276.17</ele>
        <time>2017-03-26T14:53:35Z</time>
      </trkpt>
      <trkpt lat="45.1453" lon="5.12232">
        <ele>276.17</ele>
        <time>2017-03-26T14:53:36Z</time>
      </trkpt>
      <trkpt lat="45.1453" lon="5.12232">
        <ele>276.17</ele>
        <time>2017-03-26T14:53:37Z</time>
      </trkpt>
      <trkpt lat="45.1453" lon="5.12232">
        <ele>276.17</ele>
        <time>2017-03-26T14:53:38Z</time>
      </trkpt>
      <trkpt lat="45.1453" lon="5.12232">
        <ele>276.17</ele>
        <time>2017-03-26T14:53:39Z</time>
      </trkpt>
      <trkpt lat="45.1453" lon="5.12232">
        <ele>276.17</ele>
        <time>2017-03-26T14:53:40Z</time>
      </trkpt>
      <trkpt lat="45.1453" lon="5.12232">
        <ele>276.17</ele>
        <time>2017-03-26T14:53:41Z</time>
      </trkpt>
      <trkpt lat="45.1453" lon="5.12232">
        <ele>276.17</ele>
        <time>2017-03-26T14:53:42Z</time>
      </trkpt>
      <trkpt lat="45.1453" lon="5.12232">
        <ele>276.17</ele>
        <time>2017-03-26T14:53:43Z</time>
      </trkpt>
      <trkpt lat="45.1453" lon="5.12232">
        <ele>276.17</ele>
        <time>2017-03-26T14:53:44Z</time>
      </trkpt>
      <trkpt lat="45.1453" lon="5.12232">
        <ele>276.17</ele>
        <time>2017-03-26T14:53:45Z</time>
      </trkpt>
      <trkpt lat="45.1453" lon="5.12232">
        <ele>276.17</ele>
        <time>2017-03-26T14:53:46Z</time>
      </trkpt>
      <trkpt lat="45.1453" lon="5.12232">
        <ele>276.17</ele>
        <time>2017-03-26T14:53:47Z</time>
      </trkpt>
      <trkpt lat="45.1453" lon="5.12232">
        <ele>276.17</ele>
        <time>2017-03-26T14:53:48Z</time>
      </trkpt>
      <trkpt lat="45.1453" lon="5.12232">
        <ele>276.17</ele>
        <time>2017-03-26T14:53:49Z</time>
      </trkpt>
      <trkpt lat="45.1453" lon="5.12232">
        <ele>276.17</ele>
        <time>2017-03-26T14:53:50Z</time>
      </trkpt>
      <trkpt lat="45.1453" lon="5.12232">
        <ele>276.17</ele>
        <time>2017-03-26T14:53:51Z</time>
      </trkpt>
      <trkpt lat="45.1453" lon="5.12232">
        <ele>276.17</ele>
        <time>2017-03-26T14:53:52Z</time>
      </trkpt>
      <trkpt lat="45.1453" lon="5.12232">
        <ele>276.17</ele>
        <time>2017-03-26T14:53:53Z</time>
      </trkpt>
      <trkpt lat="45.1453" lon="5.12232">
        <ele>276.17</ele>
        <time>2017-03-26T14:53:54Z</time>
      </trkpt>
      <trkpt lat="45.1453" lon="5.12232">
        <ele>276.17</ele>
        <time>2017-03-26T14:53:55Z</time>
      </trkpt>
      <trkpt lat="45.1453" lon="5.12232">
        <ele>276.17</ele>
        <time>2017-03-26T14:53:56Z</time>
      </trkpt>
      <trkpt lat="45.1453" lon="5.12232">
        <ele>276.17</ele>
        <time>2017-03-26T14:53:57Z</time>
      </trkpt>
      <trkpt lat="45.1453" lon="5.12232">
        <ele>276.17</ele>
        <time>2017-03-26T14:53:58Z</time>
      </trkpt>
      <trkpt lat="45.1453" lon="5.12232">
        <ele>276.17</ele>
        <time>2017-03-26T14:53:59Z</time>
      </trkpt>
      <trkpt lat="45.1453" lon="5.12232">
        <ele>276.17</ele>
        <time>2017-03-26T14:54:00Z</time>
      </trkpt>
      <trkpt lat="45.1453" lon="5.12232">
        <ele>276.17</ele>
        <time>2017-03-26T14:54:01Z</time>
      </trkpt>
      <trkpt lat="45.14527" lon="5.12219">
        <ele>273.21</ele>
        <time>2017-03-26T14:54:02Z</time>
      </trkpt>
      <trkpt lat="45.14527" lon="5.12218">
        <ele>272.7</ele>
        <time>2017-03-26T14:54:03Z</time>
      </trkpt>
      <trkpt lat="45.14527" lon="5.12218">
        <ele>272.51</ele>
        <time>2017-03-26T14:54:04Z</time>
      </trkpt>
      <trkpt lat="45.14527" lon="5.12218">
        <ele>272.48</ele>
        <time>2017-03-26T14:54:05Z</time>
      </trkpt>
      <trkpt lat="45.14527" lon="5.12218">
        <ele>272.47</ele>
        <time>2017-03-26T14:54:06Z</time>
      </trkpt>
      <trkpt lat="45.14527" lon="5.12218">
        <ele>272.47</ele>
        <time>2017-03-26T14:54:07Z</time>
      </trkpt>
      <trkpt lat="45.14527" lon="5.12218">
        <ele>272.47</ele>
        <time>2017-03-26T14:54:08Z</time>
      </trkpt>
      <trkpt lat="45.14527" lon="5.12218">
        <ele>272.47</ele>
        <time>2017-03-26T14:54:09Z</time>
      </trkpt>
      <trkpt lat="45.14527" lon="5.12218">
        <ele>272.47</ele>
        <time>2017-03-26T14:54:10Z</time>
      </trkpt>
      <trkpt lat="45.14527" lon="5.12218">
        <ele>272.47</ele>
        <time>2017-03-26T14:54:11Z</time>
      </trkpt>
      <trkpt lat="45.14527" lon="5.12218">
        <ele>272.47</ele>
        <time>2017-03-26T14:54:12Z</time>
      </trkpt>
      <trkpt lat="45.14527" lon="5.12218">
        <ele>272.47</ele>
        <time>2017-03-26T14:54:13Z</time>
      </trkpt>
      <trkpt lat="45.14527" lon="5.12218">
        <ele>272.47</ele>
        <time>2017-03-26T14:54:14Z</time>
      </trkpt>
      <trkpt lat="45.14527" lon="5.12218">
        <ele>272.47</ele>
        <time>2017-03-26T14:54:15Z</time>
      </trkpt>
      <trkpt lat="45.14527" lon="5.12218">
        <ele>272.47</ele>
        <time>2017-03-26T14:54:16Z</time>
      </trkpt>
      <trkpt lat="45.14527" lon="5.12218">
        <ele>272.47</ele>
        <time>2017-03-26T14:54:17Z</time>
      </trkpt>
      <trkpt lat="45.14527" lon="5.12218">
        <ele>272.47</ele>
        <time>2017-03-26T14:54:18Z</time>
      </trkpt>
      <trkpt lat="45.14527" lon="5.12218">
        <ele>272.47</ele>
        <time>2017-03-26T14:54:19Z</time>
      </trkpt>
      <trkpt lat="45.14527" lon="5.12218">
        <ele>272.47</ele>
        <time>2017-03-26T14:54:20Z</time>
      </trkpt>
      <trkpt lat="45.14527" lon="5.12218">
        <ele>272.47</ele>
        <time>2017-03-26T14:54:21Z</time>
      </trkpt>
      <trkpt lat="45.14527" lon="5.12218">
        <ele>272.47</ele>
        <time>2017-03-26T14:54:22Z</time>
      </trkpt>
      <trkpt lat="45.14527" lon="5.12218">
        <ele>272.47</ele>
        <time>2017-03-26T14:54:23Z</time>
      </trkpt>
      <trkpt lat="45.14527" lon="5.12218">
        <ele>272.47</ele>
        <time>2017-03-26T14:54:24Z</time>
      </trkpt>
      <trkpt lat="45.14527" lon="5.12218">
        <ele>272.47</ele>
        <time>2017-03-26T14:54:25Z</time>
      </trkpt>
      <trkpt lat="45.14527" lon="5.12218">
        <ele>272.47</ele>
        <time>2017-03-26T14:54:26Z</time>
      </trkpt>
      <trkpt lat="45.14527" lon="5.12218">
        <ele>272.47</ele>
        <time>2017-03-26T14:54:27Z</time>
      </trkpt>
      <trkpt lat="45.14527" lon="5.12218">
        <ele>272.47</ele>
        <time>2017-03-26T14:54:28Z</time>
      </trkpt>
      <trkpt lat="45.14527" lon="5.12218">
        <ele>272.47</ele>
        <time>2017-03-26T14:54:29Z</time>
      </trkpt>
      <trkpt lat="45.14527" lon="5.12218">
        <ele>272.47</ele>
        <time>2017-03-26T14:54:30Z</time>
      </trkpt>
      <trkpt lat="45.14527" lon="5.12218">
        <ele>272.47</ele>
        <time>2017-03-26T14:54:31Z</time>
      </trkpt>
      <trkpt lat="45.14527" lon="5.12218">
        <ele>272.47</ele>
        <time>2017-03-26T14:54:32Z</time>
      </trkpt>
      <trkpt lat="45.14527" lon="5.12218">
        <ele>272.47</ele>
        <time>2017-03-26T14:54:33Z</time>
      </trkpt>
      <trkpt lat="45.14527" lon="5.12218">
        <ele>272.47</ele>
        <time>2017-03-26T14:54:34Z</time>
      </trkpt>
      <trkpt lat="45.14527" lon="5.12218">
        <ele>272.47</ele>
        <time>2017-03-26T14:54:35Z</time>
      </trkpt>
      <trkpt lat="45.14527" lon="5.12218">
        <ele>272.47</ele>
        <time>2017-03-26T14:54:36Z</time>
      </trkpt>
      <trkpt lat="45.14527" lon="5.12218">
        <ele>272.47</ele>
        <time>2017-03-26T14:54:37Z</time>
      </trkpt>
      <trkpt lat="45.14527" lon="5.12218">
        <ele>272.47</ele>
        <time>2017-03-26T14:54:38Z</time>
      </trkpt>
      <trkpt lat="45.14527" lon="5.12218">
        <ele>272.47</ele>
        <time>2017-03-26T14:54:39Z</time>
      </trkpt>
      <trkpt lat="45.14527" lon="5.12218">
        <ele>272.47</ele>
        <time>2017-03-26T14:54:40Z</time>
      </trkpt>
      <trkpt lat="45.14527" lon="5.12218">
        <ele>272.47</ele>
        <time>2017-03-26T14:54:41Z</time>
      </trkpt>
      <trkpt lat="45.14527" lon="5.12218">
        <ele>272.47</ele>
        <time>2017-03-26T14:54:42Z</time>
      </trkpt>
      <trkpt lat="45.14527" lon="5.12218">
        <ele>272.47</ele>
        <time>2017-03-26T14:54:43Z</time>
      </trkpt>
      <trkpt lat="45.14527" lon="5.12218">
        <ele>272.47</ele>
        <time>2017-03-26T14:54:44Z</time>
      </trkpt>
      <trkpt lat="45.14527" lon="5.12218">
        <ele>272.47</ele>
        <time>2017-03-26T14:54:45Z</time>
      </trkpt>
      <trkpt lat="45.1453" lon="5.1222">
        <ele>272.31</ele>
        <time>2017-03-26T14:54:46Z</time>
      </trkpt>
      <trkpt lat="45.14531" lon="5.12222">
        <ele>272.36</ele>
        <time>2017-03-26T14:54:47Z</time>
      </trkpt>
      <trkpt lat="45.14534" lon="5.12226">
        <ele>272.37</ele>
        <time>2017-03-26T14:54:48Z</time>
      </trkpt>
      <trkpt lat="45.14538" lon="5.12231">
        <ele>272.45</ele>
        <time>2017-03-26T14:54:49Z</time>
      </trkpt>
      <trkpt lat="45.14542" lon="5.12237">
        <ele>272.54</ele>
        <time>2017-03-26T14:54:50Z</time>
      </trkpt>
      <trkpt lat="45.14548" lon="5.12244">
        <ele>272.64</ele>
        <time>2017-03-26T14:54:51Z</time>
      </trkpt>
      <trkpt lat="45.14554" lon="5.1225">
        <ele>272.74</ele>
        <time>2017-03-26T14:54:52Z</time>
      </trkpt>
      <trkpt lat="45.1456" lon="5.12257">
        <ele>272.84</ele>
        <time>2017-03-26T14:54:53Z</time>
      </trkpt>
      <trkpt lat="45.14567" lon="5.12264">
        <ele>272.86</ele>
        <time>2017-03-26T14:54:54Z</time>
      </trkpt>
      <trkpt lat="45.14574" lon="5.12272">
        <ele>272.95</ele>
        <time>2017-03-26T14:54:55Z</time>
      </trkpt>
      <trkpt lat="45.14581" lon="5.12279">
        <ele>273.04</ele>
        <time>2017-03-26T14:54:56Z</time>
      </trkpt>
      <trkpt lat="45.14588" lon="5.12285">
        <ele>273.14</ele>
        <time>2017-03-26T14:54:57Z</time>
      </trkpt>
      <trkpt lat="45.14599" lon="5.12292">
        <ele>273.24</ele>
        <time>2017-03-26T14:54:58Z</time>
      </trkpt>
      <trkpt lat="45.14608" lon="5.12299">
        <ele>273.34</ele>
        <time>2017-03-26T14:54:59Z</time>
      </trkpt>
      <trkpt lat="45.14618" lon="5.12306">
        <ele>273.36</ele>
        <time>2017-03-26T14:55:00Z</time>
      </trkpt>
      <trkpt lat="45.14628" lon="5.12314">
        <ele>273.45</ele>
        <time>2017-03-26T14:55:01Z</time>
      </trkpt>
      <trkpt lat="45.14637" lon="5.12323">
        <ele>273.54</ele>
        <time>2017-03-26T14:55:02Z</time>
      </trkpt>
      <trkpt lat="45.14646" lon="5.12332">
        <ele>273.56</ele>
        <time>2017-03-26T14:55:03Z</time>
      </trkpt>
      <trkpt lat="45.14654" lon="5.12341">
        <ele>273.65</ele>
        <time>2017-03-26T14:55:04Z</time>
      </trkpt>
      <trkpt lat="45.14662" lon="5.12349">
        <ele>273.66</ele>
        <time>2017-03-26T14:55:05Z</time>
      </trkpt>
      <trkpt lat="45.14669" lon="5.12355">
        <ele>273.67</ele>
        <time>2017-03-26T14:55:06Z</time>
      </trkpt>
      <trkpt lat="45.14674" lon="5.12361">
        <ele>273.67</ele>
        <time>2017-03-26T14:55:07Z</time>
      </trkpt>
      <trkpt lat="45.1468" lon="5.12365">
        <ele>273.67</ele>
        <time>2017-03-26T14:55:08Z</time>
      </trkpt>
      <trkpt lat="45.14685" lon="5.1237">
        <ele>273.75</ele>
        <time>2017-03-26T14:55:09Z</time>
      </trkpt>
      <trkpt lat="45.1469" lon="5.12375">
        <ele>273.76</ele>
        <time>2017-03-26T14:55:10Z</time>
      </trkpt>
      <trkpt lat="45.14696" lon="5.12382">
        <ele>273.77</ele>
        <time>2017-03-26T14:55:11Z</time>
      </trkpt>
      <trkpt lat="45.14702" lon="5.1239">
        <ele>273.85</ele>
        <time>2017-03-26T14:55:12Z</time>
      </trkpt>
      <trkpt lat="45.1471" lon="5.12399">
        <ele>273.94</ele>
        <time>2017-03-26T14:55:13Z</time>
      </trkpt>
      <trkpt lat="45.1472" lon="5.12411">
        <ele>274.04</ele>
        <time>2017-03-26T14:55:14Z</time>
      </trkpt>
      <trkpt lat="45.14731" lon="5.12424">
        <ele>274.06</ele>
        <time>2017-03-26T14:55:15Z</time>
      </trkpt>
      <trkpt lat="45.14743" lon="5.12438">
        <ele>274.15</ele>
        <time>2017-03-26T14:55:16Z</time>
      </trkpt>
      <trkpt lat="45.14757" lon="5.12454">
        <ele>274.24</ele>
        <time>2017-03-26T14:55:17Z</time>
      </trkpt>
      <trkpt lat="45.14771" lon="5.12472">
        <ele>274.34</ele>
        <time>2017-03-26T14:55:18Z</time>
      </trkpt>
      <trkpt lat="45.14786" lon="5.1249">
        <ele>274.52</ele>
        <time>2017-03-26T14:55:19Z</time>
      </trkpt>
      <trkpt lat="45.14801" lon="5.12509">
        <ele>274.64</ele>
        <time>2017-03-26T14:55:20Z</time>
      </trkpt>
      <trkpt lat="45.14816" lon="5.12528">
        <ele>274.82</ele>
        <time>2017-03-26T14:55:21Z</time>
      </trkpt>
      <trkpt lat="45.14831" lon="5.12549">
        <ele>274.94</ele>
        <time>2017-03-26T14:55:22Z</time>
      </trkpt>
      <trkpt lat="45.14844" lon="5.12573">
        <ele>275.04</ele>
        <time>2017-03-26T14:55:23Z</time>
      </trkpt>
      <trkpt lat="45.14857" lon="5.12598">
        <ele>275.3</ele>
        <time>2017-03-26T14:55:24Z</time>
      </trkpt>
      <trkpt lat="45.1487" lon="5.12625">
        <ele>275.75</ele>
        <time>2017-03-26T14:55:25Z</time>
      </trkpt>
      <trkpt lat="45.14883" lon="5.12652">
        <ele>276.25</ele>
        <time>2017-03-26T14:55:26Z</time>
      </trkpt>
      <trkpt lat="45.14897" lon="5.12679">
        <ele>276.74</ele>
        <time>2017-03-26T14:55:27Z</time>
      </trkpt>
      <trkpt lat="45.1491" lon="5.12706">
        <ele>277.32</ele>
        <time>2017-03-26T14:55:28Z</time>
      </trkpt>
      <trkpt lat="45.14924" lon="5.12733">
        <ele>277.92</ele>
        <time>2017-03-26T14:55:29Z</time>
      </trkpt>
      <trkpt lat="45.14937" lon="5.12761">
        <ele>278.68</ele>
        <time>2017-03-26T14:55:30Z</time>
      </trkpt>
      <trkpt lat="45.14951" lon="5.12788">
        <ele>279.47</ele>
        <time>2017-03-26T14:55:31Z</time>
      </trkpt>
      <trkpt lat="45.14965" lon="5.12816">
        <ele>280.11</ele>
        <time>2017-03-26T14:55:32Z</time>
      </trkpt>
      <trkpt lat="45.14978" lon="5.12843">
        <ele>280.8</ele>
        <time>2017-03-26T14:55:33Z</time>
      </trkpt>
      <trkpt lat="45.14993" lon="5.12871">
        <ele>281.89</ele>
        <time>2017-03-26T14:55:34Z</time>
      </trkpt>
      <trkpt lat="45.15007" lon="5.12899">
        <ele>283.07</ele>
        <time>2017-03-26T14:55:35Z</time>
      </trkpt>
      <trkpt lat="45.15022" lon="5.12927">
        <ele>284.35</ele>
        <time>2017-03-26T14:55:36Z</time>
      </trkpt>
      <trkpt lat="45.15036" lon="5.12955">
        <ele>285.48</ele>
        <time>2017-03-26T14:55:37Z</time>
      </trkpt>
      <trkpt lat="45.15051" lon="5.12984">
        <ele>286.83</ele>
        <time>2017-03-26T14:55:38Z</time>
      </trkpt>
      <trkpt lat="45.15065" lon="5.13013">
        <ele>288.22</ele>
        <time>2017-03-26T14:55:39Z</time>
      </trkpt>
      <trkpt lat="45.1508" lon="5.13041">
        <ele>289.54</ele>
        <time>2017-03-26T14:55:40Z</time>
      </trkpt>
      <trkpt lat="45.15095" lon="5.13071">
        <ele>290.84</ele>
        <time>2017-03-26T14:55:41Z</time>
      </trkpt>
      <trkpt lat="45.15109" lon="5.131">
        <ele>292.3</ele>
        <time>2017-03-26T14:55:42Z</time>
      </trkpt>
      <trkpt lat="45.15124" lon="5.13129">
        <ele>293.39</ele>
        <time>2017-03-26T14:55:43Z</time>
      </trkpt>
      <trkpt lat="45.15139" lon="5.13159">
        <ele>294.49</ele>
        <time>2017-03-26T14:55:44Z</time>
      </trkpt>
      <trkpt lat="45.15153" lon="5.13188">
        <ele>295.27</ele>
        <time>2017-03-26T14:55:45Z</time>
      </trkpt>
      <trkpt lat="45.15168" lon="5.13218">
        <ele>296.15</ele>
        <time>2017-03-26T14:55:46Z</time>
      </trkpt>
      <trkpt lat="45.15184" lon="5.13248">
        <ele>297.2</ele>
        <time>2017-03-26T14:55:47Z</time>
      </trkpt>
      <trkpt lat="45.15199" lon="5.13278">
        <ele>297.98</ele>
        <time>2017-03-26T14:55:48Z</time>
      </trkpt>
      <trkpt lat="45.15214" lon="5.13307">
        <ele>298.77</ele>
        <time>2017-03-26T14:55:49Z</time>
      </trkpt>
      <trkpt lat="45.1523" lon="5.13338">
        <ele>299.57</ele>
        <time>2017-03-26T14:55:50Z</time>
      </trkpt>
      <trkpt lat="45.15244" lon="5.13368">
        <ele>300.45</ele>
        <time>2017-03-26T14:55:51Z</time>
      </trkpt>
      <trkpt lat="45.15259" lon="5.13398">
        <ele>301.42</ele>
        <time>2017-03-26T14:55:52Z</time>
      </trkpt>
      <trkpt lat="45.15274" lon="5.13428">
        <ele>302.18</ele>
        <time>2017-03-26T14:55:53Z</time>
      </trkpt>
      <trkpt lat="45.15289" lon="5.13458">
        <ele>302.97</ele>
        <time>2017-03-26T14:55:54Z</time>
      </trkpt>
      <trkpt lat="45.15303" lon="5.13489">
        <ele>303.77</ele>
        <time>2017-03-26T14:55:55Z</time>
      </trkpt>
      <trkpt lat="45.15316" lon="5.1352">
        <ele>304.57</ele>
        <time>2017-03-26T14:55:56Z</time>
      </trkpt>
      <trkpt lat="45.15329" lon="5.13553">
        <ele>305.37</ele>
        <time>2017-03-26T14:55:57Z</time>
      </trkpt>
      <trkpt lat="45.15339" lon="5.13586">
        <ele>306.17</ele>
        <time>2017-03-26T14:55:58Z</time>
      </trkpt>
      <trkpt lat="45.15348" lon="5.1362">
        <ele>307.05</ele>
        <time>2017-03-26T14:55:59Z</time>
      </trkpt>
      <trkpt lat="45.15357" lon="5.13654">
        <ele>307.86</ele>
        <time>2017-03-26T14:56:00Z</time>
      </trkpt>
      <trkpt lat="45.15364" lon="5.13689">
        <ele>308.75</ele>
        <time>2017-03-26T14:56:01Z</time>
      </trkpt>
      <trkpt lat="45.15371" lon="5.13724">
        <ele>309.64</ele>
        <time>2017-03-26T14:56:02Z</time>
      </trkpt>
      <trkpt lat="45.15377" lon="5.13758">
        <ele>310.7</ele>
        <time>2017-03-26T14:56:03Z</time>
      </trkpt>
      <trkpt lat="45.15382" lon="5.13792">
        <ele>311.72</ele>
        <time>2017-03-26T14:56:04Z</time>
      </trkpt>
      <trkpt lat="45.15387" lon="5.13826">
        <ele>312.8</ele>
        <time>2017-03-26T14:56:05Z</time>
      </trkpt>
      <trkpt lat="45.15393" lon="5.1386">
        <ele>313.89</ele>
        <time>2017-03-26T14:56:06Z</time>
      </trkpt>
      <trkpt lat="45.15398" lon="5.13893">
        <ele>314.99</ele>
        <time>2017-03-26T14:56:07Z</time>
      </trkpt>
      <trkpt lat="45.15404" lon="5.13927">
        <ele>316.25</ele>
        <time>2017-03-26T14:56:08Z</time>
      </trkpt>
      <trkpt lat="45.15409" lon="5.1396">
        <ele>317.46</ele>
        <time>2017-03-26T14:56:09Z</time>
      </trkpt>
      <trkpt lat="45.15415" lon="5.13991">
        <ele>318.67</ele>
        <time>2017-03-26T14:56:10Z</time>
      </trkpt>
      <trkpt lat="45.1542" lon="5.14021">
        <ele>319.87</ele>
        <time>2017-03-26T14:56:11Z</time>
      </trkpt>
      <trkpt lat="45.15425" lon="5.14051">
        <ele>321.15</ele>
        <time>2017-03-26T14:56:12Z</time>
      </trkpt>
      <trkpt lat="45.15427" lon="5.14079">
        <ele>322.36</ele>
        <time>2017-03-26T14:56:13Z</time>
      </trkpt>
      <trkpt lat="45.15429" lon="5.14106">
        <ele>323.49</ele>
        <time>2017-03-26T14:56:14Z</time>
      </trkpt>
      <trkpt lat="45.15428" lon="5.14133">
        <ele>324.59</ele>
        <time>2017-03-26T14:56:15Z</time>
      </trkpt>
      <trkpt lat="45.15421" lon="5.14157">
        <ele>325.53</ele>
        <time>2017-03-26T14:56:16Z</time>
      </trkpt>
      <trkpt lat="45.15414" lon="5.14182">
        <ele>326.6</ele>
        <time>2017-03-26T14:56:17Z</time>
      </trkpt>
      <trkpt lat="45.15406" lon="5.14209">
        <ele>327.69</ele>
        <time>2017-03-26T14:56:18Z</time>
      </trkpt>
      <trkpt lat="45.15398" lon="5.14237">
        <ele>328.87</ele>
        <time>2017-03-26T14:56:19Z</time>
      </trkpt>
      <trkpt lat="45.15392" lon="5.14266">
        <ele>330.07</ele>
        <time>2017-03-26T14:56:20Z</time>
      </trkpt>
      <trkpt lat="45.15386" lon="5.14296">
        <ele>331.19</ele>
        <time>2017-03-26T14:56:21Z</time>
      </trkpt>
      <trkpt lat="45.15381" lon="5.14324">
        <ele>332.45</ele>
        <time>2017-03-26T14:56:22Z</time>
      </trkpt>
      <trkpt lat="45.15376" lon="5.14352">
        <ele>333.74</ele>
        <time>2017-03-26T14:56:23Z</time>
      </trkpt>
      <trkpt lat="45.15372" lon="5.14378">
        <ele>335.04</ele>
        <time>2017-03-26T14:56:24Z</time>
      </trkpt>
      <trkpt lat="45.15368" lon="5.144">
        <ele>336.34</ele>
        <time>2017-03-26T14:56:25Z</time>
      </trkpt>
      <trkpt lat="45.15365" lon="5.14422">
        <ele>337.72</ele>
        <time>2017-03-26T14:56:26Z</time>
      </trkpt>
      <trkpt lat="45.15363" lon="5.14444">
        <ele>339.04</ele>
        <time>2017-03-26T14:56:27Z</time>
      </trkpt>
      <trkpt lat="45.15362" lon="5.14467">
        <ele>340.26</ele>
        <time>2017-03-26T14:56:28Z</time>
      </trkpt>
      <trkpt lat="45.15362" lon="5.14489">
        <ele>341.47</ele>
        <time>2017-03-26T14:56:29Z</time>
      </trkpt>
      <trkpt lat="45.15363" lon="5.1451">
        <ele>342.51</ele>
        <time>2017-03-26T14:56:30Z</time>
      </trkpt>
      <trkpt lat="45.15367" lon="5.14535">
        <ele>343.76</ele>
        <time>2017-03-26T14:56:31Z</time>
      </trkpt>
      <trkpt lat="45.15372" lon="5.14559">
        <ele>344.97</ele>
        <time>2017-03-26T14:56:32Z</time>
      </trkpt>
      <trkpt lat="45.1538" lon="5.14585">
        <ele>346.01</ele>
        <time>2017-03-26T14:56:33Z</time>
      </trkpt>
      <trkpt lat="45.15388" lon="5.1461">
        <ele>347.18</ele>
        <time>2017-03-26T14:56:34Z</time>
      </trkpt>
      <trkpt lat="45.15404" lon="5.14631">
        <ele>348.21</ele>
        <time>2017-03-26T14:56:35Z</time>
      </trkpt>
      <trkpt lat="45.15419" lon="5.14653">
        <ele>349.14</ele>
        <time>2017-03-26T14:56:36Z</time>
      </trkpt>
      <trkpt lat="45.15435" lon="5.14675">
        <ele>350.2</ele>
        <time>2017-03-26T14:56:37Z</time>
      </trkpt>
      <trkpt lat="45.15451" lon="5.14697">
        <ele>351.29</ele>
        <time>2017-03-26T14:56:38Z</time>
      </trkpt>
      <trkpt lat="45.15468" lon="5.14719">
        <ele>352.47</ele>
        <time>2017-03-26T14:56:39Z</time>
      </trkpt>
      <trkpt lat="45.15483" lon="5.14742">
        <ele>353.59</ele>
        <time>2017-03-26T14:56:40Z</time>
      </trkpt>
      <trkpt lat="45.15498" lon="5.14766">
        <ele>354.77</ele>
        <time>2017-03-26T14:56:41Z</time>
      </trkpt>
      <trkpt lat="45.15513" lon="5.14791">
        <ele>355.81</ele>
        <time>2017-03-26T14:56:42Z</time>
      </trkpt>
      <trkpt lat="45.15528" lon="5.14816">
        <ele>356.9</ele>
        <time>2017-03-26T14:56:43Z</time>
      </trkpt>
      <trkpt lat="45.15544" lon="5.14843">
        <ele>357.83</ele>
        <time>2017-03-26T14:56:44Z</time>
      </trkpt>
      <trkpt lat="45.1556" lon="5.14872">
        <ele>358.9</ele>
        <time>2017-03-26T14:56:45Z</time>
      </trkpt>
      <trkpt lat="45.15577" lon="5.14901">
        <ele>360.07</ele>
        <time>2017-03-26T14:56:46Z</time>
      </trkpt>
      <trkpt lat="45.15593" lon="5.14932">
        <ele>361.35</ele>
        <time>2017-03-26T14:56:47Z</time>
      </trkpt>
      <trkpt lat="45.15609" lon="5.14963">
        <ele>362.64</ele>
        <time>2017-03-26T14:56:48Z</time>
      </trkpt>
      <trkpt lat="45.15622" lon="5.14994">
        <ele>363.86</ele>
        <time>2017-03-26T14:56:49Z</time>
      </trkpt>
      <trkpt lat="45.15633" lon="5.15027">
        <ele>365.15</ele>
        <time>2017-03-26T14:56:50Z</time>
      </trkpt>
      <trkpt lat="45.1564" lon="5.1506">
        <ele>366.36</ele>
        <time>2017-03-26T14:56:51Z</time>
      </trkpt>
      <trkpt lat="45.15648" lon="5.15095">
        <ele>367.65</ele>
        <time>2017-03-26T14:56:52Z</time>
      </trkpt>
      <trkpt lat="45.15655" lon="5.1513">
        <ele>368.86</ele>
        <time>2017-03-26T14:56:53Z</time>
      </trkpt>
      <trkpt lat="45.15661" lon="5.15164">
        <ele>370.07</ele>
        <time>2017-03-26T14:56:54Z</time>
      </trkpt>
      <trkpt lat="45.15666" lon="5.15198">
        <ele>371.11</ele>
        <time>2017-03-26T14:56:55Z</time>
      </trkpt>
      <trkpt lat="45.1567" lon="5.15231">
        <ele>372.28</ele>
        <time>2017-03-26T14:56:56Z</time>
      </trkpt>
      <trkpt lat="45.15674" lon="5.15265">
        <ele>373.47</ele>
        <time>2017-03-26T14:56:57Z</time>
      </trkpt>
      <trkpt lat="45.15678" lon="5.15299">
        <ele>374.83</ele>
        <time>2017-03-26T14:56:58Z</time>
      </trkpt>
      <trkpt lat="45.15682" lon="5.15332">
        <ele>375.66</ele>
        <time>2017-03-26T14:56:59Z</time>
      </trkpt>
      <trkpt lat="45.15688" lon="5.15367">
        <ele>376.63</ele>
        <time>2017-03-26T14:57:00Z</time>
      </trkpt>
      <trkpt lat="45.15695" lon="5.15401">
        <ele>377.86</ele>
        <time>2017-03-26T14:57:01Z</time>
      </trkpt>
      <trkpt lat="45.157" lon="5.15436">
        <ele>379.15</ele>
        <time>2017-03-26T14:57:02Z</time>
      </trkpt>
      <trkpt lat="45.15703" lon="5.15473">
        <ele>380.44</ele>
        <time>2017-03-26T14:57:03Z</time>
      </trkpt>
      <trkpt lat="45.15706" lon="5.1551">
        <ele>381.74</ele>
        <time>2017-03-26T14:57:04Z</time>
      </trkpt>
      <trkpt lat="45.15701" lon="5.15549">
        <ele>383.6</ele>
        <time>2017-03-26T14:57:05Z</time>
      </trkpt>
      <trkpt lat="45.15699" lon="5.15588">
        <ele>385.18</ele>
        <time>2017-03-26T14:57:06Z</time>
      </trkpt>
      <trkpt lat="45.15699" lon="5.15626">
        <ele>386.61</ele>
        <time>2017-03-26T14:57:07Z</time>
      </trkpt>
      <trkpt lat="45.15702" lon="5.15662">
        <ele>387.78</ele>
        <time>2017-03-26T14:57:08Z</time>
      </trkpt>
      <trkpt lat="45.15706" lon="5.15698">
        <ele>388.89</ele>
        <time>2017-03-26T14:57:09Z</time>
      </trkpt>
      <trkpt lat="45.15712" lon="5.15733">
        <ele>390.07</ele>
        <time>2017-03-26T14:57:10Z</time>
      </trkpt>
      <trkpt lat="45.15717" lon="5.15768">
        <ele>391.35</ele>
        <time>2017-03-26T14:57:11Z</time>
      </trkpt>
      <trkpt lat="45.15723" lon="5.15803">
        <ele>392.4</ele>
        <time>2017-03-26T14:57:12Z</time>
      </trkpt>
      <trkpt lat="45.15731" lon="5.15836">
        <ele>393.58</ele>
        <time>2017-03-26T14:57:13Z</time>
      </trkpt>
      <trkpt lat="45.15741" lon="5.15868">
        <ele>394.85</ele>
        <time>2017-03-26T14:57:14Z</time>
      </trkpt>
      <trkpt lat="45.15751" lon="5.15897">
        <ele>395.82</ele>
        <time>2017-03-26T14:57:15Z</time>
      </trkpt>
      <trkpt lat="45.15764" lon="5.15925">
        <ele>397.14</ele>
        <time>2017-03-26T14:57:16Z</time>
      </trkpt>
      <trkpt lat="45.15778" lon="5.15951">
        <ele>398.52</ele>
        <time>2017-03-26T14:57:17Z</time>
      </trkpt>
      <trkpt lat="45.1579" lon="5.1598">
        <ele>399.92</ele>
        <time>2017-03-26T14:57:18Z</time>
      </trkpt>
      <trkpt lat="45.15799" lon="5.16008">
        <ele>401.24</ele>
        <time>2017-03-26T14:57:19Z</time>
      </trkpt>
      <trkpt lat="45.15808" lon="5.16038">
        <ele>402.3</ele>
        <time>2017-03-26T14:57:20Z</time>
      </trkpt>
      <trkpt lat="45.15816" lon="5.1607">
        <ele>403.55</ele>
        <time>2017-03-26T14:57:21Z</time>
      </trkpt>
      <trkpt lat="45.15823" lon="5.16102">
        <ele>404.85</ele>
        <time>2017-03-26T14:57:22Z</time>
      </trkpt>
      <trkpt lat="45.15828" lon="5.16134">
        <ele>406.22</ele>
        <time>2017-03-26T14:57:23Z</time>
      </trkpt>
      <trkpt lat="45.15831" lon="5.16167">
        <ele>407.54</ele>
        <time>2017-03-26T14:57:24Z</time>
      </trkpt>
      <trkpt lat="45.15834" lon="5.162">
        <ele>408.76</ele>
        <time>2017-03-26T14:57:25Z</time>
      </trkpt>
      <trkpt lat="45.15835" lon="5.16233">
        <ele>409.89</ele>
        <time>2017-03-26T14:57:26Z</time>
      </trkpt>
      <trkpt lat="45.15836" lon="5.16266">
        <ele>411.07</ele>
        <time>2017-03-26T14:57:27Z</time>
      </trkpt>
      <trkpt lat="45.15837" lon="5.163">
        <ele>412.19</ele>
        <time>2017-03-26T14:57:28Z</time>
      </trkpt>
      <trkpt lat="45.15837" lon="5.16334">
        <ele>413.29</ele>
        <time>2017-03-26T14:57:29Z</time>
      </trkpt>
      <trkpt lat="45.15838" lon="5.16367">
        <ele>414.39</ele>
        <time>2017-03-26T14:57:30Z</time>
      </trkpt>
      <trkpt lat="45.15839" lon="5.16401">
        <ele>415.17</ele>
        <time>2017-03-26T14:57:31Z</time>
      </trkpt>
      <trkpt lat="45.15841" lon="5.16435">
        <ele>416.13</ele>
        <time>2017-03-26T14:57:32Z</time>
      </trkpt>
      <trkpt lat="45.15844" lon="5.16469">
        <ele>417.28</ele>
        <time>2017-03-26T14:57:33Z</time>
      </trkpt>
      <trkpt lat="45.15847" lon="5.16503">
        <ele>418.55</ele>
        <time>2017-03-26T14:57:34Z</time>
      </trkpt>
      <trkpt lat="45.15848" lon="5.16537">
        <ele>419.28</ele>
        <time>2017-03-26T14:57:35Z</time>
      </trkpt>
      <trkpt lat="45.15849" lon="5.16572">
        <ele>420.31</ele>
        <time>2017-03-26T14:57:36Z</time>
      </trkpt>
      <trkpt lat="45.15848" lon="5.16606">
        <ele>421.48</ele>
        <time>2017-03-26T14:57:37Z</time>
      </trkpt>
      <trkpt lat="45.15845" lon="5.1664">
        <ele>422.19</ele>
        <time>2017-03-26T14:57:38Z</time>
      </trkpt>
      <trkpt lat="45.15843" lon="5.16674">
        <ele>423.21</ele>
        <time>2017-03-26T14:57:39Z</time>
      </trkpt>
      <trkpt lat="45.15842" lon="5.16708">
        <ele>424.38</ele>
        <time>2017-03-26T14:57:40Z</time>
      </trkpt>
      <trkpt lat="45.15843" lon="5.16741">
        <ele>425.09</ele>
        <time>2017-03-26T14:57:41Z</time>
      </trkpt>
      <trkpt lat="45.15846" lon="5.16773">
        <ele>426.11</ele>
        <time>2017-03-26T14:57:42Z</time>
      </trkpt>
      <trkpt lat="45.15851" lon="5.16806">
        <ele>427.2</ele>
        <time>2017-03-26T14:57:43Z</time>
      </trkpt>
      <trkpt lat="45.15856" lon="5.16838">
        <ele>428.37</ele>
        <time>2017-03-26T14:57:44Z</time>
      </trkpt>
      <trkpt lat="45.15863" lon="5.16872">
        <ele>429.57</ele>
        <time>2017-03-26T14:57:45Z</time>
      </trkpt>
      <trkpt lat="45.15868" lon="5.16905">
        <ele>430.69</ele>
        <time>2017-03-26T14:57:46Z</time>
      </trkpt>
      <trkpt lat="45.15877" lon="5.16938">
        <ele>431.71</ele>
        <time>2017-03-26T14:57:47Z</time>
      </trkpt>
      <trkpt lat="45.15884" lon="5.16971">
        <ele>432.72</ele>
        <time>2017-03-26T14:57:48Z</time>
      </trkpt>
      <trkpt lat="45.15892" lon="5.17004">
        <ele>433.64</ele>
        <time>2017-03-26T14:57:49Z</time>
      </trkpt>
      <trkpt lat="45.159" lon="5.17038">
        <ele>434.7</ele>
        <time>2017-03-26T14:57:50Z</time>
      </trkpt>
      <trkpt lat="45.15907" lon="5.17071">
        <ele>435.63</ele>
        <time>2017-03-26T14:57:51Z</time>
      </trkpt>
      <trkpt lat="45.15913" lon="5.17105">
        <ele>436.62</ele>
        <time>2017-03-26T14:57:52Z</time>
      </trkpt>
      <trkpt lat="45.15917" lon="5.17139">
        <ele>437.62</ele>
        <time>2017-03-26T14:57:53Z</time>
      </trkpt>
      <trkpt lat="45.15921" lon="5.17173">
        <ele>438.62</ele>
        <time>2017-03-26T14:57:54Z</time>
      </trkpt>
      <trkpt lat="45.15924" lon="5.17207">
        <ele>439.62</ele>
        <time>2017-03-26T14:57:55Z</time>
      </trkpt>
      <trkpt lat="45.15926" lon="5.17241">
        <ele>440.62</ele>
        <time>2017-03-26T14:57:56Z</time>
      </trkpt>
      <trkpt lat="45.15926" lon="5.17274">
        <ele>441.22</ele>
        <time>2017-03-26T14:57:57Z</time>
      </trkpt>
      <trkpt lat="45.15927" lon="5.17308">
        <ele>442.06</ele>
        <time>2017-03-26T14:57:58Z</time>
      </trkpt>
      <trkpt lat="45.15929" lon="5.17341">
        <ele>442.87</ele>
        <time>2017-03-26T14:57:59Z</time>
      </trkpt>
      <trkpt lat="45.15932" lon="5.17373">
        <ele>443.75</ele>
        <time>2017-03-26T14:58:00Z</time>
      </trkpt>
      <trkpt lat="45.15937" lon="5.17405">
        <ele>444.72</ele>
        <time>2017-03-26T14:58:01Z</time>
      </trkpt>
      <trkpt lat="45.15944" lon="5.17438">
        <ele>445.48</ele>
        <time>2017-03-26T14:58:02Z</time>
      </trkpt>
      <trkpt lat="45.1595" lon="5.1747">
        <ele>446.35</ele>
        <time>2017-03-26T14:58:03Z</time>
      </trkpt>
      <trkpt lat="45.15955" lon="5.17501">
        <ele>447.16</ele>
        <time>2017-03-26T14:58:04Z</time>
      </trkpt>
      <trkpt lat="45.1596" lon="5.17532">
        <ele>447.65</ele>
        <time>2017-03-26T14:58:05Z</time>
      </trkpt>
      <trkpt lat="45.15965" lon="5.17562">
        <ele>448.38</ele>
        <time>2017-03-26T14:58:06Z</time>
      </trkpt>
      <trkpt lat="45.1597" lon="5.17591">
        <ele>449.09</ele>
        <time>2017-03-26T14:58:07Z</time>
      </trkpt>
      <trkpt lat="45.15976" lon="5.17618">
        <ele>449.87</ele>
        <time>2017-03-26T14:58:08Z</time>
      </trkpt>
      <trkpt lat="45.15982" lon="5.17643">
        <ele>449.95</ele>
        <time>2017-03-26T14:58:09Z</time>
      </trkpt>
      <trkpt lat="45.1599" lon="5.17669">
        <ele>450.44</ele>
        <time>2017-03-26T14:58:10Z</time>
      </trkpt>
      <trkpt lat="45.15999" lon="5.17694">
        <ele>451.02</ele>
        <time>2017-03-26T14:58:11Z</time>
      </trkpt>
      <trkpt lat="45.16007" lon="5.17718">
        <ele>451.38</ele>
        <time>2017-03-26T14:58:12Z</time>
      </trkpt>
      <trkpt lat="45.16013" lon="5.17742">
        <ele>451.61</ele>
        <time>2017-03-26T14:58:13Z</time>
      </trkpt>
      <trkpt lat="45.16018" lon="5.17766">
        <ele>452.06</ele>
        <time>2017-03-26T14:58:14Z</time>
      </trkpt>
      <trkpt lat="45.16022" lon="5.17792">
        <ele>452.71</ele>
        <time>2017-03-26T14:58:15Z</time>
      </trkpt>
      <trkpt lat="45.16025" lon="5.17818">
        <ele>453.48</ele>
        <time>2017-03-26T14:58:16Z</time>
      </trkpt>
      <trkpt lat="45.16026" lon="5.17845">
        <ele>454.19</ele>
        <time>2017-03-26T14:58:17Z</time>
      </trkpt>
      <trkpt lat="45.16022" lon="5.17869">
        <ele>454.97</ele>
        <time>2017-03-26T14:58:18Z</time>
      </trkpt>
      <trkpt lat="45.16018" lon="5.17896">
        <ele>455.69</ele>
        <time>2017-03-26T14:58:19Z</time>
      </trkpt>
      <trkpt lat="45.16015" lon="5.17923">
        <ele>456.47</ele>
        <time>2017-03-26T14:58:20Z</time>
      </trkpt>
      <trkpt lat="45.16012" lon="5.17951">
        <ele>457.19</ele>
        <time>2017-03-26T14:58:21Z</time>
      </trkpt>
      <trkpt lat="45.16007" lon="5.17978">
        <ele>457.89</ele>
        <time>2017-03-26T14:58:22Z</time>
      </trkpt>
      <trkpt lat="45.15998" lon="5.18006">
        <ele>458.11</ele>
        <time>2017-03-26T14:58:23Z</time>
      </trkpt>
      <trkpt lat="45.15991" lon="5.18034">
        <ele>458.72</ele>
        <time>2017-03-26T14:58:24Z</time>
      </trkpt>
      <trkpt lat="45.15988" lon="5.18063">
        <ele>459.72</ele>
        <time>2017-03-26T14:58:25Z</time>
      </trkpt>
      <trkpt lat="45.15984" lon="5.18091">
        <ele>460.96</ele>
        <time>2017-03-26T14:58:26Z</time>
      </trkpt>
      <trkpt lat="45.15973" lon="5.18117">
        <ele>461.77</ele>
        <time>2017-03-26T14:58:27Z</time>
      </trkpt>
      <trkpt lat="45.15964" lon="5.18141">
        <ele>462.73</ele>
        <time>2017-03-26T14:58:28Z</time>
      </trkpt>
      <trkpt lat="45.15948" lon="5.18159">
        <ele>463.96</ele>
        <time>2017-03-26T14:58:29Z</time>
      </trkpt>
      <trkpt lat="45.15934" lon="5.18177">
        <ele>465.01</ele>
        <time>2017-03-26T14:58:30Z</time>
      </trkpt>
      <trkpt lat="45.15916" lon="5.18191">
        <ele>465.06</ele>
        <time>2017-03-26T14:58:31Z</time>
      </trkpt>
      <trkpt lat="45.15905" lon="5.18207">
        <ele>465.79</ele>
        <time>2017-03-26T14:58:32Z</time>
      </trkpt>
      <trkpt lat="45.15894" lon="5.18223">
        <ele>466.41</ele>
        <time>2017-03-26T14:58:33Z</time>
      </trkpt>
      <trkpt lat="45.15883" lon="5.18238">
        <ele>466.86</ele>
        <time>2017-03-26T14:58:34Z</time>
      </trkpt>
      <trkpt lat="45.15877" lon="5.18257">
        <ele>467.27</ele>
        <time>2017-03-26T14:58:35Z</time>
      </trkpt>
      <trkpt lat="45.15868" lon="5.18273">
        <ele>467.91</ele>
        <time>2017-03-26T14:58:36Z</time>
      </trkpt>
      <trkpt lat="45.15855" lon="5.18289">
        <ele>468.44</ele>
        <time>2017-03-26T14:58:37Z</time>
      </trkpt>
      <trkpt lat="45.15844" lon="5.18309">
        <ele>468.86</ele>
        <time>2017-03-26T14:58:38Z</time>
      </trkpt>
      <trkpt lat="45.15833" lon="5.1833">
        <ele>469.19</ele>
        <time>2017-03-26T14:58:39Z</time>
      </trkpt>
      <trkpt lat="45.1582" lon="5.1835">
        <ele>468.45</ele>
        <time>2017-03-26T14:58:40Z</time>
      </trkpt>
      <trkpt lat="45.1581" lon="5.18368">
        <ele>468.14</ele>
        <time>2017-03-26T14:58:41Z</time>
      </trkpt>
      <trkpt lat="45.15809" lon="5.18387">
        <ele>467.76</ele>
        <time>2017-03-26T14:58:42Z</time>
      </trkpt>
      <trkpt lat="45.15809" lon="5.18403">
        <ele>467.93</ele>
        <time>2017-03-26T14:58:43Z</time>
      </trkpt>
      <trkpt lat="45.15809" lon="5.18417">
        <ele>468.52</ele>
        <time>2017-03-26T14:58:44Z</time>
      </trkpt>
      <trkpt lat="45.1582" lon="5.18431">
        <ele>468.24</ele>
        <time>2017-03-26T14:58:45Z</time>
      </trkpt>
      <trkpt lat="45.15828" lon="5.18443">
        <ele>468.5</ele>
        <time>2017-03-26T14:58:46Z</time>
      </trkpt>
      <trkpt lat="45.15839" lon="5.18455">
        <ele>468.63</ele>
        <time>2017-03-26T14:58:47Z</time>
      </trkpt>
      <trkpt lat="45.15852" lon="5.18466">
        <ele>468.74</ele>
        <time>2017-03-26T14:58:48Z</time>
      </trkpt>
      <trkpt lat="45.15863" lon="5.18481">
        <ele>468.52</ele>
        <time>2017-03-26T14:58:49Z</time>
      </trkpt>
      <trkpt lat="45.15886" lon="5.18499">
        <ele>465.92</ele>
        <time>2017-03-26T14:58:50Z</time>
      </trkpt>
      <trkpt lat="45.159" lon="5.18516">
        <ele>465.24</ele>
        <time>2017-03-26T14:58:51Z</time>
      </trkpt>
      <trkpt lat="45.15915" lon="5.18531">
        <ele>465.02</ele>
        <time>2017-03-26T14:58:52Z</time>
      </trkpt>
      <trkpt lat="45.15927" lon="5.18544">
        <ele>464.98</ele>
        <time>2017-03-26T14:58:53Z</time>
      </trkpt>
      <trkpt lat="45.15944" lon="5.18551">
        <ele>465.37</ele>
        <time>2017-03-26T14:58:54Z</time>
      </trkpt>
      <trkpt lat="45.15962" lon="5.1856">
        <ele>465.61</ele>
        <time>2017-03-26T14:58:55Z</time>
      </trkpt>
      <trkpt lat="45.15974" lon="5.18573">
        <ele>465.58</ele>
        <time>2017-03-26T14:58:56Z</time>
      </trkpt>
      <trkpt lat="45.15987" lon="5.18589">
        <ele>465.41</ele>
        <time>2017-03-26T14:58:57Z</time>
      </trkpt>
      <trkpt lat="45.15999" lon="5.18607">
        <ele>465.46</ele>
        <time>2017-03-26T14:58:58Z</time>
      </trkpt>
      <trkpt lat="45.16009" lon="5.18626">
        <ele>465.47</ele>
        <time>2017-03-26T14:58:59Z</time>
      </trkpt>
      <trkpt lat="45.16019" lon="5.18646">
        <ele>465.55</ele>
        <time>2017-03-26T14:59:00Z</time>
      </trkpt>
      <trkpt lat="45.16029" lon="5.18668">
        <ele>465.48</ele>
        <time>2017-03-26T14:59:01Z</time>
      </trkpt>
      <trkpt lat="45.16039" lon="5.18693">
        <ele>464.83</ele>
        <time>2017-03-26T14:59:02Z</time>
      </trkpt>
      <trkpt lat="45.16046" lon="5.18716">
        <ele>464.22</ele>
        <time>2017-03-26T14:59:03Z</time>
      </trkpt>
      <trkpt lat="45.16051" lon="5.18741">
        <ele>463.94</ele>
        <time>2017-03-26T14:59:04Z</time>
      </trkpt>
      <trkpt lat="45.16056" lon="5.18769">
        <ele>464.04</ele>
        <time>2017-03-26T14:59:05Z</time>
      </trkpt>
      <trkpt lat="45.16059" lon="5.18796">
        <ele>464.3</ele>
        <time>2017-03-26T14:59:06Z</time>
      </trkpt>
      <trkpt lat="45.1606" lon="5.18822">
        <ele>464.51</ele>
        <time>2017-03-26T14:59:07Z</time>
      </trkpt>
      <trkpt lat="45.1606" lon="5.18848">
        <ele>464.24</ele>
        <time>2017-03-26T14:59:08Z</time>
      </trkpt>
      <trkpt lat="45.16059" lon="5.18875">
        <ele>463.86</ele>
        <time>2017-03-26T14:59:09Z</time>
      </trkpt>
      <trkpt lat="45.16056" lon="5.18903">
        <ele>463.55</ele>
        <time>2017-03-26T14:59:10Z</time>
      </trkpt>
      <trkpt lat="45.16052" lon="5.18931">
        <ele>463.4</ele>
        <time>2017-03-26T14:59:11Z</time>
      </trkpt>
      <trkpt lat="45.16047" lon="5.18958">
        <ele>463.3</ele>
        <time>2017-03-26T14:59:12Z</time>
      </trkpt>
      <trkpt lat="45.16041" lon="5.18985">
        <ele>463.19</ele>
        <time>2017-03-26T14:59:13Z</time>
      </trkpt>
      <trkpt lat="45.16033" lon="5.1901">
        <ele>463.09</ele>
        <time>2017-03-26T14:59:14Z</time>
      </trkpt>
      <trkpt lat="45.16025" lon="5.19032">
        <ele>463.07</ele>
        <time>2017-03-26T14:59:15Z</time>
      </trkpt>
      <trkpt lat="45.16016" lon="5.19052">
        <ele>462.59</ele>
        <time>2017-03-26T14:59:16Z</time>
      </trkpt>
      <trkpt lat="45.1601" lon="5.1907">
        <ele>462.33</ele>
        <time>2017-03-26T14:59:17Z</time>
      </trkpt>
      <trkpt lat="45.16007" lon="5.19088">
        <ele>461.48</ele>
        <time>2017-03-26T14:59:18Z</time>
      </trkpt>
      <trkpt lat="45.16006" lon="5.19104">
        <ele>460.99</ele>
        <time>2017-03-26T14:59:19Z</time>
      </trkpt>
      <trkpt lat="45.16007" lon="5.19121">
        <ele>459.53</ele>
        <time>2017-03-26T14:59:20Z</time>
      </trkpt>
      <trkpt lat="45.16009" lon="5.19138">
        <ele>458.2</ele>
        <time>2017-03-26T14:59:21Z</time>
      </trkpt>
      <trkpt lat="45.16016" lon="5.19154">
        <ele>456.65</ele>
        <time>2017-03-26T14:59:22Z</time>
      </trkpt>
      <trkpt lat="45.16023" lon="5.19172">
        <ele>454.35</ele>
        <time>2017-03-26T14:59:23Z</time>
      </trkpt>
      <trkpt lat="45.16032" lon="5.19189">
        <ele>452.12</ele>
        <time>2017-03-26T14:59:24Z</time>
      </trkpt>
      <trkpt lat="45.16042" lon="5.19204">
        <ele>450.4</ele>
        <time>2017-03-26T14:59:25Z</time>
      </trkpt>
      <trkpt lat="45.16054" lon="5.19219">
        <ele>448.93</ele>
        <time>2017-03-26T14:59:26Z</time>
      </trkpt>
      <trkpt lat="45.16067" lon="5.19233">
        <ele>447.76</ele>
        <time>2017-03-26T14:59:27Z</time>
      </trkpt>
      <trkpt lat="45.1608" lon="5.19249">
        <ele>446.81</ele>
        <time>2017-03-26T14:59:28Z</time>
      </trkpt>
      <trkpt lat="45.16094" lon="5.19265">
        <ele>445.98</ele>
        <time>2017-03-26T14:59:29Z</time>
      </trkpt>
      <trkpt lat="45.16107" lon="5.19282">
        <ele>445.49</ele>
        <time>2017-03-26T14:59:30Z</time>
      </trkpt>
      <trkpt lat="45.1612" lon="5.193">
        <ele>444.99</ele>
        <time>2017-03-26T14:59:31Z</time>
      </trkpt>
      <trkpt lat="45.16131" lon="5.19318">
        <ele>444.01</ele>
        <time>2017-03-26T14:59:32Z</time>
      </trkpt>
      <trkpt lat="45.16143" lon="5.19337">
        <ele>442.78</ele>
        <time>2017-03-26T14:59:33Z</time>
      </trkpt>
      <trkpt lat="45.16154" lon="5.19356">
        <ele>441.73</ele>
        <time>2017-03-26T14:59:34Z</time>
      </trkpt>
      <trkpt lat="45.16165" lon="5.19376">
        <ele>440.8</ele>
        <time>2017-03-26T14:59:35Z</time>
      </trkpt>
      <trkpt lat="45.16177" lon="5.19397">
        <ele>440.05</ele>
        <time>2017-03-26T14:59:36Z</time>
      </trkpt>
      <trkpt lat="45.16187" lon="5.19418">
        <ele>439.59</ele>
        <time>2017-03-26T14:59:37Z</time>
      </trkpt>
      <trkpt lat="45.16197" lon="5.19442">
        <ele>439.25</ele>
        <time>2017-03-26T14:59:38Z</time>
      </trkpt>
      <trkpt lat="45.16206" lon="5.19465">
        <ele>438.46</ele>
        <time>2017-03-26T14:59:39Z</time>
      </trkpt>
      <trkpt lat="45.16216" lon="5.19488">
        <ele>437.59</ele>
        <time>2017-03-26T14:59:40Z</time>
      </trkpt>
      <trkpt lat="45.16227" lon="5.19509">
        <ele>437.01</ele>
        <time>2017-03-26T14:59:41Z</time>
      </trkpt>
      <trkpt lat="45.16241" lon="5.19527">
        <ele>436.9</ele>
        <time>2017-03-26T14:59:42Z</time>
      </trkpt>
      <trkpt lat="45.16255" lon="5.19544">
        <ele>435.99</ele>
        <time>2017-03-26T14:59:43Z</time>
      </trkpt>
      <trkpt lat="45.16264" lon="5.19564">
        <ele>434.05</ele>
        <time>2017-03-26T14:59:44Z</time>
      </trkpt>
      <trkpt lat="45.16272" lon="5.19587">
        <ele>432.39</ele>
        <time>2017-03-26T14:59:45Z</time>
      </trkpt>
      <trkpt lat="45.16279" lon="5.19612">
        <ele>431.41</ele>
        <time>2017-03-26T14:59:46Z</time>
      </trkpt>
      <trkpt lat="45.16281" lon="5.1964">
        <ele>430.58</ele>
        <time>2017-03-26T14:59:47Z</time>
      </trkpt>
      <trkpt lat="45.16285" lon="5.19668">
        <ele>430.17</ele>
        <time>2017-03-26T14:59:48Z</time>
      </trkpt>
      <trkpt lat="45.16288" lon="5.19697">
        <ele>429.77</ele>
        <time>2017-03-26T14:59:49Z</time>
      </trkpt>
      <trkpt lat="45.16291" lon="5.19727">
        <ele>429.29</ele>
        <time>2017-03-26T14:59:50Z</time>
      </trkpt>
      <trkpt lat="45.16294" lon="5.19756">
        <ele>428.95</ele>
        <time>2017-03-26T14:59:51Z</time>
      </trkpt>
      <trkpt lat="45.16296" lon="5.19786">
        <ele>428.56</ele>
        <time>2017-03-26T14:59:52Z</time>
      </trkpt>
      <trkpt lat="45.16299" lon="5.19815">
        <ele>428.25</ele>
        <time>2017-03-26T14:59:53Z</time>
      </trkpt>
      <trkpt lat="45.16301" lon="5.19845">
        <ele>427.78</ele>
        <time>2017-03-26T14:59:54Z</time>
      </trkpt>
      <trkpt lat="45.16303" lon="5.19875">
        <ele>427.53</ele>
        <time>2017-03-26T14:59:55Z</time>
      </trkpt>
      <trkpt lat="45.16305" lon="5.19904">
        <ele>427.8</ele>
        <time>2017-03-26T14:59:56Z</time>
      </trkpt>
      <trkpt lat="45.16307" lon="5.19933">
        <ele>428.41</ele>
        <time>2017-03-26T14:59:57Z</time>
      </trkpt>
      <trkpt lat="45.1631" lon="5.19961">
        <ele>428.14</ele>
        <time>2017-03-26T14:59:58Z</time>
      </trkpt>
      <trkpt lat="45.16313" lon="5.19988">
        <ele>428.56</ele>
        <time>2017-03-26T14:59:59Z</time>
      </trkpt>
      <trkpt lat="45.16316" lon="5.20015">
        <ele>428.65</ele>
        <time>2017-03-26T15:00:00Z</time>
      </trkpt>
      <trkpt lat="45.16318" lon="5.20042">
        <ele>428.42</ele>
        <time>2017-03-26T15:00:01Z</time>
      </trkpt>
      <trkpt lat="45.16319" lon="5.20068">
        <ele>428.3</ele>
        <time>2017-03-26T15:00:02Z</time>
      </trkpt>
      <trkpt lat="45.16319" lon="5.20094">
        <ele>428.19</ele>
        <time>2017-03-26T15:00:03Z</time>
      </trkpt>
      <trkpt lat="45.16318" lon="5.20118">
        <ele>427.77</ele>
        <time>2017-03-26T15:00:04Z</time>
      </trkpt>
      <trkpt lat="45.16315" lon="5.20141">
        <ele>427.45</ele>
        <time>2017-03-26T15:00:05Z</time>
      </trkpt>
      <trkpt lat="45.16313" lon="5.20161">
        <ele>426.34</ele>
        <time>2017-03-26T15:00:06Z</time>
      </trkpt>
      <trkpt lat="45.16311" lon="5.20178">
        <ele>426.36</ele>
        <time>2017-03-26T15:00:07Z</time>
      </trkpt>
      <trkpt lat="45.16309" lon="5.20191">
        <ele>426.69</ele>
        <time>2017-03-26T15:00:08Z</time>
      </trkpt>
      <trkpt lat="45.16308" lon="5.20201">
        <ele>426.91</ele>
        <time>2017-03-26T15:00:09Z</time>
      </trkpt>
      <trkpt lat="45.16307" lon="5.20208">
        <ele>427.28</ele>
        <time>2017-03-26T15:00:10Z</time>
      </trkpt>
      <trkpt lat="45.16307" lon="5.20213">
        <ele>427.35</ele>
        <time>2017-03-26T15:00:11Z</time>
      </trkpt>
      <trkpt lat="45.16306" lon="5.20214">
        <ele>427.52</ele>
        <time>2017-03-26T15:00:12Z</time>
      </trkpt>
      <trkpt lat="45.16306" lon="5.20214">
        <ele>427.72</ele>
        <time>2017-03-26T15:00:13Z</time>
      </trkpt>
      <trkpt lat="45.16305" lon="5.20213">
        <ele>428.08</ele>
        <time>2017-03-26T15:00:14Z</time>
      </trkpt>
      <trkpt lat="45.16303" lon="5.20211">
        <ele>427.99</ele>
        <time>2017-03-26T15:00:15Z</time>
      </trkpt>
      <trkpt lat="45.16303" lon="5.20211">
        <ele>427.97</ele>
        <time>2017-03-26T15:00:16Z</time>
      </trkpt>
      <trkpt lat="45.16303" lon="5.20211">
        <ele>427.97</ele>
        <time>2017-03-26T15:00:17Z</time>
      </trkpt>
      <trkpt lat="45.16303" lon="5.20211">
        <ele>427.97</ele>
        <time>2017-03-26T15:00:18Z</time>
      </trkpt>
      <trkpt lat="45.16303" lon="5.20211">
        <ele>427.97</ele>
        <time>2017-03-26T15:00:19Z</time>
      </trkpt>
      <trkpt lat="45.16303" lon="5.20211">
        <ele>427.97</ele>
        <time>2017-03-26T15:00:20Z</time>
      </trkpt>
      <trkpt lat="45.16303" lon="5.20211">
        <ele>427.97</ele>
        <time>2017-03-26T15:00:21Z</time>
      </trkpt>
      <trkpt lat="45.16303" lon="5.20211">
        <ele>427.97</ele>
        <time>2017-03-26T15:00:22Z</time>
      </trkpt>
      <trkpt lat="45.16303" lon="5.20211">
        <ele>427.97</ele>
        <time>2017-03-26T15:00:23Z</time>
      </trkpt>
      <trkpt lat="45.16303" lon="5.20211">
        <ele>427.97</ele>
        <time>2017-03-26T15:00:24Z</time>
      </trkpt>
      <trkpt lat="45.16303" lon="5.20211">
        <ele>427.97</ele>
        <time>2017-03-26T15:00:25Z</time>
      </trkpt>
      <trkpt lat="45.16303" lon="5.20211">
        <ele>427.97</ele>
        <time>2017-03-26T15:00:26Z</time>
      </trkpt>
      <trkpt lat="45.16303" lon="5.20211">
        <ele>427.97</ele>
        <time>2017-03-26T15:00:27Z</time>
      </trkpt>
      <trkpt lat="45.16303" lon="5.20211">
        <ele>427.97</ele>
        <time>2017-03-26T15:00:28Z</time>
      </trkpt>
      <trkpt lat="45.16303" lon="5.20211">
        <ele>427.97</ele>
        <time>2017-03-26T15:00:29Z</time>
      </trkpt>
      <trkpt lat="45.16303" lon="5.20211">
        <ele>427.97</ele>
        <time>2017-03-26T15:00:30Z</time>
      </trkpt>
      <trkpt lat="45.16303" lon="5.20211">
        <ele>427.97</ele>
        <time>2017-03-26T15:00:31Z</time>
      </trkpt>
      <trkpt lat="45.16303" lon="5.20211">
        <ele>427.97</ele>
        <time>2017-03-26T15:00:32Z</time>
      </trkpt>
      <trkpt lat="45.16303" lon="5.20211">
        <ele>427.97</ele>
        <time>2017-03-26T15:00:33Z</time>
      </trkpt>
      <trkpt lat="45.16303" lon="5.20211">
        <ele>427.97</ele>
        <time>2017-03-26T15:00:34Z</time>
      </trkpt>
      <trkpt lat="45.16303" lon="5.20211">
        <ele>427.97</ele>
        <time>2017-03-26T15:00:35Z</time>
      </trkpt>
      <trkpt lat="45.16303" lon="5.20211">
        <ele>427.97</ele>
        <time>2017-03-26T15:00:36Z</time>
      </trkpt>
      <trkpt lat="45.16303" lon="5.20211">
        <ele>427.97</ele>
        <time>2017-03-26T15:00:37Z</time>
      </trkpt>
      <trkpt lat="45.16303" lon="5.20211">
        <ele>427.97</ele>
        <time>2017-03-26T15:00:38Z</time>
      </trkpt>
      <trkpt lat="45.16303" lon="5.20211">
        <ele>427.97</ele>
        <time>2017-03-26T15:00:39Z</time>
      </trkpt>
      <trkpt lat="45.16303" lon="5.20211">
        <ele>427.97</ele>
        <time>2017-03-26T15:00:40Z</time>
      </trkpt>
      <trkpt lat="45.16303" lon="5.20211">
        <ele>427.97</ele>
        <time>2017-03-26T15:00:41Z</time>
      </trkpt>
      <trkpt lat="45.16303" lon="5.20211">
        <ele>427.97</ele>
        <time>2017-03-26T15:00:42Z</time>
      </trkpt>
      <trkpt lat="45.16303" lon="5.20211">
        <ele>427.97</ele>
        <time>2017-03-26T15:00:43Z</time>
      </trkpt>
      <trkpt lat="45.16303" lon="5.20211">
        <ele>427.97</ele>
        <time>2017-03-26T15:00:44Z</time>
      </trkpt>
      <trkpt lat="45.16303" lon="5.20211">
        <ele>427.97</ele>
        <time>2017-03-26T15:00:45Z</time>
      </trkpt>
      <trkpt lat="45.16303" lon="5.20211">
        <ele>427.97</ele>
        <time>2017-03-26T15:00:46Z</time>
      </trkpt>
      <trkpt lat="45.16303" lon="5.20211">
        <ele>427.97</ele>
        <time>2017-03-26T15:00:47Z</time>
      </trkpt>
      <trkpt lat="45.16303" lon="5.20211">
        <ele>427.97</ele>
        <time>2017-03-26T15:00:48Z</time>
      </trkpt>
      <trkpt lat="45.16303" lon="5.20211">
        <ele>427.97</ele>
        <time>2017-03-26T15:00:49Z</time>
      </trkpt>
      <trkpt lat="45.16303" lon="5.20211">
        <ele>427.97</ele>
        <time>2017-03-26T15:00:50Z</time>
      </trkpt>
      <trkpt lat="45.16303" lon="5.20211">
        <ele>427.97</ele>
        <time>2017-03-26T15:00:51Z</time>
      </trkpt>
      <trkpt lat="45.16303" lon="5.20211">
        <ele>427.97</ele>
        <time>2017-03-26T15:00:52Z</time>
      </trkpt>
      <trkpt lat="45.16303" lon="5.20211">
        <ele>427.97</ele>
        <time>2017-03-26T15:00:53Z</time>
      </trkpt>
      <trkpt lat="45.16303" lon="5.20211">
        <ele>427.97</ele>
        <time>2017-03-26T15:00:54Z</time>
      </trkpt>
      <trkpt lat="45.16303" lon="5.20211">
        <ele>427.97</ele>
        <time>2017-03-26T15:00:55Z</time>
      </trkpt>
      <trkpt lat="45.16303" lon="5.20211">
        <ele>427.97</ele>
        <time>2017-03-26T15:00:56Z</time>
      </trkpt>
      <trkpt lat="45.16303" lon="5.20211">
        <ele>427.97</ele>
        <time>2017-03-26T15:00:57Z</time>
      </trkpt>
      <trkpt lat="45.16303" lon="5.20211">
        <ele>427.97</ele>
        <time>2017-03-26T15:00:58Z</time>
      </trkpt>
      <trkpt lat="45.16303" lon="5.20211">
        <ele>427.97</ele>
        <time>2017-03-26T15:00:59Z</time>
      </trkpt>
      <trkpt lat="45.16303" lon="5.20211">
        <ele>427.97</ele>
        <time>2017-03-26T15:01:00Z</time>
      </trkpt>
      <trkpt lat="45.16303" lon="5.20211">
        <ele>427.97</ele>
        <time>2017-03-26T15:01:01Z</time>
      </trkpt>
      <trkpt lat="45.16303" lon="5.20211">
        <ele>427.97</ele>
        <time>2017-03-26T15:01:02Z</time>
      </trkpt>
      <trkpt lat="45.16303" lon="5.20211">
        <ele>427.97</ele>
        <time>2017-03-26T15:01:03Z</time>
      </trkpt>
      <trkpt lat="45.16303" lon="5.20211">
        <ele>427.97</ele>
        <time>2017-03-26T15:01:04Z</time>
      </trkpt>
      <trkpt lat="45.16303" lon="5.20211">
        <ele>427.97</ele>
        <time>2017-03-26T15:01:05Z</time>
      </trkpt>
      <trkpt lat="45.16303" lon="5.20211">
        <ele>427.97</ele>
        <time>2017-03-26T15:01:06Z</time>
      </trkpt>
      <trkpt lat="45.16303" lon="5.20211">
        <ele>427.97</ele>
        <time>2017-03-26T15:01:07Z</time>
      </trkpt>
      <trkpt lat="45.16303" lon="5.20211">
        <ele>427.97</ele>
        <time>2017-03-26T15:01:08Z</time>
      </trkpt>
      <trkpt lat="45.16303" lon="5.20211">
        <ele>427.97</ele>
        <time>2017-03-26T15:01:09Z</time>
      </trkpt>
      <trkpt lat="45.16303" lon="5.20211">
        <ele>427.97</ele>
        <time>2017-03-26T15:01:10Z</time>
      </trkpt>
      <trkpt lat="45.16303" lon="5.20211">
        <ele>427.97</ele>
        <time>2017-03-26T15:01:11Z</time>
      </trkpt>
      <trkpt lat="45.16303" lon="5.20211">
        <ele>427.97</ele>
        <time>2017-03-26T15:01:12Z</time>
      </trkpt>
      <trkpt lat="45.16303" lon="5.20211">
        <ele>427.97</ele>
        <time>2017-03-26T15:01:13Z</time>
      </trkpt>
      <trkpt lat="45.16303" lon="5.20211">
        <ele>427.97</ele>
        <time>2017-03-26T15:01:14Z</time>
      </trkpt>
      <trkpt lat="45.16303" lon="5.20211">
        <ele>427.97</ele>
        <time>2017-03-26T15:01:15Z</time>
      </trkpt>
      <trkpt lat="45.16303" lon="5.20211">
        <ele>427.97</ele>
        <time>2017-03-26T15:01:16Z</time>
      </trkpt>
      <trkpt lat="45.16303" lon="5.20211">
        <ele>427.97</ele>
        <time>2017-03-26T15:01:17Z</time>
      </trkpt>
      <trkpt lat="45.16303" lon="5.20211">
        <ele>427.97</ele>
        <time>2017-03-26T15:01:18Z</time>
      </trkpt>
      <trkpt lat="45.16303" lon="5.20211">
        <ele>427.97</ele>
        <time>2017-03-26T15:01:19Z</time>
      </trkpt>
      <trkpt lat="45.16303" lon="5.20211">
        <ele>427.97</ele>
        <time>2017-03-26T15:01:20Z</time>
      </trkpt>
      <trkpt lat="45.16303" lon="5.20211">
        <ele>427.97</ele>
        <time>2017-03-26T15:01:21Z</time>
      </trkpt>
      <trkpt lat="45.16303" lon="5.20211">
        <ele>427.97</ele>
        <time>2017-03-26T15:01:22Z</time>
      </trkpt>
      <trkpt lat="45.16303" lon="5.20211">
        <ele>427.97</ele>
        <time>2017-03-26T15:01:23Z</time>
      </trkpt>
      <trkpt lat="45.16303" lon="5.20211">
        <ele>427.97</ele>
        <time>2017-03-26T15:01:24Z</time>
      </trkpt>
      <trkpt lat="45.16303" lon="5.20211">
        <ele>427.97</ele>
        <time>2017-03-26T15:01:25Z</time>
      </trkpt>
      <trkpt lat="45.16304" lon="5.20213">
        <ele>427.97</ele>
        <time>2017-03-26T15:01:26Z</time>
      </trkpt>
      <trkpt lat="45.16307" lon="5.20216">
        <ele>427.97</ele>
        <time>2017-03-26T15:01:27Z</time>
      </trkpt>
      <trkpt lat="45.1631" lon="5.20218">
        <ele>427.97</ele>
        <time>2017-03-26T15:01:28Z</time>
      </trkpt>
      <trkpt lat="45.16315" lon="5.2022">
        <ele>427.97</ele>
        <time>2017-03-26T15:01:29Z</time>
      </trkpt>
      <trkpt lat="45.16321" lon="5.20221">
        <ele>428.05</ele>
        <time>2017-03-26T15:01:30Z</time>
      </trkpt>
      <trkpt lat="45.16329" lon="5.20221">
        <ele>428.06</ele>
        <time>2017-03-26T15:01:31Z</time>
      </trkpt>
      <trkpt lat="45.16339" lon="5.2022">
        <ele>428.15</ele>
        <time>2017-03-26T15:01:32Z</time>
      </trkpt>
      <trkpt lat="45.16348" lon="5.2022">
        <ele>428.16</ele>
        <time>2017-03-26T15:01:33Z</time>
      </trkpt>
      <trkpt lat="45.16359" lon="5.2022">
        <ele>428.17</ele>
        <time>2017-03-26T15:01:34Z</time>
      </trkpt>
      <trkpt lat="45.1637" lon="5.2022">
        <ele>428.25</ele>
        <time>2017-03-26T15:01:35Z</time>
      </trkpt>
      <trkpt lat="45.16382" lon="5.20221">
        <ele>428.26</ele>
        <time>2017-03-26T15:01:36Z</time>
      </trkpt>
      <trkpt lat="45.16399" lon="5.20223">
        <ele>428.27</ele>
        <time>2017-03-26T15:01:37Z</time>
      </trkpt>
      <trkpt lat="45.16418" lon="5.20223">
        <ele>428.27</ele>
        <time>2017-03-26T15:01:38Z</time>
      </trkpt>
      <trkpt lat="45.16439" lon="5.20223">
        <ele>428.27</ele>
        <time>2017-03-26T15:01:39Z</time>
      </trkpt>
      <trkpt lat="45.1646" lon="5.20223">
        <ele>428.27</ele>
        <time>2017-03-26T15:01:40Z</time>
      </trkpt>
      <trkpt lat="45.16479" lon="5.20224">
        <ele>428.27</ele>
        <time>2017-03-26T15:01:41Z</time>
      </trkpt>
      <trkpt lat="45.16499" lon="5.20224">
        <ele>428.27</ele>
        <time>2017-03-26T15:01:42Z</time>
      </trkpt>
      <trkpt lat="45.1652" lon="5.20223">
        <ele>428.27</ele>
        <time>2017-03-26T15:01:43Z</time>
      </trkpt>
      <trkpt lat="45.16539" lon="5.20223">
        <ele>428.27</ele>
        <time>2017-03-26T15:01:44Z</time>
      </trkpt>
      <trkpt lat="45.16559" lon="5.20224">
        <ele>428.35</ele>
        <time>2017-03-26T15:01:45Z</time>
      </trkpt>
      <trkpt lat="45.16579" lon="5.20224">
        <ele>428.36</ele>
        <time>2017-03-26T15:01:46Z</time>
      </trkpt>
      <trkpt lat="45.16599" lon="5.20225">
        <ele>428.37</ele>
        <time>2017-03-26T15:01:47Z</time>
      </trkpt>
      <trkpt lat="45.16615" lon="5.20222">
        <ele>428.29</ele>
        <time>2017-03-26T15:01:48Z</time>
      </trkpt>
      <trkpt lat="45.16629" lon="5.20217">
        <ele>428.19</ele>
        <time>2017-03-26T15:01:49Z</time>
      </trkpt>
      <trkpt lat="45.16643" lon="5.20211">
        <ele>428.17</ele>
        <time>2017-03-26T15:01:50Z</time>
      </trkpt>
      <trkpt lat="45.16654" lon="5.20199">
        <ele>428.17</ele>
        <time>2017-03-26T15:01:51Z</time>
      </trkpt>
      <trkpt lat="45.16663" lon="5.20184">
        <ele>428.09</ele>
        <time>2017-03-26T15:01:52Z</time>
      </trkpt>
      <trkpt lat="45.16671" lon="5.20166">
        <ele>427.99</ele>
        <time>2017-03-26T15:01:53Z</time>
      </trkpt>
      <trkpt lat="45.16673" lon="5.20138">
        <ele>427.89</ele>
        <time>2017-03-26T15:01:54Z</time>
      </trkpt>
      <trkpt lat="45.16678" lon="5.20112">
        <ele>427.87</ele>
        <time>2017-03-26T15:01:55Z</time>
      </trkpt>
      <trkpt lat="45.16685" lon="5.20089">
        <ele>427.87</ele>
        <time>2017-03-26T15:01:56Z</time>
      </trkpt>
      <trkpt lat="45.16693" lon="5.20067">
        <ele>427.79</ele>
        <time>2017-03-26T15:01:57Z</time>
      </trkpt>
      <trkpt lat="45.16703" lon="5.20045">
        <ele>427.77</ele>
        <time>2017-03-26T15:01:58Z</time>
      </trkpt>
      <trkpt lat="45.16722" lon="5.20033">
        <ele>427.77</ele>
        <time>2017-03-26T15:01:59Z</time>
      </trkpt>
      <trkpt lat="45.16738" lon="5.20021">
        <ele>427.85</ele>
        <time>2017-03-26T15:02:00Z</time>
      </trkpt>
      <trkpt lat="45.16757" lon="5.20016">
        <ele>427.94</ele>
        <time>2017-03-26T15:02:01Z</time>
      </trkpt>
      <trkpt lat="45.16775" lon="5.20012">
        <ele>427.88</ele>
        <time>2017-03-26T15:02:02Z</time>
      </trkpt>
      <trkpt lat="45.16794" lon="5.20009">
        <ele>427.87</ele>
        <time>2017-03-26T15:02:03Z</time>
      </trkpt>
      <trkpt lat="45.16815" lon="5.20007">
        <ele>427.87</ele>
        <time>2017-03-26T15:02:04Z</time>
      </trkpt>
      <trkpt lat="45.16837" lon="5.20008">
        <ele>427.87</ele>
        <time>2017-03-26T15:02:05Z</time>
      </trkpt>
      <trkpt lat="45.16858" lon="5.20009">
        <ele>427.87</ele>
        <time>2017-03-26T15:02:06Z</time>
      </trkpt>
      <trkpt lat="45.16877" lon="5.20011">
        <ele>427.87</ele>
        <time>2017-03-26T15:02:07Z</time>
      </trkpt>
      <trkpt lat="45.16896" lon="5.20017">
        <ele>427.87</ele>
        <time>2017-03-26T15:02:08Z</time>
      </trkpt>
      <trkpt lat="45.16913" lon="5.2003">
        <ele>427.79</ele>
        <time>2017-03-26T15:02:09Z</time>
      </trkpt>
      <trkpt lat="45.16931" lon="5.20046">
        <ele>427.77</ele>
        <time>2017-03-26T15:02:10Z</time>
      </trkpt>
      <trkpt lat="45.16945" lon="5.20069">
        <ele>427.85</ele>
        <time>2017-03-26T15:02:11Z</time>
      </trkpt>
      <trkpt lat="45.1696" lon="5.20091">
        <ele>427.94</ele>
        <time>2017-03-26T15:02:12Z</time>
      </trkpt>
      <trkpt lat="45.16974" lon="5.20112">
        <ele>427.96</ele>
        <time>2017-03-26T15:02:13Z</time>
      </trkpt>
      <trkpt lat="45.16988" lon="5.2013">
        <ele>427.97</ele>
        <time>2017-03-26T15:02:14Z</time>
      </trkpt>
      <trkpt lat="45.17001" lon="5.20144">
        <ele>428.05</ele>
        <time>2017-03-26T15:02:15Z</time>
      </trkpt>
      <trkpt lat="45.17015" lon="5.20156">
        <ele>428.14</ele>
        <time>2017-03-26T15:02:16Z</time>
      </trkpt>
      <trkpt lat="45.17029" lon="5.20163">
        <ele>428.16</ele>
        <time>2017-03-26T15:02:17Z</time>
      </trkpt>
      <trkpt lat="45.17044" lon="5.20162">
        <ele>428.09</ele>
        <time>2017-03-26T15:02:18Z</time>
      </trkpt>
      <trkpt lat="45.17058" lon="5.2016">
        <ele>427.99</ele>
        <time>2017-03-26T15:02:19Z</time>
      </trkpt>
      <trkpt lat="45.1707" lon="5.20152">
        <ele>427.89</ele>
        <time>2017-03-26T15:02:20Z</time>
      </trkpt>
      <trkpt lat="45.17085" lon="5.20143">
        <ele>427.55</ele>
        <time>2017-03-26T15:02:21Z</time>
      </trkpt>
      <trkpt lat="45.17099" lon="5.2013">
        <ele>427.08</ele>
        <time>2017-03-26T15:02:22Z</time>
      </trkpt>
      <trkpt lat="45.17113" lon="5.20116">
        <ele>426.75</ele>
        <time>2017-03-26T15:02:23Z</time>
      </trkpt>
      <trkpt lat="45.17127" lon="5.20101">
        <ele>426.44</ele>
        <time>2017-03-26T15:02:24Z</time>
      </trkpt>
      <trkpt lat="45.17141" lon="5.20086">
        <ele>426.3</ele>
        <time>2017-03-26T15:02:25Z</time>
      </trkpt>
      <trkpt lat="45.17154" lon="5.20072">
        <ele>425.96</ele>
        <time>2017-03-26T15:02:26Z</time>
      </trkpt>
      <trkpt lat="45.17167" lon="5.20061">
        <ele>425.89</ele>
        <time>2017-03-26T15:02:27Z</time>
      </trkpt>
      <trkpt lat="45.17181" lon="5.20056">
        <ele>426.03</ele>
        <time>2017-03-26T15:02:28Z</time>
      </trkpt>
      <trkpt lat="45.17197" lon="5.20055">
        <ele>426.06</ele>
        <time>2017-03-26T15:02:29Z</time>
      </trkpt>
      <trkpt lat="45.17212" lon="5.20056">
        <ele>425.99</ele>
        <time>2017-03-26T15:02:30Z</time>
      </trkpt>
      <trkpt lat="45.17226" lon="5.20055">
        <ele>425.97</ele>
        <time>2017-03-26T15:02:31Z</time>
      </trkpt>
      <trkpt lat="45.17238" lon="5.20053">
        <ele>425.89</ele>
        <time>2017-03-26T15:02:32Z</time>
      </trkpt>
      <trkpt lat="45.17247" lon="5.20051">
        <ele>426.03</ele>
        <time>2017-03-26T15:02:33Z</time>
      </trkpt>
      <trkpt lat="45.17254" lon="5.20048">
        <ele>425.42</ele>
        <time>2017-03-26T15:02:34Z</time>
      </trkpt>
      <trkpt lat="45.17263" lon="5.20044">
        <ele>425.22</ele>
        <time>2017-03-26T15:02:35Z</time>
      </trkpt>
      <trkpt lat="45.17273" lon="5.20037">
        <ele>425.02</ele>
        <time>2017-03-26T15:02:36Z</time>
      </trkpt>
      <trkpt lat="45.17285" lon="5.20029">
        <ele>424.98</ele>
        <time>2017-03-26T15:02:37Z</time>
      </trkpt>
      <trkpt lat="45.17298" lon="5.20021">
        <ele>424.97</ele>
        <time>2017-03-26T15:02:38Z</time>
      </trkpt>
      <trkpt lat="45.17312" lon="5.20015">
        <ele>424.41</ele>
        <time>2017-03-26T15:02:39Z</time>
      </trkpt>
      <trkpt lat="45.17327" lon="5.20007">
        <ele>423.82</ele>
        <time>2017-03-26T15:02:40Z</time>
      </trkpt>
      <trkpt lat="45.17342" lon="5.19997">
        <ele>423.3</ele>
        <time>2017-03-26T15:02:41Z</time>
      </trkpt>
      <trkpt lat="45.17356" lon="5.19987">
        <ele>422.79</ele>
        <time>2017-03-26T15:02:42Z</time>
      </trkpt>
      <trkpt lat="45.17371" lon="5.19977">
        <ele>422.37</ele>
        <time>2017-03-26T15:02:43Z</time>
      </trkpt>
      <trkpt lat="45.17385" lon="5.19968">
        <ele>421.89</ele>
        <time>2017-03-26T15:02:44Z</time>
      </trkpt>
      <trkpt lat="45.174" lon="5.1996">
        <ele>421.39</ele>
        <time>2017-03-26T15:02:45Z</time>
      </trkpt>
      <trkpt lat="45.17415" lon="5.19955">
        <ele>420.89</ele>
        <time>2017-03-26T15:02:46Z</time>
      </trkpt>
      <trkpt lat="45.1743" lon="5.19952">
        <ele>420.47</ele>
        <time>2017-03-26T15:02:47Z</time>
      </trkpt>
      <trkpt lat="45.17445" lon="5.19951">
        <ele>419.99</ele>
        <time>2017-03-26T15:02:48Z</time>
      </trkpt>
      <trkpt lat="45.17469" lon="5.1997">
        <ele>419.97</ele>
        <time>2017-03-26T15:02:49Z</time>
      </trkpt>
      <trkpt lat="45.17487" lon="5.19982">
        <ele>419.65</ele>
        <time>2017-03-26T15:02:50Z</time>
      </trkpt>
      <trkpt lat="45.17502" lon="5.2">
        <ele>419.58</ele>
        <time>2017-03-26T15:02:51Z</time>
      </trkpt>
      <trkpt lat="45.17518" lon="5.2002">
        <ele>419.33</ele>
        <time>2017-03-26T15:02:52Z</time>
      </trkpt>
      <trkpt lat="45.1753" lon="5.20041">
        <ele>418.8</ele>
        <time>2017-03-26T15:02:53Z</time>
      </trkpt>
      <trkpt lat="45.17541" lon="5.20061">
        <ele>417.97</ele>
        <time>2017-03-26T15:02:54Z</time>
      </trkpt>
      <trkpt lat="45.17552" lon="5.20083">
        <ele>417.25</ele>
        <time>2017-03-26T15:02:55Z</time>
      </trkpt>
      <trkpt lat="45.17561" lon="5.20107">
        <ele>416.54</ele>
        <time>2017-03-26T15:02:56Z</time>
      </trkpt>
      <trkpt lat="45.1757" lon="5.20133">
        <ele>415.76</ele>
        <time>2017-03-26T15:02:57Z</time>
      </trkpt>
      <trkpt lat="45.17578" lon="5.20159">
        <ele>415.05</ele>
        <time>2017-03-26T15:02:58Z</time>
      </trkpt>
      <trkpt lat="45.17585" lon="5.20184">
        <ele>414.34</ele>
        <time>2017-03-26T15:02:59Z</time>
      </trkpt>
      <trkpt lat="45.17593" lon="5.20208">
        <ele>413.88</ele>
        <time>2017-03-26T15:03:00Z</time>
      </trkpt>
      <trkpt lat="45.17596" lon="5.20235">
        <ele>413.55</ele>
        <time>2017-03-26T15:03:01Z</time>
      </trkpt>
      <trkpt lat="45.176" lon="5.20261">
        <ele>413.48</ele>
        <time>2017-03-26T15:03:02Z</time>
      </trkpt>
      <trkpt lat="45.17603" lon="5.20287">
        <ele>413.15</ele>
        <time>2017-03-26T15:03:03Z</time>
      </trkpt>
      <trkpt lat="45.17605" lon="5.20311">
        <ele>412.84</ele>
        <time>2017-03-26T15:03:04Z</time>
      </trkpt>
      <trkpt lat="45.17606" lon="5.20334">
        <ele>412.3</ele>
        <time>2017-03-26T15:03:05Z</time>
      </trkpt>
      <trkpt lat="45.17608" lon="5.20354">
        <ele>411.88</ele>
        <time>2017-03-26T15:03:06Z</time>
      </trkpt>
      <trkpt lat="45.17612" lon="5.20373">
        <ele>411.47</ele>
        <time>2017-03-26T15:03:07Z</time>
      </trkpt>
      <trkpt lat="45.17618" lon="5.2039">
        <ele>410.99</ele>
        <time>2017-03-26T15:03:08Z</time>
      </trkpt>
      <trkpt lat="45.17626" lon="5.20406">
        <ele>410.33</ele>
        <time>2017-03-26T15:03:09Z</time>
      </trkpt>
      <trkpt lat="45.17636" lon="5.20421">
        <ele>409.64</ele>
        <time>2017-03-26T15:03:10Z</time>
      </trkpt>
      <trkpt lat="45.17647" lon="5.20437">
        <ele>409.1</ele>
        <time>2017-03-26T15:03:11Z</time>
      </trkpt>
      <trkpt lat="45.1766" lon="5.20453">
        <ele>408.35</ele>
        <time>2017-03-26T15:03:12Z</time>
      </trkpt>
      <trkpt lat="45.17673" lon="5.20469">
        <ele>407.25</ele>
        <time>2017-03-26T15:03:13Z</time>
      </trkpt>
      <trkpt lat="45.17687" lon="5.20486">
        <ele>406.3</ele>
        <time>2017-03-26T15:03:14Z</time>
      </trkpt>
      <trkpt lat="45.17702" lon="5.20501">
        <ele>405.16</ele>
        <time>2017-03-26T15:03:15Z</time>
      </trkpt>
      <trkpt lat="45.17716" lon="5.20517">
        <ele>403.97</ele>
        <time>2017-03-26T15:03:16Z</time>
      </trkpt>
      <trkpt lat="45.17731" lon="5.20533">
        <ele>402.77</ele>
        <time>2017-03-26T15:03:17Z</time>
      </trkpt>
      <trkpt lat="45.17744" lon="5.20549">
        <ele>401.25</ele>
        <time>2017-03-26T15:03:18Z</time>
      </trkpt>
      <trkpt lat="45.17758" lon="5.20564">
        <ele>400.06</ele>
        <time>2017-03-26T15:03:19Z</time>
      </trkpt>
      <trkpt lat="45.17772" lon="5.20579">
        <ele>399.03</ele>
        <time>2017-03-26T15:03:20Z</time>
      </trkpt>
      <trkpt lat="45.17783" lon="5.20595">
        <ele>397.78</ele>
        <time>2017-03-26T15:03:21Z</time>
      </trkpt>
      <trkpt lat="45.17791" lon="5.20613">
        <ele>396.65</ele>
        <time>2017-03-26T15:03:22Z</time>
      </trkpt>
      <trkpt lat="45.17797" lon="5.20631">
        <ele>395.38</ele>
        <time>2017-03-26T15:03:23Z</time>
      </trkpt>
      <trkpt lat="45.17797" lon="5.2065">
        <ele>393.61</ele>
        <time>2017-03-26T15:03:24Z</time>
      </trkpt>
      <trkpt lat="45.17798" lon="5.20669">
        <ele>392.38</ele>
        <time>2017-03-26T15:03:25Z</time>
      </trkpt>
      <trkpt lat="45.17795" lon="5.20688">
        <ele>391.25</ele>
        <time>2017-03-26T15:03:26Z</time>
      </trkpt>
      <trkpt lat="45.17791" lon="5.20707">
        <ele>390.22</ele>
        <time>2017-03-26T15:03:27Z</time>
      </trkpt>
      <trkpt lat="45.17786" lon="5.20726">
        <ele>389.3</ele>
        <time>2017-03-26T15:03:28Z</time>
      </trkpt>
      <trkpt lat="45.17782" lon="5.20748">
        <ele>388.23</ele>
        <time>2017-03-26T15:03:29Z</time>
      </trkpt>
      <trkpt lat="45.17779" lon="5.20771">
        <ele>387.06</ele>
        <time>2017-03-26T15:03:30Z</time>
      </trkpt>
      <trkpt lat="45.17776" lon="5.20794">
        <ele>386.03</ele>
        <time>2017-03-26T15:03:31Z</time>
      </trkpt>
      <trkpt lat="45.17776" lon="5.20816">
        <ele>384.94</ele>
        <time>2017-03-26T15:03:32Z</time>
      </trkpt>
      <trkpt lat="45.17777" lon="5.20837">
        <ele>384</ele>
        <time>2017-03-26T15:03:33Z</time>
      </trkpt>
      <trkpt lat="45.1778" lon="5.20858">
        <ele>383.25</ele>
        <time>2017-03-26T15:03:34Z</time>
      </trkpt>
      <trkpt lat="45.17789" lon="5.20874">
        <ele>382.31</ele>
        <time>2017-03-26T15:03:35Z</time>
      </trkpt>
      <trkpt lat="45.17801" lon="5.20888">
        <ele>381</ele>
        <time>2017-03-26T15:03:36Z</time>
      </trkpt>
      <trkpt lat="45.17814" lon="5.20901">
        <ele>379.93</ele>
        <time>2017-03-26T15:03:37Z</time>
      </trkpt>
      <trkpt lat="45.17828" lon="5.20914">
        <ele>378.92</ele>
        <time>2017-03-26T15:03:38Z</time>
      </trkpt>
      <trkpt lat="45.1784" lon="5.20927">
        <ele>377.84</ele>
        <time>2017-03-26T15:03:39Z</time>
      </trkpt>
      <trkpt lat="45.17852" lon="5.20941">
        <ele>376.74</ele>
        <time>2017-03-26T15:03:40Z</time>
      </trkpt>
      <trkpt lat="45.17863" lon="5.20959">
        <ele>375.56</ele>
        <time>2017-03-26T15:03:41Z</time>
      </trkpt>
      <trkpt lat="45.17873" lon="5.20977">
        <ele>374.37</ele>
        <time>2017-03-26T15:03:42Z</time>
      </trkpt>
      <trkpt lat="45.17882" lon="5.20997">
        <ele>373.01</ele>
        <time>2017-03-26T15:03:43Z</time>
      </trkpt>
      <trkpt lat="45.17891" lon="5.21017">
        <ele>371.7</ele>
        <time>2017-03-26T15:03:44Z</time>
      </trkpt>
      <trkpt lat="45.17899" lon="5.21038">
        <ele>370.39</ele>
        <time>2017-03-26T15:03:45Z</time>
      </trkpt>
      <trkpt lat="45.17903" lon="5.21059">
        <ele>369.09</ele>
        <time>2017-03-26T15:03:46Z</time>
      </trkpt>
      <trkpt lat="45.17906" lon="5.2108">
        <ele>367.87</ele>
        <time>2017-03-26T15:03:47Z</time>
      </trkpt>
      <trkpt lat="45.17908" lon="5.21101">
        <ele>366.59</ele>
        <time>2017-03-26T15:03:48Z</time>
      </trkpt>
      <trkpt lat="45.17908" lon="5.21123">
        <ele>365.37</ele>
        <time>2017-03-26T15:03:49Z</time>
      </trkpt>
      <trkpt lat="45.17905" lon="5.21145">
        <ele>363.77</ele>
        <time>2017-03-26T15:03:50Z</time>
      </trkpt>
      <trkpt lat="45.17903" lon="5.21164">
        <ele>362.25</ele>
        <time>2017-03-26T15:03:51Z</time>
      </trkpt>
      <trkpt lat="45.179" lon="5.21182">
        <ele>360.58</ele>
        <time>2017-03-26T15:03:52Z</time>
      </trkpt>
      <trkpt lat="45.17888" lon="5.21191">
        <ele>358.65</ele>
        <time>2017-03-26T15:03:53Z</time>
      </trkpt>
      <trkpt lat="45.17875" lon="5.212">
        <ele>356.58</ele>
        <time>2017-03-26T15:03:54Z</time>
      </trkpt>
      <trkpt lat="45.17859" lon="5.21208">
        <ele>354.41</ele>
        <time>2017-03-26T15:03:55Z</time>
      </trkpt>
      <trkpt lat="45.17844" lon="5.21214">
        <ele>352.22</ele>
        <time>2017-03-26T15:03:56Z</time>
      </trkpt>
      <trkpt lat="45.17831" lon="5.21219">
        <ele>350.02</ele>
        <time>2017-03-26T15:03:57Z</time>
      </trkpt>
      <trkpt lat="45.17819" lon="5.21224">
        <ele>347.98</ele>
        <time>2017-03-26T15:03:58Z</time>
      </trkpt>
      <trkpt lat="45.17811" lon="5.21228">
        <ele>345.81</ele>
        <time>2017-03-26T15:03:59Z</time>
      </trkpt>
      <trkpt lat="45.17806" lon="5.2123">
        <ele>343.78</ele>
        <time>2017-03-26T15:04:00Z</time>
      </trkpt>
      <trkpt lat="45.17803" lon="5.21231">
        <ele>343.45</ele>
        <time>2017-03-26T15:04:01Z</time>
      </trkpt>
      <trkpt lat="45.178" lon="5.2123">
        <ele>342.26</ele>
        <time>2017-03-26T15:04:02Z</time>
      </trkpt>
      <trkpt lat="45.17799" lon="5.21229">
        <ele>341.15</ele>
        <time>2017-03-26T15:04:03Z</time>
      </trkpt>
      <trkpt lat="45.17797" lon="5.21228">
        <ele>340.04</ele>
        <time>2017-03-26T15:04:04Z</time>
      </trkpt>
      <trkpt lat="45.17797" lon="5.21227">
        <ele>339.1</ele>
        <time>2017-03-26T15:04:05Z</time>
      </trkpt>
      <trkpt lat="45.17794" lon="5.21226">
        <ele>339</ele>
        <time>2017-03-26T15:04:06Z</time>
      </trkpt>
      <trkpt lat="45.17794" lon="5.21226">
        <ele>338.97</ele>
        <time>2017-03-26T15:04:07Z</time>
      </trkpt>
      <trkpt lat="45.17794" lon="5.21226">
        <ele>338.97</ele>
        <time>2017-03-26T15:04:08Z</time>
      </trkpt>
      <trkpt lat="45.17794" lon="5.21226">
        <ele>338.97</ele>
        <time>2017-03-26T15:04:09Z</time>
      </trkpt>
      <trkpt lat="45.17794" lon="5.21226">
        <ele>338.97</ele>
        <time>2017-03-26T15:04:10Z</time>
      </trkpt>
      <trkpt lat="45.17794" lon="5.21226">
        <ele>338.97</ele>
        <time>2017-03-26T15:04:11Z</time>
      </trkpt>
      <trkpt lat="45.17794" lon="5.21226">
        <ele>338.97</ele>
        <time>2017-03-26T15:04:12Z</time>
      </trkpt>
      <trkpt lat="45.17794" lon="5.21226">
        <ele>338.97</ele>
        <time>2017-03-26T15:04:13Z</time>
      </trkpt>
      <trkpt lat="45.17794" lon="5.21226">
        <ele>338.97</ele>
        <time>2017-03-26T15:04:14Z</time>
      </trkpt>
      <trkpt lat="45.17794" lon="5.21226">
        <ele>338.97</ele>
        <time>2017-03-26T15:04:15Z</time>
      </trkpt>
      <trkpt lat="45.17794" lon="5.21226">
        <ele>338.97</ele>
        <time>2017-03-26T15:04:16Z</time>
      </trkpt>
      <trkpt lat="45.17794" lon="5.21226">
        <ele>338.97</ele>
        <time>2017-03-26T15:04:17Z</time>
      </trkpt>
      <trkpt lat="45.17794" lon="5.21226">
        <ele>338.97</ele>
        <time>2017-03-26T15:04:18Z</time>
      </trkpt>
      <trkpt lat="45.17794" lon="5.21226">
        <ele>338.97</ele>
        <time>2017-03-26T15:04:19Z</time>
      </trkpt>
      <trkpt lat="45.17794" lon="5.21226">
        <ele>338.97</ele>
        <time>2017-03-26T15:04:20Z</time>
      </trkpt>
      <trkpt lat="45.17794" lon="5.21226">
        <ele>338.97</ele>
        <time>2017-03-26T15:04:21Z</time>
      </trkpt>
      <trkpt lat="45.17794" lon="5.21226">
        <ele>338.97</ele>
        <time>2017-03-26T15:04:22Z</time>
      </trkpt>
      <trkpt lat="45.17794" lon="5.21226">
        <ele>338.97</ele>
        <time>2017-03-26T15:04:23Z</time>
      </trkpt>
      <trkpt lat="45.17794" lon="5.21226">
        <ele>338.97</ele>
        <time>2017-03-26T15:04:24Z</time>
      </trkpt>
      <trkpt lat="45.17794" lon="5.21226">
        <ele>338.97</ele>
        <time>2017-03-26T15:04:25Z</time>
      </trkpt>
      <trkpt lat="45.17794" lon="5.21226">
        <ele>338.97</ele>
        <time>2017-03-26T15:04:26Z</time>
      </trkpt>
      <trkpt lat="45.17794" lon="5.21226">
        <ele>338.97</ele>
        <time>2017-03-26T15:04:27Z</time>
      </trkpt>
      <trkpt lat="45.17794" lon="5.21226">
        <ele>338.97</ele>
        <time>2017-03-26T15:04:28Z</time>
      </trkpt>
      <trkpt lat="45.17794" lon="5.21226">
        <ele>338.97</ele>
        <time>2017-03-26T15:04:29Z</time>
      </trkpt>
      <trkpt lat="45.17794" lon="5.21226">
        <ele>338.97</ele>
        <time>2017-03-26T15:04:30Z</time>
      </trkpt>
      <trkpt lat="45.17794" lon="5.21226">
        <ele>338.97</ele>
        <time>2017-03-26T15:04:31Z</time>
      </trkpt>
      <trkpt lat="45.17794" lon="5.21226">
        <ele>338.97</ele>
        <time>2017-03-26T15:04:32Z</time>
      </trkpt>
      <trkpt lat="45.17794" lon="5.21226">
        <ele>338.97</ele>
        <time>2017-03-26T15:04:33Z</time>
      </trkpt>
      <trkpt lat="45.17794" lon="5.21226">
        <ele>338.97</ele>
        <time>2017-03-26T15:04:34Z</time>
      </trkpt>
      <trkpt lat="45.17794" lon="5.21226">
        <ele>338.97</ele>
        <time>2017-03-26T15:04:35Z</time>
      </trkpt>
      <trkpt lat="45.17794" lon="5.21226">
        <ele>338.97</ele>
        <time>2017-03-26T15:04:36Z</time>
      </trkpt>
      <trkpt lat="45.17794" lon="5.21226">
        <ele>338.97</ele>
        <time>2017-03-26T15:04:37Z</time>
      </trkpt>
      <trkpt lat="45.17794" lon="5.21226">
        <ele>338.97</ele>
        <time>2017-03-26T15:04:38Z</time>
      </trkpt>
      <trkpt lat="45.17794" lon="5.21226">
        <ele>338.97</ele>
        <time>2017-03-26T15:04:39Z</time>
      </trkpt>
      <trkpt lat="45.17794" lon="5.21226">
        <ele>338.97</ele>
        <time>2017-03-26T15:04:40Z</time>
      </trkpt>
      <trkpt lat="45.17794" lon="5.21226">
        <ele>338.97</ele>
        <time>2017-03-26T15:04:41Z</time>
      </trkpt>
      <trkpt lat="45.17794" lon="5.21226">
        <ele>338.97</ele>
        <time>2017-03-26T15:04:42Z</time>
      </trkpt>
      <trkpt lat="45.17794" lon="5.21226">
        <ele>338.97</ele>
        <time>2017-03-26T15:04:43Z</time>
      </trkpt>
      <trkpt lat="45.17794" lon="5.21226">
        <ele>338.97</ele>
        <time>2017-03-26T15:04:44Z</time>
      </trkpt>
      <trkpt lat="45.17794" lon="5.21226">
        <ele>338.97</ele>
        <time>2017-03-26T15:04:45Z</time>
      </trkpt>
      <trkpt lat="45.17794" lon="5.21226">
        <ele>338.97</ele>
        <time>2017-03-26T15:04:46Z</time>
      </trkpt>
      <trkpt lat="45.17794" lon="5.21226">
        <ele>338.97</ele>
        <time>2017-03-26T15:04:47Z</time>
      </trkpt>
      <trkpt lat="45.17794" lon="5.21226">
        <ele>338.97</ele>
        <time>2017-03-26T15:04:48Z</time>
      </trkpt>
      <trkpt lat="45.17794" lon="5.21226">
        <ele>338.97</ele>
        <time>2017-03-26T15:04:49Z</time>
      </trkpt>
      <trkpt lat="45.17794" lon="5.21226">
        <ele>338.97</ele>
        <time>2017-03-26T15:04:50Z</time>
      </trkpt>
      <trkpt lat="45.17794" lon="5.21226">
        <ele>338.97</ele>
        <time>2017-03-26T15:04:51Z</time>
      </trkpt>
      <trkpt lat="45.17794" lon="5.21226">
        <ele>338.97</ele>
        <time>2017-03-26T15:04:52Z</time>
      </trkpt>
      <trkpt lat="45.17794" lon="5.21226">
        <ele>338.97</ele>
        <time>2017-03-26T15:04:53Z</time>
      </trkpt>
      <trkpt lat="45.17794" lon="5.21226">
        <ele>338.97</ele>
        <time>2017-03-26T15:04:54Z</time>
      </trkpt>
      <trkpt lat="45.17794" lon="5.21226">
        <ele>338.97</ele>
        <time>2017-03-26T15:04:55Z</time>
      </trkpt>
      <trkpt lat="45.17794" lon="5.21226">
        <ele>338.97</ele>
        <time>2017-03-26T15:04:56Z</time>
      </trkpt>
      <trkpt lat="45.17794" lon="5.21226">
        <ele>338.97</ele>
        <time>2017-03-26T15:04:57Z</time>
      </trkpt>
      <trkpt lat="45.17794" lon="5.21226">
        <ele>338.97</ele>
        <time>2017-03-26T15:04:58Z</time>
      </trkpt>
      <trkpt lat="45.17794" lon="5.21226">
        <ele>338.97</ele>
        <time>2017-03-26T15:04:59Z</time>
      </trkpt>
      <trkpt lat="45.17794" lon="5.21226">
        <ele>338.97</ele>
        <time>2017-03-26T15:05:00Z</time>
      </trkpt>
      <trkpt lat="45.17794" lon="5.21226">
        <ele>338.97</ele>
        <time>2017-03-26T15:05:01Z</time>
      </trkpt>
      <trkpt lat="45.17794" lon="5.21226">
        <ele>338.97</ele>
        <time>2017-03-26T15:05:02Z</time>
      </trkpt>
      <trkpt lat="45.17794" lon="5.21226">
        <ele>338.97</ele>
        <time>2017-03-26T15:05:03Z</time>
      </trkpt>
      <trkpt lat="45.17794" lon="5.21226">
        <ele>338.97</ele>
        <time>2017-03-26T15:05:04Z</time>
      </trkpt>
      <trkpt lat="45.17794" lon="5.21226">
        <ele>338.97</ele>
        <time>2017-03-26T15:05:05Z</time>
      </trkpt>
      <trkpt lat="45.17794" lon="5.21226">
        <ele>338.97</ele>
        <time>2017-03-26T15:05:06Z</time>
      </trkpt>
      <trkpt lat="45.17794" lon="5.21226">
        <ele>338.97</ele>
        <time>2017-03-26T15:05:07Z</time>
      </trkpt>
      <trkpt lat="45.17794" lon="5.21226">
        <ele>338.97</ele>
        <time>2017-03-26T15:05:08Z</time>
      </trkpt>
      <trkpt lat="45.17794" lon="5.21226">
        <ele>338.97</ele>
        <time>2017-03-26T15:05:09Z</time>
      </trkpt>
      <trkpt lat="45.17794" lon="5.21226">
        <ele>338.97</ele>
        <time>2017-03-26T15:05:10Z</time>
      </trkpt>
      <trkpt lat="45.17794" lon="5.21226">
        <ele>338.97</ele>
        <time>2017-03-26T15:05:11Z</time>
      </trkpt>
      <trkpt lat="45.17794" lon="5.21226">
        <ele>338.97</ele>
        <time>2017-03-26T15:05:12Z</time>
      </trkpt>
      <trkpt lat="45.17794" lon="5.21226">
        <ele>338.97</ele>
        <time>2017-03-26T15:05:13Z</time>
      </trkpt>
      <trkpt lat="45.17794" lon="5.21226">
        <ele>338.97</ele>
        <time>2017-03-26T15:05:14Z</time>
      </trkpt>
      <trkpt lat="45.17794" lon="5.21226">
        <ele>338.97</ele>
        <time>2017-03-26T15:05:15Z</time>
      </trkpt>
      <trkpt lat="45.17794" lon="5.21226">
        <ele>338.97</ele>
        <time>2017-03-26T15:05:16Z</time>
      </trkpt>
      <trkpt lat="45.17794" lon="5.21226">
        <ele>338.97</ele>
        <time>2017-03-26T15:05:17Z</time>
      </trkpt>
      <trkpt lat="45.17794" lon="5.21226">
        <ele>338.97</ele>
        <time>2017-03-26T15:05:18Z</time>
      </trkpt>
      <trkpt lat="45.17794" lon="5.21226">
        <ele>338.97</ele>
        <time>2017-03-26T15:05:19Z</time>
      </trkpt>
      <trkpt lat="45.17794" lon="5.21226">
        <ele>338.97</ele>
        <time>2017-03-26T15:05:20Z</time>
      </trkpt>
      <trkpt lat="45.17794" lon="5.21226">
        <ele>338.97</ele>
        <time>2017-03-26T15:05:21Z</time>
      </trkpt>
      <trkpt lat="45.17794" lon="5.21226">
        <ele>338.97</ele>
        <time>2017-03-26T15:05:22Z</time>
      </trkpt>
      <trkpt lat="45.17794" lon="5.21226">
        <ele>338.97</ele>
        <time>2017-03-26T15:05:23Z</time>
      </trkpt>
      <trkpt lat="45.17794" lon="5.21226">
        <ele>338.97</ele>
        <time>2017-03-26T15:05:24Z</time>
      </trkpt>
      <trkpt lat="45.17794" lon="5.21226">
        <ele>338.97</ele>
        <time>2017-03-26T15:05:25Z</time>
      </trkpt>
      <trkpt lat="45.17794" lon="5.21226">
        <ele>338.97</ele>
        <time>2017-03-26T15:05:26Z</time>
      </trkpt>
      <trkpt lat="45.17794" lon="5.21226">
        <ele>338.97</ele>
        <time>2017-03-26T15:05:27Z</time>
      </trkpt>
      <trkpt lat="45.17794" lon="5.21226">
        <ele>338.97</ele>
        <time>2017-03-26T15:05:28Z</time>
      </trkpt>
      <trkpt lat="45.17794" lon="5.21226">
        <ele>338.97</ele>
        <time>2017-03-26T15:05:29Z</time>
      </trkpt>
      <trkpt lat="45.17794" lon="5.21226">
        <ele>338.97</ele>
        <time>2017-03-26T15:05:30Z</time>
      </trkpt>
      <trkpt lat="45.17794" lon="5.21226">
        <ele>338.97</ele>
        <time>2017-03-26T15:05:31Z</time>
      </trkpt>
      <trkpt lat="45.17787" lon="5.21225">
        <ele>340.81</ele>
        <time>2017-03-26T15:05:32Z</time>
      </trkpt>
      <trkpt lat="45.17784" lon="5.21226">
        <ele>341.26</ele>
        <time>2017-03-26T15:05:33Z</time>
      </trkpt>
      <trkpt lat="45.17781" lon="5.21227">
        <ele>341.51</ele>
        <time>2017-03-26T15:05:34Z</time>
      </trkpt>
      <trkpt lat="45.17778" lon="5.21228">
        <ele>341.72</ele>
        <time>2017-03-26T15:05:35Z</time>
      </trkpt>
      <trkpt lat="45.17774" lon="5.2123">
        <ele>341.84</ele>
        <time>2017-03-26T15:05:36Z</time>
      </trkpt>
      <trkpt lat="45.1777" lon="5.21232">
        <ele>342.02</ele>
        <time>2017-03-26T15:05:37Z</time>
      </trkpt>
      <trkpt lat="45.17766" lon="5.21234">
        <ele>342.14</ele>
        <time>2017-03-26T15:05:38Z</time>
      </trkpt>
      <trkpt lat="45.17762" lon="5.21237">
        <ele>342.24</ele>
        <time>2017-03-26T15:05:39Z</time>
      </trkpt>
      <trkpt lat="45.17759" lon="5.21239">
        <ele>342.34</ele>
        <time>2017-03-26T15:05:40Z</time>
      </trkpt>
      <trkpt lat="45.17754" lon="5.21242">
        <ele>342.44</ele>
        <time>2017-03-26T15:05:41Z</time>
      </trkpt>
      <trkpt lat="45.1775" lon="5.21245">
        <ele>342.54</ele>
        <time>2017-03-26T15:05:42Z</time>
      </trkpt>
      <trkpt lat="45.17747" lon="5.21248">
        <ele>342.64</ele>
        <time>2017-03-26T15:05:43Z</time>
      </trkpt>
      <trkpt lat="45.17743" lon="5.21252">
        <ele>342.74</ele>
        <time>2017-03-26T15:05:44Z</time>
      </trkpt>
      <trkpt lat="45.1774" lon="5.21255">
        <ele>342.84</ele>
        <time>2017-03-26T15:05:45Z</time>
      </trkpt>
      <trkpt lat="45.17738" lon="5.21256">
        <ele>342.94</ele>
        <time>2017-03-26T15:05:46Z</time>
      </trkpt>
      <trkpt lat="45.17736" lon="5.21256">
        <ele>342.96</ele>
        <time>2017-03-26T15:05:47Z</time>
      </trkpt>
      <trkpt lat="45.17734" lon="5.21256">
        <ele>342.97</ele>
        <time>2017-03-26T15:05:48Z</time>
      </trkpt>
      <trkpt lat="45.17732" lon="5.21257">
        <ele>342.81</ele>
        <time>2017-03-26T15:05:49Z</time>
      </trkpt>
      <trkpt lat="45.17732" lon="5.21256">
        <ele>342.7</ele>
        <time>2017-03-26T15:05:50Z</time>
      </trkpt>
      <trkpt lat="45.17732" lon="5.21256">
        <ele>342.67</ele>
        <time>2017-03-26T15:05:51Z</time>
      </trkpt>
      <trkpt lat="45.17732" lon="5.21256">
        <ele>342.67</ele>
        <time>2017-03-26T15:05:52Z</time>
      </trkpt>
      <trkpt lat="45.17732" lon="5.21256">
        <ele>342.67</ele>
        <time>2017-03-26T15:05:53Z</time>
      </trkpt>
      <trkpt lat="45.17732" lon="5.21256">
        <ele>342.67</ele>
        <time>2017-03-26T15:05:54Z</time>
      </trkpt>
      <trkpt lat="45.17732" lon="5.21256">
        <ele>342.67</ele>
        <time>2017-03-26T15:05:55Z</time>
      </trkpt>
      <trkpt lat="45.17732" lon="5.21256">
        <ele>342.67</ele>
        <time>2017-03-26T15:05:56Z</time>
      </trkpt>
      <trkpt lat="45.17732" lon="5.21256">
        <ele>342.67</ele>
        <time>2017-03-26T15:05:57Z</time>
      </trkpt>
      <trkpt lat="45.17732" lon="5.21256">
        <ele>342.67</ele>
        <time>2017-03-26T15:05:58Z</time>
      </trkpt>
      <trkpt lat="45.17732" lon="5.21256">
        <ele>342.67</ele>
        <time>2017-03-26T15:05:59Z</time>
      </trkpt>
      <trkpt lat="45.17732" lon="5.21256">
        <ele>342.67</ele>
        <time>2017-03-26T15:06:00Z</time>
      </trkpt>
      <trkpt lat="45.17732" lon="5.21256">
        <ele>342.67</ele>
        <time>2017-03-26T15:06:01Z</time>
      </trkpt>
      <trkpt lat="45.17732" lon="5.21256">
        <ele>342.67</ele>
        <time>2017-03-26T15:06:02Z</time>
      </trkpt>
      <trkpt lat="45.17732" lon="5.21256">
        <ele>342.67</ele>
        <time>2017-03-26T15:06:03Z</time>
      </trkpt>
      <trkpt lat="45.17732" lon="5.21256">
        <ele>342.67</ele>
        <time>2017-03-26T15:06:04Z</time>
      </trkpt>
      <trkpt lat="45.17732" lon="5.21256">
        <ele>342.67</ele>
        <time>2017-03-26T15:06:05Z</time>
      </trkpt>
      <trkpt lat="45.17732" lon="5.21256">
        <ele>342.67</ele>
        <time>2017-03-26T15:06:06Z</time>
      </trkpt>
      <trkpt lat="45.17732" lon="5.21256">
        <ele>342.67</ele>
        <time>2017-03-26T15:06:07Z</time>
      </trkpt>
      <trkpt lat="45.17732" lon="5.21256">
        <ele>342.67</ele>
        <time>2017-03-26T15:06:08Z</time>
      </trkpt>
      <trkpt lat="45.17732" lon="5.21256">
        <ele>342.67</ele>
        <time>2017-03-26T15:06:09Z</time>
      </trkpt>
      <trkpt lat="45.17732" lon="5.21256">
        <ele>342.67</ele>
        <time>2017-03-26T15:06:10Z</time>
      </trkpt>
      <trkpt lat="45.17732" lon="5.21256">
        <ele>342.67</ele>
        <time>2017-03-26T15:06:11Z</time>
      </trkpt>
      <trkpt lat="45.17732" lon="5.21256">
        <ele>342.67</ele>
        <time>2017-03-26T15:06:12Z</time>
      </trkpt>
      <trkpt lat="45.17732" lon="5.21256">
        <ele>342.67</ele>
        <time>2017-03-26T15:06:13Z</time>
      </trkpt>
      <trkpt lat="45.17732" lon="5.21256">
        <ele>342.67</ele>
        <time>2017-03-26T15:06:14Z</time>
      </trkpt>
      <trkpt lat="45.17732" lon="5.21256">
        <ele>342.67</ele>
        <time>2017-03-26T15:06:15Z</time>
      </trkpt>
      <trkpt lat="45.17732" lon="5.21256">
        <ele>342.67</ele>
        <time>2017-03-26T15:06:16Z</time>
      </trkpt>
      <trkpt lat="45.17732" lon="5.21256">
        <ele>342.67</ele>
        <time>2017-03-26T15:06:17Z</time>
      </trkpt>
      <trkpt lat="45.17732" lon="5.21256">
        <ele>342.67</ele>
        <time>2017-03-26T15:06:18Z</time>
      </trkpt>
      <trkpt lat="45.17732" lon="5.21256">
        <ele>342.67</ele>
        <time>2017-03-26T15:06:19Z</time>
      </trkpt>
      <trkpt lat="45.17732" lon="5.21256">
        <ele>342.67</ele>
        <time>2017-03-26T15:06:20Z</time>
      </trkpt>
      <trkpt lat="45.17732" lon="5.21256">
        <ele>342.67</ele>
        <time>2017-03-26T15:06:21Z</time>
      </trkpt>
      <trkpt lat="45.17732" lon="5.21256">
        <ele>342.67</ele>
        <time>2017-03-26T15:06:22Z</time>
      </trkpt>
      <trkpt lat="45.17732" lon="5.21256">
        <ele>342.67</ele>
        <time>2017-03-26T15:06:23Z</time>
      </trkpt>
      <trkpt lat="45.17732" lon="5.21256">
        <ele>342.67</ele>
        <time>2017-03-26T15:06:24Z</time>
      </trkpt>
      <trkpt lat="45.17732" lon="5.21256">
        <ele>342.67</ele>
        <time>2017-03-26T15:06:25Z</time>
      </trkpt>
      <trkpt lat="45.17732" lon="5.21256">
        <ele>342.67</ele>
        <time>2017-03-26T15:06:26Z</time>
      </trkpt>
      <trkpt lat="45.17732" lon="5.21256">
        <ele>342.67</ele>
        <time>2017-03-26T15:06:27Z</time>
      </trkpt>
      <trkpt lat="45.17732" lon="5.21256">
        <ele>342.67</ele>
        <time>2017-03-26T15:06:28Z</time>
      </trkpt>
      <trkpt lat="45.17732" lon="5.21256">
        <ele>342.67</ele>
        <time>2017-03-26T15:06:29Z</time>
      </trkpt>
      <trkpt lat="45.17732" lon="5.21256">
        <ele>342.67</ele>
        <time>2017-03-26T15:06:30Z</time>
      </trkpt>
      <trkpt lat="45.17732" lon="5.21256">
        <ele>342.67</ele>
        <time>2017-03-26T15:06:31Z</time>
      </trkpt>
      <trkpt lat="45.17732" lon="5.21256">
        <ele>342.67</ele>
        <time>2017-03-26T15:06:32Z</time>
      </trkpt>
      <trkpt lat="45.17732" lon="5.21256">
        <ele>342.67</ele>
        <time>2017-03-26T15:06:33Z</time>
      </trkpt>
      <trkpt lat="45.17732" lon="5.21256">
        <ele>342.67</ele>
        <time>2017-03-26T15:06:34Z</time>
      </trkpt>
      <trkpt lat="45.17732" lon="5.21256">
        <ele>342.67</ele>
        <time>2017-03-26T15:06:35Z</time>
      </trkpt>
      <trkpt lat="45.17732" lon="5.21256">
        <ele>342.67</ele>
        <time>2017-03-26T15:06:36Z</time>
      </trkpt>
      <trkpt lat="45.17732" lon="5.21256">
        <ele>342.67</ele>
        <time>2017-03-26T15:06:37Z</time>
      </trkpt>
      <trkpt lat="45.17732" lon="5.21256">
        <ele>342.67</ele>
        <time>2017-03-26T15:06:38Z</time>
      </trkpt>
      <trkpt lat="45.17732" lon="5.21256">
        <ele>342.67</ele>
        <time>2017-03-26T15:06:39Z</time>
      </trkpt>
      <trkpt lat="45.17732" lon="5.21256">
        <ele>342.67</ele>
        <time>2017-03-26T15:06:40Z</time>
      </trkpt>
      <trkpt lat="45.17732" lon="5.21256">
        <ele>342.67</ele>
        <time>2017-03-26T15:06:41Z</time>
      </trkpt>
      <trkpt lat="45.17732" lon="5.21256">
        <ele>342.67</ele>
        <time>2017-03-26T15:06:42Z</time>
      </trkpt>
      <trkpt lat="45.17732" lon="5.21256">
        <ele>342.67</ele>
        <time>2017-03-26T15:06:43Z</time>
      </trkpt>
      <trkpt lat="45.17732" lon="5.21256">
        <ele>342.67</ele>
        <time>2017-03-26T15:06:44Z</time>
      </trkpt>
      <trkpt lat="45.17732" lon="5.21256">
        <ele>342.67</ele>
        <time>2017-03-26T15:06:45Z</time>
      </trkpt>
      <trkpt lat="45.17732" lon="5.21256">
        <ele>342.67</ele>
        <time>2017-03-26T15:06:46Z</time>
      </trkpt>
      <trkpt lat="45.17732" lon="5.21256">
        <ele>342.67</ele>
        <time>2017-03-26T15:06:47Z</time>
      </trkpt>
      <trkpt lat="45.17732" lon="5.21256">
        <ele>342.67</ele>
        <time>2017-03-26T15:06:48Z</time>
      </trkpt>
      <trkpt lat="45.17732" lon="5.21256">
        <ele>342.67</ele>
        <time>2017-03-26T15:06:49Z</time>
      </trkpt>
      <trkpt lat="45.17732" lon="5.21256">
        <ele>342.67</ele>
        <time>2017-03-26T15:06:50Z</time>
      </trkpt>
      <trkpt lat="45.17732" lon="5.21256">
        <ele>342.67</ele>
        <time>2017-03-26T15:06:51Z</time>
      </trkpt>
      <trkpt lat="45.17732" lon="5.21256">
        <ele>342.67</ele>
        <time>2017-03-26T15:06:52Z</time>
      </trkpt>
      <trkpt lat="45.17732" lon="5.21256">
        <ele>342.67</ele>
        <time>2017-03-26T15:06:53Z</time>
      </trkpt>
      <trkpt lat="45.17732" lon="5.21256">
        <ele>342.67</ele>
        <time>2017-03-26T15:06:54Z</time>
      </trkpt>
      <trkpt lat="45.17732" lon="5.21256">
        <ele>342.67</ele>
        <time>2017-03-26T15:06:55Z</time>
      </trkpt>
      <trkpt lat="45.17732" lon="5.21256">
        <ele>342.67</ele>
        <time>2017-03-26T15:06:56Z</time>
      </trkpt>
      <trkpt lat="45.17732" lon="5.21256">
        <ele>342.67</ele>
        <time>2017-03-26T15:06:57Z</time>
      </trkpt>
      <trkpt lat="45.17732" lon="5.21256">
        <ele>342.67</ele>
        <time>2017-03-26T15:06:58Z</time>
      </trkpt>
      <trkpt lat="45.17732" lon="5.21256">
        <ele>342.67</ele>
        <time>2017-03-26T15:06:59Z</time>
      </trkpt>
      <trkpt lat="45.17732" lon="5.21256">
        <ele>342.67</ele>
        <time>2017-03-26T15:07:00Z</time>
      </trkpt>
      <trkpt lat="45.17732" lon="5.21256">
        <ele>342.67</ele>
        <time>2017-03-26T15:07:01Z</time>
      </trkpt>
      <trkpt lat="45.17732" lon="5.21256">
        <ele>342.67</ele>
        <time>2017-03-26T15:07:02Z</time>
      </trkpt>
      <trkpt lat="45.17732" lon="5.21256">
        <ele>342.67</ele>
        <time>2017-03-26T15:07:03Z</time>
      </trkpt>
      <trkpt lat="45.17732" lon="5.21256">
        <ele>342.67</ele>
        <time>2017-03-26T15:07:04Z</time>
      </trkpt>
      <trkpt lat="45.17732" lon="5.21256">
        <ele>342.67</ele>
        <time>2017-03-26T15:07:05Z</time>
      </trkpt>
      <trkpt lat="45.17732" lon="5.21256">
        <ele>342.67</ele>
        <time>2017-03-26T15:07:06Z</time>
      </trkpt>
      <trkpt lat="45.17732" lon="5.21256">
        <ele>342.67</ele>
        <time>2017-03-26T15:07:07Z</time>
      </trkpt>
      <trkpt lat="45.17732" lon="5.21256">
        <ele>342.67</ele>
        <time>2017-03-26T15:07:08Z</time>
      </trkpt>
      <trkpt lat="45.17732" lon="5.21256">
        <ele>342.67</ele>
        <time>2017-03-26T15:07:09Z</time>
      </trkpt>
      <trkpt lat="45.17732" lon="5.21256">
        <ele>342.67</ele>
        <time>2017-03-26T15:07:10Z</time>
      </trkpt>
      <trkpt lat="45.17732" lon="5.21256">
        <ele>342.67</ele>
        <time>2017-03-26T15:07:11Z</time>
      </trkpt>
      <trkpt lat="45.17732" lon="5.21256">
        <ele>342.67</ele>
        <time>2017-03-26T15:07:12Z</time>
      </trkpt>
      <trkpt lat="45.17732" lon="5.21256">
        <ele>342.67</ele>
        <time>2017-03-26T15:07:13Z</time>
      </trkpt>
      <trkpt lat="45.17732" lon="5.21256">
        <ele>342.67</ele>
        <time>2017-03-26T15:07:14Z</time>
      </trkpt>
      <trkpt lat="45.17732" lon="5.21256">
        <ele>342.67</ele>
        <time>2017-03-26T15:07:15Z</time>
      </trkpt>
      <trkpt lat="45.17732" lon="5.21256">
        <ele>342.67</ele>
        <time>2017-03-26T15:07:16Z</time>
      </trkpt>
      <trkpt lat="45.17732" lon="5.21256">
        <ele>342.67</ele>
        <time>2017-03-26T15:07:17Z</time>
      </trkpt>
      <trkpt lat="45.17732" lon="5.21256">
        <ele>342.67</ele>
        <time>2017-03-26T15:07:18Z</time>
      </trkpt>
      <trkpt lat="45.17732" lon="5.21256">
        <ele>342.67</ele>
        <time>2017-03-26T15:07:19Z</time>
      </trkpt>
      <trkpt lat="45.17732" lon="5.21256">
        <ele>342.67</ele>
        <time>2017-03-26T15:07:20Z</time>
      </trkpt>
      <trkpt lat="45.17732" lon="5.21256">
        <ele>342.67</ele>
        <time>2017-03-26T15:07:21Z</time>
      </trkpt>
      <trkpt lat="45.17732" lon="5.21256">
        <ele>342.67</ele>
        <time>2017-03-26T15:07:22Z</time>
      </trkpt>
      <trkpt lat="45.17732" lon="5.21256">
        <ele>342.67</ele>
        <time>2017-03-26T15:07:23Z</time>
      </trkpt>
      <trkpt lat="45.17732" lon="5.21256">
        <ele>342.67</ele>
        <time>2017-03-26T15:07:24Z</time>
      </trkpt>
      <trkpt lat="45.17732" lon="5.21256">
        <ele>342.67</ele>
        <time>2017-03-26T15:07:25Z</time>
      </trkpt>
      <trkpt lat="45.17732" lon="5.21256">
        <ele>342.67</ele>
        <time>2017-03-26T15:07:26Z</time>
      </trkpt>
      <trkpt lat="45.17732" lon="5.21256">
        <ele>342.67</ele>
        <time>2017-03-26T15:07:27Z</time>
      </trkpt>
      <trkpt lat="45.17732" lon="5.21256">
        <ele>342.67</ele>
        <time>2017-03-26T15:07:28Z</time>
      </trkpt>
      <trkpt lat="45.17732" lon="5.21256">
        <ele>342.67</ele>
        <time>2017-03-26T15:07:29Z</time>
      </trkpt>
      <trkpt lat="45.17732" lon="5.21256">
        <ele>342.67</ele>
        <time>2017-03-26T15:07:30Z</time>
      </trkpt>
      <trkpt lat="45.17732" lon="5.21256">
        <ele>342.67</ele>
        <time>2017-03-26T15:07:31Z</time>
      </trkpt>
      <trkpt lat="45.17732" lon="5.21256">
        <ele>342.67</ele>
        <time>2017-03-26T15:07:32Z</time>
      </trkpt>
      <trkpt lat="45.17732" lon="5.21256">
        <ele>342.67</ele>
        <time>2017-03-26T15:07:33Z</time>
      </trkpt>
      <trkpt lat="45.17732" lon="5.21256">
        <ele>342.67</ele>
        <time>2017-03-26T15:07:34Z</time>
      </trkpt>
      <trkpt lat="45.17727" lon="5.21259">
        <ele>341.95</ele>
        <time>2017-03-26T15:07:35Z</time>
      </trkpt>
      <trkpt lat="45.17725" lon="5.21261">
        <ele>341.64</ele>
        <time>2017-03-26T15:07:36Z</time>
      </trkpt>
      <trkpt lat="45.17723" lon="5.21262">
        <ele>341.5</ele>
        <time>2017-03-26T15:07:37Z</time>
      </trkpt>
      <trkpt lat="45.1772" lon="5.21264">
        <ele>341.32</ele>
        <time>2017-03-26T15:07:38Z</time>
      </trkpt>
      <trkpt lat="45.17718" lon="5.21265">
        <ele>341.04</ele>
        <time>2017-03-26T15:07:39Z</time>
      </trkpt>
      <trkpt lat="45.17715" lon="5.21267">
        <ele>340.82</ele>
        <time>2017-03-26T15:07:40Z</time>
      </trkpt>
      <trkpt lat="45.17713" lon="5.21268">
        <ele>340.62</ele>
        <time>2017-03-26T15:07:41Z</time>
      </trkpt>
      <trkpt lat="45.17712" lon="5.2127">
        <ele>340.42</ele>
        <time>2017-03-26T15:07:42Z</time>
      </trkpt>
      <trkpt lat="45.1771" lon="5.21271">
        <ele>340.14</ele>
        <time>2017-03-26T15:07:43Z</time>
      </trkpt>
      <trkpt lat="45.1771" lon="5.21271">
        <ele>339.84</ele>
        <time>2017-03-26T15:07:44Z</time>
      </trkpt>
      <trkpt lat="45.17709" lon="5.21271">
        <ele>339.3</ele>
        <time>2017-03-26T15:07:45Z</time>
      </trkpt>
      <trkpt lat="45.17709" lon="5.21271">
        <ele>339.51</ele>
        <time>2017-03-26T15:07:46Z</time>
      </trkpt>
      <trkpt lat="45.17709" lon="5.21271">
        <ele>339.56</ele>
        <time>2017-03-26T15:07:47Z</time>
      </trkpt>
      <trkpt lat="45.17709" lon="5.21271">
        <ele>339.57</ele>
        <time>2017-03-26T15:07:48Z</time>
      </trkpt>
      <trkpt lat="45.17709" lon="5.21271">
        <ele>339.57</ele>
        <time>2017-03-26T15:07:49Z</time>
      </trkpt>
      <trkpt lat="45.17709" lon="5.21271">
        <ele>339.57</ele>
        <time>2017-03-26T15:07:50Z</time>
      </trkpt>
      <trkpt lat="45.17709" lon="5.21271">
        <ele>339.57</ele>
        <time>2017-03-26T15:07:51Z</time>
      </trkpt>
      <trkpt lat="45.17709" lon="5.21271">
        <ele>339.57</ele>
        <time>2017-03-26T15:07:52Z</time>
      </trkpt>
      <trkpt lat="45.17709" lon="5.21271">
        <ele>339.57</ele>
        <time>2017-03-26T15:07:53Z</time>
      </trkpt>
      <trkpt lat="45.17709" lon="5.21271">
        <ele>339.57</ele>
        <time>2017-03-26T15:07:54Z</time>
      </trkpt>
      <trkpt lat="45.17709" lon="5.21271">
        <ele>339.57</ele>
        <time>2017-03-26T15:07:55Z</time>
      </trkpt>
      <trkpt lat="45.17709" lon="5.21271">
        <ele>339.57</ele>
        <time>2017-03-26T15:07:56Z</time>
      </trkpt>
      <trkpt lat="45.17709" lon="5.21271">
        <ele>339.57</ele>
        <time>2017-03-26T15:07:57Z</time>
      </trkpt>
      <trkpt lat="45.17709" lon="5.21271">
        <ele>339.57</ele>
        <time>2017-03-26T15:07:58Z</time>
      </trkpt>
      <trkpt lat="45.17709" lon="5.21271">
        <ele>339.57</ele>
        <time>2017-03-26T15:07:59Z</time>
      </trkpt>
      <trkpt lat="45.17709" lon="5.21271">
        <ele>339.57</ele>
        <time>2017-03-26T15:08:00Z</time>
      </trkpt>
      <trkpt lat="45.17709" lon="5.21271">
        <ele>339.57</ele>
        <time>2017-03-26T15:08:01Z</time>
      </trkpt>
      <trkpt lat="45.17709" lon="5.21271">
        <ele>339.57</ele>
        <time>2017-03-26T15:08:02Z</time>
      </trkpt>
      <trkpt lat="45.17709" lon="5.21271">
        <ele>339.57</ele>
        <time>2017-03-26T15:08:03Z</time>
      </trkpt>
      <trkpt lat="45.17709" lon="5.21271">
        <ele>339.57</ele>
        <time>2017-03-26T15:08:04Z</time>
      </trkpt>
      <trkpt lat="45.17709" lon="5.21271">
        <ele>339.57</ele>
        <time>2017-03-26T15:08:05Z</time>
      </trkpt>
      <trkpt lat="45.17709" lon="5.21271">
        <ele>339.57</ele>
        <time>2017-03-26T15:08:06Z</time>
      </trkpt>
      <trkpt lat="45.17709" lon="5.21271">
        <ele>339.57</ele>
        <time>2017-03-26T15:08:07Z</time>
      </trkpt>
      <trkpt lat="45.17709" lon="5.21271">
        <ele>339.57</ele>
        <time>2017-03-26T15:08:08Z</time>
      </trkpt>
      <trkpt lat="45.17709" lon="5.21271">
        <ele>339.57</ele>
        <time>2017-03-26T15:08:09Z</time>
      </trkpt>
      <trkpt lat="45.17709" lon="5.21271">
        <ele>339.57</ele>
        <time>2017-03-26T15:08:10Z</time>
      </trkpt>
      <trkpt lat="45.17709" lon="5.21271">
        <ele>339.57</ele>
        <time>2017-03-26T15:08:11Z</time>
      </trkpt>
      <trkpt lat="45.17709" lon="5.21271">
        <ele>339.57</ele>
        <time>2017-03-26T15:08:12Z</time>
      </trkpt>
      <trkpt lat="45.17709" lon="5.21271">
        <ele>339.57</ele>
        <time>2017-03-26T15:08:13Z</time>
      </trkpt>
      <trkpt lat="45.17705" lon="5.21275">
        <ele>339.73</ele>
        <time>2017-03-26T15:08:14Z</time>
      </trkpt>
      <trkpt lat="45.17703" lon="5.21276">
        <ele>339.76</ele>
        <time>2017-03-26T15:08:15Z</time>
      </trkpt>
      <trkpt lat="45.17702" lon="5.21277">
        <ele>339.77</ele>
        <time>2017-03-26T15:08:16Z</time>
      </trkpt>
      <trkpt lat="45.177" lon="5.21279">
        <ele>339.77</ele>
        <time>2017-03-26T15:08:17Z</time>
      </trkpt>
      <trkpt lat="45.17697" lon="5.21281">
        <ele>339.77</ele>
        <time>2017-03-26T15:08:18Z</time>
      </trkpt>
      <trkpt lat="45.17694" lon="5.21284">
        <ele>339.85</ele>
        <time>2017-03-26T15:08:19Z</time>
      </trkpt>
      <trkpt lat="45.17691" lon="5.21287">
        <ele>339.86</ele>
        <time>2017-03-26T15:08:20Z</time>
      </trkpt>
      <trkpt lat="45.17687" lon="5.2129">
        <ele>339.87</ele>
        <time>2017-03-26T15:08:21Z</time>
      </trkpt>
      <trkpt lat="45.17683" lon="5.21294">
        <ele>339.95</ele>
        <time>2017-03-26T15:08:22Z</time>
      </trkpt>
      <trkpt lat="45.17679" lon="5.21298">
        <ele>339.96</ele>
        <time>2017-03-26T15:08:23Z</time>
      </trkpt>
      <trkpt lat="45.17672" lon="5.21302">
        <ele>339.89</ele>
        <time>2017-03-26T15:08:24Z</time>
      </trkpt>
      <trkpt lat="45.17665" lon="5.21307">
        <ele>339.71</ele>
        <time>2017-03-26T15:08:25Z</time>
      </trkpt>
      <trkpt lat="45.17658" lon="5.21312">
        <ele>339.52</ele>
        <time>2017-03-26T15:08:26Z</time>
      </trkpt>
      <trkpt lat="45.17652" lon="5.21317">
        <ele>339.32</ele>
        <time>2017-03-26T15:08:27Z</time>
      </trkpt>
      <trkpt lat="45.17646" lon="5.21321">
        <ele>339.12</ele>
        <time>2017-03-26T15:08:28Z</time>
      </trkpt>
      <trkpt lat="45.1764" lon="5.21325">
        <ele>338.92</ele>
        <time>2017-03-26T15:08:29Z</time>
      </trkpt>
      <trkpt lat="45.17634" lon="5.2133">
        <ele>338.8</ele>
        <time>2017-03-26T15:08:30Z</time>
      </trkpt>
      <trkpt lat="45.17628" lon="5.21335">
        <ele>338.61</ele>
        <time>2017-03-26T15:08:31Z</time>
      </trkpt>
      <trkpt lat="45.17622" lon="5.2134">
        <ele>338.5</ele>
        <time>2017-03-26T15:08:32Z</time>
      </trkpt>
      <trkpt lat="45.17617" lon="5.21346">
        <ele>338.31</ele>
        <time>2017-03-26T15:08:33Z</time>
      </trkpt>
      <trkpt lat="45.17609" lon="5.21351">
        <ele>337.96</ele>
        <time>2017-03-26T15:08:34Z</time>
      </trkpt>
      <trkpt lat="45.17603" lon="5.21354">
        <ele>337.49</ele>
        <time>2017-03-26T15:08:35Z</time>
      </trkpt>
      <trkpt lat="45.17597" lon="5.21358">
        <ele>337.15</ele>
        <time>2017-03-26T15:08:36Z</time>
      </trkpt>
      <trkpt lat="45.17594" lon="5.21361">
        <ele>336.76</ele>
        <time>2017-03-26T15:08:37Z</time>
      </trkpt>
      <trkpt lat="45.17591" lon="5.21364">
        <ele>336.45</ele>
        <time>2017-03-26T15:08:38Z</time>
      </trkpt>
      <trkpt lat="45.17587" lon="5.21365">
        <ele>335.98</ele>
        <time>2017-03-26T15:08:39Z</time>
      </trkpt>
      <trkpt lat="45.17585" lon="5.21367">
        <ele>335.65</ele>
        <time>2017-03-26T15:08:40Z</time>
      </trkpt>
      <trkpt lat="45.17582" lon="5.21369">
        <ele>335.42</ele>
        <time>2017-03-26T15:08:41Z</time>
      </trkpt>
      <trkpt lat="45.17579" lon="5.21371">
        <ele>335.14</ele>
        <time>2017-03-26T15:08:42Z</time>
      </trkpt>
      <trkpt lat="45.17576" lon="5.21373">
        <ele>334.76</ele>
        <time>2017-03-26T15:08:43Z</time>
      </trkpt>
      <trkpt lat="45.17573" lon="5.21375">
        <ele>334.45</ele>
        <time>2017-03-26T15:08:44Z</time>
      </trkpt>
      <trkpt lat="45.1757" lon="5.21377">
        <ele>334.06</ele>
        <time>2017-03-26T15:08:45Z</time>
      </trkpt>
      <trkpt lat="45.17567" lon="5.2138">
        <ele>333.67</ele>
        <time>2017-03-26T15:08:46Z</time>
      </trkpt>
      <trkpt lat="45.17564" lon="5.21382">
        <ele>333.35</ele>
        <time>2017-03-26T15:08:47Z</time>
      </trkpt>
      <trkpt lat="45.17561" lon="5.21384">
        <ele>332.96</ele>
        <time>2017-03-26T15:08:48Z</time>
      </trkpt>
      <trkpt lat="45.17557" lon="5.21386">
        <ele>332.65</ele>
        <time>2017-03-26T15:08:49Z</time>
      </trkpt>
      <trkpt lat="45.17553" lon="5.21388">
        <ele>332.34</ele>
        <time>2017-03-26T15:08:50Z</time>
      </trkpt>
      <trkpt lat="45.17549" lon="5.21389">
        <ele>332.04</ele>
        <time>2017-03-26T15:08:51Z</time>
      </trkpt>
      <trkpt lat="45.17545" lon="5.21391">
        <ele>331.74</ele>
        <time>2017-03-26T15:08:52Z</time>
      </trkpt>
      <trkpt lat="45.1754" lon="5.21392">
        <ele>331.44</ele>
        <time>2017-03-26T15:08:53Z</time>
      </trkpt>
      <trkpt lat="45.17535" lon="5.21393">
        <ele>331.06</ele>
        <time>2017-03-26T15:08:54Z</time>
      </trkpt>
      <trkpt lat="45.1753" lon="5.21394">
        <ele>330.75</ele>
        <time>2017-03-26T15:08:55Z</time>
      </trkpt>
      <trkpt lat="45.17524" lon="5.21395">
        <ele>330.36</ele>
        <time>2017-03-26T15:08:56Z</time>
      </trkpt>
      <trkpt lat="45.17517" lon="5.21397">
        <ele>329.97</ele>
        <time>2017-03-26T15:08:57Z</time>
      </trkpt>
      <trkpt lat="45.17511" lon="5.214">
        <ele>329.57</ele>
        <time>2017-03-26T15:08:58Z</time>
      </trkpt>
      <trkpt lat="45.17506" lon="5.21408">
        <ele>329.33</ele>
        <time>2017-03-26T15:08:59Z</time>
      </trkpt>
      <trkpt lat="45.175" lon="5.21415">
        <ele>329.12</ele>
        <time>2017-03-26T15:09:00Z</time>
      </trkpt>
      <trkpt lat="45.17491" lon="5.21424">
        <ele>328.76</ele>
        <time>2017-03-26T15:09:01Z</time>
      </trkpt>
      <trkpt lat="45.17482" lon="5.21433">
        <ele>328.45</ele>
        <time>2017-03-26T15:09:02Z</time>
      </trkpt>
      <trkpt lat="45.17472" lon="5.21442">
        <ele>328.06</ele>
        <time>2017-03-26T15:09:03Z</time>
      </trkpt>
      <trkpt lat="45.17463" lon="5.21453">
        <ele>327.67</ele>
        <time>2017-03-26T15:09:04Z</time>
      </trkpt>
      <trkpt lat="45.17453" lon="5.21463">
        <ele>327.27</ele>
        <time>2017-03-26T15:09:05Z</time>
      </trkpt>
      <trkpt lat="45.17444" lon="5.21473">
        <ele>326.87</ele>
        <time>2017-03-26T15:09:06Z</time>
      </trkpt>
      <trkpt lat="45.17435" lon="5.21482">
        <ele>326.47</ele>
        <time>2017-03-26T15:09:07Z</time>
      </trkpt>
      <trkpt lat="45.17428" lon="5.21492">
        <ele>326.15</ele>
        <time>2017-03-26T15:09:08Z</time>
      </trkpt>
      <trkpt lat="45.17424" lon="5.21501">
        <ele>325.76</ele>
        <time>2017-03-26T15:09:09Z</time>
      </trkpt>
      <trkpt lat="45.17422" lon="5.21509">
        <ele>325.29</ele>
        <time>2017-03-26T15:09:10Z</time>
      </trkpt>
      <trkpt lat="45.17423" lon="5.21518">
        <ele>324.95</ele>
        <time>2017-03-26T15:09:11Z</time>
      </trkpt>
      <trkpt lat="45.17426" lon="5.21525">
        <ele>324.56</ele>
        <time>2017-03-26T15:09:12Z</time>
      </trkpt>
      <trkpt lat="45.17429" lon="5.21532">
        <ele>324.25</ele>
        <time>2017-03-26T15:09:13Z</time>
      </trkpt>
      <trkpt lat="45.17432" lon="5.21539">
        <ele>323.86</ele>
        <time>2017-03-26T15:09:14Z</time>
      </trkpt>
      <trkpt lat="45.1744" lon="5.21543">
        <ele>323.47</ele>
        <time>2017-03-26T15:09:15Z</time>
      </trkpt>
      <trkpt lat="45.17456" lon="5.21543">
        <ele>323.15</ele>
        <time>2017-03-26T15:09:16Z</time>
      </trkpt>
      <trkpt lat="45.17467" lon="5.21544">
        <ele>322.84</ele>
        <time>2017-03-26T15:09:17Z</time>
      </trkpt>
      <trkpt lat="45.17476" lon="5.21544">
        <ele>322.46</ele>
        <time>2017-03-26T15:09:18Z</time>
      </trkpt>
      <trkpt lat="45.17483" lon="5.21543">
        <ele>321.99</ele>
        <time>2017-03-26T15:09:19Z</time>
      </trkpt>
      <trkpt lat="45.17489" lon="5.21543">
        <ele>321.49</ele>
        <time>2017-03-26T15:09:20Z</time>
      </trkpt>
      <trkpt lat="45.17492" lon="5.21542">
        <ele>320.91</ele>
        <time>2017-03-26T15:09:21Z</time>
      </trkpt>
      <trkpt lat="45.17494" lon="5.21543">
        <ele>320.24</ele>
        <time>2017-03-26T15:09:22Z</time>
      </trkpt>
      <trkpt lat="45.17496" lon="5.21544">
        <ele>319.62</ele>
        <time>2017-03-26T15:09:23Z</time>
      </trkpt>
      <trkpt lat="45.17497" lon="5.21545">
        <ele>319.1</ele>
        <time>2017-03-26T15:09:24Z</time>
      </trkpt>
      <trkpt lat="45.17497" lon="5.21547">
        <ele>318.67</ele>
        <time>2017-03-26T15:09:25Z</time>
      </trkpt>
      <trkpt lat="45.17497" lon="5.2155">
        <ele>318.11</ele>
        <time>2017-03-26T15:09:26Z</time>
      </trkpt>
      <trkpt lat="45.17499" lon="5.21553">
        <ele>317.68</ele>
        <time>2017-03-26T15:09:27Z</time>
      </trkpt>
      <trkpt lat="45.17501" lon="5.21557">
        <ele>317.27</ele>
        <time>2017-03-26T15:09:28Z</time>
      </trkpt>
      <trkpt lat="45.17504" lon="5.21561">
        <ele>316.87</ele>
        <time>2017-03-26T15:09:29Z</time>
      </trkpt>
      <trkpt lat="45.17507" lon="5.21567">
        <ele>316.55</ele>
        <time>2017-03-26T15:09:30Z</time>
      </trkpt>
      <trkpt lat="45.17511" lon="5.21572">
        <ele>316.24</ele>
        <time>2017-03-26T15:09:31Z</time>
      </trkpt>
      <trkpt lat="45.17514" lon="5.21577">
        <ele>315.86</ele>
        <time>2017-03-26T15:09:32Z</time>
      </trkpt>
      <trkpt lat="45.17519" lon="5.21583">
        <ele>315.55</ele>
        <time>2017-03-26T15:09:33Z</time>
      </trkpt>
      <trkpt lat="45.17523" lon="5.21589">
        <ele>315.16</ele>
        <time>2017-03-26T15:09:34Z</time>
      </trkpt>
      <trkpt lat="45.17524" lon="5.21594">
        <ele>314.93</ele>
        <time>2017-03-26T15:09:35Z</time>
      </trkpt>
      <trkpt lat="45.17525" lon="5.21599">
        <ele>314.64</ele>
        <time>2017-03-26T15:09:36Z</time>
      </trkpt>
      <trkpt lat="45.17525" lon="5.21606">
        <ele>314.34</ele>
        <time>2017-03-26T15:09:37Z</time>
      </trkpt>
      <trkpt lat="45.17523" lon="5.21613">
        <ele>314.04</ele>
        <time>2017-03-26T15:09:38Z</time>
      </trkpt>
      <trkpt lat="45.17521" lon="5.21621">
        <ele>313.74</ele>
        <time>2017-03-26T15:09:39Z</time>
      </trkpt>
      <trkpt lat="45.17515" lon="5.21628">
        <ele>313.12</ele>
        <time>2017-03-26T15:09:40Z</time>
      </trkpt>
      <trkpt lat="45.17512" lon="5.21637">
        <ele>312.68</ele>
        <time>2017-03-26T15:09:41Z</time>
      </trkpt>
      <trkpt lat="45.1751" lon="5.21646">
        <ele>312.35</ele>
        <time>2017-03-26T15:09:42Z</time>
      </trkpt>
      <trkpt lat="45.17508" lon="5.21656">
        <ele>311.96</ele>
        <time>2017-03-26T15:09:43Z</time>
      </trkpt>
      <trkpt lat="45.17507" lon="5.21665">
        <ele>311.65</ele>
        <time>2017-03-26T15:09:44Z</time>
      </trkpt>
      <trkpt lat="45.17506" lon="5.21674">
        <ele>311.26</ele>
        <time>2017-03-26T15:09:45Z</time>
      </trkpt>
      <trkpt lat="45.17505" lon="5.21681">
        <ele>310.95</ele>
        <time>2017-03-26T15:09:46Z</time>
      </trkpt>
      <trkpt lat="45.17506" lon="5.21688">
        <ele>310.64</ele>
        <time>2017-03-26T15:09:47Z</time>
      </trkpt>
      <trkpt lat="45.17507" lon="5.21693">
        <ele>310.18</ele>
        <time>2017-03-26T15:09:48Z</time>
      </trkpt>
      <trkpt lat="45.17506" lon="5.21698">
        <ele>309.85</ele>
        <time>2017-03-26T15:09:49Z</time>
      </trkpt>
      <trkpt lat="45.17506" lon="5.21703">
        <ele>309.54</ele>
        <time>2017-03-26T15:09:50Z</time>
      </trkpt>
      <trkpt lat="45.17505" lon="5.21708">
        <ele>309.16</ele>
        <time>2017-03-26T15:09:51Z</time>
      </trkpt>
      <trkpt lat="45.17504" lon="5.21714">
        <ele>308.93</ele>
        <time>2017-03-26T15:09:52Z</time>
      </trkpt>
      <trkpt lat="45.17503" lon="5.21721">
        <ele>308.64</ele>
        <time>2017-03-26T15:09:53Z</time>
      </trkpt>
      <trkpt lat="45.17501" lon="5.21728">
        <ele>308.34</ele>
        <time>2017-03-26T15:09:54Z</time>
      </trkpt>
      <trkpt lat="45.17499" lon="5.21734">
        <ele>308.04</ele>
        <time>2017-03-26T15:09:55Z</time>
      </trkpt>
      <trkpt lat="45.17498" lon="5.21739">
        <ele>307.74</ele>
        <time>2017-03-26T15:09:56Z</time>
      </trkpt>
      <trkpt lat="45.17498" lon="5.21744">
        <ele>307.36</ele>
        <time>2017-03-26T15:09:57Z</time>
      </trkpt>
      <trkpt lat="45.17497" lon="5.21748">
        <ele>307.05</ele>
        <time>2017-03-26T15:09:58Z</time>
      </trkpt>
      <trkpt lat="45.17497" lon="5.21752">
        <ele>306.74</ele>
        <time>2017-03-26T15:09:59Z</time>
      </trkpt>
      <trkpt lat="45.17497" lon="5.21754">
        <ele>306.52</ele>
        <time>2017-03-26T15:10:00Z</time>
      </trkpt>
      <trkpt lat="45.17498" lon="5.21756">
        <ele>306.24</ele>
        <time>2017-03-26T15:10:01Z</time>
      </trkpt>
      <trkpt lat="45.17498" lon="5.21757">
        <ele>305.94</ele>
        <time>2017-03-26T15:10:02Z</time>
      </trkpt>
      <trkpt lat="45.17498" lon="5.21758">
        <ele>305.64</ele>
        <time>2017-03-26T15:10:03Z</time>
      </trkpt>
      <trkpt lat="45.17498" lon="5.21758">
        <ele>305.34</ele>
        <time>2017-03-26T15:10:04Z</time>
      </trkpt>
      <trkpt lat="45.17498" lon="5.21758">
        <ele>305.28</ele>
        <time>2017-03-26T15:10:05Z</time>
      </trkpt>
      <trkpt lat="45.17498" lon="5.21758">
        <ele>305.27</ele>
        <time>2017-03-26T15:10:06Z</time>
      </trkpt>
      <trkpt lat="45.17498" lon="5.21758">
        <ele>305.27</ele>
        <time>2017-03-26T15:10:07Z</time>
      </trkpt>
      <trkpt lat="45.17498" lon="5.21758">
        <ele>305.27</ele>
        <time>2017-03-26T15:10:08Z</time>
      </trkpt>
      <trkpt lat="45.175" lon="5.21752">
        <ele>304.95</ele>
        <time>2017-03-26T15:10:09Z</time>
      </trkpt>
      <trkpt lat="45.175" lon="5.2175">
        <ele>304.72</ele>
        <time>2017-03-26T15:10:10Z</time>
      </trkpt>
      <trkpt lat="45.175" lon="5.21749">
        <ele>304.44</ele>
        <time>2017-03-26T15:10:11Z</time>
      </trkpt>
      <trkpt lat="45.17498" lon="5.21747">
        <ele>304.46</ele>
        <time>2017-03-26T15:10:12Z</time>
      </trkpt>
      <trkpt lat="45.17495" lon="5.21748">
        <ele>304.31</ele>
        <time>2017-03-26T15:10:13Z</time>
      </trkpt>
      <trkpt lat="45.17494" lon="5.2175">
        <ele>304.12</ele>
        <time>2017-03-26T15:10:14Z</time>
      </trkpt>
      <trkpt lat="45.17492" lon="5.21753">
        <ele>304</ele>
        <time>2017-03-26T15:10:15Z</time>
      </trkpt>
      <trkpt lat="45.17491" lon="5.21755">
        <ele>303.73</ele>
        <time>2017-03-26T15:10:16Z</time>
      </trkpt>
      <trkpt lat="45.1749" lon="5.21758">
        <ele>303.6</ele>
        <time>2017-03-26T15:10:17Z</time>
      </trkpt>
      <trkpt lat="45.1749" lon="5.2176">
        <ele>303.41</ele>
        <time>2017-03-26T15:10:18Z</time>
      </trkpt>
      <trkpt lat="45.17489" lon="5.21763">
        <ele>303.14</ele>
        <time>2017-03-26T15:10:19Z</time>
      </trkpt>
      <trkpt lat="45.17488" lon="5.21766">
        <ele>303</ele>
        <time>2017-03-26T15:10:20Z</time>
      </trkpt>
      <trkpt lat="45.17489" lon="5.21769">
        <ele>302.89</ele>
        <time>2017-03-26T15:10:21Z</time>
      </trkpt>
      <trkpt lat="45.17488" lon="5.2177">
        <ele>302.79</ele>
        <time>2017-03-26T15:10:22Z</time>
      </trkpt>
      <trkpt lat="45.17487" lon="5.21771">
        <ele>302.69</ele>
        <time>2017-03-26T15:10:23Z</time>
      </trkpt>
      <trkpt lat="45.17487" lon="5.21772">
        <ele>302.59</ele>
        <time>2017-03-26T15:10:24Z</time>
      </trkpt>
      <trkpt lat="45.17487" lon="5.21773">
        <ele>302.57</ele>
        <time>2017-03-26T15:10:25Z</time>
      </trkpt>
      <trkpt lat="45.17487" lon="5.21773">
        <ele>302.57</ele>
        <time>2017-03-26T15:10:26Z</time>
      </trkpt>
      <trkpt lat="45.17487" lon="5.21773">
        <ele>302.57</ele>
        <time>2017-03-26T15:10:27Z</time>
      </trkpt>
      <trkpt lat="45.17487" lon="5.21773">
        <ele>302.57</ele>
        <time>2017-03-26T15:10:28Z</time>
      </trkpt>
      <trkpt lat="45.17487" lon="5.21773">
        <ele>302.57</ele>
        <time>2017-03-26T15:10:29Z</time>
      </trkpt>
      <trkpt lat="45.17487" lon="5.21773">
        <ele>302.57</ele>
        <time>2017-03-26T15:10:30Z</time>
      </trkpt>
      <trkpt lat="45.17487" lon="5.21773">
        <ele>302.57</ele>
        <time>2017-03-26T15:10:31Z</time>
      </trkpt>
      <trkpt lat="45.17487" lon="5.21773">
        <ele>302.57</ele>
        <time>2017-03-26T15:10:32Z</time>
      </trkpt>
      <trkpt lat="45.17487" lon="5.21773">
        <ele>302.57</ele>
        <time>2017-03-26T15:10:33Z</time>
      </trkpt>
      <trkpt lat="45.17487" lon="5.21773">
        <ele>302.57</ele>
        <time>2017-03-26T15:10:34Z</time>
      </trkpt>
      <trkpt lat="45.17487" lon="5.21773">
        <ele>302.57</ele>
        <time>2017-03-26T15:10:35Z</time>
      </trkpt>
      <trkpt lat="45.17487" lon="5.21773">
        <ele>302.57</ele>
        <time>2017-03-26T15:10:36Z</time>
      </trkpt>
      <trkpt lat="45.17487" lon="5.21773">
        <ele>302.57</ele>
        <time>2017-03-26T15:10:37Z</time>
      </trkpt>
      <trkpt lat="45.17487" lon="5.21773">
        <ele>302.57</ele>
        <time>2017-03-26T15:10:38Z</time>
      </trkpt>
      <trkpt lat="45.17487" lon="5.21773">
        <ele>302.57</ele>
        <time>2017-03-26T15:10:39Z</time>
      </trkpt>
      <trkpt lat="45.17487" lon="5.21773">
        <ele>302.57</ele>
        <time>2017-03-26T15:10:40Z</time>
      </trkpt>
      <trkpt lat="45.17487" lon="5.21773">
        <ele>302.57</ele>
        <time>2017-03-26T15:10:41Z</time>
      </trkpt>
      <trkpt lat="45.17487" lon="5.21773">
        <ele>302.57</ele>
        <time>2017-03-26T15:10:42Z</time>
      </trkpt>
      <trkpt lat="45.17487" lon="5.21773">
        <ele>302.57</ele>
        <time>2017-03-26T15:10:43Z</time>
      </trkpt>
      <trkpt lat="45.17487" lon="5.21773">
        <ele>302.57</ele>
        <time>2017-03-26T15:10:44Z</time>
      </trkpt>
      <trkpt lat="45.17487" lon="5.21773">
        <ele>302.57</ele>
        <time>2017-03-26T15:10:45Z</time>
      </trkpt>
      <trkpt lat="45.17487" lon="5.21773">
        <ele>302.57</ele>
        <time>2017-03-26T15:10:46Z</time>
      </trkpt>
      <trkpt lat="45.17487" lon="5.21773">
        <ele>302.57</ele>
        <time>2017-03-26T15:10:47Z</time>
      </trkpt>
      <trkpt lat="45.17487" lon="5.21773">
        <ele>302.57</ele>
        <time>2017-03-26T15:10:48Z</time>
      </trkpt>
      <trkpt lat="45.17487" lon="5.21773">
        <ele>302.57</ele>
        <time>2017-03-26T15:10:49Z</time>
      </trkpt>
      <trkpt lat="45.17487" lon="5.21773">
        <ele>302.57</ele>
        <time>2017-03-26T15:10:50Z</time>
      </trkpt>
      <trkpt lat="45.17487" lon="5.21773">
        <ele>302.57</ele>
        <time>2017-03-26T15:10:51Z</time>
      </trkpt>
      <trkpt lat="45.17487" lon="5.21773">
        <ele>302.57</ele>
        <time>2017-03-26T15:10:52Z</time>
      </trkpt>
      <trkpt lat="45.17487" lon="5.21773">
        <ele>302.57</ele>
        <time>2017-03-26T15:10:53Z</time>
      </trkpt>
      <trkpt lat="45.17487" lon="5.21773">
        <ele>302.57</ele>
        <time>2017-03-26T15:10:54Z</time>
      </trkpt>
      <trkpt lat="45.17487" lon="5.21773">
        <ele>302.57</ele>
        <time>2017-03-26T15:10:55Z</time>
      </trkpt>
      <trkpt lat="45.17487" lon="5.21773">
        <ele>302.57</ele>
        <time>2017-03-26T15:10:56Z</time>
      </trkpt>
      <trkpt lat="45.17487" lon="5.21773">
        <ele>302.57</ele>
        <time>2017-03-26T15:10:57Z</time>
      </trkpt>
      <trkpt lat="45.17487" lon="5.21773">
        <ele>302.57</ele>
        <time>2017-03-26T15:10:58Z</time>
      </trkpt>
      <trkpt lat="45.17487" lon="5.21773">
        <ele>302.57</ele>
        <time>2017-03-26T15:10:59Z</time>
      </trkpt>
      <trkpt lat="45.17487" lon="5.21773">
        <ele>302.57</ele>
        <time>2017-03-26T15:11:00Z</time>
      </trkpt>
      <trkpt lat="45.17487" lon="5.21773">
        <ele>302.57</ele>
        <time>2017-03-26T15:11:01Z</time>
      </trkpt>
      <trkpt lat="45.17487" lon="5.21773">
        <ele>302.57</ele>
        <time>2017-03-26T15:11:02Z</time>
      </trkpt>
      <trkpt lat="45.17487" lon="5.21773">
        <ele>302.57</ele>
        <time>2017-03-26T15:11:03Z</time>
      </trkpt>
      <trkpt lat="45.17487" lon="5.21773">
        <ele>302.57</ele>
        <time>2017-03-26T15:11:04Z</time>
      </trkpt>
      <trkpt lat="45.17487" lon="5.21773">
        <ele>302.57</ele>
        <time>2017-03-26T15:11:05Z</time>
      </trkpt>
      <trkpt lat="45.17487" lon="5.21773">
        <ele>302.57</ele>
        <time>2017-03-26T15:11:06Z</time>
      </trkpt>
      <trkpt lat="45.17487" lon="5.21773">
        <ele>302.57</ele>
        <time>2017-03-26T15:11:07Z</time>
      </trkpt>
      <trkpt lat="45.17487" lon="5.21773">
        <ele>302.57</ele>
        <time>2017-03-26T15:11:08Z</time>
      </trkpt>
      <trkpt lat="45.17487" lon="5.21773">
        <ele>302.57</ele>
        <time>2017-03-26T15:11:09Z</time>
      </trkpt>
      <trkpt lat="45.17487" lon="5.21773">
        <ele>302.57</ele>
        <time>2017-03-26T15:11:10Z</time>
      </trkpt>
      <trkpt lat="45.17487" lon="5.21773">
        <ele>302.57</ele>
        <time>2017-03-26T15:11:11Z</time>
      </trkpt>
      <trkpt lat="45.17487" lon="5.21773">
        <ele>302.57</ele>
        <time>2017-03-26T15:11:12Z</time>
      </trkpt>
      <trkpt lat="45.17487" lon="5.21773">
        <ele>302.57</ele>
        <time>2017-03-26T15:11:13Z</time>
      </trkpt>
      <trkpt lat="45.17487" lon="5.21773">
        <ele>302.57</ele>
        <time>2017-03-26T15:11:14Z</time>
      </trkpt>
      <trkpt lat="45.17487" lon="5.21773">
        <ele>302.57</ele>
        <time>2017-03-26T15:11:15Z</time>
      </trkpt>
      <trkpt lat="45.17487" lon="5.21773">
        <ele>302.57</ele>
        <time>2017-03-26T15:11:16Z</time>
      </trkpt>
      <trkpt lat="45.17487" lon="5.21773">
        <ele>302.57</ele>
        <time>2017-03-26T15:11:17Z</time>
      </trkpt>
      <trkpt lat="45.17487" lon="5.21773">
        <ele>302.57</ele>
        <time>2017-03-26T15:11:18Z</time>
      </trkpt>
      <trkpt lat="45.17487" lon="5.21773">
        <ele>302.57</ele>
        <time>2017-03-26T15:11:19Z</time>
      </trkpt>
      <trkpt lat="45.17487" lon="5.21773">
        <ele>302.57</ele>
        <time>2017-03-26T15:11:20Z</time>
      </trkpt>
      <trkpt lat="45.17487" lon="5.21773">
        <ele>302.57</ele>
        <time>2017-03-26T15:11:21Z</time>
      </trkpt>
      <trkpt lat="45.17487" lon="5.21773">
        <ele>302.57</ele>
        <time>2017-03-26T15:11:22Z</time>
      </trkpt>
      <trkpt lat="45.17487" lon="5.21773">
        <ele>302.57</ele>
        <time>2017-03-26T15:11:23Z</time>
      </trkpt>
      <trkpt lat="45.17487" lon="5.21773">
        <ele>302.57</ele>
        <time>2017-03-26T15:11:24Z</time>
      </trkpt>
      <trkpt lat="45.17487" lon="5.21773">
        <ele>302.57</ele>
        <time>2017-03-26T15:11:25Z</time>
      </trkpt>
      <trkpt lat="45.17487" lon="5.21773">
        <ele>302.57</ele>
        <time>2017-03-26T15:11:26Z</time>
      </trkpt>
      <trkpt lat="45.17487" lon="5.21773">
        <ele>302.57</ele>
        <time>2017-03-26T15:11:27Z</time>
      </trkpt>
      <trkpt lat="45.17487" lon="5.21773">
        <ele>302.57</ele>
        <time>2017-03-26T15:11:28Z</time>
      </trkpt>
      <trkpt lat="45.17487" lon="5.21773">
        <ele>302.57</ele>
        <time>2017-03-26T15:11:29Z</time>
      </trkpt>
      <trkpt lat="45.17487" lon="5.21773">
        <ele>302.57</ele>
        <time>2017-03-26T15:11:30Z</time>
      </trkpt>
      <trkpt lat="45.17487" lon="5.21773">
        <ele>302.57</ele>
        <time>2017-03-26T15:11:31Z</time>
      </trkpt>
      <trkpt lat="45.17487" lon="5.21773">
        <ele>302.57</ele>
        <time>2017-03-26T15:11:32Z</time>
      </trkpt>
      <trkpt lat="45.17487" lon="5.21773">
        <ele>302.57</ele>
        <time>2017-03-26T15:11:33Z</time>
      </trkpt>
      <trkpt lat="45.17487" lon="5.21773">
        <ele>302.57</ele>
        <time>2017-03-26T15:11:34Z</time>
      </trkpt>
      <trkpt lat="45.17487" lon="5.21773">
        <ele>302.57</ele>
        <time>2017-03-26T15:11:35Z</time>
      </trkpt>
      <trkpt lat="45.17487" lon="5.21773">
        <ele>302.57</ele>
        <time>2017-03-26T15:11:36Z</time>
      </trkpt>
      <trkpt lat="45.17487" lon="5.21773">
        <ele>302.57</ele>
        <time>2017-03-26T15:11:37Z</time>
      </trkpt>
      <trkpt lat="45.17487" lon="5.21773">
        <ele>302.57</ele>
        <time>2017-03-26T15:11:38Z</time>
      </trkpt>
      <trkpt lat="45.17487" lon="5.21773">
        <ele>302.57</ele>
        <time>2017-03-26T15:11:39Z</time>
      </trkpt>
      <trkpt lat="45.17487" lon="5.21773">
        <ele>302.57</ele>
        <time>2017-03-26T15:11:40Z</time>
      </trkpt>
      <trkpt lat="45.17487" lon="5.21773">
        <ele>302.57</ele>
        <time>2017-03-26T15:11:41Z</time>
      </trkpt>
      <trkpt lat="45.17487" lon="5.21773">
        <ele>302.57</ele>
        <time>2017-03-26T15:11:42Z</time>
      </trkpt>
      <trkpt lat="45.17487" lon="5.21773">
        <ele>302.57</ele>
        <time>2017-03-26T15:11:43Z</time>
      </trkpt>
      <trkpt lat="45.17487" lon="5.21773">
        <ele>302.57</ele>
        <time>2017-03-26T15:11:44Z</time>
      </trkpt>
      <trkpt lat="45.17487" lon="5.21773">
        <ele>302.57</ele>
        <time>2017-03-26T15:11:45Z</time>
      </trkpt>
      <trkpt lat="45.17487" lon="5.21773">
        <ele>302.57</ele>
        <time>2017-03-26T15:11:46Z</time>
      </trkpt>
      <trkpt lat="45.17487" lon="5.21773">
        <ele>302.57</ele>
        <time>2017-03-26T15:11:47Z</time>
      </trkpt>
      <trkpt lat="45.17487" lon="5.21773">
        <ele>302.57</ele>
        <time>2017-03-26T15:11:48Z</time>
      </trkpt>
      <trkpt lat="45.17487" lon="5.21773">
        <ele>302.57</ele>
        <time>2017-03-26T15:11:49Z</time>
      </trkpt>
      <trkpt lat="45.17487" lon="5.21773">
        <ele>302.57</ele>
        <time>2017-03-26T15:11:50Z</time>
      </trkpt>
      <trkpt lat="45.17487" lon="5.21773">
        <ele>302.57</ele>
        <time>2017-03-26T15:11:51Z</time>
      </trkpt>
      <trkpt lat="45.17487" lon="5.21773">
        <ele>302.57</ele>
        <time>2017-03-26T15:11:52Z</time>
      </trkpt>
      <trkpt lat="45.17487" lon="5.21773">
        <ele>302.57</ele>
        <time>2017-03-26T15:11:53Z</time>
      </trkpt>
      <trkpt lat="45.17487" lon="5.21773">
        <ele>302.57</ele>
        <time>2017-03-26T15:11:54Z</time>
      </trkpt>
      <trkpt lat="45.17487" lon="5.21773">
        <ele>302.57</ele>
        <time>2017-03-26T15:11:55Z</time>
      </trkpt>
      <trkpt lat="45.17487" lon="5.21773">
        <ele>302.57</ele>
        <time>2017-03-26T15:11:56Z</time>
      </trkpt>
      <trkpt lat="45.17487" lon="5.21773">
        <ele>302.57</ele>
        <time>2017-03-26T15:11:57Z</time>
      </trkpt>
      <trkpt lat="45.17487" lon="5.21773">
        <ele>302.57</ele>
        <time>2017-03-26T15:11:58Z</time>
      </trkpt>
      <trkpt lat="45.17487" lon="5.21773">
        <ele>302.57</ele>
        <time>2017-03-26T15:11:59Z</time>
      </trkpt>
      <trkpt lat="45.17487" lon="5.21773">
        <ele>302.57</ele>
        <time>2017-03-26T15:12:00Z</time>
      </trkpt>
      <trkpt lat="45.17487" lon="5.21773">
        <ele>302.57</ele>
        <time>2017-03-26T15:12:01Z</time>
      </trkpt>
      <trkpt lat="45.17487" lon="5.21773">
        <ele>302.57</ele>
        <time>2017-03-26T15:12:02Z</time>
      </trkpt>
      <trkpt lat="45.17487" lon="5.21773">
        <ele>302.57</ele>
        <time>2017-03-26T15:12:03Z</time>
      </trkpt>
      <trkpt lat="45.17487" lon="5.21773">
        <ele>302.57</ele>
        <time>2017-03-26T15:12:04Z</time>
      </trkpt>
      <trkpt lat="45.17487" lon="5.21773">
        <ele>302.57</ele>
        <time>2017-03-26T15:12:05Z</time>
      </trkpt>
      <trkpt lat="45.17487" lon="5.21773">
        <ele>302.57</ele>
        <time>2017-03-26T15:12:06Z</time>
      </trkpt>
      <trkpt lat="45.17487" lon="5.21773">
        <ele>302.57</ele>
        <time>2017-03-26T15:12:07Z</time>
      </trkpt>
      <trkpt lat="45.17487" lon="5.21773">
        <ele>302.57</ele>
        <time>2017-03-26T15:12:08Z</time>
      </trkpt>
      <trkpt lat="45.17487" lon="5.21773">
        <ele>302.57</ele>
        <time>2017-03-26T15:12:09Z</time>
      </trkpt>
      <trkpt lat="45.17487" lon="5.21773">
        <ele>302.57</ele>
        <time>2017-03-26T15:12:10Z</time>
      </trkpt>
      <trkpt lat="45.17487" lon="5.21773">
        <ele>302.57</ele>
        <time>2017-03-26T15:12:11Z</time>
      </trkpt>
      <trkpt lat="45.17487" lon="5.21773">
        <ele>302.57</ele>
        <time>2017-03-26T15:12:12Z</time>
      </trkpt>
      <trkpt lat="45.17487" lon="5.21773">
        <ele>302.57</ele>
        <time>2017-03-26T15:12:13Z</time>
      </trkpt>
      <trkpt lat="45.17487" lon="5.21773">
        <ele>302.57</ele>
        <time>2017-03-26T15:12:14Z</time>
      </trkpt>
      <trkpt lat="45.17487" lon="5.21773">
        <ele>302.57</ele>
        <time>2017-03-26T15:12:16Z</time>
      </trkpt>
      <trkpt lat="45.17487" lon="5.21773">
        <ele>302.57</ele>
        <time>2017-03-26T15:12:17Z</time>
      </trkpt>
      <trkpt lat="45.17487" lon="5.21773">
        <ele>302.57</ele>
        <time>2017-03-26T15:12:18Z</time>
      </trkpt>
      <trkpt lat="45.17487" lon="5.21773">
        <ele>302.57</ele>
        <time>2017-03-26T15:12:19Z</time>
      </trkpt>
      <trkpt lat="45.17487" lon="5.21773">
        <ele>302.57</ele>
        <time>2017-03-26T15:12:20Z</time>
      </trkpt>
      <trkpt lat="45.17487" lon="5.21773">
        <ele>302.57</ele>
        <time>2017-03-26T15:12:21Z</time>
      </trkpt>
      <trkpt lat="45.17487" lon="5.21773">
        <ele>302.57</ele>
        <time>2017-03-26T15:12:22Z</time>
      </trkpt>
      <trkpt lat="45.17487" lon="5.21773">
        <ele>302.57</ele>
        <time>2017-03-26T15:12:23Z</time>
      </trkpt>
      <trkpt lat="45.17487" lon="5.21773">
        <ele>302.57</ele>
        <time>2017-03-26T15:12:24Z</time>
      </trkpt>
      <trkpt lat="45.17487" lon="5.21773">
        <ele>302.57</ele>
        <time>2017-03-26T15:12:25Z</time>
      </trkpt>
      <trkpt lat="45.17487" lon="5.21773">
        <ele>302.57</ele>
        <time>2017-03-26T15:12:26Z</time>
      </trkpt>
      <trkpt lat="45.17487" lon="5.21773">
        <ele>302.57</ele>
        <time>2017-03-26T15:12:27Z</time>
      </trkpt>
      <trkpt lat="45.17487" lon="5.21773">
        <ele>302.57</ele>
        <time>2017-03-26T15:12:28Z</time>
      </trkpt>
      <trkpt lat="45.17487" lon="5.21773">
        <ele>302.57</ele>
        <time>2017-03-26T15:12:29Z</time>
      </trkpt>
      <trkpt lat="45.17487" lon="5.21773">
        <ele>302.57</ele>
        <time>2017-03-26T15:12:30Z</time>
      </trkpt>
      <trkpt lat="45.17487" lon="5.21773">
        <ele>302.57</ele>
        <time>2017-03-26T15:12:31Z</time>
      </trkpt>
      <trkpt lat="45.17487" lon="5.21773">
        <ele>302.57</ele>
        <time>2017-03-26T15:12:32Z</time>
      </trkpt>
      <trkpt lat="45.17487" lon="5.21773">
        <ele>302.57</ele>
        <time>2017-03-26T15:12:33Z</time>
      </trkpt>
      <trkpt lat="45.17487" lon="5.21773">
        <ele>302.57</ele>
        <time>2017-03-26T15:12:34Z</time>
      </trkpt>
      <trkpt lat="45.17487" lon="5.21773">
        <ele>302.57</ele>
        <time>2017-03-26T15:12:35Z</time>
      </trkpt>
      <trkpt lat="45.17487" lon="5.21773">
        <ele>302.57</ele>
        <time>2017-03-26T15:12:36Z</time>
      </trkpt>
      <trkpt lat="45.17487" lon="5.21773">
        <ele>302.57</ele>
        <time>2017-03-26T15:12:37Z</time>
      </trkpt>
      <trkpt lat="45.17487" lon="5.21773">
        <ele>302.57</ele>
        <time>2017-03-26T15:12:38Z</time>
      </trkpt>
      <trkpt lat="45.17487" lon="5.21773">
        <ele>302.57</ele>
        <time>2017-03-26T15:12:39Z</time>
      </trkpt>
      <trkpt lat="45.17487" lon="5.21773">
        <ele>302.57</ele>
        <time>2017-03-26T15:12:40Z</time>
      </trkpt>
      <trkpt lat="45.17487" lon="5.21773">
        <ele>302.57</ele>
        <time>2017-03-26T15:12:41Z</time>
      </trkpt>
      <trkpt lat="45.17487" lon="5.21773">
        <ele>302.57</ele>
        <time>2017-03-26T15:12:42Z</time>
      </trkpt>
      <trkpt lat="45.17487" lon="5.21773">
        <ele>302.57</ele>
        <time>2017-03-26T15:12:43Z</time>
      </trkpt>
      <trkpt lat="45.17487" lon="5.21773">
        <ele>302.57</ele>
        <time>2017-03-26T15:12:44Z</time>
      </trkpt>
      <trkpt lat="45.17487" lon="5.21773">
        <ele>302.57</ele>
        <time>2017-03-26T15:12:45Z</time>
      </trkpt>
      <trkpt lat="45.17487" lon="5.21773">
        <ele>302.57</ele>
        <time>2017-03-26T15:12:46Z</time>
      </trkpt>
      <trkpt lat="45.17487" lon="5.21773">
        <ele>302.57</ele>
        <time>2017-03-26T15:12:47Z</time>
      </trkpt>
      <trkpt lat="45.17487" lon="5.21773">
        <ele>302.57</ele>
        <time>2017-03-26T15:12:48Z</time>
      </trkpt>
      <trkpt lat="45.17487" lon="5.21773">
        <ele>302.57</ele>
        <time>2017-03-26T15:12:49Z</time>
      </trkpt>
      <trkpt lat="45.17487" lon="5.21773">
        <ele>302.57</ele>
        <time>2017-03-26T15:12:50Z</time>
      </trkpt>
      <trkpt lat="45.17487" lon="5.21773">
        <ele>302.57</ele>
        <time>2017-03-26T15:12:51Z</time>
      </trkpt>
      <trkpt lat="45.17487" lon="5.21773">
        <ele>302.57</ele>
        <time>2017-03-26T15:12:52Z</time>
      </trkpt>
      <trkpt lat="45.17487" lon="5.21773">
        <ele>302.57</ele>
        <time>2017-03-26T15:12:53Z</time>
      </trkpt>
      <trkpt lat="45.17487" lon="5.21773">
        <ele>302.57</ele>
        <time>2017-03-26T15:12:54Z</time>
      </trkpt>
      <trkpt lat="45.17487" lon="5.21773">
        <ele>302.57</ele>
        <time>2017-03-26T15:12:55Z</time>
      </trkpt>
      <trkpt lat="45.17487" lon="5.21773">
        <ele>302.57</ele>
        <time>2017-03-26T15:12:56Z</time>
      </trkpt>
      <trkpt lat="45.17487" lon="5.21773">
        <ele>302.57</ele>
        <time>2017-03-26T15:12:57Z</time>
      </trkpt>
      <trkpt lat="45.17487" lon="5.21773">
        <ele>302.57</ele>
        <time>2017-03-26T15:12:58Z</time>
      </trkpt>
      <trkpt lat="45.17487" lon="5.21773">
        <ele>302.57</ele>
        <time>2017-03-26T15:12:59Z</time>
      </trkpt>
      <trkpt lat="45.17487" lon="5.21773">
        <ele>302.57</ele>
        <time>2017-03-26T15:13:00Z</time>
      </trkpt>
      <trkpt lat="45.17487" lon="5.21773">
        <ele>302.57</ele>
        <time>2017-03-26T15:13:01Z</time>
      </trkpt>
      <trkpt lat="45.17487" lon="5.21773">
        <ele>302.57</ele>
        <time>2017-03-26T15:13:02Z</time>
      </trkpt>
      <trkpt lat="45.17487" lon="5.21773">
        <ele>302.57</ele>
        <time>2017-03-26T15:13:03Z</time>
      </trkpt>
      <trkpt lat="45.17487" lon="5.21773">
        <ele>302.57</ele>
        <time>2017-03-26T15:13:04Z</time>
      </trkpt>
      <trkpt lat="45.17487" lon="5.21773">
        <ele>302.57</ele>
        <time>2017-03-26T15:13:05Z</time>
      </trkpt>
      <trkpt lat="45.17487" lon="5.21773">
        <ele>302.57</ele>
        <time>2017-03-26T15:13:06Z</time>
      </trkpt>
      <trkpt lat="45.17487" lon="5.21773">
        <ele>302.57</ele>
        <time>2017-03-26T15:13:07Z</time>
      </trkpt>
      <trkpt lat="45.17487" lon="5.21773">
        <ele>302.57</ele>
        <time>2017-03-26T15:13:08Z</time>
      </trkpt>
      <trkpt lat="45.17487" lon="5.21773">
        <ele>302.57</ele>
        <time>2017-03-26T15:13:09Z</time>
      </trkpt>
      <trkpt lat="45.17487" lon="5.21773">
        <ele>302.57</ele>
        <time>2017-03-26T15:13:10Z</time>
      </trkpt>
      <trkpt lat="45.17487" lon="5.21773">
        <ele>302.57</ele>
        <time>2017-03-26T15:13:11Z</time>
      </trkpt>
      <trkpt lat="45.17487" lon="5.21773">
        <ele>302.57</ele>
        <time>2017-03-26T15:13:12Z</time>
      </trkpt>
      <trkpt lat="45.17487" lon="5.21773">
        <ele>302.57</ele>
        <time>2017-03-26T15:13:13Z</time>
      </trkpt>
      <trkpt lat="45.17487" lon="5.21773">
        <ele>302.57</ele>
        <time>2017-03-26T15:13:14Z</time>
      </trkpt>
      <trkpt lat="45.17487" lon="5.21773">
        <ele>302.57</ele>
        <time>2017-03-26T15:13:15Z</time>
      </trkpt>
      <trkpt lat="45.17487" lon="5.21773">
        <ele>302.57</ele>
        <time>2017-03-26T15:13:16Z</time>
      </trkpt>
      <trkpt lat="45.17487" lon="5.21773">
        <ele>302.57</ele>
        <time>2017-03-26T15:13:17Z</time>
      </trkpt>
      <trkpt lat="45.17497" lon="5.21767">
        <ele>301.93</ele>
        <time>2017-03-26T15:13:18Z</time>
      </trkpt>
      <trkpt lat="45.17498" lon="5.21766">
        <ele>301.8</ele>
        <time>2017-03-26T15:13:19Z</time>
      </trkpt>
      <trkpt lat="45.17499" lon="5.21765">
        <ele>301.69</ele>
        <time>2017-03-26T15:13:20Z</time>
      </trkpt>
      <trkpt lat="45.175" lon="5.21764">
        <ele>301.67</ele>
        <time>2017-03-26T15:13:21Z</time>
      </trkpt>
      <trkpt lat="45.17501" lon="5.21763">
        <ele>301.67</ele>
        <time>2017-03-26T15:13:22Z</time>
      </trkpt>
      <trkpt lat="45.17501" lon="5.21762">
        <ele>301.67</ele>
        <time>2017-03-26T15:13:23Z</time>
      </trkpt>
      <trkpt lat="45.17502" lon="5.21761">
        <ele>301.67</ele>
        <time>2017-03-26T15:13:24Z</time>
      </trkpt>
      <trkpt lat="45.17503" lon="5.21761">
        <ele>301.67</ele>
        <time>2017-03-26T15:13:25Z</time>
      </trkpt>
      <trkpt lat="45.17503" lon="5.2176">
        <ele>301.67</ele>
        <time>2017-03-26T15:13:26Z</time>
      </trkpt>
      <trkpt lat="45.17504" lon="5.21759">
        <ele>301.59</ele>
        <time>2017-03-26T15:13:27Z</time>
      </trkpt>
      <trkpt lat="45.17505" lon="5.21758">
        <ele>301.57</ele>
        <time>2017-03-26T15:13:28Z</time>
      </trkpt>
      <trkpt lat="45.17505" lon="5.21758">
        <ele>301.57</ele>
        <time>2017-03-26T15:13:29Z</time>
      </trkpt>
      <trkpt lat="45.17506" lon="5.21757">
        <ele>301.49</ele>
        <time>2017-03-26T15:13:30Z</time>
      </trkpt>
      <trkpt lat="45.17506" lon="5.21757">
        <ele>301.47</ele>
        <time>2017-03-26T15:13:31Z</time>
      </trkpt>
      <trkpt lat="45.17506" lon="5.21757">
        <ele>301.47</ele>
        <time>2017-03-26T15:13:32Z</time>
      </trkpt>
      <trkpt lat="45.17506" lon="5.21757">
        <ele>301.47</ele>
        <time>2017-03-26T15:13:33Z</time>
      </trkpt>
      <trkpt lat="45.17506" lon="5.21757">
        <ele>301.47</ele>
        <time>2017-03-26T15:13:34Z</time>
      </trkpt>
      <trkpt lat="45.17506" lon="5.21757">
        <ele>301.47</ele>
        <time>2017-03-26T15:13:35Z</time>
      </trkpt>
      <trkpt lat="45.17506" lon="5.21757">
        <ele>301.47</ele>
        <time>2017-03-26T15:13:36Z</time>
      </trkpt>
      <trkpt lat="45.17506" lon="5.21757">
        <ele>301.47</ele>
        <time>2017-03-26T15:13:37Z</time>
      </trkpt>
      <trkpt lat="45.17506" lon="5.21757">
        <ele>301.47</ele>
        <time>2017-03-26T15:13:38Z</time>
      </trkpt>
      <trkpt lat="45.17506" lon="5.21757">
        <ele>301.47</ele>
        <time>2017-03-26T15:13:39Z</time>
      </trkpt>
      <trkpt lat="45.17506" lon="5.21757">
        <ele>301.47</ele>
        <time>2017-03-26T15:13:40Z</time>
      </trkpt>
      <trkpt lat="45.17506" lon="5.21757">
        <ele>301.47</ele>
        <time>2017-03-26T15:13:41Z</time>
      </trkpt>
      <trkpt lat="45.1751" lon="5.21753">
        <ele>301.31</ele>
        <time>2017-03-26T15:13:42Z</time>
      </trkpt>
      <trkpt lat="45.17512" lon="5.21754">
        <ele>301.36</ele>
        <time>2017-03-26T15:13:43Z</time>
      </trkpt>
      <trkpt lat="45.17514" lon="5.21754">
        <ele>301.53</ele>
        <time>2017-03-26T15:13:44Z</time>
      </trkpt>
      <trkpt lat="45.17515" lon="5.21753">
        <ele>301.72</ele>
        <time>2017-03-26T15:13:45Z</time>
      </trkpt>
      <trkpt lat="45.17516" lon="5.21753">
        <ele>301.84</ele>
        <time>2017-03-26T15:13:46Z</time>
      </trkpt>
      <trkpt lat="45.17518" lon="5.21753">
        <ele>301.94</ele>
        <time>2017-03-26T15:13:47Z</time>
      </trkpt>
      <trkpt lat="45.17519" lon="5.21751">
        <ele>302.2</ele>
        <time>2017-03-26T15:13:48Z</time>
      </trkpt>
      <trkpt lat="45.17519" lon="5.2175">
        <ele>302.33</ele>
        <time>2017-03-26T15:13:49Z</time>
      </trkpt>
      <trkpt lat="45.17519" lon="5.21749">
        <ele>302.44</ele>
        <time>2017-03-26T15:13:50Z</time>
      </trkpt>
      <trkpt lat="45.1752" lon="5.21746">
        <ele>302.7</ele>
        <time>2017-03-26T15:13:51Z</time>
      </trkpt>
      <trkpt lat="45.1752" lon="5.21746">
        <ele>302.75</ele>
        <time>2017-03-26T15:13:52Z</time>
      </trkpt>
      <trkpt lat="45.1752" lon="5.21746">
        <ele>302.77</ele>
        <time>2017-03-26T15:13:53Z</time>
      </trkpt>
      <trkpt lat="45.1752" lon="5.21746">
        <ele>302.77</ele>
        <time>2017-03-26T15:13:54Z</time>
      </trkpt>
      <trkpt lat="45.1752" lon="5.21746">
        <ele>302.77</ele>
        <time>2017-03-26T15:13:55Z</time>
      </trkpt>
      <trkpt lat="45.1752" lon="5.21746">
        <ele>302.77</ele>
        <time>2017-03-26T15:13:56Z</time>
      </trkpt>
      <trkpt lat="45.1752" lon="5.21746">
        <ele>302.77</ele>
        <time>2017-03-26T15:13:57Z</time>
      </trkpt>
      <trkpt lat="45.1752" lon="5.21746">
        <ele>302.77</ele>
        <time>2017-03-26T15:13:58Z</time>
      </trkpt>
      <trkpt lat="45.17526" lon="5.21735">
        <ele>303.73</ele>
        <time>2017-03-26T15:13:59Z</time>
      </trkpt>
      <trkpt lat="45.17528" lon="5.21733">
        <ele>304</ele>
        <time>2017-03-26T15:14:00Z</time>
      </trkpt>
      <trkpt lat="45.17527" lon="5.2173">
        <ele>304.69</ele>
        <time>2017-03-26T15:14:01Z</time>
      </trkpt>
      <trkpt lat="45.17528" lon="5.21729">
        <ele>304.83</ele>
        <time>2017-03-26T15:14:02Z</time>
      </trkpt>
      <trkpt lat="45.17528" lon="5.21729">
        <ele>304.86</ele>
        <time>2017-03-26T15:14:03Z</time>
      </trkpt>
      <trkpt lat="45.17528" lon="5.21729">
        <ele>304.87</ele>
        <time>2017-03-26T15:14:04Z</time>
      </trkpt>
      <trkpt lat="45.17528" lon="5.21729">
        <ele>304.87</ele>
        <time>2017-03-26T15:14:05Z</time>
      </trkpt>
      <trkpt lat="45.17528" lon="5.21729">
        <ele>304.87</ele>
        <time>2017-03-26T15:14:06Z</time>
      </trkpt>
      <trkpt lat="45.17531" lon="5.21724">
        <ele>305.27</ele>
        <time>2017-03-26T15:14:07Z</time>
      </trkpt>
      <trkpt lat="45.17532" lon="5.21723">
        <ele>305.35</ele>
        <time>2017-03-26T15:14:08Z</time>
      </trkpt>
      <trkpt lat="45.17533" lon="5.21722">
        <ele>305.44</ele>
        <time>2017-03-26T15:14:09Z</time>
      </trkpt>
      <trkpt lat="45.17533" lon="5.21721">
        <ele>305.46</ele>
        <time>2017-03-26T15:14:10Z</time>
      </trkpt>
      <trkpt lat="45.17533" lon="5.21721">
        <ele>305.47</ele>
        <time>2017-03-26T15:14:11Z</time>
      </trkpt>
      <trkpt lat="45.17533" lon="5.21721">
        <ele>305.47</ele>
        <time>2017-03-26T15:14:12Z</time>
      </trkpt>
      <trkpt lat="45.17533" lon="5.21721">
        <ele>305.47</ele>
        <time>2017-03-26T15:14:13Z</time>
      </trkpt>
      <trkpt lat="45.17533" lon="5.21721">
        <ele>305.47</ele>
        <time>2017-03-26T15:14:14Z</time>
      </trkpt>
      <trkpt lat="45.17533" lon="5.21721">
        <ele>305.47</ele>
        <time>2017-03-26T15:14:15Z</time>
      </trkpt>
      <trkpt lat="45.17533" lon="5.21721">
        <ele>305.47</ele>
        <time>2017-03-26T15:14:16Z</time>
      </trkpt>
      <trkpt lat="45.17533" lon="5.21721">
        <ele>305.47</ele>
        <time>2017-03-26T15:14:17Z</time>
      </trkpt>
      <trkpt lat="45.17533" lon="5.21721">
        <ele>305.47</ele>
        <time>2017-03-26T15:14:18Z</time>
      </trkpt>
      <trkpt lat="45.17533" lon="5.21721">
        <ele>305.47</ele>
        <time>2017-03-26T15:14:19Z</time>
      </trkpt>
      <trkpt lat="45.17533" lon="5.21721">
        <ele>305.47</ele>
        <time>2017-03-26T15:14:20Z</time>
      </trkpt>
      <trkpt lat="45.17538" lon="5.21709">
        <ele>306.59</ele>
        <time>2017-03-26T15:14:21Z</time>
      </trkpt>
      <trkpt lat="45.17539" lon="5.21708">
        <ele>306.89</ele>
        <time>2017-03-26T15:14:22Z</time>
      </trkpt>
      <trkpt lat="45.17539" lon="5.21706">
        <ele>307.11</ele>
        <time>2017-03-26T15:14:23Z</time>
      </trkpt>
      <trkpt lat="45.1754" lon="5.21705">
        <ele>307.24</ele>
        <time>2017-03-26T15:14:24Z</time>
      </trkpt>
      <trkpt lat="45.1754" lon="5.21705">
        <ele>307.26</ele>
        <time>2017-03-26T15:14:25Z</time>
      </trkpt>
      <trkpt lat="45.1754" lon="5.21705">
        <ele>307.27</ele>
        <time>2017-03-26T15:14:26Z</time>
      </trkpt>
      <trkpt lat="45.1754" lon="5.21705">
        <ele>307.27</ele>
        <time>2017-03-26T15:14:27Z</time>
      </trkpt>
      <trkpt lat="45.1754" lon="5.21705">
        <ele>307.27</ele>
        <time>2017-03-26T15:14:28Z</time>
      </trkpt>
      <trkpt lat="45.1754" lon="5.21705">
        <ele>307.27</ele>
        <time>2017-03-26T15:14:29Z</time>
      </trkpt>
      <trkpt lat="45.1754" lon="5.21705">
        <ele>307.27</ele>
        <time>2017-03-26T15:14:30Z</time>
      </trkpt>
      <trkpt lat="45.1754" lon="5.21705">
        <ele>307.27</ele>
        <time>2017-03-26T15:14:31Z</time>
      </trkpt>
      <trkpt lat="45.1754" lon="5.21705">
        <ele>307.27</ele>
        <time>2017-03-26T15:14:32Z</time>
      </trkpt>
      <trkpt lat="45.1754" lon="5.21705">
        <ele>307.27</ele>
        <time>2017-03-26T15:14:33Z</time>
      </trkpt>
      <trkpt lat="45.1754" lon="5.21705">
        <ele>307.27</ele>
        <time>2017-03-26T15:14:34Z</time>
      </trkpt>
      <trkpt lat="45.1754" lon="5.21705">
        <ele>307.27</ele>
        <time>2017-03-26T15:14:35Z</time>
      </trkpt>
      <trkpt lat="45.1754" lon="5.21705">
        <ele>307.27</ele>
        <time>2017-03-26T15:14:36Z</time>
      </trkpt>
      <trkpt lat="45.1754" lon="5.21705">
        <ele>307.27</ele>
        <time>2017-03-26T15:14:37Z</time>
      </trkpt>
      <trkpt lat="45.1754" lon="5.21705">
        <ele>307.27</ele>
        <time>2017-03-26T15:14:38Z</time>
      </trkpt>
      <trkpt lat="45.1754" lon="5.21705">
        <ele>307.27</ele>
        <time>2017-03-26T15:14:39Z</time>
      </trkpt>
      <trkpt lat="45.17547" lon="5.21697">
        <ele>307.67</ele>
        <time>2017-03-26T15:14:40Z</time>
      </trkpt>
      <trkpt lat="45.17548" lon="5.21697">
        <ele>307.75</ele>
        <time>2017-03-26T15:14:41Z</time>
      </trkpt>
      <trkpt lat="45.17549" lon="5.21696">
        <ele>307.76</ele>
        <time>2017-03-26T15:14:42Z</time>
      </trkpt>
      <trkpt lat="45.17549" lon="5.21695">
        <ele>307.77</ele>
        <time>2017-03-26T15:14:43Z</time>
      </trkpt>
      <trkpt lat="45.17549" lon="5.21695">
        <ele>307.77</ele>
        <time>2017-03-26T15:14:44Z</time>
      </trkpt>
      <trkpt lat="45.17549" lon="5.21695">
        <ele>307.77</ele>
        <time>2017-03-26T15:14:45Z</time>
      </trkpt>
      <trkpt lat="45.17549" lon="5.21695">
        <ele>307.77</ele>
        <time>2017-03-26T15:14:46Z</time>
      </trkpt>
      <trkpt lat="45.17549" lon="5.21695">
        <ele>307.77</ele>
        <time>2017-03-26T15:14:47Z</time>
      </trkpt>
      <trkpt lat="45.17549" lon="5.21695">
        <ele>307.77</ele>
        <time>2017-03-26T15:14:48Z</time>
      </trkpt>
      <trkpt lat="45.17549" lon="5.21695">
        <ele>307.77</ele>
        <time>2017-03-26T15:14:49Z</time>
      </trkpt>
      <trkpt lat="45.17549" lon="5.21695">
        <ele>307.77</ele>
        <time>2017-03-26T15:14:50Z</time>
      </trkpt>
      <trkpt lat="45.17549" lon="5.21695">
        <ele>307.77</ele>
        <time>2017-03-26T15:14:51Z</time>
      </trkpt>
      <trkpt lat="45.17549" lon="5.21695">
        <ele>307.77</ele>
        <time>2017-03-26T15:14:52Z</time>
      </trkpt>
      <trkpt lat="45.17558" lon="5.21688">
        <ele>307.53</ele>
        <time>2017-03-26T15:14:53Z</time>
      </trkpt>
      <trkpt lat="45.17558" lon="5.21687">
        <ele>307.48</ele>
        <time>2017-03-26T15:14:54Z</time>
      </trkpt>
      <trkpt lat="45.17559" lon="5.21686">
        <ele>307.39</ele>
        <time>2017-03-26T15:14:55Z</time>
      </trkpt>
      <trkpt lat="45.1756" lon="5.21685">
        <ele>307.29</ele>
        <time>2017-03-26T15:14:56Z</time>
      </trkpt>
      <trkpt lat="45.1756" lon="5.21685">
        <ele>307.27</ele>
        <time>2017-03-26T15:14:57Z</time>
      </trkpt>
      <trkpt lat="45.1756" lon="5.21685">
        <ele>307.27</ele>
        <time>2017-03-26T15:14:58Z</time>
      </trkpt>
      <trkpt lat="45.1756" lon="5.21685">
        <ele>307.27</ele>
        <time>2017-03-26T15:14:59Z</time>
      </trkpt>
      <trkpt lat="45.1756" lon="5.21685">
        <ele>307.27</ele>
        <time>2017-03-26T15:15:00Z</time>
      </trkpt>
      <trkpt lat="45.1756" lon="5.21685">
        <ele>307.27</ele>
        <time>2017-03-26T15:15:01Z</time>
      </trkpt>
      <trkpt lat="45.1756" lon="5.21685">
        <ele>307.27</ele>
        <time>2017-03-26T15:15:02Z</time>
      </trkpt>
      <trkpt lat="45.1756" lon="5.21685">
        <ele>307.27</ele>
        <time>2017-03-26T15:15:03Z</time>
      </trkpt>
      <trkpt lat="45.1756" lon="5.21685">
        <ele>307.27</ele>
        <time>2017-03-26T15:15:04Z</time>
      </trkpt>
      <trkpt lat="45.1756" lon="5.21685">
        <ele>307.27</ele>
        <time>2017-03-26T15:15:05Z</time>
      </trkpt>
      <trkpt lat="45.17567" lon="5.21675">
        <ele>307.43</ele>
        <time>2017-03-26T15:15:06Z</time>
      </trkpt>
      <trkpt lat="45.17568" lon="5.21675">
        <ele>307.46</ele>
        <time>2017-03-26T15:15:07Z</time>
      </trkpt>
      <trkpt lat="45.17569" lon="5.21674">
        <ele>307.47</ele>
        <time>2017-03-26T15:15:08Z</time>
      </trkpt>
      <trkpt lat="45.1757" lon="5.21673">
        <ele>307.47</ele>
        <time>2017-03-26T15:15:09Z</time>
      </trkpt>
      <trkpt lat="45.1757" lon="5.21673">
        <ele>307.47</ele>
        <time>2017-03-26T15:15:10Z</time>
      </trkpt>
      <trkpt lat="45.1757" lon="5.21673">
        <ele>307.47</ele>
        <time>2017-03-26T15:15:11Z</time>
      </trkpt>
      <trkpt lat="45.1757" lon="5.21673">
        <ele>307.47</ele>
        <time>2017-03-26T15:15:12Z</time>
      </trkpt>
      <trkpt lat="45.1757" lon="5.21673">
        <ele>307.47</ele>
        <time>2017-03-26T15:15:13Z</time>
      </trkpt>
      <trkpt lat="45.1757" lon="5.21673">
        <ele>307.47</ele>
        <time>2017-03-26T15:15:14Z</time>
      </trkpt>
      <trkpt lat="45.1757" lon="5.21673">
        <ele>307.47</ele>
        <time>2017-03-26T15:15:15Z</time>
      </trkpt>
      <trkpt lat="45.1757" lon="5.21673">
        <ele>307.47</ele>
        <time>2017-03-26T15:15:16Z</time>
      </trkpt>
      <trkpt lat="45.1757" lon="5.21673">
        <ele>307.47</ele>
        <time>2017-03-26T15:15:17Z</time>
      </trkpt>
      <trkpt lat="45.1757" lon="5.21673">
        <ele>307.47</ele>
        <time>2017-03-26T15:15:18Z</time>
      </trkpt>
      <trkpt lat="45.1757" lon="5.21673">
        <ele>307.47</ele>
        <time>2017-03-26T15:15:19Z</time>
      </trkpt>
      <trkpt lat="45.1757" lon="5.21673">
        <ele>307.47</ele>
        <time>2017-03-26T15:15:20Z</time>
      </trkpt>
      <trkpt lat="45.17572" lon="5.2166">
        <ele>308.43</ele>
        <time>2017-03-26T15:15:21Z</time>
      </trkpt>
      <trkpt lat="45.17572" lon="5.21659">
        <ele>308.7</ele>
        <time>2017-03-26T15:15:22Z</time>
      </trkpt>
      <trkpt lat="45.17573" lon="5.21659">
        <ele>308.75</ele>
        <time>2017-03-26T15:15:23Z</time>
      </trkpt>
      <trkpt lat="45.17573" lon="5.21657">
        <ele>308.85</ele>
        <time>2017-03-26T15:15:24Z</time>
      </trkpt>
      <trkpt lat="45.17573" lon="5.21657">
        <ele>308.86</ele>
        <time>2017-03-26T15:15:25Z</time>
      </trkpt>
      <trkpt lat="45.17573" lon="5.21657">
        <ele>308.87</ele>
        <time>2017-03-26T15:15:26Z</time>
      </trkpt>
      <trkpt lat="45.17573" lon="5.21657">
        <ele>308.87</ele>
        <time>2017-03-26T15:15:27Z</time>
      </trkpt>
      <trkpt lat="45.17573" lon="5.21657">
        <ele>308.87</ele>
        <time>2017-03-26T15:15:28Z</time>
      </trkpt>
      <trkpt lat="45.17573" lon="5.21657">
        <ele>308.87</ele>
        <time>2017-03-26T15:15:29Z</time>
      </trkpt>
      <trkpt lat="45.17573" lon="5.21657">
        <ele>308.87</ele>
        <time>2017-03-26T15:15:30Z</time>
      </trkpt>
      <trkpt lat="45.17573" lon="5.21657">
        <ele>308.87</ele>
        <time>2017-03-26T15:15:31Z</time>
      </trkpt>
      <trkpt lat="45.17573" lon="5.21657">
        <ele>308.87</ele>
        <time>2017-03-26T15:15:32Z</time>
      </trkpt>
      <trkpt lat="45.17573" lon="5.21657">
        <ele>308.87</ele>
        <time>2017-03-26T15:15:33Z</time>
      </trkpt>
      <trkpt lat="45.17581" lon="5.21649">
        <ele>309.03</ele>
        <time>2017-03-26T15:15:34Z</time>
      </trkpt>
      <trkpt lat="45.17581" lon="5.21648">
        <ele>309.14</ele>
        <time>2017-03-26T15:15:35Z</time>
      </trkpt>
      <trkpt lat="45.17582" lon="5.21647">
        <ele>309.16</ele>
        <time>2017-03-26T15:15:36Z</time>
      </trkpt>
      <trkpt lat="45.17582" lon="5.21646">
        <ele>309.17</ele>
        <time>2017-03-26T15:15:37Z</time>
      </trkpt>
      <trkpt lat="45.17582" lon="5.21646">
        <ele>309.17</ele>
        <time>2017-03-26T15:15:38Z</time>
      </trkpt>
      <trkpt lat="45.17582" lon="5.21646">
        <ele>309.17</ele>
        <time>2017-03-26T15:15:39Z</time>
      </trkpt>
      <trkpt lat="45.17582" lon="5.21646">
        <ele>309.17</ele>
        <time>2017-03-26T15:15:40Z</time>
      </trkpt>
      <trkpt lat="45.17582" lon="5.21646">
        <ele>309.17</ele>
        <time>2017-03-26T15:15:41Z</time>
      </trkpt>
      <trkpt lat="45.17582" lon="5.21646">
        <ele>309.17</ele>
        <time>2017-03-26T15:15:42Z</time>
      </trkpt>
      <trkpt lat="45.17582" lon="5.21646">
        <ele>309.17</ele>
        <time>2017-03-26T15:15:43Z</time>
      </trkpt>
      <trkpt lat="45.17582" lon="5.21646">
        <ele>309.17</ele>
        <time>2017-03-26T15:15:44Z</time>
      </trkpt>
      <trkpt lat="45.17582" lon="5.21646">
        <ele>309.17</ele>
        <time>2017-03-26T15:15:45Z</time>
      </trkpt>
      <trkpt lat="45.17582" lon="5.21646">
        <ele>309.17</ele>
        <time>2017-03-26T15:15:46Z</time>
      </trkpt>
      <trkpt lat="45.17589" lon="5.21637">
        <ele>309.01</ele>
        <time>2017-03-26T15:15:47Z</time>
      </trkpt>
      <trkpt lat="45.1759" lon="5.21637">
        <ele>309.06</ele>
        <time>2017-03-26T15:15:48Z</time>
      </trkpt>
      <trkpt lat="45.17591" lon="5.21636">
        <ele>309.07</ele>
        <time>2017-03-26T15:15:49Z</time>
      </trkpt>
      <trkpt lat="45.17592" lon="5.21636">
        <ele>308.99</ele>
        <time>2017-03-26T15:15:50Z</time>
      </trkpt>
      <trkpt lat="45.17592" lon="5.21636">
        <ele>308.97</ele>
        <time>2017-03-26T15:15:51Z</time>
      </trkpt>
      <trkpt lat="45.17592" lon="5.21636">
        <ele>308.97</ele>
        <time>2017-03-26T15:15:52Z</time>
      </trkpt>
      <trkpt lat="45.17592" lon="5.21636">
        <ele>308.97</ele>
        <time>2017-03-26T15:15:53Z</time>
      </trkpt>
      <trkpt lat="45.17592" lon="5.21636">
        <ele>308.97</ele>
        <time>2017-03-26T15:15:54Z</time>
      </trkpt>
      <trkpt lat="45.17592" lon="5.21636">
        <ele>308.97</ele>
        <time>2017-03-26T15:15:55Z</time>
      </trkpt>
      <trkpt lat="45.17592" lon="5.21636">
        <ele>308.97</ele>
        <time>2017-03-26T15:15:56Z</time>
      </trkpt>
      <trkpt lat="45.17592" lon="5.21636">
        <ele>308.97</ele>
        <time>2017-03-26T15:15:57Z</time>
      </trkpt>
      <trkpt lat="45.17592" lon="5.21636">
        <ele>308.97</ele>
        <time>2017-03-26T15:15:58Z</time>
      </trkpt>
      <trkpt lat="45.17592" lon="5.21636">
        <ele>308.97</ele>
        <time>2017-03-26T15:15:59Z</time>
      </trkpt>
      <trkpt lat="45.17592" lon="5.21636">
        <ele>308.97</ele>
        <time>2017-03-26T15:16:00Z</time>
      </trkpt>
      <trkpt lat="45.17592" lon="5.21636">
        <ele>308.97</ele>
        <time>2017-03-26T15:16:01Z</time>
      </trkpt>
      <trkpt lat="45.17592" lon="5.21636">
        <ele>308.97</ele>
        <time>2017-03-26T15:16:02Z</time>
      </trkpt>
      <trkpt lat="45.17602" lon="5.21636">
        <ele>309.61</ele>
        <time>2017-03-26T15:16:03Z</time>
      </trkpt>
      <trkpt lat="45.17603" lon="5.21637">
        <ele>309.74</ele>
        <time>2017-03-26T15:16:04Z</time>
      </trkpt>
      <trkpt lat="45.17604" lon="5.21637">
        <ele>309.76</ele>
        <time>2017-03-26T15:16:05Z</time>
      </trkpt>
      <trkpt lat="45.17604" lon="5.21637">
        <ele>309.69</ele>
        <time>2017-03-26T15:16:06Z</time>
      </trkpt>
      <trkpt lat="45.17604" lon="5.21638">
        <ele>309.67</ele>
        <time>2017-03-26T15:16:07Z</time>
      </trkpt>
      <trkpt lat="45.17604" lon="5.21638">
        <ele>309.67</ele>
        <time>2017-03-26T15:16:08Z</time>
      </trkpt>
      <trkpt lat="45.17604" lon="5.21638">
        <ele>309.67</ele>
        <time>2017-03-26T15:16:09Z</time>
      </trkpt>
      <trkpt lat="45.17604" lon="5.21638">
        <ele>309.67</ele>
        <time>2017-03-26T15:16:10Z</time>
      </trkpt>
      <trkpt lat="45.17604" lon="5.21638">
        <ele>309.67</ele>
        <time>2017-03-26T15:16:11Z</time>
      </trkpt>
      <trkpt lat="45.17604" lon="5.21638">
        <ele>309.67</ele>
        <time>2017-03-26T15:16:12Z</time>
      </trkpt>
      <trkpt lat="45.17604" lon="5.21638">
        <ele>309.67</ele>
        <time>2017-03-26T15:16:13Z</time>
      </trkpt>
      <trkpt lat="45.17604" lon="5.21638">
        <ele>309.67</ele>
        <time>2017-03-26T15:16:14Z</time>
      </trkpt>
      <trkpt lat="45.17604" lon="5.21638">
        <ele>309.67</ele>
        <time>2017-03-26T15:16:15Z</time>
      </trkpt>
      <trkpt lat="45.17604" lon="5.21638">
        <ele>309.67</ele>
        <time>2017-03-26T15:16:16Z</time>
      </trkpt>
      <trkpt lat="45.17604" lon="5.21638">
        <ele>309.67</ele>
        <time>2017-03-26T15:16:17Z</time>
      </trkpt>
      <trkpt lat="45.17604" lon="5.21638">
        <ele>309.67</ele>
        <time>2017-03-26T15:16:18Z</time>
      </trkpt>
      <trkpt lat="45.17604" lon="5.21638">
        <ele>309.67</ele>
        <time>2017-03-26T15:16:19Z</time>
      </trkpt>
      <trkpt lat="45.17604" lon="5.21638">
        <ele>309.67</ele>
        <time>2017-03-26T15:16:20Z</time>
      </trkpt>
      <trkpt lat="45.17604" lon="5.21638">
        <ele>309.67</ele>
        <time>2017-03-26T15:16:21Z</time>
      </trkpt>
      <trkpt lat="45.17604" lon="5.21638">
        <ele>309.67</ele>
        <time>2017-03-26T15:16:22Z</time>
      </trkpt>
      <trkpt lat="45.17604" lon="5.21638">
        <ele>309.67</ele>
        <time>2017-03-26T15:16:23Z</time>
      </trkpt>
      <trkpt lat="45.17604" lon="5.21638">
        <ele>309.67</ele>
        <time>2017-03-26T15:16:24Z</time>
      </trkpt>
      <trkpt lat="45.17604" lon="5.21638">
        <ele>309.67</ele>
        <time>2017-03-26T15:16:25Z</time>
      </trkpt>
      <trkpt lat="45.17604" lon="5.21638">
        <ele>309.67</ele>
        <time>2017-03-26T15:16:26Z</time>
      </trkpt>
      <trkpt lat="45.17604" lon="5.21638">
        <ele>309.67</ele>
        <time>2017-03-26T15:16:27Z</time>
      </trkpt>
      <trkpt lat="45.17604" lon="5.21638">
        <ele>309.67</ele>
        <time>2017-03-26T15:16:28Z</time>
      </trkpt>
      <trkpt lat="45.17604" lon="5.21638">
        <ele>309.67</ele>
        <time>2017-03-26T15:16:29Z</time>
      </trkpt>
      <trkpt lat="45.17604" lon="5.21638">
        <ele>309.67</ele>
        <time>2017-03-26T15:16:30Z</time>
      </trkpt>
      <trkpt lat="45.17604" lon="5.21638">
        <ele>309.67</ele>
        <time>2017-03-26T15:16:31Z</time>
      </trkpt>
      <trkpt lat="45.17604" lon="5.21638">
        <ele>309.67</ele>
        <time>2017-03-26T15:16:32Z</time>
      </trkpt>
      <trkpt lat="45.17604" lon="5.21638">
        <ele>309.67</ele>
        <time>2017-03-26T15:16:33Z</time>
      </trkpt>
      <trkpt lat="45.17604" lon="5.21638">
        <ele>309.67</ele>
        <time>2017-03-26T15:16:34Z</time>
      </trkpt>
      <trkpt lat="45.17604" lon="5.21638">
        <ele>309.67</ele>
        <time>2017-03-26T15:16:35Z</time>
      </trkpt>
      <trkpt lat="45.17604" lon="5.21638">
        <ele>309.67</ele>
        <time>2017-03-26T15:16:36Z</time>
      </trkpt>
      <trkpt lat="45.17613" lon="5.21643">
        <ele>309.19</ele>
        <time>2017-03-26T15:16:37Z</time>
      </trkpt>
      <trkpt lat="45.17613" lon="5.21643">
        <ele>309.09</ele>
        <time>2017-03-26T15:16:38Z</time>
      </trkpt>
      <trkpt lat="45.17614" lon="5.21645">
        <ele>308.99</ele>
        <time>2017-03-26T15:16:39Z</time>
      </trkpt>
      <trkpt lat="45.17614" lon="5.21646">
        <ele>308.97</ele>
        <time>2017-03-26T15:16:40Z</time>
      </trkpt>
      <trkpt lat="45.17614" lon="5.21646">
        <ele>308.97</ele>
        <time>2017-03-26T15:16:41Z</time>
      </trkpt>
      <trkpt lat="45.17614" lon="5.21646">
        <ele>308.97</ele>
        <time>2017-03-26T15:16:42Z</time>
      </trkpt>
      <trkpt lat="45.17614" lon="5.21646">
        <ele>308.97</ele>
        <time>2017-03-26T15:16:43Z</time>
      </trkpt>
      <trkpt lat="45.17614" lon="5.21646">
        <ele>308.97</ele>
        <time>2017-03-26T15:16:44Z</time>
      </trkpt>
      <trkpt lat="45.17614" lon="5.21646">
        <ele>308.97</ele>
        <time>2017-03-26T15:16:45Z</time>
      </trkpt>
      <trkpt lat="45.17614" lon="5.21646">
        <ele>308.97</ele>
        <time>2017-03-26T15:16:46Z</time>
      </trkpt>
      <trkpt lat="45.17614" lon="5.21646">
        <ele>308.97</ele>
        <time>2017-03-26T15:16:47Z</time>
      </trkpt>
      <trkpt lat="45.17614" lon="5.21646">
        <ele>308.97</ele>
        <time>2017-03-26T15:16:48Z</time>
      </trkpt>
      <trkpt lat="45.17614" lon="5.21646">
        <ele>308.97</ele>
        <time>2017-03-26T15:16:49Z</time>
      </trkpt>
      <trkpt lat="45.17614" lon="5.21646">
        <ele>308.97</ele>
        <time>2017-03-26T15:16:50Z</time>
      </trkpt>
      <trkpt lat="45.1762" lon="5.21657">
        <ele>308.81</ele>
        <time>2017-03-26T15:16:51Z</time>
      </trkpt>
      <trkpt lat="45.17621" lon="5.21658">
        <ele>308.78</ele>
        <time>2017-03-26T15:16:52Z</time>
      </trkpt>
      <trkpt lat="45.17621" lon="5.21659">
        <ele>308.77</ele>
        <time>2017-03-26T15:16:53Z</time>
      </trkpt>
      <trkpt lat="45.17622" lon="5.2166">
        <ele>308.77</ele>
        <time>2017-03-26T15:16:54Z</time>
      </trkpt>
      <trkpt lat="45.17622" lon="5.2166">
        <ele>308.77</ele>
        <time>2017-03-26T15:16:55Z</time>
      </trkpt>
      <trkpt lat="45.17622" lon="5.2166">
        <ele>308.77</ele>
        <time>2017-03-26T15:16:56Z</time>
      </trkpt>
      <trkpt lat="45.17622" lon="5.2166">
        <ele>308.77</ele>
        <time>2017-03-26T15:16:57Z</time>
      </trkpt>
      <trkpt lat="45.17622" lon="5.2166">
        <ele>308.77</ele>
        <time>2017-03-26T15:16:58Z</time>
      </trkpt>
      <trkpt lat="45.17626" lon="5.21662">
        <ele>308.69</ele>
        <time>2017-03-26T15:16:59Z</time>
      </trkpt>
      <trkpt lat="45.17627" lon="5.21663">
        <ele>308.67</ele>
        <time>2017-03-26T15:17:00Z</time>
      </trkpt>
      <trkpt lat="45.17627" lon="5.21666">
        <ele>308.67</ele>
        <time>2017-03-26T15:17:01Z</time>
      </trkpt>
      <trkpt lat="45.1763" lon="5.21667">
        <ele>308.67</ele>
        <time>2017-03-26T15:17:02Z</time>
      </trkpt>
      <trkpt lat="45.17633" lon="5.21667">
        <ele>308.59</ele>
        <time>2017-03-26T15:17:03Z</time>
      </trkpt>
      <trkpt lat="45.17635" lon="5.21667">
        <ele>308.57</ele>
        <time>2017-03-26T15:17:04Z</time>
      </trkpt>
      <trkpt lat="45.17638" lon="5.21667">
        <ele>308.57</ele>
        <time>2017-03-26T15:17:05Z</time>
      </trkpt>
      <trkpt lat="45.17641" lon="5.21668">
        <ele>308.57</ele>
        <time>2017-03-26T15:17:06Z</time>
      </trkpt>
      <trkpt lat="45.17643" lon="5.21669">
        <ele>308.57</ele>
        <time>2017-03-26T15:17:07Z</time>
      </trkpt>
      <trkpt lat="45.17645" lon="5.21669">
        <ele>308.49</ele>
        <time>2017-03-26T15:17:08Z</time>
      </trkpt>
      <trkpt lat="45.17648" lon="5.21669">
        <ele>308.47</ele>
        <time>2017-03-26T15:17:09Z</time>
      </trkpt>
      <trkpt lat="45.1765" lon="5.21669">
        <ele>308.47</ele>
        <time>2017-03-26T15:17:10Z</time>
      </trkpt>
      <trkpt lat="45.17653" lon="5.21668">
        <ele>308.47</ele>
        <time>2017-03-26T15:17:11Z</time>
      </trkpt>
      <trkpt lat="45.17655" lon="5.21668">
        <ele>308.39</ele>
        <time>2017-03-26T15:17:12Z</time>
      </trkpt>
      <trkpt lat="45.17658" lon="5.21668">
        <ele>308.37</ele>
        <time>2017-03-26T15:17:13Z</time>
      </trkpt>
      <trkpt lat="45.17661" lon="5.21668">
        <ele>308.37</ele>
        <time>2017-03-26T15:17:14Z</time>
      </trkpt>
      <trkpt lat="45.17663" lon="5.21667">
        <ele>308.37</ele>
        <time>2017-03-26T15:17:15Z</time>
      </trkpt>
      <trkpt lat="45.17666" lon="5.21663">
        <ele>308.37</ele>
        <time>2017-03-26T15:17:16Z</time>
      </trkpt>
      <trkpt lat="45.17668" lon="5.21661">
        <ele>308.29</ele>
        <time>2017-03-26T15:17:17Z</time>
      </trkpt>
      <trkpt lat="45.1767" lon="5.21659">
        <ele>308.27</ele>
        <time>2017-03-26T15:17:18Z</time>
      </trkpt>
      <trkpt lat="45.17671" lon="5.21658">
        <ele>308.27</ele>
        <time>2017-03-26T15:17:19Z</time>
      </trkpt>
      <trkpt lat="45.17671" lon="5.21657">
        <ele>308.27</ele>
        <time>2017-03-26T15:17:20Z</time>
      </trkpt>
      <trkpt lat="45.17673" lon="5.21654">
        <ele>308.19</ele>
        <time>2017-03-26T15:17:21Z</time>
      </trkpt>
      <trkpt lat="45.17674" lon="5.2165">
        <ele>308.17</ele>
        <time>2017-03-26T15:17:22Z</time>
      </trkpt>
      <trkpt lat="45.17676" lon="5.21647">
        <ele>308.17</ele>
        <time>2017-03-26T15:17:23Z</time>
      </trkpt>
      <trkpt lat="45.17678" lon="5.21646">
        <ele>308.17</ele>
        <time>2017-03-26T15:17:24Z</time>
      </trkpt>
      <trkpt lat="45.17681" lon="5.21644">
        <ele>308.09</ele>
        <time>2017-03-26T15:17:25Z</time>
      </trkpt>
      <trkpt lat="45.17683" lon="5.21643">
        <ele>308.07</ele>
        <time>2017-03-26T15:17:26Z</time>
      </trkpt>
      <trkpt lat="45.17682" lon="5.21641">
        <ele>308.07</ele>
        <time>2017-03-26T15:17:27Z</time>
      </trkpt>
      <trkpt lat="45.17682" lon="5.2164">
        <ele>308.07</ele>
        <time>2017-03-26T15:17:28Z</time>
      </trkpt>
      <trkpt lat="45.17682" lon="5.21639">
        <ele>308.07</ele>
        <time>2017-03-26T15:17:29Z</time>
      </trkpt>
      <trkpt lat="45.17681" lon="5.21638">
        <ele>307.99</ele>
        <time>2017-03-26T15:17:30Z</time>
      </trkpt>
      <trkpt lat="45.1768" lon="5.21636">
        <ele>307.97</ele>
        <time>2017-03-26T15:17:31Z</time>
      </trkpt>
      <trkpt lat="45.17677" lon="5.21633">
        <ele>307.97</ele>
        <time>2017-03-26T15:17:32Z</time>
      </trkpt>
      <trkpt lat="45.17676" lon="5.21631">
        <ele>307.97</ele>
        <time>2017-03-26T15:17:33Z</time>
      </trkpt>
      <trkpt lat="45.17669" lon="5.21626">
        <ele>307.89</ele>
        <time>2017-03-26T15:17:34Z</time>
      </trkpt>
      <trkpt lat="45.17666" lon="5.21623">
        <ele>307.87</ele>
        <time>2017-03-26T15:17:35Z</time>
      </trkpt>
      <trkpt lat="45.1766" lon="5.21617">
        <ele>307.87</ele>
        <time>2017-03-26T15:17:36Z</time>
      </trkpt>
      <trkpt lat="45.1766" lon="5.21617">
        <ele>307.87</ele>
        <time>2017-03-26T15:17:37Z</time>
      </trkpt>
      <trkpt lat="45.17652" lon="5.21608">
        <ele>307.79</ele>
        <time>2017-03-26T15:17:38Z</time>
      </trkpt>
      <trkpt lat="45.17648" lon="5.21605">
        <ele>307.77</ele>
        <time>2017-03-26T15:17:39Z</time>
      </trkpt>
      <trkpt lat="45.17645" lon="5.21602">
        <ele>307.77</ele>
        <time>2017-03-26T15:17:40Z</time>
      </trkpt>
      <trkpt lat="45.17647" lon="5.21607">
        <ele>307.77</ele>
        <time>2017-03-26T15:17:41Z</time>
      </trkpt>
      <trkpt lat="45.17647" lon="5.21607">
        <ele>307.77</ele>
        <time>2017-03-26T15:17:42Z</time>
      </trkpt>
      <trkpt lat="45.17647" lon="5.21607">
        <ele>307.77</ele>
        <time>2017-03-26T15:17:43Z</time>
      </trkpt>
      <trkpt lat="45.17639" lon="5.21613">
        <ele>307.69</ele>
        <time>2017-03-26T15:17:44Z</time>
      </trkpt>
      <trkpt lat="45.17635" lon="5.21616">
        <ele>307.67</ele>
        <time>2017-03-26T15:17:45Z</time>
      </trkpt>
      <trkpt lat="45.17632" lon="5.21619">
        <ele>307.59</ele>
        <time>2017-03-26T15:17:46Z</time>
      </trkpt>
      <trkpt lat="45.17627" lon="5.21622">
        <ele>307.57</ele>
        <time>2017-03-26T15:17:47Z</time>
      </trkpt>
      <trkpt lat="45.17627" lon="5.21622">
        <ele>307.57</ele>
        <time>2017-03-26T15:17:48Z</time>
      </trkpt>
      <trkpt lat="45.17627" lon="5.21622">
        <ele>307.57</ele>
        <time>2017-03-26T15:17:49Z</time>
      </trkpt>
      <trkpt lat="45.1762" lon="5.2163">
        <ele>307.57</ele>
        <time>2017-03-26T15:17:50Z</time>
      </trkpt>
      <trkpt lat="45.17618" lon="5.21633">
        <ele>307.57</ele>
        <time>2017-03-26T15:17:51Z</time>
      </trkpt>
      <trkpt lat="45.17616" lon="5.21635">
        <ele>307.57</ele>
        <time>2017-03-26T15:17:52Z</time>
      </trkpt>
      <trkpt lat="45.17615" lon="5.21639">
        <ele>307.57</ele>
        <time>2017-03-26T15:17:53Z</time>
      </trkpt>
      <trkpt lat="45.17615" lon="5.21639">
        <ele>307.57</ele>
        <time>2017-03-26T15:17:54Z</time>
      </trkpt>
      <trkpt lat="45.17615" lon="5.21639">
        <ele>307.57</ele>
        <time>2017-03-26T15:17:55Z</time>
      </trkpt>
      <trkpt lat="45.17615" lon="5.21639">
        <ele>307.57</ele>
        <time>2017-03-26T15:17:56Z</time>
      </trkpt>
      <trkpt lat="45.17615" lon="5.21639">
        <ele>307.57</ele>
        <time>2017-03-26T15:17:57Z</time>
      </trkpt>
      <trkpt lat="45.17615" lon="5.21639">
        <ele>307.57</ele>
        <time>2017-03-26T15:17:58Z</time>
      </trkpt>
      <trkpt lat="45.17615" lon="5.21639">
        <ele>307.57</ele>
        <time>2017-03-26T15:17:59Z</time>
      </trkpt>
      <trkpt lat="45.17615" lon="5.21639">
        <ele>307.57</ele>
        <time>2017-03-26T15:18:00Z</time>
      </trkpt>
      <trkpt lat="45.17615" lon="5.21639">
        <ele>307.57</ele>
        <time>2017-03-26T15:18:01Z</time>
      </trkpt>
      <trkpt lat="45.17615" lon="5.21639">
        <ele>307.57</ele>
        <time>2017-03-26T15:18:02Z</time>
      </trkpt>
      <trkpt lat="45.17615" lon="5.21639">
        <ele>307.57</ele>
        <time>2017-03-26T15:18:03Z</time>
      </trkpt>
      <trkpt lat="45.17615" lon="5.21639">
        <ele>307.57</ele>
        <time>2017-03-26T15:18:04Z</time>
      </trkpt>
      <trkpt lat="45.17615" lon="5.21639">
        <ele>307.57</ele>
        <time>2017-03-26T15:18:05Z</time>
      </trkpt>
      <trkpt lat="45.17615" lon="5.21639">
        <ele>307.57</ele>
        <time>2017-03-26T15:18:06Z</time>
      </trkpt>
      <trkpt lat="45.17615" lon="5.21639">
        <ele>307.57</ele>
        <time>2017-03-26T15:18:07Z</time>
      </trkpt>
      <trkpt lat="45.17615" lon="5.21639">
        <ele>307.57</ele>
        <time>2017-03-26T15:18:08Z</time>
      </trkpt>
      <trkpt lat="45.17615" lon="5.21639">
        <ele>307.57</ele>
        <time>2017-03-26T15:18:09Z</time>
      </trkpt>
      <trkpt lat="45.17615" lon="5.21639">
        <ele>307.57</ele>
        <time>2017-03-26T15:18:10Z</time>
      </trkpt>
      <trkpt lat="45.17615" lon="5.21639">
        <ele>307.57</ele>
        <time>2017-03-26T15:18:11Z</time>
      </trkpt>
      <trkpt lat="45.17615" lon="5.21639">
        <ele>307.57</ele>
        <time>2017-03-26T15:18:12Z</time>
      </trkpt>
      <trkpt lat="45.17615" lon="5.21639">
        <ele>307.57</ele>
        <time>2017-03-26T15:18:13Z</time>
      </trkpt>
      <trkpt lat="45.17615" lon="5.21639">
        <ele>307.57</ele>
        <time>2017-03-26T15:18:14Z</time>
      </trkpt>
      <trkpt lat="45.17615" lon="5.21639">
        <ele>307.57</ele>
        <time>2017-03-26T15:18:15Z</time>
      </trkpt>
      <trkpt lat="45.17615" lon="5.21639">
        <ele>307.57</ele>
        <time>2017-03-26T15:18:16Z</time>
      </trkpt>
      <trkpt lat="45.17615" lon="5.21639">
        <ele>307.57</ele>
        <time>2017-03-26T15:18:17Z</time>
      </trkpt>
      <trkpt lat="45.17615" lon="5.21639">
        <ele>307.57</ele>
        <time>2017-03-26T15:18:18Z</time>
      </trkpt>
      <trkpt lat="45.1762" lon="5.21623">
        <ele>307.25</ele>
        <time>2017-03-26T15:18:19Z</time>
      </trkpt>
      <trkpt lat="45.17621" lon="5.2162">
        <ele>307.18</ele>
        <time>2017-03-26T15:18:20Z</time>
      </trkpt>
      <trkpt lat="45.17621" lon="5.21619">
        <ele>307.17</ele>
        <time>2017-03-26T15:18:21Z</time>
      </trkpt>
      <trkpt lat="45.17621" lon="5.21617">
        <ele>307.17</ele>
        <time>2017-03-26T15:18:22Z</time>
      </trkpt>
      <trkpt lat="45.17621" lon="5.21617">
        <ele>307.17</ele>
        <time>2017-03-26T15:18:23Z</time>
      </trkpt>
      <trkpt lat="45.17621" lon="5.21617">
        <ele>307.17</ele>
        <time>2017-03-26T15:18:24Z</time>
      </trkpt>
      <trkpt lat="45.17621" lon="5.21617">
        <ele>307.17</ele>
        <time>2017-03-26T15:18:25Z</time>
      </trkpt>
      <trkpt lat="45.17621" lon="5.21617">
        <ele>307.17</ele>
        <time>2017-03-26T15:18:26Z</time>
      </trkpt>
      <trkpt lat="45.17621" lon="5.21617">
        <ele>307.17</ele>
        <time>2017-03-26T15:18:27Z</time>
      </trkpt>
      <trkpt lat="45.17621" lon="5.21617">
        <ele>307.17</ele>
        <time>2017-03-26T15:18:28Z</time>
      </trkpt>
      <trkpt lat="45.17621" lon="5.21617">
        <ele>307.17</ele>
        <time>2017-03-26T15:18:29Z</time>
      </trkpt>
      <trkpt lat="45.17621" lon="5.21617">
        <ele>307.17</ele>
        <time>2017-03-26T15:18:30Z</time>
      </trkpt>
      <trkpt lat="45.17621" lon="5.21617">
        <ele>307.17</ele>
        <time>2017-03-26T15:18:31Z</time>
      </trkpt>
      <trkpt lat="45.17621" lon="5.21617">
        <ele>307.17</ele>
        <time>2017-03-26T15:18:32Z</time>
      </trkpt>
      <trkpt lat="45.17621" lon="5.21617">
        <ele>307.17</ele>
        <time>2017-03-26T15:18:33Z</time>
      </trkpt>
      <trkpt lat="45.17621" lon="5.21617">
        <ele>307.17</ele>
        <time>2017-03-26T15:18:34Z</time>
      </trkpt>
      <trkpt lat="45.17618" lon="5.21604">
        <ele>307.17</ele>
        <time>2017-03-26T15:18:35Z</time>
      </trkpt>
      <trkpt lat="45.17617" lon="5.21604">
        <ele>307.17</ele>
        <time>2017-03-26T15:18:36Z</time>
      </trkpt>
      <trkpt lat="45.17617" lon="5.21604">
        <ele>307.17</ele>
        <time>2017-03-26T15:18:37Z</time>
      </trkpt>
      <trkpt lat="45.17616" lon="5.21604">
        <ele>307.17</ele>
        <time>2017-03-26T15:18:38Z</time>
      </trkpt>
      <trkpt lat="45.17616" lon="5.21604">
        <ele>307.17</ele>
        <time>2017-03-26T15:18:39Z</time>
      </trkpt>
      <trkpt lat="45.17616" lon="5.21604">
        <ele>307.17</ele>
        <time>2017-03-26T15:18:40Z</time>
      </trkpt>
      <trkpt lat="45.17616" lon="5.21604">
        <ele>307.17</ele>
        <time>2017-03-26T15:18:41Z</time>
      </trkpt>
      <trkpt lat="45.17616" lon="5.21604">
        <ele>307.17</ele>
        <time>2017-03-26T15:18:42Z</time>
      </trkpt>
      <trkpt lat="45.17611" lon="5.21624">
        <ele>307.17</ele>
        <time>2017-03-26T15:18:43Z</time>
      </trkpt>
      <trkpt lat="45.17611" lon="5.21624">
        <ele>307.09</ele>
        <time>2017-03-26T15:18:44Z</time>
      </trkpt>
      <trkpt lat="45.17611" lon="5.21623">
        <ele>307.07</ele>
        <time>2017-03-26T15:18:45Z</time>
      </trkpt>
      <trkpt lat="45.17612" lon="5.21623">
        <ele>307.07</ele>
        <time>2017-03-26T15:18:46Z</time>
      </trkpt>
      <trkpt lat="45.17612" lon="5.21623">
        <ele>307.07</ele>
        <time>2017-03-26T15:18:47Z</time>
      </trkpt>
      <trkpt lat="45.17612" lon="5.21623">
        <ele>307.07</ele>
        <time>2017-03-26T15:18:48Z</time>
      </trkpt>
      <trkpt lat="45.17612" lon="5.21623">
        <ele>307.07</ele>
        <time>2017-03-26T15:18:49Z</time>
      </trkpt>
      <trkpt lat="45.17612" lon="5.21623">
        <ele>307.07</ele>
        <time>2017-03-26T15:18:50Z</time>
      </trkpt>
      <trkpt lat="45.17617" lon="5.21606">
        <ele>306.83</ele>
        <time>2017-03-26T15:18:51Z</time>
      </trkpt>
      <trkpt lat="45.17616" lon="5.21591">
        <ele>306.7</ele>
        <time>2017-03-26T15:18:52Z</time>
      </trkpt>
      <trkpt lat="45.17627" lon="5.21589">
        <ele>306.99</ele>
        <time>2017-03-26T15:18:53Z</time>
      </trkpt>
      <trkpt lat="45.17628" lon="5.21587">
        <ele>307.05</ele>
        <time>2017-03-26T15:18:54Z</time>
      </trkpt>
      <trkpt lat="45.17628" lon="5.21585">
        <ele>307.15</ele>
        <time>2017-03-26T15:18:55Z</time>
      </trkpt>
      <trkpt lat="45.17629" lon="5.21586">
        <ele>307.16</ele>
        <time>2017-03-26T15:18:56Z</time>
      </trkpt>
      <trkpt lat="45.17629" lon="5.21584">
        <ele>307.17</ele>
        <time>2017-03-26T15:18:57Z</time>
      </trkpt>
      <trkpt lat="45.17629" lon="5.21582">
        <ele>307.25</ele>
        <time>2017-03-26T15:18:58Z</time>
      </trkpt>
      <trkpt lat="45.17629" lon="5.21578">
        <ele>307.26</ele>
        <time>2017-03-26T15:18:59Z</time>
      </trkpt>
      <trkpt lat="45.17629" lon="5.21576">
        <ele>307.35</ele>
        <time>2017-03-26T15:19:00Z</time>
      </trkpt>
      <trkpt lat="45.17629" lon="5.21572">
        <ele>307.36</ele>
        <time>2017-03-26T15:19:01Z</time>
      </trkpt>
      <trkpt lat="45.17629" lon="5.2157">
        <ele>307.37</ele>
        <time>2017-03-26T15:19:02Z</time>
      </trkpt>
      <trkpt lat="45.17628" lon="5.21563">
        <ele>307.45</ele>
        <time>2017-03-26T15:19:03Z</time>
      </trkpt>
      <trkpt lat="45.17627" lon="5.21559">
        <ele>307.46</ele>
        <time>2017-03-26T15:19:04Z</time>
      </trkpt>
      <trkpt lat="45.17627" lon="5.21557">
        <ele>307.63</ele>
        <time>2017-03-26T15:19:05Z</time>
      </trkpt>
      <trkpt lat="45.17626" lon="5.21555">
        <ele>307.66</ele>
        <time>2017-03-26T15:19:06Z</time>
      </trkpt>
      <trkpt lat="45.17627" lon="5.21553">
        <ele>307.75</ele>
        <time>2017-03-26T15:19:07Z</time>
      </trkpt>
      <trkpt lat="45.17628" lon="5.21553">
        <ele>307.76</ele>
        <time>2017-03-26T15:19:08Z</time>
      </trkpt>
      <trkpt lat="45.17629" lon="5.21554">
        <ele>307.69</ele>
        <time>2017-03-26T15:19:09Z</time>
      </trkpt>
      <trkpt lat="45.1763" lon="5.21554">
        <ele>307.75</ele>
        <time>2017-03-26T15:19:10Z</time>
      </trkpt>
      <trkpt lat="45.17631" lon="5.21553">
        <ele>307.76</ele>
        <time>2017-03-26T15:19:11Z</time>
      </trkpt>
      <trkpt lat="45.17631" lon="5.21553">
        <ele>307.85</ele>
        <time>2017-03-26T15:19:12Z</time>
      </trkpt>
      <trkpt lat="45.17631" lon="5.21553">
        <ele>307.86</ele>
        <time>2017-03-26T15:19:13Z</time>
      </trkpt>
      <trkpt lat="45.17634" lon="5.21552">
        <ele>308.03</ele>
        <time>2017-03-26T15:19:14Z</time>
      </trkpt>
      <trkpt lat="45.17635" lon="5.21551">
        <ele>308.06</ele>
        <time>2017-03-26T15:19:15Z</time>
      </trkpt>
      <trkpt lat="45.17635" lon="5.21551">
        <ele>308.15</ele>
        <time>2017-03-26T15:19:16Z</time>
      </trkpt>
      <trkpt lat="45.17636" lon="5.2155">
        <ele>308.08</ele>
        <time>2017-03-26T15:19:17Z</time>
      </trkpt>
      <trkpt lat="45.17636" lon="5.21549">
        <ele>308.07</ele>
        <time>2017-03-26T15:19:18Z</time>
      </trkpt>
      <trkpt lat="45.17636" lon="5.21549">
        <ele>308.07</ele>
        <time>2017-03-26T15:19:19Z</time>
      </trkpt>
      <trkpt lat="45.17636" lon="5.21549">
        <ele>308.07</ele>
        <time>2017-03-26T15:19:20Z</time>
      </trkpt>
      <trkpt lat="45.17636" lon="5.21549">
        <ele>308.07</ele>
        <time>2017-03-26T15:19:21Z</time>
      </trkpt>
      <trkpt lat="45.17636" lon="5.21549">
        <ele>308.07</ele>
        <time>2017-03-26T15:19:22Z</time>
      </trkpt>
      <trkpt lat="45.17636" lon="5.21549">
        <ele>308.07</ele>
        <time>2017-03-26T15:19:23Z</time>
      </trkpt>
      <trkpt lat="45.17636" lon="5.21549">
        <ele>308.07</ele>
        <time>2017-03-26T15:19:24Z</time>
      </trkpt>
      <trkpt lat="45.17636" lon="5.21549">
        <ele>308.07</ele>
        <time>2017-03-26T15:19:25Z</time>
      </trkpt>
      <trkpt lat="45.17636" lon="5.21549">
        <ele>308.07</ele>
        <time>2017-03-26T15:19:26Z</time>
      </trkpt>
      <trkpt lat="45.17636" lon="5.21549">
        <ele>308.07</ele>
        <time>2017-03-26T15:19:27Z</time>
      </trkpt>
      <trkpt lat="45.17636" lon="5.21549">
        <ele>308.07</ele>
        <time>2017-03-26T15:19:28Z</time>
      </trkpt>
      <trkpt lat="45.17636" lon="5.21549">
        <ele>308.07</ele>
        <time>2017-03-26T15:19:29Z</time>
      </trkpt>
      <trkpt lat="45.17636" lon="5.21549">
        <ele>308.07</ele>
        <time>2017-03-26T15:19:30Z</time>
      </trkpt>
      <trkpt lat="45.17636" lon="5.21549">
        <ele>308.07</ele>
        <time>2017-03-26T15:19:31Z</time>
      </trkpt>
      <trkpt lat="45.17636" lon="5.21549">
        <ele>308.07</ele>
        <time>2017-03-26T15:19:32Z</time>
      </trkpt>
      <trkpt lat="45.17636" lon="5.21549">
        <ele>308.07</ele>
        <time>2017-03-26T15:19:33Z</time>
      </trkpt>
      <trkpt lat="45.17636" lon="5.21549">
        <ele>308.07</ele>
        <time>2017-03-26T15:19:34Z</time>
      </trkpt>
      <trkpt lat="45.17636" lon="5.21549">
        <ele>308.07</ele>
        <time>2017-03-26T15:19:35Z</time>
      </trkpt>
      <trkpt lat="45.17636" lon="5.21549">
        <ele>308.07</ele>
        <time>2017-03-26T15:19:36Z</time>
      </trkpt>
      <trkpt lat="45.17636" lon="5.21549">
        <ele>308.07</ele>
        <time>2017-03-26T15:19:37Z</time>
      </trkpt>
      <trkpt lat="45.17636" lon="5.21549">
        <ele>308.07</ele>
        <time>2017-03-26T15:19:38Z</time>
      </trkpt>
      <trkpt lat="45.17636" lon="5.21549">
        <ele>308.07</ele>
        <time>2017-03-26T15:19:39Z</time>
      </trkpt>
      <trkpt lat="45.17636" lon="5.21549">
        <ele>308.07</ele>
        <time>2017-03-26T15:19:40Z</time>
      </trkpt>
      <trkpt lat="45.17636" lon="5.21549">
        <ele>308.07</ele>
        <time>2017-03-26T15:19:41Z</time>
      </trkpt>
      <trkpt lat="45.17636" lon="5.21549">
        <ele>308.07</ele>
        <time>2017-03-26T15:19:42Z</time>
      </trkpt>
      <trkpt lat="45.17636" lon="5.21549">
        <ele>308.07</ele>
        <time>2017-03-26T15:19:43Z</time>
      </trkpt>
      <trkpt lat="45.17636" lon="5.21549">
        <ele>308.07</ele>
        <time>2017-03-26T15:19:44Z</time>
      </trkpt>
      <trkpt lat="45.17636" lon="5.21549">
        <ele>308.07</ele>
        <time>2017-03-26T15:19:45Z</time>
      </trkpt>
      <trkpt lat="45.17636" lon="5.21549">
        <ele>308.07</ele>
        <time>2017-03-26T15:19:46Z</time>
      </trkpt>
      <trkpt lat="45.17636" lon="5.21549">
        <ele>308.07</ele>
        <time>2017-03-26T15:19:47Z</time>
      </trkpt>
      <trkpt lat="45.17636" lon="5.21549">
        <ele>308.07</ele>
        <time>2017-03-26T15:19:48Z</time>
      </trkpt>
      <trkpt lat="45.17636" lon="5.21549">
        <ele>308.07</ele>
        <time>2017-03-26T15:19:49Z</time>
      </trkpt>
      <trkpt lat="45.17636" lon="5.21549">
        <ele>308.07</ele>
        <time>2017-03-26T15:19:50Z</time>
      </trkpt>
      <trkpt lat="45.17636" lon="5.21549">
        <ele>308.07</ele>
        <time>2017-03-26T15:19:51Z</time>
      </trkpt>
      <trkpt lat="45.17636" lon="5.21549">
        <ele>308.07</ele>
        <time>2017-03-26T15:19:52Z</time>
      </trkpt>
      <trkpt lat="45.17636" lon="5.21549">
        <ele>308.07</ele>
        <time>2017-03-26T15:19:53Z</time>
      </trkpt>
      <trkpt lat="45.17636" lon="5.21549">
        <ele>308.07</ele>
        <time>2017-03-26T15:19:54Z</time>
      </trkpt>
      <trkpt lat="45.17636" lon="5.21549">
        <ele>308.07</ele>
        <time>2017-03-26T15:19:55Z</time>
      </trkpt>
      <trkpt lat="45.17631" lon="5.21559">
        <ele>308.31</ele>
        <time>2017-03-26T15:19:56Z</time>
      </trkpt>
      <trkpt lat="45.17631" lon="5.2156">
        <ele>308.52</ele>
        <time>2017-03-26T15:19:57Z</time>
      </trkpt>
      <trkpt lat="45.17631" lon="5.21559">
        <ele>308.64</ele>
        <time>2017-03-26T15:19:58Z</time>
      </trkpt>
      <trkpt lat="45.17632" lon="5.21558">
        <ele>308.82</ele>
        <time>2017-03-26T15:19:59Z</time>
      </trkpt>
      <trkpt lat="45.17632" lon="5.21558">
        <ele>308.86</ele>
        <time>2017-03-26T15:20:00Z</time>
      </trkpt>
      <trkpt lat="45.17633" lon="5.21556">
        <ele>309.03</ele>
        <time>2017-03-26T15:20:01Z</time>
      </trkpt>
      <trkpt lat="45.17634" lon="5.21555">
        <ele>309.06</ele>
        <time>2017-03-26T15:20:02Z</time>
      </trkpt>
      <trkpt lat="45.17635" lon="5.21554">
        <ele>309.15</ele>
        <time>2017-03-26T15:20:03Z</time>
      </trkpt>
      <trkpt lat="45.17636" lon="5.21553">
        <ele>309.16</ele>
        <time>2017-03-26T15:20:04Z</time>
      </trkpt>
      <trkpt lat="45.17637" lon="5.21553">
        <ele>309.25</ele>
        <time>2017-03-26T15:20:05Z</time>
      </trkpt>
      <trkpt lat="45.17637" lon="5.21553">
        <ele>309.26</ele>
        <time>2017-03-26T15:20:06Z</time>
      </trkpt>
      <trkpt lat="45.17637" lon="5.21553">
        <ele>309.27</ele>
        <time>2017-03-26T15:20:07Z</time>
      </trkpt>
      <trkpt lat="45.17637" lon="5.21553">
        <ele>309.27</ele>
        <time>2017-03-26T15:20:08Z</time>
      </trkpt>
      <trkpt lat="45.17637" lon="5.21553">
        <ele>309.27</ele>
        <time>2017-03-26T15:20:09Z</time>
      </trkpt>
      <trkpt lat="45.17637" lon="5.21553">
        <ele>309.27</ele>
        <time>2017-03-26T15:20:10Z</time>
      </trkpt>
      <trkpt lat="45.17637" lon="5.21553">
        <ele>309.27</ele>
        <time>2017-03-26T15:20:11Z</time>
      </trkpt>
      <trkpt lat="45.17637" lon="5.21553">
        <ele>309.27</ele>
        <time>2017-03-26T15:20:12Z</time>
      </trkpt>
      <trkpt lat="45.17637" lon="5.21553">
        <ele>309.27</ele>
        <time>2017-03-26T15:20:13Z</time>
      </trkpt>
      <trkpt lat="45.17637" lon="5.21553">
        <ele>309.27</ele>
        <time>2017-03-26T15:20:14Z</time>
      </trkpt>
      <trkpt lat="45.17637" lon="5.21553">
        <ele>309.27</ele>
        <time>2017-03-26T15:20:15Z</time>
      </trkpt>
      <trkpt lat="45.17637" lon="5.21553">
        <ele>309.27</ele>
        <time>2017-03-26T15:20:16Z</time>
      </trkpt>
      <trkpt lat="45.17637" lon="5.21553">
        <ele>309.27</ele>
        <time>2017-03-26T15:20:17Z</time>
      </trkpt>
      <trkpt lat="45.17637" lon="5.21553">
        <ele>309.27</ele>
        <time>2017-03-26T15:20:18Z</time>
      </trkpt>
      <trkpt lat="45.17637" lon="5.21553">
        <ele>309.27</ele>
        <time>2017-03-26T15:20:19Z</time>
      </trkpt>
      <trkpt lat="45.17637" lon="5.21553">
        <ele>309.27</ele>
        <time>2017-03-26T15:20:20Z</time>
      </trkpt>
      <trkpt lat="45.17637" lon="5.21553">
        <ele>309.27</ele>
        <time>2017-03-26T15:20:21Z</time>
      </trkpt>
      <trkpt lat="45.17637" lon="5.21553">
        <ele>309.27</ele>
        <time>2017-03-26T15:20:22Z</time>
      </trkpt>
      <trkpt lat="45.17637" lon="5.21553">
        <ele>309.27</ele>
        <time>2017-03-26T15:20:23Z</time>
      </trkpt>
      <trkpt lat="45.17637" lon="5.21553">
        <ele>309.27</ele>
        <time>2017-03-26T15:20:24Z</time>
      </trkpt>
      <trkpt lat="45.17637" lon="5.21553">
        <ele>309.27</ele>
        <time>2017-03-26T15:20:25Z</time>
      </trkpt>
      <trkpt lat="45.17637" lon="5.21553">
        <ele>309.27</ele>
        <time>2017-03-26T15:20:26Z</time>
      </trkpt>
      <trkpt lat="45.17637" lon="5.21553">
        <ele>309.27</ele>
        <time>2017-03-26T15:20:27Z</time>
      </trkpt>
      <trkpt lat="45.17637" lon="5.21553">
        <ele>309.27</ele>
        <time>2017-03-26T15:20:28Z</time>
      </trkpt>
      <trkpt lat="45.17637" lon="5.21553">
        <ele>309.27</ele>
        <time>2017-03-26T15:20:29Z</time>
      </trkpt>
      <trkpt lat="45.17637" lon="5.21553">
        <ele>309.27</ele>
        <time>2017-03-26T15:20:30Z</time>
      </trkpt>
      <trkpt lat="45.17637" lon="5.21553">
        <ele>309.27</ele>
        <time>2017-03-26T15:20:31Z</time>
      </trkpt>
      <trkpt lat="45.17637" lon="5.21553">
        <ele>309.27</ele>
        <time>2017-03-26T15:20:32Z</time>
      </trkpt>
      <trkpt lat="45.17637" lon="5.21553">
        <ele>309.27</ele>
        <time>2017-03-26T15:20:33Z</time>
      </trkpt>
      <trkpt lat="45.17637" lon="5.21553">
        <ele>309.27</ele>
        <time>2017-03-26T15:20:34Z</time>
      </trkpt>
      <trkpt lat="45.17637" lon="5.21553">
        <ele>309.27</ele>
        <time>2017-03-26T15:20:35Z</time>
      </trkpt>
      <trkpt lat="45.17637" lon="5.21553">
        <ele>309.27</ele>
        <time>2017-03-26T15:20:36Z</time>
      </trkpt>
      <trkpt lat="45.17637" lon="5.21553">
        <ele>309.27</ele>
        <time>2017-03-26T15:20:37Z</time>
      </trkpt>
      <trkpt lat="45.17637" lon="5.21553">
        <ele>309.27</ele>
        <time>2017-03-26T15:20:38Z</time>
      </trkpt>
      <trkpt lat="45.17637" lon="5.21553">
        <ele>309.27</ele>
        <time>2017-03-26T15:20:39Z</time>
      </trkpt>
      <trkpt lat="45.17637" lon="5.21553">
        <ele>309.27</ele>
        <time>2017-03-26T15:20:40Z</time>
      </trkpt>
      <trkpt lat="45.17637" lon="5.21553">
        <ele>309.27</ele>
        <time>2017-03-26T15:20:41Z</time>
      </trkpt>
      <trkpt lat="45.17637" lon="5.21553">
        <ele>309.27</ele>
        <time>2017-03-26T15:20:42Z</time>
      </trkpt>
      <trkpt lat="45.17637" lon="5.21553">
        <ele>309.27</ele>
        <time>2017-03-26T15:20:43Z</time>
      </trkpt>
      <trkpt lat="45.17637" lon="5.21553">
        <ele>309.27</ele>
        <time>2017-03-26T15:20:44Z</time>
      </trkpt>
      <trkpt lat="45.17637" lon="5.21553">
        <ele>309.27</ele>
        <time>2017-03-26T15:20:45Z</time>
      </trkpt>
      <trkpt lat="45.17637" lon="5.21553">
        <ele>309.27</ele>
        <time>2017-03-26T15:20:46Z</time>
      </trkpt>
      <trkpt lat="45.17637" lon="5.21553">
        <ele>309.27</ele>
        <time>2017-03-26T15:20:47Z</time>
      </trkpt>
      <trkpt lat="45.17637" lon="5.21553">
        <ele>309.27</ele>
        <time>2017-03-26T15:20:48Z</time>
      </trkpt>
      <trkpt lat="45.17637" lon="5.21553">
        <ele>309.27</ele>
        <time>2017-03-26T15:20:49Z</time>
      </trkpt>
      <trkpt lat="45.17637" lon="5.21553">
        <ele>309.27</ele>
        <time>2017-03-26T15:20:50Z</time>
      </trkpt>
      <trkpt lat="45.17637" lon="5.21553">
        <ele>309.27</ele>
        <time>2017-03-26T15:20:51Z</time>
      </trkpt>
      <trkpt lat="45.17637" lon="5.21553">
        <ele>309.27</ele>
        <time>2017-03-26T15:20:52Z</time>
      </trkpt>
      <trkpt lat="45.17637" lon="5.21553">
        <ele>309.27</ele>
        <time>2017-03-26T15:20:53Z</time>
      </trkpt>
      <trkpt lat="45.17637" lon="5.21553">
        <ele>309.27</ele>
        <time>2017-03-26T15:20:54Z</time>
      </trkpt>
      <trkpt lat="45.17637" lon="5.21553">
        <ele>309.27</ele>
        <time>2017-03-26T15:20:55Z</time>
      </trkpt>
      <trkpt lat="45.17637" lon="5.21553">
        <ele>309.27</ele>
        <time>2017-03-26T15:20:56Z</time>
      </trkpt>
      <trkpt lat="45.17637" lon="5.21553">
        <ele>309.27</ele>
        <time>2017-03-26T15:20:57Z</time>
      </trkpt>
      <trkpt lat="45.17637" lon="5.21553">
        <ele>309.27</ele>
        <time>2017-03-26T15:20:58Z</time>
      </trkpt>
      <trkpt lat="45.17637" lon="5.21553">
        <ele>309.27</ele>
        <time>2017-03-26T15:20:59Z</time>
      </trkpt>
      <trkpt lat="45.17637" lon="5.21553">
        <ele>309.27</ele>
        <time>2017-03-26T15:21:00Z</time>
      </trkpt>
      <trkpt lat="45.17637" lon="5.21553">
        <ele>309.27</ele>
        <time>2017-03-26T15:21:01Z</time>
      </trkpt>
      <trkpt lat="45.17637" lon="5.21553">
        <ele>309.27</ele>
        <time>2017-03-26T15:21:02Z</time>
      </trkpt>
      <trkpt lat="45.17637" lon="5.21553">
        <ele>309.27</ele>
        <time>2017-03-26T15:21:03Z</time>
      </trkpt>
      <trkpt lat="45.17637" lon="5.21553">
        <ele>309.27</ele>
        <time>2017-03-26T15:21:04Z</time>
      </trkpt>
      <trkpt lat="45.17637" lon="5.21553">
        <ele>309.27</ele>
        <time>2017-03-26T15:21:05Z</time>
      </trkpt>
      <trkpt lat="45.17637" lon="5.21553">
        <ele>309.27</ele>
        <time>2017-03-26T15:21:06Z</time>
      </trkpt>
      <trkpt lat="45.17637" lon="5.21553">
        <ele>309.27</ele>
        <time>2017-03-26T15:21:07Z</time>
      </trkpt>
      <trkpt lat="45.17637" lon="5.21553">
        <ele>309.27</ele>
        <time>2017-03-26T15:21:08Z</time>
      </trkpt>
      <trkpt lat="45.17637" lon="5.21553">
        <ele>309.27</ele>
        <time>2017-03-26T15:21:09Z</time>
      </trkpt>
      <trkpt lat="45.17637" lon="5.21553">
        <ele>309.27</ele>
        <time>2017-03-26T15:21:10Z</time>
      </trkpt>
      <trkpt lat="45.17637" lon="5.21553">
        <ele>309.27</ele>
        <time>2017-03-26T15:21:11Z</time>
      </trkpt>
      <trkpt lat="45.17637" lon="5.21553">
        <ele>309.27</ele>
        <time>2017-03-26T15:21:12Z</time>
      </trkpt>
      <trkpt lat="45.17637" lon="5.21553">
        <ele>309.27</ele>
        <time>2017-03-26T15:21:13Z</time>
      </trkpt>
      <trkpt lat="45.17637" lon="5.21553">
        <ele>309.27</ele>
        <time>2017-03-26T15:21:14Z</time>
      </trkpt>
      <trkpt lat="45.17637" lon="5.21553">
        <ele>309.27</ele>
        <time>2017-03-26T15:21:15Z</time>
      </trkpt>
      <trkpt lat="45.17637" lon="5.21553">
        <ele>309.27</ele>
        <time>2017-03-26T15:21:16Z</time>
      </trkpt>
      <trkpt lat="45.17637" lon="5.21553">
        <ele>309.27</ele>
        <time>2017-03-26T15:21:17Z</time>
      </trkpt>
      <trkpt lat="45.17637" lon="5.21553">
        <ele>309.27</ele>
        <time>2017-03-26T15:21:18Z</time>
      </trkpt>
      <trkpt lat="45.17637" lon="5.21553">
        <ele>309.27</ele>
        <time>2017-03-26T15:21:19Z</time>
      </trkpt>
      <trkpt lat="45.17637" lon="5.21553">
        <ele>309.27</ele>
        <time>2017-03-26T15:21:20Z</time>
      </trkpt>
      <trkpt lat="45.17637" lon="5.21553">
        <ele>309.27</ele>
        <time>2017-03-26T15:21:21Z</time>
      </trkpt>
      <trkpt lat="45.17637" lon="5.21553">
        <ele>309.27</ele>
        <time>2017-03-26T15:21:22Z</time>
      </trkpt>
      <trkpt lat="45.17637" lon="5.21553">
        <ele>309.27</ele>
        <time>2017-03-26T15:21:23Z</time>
      </trkpt>
      <trkpt lat="45.17637" lon="5.21553">
        <ele>309.27</ele>
        <time>2017-03-26T15:21:24Z</time>
      </trkpt>
      <trkpt lat="45.17637" lon="5.21553">
        <ele>309.27</ele>
        <time>2017-03-26T15:21:25Z</time>
      </trkpt>
      <trkpt lat="45.17637" lon="5.21553">
        <ele>309.27</ele>
        <time>2017-03-26T15:21:26Z</time>
      </trkpt>
      <trkpt lat="45.17637" lon="5.21553">
        <ele>309.27</ele>
        <time>2017-03-26T15:21:27Z</time>
      </trkpt>
      <trkpt lat="45.17637" lon="5.21553">
        <ele>309.27</ele>
        <time>2017-03-26T15:21:28Z</time>
      </trkpt>
      <trkpt lat="45.17637" lon="5.21553">
        <ele>309.27</ele>
        <time>2017-03-26T15:21:29Z</time>
      </trkpt>
      <trkpt lat="45.17637" lon="5.21553">
        <ele>309.27</ele>
        <time>2017-03-26T15:21:30Z</time>
      </trkpt>
      <trkpt lat="45.17637" lon="5.21553">
        <ele>309.27</ele>
        <time>2017-03-26T15:21:31Z</time>
      </trkpt>
      <trkpt lat="45.17637" lon="5.21553">
        <ele>309.27</ele>
        <time>2017-03-26T15:21:32Z</time>
      </trkpt>
      <trkpt lat="45.17637" lon="5.21553">
        <ele>309.27</ele>
        <time>2017-03-26T15:21:33Z</time>
      </trkpt>
      <trkpt lat="45.17637" lon="5.21553">
        <ele>309.27</ele>
        <time>2017-03-26T15:21:34Z</time>
      </trkpt>
      <trkpt lat="45.17637" lon="5.21553">
        <ele>309.27</ele>
        <time>2017-03-26T15:21:35Z</time>
      </trkpt>
      <trkpt lat="45.17637" lon="5.21553">
        <ele>309.27</ele>
        <time>2017-03-26T15:21:36Z</time>
      </trkpt>
      <trkpt lat="45.17637" lon="5.21553">
        <ele>309.27</ele>
        <time>2017-03-26T15:21:37Z</time>
      </trkpt>
      <trkpt lat="45.17637" lon="5.21553">
        <ele>309.27</ele>
        <time>2017-03-26T15:21:38Z</time>
      </trkpt>
      <trkpt lat="45.17637" lon="5.21553">
        <ele>309.27</ele>
        <time>2017-03-26T15:21:39Z</time>
      </trkpt>
      <trkpt lat="45.17637" lon="5.21553">
        <ele>309.27</ele>
        <time>2017-03-26T15:21:40Z</time>
      </trkpt>
      <trkpt lat="45.17637" lon="5.21553">
        <ele>309.27</ele>
        <time>2017-03-26T15:21:41Z</time>
      </trkpt>
      <trkpt lat="45.17637" lon="5.21553">
        <ele>309.27</ele>
        <time>2017-03-26T15:21:42Z</time>
      </trkpt>
      <trkpt lat="45.17637" lon="5.21553">
        <ele>309.27</ele>
        <time>2017-03-26T15:21:43Z</time>
      </trkpt>
      <trkpt lat="45.17637" lon="5.21553">
        <ele>309.27</ele>
        <time>2017-03-26T15:21:44Z</time>
      </trkpt>
      <trkpt lat="45.17637" lon="5.21553">
        <ele>309.27</ele>
        <time>2017-03-26T15:21:45Z</time>
      </trkpt>
      <trkpt lat="45.17637" lon="5.21553">
        <ele>309.27</ele>
        <time>2017-03-26T15:21:46Z</time>
      </trkpt>
      <trkpt lat="45.17637" lon="5.21553">
        <ele>309.27</ele>
        <time>2017-03-26T15:21:47Z</time>
      </trkpt>
      <trkpt lat="45.17637" lon="5.21553">
        <ele>309.27</ele>
        <time>2017-03-26T15:21:48Z</time>
      </trkpt>
      <trkpt lat="45.17637" lon="5.21553">
        <ele>309.27</ele>
        <time>2017-03-26T15:21:49Z</time>
      </trkpt>
      <trkpt lat="45.17637" lon="5.21553">
        <ele>309.27</ele>
        <time>2017-03-26T15:21:50Z</time>
      </trkpt>
      <trkpt lat="45.17637" lon="5.21553">
        <ele>309.27</ele>
        <time>2017-03-26T15:21:51Z</time>
      </trkpt>
      <trkpt lat="45.17637" lon="5.21553">
        <ele>309.27</ele>
        <time>2017-03-26T15:21:52Z</time>
      </trkpt>
      <trkpt lat="45.17637" lon="5.21553">
        <ele>309.27</ele>
        <time>2017-03-26T15:21:53Z</time>
      </trkpt>
      <trkpt lat="45.17637" lon="5.21553">
        <ele>309.27</ele>
        <time>2017-03-26T15:21:54Z</time>
      </trkpt>
      <trkpt lat="45.17637" lon="5.21553">
        <ele>309.27</ele>
        <time>2017-03-26T15:21:55Z</time>
      </trkpt>
      <trkpt lat="45.17637" lon="5.21553">
        <ele>309.27</ele>
        <time>2017-03-26T15:21:56Z</time>
      </trkpt>
      <trkpt lat="45.17637" lon="5.21553">
        <ele>309.27</ele>
        <time>2017-03-26T15:21:57Z</time>
      </trkpt>
      <trkpt lat="45.17637" lon="5.21553">
        <ele>309.27</ele>
        <time>2017-03-26T15:21:58Z</time>
      </trkpt>
      <trkpt lat="45.17637" lon="5.21553">
        <ele>309.27</ele>
        <time>2017-03-26T15:21:59Z</time>
      </trkpt>
      <trkpt lat="45.17637" lon="5.21553">
        <ele>309.27</ele>
        <time>2017-03-26T15:22:00Z</time>
      </trkpt>
      <trkpt lat="45.17637" lon="5.21553">
        <ele>309.27</ele>
        <time>2017-03-26T15:22:01Z</time>
      </trkpt>
      <trkpt lat="45.17637" lon="5.21553">
        <ele>309.27</ele>
        <time>2017-03-26T15:22:02Z</time>
      </trkpt>
      <trkpt lat="45.17637" lon="5.21553">
        <ele>309.27</ele>
        <time>2017-03-26T15:22:03Z</time>
      </trkpt>
      <trkpt lat="45.17637" lon="5.21553">
        <ele>309.27</ele>
        <time>2017-03-26T15:22:04Z</time>
      </trkpt>
      <trkpt lat="45.17637" lon="5.21553">
        <ele>309.27</ele>
        <time>2017-03-26T15:22:05Z</time>
      </trkpt>
      <trkpt lat="45.17637" lon="5.21553">
        <ele>309.27</ele>
        <time>2017-03-26T15:22:06Z</time>
      </trkpt>
      <trkpt lat="45.17637" lon="5.21553">
        <ele>309.27</ele>
        <time>2017-03-26T15:22:07Z</time>
      </trkpt>
      <trkpt lat="45.17637" lon="5.21553">
        <ele>309.27</ele>
        <time>2017-03-26T15:22:08Z</time>
      </trkpt>
      <trkpt lat="45.17637" lon="5.21553">
        <ele>309.27</ele>
        <time>2017-03-26T15:22:09Z</time>
      </trkpt>
      <trkpt lat="45.17637" lon="5.21553">
        <ele>309.27</ele>
        <time>2017-03-26T15:22:10Z</time>
      </trkpt>
      <trkpt lat="45.17637" lon="5.21553">
        <ele>309.27</ele>
        <time>2017-03-26T15:22:11Z</time>
      </trkpt>
      <trkpt lat="45.17637" lon="5.21553">
        <ele>309.27</ele>
        <time>2017-03-26T15:22:12Z</time>
      </trkpt>
      <trkpt lat="45.17637" lon="5.21553">
        <ele>309.27</ele>
        <time>2017-03-26T15:22:13Z</time>
      </trkpt>
      <trkpt lat="45.17637" lon="5.21553">
        <ele>309.27</ele>
        <time>2017-03-26T15:22:14Z</time>
      </trkpt>
      <trkpt lat="45.17637" lon="5.21553">
        <ele>309.27</ele>
        <time>2017-03-26T15:22:15Z</time>
      </trkpt>
      <trkpt lat="45.17637" lon="5.21553">
        <ele>309.27</ele>
        <time>2017-03-26T15:22:16Z</time>
      </trkpt>
      <trkpt lat="45.17637" lon="5.21553">
        <ele>309.27</ele>
        <time>2017-03-26T15:22:17Z</time>
      </trkpt>
      <trkpt lat="45.17637" lon="5.21553">
        <ele>309.27</ele>
        <time>2017-03-26T15:22:18Z</time>
      </trkpt>
      <trkpt lat="45.17637" lon="5.21553">
        <ele>309.27</ele>
        <time>2017-03-26T15:22:19Z</time>
      </trkpt>
      <trkpt lat="45.17637" lon="5.21553">
        <ele>309.27</ele>
        <time>2017-03-26T15:22:20Z</time>
      </trkpt>
      <trkpt lat="45.17637" lon="5.21553">
        <ele>309.27</ele>
        <time>2017-03-26T15:22:21Z</time>
      </trkpt>
      <trkpt lat="45.17637" lon="5.21553">
        <ele>309.27</ele>
        <time>2017-03-26T15:22:22Z</time>
      </trkpt>
      <trkpt lat="45.17637" lon="5.21553">
        <ele>309.27</ele>
        <time>2017-03-26T15:22:23Z</time>
      </trkpt>
      <trkpt lat="45.17637" lon="5.21553">
        <ele>309.27</ele>
        <time>2017-03-26T15:22:24Z</time>
      </trkpt>
      <trkpt lat="45.17637" lon="5.21553">
        <ele>309.27</ele>
        <time>2017-03-26T15:22:25Z</time>
      </trkpt>
      <trkpt lat="45.17637" lon="5.21553">
        <ele>309.27</ele>
        <time>2017-03-26T15:22:26Z</time>
      </trkpt>
      <trkpt lat="45.17637" lon="5.21553">
        <ele>309.27</ele>
        <time>2017-03-26T15:22:27Z</time>
      </trkpt>
      <trkpt lat="45.17637" lon="5.21553">
        <ele>309.27</ele>
        <time>2017-03-26T15:22:28Z</time>
      </trkpt>
      <trkpt lat="45.17637" lon="5.21553">
        <ele>309.27</ele>
        <time>2017-03-26T15:22:29Z</time>
      </trkpt>
      <trkpt lat="45.17637" lon="5.21553">
        <ele>309.27</ele>
        <time>2017-03-26T15:22:30Z</time>
      </trkpt>
      <trkpt lat="45.17637" lon="5.21553">
        <ele>309.27</ele>
        <time>2017-03-26T15:22:31Z</time>
      </trkpt>
      <trkpt lat="45.17637" lon="5.21553">
        <ele>309.27</ele>
        <time>2017-03-26T15:22:32Z</time>
      </trkpt>
      <trkpt lat="45.17637" lon="5.21553">
        <ele>309.27</ele>
        <time>2017-03-26T15:22:33Z</time>
      </trkpt>
      <trkpt lat="45.17637" lon="5.21553">
        <ele>309.27</ele>
        <time>2017-03-26T15:22:34Z</time>
      </trkpt>
      <trkpt lat="45.17637" lon="5.21553">
        <ele>309.27</ele>
        <time>2017-03-26T15:22:35Z</time>
      </trkpt>
      <trkpt lat="45.17637" lon="5.21553">
        <ele>309.27</ele>
        <time>2017-03-26T15:22:36Z</time>
      </trkpt>
      <trkpt lat="45.17637" lon="5.21553">
        <ele>309.27</ele>
        <time>2017-03-26T15:22:37Z</time>
      </trkpt>
      <trkpt lat="45.17637" lon="5.21553">
        <ele>309.27</ele>
        <time>2017-03-26T15:22:38Z</time>
      </trkpt>
      <trkpt lat="45.17637" lon="5.21553">
        <ele>309.27</ele>
        <time>2017-03-26T15:22:39Z</time>
      </trkpt>
      <trkpt lat="45.17637" lon="5.21553">
        <ele>309.27</ele>
        <time>2017-03-26T15:22:40Z</time>
      </trkpt>
      <trkpt lat="45.17637" lon="5.21553">
        <ele>309.27</ele>
        <time>2017-03-26T15:22:41Z</time>
      </trkpt>
      <trkpt lat="45.17637" lon="5.21553">
        <ele>309.27</ele>
        <time>2017-03-26T15:22:42Z</time>
      </trkpt>
      <trkpt lat="45.17637" lon="5.21553">
        <ele>309.27</ele>
        <time>2017-03-26T15:22:43Z</time>
      </trkpt>
      <trkpt lat="45.17637" lon="5.21553">
        <ele>309.27</ele>
        <time>2017-03-26T15:22:44Z</time>
      </trkpt>
      <trkpt lat="45.17637" lon="5.21553">
        <ele>309.27</ele>
        <time>2017-03-26T15:22:45Z</time>
      </trkpt>
      <trkpt lat="45.17637" lon="5.21553">
        <ele>309.27</ele>
        <time>2017-03-26T15:22:46Z</time>
      </trkpt>
      <trkpt lat="45.17637" lon="5.21553">
        <ele>309.27</ele>
        <time>2017-03-26T15:22:47Z</time>
      </trkpt>
      <trkpt lat="45.17637" lon="5.21553">
        <ele>309.27</ele>
        <time>2017-03-26T15:22:48Z</time>
      </trkpt>
      <trkpt lat="45.17637" lon="5.21553">
        <ele>309.27</ele>
        <time>2017-03-26T15:22:49Z</time>
      </trkpt>
      <trkpt lat="45.17637" lon="5.21553">
        <ele>309.27</ele>
        <time>2017-03-26T15:22:50Z</time>
      </trkpt>
      <trkpt lat="45.1763" lon="5.21561">
        <ele>309.35</ele>
        <time>2017-03-26T15:22:51Z</time>
      </trkpt>
      <trkpt lat="45.17629" lon="5.21561">
        <ele>309.28</ele>
        <time>2017-03-26T15:22:52Z</time>
      </trkpt>
      <trkpt lat="45.17629" lon="5.21562">
        <ele>309.27</ele>
        <time>2017-03-26T15:22:53Z</time>
      </trkpt>
      <trkpt lat="45.17629" lon="5.21561">
        <ele>309.27</ele>
        <time>2017-03-26T15:22:54Z</time>
      </trkpt>
      <trkpt lat="45.17629" lon="5.21561">
        <ele>309.27</ele>
        <time>2017-03-26T15:22:55Z</time>
      </trkpt>
      <trkpt lat="45.17629" lon="5.21561">
        <ele>309.27</ele>
        <time>2017-03-26T15:22:56Z</time>
      </trkpt>
      <trkpt lat="45.17629" lon="5.21561">
        <ele>309.27</ele>
        <time>2017-03-26T15:22:57Z</time>
      </trkpt>
      <trkpt lat="45.17629" lon="5.21561">
        <ele>309.27</ele>
        <time>2017-03-26T15:22:58Z</time>
      </trkpt>
      <trkpt lat="45.17629" lon="5.21561">
        <ele>309.27</ele>
        <time>2017-03-26T15:22:59Z</time>
      </trkpt>
      <trkpt lat="45.17629" lon="5.21561">
        <ele>309.27</ele>
        <time>2017-03-26T15:23:00Z</time>
      </trkpt>
      <trkpt lat="45.17629" lon="5.21561">
        <ele>309.27</ele>
        <time>2017-03-26T15:23:01Z</time>
      </trkpt>
      <trkpt lat="45.17629" lon="5.21561">
        <ele>309.27</ele>
        <time>2017-03-26T15:23:02Z</time>
      </trkpt>
      <trkpt lat="45.17629" lon="5.21561">
        <ele>309.27</ele>
        <time>2017-03-26T15:23:03Z</time>
      </trkpt>
      <trkpt lat="45.17629" lon="5.21561">
        <ele>309.27</ele>
        <time>2017-03-26T15:23:04Z</time>
      </trkpt>
      <trkpt lat="45.17629" lon="5.21561">
        <ele>309.27</ele>
        <time>2017-03-26T15:23:05Z</time>
      </trkpt>
      <trkpt lat="45.17629" lon="5.21561">
        <ele>309.27</ele>
        <time>2017-03-26T15:23:06Z</time>
      </trkpt>
      <trkpt lat="45.17629" lon="5.21561">
        <ele>309.27</ele>
        <time>2017-03-26T15:23:07Z</time>
      </trkpt>
      <trkpt lat="45.17629" lon="5.21561">
        <ele>309.27</ele>
        <time>2017-03-26T15:23:08Z</time>
      </trkpt>
      <trkpt lat="45.17629" lon="5.21561">
        <ele>309.27</ele>
        <time>2017-03-26T15:23:09Z</time>
      </trkpt>
      <trkpt lat="45.17629" lon="5.21561">
        <ele>309.27</ele>
        <time>2017-03-26T15:23:10Z</time>
      </trkpt>
      <trkpt lat="45.17629" lon="5.21561">
        <ele>309.27</ele>
        <time>2017-03-26T15:23:11Z</time>
      </trkpt>
      <trkpt lat="45.17629" lon="5.21561">
        <ele>309.27</ele>
        <time>2017-03-26T15:23:12Z</time>
      </trkpt>
      <trkpt lat="45.17629" lon="5.21561">
        <ele>309.27</ele>
        <time>2017-03-26T15:23:13Z</time>
      </trkpt>
      <trkpt lat="45.17629" lon="5.21561">
        <ele>309.27</ele>
        <time>2017-03-26T15:23:14Z</time>
      </trkpt>
      <trkpt lat="45.17629" lon="5.21561">
        <ele>309.27</ele>
        <time>2017-03-26T15:23:15Z</time>
      </trkpt>
      <trkpt lat="45.17629" lon="5.21561">
        <ele>309.27</ele>
        <time>2017-03-26T15:23:16Z</time>
      </trkpt>
      <trkpt lat="45.17629" lon="5.21561">
        <ele>309.27</ele>
        <time>2017-03-26T15:23:17Z</time>
      </trkpt>
      <trkpt lat="45.17629" lon="5.21561">
        <ele>309.27</ele>
        <time>2017-03-26T15:23:18Z</time>
      </trkpt>
      <trkpt lat="45.17629" lon="5.21561">
        <ele>309.27</ele>
        <time>2017-03-26T15:23:19Z</time>
      </trkpt>
      <trkpt lat="45.17629" lon="5.21561">
        <ele>309.27</ele>
        <time>2017-03-26T15:23:20Z</time>
      </trkpt>
      <trkpt lat="45.17629" lon="5.21561">
        <ele>309.27</ele>
        <time>2017-03-26T15:23:21Z</time>
      </trkpt>
      <trkpt lat="45.17629" lon="5.21561">
        <ele>309.27</ele>
        <time>2017-03-26T15:23:22Z</time>
      </trkpt>
      <trkpt lat="45.17629" lon="5.21561">
        <ele>309.27</ele>
        <time>2017-03-26T15:23:23Z</time>
      </trkpt>
      <trkpt lat="45.17629" lon="5.21561">
        <ele>309.27</ele>
        <time>2017-03-26T15:23:24Z</time>
      </trkpt>
      <trkpt lat="45.17629" lon="5.21561">
        <ele>309.27</ele>
        <time>2017-03-26T15:23:25Z</time>
      </trkpt>
      <trkpt lat="45.17629" lon="5.21561">
        <ele>309.27</ele>
        <time>2017-03-26T15:23:26Z</time>
      </trkpt>
      <trkpt lat="45.17629" lon="5.21561">
        <ele>309.27</ele>
        <time>2017-03-26T15:23:27Z</time>
      </trkpt>
      <trkpt lat="45.17629" lon="5.21561">
        <ele>309.27</ele>
        <time>2017-03-26T15:23:28Z</time>
      </trkpt>
      <trkpt lat="45.17629" lon="5.21561">
        <ele>309.27</ele>
        <time>2017-03-26T15:23:29Z</time>
      </trkpt>
      <trkpt lat="45.17629" lon="5.21561">
        <ele>309.27</ele>
        <time>2017-03-26T15:23:30Z</time>
      </trkpt>
      <trkpt lat="45.17629" lon="5.21561">
        <ele>309.27</ele>
        <time>2017-03-26T15:23:31Z</time>
      </trkpt>
      <trkpt lat="45.17629" lon="5.21561">
        <ele>309.27</ele>
        <time>2017-03-26T15:23:32Z</time>
      </trkpt>
      <trkpt lat="45.17629" lon="5.21561">
        <ele>309.27</ele>
        <time>2017-03-26T15:23:33Z</time>
      </trkpt>
      <trkpt lat="45.17629" lon="5.21561">
        <ele>309.27</ele>
        <time>2017-03-26T15:23:34Z</time>
      </trkpt>
      <trkpt lat="45.17629" lon="5.21561">
        <ele>309.27</ele>
        <time>2017-03-26T15:23:35Z</time>
      </trkpt>
      <trkpt lat="45.17629" lon="5.21561">
        <ele>309.27</ele>
        <time>2017-03-26T15:23:36Z</time>
      </trkpt>
      <trkpt lat="45.17629" lon="5.21561">
        <ele>309.27</ele>
        <time>2017-03-26T15:23:37Z</time>
      </trkpt>
      <trkpt lat="45.17629" lon="5.21561">
        <ele>309.27</ele>
        <time>2017-03-26T15:23:38Z</time>
      </trkpt>
      <trkpt lat="45.17629" lon="5.21561">
        <ele>309.27</ele>
        <time>2017-03-26T15:23:39Z</time>
      </trkpt>
      <trkpt lat="45.17629" lon="5.21561">
        <ele>309.27</ele>
        <time>2017-03-26T15:23:40Z</time>
      </trkpt>
      <trkpt lat="45.17629" lon="5.21561">
        <ele>309.27</ele>
        <time>2017-03-26T15:23:41Z</time>
      </trkpt>
      <trkpt lat="45.17629" lon="5.21561">
        <ele>309.27</ele>
        <time>2017-03-26T15:23:42Z</time>
      </trkpt>
      <trkpt lat="45.17629" lon="5.21561">
        <ele>309.27</ele>
        <time>2017-03-26T15:23:43Z</time>
      </trkpt>
      <trkpt lat="45.17629" lon="5.21561">
        <ele>309.27</ele>
        <time>2017-03-26T15:23:44Z</time>
      </trkpt>
      <trkpt lat="45.17629" lon="5.21561">
        <ele>309.27</ele>
        <time>2017-03-26T15:23:45Z</time>
      </trkpt>
      <trkpt lat="45.17629" lon="5.21561">
        <ele>309.27</ele>
        <time>2017-03-26T15:23:46Z</time>
      </trkpt>
      <trkpt lat="45.17629" lon="5.21561">
        <ele>309.27</ele>
        <time>2017-03-26T15:23:47Z</time>
      </trkpt>
      <trkpt lat="45.17629" lon="5.21561">
        <ele>309.27</ele>
        <time>2017-03-26T15:23:48Z</time>
      </trkpt>
      <trkpt lat="45.17629" lon="5.21561">
        <ele>309.27</ele>
        <time>2017-03-26T15:23:49Z</time>
      </trkpt>
      <trkpt lat="45.17629" lon="5.21561">
        <ele>309.27</ele>
        <time>2017-03-26T15:23:50Z</time>
      </trkpt>
      <trkpt lat="45.17629" lon="5.21561">
        <ele>309.27</ele>
        <time>2017-03-26T15:23:51Z</time>
      </trkpt>
      <trkpt lat="45.17629" lon="5.21561">
        <ele>309.27</ele>
        <time>2017-03-26T15:23:52Z</time>
      </trkpt>
      <trkpt lat="45.17629" lon="5.21561">
        <ele>309.27</ele>
        <time>2017-03-26T15:23:53Z</time>
      </trkpt>
      <trkpt lat="45.17629" lon="5.21561">
        <ele>309.27</ele>
        <time>2017-03-26T15:23:54Z</time>
      </trkpt>
      <trkpt lat="45.17629" lon="5.21561">
        <ele>309.27</ele>
        <time>2017-03-26T15:23:55Z</time>
      </trkpt>
      <trkpt lat="45.17629" lon="5.21561">
        <ele>309.27</ele>
        <time>2017-03-26T15:23:56Z</time>
      </trkpt>
      <trkpt lat="45.17629" lon="5.21561">
        <ele>309.27</ele>
        <time>2017-03-26T15:23:57Z</time>
      </trkpt>
      <trkpt lat="45.17629" lon="5.21561">
        <ele>309.27</ele>
        <time>2017-03-26T15:23:58Z</time>
      </trkpt>
      <trkpt lat="45.17629" lon="5.21561">
        <ele>309.27</ele>
        <time>2017-03-26T15:23:59Z</time>
      </trkpt>
      <trkpt lat="45.17629" lon="5.21561">
        <ele>309.27</ele>
        <time>2017-03-26T15:24:00Z</time>
      </trkpt>
      <trkpt lat="45.17629" lon="5.21561">
        <ele>309.27</ele>
        <time>2017-03-26T15:24:01Z</time>
      </trkpt>
      <trkpt lat="45.17629" lon="5.21561">
        <ele>309.27</ele>
        <time>2017-03-26T15:24:02Z</time>
      </trkpt>
      <trkpt lat="45.17629" lon="5.21561">
        <ele>309.27</ele>
        <time>2017-03-26T15:24:03Z</time>
      </trkpt>
      <trkpt lat="45.17629" lon="5.21561">
        <ele>309.27</ele>
        <time>2017-03-26T15:24:04Z</time>
      </trkpt>
      <trkpt lat="45.17629" lon="5.21561">
        <ele>309.27</ele>
        <time>2017-03-26T15:24:05Z</time>
      </trkpt>
      <trkpt lat="45.17629" lon="5.21561">
        <ele>309.27</ele>
        <time>2017-03-26T15:24:06Z</time>
      </trkpt>
      <trkpt lat="45.17629" lon="5.21561">
        <ele>309.27</ele>
        <time>2017-03-26T15:24:07Z</time>
      </trkpt>
      <trkpt lat="45.17629" lon="5.21561">
        <ele>309.27</ele>
        <time>2017-03-26T15:24:08Z</time>
      </trkpt>
      <trkpt lat="45.17629" lon="5.21561">
        <ele>309.27</ele>
        <time>2017-03-26T15:24:09Z</time>
      </trkpt>
      <trkpt lat="45.17629" lon="5.21561">
        <ele>309.27</ele>
        <time>2017-03-26T15:24:10Z</time>
      </trkpt>
      <trkpt lat="45.17629" lon="5.21561">
        <ele>309.27</ele>
        <time>2017-03-26T15:24:11Z</time>
      </trkpt>
      <trkpt lat="45.17629" lon="5.21561">
        <ele>309.27</ele>
        <time>2017-03-26T15:24:12Z</time>
      </trkpt>
      <trkpt lat="45.17629" lon="5.21561">
        <ele>309.27</ele>
        <time>2017-03-26T15:24:13Z</time>
      </trkpt>
      <trkpt lat="45.17629" lon="5.21561">
        <ele>309.27</ele>
        <time>2017-03-26T15:24:14Z</time>
      </trkpt>
      <trkpt lat="45.17629" lon="5.21561">
        <ele>309.27</ele>
        <time>2017-03-26T15:24:15Z</time>
      </trkpt>
      <trkpt lat="45.17629" lon="5.21561">
        <ele>309.27</ele>
        <time>2017-03-26T15:24:16Z</time>
      </trkpt>
      <trkpt lat="45.17629" lon="5.21561">
        <ele>309.27</ele>
        <time>2017-03-26T15:24:17Z</time>
      </trkpt>
      <trkpt lat="45.17629" lon="5.21561">
        <ele>309.27</ele>
        <time>2017-03-26T15:24:18Z</time>
      </trkpt>
      <trkpt lat="45.17629" lon="5.21561">
        <ele>309.27</ele>
        <time>2017-03-26T15:24:19Z</time>
      </trkpt>
      <trkpt lat="45.17629" lon="5.21561">
        <ele>309.27</ele>
        <time>2017-03-26T15:24:20Z</time>
      </trkpt>
      <trkpt lat="45.17629" lon="5.21561">
        <ele>309.27</ele>
        <time>2017-03-26T15:24:21Z</time>
      </trkpt>
      <trkpt lat="45.17629" lon="5.21561">
        <ele>309.27</ele>
        <time>2017-03-26T15:24:22Z</time>
      </trkpt>
      <trkpt lat="45.17629" lon="5.21561">
        <ele>309.27</ele>
        <time>2017-03-26T15:24:23Z</time>
      </trkpt>
      <trkpt lat="45.17629" lon="5.21561">
        <ele>309.27</ele>
        <time>2017-03-26T15:24:24Z</time>
      </trkpt>
      <trkpt lat="45.17629" lon="5.21561">
        <ele>309.27</ele>
        <time>2017-03-26T15:24:25Z</time>
      </trkpt>
      <trkpt lat="45.17629" lon="5.21561">
        <ele>309.27</ele>
        <time>2017-03-26T15:24:26Z</time>
      </trkpt>
      <trkpt lat="45.17629" lon="5.21561">
        <ele>309.27</ele>
        <time>2017-03-26T15:24:27Z</time>
      </trkpt>
      <trkpt lat="45.17629" lon="5.21561">
        <ele>309.27</ele>
        <time>2017-03-26T15:24:28Z</time>
      </trkpt>
      <trkpt lat="45.17629" lon="5.21561">
        <ele>309.27</ele>
        <time>2017-03-26T15:24:29Z</time>
      </trkpt>
      <trkpt lat="45.17629" lon="5.21561">
        <ele>309.27</ele>
        <time>2017-03-26T15:24:30Z</time>
      </trkpt>
      <trkpt lat="45.17629" lon="5.21561">
        <ele>309.27</ele>
        <time>2017-03-26T15:24:31Z</time>
      </trkpt>
      <trkpt lat="45.17629" lon="5.21561">
        <ele>309.27</ele>
        <time>2017-03-26T15:24:32Z</time>
      </trkpt>
      <trkpt lat="45.17629" lon="5.21561">
        <ele>309.27</ele>
        <time>2017-03-26T15:24:33Z</time>
      </trkpt>
      <trkpt lat="45.17629" lon="5.21561">
        <ele>309.27</ele>
        <time>2017-03-26T15:24:34Z</time>
      </trkpt>
      <trkpt lat="45.17629" lon="5.21561">
        <ele>309.27</ele>
        <time>2017-03-26T15:24:35Z</time>
      </trkpt>
      <trkpt lat="45.17629" lon="5.21561">
        <ele>309.27</ele>
        <time>2017-03-26T15:24:36Z</time>
      </trkpt>
      <trkpt lat="45.17629" lon="5.21561">
        <ele>309.27</ele>
        <time>2017-03-26T15:24:37Z</time>
      </trkpt>
      <trkpt lat="45.17629" lon="5.21561">
        <ele>309.27</ele>
        <time>2017-03-26T15:24:38Z</time>
      </trkpt>
      <trkpt lat="45.17629" lon="5.21561">
        <ele>309.27</ele>
        <time>2017-03-26T15:24:39Z</time>
      </trkpt>
      <trkpt lat="45.17629" lon="5.21561">
        <ele>309.27</ele>
        <time>2017-03-26T15:24:40Z</time>
      </trkpt>
      <trkpt lat="45.17629" lon="5.21561">
        <ele>309.27</ele>
        <time>2017-03-26T15:24:41Z</time>
      </trkpt>
      <trkpt lat="45.17629" lon="5.21561">
        <ele>309.27</ele>
        <time>2017-03-26T15:24:42Z</time>
      </trkpt>
      <trkpt lat="45.17629" lon="5.21561">
        <ele>309.27</ele>
        <time>2017-03-26T15:24:43Z</time>
      </trkpt>
      <trkpt lat="45.17629" lon="5.21561">
        <ele>309.27</ele>
        <time>2017-03-26T15:24:44Z</time>
      </trkpt>
      <trkpt lat="45.17629" lon="5.21561">
        <ele>309.27</ele>
        <time>2017-03-26T15:24:45Z</time>
      </trkpt>
      <trkpt lat="45.17629" lon="5.21561">
        <ele>309.27</ele>
        <time>2017-03-26T15:24:46Z</time>
      </trkpt>
      <trkpt lat="45.17629" lon="5.21561">
        <ele>309.27</ele>
        <time>2017-03-26T15:24:47Z</time>
      </trkpt>
      <trkpt lat="45.17629" lon="5.21561">
        <ele>309.27</ele>
        <time>2017-03-26T15:24:48Z</time>
      </trkpt>
      <trkpt lat="45.17629" lon="5.21561">
        <ele>309.27</ele>
        <time>2017-03-26T15:24:49Z</time>
      </trkpt>
      <trkpt lat="45.17629" lon="5.21561">
        <ele>309.27</ele>
        <time>2017-03-26T15:24:50Z</time>
      </trkpt>
      <trkpt lat="45.17629" lon="5.21561">
        <ele>309.27</ele>
        <time>2017-03-26T15:24:51Z</time>
      </trkpt>
      <trkpt lat="45.17629" lon="5.21561">
        <ele>309.27</ele>
        <time>2017-03-26T15:24:52Z</time>
      </trkpt>
      <trkpt lat="45.17629" lon="5.21561">
        <ele>309.27</ele>
        <time>2017-03-26T15:24:53Z</time>
      </trkpt>
      <trkpt lat="45.17629" lon="5.21561">
        <ele>309.27</ele>
        <time>2017-03-26T15:24:54Z</time>
      </trkpt>
      <trkpt lat="45.17629" lon="5.21561">
        <ele>309.27</ele>
        <time>2017-03-26T15:24:55Z</time>
      </trkpt>
      <trkpt lat="45.17629" lon="5.21561">
        <ele>309.27</ele>
        <time>2017-03-26T15:24:56Z</time>
      </trkpt>
      <trkpt lat="45.17629" lon="5.21561">
        <ele>309.27</ele>
        <time>2017-03-26T15:24:57Z</time>
      </trkpt>
      <trkpt lat="45.17629" lon="5.21561">
        <ele>309.27</ele>
        <time>2017-03-26T15:24:58Z</time>
      </trkpt>
      <trkpt lat="45.17629" lon="5.21561">
        <ele>309.27</ele>
        <time>2017-03-26T15:24:59Z</time>
      </trkpt>
      <trkpt lat="45.17629" lon="5.21561">
        <ele>309.27</ele>
        <time>2017-03-26T15:25:00Z</time>
      </trkpt>
      <trkpt lat="45.17629" lon="5.21561">
        <ele>309.27</ele>
        <time>2017-03-26T15:25:01Z</time>
      </trkpt>
      <trkpt lat="45.17629" lon="5.21561">
        <ele>309.27</ele>
        <time>2017-03-26T15:25:02Z</time>
      </trkpt>
      <trkpt lat="45.17629" lon="5.21561">
        <ele>309.27</ele>
        <time>2017-03-26T15:25:03Z</time>
      </trkpt>
      <trkpt lat="45.17629" lon="5.21561">
        <ele>309.27</ele>
        <time>2017-03-26T15:25:04Z</time>
      </trkpt>
      <trkpt lat="45.17629" lon="5.21561">
        <ele>309.27</ele>
        <time>2017-03-26T15:25:05Z</time>
      </trkpt>
      <trkpt lat="45.17629" lon="5.21561">
        <ele>309.27</ele>
        <time>2017-03-26T15:25:06Z</time>
      </trkpt>
      <trkpt lat="45.17629" lon="5.21561">
        <ele>309.27</ele>
        <time>2017-03-26T15:25:07Z</time>
      </trkpt>
      <trkpt lat="45.17629" lon="5.21561">
        <ele>309.27</ele>
        <time>2017-03-26T15:25:08Z</time>
      </trkpt>
      <trkpt lat="45.17629" lon="5.21561">
        <ele>309.27</ele>
        <time>2017-03-26T15:25:09Z</time>
      </trkpt>
      <trkpt lat="45.17629" lon="5.21561">
        <ele>309.27</ele>
        <time>2017-03-26T15:25:10Z</time>
      </trkpt>
      <trkpt lat="45.17629" lon="5.21561">
        <ele>309.27</ele>
        <time>2017-03-26T15:25:11Z</time>
      </trkpt>
      <trkpt lat="45.17629" lon="5.21561">
        <ele>309.27</ele>
        <time>2017-03-26T15:25:12Z</time>
      </trkpt>
      <trkpt lat="45.17629" lon="5.21561">
        <ele>309.27</ele>
        <time>2017-03-26T15:25:13Z</time>
      </trkpt>
      <trkpt lat="45.17629" lon="5.21561">
        <ele>309.27</ele>
        <time>2017-03-26T15:25:14Z</time>
      </trkpt>
      <trkpt lat="45.17629" lon="5.21561">
        <ele>309.27</ele>
        <time>2017-03-26T15:25:15Z</time>
      </trkpt>
      <trkpt lat="45.17629" lon="5.21561">
        <ele>309.27</ele>
        <time>2017-03-26T15:25:16Z</time>
      </trkpt>
      <trkpt lat="45.17629" lon="5.21561">
        <ele>309.27</ele>
        <time>2017-03-26T15:25:17Z</time>
      </trkpt>
      <trkpt lat="45.17629" lon="5.21561">
        <ele>309.27</ele>
        <time>2017-03-26T15:25:18Z</time>
      </trkpt>
      <trkpt lat="45.17629" lon="5.21561">
        <ele>309.27</ele>
        <time>2017-03-26T15:25:19Z</time>
      </trkpt>
      <trkpt lat="45.17629" lon="5.21561">
        <ele>309.27</ele>
        <time>2017-03-26T15:25:20Z</time>
      </trkpt>
      <trkpt lat="45.17629" lon="5.21561">
        <ele>309.27</ele>
        <time>2017-03-26T15:25:21Z</time>
      </trkpt>
      <trkpt lat="45.17629" lon="5.21561">
        <ele>309.27</ele>
        <time>2017-03-26T15:25:22Z</time>
      </trkpt>
      <trkpt lat="45.17629" lon="5.21561">
        <ele>309.27</ele>
        <time>2017-03-26T15:25:23Z</time>
      </trkpt>
      <trkpt lat="45.17629" lon="5.21561">
        <ele>309.27</ele>
        <time>2017-03-26T15:25:24Z</time>
      </trkpt>
      <trkpt lat="45.17629" lon="5.21561">
        <ele>309.27</ele>
        <time>2017-03-26T15:25:25Z</time>
      </trkpt>
      <trkpt lat="45.17629" lon="5.21561">
        <ele>309.27</ele>
        <time>2017-03-26T15:25:26Z</time>
      </trkpt>
      <trkpt lat="45.17629" lon="5.21561">
        <ele>309.27</ele>
        <time>2017-03-26T15:25:27Z</time>
      </trkpt>
      <trkpt lat="45.17629" lon="5.21561">
        <ele>309.27</ele>
        <time>2017-03-26T15:25:28Z</time>
      </trkpt>
      <trkpt lat="45.17629" lon="5.21561">
        <ele>309.27</ele>
        <time>2017-03-26T15:25:29Z</time>
      </trkpt>
      <trkpt lat="45.17629" lon="5.21561">
        <ele>309.27</ele>
        <time>2017-03-26T15:25:30Z</time>
      </trkpt>
      <trkpt lat="45.17632" lon="5.21558">
        <ele>309.75</ele>
        <time>2017-03-26T15:25:31Z</time>
      </trkpt>
      <trkpt lat="45.17633" lon="5.21557">
        <ele>309.84</ele>
        <time>2017-03-26T15:25:32Z</time>
      </trkpt>
      <trkpt lat="45.17634" lon="5.21556">
        <ele>309.86</ele>
        <time>2017-03-26T15:25:33Z</time>
      </trkpt>
      <trkpt lat="45.17635" lon="5.21555">
        <ele>309.87</ele>
        <time>2017-03-26T15:25:34Z</time>
      </trkpt>
      <trkpt lat="45.17636" lon="5.21554">
        <ele>309.87</ele>
        <time>2017-03-26T15:25:35Z</time>
      </trkpt>
      <trkpt lat="45.17636" lon="5.21554">
        <ele>309.87</ele>
        <time>2017-03-26T15:25:36Z</time>
      </trkpt>
      <trkpt lat="45.17637" lon="5.21553">
        <ele>309.87</ele>
        <time>2017-03-26T15:25:37Z</time>
      </trkpt>
      <trkpt lat="45.17637" lon="5.21553">
        <ele>309.79</ele>
        <time>2017-03-26T15:25:38Z</time>
      </trkpt>
      <trkpt lat="45.17637" lon="5.21553">
        <ele>309.77</ele>
        <time>2017-03-26T15:25:39Z</time>
      </trkpt>
      <trkpt lat="45.17637" lon="5.21553">
        <ele>309.77</ele>
        <time>2017-03-26T15:25:40Z</time>
      </trkpt>
      <trkpt lat="45.17637" lon="5.21553">
        <ele>309.77</ele>
        <time>2017-03-26T15:25:41Z</time>
      </trkpt>
      <trkpt lat="45.17637" lon="5.21553">
        <ele>309.77</ele>
        <time>2017-03-26T15:25:42Z</time>
      </trkpt>
      <trkpt lat="45.17637" lon="5.21553">
        <ele>309.77</ele>
        <time>2017-03-26T15:25:43Z</time>
      </trkpt>
      <trkpt lat="45.17637" lon="5.21553">
        <ele>309.77</ele>
        <time>2017-03-26T15:25:44Z</time>
      </trkpt>
      <trkpt lat="45.17637" lon="5.21553">
        <ele>309.77</ele>
        <time>2017-03-26T15:25:45Z</time>
      </trkpt>
      <trkpt lat="45.17637" lon="5.21553">
        <ele>309.77</ele>
        <time>2017-03-26T15:25:46Z</time>
      </trkpt>
      <trkpt lat="45.17637" lon="5.21553">
        <ele>309.77</ele>
        <time>2017-03-26T15:25:47Z</time>
      </trkpt>
      <trkpt lat="45.17637" lon="5.21553">
        <ele>309.77</ele>
        <time>2017-03-26T15:25:48Z</time>
      </trkpt>
      <trkpt lat="45.17637" lon="5.21553">
        <ele>309.77</ele>
        <time>2017-03-26T15:25:49Z</time>
      </trkpt>
      <trkpt lat="45.17637" lon="5.21553">
        <ele>309.77</ele>
        <time>2017-03-26T15:25:50Z</time>
      </trkpt>
      <trkpt lat="45.17637" lon="5.21553">
        <ele>309.77</ele>
        <time>2017-03-26T15:25:51Z</time>
      </trkpt>
      <trkpt lat="45.17637" lon="5.21553">
        <ele>309.77</ele>
        <time>2017-03-26T15:25:52Z</time>
      </trkpt>
      <trkpt lat="45.17637" lon="5.21553">
        <ele>309.77</ele>
        <time>2017-03-26T15:25:53Z</time>
      </trkpt>
      <trkpt lat="45.17637" lon="5.21553">
        <ele>309.77</ele>
        <time>2017-03-26T15:25:54Z</time>
      </trkpt>
      <trkpt lat="45.17637" lon="5.21553">
        <ele>309.77</ele>
        <time>2017-03-26T15:25:55Z</time>
      </trkpt>
      <trkpt lat="45.17637" lon="5.21553">
        <ele>309.77</ele>
        <time>2017-03-26T15:25:56Z</time>
      </trkpt>
      <trkpt lat="45.17637" lon="5.21553">
        <ele>309.77</ele>
        <time>2017-03-26T15:25:57Z</time>
      </trkpt>
      <trkpt lat="45.17628" lon="5.21554">
        <ele>309.77</ele>
        <time>2017-03-26T15:25:58Z</time>
      </trkpt>
      <trkpt lat="45.17627" lon="5.21554">
        <ele>309.85</ele>
        <time>2017-03-26T15:25:59Z</time>
      </trkpt>
      <trkpt lat="45.17626" lon="5.21555">
        <ele>309.86</ele>
        <time>2017-03-26T15:26:00Z</time>
      </trkpt>
      <trkpt lat="45.17625" lon="5.21556">
        <ele>309.87</ele>
        <time>2017-03-26T15:26:01Z</time>
      </trkpt>
      <trkpt lat="45.17625" lon="5.21556">
        <ele>309.87</ele>
        <time>2017-03-26T15:26:02Z</time>
      </trkpt>
      <trkpt lat="45.17625" lon="5.21556">
        <ele>309.87</ele>
        <time>2017-03-26T15:26:03Z</time>
      </trkpt>
      <trkpt lat="45.17625" lon="5.21556">
        <ele>309.87</ele>
        <time>2017-03-26T15:26:04Z</time>
      </trkpt>
      <trkpt lat="45.17625" lon="5.21556">
        <ele>309.87</ele>
        <time>2017-03-26T15:26:05Z</time>
      </trkpt>
      <trkpt lat="45.17625" lon="5.21556">
        <ele>309.87</ele>
        <time>2017-03-26T15:26:06Z</time>
      </trkpt>
      <trkpt lat="45.17625" lon="5.21556">
        <ele>309.87</ele>
        <time>2017-03-26T15:26:07Z</time>
      </trkpt>
      <trkpt lat="45.17617" lon="5.21564">
        <ele>310.19</ele>
        <time>2017-03-26T15:26:08Z</time>
      </trkpt>
      <trkpt lat="45.17617" lon="5.21564">
        <ele>310.41</ele>
        <time>2017-03-26T15:26:09Z</time>
      </trkpt>
      <trkpt lat="45.17615" lon="5.21565">
        <ele>310.38</ele>
        <time>2017-03-26T15:26:10Z</time>
      </trkpt>
      <trkpt lat="45.17615" lon="5.21565">
        <ele>310.37</ele>
        <time>2017-03-26T15:26:11Z</time>
      </trkpt>
      <trkpt lat="45.17615" lon="5.21565">
        <ele>310.37</ele>
        <time>2017-03-26T15:26:12Z</time>
      </trkpt>
      <trkpt lat="45.17615" lon="5.21565">
        <ele>310.37</ele>
        <time>2017-03-26T15:26:13Z</time>
      </trkpt>
      <trkpt lat="45.17615" lon="5.21565">
        <ele>310.37</ele>
        <time>2017-03-26T15:26:14Z</time>
      </trkpt>
      <trkpt lat="45.17615" lon="5.21565">
        <ele>310.37</ele>
        <time>2017-03-26T15:26:15Z</time>
      </trkpt>
      <trkpt lat="45.17615" lon="5.21565">
        <ele>310.37</ele>
        <time>2017-03-26T15:26:16Z</time>
      </trkpt>
      <trkpt lat="45.17615" lon="5.21565">
        <ele>310.37</ele>
        <time>2017-03-26T15:26:17Z</time>
      </trkpt>
      <trkpt lat="45.17615" lon="5.21565">
        <ele>310.37</ele>
        <time>2017-03-26T15:26:18Z</time>
      </trkpt>
      <trkpt lat="45.17615" lon="5.21565">
        <ele>310.37</ele>
        <time>2017-03-26T15:26:19Z</time>
      </trkpt>
      <trkpt lat="45.17615" lon="5.21565">
        <ele>310.37</ele>
        <time>2017-03-26T15:26:20Z</time>
      </trkpt>
      <trkpt lat="45.17615" lon="5.21565">
        <ele>310.37</ele>
        <time>2017-03-26T15:26:21Z</time>
      </trkpt>
      <trkpt lat="45.17615" lon="5.21565">
        <ele>310.37</ele>
        <time>2017-03-26T15:26:22Z</time>
      </trkpt>
      <trkpt lat="45.17615" lon="5.21565">
        <ele>310.37</ele>
        <time>2017-03-26T15:26:23Z</time>
      </trkpt>
      <trkpt lat="45.17615" lon="5.21565">
        <ele>310.37</ele>
        <time>2017-03-26T15:26:24Z</time>
      </trkpt>
      <trkpt lat="45.17615" lon="5.21565">
        <ele>310.37</ele>
        <time>2017-03-26T15:26:25Z</time>
      </trkpt>
      <trkpt lat="45.17615" lon="5.21565">
        <ele>310.37</ele>
        <time>2017-03-26T15:26:26Z</time>
      </trkpt>
      <trkpt lat="45.17615" lon="5.21565">
        <ele>310.37</ele>
        <time>2017-03-26T15:26:27Z</time>
      </trkpt>
      <trkpt lat="45.17615" lon="5.21565">
        <ele>310.37</ele>
        <time>2017-03-26T15:26:28Z</time>
      </trkpt>
      <trkpt lat="45.17615" lon="5.21565">
        <ele>310.37</ele>
        <time>2017-03-26T15:26:29Z</time>
      </trkpt>
      <trkpt lat="45.17615" lon="5.21565">
        <ele>310.37</ele>
        <time>2017-03-26T15:26:30Z</time>
      </trkpt>
      <trkpt lat="45.17615" lon="5.21565">
        <ele>310.37</ele>
        <time>2017-03-26T15:26:31Z</time>
      </trkpt>
      <trkpt lat="45.17615" lon="5.21565">
        <ele>310.37</ele>
        <time>2017-03-26T15:26:32Z</time>
      </trkpt>
      <trkpt lat="45.17615" lon="5.21565">
        <ele>310.37</ele>
        <time>2017-03-26T15:26:33Z</time>
      </trkpt>
      <trkpt lat="45.17612" lon="5.21577">
        <ele>310.61</ele>
        <time>2017-03-26T15:26:34Z</time>
      </trkpt>
      <trkpt lat="45.17612" lon="5.21578">
        <ele>310.58</ele>
        <time>2017-03-26T15:26:35Z</time>
      </trkpt>
      <trkpt lat="45.17612" lon="5.21578">
        <ele>310.73</ele>
        <time>2017-03-26T15:26:36Z</time>
      </trkpt>
      <trkpt lat="45.17612" lon="5.21579">
        <ele>310.76</ele>
        <time>2017-03-26T15:26:37Z</time>
      </trkpt>
      <trkpt lat="45.17612" lon="5.21579">
        <ele>310.77</ele>
        <time>2017-03-26T15:26:38Z</time>
      </trkpt>
      <trkpt lat="45.17612" lon="5.21579">
        <ele>310.77</ele>
        <time>2017-03-26T15:26:39Z</time>
      </trkpt>
      <trkpt lat="45.17612" lon="5.21579">
        <ele>310.77</ele>
        <time>2017-03-26T15:26:40Z</time>
      </trkpt>
      <trkpt lat="45.17612" lon="5.21579">
        <ele>310.77</ele>
        <time>2017-03-26T15:26:41Z</time>
      </trkpt>
      <trkpt lat="45.17612" lon="5.21579">
        <ele>310.77</ele>
        <time>2017-03-26T15:26:42Z</time>
      </trkpt>
      <trkpt lat="45.17612" lon="5.21579">
        <ele>310.77</ele>
        <time>2017-03-26T15:26:43Z</time>
      </trkpt>
      <trkpt lat="45.17612" lon="5.21579">
        <ele>310.77</ele>
        <time>2017-03-26T15:26:44Z</time>
      </trkpt>
      <trkpt lat="45.17612" lon="5.21579">
        <ele>310.77</ele>
        <time>2017-03-26T15:26:45Z</time>
      </trkpt>
      <trkpt lat="45.17612" lon="5.21579">
        <ele>310.77</ele>
        <time>2017-03-26T15:26:46Z</time>
      </trkpt>
      <trkpt lat="45.17611" lon="5.21593">
        <ele>310.69</ele>
        <time>2017-03-26T15:26:47Z</time>
      </trkpt>
      <trkpt lat="45.1761" lon="5.21594">
        <ele>310.67</ele>
        <time>2017-03-26T15:26:48Z</time>
      </trkpt>
      <trkpt lat="45.17609" lon="5.21596">
        <ele>310.67</ele>
        <time>2017-03-26T15:26:49Z</time>
      </trkpt>
      <trkpt lat="45.17609" lon="5.21597">
        <ele>310.67</ele>
        <time>2017-03-26T15:26:50Z</time>
      </trkpt>
      <trkpt lat="45.17609" lon="5.21597">
        <ele>310.67</ele>
        <time>2017-03-26T15:26:51Z</time>
      </trkpt>
      <trkpt lat="45.17609" lon="5.21597">
        <ele>310.67</ele>
        <time>2017-03-26T15:26:52Z</time>
      </trkpt>
      <trkpt lat="45.17609" lon="5.21597">
        <ele>310.67</ele>
        <time>2017-03-26T15:26:53Z</time>
      </trkpt>
      <trkpt lat="45.17609" lon="5.21597">
        <ele>310.67</ele>
        <time>2017-03-26T15:26:54Z</time>
      </trkpt>
      <trkpt lat="45.17609" lon="5.21597">
        <ele>310.67</ele>
        <time>2017-03-26T15:26:55Z</time>
      </trkpt>
      <trkpt lat="45.17609" lon="5.21597">
        <ele>310.67</ele>
        <time>2017-03-26T15:26:56Z</time>
      </trkpt>
      <trkpt lat="45.17609" lon="5.21597">
        <ele>310.67</ele>
        <time>2017-03-26T15:26:57Z</time>
      </trkpt>
      <trkpt lat="45.17607" lon="5.2161">
        <ele>310.91</ele>
        <time>2017-03-26T15:26:58Z</time>
      </trkpt>
      <trkpt lat="45.17607" lon="5.21611">
        <ele>311.04</ele>
        <time>2017-03-26T15:26:59Z</time>
      </trkpt>
      <trkpt lat="45.17606" lon="5.21612">
        <ele>311.06</ele>
        <time>2017-03-26T15:27:00Z</time>
      </trkpt>
      <trkpt lat="45.17605" lon="5.21613">
        <ele>311.07</ele>
        <time>2017-03-26T15:27:01Z</time>
      </trkpt>
      <trkpt lat="45.17605" lon="5.21613">
        <ele>311.07</ele>
        <time>2017-03-26T15:27:02Z</time>
      </trkpt>
      <trkpt lat="45.17605" lon="5.21613">
        <ele>311.07</ele>
        <time>2017-03-26T15:27:03Z</time>
      </trkpt>
      <trkpt lat="45.17605" lon="5.21613">
        <ele>311.07</ele>
        <time>2017-03-26T15:27:04Z</time>
      </trkpt>
      <trkpt lat="45.17605" lon="5.21613">
        <ele>311.07</ele>
        <time>2017-03-26T15:27:05Z</time>
      </trkpt>
      <trkpt lat="45.17605" lon="5.21613">
        <ele>311.07</ele>
        <time>2017-03-26T15:27:06Z</time>
      </trkpt>
      <trkpt lat="45.17605" lon="5.21613">
        <ele>311.07</ele>
        <time>2017-03-26T15:27:07Z</time>
      </trkpt>
      <trkpt lat="45.17605" lon="5.21613">
        <ele>311.07</ele>
        <time>2017-03-26T15:27:08Z</time>
      </trkpt>
      <trkpt lat="45.17605" lon="5.21613">
        <ele>311.07</ele>
        <time>2017-03-26T15:27:09Z</time>
      </trkpt>
      <trkpt lat="45.17605" lon="5.21613">
        <ele>311.07</ele>
        <time>2017-03-26T15:27:10Z</time>
      </trkpt>
      <trkpt lat="45.17605" lon="5.21613">
        <ele>311.07</ele>
        <time>2017-03-26T15:27:11Z</time>
      </trkpt>
      <trkpt lat="45.17605" lon="5.21613">
        <ele>311.07</ele>
        <time>2017-03-26T15:27:12Z</time>
      </trkpt>
      <trkpt lat="45.17605" lon="5.21613">
        <ele>311.07</ele>
        <time>2017-03-26T15:27:13Z</time>
      </trkpt>
      <trkpt lat="45.17605" lon="5.21613">
        <ele>311.07</ele>
        <time>2017-03-26T15:27:14Z</time>
      </trkpt>
      <trkpt lat="45.17605" lon="5.21613">
        <ele>311.07</ele>
        <time>2017-03-26T15:27:15Z</time>
      </trkpt>
      <trkpt lat="45.17605" lon="5.21613">
        <ele>311.07</ele>
        <time>2017-03-26T15:27:16Z</time>
      </trkpt>
      <trkpt lat="45.17605" lon="5.21613">
        <ele>311.07</ele>
        <time>2017-03-26T15:27:17Z</time>
      </trkpt>
      <trkpt lat="45.176" lon="5.21624">
        <ele>311.55</ele>
        <time>2017-03-26T15:27:18Z</time>
      </trkpt>
      <trkpt lat="45.17599" lon="5.21624">
        <ele>311.64</ele>
        <time>2017-03-26T15:27:19Z</time>
      </trkpt>
      <trkpt lat="45.17599" lon="5.21625">
        <ele>311.66</ele>
        <time>2017-03-26T15:27:20Z</time>
      </trkpt>
      <trkpt lat="45.17599" lon="5.21624">
        <ele>311.67</ele>
        <time>2017-03-26T15:27:21Z</time>
      </trkpt>
      <trkpt lat="45.17599" lon="5.21624">
        <ele>311.67</ele>
        <time>2017-03-26T15:27:22Z</time>
      </trkpt>
      <trkpt lat="45.17599" lon="5.21624">
        <ele>311.67</ele>
        <time>2017-03-26T15:27:23Z</time>
      </trkpt>
      <trkpt lat="45.17599" lon="5.21624">
        <ele>311.67</ele>
        <time>2017-03-26T15:27:24Z</time>
      </trkpt>
      <trkpt lat="45.17599" lon="5.21624">
        <ele>311.67</ele>
        <time>2017-03-26T15:27:25Z</time>
      </trkpt>
      <trkpt lat="45.17599" lon="5.21624">
        <ele>311.67</ele>
        <time>2017-03-26T15:27:26Z</time>
      </trkpt>
      <trkpt lat="45.17599" lon="5.21624">
        <ele>311.67</ele>
        <time>2017-03-26T15:27:27Z</time>
      </trkpt>
      <trkpt lat="45.17599" lon="5.21624">
        <ele>311.67</ele>
        <time>2017-03-26T15:27:28Z</time>
      </trkpt>
      <trkpt lat="45.17599" lon="5.21624">
        <ele>311.67</ele>
        <time>2017-03-26T15:27:29Z</time>
      </trkpt>
      <trkpt lat="45.17599" lon="5.21624">
        <ele>311.67</ele>
        <time>2017-03-26T15:27:30Z</time>
      </trkpt>
      <trkpt lat="45.17599" lon="5.21624">
        <ele>311.67</ele>
        <time>2017-03-26T15:27:31Z</time>
      </trkpt>
      <trkpt lat="45.17599" lon="5.21624">
        <ele>311.67</ele>
        <time>2017-03-26T15:27:32Z</time>
      </trkpt>
      <trkpt lat="45.17599" lon="5.21624">
        <ele>311.67</ele>
        <time>2017-03-26T15:27:33Z</time>
      </trkpt>
      <trkpt lat="45.17599" lon="5.21624">
        <ele>311.67</ele>
        <time>2017-03-26T15:27:34Z</time>
      </trkpt>
      <trkpt lat="45.17599" lon="5.21624">
        <ele>311.67</ele>
        <time>2017-03-26T15:27:35Z</time>
      </trkpt>
      <trkpt lat="45.17599" lon="5.21624">
        <ele>311.67</ele>
        <time>2017-03-26T15:27:36Z</time>
      </trkpt>
      <trkpt lat="45.17599" lon="5.21624">
        <ele>311.67</ele>
        <time>2017-03-26T15:27:37Z</time>
      </trkpt>
      <trkpt lat="45.17599" lon="5.21624">
        <ele>311.67</ele>
        <time>2017-03-26T15:27:38Z</time>
      </trkpt>
      <trkpt lat="45.17599" lon="5.21624">
        <ele>311.67</ele>
        <time>2017-03-26T15:27:39Z</time>
      </trkpt>
      <trkpt lat="45.17599" lon="5.21624">
        <ele>311.67</ele>
        <time>2017-03-26T15:27:40Z</time>
      </trkpt>
      <trkpt lat="45.17599" lon="5.21624">
        <ele>311.67</ele>
        <time>2017-03-26T15:27:41Z</time>
      </trkpt>
      <trkpt lat="45.17599" lon="5.21624">
        <ele>311.67</ele>
        <time>2017-03-26T15:27:42Z</time>
      </trkpt>
      <trkpt lat="45.17599" lon="5.21624">
        <ele>311.67</ele>
        <time>2017-03-26T15:27:43Z</time>
      </trkpt>
      <trkpt lat="45.17599" lon="5.21624">
        <ele>311.67</ele>
        <time>2017-03-26T15:27:44Z</time>
      </trkpt>
      <trkpt lat="45.17599" lon="5.21624">
        <ele>311.67</ele>
        <time>2017-03-26T15:27:45Z</time>
      </trkpt>
      <trkpt lat="45.17599" lon="5.21624">
        <ele>311.67</ele>
        <time>2017-03-26T15:27:46Z</time>
      </trkpt>
      <trkpt lat="45.17599" lon="5.21624">
        <ele>311.67</ele>
        <time>2017-03-26T15:27:47Z</time>
      </trkpt>
      <trkpt lat="45.17599" lon="5.21624">
        <ele>311.67</ele>
        <time>2017-03-26T15:27:48Z</time>
      </trkpt>
      <trkpt lat="45.17599" lon="5.21624">
        <ele>311.67</ele>
        <time>2017-03-26T15:27:49Z</time>
      </trkpt>
      <trkpt lat="45.17599" lon="5.21624">
        <ele>311.67</ele>
        <time>2017-03-26T15:27:50Z</time>
      </trkpt>
      <trkpt lat="45.17599" lon="5.21624">
        <ele>311.67</ele>
        <time>2017-03-26T15:27:51Z</time>
      </trkpt>
      <trkpt lat="45.17599" lon="5.21624">
        <ele>311.67</ele>
        <time>2017-03-26T15:27:52Z</time>
      </trkpt>
      <trkpt lat="45.17599" lon="5.21624">
        <ele>311.67</ele>
        <time>2017-03-26T15:27:53Z</time>
      </trkpt>
      <trkpt lat="45.17599" lon="5.21624">
        <ele>311.67</ele>
        <time>2017-03-26T15:27:54Z</time>
      </trkpt>
      <trkpt lat="45.17599" lon="5.21624">
        <ele>311.67</ele>
        <time>2017-03-26T15:27:55Z</time>
      </trkpt>
      <trkpt lat="45.17599" lon="5.21624">
        <ele>311.67</ele>
        <time>2017-03-26T15:27:56Z</time>
      </trkpt>
      <trkpt lat="45.17599" lon="5.21624">
        <ele>311.67</ele>
        <time>2017-03-26T15:27:57Z</time>
      </trkpt>
      <trkpt lat="45.17599" lon="5.21624">
        <ele>311.67</ele>
        <time>2017-03-26T15:27:58Z</time>
      </trkpt>
      <trkpt lat="45.17599" lon="5.21624">
        <ele>311.67</ele>
        <time>2017-03-26T15:27:59Z</time>
      </trkpt>
      <trkpt lat="45.17599" lon="5.21624">
        <ele>311.67</ele>
        <time>2017-03-26T15:28:00Z</time>
      </trkpt>
      <trkpt lat="45.17599" lon="5.21624">
        <ele>311.67</ele>
        <time>2017-03-26T15:28:01Z</time>
      </trkpt>
      <trkpt lat="45.17599" lon="5.21624">
        <ele>311.67</ele>
        <time>2017-03-26T15:28:02Z</time>
      </trkpt>
      <trkpt lat="45.17599" lon="5.21624">
        <ele>311.67</ele>
        <time>2017-03-26T15:28:03Z</time>
      </trkpt>
      <trkpt lat="45.17599" lon="5.21624">
        <ele>311.67</ele>
        <time>2017-03-26T15:28:04Z</time>
      </trkpt>
      <trkpt lat="45.17599" lon="5.21624">
        <ele>311.67</ele>
        <time>2017-03-26T15:28:05Z</time>
      </trkpt>
      <trkpt lat="45.17599" lon="5.21624">
        <ele>311.67</ele>
        <time>2017-03-26T15:28:06Z</time>
      </trkpt>
      <trkpt lat="45.17599" lon="5.21624">
        <ele>311.67</ele>
        <time>2017-03-26T15:28:07Z</time>
      </trkpt>
      <trkpt lat="45.17599" lon="5.21624">
        <ele>311.67</ele>
        <time>2017-03-26T15:28:08Z</time>
      </trkpt>
      <trkpt lat="45.17599" lon="5.21624">
        <ele>311.67</ele>
        <time>2017-03-26T15:28:09Z</time>
      </trkpt>
      <trkpt lat="45.17599" lon="5.21624">
        <ele>311.67</ele>
        <time>2017-03-26T15:28:10Z</time>
      </trkpt>
      <trkpt lat="45.17599" lon="5.21624">
        <ele>311.67</ele>
        <time>2017-03-26T15:28:11Z</time>
      </trkpt>
      <trkpt lat="45.17599" lon="5.21624">
        <ele>311.67</ele>
        <time>2017-03-26T15:28:12Z</time>
      </trkpt>
      <trkpt lat="45.17599" lon="5.21624">
        <ele>311.67</ele>
        <time>2017-03-26T15:28:13Z</time>
      </trkpt>
      <trkpt lat="45.17599" lon="5.21624">
        <ele>311.67</ele>
        <time>2017-03-26T15:28:14Z</time>
      </trkpt>
      <trkpt lat="45.17599" lon="5.21624">
        <ele>311.67</ele>
        <time>2017-03-26T15:28:15Z</time>
      </trkpt>
      <trkpt lat="45.17599" lon="5.21624">
        <ele>311.67</ele>
        <time>2017-03-26T15:28:16Z</time>
      </trkpt>
      <trkpt lat="45.17599" lon="5.21624">
        <ele>311.67</ele>
        <time>2017-03-26T15:28:17Z</time>
      </trkpt>
      <trkpt lat="45.17599" lon="5.21624">
        <ele>311.67</ele>
        <time>2017-03-26T15:28:18Z</time>
      </trkpt>
      <trkpt lat="45.17599" lon="5.21624">
        <ele>311.67</ele>
        <time>2017-03-26T15:28:19Z</time>
      </trkpt>
      <trkpt lat="45.17599" lon="5.21624">
        <ele>311.67</ele>
        <time>2017-03-26T15:28:20Z</time>
      </trkpt>
      <trkpt lat="45.17599" lon="5.21624">
        <ele>311.67</ele>
        <time>2017-03-26T15:28:21Z</time>
      </trkpt>
      <trkpt lat="45.17599" lon="5.21624">
        <ele>311.67</ele>
        <time>2017-03-26T15:28:22Z</time>
      </trkpt>
      <trkpt lat="45.17599" lon="5.21624">
        <ele>311.67</ele>
        <time>2017-03-26T15:28:23Z</time>
      </trkpt>
      <trkpt lat="45.17599" lon="5.21624">
        <ele>311.67</ele>
        <time>2017-03-26T15:28:24Z</time>
      </trkpt>
      <trkpt lat="45.17599" lon="5.21624">
        <ele>311.67</ele>
        <time>2017-03-26T15:28:25Z</time>
      </trkpt>
      <trkpt lat="45.17599" lon="5.21624">
        <ele>311.67</ele>
        <time>2017-03-26T15:28:26Z</time>
      </trkpt>
      <trkpt lat="45.17599" lon="5.21624">
        <ele>311.67</ele>
        <time>2017-03-26T15:28:27Z</time>
      </trkpt>
      <trkpt lat="45.17599" lon="5.21624">
        <ele>311.67</ele>
        <time>2017-03-26T15:28:28Z</time>
      </trkpt>
      <trkpt lat="45.17599" lon="5.21624">
        <ele>311.67</ele>
        <time>2017-03-26T15:28:29Z</time>
      </trkpt>
      <trkpt lat="45.17599" lon="5.21624">
        <ele>311.67</ele>
        <time>2017-03-26T15:28:30Z</time>
      </trkpt>
      <trkpt lat="45.17599" lon="5.21624">
        <ele>311.67</ele>
        <time>2017-03-26T15:28:31Z</time>
      </trkpt>
      <trkpt lat="45.17599" lon="5.21624">
        <ele>311.67</ele>
        <time>2017-03-26T15:28:32Z</time>
      </trkpt>
      <trkpt lat="45.17599" lon="5.21624">
        <ele>311.67</ele>
        <time>2017-03-26T15:28:33Z</time>
      </trkpt>
      <trkpt lat="45.17599" lon="5.21624">
        <ele>311.67</ele>
        <time>2017-03-26T15:28:34Z</time>
      </trkpt>
      <trkpt lat="45.17599" lon="5.21624">
        <ele>311.67</ele>
        <time>2017-03-26T15:28:35Z</time>
      </trkpt>
      <trkpt lat="45.17593" lon="5.21634">
        <ele>311.99</ele>
        <time>2017-03-26T15:28:36Z</time>
      </trkpt>
      <trkpt lat="45.17593" lon="5.21634">
        <ele>312.05</ele>
        <time>2017-03-26T15:28:37Z</time>
      </trkpt>
      <trkpt lat="45.17592" lon="5.21635">
        <ele>312.06</ele>
        <time>2017-03-26T15:28:38Z</time>
      </trkpt>
      <trkpt lat="45.17593" lon="5.21635">
        <ele>312.15</ele>
        <time>2017-03-26T15:28:39Z</time>
      </trkpt>
      <trkpt lat="45.17593" lon="5.21635">
        <ele>312.16</ele>
        <time>2017-03-26T15:28:40Z</time>
      </trkpt>
      <trkpt lat="45.17593" lon="5.21635">
        <ele>312.17</ele>
        <time>2017-03-26T15:28:41Z</time>
      </trkpt>
      <trkpt lat="45.17593" lon="5.21635">
        <ele>312.17</ele>
        <time>2017-03-26T15:28:42Z</time>
      </trkpt>
      <trkpt lat="45.17593" lon="5.21635">
        <ele>312.17</ele>
        <time>2017-03-26T15:28:43Z</time>
      </trkpt>
      <trkpt lat="45.17593" lon="5.21635">
        <ele>312.17</ele>
        <time>2017-03-26T15:28:44Z</time>
      </trkpt>
      <trkpt lat="45.17593" lon="5.21635">
        <ele>312.17</ele>
        <time>2017-03-26T15:28:45Z</time>
      </trkpt>
      <trkpt lat="45.17593" lon="5.21635">
        <ele>312.17</ele>
        <time>2017-03-26T15:28:46Z</time>
      </trkpt>
      <trkpt lat="45.17593" lon="5.21635">
        <ele>312.17</ele>
        <time>2017-03-26T15:28:47Z</time>
      </trkpt>
      <trkpt lat="45.17593" lon="5.21635">
        <ele>312.17</ele>
        <time>2017-03-26T15:28:48Z</time>
      </trkpt>
      <trkpt lat="45.17593" lon="5.21635">
        <ele>312.17</ele>
        <time>2017-03-26T15:28:49Z</time>
      </trkpt>
      <trkpt lat="45.17593" lon="5.21635">
        <ele>312.17</ele>
        <time>2017-03-26T15:28:50Z</time>
      </trkpt>
      <trkpt lat="45.17593" lon="5.21635">
        <ele>312.17</ele>
        <time>2017-03-26T15:28:51Z</time>
      </trkpt>
      <trkpt lat="45.17593" lon="5.21635">
        <ele>312.17</ele>
        <time>2017-03-26T15:28:52Z</time>
      </trkpt>
      <trkpt lat="45.17593" lon="5.21635">
        <ele>312.17</ele>
        <time>2017-03-26T15:28:53Z</time>
      </trkpt>
      <trkpt lat="45.17593" lon="5.21635">
        <ele>312.17</ele>
        <time>2017-03-26T15:28:54Z</time>
      </trkpt>
      <trkpt lat="45.17593" lon="5.21635">
        <ele>312.17</ele>
        <time>2017-03-26T15:28:55Z</time>
      </trkpt>
      <trkpt lat="45.17593" lon="5.21635">
        <ele>312.17</ele>
        <time>2017-03-26T15:28:56Z</time>
      </trkpt>
      <trkpt lat="45.17593" lon="5.21635">
        <ele>312.17</ele>
        <time>2017-03-26T15:28:57Z</time>
      </trkpt>
      <trkpt lat="45.17593" lon="5.21635">
        <ele>312.17</ele>
        <time>2017-03-26T15:28:58Z</time>
      </trkpt>
      <trkpt lat="45.17593" lon="5.21635">
        <ele>312.17</ele>
        <time>2017-03-26T15:28:59Z</time>
      </trkpt>
      <trkpt lat="45.17593" lon="5.21635">
        <ele>312.17</ele>
        <time>2017-03-26T15:29:00Z</time>
      </trkpt>
      <trkpt lat="45.17593" lon="5.21635">
        <ele>312.17</ele>
        <time>2017-03-26T15:29:01Z</time>
      </trkpt>
      <trkpt lat="45.17593" lon="5.21635">
        <ele>312.17</ele>
        <time>2017-03-26T15:29:02Z</time>
      </trkpt>
      <trkpt lat="45.17593" lon="5.21635">
        <ele>312.17</ele>
        <time>2017-03-26T15:29:03Z</time>
      </trkpt>
      <trkpt lat="45.17593" lon="5.21635">
        <ele>312.17</ele>
        <time>2017-03-26T15:29:04Z</time>
      </trkpt>
      <trkpt lat="45.17593" lon="5.21635">
        <ele>312.17</ele>
        <time>2017-03-26T15:29:05Z</time>
      </trkpt>
      <trkpt lat="45.17593" lon="5.21635">
        <ele>312.17</ele>
        <time>2017-03-26T15:29:06Z</time>
      </trkpt>
      <trkpt lat="45.17593" lon="5.21635">
        <ele>312.17</ele>
        <time>2017-03-26T15:29:08Z</time>
      </trkpt>
      <trkpt lat="45.17593" lon="5.21635">
        <ele>312.17</ele>
        <time>2017-03-26T15:29:09Z</time>
      </trkpt>
      <trkpt lat="45.17593" lon="5.21635">
        <ele>312.17</ele>
        <time>2017-03-26T15:29:10Z</time>
      </trkpt>
      <trkpt lat="45.17593" lon="5.21635">
        <ele>312.17</ele>
        <time>2017-03-26T15:29:11Z</time>
      </trkpt>
      <trkpt lat="45.17593" lon="5.21635">
        <ele>312.17</ele>
        <time>2017-03-26T15:29:12Z</time>
      </trkpt>
      <trkpt lat="45.17593" lon="5.21635">
        <ele>312.17</ele>
        <time>2017-03-26T15:29:13Z</time>
      </trkpt>
      <trkpt lat="45.17593" lon="5.21635">
        <ele>312.17</ele>
        <time>2017-03-26T15:29:14Z</time>
      </trkpt>
      <trkpt lat="45.17593" lon="5.21635">
        <ele>312.17</ele>
        <time>2017-03-26T15:29:15Z</time>
      </trkpt>
      <trkpt lat="45.17593" lon="5.21635">
        <ele>312.17</ele>
        <time>2017-03-26T15:29:16Z</time>
      </trkpt>
      <trkpt lat="45.17593" lon="5.21635">
        <ele>312.17</ele>
        <time>2017-03-26T15:29:17Z</time>
      </trkpt>
      <trkpt lat="45.17593" lon="5.21635">
        <ele>312.17</ele>
        <time>2017-03-26T15:29:18Z</time>
      </trkpt>
      <trkpt lat="45.17593" lon="5.21635">
        <ele>312.17</ele>
        <time>2017-03-26T15:29:19Z</time>
      </trkpt>
      <trkpt lat="45.17593" lon="5.21635">
        <ele>312.17</ele>
        <time>2017-03-26T15:29:20Z</time>
      </trkpt>
      <trkpt lat="45.17593" lon="5.21635">
        <ele>312.17</ele>
        <time>2017-03-26T15:29:21Z</time>
      </trkpt>
      <trkpt lat="45.17593" lon="5.21635">
        <ele>312.17</ele>
        <time>2017-03-26T15:29:22Z</time>
      </trkpt>
      <trkpt lat="45.17593" lon="5.21635">
        <ele>312.17</ele>
        <time>2017-03-26T15:29:23Z</time>
      </trkpt>
      <trkpt lat="45.17593" lon="5.21635">
        <ele>312.17</ele>
        <time>2017-03-26T15:29:24Z</time>
      </trkpt>
      <trkpt lat="45.17593" lon="5.21635">
        <ele>312.17</ele>
        <time>2017-03-26T15:29:25Z</time>
      </trkpt>
      <trkpt lat="45.17593" lon="5.21635">
        <ele>312.17</ele>
        <time>2017-03-26T15:29:26Z</time>
      </trkpt>
      <trkpt lat="45.17593" lon="5.21635">
        <ele>312.17</ele>
        <time>2017-03-26T15:29:27Z</time>
      </trkpt>
      <trkpt lat="45.17593" lon="5.21635">
        <ele>312.17</ele>
        <time>2017-03-26T15:29:28Z</time>
      </trkpt>
      <trkpt lat="45.17593" lon="5.21635">
        <ele>312.17</ele>
        <time>2017-03-26T15:29:29Z</time>
      </trkpt>
      <trkpt lat="45.17593" lon="5.21635">
        <ele>312.17</ele>
        <time>2017-03-26T15:29:30Z</time>
      </trkpt>
      <trkpt lat="45.17593" lon="5.21635">
        <ele>312.17</ele>
        <time>2017-03-26T15:29:31Z</time>
      </trkpt>
      <trkpt lat="45.17593" lon="5.21635">
        <ele>312.17</ele>
        <time>2017-03-26T15:29:32Z</time>
      </trkpt>
      <trkpt lat="45.17593" lon="5.21635">
        <ele>312.17</ele>
        <time>2017-03-26T15:29:33Z</time>
      </trkpt>
      <trkpt lat="45.17593" lon="5.21635">
        <ele>312.17</ele>
        <time>2017-03-26T15:29:34Z</time>
      </trkpt>
      <trkpt lat="45.17593" lon="5.21635">
        <ele>312.17</ele>
        <time>2017-03-26T15:29:35Z</time>
      </trkpt>
      <trkpt lat="45.17593" lon="5.21635">
        <ele>312.17</ele>
        <time>2017-03-26T15:29:36Z</time>
      </trkpt>
      <trkpt lat="45.17593" lon="5.21635">
        <ele>312.17</ele>
        <time>2017-03-26T15:29:37Z</time>
      </trkpt>
      <trkpt lat="45.17593" lon="5.21635">
        <ele>312.17</ele>
        <time>2017-03-26T15:29:38Z</time>
      </trkpt>
      <trkpt lat="45.17593" lon="5.21635">
        <ele>312.17</ele>
        <time>2017-03-26T15:29:39Z</time>
      </trkpt>
      <trkpt lat="45.17593" lon="5.21635">
        <ele>312.17</ele>
        <time>2017-03-26T15:29:40Z</time>
      </trkpt>
      <trkpt lat="45.17593" lon="5.21635">
        <ele>312.17</ele>
        <time>2017-03-26T15:29:41Z</time>
      </trkpt>
      <trkpt lat="45.17593" lon="5.21635">
        <ele>312.17</ele>
        <time>2017-03-26T15:29:42Z</time>
      </trkpt>
      <trkpt lat="45.17593" lon="5.21635">
        <ele>312.17</ele>
        <time>2017-03-26T15:29:43Z</time>
      </trkpt>
      <trkpt lat="45.17593" lon="5.21635">
        <ele>312.17</ele>
        <time>2017-03-26T15:29:44Z</time>
      </trkpt>
      <trkpt lat="45.17593" lon="5.21635">
        <ele>312.17</ele>
        <time>2017-03-26T15:29:45Z</time>
      </trkpt>
      <trkpt lat="45.17593" lon="5.21635">
        <ele>312.17</ele>
        <time>2017-03-26T15:29:46Z</time>
      </trkpt>
      <trkpt lat="45.17593" lon="5.21635">
        <ele>312.17</ele>
        <time>2017-03-26T15:29:47Z</time>
      </trkpt>
      <trkpt lat="45.17593" lon="5.21635">
        <ele>312.17</ele>
        <time>2017-03-26T15:29:48Z</time>
      </trkpt>
      <trkpt lat="45.17593" lon="5.21635">
        <ele>312.17</ele>
        <time>2017-03-26T15:29:49Z</time>
      </trkpt>
      <trkpt lat="45.17593" lon="5.21635">
        <ele>312.17</ele>
        <time>2017-03-26T15:29:50Z</time>
      </trkpt>
      <trkpt lat="45.17584" lon="5.21639">
        <ele>312.49</ele>
        <time>2017-03-26T15:29:51Z</time>
      </trkpt>
      <trkpt lat="45.17584" lon="5.2164">
        <ele>312.55</ele>
        <time>2017-03-26T15:29:52Z</time>
      </trkpt>
      <trkpt lat="45.17584" lon="5.21639">
        <ele>312.48</ele>
        <time>2017-03-26T15:29:53Z</time>
      </trkpt>
      <trkpt lat="45.17584" lon="5.21639">
        <ele>312.47</ele>
        <time>2017-03-26T15:29:54Z</time>
      </trkpt>
      <trkpt lat="45.17584" lon="5.21639">
        <ele>312.47</ele>
        <time>2017-03-26T15:29:55Z</time>
      </trkpt>
      <trkpt lat="45.17584" lon="5.21639">
        <ele>312.47</ele>
        <time>2017-03-26T15:29:56Z</time>
      </trkpt>
      <trkpt lat="45.17584" lon="5.21639">
        <ele>312.47</ele>
        <time>2017-03-26T15:29:57Z</time>
      </trkpt>
      <trkpt lat="45.17584" lon="5.21639">
        <ele>312.47</ele>
        <time>2017-03-26T15:29:58Z</time>
      </trkpt>
      <trkpt lat="45.17584" lon="5.21639">
        <ele>312.47</ele>
        <time>2017-03-26T15:29:59Z</time>
      </trkpt>
      <trkpt lat="45.17584" lon="5.21639">
        <ele>312.47</ele>
        <time>2017-03-26T15:30:00Z</time>
      </trkpt>
      <trkpt lat="45.17584" lon="5.21639">
        <ele>312.47</ele>
        <time>2017-03-26T15:30:01Z</time>
      </trkpt>
      <trkpt lat="45.17584" lon="5.21639">
        <ele>312.47</ele>
        <time>2017-03-26T15:30:02Z</time>
      </trkpt>
      <trkpt lat="45.17584" lon="5.21639">
        <ele>312.47</ele>
        <time>2017-03-26T15:30:03Z</time>
      </trkpt>
      <trkpt lat="45.17584" lon="5.21639">
        <ele>312.47</ele>
        <time>2017-03-26T15:30:04Z</time>
      </trkpt>
      <trkpt lat="45.17584" lon="5.21639">
        <ele>312.47</ele>
        <time>2017-03-26T15:30:05Z</time>
      </trkpt>
      <trkpt lat="45.17584" lon="5.21639">
        <ele>312.47</ele>
        <time>2017-03-26T15:30:06Z</time>
      </trkpt>
      <trkpt lat="45.17584" lon="5.21639">
        <ele>312.47</ele>
        <time>2017-03-26T15:30:07Z</time>
      </trkpt>
      <trkpt lat="45.17584" lon="5.21639">
        <ele>312.47</ele>
        <time>2017-03-26T15:30:08Z</time>
      </trkpt>
      <trkpt lat="45.17584" lon="5.21639">
        <ele>312.47</ele>
        <time>2017-03-26T15:30:09Z</time>
      </trkpt>
      <trkpt lat="45.17584" lon="5.21639">
        <ele>312.47</ele>
        <time>2017-03-26T15:30:10Z</time>
      </trkpt>
      <trkpt lat="45.17584" lon="5.21639">
        <ele>312.47</ele>
        <time>2017-03-26T15:30:11Z</time>
      </trkpt>
      <trkpt lat="45.17584" lon="5.21639">
        <ele>312.47</ele>
        <time>2017-03-26T15:30:12Z</time>
      </trkpt>
      <trkpt lat="45.17584" lon="5.21639">
        <ele>312.47</ele>
        <time>2017-03-26T15:30:13Z</time>
      </trkpt>
      <trkpt lat="45.17584" lon="5.21639">
        <ele>312.47</ele>
        <time>2017-03-26T15:30:14Z</time>
      </trkpt>
      <trkpt lat="45.17584" lon="5.21639">
        <ele>312.47</ele>
        <time>2017-03-26T15:30:15Z</time>
      </trkpt>
      <trkpt lat="45.17584" lon="5.21639">
        <ele>312.47</ele>
        <time>2017-03-26T15:30:16Z</time>
      </trkpt>
      <trkpt lat="45.17584" lon="5.21639">
        <ele>312.47</ele>
        <time>2017-03-26T15:30:17Z</time>
      </trkpt>
      <trkpt lat="45.17584" lon="5.21639">
        <ele>312.47</ele>
        <time>2017-03-26T15:30:18Z</time>
      </trkpt>
      <trkpt lat="45.17584" lon="5.21639">
        <ele>312.47</ele>
        <time>2017-03-26T15:30:19Z</time>
      </trkpt>
      <trkpt lat="45.17584" lon="5.21639">
        <ele>312.47</ele>
        <time>2017-03-26T15:30:20Z</time>
      </trkpt>
      <trkpt lat="45.17584" lon="5.21639">
        <ele>312.47</ele>
        <time>2017-03-26T15:30:21Z</time>
      </trkpt>
      <trkpt lat="45.17584" lon="5.21639">
        <ele>312.47</ele>
        <time>2017-03-26T15:30:22Z</time>
      </trkpt>
      <trkpt lat="45.17584" lon="5.21639">
        <ele>312.47</ele>
        <time>2017-03-26T15:30:23Z</time>
      </trkpt>
      <trkpt lat="45.17584" lon="5.21639">
        <ele>312.47</ele>
        <time>2017-03-26T15:30:24Z</time>
      </trkpt>
      <trkpt lat="45.17584" lon="5.21639">
        <ele>312.47</ele>
        <time>2017-03-26T15:30:25Z</time>
      </trkpt>
      <trkpt lat="45.17584" lon="5.21639">
        <ele>312.47</ele>
        <time>2017-03-26T15:30:26Z</time>
      </trkpt>
      <trkpt lat="45.17584" lon="5.21639">
        <ele>312.47</ele>
        <time>2017-03-26T15:30:27Z</time>
      </trkpt>
      <trkpt lat="45.17584" lon="5.21639">
        <ele>312.47</ele>
        <time>2017-03-26T15:30:28Z</time>
      </trkpt>
      <trkpt lat="45.17584" lon="5.21639">
        <ele>312.47</ele>
        <time>2017-03-26T15:30:29Z</time>
      </trkpt>
      <trkpt lat="45.17584" lon="5.21639">
        <ele>312.47</ele>
        <time>2017-03-26T15:30:30Z</time>
      </trkpt>
      <trkpt lat="45.17584" lon="5.21639">
        <ele>312.47</ele>
        <time>2017-03-26T15:30:31Z</time>
      </trkpt>
      <trkpt lat="45.17584" lon="5.21639">
        <ele>312.47</ele>
        <time>2017-03-26T15:30:32Z</time>
      </trkpt>
      <trkpt lat="45.17584" lon="5.21639">
        <ele>312.47</ele>
        <time>2017-03-26T15:30:33Z</time>
      </trkpt>
      <trkpt lat="45.17584" lon="5.21639">
        <ele>312.47</ele>
        <time>2017-03-26T15:30:34Z</time>
      </trkpt>
      <trkpt lat="45.17584" lon="5.21639">
        <ele>312.47</ele>
        <time>2017-03-26T15:30:35Z</time>
      </trkpt>
      <trkpt lat="45.17584" lon="5.21639">
        <ele>312.47</ele>
        <time>2017-03-26T15:30:36Z</time>
      </trkpt>
      <trkpt lat="45.17584" lon="5.21639">
        <ele>312.47</ele>
        <time>2017-03-26T15:30:37Z</time>
      </trkpt>
      <trkpt lat="45.17584" lon="5.21639">
        <ele>312.47</ele>
        <time>2017-03-26T15:30:38Z</time>
      </trkpt>
      <trkpt lat="45.17584" lon="5.21639">
        <ele>312.47</ele>
        <time>2017-03-26T15:30:39Z</time>
      </trkpt>
      <trkpt lat="45.17584" lon="5.21639">
        <ele>312.47</ele>
        <time>2017-03-26T15:30:40Z</time>
      </trkpt>
      <trkpt lat="45.17584" lon="5.21639">
        <ele>312.47</ele>
        <time>2017-03-26T15:30:41Z</time>
      </trkpt>
      <trkpt lat="45.17584" lon="5.21639">
        <ele>312.47</ele>
        <time>2017-03-26T15:30:42Z</time>
      </trkpt>
      <trkpt lat="45.17584" lon="5.21639">
        <ele>312.47</ele>
        <time>2017-03-26T15:30:43Z</time>
      </trkpt>
      <trkpt lat="45.17584" lon="5.21639">
        <ele>312.47</ele>
        <time>2017-03-26T15:30:44Z</time>
      </trkpt>
      <trkpt lat="45.17584" lon="5.21639">
        <ele>312.47</ele>
        <time>2017-03-26T15:30:45Z</time>
      </trkpt>
      <trkpt lat="45.17584" lon="5.21639">
        <ele>312.47</ele>
        <time>2017-03-26T15:30:46Z</time>
      </trkpt>
      <trkpt lat="45.17584" lon="5.21639">
        <ele>312.47</ele>
        <time>2017-03-26T15:30:47Z</time>
      </trkpt>
      <trkpt lat="45.17584" lon="5.21639">
        <ele>312.47</ele>
        <time>2017-03-26T15:30:48Z</time>
      </trkpt>
      <trkpt lat="45.17584" lon="5.21639">
        <ele>312.47</ele>
        <time>2017-03-26T15:30:49Z</time>
      </trkpt>
      <trkpt lat="45.17584" lon="5.21639">
        <ele>312.47</ele>
        <time>2017-03-26T15:30:50Z</time>
      </trkpt>
      <trkpt lat="45.17584" lon="5.21639">
        <ele>312.47</ele>
        <time>2017-03-26T15:30:51Z</time>
      </trkpt>
      <trkpt lat="45.17584" lon="5.21639">
        <ele>312.47</ele>
        <time>2017-03-26T15:30:52Z</time>
      </trkpt>
      <trkpt lat="45.17584" lon="5.21639">
        <ele>312.47</ele>
        <time>2017-03-26T15:30:53Z</time>
      </trkpt>
      <trkpt lat="45.17584" lon="5.21639">
        <ele>312.47</ele>
        <time>2017-03-26T15:30:54Z</time>
      </trkpt>
      <trkpt lat="45.17584" lon="5.21639">
        <ele>312.47</ele>
        <time>2017-03-26T15:30:55Z</time>
      </trkpt>
      <trkpt lat="45.17584" lon="5.21639">
        <ele>312.47</ele>
        <time>2017-03-26T15:30:56Z</time>
      </trkpt>
      <trkpt lat="45.17584" lon="5.21639">
        <ele>312.47</ele>
        <time>2017-03-26T15:30:57Z</time>
      </trkpt>
      <trkpt lat="45.17584" lon="5.21639">
        <ele>312.47</ele>
        <time>2017-03-26T15:30:58Z</time>
      </trkpt>
      <trkpt lat="45.17584" lon="5.21639">
        <ele>312.47</ele>
        <time>2017-03-26T15:30:59Z</time>
      </trkpt>
      <trkpt lat="45.17584" lon="5.21639">
        <ele>312.47</ele>
        <time>2017-03-26T15:31:00Z</time>
      </trkpt>
      <trkpt lat="45.17584" lon="5.21639">
        <ele>312.47</ele>
        <time>2017-03-26T15:31:01Z</time>
      </trkpt>
      <trkpt lat="45.17584" lon="5.21639">
        <ele>312.47</ele>
        <time>2017-03-26T15:31:02Z</time>
      </trkpt>
      <trkpt lat="45.17584" lon="5.21639">
        <ele>312.47</ele>
        <time>2017-03-26T15:31:03Z</time>
      </trkpt>
      <trkpt lat="45.17584" lon="5.21639">
        <ele>312.47</ele>
        <time>2017-03-26T15:31:04Z</time>
      </trkpt>
      <trkpt lat="45.17584" lon="5.21639">
        <ele>312.47</ele>
        <time>2017-03-26T15:31:05Z</time>
      </trkpt>
      <trkpt lat="45.17584" lon="5.21639">
        <ele>312.47</ele>
        <time>2017-03-26T15:31:06Z</time>
      </trkpt>
      <trkpt lat="45.17584" lon="5.21639">
        <ele>312.47</ele>
        <time>2017-03-26T15:31:07Z</time>
      </trkpt>
      <trkpt lat="45.17584" lon="5.21639">
        <ele>312.47</ele>
        <time>2017-03-26T15:31:08Z</time>
      </trkpt>
      <trkpt lat="45.17584" lon="5.21639">
        <ele>312.47</ele>
        <time>2017-03-26T15:31:09Z</time>
      </trkpt>
      <trkpt lat="45.17584" lon="5.21639">
        <ele>312.47</ele>
        <time>2017-03-26T15:31:10Z</time>
      </trkpt>
      <trkpt lat="45.17584" lon="5.21639">
        <ele>312.47</ele>
        <time>2017-03-26T15:31:11Z</time>
      </trkpt>
      <trkpt lat="45.17584" lon="5.21639">
        <ele>312.47</ele>
        <time>2017-03-26T15:31:12Z</time>
      </trkpt>
      <trkpt lat="45.17584" lon="5.21639">
        <ele>312.47</ele>
        <time>2017-03-26T15:31:13Z</time>
      </trkpt>
      <trkpt lat="45.17584" lon="5.21639">
        <ele>312.47</ele>
        <time>2017-03-26T15:31:14Z</time>
      </trkpt>
      <trkpt lat="45.17584" lon="5.21639">
        <ele>312.47</ele>
        <time>2017-03-26T15:31:15Z</time>
      </trkpt>
      <trkpt lat="45.17584" lon="5.21639">
        <ele>312.47</ele>
        <time>2017-03-26T15:31:16Z</time>
      </trkpt>
      <trkpt lat="45.17584" lon="5.21639">
        <ele>312.47</ele>
        <time>2017-03-26T15:31:17Z</time>
      </trkpt>
      <trkpt lat="45.17584" lon="5.21639">
        <ele>312.47</ele>
        <time>2017-03-26T15:31:18Z</time>
      </trkpt>
      <trkpt lat="45.17584" lon="5.21639">
        <ele>312.47</ele>
        <time>2017-03-26T15:31:19Z</time>
      </trkpt>
      <trkpt lat="45.17584" lon="5.21639">
        <ele>312.47</ele>
        <time>2017-03-26T15:31:20Z</time>
      </trkpt>
      <trkpt lat="45.17584" lon="5.21639">
        <ele>312.47</ele>
        <time>2017-03-26T15:31:21Z</time>
      </trkpt>
      <trkpt lat="45.17584" lon="5.21639">
        <ele>312.47</ele>
        <time>2017-03-26T15:31:22Z</time>
      </trkpt>
      <trkpt lat="45.17584" lon="5.21639">
        <ele>312.47</ele>
        <time>2017-03-26T15:31:23Z</time>
      </trkpt>
      <trkpt lat="45.17584" lon="5.21639">
        <ele>312.47</ele>
        <time>2017-03-26T15:31:24Z</time>
      </trkpt>
      <trkpt lat="45.17584" lon="5.21639">
        <ele>312.47</ele>
        <time>2017-03-26T15:31:25Z</time>
      </trkpt>
      <trkpt lat="45.17584" lon="5.21639">
        <ele>312.47</ele>
        <time>2017-03-26T15:31:26Z</time>
      </trkpt>
      <trkpt lat="45.17584" lon="5.21639">
        <ele>312.47</ele>
        <time>2017-03-26T15:31:27Z</time>
      </trkpt>
      <trkpt lat="45.17584" lon="5.21639">
        <ele>312.47</ele>
        <time>2017-03-26T15:31:28Z</time>
      </trkpt>
      <trkpt lat="45.17584" lon="5.21639">
        <ele>312.47</ele>
        <time>2017-03-26T15:31:29Z</time>
      </trkpt>
      <trkpt lat="45.17584" lon="5.21639">
        <ele>312.47</ele>
        <time>2017-03-26T15:31:30Z</time>
      </trkpt>
      <trkpt lat="45.17584" lon="5.21639">
        <ele>312.47</ele>
        <time>2017-03-26T15:31:31Z</time>
      </trkpt>
      <trkpt lat="45.17584" lon="5.21639">
        <ele>312.47</ele>
        <time>2017-03-26T15:31:32Z</time>
      </trkpt>
      <trkpt lat="45.17584" lon="5.21639">
        <ele>312.47</ele>
        <time>2017-03-26T15:31:33Z</time>
      </trkpt>
      <trkpt lat="45.17584" lon="5.21639">
        <ele>312.47</ele>
        <time>2017-03-26T15:31:34Z</time>
      </trkpt>
      <trkpt lat="45.17584" lon="5.21639">
        <ele>312.47</ele>
        <time>2017-03-26T15:31:35Z</time>
      </trkpt>
      <trkpt lat="45.17584" lon="5.21639">
        <ele>312.47</ele>
        <time>2017-03-26T15:31:36Z</time>
      </trkpt>
      <trkpt lat="45.17584" lon="5.21639">
        <ele>312.47</ele>
        <time>2017-03-26T15:31:37Z</time>
      </trkpt>
      <trkpt lat="45.17584" lon="5.21639">
        <ele>312.47</ele>
        <time>2017-03-26T15:31:38Z</time>
      </trkpt>
      <trkpt lat="45.17584" lon="5.21639">
        <ele>312.47</ele>
        <time>2017-03-26T15:31:39Z</time>
      </trkpt>
      <trkpt lat="45.17584" lon="5.21639">
        <ele>312.47</ele>
        <time>2017-03-26T15:31:40Z</time>
      </trkpt>
      <trkpt lat="45.17584" lon="5.21639">
        <ele>312.47</ele>
        <time>2017-03-26T15:31:41Z</time>
      </trkpt>
      <trkpt lat="45.17584" lon="5.21639">
        <ele>312.47</ele>
        <time>2017-03-26T15:31:42Z</time>
      </trkpt>
      <trkpt lat="45.17584" lon="5.21639">
        <ele>312.47</ele>
        <time>2017-03-26T15:31:43Z</time>
      </trkpt>
      <trkpt lat="45.17584" lon="5.21639">
        <ele>312.47</ele>
        <time>2017-03-26T15:31:44Z</time>
      </trkpt>
      <trkpt lat="45.17584" lon="5.21639">
        <ele>312.47</ele>
        <time>2017-03-26T15:31:45Z</time>
      </trkpt>
      <trkpt lat="45.17584" lon="5.21639">
        <ele>312.47</ele>
        <time>2017-03-26T15:31:46Z</time>
      </trkpt>
      <trkpt lat="45.17584" lon="5.21639">
        <ele>312.47</ele>
        <time>2017-03-26T15:31:47Z</time>
      </trkpt>
      <trkpt lat="45.17584" lon="5.21639">
        <ele>312.47</ele>
        <time>2017-03-26T15:31:48Z</time>
      </trkpt>
      <trkpt lat="45.17584" lon="5.21639">
        <ele>312.47</ele>
        <time>2017-03-26T15:31:49Z</time>
      </trkpt>
      <trkpt lat="45.17584" lon="5.21639">
        <ele>312.47</ele>
        <time>2017-03-26T15:31:50Z</time>
      </trkpt>
      <trkpt lat="45.17584" lon="5.21639">
        <ele>312.47</ele>
        <time>2017-03-26T15:31:51Z</time>
      </trkpt>
      <trkpt lat="45.17584" lon="5.21639">
        <ele>312.47</ele>
        <time>2017-03-26T15:31:52Z</time>
      </trkpt>
      <trkpt lat="45.17584" lon="5.21639">
        <ele>312.47</ele>
        <time>2017-03-26T15:31:53Z</time>
      </trkpt>
      <trkpt lat="45.17584" lon="5.21639">
        <ele>312.47</ele>
        <time>2017-03-26T15:31:54Z</time>
      </trkpt>
      <trkpt lat="45.17584" lon="5.21639">
        <ele>312.47</ele>
        <time>2017-03-26T15:31:55Z</time>
      </trkpt>
      <trkpt lat="45.17584" lon="5.21639">
        <ele>312.47</ele>
        <time>2017-03-26T15:31:56Z</time>
      </trkpt>
      <trkpt lat="45.17584" lon="5.21639">
        <ele>312.47</ele>
        <time>2017-03-26T15:31:57Z</time>
      </trkpt>
      <trkpt lat="45.17584" lon="5.21639">
        <ele>312.47</ele>
        <time>2017-03-26T15:31:58Z</time>
      </trkpt>
      <trkpt lat="45.17584" lon="5.21639">
        <ele>312.47</ele>
        <time>2017-03-26T15:31:59Z</time>
      </trkpt>
      <trkpt lat="45.17584" lon="5.21639">
        <ele>312.47</ele>
        <time>2017-03-26T15:32:00Z</time>
      </trkpt>
      <trkpt lat="45.17584" lon="5.21639">
        <ele>312.47</ele>
        <time>2017-03-26T15:32:01Z</time>
      </trkpt>
      <trkpt lat="45.17584" lon="5.21639">
        <ele>312.47</ele>
        <time>2017-03-26T15:32:02Z</time>
      </trkpt>
      <trkpt lat="45.17584" lon="5.21639">
        <ele>312.47</ele>
        <time>2017-03-26T15:32:03Z</time>
      </trkpt>
      <trkpt lat="45.17584" lon="5.21639">
        <ele>312.47</ele>
        <time>2017-03-26T15:32:04Z</time>
      </trkpt>
      <trkpt lat="45.17584" lon="5.21639">
        <ele>312.47</ele>
        <time>2017-03-26T15:32:05Z</time>
      </trkpt>
      <trkpt lat="45.17584" lon="5.21639">
        <ele>312.47</ele>
        <time>2017-03-26T15:32:06Z</time>
      </trkpt>
      <trkpt lat="45.17584" lon="5.21639">
        <ele>312.47</ele>
        <time>2017-03-26T15:32:07Z</time>
      </trkpt>
      <trkpt lat="45.17584" lon="5.21639">
        <ele>312.47</ele>
        <time>2017-03-26T15:32:08Z</time>
      </trkpt>
      <trkpt lat="45.17584" lon="5.21639">
        <ele>312.47</ele>
        <time>2017-03-26T15:32:09Z</time>
      </trkpt>
      <trkpt lat="45.17584" lon="5.21639">
        <ele>312.47</ele>
        <time>2017-03-26T15:32:10Z</time>
      </trkpt>
      <trkpt lat="45.17584" lon="5.21639">
        <ele>312.47</ele>
        <time>2017-03-26T15:32:11Z</time>
      </trkpt>
      <trkpt lat="45.17584" lon="5.21639">
        <ele>312.47</ele>
        <time>2017-03-26T15:32:12Z</time>
      </trkpt>
      <trkpt lat="45.17584" lon="5.21639">
        <ele>312.47</ele>
        <time>2017-03-26T15:32:13Z</time>
      </trkpt>
      <trkpt lat="45.17584" lon="5.21639">
        <ele>312.47</ele>
        <time>2017-03-26T15:32:14Z</time>
      </trkpt>
      <trkpt lat="45.17584" lon="5.21639">
        <ele>312.47</ele>
        <time>2017-03-26T15:32:15Z</time>
      </trkpt>
      <trkpt lat="45.17584" lon="5.21639">
        <ele>312.47</ele>
        <time>2017-03-26T15:32:16Z</time>
      </trkpt>
      <trkpt lat="45.17584" lon="5.21639">
        <ele>312.47</ele>
        <time>2017-03-26T15:32:17Z</time>
      </trkpt>
      <trkpt lat="45.17584" lon="5.21639">
        <ele>312.47</ele>
        <time>2017-03-26T15:32:18Z</time>
      </trkpt>
      <trkpt lat="45.17584" lon="5.21639">
        <ele>312.47</ele>
        <time>2017-03-26T15:32:19Z</time>
      </trkpt>
      <trkpt lat="45.17584" lon="5.21639">
        <ele>312.47</ele>
        <time>2017-03-26T15:32:20Z</time>
      </trkpt>
      <trkpt lat="45.17584" lon="5.21639">
        <ele>312.47</ele>
        <time>2017-03-26T15:32:21Z</time>
      </trkpt>
      <trkpt lat="45.17584" lon="5.21639">
        <ele>312.47</ele>
        <time>2017-03-26T15:32:22Z</time>
      </trkpt>
      <trkpt lat="45.17584" lon="5.21639">
        <ele>312.47</ele>
        <time>2017-03-26T15:32:23Z</time>
      </trkpt>
      <trkpt lat="45.17584" lon="5.21639">
        <ele>312.47</ele>
        <time>2017-03-26T15:32:24Z</time>
      </trkpt>
      <trkpt lat="45.17584" lon="5.21639">
        <ele>312.47</ele>
        <time>2017-03-26T15:32:25Z</time>
      </trkpt>
      <trkpt lat="45.17584" lon="5.21639">
        <ele>312.47</ele>
        <time>2017-03-26T15:32:26Z</time>
      </trkpt>
      <trkpt lat="45.17584" lon="5.21639">
        <ele>312.47</ele>
        <time>2017-03-26T15:32:27Z</time>
      </trkpt>
      <trkpt lat="45.17584" lon="5.21639">
        <ele>312.47</ele>
        <time>2017-03-26T15:32:28Z</time>
      </trkpt>
      <trkpt lat="45.17584" lon="5.21639">
        <ele>312.47</ele>
        <time>2017-03-26T15:32:29Z</time>
      </trkpt>
      <trkpt lat="45.17584" lon="5.21639">
        <ele>312.47</ele>
        <time>2017-03-26T15:32:30Z</time>
      </trkpt>
      <trkpt lat="45.17584" lon="5.21639">
        <ele>312.47</ele>
        <time>2017-03-26T15:32:31Z</time>
      </trkpt>
      <trkpt lat="45.17584" lon="5.21639">
        <ele>312.47</ele>
        <time>2017-03-26T15:32:32Z</time>
      </trkpt>
      <trkpt lat="45.17584" lon="5.21639">
        <ele>312.47</ele>
        <time>2017-03-26T15:32:33Z</time>
      </trkpt>
      <trkpt lat="45.17584" lon="5.21639">
        <ele>312.47</ele>
        <time>2017-03-26T15:32:34Z</time>
      </trkpt>
      <trkpt lat="45.17584" lon="5.21639">
        <ele>312.47</ele>
        <time>2017-03-26T15:32:35Z</time>
      </trkpt>
      <trkpt lat="45.17584" lon="5.21639">
        <ele>312.47</ele>
        <time>2017-03-26T15:32:36Z</time>
      </trkpt>
      <trkpt lat="45.17584" lon="5.21639">
        <ele>312.47</ele>
        <time>2017-03-26T15:32:37Z</time>
      </trkpt>
      <trkpt lat="45.17584" lon="5.21639">
        <ele>312.47</ele>
        <time>2017-03-26T15:32:38Z</time>
      </trkpt>
      <trkpt lat="45.17584" lon="5.21639">
        <ele>312.47</ele>
        <time>2017-03-26T15:32:39Z</time>
      </trkpt>
      <trkpt lat="45.17584" lon="5.21639">
        <ele>312.47</ele>
        <time>2017-03-26T15:32:40Z</time>
      </trkpt>
      <trkpt lat="45.17584" lon="5.21639">
        <ele>312.47</ele>
        <time>2017-03-26T15:32:41Z</time>
      </trkpt>
      <trkpt lat="45.17584" lon="5.21639">
        <ele>312.47</ele>
        <time>2017-03-26T15:32:42Z</time>
      </trkpt>
      <trkpt lat="45.17584" lon="5.21639">
        <ele>312.47</ele>
        <time>2017-03-26T15:32:43Z</time>
      </trkpt>
      <trkpt lat="45.17584" lon="5.21639">
        <ele>312.47</ele>
        <time>2017-03-26T15:32:44Z</time>
      </trkpt>
      <trkpt lat="45.17584" lon="5.21639">
        <ele>312.47</ele>
        <time>2017-03-26T15:32:45Z</time>
      </trkpt>
      <trkpt lat="45.17584" lon="5.21639">
        <ele>312.47</ele>
        <time>2017-03-26T15:32:46Z</time>
      </trkpt>
      <trkpt lat="45.17584" lon="5.21639">
        <ele>312.47</ele>
        <time>2017-03-26T15:32:47Z</time>
      </trkpt>
      <trkpt lat="45.17584" lon="5.21639">
        <ele>312.47</ele>
        <time>2017-03-26T15:32:48Z</time>
      </trkpt>
      <trkpt lat="45.17584" lon="5.21639">
        <ele>312.47</ele>
        <time>2017-03-26T15:32:49Z</time>
      </trkpt>
      <trkpt lat="45.17584" lon="5.21639">
        <ele>312.47</ele>
        <time>2017-03-26T15:32:50Z</time>
      </trkpt>
      <trkpt lat="45.17584" lon="5.21639">
        <ele>312.47</ele>
        <time>2017-03-26T15:32:51Z</time>
      </trkpt>
      <trkpt lat="45.17584" lon="5.21639">
        <ele>312.47</ele>
        <time>2017-03-26T15:32:52Z</time>
      </trkpt>
      <trkpt lat="45.17584" lon="5.21639">
        <ele>312.47</ele>
        <time>2017-03-26T15:32:53Z</time>
      </trkpt>
      <trkpt lat="45.17584" lon="5.21639">
        <ele>312.47</ele>
        <time>2017-03-26T15:32:54Z</time>
      </trkpt>
      <trkpt lat="45.17584" lon="5.21639">
        <ele>312.47</ele>
        <time>2017-03-26T15:32:55Z</time>
      </trkpt>
      <trkpt lat="45.17584" lon="5.21639">
        <ele>312.47</ele>
        <time>2017-03-26T15:32:56Z</time>
      </trkpt>
      <trkpt lat="45.17584" lon="5.21639">
        <ele>312.47</ele>
        <time>2017-03-26T15:32:57Z</time>
      </trkpt>
      <trkpt lat="45.17584" lon="5.21639">
        <ele>312.47</ele>
        <time>2017-03-26T15:32:58Z</time>
      </trkpt>
      <trkpt lat="45.17584" lon="5.21639">
        <ele>312.47</ele>
        <time>2017-03-26T15:32:59Z</time>
      </trkpt>
      <trkpt lat="45.17584" lon="5.21639">
        <ele>312.47</ele>
        <time>2017-03-26T15:33:00Z</time>
      </trkpt>
      <trkpt lat="45.17584" lon="5.21639">
        <ele>312.47</ele>
        <time>2017-03-26T15:33:01Z</time>
      </trkpt>
      <trkpt lat="45.17584" lon="5.21639">
        <ele>312.47</ele>
        <time>2017-03-26T15:33:02Z</time>
      </trkpt>
      <trkpt lat="45.17584" lon="5.21639">
        <ele>312.47</ele>
        <time>2017-03-26T15:33:03Z</time>
      </trkpt>
      <trkpt lat="45.17584" lon="5.21639">
        <ele>312.47</ele>
        <time>2017-03-26T15:33:04Z</time>
      </trkpt>
      <trkpt lat="45.17584" lon="5.21639">
        <ele>312.47</ele>
        <time>2017-03-26T15:33:05Z</time>
      </trkpt>
      <trkpt lat="45.17584" lon="5.21639">
        <ele>312.47</ele>
        <time>2017-03-26T15:33:06Z</time>
      </trkpt>
      <trkpt lat="45.17584" lon="5.21639">
        <ele>312.47</ele>
        <time>2017-03-26T15:33:07Z</time>
      </trkpt>
      <trkpt lat="45.17584" lon="5.21639">
        <ele>312.47</ele>
        <time>2017-03-26T15:33:08Z</time>
      </trkpt>
      <trkpt lat="45.17584" lon="5.21639">
        <ele>312.47</ele>
        <time>2017-03-26T15:33:09Z</time>
      </trkpt>
      <trkpt lat="45.17584" lon="5.21639">
        <ele>312.47</ele>
        <time>2017-03-26T15:33:10Z</time>
      </trkpt>
      <trkpt lat="45.17584" lon="5.21639">
        <ele>312.47</ele>
        <time>2017-03-26T15:33:11Z</time>
      </trkpt>
      <trkpt lat="45.17584" lon="5.21639">
        <ele>312.47</ele>
        <time>2017-03-26T15:33:12Z</time>
      </trkpt>
      <trkpt lat="45.17584" lon="5.21639">
        <ele>312.47</ele>
        <time>2017-03-26T15:33:13Z</time>
      </trkpt>
      <trkpt lat="45.17584" lon="5.21639">
        <ele>312.47</ele>
        <time>2017-03-26T15:33:14Z</time>
      </trkpt>
      <trkpt lat="45.17584" lon="5.21639">
        <ele>312.47</ele>
        <time>2017-03-26T15:33:15Z</time>
      </trkpt>
      <trkpt lat="45.17584" lon="5.21639">
        <ele>312.47</ele>
        <time>2017-03-26T15:33:16Z</time>
      </trkpt>
      <trkpt lat="45.17584" lon="5.21639">
        <ele>312.47</ele>
        <time>2017-03-26T15:33:17Z</time>
      </trkpt>
      <trkpt lat="45.17584" lon="5.21639">
        <ele>312.47</ele>
        <time>2017-03-26T15:33:18Z</time>
      </trkpt>
      <trkpt lat="45.17584" lon="5.21639">
        <ele>312.47</ele>
        <time>2017-03-26T15:33:19Z</time>
      </trkpt>
      <trkpt lat="45.17584" lon="5.21639">
        <ele>312.47</ele>
        <time>2017-03-26T15:33:20Z</time>
      </trkpt>
      <trkpt lat="45.17584" lon="5.21639">
        <ele>312.47</ele>
        <time>2017-03-26T15:33:21Z</time>
      </trkpt>
      <trkpt lat="45.17584" lon="5.21639">
        <ele>312.47</ele>
        <time>2017-03-26T15:33:22Z</time>
      </trkpt>
      <trkpt lat="45.17584" lon="5.21639">
        <ele>312.47</ele>
        <time>2017-03-26T15:33:23Z</time>
      </trkpt>
      <trkpt lat="45.17584" lon="5.21639">
        <ele>312.47</ele>
        <time>2017-03-26T15:33:24Z</time>
      </trkpt>
      <trkpt lat="45.17584" lon="5.21639">
        <ele>312.47</ele>
        <time>2017-03-26T15:33:25Z</time>
      </trkpt>
      <trkpt lat="45.17584" lon="5.21639">
        <ele>312.47</ele>
        <time>2017-03-26T15:33:26Z</time>
      </trkpt>
      <trkpt lat="45.17584" lon="5.21639">
        <ele>312.47</ele>
        <time>2017-03-26T15:33:27Z</time>
      </trkpt>
      <trkpt lat="45.17584" lon="5.21639">
        <ele>312.47</ele>
        <time>2017-03-26T15:33:28Z</time>
      </trkpt>
      <trkpt lat="45.17584" lon="5.21639">
        <ele>312.47</ele>
        <time>2017-03-26T15:33:29Z</time>
      </trkpt>
      <trkpt lat="45.17584" lon="5.21639">
        <ele>312.47</ele>
        <time>2017-03-26T15:33:30Z</time>
      </trkpt>
      <trkpt lat="45.17584" lon="5.21639">
        <ele>312.47</ele>
        <time>2017-03-26T15:33:31Z</time>
      </trkpt>
      <trkpt lat="45.17584" lon="5.21639">
        <ele>312.47</ele>
        <time>2017-03-26T15:33:32Z</time>
      </trkpt>
      <trkpt lat="45.17584" lon="5.21639">
        <ele>312.47</ele>
        <time>2017-03-26T15:33:33Z</time>
      </trkpt>
      <trkpt lat="45.17584" lon="5.21639">
        <ele>312.47</ele>
        <time>2017-03-26T15:33:34Z</time>
      </trkpt>
      <trkpt lat="45.17584" lon="5.21639">
        <ele>312.47</ele>
        <time>2017-03-26T15:33:35Z</time>
      </trkpt>
      <trkpt lat="45.17584" lon="5.21639">
        <ele>312.47</ele>
        <time>2017-03-26T15:33:36Z</time>
      </trkpt>
      <trkpt lat="45.17584" lon="5.21639">
        <ele>312.47</ele>
        <time>2017-03-26T15:33:37Z</time>
      </trkpt>
      <trkpt lat="45.17584" lon="5.21639">
        <ele>312.47</ele>
        <time>2017-03-26T15:33:38Z</time>
      </trkpt>
      <trkpt lat="45.17584" lon="5.21639">
        <ele>312.47</ele>
        <time>2017-03-26T15:33:39Z</time>
      </trkpt>
      <trkpt lat="45.17584" lon="5.21639">
        <ele>312.47</ele>
        <time>2017-03-26T15:33:40Z</time>
      </trkpt>
      <trkpt lat="45.17584" lon="5.21639">
        <ele>312.47</ele>
        <time>2017-03-26T15:33:41Z</time>
      </trkpt>
      <trkpt lat="45.17584" lon="5.21639">
        <ele>312.47</ele>
        <time>2017-03-26T15:33:42Z</time>
      </trkpt>
      <trkpt lat="45.17584" lon="5.21639">
        <ele>312.47</ele>
        <time>2017-03-26T15:33:43Z</time>
      </trkpt>
      <trkpt lat="45.17584" lon="5.21639">
        <ele>312.47</ele>
        <time>2017-03-26T15:33:44Z</time>
      </trkpt>
      <trkpt lat="45.17584" lon="5.21639">
        <ele>312.47</ele>
        <time>2017-03-26T15:33:45Z</time>
      </trkpt>
      <trkpt lat="45.17584" lon="5.21639">
        <ele>312.47</ele>
        <time>2017-03-26T15:33:46Z</time>
      </trkpt>
      <trkpt lat="45.17584" lon="5.21639">
        <ele>312.47</ele>
        <time>2017-03-26T15:33:47Z</time>
      </trkpt>
      <trkpt lat="45.17584" lon="5.21639">
        <ele>312.47</ele>
        <time>2017-03-26T15:33:48Z</time>
      </trkpt>
      <trkpt lat="45.17584" lon="5.21639">
        <ele>312.47</ele>
        <time>2017-03-26T15:33:49Z</time>
      </trkpt>
      <trkpt lat="45.17584" lon="5.21639">
        <ele>312.47</ele>
        <time>2017-03-26T15:33:50Z</time>
      </trkpt>
      <trkpt lat="45.17584" lon="5.21639">
        <ele>312.47</ele>
        <time>2017-03-26T15:33:51Z</time>
      </trkpt>
      <trkpt lat="45.17584" lon="5.21639">
        <ele>312.47</ele>
        <time>2017-03-26T15:33:52Z</time>
      </trkpt>
      <trkpt lat="45.17584" lon="5.21639">
        <ele>312.47</ele>
        <time>2017-03-26T15:33:53Z</time>
      </trkpt>
      <trkpt lat="45.17584" lon="5.21639">
        <ele>312.47</ele>
        <time>2017-03-26T15:33:54Z</time>
      </trkpt>
      <trkpt lat="45.17584" lon="5.21639">
        <ele>312.47</ele>
        <time>2017-03-26T15:33:55Z</time>
      </trkpt>
      <trkpt lat="45.17584" lon="5.21639">
        <ele>312.47</ele>
        <time>2017-03-26T15:33:56Z</time>
      </trkpt>
      <trkpt lat="45.17584" lon="5.21639">
        <ele>312.47</ele>
        <time>2017-03-26T15:33:57Z</time>
      </trkpt>
      <trkpt lat="45.17584" lon="5.21639">
        <ele>312.47</ele>
        <time>2017-03-26T15:33:58Z</time>
      </trkpt>
      <trkpt lat="45.17584" lon="5.21639">
        <ele>312.47</ele>
        <time>2017-03-26T15:33:59Z</time>
      </trkpt>
      <trkpt lat="45.17584" lon="5.21639">
        <ele>312.47</ele>
        <time>2017-03-26T15:34:00Z</time>
      </trkpt>
      <trkpt lat="45.17584" lon="5.21639">
        <ele>312.47</ele>
        <time>2017-03-26T15:34:01Z</time>
      </trkpt>
      <trkpt lat="45.17584" lon="5.21639">
        <ele>312.47</ele>
        <time>2017-03-26T15:34:02Z</time>
      </trkpt>
      <trkpt lat="45.17584" lon="5.21639">
        <ele>312.47</ele>
        <time>2017-03-26T15:34:03Z</time>
      </trkpt>
      <trkpt lat="45.17584" lon="5.21639">
        <ele>312.47</ele>
        <time>2017-03-26T15:34:04Z</time>
      </trkpt>
      <trkpt lat="45.17584" lon="5.21639">
        <ele>312.47</ele>
        <time>2017-03-26T15:34:05Z</time>
      </trkpt>
      <trkpt lat="45.17584" lon="5.21639">
        <ele>312.47</ele>
        <time>2017-03-26T15:34:06Z</time>
      </trkpt>
      <trkpt lat="45.17584" lon="5.21639">
        <ele>312.47</ele>
        <time>2017-03-26T15:34:07Z</time>
      </trkpt>
      <trkpt lat="45.17584" lon="5.21639">
        <ele>312.47</ele>
        <time>2017-03-26T15:34:08Z</time>
      </trkpt>
      <trkpt lat="45.17584" lon="5.21639">
        <ele>312.47</ele>
        <time>2017-03-26T15:34:09Z</time>
      </trkpt>
      <trkpt lat="45.17584" lon="5.21639">
        <ele>312.47</ele>
        <time>2017-03-26T15:34:10Z</time>
      </trkpt>
      <trkpt lat="45.17584" lon="5.21639">
        <ele>312.47</ele>
        <time>2017-03-26T15:34:11Z</time>
      </trkpt>
      <trkpt lat="45.17584" lon="5.21639">
        <ele>312.47</ele>
        <time>2017-03-26T15:34:12Z</time>
      </trkpt>
      <trkpt lat="45.17584" lon="5.21639">
        <ele>312.47</ele>
        <time>2017-03-26T15:34:13Z</time>
      </trkpt>
      <trkpt lat="45.17584" lon="5.21639">
        <ele>312.47</ele>
        <time>2017-03-26T15:34:14Z</time>
      </trkpt>
      <trkpt lat="45.17584" lon="5.21639">
        <ele>312.47</ele>
        <time>2017-03-26T15:34:15Z</time>
      </trkpt>
      <trkpt lat="45.17584" lon="5.21639">
        <ele>312.47</ele>
        <time>2017-03-26T15:34:16Z</time>
      </trkpt>
      <trkpt lat="45.17584" lon="5.21639">
        <ele>312.47</ele>
        <time>2017-03-26T15:34:17Z</time>
      </trkpt>
      <trkpt lat="45.17584" lon="5.21639">
        <ele>312.47</ele>
        <time>2017-03-26T15:34:18Z</time>
      </trkpt>
      <trkpt lat="45.17584" lon="5.21639">
        <ele>312.47</ele>
        <time>2017-03-26T15:34:19Z</time>
      </trkpt>
      <trkpt lat="45.17584" lon="5.21639">
        <ele>312.47</ele>
        <time>2017-03-26T15:34:20Z</time>
      </trkpt>
      <trkpt lat="45.17584" lon="5.21639">
        <ele>312.47</ele>
        <time>2017-03-26T15:34:21Z</time>
      </trkpt>
      <trkpt lat="45.17584" lon="5.21639">
        <ele>312.47</ele>
        <time>2017-03-26T15:34:22Z</time>
      </trkpt>
      <trkpt lat="45.17584" lon="5.21639">
        <ele>312.47</ele>
        <time>2017-03-26T15:34:23Z</time>
      </trkpt>
      <trkpt lat="45.17584" lon="5.21639">
        <ele>312.47</ele>
        <time>2017-03-26T15:34:24Z</time>
      </trkpt>
      <trkpt lat="45.17584" lon="5.21639">
        <ele>312.47</ele>
        <time>2017-03-26T15:34:25Z</time>
      </trkpt>
      <trkpt lat="45.17584" lon="5.21639">
        <ele>312.47</ele>
        <time>2017-03-26T15:34:26Z</time>
      </trkpt>
      <trkpt lat="45.17584" lon="5.21639">
        <ele>312.47</ele>
        <time>2017-03-26T15:34:27Z</time>
      </trkpt>
      <trkpt lat="45.17584" lon="5.21639">
        <ele>312.47</ele>
        <time>2017-03-26T15:34:28Z</time>
      </trkpt>
      <trkpt lat="45.17584" lon="5.21639">
        <ele>312.47</ele>
        <time>2017-03-26T15:34:29Z</time>
      </trkpt>
      <trkpt lat="45.17584" lon="5.21639">
        <ele>312.47</ele>
        <time>2017-03-26T15:34:30Z</time>
      </trkpt>
      <trkpt lat="45.17584" lon="5.21639">
        <ele>312.47</ele>
        <time>2017-03-26T15:34:31Z</time>
      </trkpt>
      <trkpt lat="45.17584" lon="5.21639">
        <ele>312.47</ele>
        <time>2017-03-26T15:34:32Z</time>
      </trkpt>
      <trkpt lat="45.17584" lon="5.21639">
        <ele>312.47</ele>
        <time>2017-03-26T15:34:33Z</time>
      </trkpt>
      <trkpt lat="45.17584" lon="5.21639">
        <ele>312.47</ele>
        <time>2017-03-26T15:34:34Z</time>
      </trkpt>
      <trkpt lat="45.17584" lon="5.21639">
        <ele>312.47</ele>
        <time>2017-03-26T15:34:35Z</time>
      </trkpt>
      <trkpt lat="45.17584" lon="5.21639">
        <ele>312.47</ele>
        <time>2017-03-26T15:34:36Z</time>
      </trkpt>
      <trkpt lat="45.17584" lon="5.21639">
        <ele>312.47</ele>
        <time>2017-03-26T15:34:37Z</time>
      </trkpt>
      <trkpt lat="45.17584" lon="5.21639">
        <ele>312.47</ele>
        <time>2017-03-26T15:34:38Z</time>
      </trkpt>
      <trkpt lat="45.17584" lon="5.21639">
        <ele>312.47</ele>
        <time>2017-03-26T15:34:39Z</time>
      </trkpt>
      <trkpt lat="45.17584" lon="5.21639">
        <ele>312.47</ele>
        <time>2017-03-26T15:34:40Z</time>
      </trkpt>
      <trkpt lat="45.17584" lon="5.21639">
        <ele>312.47</ele>
        <time>2017-03-26T15:34:41Z</time>
      </trkpt>
      <trkpt lat="45.17584" lon="5.21639">
        <ele>312.47</ele>
        <time>2017-03-26T15:34:42Z</time>
      </trkpt>
      <trkpt lat="45.17584" lon="5.21639">
        <ele>312.47</ele>
        <time>2017-03-26T15:34:43Z</time>
      </trkpt>
      <trkpt lat="45.17584" lon="5.21639">
        <ele>312.47</ele>
        <time>2017-03-26T15:34:44Z</time>
      </trkpt>
      <trkpt lat="45.17584" lon="5.21639">
        <ele>312.47</ele>
        <time>2017-03-26T15:34:45Z</time>
      </trkpt>
      <trkpt lat="45.17584" lon="5.21639">
        <ele>312.47</ele>
        <time>2017-03-26T15:34:46Z</time>
      </trkpt>
      <trkpt lat="45.17584" lon="5.21639">
        <ele>312.47</ele>
        <time>2017-03-26T15:34:47Z</time>
      </trkpt>
      <trkpt lat="45.17584" lon="5.21639">
        <ele>312.47</ele>
        <time>2017-03-26T15:34:48Z</time>
      </trkpt>
      <trkpt lat="45.17584" lon="5.21639">
        <ele>312.47</ele>
        <time>2017-03-26T15:34:49Z</time>
      </trkpt>
      <trkpt lat="45.17584" lon="5.21639">
        <ele>312.47</ele>
        <time>2017-03-26T15:34:50Z</time>
      </trkpt>
      <trkpt lat="45.17584" lon="5.21639">
        <ele>312.47</ele>
        <time>2017-03-26T15:34:51Z</time>
      </trkpt>
      <trkpt lat="45.17584" lon="5.21639">
        <ele>312.47</ele>
        <time>2017-03-26T15:34:52Z</time>
      </trkpt>
      <trkpt lat="45.17584" lon="5.21639">
        <ele>312.47</ele>
        <time>2017-03-26T15:34:53Z</time>
      </trkpt>
      <trkpt lat="45.17584" lon="5.21639">
        <ele>312.47</ele>
        <time>2017-03-26T15:34:54Z</time>
      </trkpt>
      <trkpt lat="45.17584" lon="5.21639">
        <ele>312.47</ele>
        <time>2017-03-26T15:34:55Z</time>
      </trkpt>
      <trkpt lat="45.17584" lon="5.21639">
        <ele>312.47</ele>
        <time>2017-03-26T15:34:56Z</time>
      </trkpt>
      <trkpt lat="45.17584" lon="5.21639">
        <ele>312.47</ele>
        <time>2017-03-26T15:34:57Z</time>
      </trkpt>
      <trkpt lat="45.17584" lon="5.21639">
        <ele>312.47</ele>
        <time>2017-03-26T15:34:58Z</time>
      </trkpt>
      <trkpt lat="45.17584" lon="5.21639">
        <ele>312.47</ele>
        <time>2017-03-26T15:34:59Z</time>
      </trkpt>
      <trkpt lat="45.17584" lon="5.21639">
        <ele>312.47</ele>
        <time>2017-03-26T15:35:00Z</time>
      </trkpt>
      <trkpt lat="45.17584" lon="5.21639">
        <ele>312.47</ele>
        <time>2017-03-26T15:35:01Z</time>
      </trkpt>
      <trkpt lat="45.17584" lon="5.21639">
        <ele>312.47</ele>
        <time>2017-03-26T15:35:02Z</time>
      </trkpt>
      <trkpt lat="45.17584" lon="5.21639">
        <ele>312.47</ele>
        <time>2017-03-26T15:35:03Z</time>
      </trkpt>
      <trkpt lat="45.17584" lon="5.21639">
        <ele>312.47</ele>
        <time>2017-03-26T15:35:04Z</time>
      </trkpt>
      <trkpt lat="45.17584" lon="5.21639">
        <ele>312.47</ele>
        <time>2017-03-26T15:35:05Z</time>
      </trkpt>
      <trkpt lat="45.17584" lon="5.21639">
        <ele>312.47</ele>
        <time>2017-03-26T15:35:06Z</time>
      </trkpt>
      <trkpt lat="45.17584" lon="5.21639">
        <ele>312.47</ele>
        <time>2017-03-26T15:35:07Z</time>
      </trkpt>
      <trkpt lat="45.17584" lon="5.21639">
        <ele>312.47</ele>
        <time>2017-03-26T15:35:08Z</time>
      </trkpt>
      <trkpt lat="45.17584" lon="5.21639">
        <ele>312.47</ele>
        <time>2017-03-26T15:35:09Z</time>
      </trkpt>
      <trkpt lat="45.17584" lon="5.21639">
        <ele>312.47</ele>
        <time>2017-03-26T15:35:10Z</time>
      </trkpt>
      <trkpt lat="45.17584" lon="5.21639">
        <ele>312.47</ele>
        <time>2017-03-26T15:35:11Z</time>
      </trkpt>
      <trkpt lat="45.17584" lon="5.21639">
        <ele>312.47</ele>
        <time>2017-03-26T15:35:12Z</time>
      </trkpt>
      <trkpt lat="45.17584" lon="5.21639">
        <ele>312.47</ele>
        <time>2017-03-26T15:35:13Z</time>
      </trkpt>
      <trkpt lat="45.17584" lon="5.21639">
        <ele>312.47</ele>
        <time>2017-03-26T15:35:14Z</time>
      </trkpt>
      <trkpt lat="45.17584" lon="5.21639">
        <ele>312.47</ele>
        <time>2017-03-26T15:35:15Z</time>
      </trkpt>
      <trkpt lat="45.17584" lon="5.21639">
        <ele>312.47</ele>
        <time>2017-03-26T15:35:16Z</time>
      </trkpt>
      <trkpt lat="45.17584" lon="5.21639">
        <ele>312.47</ele>
        <time>2017-03-26T15:35:17Z</time>
      </trkpt>
      <trkpt lat="45.17584" lon="5.21639">
        <ele>312.47</ele>
        <time>2017-03-26T15:35:18Z</time>
      </trkpt>
      <trkpt lat="45.17584" lon="5.21639">
        <ele>312.47</ele>
        <time>2017-03-26T15:35:19Z</time>
      </trkpt>
      <trkpt lat="45.17584" lon="5.21639">
        <ele>312.47</ele>
        <time>2017-03-26T15:35:20Z</time>
      </trkpt>
      <trkpt lat="45.17584" lon="5.21639">
        <ele>312.47</ele>
        <time>2017-03-26T15:35:21Z</time>
      </trkpt>
      <trkpt lat="45.17584" lon="5.21639">
        <ele>312.47</ele>
        <time>2017-03-26T15:35:22Z</time>
      </trkpt>
      <trkpt lat="45.17584" lon="5.21639">
        <ele>312.47</ele>
        <time>2017-03-26T15:35:23Z</time>
      </trkpt>
      <trkpt lat="45.17584" lon="5.21639">
        <ele>312.47</ele>
        <time>2017-03-26T15:35:24Z</time>
      </trkpt>
      <trkpt lat="45.17584" lon="5.21639">
        <ele>312.47</ele>
        <time>2017-03-26T15:35:25Z</time>
      </trkpt>
      <trkpt lat="45.17584" lon="5.21639">
        <ele>312.47</ele>
        <time>2017-03-26T15:35:26Z</time>
      </trkpt>
      <trkpt lat="45.17584" lon="5.21639">
        <ele>312.47</ele>
        <time>2017-03-26T15:35:27Z</time>
      </trkpt>
      <trkpt lat="45.17584" lon="5.21639">
        <ele>312.47</ele>
        <time>2017-03-26T15:35:28Z</time>
      </trkpt>
      <trkpt lat="45.17584" lon="5.21639">
        <ele>312.47</ele>
        <time>2017-03-26T15:35:29Z</time>
      </trkpt>
      <trkpt lat="45.17584" lon="5.21639">
        <ele>312.47</ele>
        <time>2017-03-26T15:35:30Z</time>
      </trkpt>
      <trkpt lat="45.17584" lon="5.21639">
        <ele>312.47</ele>
        <time>2017-03-26T15:35:31Z</time>
      </trkpt>
      <trkpt lat="45.17584" lon="5.21639">
        <ele>312.47</ele>
        <time>2017-03-26T15:35:32Z</time>
      </trkpt>
      <trkpt lat="45.17584" lon="5.21639">
        <ele>312.47</ele>
        <time>2017-03-26T15:35:33Z</time>
      </trkpt>
      <trkpt lat="45.17584" lon="5.21639">
        <ele>312.47</ele>
        <time>2017-03-26T15:35:34Z</time>
      </trkpt>
      <trkpt lat="45.17584" lon="5.21639">
        <ele>312.47</ele>
        <time>2017-03-26T15:35:35Z</time>
      </trkpt>
      <trkpt lat="45.17584" lon="5.21639">
        <ele>312.47</ele>
        <time>2017-03-26T15:35:36Z</time>
      </trkpt>
      <trkpt lat="45.17584" lon="5.21639">
        <ele>312.47</ele>
        <time>2017-03-26T15:35:37Z</time>
      </trkpt>
      <trkpt lat="45.17584" lon="5.21639">
        <ele>312.47</ele>
        <time>2017-03-26T15:35:38Z</time>
      </trkpt>
      <trkpt lat="45.17584" lon="5.21639">
        <ele>312.47</ele>
        <time>2017-03-26T15:35:39Z</time>
      </trkpt>
      <trkpt lat="45.17584" lon="5.21639">
        <ele>312.47</ele>
        <time>2017-03-26T15:35:40Z</time>
      </trkpt>
      <trkpt lat="45.17584" lon="5.21639">
        <ele>312.47</ele>
        <time>2017-03-26T15:35:41Z</time>
      </trkpt>
      <trkpt lat="45.17584" lon="5.21639">
        <ele>312.47</ele>
        <time>2017-03-26T15:35:42Z</time>
      </trkpt>
      <trkpt lat="45.17584" lon="5.21639">
        <ele>312.47</ele>
        <time>2017-03-26T15:35:43Z</time>
      </trkpt>
      <trkpt lat="45.17584" lon="5.21639">
        <ele>312.47</ele>
        <time>2017-03-26T15:35:44Z</time>
      </trkpt>
      <trkpt lat="45.17584" lon="5.21639">
        <ele>312.47</ele>
        <time>2017-03-26T15:35:45Z</time>
      </trkpt>
      <trkpt lat="45.17584" lon="5.21639">
        <ele>312.47</ele>
        <time>2017-03-26T15:35:46Z</time>
      </trkpt>
      <trkpt lat="45.17584" lon="5.21639">
        <ele>312.47</ele>
        <time>2017-03-26T15:35:47Z</time>
      </trkpt>
      <trkpt lat="45.17584" lon="5.21639">
        <ele>312.47</ele>
        <time>2017-03-26T15:35:48Z</time>
      </trkpt>
      <trkpt lat="45.17584" lon="5.21639">
        <ele>312.47</ele>
        <time>2017-03-26T15:35:49Z</time>
      </trkpt>
      <trkpt lat="45.17584" lon="5.21639">
        <ele>312.47</ele>
        <time>2017-03-26T15:35:50Z</time>
      </trkpt>
      <trkpt lat="45.17584" lon="5.21639">
        <ele>312.47</ele>
        <time>2017-03-26T15:35:51Z</time>
      </trkpt>
      <trkpt lat="45.17584" lon="5.21639">
        <ele>312.47</ele>
        <time>2017-03-26T15:35:52Z</time>
      </trkpt>
      <trkpt lat="45.17584" lon="5.21639">
        <ele>312.47</ele>
        <time>2017-03-26T15:35:53Z</time>
      </trkpt>
      <trkpt lat="45.17584" lon="5.21639">
        <ele>312.47</ele>
        <time>2017-03-26T15:35:54Z</time>
      </trkpt>
      <trkpt lat="45.17584" lon="5.21639">
        <ele>312.47</ele>
        <time>2017-03-26T15:35:55Z</time>
      </trkpt>
      <trkpt lat="45.17584" lon="5.21639">
        <ele>312.47</ele>
        <time>2017-03-26T15:35:56Z</time>
      </trkpt>
      <trkpt lat="45.17584" lon="5.21639">
        <ele>312.47</ele>
        <time>2017-03-26T15:35:57Z</time>
      </trkpt>
      <trkpt lat="45.17584" lon="5.21639">
        <ele>312.47</ele>
        <time>2017-03-26T15:35:58Z</time>
      </trkpt>
      <trkpt lat="45.17584" lon="5.21639">
        <ele>312.47</ele>
        <time>2017-03-26T15:35:59Z</time>
      </trkpt>
      <trkpt lat="45.17584" lon="5.21639">
        <ele>312.47</ele>
        <time>2017-03-26T15:36:00Z</time>
      </trkpt>
      <trkpt lat="45.17584" lon="5.21639">
        <ele>312.47</ele>
        <time>2017-03-26T15:36:01Z</time>
      </trkpt>
      <trkpt lat="45.17584" lon="5.21639">
        <ele>312.47</ele>
        <time>2017-03-26T15:36:02Z</time>
      </trkpt>
      <trkpt lat="45.17584" lon="5.21639">
        <ele>312.47</ele>
        <time>2017-03-26T15:36:03Z</time>
      </trkpt>
      <trkpt lat="45.17584" lon="5.21639">
        <ele>312.47</ele>
        <time>2017-03-26T15:36:04Z</time>
      </trkpt>
      <trkpt lat="45.17584" lon="5.21639">
        <ele>312.47</ele>
        <time>2017-03-26T15:36:05Z</time>
      </trkpt>
      <trkpt lat="45.17584" lon="5.21639">
        <ele>312.47</ele>
        <time>2017-03-26T15:36:06Z</time>
      </trkpt>
      <trkpt lat="45.17584" lon="5.21639">
        <ele>312.47</ele>
        <time>2017-03-26T15:36:07Z</time>
      </trkpt>
      <trkpt lat="45.17584" lon="5.21639">
        <ele>312.47</ele>
        <time>2017-03-26T15:36:08Z</time>
      </trkpt>
      <trkpt lat="45.17584" lon="5.21639">
        <ele>312.47</ele>
        <time>2017-03-26T15:36:09Z</time>
      </trkpt>
      <trkpt lat="45.17584" lon="5.21639">
        <ele>312.47</ele>
        <time>2017-03-26T15:36:10Z</time>
      </trkpt>
      <trkpt lat="45.17584" lon="5.21639">
        <ele>312.47</ele>
        <time>2017-03-26T15:36:11Z</time>
      </trkpt>
      <trkpt lat="45.17584" lon="5.21639">
        <ele>312.47</ele>
        <time>2017-03-26T15:36:12Z</time>
      </trkpt>
      <trkpt lat="45.17584" lon="5.21639">
        <ele>312.47</ele>
        <time>2017-03-26T15:36:13Z</time>
      </trkpt>
      <trkpt lat="45.17584" lon="5.21639">
        <ele>312.47</ele>
        <time>2017-03-26T15:36:14Z</time>
      </trkpt>
      <trkpt lat="45.17584" lon="5.21639">
        <ele>312.47</ele>
        <time>2017-03-26T15:36:15Z</time>
      </trkpt>
      <trkpt lat="45.17584" lon="5.21639">
        <ele>312.47</ele>
        <time>2017-03-26T15:36:16Z</time>
      </trkpt>
      <trkpt lat="45.17584" lon="5.21639">
        <ele>312.47</ele>
        <time>2017-03-26T15:36:17Z</time>
      </trkpt>
      <trkpt lat="45.17584" lon="5.21639">
        <ele>312.47</ele>
        <time>2017-03-26T15:36:18Z</time>
      </trkpt>
      <trkpt lat="45.17584" lon="5.21639">
        <ele>312.47</ele>
        <time>2017-03-26T15:36:19Z</time>
      </trkpt>
      <trkpt lat="45.17584" lon="5.21639">
        <ele>312.47</ele>
        <time>2017-03-26T15:36:20Z</time>
      </trkpt>
      <trkpt lat="45.17584" lon="5.21639">
        <ele>312.47</ele>
        <time>2017-03-26T15:36:21Z</time>
      </trkpt>
      <trkpt lat="45.17584" lon="5.21639">
        <ele>312.47</ele>
        <time>2017-03-26T15:36:22Z</time>
      </trkpt>
      <trkpt lat="45.17584" lon="5.21639">
        <ele>312.47</ele>
        <time>2017-03-26T15:36:23Z</time>
      </trkpt>
      <trkpt lat="45.17584" lon="5.21639">
        <ele>312.47</ele>
        <time>2017-03-26T15:36:24Z</time>
      </trkpt>
      <trkpt lat="45.17584" lon="5.21639">
        <ele>312.47</ele>
        <time>2017-03-26T15:36:25Z</time>
      </trkpt>
      <trkpt lat="45.17584" lon="5.21639">
        <ele>312.47</ele>
        <time>2017-03-26T15:36:26Z</time>
      </trkpt>
      <trkpt lat="45.17584" lon="5.21639">
        <ele>312.47</ele>
        <time>2017-03-26T15:36:27Z</time>
      </trkpt>
      <trkpt lat="45.17584" lon="5.21639">
        <ele>312.47</ele>
        <time>2017-03-26T15:36:28Z</time>
      </trkpt>
      <trkpt lat="45.17584" lon="5.21639">
        <ele>312.47</ele>
        <time>2017-03-26T15:36:29Z</time>
      </trkpt>
      <trkpt lat="45.17584" lon="5.21639">
        <ele>312.47</ele>
        <time>2017-03-26T15:36:30Z</time>
      </trkpt>
      <trkpt lat="45.17584" lon="5.21639">
        <ele>312.47</ele>
        <time>2017-03-26T15:36:31Z</time>
      </trkpt>
      <trkpt lat="45.17584" lon="5.21639">
        <ele>312.47</ele>
        <time>2017-03-26T15:36:32Z</time>
      </trkpt>
      <trkpt lat="45.17584" lon="5.21639">
        <ele>312.47</ele>
        <time>2017-03-26T15:36:33Z</time>
      </trkpt>
      <trkpt lat="45.17584" lon="5.21639">
        <ele>312.47</ele>
        <time>2017-03-26T15:36:34Z</time>
      </trkpt>
      <trkpt lat="45.17584" lon="5.21639">
        <ele>312.47</ele>
        <time>2017-03-26T15:36:35Z</time>
      </trkpt>
      <trkpt lat="45.17584" lon="5.21639">
        <ele>312.47</ele>
        <time>2017-03-26T15:36:36Z</time>
      </trkpt>
      <trkpt lat="45.17584" lon="5.21639">
        <ele>312.47</ele>
        <time>2017-03-26T15:36:37Z</time>
      </trkpt>
      <trkpt lat="45.17584" lon="5.21639">
        <ele>312.47</ele>
        <time>2017-03-26T15:36:38Z</time>
      </trkpt>
      <trkpt lat="45.17584" lon="5.21639">
        <ele>312.47</ele>
        <time>2017-03-26T15:36:39Z</time>
      </trkpt>
      <trkpt lat="45.17584" lon="5.21639">
        <ele>312.47</ele>
        <time>2017-03-26T15:36:40Z</time>
      </trkpt>
      <trkpt lat="45.17584" lon="5.21639">
        <ele>312.47</ele>
        <time>2017-03-26T15:36:41Z</time>
      </trkpt>
      <trkpt lat="45.17584" lon="5.21639">
        <ele>312.47</ele>
        <time>2017-03-26T15:36:42Z</time>
      </trkpt>
      <trkpt lat="45.17584" lon="5.21639">
        <ele>312.47</ele>
        <time>2017-03-26T15:36:43Z</time>
      </trkpt>
      <trkpt lat="45.17584" lon="5.21639">
        <ele>312.47</ele>
        <time>2017-03-26T15:36:44Z</time>
      </trkpt>
      <trkpt lat="45.17584" lon="5.21639">
        <ele>312.47</ele>
        <time>2017-03-26T15:36:45Z</time>
      </trkpt>
      <trkpt lat="45.17584" lon="5.21639">
        <ele>312.47</ele>
        <time>2017-03-26T15:36:46Z</time>
      </trkpt>
      <trkpt lat="45.17584" lon="5.21639">
        <ele>312.47</ele>
        <time>2017-03-26T15:36:47Z</time>
      </trkpt>
      <trkpt lat="45.17584" lon="5.21639">
        <ele>312.47</ele>
        <time>2017-03-26T15:36:48Z</time>
      </trkpt>
      <trkpt lat="45.17584" lon="5.21639">
        <ele>312.47</ele>
        <time>2017-03-26T15:36:49Z</time>
      </trkpt>
      <trkpt lat="45.17584" lon="5.21639">
        <ele>312.47</ele>
        <time>2017-03-26T15:36:50Z</time>
      </trkpt>
      <trkpt lat="45.17584" lon="5.21639">
        <ele>312.47</ele>
        <time>2017-03-26T15:36:51Z</time>
      </trkpt>
      <trkpt lat="45.17584" lon="5.21639">
        <ele>312.47</ele>
        <time>2017-03-26T15:36:52Z</time>
      </trkpt>
      <trkpt lat="45.17584" lon="5.21639">
        <ele>312.47</ele>
        <time>2017-03-26T15:36:53Z</time>
      </trkpt>
      <trkpt lat="45.17584" lon="5.21639">
        <ele>312.47</ele>
        <time>2017-03-26T15:36:54Z</time>
      </trkpt>
      <trkpt lat="45.17584" lon="5.21639">
        <ele>312.47</ele>
        <time>2017-03-26T15:36:55Z</time>
      </trkpt>
      <trkpt lat="45.17584" lon="5.21639">
        <ele>312.47</ele>
        <time>2017-03-26T15:36:56Z</time>
      </trkpt>
      <trkpt lat="45.17584" lon="5.21639">
        <ele>312.47</ele>
        <time>2017-03-26T15:36:57Z</time>
      </trkpt>
      <trkpt lat="45.17584" lon="5.21639">
        <ele>312.47</ele>
        <time>2017-03-26T15:36:58Z</time>
      </trkpt>
      <trkpt lat="45.17584" lon="5.21639">
        <ele>312.47</ele>
        <time>2017-03-26T15:36:59Z</time>
      </trkpt>
      <trkpt lat="45.17584" lon="5.21639">
        <ele>312.47</ele>
        <time>2017-03-26T15:37:00Z</time>
      </trkpt>
      <trkpt lat="45.17584" lon="5.21639">
        <ele>312.47</ele>
        <time>2017-03-26T15:37:01Z</time>
      </trkpt>
      <trkpt lat="45.17584" lon="5.21639">
        <ele>312.47</ele>
        <time>2017-03-26T15:37:02Z</time>
      </trkpt>
      <trkpt lat="45.17584" lon="5.21639">
        <ele>312.47</ele>
        <time>2017-03-26T15:37:03Z</time>
      </trkpt>
      <trkpt lat="45.17584" lon="5.21639">
        <ele>312.47</ele>
        <time>2017-03-26T15:37:04Z</time>
      </trkpt>
      <trkpt lat="45.17584" lon="5.21639">
        <ele>312.47</ele>
        <time>2017-03-26T15:37:05Z</time>
      </trkpt>
      <trkpt lat="45.17584" lon="5.21639">
        <ele>312.47</ele>
        <time>2017-03-26T15:37:06Z</time>
      </trkpt>
      <trkpt lat="45.17584" lon="5.21639">
        <ele>312.47</ele>
        <time>2017-03-26T15:37:07Z</time>
      </trkpt>
      <trkpt lat="45.17584" lon="5.21639">
        <ele>312.47</ele>
        <time>2017-03-26T15:37:08Z</time>
      </trkpt>
      <trkpt lat="45.17584" lon="5.21639">
        <ele>312.47</ele>
        <time>2017-03-26T15:37:09Z</time>
      </trkpt>
      <trkpt lat="45.17584" lon="5.21639">
        <ele>312.47</ele>
        <time>2017-03-26T15:37:10Z</time>
      </trkpt>
      <trkpt lat="45.17584" lon="5.21639">
        <ele>312.47</ele>
        <time>2017-03-26T15:37:11Z</time>
      </trkpt>
      <trkpt lat="45.17584" lon="5.21639">
        <ele>312.47</ele>
        <time>2017-03-26T15:37:12Z</time>
      </trkpt>
      <trkpt lat="45.17584" lon="5.21639">
        <ele>312.47</ele>
        <time>2017-03-26T15:37:13Z</time>
      </trkpt>
      <trkpt lat="45.17584" lon="5.21639">
        <ele>312.47</ele>
        <time>2017-03-26T15:37:14Z</time>
      </trkpt>
      <trkpt lat="45.17584" lon="5.21639">
        <ele>312.47</ele>
        <time>2017-03-26T15:37:15Z</time>
      </trkpt>
      <trkpt lat="45.17584" lon="5.21639">
        <ele>312.47</ele>
        <time>2017-03-26T15:37:16Z</time>
      </trkpt>
      <trkpt lat="45.17584" lon="5.21639">
        <ele>312.47</ele>
        <time>2017-03-26T15:37:17Z</time>
      </trkpt>
      <trkpt lat="45.17584" lon="5.21639">
        <ele>312.47</ele>
        <time>2017-03-26T15:37:18Z</time>
      </trkpt>
      <trkpt lat="45.17584" lon="5.21639">
        <ele>312.47</ele>
        <time>2017-03-26T15:37:19Z</time>
      </trkpt>
      <trkpt lat="45.17584" lon="5.21639">
        <ele>312.47</ele>
        <time>2017-03-26T15:37:20Z</time>
      </trkpt>
      <trkpt lat="45.17584" lon="5.21639">
        <ele>312.47</ele>
        <time>2017-03-26T15:37:21Z</time>
      </trkpt>
      <trkpt lat="45.17584" lon="5.21639">
        <ele>312.47</ele>
        <time>2017-03-26T15:37:22Z</time>
      </trkpt>
      <trkpt lat="45.17584" lon="5.21639">
        <ele>312.47</ele>
        <time>2017-03-26T15:37:23Z</time>
      </trkpt>
      <trkpt lat="45.17584" lon="5.21639">
        <ele>312.47</ele>
        <time>2017-03-26T15:37:24Z</time>
      </trkpt>
      <trkpt lat="45.17584" lon="5.21639">
        <ele>312.47</ele>
        <time>2017-03-26T15:37:25Z</time>
      </trkpt>
      <trkpt lat="45.17584" lon="5.21639">
        <ele>312.47</ele>
        <time>2017-03-26T15:37:26Z</time>
      </trkpt>
      <trkpt lat="45.17584" lon="5.21639">
        <ele>312.47</ele>
        <time>2017-03-26T15:37:27Z</time>
      </trkpt>
      <trkpt lat="45.17584" lon="5.21639">
        <ele>312.47</ele>
        <time>2017-03-26T15:37:28Z</time>
      </trkpt>
      <trkpt lat="45.17584" lon="5.21639">
        <ele>312.47</ele>
        <time>2017-03-26T15:37:29Z</time>
      </trkpt>
      <trkpt lat="45.17584" lon="5.21639">
        <ele>312.47</ele>
        <time>2017-03-26T15:37:30Z</time>
      </trkpt>
      <trkpt lat="45.17584" lon="5.21639">
        <ele>312.47</ele>
        <time>2017-03-26T15:37:31Z</time>
      </trkpt>
      <trkpt lat="45.17584" lon="5.21639">
        <ele>312.47</ele>
        <time>2017-03-26T15:37:32Z</time>
      </trkpt>
      <trkpt lat="45.17584" lon="5.21639">
        <ele>312.47</ele>
        <time>2017-03-26T15:37:33Z</time>
      </trkpt>
      <trkpt lat="45.17584" lon="5.21639">
        <ele>312.47</ele>
        <time>2017-03-26T15:37:34Z</time>
      </trkpt>
      <trkpt lat="45.17584" lon="5.21639">
        <ele>312.47</ele>
        <time>2017-03-26T15:37:35Z</time>
      </trkpt>
      <trkpt lat="45.17584" lon="5.21639">
        <ele>312.47</ele>
        <time>2017-03-26T15:37:36Z</time>
      </trkpt>
      <trkpt lat="45.17584" lon="5.21639">
        <ele>312.47</ele>
        <time>2017-03-26T15:37:37Z</time>
      </trkpt>
      <trkpt lat="45.17584" lon="5.21639">
        <ele>312.47</ele>
        <time>2017-03-26T15:37:38Z</time>
      </trkpt>
      <trkpt lat="45.17584" lon="5.21639">
        <ele>312.47</ele>
        <time>2017-03-26T15:37:39Z</time>
      </trkpt>
      <trkpt lat="45.17584" lon="5.21639">
        <ele>312.47</ele>
        <time>2017-03-26T15:37:40Z</time>
      </trkpt>
      <trkpt lat="45.17584" lon="5.21639">
        <ele>312.47</ele>
        <time>2017-03-26T15:37:41Z</time>
      </trkpt>
      <trkpt lat="45.17584" lon="5.21639">
        <ele>312.47</ele>
        <time>2017-03-26T15:37:42Z</time>
      </trkpt>
      <trkpt lat="45.17584" lon="5.21639">
        <ele>312.47</ele>
        <time>2017-03-26T15:37:43Z</time>
      </trkpt>
      <trkpt lat="45.17584" lon="5.21639">
        <ele>312.47</ele>
        <time>2017-03-26T15:37:44Z</time>
      </trkpt>
      <trkpt lat="45.17584" lon="5.21639">
        <ele>312.47</ele>
        <time>2017-03-26T15:37:45Z</time>
      </trkpt>
      <trkpt lat="45.17584" lon="5.21639">
        <ele>312.47</ele>
        <time>2017-03-26T15:37:46Z</time>
      </trkpt>
      <trkpt lat="45.17584" lon="5.21639">
        <ele>312.47</ele>
        <time>2017-03-26T15:37:47Z</time>
      </trkpt>
      <trkpt lat="45.17584" lon="5.21639">
        <ele>312.47</ele>
        <time>2017-03-26T15:37:48Z</time>
      </trkpt>
      <trkpt lat="45.17584" lon="5.21639">
        <ele>312.47</ele>
        <time>2017-03-26T15:37:49Z</time>
      </trkpt>
      <trkpt lat="45.17584" lon="5.21639">
        <ele>312.47</ele>
        <time>2017-03-26T15:37:50Z</time>
      </trkpt>
      <trkpt lat="45.17584" lon="5.21639">
        <ele>312.47</ele>
        <time>2017-03-26T15:37:51Z</time>
      </trkpt>
      <trkpt lat="45.17584" lon="5.21639">
        <ele>312.47</ele>
        <time>2017-03-26T15:37:52Z</time>
      </trkpt>
      <trkpt lat="45.17584" lon="5.21639">
        <ele>312.47</ele>
        <time>2017-03-26T15:37:53Z</time>
      </trkpt>
      <trkpt lat="45.17584" lon="5.21639">
        <ele>312.47</ele>
        <time>2017-03-26T15:37:54Z</time>
      </trkpt>
      <trkpt lat="45.17584" lon="5.21639">
        <ele>312.47</ele>
        <time>2017-03-26T15:37:55Z</time>
      </trkpt>
      <trkpt lat="45.17584" lon="5.21639">
        <ele>312.47</ele>
        <time>2017-03-26T15:37:56Z</time>
      </trkpt>
      <trkpt lat="45.17584" lon="5.21639">
        <ele>312.47</ele>
        <time>2017-03-26T15:37:57Z</time>
      </trkpt>
      <trkpt lat="45.17584" lon="5.21639">
        <ele>312.47</ele>
        <time>2017-03-26T15:37:58Z</time>
      </trkpt>
      <trkpt lat="45.17584" lon="5.21639">
        <ele>312.47</ele>
        <time>2017-03-26T15:37:59Z</time>
      </trkpt>
      <trkpt lat="45.17584" lon="5.21639">
        <ele>312.47</ele>
        <time>2017-03-26T15:38:00Z</time>
      </trkpt>
      <trkpt lat="45.17584" lon="5.21639">
        <ele>312.47</ele>
        <time>2017-03-26T15:38:01Z</time>
      </trkpt>
      <trkpt lat="45.17584" lon="5.21639">
        <ele>312.47</ele>
        <time>2017-03-26T15:38:02Z</time>
      </trkpt>
      <trkpt lat="45.17584" lon="5.21639">
        <ele>312.47</ele>
        <time>2017-03-26T15:38:03Z</time>
      </trkpt>
      <trkpt lat="45.17584" lon="5.21639">
        <ele>312.47</ele>
        <time>2017-03-26T15:38:04Z</time>
      </trkpt>
      <trkpt lat="45.17584" lon="5.21639">
        <ele>312.47</ele>
        <time>2017-03-26T15:38:05Z</time>
      </trkpt>
      <trkpt lat="45.17584" lon="5.21639">
        <ele>312.47</ele>
        <time>2017-03-26T15:38:06Z</time>
      </trkpt>
      <trkpt lat="45.17584" lon="5.21639">
        <ele>312.47</ele>
        <time>2017-03-26T15:38:07Z</time>
      </trkpt>
      <trkpt lat="45.17584" lon="5.21639">
        <ele>312.47</ele>
        <time>2017-03-26T15:38:08Z</time>
      </trkpt>
      <trkpt lat="45.17584" lon="5.21639">
        <ele>312.47</ele>
        <time>2017-03-26T15:38:09Z</time>
      </trkpt>
      <trkpt lat="45.17584" lon="5.21639">
        <ele>312.47</ele>
        <time>2017-03-26T15:38:10Z</time>
      </trkpt>
      <trkpt lat="45.17584" lon="5.21639">
        <ele>312.47</ele>
        <time>2017-03-26T15:38:11Z</time>
      </trkpt>
      <trkpt lat="45.17584" lon="5.21639">
        <ele>312.47</ele>
        <time>2017-03-26T15:38:12Z</time>
      </trkpt>
      <trkpt lat="45.17584" lon="5.21639">
        <ele>312.47</ele>
        <time>2017-03-26T15:38:13Z</time>
      </trkpt>
      <trkpt lat="45.17584" lon="5.21639">
        <ele>312.47</ele>
        <time>2017-03-26T15:38:14Z</time>
      </trkpt>
      <trkpt lat="45.17584" lon="5.21639">
        <ele>312.47</ele>
        <time>2017-03-26T15:38:15Z</time>
      </trkpt>
      <trkpt lat="45.17584" lon="5.21639">
        <ele>312.47</ele>
        <time>2017-03-26T15:38:16Z</time>
      </trkpt>
      <trkpt lat="45.17584" lon="5.21639">
        <ele>312.47</ele>
        <time>2017-03-26T15:38:17Z</time>
      </trkpt>
      <trkpt lat="45.17584" lon="5.21639">
        <ele>312.47</ele>
        <time>2017-03-26T15:38:18Z</time>
      </trkpt>
      <trkpt lat="45.17584" lon="5.21639">
        <ele>312.47</ele>
        <time>2017-03-26T15:38:19Z</time>
      </trkpt>
      <trkpt lat="45.17584" lon="5.21639">
        <ele>312.47</ele>
        <time>2017-03-26T15:38:20Z</time>
      </trkpt>
      <trkpt lat="45.17584" lon="5.21639">
        <ele>312.47</ele>
        <time>2017-03-26T15:38:21Z</time>
      </trkpt>
      <trkpt lat="45.17584" lon="5.21639">
        <ele>312.47</ele>
        <time>2017-03-26T15:38:22Z</time>
      </trkpt>
      <trkpt lat="45.17584" lon="5.21639">
        <ele>312.47</ele>
        <time>2017-03-26T15:38:23Z</time>
      </trkpt>
      <trkpt lat="45.17584" lon="5.21639">
        <ele>312.47</ele>
        <time>2017-03-26T15:38:24Z</time>
      </trkpt>
      <trkpt lat="45.17584" lon="5.21639">
        <ele>312.47</ele>
        <time>2017-03-26T15:38:25Z</time>
      </trkpt>
      <trkpt lat="45.17584" lon="5.21639">
        <ele>312.47</ele>
        <time>2017-03-26T15:38:26Z</time>
      </trkpt>
      <trkpt lat="45.17584" lon="5.21639">
        <ele>312.47</ele>
        <time>2017-03-26T15:38:27Z</time>
      </trkpt>
      <trkpt lat="45.17584" lon="5.21639">
        <ele>312.47</ele>
        <time>2017-03-26T15:38:28Z</time>
      </trkpt>
      <trkpt lat="45.17584" lon="5.21639">
        <ele>312.47</ele>
        <time>2017-03-26T15:38:29Z</time>
      </trkpt>
      <trkpt lat="45.17584" lon="5.21639">
        <ele>312.47</ele>
        <time>2017-03-26T15:38:30Z</time>
      </trkpt>
      <trkpt lat="45.17584" lon="5.21639">
        <ele>312.47</ele>
        <time>2017-03-26T15:38:31Z</time>
      </trkpt>
      <trkpt lat="45.17584" lon="5.21639">
        <ele>312.47</ele>
        <time>2017-03-26T15:38:32Z</time>
      </trkpt>
      <trkpt lat="45.17584" lon="5.21639">
        <ele>312.47</ele>
        <time>2017-03-26T15:38:33Z</time>
      </trkpt>
      <trkpt lat="45.17584" lon="5.21639">
        <ele>312.47</ele>
        <time>2017-03-26T15:38:34Z</time>
      </trkpt>
      <trkpt lat="45.17584" lon="5.21639">
        <ele>312.47</ele>
        <time>2017-03-26T15:38:35Z</time>
      </trkpt>
      <trkpt lat="45.17584" lon="5.21639">
        <ele>312.47</ele>
        <time>2017-03-26T15:38:36Z</time>
      </trkpt>
      <trkpt lat="45.17584" lon="5.21639">
        <ele>312.47</ele>
        <time>2017-03-26T15:38:37Z</time>
      </trkpt>
      <trkpt lat="45.17584" lon="5.21639">
        <ele>312.47</ele>
        <time>2017-03-26T15:38:38Z</time>
      </trkpt>
      <trkpt lat="45.17584" lon="5.21639">
        <ele>312.47</ele>
        <time>2017-03-26T15:38:39Z</time>
      </trkpt>
      <trkpt lat="45.17584" lon="5.21639">
        <ele>312.47</ele>
        <time>2017-03-26T15:38:40Z</time>
      </trkpt>
      <trkpt lat="45.17584" lon="5.21639">
        <ele>312.47</ele>
        <time>2017-03-26T15:38:41Z</time>
      </trkpt>
      <trkpt lat="45.17584" lon="5.21639">
        <ele>312.47</ele>
        <time>2017-03-26T15:38:42Z</time>
      </trkpt>
      <trkpt lat="45.17584" lon="5.21639">
        <ele>312.47</ele>
        <time>2017-03-26T15:38:43Z</time>
      </trkpt>
      <trkpt lat="45.17584" lon="5.21639">
        <ele>312.47</ele>
        <time>2017-03-26T15:38:44Z</time>
      </trkpt>
      <trkpt lat="45.17584" lon="5.21639">
        <ele>312.47</ele>
        <time>2017-03-26T15:38:45Z</time>
      </trkpt>
      <trkpt lat="45.17584" lon="5.21639">
        <ele>312.47</ele>
        <time>2017-03-26T15:38:46Z</time>
      </trkpt>
      <trkpt lat="45.17584" lon="5.21639">
        <ele>312.47</ele>
        <time>2017-03-26T15:38:47Z</time>
      </trkpt>
      <trkpt lat="45.17584" lon="5.21639">
        <ele>312.47</ele>
        <time>2017-03-26T15:38:48Z</time>
      </trkpt>
      <trkpt lat="45.17584" lon="5.21639">
        <ele>312.47</ele>
        <time>2017-03-26T15:38:49Z</time>
      </trkpt>
      <trkpt lat="45.17584" lon="5.21639">
        <ele>312.47</ele>
        <time>2017-03-26T15:38:50Z</time>
      </trkpt>
      <trkpt lat="45.17584" lon="5.21639">
        <ele>312.47</ele>
        <time>2017-03-26T15:38:51Z</time>
      </trkpt>
      <trkpt lat="45.17584" lon="5.21639">
        <ele>312.47</ele>
        <time>2017-03-26T15:38:52Z</time>
      </trkpt>
      <trkpt lat="45.17584" lon="5.21639">
        <ele>312.47</ele>
        <time>2017-03-26T15:38:53Z</time>
      </trkpt>
      <trkpt lat="45.17584" lon="5.21639">
        <ele>312.47</ele>
        <time>2017-03-26T15:38:54Z</time>
      </trkpt>
      <trkpt lat="45.17584" lon="5.21639">
        <ele>312.47</ele>
        <time>2017-03-26T15:38:55Z</time>
      </trkpt>
      <trkpt lat="45.17584" lon="5.21639">
        <ele>312.47</ele>
        <time>2017-03-26T15:38:56Z</time>
      </trkpt>
      <trkpt lat="45.17584" lon="5.21639">
        <ele>312.47</ele>
        <time>2017-03-26T15:38:57Z</time>
      </trkpt>
      <trkpt lat="45.17584" lon="5.21639">
        <ele>312.47</ele>
        <time>2017-03-26T15:38:58Z</time>
      </trkpt>
      <trkpt lat="45.17584" lon="5.21639">
        <ele>312.47</ele>
        <time>2017-03-26T15:38:59Z</time>
      </trkpt>
      <trkpt lat="45.17584" lon="5.21639">
        <ele>312.47</ele>
        <time>2017-03-26T15:39:00Z</time>
      </trkpt>
      <trkpt lat="45.17584" lon="5.21639">
        <ele>312.47</ele>
        <time>2017-03-26T15:39:01Z</time>
      </trkpt>
      <trkpt lat="45.17584" lon="5.21639">
        <ele>312.47</ele>
        <time>2017-03-26T15:39:02Z</time>
      </trkpt>
      <trkpt lat="45.17584" lon="5.21639">
        <ele>312.47</ele>
        <time>2017-03-26T15:39:03Z</time>
      </trkpt>
      <trkpt lat="45.17584" lon="5.21639">
        <ele>312.47</ele>
        <time>2017-03-26T15:39:04Z</time>
      </trkpt>
      <trkpt lat="45.17584" lon="5.21639">
        <ele>312.47</ele>
        <time>2017-03-26T15:39:05Z</time>
      </trkpt>
      <trkpt lat="45.17584" lon="5.21639">
        <ele>312.47</ele>
        <time>2017-03-26T15:39:06Z</time>
      </trkpt>
      <trkpt lat="45.17584" lon="5.21639">
        <ele>312.47</ele>
        <time>2017-03-26T15:39:07Z</time>
      </trkpt>
      <trkpt lat="45.17584" lon="5.21639">
        <ele>312.47</ele>
        <time>2017-03-26T15:39:08Z</time>
      </trkpt>
      <trkpt lat="45.17584" lon="5.21639">
        <ele>312.47</ele>
        <time>2017-03-26T15:39:09Z</time>
      </trkpt>
      <trkpt lat="45.17584" lon="5.21639">
        <ele>312.47</ele>
        <time>2017-03-26T15:39:10Z</time>
      </trkpt>
      <trkpt lat="45.17584" lon="5.21639">
        <ele>312.47</ele>
        <time>2017-03-26T15:39:11Z</time>
      </trkpt>
      <trkpt lat="45.17584" lon="5.21639">
        <ele>312.47</ele>
        <time>2017-03-26T15:39:12Z</time>
      </trkpt>
      <trkpt lat="45.17584" lon="5.21639">
        <ele>312.47</ele>
        <time>2017-03-26T15:39:13Z</time>
      </trkpt>
      <trkpt lat="45.17584" lon="5.21639">
        <ele>312.47</ele>
        <time>2017-03-26T15:39:14Z</time>
      </trkpt>
      <trkpt lat="45.17584" lon="5.21639">
        <ele>312.47</ele>
        <time>2017-03-26T15:39:15Z</time>
      </trkpt>
      <trkpt lat="45.17584" lon="5.21639">
        <ele>312.47</ele>
        <time>2017-03-26T15:39:16Z</time>
      </trkpt>
      <trkpt lat="45.17584" lon="5.21639">
        <ele>312.47</ele>
        <time>2017-03-26T15:39:17Z</time>
      </trkpt>
      <trkpt lat="45.17584" lon="5.21639">
        <ele>312.47</ele>
        <time>2017-03-26T15:39:18Z</time>
      </trkpt>
      <trkpt lat="45.17584" lon="5.21639">
        <ele>312.47</ele>
        <time>2017-03-26T15:39:19Z</time>
      </trkpt>
      <trkpt lat="45.17584" lon="5.21639">
        <ele>312.47</ele>
        <time>2017-03-26T15:39:20Z</time>
      </trkpt>
      <trkpt lat="45.17584" lon="5.21639">
        <ele>312.47</ele>
        <time>2017-03-26T15:39:21Z</time>
      </trkpt>
      <trkpt lat="45.17584" lon="5.21639">
        <ele>312.47</ele>
        <time>2017-03-26T15:39:22Z</time>
      </trkpt>
      <trkpt lat="45.17584" lon="5.21639">
        <ele>312.47</ele>
        <time>2017-03-26T15:39:23Z</time>
      </trkpt>
      <trkpt lat="45.17584" lon="5.21639">
        <ele>312.47</ele>
        <time>2017-03-26T15:39:24Z</time>
      </trkpt>
      <trkpt lat="45.17584" lon="5.21639">
        <ele>312.47</ele>
        <time>2017-03-26T15:39:25Z</time>
      </trkpt>
      <trkpt lat="45.17584" lon="5.21639">
        <ele>312.47</ele>
        <time>2017-03-26T15:39:26Z</time>
      </trkpt>
      <trkpt lat="45.17584" lon="5.21639">
        <ele>312.47</ele>
        <time>2017-03-26T15:39:27Z</time>
      </trkpt>
      <trkpt lat="45.17584" lon="5.21639">
        <ele>312.47</ele>
        <time>2017-03-26T15:39:28Z</time>
      </trkpt>
      <trkpt lat="45.17584" lon="5.21639">
        <ele>312.47</ele>
        <time>2017-03-26T15:39:29Z</time>
      </trkpt>
      <trkpt lat="45.17584" lon="5.21639">
        <ele>312.47</ele>
        <time>2017-03-26T15:39:30Z</time>
      </trkpt>
      <trkpt lat="45.17584" lon="5.21639">
        <ele>312.47</ele>
        <time>2017-03-26T15:39:31Z</time>
      </trkpt>
      <trkpt lat="45.17584" lon="5.21639">
        <ele>312.47</ele>
        <time>2017-03-26T15:39:32Z</time>
      </trkpt>
      <trkpt lat="45.17584" lon="5.21639">
        <ele>312.47</ele>
        <time>2017-03-26T15:39:33Z</time>
      </trkpt>
      <trkpt lat="45.17584" lon="5.21639">
        <ele>312.47</ele>
        <time>2017-03-26T15:39:34Z</time>
      </trkpt>
      <trkpt lat="45.17584" lon="5.21639">
        <ele>312.47</ele>
        <time>2017-03-26T15:39:35Z</time>
      </trkpt>
      <trkpt lat="45.17584" lon="5.21639">
        <ele>312.47</ele>
        <time>2017-03-26T15:39:36Z</time>
      </trkpt>
      <trkpt lat="45.17584" lon="5.21639">
        <ele>312.47</ele>
        <time>2017-03-26T15:39:37Z</time>
      </trkpt>
      <trkpt lat="45.17584" lon="5.21639">
        <ele>312.47</ele>
        <time>2017-03-26T15:39:38Z</time>
      </trkpt>
      <trkpt lat="45.17584" lon="5.21639">
        <ele>312.47</ele>
        <time>2017-03-26T15:39:39Z</time>
      </trkpt>
      <trkpt lat="45.17584" lon="5.21639">
        <ele>312.47</ele>
        <time>2017-03-26T15:39:40Z</time>
      </trkpt>
      <trkpt lat="45.17584" lon="5.21639">
        <ele>312.47</ele>
        <time>2017-03-26T15:39:41Z</time>
      </trkpt>
      <trkpt lat="45.17584" lon="5.21639">
        <ele>312.47</ele>
        <time>2017-03-26T15:39:42Z</time>
      </trkpt>
      <trkpt lat="45.17584" lon="5.21639">
        <ele>312.47</ele>
        <time>2017-03-26T15:39:43Z</time>
      </trkpt>
      <trkpt lat="45.17584" lon="5.21639">
        <ele>312.47</ele>
        <time>2017-03-26T15:39:44Z</time>
      </trkpt>
      <trkpt lat="45.17584" lon="5.21639">
        <ele>312.47</ele>
        <time>2017-03-26T15:39:45Z</time>
      </trkpt>
      <trkpt lat="45.17584" lon="5.21639">
        <ele>312.47</ele>
        <time>2017-03-26T15:39:46Z</time>
      </trkpt>
      <trkpt lat="45.17584" lon="5.21639">
        <ele>312.47</ele>
        <time>2017-03-26T15:39:47Z</time>
      </trkpt>
      <trkpt lat="45.17584" lon="5.21639">
        <ele>312.47</ele>
        <time>2017-03-26T15:39:48Z</time>
      </trkpt>
      <trkpt lat="45.17584" lon="5.21639">
        <ele>312.47</ele>
        <time>2017-03-26T15:39:49Z</time>
      </trkpt>
      <trkpt lat="45.17584" lon="5.21639">
        <ele>312.47</ele>
        <time>2017-03-26T15:39:50Z</time>
      </trkpt>
      <trkpt lat="45.17584" lon="5.21639">
        <ele>312.47</ele>
        <time>2017-03-26T15:39:51Z</time>
      </trkpt>
      <trkpt lat="45.17584" lon="5.21639">
        <ele>312.47</ele>
        <time>2017-03-26T15:39:52Z</time>
      </trkpt>
      <trkpt lat="45.17584" lon="5.21639">
        <ele>312.47</ele>
        <time>2017-03-26T15:39:53Z</time>
      </trkpt>
      <trkpt lat="45.17584" lon="5.21639">
        <ele>312.47</ele>
        <time>2017-03-26T15:39:54Z</time>
      </trkpt>
      <trkpt lat="45.17584" lon="5.21639">
        <ele>312.47</ele>
        <time>2017-03-26T15:39:55Z</time>
      </trkpt>
      <trkpt lat="45.17584" lon="5.21639">
        <ele>312.47</ele>
        <time>2017-03-26T15:39:56Z</time>
      </trkpt>
      <trkpt lat="45.17584" lon="5.21639">
        <ele>312.47</ele>
        <time>2017-03-26T15:39:57Z</time>
      </trkpt>
      <trkpt lat="45.17584" lon="5.21639">
        <ele>312.47</ele>
        <time>2017-03-26T15:39:58Z</time>
      </trkpt>
      <trkpt lat="45.17584" lon="5.21639">
        <ele>312.47</ele>
        <time>2017-03-26T15:39:59Z</time>
      </trkpt>
      <trkpt lat="45.17584" lon="5.21639">
        <ele>312.47</ele>
        <time>2017-03-26T15:40:00Z</time>
      </trkpt>
      <trkpt lat="45.17584" lon="5.21639">
        <ele>312.47</ele>
        <time>2017-03-26T15:40:01Z</time>
      </trkpt>
      <trkpt lat="45.17584" lon="5.21639">
        <ele>312.47</ele>
        <time>2017-03-26T15:40:02Z</time>
      </trkpt>
      <trkpt lat="45.17584" lon="5.21639">
        <ele>312.47</ele>
        <time>2017-03-26T15:40:03Z</time>
      </trkpt>
      <trkpt lat="45.17584" lon="5.21639">
        <ele>312.47</ele>
        <time>2017-03-26T15:40:04Z</time>
      </trkpt>
      <trkpt lat="45.17584" lon="5.21639">
        <ele>312.47</ele>
        <time>2017-03-26T15:40:05Z</time>
      </trkpt>
      <trkpt lat="45.17584" lon="5.21639">
        <ele>312.47</ele>
        <time>2017-03-26T15:40:06Z</time>
      </trkpt>
      <trkpt lat="45.17584" lon="5.21639">
        <ele>312.47</ele>
        <time>2017-03-26T15:40:07Z</time>
      </trkpt>
      <trkpt lat="45.17584" lon="5.21639">
        <ele>312.47</ele>
        <time>2017-03-26T15:40:08Z</time>
      </trkpt>
      <trkpt lat="45.17584" lon="5.21639">
        <ele>312.47</ele>
        <time>2017-03-26T15:40:09Z</time>
      </trkpt>
      <trkpt lat="45.17584" lon="5.21639">
        <ele>312.47</ele>
        <time>2017-03-26T15:40:10Z</time>
      </trkpt>
      <trkpt lat="45.17584" lon="5.21639">
        <ele>312.47</ele>
        <time>2017-03-26T15:40:11Z</time>
      </trkpt>
      <trkpt lat="45.17584" lon="5.21639">
        <ele>312.47</ele>
        <time>2017-03-26T15:40:12Z</time>
      </trkpt>
      <trkpt lat="45.17584" lon="5.21639">
        <ele>312.47</ele>
        <time>2017-03-26T15:40:13Z</time>
      </trkpt>
      <trkpt lat="45.17584" lon="5.21639">
        <ele>312.47</ele>
        <time>2017-03-26T15:40:14Z</time>
      </trkpt>
      <trkpt lat="45.17584" lon="5.21639">
        <ele>312.47</ele>
        <time>2017-03-26T15:40:15Z</time>
      </trkpt>
      <trkpt lat="45.17584" lon="5.21639">
        <ele>312.47</ele>
        <time>2017-03-26T15:40:16Z</time>
      </trkpt>
      <trkpt lat="45.17584" lon="5.21639">
        <ele>312.47</ele>
        <time>2017-03-26T15:40:17Z</time>
      </trkpt>
      <trkpt lat="45.17584" lon="5.21639">
        <ele>312.47</ele>
        <time>2017-03-26T15:40:18Z</time>
      </trkpt>
      <trkpt lat="45.17584" lon="5.21639">
        <ele>312.47</ele>
        <time>2017-03-26T15:40:19Z</time>
      </trkpt>
      <trkpt lat="45.17584" lon="5.21639">
        <ele>312.47</ele>
        <time>2017-03-26T15:40:20Z</time>
      </trkpt>
      <trkpt lat="45.17584" lon="5.21639">
        <ele>312.47</ele>
        <time>2017-03-26T15:40:21Z</time>
      </trkpt>
      <trkpt lat="45.17584" lon="5.21639">
        <ele>312.47</ele>
        <time>2017-03-26T15:40:22Z</time>
      </trkpt>
      <trkpt lat="45.17584" lon="5.21639">
        <ele>312.47</ele>
        <time>2017-03-26T15:40:23Z</time>
      </trkpt>
      <trkpt lat="45.17584" lon="5.21639">
        <ele>312.47</ele>
        <time>2017-03-26T15:40:24Z</time>
      </trkpt>
      <trkpt lat="45.17584" lon="5.21639">
        <ele>312.47</ele>
        <time>2017-03-26T15:40:25Z</time>
      </trkpt>
      <trkpt lat="45.17584" lon="5.21639">
        <ele>312.47</ele>
        <time>2017-03-26T15:40:26Z</time>
      </trkpt>
      <trkpt lat="45.17584" lon="5.21639">
        <ele>312.47</ele>
        <time>2017-03-26T15:40:27Z</time>
      </trkpt>
      <trkpt lat="45.17584" lon="5.21639">
        <ele>312.47</ele>
        <time>2017-03-26T15:40:28Z</time>
      </trkpt>
      <trkpt lat="45.17584" lon="5.21639">
        <ele>312.47</ele>
        <time>2017-03-26T15:40:29Z</time>
      </trkpt>
      <trkpt lat="45.17584" lon="5.21639">
        <ele>312.47</ele>
        <time>2017-03-26T15:40:30Z</time>
      </trkpt>
      <trkpt lat="45.17584" lon="5.21639">
        <ele>312.47</ele>
        <time>2017-03-26T15:40:31Z</time>
      </trkpt>
      <trkpt lat="45.17584" lon="5.21639">
        <ele>312.47</ele>
        <time>2017-03-26T15:40:32Z</time>
      </trkpt>
      <trkpt lat="45.17584" lon="5.21639">
        <ele>312.47</ele>
        <time>2017-03-26T15:40:33Z</time>
      </trkpt>
      <trkpt lat="45.17584" lon="5.21639">
        <ele>312.47</ele>
        <time>2017-03-26T15:40:34Z</time>
      </trkpt>
      <trkpt lat="45.17584" lon="5.21639">
        <ele>312.47</ele>
        <time>2017-03-26T15:40:35Z</time>
      </trkpt>
      <trkpt lat="45.17584" lon="5.21639">
        <ele>312.47</ele>
        <time>2017-03-26T15:40:36Z</time>
      </trkpt>
      <trkpt lat="45.17584" lon="5.21639">
        <ele>312.47</ele>
        <time>2017-03-26T15:40:37Z</time>
      </trkpt>
      <trkpt lat="45.17584" lon="5.21639">
        <ele>312.47</ele>
        <time>2017-03-26T15:40:38Z</time>
      </trkpt>
      <trkpt lat="45.17584" lon="5.21639">
        <ele>312.47</ele>
        <time>2017-03-26T15:40:39Z</time>
      </trkpt>
      <trkpt lat="45.17584" lon="5.21639">
        <ele>312.47</ele>
        <time>2017-03-26T15:40:40Z</time>
      </trkpt>
      <trkpt lat="45.17584" lon="5.21639">
        <ele>312.47</ele>
        <time>2017-03-26T15:40:41Z</time>
      </trkpt>
      <trkpt lat="45.17584" lon="5.21639">
        <ele>312.47</ele>
        <time>2017-03-26T15:40:42Z</time>
      </trkpt>
      <trkpt lat="45.17584" lon="5.21639">
        <ele>312.47</ele>
        <time>2017-03-26T15:40:43Z</time>
      </trkpt>
      <trkpt lat="45.17584" lon="5.21639">
        <ele>312.47</ele>
        <time>2017-03-26T15:40:44Z</time>
      </trkpt>
      <trkpt lat="45.17584" lon="5.21639">
        <ele>312.47</ele>
        <time>2017-03-26T15:40:45Z</time>
      </trkpt>
      <trkpt lat="45.17584" lon="5.21639">
        <ele>312.47</ele>
        <time>2017-03-26T15:40:46Z</time>
      </trkpt>
      <trkpt lat="45.17584" lon="5.21639">
        <ele>312.47</ele>
        <time>2017-03-26T15:40:47Z</time>
      </trkpt>
      <trkpt lat="45.17584" lon="5.21639">
        <ele>312.47</ele>
        <time>2017-03-26T15:40:48Z</time>
      </trkpt>
      <trkpt lat="45.17584" lon="5.21639">
        <ele>312.47</ele>
        <time>2017-03-26T15:40:49Z</time>
      </trkpt>
      <trkpt lat="45.17584" lon="5.21639">
        <ele>312.47</ele>
        <time>2017-03-26T15:40:50Z</time>
      </trkpt>
      <trkpt lat="45.17584" lon="5.21639">
        <ele>312.47</ele>
        <time>2017-03-26T15:40:51Z</time>
      </trkpt>
      <trkpt lat="45.17584" lon="5.21639">
        <ele>312.47</ele>
        <time>2017-03-26T15:40:52Z</time>
      </trkpt>
      <trkpt lat="45.17584" lon="5.21639">
        <ele>312.47</ele>
        <time>2017-03-26T15:40:53Z</time>
      </trkpt>
      <trkpt lat="45.17584" lon="5.21639">
        <ele>312.47</ele>
        <time>2017-03-26T15:40:54Z</time>
      </trkpt>
      <trkpt lat="45.17584" lon="5.21639">
        <ele>312.47</ele>
        <time>2017-03-26T15:40:55Z</time>
      </trkpt>
      <trkpt lat="45.17584" lon="5.21639">
        <ele>312.47</ele>
        <time>2017-03-26T15:40:56Z</time>
      </trkpt>
      <trkpt lat="45.17584" lon="5.21639">
        <ele>312.47</ele>
        <time>2017-03-26T15:40:57Z</time>
      </trkpt>
      <trkpt lat="45.17584" lon="5.21639">
        <ele>312.47</ele>
        <time>2017-03-26T15:40:58Z</time>
      </trkpt>
      <trkpt lat="45.17584" lon="5.21639">
        <ele>312.47</ele>
        <time>2017-03-26T15:40:59Z</time>
      </trkpt>
      <trkpt lat="45.17584" lon="5.21639">
        <ele>312.47</ele>
        <time>2017-03-26T15:41:00Z</time>
      </trkpt>
      <trkpt lat="45.17584" lon="5.21639">
        <ele>312.47</ele>
        <time>2017-03-26T15:41:01Z</time>
      </trkpt>
      <trkpt lat="45.17584" lon="5.21639">
        <ele>312.47</ele>
        <time>2017-03-26T15:41:02Z</time>
      </trkpt>
      <trkpt lat="45.17584" lon="5.21639">
        <ele>312.47</ele>
        <time>2017-03-26T15:41:03Z</time>
      </trkpt>
      <trkpt lat="45.17584" lon="5.21639">
        <ele>312.47</ele>
        <time>2017-03-26T15:41:04Z</time>
      </trkpt>
      <trkpt lat="45.17584" lon="5.21639">
        <ele>312.47</ele>
        <time>2017-03-26T15:41:05Z</time>
      </trkpt>
      <trkpt lat="45.17584" lon="5.21639">
        <ele>312.47</ele>
        <time>2017-03-26T15:41:06Z</time>
      </trkpt>
      <trkpt lat="45.17584" lon="5.21639">
        <ele>312.47</ele>
        <time>2017-03-26T15:41:07Z</time>
      </trkpt>
      <trkpt lat="45.17584" lon="5.21639">
        <ele>312.47</ele>
        <time>2017-03-26T15:41:08Z</time>
      </trkpt>
      <trkpt lat="45.17584" lon="5.21639">
        <ele>312.47</ele>
        <time>2017-03-26T15:41:09Z</time>
      </trkpt>
      <trkpt lat="45.17584" lon="5.21639">
        <ele>312.47</ele>
        <time>2017-03-26T15:41:10Z</time>
      </trkpt>
      <trkpt lat="45.17584" lon="5.21639">
        <ele>312.47</ele>
        <time>2017-03-26T15:41:11Z</time>
      </trkpt>
      <trkpt lat="45.17584" lon="5.21639">
        <ele>312.47</ele>
        <time>2017-03-26T15:41:12Z</time>
      </trkpt>
      <trkpt lat="45.17584" lon="5.21639">
        <ele>312.47</ele>
        <time>2017-03-26T15:41:13Z</time>
      </trkpt>
      <trkpt lat="45.17584" lon="5.21639">
        <ele>312.47</ele>
        <time>2017-03-26T15:41:14Z</time>
      </trkpt>
      <trkpt lat="45.17584" lon="5.21639">
        <ele>312.47</ele>
        <time>2017-03-26T15:41:15Z</time>
      </trkpt>
      <trkpt lat="45.17584" lon="5.21639">
        <ele>312.47</ele>
        <time>2017-03-26T15:41:16Z</time>
      </trkpt>
      <trkpt lat="45.17584" lon="5.21639">
        <ele>312.47</ele>
        <time>2017-03-26T15:41:17Z</time>
      </trkpt>
      <trkpt lat="45.17584" lon="5.21639">
        <ele>312.47</ele>
        <time>2017-03-26T15:41:18Z</time>
      </trkpt>
      <trkpt lat="45.17584" lon="5.21639">
        <ele>312.47</ele>
        <time>2017-03-26T15:41:19Z</time>
      </trkpt>
      <trkpt lat="45.17584" lon="5.21639">
        <ele>312.47</ele>
        <time>2017-03-26T15:41:20Z</time>
      </trkpt>
      <trkpt lat="45.17584" lon="5.21639">
        <ele>312.47</ele>
        <time>2017-03-26T15:41:21Z</time>
      </trkpt>
      <trkpt lat="45.17584" lon="5.21639">
        <ele>312.47</ele>
        <time>2017-03-26T15:41:22Z</time>
      </trkpt>
      <trkpt lat="45.17584" lon="5.21639">
        <ele>312.47</ele>
        <time>2017-03-26T15:41:23Z</time>
      </trkpt>
      <trkpt lat="45.17584" lon="5.21639">
        <ele>312.47</ele>
        <time>2017-03-26T15:41:24Z</time>
      </trkpt>
      <trkpt lat="45.17584" lon="5.21639">
        <ele>312.47</ele>
        <time>2017-03-26T15:41:25Z</time>
      </trkpt>
      <trkpt lat="45.17584" lon="5.21639">
        <ele>312.47</ele>
        <time>2017-03-26T15:41:26Z</time>
      </trkpt>
      <trkpt lat="45.17584" lon="5.21639">
        <ele>312.47</ele>
        <time>2017-03-26T15:41:27Z</time>
      </trkpt>
      <trkpt lat="45.17584" lon="5.21639">
        <ele>312.47</ele>
        <time>2017-03-26T15:41:28Z</time>
      </trkpt>
      <trkpt lat="45.17584" lon="5.21639">
        <ele>312.47</ele>
        <time>2017-03-26T15:41:29Z</time>
      </trkpt>
      <trkpt lat="45.17584" lon="5.21639">
        <ele>312.47</ele>
        <time>2017-03-26T15:41:30Z</time>
      </trkpt>
      <trkpt lat="45.17584" lon="5.21639">
        <ele>312.47</ele>
        <time>2017-03-26T15:41:31Z</time>
      </trkpt>
      <trkpt lat="45.17584" lon="5.21639">
        <ele>312.47</ele>
        <time>2017-03-26T15:41:32Z</time>
      </trkpt>
      <trkpt lat="45.17584" lon="5.21639">
        <ele>312.47</ele>
        <time>2017-03-26T15:41:33Z</time>
      </trkpt>
      <trkpt lat="45.17584" lon="5.21639">
        <ele>312.47</ele>
        <time>2017-03-26T15:41:34Z</time>
      </trkpt>
      <trkpt lat="45.17584" lon="5.21639">
        <ele>312.47</ele>
        <time>2017-03-26T15:41:35Z</time>
      </trkpt>
      <trkpt lat="45.17584" lon="5.21639">
        <ele>312.47</ele>
        <time>2017-03-26T15:41:36Z</time>
      </trkpt>
      <trkpt lat="45.17584" lon="5.21639">
        <ele>312.47</ele>
        <time>2017-03-26T15:41:37Z</time>
      </trkpt>
      <trkpt lat="45.17584" lon="5.21639">
        <ele>312.47</ele>
        <time>2017-03-26T15:41:38Z</time>
      </trkpt>
      <trkpt lat="45.17584" lon="5.21639">
        <ele>312.47</ele>
        <time>2017-03-26T15:41:39Z</time>
      </trkpt>
      <trkpt lat="45.17584" lon="5.21639">
        <ele>312.47</ele>
        <time>2017-03-26T15:41:40Z</time>
      </trkpt>
      <trkpt lat="45.17584" lon="5.21639">
        <ele>312.47</ele>
        <time>2017-03-26T15:41:41Z</time>
      </trkpt>
      <trkpt lat="45.17584" lon="5.21639">
        <ele>312.47</ele>
        <time>2017-03-26T15:41:42Z</time>
      </trkpt>
      <trkpt lat="45.17584" lon="5.21639">
        <ele>312.47</ele>
        <time>2017-03-26T15:41:43Z</time>
      </trkpt>
      <trkpt lat="45.17584" lon="5.21639">
        <ele>312.47</ele>
        <time>2017-03-26T15:41:44Z</time>
      </trkpt>
      <trkpt lat="45.17584" lon="5.21639">
        <ele>312.47</ele>
        <time>2017-03-26T15:41:45Z</time>
      </trkpt>
      <trkpt lat="45.17584" lon="5.21639">
        <ele>312.47</ele>
        <time>2017-03-26T15:41:46Z</time>
      </trkpt>
      <trkpt lat="45.17584" lon="5.21639">
        <ele>312.47</ele>
        <time>2017-03-26T15:41:47Z</time>
      </trkpt>
      <trkpt lat="45.17584" lon="5.21639">
        <ele>312.47</ele>
        <time>2017-03-26T15:41:48Z</time>
      </trkpt>
      <trkpt lat="45.17584" lon="5.21639">
        <ele>312.47</ele>
        <time>2017-03-26T15:41:49Z</time>
      </trkpt>
      <trkpt lat="45.17584" lon="5.21639">
        <ele>312.47</ele>
        <time>2017-03-26T15:41:50Z</time>
      </trkpt>
      <trkpt lat="45.17584" lon="5.21639">
        <ele>312.47</ele>
        <time>2017-03-26T15:41:51Z</time>
      </trkpt>
      <trkpt lat="45.17584" lon="5.21639">
        <ele>312.47</ele>
        <time>2017-03-26T15:41:52Z</time>
      </trkpt>
      <trkpt lat="45.17584" lon="5.21639">
        <ele>312.47</ele>
        <time>2017-03-26T15:41:53Z</time>
      </trkpt>
      <trkpt lat="45.17584" lon="5.21639">
        <ele>312.47</ele>
        <time>2017-03-26T15:41:54Z</time>
      </trkpt>
      <trkpt lat="45.17584" lon="5.21639">
        <ele>312.47</ele>
        <time>2017-03-26T15:41:55Z</time>
      </trkpt>
      <trkpt lat="45.17584" lon="5.21639">
        <ele>312.47</ele>
        <time>2017-03-26T15:41:56Z</time>
      </trkpt>
      <trkpt lat="45.17584" lon="5.21639">
        <ele>312.47</ele>
        <time>2017-03-26T15:41:57Z</time>
      </trkpt>
      <trkpt lat="45.17584" lon="5.21639">
        <ele>312.47</ele>
        <time>2017-03-26T15:41:58Z</time>
      </trkpt>
      <trkpt lat="45.17584" lon="5.21639">
        <ele>312.47</ele>
        <time>2017-03-26T15:41:59Z</time>
      </trkpt>
      <trkpt lat="45.17584" lon="5.21639">
        <ele>312.47</ele>
        <time>2017-03-26T15:42:00Z</time>
      </trkpt>
      <trkpt lat="45.17584" lon="5.21639">
        <ele>312.47</ele>
        <time>2017-03-26T15:42:01Z</time>
      </trkpt>
      <trkpt lat="45.17584" lon="5.21639">
        <ele>312.47</ele>
        <time>2017-03-26T15:42:02Z</time>
      </trkpt>
      <trkpt lat="45.17584" lon="5.21639">
        <ele>312.47</ele>
        <time>2017-03-26T15:42:03Z</time>
      </trkpt>
      <trkpt lat="45.17584" lon="5.21639">
        <ele>312.47</ele>
        <time>2017-03-26T15:42:04Z</time>
      </trkpt>
      <trkpt lat="45.17584" lon="5.21639">
        <ele>312.47</ele>
        <time>2017-03-26T15:42:05Z</time>
      </trkpt>
      <trkpt lat="45.17584" lon="5.21639">
        <ele>312.47</ele>
        <time>2017-03-26T15:42:06Z</time>
      </trkpt>
      <trkpt lat="45.17584" lon="5.21639">
        <ele>312.47</ele>
        <time>2017-03-26T15:42:07Z</time>
      </trkpt>
      <trkpt lat="45.17584" lon="5.21639">
        <ele>312.47</ele>
        <time>2017-03-26T15:42:08Z</time>
      </trkpt>
      <trkpt lat="45.17584" lon="5.21639">
        <ele>312.47</ele>
        <time>2017-03-26T15:42:09Z</time>
      </trkpt>
      <trkpt lat="45.17584" lon="5.21639">
        <ele>312.47</ele>
        <time>2017-03-26T15:42:10Z</time>
      </trkpt>
      <trkpt lat="45.17584" lon="5.21639">
        <ele>312.47</ele>
        <time>2017-03-26T15:42:11Z</time>
      </trkpt>
      <trkpt lat="45.17584" lon="5.21639">
        <ele>312.47</ele>
        <time>2017-03-26T15:42:12Z</time>
      </trkpt>
      <trkpt lat="45.17584" lon="5.21639">
        <ele>312.47</ele>
        <time>2017-03-26T15:42:13Z</time>
      </trkpt>
      <trkpt lat="45.17584" lon="5.21639">
        <ele>312.47</ele>
        <time>2017-03-26T15:42:14Z</time>
      </trkpt>
      <trkpt lat="45.17584" lon="5.21639">
        <ele>312.47</ele>
        <time>2017-03-26T15:42:15Z</time>
      </trkpt>
      <trkpt lat="45.17584" lon="5.21639">
        <ele>312.47</ele>
        <time>2017-03-26T15:42:16Z</time>
      </trkpt>
      <trkpt lat="45.17584" lon="5.21639">
        <ele>312.47</ele>
        <time>2017-03-26T15:42:17Z</time>
      </trkpt>
      <trkpt lat="45.17584" lon="5.21639">
        <ele>312.47</ele>
        <time>2017-03-26T15:42:18Z</time>
      </trkpt>
      <trkpt lat="45.17584" lon="5.21639">
        <ele>312.47</ele>
        <time>2017-03-26T15:42:19Z</time>
      </trkpt>
      <trkpt lat="45.17584" lon="5.21639">
        <ele>312.47</ele>
        <time>2017-03-26T15:42:20Z</time>
      </trkpt>
      <trkpt lat="45.17584" lon="5.21639">
        <ele>312.47</ele>
        <time>2017-03-26T15:42:21Z</time>
      </trkpt>
      <trkpt lat="45.17584" lon="5.21639">
        <ele>312.47</ele>
        <time>2017-03-26T15:42:22Z</time>
      </trkpt>
      <trkpt lat="45.17584" lon="5.21639">
        <ele>312.47</ele>
        <time>2017-03-26T15:42:23Z</time>
      </trkpt>
      <trkpt lat="45.17584" lon="5.21639">
        <ele>312.47</ele>
        <time>2017-03-26T15:42:24Z</time>
      </trkpt>
      <trkpt lat="45.17584" lon="5.21639">
        <ele>312.47</ele>
        <time>2017-03-26T15:42:25Z</time>
      </trkpt>
      <trkpt lat="45.17584" lon="5.21639">
        <ele>312.47</ele>
        <time>2017-03-26T15:42:26Z</time>
      </trkpt>
      <trkpt lat="45.17584" lon="5.21639">
        <ele>312.47</ele>
        <time>2017-03-26T15:42:27Z</time>
      </trkpt>
      <trkpt lat="45.17584" lon="5.21639">
        <ele>312.47</ele>
        <time>2017-03-26T15:42:28Z</time>
      </trkpt>
      <trkpt lat="45.17584" lon="5.21639">
        <ele>312.47</ele>
        <time>2017-03-26T15:42:29Z</time>
      </trkpt>
      <trkpt lat="45.17584" lon="5.21639">
        <ele>312.47</ele>
        <time>2017-03-26T15:42:30Z</time>
      </trkpt>
      <trkpt lat="45.17584" lon="5.21639">
        <ele>312.47</ele>
        <time>2017-03-26T15:42:31Z</time>
      </trkpt>
      <trkpt lat="45.17584" lon="5.21639">
        <ele>312.47</ele>
        <time>2017-03-26T15:42:32Z</time>
      </trkpt>
      <trkpt lat="45.17584" lon="5.21639">
        <ele>312.47</ele>
        <time>2017-03-26T15:42:33Z</time>
      </trkpt>
      <trkpt lat="45.17584" lon="5.21639">
        <ele>312.47</ele>
        <time>2017-03-26T15:42:34Z</time>
      </trkpt>
      <trkpt lat="45.17584" lon="5.21639">
        <ele>312.47</ele>
        <time>2017-03-26T15:42:35Z</time>
      </trkpt>
      <trkpt lat="45.17584" lon="5.21639">
        <ele>312.47</ele>
        <time>2017-03-26T15:42:36Z</time>
      </trkpt>
      <trkpt lat="45.17584" lon="5.21639">
        <ele>312.47</ele>
        <time>2017-03-26T15:42:37Z</time>
      </trkpt>
      <trkpt lat="45.17584" lon="5.21639">
        <ele>312.47</ele>
        <time>2017-03-26T15:42:38Z</time>
      </trkpt>
      <trkpt lat="45.17584" lon="5.21639">
        <ele>312.47</ele>
        <time>2017-03-26T15:42:39Z</time>
      </trkpt>
      <trkpt lat="45.17584" lon="5.21639">
        <ele>312.47</ele>
        <time>2017-03-26T15:42:40Z</time>
      </trkpt>
      <trkpt lat="45.17584" lon="5.21639">
        <ele>312.47</ele>
        <time>2017-03-26T15:42:41Z</time>
      </trkpt>
      <trkpt lat="45.17584" lon="5.21639">
        <ele>312.47</ele>
        <time>2017-03-26T15:42:42Z</time>
      </trkpt>
      <trkpt lat="45.17584" lon="5.21639">
        <ele>312.47</ele>
        <time>2017-03-26T15:42:43Z</time>
      </trkpt>
      <trkpt lat="45.17584" lon="5.21639">
        <ele>312.47</ele>
        <time>2017-03-26T15:42:44Z</time>
      </trkpt>
      <trkpt lat="45.17584" lon="5.21639">
        <ele>312.47</ele>
        <time>2017-03-26T15:42:45Z</time>
      </trkpt>
      <trkpt lat="45.17584" lon="5.21639">
        <ele>312.47</ele>
        <time>2017-03-26T15:42:46Z</time>
      </trkpt>
      <trkpt lat="45.17584" lon="5.21639">
        <ele>312.47</ele>
        <time>2017-03-26T15:42:47Z</time>
      </trkpt>
      <trkpt lat="45.17584" lon="5.21639">
        <ele>312.47</ele>
        <time>2017-03-26T15:42:48Z</time>
      </trkpt>
      <trkpt lat="45.17584" lon="5.21639">
        <ele>312.47</ele>
        <time>2017-03-26T15:42:49Z</time>
      </trkpt>
      <trkpt lat="45.17584" lon="5.21639">
        <ele>312.47</ele>
        <time>2017-03-26T15:42:50Z</time>
      </trkpt>
      <trkpt lat="45.17584" lon="5.21639">
        <ele>312.47</ele>
        <time>2017-03-26T15:42:51Z</time>
      </trkpt>
      <trkpt lat="45.17584" lon="5.21639">
        <ele>312.47</ele>
        <time>2017-03-26T15:42:52Z</time>
      </trkpt>
      <trkpt lat="45.17584" lon="5.21639">
        <ele>312.47</ele>
        <time>2017-03-26T15:42:53Z</time>
      </trkpt>
      <trkpt lat="45.17584" lon="5.21639">
        <ele>312.47</ele>
        <time>2017-03-26T15:42:54Z</time>
      </trkpt>
      <trkpt lat="45.17584" lon="5.21639">
        <ele>312.47</ele>
        <time>2017-03-26T15:42:55Z</time>
      </trkpt>
      <trkpt lat="45.17584" lon="5.21639">
        <ele>312.47</ele>
        <time>2017-03-26T15:42:56Z</time>
      </trkpt>
      <trkpt lat="45.17584" lon="5.21639">
        <ele>312.47</ele>
        <time>2017-03-26T15:42:57Z</time>
      </trkpt>
      <trkpt lat="45.17584" lon="5.21639">
        <ele>312.47</ele>
        <time>2017-03-26T15:42:58Z</time>
      </trkpt>
      <trkpt lat="45.17584" lon="5.21639">
        <ele>312.47</ele>
        <time>2017-03-26T15:42:59Z</time>
      </trkpt>
      <trkpt lat="45.17584" lon="5.21639">
        <ele>312.47</ele>
        <time>2017-03-26T15:43:00Z</time>
      </trkpt>
      <trkpt lat="45.17584" lon="5.21639">
        <ele>312.47</ele>
        <time>2017-03-26T15:43:01Z</time>
      </trkpt>
      <trkpt lat="45.17584" lon="5.21639">
        <ele>312.47</ele>
        <time>2017-03-26T15:43:02Z</time>
      </trkpt>
      <trkpt lat="45.17584" lon="5.21639">
        <ele>312.47</ele>
        <time>2017-03-26T15:43:03Z</time>
      </trkpt>
      <trkpt lat="45.17584" lon="5.21639">
        <ele>312.47</ele>
        <time>2017-03-26T15:43:04Z</time>
      </trkpt>
      <trkpt lat="45.17584" lon="5.21639">
        <ele>312.47</ele>
        <time>2017-03-26T15:43:05Z</time>
      </trkpt>
      <trkpt lat="45.17584" lon="5.21639">
        <ele>312.47</ele>
        <time>2017-03-26T15:43:06Z</time>
      </trkpt>
      <trkpt lat="45.17584" lon="5.21639">
        <ele>312.47</ele>
        <time>2017-03-26T15:43:07Z</time>
      </trkpt>
      <trkpt lat="45.17584" lon="5.21639">
        <ele>312.47</ele>
        <time>2017-03-26T15:43:08Z</time>
      </trkpt>
      <trkpt lat="45.17584" lon="5.21639">
        <ele>312.47</ele>
        <time>2017-03-26T15:43:09Z</time>
      </trkpt>
      <trkpt lat="45.17584" lon="5.21639">
        <ele>312.47</ele>
        <time>2017-03-26T15:43:10Z</time>
      </trkpt>
      <trkpt lat="45.17584" lon="5.21639">
        <ele>312.47</ele>
        <time>2017-03-26T15:43:11Z</time>
      </trkpt>
      <trkpt lat="45.17584" lon="5.21639">
        <ele>312.47</ele>
        <time>2017-03-26T15:43:12Z</time>
      </trkpt>
      <trkpt lat="45.17584" lon="5.21639">
        <ele>312.47</ele>
        <time>2017-03-26T15:43:13Z</time>
      </trkpt>
      <trkpt lat="45.17584" lon="5.21639">
        <ele>312.47</ele>
        <time>2017-03-26T15:43:14Z</time>
      </trkpt>
      <trkpt lat="45.17584" lon="5.21639">
        <ele>312.47</ele>
        <time>2017-03-26T15:43:15Z</time>
      </trkpt>
      <trkpt lat="45.17584" lon="5.21639">
        <ele>312.47</ele>
        <time>2017-03-26T15:43:16Z</time>
      </trkpt>
      <trkpt lat="45.17584" lon="5.21639">
        <ele>312.47</ele>
        <time>2017-03-26T15:43:17Z</time>
      </trkpt>
      <trkpt lat="45.17584" lon="5.21639">
        <ele>312.47</ele>
        <time>2017-03-26T15:43:18Z</time>
      </trkpt>
      <trkpt lat="45.17584" lon="5.21639">
        <ele>312.47</ele>
        <time>2017-03-26T15:43:19Z</time>
      </trkpt>
      <trkpt lat="45.17584" lon="5.21639">
        <ele>312.47</ele>
        <time>2017-03-26T15:43:20Z</time>
      </trkpt>
      <trkpt lat="45.17584" lon="5.21639">
        <ele>312.47</ele>
        <time>2017-03-26T15:43:21Z</time>
      </trkpt>
      <trkpt lat="45.17584" lon="5.21639">
        <ele>312.47</ele>
        <time>2017-03-26T15:43:22Z</time>
      </trkpt>
      <trkpt lat="45.17584" lon="5.21639">
        <ele>312.47</ele>
        <time>2017-03-26T15:43:23Z</time>
      </trkpt>
      <trkpt lat="45.17584" lon="5.21639">
        <ele>312.47</ele>
        <time>2017-03-26T15:43:24Z</time>
      </trkpt>
      <trkpt lat="45.17584" lon="5.21639">
        <ele>312.47</ele>
        <time>2017-03-26T15:43:25Z</time>
      </trkpt>
      <trkpt lat="45.17584" lon="5.21639">
        <ele>312.47</ele>
        <time>2017-03-26T15:43:26Z</time>
      </trkpt>
      <trkpt lat="45.17584" lon="5.21639">
        <ele>312.47</ele>
        <time>2017-03-26T15:43:27Z</time>
      </trkpt>
      <trkpt lat="45.17584" lon="5.21639">
        <ele>312.47</ele>
        <time>2017-03-26T15:43:28Z</time>
      </trkpt>
      <trkpt lat="45.17584" lon="5.21639">
        <ele>312.47</ele>
        <time>2017-03-26T15:43:29Z</time>
      </trkpt>
      <trkpt lat="45.17584" lon="5.21639">
        <ele>312.47</ele>
        <time>2017-03-26T15:43:30Z</time>
      </trkpt>
      <trkpt lat="45.17584" lon="5.21639">
        <ele>312.47</ele>
        <time>2017-03-26T15:43:31Z</time>
      </trkpt>
      <trkpt lat="45.17584" lon="5.21639">
        <ele>312.47</ele>
        <time>2017-03-26T15:43:32Z</time>
      </trkpt>
      <trkpt lat="45.17584" lon="5.21639">
        <ele>312.47</ele>
        <time>2017-03-26T15:43:33Z</time>
      </trkpt>
      <trkpt lat="45.17584" lon="5.21639">
        <ele>312.47</ele>
        <time>2017-03-26T15:43:34Z</time>
      </trkpt>
      <trkpt lat="45.17584" lon="5.21639">
        <ele>312.47</ele>
        <time>2017-03-26T15:43:35Z</time>
      </trkpt>
      <trkpt lat="45.17584" lon="5.21639">
        <ele>312.47</ele>
        <time>2017-03-26T15:43:36Z</time>
      </trkpt>
      <trkpt lat="45.17584" lon="5.21639">
        <ele>312.47</ele>
        <time>2017-03-26T15:43:37Z</time>
      </trkpt>
      <trkpt lat="45.17584" lon="5.21639">
        <ele>312.47</ele>
        <time>2017-03-26T15:43:38Z</time>
      </trkpt>
      <trkpt lat="45.17584" lon="5.21639">
        <ele>312.47</ele>
        <time>2017-03-26T15:43:39Z</time>
      </trkpt>
      <trkpt lat="45.17584" lon="5.21639">
        <ele>312.47</ele>
        <time>2017-03-26T15:43:40Z</time>
      </trkpt>
      <trkpt lat="45.17584" lon="5.21639">
        <ele>312.47</ele>
        <time>2017-03-26T15:43:41Z</time>
      </trkpt>
      <trkpt lat="45.17584" lon="5.21639">
        <ele>312.47</ele>
        <time>2017-03-26T15:43:42Z</time>
      </trkpt>
      <trkpt lat="45.17584" lon="5.21639">
        <ele>312.47</ele>
        <time>2017-03-26T15:43:43Z</time>
      </trkpt>
      <trkpt lat="45.17584" lon="5.21639">
        <ele>312.47</ele>
        <time>2017-03-26T15:43:44Z</time>
      </trkpt>
      <trkpt lat="45.17584" lon="5.21639">
        <ele>312.47</ele>
        <time>2017-03-26T15:43:45Z</time>
      </trkpt>
      <trkpt lat="45.17584" lon="5.21639">
        <ele>312.47</ele>
        <time>2017-03-26T15:43:46Z</time>
      </trkpt>
      <trkpt lat="45.17584" lon="5.21639">
        <ele>312.47</ele>
        <time>2017-03-26T15:43:47Z</time>
      </trkpt>
      <trkpt lat="45.17584" lon="5.21639">
        <ele>312.47</ele>
        <time>2017-03-26T15:43:48Z</time>
      </trkpt>
      <trkpt lat="45.17584" lon="5.21639">
        <ele>312.47</ele>
        <time>2017-03-26T15:43:49Z</time>
      </trkpt>
      <trkpt lat="45.17584" lon="5.21639">
        <ele>312.47</ele>
        <time>2017-03-26T15:43:50Z</time>
      </trkpt>
      <trkpt lat="45.17584" lon="5.21639">
        <ele>312.47</ele>
        <time>2017-03-26T15:43:51Z</time>
      </trkpt>
      <trkpt lat="45.17584" lon="5.21639">
        <ele>312.47</ele>
        <time>2017-03-26T15:43:52Z</time>
      </trkpt>
      <trkpt lat="45.17584" lon="5.21639">
        <ele>312.47</ele>
        <time>2017-03-26T15:43:53Z</time>
      </trkpt>
      <trkpt lat="45.17584" lon="5.21639">
        <ele>312.47</ele>
        <time>2017-03-26T15:43:54Z</time>
      </trkpt>
      <trkpt lat="45.17584" lon="5.21639">
        <ele>312.47</ele>
        <time>2017-03-26T15:43:55Z</time>
      </trkpt>
      <trkpt lat="45.17584" lon="5.21639">
        <ele>312.47</ele>
        <time>2017-03-26T15:43:56Z</time>
      </trkpt>
      <trkpt lat="45.17584" lon="5.21639">
        <ele>312.47</ele>
        <time>2017-03-26T15:43:57Z</time>
      </trkpt>
      <trkpt lat="45.17584" lon="5.21639">
        <ele>312.47</ele>
        <time>2017-03-26T15:43:58Z</time>
      </trkpt>
      <trkpt lat="45.17584" lon="5.21639">
        <ele>312.47</ele>
        <time>2017-03-26T15:43:59Z</time>
      </trkpt>
      <trkpt lat="45.17584" lon="5.21639">
        <ele>312.47</ele>
        <time>2017-03-26T15:44:00Z</time>
      </trkpt>
      <trkpt lat="45.17584" lon="5.21639">
        <ele>312.47</ele>
        <time>2017-03-26T15:44:01Z</time>
      </trkpt>
      <trkpt lat="45.17584" lon="5.21639">
        <ele>312.47</ele>
        <time>2017-03-26T15:44:02Z</time>
      </trkpt>
      <trkpt lat="45.17584" lon="5.21639">
        <ele>312.47</ele>
        <time>2017-03-26T15:44:03Z</time>
      </trkpt>
      <trkpt lat="45.17584" lon="5.21639">
        <ele>312.47</ele>
        <time>2017-03-26T15:44:04Z</time>
      </trkpt>
      <trkpt lat="45.17584" lon="5.21639">
        <ele>312.47</ele>
        <time>2017-03-26T15:44:05Z</time>
      </trkpt>
      <trkpt lat="45.17584" lon="5.21639">
        <ele>312.47</ele>
        <time>2017-03-26T15:44:06Z</time>
      </trkpt>
      <trkpt lat="45.17584" lon="5.21639">
        <ele>312.47</ele>
        <time>2017-03-26T15:44:07Z</time>
      </trkpt>
      <trkpt lat="45.17584" lon="5.21639">
        <ele>312.47</ele>
        <time>2017-03-26T15:44:08Z</time>
      </trkpt>
      <trkpt lat="45.17584" lon="5.21639">
        <ele>312.47</ele>
        <time>2017-03-26T15:44:09Z</time>
      </trkpt>
      <trkpt lat="45.17584" lon="5.21639">
        <ele>312.47</ele>
        <time>2017-03-26T15:44:10Z</time>
      </trkpt>
      <trkpt lat="45.17584" lon="5.21639">
        <ele>312.47</ele>
        <time>2017-03-26T15:44:11Z</time>
      </trkpt>
      <trkpt lat="45.17584" lon="5.21639">
        <ele>312.47</ele>
        <time>2017-03-26T15:44:12Z</time>
      </trkpt>
      <trkpt lat="45.17584" lon="5.21639">
        <ele>312.47</ele>
        <time>2017-03-26T15:44:13Z</time>
      </trkpt>
      <trkpt lat="45.17584" lon="5.21639">
        <ele>312.47</ele>
        <time>2017-03-26T15:44:14Z</time>
      </trkpt>
      <trkpt lat="45.17584" lon="5.21639">
        <ele>312.47</ele>
        <time>2017-03-26T15:44:15Z</time>
      </trkpt>
      <trkpt lat="45.17584" lon="5.21639">
        <ele>312.47</ele>
        <time>2017-03-26T15:44:16Z</time>
      </trkpt>
      <trkpt lat="45.17584" lon="5.21639">
        <ele>312.47</ele>
        <time>2017-03-26T15:44:17Z</time>
      </trkpt>
      <trkpt lat="45.17584" lon="5.21639">
        <ele>312.47</ele>
        <time>2017-03-26T15:44:18Z</time>
      </trkpt>
      <trkpt lat="45.17584" lon="5.21639">
        <ele>312.47</ele>
        <time>2017-03-26T15:44:19Z</time>
      </trkpt>
      <trkpt lat="45.17584" lon="5.21639">
        <ele>312.47</ele>
        <time>2017-03-26T15:44:20Z</time>
      </trkpt>
      <trkpt lat="45.17584" lon="5.21639">
        <ele>312.47</ele>
        <time>2017-03-26T15:44:21Z</time>
      </trkpt>
      <trkpt lat="45.17584" lon="5.21639">
        <ele>312.47</ele>
        <time>2017-03-26T15:44:22Z</time>
      </trkpt>
      <trkpt lat="45.17584" lon="5.21639">
        <ele>312.47</ele>
        <time>2017-03-26T15:44:23Z</time>
      </trkpt>
      <trkpt lat="45.17584" lon="5.21639">
        <ele>312.47</ele>
        <time>2017-03-26T15:44:24Z</time>
      </trkpt>
      <trkpt lat="45.17584" lon="5.21639">
        <ele>312.47</ele>
        <time>2017-03-26T15:44:25Z</time>
      </trkpt>
      <trkpt lat="45.17584" lon="5.21639">
        <ele>312.47</ele>
        <time>2017-03-26T15:44:26Z</time>
      </trkpt>
      <trkpt lat="45.17584" lon="5.21639">
        <ele>312.47</ele>
        <time>2017-03-26T15:44:27Z</time>
      </trkpt>
      <trkpt lat="45.17584" lon="5.21639">
        <ele>312.47</ele>
        <time>2017-03-26T15:44:28Z</time>
      </trkpt>
      <trkpt lat="45.17584" lon="5.21639">
        <ele>312.47</ele>
        <time>2017-03-26T15:44:29Z</time>
      </trkpt>
      <trkpt lat="45.17584" lon="5.21639">
        <ele>312.47</ele>
        <time>2017-03-26T15:44:30Z</time>
      </trkpt>
      <trkpt lat="45.17584" lon="5.21639">
        <ele>312.47</ele>
        <time>2017-03-26T15:44:31Z</time>
      </trkpt>
      <trkpt lat="45.17584" lon="5.21639">
        <ele>312.47</ele>
        <time>2017-03-26T15:44:32Z</time>
      </trkpt>
      <trkpt lat="45.17584" lon="5.21639">
        <ele>312.47</ele>
        <time>2017-03-26T15:44:33Z</time>
      </trkpt>
      <trkpt lat="45.17584" lon="5.21639">
        <ele>312.47</ele>
        <time>2017-03-26T15:44:34Z</time>
      </trkpt>
      <trkpt lat="45.17584" lon="5.21639">
        <ele>312.47</ele>
        <time>2017-03-26T15:44:35Z</time>
      </trkpt>
      <trkpt lat="45.17584" lon="5.21639">
        <ele>312.47</ele>
        <time>2017-03-26T15:44:36Z</time>
      </trkpt>
      <trkpt lat="45.17584" lon="5.21639">
        <ele>312.47</ele>
        <time>2017-03-26T15:44:37Z</time>
      </trkpt>
      <trkpt lat="45.17584" lon="5.21639">
        <ele>312.47</ele>
        <time>2017-03-26T15:44:38Z</time>
      </trkpt>
      <trkpt lat="45.17584" lon="5.21639">
        <ele>312.47</ele>
        <time>2017-03-26T15:44:39Z</time>
      </trkpt>
      <trkpt lat="45.17584" lon="5.21639">
        <ele>312.47</ele>
        <time>2017-03-26T15:44:40Z</time>
      </trkpt>
      <trkpt lat="45.17584" lon="5.21639">
        <ele>312.47</ele>
        <time>2017-03-26T15:44:41Z</time>
      </trkpt>
      <trkpt lat="45.17584" lon="5.21639">
        <ele>312.47</ele>
        <time>2017-03-26T15:44:42Z</time>
      </trkpt>
      <trkpt lat="45.17584" lon="5.21639">
        <ele>312.47</ele>
        <time>2017-03-26T15:44:43Z</time>
      </trkpt>
      <trkpt lat="45.17584" lon="5.21639">
        <ele>312.47</ele>
        <time>2017-03-26T15:44:44Z</time>
      </trkpt>
      <trkpt lat="45.17584" lon="5.21639">
        <ele>312.47</ele>
        <time>2017-03-26T15:44:45Z</time>
      </trkpt>
      <trkpt lat="45.17584" lon="5.21639">
        <ele>312.47</ele>
        <time>2017-03-26T15:44:46Z</time>
      </trkpt>
      <trkpt lat="45.17584" lon="5.21639">
        <ele>312.47</ele>
        <time>2017-03-26T15:44:47Z</time>
      </trkpt>
      <trkpt lat="45.17584" lon="5.21639">
        <ele>312.47</ele>
        <time>2017-03-26T15:44:48Z</time>
      </trkpt>
      <trkpt lat="45.17584" lon="5.21639">
        <ele>312.47</ele>
        <time>2017-03-26T15:44:49Z</time>
      </trkpt>
      <trkpt lat="45.17584" lon="5.21639">
        <ele>312.47</ele>
        <time>2017-03-26T15:44:50Z</time>
      </trkpt>
      <trkpt lat="45.17584" lon="5.21639">
        <ele>312.47</ele>
        <time>2017-03-26T15:44:51Z</time>
      </trkpt>
      <trkpt lat="45.17584" lon="5.21639">
        <ele>312.47</ele>
        <time>2017-03-26T15:44:52Z</time>
      </trkpt>
      <trkpt lat="45.17584" lon="5.21639">
        <ele>312.47</ele>
        <time>2017-03-26T15:44:53Z</time>
      </trkpt>
      <trkpt lat="45.17584" lon="5.21639">
        <ele>312.47</ele>
        <time>2017-03-26T15:44:54Z</time>
      </trkpt>
      <trkpt lat="45.17584" lon="5.21639">
        <ele>312.47</ele>
        <time>2017-03-26T15:44:55Z</time>
      </trkpt>
      <trkpt lat="45.17584" lon="5.21639">
        <ele>312.47</ele>
        <time>2017-03-26T15:44:56Z</time>
      </trkpt>
      <trkpt lat="45.17584" lon="5.21639">
        <ele>312.47</ele>
        <time>2017-03-26T15:44:57Z</time>
      </trkpt>
      <trkpt lat="45.17584" lon="5.21639">
        <ele>312.47</ele>
        <time>2017-03-26T15:44:58Z</time>
      </trkpt>
      <trkpt lat="45.17584" lon="5.21639">
        <ele>312.47</ele>
        <time>2017-03-26T15:44:59Z</time>
      </trkpt>
      <trkpt lat="45.17584" lon="5.21639">
        <ele>312.47</ele>
        <time>2017-03-26T15:45:00Z</time>
      </trkpt>
      <trkpt lat="45.17584" lon="5.21639">
        <ele>312.47</ele>
        <time>2017-03-26T15:45:01Z</time>
      </trkpt>
      <trkpt lat="45.17584" lon="5.21639">
        <ele>312.47</ele>
        <time>2017-03-26T15:45:02Z</time>
      </trkpt>
      <trkpt lat="45.17584" lon="5.21639">
        <ele>312.47</ele>
        <time>2017-03-26T15:45:03Z</time>
      </trkpt>
      <trkpt lat="45.17584" lon="5.21639">
        <ele>312.47</ele>
        <time>2017-03-26T15:45:04Z</time>
      </trkpt>
      <trkpt lat="45.17584" lon="5.21639">
        <ele>312.47</ele>
        <time>2017-03-26T15:45:05Z</time>
      </trkpt>
      <trkpt lat="45.17584" lon="5.21639">
        <ele>312.47</ele>
        <time>2017-03-26T15:45:06Z</time>
      </trkpt>
      <trkpt lat="45.17584" lon="5.21639">
        <ele>312.47</ele>
        <time>2017-03-26T15:45:07Z</time>
      </trkpt>
      <trkpt lat="45.17584" lon="5.21639">
        <ele>312.47</ele>
        <time>2017-03-26T15:45:08Z</time>
      </trkpt>
      <trkpt lat="45.17584" lon="5.21639">
        <ele>312.47</ele>
        <time>2017-03-26T15:45:09Z</time>
      </trkpt>
      <trkpt lat="45.17584" lon="5.21639">
        <ele>312.47</ele>
        <time>2017-03-26T15:45:10Z</time>
      </trkpt>
      <trkpt lat="45.17584" lon="5.21639">
        <ele>312.47</ele>
        <time>2017-03-26T15:45:11Z</time>
      </trkpt>
      <trkpt lat="45.17584" lon="5.21639">
        <ele>312.47</ele>
        <time>2017-03-26T15:45:12Z</time>
      </trkpt>
      <trkpt lat="45.17584" lon="5.21639">
        <ele>312.47</ele>
        <time>2017-03-26T15:45:13Z</time>
      </trkpt>
      <trkpt lat="45.17584" lon="5.21639">
        <ele>312.47</ele>
        <time>2017-03-26T15:45:14Z</time>
      </trkpt>
      <trkpt lat="45.17584" lon="5.21639">
        <ele>312.47</ele>
        <time>2017-03-26T15:45:15Z</time>
      </trkpt>
      <trkpt lat="45.17584" lon="5.21639">
        <ele>312.47</ele>
        <time>2017-03-26T15:45:16Z</time>
      </trkpt>
      <trkpt lat="45.17584" lon="5.21639">
        <ele>312.47</ele>
        <time>2017-03-26T15:45:17Z</time>
      </trkpt>
      <trkpt lat="45.17584" lon="5.21639">
        <ele>312.47</ele>
        <time>2017-03-26T15:45:18Z</time>
      </trkpt>
      <trkpt lat="45.17584" lon="5.21639">
        <ele>312.47</ele>
        <time>2017-03-26T15:45:19Z</time>
      </trkpt>
      <trkpt lat="45.17584" lon="5.21639">
        <ele>312.47</ele>
        <time>2017-03-26T15:45:20Z</time>
      </trkpt>
      <trkpt lat="45.17584" lon="5.21639">
        <ele>312.47</ele>
        <time>2017-03-26T15:45:21Z</time>
      </trkpt>
      <trkpt lat="45.17584" lon="5.21639">
        <ele>312.47</ele>
        <time>2017-03-26T15:45:22Z</time>
      </trkpt>
      <trkpt lat="45.17584" lon="5.21639">
        <ele>312.47</ele>
        <time>2017-03-26T15:45:23Z</time>
      </trkpt>
      <trkpt lat="45.17584" lon="5.21639">
        <ele>312.47</ele>
        <time>2017-03-26T15:45:24Z</time>
      </trkpt>
      <trkpt lat="45.17584" lon="5.21639">
        <ele>312.47</ele>
        <time>2017-03-26T15:45:25Z</time>
      </trkpt>
      <trkpt lat="45.17584" lon="5.21639">
        <ele>312.47</ele>
        <time>2017-03-26T15:45:26Z</time>
      </trkpt>
      <trkpt lat="45.17584" lon="5.21639">
        <ele>312.47</ele>
        <time>2017-03-26T15:45:27Z</time>
      </trkpt>
      <trkpt lat="45.17584" lon="5.21639">
        <ele>312.47</ele>
        <time>2017-03-26T15:45:28Z</time>
      </trkpt>
      <trkpt lat="45.17584" lon="5.21639">
        <ele>312.47</ele>
        <time>2017-03-26T15:45:29Z</time>
      </trkpt>
      <trkpt lat="45.17584" lon="5.21639">
        <ele>312.47</ele>
        <time>2017-03-26T15:45:30Z</time>
      </trkpt>
      <trkpt lat="45.17584" lon="5.21639">
        <ele>312.47</ele>
        <time>2017-03-26T15:45:31Z</time>
      </trkpt>
      <trkpt lat="45.17584" lon="5.21639">
        <ele>312.47</ele>
        <time>2017-03-26T15:45:32Z</time>
      </trkpt>
      <trkpt lat="45.17584" lon="5.21639">
        <ele>312.47</ele>
        <time>2017-03-26T15:45:33Z</time>
      </trkpt>
      <trkpt lat="45.17584" lon="5.21639">
        <ele>312.47</ele>
        <time>2017-03-26T15:45:34Z</time>
      </trkpt>
      <trkpt lat="45.17584" lon="5.21639">
        <ele>312.47</ele>
        <time>2017-03-26T15:45:35Z</time>
      </trkpt>
      <trkpt lat="45.17584" lon="5.21639">
        <ele>312.47</ele>
        <time>2017-03-26T15:45:36Z</time>
      </trkpt>
      <trkpt lat="45.17584" lon="5.21639">
        <ele>312.47</ele>
        <time>2017-03-26T15:45:37Z</time>
      </trkpt>
      <trkpt lat="45.17584" lon="5.21639">
        <ele>312.47</ele>
        <time>2017-03-26T15:45:38Z</time>
      </trkpt>
      <trkpt lat="45.17584" lon="5.21639">
        <ele>312.47</ele>
        <time>2017-03-26T15:45:39Z</time>
      </trkpt>
      <trkpt lat="45.17584" lon="5.21639">
        <ele>312.47</ele>
        <time>2017-03-26T15:45:40Z</time>
      </trkpt>
      <trkpt lat="45.17584" lon="5.21639">
        <ele>312.47</ele>
        <time>2017-03-26T15:45:41Z</time>
      </trkpt>
      <trkpt lat="45.17584" lon="5.21639">
        <ele>312.47</ele>
        <time>2017-03-26T15:45:42Z</time>
      </trkpt>
      <trkpt lat="45.17584" lon="5.21639">
        <ele>312.47</ele>
        <time>2017-03-26T15:45:43Z</time>
      </trkpt>
      <trkpt lat="45.17584" lon="5.21639">
        <ele>312.47</ele>
        <time>2017-03-26T15:45:44Z</time>
      </trkpt>
      <trkpt lat="45.17584" lon="5.21639">
        <ele>312.47</ele>
        <time>2017-03-26T15:45:45Z</time>
      </trkpt>
      <trkpt lat="45.17584" lon="5.21639">
        <ele>312.47</ele>
        <time>2017-03-26T15:45:46Z</time>
      </trkpt>
      <trkpt lat="45.17584" lon="5.21639">
        <ele>312.47</ele>
        <time>2017-03-26T15:45:47Z</time>
      </trkpt>
      <trkpt lat="45.17584" lon="5.21639">
        <ele>312.47</ele>
        <time>2017-03-26T15:45:48Z</time>
      </trkpt>
      <trkpt lat="45.17584" lon="5.21639">
        <ele>312.47</ele>
        <time>2017-03-26T15:45:49Z</time>
      </trkpt>
      <trkpt lat="45.17584" lon="5.21639">
        <ele>312.47</ele>
        <time>2017-03-26T15:45:50Z</time>
      </trkpt>
      <trkpt lat="45.17584" lon="5.21639">
        <ele>312.47</ele>
        <time>2017-03-26T15:45:51Z</time>
      </trkpt>
      <trkpt lat="45.17584" lon="5.21639">
        <ele>312.47</ele>
        <time>2017-03-26T15:45:52Z</time>
      </trkpt>
      <trkpt lat="45.17584" lon="5.21639">
        <ele>312.47</ele>
        <time>2017-03-26T15:45:53Z</time>
      </trkpt>
      <trkpt lat="45.17584" lon="5.21639">
        <ele>312.47</ele>
        <time>2017-03-26T15:45:54Z</time>
      </trkpt>
      <trkpt lat="45.17584" lon="5.21639">
        <ele>312.47</ele>
        <time>2017-03-26T15:45:55Z</time>
      </trkpt>
      <trkpt lat="45.17584" lon="5.21639">
        <ele>312.47</ele>
        <time>2017-03-26T15:45:56Z</time>
      </trkpt>
      <trkpt lat="45.17584" lon="5.21639">
        <ele>312.47</ele>
        <time>2017-03-26T15:45:57Z</time>
      </trkpt>
      <trkpt lat="45.17584" lon="5.21639">
        <ele>312.47</ele>
        <time>2017-03-26T15:45:58Z</time>
      </trkpt>
      <trkpt lat="45.17584" lon="5.21639">
        <ele>312.47</ele>
        <time>2017-03-26T15:45:59Z</time>
      </trkpt>
      <trkpt lat="45.17584" lon="5.21639">
        <ele>312.47</ele>
        <time>2017-03-26T15:46:00Z</time>
      </trkpt>
      <trkpt lat="45.17584" lon="5.21639">
        <ele>312.47</ele>
        <time>2017-03-26T15:46:01Z</time>
      </trkpt>
      <trkpt lat="45.17584" lon="5.21639">
        <ele>312.47</ele>
        <time>2017-03-26T15:46:02Z</time>
      </trkpt>
      <trkpt lat="45.17584" lon="5.21639">
        <ele>312.47</ele>
        <time>2017-03-26T15:46:03Z</time>
      </trkpt>
      <trkpt lat="45.17584" lon="5.21639">
        <ele>312.47</ele>
        <time>2017-03-26T15:46:04Z</time>
      </trkpt>
      <trkpt lat="45.17584" lon="5.21639">
        <ele>312.47</ele>
        <time>2017-03-26T15:46:05Z</time>
      </trkpt>
      <trkpt lat="45.17584" lon="5.21639">
        <ele>312.47</ele>
        <time>2017-03-26T15:46:06Z</time>
      </trkpt>
      <trkpt lat="45.17584" lon="5.21639">
        <ele>312.47</ele>
        <time>2017-03-26T15:46:07Z</time>
      </trkpt>
      <trkpt lat="45.17584" lon="5.21639">
        <ele>312.47</ele>
        <time>2017-03-26T15:46:08Z</time>
      </trkpt>
      <trkpt lat="45.17584" lon="5.21639">
        <ele>312.47</ele>
        <time>2017-03-26T15:46:09Z</time>
      </trkpt>
      <trkpt lat="45.17584" lon="5.21639">
        <ele>312.47</ele>
        <time>2017-03-26T15:46:10Z</time>
      </trkpt>
      <trkpt lat="45.17584" lon="5.21639">
        <ele>312.47</ele>
        <time>2017-03-26T15:46:11Z</time>
      </trkpt>
      <trkpt lat="45.17584" lon="5.21639">
        <ele>312.47</ele>
        <time>2017-03-26T15:46:12Z</time>
      </trkpt>
      <trkpt lat="45.17584" lon="5.21639">
        <ele>312.47</ele>
        <time>2017-03-26T15:46:13Z</time>
      </trkpt>
      <trkpt lat="45.17584" lon="5.21639">
        <ele>312.47</ele>
        <time>2017-03-26T15:46:14Z</time>
      </trkpt>
      <trkpt lat="45.17577" lon="5.21649">
        <ele>313.51</ele>
        <time>2017-03-26T15:46:15Z</time>
      </trkpt>
      <trkpt lat="45.17577" lon="5.2165">
        <ele>313.64</ele>
        <time>2017-03-26T15:46:16Z</time>
      </trkpt>
      <trkpt lat="45.17576" lon="5.21651">
        <ele>313.58</ele>
        <time>2017-03-26T15:46:17Z</time>
      </trkpt>
      <trkpt lat="45.17576" lon="5.21652">
        <ele>313.57</ele>
        <time>2017-03-26T15:46:18Z</time>
      </trkpt>
      <trkpt lat="45.17576" lon="5.21652">
        <ele>313.57</ele>
        <time>2017-03-26T15:46:19Z</time>
      </trkpt>
      <trkpt lat="45.17576" lon="5.21652">
        <ele>313.57</ele>
        <time>2017-03-26T15:46:20Z</time>
      </trkpt>
      <trkpt lat="45.17576" lon="5.21652">
        <ele>313.57</ele>
        <time>2017-03-26T15:46:21Z</time>
      </trkpt>
      <trkpt lat="45.17573" lon="5.21655">
        <ele>313.33</ele>
        <time>2017-03-26T15:46:22Z</time>
      </trkpt>
      <trkpt lat="45.17572" lon="5.21656">
        <ele>313.2</ele>
        <time>2017-03-26T15:46:23Z</time>
      </trkpt>
      <trkpt lat="45.17572" lon="5.21657">
        <ele>313.17</ele>
        <time>2017-03-26T15:46:24Z</time>
      </trkpt>
      <trkpt lat="45.17571" lon="5.21658">
        <ele>313.09</ele>
        <time>2017-03-26T15:46:25Z</time>
      </trkpt>
      <trkpt lat="45.1757" lon="5.21659">
        <ele>313.07</ele>
        <time>2017-03-26T15:46:26Z</time>
      </trkpt>
      <trkpt lat="45.1757" lon="5.2166">
        <ele>312.99</ele>
        <time>2017-03-26T15:46:27Z</time>
      </trkpt>
      <trkpt lat="45.1757" lon="5.21661">
        <ele>312.97</ele>
        <time>2017-03-26T15:46:28Z</time>
      </trkpt>
      <trkpt lat="45.17569" lon="5.21662">
        <ele>312.89</ele>
        <time>2017-03-26T15:46:29Z</time>
      </trkpt>
      <trkpt lat="45.17569" lon="5.21662">
        <ele>312.87</ele>
        <time>2017-03-26T15:46:30Z</time>
      </trkpt>
      <trkpt lat="45.17569" lon="5.21662">
        <ele>312.87</ele>
        <time>2017-03-26T15:46:31Z</time>
      </trkpt>
      <trkpt lat="45.17569" lon="5.21662">
        <ele>312.87</ele>
        <time>2017-03-26T15:46:32Z</time>
      </trkpt>
      <trkpt lat="45.17569" lon="5.21662">
        <ele>312.87</ele>
        <time>2017-03-26T15:46:33Z</time>
      </trkpt>
      <trkpt lat="45.17569" lon="5.21662">
        <ele>312.87</ele>
        <time>2017-03-26T15:46:34Z</time>
      </trkpt>
      <trkpt lat="45.17569" lon="5.21662">
        <ele>312.87</ele>
        <time>2017-03-26T15:46:35Z</time>
      </trkpt>
      <trkpt lat="45.17569" lon="5.21662">
        <ele>312.87</ele>
        <time>2017-03-26T15:46:36Z</time>
      </trkpt>
      <trkpt lat="45.17569" lon="5.21662">
        <ele>312.87</ele>
        <time>2017-03-26T15:46:37Z</time>
      </trkpt>
      <trkpt lat="45.17569" lon="5.21662">
        <ele>312.87</ele>
        <time>2017-03-26T15:46:38Z</time>
      </trkpt>
      <trkpt lat="45.17569" lon="5.21662">
        <ele>312.87</ele>
        <time>2017-03-26T15:46:39Z</time>
      </trkpt>
      <trkpt lat="45.17569" lon="5.21662">
        <ele>312.87</ele>
        <time>2017-03-26T15:46:40Z</time>
      </trkpt>
      <trkpt lat="45.17569" lon="5.21662">
        <ele>312.87</ele>
        <time>2017-03-26T15:46:41Z</time>
      </trkpt>
      <trkpt lat="45.17564" lon="5.21673">
        <ele>312.31</ele>
        <time>2017-03-26T15:46:42Z</time>
      </trkpt>
      <trkpt lat="45.17564" lon="5.21674">
        <ele>312.04</ele>
        <time>2017-03-26T15:46:43Z</time>
      </trkpt>
      <trkpt lat="45.17563" lon="5.21675">
        <ele>311.82</ele>
        <time>2017-03-26T15:46:44Z</time>
      </trkpt>
      <trkpt lat="45.17563" lon="5.21676">
        <ele>311.62</ele>
        <time>2017-03-26T15:46:45Z</time>
      </trkpt>
      <trkpt lat="45.17563" lon="5.21676">
        <ele>311.58</ele>
        <time>2017-03-26T15:46:46Z</time>
      </trkpt>
      <trkpt lat="45.17563" lon="5.21676">
        <ele>311.57</ele>
        <time>2017-03-26T15:46:47Z</time>
      </trkpt>
      <trkpt lat="45.17563" lon="5.21676">
        <ele>311.57</ele>
        <time>2017-03-26T15:46:48Z</time>
      </trkpt>
      <trkpt lat="45.17563" lon="5.21676">
        <ele>311.57</ele>
        <time>2017-03-26T15:46:49Z</time>
      </trkpt>
      <trkpt lat="45.17563" lon="5.21676">
        <ele>311.57</ele>
        <time>2017-03-26T15:46:50Z</time>
      </trkpt>
      <trkpt lat="45.17563" lon="5.21676">
        <ele>311.57</ele>
        <time>2017-03-26T15:46:51Z</time>
      </trkpt>
      <trkpt lat="45.17563" lon="5.21676">
        <ele>311.57</ele>
        <time>2017-03-26T15:46:52Z</time>
      </trkpt>
      <trkpt lat="45.17563" lon="5.21676">
        <ele>311.57</ele>
        <time>2017-03-26T15:46:53Z</time>
      </trkpt>
      <trkpt lat="45.17563" lon="5.21676">
        <ele>311.57</ele>
        <time>2017-03-26T15:46:54Z</time>
      </trkpt>
      <trkpt lat="45.17563" lon="5.21676">
        <ele>311.57</ele>
        <time>2017-03-26T15:46:55Z</time>
      </trkpt>
      <trkpt lat="45.17563" lon="5.21676">
        <ele>311.57</ele>
        <time>2017-03-26T15:46:56Z</time>
      </trkpt>
      <trkpt lat="45.17563" lon="5.21676">
        <ele>311.57</ele>
        <time>2017-03-26T15:46:57Z</time>
      </trkpt>
      <trkpt lat="45.17563" lon="5.21676">
        <ele>311.57</ele>
        <time>2017-03-26T15:46:58Z</time>
      </trkpt>
      <trkpt lat="45.17563" lon="5.21676">
        <ele>311.57</ele>
        <time>2017-03-26T15:46:59Z</time>
      </trkpt>
      <trkpt lat="45.17563" lon="5.21676">
        <ele>311.57</ele>
        <time>2017-03-26T15:47:00Z</time>
      </trkpt>
      <trkpt lat="45.17563" lon="5.21676">
        <ele>311.57</ele>
        <time>2017-03-26T15:47:01Z</time>
      </trkpt>
      <trkpt lat="45.17557" lon="5.21687">
        <ele>310.53</ele>
        <time>2017-03-26T15:47:02Z</time>
      </trkpt>
      <trkpt lat="45.17557" lon="5.21687">
        <ele>310.32</ele>
        <time>2017-03-26T15:47:03Z</time>
      </trkpt>
      <trkpt lat="45.17556" lon="5.21688">
        <ele>310.2</ele>
        <time>2017-03-26T15:47:04Z</time>
      </trkpt>
      <trkpt lat="45.17555" lon="5.21688">
        <ele>310.09</ele>
        <time>2017-03-26T15:47:05Z</time>
      </trkpt>
      <trkpt lat="45.17555" lon="5.21688">
        <ele>310.07</ele>
        <time>2017-03-26T15:47:06Z</time>
      </trkpt>
      <trkpt lat="45.17555" lon="5.21688">
        <ele>310.07</ele>
        <time>2017-03-26T15:47:07Z</time>
      </trkpt>
      <trkpt lat="45.17555" lon="5.21688">
        <ele>310.07</ele>
        <time>2017-03-26T15:47:08Z</time>
      </trkpt>
      <trkpt lat="45.17555" lon="5.21688">
        <ele>310.07</ele>
        <time>2017-03-26T15:47:09Z</time>
      </trkpt>
      <trkpt lat="45.17555" lon="5.21688">
        <ele>310.07</ele>
        <time>2017-03-26T15:47:10Z</time>
      </trkpt>
      <trkpt lat="45.17555" lon="5.21688">
        <ele>310.07</ele>
        <time>2017-03-26T15:47:11Z</time>
      </trkpt>
      <trkpt lat="45.17555" lon="5.21688">
        <ele>310.07</ele>
        <time>2017-03-26T15:47:12Z</time>
      </trkpt>
      <trkpt lat="45.17555" lon="5.21688">
        <ele>310.07</ele>
        <time>2017-03-26T15:47:13Z</time>
      </trkpt>
      <trkpt lat="45.17555" lon="5.21688">
        <ele>310.07</ele>
        <time>2017-03-26T15:47:14Z</time>
      </trkpt>
      <trkpt lat="45.17555" lon="5.21688">
        <ele>310.07</ele>
        <time>2017-03-26T15:47:15Z</time>
      </trkpt>
      <trkpt lat="45.17555" lon="5.21688">
        <ele>310.07</ele>
        <time>2017-03-26T15:47:16Z</time>
      </trkpt>
      <trkpt lat="45.17555" lon="5.21688">
        <ele>310.07</ele>
        <time>2017-03-26T15:47:17Z</time>
      </trkpt>
      <trkpt lat="45.17555" lon="5.21688">
        <ele>310.07</ele>
        <time>2017-03-26T15:47:18Z</time>
      </trkpt>
      <trkpt lat="45.17555" lon="5.21688">
        <ele>310.07</ele>
        <time>2017-03-26T15:47:19Z</time>
      </trkpt>
      <trkpt lat="45.17555" lon="5.21688">
        <ele>310.07</ele>
        <time>2017-03-26T15:47:20Z</time>
      </trkpt>
      <trkpt lat="45.17555" lon="5.21688">
        <ele>310.07</ele>
        <time>2017-03-26T15:47:21Z</time>
      </trkpt>
      <trkpt lat="45.17555" lon="5.21688">
        <ele>310.07</ele>
        <time>2017-03-26T15:47:22Z</time>
      </trkpt>
      <trkpt lat="45.17555" lon="5.21688">
        <ele>310.07</ele>
        <time>2017-03-26T15:47:23Z</time>
      </trkpt>
      <trkpt lat="45.17555" lon="5.21688">
        <ele>310.07</ele>
        <time>2017-03-26T15:47:24Z</time>
      </trkpt>
      <trkpt lat="45.17555" lon="5.21688">
        <ele>310.07</ele>
        <time>2017-03-26T15:47:25Z</time>
      </trkpt>
      <trkpt lat="45.17555" lon="5.21688">
        <ele>310.07</ele>
        <time>2017-03-26T15:47:26Z</time>
      </trkpt>
      <trkpt lat="45.17555" lon="5.21688">
        <ele>310.07</ele>
        <time>2017-03-26T15:47:27Z</time>
      </trkpt>
      <trkpt lat="45.17555" lon="5.21688">
        <ele>310.07</ele>
        <time>2017-03-26T15:47:28Z</time>
      </trkpt>
      <trkpt lat="45.17555" lon="5.21688">
        <ele>310.07</ele>
        <time>2017-03-26T15:47:29Z</time>
      </trkpt>
      <trkpt lat="45.17555" lon="5.21688">
        <ele>310.07</ele>
        <time>2017-03-26T15:47:30Z</time>
      </trkpt>
      <trkpt lat="45.17549" lon="5.21697">
        <ele>309.43</ele>
        <time>2017-03-26T15:47:31Z</time>
      </trkpt>
      <trkpt lat="45.17549" lon="5.21697">
        <ele>309.22</ele>
        <time>2017-03-26T15:47:32Z</time>
      </trkpt>
      <trkpt lat="45.17549" lon="5.21697">
        <ele>309.18</ele>
        <time>2017-03-26T15:47:33Z</time>
      </trkpt>
      <trkpt lat="45.17548" lon="5.21697">
        <ele>309.09</ele>
        <time>2017-03-26T15:47:34Z</time>
      </trkpt>
      <trkpt lat="45.17548" lon="5.21697">
        <ele>309.07</ele>
        <time>2017-03-26T15:47:35Z</time>
      </trkpt>
      <trkpt lat="45.17548" lon="5.21697">
        <ele>309.07</ele>
        <time>2017-03-26T15:47:36Z</time>
      </trkpt>
      <trkpt lat="45.17548" lon="5.21697">
        <ele>309.07</ele>
        <time>2017-03-26T15:47:37Z</time>
      </trkpt>
      <trkpt lat="45.17548" lon="5.21697">
        <ele>309.07</ele>
        <time>2017-03-26T15:47:38Z</time>
      </trkpt>
      <trkpt lat="45.17548" lon="5.21697">
        <ele>309.07</ele>
        <time>2017-03-26T15:47:39Z</time>
      </trkpt>
      <trkpt lat="45.17548" lon="5.21697">
        <ele>309.07</ele>
        <time>2017-03-26T15:47:40Z</time>
      </trkpt>
      <trkpt lat="45.17548" lon="5.21697">
        <ele>309.07</ele>
        <time>2017-03-26T15:47:41Z</time>
      </trkpt>
      <trkpt lat="45.17548" lon="5.21697">
        <ele>309.07</ele>
        <time>2017-03-26T15:47:42Z</time>
      </trkpt>
      <trkpt lat="45.17548" lon="5.21697">
        <ele>309.07</ele>
        <time>2017-03-26T15:47:43Z</time>
      </trkpt>
      <trkpt lat="45.17548" lon="5.21697">
        <ele>309.07</ele>
        <time>2017-03-26T15:47:44Z</time>
      </trkpt>
      <trkpt lat="45.17548" lon="5.21697">
        <ele>309.07</ele>
        <time>2017-03-26T15:47:45Z</time>
      </trkpt>
      <trkpt lat="45.17548" lon="5.21697">
        <ele>309.07</ele>
        <time>2017-03-26T15:47:46Z</time>
      </trkpt>
      <trkpt lat="45.17548" lon="5.21697">
        <ele>309.07</ele>
        <time>2017-03-26T15:47:47Z</time>
      </trkpt>
      <trkpt lat="45.17548" lon="5.21697">
        <ele>309.07</ele>
        <time>2017-03-26T15:47:48Z</time>
      </trkpt>
      <trkpt lat="45.17548" lon="5.21697">
        <ele>309.07</ele>
        <time>2017-03-26T15:47:49Z</time>
      </trkpt>
      <trkpt lat="45.17548" lon="5.21697">
        <ele>309.07</ele>
        <time>2017-03-26T15:47:50Z</time>
      </trkpt>
      <trkpt lat="45.17548" lon="5.21697">
        <ele>309.07</ele>
        <time>2017-03-26T15:47:51Z</time>
      </trkpt>
      <trkpt lat="45.17548" lon="5.21697">
        <ele>309.07</ele>
        <time>2017-03-26T15:47:52Z</time>
      </trkpt>
      <trkpt lat="45.17548" lon="5.21697">
        <ele>309.07</ele>
        <time>2017-03-26T15:47:53Z</time>
      </trkpt>
      <trkpt lat="45.17548" lon="5.21697">
        <ele>309.07</ele>
        <time>2017-03-26T15:47:54Z</time>
      </trkpt>
      <trkpt lat="45.17548" lon="5.21697">
        <ele>309.07</ele>
        <time>2017-03-26T15:47:55Z</time>
      </trkpt>
      <trkpt lat="45.17548" lon="5.21697">
        <ele>309.07</ele>
        <time>2017-03-26T15:47:56Z</time>
      </trkpt>
      <trkpt lat="45.17548" lon="5.21697">
        <ele>309.07</ele>
        <time>2017-03-26T15:47:57Z</time>
      </trkpt>
      <trkpt lat="45.17548" lon="5.21697">
        <ele>309.07</ele>
        <time>2017-03-26T15:47:58Z</time>
      </trkpt>
      <trkpt lat="45.17548" lon="5.21697">
        <ele>309.07</ele>
        <time>2017-03-26T15:47:59Z</time>
      </trkpt>
      <trkpt lat="45.17548" lon="5.21697">
        <ele>309.07</ele>
        <time>2017-03-26T15:48:00Z</time>
      </trkpt>
      <trkpt lat="45.17548" lon="5.21697">
        <ele>309.07</ele>
        <time>2017-03-26T15:48:01Z</time>
      </trkpt>
      <trkpt lat="45.17548" lon="5.21697">
        <ele>309.07</ele>
        <time>2017-03-26T15:48:02Z</time>
      </trkpt>
      <trkpt lat="45.17548" lon="5.21697">
        <ele>309.07</ele>
        <time>2017-03-26T15:48:03Z</time>
      </trkpt>
      <trkpt lat="45.17548" lon="5.21697">
        <ele>309.07</ele>
        <time>2017-03-26T15:48:04Z</time>
      </trkpt>
      <trkpt lat="45.17548" lon="5.21697">
        <ele>309.07</ele>
        <time>2017-03-26T15:48:05Z</time>
      </trkpt>
      <trkpt lat="45.17543" lon="5.21709">
        <ele>307.23</ele>
        <time>2017-03-26T15:48:06Z</time>
      </trkpt>
      <trkpt lat="45.17542" lon="5.21711">
        <ele>306.86</ele>
        <time>2017-03-26T15:48:07Z</time>
      </trkpt>
      <trkpt lat="45.17541" lon="5.21714">
        <ele>306.71</ele>
        <time>2017-03-26T15:48:08Z</time>
      </trkpt>
      <trkpt lat="45.17541" lon="5.21715">
        <ele>306.68</ele>
        <time>2017-03-26T15:48:09Z</time>
      </trkpt>
      <trkpt lat="45.17541" lon="5.21715">
        <ele>306.67</ele>
        <time>2017-03-26T15:48:10Z</time>
      </trkpt>
      <trkpt lat="45.17541" lon="5.21715">
        <ele>306.67</ele>
        <time>2017-03-26T15:48:11Z</time>
      </trkpt>
      <trkpt lat="45.17541" lon="5.21715">
        <ele>306.67</ele>
        <time>2017-03-26T15:48:12Z</time>
      </trkpt>
      <trkpt lat="45.17541" lon="5.21715">
        <ele>306.67</ele>
        <time>2017-03-26T15:48:13Z</time>
      </trkpt>
      <trkpt lat="45.17532" lon="5.21724">
        <ele>306.19</ele>
        <time>2017-03-26T15:48:14Z</time>
      </trkpt>
      <trkpt lat="45.1753" lon="5.21727">
        <ele>306.09</ele>
        <time>2017-03-26T15:48:15Z</time>
      </trkpt>
      <trkpt lat="45.17529" lon="5.21728">
        <ele>306.07</ele>
        <time>2017-03-26T15:48:16Z</time>
      </trkpt>
      <trkpt lat="45.17528" lon="5.21729">
        <ele>305.99</ele>
        <time>2017-03-26T15:48:17Z</time>
      </trkpt>
      <trkpt lat="45.17528" lon="5.21729">
        <ele>305.97</ele>
        <time>2017-03-26T15:48:18Z</time>
      </trkpt>
      <trkpt lat="45.17528" lon="5.21729">
        <ele>305.97</ele>
        <time>2017-03-26T15:48:19Z</time>
      </trkpt>
      <trkpt lat="45.17528" lon="5.21729">
        <ele>305.97</ele>
        <time>2017-03-26T15:48:20Z</time>
      </trkpt>
      <trkpt lat="45.17528" lon="5.21729">
        <ele>305.97</ele>
        <time>2017-03-26T15:48:21Z</time>
      </trkpt>
      <trkpt lat="45.17528" lon="5.21729">
        <ele>305.97</ele>
        <time>2017-03-26T15:48:22Z</time>
      </trkpt>
      <trkpt lat="45.17521" lon="5.2174">
        <ele>305.81</ele>
        <time>2017-03-26T15:48:23Z</time>
      </trkpt>
      <trkpt lat="45.17518" lon="5.2174">
        <ele>305.7</ele>
        <time>2017-03-26T15:48:24Z</time>
      </trkpt>
      <trkpt lat="45.17517" lon="5.21741">
        <ele>305.59</ele>
        <time>2017-03-26T15:48:25Z</time>
      </trkpt>
      <trkpt lat="45.17515" lon="5.21743">
        <ele>305.49</ele>
        <time>2017-03-26T15:48:26Z</time>
      </trkpt>
      <trkpt lat="45.17515" lon="5.21743">
        <ele>305.47</ele>
        <time>2017-03-26T15:48:27Z</time>
      </trkpt>
      <trkpt lat="45.17515" lon="5.21743">
        <ele>305.47</ele>
        <time>2017-03-26T15:48:28Z</time>
      </trkpt>
      <trkpt lat="45.17515" lon="5.21743">
        <ele>305.47</ele>
        <time>2017-03-26T15:48:29Z</time>
      </trkpt>
      <trkpt lat="45.17515" lon="5.21743">
        <ele>305.47</ele>
        <time>2017-03-26T15:48:30Z</time>
      </trkpt>
      <trkpt lat="45.17515" lon="5.21743">
        <ele>305.47</ele>
        <time>2017-03-26T15:48:31Z</time>
      </trkpt>
      <trkpt lat="45.17515" lon="5.21743">
        <ele>305.47</ele>
        <time>2017-03-26T15:48:32Z</time>
      </trkpt>
      <trkpt lat="45.17515" lon="5.21743">
        <ele>305.47</ele>
        <time>2017-03-26T15:48:33Z</time>
      </trkpt>
      <trkpt lat="45.17515" lon="5.21743">
        <ele>305.47</ele>
        <time>2017-03-26T15:48:34Z</time>
      </trkpt>
      <trkpt lat="45.17515" lon="5.21743">
        <ele>305.47</ele>
        <time>2017-03-26T15:48:35Z</time>
      </trkpt>
      <trkpt lat="45.17515" lon="5.21743">
        <ele>305.47</ele>
        <time>2017-03-26T15:48:36Z</time>
      </trkpt>
      <trkpt lat="45.17515" lon="5.21743">
        <ele>305.47</ele>
        <time>2017-03-26T15:48:37Z</time>
      </trkpt>
      <trkpt lat="45.17508" lon="5.2175">
        <ele>305.39</ele>
        <time>2017-03-26T15:48:38Z</time>
      </trkpt>
      <trkpt lat="45.17507" lon="5.21751">
        <ele>305.29</ele>
        <time>2017-03-26T15:48:39Z</time>
      </trkpt>
      <trkpt lat="45.17506" lon="5.21752">
        <ele>305.35</ele>
        <time>2017-03-26T15:48:40Z</time>
      </trkpt>
      <trkpt lat="45.17505" lon="5.21753">
        <ele>305.44</ele>
        <time>2017-03-26T15:48:41Z</time>
      </trkpt>
      <trkpt lat="45.17505" lon="5.21753">
        <ele>305.46</ele>
        <time>2017-03-26T15:48:42Z</time>
      </trkpt>
      <trkpt lat="45.17505" lon="5.21753">
        <ele>305.47</ele>
        <time>2017-03-26T15:48:43Z</time>
      </trkpt>
      <trkpt lat="45.17505" lon="5.21753">
        <ele>305.47</ele>
        <time>2017-03-26T15:48:44Z</time>
      </trkpt>
      <trkpt lat="45.17505" lon="5.21753">
        <ele>305.47</ele>
        <time>2017-03-26T15:48:45Z</time>
      </trkpt>
      <trkpt lat="45.17505" lon="5.21753">
        <ele>305.47</ele>
        <time>2017-03-26T15:48:46Z</time>
      </trkpt>
      <trkpt lat="45.17505" lon="5.21753">
        <ele>305.47</ele>
        <time>2017-03-26T15:48:47Z</time>
      </trkpt>
      <trkpt lat="45.17505" lon="5.21753">
        <ele>305.47</ele>
        <time>2017-03-26T15:48:48Z</time>
      </trkpt>
      <trkpt lat="45.17505" lon="5.21753">
        <ele>305.47</ele>
        <time>2017-03-26T15:48:49Z</time>
      </trkpt>
      <trkpt lat="45.17505" lon="5.21753">
        <ele>305.47</ele>
        <time>2017-03-26T15:48:50Z</time>
      </trkpt>
      <trkpt lat="45.17505" lon="5.21753">
        <ele>305.47</ele>
        <time>2017-03-26T15:48:51Z</time>
      </trkpt>
      <trkpt lat="45.17505" lon="5.21753">
        <ele>305.47</ele>
        <time>2017-03-26T15:48:52Z</time>
      </trkpt>
      <trkpt lat="45.17505" lon="5.21753">
        <ele>305.47</ele>
        <time>2017-03-26T15:48:53Z</time>
      </trkpt>
      <trkpt lat="45.17505" lon="5.21753">
        <ele>305.47</ele>
        <time>2017-03-26T15:48:54Z</time>
      </trkpt>
      <trkpt lat="45.17505" lon="5.21753">
        <ele>305.47</ele>
        <time>2017-03-26T15:48:55Z</time>
      </trkpt>
      <trkpt lat="45.17505" lon="5.21753">
        <ele>305.47</ele>
        <time>2017-03-26T15:48:56Z</time>
      </trkpt>
      <trkpt lat="45.17505" lon="5.21753">
        <ele>305.47</ele>
        <time>2017-03-26T15:48:57Z</time>
      </trkpt>
      <trkpt lat="45.17505" lon="5.21753">
        <ele>305.47</ele>
        <time>2017-03-26T15:48:58Z</time>
      </trkpt>
      <trkpt lat="45.17505" lon="5.21753">
        <ele>305.47</ele>
        <time>2017-03-26T15:48:59Z</time>
      </trkpt>
      <trkpt lat="45.17505" lon="5.21753">
        <ele>305.47</ele>
        <time>2017-03-26T15:49:00Z</time>
      </trkpt>
      <trkpt lat="45.17505" lon="5.21753">
        <ele>305.47</ele>
        <time>2017-03-26T15:49:01Z</time>
      </trkpt>
      <trkpt lat="45.17505" lon="5.21753">
        <ele>305.47</ele>
        <time>2017-03-26T15:49:02Z</time>
      </trkpt>
      <trkpt lat="45.17505" lon="5.21753">
        <ele>305.47</ele>
        <time>2017-03-26T15:49:03Z</time>
      </trkpt>
      <trkpt lat="45.17505" lon="5.21753">
        <ele>305.47</ele>
        <time>2017-03-26T15:49:04Z</time>
      </trkpt>
      <trkpt lat="45.17505" lon="5.21753">
        <ele>305.47</ele>
        <time>2017-03-26T15:49:05Z</time>
      </trkpt>
      <trkpt lat="45.17505" lon="5.21753">
        <ele>305.47</ele>
        <time>2017-03-26T15:49:06Z</time>
      </trkpt>
      <trkpt lat="45.17505" lon="5.21753">
        <ele>305.47</ele>
        <time>2017-03-26T15:49:07Z</time>
      </trkpt>
      <trkpt lat="45.17505" lon="5.21753">
        <ele>305.47</ele>
        <time>2017-03-26T15:49:08Z</time>
      </trkpt>
      <trkpt lat="45.17505" lon="5.21753">
        <ele>305.47</ele>
        <time>2017-03-26T15:49:09Z</time>
      </trkpt>
      <trkpt lat="45.17505" lon="5.21753">
        <ele>305.47</ele>
        <time>2017-03-26T15:49:10Z</time>
      </trkpt>
      <trkpt lat="45.17505" lon="5.21753">
        <ele>305.47</ele>
        <time>2017-03-26T15:49:11Z</time>
      </trkpt>
      <trkpt lat="45.17505" lon="5.21753">
        <ele>305.47</ele>
        <time>2017-03-26T15:49:12Z</time>
      </trkpt>
      <trkpt lat="45.17505" lon="5.21753">
        <ele>305.47</ele>
        <time>2017-03-26T15:49:13Z</time>
      </trkpt>
      <trkpt lat="45.17505" lon="5.21753">
        <ele>305.47</ele>
        <time>2017-03-26T15:49:14Z</time>
      </trkpt>
      <trkpt lat="45.17505" lon="5.21753">
        <ele>305.47</ele>
        <time>2017-03-26T15:49:15Z</time>
      </trkpt>
      <trkpt lat="45.17505" lon="5.21753">
        <ele>305.47</ele>
        <time>2017-03-26T15:49:16Z</time>
      </trkpt>
      <trkpt lat="45.17505" lon="5.21753">
        <ele>305.47</ele>
        <time>2017-03-26T15:49:17Z</time>
      </trkpt>
      <trkpt lat="45.17505" lon="5.21753">
        <ele>305.47</ele>
        <time>2017-03-26T15:49:19Z</time>
      </trkpt>
      <trkpt lat="45.17505" lon="5.21753">
        <ele>305.47</ele>
        <time>2017-03-26T15:49:20Z</time>
      </trkpt>
      <trkpt lat="45.17505" lon="5.21753">
        <ele>305.47</ele>
        <time>2017-03-26T15:49:21Z</time>
      </trkpt>
      <trkpt lat="45.17505" lon="5.21753">
        <ele>305.47</ele>
        <time>2017-03-26T15:49:22Z</time>
      </trkpt>
      <trkpt lat="45.17505" lon="5.21753">
        <ele>305.47</ele>
        <time>2017-03-26T15:49:23Z</time>
      </trkpt>
      <trkpt lat="45.17505" lon="5.21753">
        <ele>305.47</ele>
        <time>2017-03-26T15:49:24Z</time>
      </trkpt>
      <trkpt lat="45.17505" lon="5.21753">
        <ele>305.47</ele>
        <time>2017-03-26T15:49:25Z</time>
      </trkpt>
      <trkpt lat="45.17505" lon="5.21753">
        <ele>305.47</ele>
        <time>2017-03-26T15:49:26Z</time>
      </trkpt>
      <trkpt lat="45.17505" lon="5.21753">
        <ele>305.47</ele>
        <time>2017-03-26T15:49:27Z</time>
      </trkpt>
      <trkpt lat="45.17505" lon="5.21753">
        <ele>305.47</ele>
        <time>2017-03-26T15:49:28Z</time>
      </trkpt>
      <trkpt lat="45.17505" lon="5.21753">
        <ele>305.47</ele>
        <time>2017-03-26T15:49:29Z</time>
      </trkpt>
      <trkpt lat="45.17505" lon="5.21753">
        <ele>305.47</ele>
        <time>2017-03-26T15:49:30Z</time>
      </trkpt>
      <trkpt lat="45.17505" lon="5.21753">
        <ele>305.47</ele>
        <time>2017-03-26T15:49:31Z</time>
      </trkpt>
      <trkpt lat="45.17505" lon="5.21753">
        <ele>305.47</ele>
        <time>2017-03-26T15:49:32Z</time>
      </trkpt>
      <trkpt lat="45.17505" lon="5.21753">
        <ele>305.47</ele>
        <time>2017-03-26T15:49:33Z</time>
      </trkpt>
      <trkpt lat="45.17505" lon="5.21753">
        <ele>305.47</ele>
        <time>2017-03-26T15:49:34Z</time>
      </trkpt>
      <trkpt lat="45.17505" lon="5.21753">
        <ele>305.47</ele>
        <time>2017-03-26T15:49:35Z</time>
      </trkpt>
      <trkpt lat="45.17505" lon="5.21753">
        <ele>305.47</ele>
        <time>2017-03-26T15:49:36Z</time>
      </trkpt>
      <trkpt lat="45.17505" lon="5.21753">
        <ele>305.47</ele>
        <time>2017-03-26T15:49:37Z</time>
      </trkpt>
      <trkpt lat="45.17505" lon="5.21753">
        <ele>305.47</ele>
        <time>2017-03-26T15:49:38Z</time>
      </trkpt>
      <trkpt lat="45.17505" lon="5.21753">
        <ele>305.47</ele>
        <time>2017-03-26T15:49:39Z</time>
      </trkpt>
      <trkpt lat="45.17505" lon="5.21753">
        <ele>305.47</ele>
        <time>2017-03-26T15:49:40Z</time>
      </trkpt>
      <trkpt lat="45.17505" lon="5.21753">
        <ele>305.47</ele>
        <time>2017-03-26T15:49:41Z</time>
      </trkpt>
      <trkpt lat="45.17505" lon="5.21753">
        <ele>305.47</ele>
        <time>2017-03-26T15:49:42Z</time>
      </trkpt>
      <trkpt lat="45.17505" lon="5.21753">
        <ele>305.47</ele>
        <time>2017-03-26T15:49:43Z</time>
      </trkpt>
      <trkpt lat="45.17505" lon="5.21753">
        <ele>305.47</ele>
        <time>2017-03-26T15:49:44Z</time>
      </trkpt>
      <trkpt lat="45.17505" lon="5.21753">
        <ele>305.47</ele>
        <time>2017-03-26T15:49:45Z</time>
      </trkpt>
      <trkpt lat="45.17505" lon="5.21753">
        <ele>305.47</ele>
        <time>2017-03-26T15:49:46Z</time>
      </trkpt>
      <trkpt lat="45.17505" lon="5.21753">
        <ele>305.47</ele>
        <time>2017-03-26T15:49:47Z</time>
      </trkpt>
      <trkpt lat="45.17505" lon="5.21753">
        <ele>305.47</ele>
        <time>2017-03-26T15:49:48Z</time>
      </trkpt>
      <trkpt lat="45.17505" lon="5.21753">
        <ele>305.47</ele>
        <time>2017-03-26T15:49:49Z</time>
      </trkpt>
      <trkpt lat="45.17505" lon="5.21753">
        <ele>305.47</ele>
        <time>2017-03-26T15:49:50Z</time>
      </trkpt>
      <trkpt lat="45.17505" lon="5.21753">
        <ele>305.47</ele>
        <time>2017-03-26T15:49:51Z</time>
      </trkpt>
      <trkpt lat="45.17505" lon="5.21753">
        <ele>305.47</ele>
        <time>2017-03-26T15:49:52Z</time>
      </trkpt>
      <trkpt lat="45.17505" lon="5.21753">
        <ele>305.47</ele>
        <time>2017-03-26T15:49:53Z</time>
      </trkpt>
      <trkpt lat="45.17505" lon="5.21753">
        <ele>305.47</ele>
        <time>2017-03-26T15:49:54Z</time>
      </trkpt>
      <trkpt lat="45.17505" lon="5.21753">
        <ele>305.47</ele>
        <time>2017-03-26T15:49:55Z</time>
      </trkpt>
      <trkpt lat="45.17505" lon="5.21753">
        <ele>305.47</ele>
        <time>2017-03-26T15:49:56Z</time>
      </trkpt>
      <trkpt lat="45.17505" lon="5.21753">
        <ele>305.47</ele>
        <time>2017-03-26T15:49:57Z</time>
      </trkpt>
      <trkpt lat="45.17505" lon="5.21753">
        <ele>305.47</ele>
        <time>2017-03-26T15:49:58Z</time>
      </trkpt>
      <trkpt lat="45.17505" lon="5.21753">
        <ele>305.47</ele>
        <time>2017-03-26T15:49:59Z</time>
      </trkpt>
      <trkpt lat="45.17505" lon="5.21753">
        <ele>305.47</ele>
        <time>2017-03-26T15:50:00Z</time>
      </trkpt>
      <trkpt lat="45.17505" lon="5.21753">
        <ele>305.47</ele>
        <time>2017-03-26T15:50:01Z</time>
      </trkpt>
      <trkpt lat="45.17505" lon="5.21753">
        <ele>305.47</ele>
        <time>2017-03-26T15:50:02Z</time>
      </trkpt>
      <trkpt lat="45.17505" lon="5.21753">
        <ele>305.47</ele>
        <time>2017-03-26T15:50:03Z</time>
      </trkpt>
      <trkpt lat="45.17505" lon="5.21753">
        <ele>305.47</ele>
        <time>2017-03-26T15:50:04Z</time>
      </trkpt>
      <trkpt lat="45.17505" lon="5.21753">
        <ele>305.47</ele>
        <time>2017-03-26T15:50:05Z</time>
      </trkpt>
      <trkpt lat="45.17505" lon="5.21753">
        <ele>305.47</ele>
        <time>2017-03-26T15:50:06Z</time>
      </trkpt>
      <trkpt lat="45.17505" lon="5.21753">
        <ele>305.47</ele>
        <time>2017-03-26T15:50:07Z</time>
      </trkpt>
      <trkpt lat="45.17505" lon="5.21753">
        <ele>305.47</ele>
        <time>2017-03-26T15:50:08Z</time>
      </trkpt>
      <trkpt lat="45.17505" lon="5.21753">
        <ele>305.47</ele>
        <time>2017-03-26T15:50:09Z</time>
      </trkpt>
      <trkpt lat="45.17505" lon="5.21753">
        <ele>305.47</ele>
        <time>2017-03-26T15:50:10Z</time>
      </trkpt>
      <trkpt lat="45.17505" lon="5.21753">
        <ele>305.47</ele>
        <time>2017-03-26T15:50:11Z</time>
      </trkpt>
      <trkpt lat="45.17505" lon="5.21753">
        <ele>305.47</ele>
        <time>2017-03-26T15:50:12Z</time>
      </trkpt>
      <trkpt lat="45.17505" lon="5.21753">
        <ele>305.47</ele>
        <time>2017-03-26T15:50:13Z</time>
      </trkpt>
      <trkpt lat="45.17505" lon="5.21753">
        <ele>305.47</ele>
        <time>2017-03-26T15:50:14Z</time>
      </trkpt>
      <trkpt lat="45.17505" lon="5.21753">
        <ele>305.47</ele>
        <time>2017-03-26T15:50:15Z</time>
      </trkpt>
      <trkpt lat="45.17505" lon="5.21753">
        <ele>305.47</ele>
        <time>2017-03-26T15:50:16Z</time>
      </trkpt>
      <trkpt lat="45.17505" lon="5.21753">
        <ele>305.47</ele>
        <time>2017-03-26T15:50:17Z</time>
      </trkpt>
      <trkpt lat="45.17505" lon="5.21753">
        <ele>305.47</ele>
        <time>2017-03-26T15:50:18Z</time>
      </trkpt>
      <trkpt lat="45.17505" lon="5.21753">
        <ele>305.47</ele>
        <time>2017-03-26T15:50:19Z</time>
      </trkpt>
      <trkpt lat="45.17505" lon="5.21753">
        <ele>305.47</ele>
        <time>2017-03-26T15:50:20Z</time>
      </trkpt>
      <trkpt lat="45.17505" lon="5.21753">
        <ele>305.47</ele>
        <time>2017-03-26T15:50:21Z</time>
      </trkpt>
      <trkpt lat="45.17505" lon="5.21753">
        <ele>305.47</ele>
        <time>2017-03-26T15:50:22Z</time>
      </trkpt>
      <trkpt lat="45.17505" lon="5.21753">
        <ele>305.47</ele>
        <time>2017-03-26T15:50:23Z</time>
      </trkpt>
      <trkpt lat="45.17505" lon="5.21753">
        <ele>305.47</ele>
        <time>2017-03-26T15:50:24Z</time>
      </trkpt>
      <trkpt lat="45.17505" lon="5.21753">
        <ele>305.47</ele>
        <time>2017-03-26T15:50:25Z</time>
      </trkpt>
      <trkpt lat="45.17505" lon="5.21753">
        <ele>305.47</ele>
        <time>2017-03-26T15:50:26Z</time>
      </trkpt>
      <trkpt lat="45.17505" lon="5.21753">
        <ele>305.47</ele>
        <time>2017-03-26T15:50:27Z</time>
      </trkpt>
      <trkpt lat="45.17505" lon="5.21753">
        <ele>305.47</ele>
        <time>2017-03-26T15:50:28Z</time>
      </trkpt>
      <trkpt lat="45.17505" lon="5.21753">
        <ele>305.47</ele>
        <time>2017-03-26T15:50:29Z</time>
      </trkpt>
      <trkpt lat="45.17505" lon="5.21753">
        <ele>305.47</ele>
        <time>2017-03-26T15:50:30Z</time>
      </trkpt>
      <trkpt lat="45.17505" lon="5.21753">
        <ele>305.47</ele>
        <time>2017-03-26T15:50:31Z</time>
      </trkpt>
      <trkpt lat="45.17505" lon="5.21753">
        <ele>305.47</ele>
        <time>2017-03-26T15:50:32Z</time>
      </trkpt>
      <trkpt lat="45.17505" lon="5.21753">
        <ele>305.47</ele>
        <time>2017-03-26T15:50:33Z</time>
      </trkpt>
      <trkpt lat="45.17505" lon="5.21753">
        <ele>305.47</ele>
        <time>2017-03-26T15:50:34Z</time>
      </trkpt>
      <trkpt lat="45.17505" lon="5.21753">
        <ele>305.47</ele>
        <time>2017-03-26T15:50:35Z</time>
      </trkpt>
      <trkpt lat="45.17505" lon="5.21753">
        <ele>305.47</ele>
        <time>2017-03-26T15:50:36Z</time>
      </trkpt>
      <trkpt lat="45.17505" lon="5.21753">
        <ele>305.47</ele>
        <time>2017-03-26T15:50:37Z</time>
      </trkpt>
      <trkpt lat="45.17505" lon="5.21753">
        <ele>305.47</ele>
        <time>2017-03-26T15:50:38Z</time>
      </trkpt>
      <trkpt lat="45.17505" lon="5.21753">
        <ele>305.47</ele>
        <time>2017-03-26T15:50:39Z</time>
      </trkpt>
      <trkpt lat="45.17505" lon="5.21753">
        <ele>305.47</ele>
        <time>2017-03-26T15:50:40Z</time>
      </trkpt>
      <trkpt lat="45.17505" lon="5.21753">
        <ele>305.47</ele>
        <time>2017-03-26T15:50:41Z</time>
      </trkpt>
      <trkpt lat="45.17505" lon="5.21753">
        <ele>305.47</ele>
        <time>2017-03-26T15:50:42Z</time>
      </trkpt>
      <trkpt lat="45.17505" lon="5.21753">
        <ele>305.47</ele>
        <time>2017-03-26T15:50:43Z</time>
      </trkpt>
      <trkpt lat="45.17505" lon="5.21753">
        <ele>305.47</ele>
        <time>2017-03-26T15:50:44Z</time>
      </trkpt>
      <trkpt lat="45.17505" lon="5.21753">
        <ele>305.47</ele>
        <time>2017-03-26T15:50:45Z</time>
      </trkpt>
      <trkpt lat="45.17505" lon="5.21753">
        <ele>305.47</ele>
        <time>2017-03-26T15:50:46Z</time>
      </trkpt>
      <trkpt lat="45.17505" lon="5.21753">
        <ele>305.47</ele>
        <time>2017-03-26T15:50:47Z</time>
      </trkpt>
      <trkpt lat="45.17505" lon="5.21753">
        <ele>305.47</ele>
        <time>2017-03-26T15:50:48Z</time>
      </trkpt>
      <trkpt lat="45.17505" lon="5.21753">
        <ele>305.47</ele>
        <time>2017-03-26T15:50:49Z</time>
      </trkpt>
      <trkpt lat="45.17505" lon="5.21753">
        <ele>305.47</ele>
        <time>2017-03-26T15:50:50Z</time>
      </trkpt>
      <trkpt lat="45.17505" lon="5.21753">
        <ele>305.47</ele>
        <time>2017-03-26T15:50:51Z</time>
      </trkpt>
      <trkpt lat="45.17505" lon="5.21753">
        <ele>305.47</ele>
        <time>2017-03-26T15:50:52Z</time>
      </trkpt>
      <trkpt lat="45.17505" lon="5.21753">
        <ele>305.47</ele>
        <time>2017-03-26T15:50:53Z</time>
      </trkpt>
      <trkpt lat="45.17505" lon="5.21753">
        <ele>305.47</ele>
        <time>2017-03-26T15:50:54Z</time>
      </trkpt>
      <trkpt lat="45.17505" lon="5.21753">
        <ele>305.47</ele>
        <time>2017-03-26T15:50:55Z</time>
      </trkpt>
      <trkpt lat="45.17505" lon="5.21753">
        <ele>305.47</ele>
        <time>2017-03-26T15:50:56Z</time>
      </trkpt>
      <trkpt lat="45.17505" lon="5.21753">
        <ele>305.47</ele>
        <time>2017-03-26T15:50:57Z</time>
      </trkpt>
      <trkpt lat="45.17505" lon="5.21753">
        <ele>305.47</ele>
        <time>2017-03-26T15:50:58Z</time>
      </trkpt>
      <trkpt lat="45.17505" lon="5.21753">
        <ele>305.47</ele>
        <time>2017-03-26T15:50:59Z</time>
      </trkpt>
      <trkpt lat="45.17505" lon="5.21753">
        <ele>305.47</ele>
        <time>2017-03-26T15:51:00Z</time>
      </trkpt>
      <trkpt lat="45.17505" lon="5.21753">
        <ele>305.47</ele>
        <time>2017-03-26T15:51:01Z</time>
      </trkpt>
      <trkpt lat="45.17505" lon="5.21753">
        <ele>305.47</ele>
        <time>2017-03-26T15:51:02Z</time>
      </trkpt>
      <trkpt lat="45.17505" lon="5.21753">
        <ele>305.47</ele>
        <time>2017-03-26T15:51:03Z</time>
      </trkpt>
      <trkpt lat="45.17497" lon="5.21756">
        <ele>306.59</ele>
        <time>2017-03-26T15:51:04Z</time>
      </trkpt>
      <trkpt lat="45.17497" lon="5.21753">
        <ele>306.81</ele>
        <time>2017-03-26T15:51:05Z</time>
      </trkpt>
      <trkpt lat="45.17498" lon="5.21751">
        <ele>306.86</ele>
        <time>2017-03-26T15:51:06Z</time>
      </trkpt>
      <trkpt lat="45.17499" lon="5.21748">
        <ele>306.87</ele>
        <time>2017-03-26T15:51:07Z</time>
      </trkpt>
      <trkpt lat="45.17498" lon="5.21746">
        <ele>306.87</ele>
        <time>2017-03-26T15:51:08Z</time>
      </trkpt>
      <trkpt lat="45.17497" lon="5.21744">
        <ele>306.87</ele>
        <time>2017-03-26T15:51:09Z</time>
      </trkpt>
      <trkpt lat="45.17493" lon="5.21743">
        <ele>306.87</ele>
        <time>2017-03-26T15:51:10Z</time>
      </trkpt>
      <trkpt lat="45.1749" lon="5.21743">
        <ele>306.79</ele>
        <time>2017-03-26T15:51:11Z</time>
      </trkpt>
      <trkpt lat="45.17486" lon="5.21744">
        <ele>306.77</ele>
        <time>2017-03-26T15:51:12Z</time>
      </trkpt>
      <trkpt lat="45.17482" lon="5.21744">
        <ele>306.69</ele>
        <time>2017-03-26T15:51:13Z</time>
      </trkpt>
      <trkpt lat="45.17478" lon="5.21745">
        <ele>306.67</ele>
        <time>2017-03-26T15:51:14Z</time>
      </trkpt>
      <trkpt lat="45.17475" lon="5.21746">
        <ele>306.59</ele>
        <time>2017-03-26T15:51:15Z</time>
      </trkpt>
      <trkpt lat="45.1747" lon="5.21749">
        <ele>306.57</ele>
        <time>2017-03-26T15:51:16Z</time>
      </trkpt>
      <trkpt lat="45.17466" lon="5.21752">
        <ele>306.49</ele>
        <time>2017-03-26T15:51:17Z</time>
      </trkpt>
      <trkpt lat="45.17461" lon="5.21756">
        <ele>306.39</ele>
        <time>2017-03-26T15:51:18Z</time>
      </trkpt>
      <trkpt lat="45.17457" lon="5.21761">
        <ele>306.37</ele>
        <time>2017-03-26T15:51:19Z</time>
      </trkpt>
      <trkpt lat="45.17453" lon="5.21765">
        <ele>306.29</ele>
        <time>2017-03-26T15:51:20Z</time>
      </trkpt>
      <trkpt lat="45.17448" lon="5.2177">
        <ele>306.27</ele>
        <time>2017-03-26T15:51:21Z</time>
      </trkpt>
      <trkpt lat="45.17443" lon="5.21775">
        <ele>306.19</ele>
        <time>2017-03-26T15:51:22Z</time>
      </trkpt>
      <trkpt lat="45.17439" lon="5.21781">
        <ele>306.17</ele>
        <time>2017-03-26T15:51:23Z</time>
      </trkpt>
      <trkpt lat="45.17435" lon="5.21787">
        <ele>306.09</ele>
        <time>2017-03-26T15:51:24Z</time>
      </trkpt>
      <trkpt lat="45.17432" lon="5.21792">
        <ele>306.07</ele>
        <time>2017-03-26T15:51:25Z</time>
      </trkpt>
      <trkpt lat="45.17428" lon="5.21798">
        <ele>305.99</ele>
        <time>2017-03-26T15:51:26Z</time>
      </trkpt>
      <trkpt lat="45.17425" lon="5.21803">
        <ele>305.97</ele>
        <time>2017-03-26T15:51:27Z</time>
      </trkpt>
      <trkpt lat="45.17421" lon="5.21811">
        <ele>305.89</ele>
        <time>2017-03-26T15:51:28Z</time>
      </trkpt>
      <trkpt lat="45.17423" lon="5.21828">
        <ele>305.71</ele>
        <time>2017-03-26T15:51:29Z</time>
      </trkpt>
      <trkpt lat="45.17421" lon="5.21838">
        <ele>305.68</ele>
        <time>2017-03-26T15:51:30Z</time>
      </trkpt>
      <trkpt lat="45.1742" lon="5.21848">
        <ele>305.59</ele>
        <time>2017-03-26T15:51:31Z</time>
      </trkpt>
      <trkpt lat="45.17418" lon="5.21857">
        <ele>305.57</ele>
        <time>2017-03-26T15:51:32Z</time>
      </trkpt>
      <trkpt lat="45.17416" lon="5.21866">
        <ele>305.49</ele>
        <time>2017-03-26T15:51:33Z</time>
      </trkpt>
      <trkpt lat="45.17414" lon="5.21876">
        <ele>305.47</ele>
        <time>2017-03-26T15:51:34Z</time>
      </trkpt>
      <trkpt lat="45.17412" lon="5.21886">
        <ele>305.47</ele>
        <time>2017-03-26T15:51:35Z</time>
      </trkpt>
      <trkpt lat="45.1741" lon="5.21896">
        <ele>305.39</ele>
        <time>2017-03-26T15:51:36Z</time>
      </trkpt>
      <trkpt lat="45.17408" lon="5.21907">
        <ele>305.37</ele>
        <time>2017-03-26T15:51:37Z</time>
      </trkpt>
      <trkpt lat="45.17407" lon="5.21919">
        <ele>305.37</ele>
        <time>2017-03-26T15:51:38Z</time>
      </trkpt>
      <trkpt lat="45.17405" lon="5.21931">
        <ele>305.37</ele>
        <time>2017-03-26T15:51:39Z</time>
      </trkpt>
      <trkpt lat="45.17404" lon="5.21943">
        <ele>305.29</ele>
        <time>2017-03-26T15:51:40Z</time>
      </trkpt>
      <trkpt lat="45.17402" lon="5.21956">
        <ele>305.27</ele>
        <time>2017-03-26T15:51:41Z</time>
      </trkpt>
      <trkpt lat="45.174" lon="5.2197">
        <ele>305.19</ele>
        <time>2017-03-26T15:51:42Z</time>
      </trkpt>
      <trkpt lat="45.17399" lon="5.21984">
        <ele>305.01</ele>
        <time>2017-03-26T15:51:43Z</time>
      </trkpt>
      <trkpt lat="45.17397" lon="5.21998">
        <ele>304.9</ele>
        <time>2017-03-26T15:51:44Z</time>
      </trkpt>
      <trkpt lat="45.17396" lon="5.22011">
        <ele>304.79</ele>
        <time>2017-03-26T15:51:45Z</time>
      </trkpt>
      <trkpt lat="45.17394" lon="5.22024">
        <ele>304.69</ele>
        <time>2017-03-26T15:51:46Z</time>
      </trkpt>
      <trkpt lat="45.17393" lon="5.22036">
        <ele>304.67</ele>
        <time>2017-03-26T15:51:47Z</time>
      </trkpt>
      <trkpt lat="45.17392" lon="5.22048">
        <ele>304.59</ele>
        <time>2017-03-26T15:51:48Z</time>
      </trkpt>
      <trkpt lat="45.17391" lon="5.22059">
        <ele>304.57</ele>
        <time>2017-03-26T15:51:49Z</time>
      </trkpt>
      <trkpt lat="45.1739" lon="5.22071">
        <ele>304.49</ele>
        <time>2017-03-26T15:51:50Z</time>
      </trkpt>
      <trkpt lat="45.17389" lon="5.22083">
        <ele>304.39</ele>
        <time>2017-03-26T15:51:51Z</time>
      </trkpt>
      <trkpt lat="45.17387" lon="5.22096">
        <ele>304.29</ele>
        <time>2017-03-26T15:51:52Z</time>
      </trkpt>
      <trkpt lat="45.17384" lon="5.22109">
        <ele>304.11</ele>
        <time>2017-03-26T15:51:53Z</time>
      </trkpt>
      <trkpt lat="45.17382" lon="5.22123">
        <ele>303.92</ele>
        <time>2017-03-26T15:51:54Z</time>
      </trkpt>
      <trkpt lat="45.1738" lon="5.22138">
        <ele>303.8</ele>
        <time>2017-03-26T15:51:55Z</time>
      </trkpt>
      <trkpt lat="45.17378" lon="5.22154">
        <ele>303.61</ele>
        <time>2017-03-26T15:51:56Z</time>
      </trkpt>
      <trkpt lat="45.17375" lon="5.22169">
        <ele>303.5</ele>
        <time>2017-03-26T15:51:57Z</time>
      </trkpt>
      <trkpt lat="45.17373" lon="5.22186">
        <ele>303.31</ele>
        <time>2017-03-26T15:51:58Z</time>
      </trkpt>
      <trkpt lat="45.1737" lon="5.22202">
        <ele>303.2</ele>
        <time>2017-03-26T15:51:59Z</time>
      </trkpt>
      <trkpt lat="45.17367" lon="5.22216">
        <ele>303.01</ele>
        <time>2017-03-26T15:52:00Z</time>
      </trkpt>
      <trkpt lat="45.17365" lon="5.22229">
        <ele>302.82</ele>
        <time>2017-03-26T15:52:01Z</time>
      </trkpt>
      <trkpt lat="45.17361" lon="5.22238">
        <ele>302.7</ele>
        <time>2017-03-26T15:52:02Z</time>
      </trkpt>
      <trkpt lat="45.17355" lon="5.22241">
        <ele>302.51</ele>
        <time>2017-03-26T15:52:03Z</time>
      </trkpt>
      <trkpt lat="45.1735" lon="5.22243">
        <ele>302.4</ele>
        <time>2017-03-26T15:52:04Z</time>
      </trkpt>
      <trkpt lat="45.17346" lon="5.22245">
        <ele>302.37</ele>
        <time>2017-03-26T15:52:05Z</time>
      </trkpt>
      <trkpt lat="45.17343" lon="5.22248">
        <ele>302.13</ele>
        <time>2017-03-26T15:52:06Z</time>
      </trkpt>
      <trkpt lat="45.1734" lon="5.22254">
        <ele>302</ele>
        <time>2017-03-26T15:52:07Z</time>
      </trkpt>
      <trkpt lat="45.17338" lon="5.22262">
        <ele>301.81</ele>
        <time>2017-03-26T15:52:08Z</time>
      </trkpt>
      <trkpt lat="45.17335" lon="5.22272">
        <ele>301.78</ele>
        <time>2017-03-26T15:52:09Z</time>
      </trkpt>
      <trkpt lat="45.17331" lon="5.22283">
        <ele>301.61</ele>
        <time>2017-03-26T15:52:10Z</time>
      </trkpt>
      <trkpt lat="45.17327" lon="5.22294">
        <ele>301.5</ele>
        <time>2017-03-26T15:52:11Z</time>
      </trkpt>
      <trkpt lat="45.17321" lon="5.22305">
        <ele>301.47</ele>
        <time>2017-03-26T15:52:12Z</time>
      </trkpt>
      <trkpt lat="45.17314" lon="5.22316">
        <ele>301.39</ele>
        <time>2017-03-26T15:52:13Z</time>
      </trkpt>
      <trkpt lat="45.17306" lon="5.22327">
        <ele>301.21</ele>
        <time>2017-03-26T15:52:14Z</time>
      </trkpt>
      <trkpt lat="45.17298" lon="5.22339">
        <ele>301.02</ele>
        <time>2017-03-26T15:52:15Z</time>
      </trkpt>
      <trkpt lat="45.1729" lon="5.22351">
        <ele>300.9</ele>
        <time>2017-03-26T15:52:16Z</time>
      </trkpt>
      <trkpt lat="45.1728" lon="5.22364">
        <ele>300.71</ele>
        <time>2017-03-26T15:52:17Z</time>
      </trkpt>
      <trkpt lat="45.1727" lon="5.22378">
        <ele>300.52</ele>
        <time>2017-03-26T15:52:18Z</time>
      </trkpt>
      <trkpt lat="45.17259" lon="5.22392">
        <ele>300.4</ele>
        <time>2017-03-26T15:52:19Z</time>
      </trkpt>
      <trkpt lat="45.17237" lon="5.2242">
        <ele>300.13</ele>
        <time>2017-03-26T15:52:21Z</time>
      </trkpt>
      <trkpt lat="45.17226" lon="5.22434">
        <ele>300</ele>
        <time>2017-03-26T15:52:22Z</time>
      </trkpt>
      <trkpt lat="45.17213" lon="5.22449">
        <ele>299.89</ele>
        <time>2017-03-26T15:52:23Z</time>
      </trkpt>
      <trkpt lat="45.17202" lon="5.22463">
        <ele>299.79</ele>
        <time>2017-03-26T15:52:24Z</time>
      </trkpt>
      <trkpt lat="45.17191" lon="5.2248">
        <ele>299.61</ele>
        <time>2017-03-26T15:52:25Z</time>
      </trkpt>
      <trkpt lat="45.1718" lon="5.22497">
        <ele>299.58</ele>
        <time>2017-03-26T15:52:26Z</time>
      </trkpt>
      <trkpt lat="45.17171" lon="5.22516">
        <ele>299.41</ele>
        <time>2017-03-26T15:52:27Z</time>
      </trkpt>
      <trkpt lat="45.17164" lon="5.22538">
        <ele>299.22</ele>
        <time>2017-03-26T15:52:28Z</time>
      </trkpt>
      <trkpt lat="45.17163" lon="5.22565">
        <ele>299.18</ele>
        <time>2017-03-26T15:52:29Z</time>
      </trkpt>
      <trkpt lat="45.17164" lon="5.22591">
        <ele>299.17</ele>
        <time>2017-03-26T15:52:30Z</time>
      </trkpt>
      <trkpt lat="45.17162" lon="5.22618">
        <ele>299.09</ele>
        <time>2017-03-26T15:52:31Z</time>
      </trkpt>
      <trkpt lat="45.17156" lon="5.22645">
        <ele>299.15</ele>
        <time>2017-03-26T15:52:32Z</time>
      </trkpt>
      <trkpt lat="45.17147" lon="5.22672">
        <ele>299.08</ele>
        <time>2017-03-26T15:52:33Z</time>
      </trkpt>
      <trkpt lat="45.17135" lon="5.22699">
        <ele>299.15</ele>
        <time>2017-03-26T15:52:34Z</time>
      </trkpt>
      <trkpt lat="45.17122" lon="5.22724">
        <ele>299.24</ele>
        <time>2017-03-26T15:52:35Z</time>
      </trkpt>
      <trkpt lat="45.17109" lon="5.2275">
        <ele>299.5</ele>
        <time>2017-03-26T15:52:36Z</time>
      </trkpt>
      <trkpt lat="45.17097" lon="5.22777">
        <ele>299.72</ele>
        <time>2017-03-26T15:52:37Z</time>
      </trkpt>
      <trkpt lat="45.17086" lon="5.22806">
        <ele>299.92</ele>
        <time>2017-03-26T15:52:38Z</time>
      </trkpt>
      <trkpt lat="45.17077" lon="5.22834">
        <ele>300.36</ele>
        <time>2017-03-26T15:52:39Z</time>
      </trkpt>
      <trkpt lat="45.17065" lon="5.22861">
        <ele>300.77</ele>
        <time>2017-03-26T15:52:40Z</time>
      </trkpt>
      <trkpt lat="45.17051" lon="5.22884">
        <ele>301.09</ele>
        <time>2017-03-26T15:52:41Z</time>
      </trkpt>
      <trkpt lat="45.17035" lon="5.22905">
        <ele>301.55</ele>
        <time>2017-03-26T15:52:42Z</time>
      </trkpt>
      <trkpt lat="45.17018" lon="5.22926">
        <ele>301.88</ele>
        <time>2017-03-26T15:52:43Z</time>
      </trkpt>
      <trkpt lat="45.17" lon="5.22946">
        <ele>302.27</ele>
        <time>2017-03-26T15:52:44Z</time>
      </trkpt>
      <trkpt lat="45.16983" lon="5.22965">
        <ele>302.75</ele>
        <time>2017-03-26T15:52:45Z</time>
      </trkpt>
      <trkpt lat="45.16965" lon="5.22985">
        <ele>303.16</ele>
        <time>2017-03-26T15:52:46Z</time>
      </trkpt>
      <trkpt lat="45.16949" lon="5.23004">
        <ele>303.41</ele>
        <time>2017-03-26T15:52:47Z</time>
      </trkpt>
      <trkpt lat="45.16932" lon="5.23022">
        <ele>303.54</ele>
        <time>2017-03-26T15:52:48Z</time>
      </trkpt>
      <trkpt lat="45.16914" lon="5.2304">
        <ele>303.72</ele>
        <time>2017-03-26T15:52:49Z</time>
      </trkpt>
      <trkpt lat="45.16894" lon="5.23055">
        <ele>304.16</ele>
        <time>2017-03-26T15:52:50Z</time>
      </trkpt>
      <trkpt lat="45.16873" lon="5.23068">
        <ele>305.13</ele>
        <time>2017-03-26T15:52:51Z</time>
      </trkpt>
      <trkpt lat="45.16851" lon="5.23081">
        <ele>306.12</ele>
        <time>2017-03-26T15:52:52Z</time>
      </trkpt>
      <trkpt lat="45.16827" lon="5.23094">
        <ele>307.04</ele>
        <time>2017-03-26T15:52:53Z</time>
      </trkpt>
      <trkpt lat="45.16805" lon="5.23107">
        <ele>307.78</ele>
        <time>2017-03-26T15:52:54Z</time>
      </trkpt>
      <trkpt lat="45.16782" lon="5.2312">
        <ele>308.41</ele>
        <time>2017-03-26T15:52:55Z</time>
      </trkpt>
      <trkpt lat="45.16759" lon="5.23134">
        <ele>308.86</ele>
        <time>2017-03-26T15:52:56Z</time>
      </trkpt>
      <trkpt lat="45.16737" lon="5.23147">
        <ele>309.43</ele>
        <time>2017-03-26T15:52:57Z</time>
      </trkpt>
      <trkpt lat="45.16715" lon="5.2316">
        <ele>309.06</ele>
        <time>2017-03-26T15:52:58Z</time>
      </trkpt>
      <trkpt lat="45.16693" lon="5.23173">
        <ele>308.75</ele>
        <time>2017-03-26T15:52:59Z</time>
      </trkpt>
      <trkpt lat="45.16671" lon="5.23186">
        <ele>308.36</ele>
        <time>2017-03-26T15:53:00Z</time>
      </trkpt>
      <trkpt lat="45.1665" lon="5.23198">
        <ele>307.73</ele>
        <time>2017-03-26T15:53:01Z</time>
      </trkpt>
      <trkpt lat="45.16628" lon="5.23211">
        <ele>307.68</ele>
        <time>2017-03-26T15:53:02Z</time>
      </trkpt>
      <trkpt lat="45.16607" lon="5.23223">
        <ele>307.43</ele>
        <time>2017-03-26T15:53:03Z</time>
      </trkpt>
      <trkpt lat="45.16587" lon="5.23236">
        <ele>307.14</ele>
        <time>2017-03-26T15:53:04Z</time>
      </trkpt>
      <trkpt lat="45.16568" lon="5.23247">
        <ele>307.32</ele>
        <time>2017-03-26T15:53:05Z</time>
      </trkpt>
      <trkpt lat="45.16551" lon="5.23259">
        <ele>307.76</ele>
        <time>2017-03-26T15:53:06Z</time>
      </trkpt>
      <trkpt lat="45.16534" lon="5.23272">
        <ele>307.21</ele>
        <time>2017-03-26T15:53:07Z</time>
      </trkpt>
      <trkpt lat="45.16518" lon="5.23287">
        <ele>306.86</ele>
        <time>2017-03-26T15:53:08Z</time>
      </trkpt>
      <trkpt lat="45.16502" lon="5.23303">
        <ele>306.31</ele>
        <time>2017-03-26T15:53:09Z</time>
      </trkpt>
      <trkpt lat="45.16485" lon="5.2332">
        <ele>305.88</ele>
        <time>2017-03-26T15:53:10Z</time>
      </trkpt>
      <trkpt lat="45.16468" lon="5.23336">
        <ele>305.31</ele>
        <time>2017-03-26T15:53:11Z</time>
      </trkpt>
      <trkpt lat="45.16451" lon="5.23353">
        <ele>304.88</ele>
        <time>2017-03-26T15:53:12Z</time>
      </trkpt>
      <trkpt lat="45.16433" lon="5.23371">
        <ele>304.31</ele>
        <time>2017-03-26T15:53:13Z</time>
      </trkpt>
      <trkpt lat="45.16416" lon="5.23389">
        <ele>303.72</ele>
        <time>2017-03-26T15:53:14Z</time>
      </trkpt>
      <trkpt lat="45.164" lon="5.23406">
        <ele>303.12</ele>
        <time>2017-03-26T15:53:15Z</time>
      </trkpt>
      <trkpt lat="45.16383" lon="5.23422">
        <ele>302.36</ele>
        <time>2017-03-26T15:53:16Z</time>
      </trkpt>
      <trkpt lat="45.16367" lon="5.23438">
        <ele>301.73</ele>
        <time>2017-03-26T15:53:17Z</time>
      </trkpt>
      <trkpt lat="45.16352" lon="5.23453">
        <ele>301.12</ele>
        <time>2017-03-26T15:53:18Z</time>
      </trkpt>
      <trkpt lat="45.16337" lon="5.23468">
        <ele>300.44</ele>
        <time>2017-03-26T15:53:19Z</time>
      </trkpt>
      <trkpt lat="45.16323" lon="5.23483">
        <ele>299.98</ele>
        <time>2017-03-26T15:53:20Z</time>
      </trkpt>
      <trkpt lat="45.16308" lon="5.23497">
        <ele>299.65</ele>
        <time>2017-03-26T15:53:21Z</time>
      </trkpt>
      <trkpt lat="45.16293" lon="5.2351">
        <ele>299.5</ele>
        <time>2017-03-26T15:53:22Z</time>
      </trkpt>
      <trkpt lat="45.16277" lon="5.23521">
        <ele>299.16</ele>
        <time>2017-03-26T15:53:23Z</time>
      </trkpt>
      <trkpt lat="45.16261" lon="5.23531">
        <ele>298.53</ele>
        <time>2017-03-26T15:53:24Z</time>
      </trkpt>
      <trkpt lat="45.16245" lon="5.23542">
        <ele>297.76</ele>
        <time>2017-03-26T15:53:25Z</time>
      </trkpt>
      <trkpt lat="45.16229" lon="5.23555">
        <ele>296.01</ele>
        <time>2017-03-26T15:53:26Z</time>
      </trkpt>
      <trkpt lat="45.16214" lon="5.23569">
        <ele>294.62</ele>
        <time>2017-03-26T15:53:27Z</time>
      </trkpt>
      <trkpt lat="45.16199" lon="5.23584">
        <ele>293.46</ele>
        <time>2017-03-26T15:53:28Z</time>
      </trkpt>
      <trkpt lat="45.16183" lon="5.236">
        <ele>291.95</ele>
        <time>2017-03-26T15:53:29Z</time>
      </trkpt>
      <trkpt lat="45.16168" lon="5.23616">
        <ele>291.24</ele>
        <time>2017-03-26T15:53:30Z</time>
      </trkpt>
      <trkpt lat="45.16151" lon="5.2363">
        <ele>290.46</ele>
        <time>2017-03-26T15:53:31Z</time>
      </trkpt>
      <trkpt lat="45.16134" lon="5.23642">
        <ele>289.35</ele>
        <time>2017-03-26T15:53:32Z</time>
      </trkpt>
      <trkpt lat="45.16117" lon="5.23654">
        <ele>288.24</ele>
        <time>2017-03-26T15:53:33Z</time>
      </trkpt>
      <trkpt lat="45.16099" lon="5.23667">
        <ele>287.14</ele>
        <time>2017-03-26T15:53:34Z</time>
      </trkpt>
      <trkpt lat="45.16082" lon="5.23678">
        <ele>286.04</ele>
        <time>2017-03-26T15:53:35Z</time>
      </trkpt>
      <trkpt lat="45.16066" lon="5.2369">
        <ele>284.78</ele>
        <time>2017-03-26T15:53:36Z</time>
      </trkpt>
      <trkpt lat="45.16051" lon="5.23701">
        <ele>283.65</ele>
        <time>2017-03-26T15:53:37Z</time>
      </trkpt>
      <trkpt lat="45.16037" lon="5.23713">
        <ele>282.46</ele>
        <time>2017-03-26T15:53:38Z</time>
      </trkpt>
      <trkpt lat="45.16024" lon="5.23727">
        <ele>281.83</ele>
        <time>2017-03-26T15:53:39Z</time>
      </trkpt>
      <trkpt lat="45.16012" lon="5.23741">
        <ele>282.02</ele>
        <time>2017-03-26T15:53:40Z</time>
      </trkpt>
      <trkpt lat="45.16" lon="5.23754">
        <ele>281.5</ele>
        <time>2017-03-26T15:53:41Z</time>
      </trkpt>
      <trkpt lat="45.15986" lon="5.23765">
        <ele>280.91</ele>
        <time>2017-03-26T15:53:42Z</time>
      </trkpt>
      <trkpt lat="45.15971" lon="5.23774">
        <ele>279.76</ele>
        <time>2017-03-26T15:53:43Z</time>
      </trkpt>
      <trkpt lat="45.15956" lon="5.23782">
        <ele>278.09</ele>
        <time>2017-03-26T15:53:44Z</time>
      </trkpt>
      <trkpt lat="45.15939" lon="5.23791">
        <ele>276.79</ele>
        <time>2017-03-26T15:53:45Z</time>
      </trkpt>
      <trkpt lat="45.15922" lon="5.238">
        <ele>275.57</ele>
        <time>2017-03-26T15:53:46Z</time>
      </trkpt>
      <trkpt lat="45.15904" lon="5.2381">
        <ele>274.45</ele>
        <time>2017-03-26T15:53:47Z</time>
      </trkpt>
      <trkpt lat="45.15887" lon="5.2382">
        <ele>273.26</ele>
        <time>2017-03-26T15:53:48Z</time>
      </trkpt>
      <trkpt lat="45.15869" lon="5.2383">
        <ele>272.31</ele>
        <time>2017-03-26T15:53:49Z</time>
      </trkpt>
      <trkpt lat="45.15851" lon="5.23839">
        <ele>271.48</ele>
        <time>2017-03-26T15:53:50Z</time>
      </trkpt>
      <trkpt lat="45.15833" lon="5.23848">
        <ele>270.91</ele>
        <time>2017-03-26T15:53:51Z</time>
      </trkpt>
      <trkpt lat="45.15816" lon="5.23857">
        <ele>270.4</ele>
        <time>2017-03-26T15:53:52Z</time>
      </trkpt>
      <trkpt lat="45.15801" lon="5.23866">
        <ele>269.73</ele>
        <time>2017-03-26T15:53:53Z</time>
      </trkpt>
      <trkpt lat="45.15786" lon="5.23876">
        <ele>269.28</ele>
        <time>2017-03-26T15:53:54Z</time>
      </trkpt>
      <trkpt lat="45.15776" lon="5.23889">
        <ele>268.31</ele>
        <time>2017-03-26T15:53:55Z</time>
      </trkpt>
      <trkpt lat="45.15768" lon="5.23906">
        <ele>267.88</ele>
        <time>2017-03-26T15:53:56Z</time>
      </trkpt>
      <trkpt lat="45.15762" lon="5.23924">
        <ele>267.31</ele>
        <time>2017-03-26T15:53:57Z</time>
      </trkpt>
      <trkpt lat="45.15759" lon="5.23943">
        <ele>266.72</ele>
        <time>2017-03-26T15:53:58Z</time>
      </trkpt>
      <trkpt lat="45.15759" lon="5.23964">
        <ele>265.96</ele>
        <time>2017-03-26T15:53:59Z</time>
      </trkpt>
      <trkpt lat="45.15758" lon="5.23984">
        <ele>264.93</ele>
        <time>2017-03-26T15:54:00Z</time>
      </trkpt>
      <trkpt lat="45.15754" lon="5.24003">
        <ele>263.92</ele>
        <time>2017-03-26T15:54:01Z</time>
      </trkpt>
      <trkpt lat="45.15749" lon="5.24022">
        <ele>263</ele>
        <time>2017-03-26T15:54:02Z</time>
      </trkpt>
      <trkpt lat="45.15742" lon="5.2404">
        <ele>262.01</ele>
        <time>2017-03-26T15:54:03Z</time>
      </trkpt>
      <trkpt lat="45.15734" lon="5.24058">
        <ele>260.94</ele>
        <time>2017-03-26T15:54:04Z</time>
      </trkpt>
      <trkpt lat="45.15724" lon="5.24076">
        <ele>259.84</ele>
        <time>2017-03-26T15:54:05Z</time>
      </trkpt>
      <trkpt lat="45.15712" lon="5.24091">
        <ele>258.74</ele>
        <time>2017-03-26T15:54:06Z</time>
      </trkpt>
      <trkpt lat="45.15698" lon="5.24105">
        <ele>257.56</ele>
        <time>2017-03-26T15:54:07Z</time>
      </trkpt>
      <trkpt lat="45.15682" lon="5.24119">
        <ele>256.53</ele>
        <time>2017-03-26T15:54:08Z</time>
      </trkpt>
      <trkpt lat="45.15667" lon="5.24133">
        <ele>255.36</ele>
        <time>2017-03-26T15:54:09Z</time>
      </trkpt>
      <trkpt lat="45.1565" lon="5.24146">
        <ele>254.25</ele>
        <time>2017-03-26T15:54:10Z</time>
      </trkpt>
      <trkpt lat="45.15634" lon="5.2416">
        <ele>253.3</ele>
        <time>2017-03-26T15:54:11Z</time>
      </trkpt>
      <trkpt lat="45.15618" lon="5.24174">
        <ele>252.88</ele>
        <time>2017-03-26T15:54:12Z</time>
      </trkpt>
      <trkpt lat="45.15604" lon="5.24191">
        <ele>252.07</ele>
        <time>2017-03-26T15:54:13Z</time>
      </trkpt>
      <trkpt lat="45.15591" lon="5.2421">
        <ele>250.95</ele>
        <time>2017-03-26T15:54:14Z</time>
      </trkpt>
      <trkpt lat="45.15579" lon="5.24231">
        <ele>250</ele>
        <time>2017-03-26T15:54:15Z</time>
      </trkpt>
      <trkpt lat="45.15568" lon="5.24254">
        <ele>249.58</ele>
        <time>2017-03-26T15:54:16Z</time>
      </trkpt>
      <trkpt lat="45.15558" lon="5.24275">
        <ele>248.85</ele>
        <time>2017-03-26T15:54:17Z</time>
      </trkpt>
      <trkpt lat="45.15547" lon="5.24295">
        <ele>247.9</ele>
        <time>2017-03-26T15:54:18Z</time>
      </trkpt>
      <trkpt lat="45.15535" lon="5.24313">
        <ele>246.76</ele>
        <time>2017-03-26T15:54:19Z</time>
      </trkpt>
      <trkpt lat="45.15522" lon="5.24332">
        <ele>245.57</ele>
        <time>2017-03-26T15:54:20Z</time>
      </trkpt>
      <trkpt lat="45.15501" lon="5.24342">
        <ele>244.29</ele>
        <time>2017-03-26T15:54:21Z</time>
      </trkpt>
      <trkpt lat="45.15483" lon="5.24357">
        <ele>242.99</ele>
        <time>2017-03-26T15:54:22Z</time>
      </trkpt>
      <trkpt lat="45.15466" lon="5.24372">
        <ele>241.69</ele>
        <time>2017-03-26T15:54:23Z</time>
      </trkpt>
      <trkpt lat="45.1545" lon="5.24387">
        <ele>240.31</ele>
        <time>2017-03-26T15:54:24Z</time>
      </trkpt>
      <trkpt lat="45.15435" lon="5.24404">
        <ele>239.24</ele>
        <time>2017-03-26T15:54:25Z</time>
      </trkpt>
      <trkpt lat="45.15424" lon="5.24424">
        <ele>238.14</ele>
        <time>2017-03-26T15:54:26Z</time>
      </trkpt>
      <trkpt lat="45.15414" lon="5.24446">
        <ele>237.2</ele>
        <time>2017-03-26T15:54:27Z</time>
      </trkpt>
      <trkpt lat="45.15405" lon="5.24469">
        <ele>236.21</ele>
        <time>2017-03-26T15:54:28Z</time>
      </trkpt>
      <trkpt lat="45.15396" lon="5.24495">
        <ele>235.54</ele>
        <time>2017-03-26T15:54:29Z</time>
      </trkpt>
      <trkpt lat="45.15385" lon="5.2452">
        <ele>234.52</ele>
        <time>2017-03-26T15:54:30Z</time>
      </trkpt>
      <trkpt lat="45.15372" lon="5.24546">
        <ele>233.28</ele>
        <time>2017-03-26T15:54:31Z</time>
      </trkpt>
      <trkpt lat="45.15359" lon="5.24572">
        <ele>231.99</ele>
        <time>2017-03-26T15:54:32Z</time>
      </trkpt>
      <trkpt lat="45.15345" lon="5.24598">
        <ele>230.77</ele>
        <time>2017-03-26T15:54:33Z</time>
      </trkpt>
      <trkpt lat="45.15332" lon="5.24623">
        <ele>229.49</ele>
        <time>2017-03-26T15:54:34Z</time>
      </trkpt>
      <trkpt lat="45.15318" lon="5.24648">
        <ele>228.35</ele>
        <time>2017-03-26T15:54:35Z</time>
      </trkpt>
      <trkpt lat="45.15304" lon="5.24671">
        <ele>227.16</ele>
        <time>2017-03-26T15:54:36Z</time>
      </trkpt>
      <trkpt lat="45.15291" lon="5.24694">
        <ele>226.05</ele>
        <time>2017-03-26T15:54:37Z</time>
      </trkpt>
      <trkpt lat="45.15276" lon="5.24713">
        <ele>224.86</ele>
        <time>2017-03-26T15:54:38Z</time>
      </trkpt>
      <trkpt lat="45.15261" lon="5.2473">
        <ele>223.59</ele>
        <time>2017-03-26T15:54:39Z</time>
      </trkpt>
      <trkpt lat="45.15245" lon="5.24746">
        <ele>222.45</ele>
        <time>2017-03-26T15:54:40Z</time>
      </trkpt>
      <trkpt lat="45.15231" lon="5.24759">
        <ele>221.42</ele>
        <time>2017-03-26T15:54:41Z</time>
      </trkpt>
      <trkpt lat="45.15215" lon="5.24769">
        <ele>220.34</ele>
        <time>2017-03-26T15:54:42Z</time>
      </trkpt>
      <trkpt lat="45.15201" lon="5.24779">
        <ele>219.32</ele>
        <time>2017-03-26T15:54:43Z</time>
      </trkpt>
      <trkpt lat="45.15188" lon="5.24787">
        <ele>218.56</ele>
        <time>2017-03-26T15:54:44Z</time>
      </trkpt>
      <trkpt lat="45.15177" lon="5.24794">
        <ele>217.69</ele>
        <time>2017-03-26T15:54:45Z</time>
      </trkpt>
      <trkpt lat="45.15168" lon="5.24802">
        <ele>217.19</ele>
        <time>2017-03-26T15:54:46Z</time>
      </trkpt>
      <trkpt lat="45.15162" lon="5.2481">
        <ele>218.05</ele>
        <time>2017-03-26T15:54:47Z</time>
      </trkpt>
      <trkpt lat="45.15157" lon="5.2482">
        <ele>218.14</ele>
        <time>2017-03-26T15:54:48Z</time>
      </trkpt>
      <trkpt lat="45.15156" lon="5.24832">
        <ele>219.2</ele>
        <time>2017-03-26T15:54:49Z</time>
      </trkpt>
      <trkpt lat="45.15157" lon="5.24845">
        <ele>219.82</ele>
        <time>2017-03-26T15:54:50Z</time>
      </trkpt>
      <trkpt lat="45.15163" lon="5.2486">
        <ele>219.62</ele>
        <time>2017-03-26T15:54:51Z</time>
      </trkpt>
      <trkpt lat="45.1517" lon="5.24878">
        <ele>219.18</ele>
        <time>2017-03-26T15:54:52Z</time>
      </trkpt>
      <trkpt lat="45.15178" lon="5.24897">
        <ele>218.93</ele>
        <time>2017-03-26T15:54:53Z</time>
      </trkpt>
      <trkpt lat="45.15185" lon="5.24913">
        <ele>218.64</ele>
        <time>2017-03-26T15:54:54Z</time>
      </trkpt>
      <trkpt lat="45.15194" lon="5.24925">
        <ele>218.18</ele>
        <time>2017-03-26T15:54:55Z</time>
      </trkpt>
      <trkpt lat="45.15208" lon="5.2493">
        <ele>217.45</ele>
        <time>2017-03-26T15:54:56Z</time>
      </trkpt>
      <trkpt lat="45.15225" lon="5.24935">
        <ele>216.82</ele>
        <time>2017-03-26T15:54:57Z</time>
      </trkpt>
      <trkpt lat="45.15246" lon="5.24939">
        <ele>216.3</ele>
        <time>2017-03-26T15:54:58Z</time>
      </trkpt>
      <trkpt lat="45.15268" lon="5.24944">
        <ele>215.71</ele>
        <time>2017-03-26T15:54:59Z</time>
      </trkpt>
      <trkpt lat="45.15291" lon="5.24948">
        <ele>215.36</ele>
        <time>2017-03-26T15:55:00Z</time>
      </trkpt>
      <trkpt lat="45.15315" lon="5.24951">
        <ele>214.97</ele>
        <time>2017-03-26T15:55:01Z</time>
      </trkpt>
      <trkpt lat="45.15338" lon="5.24949">
        <ele>214.33</ele>
        <time>2017-03-26T15:55:02Z</time>
      </trkpt>
      <trkpt lat="45.15359" lon="5.24946">
        <ele>213.64</ele>
        <time>2017-03-26T15:55:03Z</time>
      </trkpt>
      <trkpt lat="45.15379" lon="5.24944">
        <ele>212.94</ele>
        <time>2017-03-26T15:55:04Z</time>
      </trkpt>
      <trkpt lat="45.154" lon="5.24947">
        <ele>212.24</ele>
        <time>2017-03-26T15:55:05Z</time>
      </trkpt>
      <trkpt lat="45.1542" lon="5.24953">
        <ele>211.54</ele>
        <time>2017-03-26T15:55:06Z</time>
      </trkpt>
      <trkpt lat="45.1544" lon="5.24965">
        <ele>210.76</ele>
        <time>2017-03-26T15:55:07Z</time>
      </trkpt>
      <trkpt lat="45.15459" lon="5.2498">
        <ele>210.05</ele>
        <time>2017-03-26T15:55:08Z</time>
      </trkpt>
      <trkpt lat="45.15476" lon="5.24994">
        <ele>209.5</ele>
        <time>2017-03-26T15:55:09Z</time>
      </trkpt>
      <trkpt lat="45.15493" lon="5.25012">
        <ele>209.08</ele>
        <time>2017-03-26T15:55:10Z</time>
      </trkpt>
      <trkpt lat="45.15507" lon="5.25032">
        <ele>208.59</ele>
        <time>2017-03-26T15:55:11Z</time>
      </trkpt>
      <trkpt lat="45.1552" lon="5.25056">
        <ele>209.77</ele>
        <time>2017-03-26T15:55:12Z</time>
      </trkpt>
      <trkpt lat="45.15535" lon="5.25079">
        <ele>210.25</ele>
        <time>2017-03-26T15:55:13Z</time>
      </trkpt>
      <trkpt lat="45.1555" lon="5.25104">
        <ele>210.58</ele>
        <time>2017-03-26T15:55:14Z</time>
      </trkpt>
      <trkpt lat="45.15564" lon="5.25129">
        <ele>211.93</ele>
        <time>2017-03-26T15:55:15Z</time>
      </trkpt>
      <trkpt lat="45.15577" lon="5.25153">
        <ele>212.84</ele>
        <time>2017-03-26T15:55:16Z</time>
      </trkpt>
      <trkpt lat="45.15586" lon="5.25176">
        <ele>214.62</ele>
        <time>2017-03-26T15:55:17Z</time>
      </trkpt>
      <trkpt lat="45.15591" lon="5.25202">
        <ele>217.94</ele>
        <time>2017-03-26T15:55:18Z</time>
      </trkpt>
      <trkpt lat="45.15594" lon="5.25228">
        <ele>219.48</ele>
        <time>2017-03-26T15:55:19Z</time>
      </trkpt>
      <trkpt lat="45.15592" lon="5.25254">
        <ele>221.55</ele>
        <time>2017-03-26T15:55:20Z</time>
      </trkpt>
      <trkpt lat="45.15584" lon="5.25282">
        <ele>224.84</ele>
        <time>2017-03-26T15:55:21Z</time>
      </trkpt>
      <trkpt lat="45.15573" lon="5.2531">
        <ele>226.62</ele>
        <time>2017-03-26T15:55:22Z</time>
      </trkpt>
      <trkpt lat="45.1556" lon="5.25336">
        <ele>227.86</ele>
        <time>2017-03-26T15:55:23Z</time>
      </trkpt>
      <trkpt lat="45.15546" lon="5.25361">
        <ele>229.15</ele>
        <time>2017-03-26T15:55:24Z</time>
      </trkpt>
      <trkpt lat="45.15529" lon="5.25387">
        <ele>230.04</ele>
        <time>2017-03-26T15:55:25Z</time>
      </trkpt>
      <trkpt lat="45.15512" lon="5.25414">
        <ele>231.1</ele>
        <time>2017-03-26T15:55:26Z</time>
      </trkpt>
      <trkpt lat="45.15497" lon="5.25439">
        <ele>232.52</ele>
        <time>2017-03-26T15:55:27Z</time>
      </trkpt>
      <trkpt lat="45.15481" lon="5.25463">
        <ele>233.68</ele>
        <time>2017-03-26T15:55:28Z</time>
      </trkpt>
      <trkpt lat="45.15467" lon="5.25482">
        <ele>235.51</ele>
        <time>2017-03-26T15:55:29Z</time>
      </trkpt>
      <trkpt lat="45.15456" lon="5.25499">
        <ele>237.56</ele>
        <time>2017-03-26T15:55:30Z</time>
      </trkpt>
      <trkpt lat="45.15448" lon="5.25516">
        <ele>239.49</ele>
        <time>2017-03-26T15:55:31Z</time>
      </trkpt>
      <trkpt lat="45.15444" lon="5.25534">
        <ele>242.27</ele>
        <time>2017-03-26T15:55:32Z</time>
      </trkpt>
      <trkpt lat="45.15442" lon="5.25555">
        <ele>247.95</ele>
        <time>2017-03-26T15:55:33Z</time>
      </trkpt>
      <trkpt lat="45.15445" lon="5.25579">
        <ele>251.96</ele>
        <time>2017-03-26T15:55:34Z</time>
      </trkpt>
      <trkpt lat="45.1545" lon="5.25605">
        <ele>256.93</ele>
        <time>2017-03-26T15:55:35Z</time>
      </trkpt>
      <trkpt lat="45.1546" lon="5.25631">
        <ele>260</ele>
        <time>2017-03-26T15:55:36Z</time>
      </trkpt>
      <trkpt lat="45.15473" lon="5.25657">
        <ele>263.25</ele>
        <time>2017-03-26T15:55:37Z</time>
      </trkpt>
      <trkpt lat="45.15489" lon="5.25682">
        <ele>265.83</ele>
        <time>2017-03-26T15:55:38Z</time>
      </trkpt>
      <trkpt lat="45.15504" lon="5.25706">
        <ele>267.86</ele>
        <time>2017-03-26T15:55:39Z</time>
      </trkpt>
      <trkpt lat="45.15518" lon="5.25729">
        <ele>269.63</ele>
        <time>2017-03-26T15:55:40Z</time>
      </trkpt>
      <trkpt lat="45.15533" lon="5.25752">
        <ele>271.34</ele>
        <time>2017-03-26T15:55:41Z</time>
      </trkpt>
      <trkpt lat="45.15546" lon="5.25773">
        <ele>272.4</ele>
        <time>2017-03-26T15:55:42Z</time>
      </trkpt>
      <trkpt lat="45.15561" lon="5.25791">
        <ele>272.93</ele>
        <time>2017-03-26T15:55:43Z</time>
      </trkpt>
      <trkpt lat="45.15576" lon="5.25808">
        <ele>273.52</ele>
        <time>2017-03-26T15:55:44Z</time>
      </trkpt>
      <trkpt lat="45.15592" lon="5.25825">
        <ele>274.36</ele>
        <time>2017-03-26T15:55:45Z</time>
      </trkpt>
      <trkpt lat="45.15607" lon="5.25842">
        <ele>274.85</ele>
        <time>2017-03-26T15:55:46Z</time>
      </trkpt>
      <trkpt lat="45.15622" lon="5.25863">
        <ele>275.5</ele>
        <time>2017-03-26T15:55:47Z</time>
      </trkpt>
      <trkpt lat="45.15635" lon="5.25887">
        <ele>275.64</ele>
        <time>2017-03-26T15:55:48Z</time>
      </trkpt>
      <trkpt lat="45.15648" lon="5.25912">
        <ele>275.5</ele>
        <time>2017-03-26T15:55:49Z</time>
      </trkpt>
      <trkpt lat="45.15657" lon="5.25934">
        <ele>275.63</ele>
        <time>2017-03-26T15:55:50Z</time>
      </trkpt>
      <trkpt lat="45.15663" lon="5.25957">
        <ele>275.34</ele>
        <time>2017-03-26T15:55:51Z</time>
      </trkpt>
      <trkpt lat="45.15664" lon="5.25981">
        <ele>274.4</ele>
        <time>2017-03-26T15:55:52Z</time>
      </trkpt>
      <trkpt lat="45.15663" lon="5.26007">
        <ele>273.49</ele>
        <time>2017-03-26T15:55:53Z</time>
      </trkpt>
      <trkpt lat="45.15659" lon="5.26036">
        <ele>272.43</ele>
        <time>2017-03-26T15:55:54Z</time>
      </trkpt>
      <trkpt lat="45.15647" lon="5.26066">
        <ele>271.18</ele>
        <time>2017-03-26T15:55:55Z</time>
      </trkpt>
      <trkpt lat="45.15639" lon="5.26098">
        <ele>270.13</ele>
        <time>2017-03-26T15:55:56Z</time>
      </trkpt>
      <trkpt lat="45.1563" lon="5.26131">
        <ele>268.72</ele>
        <time>2017-03-26T15:55:57Z</time>
      </trkpt>
      <trkpt lat="45.15625" lon="5.26169">
        <ele>267.4</ele>
        <time>2017-03-26T15:55:58Z</time>
      </trkpt>
      <trkpt lat="45.15621" lon="5.26207">
        <ele>266.09</ele>
        <time>2017-03-26T15:55:59Z</time>
      </trkpt>
      <trkpt lat="45.15617" lon="5.26244">
        <ele>264.79</ele>
        <time>2017-03-26T15:56:00Z</time>
      </trkpt>
      <trkpt lat="45.15612" lon="5.26279">
        <ele>263.49</ele>
        <time>2017-03-26T15:56:01Z</time>
      </trkpt>
      <trkpt lat="45.15604" lon="5.26312">
        <ele>261.95</ele>
        <time>2017-03-26T15:56:02Z</time>
      </trkpt>
      <trkpt lat="45.15593" lon="5.26345">
        <ele>260.29</ele>
        <time>2017-03-26T15:56:03Z</time>
      </trkpt>
      <trkpt lat="45.15579" lon="5.26379">
        <ele>258.51</ele>
        <time>2017-03-26T15:56:04Z</time>
      </trkpt>
      <trkpt lat="45.15565" lon="5.26411">
        <ele>256.88</ele>
        <time>2017-03-26T15:56:05Z</time>
      </trkpt>
      <trkpt lat="45.15551" lon="5.26443">
        <ele>255.35</ele>
        <time>2017-03-26T15:56:06Z</time>
      </trkpt>
      <trkpt lat="45.15539" lon="5.26478">
        <ele>253.84</ele>
        <time>2017-03-26T15:56:07Z</time>
      </trkpt>
      <trkpt lat="45.15529" lon="5.26516">
        <ele>252.1</ele>
        <time>2017-03-26T15:56:08Z</time>
      </trkpt>
      <trkpt lat="45.1552" lon="5.26556">
        <ele>250.56</ele>
        <time>2017-03-26T15:56:09Z</time>
      </trkpt>
      <trkpt lat="45.1551" lon="5.26594">
        <ele>248.89</ele>
        <time>2017-03-26T15:56:10Z</time>
      </trkpt>
      <trkpt lat="45.15499" lon="5.26631">
        <ele>247.27</ele>
        <time>2017-03-26T15:56:11Z</time>
      </trkpt>
      <trkpt lat="45.15485" lon="5.26667">
        <ele>245.83</ele>
        <time>2017-03-26T15:56:12Z</time>
      </trkpt>
      <trkpt lat="45.15471" lon="5.26701">
        <ele>244.5</ele>
        <time>2017-03-26T15:56:13Z</time>
      </trkpt>
      <trkpt lat="45.15456" lon="5.26733">
        <ele>243.35</ele>
        <time>2017-03-26T15:56:14Z</time>
      </trkpt>
      <trkpt lat="45.15443" lon="5.26764">
        <ele>242.81</ele>
        <time>2017-03-26T15:56:15Z</time>
      </trkpt>
      <trkpt lat="45.15429" lon="5.26794">
        <ele>242.14</ele>
        <time>2017-03-26T15:56:16Z</time>
      </trkpt>
      <trkpt lat="45.15413" lon="5.26823">
        <ele>241.2</ele>
        <time>2017-03-26T15:56:17Z</time>
      </trkpt>
      <trkpt lat="45.15397" lon="5.26849">
        <ele>240.21</ele>
        <time>2017-03-26T15:56:18Z</time>
      </trkpt>
      <trkpt lat="45.15379" lon="5.26874">
        <ele>239.3</ele>
        <time>2017-03-26T15:56:19Z</time>
      </trkpt>
      <trkpt lat="45.15359" lon="5.26896">
        <ele>238.31</ele>
        <time>2017-03-26T15:56:20Z</time>
      </trkpt>
      <trkpt lat="45.15338" lon="5.26918">
        <ele>237.24</ele>
        <time>2017-03-26T15:56:21Z</time>
      </trkpt>
      <trkpt lat="45.15316" lon="5.26939">
        <ele>236.14</ele>
        <time>2017-03-26T15:56:22Z</time>
      </trkpt>
      <trkpt lat="45.15295" lon="5.2696">
        <ele>235.12</ele>
        <time>2017-03-26T15:56:23Z</time>
      </trkpt>
      <trkpt lat="45.15274" lon="5.2698">
        <ele>234.2</ele>
        <time>2017-03-26T15:56:24Z</time>
      </trkpt>
      <trkpt lat="45.15254" lon="5.27">
        <ele>233.21</ele>
        <time>2017-03-26T15:56:25Z</time>
      </trkpt>
      <trkpt lat="45.15234" lon="5.2702">
        <ele>232.22</ele>
        <time>2017-03-26T15:56:26Z</time>
      </trkpt>
      <trkpt lat="45.15213" lon="5.2704">
        <ele>231.22</ele>
        <time>2017-03-26T15:56:27Z</time>
      </trkpt>
      <trkpt lat="45.15194" lon="5.27059">
        <ele>230.22</ele>
        <time>2017-03-26T15:56:28Z</time>
      </trkpt>
      <trkpt lat="45.15175" lon="5.27078">
        <ele>229.3</ele>
        <time>2017-03-26T15:56:29Z</time>
      </trkpt>
      <trkpt lat="45.15156" lon="5.27097">
        <ele>228.39</ele>
        <time>2017-03-26T15:56:30Z</time>
      </trkpt>
      <trkpt lat="45.15138" lon="5.27115">
        <ele>227.57</ele>
        <time>2017-03-26T15:56:31Z</time>
      </trkpt>
      <trkpt lat="45.1512" lon="5.27134">
        <ele>226.77</ele>
        <time>2017-03-26T15:56:32Z</time>
      </trkpt>
      <trkpt lat="45.15102" lon="5.27151">
        <ele>226.21</ele>
        <time>2017-03-26T15:56:33Z</time>
      </trkpt>
      <trkpt lat="45.15085" lon="5.27169">
        <ele>225.54</ele>
        <time>2017-03-26T15:56:34Z</time>
      </trkpt>
      <trkpt lat="45.15067" lon="5.27186">
        <ele>225.08</ele>
        <time>2017-03-26T15:56:35Z</time>
      </trkpt>
      <trkpt lat="45.1505" lon="5.27203">
        <ele>224.59</ele>
        <time>2017-03-26T15:56:36Z</time>
      </trkpt>
      <trkpt lat="45.15033" lon="5.2722">
        <ele>224.01</ele>
        <time>2017-03-26T15:56:37Z</time>
      </trkpt>
      <trkpt lat="45.15015" lon="5.27238">
        <ele>223.58</ele>
        <time>2017-03-26T15:56:38Z</time>
      </trkpt>
      <trkpt lat="45.14998" lon="5.27255">
        <ele>223.41</ele>
        <time>2017-03-26T15:56:39Z</time>
      </trkpt>
      <trkpt lat="45.1498" lon="5.27273">
        <ele>223.22</ele>
        <time>2017-03-26T15:56:40Z</time>
      </trkpt>
      <trkpt lat="45.14962" lon="5.2729">
        <ele>223.18</ele>
        <time>2017-03-26T15:56:41Z</time>
      </trkpt>
      <trkpt lat="45.14944" lon="5.27307">
        <ele>223.81</ele>
        <time>2017-03-26T15:56:42Z</time>
      </trkpt>
      <trkpt lat="45.14926" lon="5.27324">
        <ele>223.94</ele>
        <time>2017-03-26T15:56:43Z</time>
      </trkpt>
      <trkpt lat="45.14908" lon="5.27342">
        <ele>224.36</ele>
        <time>2017-03-26T15:56:44Z</time>
      </trkpt>
      <trkpt lat="45.1489" lon="5.27359">
        <ele>224.85</ele>
        <time>2017-03-26T15:56:45Z</time>
      </trkpt>
      <trkpt lat="45.14872" lon="5.27377">
        <ele>225.18</ele>
        <time>2017-03-26T15:56:46Z</time>
      </trkpt>
      <trkpt lat="45.14854" lon="5.27395">
        <ele>225.33</ele>
        <time>2017-03-26T15:56:47Z</time>
      </trkpt>
      <trkpt lat="45.14835" lon="5.27413">
        <ele>225.84</ele>
        <time>2017-03-26T15:56:48Z</time>
      </trkpt>
      <trkpt lat="45.14817" lon="5.2743">
        <ele>225.94</ele>
        <time>2017-03-26T15:56:49Z</time>
      </trkpt>
      <trkpt lat="45.14798" lon="5.27445">
        <ele>225.4</ele>
        <time>2017-03-26T15:56:50Z</time>
      </trkpt>
      <trkpt lat="45.14779" lon="5.27458">
        <ele>225.45</ele>
        <time>2017-03-26T15:56:51Z</time>
      </trkpt>
      <trkpt lat="45.14761" lon="5.27471">
        <ele>225.31</ele>
        <time>2017-03-26T15:56:52Z</time>
      </trkpt>
      <trkpt lat="45.14744" lon="5.27482">
        <ele>225.28</ele>
        <time>2017-03-26T15:56:53Z</time>
      </trkpt>
      <trkpt lat="45.14728" lon="5.27494">
        <ele>225.11</ele>
        <time>2017-03-26T15:56:54Z</time>
      </trkpt>
      <trkpt lat="45.14713" lon="5.27503">
        <ele>224.92</ele>
        <time>2017-03-26T15:56:55Z</time>
      </trkpt>
      <trkpt lat="45.14698" lon="5.27512">
        <ele>225.04</ele>
        <time>2017-03-26T15:56:56Z</time>
      </trkpt>
      <trkpt lat="45.14683" lon="5.27521">
        <ele>224.9</ele>
        <time>2017-03-26T15:56:57Z</time>
      </trkpt>
      <trkpt lat="45.14669" lon="5.27529">
        <ele>224.39</ele>
        <time>2017-03-26T15:56:58Z</time>
      </trkpt>
      <trkpt lat="45.14654" lon="5.27539">
        <ele>223.89</ele>
        <time>2017-03-26T15:56:59Z</time>
      </trkpt>
      <trkpt lat="45.1464" lon="5.27548">
        <ele>223.63</ele>
        <time>2017-03-26T15:57:00Z</time>
      </trkpt>
      <trkpt lat="45.14627" lon="5.27557">
        <ele>223.18</ele>
        <time>2017-03-26T15:57:01Z</time>
      </trkpt>
      <trkpt lat="45.14613" lon="5.27566">
        <ele>222.77</ele>
        <time>2017-03-26T15:57:02Z</time>
      </trkpt>
      <trkpt lat="45.14601" lon="5.27574">
        <ele>222.61</ele>
        <time>2017-03-26T15:57:03Z</time>
      </trkpt>
      <trkpt lat="45.14589" lon="5.27583">
        <ele>222.74</ele>
        <time>2017-03-26T15:57:04Z</time>
      </trkpt>
      <trkpt lat="45.14578" lon="5.27593">
        <ele>223</ele>
        <time>2017-03-26T15:57:05Z</time>
      </trkpt>
      <trkpt lat="45.14568" lon="5.27604">
        <ele>223.37</ele>
        <time>2017-03-26T15:57:06Z</time>
      </trkpt>
      <trkpt lat="45.14559" lon="5.27617">
        <ele>223.85</ele>
        <time>2017-03-26T15:57:07Z</time>
      </trkpt>
      <trkpt lat="45.14551" lon="5.27631">
        <ele>224.18</ele>
        <time>2017-03-26T15:57:08Z</time>
      </trkpt>
      <trkpt lat="45.14543" lon="5.27646">
        <ele>224.01</ele>
        <time>2017-03-26T15:57:09Z</time>
      </trkpt>
      <trkpt lat="45.14538" lon="5.27661">
        <ele>224.38</ele>
        <time>2017-03-26T15:57:10Z</time>
      </trkpt>
      <trkpt lat="45.14533" lon="5.27676">
        <ele>224.77</ele>
        <time>2017-03-26T15:57:11Z</time>
      </trkpt>
      <trkpt lat="45.14529" lon="5.27692">
        <ele>224.13</ele>
        <time>2017-03-26T15:57:12Z</time>
      </trkpt>
      <trkpt lat="45.14526" lon="5.27708">
        <ele>224.32</ele>
        <time>2017-03-26T15:57:13Z</time>
      </trkpt>
      <trkpt lat="45.14522" lon="5.27723">
        <ele>224.68</ele>
        <time>2017-03-26T15:57:14Z</time>
      </trkpt>
      <trkpt lat="45.14519" lon="5.27738">
        <ele>224.67</ele>
        <time>2017-03-26T15:57:15Z</time>
      </trkpt>
      <trkpt lat="45.14515" lon="5.27753">
        <ele>223.87</ele>
        <time>2017-03-26T15:57:16Z</time>
      </trkpt>
      <trkpt lat="45.14511" lon="5.27767">
        <ele>223.55</ele>
        <time>2017-03-26T15:57:17Z</time>
      </trkpt>
      <trkpt lat="45.14507" lon="5.2778">
        <ele>223.48</ele>
        <time>2017-03-26T15:57:18Z</time>
      </trkpt>
      <trkpt lat="45.14503" lon="5.27795">
        <ele>223.47</ele>
        <time>2017-03-26T15:57:19Z</time>
      </trkpt>
      <trkpt lat="45.14498" lon="5.2781">
        <ele>223.95</ele>
        <time>2017-03-26T15:57:20Z</time>
      </trkpt>
      <trkpt lat="45.14493" lon="5.27825">
        <ele>223.8</ele>
        <time>2017-03-26T15:57:21Z</time>
      </trkpt>
      <trkpt lat="45.14488" lon="5.27839">
        <ele>222.82</ele>
        <time>2017-03-26T15:57:22Z</time>
      </trkpt>
      <trkpt lat="45.14482" lon="5.27853">
        <ele>221.9</ele>
        <time>2017-03-26T15:57:23Z</time>
      </trkpt>
      <trkpt lat="45.14475" lon="5.27867">
        <ele>221.15</ele>
        <time>2017-03-26T15:57:24Z</time>
      </trkpt>
      <trkpt lat="45.14468" lon="5.27881">
        <ele>220.37</ele>
        <time>2017-03-26T15:57:25Z</time>
      </trkpt>
      <trkpt lat="45.14462" lon="5.27895">
        <ele>219.97</ele>
        <time>2017-03-26T15:57:26Z</time>
      </trkpt>
      <trkpt lat="45.14455" lon="5.2791">
        <ele>219.97</ele>
        <time>2017-03-26T15:57:27Z</time>
      </trkpt>
      <trkpt lat="45.14448" lon="5.27925">
        <ele>219.97</ele>
        <time>2017-03-26T15:57:28Z</time>
      </trkpt>
      <trkpt lat="45.1444" lon="5.2794">
        <ele>219.81</ele>
        <time>2017-03-26T15:57:29Z</time>
      </trkpt>
      <trkpt lat="45.14433" lon="5.27954">
        <ele>219.38</ele>
        <time>2017-03-26T15:57:30Z</time>
      </trkpt>
      <trkpt lat="45.14426" lon="5.27968">
        <ele>218.97</ele>
        <time>2017-03-26T15:57:31Z</time>
      </trkpt>
      <trkpt lat="45.14419" lon="5.27982">
        <ele>218.57</ele>
        <time>2017-03-26T15:57:32Z</time>
      </trkpt>
      <trkpt lat="45.14413" lon="5.27995">
        <ele>218.49</ele>
        <time>2017-03-26T15:57:33Z</time>
      </trkpt>
      <trkpt lat="45.14407" lon="5.28009">
        <ele>218.31</ele>
        <time>2017-03-26T15:57:34Z</time>
      </trkpt>
      <trkpt lat="45.144" lon="5.28022">
        <ele>218.2</ele>
        <time>2017-03-26T15:57:35Z</time>
      </trkpt>
      <trkpt lat="45.14394" lon="5.28035">
        <ele>218.09</ele>
        <time>2017-03-26T15:57:36Z</time>
      </trkpt>
      <trkpt lat="45.14387" lon="5.28048">
        <ele>217.67</ele>
        <time>2017-03-26T15:57:37Z</time>
      </trkpt>
      <trkpt lat="45.14381" lon="5.28061">
        <ele>217.51</ele>
        <time>2017-03-26T15:57:38Z</time>
      </trkpt>
      <trkpt lat="45.14375" lon="5.28074">
        <ele>217.32</ele>
        <time>2017-03-26T15:57:39Z</time>
      </trkpt>
      <trkpt lat="45.14369" lon="5.28086">
        <ele>217.12</ele>
        <time>2017-03-26T15:57:40Z</time>
      </trkpt>
      <trkpt lat="45.14363" lon="5.28098">
        <ele>216.76</ele>
        <time>2017-03-26T15:57:41Z</time>
      </trkpt>
      <trkpt lat="45.14358" lon="5.28109">
        <ele>216.85</ele>
        <time>2017-03-26T15:57:42Z</time>
      </trkpt>
      <trkpt lat="45.14353" lon="5.2812">
        <ele>216.78</ele>
        <time>2017-03-26T15:57:43Z</time>
      </trkpt>
      <trkpt lat="45.1435" lon="5.2813">
        <ele>216.61</ele>
        <time>2017-03-26T15:57:44Z</time>
      </trkpt>
      <trkpt lat="45.14348" lon="5.28142">
        <ele>216.5</ele>
        <time>2017-03-26T15:57:45Z</time>
      </trkpt>
      <trkpt lat="45.14347" lon="5.28154">
        <ele>216.63</ele>
        <time>2017-03-26T15:57:46Z</time>
      </trkpt>
      <trkpt lat="45.14345" lon="5.28167">
        <ele>216.58</ele>
        <time>2017-03-26T15:57:47Z</time>
      </trkpt>
      <trkpt lat="45.14344" lon="5.28182">
        <ele>216.73</ele>
        <time>2017-03-26T15:57:48Z</time>
      </trkpt>
      <trkpt lat="45.14343" lon="5.28196">
        <ele>216.76</ele>
        <time>2017-03-26T15:57:49Z</time>
      </trkpt>
      <trkpt lat="45.14341" lon="5.28211">
        <ele>216.69</ele>
        <time>2017-03-26T15:57:50Z</time>
      </trkpt>
      <trkpt lat="45.1434" lon="5.28225">
        <ele>216.67</ele>
        <time>2017-03-26T15:57:51Z</time>
      </trkpt>
      <trkpt lat="45.14339" lon="5.28239">
        <ele>217.23</ele>
        <time>2017-03-26T15:57:52Z</time>
      </trkpt>
      <trkpt lat="45.14338" lon="5.28252">
        <ele>217.98</ele>
        <time>2017-03-26T15:57:53Z</time>
      </trkpt>
      <trkpt lat="45.14337" lon="5.28265">
        <ele>218.21</ele>
        <time>2017-03-26T15:57:54Z</time>
      </trkpt>
      <trkpt lat="45.14335" lon="5.28279">
        <ele>218.02</ele>
        <time>2017-03-26T15:57:55Z</time>
      </trkpt>
      <trkpt lat="45.14333" lon="5.28292">
        <ele>217.58</ele>
        <time>2017-03-26T15:57:56Z</time>
      </trkpt>
      <trkpt lat="45.14329" lon="5.28306">
        <ele>217.25</ele>
        <time>2017-03-26T15:57:57Z</time>
      </trkpt>
      <trkpt lat="45.14324" lon="5.28319">
        <ele>217.34</ele>
        <time>2017-03-26T15:57:58Z</time>
      </trkpt>
      <trkpt lat="45.14319" lon="5.28333">
        <ele>217.6</ele>
        <time>2017-03-26T15:57:59Z</time>
      </trkpt>
      <trkpt lat="45.14314" lon="5.28346">
        <ele>217.82</ele>
        <time>2017-03-26T15:58:00Z</time>
      </trkpt>
      <trkpt lat="45.14308" lon="5.28358">
        <ele>217.86</ele>
        <time>2017-03-26T15:58:01Z</time>
      </trkpt>
      <trkpt lat="45.14303" lon="5.28371">
        <ele>217.87</ele>
        <time>2017-03-26T15:58:02Z</time>
      </trkpt>
      <trkpt lat="45.14297" lon="5.28384">
        <ele>217.79</ele>
        <time>2017-03-26T15:58:03Z</time>
      </trkpt>
      <trkpt lat="45.14292" lon="5.28397">
        <ele>217.53</ele>
        <time>2017-03-26T15:58:04Z</time>
      </trkpt>
      <trkpt lat="45.14287" lon="5.2841">
        <ele>217.16</ele>
        <time>2017-03-26T15:58:05Z</time>
      </trkpt>
      <trkpt lat="45.14281" lon="5.28424">
        <ele>217.33</ele>
        <time>2017-03-26T15:58:06Z</time>
      </trkpt>
      <trkpt lat="45.14275" lon="5.28439">
        <ele>217.2</ele>
        <time>2017-03-26T15:58:07Z</time>
      </trkpt>
      <trkpt lat="45.14269" lon="5.28454">
        <ele>217.33</ele>
        <time>2017-03-26T15:58:08Z</time>
      </trkpt>
      <trkpt lat="45.14263" lon="5.28469">
        <ele>217.2</ele>
        <time>2017-03-26T15:58:09Z</time>
      </trkpt>
      <trkpt lat="45.14256" lon="5.28484">
        <ele>217.25</ele>
        <time>2017-03-26T15:58:10Z</time>
      </trkpt>
      <trkpt lat="45.1425" lon="5.28499">
        <ele>217.27</ele>
        <time>2017-03-26T15:58:11Z</time>
      </trkpt>
      <trkpt lat="45.14243" lon="5.28515">
        <ele>217.03</ele>
        <time>2017-03-26T15:58:12Z</time>
      </trkpt>
      <trkpt lat="45.14238" lon="5.28532">
        <ele>217.22</ele>
        <time>2017-03-26T15:58:13Z</time>
      </trkpt>
      <trkpt lat="45.14233" lon="5.28548">
        <ele>217.42</ele>
        <time>2017-03-26T15:58:14Z</time>
      </trkpt>
      <trkpt lat="45.14228" lon="5.28564">
        <ele>217.46</ele>
        <time>2017-03-26T15:58:15Z</time>
      </trkpt>
      <trkpt lat="45.14224" lon="5.28581">
        <ele>217.31</ele>
        <time>2017-03-26T15:58:16Z</time>
      </trkpt>
      <trkpt lat="45.1422" lon="5.28597">
        <ele>217.28</ele>
        <time>2017-03-26T15:58:17Z</time>
      </trkpt>
      <trkpt lat="45.14215" lon="5.28613">
        <ele>217.19</ele>
        <time>2017-03-26T15:58:18Z</time>
      </trkpt>
      <trkpt lat="45.14211" lon="5.28628">
        <ele>217.01</ele>
        <time>2017-03-26T15:58:19Z</time>
      </trkpt>
      <trkpt lat="45.14205" lon="5.28644">
        <ele>216.82</ele>
        <time>2017-03-26T15:58:20Z</time>
      </trkpt>
      <trkpt lat="45.14198" lon="5.28659">
        <ele>216.7</ele>
        <time>2017-03-26T15:58:21Z</time>
      </trkpt>
      <trkpt lat="45.1419" lon="5.28675">
        <ele>216.51</ele>
        <time>2017-03-26T15:58:22Z</time>
      </trkpt>
      <trkpt lat="45.14181" lon="5.28689">
        <ele>216.16</ele>
        <time>2017-03-26T15:58:23Z</time>
      </trkpt>
      <trkpt lat="45.14173" lon="5.28704">
        <ele>215.77</ele>
        <time>2017-03-26T15:58:24Z</time>
      </trkpt>
      <trkpt lat="45.14164" lon="5.28718">
        <ele>215.45</ele>
        <time>2017-03-26T15:58:25Z</time>
      </trkpt>
      <trkpt lat="45.14156" lon="5.28732">
        <ele>214.98</ele>
        <time>2017-03-26T15:58:26Z</time>
      </trkpt>
      <trkpt lat="45.14149" lon="5.28745">
        <ele>214.57</ele>
        <time>2017-03-26T15:58:27Z</time>
      </trkpt>
      <trkpt lat="45.14141" lon="5.28757">
        <ele>213.85</ele>
        <time>2017-03-26T15:58:28Z</time>
      </trkpt>
      <trkpt lat="45.14134" lon="5.28767">
        <ele>214.66</ele>
        <time>2017-03-26T15:58:29Z</time>
      </trkpt>
      <trkpt lat="45.14129" lon="5.28779">
        <ele>215.55</ele>
        <time>2017-03-26T15:58:30Z</time>
      </trkpt>
      <trkpt lat="45.14125" lon="5.28793">
        <ele>216.84</ele>
        <time>2017-03-26T15:58:31Z</time>
      </trkpt>
      <trkpt lat="45.14122" lon="5.28808">
        <ele>217.34</ele>
        <time>2017-03-26T15:58:32Z</time>
      </trkpt>
      <trkpt lat="45.1412" lon="5.28824">
        <ele>217.68</ele>
        <time>2017-03-26T15:58:33Z</time>
      </trkpt>
      <trkpt lat="45.1412" lon="5.28844">
        <ele>217.75</ele>
        <time>2017-03-26T15:58:34Z</time>
      </trkpt>
      <trkpt lat="45.14121" lon="5.28864">
        <ele>218.16</ele>
        <time>2017-03-26T15:58:35Z</time>
      </trkpt>
      <trkpt lat="45.14125" lon="5.28883">
        <ele>218.01</ele>
        <time>2017-03-26T15:58:36Z</time>
      </trkpt>
      <trkpt lat="45.14129" lon="5.28901">
        <ele>217.58</ele>
        <time>2017-03-26T15:58:37Z</time>
      </trkpt>
      <trkpt lat="45.14135" lon="5.28917">
        <ele>217.17</ele>
        <time>2017-03-26T15:58:38Z</time>
      </trkpt>
      <trkpt lat="45.14141" lon="5.2893">
        <ele>216.85</ele>
        <time>2017-03-26T15:58:39Z</time>
      </trkpt>
      <trkpt lat="45.14144" lon="5.28941">
        <ele>216.14</ele>
        <time>2017-03-26T15:58:40Z</time>
      </trkpt>
      <trkpt lat="45.14147" lon="5.2895">
        <ele>216.32</ele>
        <time>2017-03-26T15:58:41Z</time>
      </trkpt>
      <trkpt lat="45.14148" lon="5.28958">
        <ele>216.36</ele>
        <time>2017-03-26T15:58:42Z</time>
      </trkpt>
      <trkpt lat="45.14149" lon="5.28964">
        <ele>216.61</ele>
        <time>2017-03-26T15:58:43Z</time>
      </trkpt>
      <trkpt lat="45.14151" lon="5.2897">
        <ele>216.5</ele>
        <time>2017-03-26T15:58:44Z</time>
      </trkpt>
      <trkpt lat="45.14155" lon="5.28974">
        <ele>216.07</ele>
        <time>2017-03-26T15:58:45Z</time>
      </trkpt>
      <trkpt lat="45.1416" lon="5.28976">
        <ele>216.07</ele>
        <time>2017-03-26T15:58:46Z</time>
      </trkpt>
      <trkpt lat="45.14166" lon="5.28979">
        <ele>216.23</ele>
        <time>2017-03-26T15:58:47Z</time>
      </trkpt>
      <trkpt lat="45.14173" lon="5.28985">
        <ele>216.5</ele>
        <time>2017-03-26T15:58:48Z</time>
      </trkpt>
      <trkpt lat="45.14179" lon="5.28992">
        <ele>216.79</ele>
        <time>2017-03-26T15:58:49Z</time>
      </trkpt>
      <trkpt lat="45.14185" lon="5.29001">
        <ele>217.01</ele>
        <time>2017-03-26T15:58:50Z</time>
      </trkpt>
      <trkpt lat="45.1419" lon="5.29009">
        <ele>216.98</ele>
        <time>2017-03-26T15:58:51Z</time>
      </trkpt>
      <trkpt lat="45.14194" lon="5.29017">
        <ele>216.41</ele>
        <time>2017-03-26T15:58:52Z</time>
      </trkpt>
      <trkpt lat="45.14199" lon="5.29024">
        <ele>216.46</ele>
        <time>2017-03-26T15:58:53Z</time>
      </trkpt>
      <trkpt lat="45.14204" lon="5.29033">
        <ele>216.39</ele>
        <time>2017-03-26T15:58:54Z</time>
      </trkpt>
      <trkpt lat="45.1421" lon="5.29043">
        <ele>216.13</ele>
        <time>2017-03-26T15:58:55Z</time>
      </trkpt>
      <trkpt lat="45.14218" lon="5.29055">
        <ele>216.16</ele>
        <time>2017-03-26T15:58:56Z</time>
      </trkpt>
      <trkpt lat="45.14226" lon="5.29068">
        <ele>216.01</ele>
        <time>2017-03-26T15:58:57Z</time>
      </trkpt>
      <trkpt lat="45.14234" lon="5.29082">
        <ele>215.98</ele>
        <time>2017-03-26T15:58:58Z</time>
      </trkpt>
      <trkpt lat="45.14244" lon="5.29098">
        <ele>215.89</ele>
        <time>2017-03-26T15:58:59Z</time>
      </trkpt>
      <trkpt lat="45.14254" lon="5.29115">
        <ele>216.03</ele>
        <time>2017-03-26T15:59:00Z</time>
      </trkpt>
      <trkpt lat="45.14264" lon="5.29133">
        <ele>216.06</ele>
        <time>2017-03-26T15:59:01Z</time>
      </trkpt>
      <trkpt lat="45.14275" lon="5.2915">
        <ele>215.91</ele>
        <time>2017-03-26T15:59:02Z</time>
      </trkpt>
      <trkpt lat="45.14285" lon="5.29168">
        <ele>215.8</ele>
        <time>2017-03-26T15:59:03Z</time>
      </trkpt>
      <trkpt lat="45.14296" lon="5.29187">
        <ele>215.77</ele>
        <time>2017-03-26T15:59:04Z</time>
      </trkpt>
      <trkpt lat="45.14306" lon="5.29205">
        <ele>215.69</ele>
        <time>2017-03-26T15:59:05Z</time>
      </trkpt>
      <trkpt lat="45.14317" lon="5.29224">
        <ele>215.67</ele>
        <time>2017-03-26T15:59:06Z</time>
      </trkpt>
      <trkpt lat="45.14327" lon="5.29242">
        <ele>215.91</ele>
        <time>2017-03-26T15:59:07Z</time>
      </trkpt>
      <trkpt lat="45.14338" lon="5.2926">
        <ele>216.12</ele>
        <time>2017-03-26T15:59:08Z</time>
      </trkpt>
      <trkpt lat="45.14348" lon="5.29279">
        <ele>216.88</ele>
        <time>2017-03-26T15:59:09Z</time>
      </trkpt>
      <trkpt lat="45.14359" lon="5.29298">
        <ele>217.43</ele>
        <time>2017-03-26T15:59:10Z</time>
      </trkpt>
      <trkpt lat="45.1437" lon="5.29317">
        <ele>218.18</ele>
        <time>2017-03-26T15:59:11Z</time>
      </trkpt>
      <trkpt lat="45.14381" lon="5.29336">
        <ele>219.45</ele>
        <time>2017-03-26T15:59:12Z</time>
      </trkpt>
      <trkpt lat="45.14392" lon="5.29356">
        <ele>220.42</ele>
        <time>2017-03-26T15:59:13Z</time>
      </trkpt>
      <trkpt lat="45.14403" lon="5.29375">
        <ele>221.34</ele>
        <time>2017-03-26T15:59:14Z</time>
      </trkpt>
      <trkpt lat="45.14415" lon="5.29395">
        <ele>221.76</ele>
        <time>2017-03-26T15:59:15Z</time>
      </trkpt>
      <trkpt lat="45.14427" lon="5.29415">
        <ele>222.17</ele>
        <time>2017-03-26T15:59:16Z</time>
      </trkpt>
      <trkpt lat="45.14439" lon="5.29435">
        <ele>222.57</ele>
        <time>2017-03-26T15:59:17Z</time>
      </trkpt>
      <trkpt lat="45.14451" lon="5.29455">
        <ele>223.13</ele>
        <time>2017-03-26T15:59:18Z</time>
      </trkpt>
      <trkpt lat="45.14462" lon="5.29475">
        <ele>223.56</ele>
        <time>2017-03-26T15:59:19Z</time>
      </trkpt>
      <trkpt lat="45.14474" lon="5.29495">
        <ele>224.05</ele>
        <time>2017-03-26T15:59:20Z</time>
      </trkpt>
      <trkpt lat="45.14484" lon="5.29514">
        <ele>224.78</ele>
        <time>2017-03-26T15:59:21Z</time>
      </trkpt>
      <trkpt lat="45.14495" lon="5.29533">
        <ele>225.41</ele>
        <time>2017-03-26T15:59:22Z</time>
      </trkpt>
      <trkpt lat="45.14505" lon="5.2955">
        <ele>225.7</ele>
        <time>2017-03-26T15:59:23Z</time>
      </trkpt>
      <trkpt lat="45.14514" lon="5.29567">
        <ele>225.35</ele>
        <time>2017-03-26T15:59:24Z</time>
      </trkpt>
      <trkpt lat="45.14523" lon="5.29585">
        <ele>223.21</ele>
        <time>2017-03-26T15:59:25Z</time>
      </trkpt>
      <trkpt lat="45.1453" lon="5.29605">
        <ele>221.98</ele>
        <time>2017-03-26T15:59:26Z</time>
      </trkpt>
      <trkpt lat="45.14536" lon="5.29627">
        <ele>221.09</ele>
        <time>2017-03-26T15:59:27Z</time>
      </trkpt>
      <trkpt lat="45.14541" lon="5.29652">
        <ele>221.39</ele>
        <time>2017-03-26T15:59:28Z</time>
      </trkpt>
      <trkpt lat="45.14544" lon="5.29679">
        <ele>221.61</ele>
        <time>2017-03-26T15:59:29Z</time>
      </trkpt>
      <trkpt lat="45.14547" lon="5.29709">
        <ele>221.66</ele>
        <time>2017-03-26T15:59:30Z</time>
      </trkpt>
      <trkpt lat="45.14549" lon="5.2974">
        <ele>221.67</ele>
        <time>2017-03-26T15:59:31Z</time>
      </trkpt>
      <trkpt lat="45.14551" lon="5.29772">
        <ele>220.95</ele>
        <time>2017-03-26T15:59:32Z</time>
      </trkpt>
      <trkpt lat="45.14553" lon="5.29803">
        <ele>220.96</ele>
        <time>2017-03-26T15:59:33Z</time>
      </trkpt>
      <trkpt lat="45.14555" lon="5.29834">
        <ele>220.81</ele>
        <time>2017-03-26T15:59:34Z</time>
      </trkpt>
      <trkpt lat="45.14558" lon="5.29865">
        <ele>220.86</ele>
        <time>2017-03-26T15:59:35Z</time>
      </trkpt>
      <trkpt lat="45.1456" lon="5.29896">
        <ele>220.95</ele>
        <time>2017-03-26T15:59:36Z</time>
      </trkpt>
      <trkpt lat="45.14563" lon="5.29926">
        <ele>221.2</ele>
        <time>2017-03-26T15:59:37Z</time>
      </trkpt>
      <trkpt lat="45.14566" lon="5.29956">
        <ele>221.58</ele>
        <time>2017-03-26T15:59:38Z</time>
      </trkpt>
      <trkpt lat="45.14568" lon="5.29986">
        <ele>221.65</ele>
        <time>2017-03-26T15:59:39Z</time>
      </trkpt>
      <trkpt lat="45.1457" lon="5.30016">
        <ele>221.9</ele>
        <time>2017-03-26T15:59:40Z</time>
      </trkpt>
      <trkpt lat="45.14572" lon="5.30046">
        <ele>222.12</ele>
        <time>2017-03-26T15:59:41Z</time>
      </trkpt>
      <trkpt lat="45.14575" lon="5.30076">
        <ele>221.92</ele>
        <time>2017-03-26T15:59:42Z</time>
      </trkpt>
      <trkpt lat="45.14577" lon="5.30105">
        <ele>221.8</ele>
        <time>2017-03-26T15:59:43Z</time>
      </trkpt>
      <trkpt lat="45.14579" lon="5.30133">
        <ele>221.93</ele>
        <time>2017-03-26T15:59:44Z</time>
      </trkpt>
      <trkpt lat="45.14582" lon="5.3016">
        <ele>221.96</ele>
        <time>2017-03-26T15:59:45Z</time>
      </trkpt>
      <trkpt lat="45.14585" lon="5.30186">
        <ele>221.41</ele>
        <time>2017-03-26T15:59:46Z</time>
      </trkpt>
      <trkpt lat="45.1459" lon="5.30212">
        <ele>221.3</ele>
        <time>2017-03-26T15:59:47Z</time>
      </trkpt>
      <trkpt lat="45.14595" lon="5.30238">
        <ele>221.59</ele>
        <time>2017-03-26T15:59:48Z</time>
      </trkpt>
      <trkpt lat="45.14601" lon="5.30263">
        <ele>222.05</ele>
        <time>2017-03-26T15:59:49Z</time>
      </trkpt>
      <trkpt lat="45.14606" lon="5.30287">
        <ele>222.15</ele>
        <time>2017-03-26T15:59:50Z</time>
      </trkpt>
      <trkpt lat="45.14611" lon="5.30309">
        <ele>222.16</ele>
        <time>2017-03-26T15:59:51Z</time>
      </trkpt>
      <trkpt lat="45.14616" lon="5.30328">
        <ele>222.33</ele>
        <time>2017-03-26T15:59:52Z</time>
      </trkpt>
      <trkpt lat="45.14621" lon="5.30348">
        <ele>222.52</ele>
        <time>2017-03-26T15:59:53Z</time>
      </trkpt>
      <trkpt lat="45.14627" lon="5.30368">
        <ele>222.72</ele>
        <time>2017-03-26T15:59:54Z</time>
      </trkpt>
      <trkpt lat="45.14634" lon="5.30389">
        <ele>223</ele>
        <time>2017-03-26T15:59:55Z</time>
      </trkpt>
      <trkpt lat="45.14641" lon="5.3041">
        <ele>223.37</ele>
        <time>2017-03-26T15:59:56Z</time>
      </trkpt>
      <trkpt lat="45.14649" lon="5.30432">
        <ele>224.01</ele>
        <time>2017-03-26T15:59:57Z</time>
      </trkpt>
      <trkpt lat="45.14656" lon="5.30454">
        <ele>224.7</ele>
        <time>2017-03-26T15:59:58Z</time>
      </trkpt>
      <trkpt lat="45.14662" lon="5.30473">
        <ele>225.23</ele>
        <time>2017-03-26T15:59:59Z</time>
      </trkpt>
      <trkpt lat="45.14667" lon="5.30489">
        <ele>226.14</ele>
        <time>2017-03-26T16:00:00Z</time>
      </trkpt>
      <trkpt lat="45.14671" lon="5.30502">
        <ele>226.8</ele>
        <time>2017-03-26T16:00:01Z</time>
      </trkpt>
      <trkpt lat="45.14673" lon="5.30512">
        <ele>227.17</ele>
        <time>2017-03-26T16:00:02Z</time>
      </trkpt>
      <trkpt lat="45.14675" lon="5.3052">
        <ele>227.65</ele>
        <time>2017-03-26T16:00:03Z</time>
      </trkpt>
      <trkpt lat="45.14677" lon="5.30529">
        <ele>227.98</ele>
        <time>2017-03-26T16:00:04Z</time>
      </trkpt>
      <trkpt lat="45.14679" lon="5.30537">
        <ele>227.25</ele>
        <time>2017-03-26T16:00:05Z</time>
      </trkpt>
      <trkpt lat="45.14679" lon="5.30547">
        <ele>226.38</ele>
        <time>2017-03-26T16:00:06Z</time>
      </trkpt>
      <trkpt lat="45.14679" lon="5.30555">
        <ele>226.13</ele>
        <time>2017-03-26T16:00:07Z</time>
      </trkpt>
      <trkpt lat="45.14672" lon="5.30558">
        <ele>225.36</ele>
        <time>2017-03-26T16:00:08Z</time>
      </trkpt>
      <trkpt lat="45.14665" lon="5.30562">
        <ele>224.49</ele>
        <time>2017-03-26T16:00:09Z</time>
      </trkpt>
      <trkpt lat="45.14654" lon="5.30567">
        <ele>223.27</ele>
        <time>2017-03-26T16:00:10Z</time>
      </trkpt>
      <trkpt lat="45.14643" lon="5.30573">
        <ele>222.31</ele>
        <time>2017-03-26T16:00:11Z</time>
      </trkpt>
      <trkpt lat="45.1463" lon="5.3058">
        <ele>221.4</ele>
        <time>2017-03-26T16:00:12Z</time>
      </trkpt>
      <trkpt lat="45.14617" lon="5.30586">
        <ele>220.41</ele>
        <time>2017-03-26T16:00:13Z</time>
      </trkpt>
      <trkpt lat="45.14605" lon="5.30593">
        <ele>219.34</ele>
        <time>2017-03-26T16:00:14Z</time>
      </trkpt>
      <trkpt lat="45.14593" lon="5.30599">
        <ele>218.48</ele>
        <time>2017-03-26T16:00:15Z</time>
      </trkpt>
      <trkpt lat="45.14582" lon="5.30605">
        <ele>217.91</ele>
        <time>2017-03-26T16:00:16Z</time>
      </trkpt>
      <trkpt lat="45.14571" lon="5.30611">
        <ele>217.64</ele>
        <time>2017-03-26T16:00:17Z</time>
      </trkpt>
      <trkpt lat="45.14561" lon="5.30613">
        <ele>217.5</ele>
        <time>2017-03-26T16:00:18Z</time>
      </trkpt>
      <trkpt lat="45.14551" lon="5.30614">
        <ele>217.47</ele>
        <time>2017-03-26T16:00:19Z</time>
      </trkpt>
      <trkpt lat="45.14543" lon="5.3061">
        <ele>217.15</ele>
        <time>2017-03-26T16:00:20Z</time>
      </trkpt>
      <trkpt lat="45.14538" lon="5.30602">
        <ele>217.32</ele>
        <time>2017-03-26T16:00:21Z</time>
      </trkpt>
      <trkpt lat="45.14534" lon="5.30588">
        <ele>217.76</ele>
        <time>2017-03-26T16:00:22Z</time>
      </trkpt>
      <trkpt lat="45.1453" lon="5.30574">
        <ele>218.09</ele>
        <time>2017-03-26T16:00:23Z</time>
      </trkpt>
      <trkpt lat="45.14526" lon="5.30557">
        <ele>218.55</ele>
        <time>2017-03-26T16:00:24Z</time>
      </trkpt>
      <trkpt lat="45.14522" lon="5.30541">
        <ele>218.96</ele>
        <time>2017-03-26T16:00:25Z</time>
      </trkpt>
      <trkpt lat="45.14517" lon="5.30525">
        <ele>219.21</ele>
        <time>2017-03-26T16:00:26Z</time>
      </trkpt>
      <trkpt lat="45.14514" lon="5.30508">
        <ele>219.66</ele>
        <time>2017-03-26T16:00:27Z</time>
      </trkpt>
      <trkpt lat="45.1451" lon="5.30493">
        <ele>220.15</ele>
        <time>2017-03-26T16:00:28Z</time>
      </trkpt>
      <trkpt lat="45.14506" lon="5.30479">
        <ele>220.56</ele>
        <time>2017-03-26T16:00:29Z</time>
      </trkpt>
      <trkpt lat="45.14502" lon="5.30466">
        <ele>221.05</ele>
        <time>2017-03-26T16:00:30Z</time>
      </trkpt>
      <trkpt lat="45.14499" lon="5.30453">
        <ele>221.3</ele>
        <time>2017-03-26T16:00:31Z</time>
      </trkpt>
      <trkpt lat="45.14497" lon="5.30439">
        <ele>220.48</ele>
        <time>2017-03-26T16:00:32Z</time>
      </trkpt>
      <trkpt lat="45.14494" lon="5.30428">
        <ele>220.07</ele>
        <time>2017-03-26T16:00:33Z</time>
      </trkpt>
      <trkpt lat="45.14491" lon="5.30417">
        <ele>219.67</ele>
        <time>2017-03-26T16:00:34Z</time>
      </trkpt>
      <trkpt lat="45.14489" lon="5.30408">
        <ele>218.79</ele>
        <time>2017-03-26T16:00:35Z</time>
      </trkpt>
      <trkpt lat="45.14487" lon="5.30402">
        <ele>218.45</ele>
        <time>2017-03-26T16:00:36Z</time>
      </trkpt>
      <trkpt lat="45.14485" lon="5.30397">
        <ele>217.26</ele>
        <time>2017-03-26T16:00:37Z</time>
      </trkpt>
      <trkpt lat="45.14481" lon="5.30396">
        <ele>216.55</ele>
        <time>2017-03-26T16:00:38Z</time>
      </trkpt>
      <trkpt lat="45.14475" lon="5.30398">
        <ele>216.56</ele>
        <time>2017-03-26T16:00:39Z</time>
      </trkpt>
      <trkpt lat="45.14469" lon="5.30403">
        <ele>215.13</ele>
        <time>2017-03-26T16:00:40Z</time>
      </trkpt>
      <trkpt lat="45.14461" lon="5.30408">
        <ele>214.92</ele>
        <time>2017-03-26T16:00:41Z</time>
      </trkpt>
      <trkpt lat="45.14452" lon="5.30413">
        <ele>214.16</ele>
        <time>2017-03-26T16:00:42Z</time>
      </trkpt>
      <trkpt lat="45.14443" lon="5.30419">
        <ele>213.61</ele>
        <time>2017-03-26T16:00:43Z</time>
      </trkpt>
      <trkpt lat="45.14434" lon="5.30425">
        <ele>213.34</ele>
        <time>2017-03-26T16:00:44Z</time>
      </trkpt>
      <trkpt lat="45.14424" lon="5.30431">
        <ele>213.12</ele>
        <time>2017-03-26T16:00:45Z</time>
      </trkpt>
      <trkpt lat="45.14415" lon="5.30436">
        <ele>213</ele>
        <time>2017-03-26T16:00:46Z</time>
      </trkpt>
      <trkpt lat="45.14405" lon="5.30442">
        <ele>213.29</ele>
        <time>2017-03-26T16:00:47Z</time>
      </trkpt>
      <trkpt lat="45.14396" lon="5.30448">
        <ele>212.47</ele>
        <time>2017-03-26T16:00:48Z</time>
      </trkpt>
      <trkpt lat="45.14388" lon="5.30455">
        <ele>212.31</ele>
        <time>2017-03-26T16:00:49Z</time>
      </trkpt>
      <trkpt lat="45.14381" lon="5.30462">
        <ele>212.36</ele>
        <time>2017-03-26T16:00:50Z</time>
      </trkpt>
      <trkpt lat="45.14374" lon="5.3047">
        <ele>211.49</ele>
        <time>2017-03-26T16:00:51Z</time>
      </trkpt>
      <trkpt lat="45.14369" lon="5.30479">
        <ele>211.39</ele>
        <time>2017-03-26T16:00:52Z</time>
      </trkpt>
      <trkpt lat="45.14369" lon="5.30487">
        <ele>211.37</ele>
        <time>2017-03-26T16:00:53Z</time>
      </trkpt>
      <trkpt lat="45.14371" lon="5.30495">
        <ele>211.53</ele>
        <time>2017-03-26T16:00:54Z</time>
      </trkpt>
      <trkpt lat="45.14374" lon="5.30503">
        <ele>211.32</ele>
        <time>2017-03-26T16:00:55Z</time>
      </trkpt>
      <trkpt lat="45.14378" lon="5.3051">
        <ele>211.36</ele>
        <time>2017-03-26T16:00:56Z</time>
      </trkpt>
      <trkpt lat="45.1438" lon="5.30517">
        <ele>210.81</ele>
        <time>2017-03-26T16:00:57Z</time>
      </trkpt>
      <trkpt lat="45.1438" lon="5.30523">
        <ele>210.86</ele>
        <time>2017-03-26T16:00:58Z</time>
      </trkpt>
      <trkpt lat="45.14374" lon="5.30529">
        <ele>210.39</ele>
        <time>2017-03-26T16:00:59Z</time>
      </trkpt>
      <trkpt lat="45.14367" lon="5.30533">
        <ele>209.97</ele>
        <time>2017-03-26T16:01:00Z</time>
      </trkpt>
      <trkpt lat="45.14359" lon="5.30538">
        <ele>209.73</ele>
        <time>2017-03-26T16:01:01Z</time>
      </trkpt>
      <trkpt lat="45.1435" lon="5.30544">
        <ele>209.76</ele>
        <time>2017-03-26T16:01:02Z</time>
      </trkpt>
      <trkpt lat="45.14338" lon="5.30548">
        <ele>210.41</ele>
        <time>2017-03-26T16:01:03Z</time>
      </trkpt>
      <trkpt lat="45.14326" lon="5.30552">
        <ele>210.3</ele>
        <time>2017-03-26T16:01:04Z</time>
      </trkpt>
      <trkpt lat="45.14316" lon="5.30557">
        <ele>210.51</ele>
        <time>2017-03-26T16:01:05Z</time>
      </trkpt>
      <trkpt lat="45.14305" lon="5.30561">
        <ele>210.72</ele>
        <time>2017-03-26T16:01:06Z</time>
      </trkpt>
      <trkpt lat="45.14294" lon="5.30563">
        <ele>211</ele>
        <time>2017-03-26T16:01:07Z</time>
      </trkpt>
      <trkpt lat="45.14285" lon="5.30561">
        <ele>211.21</ele>
        <time>2017-03-26T16:01:08Z</time>
      </trkpt>
      <trkpt lat="45.14276" lon="5.30554">
        <ele>211.18</ele>
        <time>2017-03-26T16:01:09Z</time>
      </trkpt>
      <trkpt lat="45.14268" lon="5.30542">
        <ele>210.85</ele>
        <time>2017-03-26T16:01:10Z</time>
      </trkpt>
      <trkpt lat="45.14259" lon="5.30528">
        <ele>210.78</ele>
        <time>2017-03-26T16:01:11Z</time>
      </trkpt>
      <trkpt lat="45.1425" lon="5.30512">
        <ele>210.45</ele>
        <time>2017-03-26T16:01:12Z</time>
      </trkpt>
      <trkpt lat="45.14239" lon="5.30496">
        <ele>210.22</ele>
        <time>2017-03-26T16:01:13Z</time>
      </trkpt>
      <trkpt lat="45.14228" lon="5.3048">
        <ele>210.1</ele>
        <time>2017-03-26T16:01:14Z</time>
      </trkpt>
      <trkpt lat="45.14217" lon="5.30464">
        <ele>210.15</ele>
        <time>2017-03-26T16:01:15Z</time>
      </trkpt>
      <trkpt lat="45.14207" lon="5.30449">
        <ele>210.01</ele>
        <time>2017-03-26T16:01:16Z</time>
      </trkpt>
      <trkpt lat="45.14197" lon="5.30436">
        <ele>209.74</ele>
        <time>2017-03-26T16:01:17Z</time>
      </trkpt>
      <trkpt lat="45.14188" lon="5.30424">
        <ele>209.68</ele>
        <time>2017-03-26T16:01:18Z</time>
      </trkpt>
      <trkpt lat="45.1418" lon="5.30412">
        <ele>209.75</ele>
        <time>2017-03-26T16:01:19Z</time>
      </trkpt>
      <trkpt lat="45.14173" lon="5.30402">
        <ele>209.76</ele>
        <time>2017-03-26T16:01:20Z</time>
      </trkpt>
      <trkpt lat="45.14166" lon="5.30391">
        <ele>209.93</ele>
        <time>2017-03-26T16:01:21Z</time>
      </trkpt>
      <trkpt lat="45.14159" lon="5.30382">
        <ele>210.36</ele>
        <time>2017-03-26T16:01:22Z</time>
      </trkpt>
      <trkpt lat="45.14152" lon="5.30373">
        <ele>210.45</ele>
        <time>2017-03-26T16:01:23Z</time>
      </trkpt>
      <trkpt lat="45.14147" lon="5.30364">
        <ele>210.7</ele>
        <time>2017-03-26T16:01:24Z</time>
      </trkpt>
      <trkpt lat="45.14142" lon="5.30361">
        <ele>210.84</ele>
        <time>2017-03-26T16:01:25Z</time>
      </trkpt>
      <trkpt lat="45.14138" lon="5.30358">
        <ele>209.9</ele>
        <time>2017-03-26T16:01:26Z</time>
      </trkpt>
      <trkpt lat="45.14136" lon="5.30357">
        <ele>209.39</ele>
        <time>2017-03-26T16:01:27Z</time>
      </trkpt>
      <trkpt lat="45.14134" lon="5.30357">
        <ele>209.13</ele>
        <time>2017-03-26T16:01:28Z</time>
      </trkpt>
      <trkpt lat="45.14141" lon="5.30365">
        <ele>209</ele>
        <time>2017-03-26T16:01:29Z</time>
      </trkpt>
      <trkpt lat="45.14146" lon="5.30371">
        <ele>209.05</ele>
        <time>2017-03-26T16:01:30Z</time>
      </trkpt>
      <trkpt lat="45.14152" lon="5.30379">
        <ele>209.07</ele>
        <time>2017-03-26T16:01:31Z</time>
      </trkpt>
      <trkpt lat="45.1416" lon="5.30389">
        <ele>209.15</ele>
        <time>2017-03-26T16:01:32Z</time>
      </trkpt>
      <trkpt lat="45.14169" lon="5.30401">
        <ele>209.16</ele>
        <time>2017-03-26T16:01:33Z</time>
      </trkpt>
      <trkpt lat="45.14177" lon="5.30412">
        <ele>209.17</ele>
        <time>2017-03-26T16:01:34Z</time>
      </trkpt>
      <trkpt lat="45.14185" lon="5.30423">
        <ele>209.25</ele>
        <time>2017-03-26T16:01:35Z</time>
      </trkpt>
      <trkpt lat="45.14193" lon="5.30434">
        <ele>209.26</ele>
        <time>2017-03-26T16:01:36Z</time>
      </trkpt>
      <trkpt lat="45.14199" lon="5.30443">
        <ele>209.19</ele>
        <time>2017-03-26T16:01:37Z</time>
      </trkpt>
      <trkpt lat="45.14205" lon="5.30451">
        <ele>209.25</ele>
        <time>2017-03-26T16:01:38Z</time>
      </trkpt>
      <trkpt lat="45.1421" lon="5.30459">
        <ele>209.98</ele>
        <time>2017-03-26T16:01:39Z</time>
      </trkpt>
      <trkpt lat="45.14213" lon="5.30464">
        <ele>210.69</ele>
        <time>2017-03-26T16:01:40Z</time>
      </trkpt>
      <trkpt lat="45.14215" lon="5.30467">
        <ele>211.23</ele>
        <time>2017-03-26T16:01:41Z</time>
      </trkpt>
      <trkpt lat="45.14215" lon="5.30468">
        <ele>211.74</ele>
        <time>2017-03-26T16:01:42Z</time>
      </trkpt>
      <trkpt lat="45.14215" lon="5.30468">
        <ele>212.08</ele>
        <time>2017-03-26T16:01:43Z</time>
      </trkpt>
      <trkpt lat="45.14214" lon="5.30467">
        <ele>212.47</ele>
        <time>2017-03-26T16:01:44Z</time>
      </trkpt>
      <trkpt lat="45.14213" lon="5.30466">
        <ele>213.75</ele>
        <time>2017-03-26T16:01:45Z</time>
      </trkpt>
      <trkpt lat="45.14212" lon="5.30465">
        <ele>214.64</ele>
        <time>2017-03-26T16:01:46Z</time>
      </trkpt>
      <trkpt lat="45.14212" lon="5.30465">
        <ele>214.82</ele>
        <time>2017-03-26T16:01:47Z</time>
      </trkpt>
      <trkpt lat="45.14212" lon="5.30465">
        <ele>214.86</ele>
        <time>2017-03-26T16:01:48Z</time>
      </trkpt>
      <trkpt lat="45.14212" lon="5.30465">
        <ele>214.87</ele>
        <time>2017-03-26T16:01:49Z</time>
      </trkpt>
      <trkpt lat="45.14212" lon="5.30465">
        <ele>214.87</ele>
        <time>2017-03-26T16:01:50Z</time>
      </trkpt>
      <trkpt lat="45.14212" lon="5.30465">
        <ele>214.87</ele>
        <time>2017-03-26T16:01:51Z</time>
      </trkpt>
      <trkpt lat="45.14212" lon="5.30465">
        <ele>214.87</ele>
        <time>2017-03-26T16:01:52Z</time>
      </trkpt>
      <trkpt lat="45.14212" lon="5.30465">
        <ele>214.87</ele>
        <time>2017-03-26T16:01:53Z</time>
      </trkpt>
      <trkpt lat="45.14212" lon="5.30465">
        <ele>214.87</ele>
        <time>2017-03-26T16:01:54Z</time>
      </trkpt>
      <trkpt lat="45.14212" lon="5.30465">
        <ele>214.87</ele>
        <time>2017-03-26T16:01:55Z</time>
      </trkpt>
      <trkpt lat="45.14212" lon="5.30465">
        <ele>214.87</ele>
        <time>2017-03-26T16:01:56Z</time>
      </trkpt>
      <trkpt lat="45.1421" lon="5.30468">
        <ele>215.67</ele>
        <time>2017-03-26T16:01:57Z</time>
      </trkpt>
      <trkpt lat="45.14209" lon="5.30471">
        <ele>215.75</ele>
        <time>2017-03-26T16:01:58Z</time>
      </trkpt>
      <trkpt lat="45.14208" lon="5.30474">
        <ele>215.76</ele>
        <time>2017-03-26T16:01:59Z</time>
      </trkpt>
      <trkpt lat="45.14206" lon="5.30479">
        <ele>215.69</ele>
        <time>2017-03-26T16:02:00Z</time>
      </trkpt>
      <trkpt lat="45.14204" lon="5.30485">
        <ele>215.59</ele>
        <time>2017-03-26T16:02:01Z</time>
      </trkpt>
      <trkpt lat="45.14201" lon="5.30492">
        <ele>215.57</ele>
        <time>2017-03-26T16:02:02Z</time>
      </trkpt>
      <trkpt lat="45.14197" lon="5.305">
        <ele>215.49</ele>
        <time>2017-03-26T16:02:03Z</time>
      </trkpt>
      <trkpt lat="45.14193" lon="5.3051">
        <ele>215.39</ele>
        <time>2017-03-26T16:02:04Z</time>
      </trkpt>
      <trkpt lat="45.14187" lon="5.30521">
        <ele>215.37</ele>
        <time>2017-03-26T16:02:05Z</time>
      </trkpt>
      <trkpt lat="45.14179" lon="5.30536">
        <ele>215.29</ele>
        <time>2017-03-26T16:02:06Z</time>
      </trkpt>
      <trkpt lat="45.14171" lon="5.30553">
        <ele>215.19</ele>
        <time>2017-03-26T16:02:07Z</time>
      </trkpt>
      <trkpt lat="45.14162" lon="5.30569">
        <ele>215.09</ele>
        <time>2017-03-26T16:02:08Z</time>
      </trkpt>
      <trkpt lat="45.14153" lon="5.30587">
        <ele>214.99</ele>
        <time>2017-03-26T16:02:09Z</time>
      </trkpt>
      <trkpt lat="45.14143" lon="5.30606">
        <ele>214.89</ele>
        <time>2017-03-26T16:02:10Z</time>
      </trkpt>
      <trkpt lat="45.14133" lon="5.30624">
        <ele>214.79</ele>
        <time>2017-03-26T16:02:11Z</time>
      </trkpt>
      <trkpt lat="45.14123" lon="5.30642">
        <ele>214.69</ele>
        <time>2017-03-26T16:02:12Z</time>
      </trkpt>
      <trkpt lat="45.14113" lon="5.30661">
        <ele>214.67</ele>
        <time>2017-03-26T16:02:13Z</time>
      </trkpt>
      <trkpt lat="45.14102" lon="5.30678">
        <ele>214.59</ele>
        <time>2017-03-26T16:02:14Z</time>
      </trkpt>
      <trkpt lat="45.14092" lon="5.30696">
        <ele>214.49</ele>
        <time>2017-03-26T16:02:15Z</time>
      </trkpt>
      <trkpt lat="45.14082" lon="5.30713">
        <ele>214.39</ele>
        <time>2017-03-26T16:02:16Z</time>
      </trkpt>
      <trkpt lat="45.14073" lon="5.30728">
        <ele>214.29</ele>
        <time>2017-03-26T16:02:17Z</time>
      </trkpt>
      <trkpt lat="45.14065" lon="5.30742">
        <ele>214.19</ele>
        <time>2017-03-26T16:02:18Z</time>
      </trkpt>
      <trkpt lat="45.14057" lon="5.30754">
        <ele>214.09</ele>
        <time>2017-03-26T16:02:19Z</time>
      </trkpt>
      <trkpt lat="45.1405" lon="5.30765">
        <ele>213.99</ele>
        <time>2017-03-26T16:02:20Z</time>
      </trkpt>
      <trkpt lat="45.14042" lon="5.30777">
        <ele>213.97</ele>
        <time>2017-03-26T16:02:21Z</time>
      </trkpt>
      <trkpt lat="45.14035" lon="5.30789">
        <ele>213.89</ele>
        <time>2017-03-26T16:02:22Z</time>
      </trkpt>
      <trkpt lat="45.14026" lon="5.30803">
        <ele>213.79</ele>
        <time>2017-03-26T16:02:23Z</time>
      </trkpt>
      <trkpt lat="45.14016" lon="5.30817">
        <ele>213.69</ele>
        <time>2017-03-26T16:02:24Z</time>
      </trkpt>
      <trkpt lat="45.14007" lon="5.30831">
        <ele>213.67</ele>
        <time>2017-03-26T16:02:25Z</time>
      </trkpt>
      <trkpt lat="45.13997" lon="5.30846">
        <ele>213.59</ele>
        <time>2017-03-26T16:02:26Z</time>
      </trkpt>
      <trkpt lat="45.13988" lon="5.3086">
        <ele>213.49</ele>
        <time>2017-03-26T16:02:27Z</time>
      </trkpt>
      <trkpt lat="45.13979" lon="5.30873">
        <ele>213.39</ele>
        <time>2017-03-26T16:02:28Z</time>
      </trkpt>
      <trkpt lat="45.13971" lon="5.30885">
        <ele>213.29</ele>
        <time>2017-03-26T16:02:29Z</time>
      </trkpt>
      <trkpt lat="45.13965" lon="5.30897">
        <ele>213.27</ele>
        <time>2017-03-26T16:02:30Z</time>
      </trkpt>
      <trkpt lat="45.13962" lon="5.30907">
        <ele>213.19</ele>
        <time>2017-03-26T16:02:31Z</time>
      </trkpt>
      <trkpt lat="45.13965" lon="5.30917">
        <ele>212.93</ele>
        <time>2017-03-26T16:02:32Z</time>
      </trkpt>
      <trkpt lat="45.13969" lon="5.30924">
        <ele>212.8</ele>
        <time>2017-03-26T16:02:33Z</time>
      </trkpt>
      <trkpt lat="45.13974" lon="5.30932">
        <ele>212.69</ele>
        <time>2017-03-26T16:02:34Z</time>
      </trkpt>
      <trkpt lat="45.13982" lon="5.3094">
        <ele>212.59</ele>
        <time>2017-03-26T16:02:35Z</time>
      </trkpt>
      <trkpt lat="45.13991" lon="5.30948">
        <ele>212.49</ele>
        <time>2017-03-26T16:02:36Z</time>
      </trkpt>
      <trkpt lat="45.13998" lon="5.30957">
        <ele>212.39</ele>
        <time>2017-03-26T16:02:37Z</time>
      </trkpt>
      <trkpt lat="45.14004" lon="5.30966">
        <ele>212.21</ele>
        <time>2017-03-26T16:02:38Z</time>
      </trkpt>
      <trkpt lat="45.14007" lon="5.30973">
        <ele>212.02</ele>
        <time>2017-03-26T16:02:39Z</time>
      </trkpt>
      <trkpt lat="45.14009" lon="5.30981">
        <ele>211.82</ele>
        <time>2017-03-26T16:02:40Z</time>
      </trkpt>
      <trkpt lat="45.14006" lon="5.30987">
        <ele>211.62</ele>
        <time>2017-03-26T16:02:41Z</time>
      </trkpt>
      <trkpt lat="45.14003" lon="5.30992">
        <ele>211.5</ele>
        <time>2017-03-26T16:02:42Z</time>
      </trkpt>
      <trkpt lat="45.14" lon="5.30997">
        <ele>211.31</ele>
        <time>2017-03-26T16:02:43Z</time>
      </trkpt>
      <trkpt lat="45.13997" lon="5.31002">
        <ele>211.2</ele>
        <time>2017-03-26T16:02:44Z</time>
      </trkpt>
      <trkpt lat="45.13994" lon="5.31008">
        <ele>211.09</ele>
        <time>2017-03-26T16:02:45Z</time>
      </trkpt>
      <trkpt lat="45.13991" lon="5.31013">
        <ele>210.99</ele>
        <time>2017-03-26T16:02:46Z</time>
      </trkpt>
      <trkpt lat="45.13989" lon="5.31019">
        <ele>210.81</ele>
        <time>2017-03-26T16:02:47Z</time>
      </trkpt>
      <trkpt lat="45.13986" lon="5.31026">
        <ele>210.62</ele>
        <time>2017-03-26T16:02:48Z</time>
      </trkpt>
      <trkpt lat="45.13982" lon="5.31034">
        <ele>210.42</ele>
        <time>2017-03-26T16:02:49Z</time>
      </trkpt>
      <trkpt lat="45.13978" lon="5.31043">
        <ele>210.22</ele>
        <time>2017-03-26T16:02:50Z</time>
      </trkpt>
      <trkpt lat="45.13973" lon="5.31052">
        <ele>210.02</ele>
        <time>2017-03-26T16:02:51Z</time>
      </trkpt>
      <trkpt lat="45.13968" lon="5.31062">
        <ele>209.74</ele>
        <time>2017-03-26T16:02:52Z</time>
      </trkpt>
      <trkpt lat="45.13963" lon="5.31071">
        <ele>209.52</ele>
        <time>2017-03-26T16:02:53Z</time>
      </trkpt>
      <trkpt lat="45.13958" lon="5.31079">
        <ele>209.32</ele>
        <time>2017-03-26T16:02:54Z</time>
      </trkpt>
      <trkpt lat="45.13954" lon="5.31086">
        <ele>209.2</ele>
        <time>2017-03-26T16:02:55Z</time>
      </trkpt>
      <trkpt lat="45.13949" lon="5.31093">
        <ele>209.09</ele>
        <time>2017-03-26T16:02:56Z</time>
      </trkpt>
      <trkpt lat="45.13945" lon="5.311">
        <ele>208.99</ele>
        <time>2017-03-26T16:02:57Z</time>
      </trkpt>
      <trkpt lat="45.13942" lon="5.31105">
        <ele>208.97</ele>
        <time>2017-03-26T16:02:58Z</time>
      </trkpt>
      <trkpt lat="45.1394" lon="5.31108">
        <ele>209.13</ele>
        <time>2017-03-26T16:02:59Z</time>
      </trkpt>
      <trkpt lat="45.13938" lon="5.31111">
        <ele>209.16</ele>
        <time>2017-03-26T16:03:00Z</time>
      </trkpt>
      <trkpt lat="45.13935" lon="5.31115">
        <ele>208.93</ele>
        <time>2017-03-26T16:03:01Z</time>
      </trkpt>
      <trkpt lat="45.13931" lon="5.31119">
        <ele>209.2</ele>
        <time>2017-03-26T16:03:02Z</time>
      </trkpt>
      <trkpt lat="45.13926" lon="5.31123">
        <ele>209.49</ele>
        <time>2017-03-26T16:03:03Z</time>
      </trkpt>
      <trkpt lat="45.13921" lon="5.3113">
        <ele>209.63</ele>
        <time>2017-03-26T16:03:04Z</time>
      </trkpt>
      <trkpt lat="45.13915" lon="5.31137">
        <ele>209.74</ele>
        <time>2017-03-26T16:03:05Z</time>
      </trkpt>
      <trkpt lat="45.13907" lon="5.31147">
        <ele>209.84</ele>
        <time>2017-03-26T16:03:06Z</time>
      </trkpt>
      <trkpt lat="45.13898" lon="5.31157">
        <ele>209.62</ele>
        <time>2017-03-26T16:03:07Z</time>
      </trkpt>
      <trkpt lat="45.13889" lon="5.31168">
        <ele>209.5</ele>
        <time>2017-03-26T16:03:08Z</time>
      </trkpt>
      <trkpt lat="45.13879" lon="5.31179">
        <ele>209.87</ele>
        <time>2017-03-26T16:03:09Z</time>
      </trkpt>
      <trkpt lat="45.13868" lon="5.3119">
        <ele>210.43</ele>
        <time>2017-03-26T16:03:10Z</time>
      </trkpt>
      <trkpt lat="45.13856" lon="5.31203">
        <ele>210.78</ele>
        <time>2017-03-26T16:03:11Z</time>
      </trkpt>
      <trkpt lat="45.13845" lon="5.31215">
        <ele>210.77</ele>
        <time>2017-03-26T16:03:12Z</time>
      </trkpt>
      <trkpt lat="45.13834" lon="5.31227">
        <ele>210.45</ele>
        <time>2017-03-26T16:03:13Z</time>
      </trkpt>
      <trkpt lat="45.13823" lon="5.31239">
        <ele>210.46</ele>
        <time>2017-03-26T16:03:14Z</time>
      </trkpt>
      <trkpt lat="45.13812" lon="5.31251">
        <ele>210.63</ele>
        <time>2017-03-26T16:03:15Z</time>
      </trkpt>
      <trkpt lat="45.13802" lon="5.31264">
        <ele>210.74</ele>
        <time>2017-03-26T16:03:16Z</time>
      </trkpt>
      <trkpt lat="45.13792" lon="5.31277">
        <ele>210.76</ele>
        <time>2017-03-26T16:03:17Z</time>
      </trkpt>
      <trkpt lat="45.13781" lon="5.31291">
        <ele>210.69</ele>
        <time>2017-03-26T16:03:18Z</time>
      </trkpt>
      <trkpt lat="45.13771" lon="5.31305">
        <ele>210.67</ele>
        <time>2017-03-26T16:03:19Z</time>
      </trkpt>
      <trkpt lat="45.13761" lon="5.3132">
        <ele>210.75</ele>
        <time>2017-03-26T16:03:20Z</time>
      </trkpt>
      <trkpt lat="45.13749" lon="5.31335">
        <ele>211.08</ele>
        <time>2017-03-26T16:03:21Z</time>
      </trkpt>
      <trkpt lat="45.13739" lon="5.31349">
        <ele>211.23</ele>
        <time>2017-03-26T16:03:22Z</time>
      </trkpt>
      <trkpt lat="45.13727" lon="5.31364">
        <ele>211.26</ele>
        <time>2017-03-26T16:03:23Z</time>
      </trkpt>
      <trkpt lat="45.13715" lon="5.31379">
        <ele>211.51</ele>
        <time>2017-03-26T16:03:24Z</time>
      </trkpt>
      <trkpt lat="45.13702" lon="5.31394">
        <ele>212.04</ele>
        <time>2017-03-26T16:03:25Z</time>
      </trkpt>
      <trkpt lat="45.1369" lon="5.3141">
        <ele>212.38</ele>
        <time>2017-03-26T16:03:26Z</time>
      </trkpt>
      <trkpt lat="45.13678" lon="5.31426">
        <ele>213.01</ele>
        <time>2017-03-26T16:03:27Z</time>
      </trkpt>
      <trkpt lat="45.13666" lon="5.31442">
        <ele>213.22</ele>
        <time>2017-03-26T16:03:28Z</time>
      </trkpt>
      <trkpt lat="45.13654" lon="5.31458">
        <ele>213.42</ele>
        <time>2017-03-26T16:03:29Z</time>
      </trkpt>
      <trkpt lat="45.13643" lon="5.31474">
        <ele>213.78</ele>
        <time>2017-03-26T16:03:30Z</time>
      </trkpt>
      <trkpt lat="45.13632" lon="5.3149">
        <ele>214.01</ele>
        <time>2017-03-26T16:03:31Z</time>
      </trkpt>
      <trkpt lat="45.13621" lon="5.31506">
        <ele>214.14</ele>
        <time>2017-03-26T16:03:32Z</time>
      </trkpt>
      <trkpt lat="45.13611" lon="5.31521">
        <ele>214.24</ele>
        <time>2017-03-26T16:03:33Z</time>
      </trkpt>
      <trkpt lat="45.136" lon="5.31538">
        <ele>214.58</ele>
        <time>2017-03-26T16:03:34Z</time>
      </trkpt>
      <trkpt lat="45.13589" lon="5.31553">
        <ele>215.05</ele>
        <time>2017-03-26T16:03:35Z</time>
      </trkpt>
      <trkpt lat="45.13579" lon="5.31568">
        <ele>215.62</ele>
        <time>2017-03-26T16:03:36Z</time>
      </trkpt>
      <trkpt lat="45.13569" lon="5.31582">
        <ele>216.22</ele>
        <time>2017-03-26T16:03:37Z</time>
      </trkpt>
      <trkpt lat="45.13561" lon="5.31595">
        <ele>216.58</ele>
        <time>2017-03-26T16:03:38Z</time>
      </trkpt>
      <trkpt lat="45.13556" lon="5.31604">
        <ele>217.05</ele>
        <time>2017-03-26T16:03:39Z</time>
      </trkpt>
      <trkpt lat="45.13552" lon="5.31614">
        <ele>217.22</ele>
        <time>2017-03-26T16:03:40Z</time>
      </trkpt>
      <trkpt lat="45.13555" lon="5.31622">
        <ele>216.7</ele>
        <time>2017-03-26T16:03:41Z</time>
      </trkpt>
      <trkpt lat="45.13559" lon="5.3163">
        <ele>216.43</ele>
        <time>2017-03-26T16:03:42Z</time>
      </trkpt>
      <trkpt lat="45.13563" lon="5.31639">
        <ele>216.38</ele>
        <time>2017-03-26T16:03:43Z</time>
      </trkpt>
      <trkpt lat="45.13571" lon="5.31647">
        <ele>216.53</ele>
        <time>2017-03-26T16:03:44Z</time>
      </trkpt>
      <trkpt lat="45.1358" lon="5.31658">
        <ele>216.64</ele>
        <time>2017-03-26T16:03:45Z</time>
      </trkpt>
      <trkpt lat="45.13591" lon="5.3167">
        <ele>216.74</ele>
        <time>2017-03-26T16:03:46Z</time>
      </trkpt>
      <trkpt lat="45.13605" lon="5.31684">
        <ele>216.84</ele>
        <time>2017-03-26T16:03:47Z</time>
      </trkpt>
      <trkpt lat="45.13617" lon="5.31698">
        <ele>217.02</ele>
        <time>2017-03-26T16:03:48Z</time>
      </trkpt>
      <trkpt lat="45.1363" lon="5.31713">
        <ele>217.14</ele>
        <time>2017-03-26T16:03:49Z</time>
      </trkpt>
      <trkpt lat="45.13643" lon="5.31728">
        <ele>217.32</ele>
        <time>2017-03-26T16:03:50Z</time>
      </trkpt>
      <trkpt lat="45.13656" lon="5.31744">
        <ele>217.44</ele>
        <time>2017-03-26T16:03:51Z</time>
      </trkpt>
      <trkpt lat="45.1367" lon="5.31761">
        <ele>217.54</ele>
        <time>2017-03-26T16:03:52Z</time>
      </trkpt>
      <trkpt lat="45.13683" lon="5.31778">
        <ele>217.64</ele>
        <time>2017-03-26T16:03:53Z</time>
      </trkpt>
      <trkpt lat="45.13696" lon="5.31795">
        <ele>217.82</ele>
        <time>2017-03-26T16:03:54Z</time>
      </trkpt>
      <trkpt lat="45.1371" lon="5.31813">
        <ele>218.02</ele>
        <time>2017-03-26T16:03:55Z</time>
      </trkpt>
      <trkpt lat="45.13723" lon="5.31831">
        <ele>218.14</ele>
        <time>2017-03-26T16:03:56Z</time>
      </trkpt>
      <trkpt lat="45.13736" lon="5.31848">
        <ele>218.32</ele>
        <time>2017-03-26T16:03:57Z</time>
      </trkpt>
      <trkpt lat="45.13748" lon="5.31865">
        <ele>218.52</ele>
        <time>2017-03-26T16:03:58Z</time>
      </trkpt>
      <trkpt lat="45.13759" lon="5.31881">
        <ele>218.72</ele>
        <time>2017-03-26T16:03:59Z</time>
      </trkpt>
      <trkpt lat="45.13769" lon="5.31897">
        <ele>218.92</ele>
        <time>2017-03-26T16:04:00Z</time>
      </trkpt>
      <trkpt lat="45.13779" lon="5.31911">
        <ele>219.12</ele>
        <time>2017-03-26T16:04:01Z</time>
      </trkpt>
      <trkpt lat="45.13788" lon="5.31925">
        <ele>219.32</ele>
        <time>2017-03-26T16:04:02Z</time>
      </trkpt>
      <trkpt lat="45.13796" lon="5.31938">
        <ele>219.52</ele>
        <time>2017-03-26T16:04:03Z</time>
      </trkpt>
      <trkpt lat="45.13804" lon="5.3195">
        <ele>219.72</ele>
        <time>2017-03-26T16:04:04Z</time>
      </trkpt>
      <trkpt lat="45.13812" lon="5.31962">
        <ele>220</ele>
        <time>2017-03-26T16:04:05Z</time>
      </trkpt>
      <trkpt lat="45.1382" lon="5.31973">
        <ele>220.21</ele>
        <time>2017-03-26T16:04:06Z</time>
      </trkpt>
      <trkpt lat="45.13828" lon="5.31986">
        <ele>220.42</ele>
        <time>2017-03-26T16:04:07Z</time>
      </trkpt>
      <trkpt lat="45.13836" lon="5.31998">
        <ele>220.62</ele>
        <time>2017-03-26T16:04:08Z</time>
      </trkpt>
      <trkpt lat="45.13845" lon="5.32012">
        <ele>220.74</ele>
        <time>2017-03-26T16:04:09Z</time>
      </trkpt>
      <trkpt lat="45.13854" lon="5.32026">
        <ele>220.92</ele>
        <time>2017-03-26T16:04:10Z</time>
      </trkpt>
      <trkpt lat="45.13863" lon="5.3204">
        <ele>221.04</ele>
        <time>2017-03-26T16:04:11Z</time>
      </trkpt>
      <trkpt lat="45.13873" lon="5.32056">
        <ele>221.22</ele>
        <time>2017-03-26T16:04:12Z</time>
      </trkpt>
      <trkpt lat="45.13884" lon="5.32072">
        <ele>221.34</ele>
        <time>2017-03-26T16:04:13Z</time>
      </trkpt>
      <trkpt lat="45.13895" lon="5.32089">
        <ele>221.52</ele>
        <time>2017-03-26T16:04:14Z</time>
      </trkpt>
      <trkpt lat="45.13906" lon="5.32107">
        <ele>221.64</ele>
        <time>2017-03-26T16:04:15Z</time>
      </trkpt>
      <trkpt lat="45.13918" lon="5.32125">
        <ele>221.74</ele>
        <time>2017-03-26T16:04:16Z</time>
      </trkpt>
      <trkpt lat="45.1393" lon="5.32144">
        <ele>222.08</ele>
        <time>2017-03-26T16:04:17Z</time>
      </trkpt>
      <trkpt lat="45.13941" lon="5.32161">
        <ele>222.63</ele>
        <time>2017-03-26T16:04:18Z</time>
      </trkpt>
      <trkpt lat="45.13951" lon="5.32176">
        <ele>223.3</ele>
        <time>2017-03-26T16:04:19Z</time>
      </trkpt>
      <trkpt lat="45.13958" lon="5.32186">
        <ele>223.67</ele>
        <time>2017-03-26T16:04:20Z</time>
      </trkpt>
      <trkpt lat="45.13961" lon="5.32193">
        <ele>224.07</ele>
        <time>2017-03-26T16:04:21Z</time>
      </trkpt>
      <trkpt lat="45.13964" lon="5.32198">
        <ele>223.67</ele>
        <time>2017-03-26T16:04:22Z</time>
      </trkpt>
      <trkpt lat="45.13964" lon="5.32199">
        <ele>223.35</ele>
        <time>2017-03-26T16:04:23Z</time>
      </trkpt>
      <trkpt lat="45.13964" lon="5.322">
        <ele>223.28</ele>
        <time>2017-03-26T16:04:24Z</time>
      </trkpt>
      <trkpt lat="45.13963" lon="5.32199">
        <ele>223.19</ele>
        <time>2017-03-26T16:04:25Z</time>
      </trkpt>
      <trkpt lat="45.13963" lon="5.32199">
        <ele>223.17</ele>
        <time>2017-03-26T16:04:26Z</time>
      </trkpt>
      <trkpt lat="45.13963" lon="5.32199">
        <ele>223.17</ele>
        <time>2017-03-26T16:04:27Z</time>
      </trkpt>
      <trkpt lat="45.13963" lon="5.32199">
        <ele>223.17</ele>
        <time>2017-03-26T16:04:28Z</time>
      </trkpt>
      <trkpt lat="45.13961" lon="5.32204">
        <ele>223.17</ele>
        <time>2017-03-26T16:04:29Z</time>
      </trkpt>
      <trkpt lat="45.13959" lon="5.3221">
        <ele>223.09</ele>
        <time>2017-03-26T16:04:30Z</time>
      </trkpt>
      <trkpt lat="45.13954" lon="5.32216">
        <ele>222.83</ele>
        <time>2017-03-26T16:04:31Z</time>
      </trkpt>
      <trkpt lat="45.13947" lon="5.32222">
        <ele>222.46</ele>
        <time>2017-03-26T16:04:32Z</time>
      </trkpt>
      <trkpt lat="45.13941" lon="5.32229">
        <ele>222.23</ele>
        <time>2017-03-26T16:04:33Z</time>
      </trkpt>
      <trkpt lat="45.13934" lon="5.32238">
        <ele>222.1</ele>
        <time>2017-03-26T16:04:34Z</time>
      </trkpt>
      <trkpt lat="45.13927" lon="5.32247">
        <ele>222.15</ele>
        <time>2017-03-26T16:04:35Z</time>
      </trkpt>
      <trkpt lat="45.1392" lon="5.32256">
        <ele>222.17</ele>
        <time>2017-03-26T16:04:36Z</time>
      </trkpt>
      <trkpt lat="45.13913" lon="5.32265">
        <ele>222.49</ele>
        <time>2017-03-26T16:04:37Z</time>
      </trkpt>
      <trkpt lat="45.13905" lon="5.32274">
        <ele>222.63</ele>
        <time>2017-03-26T16:04:38Z</time>
      </trkpt>
      <trkpt lat="45.13898" lon="5.32282">
        <ele>222.9</ele>
        <time>2017-03-26T16:04:39Z</time>
      </trkpt>
      <trkpt lat="45.1389" lon="5.3229">
        <ele>222.63</ele>
        <time>2017-03-26T16:04:40Z</time>
      </trkpt>
      <trkpt lat="45.13883" lon="5.32296">
        <ele>221.54</ele>
        <time>2017-03-26T16:04:41Z</time>
      </trkpt>
      <trkpt lat="45.13876" lon="5.32299">
        <ele>221.8</ele>
        <time>2017-03-26T16:04:42Z</time>
      </trkpt>
      <trkpt lat="45.13869" lon="5.32299">
        <ele>222.65</ele>
        <time>2017-03-26T16:04:43Z</time>
      </trkpt>
      <trkpt lat="45.13863" lon="5.32298">
        <ele>222.83</ele>
        <time>2017-03-26T16:04:44Z</time>
      </trkpt>
      <trkpt lat="45.13857" lon="5.32296">
        <ele>222.62</ele>
        <time>2017-03-26T16:04:45Z</time>
      </trkpt>
      <trkpt lat="45.13852" lon="5.32292">
        <ele>222.1</ele>
        <time>2017-03-26T16:04:46Z</time>
      </trkpt>
      <trkpt lat="45.13846" lon="5.32287">
        <ele>221.83</ele>
        <time>2017-03-26T16:04:47Z</time>
      </trkpt>
      <trkpt lat="45.13838" lon="5.3228">
        <ele>221.7</ele>
        <time>2017-03-26T16:04:48Z</time>
      </trkpt>
      <trkpt lat="45.1383" lon="5.32272">
        <ele>221.51</ele>
        <time>2017-03-26T16:04:49Z</time>
      </trkpt>
      <trkpt lat="45.13821" lon="5.32265">
        <ele>221.4</ele>
        <time>2017-03-26T16:04:50Z</time>
      </trkpt>
      <trkpt lat="45.13812" lon="5.32261">
        <ele>219.77</ele>
        <time>2017-03-26T16:04:51Z</time>
      </trkpt>
      <trkpt lat="45.13804" lon="5.32262">
        <ele>218.01</ele>
        <time>2017-03-26T16:04:52Z</time>
      </trkpt>
      <trkpt lat="45.13797" lon="5.32268">
        <ele>216.06</ele>
        <time>2017-03-26T16:04:53Z</time>
      </trkpt>
      <trkpt lat="45.13792" lon="5.32279">
        <ele>214.39</ele>
        <time>2017-03-26T16:04:54Z</time>
      </trkpt>
      <trkpt lat="45.13789" lon="5.32294">
        <ele>212.61</ele>
        <time>2017-03-26T16:04:55Z</time>
      </trkpt>
      <trkpt lat="45.13788" lon="5.32309">
        <ele>211.46</ele>
        <time>2017-03-26T16:04:56Z</time>
      </trkpt>
      <trkpt lat="45.13791" lon="5.32326">
        <ele>210.11</ele>
        <time>2017-03-26T16:04:57Z</time>
      </trkpt>
      <trkpt lat="45.13796" lon="5.32342">
        <ele>208.72</ele>
        <time>2017-03-26T16:04:58Z</time>
      </trkpt>
      <trkpt lat="45.13804" lon="5.32357">
        <ele>207.4</ele>
        <time>2017-03-26T16:04:59Z</time>
      </trkpt>
      <trkpt lat="45.13814" lon="5.3237">
        <ele>206.17</ele>
        <time>2017-03-26T16:05:00Z</time>
      </trkpt>
      <trkpt lat="45.13826" lon="5.32382">
        <ele>204.89</ele>
        <time>2017-03-26T16:05:01Z</time>
      </trkpt>
      <trkpt lat="45.1384" lon="5.32393">
        <ele>203.59</ele>
        <time>2017-03-26T16:05:02Z</time>
      </trkpt>
      <trkpt lat="45.13854" lon="5.32404">
        <ele>202.53</ele>
        <time>2017-03-26T16:05:03Z</time>
      </trkpt>
      <trkpt lat="45.13868" lon="5.32416">
        <ele>201.6</ele>
        <time>2017-03-26T16:05:04Z</time>
      </trkpt>
      <trkpt lat="45.13882" lon="5.32429">
        <ele>201.17</ele>
        <time>2017-03-26T16:05:05Z</time>
      </trkpt>
      <trkpt lat="45.13897" lon="5.32442">
        <ele>200.05</ele>
        <time>2017-03-26T16:05:06Z</time>
      </trkpt>
      <trkpt lat="45.13911" lon="5.32455">
        <ele>199.18</ele>
        <time>2017-03-26T16:05:07Z</time>
      </trkpt>
      <trkpt lat="45.13925" lon="5.32467">
        <ele>199.41</ele>
        <time>2017-03-26T16:05:08Z</time>
      </trkpt>
      <trkpt lat="45.13939" lon="5.32477">
        <ele>198.9</ele>
        <time>2017-03-26T16:05:09Z</time>
      </trkpt>
      <trkpt lat="45.13953" lon="5.32485">
        <ele>197.59</ele>
        <time>2017-03-26T16:05:10Z</time>
      </trkpt>
      <trkpt lat="45.13966" lon="5.32491">
        <ele>196.69</ele>
        <time>2017-03-26T16:05:11Z</time>
      </trkpt>
      <trkpt lat="45.13979" lon="5.32495">
        <ele>196.03</ele>
        <time>2017-03-26T16:05:12Z</time>
      </trkpt>
      <trkpt lat="45.13992" lon="5.325">
        <ele>195.66</ele>
        <time>2017-03-26T16:05:13Z</time>
      </trkpt>
      <trkpt lat="45.14004" lon="5.32507">
        <ele>195.59</ele>
        <time>2017-03-26T16:05:14Z</time>
      </trkpt>
      <trkpt lat="45.14014" lon="5.32516">
        <ele>196.21</ele>
        <time>2017-03-26T16:05:15Z</time>
      </trkpt>
      <trkpt lat="45.14022" lon="5.32527">
        <ele>196.34</ele>
        <time>2017-03-26T16:05:16Z</time>
      </trkpt>
      <trkpt lat="45.14028" lon="5.32539">
        <ele>196.28</ele>
        <time>2017-03-26T16:05:17Z</time>
      </trkpt>
      <trkpt lat="45.1403" lon="5.32552">
        <ele>196.43</ele>
        <time>2017-03-26T16:05:18Z</time>
      </trkpt>
      <trkpt lat="45.14032" lon="5.32563">
        <ele>196.86</ele>
        <time>2017-03-26T16:05:19Z</time>
      </trkpt>
      <trkpt lat="45.14032" lon="5.32572">
        <ele>197.51</ele>
        <time>2017-03-26T16:05:20Z</time>
      </trkpt>
      <trkpt lat="45.14031" lon="5.32578">
        <ele>198.12</ele>
        <time>2017-03-26T16:05:21Z</time>
      </trkpt>
      <trkpt lat="45.14031" lon="5.32581">
        <ele>198.56</ele>
        <time>2017-03-26T16:05:22Z</time>
      </trkpt>
      <trkpt lat="45.14031" lon="5.32583">
        <ele>198.81</ele>
        <time>2017-03-26T16:05:23Z</time>
      </trkpt>
      <trkpt lat="45.1403" lon="5.32586">
        <ele>199.02</ele>
        <time>2017-03-26T16:05:24Z</time>
      </trkpt>
      <trkpt lat="45.1403" lon="5.3259">
        <ele>199.62</ele>
        <time>2017-03-26T16:05:25Z</time>
      </trkpt>
      <trkpt lat="45.14027" lon="5.32598">
        <ele>200.22</ele>
        <time>2017-03-26T16:05:26Z</time>
      </trkpt>
      <trkpt lat="45.14023" lon="5.32606">
        <ele>200.26</ele>
        <time>2017-03-26T16:05:27Z</time>
      </trkpt>
      <trkpt lat="45.14018" lon="5.32615">
        <ele>200.27</ele>
        <time>2017-03-26T16:05:28Z</time>
      </trkpt>
      <trkpt lat="45.14013" lon="5.32623">
        <ele>200.11</ele>
        <time>2017-03-26T16:05:29Z</time>
      </trkpt>
      <trkpt lat="45.14007" lon="5.32633">
        <ele>199.92</ele>
        <time>2017-03-26T16:05:30Z</time>
      </trkpt>
      <trkpt lat="45.14002" lon="5.32643">
        <ele>199.64</ele>
        <time>2017-03-26T16:05:31Z</time>
      </trkpt>
      <trkpt lat="45.13996" lon="5.32655">
        <ele>199.42</ele>
        <time>2017-03-26T16:05:32Z</time>
      </trkpt>
      <trkpt lat="45.1399" lon="5.32667">
        <ele>199.22</ele>
        <time>2017-03-26T16:05:33Z</time>
      </trkpt>
      <trkpt lat="45.13983" lon="5.32678">
        <ele>199.02</ele>
        <time>2017-03-26T16:05:34Z</time>
      </trkpt>
      <trkpt lat="45.13976" lon="5.32689">
        <ele>198.82</ele>
        <time>2017-03-26T16:05:35Z</time>
      </trkpt>
      <trkpt lat="45.13969" lon="5.32698">
        <ele>198.62</ele>
        <time>2017-03-26T16:05:36Z</time>
      </trkpt>
      <trkpt lat="45.13961" lon="5.32703">
        <ele>198.42</ele>
        <time>2017-03-26T16:05:37Z</time>
      </trkpt>
      <trkpt lat="45.13952" lon="5.32707">
        <ele>198.14</ele>
        <time>2017-03-26T16:05:38Z</time>
      </trkpt>
      <trkpt lat="45.13942" lon="5.32706">
        <ele>197.92</ele>
        <time>2017-03-26T16:05:39Z</time>
      </trkpt>
      <trkpt lat="45.13932" lon="5.32702">
        <ele>197.72</ele>
        <time>2017-03-26T16:05:40Z</time>
      </trkpt>
      <trkpt lat="45.13921" lon="5.32695">
        <ele>197.52</ele>
        <time>2017-03-26T16:05:41Z</time>
      </trkpt>
      <trkpt lat="45.13912" lon="5.32688">
        <ele>197.32</ele>
        <time>2017-03-26T16:05:42Z</time>
      </trkpt>
      <trkpt lat="45.13903" lon="5.32679">
        <ele>197.12</ele>
        <time>2017-03-26T16:05:43Z</time>
      </trkpt>
      <trkpt lat="45.13894" lon="5.32669">
        <ele>196.84</ele>
        <time>2017-03-26T16:05:44Z</time>
      </trkpt>
      <trkpt lat="45.13885" lon="5.3266">
        <ele>196.62</ele>
        <time>2017-03-26T16:05:45Z</time>
      </trkpt>
      <trkpt lat="45.13877" lon="5.3265">
        <ele>196.42</ele>
        <time>2017-03-26T16:05:46Z</time>
      </trkpt>
      <trkpt lat="45.13868" lon="5.32641">
        <ele>196.22</ele>
        <time>2017-03-26T16:05:47Z</time>
      </trkpt>
      <trkpt lat="45.1386" lon="5.32633">
        <ele>196.02</ele>
        <time>2017-03-26T16:05:48Z</time>
      </trkpt>
      <trkpt lat="45.13853" lon="5.32625">
        <ele>195.9</ele>
        <time>2017-03-26T16:05:49Z</time>
      </trkpt>
      <trkpt lat="45.13846" lon="5.32618">
        <ele>195.87</ele>
        <time>2017-03-26T16:05:50Z</time>
      </trkpt>
      <trkpt lat="45.1384" lon="5.32612">
        <ele>195.71</ele>
        <time>2017-03-26T16:05:51Z</time>
      </trkpt>
      <trkpt lat="45.13835" lon="5.32607">
        <ele>195.6</ele>
        <time>2017-03-26T16:05:52Z</time>
      </trkpt>
      <trkpt lat="45.13831" lon="5.32604">
        <ele>195.41</ele>
        <time>2017-03-26T16:05:53Z</time>
      </trkpt>
      <trkpt lat="45.13828" lon="5.32602">
        <ele>195.22</ele>
        <time>2017-03-26T16:05:54Z</time>
      </trkpt>
      <trkpt lat="45.13823" lon="5.32598">
        <ele>195.02</ele>
        <time>2017-03-26T16:05:55Z</time>
      </trkpt>
      <trkpt lat="45.13818" lon="5.32591">
        <ele>194.66</ele>
        <time>2017-03-26T16:05:56Z</time>
      </trkpt>
      <trkpt lat="45.1381" lon="5.32583">
        <ele>194.35</ele>
        <time>2017-03-26T16:05:57Z</time>
      </trkpt>
      <trkpt lat="45.13801" lon="5.32574">
        <ele>194.12</ele>
        <time>2017-03-26T16:05:58Z</time>
      </trkpt>
      <trkpt lat="45.13793" lon="5.32565">
        <ele>193.92</ele>
        <time>2017-03-26T16:05:59Z</time>
      </trkpt>
      <trkpt lat="45.13782" lon="5.32556">
        <ele>193.72</ele>
        <time>2017-03-26T16:06:00Z</time>
      </trkpt>
      <trkpt lat="45.13772" lon="5.32547">
        <ele>193.6</ele>
        <time>2017-03-26T16:06:01Z</time>
      </trkpt>
      <trkpt lat="45.13761" lon="5.32538">
        <ele>193.49</ele>
        <time>2017-03-26T16:06:02Z</time>
      </trkpt>
      <trkpt lat="45.13749" lon="5.32527">
        <ele>193.39</ele>
        <time>2017-03-26T16:06:03Z</time>
      </trkpt>
      <trkpt lat="45.13737" lon="5.32517">
        <ele>193.29</ele>
        <time>2017-03-26T16:06:04Z</time>
      </trkpt>
      <trkpt lat="45.13725" lon="5.32506">
        <ele>193.27</ele>
        <time>2017-03-26T16:06:05Z</time>
      </trkpt>
      <trkpt lat="45.13713" lon="5.32495">
        <ele>193.19</ele>
        <time>2017-03-26T16:06:06Z</time>
      </trkpt>
      <trkpt lat="45.137" lon="5.32484">
        <ele>193.17</ele>
        <time>2017-03-26T16:06:07Z</time>
      </trkpt>
      <trkpt lat="45.13687" lon="5.32473">
        <ele>193.25</ele>
        <time>2017-03-26T16:06:08Z</time>
      </trkpt>
      <trkpt lat="45.13673" lon="5.32465">
        <ele>193.18</ele>
        <time>2017-03-26T16:06:09Z</time>
      </trkpt>
      <trkpt lat="45.13658" lon="5.3246">
        <ele>193.09</ele>
        <time>2017-03-26T16:06:10Z</time>
      </trkpt>
      <trkpt lat="45.13643" lon="5.32457">
        <ele>192.83</ele>
        <time>2017-03-26T16:06:11Z</time>
      </trkpt>
      <trkpt lat="45.13626" lon="5.3246">
        <ele>192.54</ele>
        <time>2017-03-26T16:06:12Z</time>
      </trkpt>
      <trkpt lat="45.1361" lon="5.32467">
        <ele>192.24</ele>
        <time>2017-03-26T16:06:13Z</time>
      </trkpt>
      <trkpt lat="45.13593" lon="5.32474">
        <ele>191.94</ele>
        <time>2017-03-26T16:06:14Z</time>
      </trkpt>
      <trkpt lat="45.13576" lon="5.32484">
        <ele>191.72</ele>
        <time>2017-03-26T16:06:15Z</time>
      </trkpt>
      <trkpt lat="45.13558" lon="5.32498">
        <ele>191.44</ele>
        <time>2017-03-26T16:06:16Z</time>
      </trkpt>
      <trkpt lat="45.13542" lon="5.3251">
        <ele>191.22</ele>
        <time>2017-03-26T16:06:17Z</time>
      </trkpt>
      <trkpt lat="45.13526" lon="5.32518">
        <ele>191.1</ele>
        <time>2017-03-26T16:06:18Z</time>
      </trkpt>
      <trkpt lat="45.13511" lon="5.32522">
        <ele>190.99</ele>
        <time>2017-03-26T16:06:19Z</time>
      </trkpt>
      <trkpt lat="45.13496" lon="5.32523">
        <ele>190.89</ele>
        <time>2017-03-26T16:06:20Z</time>
      </trkpt>
      <trkpt lat="45.13483" lon="5.32518">
        <ele>190.71</ele>
        <time>2017-03-26T16:06:21Z</time>
      </trkpt>
      <trkpt lat="45.13471" lon="5.32509">
        <ele>190.6</ele>
        <time>2017-03-26T16:06:22Z</time>
      </trkpt>
      <trkpt lat="45.13464" lon="5.32497">
        <ele>190.49</ele>
        <time>2017-03-26T16:06:23Z</time>
      </trkpt>
      <trkpt lat="45.13459" lon="5.32484">
        <ele>190.39</ele>
        <time>2017-03-26T16:06:24Z</time>
      </trkpt>
      <trkpt lat="45.13461" lon="5.32473">
        <ele>190.29</ele>
        <time>2017-03-26T16:06:25Z</time>
      </trkpt>
      <trkpt lat="45.13471" lon="5.32461">
        <ele>190.35</ele>
        <time>2017-03-26T16:06:26Z</time>
      </trkpt>
      <trkpt lat="45.1348" lon="5.32458">
        <ele>190.6</ele>
        <time>2017-03-26T16:06:27Z</time>
      </trkpt>
      <trkpt lat="45.13492" lon="5.32462">
        <ele>190.5</ele>
        <time>2017-03-26T16:06:28Z</time>
      </trkpt>
      <trkpt lat="45.13513" lon="5.32474">
        <ele>190.47</ele>
        <time>2017-03-26T16:06:29Z</time>
      </trkpt>
      <trkpt lat="45.13527" lon="5.32492">
        <ele>190.31</ele>
        <time>2017-03-26T16:06:30Z</time>
      </trkpt>
      <trkpt lat="45.13545" lon="5.32513">
        <ele>190.04</ele>
        <time>2017-03-26T16:06:31Z</time>
      </trkpt>
      <trkpt lat="45.13562" lon="5.32541">
        <ele>189.58</ele>
        <time>2017-03-26T16:06:32Z</time>
      </trkpt>
      <trkpt lat="45.13581" lon="5.32578">
        <ele>189.09</ele>
        <time>2017-03-26T16:06:33Z</time>
      </trkpt>
      <trkpt lat="45.13605" lon="5.32619">
        <ele>188.51</ele>
        <time>2017-03-26T16:06:34Z</time>
      </trkpt>
      <trkpt lat="45.13631" lon="5.32666">
        <ele>188.08</ele>
        <time>2017-03-26T16:06:35Z</time>
      </trkpt>
      <trkpt lat="45.13652" lon="5.32712">
        <ele>187.67</ele>
        <time>2017-03-26T16:06:36Z</time>
      </trkpt>
      <trkpt lat="45.13674" lon="5.32762">
        <ele>187.35</ele>
        <time>2017-03-26T16:06:37Z</time>
      </trkpt>
      <trkpt lat="45.13695" lon="5.32811">
        <ele>187.04</ele>
        <time>2017-03-26T16:06:38Z</time>
      </trkpt>
      <trkpt lat="45.13715" lon="5.32858">
        <ele>186.74</ele>
        <time>2017-03-26T16:06:39Z</time>
      </trkpt>
      <trkpt lat="45.13734" lon="5.32904">
        <ele>186.44</ele>
        <time>2017-03-26T16:06:40Z</time>
      </trkpt>
      <trkpt lat="45.13754" lon="5.32949">
        <ele>186.06</ele>
        <time>2017-03-26T16:06:41Z</time>
      </trkpt>
      <trkpt lat="45.13771" lon="5.32991">
        <ele>185.67</ele>
        <time>2017-03-26T16:06:42Z</time>
      </trkpt>
      <trkpt lat="45.13789" lon="5.33033">
        <ele>185.35</ele>
        <time>2017-03-26T16:06:43Z</time>
      </trkpt>
      <trkpt lat="45.13806" lon="5.33074">
        <ele>184.96</ele>
        <time>2017-03-26T16:06:44Z</time>
      </trkpt>
      <trkpt lat="45.13823" lon="5.33114">
        <ele>184.65</ele>
        <time>2017-03-26T16:06:45Z</time>
      </trkpt>
      <trkpt lat="45.1384" lon="5.33155">
        <ele>184.34</ele>
        <time>2017-03-26T16:06:46Z</time>
      </trkpt>
      <trkpt lat="45.13858" lon="5.33196">
        <ele>183.96</ele>
        <time>2017-03-26T16:06:47Z</time>
      </trkpt>
      <trkpt lat="45.13875" lon="5.33236">
        <ele>183.57</ele>
        <time>2017-03-26T16:06:48Z</time>
      </trkpt>
      <trkpt lat="45.13893" lon="5.33276">
        <ele>183.17</ele>
        <time>2017-03-26T16:06:49Z</time>
      </trkpt>
      <trkpt lat="45.1391" lon="5.33316">
        <ele>182.69</ele>
        <time>2017-03-26T16:06:50Z</time>
      </trkpt>
      <trkpt lat="45.13927" lon="5.33355">
        <ele>182.35</ele>
        <time>2017-03-26T16:06:51Z</time>
      </trkpt>
      <trkpt lat="45.13943" lon="5.33393">
        <ele>181.96</ele>
        <time>2017-03-26T16:06:52Z</time>
      </trkpt>
      <trkpt lat="45.1396" lon="5.33432">
        <ele>181.65</ele>
        <time>2017-03-26T16:06:53Z</time>
      </trkpt>
      <trkpt lat="45.13977" lon="5.33471">
        <ele>181.42</ele>
        <time>2017-03-26T16:06:54Z</time>
      </trkpt>
      <trkpt lat="45.13993" lon="5.3351">
        <ele>181.14</ele>
        <time>2017-03-26T16:06:55Z</time>
      </trkpt>
      <trkpt lat="45.1401" lon="5.33549">
        <ele>180.92</ele>
        <time>2017-03-26T16:06:56Z</time>
      </trkpt>
      <trkpt lat="45.14027" lon="5.33588">
        <ele>180.72</ele>
        <time>2017-03-26T16:06:57Z</time>
      </trkpt>
      <trkpt lat="45.14045" lon="5.33626">
        <ele>180.52</ele>
        <time>2017-03-26T16:06:58Z</time>
      </trkpt>
      <trkpt lat="45.14063" lon="5.33664">
        <ele>180.4</ele>
        <time>2017-03-26T16:06:59Z</time>
      </trkpt>
      <trkpt lat="45.14081" lon="5.33701">
        <ele>180.29</ele>
        <time>2017-03-26T16:07:00Z</time>
      </trkpt>
      <trkpt lat="45.141" lon="5.33737">
        <ele>180.19</ele>
        <time>2017-03-26T16:07:01Z</time>
      </trkpt>
      <trkpt lat="45.14119" lon="5.33772">
        <ele>180.09</ele>
        <time>2017-03-26T16:07:02Z</time>
      </trkpt>
      <trkpt lat="45.14138" lon="5.33807">
        <ele>180.07</ele>
        <time>2017-03-26T16:07:03Z</time>
      </trkpt>
      <trkpt lat="45.14158" lon="5.33841">
        <ele>180.07</ele>
        <time>2017-03-26T16:07:04Z</time>
      </trkpt>
      <trkpt lat="45.14178" lon="5.33874">
        <ele>180.07</ele>
        <time>2017-03-26T16:07:05Z</time>
      </trkpt>
      <trkpt lat="45.14199" lon="5.33907">
        <ele>179.99</ele>
        <time>2017-03-26T16:07:06Z</time>
      </trkpt>
      <trkpt lat="45.14221" lon="5.33941">
        <ele>179.97</ele>
        <time>2017-03-26T16:07:07Z</time>
      </trkpt>
      <trkpt lat="45.14244" lon="5.33974">
        <ele>180.05</ele>
        <time>2017-03-26T16:07:08Z</time>
      </trkpt>
      <trkpt lat="45.14267" lon="5.34007">
        <ele>179.98</ele>
        <time>2017-03-26T16:07:09Z</time>
      </trkpt>
      <trkpt lat="45.1429" lon="5.34041">
        <ele>180.21</ele>
        <time>2017-03-26T16:07:10Z</time>
      </trkpt>
      <trkpt lat="45.14313" lon="5.34075">
        <ele>180.74</ele>
        <time>2017-03-26T16:07:11Z</time>
      </trkpt>
      <trkpt lat="45.14336" lon="5.34108">
        <ele>181.08</ele>
        <time>2017-03-26T16:07:12Z</time>
      </trkpt>
      <trkpt lat="45.14359" lon="5.34141">
        <ele>181.39</ele>
        <time>2017-03-26T16:07:13Z</time>
      </trkpt>
      <trkpt lat="45.14382" lon="5.34175">
        <ele>181.69</ele>
        <time>2017-03-26T16:07:14Z</time>
      </trkpt>
      <trkpt lat="45.14405" lon="5.34208">
        <ele>182.23</ele>
        <time>2017-03-26T16:07:15Z</time>
      </trkpt>
      <trkpt lat="45.14426" lon="5.34243">
        <ele>182.58</ele>
        <time>2017-03-26T16:07:16Z</time>
      </trkpt>
      <trkpt lat="45.14448" lon="5.34278">
        <ele>183.05</ele>
        <time>2017-03-26T16:07:17Z</time>
      </trkpt>
      <trkpt lat="45.14469" lon="5.34313">
        <ele>183.46</ele>
        <time>2017-03-26T16:07:18Z</time>
      </trkpt>
      <trkpt lat="45.1449" lon="5.34349">
        <ele>183.71</ele>
        <time>2017-03-26T16:07:19Z</time>
      </trkpt>
      <trkpt lat="45.14511" lon="5.34385">
        <ele>184.08</ele>
        <time>2017-03-26T16:07:20Z</time>
      </trkpt>
      <trkpt lat="45.14531" lon="5.34422">
        <ele>184.39</ele>
        <time>2017-03-26T16:07:21Z</time>
      </trkpt>
      <trkpt lat="45.14549" lon="5.3446">
        <ele>184.61</ele>
        <time>2017-03-26T16:07:22Z</time>
      </trkpt>
      <trkpt lat="45.14568" lon="5.34499">
        <ele>184.74</ele>
        <time>2017-03-26T16:07:23Z</time>
      </trkpt>
      <trkpt lat="45.14586" lon="5.34538">
        <ele>184.84</ele>
        <time>2017-03-26T16:07:24Z</time>
      </trkpt>
      <trkpt lat="45.14603" lon="5.34578">
        <ele>185.1</ele>
        <time>2017-03-26T16:07:25Z</time>
      </trkpt>
      <trkpt lat="45.14621" lon="5.34618">
        <ele>185.47</ele>
        <time>2017-03-26T16:07:26Z</time>
      </trkpt>
      <trkpt lat="45.14638" lon="5.34658">
        <ele>185.79</ele>
        <time>2017-03-26T16:07:27Z</time>
      </trkpt>
      <trkpt lat="45.14654" lon="5.34698">
        <ele>185.93</ele>
        <time>2017-03-26T16:07:28Z</time>
      </trkpt>
      <trkpt lat="45.14671" lon="5.34738">
        <ele>186.04</ele>
        <time>2017-03-26T16:07:29Z</time>
      </trkpt>
      <trkpt lat="45.14687" lon="5.34778">
        <ele>185.98</ele>
        <time>2017-03-26T16:07:30Z</time>
      </trkpt>
      <trkpt lat="45.14703" lon="5.34819">
        <ele>186.05</ele>
        <time>2017-03-26T16:07:31Z</time>
      </trkpt>
      <trkpt lat="45.14718" lon="5.34859">
        <ele>186.22</ele>
        <time>2017-03-26T16:07:32Z</time>
      </trkpt>
      <trkpt lat="45.14734" lon="5.34899">
        <ele>185.94</ele>
        <time>2017-03-26T16:07:33Z</time>
      </trkpt>
      <trkpt lat="45.14751" lon="5.34938">
        <ele>185.88</ele>
        <time>2017-03-26T16:07:34Z</time>
      </trkpt>
      <trkpt lat="45.14767" lon="5.34977">
        <ele>185.87</ele>
        <time>2017-03-26T16:07:35Z</time>
      </trkpt>
      <trkpt lat="45.14785" lon="5.35016">
        <ele>186.03</ele>
        <time>2017-03-26T16:07:36Z</time>
      </trkpt>
      <trkpt lat="45.14803" lon="5.35054">
        <ele>186.46</ele>
        <time>2017-03-26T16:07:37Z</time>
      </trkpt>
      <trkpt lat="45.14822" lon="5.35092">
        <ele>186.63</ele>
        <time>2017-03-26T16:07:38Z</time>
      </trkpt>
      <trkpt lat="45.14841" lon="5.3513">
        <ele>186.9</ele>
        <time>2017-03-26T16:07:39Z</time>
      </trkpt>
      <trkpt lat="45.1486" lon="5.35166">
        <ele>187.03</ele>
        <time>2017-03-26T16:07:40Z</time>
      </trkpt>
      <trkpt lat="45.1488" lon="5.35202">
        <ele>187.38</ele>
        <time>2017-03-26T16:07:41Z</time>
      </trkpt>
      <trkpt lat="45.149" lon="5.35238">
        <ele>187.61</ele>
        <time>2017-03-26T16:07:42Z</time>
      </trkpt>
      <trkpt lat="45.14921" lon="5.35272">
        <ele>187.82</ele>
        <time>2017-03-26T16:07:43Z</time>
      </trkpt>
      <trkpt lat="45.14942" lon="5.35307">
        <ele>187.78</ele>
        <time>2017-03-26T16:07:44Z</time>
      </trkpt>
      <trkpt lat="45.14963" lon="5.3534">
        <ele>187.53</ele>
        <time>2017-03-26T16:07:45Z</time>
      </trkpt>
      <trkpt lat="45.14985" lon="5.35373">
        <ele>187.64</ele>
        <time>2017-03-26T16:07:46Z</time>
      </trkpt>
      <trkpt lat="45.15008" lon="5.35406">
        <ele>187.34</ele>
        <time>2017-03-26T16:07:47Z</time>
      </trkpt>
      <trkpt lat="45.15031" lon="5.35437">
        <ele>186.88</ele>
        <time>2017-03-26T16:07:48Z</time>
      </trkpt>
      <trkpt lat="45.15054" lon="5.35468">
        <ele>186.71</ele>
        <time>2017-03-26T16:07:49Z</time>
      </trkpt>
      <trkpt lat="45.15078" lon="5.35498">
        <ele>186.76</ele>
        <time>2017-03-26T16:07:50Z</time>
      </trkpt>
      <trkpt lat="45.15102" lon="5.35527">
        <ele>186.93</ele>
        <time>2017-03-26T16:07:51Z</time>
      </trkpt>
      <trkpt lat="45.15127" lon="5.35556">
        <ele>186.8</ele>
        <time>2017-03-26T16:07:52Z</time>
      </trkpt>
      <trkpt lat="45.15152" lon="5.35584">
        <ele>186.21</ele>
        <time>2017-03-26T16:07:53Z</time>
      </trkpt>
      <trkpt lat="45.15179" lon="5.35612">
        <ele>185.94</ele>
        <time>2017-03-26T16:07:54Z</time>
      </trkpt>
      <trkpt lat="45.15205" lon="5.35639">
        <ele>186.04</ele>
        <time>2017-03-26T16:07:55Z</time>
      </trkpt>
      <trkpt lat="45.15232" lon="5.35666">
        <ele>186.06</ele>
        <time>2017-03-26T16:07:56Z</time>
      </trkpt>
      <trkpt lat="45.15259" lon="5.35692">
        <ele>185.83</ele>
        <time>2017-03-26T16:07:57Z</time>
      </trkpt>
      <trkpt lat="45.15286" lon="5.35716">
        <ele>185.3</ele>
        <time>2017-03-26T16:07:58Z</time>
      </trkpt>
      <trkpt lat="45.15314" lon="5.3574">
        <ele>185.43</ele>
        <time>2017-03-26T16:07:59Z</time>
      </trkpt>
      <trkpt lat="45.15343" lon="5.35762">
        <ele>185.46</ele>
        <time>2017-03-26T16:08:00Z</time>
      </trkpt>
      <trkpt lat="45.15372" lon="5.35783">
        <ele>185.79</ele>
        <time>2017-03-26T16:08:01Z</time>
      </trkpt>
      <trkpt lat="45.15401" lon="5.35804">
        <ele>186.25</ele>
        <time>2017-03-26T16:08:02Z</time>
      </trkpt>
      <trkpt lat="45.15431" lon="5.35824">
        <ele>186.74</ele>
        <time>2017-03-26T16:08:03Z</time>
      </trkpt>
      <trkpt lat="45.15461" lon="5.35844">
        <ele>187.16</ele>
        <time>2017-03-26T16:08:04Z</time>
      </trkpt>
      <trkpt lat="45.15491" lon="5.35863">
        <ele>187.57</ele>
        <time>2017-03-26T16:08:05Z</time>
      </trkpt>
      <trkpt lat="45.15522" lon="5.35882">
        <ele>188.29</ele>
        <time>2017-03-26T16:08:06Z</time>
      </trkpt>
      <trkpt lat="45.15553" lon="5.359">
        <ele>188.75</ele>
        <time>2017-03-26T16:08:07Z</time>
      </trkpt>
      <trkpt lat="45.15583" lon="5.35918">
        <ele>189.24</ele>
        <time>2017-03-26T16:08:08Z</time>
      </trkpt>
      <trkpt lat="45.15614" lon="5.35936">
        <ele>189.9</ele>
        <time>2017-03-26T16:08:09Z</time>
      </trkpt>
      <trkpt lat="45.15644" lon="5.35955">
        <ele>190.44</ele>
        <time>2017-03-26T16:08:10Z</time>
      </trkpt>
      <trkpt lat="45.15674" lon="5.35973">
        <ele>190.78</ele>
        <time>2017-03-26T16:08:11Z</time>
      </trkpt>
      <trkpt lat="45.15703" lon="5.35993">
        <ele>191.09</ele>
        <time>2017-03-26T16:08:12Z</time>
      </trkpt>
      <trkpt lat="45.15732" lon="5.36014">
        <ele>191.31</ele>
        <time>2017-03-26T16:08:13Z</time>
      </trkpt>
      <trkpt lat="45.1576" lon="5.36035">
        <ele>191.84</ele>
        <time>2017-03-26T16:08:14Z</time>
      </trkpt>
      <trkpt lat="45.15788" lon="5.36058">
        <ele>192.5</ele>
        <time>2017-03-26T16:08:15Z</time>
      </trkpt>
      <trkpt lat="45.15814" lon="5.36082">
        <ele>193.19</ele>
        <time>2017-03-26T16:08:16Z</time>
      </trkpt>
      <trkpt lat="45.1584" lon="5.36108">
        <ele>193.49</ele>
        <time>2017-03-26T16:08:17Z</time>
      </trkpt>
      <trkpt lat="45.15867" lon="5.36135">
        <ele>193.71</ele>
        <time>2017-03-26T16:08:18Z</time>
      </trkpt>
      <trkpt lat="45.15892" lon="5.36162">
        <ele>193.92</ele>
        <time>2017-03-26T16:08:19Z</time>
      </trkpt>
      <trkpt lat="45.15918" lon="5.36189">
        <ele>194.2</ele>
        <time>2017-03-26T16:08:20Z</time>
      </trkpt>
      <trkpt lat="45.15944" lon="5.36217">
        <ele>194.17</ele>
        <time>2017-03-26T16:08:21Z</time>
      </trkpt>
      <trkpt lat="45.15969" lon="5.36246">
        <ele>194.25</ele>
        <time>2017-03-26T16:08:22Z</time>
      </trkpt>
      <trkpt lat="45.15993" lon="5.36276">
        <ele>194.34</ele>
        <time>2017-03-26T16:08:23Z</time>
      </trkpt>
      <trkpt lat="45.16017" lon="5.36306">
        <ele>194.04</ele>
        <time>2017-03-26T16:08:24Z</time>
      </trkpt>
      <trkpt lat="45.16041" lon="5.36337">
        <ele>193.98</ele>
        <time>2017-03-26T16:08:25Z</time>
      </trkpt>
      <trkpt lat="45.16064" lon="5.36369">
        <ele>193.57</ele>
        <time>2017-03-26T16:08:26Z</time>
      </trkpt>
      <trkpt lat="45.16087" lon="5.36402">
        <ele>192.85</ele>
        <time>2017-03-26T16:08:27Z</time>
      </trkpt>
      <trkpt lat="45.16109" lon="5.36436">
        <ele>192.78</ele>
        <time>2017-03-26T16:08:28Z</time>
      </trkpt>
      <trkpt lat="45.16131" lon="5.3647">
        <ele>192.85</ele>
        <time>2017-03-26T16:08:29Z</time>
      </trkpt>
      <trkpt lat="45.16153" lon="5.36505">
        <ele>192.94</ele>
        <time>2017-03-26T16:08:30Z</time>
      </trkpt>
      <trkpt lat="45.16175" lon="5.36541">
        <ele>193.04</ele>
        <time>2017-03-26T16:08:31Z</time>
      </trkpt>
      <trkpt lat="45.16196" lon="5.36577">
        <ele>193.06</ele>
        <time>2017-03-26T16:08:32Z</time>
      </trkpt>
      <trkpt lat="45.16218" lon="5.36613">
        <ele>193.47</ele>
        <time>2017-03-26T16:08:33Z</time>
      </trkpt>
      <trkpt lat="45.1624" lon="5.36648">
        <ele>193.71</ele>
        <time>2017-03-26T16:08:34Z</time>
      </trkpt>
      <trkpt lat="45.16262" lon="5.36684">
        <ele>193.84</ele>
        <time>2017-03-26T16:08:35Z</time>
      </trkpt>
      <trkpt lat="45.16284" lon="5.3672">
        <ele>193.94</ele>
        <time>2017-03-26T16:08:36Z</time>
      </trkpt>
      <trkpt lat="45.16306" lon="5.36755">
        <ele>194.12</ele>
        <time>2017-03-26T16:08:37Z</time>
      </trkpt>
      <trkpt lat="45.16327" lon="5.36791">
        <ele>194.08</ele>
        <time>2017-03-26T16:08:38Z</time>
      </trkpt>
      <trkpt lat="45.16349" lon="5.36827">
        <ele>194.55</ele>
        <time>2017-03-26T16:08:39Z</time>
      </trkpt>
      <trkpt lat="45.16371" lon="5.36862">
        <ele>195.44</ele>
        <time>2017-03-26T16:08:40Z</time>
      </trkpt>
      <trkpt lat="45.16393" lon="5.36897">
        <ele>196.02</ele>
        <time>2017-03-26T16:08:41Z</time>
      </trkpt>
      <trkpt lat="45.16414" lon="5.36931">
        <ele>196.54</ele>
        <time>2017-03-26T16:08:42Z</time>
      </trkpt>
      <trkpt lat="45.16435" lon="5.36967">
        <ele>196.8</ele>
        <time>2017-03-26T16:08:43Z</time>
      </trkpt>
      <trkpt lat="45.16455" lon="5.37003">
        <ele>196.77</ele>
        <time>2017-03-26T16:08:44Z</time>
      </trkpt>
      <trkpt lat="45.16475" lon="5.3704">
        <ele>196.53</ele>
        <time>2017-03-26T16:08:45Z</time>
      </trkpt>
      <trkpt lat="45.16495" lon="5.37078">
        <ele>196.08</ele>
        <time>2017-03-26T16:08:46Z</time>
      </trkpt>
      <trkpt lat="45.16513" lon="5.37116">
        <ele>194.95</ele>
        <time>2017-03-26T16:08:47Z</time>
      </trkpt>
      <trkpt lat="45.16532" lon="5.37155">
        <ele>193.68</ele>
        <time>2017-03-26T16:08:48Z</time>
      </trkpt>
      <trkpt lat="45.1655" lon="5.37193">
        <ele>192.63</ele>
        <time>2017-03-26T16:08:49Z</time>
      </trkpt>
      <trkpt lat="45.16567" lon="5.37232">
        <ele>192.34</ele>
        <time>2017-03-26T16:08:50Z</time>
      </trkpt>
      <trkpt lat="45.16585" lon="5.37271">
        <ele>191.8</ele>
        <time>2017-03-26T16:08:51Z</time>
      </trkpt>
      <trkpt lat="45.16603" lon="5.3731">
        <ele>191.21</ele>
        <time>2017-03-26T16:08:52Z</time>
      </trkpt>
      <trkpt lat="45.16621" lon="5.37348">
        <ele>190.14</ele>
        <time>2017-03-26T16:08:53Z</time>
      </trkpt>
      <trkpt lat="45.16639" lon="5.37387">
        <ele>188.48</ele>
        <time>2017-03-26T16:08:54Z</time>
      </trkpt>
      <trkpt lat="45.16659" lon="5.37425">
        <ele>187.11</ele>
        <time>2017-03-26T16:08:55Z</time>
      </trkpt>
      <trkpt lat="45.16678" lon="5.37463">
        <ele>185.96</ele>
        <time>2017-03-26T16:08:56Z</time>
      </trkpt>
      <trkpt lat="45.16698" lon="5.37501">
        <ele>184.77</ele>
        <time>2017-03-26T16:08:57Z</time>
      </trkpt>
      <trkpt lat="45.16719" lon="5.37538">
        <ele>183.73</ele>
        <time>2017-03-26T16:08:58Z</time>
      </trkpt>
      <trkpt lat="45.1674" lon="5.37574">
        <ele>182.88</ele>
        <time>2017-03-26T16:08:59Z</time>
      </trkpt>
      <trkpt lat="45.16761" lon="5.3761">
        <ele>182.15</ele>
        <time>2017-03-26T16:09:00Z</time>
      </trkpt>
      <trkpt lat="45.16782" lon="5.37646">
        <ele>181.6</ele>
        <time>2017-03-26T16:09:01Z</time>
      </trkpt>
      <trkpt lat="45.16804" lon="5.37682">
        <ele>181.02</ele>
        <time>2017-03-26T16:09:02Z</time>
      </trkpt>
      <trkpt lat="45.16826" lon="5.37718">
        <ele>180.02</ele>
        <time>2017-03-26T16:09:03Z</time>
      </trkpt>
      <trkpt lat="45.16848" lon="5.37753">
        <ele>179.02</ele>
        <time>2017-03-26T16:09:04Z</time>
      </trkpt>
      <trkpt lat="45.16869" lon="5.37789">
        <ele>178.02</ele>
        <time>2017-03-26T16:09:05Z</time>
      </trkpt>
      <trkpt lat="45.16891" lon="5.37824">
        <ele>176.86</ele>
        <time>2017-03-26T16:09:06Z</time>
      </trkpt>
      <trkpt lat="45.16913" lon="5.3786">
        <ele>175.91</ele>
        <time>2017-03-26T16:09:07Z</time>
      </trkpt>
      <trkpt lat="45.16934" lon="5.37896">
        <ele>174.92</ele>
        <time>2017-03-26T16:09:08Z</time>
      </trkpt>
      <trkpt lat="45.16956" lon="5.37933">
        <ele>173.84</ele>
        <time>2017-03-26T16:09:09Z</time>
      </trkpt>
      <trkpt lat="45.16977" lon="5.3797">
        <ele>173.06</ele>
        <time>2017-03-26T16:09:10Z</time>
      </trkpt>
      <trkpt lat="45.16998" lon="5.38007">
        <ele>172.27</ele>
        <time>2017-03-26T16:09:11Z</time>
      </trkpt>
      <trkpt lat="45.17019" lon="5.38045">
        <ele>171.15</ele>
        <time>2017-03-26T16:09:12Z</time>
      </trkpt>
      <trkpt lat="45.17039" lon="5.38082">
        <ele>169.8</ele>
        <time>2017-03-26T16:09:13Z</time>
      </trkpt>
      <trkpt lat="45.1706" lon="5.3812">
        <ele>168.26</ele>
        <time>2017-03-26T16:09:14Z</time>
      </trkpt>
      <trkpt lat="45.1708" lon="5.38158">
        <ele>166.75</ele>
        <time>2017-03-26T16:09:15Z</time>
      </trkpt>
      <trkpt lat="45.171" lon="5.38197">
        <ele>165.16</ele>
        <time>2017-03-26T16:09:16Z</time>
      </trkpt>
      <trkpt lat="45.17119" lon="5.38236">
        <ele>163.73</ele>
        <time>2017-03-26T16:09:17Z</time>
      </trkpt>
      <trkpt lat="45.17137" lon="5.38275">
        <ele>162.96</ele>
        <time>2017-03-26T16:09:18Z</time>
      </trkpt>
      <trkpt lat="45.17155" lon="5.38313">
        <ele>162.25</ele>
        <time>2017-03-26T16:09:19Z</time>
      </trkpt>
      <trkpt lat="45.17173" lon="5.38352">
        <ele>161.7</ele>
        <time>2017-03-26T16:09:20Z</time>
      </trkpt>
      <trkpt lat="45.17191" lon="5.3839">
        <ele>161.04</ele>
        <time>2017-03-26T16:09:21Z</time>
      </trkpt>
      <trkpt lat="45.1721" lon="5.38427">
        <ele>160.42</ele>
        <time>2017-03-26T16:09:22Z</time>
      </trkpt>
      <trkpt lat="45.17228" lon="5.38465">
        <ele>160.06</ele>
        <time>2017-03-26T16:09:23Z</time>
      </trkpt>
      <trkpt lat="45.17246" lon="5.38502">
        <ele>159.67</ele>
        <time>2017-03-26T16:09:24Z</time>
      </trkpt>
      <trkpt lat="45.17264" lon="5.3854">
        <ele>159.11</ele>
        <time>2017-03-26T16:09:25Z</time>
      </trkpt>
      <trkpt lat="45.17282" lon="5.38577">
        <ele>158.76</ele>
        <time>2017-03-26T16:09:26Z</time>
      </trkpt>
      <trkpt lat="45.173" lon="5.38614">
        <ele>158.45</ele>
        <time>2017-03-26T16:09:27Z</time>
      </trkpt>
      <trkpt lat="45.17318" lon="5.38651">
        <ele>158.06</ele>
        <time>2017-03-26T16:09:28Z</time>
      </trkpt>
      <trkpt lat="45.17336" lon="5.38687">
        <ele>157.67</ele>
        <time>2017-03-26T16:09:29Z</time>
      </trkpt>
      <trkpt lat="45.17355" lon="5.38723">
        <ele>156.71</ele>
        <time>2017-03-26T16:09:30Z</time>
      </trkpt>
      <trkpt lat="45.17373" lon="5.38758">
        <ele>155.88</ele>
        <time>2017-03-26T16:09:31Z</time>
      </trkpt>
      <trkpt lat="45.17393" lon="5.38793">
        <ele>155.31</ele>
        <time>2017-03-26T16:09:32Z</time>
      </trkpt>
      <trkpt lat="45.17412" lon="5.38828">
        <ele>154.8</ele>
        <time>2017-03-26T16:09:33Z</time>
      </trkpt>
      <trkpt lat="45.17431" lon="5.38863">
        <ele>154.21</ele>
        <time>2017-03-26T16:09:34Z</time>
      </trkpt>
      <trkpt lat="45.1745" lon="5.38898">
        <ele>153.38</ele>
        <time>2017-03-26T16:09:35Z</time>
      </trkpt>
      <trkpt lat="45.17469" lon="5.38933">
        <ele>152.97</ele>
        <time>2017-03-26T16:09:36Z</time>
      </trkpt>
      <trkpt lat="45.17488" lon="5.38968">
        <ele>152.41</ele>
        <time>2017-03-26T16:09:37Z</time>
      </trkpt>
      <trkpt lat="45.17506" lon="5.39004">
        <ele>152.3</ele>
        <time>2017-03-26T16:09:38Z</time>
      </trkpt>
      <trkpt lat="45.17525" lon="5.39041">
        <ele>152.27</ele>
        <time>2017-03-26T16:09:39Z</time>
      </trkpt>
      <trkpt lat="45.17543" lon="5.39078">
        <ele>152.51</ele>
        <time>2017-03-26T16:09:40Z</time>
      </trkpt>
      <trkpt lat="45.17561" lon="5.39116">
        <ele>152.72</ele>
        <time>2017-03-26T16:09:41Z</time>
      </trkpt>
      <trkpt lat="45.17579" lon="5.39154">
        <ele>152.84</ele>
        <time>2017-03-26T16:09:42Z</time>
      </trkpt>
      <trkpt lat="45.17596" lon="5.39193">
        <ele>153.18</ele>
        <time>2017-03-26T16:09:43Z</time>
      </trkpt>
      <trkpt lat="45.17612" lon="5.39232">
        <ele>153.81</ele>
        <time>2017-03-26T16:09:44Z</time>
      </trkpt>
      <trkpt lat="45.17628" lon="5.39271">
        <ele>154.66</ele>
        <time>2017-03-26T16:09:45Z</time>
      </trkpt>
      <trkpt lat="45.17643" lon="5.3931">
        <ele>155.87</ele>
        <time>2017-03-26T16:09:46Z</time>
      </trkpt>
      <trkpt lat="45.17657" lon="5.3935">
        <ele>156.67</ele>
        <time>2017-03-26T16:09:47Z</time>
      </trkpt>
      <trkpt lat="45.17671" lon="5.3939">
        <ele>157.31</ele>
        <time>2017-03-26T16:09:48Z</time>
      </trkpt>
      <trkpt lat="45.17685" lon="5.39429">
        <ele>158.08</ele>
        <time>2017-03-26T16:09:49Z</time>
      </trkpt>
      <trkpt lat="45.17698" lon="5.39469">
        <ele>159.27</ele>
        <time>2017-03-26T16:09:50Z</time>
      </trkpt>
      <trkpt lat="45.17711" lon="5.39508">
        <ele>160.47</ele>
        <time>2017-03-26T16:09:51Z</time>
      </trkpt>
      <trkpt lat="45.17725" lon="5.39547">
        <ele>161.43</ele>
        <time>2017-03-26T16:09:52Z</time>
      </trkpt>
      <trkpt lat="45.17738" lon="5.39586">
        <ele>162.42</ele>
        <time>2017-03-26T16:09:53Z</time>
      </trkpt>
      <trkpt lat="45.17752" lon="5.39624">
        <ele>163.42</ele>
        <time>2017-03-26T16:09:54Z</time>
      </trkpt>
      <trkpt lat="45.17767" lon="5.39662">
        <ele>164.66</ele>
        <time>2017-03-26T16:09:55Z</time>
      </trkpt>
      <trkpt lat="45.17782" lon="5.39699">
        <ele>166.27</ele>
        <time>2017-03-26T16:09:56Z</time>
      </trkpt>
      <trkpt lat="45.17798" lon="5.39735">
        <ele>167.47</ele>
        <time>2017-03-26T16:09:57Z</time>
      </trkpt>
      <trkpt lat="45.17814" lon="5.3977">
        <ele>168.75</ele>
        <time>2017-03-26T16:09:58Z</time>
      </trkpt>
      <trkpt lat="45.17831" lon="5.39804">
        <ele>170.04</ele>
        <time>2017-03-26T16:09:59Z</time>
      </trkpt>
      <trkpt lat="45.1785" lon="5.39838">
        <ele>171.02</ele>
        <time>2017-03-26T16:10:00Z</time>
      </trkpt>
      <trkpt lat="45.17869" lon="5.3987">
        <ele>172.1</ele>
        <time>2017-03-26T16:10:01Z</time>
      </trkpt>
      <trkpt lat="45.17888" lon="5.39902">
        <ele>173.19</ele>
        <time>2017-03-26T16:10:02Z</time>
      </trkpt>
      <trkpt lat="45.17909" lon="5.39934">
        <ele>174.53</ele>
        <time>2017-03-26T16:10:03Z</time>
      </trkpt>
      <trkpt lat="45.17932" lon="5.39966">
        <ele>174.96</ele>
        <time>2017-03-26T16:10:04Z</time>
      </trkpt>
      <trkpt lat="45.17955" lon="5.39996">
        <ele>175.61</ele>
        <time>2017-03-26T16:10:05Z</time>
      </trkpt>
      <trkpt lat="45.1798" lon="5.40025">
        <ele>176.3</ele>
        <time>2017-03-26T16:10:06Z</time>
      </trkpt>
      <trkpt lat="45.18005" lon="5.40053">
        <ele>176.83</ele>
        <time>2017-03-26T16:10:07Z</time>
      </trkpt>
      <trkpt lat="45.18031" lon="5.40079">
        <ele>177.1</ele>
        <time>2017-03-26T16:10:08Z</time>
      </trkpt>
      <trkpt lat="45.18057" lon="5.40105">
        <ele>177.47</ele>
        <time>2017-03-26T16:10:09Z</time>
      </trkpt>
      <trkpt lat="45.18084" lon="5.4013">
        <ele>177.71</ele>
        <time>2017-03-26T16:10:10Z</time>
      </trkpt>
      <trkpt lat="45.18112" lon="5.40155">
        <ele>178.08</ele>
        <time>2017-03-26T16:10:11Z</time>
      </trkpt>
      <trkpt lat="45.18139" lon="5.4018">
        <ele>178.39</ele>
        <time>2017-03-26T16:10:12Z</time>
      </trkpt>
      <trkpt lat="45.18165" lon="5.40205">
        <ele>178.53</ele>
        <time>2017-03-26T16:10:13Z</time>
      </trkpt>
      <trkpt lat="45.18192" lon="5.4023">
        <ele>178.64</ele>
        <time>2017-03-26T16:10:14Z</time>
      </trkpt>
      <trkpt lat="45.18219" lon="5.40256">
        <ele>178.58</ele>
        <time>2017-03-26T16:10:15Z</time>
      </trkpt>
      <trkpt lat="45.18246" lon="5.40282">
        <ele>178.49</ele>
        <time>2017-03-26T16:10:16Z</time>
      </trkpt>
      <trkpt lat="45.18272" lon="5.40308">
        <ele>178.47</ele>
        <time>2017-03-26T16:10:17Z</time>
      </trkpt>
      <trkpt lat="45.18298" lon="5.40335">
        <ele>178.55</ele>
        <time>2017-03-26T16:10:18Z</time>
      </trkpt>
      <trkpt lat="45.18322" lon="5.40363">
        <ele>178.72</ele>
        <time>2017-03-26T16:10:19Z</time>
      </trkpt>
      <trkpt lat="45.18347" lon="5.40392">
        <ele>178.84</ele>
        <time>2017-03-26T16:10:20Z</time>
      </trkpt>
      <trkpt lat="45.18371" lon="5.40421">
        <ele>178.94</ele>
        <time>2017-03-26T16:10:21Z</time>
      </trkpt>
      <trkpt lat="45.18395" lon="5.40452">
        <ele>178.96</ele>
        <time>2017-03-26T16:10:22Z</time>
      </trkpt>
      <trkpt lat="45.18418" lon="5.40482">
        <ele>179.13</ele>
        <time>2017-03-26T16:10:23Z</time>
      </trkpt>
      <trkpt lat="45.18442" lon="5.40513">
        <ele>179.4</ele>
        <time>2017-03-26T16:10:24Z</time>
      </trkpt>
      <trkpt lat="45.18464" lon="5.40546">
        <ele>179.85</ele>
        <time>2017-03-26T16:10:25Z</time>
      </trkpt>
      <trkpt lat="45.18487" lon="5.40579">
        <ele>180.19</ele>
        <time>2017-03-26T16:10:26Z</time>
      </trkpt>
      <trkpt lat="45.18508" lon="5.40612">
        <ele>179.93</ele>
        <time>2017-03-26T16:10:27Z</time>
      </trkpt>
      <trkpt lat="45.1853" lon="5.40647">
        <ele>179.64</ele>
        <time>2017-03-26T16:10:28Z</time>
      </trkpt>
      <trkpt lat="45.18552" lon="5.40682">
        <ele>179.18</ele>
        <time>2017-03-26T16:10:29Z</time>
      </trkpt>
      <trkpt lat="45.18573" lon="5.40717">
        <ele>179.09</ele>
        <time>2017-03-26T16:10:30Z</time>
      </trkpt>
      <trkpt lat="45.18594" lon="5.40752">
        <ele>179.31</ele>
        <time>2017-03-26T16:10:31Z</time>
      </trkpt>
      <trkpt lat="45.18616" lon="5.40787">
        <ele>179.68</ele>
        <time>2017-03-26T16:10:32Z</time>
      </trkpt>
      <trkpt lat="45.18637" lon="5.40823">
        <ele>179.99</ele>
        <time>2017-03-26T16:10:33Z</time>
      </trkpt>
      <trkpt lat="45.18659" lon="5.40857">
        <ele>180.37</ele>
        <time>2017-03-26T16:10:34Z</time>
      </trkpt>
      <trkpt lat="45.1868" lon="5.40892">
        <ele>180.69</ele>
        <time>2017-03-26T16:10:35Z</time>
      </trkpt>
      <trkpt lat="45.18702" lon="5.40926">
        <ele>180.75</ele>
        <time>2017-03-26T16:10:36Z</time>
      </trkpt>
      <trkpt lat="45.18725" lon="5.40959">
        <ele>180.76</ele>
        <time>2017-03-26T16:10:37Z</time>
      </trkpt>
      <trkpt lat="45.18747" lon="5.40992">
        <ele>180.69</ele>
        <time>2017-03-26T16:10:38Z</time>
      </trkpt>
      <trkpt lat="45.1877" lon="5.41024">
        <ele>180.43</ele>
        <time>2017-03-26T16:10:39Z</time>
      </trkpt>
      <trkpt lat="45.18794" lon="5.41055">
        <ele>180.46</ele>
        <time>2017-03-26T16:10:40Z</time>
      </trkpt>
      <trkpt lat="45.18817" lon="5.41086">
        <ele>180.23</ele>
        <time>2017-03-26T16:10:41Z</time>
      </trkpt>
      <trkpt lat="45.18841" lon="5.41116">
        <ele>180.1</ele>
        <time>2017-03-26T16:10:42Z</time>
      </trkpt>
      <trkpt lat="45.18866" lon="5.41145">
        <ele>180.07</ele>
        <time>2017-03-26T16:10:43Z</time>
      </trkpt>
      <trkpt lat="45.18891" lon="5.41173">
        <ele>180.15</ele>
        <time>2017-03-26T16:10:44Z</time>
      </trkpt>
      <trkpt lat="45.18916" lon="5.41201">
        <ele>179.92</ele>
        <time>2017-03-26T16:10:45Z</time>
      </trkpt>
      <trkpt lat="45.18942" lon="5.41227">
        <ele>179.64</ele>
        <time>2017-03-26T16:10:46Z</time>
      </trkpt>
      <trkpt lat="45.18967" lon="5.41253">
        <ele>179.1</ele>
        <time>2017-03-26T16:10:47Z</time>
      </trkpt>
      <trkpt lat="45.18994" lon="5.41278">
        <ele>178.75</ele>
        <time>2017-03-26T16:10:48Z</time>
      </trkpt>
      <trkpt lat="45.1902" lon="5.41302">
        <ele>178.77</ele>
        <time>2017-03-26T16:10:49Z</time>
      </trkpt>
      <trkpt lat="45.19047" lon="5.41327">
        <ele>178.69</ele>
        <time>2017-03-26T16:10:50Z</time>
      </trkpt>
      <trkpt lat="45.19074" lon="5.41351">
        <ele>178.67</ele>
        <time>2017-03-26T16:10:51Z</time>
      </trkpt>
      <trkpt lat="45.19101" lon="5.41375">
        <ele>178.59</ele>
        <time>2017-03-26T16:10:52Z</time>
      </trkpt>
      <trkpt lat="45.19127" lon="5.414">
        <ele>178.57</ele>
        <time>2017-03-26T16:10:53Z</time>
      </trkpt>
      <trkpt lat="45.19154" lon="5.41424">
        <ele>178.41</ele>
        <time>2017-03-26T16:10:54Z</time>
      </trkpt>
      <trkpt lat="45.1918" lon="5.41449">
        <ele>177.98</ele>
        <time>2017-03-26T16:10:55Z</time>
      </trkpt>
      <trkpt lat="45.19206" lon="5.41475">
        <ele>177.73</ele>
        <time>2017-03-26T16:10:56Z</time>
      </trkpt>
      <trkpt lat="45.19232" lon="5.41501">
        <ele>178.16</ele>
        <time>2017-03-26T16:10:57Z</time>
      </trkpt>
      <trkpt lat="45.19257" lon="5.41528">
        <ele>178.57</ele>
        <time>2017-03-26T16:10:58Z</time>
      </trkpt>
      <trkpt lat="45.19282" lon="5.41555">
        <ele>178.81</ele>
        <time>2017-03-26T16:10:59Z</time>
      </trkpt>
      <trkpt lat="45.19307" lon="5.41584">
        <ele>178.86</ele>
        <time>2017-03-26T16:11:00Z</time>
      </trkpt>
      <trkpt lat="45.19331" lon="5.41613">
        <ele>179.19</ele>
        <time>2017-03-26T16:11:01Z</time>
      </trkpt>
      <trkpt lat="45.19354" lon="5.41642">
        <ele>179.33</ele>
        <time>2017-03-26T16:11:02Z</time>
      </trkpt>
      <trkpt lat="45.19378" lon="5.41672">
        <ele>179.44</ele>
        <time>2017-03-26T16:11:03Z</time>
      </trkpt>
      <trkpt lat="45.19401" lon="5.41703">
        <ele>179.54</ele>
        <time>2017-03-26T16:11:04Z</time>
      </trkpt>
      <trkpt lat="45.19423" lon="5.41733">
        <ele>179.8</ele>
        <time>2017-03-26T16:11:05Z</time>
      </trkpt>
      <trkpt lat="45.19446" lon="5.41764">
        <ele>180.01</ele>
        <time>2017-03-26T16:11:06Z</time>
      </trkpt>
      <trkpt lat="45.19468" lon="5.41795">
        <ele>180.06</ele>
        <time>2017-03-26T16:11:07Z</time>
      </trkpt>
      <trkpt lat="45.19491" lon="5.41826">
        <ele>180.31</ele>
        <time>2017-03-26T16:11:08Z</time>
      </trkpt>
      <trkpt lat="45.19514" lon="5.41858">
        <ele>180.52</ele>
        <time>2017-03-26T16:11:09Z</time>
      </trkpt>
      <trkpt lat="45.19536" lon="5.41889">
        <ele>180.56</ele>
        <time>2017-03-26T16:11:10Z</time>
      </trkpt>
      <trkpt lat="45.19558" lon="5.41921">
        <ele>180.57</ele>
        <time>2017-03-26T16:11:11Z</time>
      </trkpt>
      <trkpt lat="45.19581" lon="5.41952">
        <ele>180.81</ele>
        <time>2017-03-26T16:11:12Z</time>
      </trkpt>
      <trkpt lat="45.19604" lon="5.41983">
        <ele>180.94</ele>
        <time>2017-03-26T16:11:13Z</time>
      </trkpt>
      <trkpt lat="45.19626" lon="5.42014">
        <ele>181.04</ele>
        <time>2017-03-26T16:11:14Z</time>
      </trkpt>
      <trkpt lat="45.19649" lon="5.42046">
        <ele>180.98</ele>
        <time>2017-03-26T16:11:15Z</time>
      </trkpt>
      <trkpt lat="45.19671" lon="5.42077">
        <ele>180.81</ele>
        <time>2017-03-26T16:11:16Z</time>
      </trkpt>
      <trkpt lat="45.19693" lon="5.42109">
        <ele>180.7</ele>
        <time>2017-03-26T16:11:17Z</time>
      </trkpt>
      <trkpt lat="45.19715" lon="5.42141">
        <ele>180.91</ele>
        <time>2017-03-26T16:11:18Z</time>
      </trkpt>
      <trkpt lat="45.19737" lon="5.42174">
        <ele>181.04</ele>
        <time>2017-03-26T16:11:19Z</time>
      </trkpt>
      <trkpt lat="45.1976" lon="5.42206">
        <ele>181.14</ele>
        <time>2017-03-26T16:11:20Z</time>
      </trkpt>
      <trkpt lat="45.19781" lon="5.42238">
        <ele>181.24</ele>
        <time>2017-03-26T16:11:21Z</time>
      </trkpt>
      <trkpt lat="45.19803" lon="5.4227">
        <ele>181.26</ele>
        <time>2017-03-26T16:11:22Z</time>
      </trkpt>
      <trkpt lat="45.19824" lon="5.42303">
        <ele>181.51</ele>
        <time>2017-03-26T16:11:23Z</time>
      </trkpt>
      <trkpt lat="45.19845" lon="5.42336">
        <ele>181.56</ele>
        <time>2017-03-26T16:11:24Z</time>
      </trkpt>
      <trkpt lat="45.19866" lon="5.42368">
        <ele>181.97</ele>
        <time>2017-03-26T16:11:25Z</time>
      </trkpt>
      <trkpt lat="45.19886" lon="5.42402">
        <ele>182.53</ele>
        <time>2017-03-26T16:11:26Z</time>
      </trkpt>
      <trkpt lat="45.19906" lon="5.42435">
        <ele>182.96</ele>
        <time>2017-03-26T16:11:27Z</time>
      </trkpt>
      <trkpt lat="45.19925" lon="5.42469">
        <ele>183.45</ele>
        <time>2017-03-26T16:11:28Z</time>
      </trkpt>
      <trkpt lat="45.19944" lon="5.42502">
        <ele>183.94</ele>
        <time>2017-03-26T16:11:29Z</time>
      </trkpt>
      <trkpt lat="45.19963" lon="5.42537">
        <ele>184.12</ele>
        <time>2017-03-26T16:11:30Z</time>
      </trkpt>
      <trkpt lat="45.19981" lon="5.42571">
        <ele>184</ele>
        <time>2017-03-26T16:11:31Z</time>
      </trkpt>
      <trkpt lat="45.19999" lon="5.42607">
        <ele>183.65</ele>
        <time>2017-03-26T16:11:32Z</time>
      </trkpt>
      <trkpt lat="45.20017" lon="5.42643">
        <ele>183.67</ele>
        <time>2017-03-26T16:11:33Z</time>
      </trkpt>
      <trkpt lat="45.20034" lon="5.42679">
        <ele>183.83</ele>
        <time>2017-03-26T16:11:34Z</time>
      </trkpt>
      <trkpt lat="45.20052" lon="5.42716">
        <ele>183.62</ele>
        <time>2017-03-26T16:11:35Z</time>
      </trkpt>
      <trkpt lat="45.2007" lon="5.42754">
        <ele>183.1</ele>
        <time>2017-03-26T16:11:36Z</time>
      </trkpt>
      <trkpt lat="45.20087" lon="5.42791">
        <ele>182.91</ele>
        <time>2017-03-26T16:11:37Z</time>
      </trkpt>
      <trkpt lat="45.20103" lon="5.4283">
        <ele>182.96</ele>
        <time>2017-03-26T16:11:38Z</time>
      </trkpt>
      <trkpt lat="45.20119" lon="5.42868">
        <ele>183.05</ele>
        <time>2017-03-26T16:11:39Z</time>
      </trkpt>
      <trkpt lat="45.20135" lon="5.42906">
        <ele>183.06</ele>
        <time>2017-03-26T16:11:40Z</time>
      </trkpt>
      <trkpt lat="45.2015" lon="5.42944">
        <ele>182.75</ele>
        <time>2017-03-26T16:11:41Z</time>
      </trkpt>
      <trkpt lat="45.20165" lon="5.42982">
        <ele>182.28</ele>
        <time>2017-03-26T16:11:42Z</time>
      </trkpt>
      <trkpt lat="45.2018" lon="5.43021">
        <ele>181.87</ele>
        <time>2017-03-26T16:11:43Z</time>
      </trkpt>
      <trkpt lat="45.20195" lon="5.43061">
        <ele>181.63</ele>
        <time>2017-03-26T16:11:44Z</time>
      </trkpt>
      <trkpt lat="45.20211" lon="5.43103">
        <ele>181.42</ele>
        <time>2017-03-26T16:11:45Z</time>
      </trkpt>
      <trkpt lat="45.20226" lon="5.43146">
        <ele>181.38</ele>
        <time>2017-03-26T16:11:46Z</time>
      </trkpt>
      <trkpt lat="45.2024" lon="5.43189">
        <ele>181.45</ele>
        <time>2017-03-26T16:11:47Z</time>
      </trkpt>
      <trkpt lat="45.20252" lon="5.43232">
        <ele>181.14</ele>
        <time>2017-03-26T16:11:48Z</time>
      </trkpt>
      <trkpt lat="45.20264" lon="5.43275">
        <ele>180.92</ele>
        <time>2017-03-26T16:11:49Z</time>
      </trkpt>
      <trkpt lat="45.20276" lon="5.43317">
        <ele>180.64</ele>
        <time>2017-03-26T16:11:50Z</time>
      </trkpt>
      <trkpt lat="45.20288" lon="5.43359">
        <ele>179.86</ele>
        <time>2017-03-26T16:11:51Z</time>
      </trkpt>
      <trkpt lat="45.20299" lon="5.43402">
        <ele>179.15</ele>
        <time>2017-03-26T16:11:52Z</time>
      </trkpt>
      <trkpt lat="45.2031" lon="5.43444">
        <ele>178.44</ele>
        <time>2017-03-26T16:11:53Z</time>
      </trkpt>
      <trkpt lat="45.20321" lon="5.43486">
        <ele>178.22</ele>
        <time>2017-03-26T16:11:54Z</time>
      </trkpt>
      <trkpt lat="45.20333" lon="5.43529">
        <ele>178.9</ele>
        <time>2017-03-26T16:11:55Z</time>
      </trkpt>
      <trkpt lat="45.20343" lon="5.43571">
        <ele>179.43</ele>
        <time>2017-03-26T16:11:56Z</time>
      </trkpt>
      <trkpt lat="45.20354" lon="5.43613">
        <ele>179.78</ele>
        <time>2017-03-26T16:11:57Z</time>
      </trkpt>
      <trkpt lat="45.20365" lon="5.43655">
        <ele>179.85</ele>
        <time>2017-03-26T16:11:58Z</time>
      </trkpt>
      <trkpt lat="45.20376" lon="5.43697">
        <ele>179.54</ele>
        <time>2017-03-26T16:11:59Z</time>
      </trkpt>
      <trkpt lat="45.20387" lon="5.4374">
        <ele>179.24</ele>
        <time>2017-03-26T16:12:00Z</time>
      </trkpt>
      <trkpt lat="45.20399" lon="5.43782">
        <ele>179.1</ele>
        <time>2017-03-26T16:12:01Z</time>
      </trkpt>
      <trkpt lat="45.2041" lon="5.43825">
        <ele>179</ele>
        <time>2017-03-26T16:12:02Z</time>
      </trkpt>
      <trkpt lat="45.20421" lon="5.43868">
        <ele>179.05</ele>
        <time>2017-03-26T16:12:03Z</time>
      </trkpt>
      <trkpt lat="45.20432" lon="5.4391">
        <ele>179.39</ele>
        <time>2017-03-26T16:12:04Z</time>
      </trkpt>
      <trkpt lat="45.20443" lon="5.43953">
        <ele>179.45</ele>
        <time>2017-03-26T16:12:05Z</time>
      </trkpt>
      <trkpt lat="45.20454" lon="5.43996">
        <ele>179.22</ele>
        <time>2017-03-26T16:12:06Z</time>
      </trkpt>
      <trkpt lat="45.20466" lon="5.44039">
        <ele>179.1</ele>
        <time>2017-03-26T16:12:07Z</time>
      </trkpt>
      <trkpt lat="45.20477" lon="5.44082">
        <ele>178.83</ele>
        <time>2017-03-26T16:12:08Z</time>
      </trkpt>
      <trkpt lat="45.20488" lon="5.44125">
        <ele>178.3</ele>
        <time>2017-03-26T16:12:09Z</time>
      </trkpt>
      <trkpt lat="45.205" lon="5.44167">
        <ele>178.43</ele>
        <time>2017-03-26T16:12:10Z</time>
      </trkpt>
      <trkpt lat="45.20511" lon="5.44209">
        <ele>178.54</ele>
        <time>2017-03-26T16:12:11Z</time>
      </trkpt>
      <trkpt lat="45.20522" lon="5.44251">
        <ele>178.24</ele>
        <time>2017-03-26T16:12:12Z</time>
      </trkpt>
      <trkpt lat="45.20534" lon="5.44294">
        <ele>177.78</ele>
        <time>2017-03-26T16:12:13Z</time>
      </trkpt>
      <trkpt lat="45.20545" lon="5.44336">
        <ele>176.97</ele>
        <time>2017-03-26T16:12:14Z</time>
      </trkpt>
      <trkpt lat="45.20557" lon="5.44379">
        <ele>176.33</ele>
        <time>2017-03-26T16:12:15Z</time>
      </trkpt>
      <trkpt lat="45.20569" lon="5.44421">
        <ele>175.4</ele>
        <time>2017-03-26T16:12:16Z</time>
      </trkpt>
      <trkpt lat="45.20581" lon="5.44464">
        <ele>174</ele>
        <time>2017-03-26T16:12:17Z</time>
      </trkpt>
      <trkpt lat="45.20592" lon="5.44507">
        <ele>172.76</ele>
        <time>2017-03-26T16:12:18Z</time>
      </trkpt>
      <trkpt lat="45.20604" lon="5.44549">
        <ele>171.47</ele>
        <time>2017-03-26T16:12:19Z</time>
      </trkpt>
      <trkpt lat="45.20616" lon="5.44592">
        <ele>170.65</ele>
        <time>2017-03-26T16:12:20Z</time>
      </trkpt>
      <trkpt lat="45.20627" lon="5.44634">
        <ele>169.85</ele>
        <time>2017-03-26T16:12:21Z</time>
      </trkpt>
      <trkpt lat="45.20638" lon="5.44676">
        <ele>169.29</ele>
        <time>2017-03-26T16:12:22Z</time>
      </trkpt>
      <trkpt lat="45.2065" lon="5.44719">
        <ele>168.7</ele>
        <time>2017-03-26T16:12:23Z</time>
      </trkpt>
      <trkpt lat="45.20661" lon="5.44762">
        <ele>168.34</ele>
        <time>2017-03-26T16:12:24Z</time>
      </trkpt>
      <trkpt lat="45.20673" lon="5.44805">
        <ele>167.95</ele>
        <time>2017-03-26T16:12:25Z</time>
      </trkpt>
      <trkpt lat="45.20684" lon="5.44847">
        <ele>167.47</ele>
        <time>2017-03-26T16:12:26Z</time>
      </trkpt>
      <trkpt lat="45.20695" lon="5.44889">
        <ele>167.05</ele>
        <time>2017-03-26T16:12:27Z</time>
      </trkpt>
      <trkpt lat="45.20706" lon="5.44932">
        <ele>166.89</ele>
        <time>2017-03-26T16:12:28Z</time>
      </trkpt>
      <trkpt lat="45.20718" lon="5.44974">
        <ele>167.1</ele>
        <time>2017-03-26T16:12:29Z</time>
      </trkpt>
      <trkpt lat="45.20729" lon="5.45017">
        <ele>167.38</ele>
        <time>2017-03-26T16:12:30Z</time>
      </trkpt>
      <trkpt lat="45.2074" lon="5.45059">
        <ele>167.03</ele>
        <time>2017-03-26T16:12:31Z</time>
      </trkpt>
      <trkpt lat="45.20751" lon="5.45102">
        <ele>166.65</ele>
        <time>2017-03-26T16:12:32Z</time>
      </trkpt>
      <trkpt lat="45.20762" lon="5.45144">
        <ele>166.73</ele>
        <time>2017-03-26T16:12:33Z</time>
      </trkpt>
      <trkpt lat="45.20774" lon="5.45187">
        <ele>166.98</ele>
        <time>2017-03-26T16:12:34Z</time>
      </trkpt>
      <trkpt lat="45.20785" lon="5.4523">
        <ele>167.2</ele>
        <time>2017-03-26T16:12:35Z</time>
      </trkpt>
      <trkpt lat="45.20796" lon="5.45273">
        <ele>167.16</ele>
        <time>2017-03-26T16:12:36Z</time>
      </trkpt>
      <trkpt lat="45.20807" lon="5.45316">
        <ele>166.99</ele>
        <time>2017-03-26T16:12:37Z</time>
      </trkpt>
      <trkpt lat="45.20818" lon="5.45358">
        <ele>166.56</ele>
        <time>2017-03-26T16:12:38Z</time>
      </trkpt>
      <trkpt lat="45.20829" lon="5.45401">
        <ele>166.07</ele>
        <time>2017-03-26T16:12:39Z</time>
      </trkpt>
      <trkpt lat="45.20839" lon="5.45445">
        <ele>165.41</ele>
        <time>2017-03-26T16:12:40Z</time>
      </trkpt>
      <trkpt lat="45.20849" lon="5.45489">
        <ele>164.64</ele>
        <time>2017-03-26T16:12:41Z</time>
      </trkpt>
      <trkpt lat="45.20857" lon="5.45533">
        <ele>163.93</ele>
        <time>2017-03-26T16:12:42Z</time>
      </trkpt>
      <trkpt lat="45.20865" lon="5.45577">
        <ele>162.98</ele>
        <time>2017-03-26T16:12:43Z</time>
      </trkpt>
      <trkpt lat="45.20873" lon="5.45622">
        <ele>161.6</ele>
        <time>2017-03-26T16:12:44Z</time>
      </trkpt>
      <trkpt lat="45.2088" lon="5.45668">
        <ele>160.68</ele>
        <time>2017-03-26T16:12:45Z</time>
      </trkpt>
      <trkpt lat="45.20886" lon="5.45714">
        <ele>159.37</ele>
        <time>2017-03-26T16:12:46Z</time>
      </trkpt>
      <trkpt lat="45.20892" lon="5.45759">
        <ele>157.91</ele>
        <time>2017-03-26T16:12:47Z</time>
      </trkpt>
      <trkpt lat="45.20897" lon="5.45805">
        <ele>156.5</ele>
        <time>2017-03-26T16:12:48Z</time>
      </trkpt>
      <trkpt lat="45.20902" lon="5.45851">
        <ele>154.94</ele>
        <time>2017-03-26T16:12:49Z</time>
      </trkpt>
      <trkpt lat="45.20907" lon="5.45897">
        <ele>153.27</ele>
        <time>2017-03-26T16:12:50Z</time>
      </trkpt>
      <trkpt lat="45.20912" lon="5.45943">
        <ele>151.73</ele>
        <time>2017-03-26T16:12:51Z</time>
      </trkpt>
      <trkpt lat="45.20918" lon="5.45989">
        <ele>150.39</ele>
        <time>2017-03-26T16:12:52Z</time>
      </trkpt>
      <trkpt lat="45.20924" lon="5.46035">
        <ele>148.84</ele>
        <time>2017-03-26T16:12:53Z</time>
      </trkpt>
      <trkpt lat="45.20929" lon="5.4608">
        <ele>147.09</ele>
        <time>2017-03-26T16:12:54Z</time>
      </trkpt>
      <trkpt lat="45.20935" lon="5.46126">
        <ele>145.14</ele>
        <time>2017-03-26T16:12:55Z</time>
      </trkpt>
      <trkpt lat="45.20942" lon="5.46171">
        <ele>143.39</ele>
        <time>2017-03-26T16:12:56Z</time>
      </trkpt>
      <trkpt lat="45.20949" lon="5.46216">
        <ele>141.52</ele>
        <time>2017-03-26T16:12:57Z</time>
      </trkpt>
      <trkpt lat="45.20956" lon="5.46261">
        <ele>139.78</ele>
        <time>2017-03-26T16:12:58Z</time>
      </trkpt>
      <trkpt lat="45.20965" lon="5.46305">
        <ele>138.08</ele>
        <time>2017-03-26T16:12:59Z</time>
      </trkpt>
      <trkpt lat="45.20974" lon="5.4635">
        <ele>136.77</ele>
        <time>2017-03-26T16:13:00Z</time>
      </trkpt>
      <trkpt lat="45.20983" lon="5.46394">
        <ele>135.31</ele>
        <time>2017-03-26T16:13:01Z</time>
      </trkpt>
      <trkpt lat="45.20994" lon="5.46438">
        <ele>133.9</ele>
        <time>2017-03-26T16:13:02Z</time>
      </trkpt>
      <trkpt lat="45.21004" lon="5.46482">
        <ele>131.62</ele>
        <time>2017-03-26T16:13:03Z</time>
      </trkpt>
      <trkpt lat="45.21016" lon="5.46525">
        <ele>129.88</ele>
        <time>2017-03-26T16:13:04Z</time>
      </trkpt>
      <trkpt lat="45.21028" lon="5.46568">
        <ele>128.1</ele>
        <time>2017-03-26T16:13:05Z</time>
      </trkpt>
      <trkpt lat="45.21041" lon="5.4661">
        <ele>126.54</ele>
        <time>2017-03-26T16:13:06Z</time>
      </trkpt>
      <trkpt lat="45.21055" lon="5.46652">
        <ele>125.59</ele>
        <time>2017-03-26T16:13:07Z</time>
      </trkpt>
      <trkpt lat="45.21068" lon="5.46694">
        <ele>124.84</ele>
        <time>2017-03-26T16:13:08Z</time>
      </trkpt>
      <trkpt lat="45.21081" lon="5.46736">
        <ele>124.93</ele>
        <time>2017-03-26T16:13:09Z</time>
      </trkpt>
      <trkpt lat="45.21096" lon="5.46776">
        <ele>124.38</ele>
        <time>2017-03-26T16:13:10Z</time>
      </trkpt>
      <trkpt lat="45.21111" lon="5.46817">
        <ele>123.88</ele>
        <time>2017-03-26T16:13:11Z</time>
      </trkpt>
      <trkpt lat="45.21127" lon="5.46856">
        <ele>123.37</ele>
        <time>2017-03-26T16:13:12Z</time>
      </trkpt>
      <trkpt lat="45.21143" lon="5.46895">
        <ele>123.11</ele>
        <time>2017-03-26T16:13:13Z</time>
      </trkpt>
      <trkpt lat="45.2116" lon="5.46933">
        <ele>122.66</ele>
        <time>2017-03-26T16:13:14Z</time>
      </trkpt>
      <trkpt lat="45.21178" lon="5.46972">
        <ele>121.85</ele>
        <time>2017-03-26T16:13:15Z</time>
      </trkpt>
      <trkpt lat="45.21196" lon="5.4701">
        <ele>121.45</ele>
        <time>2017-03-26T16:13:16Z</time>
      </trkpt>
      <trkpt lat="45.21215" lon="5.47047">
        <ele>121.21</ele>
        <time>2017-03-26T16:13:17Z</time>
      </trkpt>
      <trkpt lat="45.21234" lon="5.47084">
        <ele>121.08</ele>
        <time>2017-03-26T16:13:18Z</time>
      </trkpt>
      <trkpt lat="45.21254" lon="5.47121">
        <ele>120.98</ele>
        <time>2017-03-26T16:13:19Z</time>
      </trkpt>
      <trkpt lat="45.21275" lon="5.47157">
        <ele>120.71</ele>
        <time>2017-03-26T16:13:20Z</time>
      </trkpt>
      <trkpt lat="45.21296" lon="5.47193">
        <ele>120.42</ele>
        <time>2017-03-26T16:13:21Z</time>
      </trkpt>
      <trkpt lat="45.21317" lon="5.47229">
        <ele>120.36</ele>
        <time>2017-03-26T16:13:22Z</time>
      </trkpt>
      <trkpt lat="45.21339" lon="5.47263">
        <ele>120.43</ele>
        <time>2017-03-26T16:13:23Z</time>
      </trkpt>
      <trkpt lat="45.21362" lon="5.47297">
        <ele>120.93</ele>
        <time>2017-03-26T16:13:24Z</time>
      </trkpt>
      <trkpt lat="45.21386" lon="5.47331">
        <ele>121.02</ele>
        <time>2017-03-26T16:13:25Z</time>
      </trkpt>
      <trkpt lat="45.2141" lon="5.47364">
        <ele>121.04</ele>
        <time>2017-03-26T16:13:26Z</time>
      </trkpt>
      <trkpt lat="45.21434" lon="5.47396">
        <ele>120.73</ele>
        <time>2017-03-26T16:13:27Z</time>
      </trkpt>
      <trkpt lat="45.21459" lon="5.47427">
        <ele>120.26</ele>
        <time>2017-03-26T16:13:28Z</time>
      </trkpt>
      <trkpt lat="45.21485" lon="5.47457">
        <ele>120.01</ele>
        <time>2017-03-26T16:13:29Z</time>
      </trkpt>
      <trkpt lat="45.21512" lon="5.47486">
        <ele>119.72</ele>
        <time>2017-03-26T16:13:30Z</time>
      </trkpt>
      <trkpt lat="45.21539" lon="5.47514">
        <ele>119.18</ele>
        <time>2017-03-26T16:13:31Z</time>
      </trkpt>
      <trkpt lat="45.21567" lon="5.47542">
        <ele>118.76</ele>
        <time>2017-03-26T16:13:32Z</time>
      </trkpt>
      <trkpt lat="45.21595" lon="5.47569">
        <ele>118.67</ele>
        <time>2017-03-26T16:13:33Z</time>
      </trkpt>
      <trkpt lat="45.21623" lon="5.47596">
        <ele>118.81</ele>
        <time>2017-03-26T16:13:34Z</time>
      </trkpt>
      <trkpt lat="45.21651" lon="5.47622">
        <ele>118.76</ele>
        <time>2017-03-26T16:13:35Z</time>
      </trkpt>
      <trkpt lat="45.2168" lon="5.47648">
        <ele>118.91</ele>
        <time>2017-03-26T16:13:36Z</time>
      </trkpt>
      <trkpt lat="45.21708" lon="5.47673">
        <ele>119.34</ele>
        <time>2017-03-26T16:13:37Z</time>
      </trkpt>
      <trkpt lat="45.21737" lon="5.47698">
        <ele>119.75</ele>
        <time>2017-03-26T16:13:38Z</time>
      </trkpt>
      <trkpt lat="45.21765" lon="5.47724">
        <ele>120.07</ele>
        <time>2017-03-26T16:13:39Z</time>
      </trkpt>
      <trkpt lat="45.21793" lon="5.47749">
        <ele>120.29</ele>
        <time>2017-03-26T16:13:40Z</time>
      </trkpt>
      <trkpt lat="45.21822" lon="5.47774">
        <ele>120.5</ele>
        <time>2017-03-26T16:13:41Z</time>
      </trkpt>
      <trkpt lat="45.2185" lon="5.47798">
        <ele>120.78</ele>
        <time>2017-03-26T16:13:42Z</time>
      </trkpt>
      <trkpt lat="45.21878" lon="5.47823">
        <ele>120.75</ele>
        <time>2017-03-26T16:13:43Z</time>
      </trkpt>
      <trkpt lat="45.21907" lon="5.47847">
        <ele>120.99</ele>
        <time>2017-03-26T16:13:44Z</time>
      </trkpt>
      <trkpt lat="45.21935" lon="5.4787">
        <ele>121.12</ele>
        <time>2017-03-26T16:13:45Z</time>
      </trkpt>
      <trkpt lat="45.21964" lon="5.47892">
        <ele>121.14</ele>
        <time>2017-03-26T16:13:46Z</time>
      </trkpt>
      <trkpt lat="45.21993" lon="5.47914">
        <ele>121.15</ele>
        <time>2017-03-26T16:13:47Z</time>
      </trkpt>
      <trkpt lat="45.22022" lon="5.47934">
        <ele>121.07</ele>
        <time>2017-03-26T16:13:48Z</time>
      </trkpt>
      <trkpt lat="45.22051" lon="5.47954">
        <ele>120.81</ele>
        <time>2017-03-26T16:13:49Z</time>
      </trkpt>
      <trkpt lat="45.22081" lon="5.47973">
        <ele>120.84</ele>
        <time>2017-03-26T16:13:50Z</time>
      </trkpt>
      <trkpt lat="45.22111" lon="5.4799">
        <ele>121.01</ele>
        <time>2017-03-26T16:13:51Z</time>
      </trkpt>
      <trkpt lat="45.22142" lon="5.48008">
        <ele>121.2</ele>
        <time>2017-03-26T16:13:52Z</time>
      </trkpt>
      <trkpt lat="45.22173" lon="5.48024">
        <ele>121.4</ele>
        <time>2017-03-26T16:13:53Z</time>
      </trkpt>
      <trkpt lat="45.22204" lon="5.48039">
        <ele>121.52</ele>
        <time>2017-03-26T16:13:54Z</time>
      </trkpt>
      <trkpt lat="45.22236" lon="5.48054">
        <ele>121.7</ele>
        <time>2017-03-26T16:13:55Z</time>
      </trkpt>
      <trkpt lat="45.22267" lon="5.48068">
        <ele>121.66</ele>
        <time>2017-03-26T16:13:56Z</time>
      </trkpt>
      <trkpt lat="45.22299" lon="5.4808">
        <ele>121.73</ele>
        <time>2017-03-26T16:13:57Z</time>
      </trkpt>
      <trkpt lat="45.22331" lon="5.48092">
        <ele>121.91</ele>
        <time>2017-03-26T16:13:58Z</time>
      </trkpt>
      <trkpt lat="45.22364" lon="5.48104">
        <ele>122.02</ele>
        <time>2017-03-26T16:13:59Z</time>
      </trkpt>
      <trkpt lat="45.22396" lon="5.48114">
        <ele>122.04</ele>
        <time>2017-03-26T16:14:00Z</time>
      </trkpt>
      <trkpt lat="45.22429" lon="5.48124">
        <ele>122.13</ele>
        <time>2017-03-26T16:14:01Z</time>
      </trkpt>
      <trkpt lat="45.22462" lon="5.48133">
        <ele>122.38</ele>
        <time>2017-03-26T16:14:02Z</time>
      </trkpt>
      <trkpt lat="45.22494" lon="5.4814">
        <ele>122.52</ele>
        <time>2017-03-26T16:14:03Z</time>
      </trkpt>
      <trkpt lat="45.22527" lon="5.48148">
        <ele>122.78</ele>
        <time>2017-03-26T16:14:04Z</time>
      </trkpt>
      <trkpt lat="45.22561" lon="5.48154">
        <ele>123.24</ele>
        <time>2017-03-26T16:14:05Z</time>
      </trkpt>
      <trkpt lat="45.22595" lon="5.4816">
        <ele>123.73</ele>
        <time>2017-03-26T16:14:06Z</time>
      </trkpt>
      <trkpt lat="45.22628" lon="5.48167">
        <ele>123.74</ele>
        <time>2017-03-26T16:14:07Z</time>
      </trkpt>
      <trkpt lat="45.22661" lon="5.48175">
        <ele>123.83</ele>
        <time>2017-03-26T16:14:08Z</time>
      </trkpt>
      <trkpt lat="45.22694" lon="5.48182">
        <ele>123.76</ele>
        <time>2017-03-26T16:14:09Z</time>
      </trkpt>
      <trkpt lat="45.22727" lon="5.48191">
        <ele>123.83</ele>
        <time>2017-03-26T16:14:10Z</time>
      </trkpt>
      <trkpt lat="45.22759" lon="5.482">
        <ele>123.93</ele>
        <time>2017-03-26T16:14:11Z</time>
      </trkpt>
      <trkpt lat="45.22792" lon="5.4821">
        <ele>123.94</ele>
        <time>2017-03-26T16:14:12Z</time>
      </trkpt>
      <trkpt lat="45.22824" lon="5.48222">
        <ele>123.71</ele>
        <time>2017-03-26T16:14:13Z</time>
      </trkpt>
      <trkpt lat="45.22856" lon="5.48235">
        <ele>123.34</ele>
        <time>2017-03-26T16:14:14Z</time>
      </trkpt>
      <trkpt lat="45.22888" lon="5.48249">
        <ele>122.95</ele>
        <time>2017-03-26T16:14:15Z</time>
      </trkpt>
      <trkpt lat="45.22919" lon="5.48263">
        <ele>122.71</ele>
        <time>2017-03-26T16:14:16Z</time>
      </trkpt>
      <trkpt lat="45.2295" lon="5.48278">
        <ele>122.5</ele>
        <time>2017-03-26T16:14:17Z</time>
      </trkpt>
      <trkpt lat="45.22981" lon="5.48294">
        <ele>122.46</ele>
        <time>2017-03-26T16:14:18Z</time>
      </trkpt>
      <trkpt lat="45.23011" lon="5.48311">
        <ele>122.13</ele>
        <time>2017-03-26T16:14:19Z</time>
      </trkpt>
      <trkpt lat="45.23041" lon="5.48328">
        <ele>121.67</ele>
        <time>2017-03-26T16:14:20Z</time>
      </trkpt>
      <trkpt lat="45.23071" lon="5.48347">
        <ele>121.33</ele>
        <time>2017-03-26T16:14:21Z</time>
      </trkpt>
      <trkpt lat="45.231" lon="5.48366">
        <ele>121.27</ele>
        <time>2017-03-26T16:14:22Z</time>
      </trkpt>
      <trkpt lat="45.23129" lon="5.48386">
        <ele>121.57</ele>
        <time>2017-03-26T16:14:23Z</time>
      </trkpt>
      <trkpt lat="45.23158" lon="5.48407">
        <ele>121.23</ele>
        <time>2017-03-26T16:14:24Z</time>
      </trkpt>
      <trkpt lat="45.23186" lon="5.48429">
        <ele>121.25</ele>
        <time>2017-03-26T16:14:25Z</time>
      </trkpt>
      <trkpt lat="45.23214" lon="5.48452">
        <ele>121.73</ele>
        <time>2017-03-26T16:14:26Z</time>
      </trkpt>
      <trkpt lat="45.23242" lon="5.48475">
        <ele>122.38</ele>
        <time>2017-03-26T16:14:27Z</time>
      </trkpt>
      <trkpt lat="45.2327" lon="5.485">
        <ele>122.68</ele>
        <time>2017-03-26T16:14:28Z</time>
      </trkpt>
      <trkpt lat="45.23297" lon="5.48525">
        <ele>123.29</ele>
        <time>2017-03-26T16:14:29Z</time>
      </trkpt>
      <trkpt lat="45.23324" lon="5.48552">
        <ele>123.82</ele>
        <time>2017-03-26T16:14:30Z</time>
      </trkpt>
      <trkpt lat="45.2335" lon="5.48579">
        <ele>124.4</ele>
        <time>2017-03-26T16:14:31Z</time>
      </trkpt>
      <trkpt lat="45.23376" lon="5.48606">
        <ele>124.76</ele>
        <time>2017-03-26T16:14:32Z</time>
      </trkpt>
      <trkpt lat="45.23402" lon="5.48634">
        <ele>125.15</ele>
        <time>2017-03-26T16:14:33Z</time>
      </trkpt>
      <trkpt lat="45.23427" lon="5.48663">
        <ele>125.39</ele>
        <time>2017-03-26T16:14:34Z</time>
      </trkpt>
      <trkpt lat="45.23451" lon="5.48693">
        <ele>125.52</ele>
        <time>2017-03-26T16:14:35Z</time>
      </trkpt>
      <trkpt lat="45.23476" lon="5.48723">
        <ele>125.86</ele>
        <time>2017-03-26T16:14:36Z</time>
      </trkpt>
      <trkpt lat="45.23499" lon="5.48753">
        <ele>125.93</ele>
        <time>2017-03-26T16:14:37Z</time>
      </trkpt>
      <trkpt lat="45.23523" lon="5.48785">
        <ele>126.19</ele>
        <time>2017-03-26T16:14:38Z</time>
      </trkpt>
      <trkpt lat="45.23546" lon="5.48817">
        <ele>126.16</ele>
        <time>2017-03-26T16:14:39Z</time>
      </trkpt>
      <trkpt lat="45.23568" lon="5.4885">
        <ele>126.07</ele>
        <time>2017-03-26T16:14:40Z</time>
      </trkpt>
      <trkpt lat="45.2359" lon="5.48884">
        <ele>126.05</ele>
        <time>2017-03-26T16:14:41Z</time>
      </trkpt>
      <trkpt lat="45.23612" lon="5.48918">
        <ele>126.13</ele>
        <time>2017-03-26T16:14:42Z</time>
      </trkpt>
      <trkpt lat="45.23634" lon="5.48952">
        <ele>126.23</ele>
        <time>2017-03-26T16:14:43Z</time>
      </trkpt>
      <trkpt lat="45.23655" lon="5.48988">
        <ele>126</ele>
        <time>2017-03-26T16:14:44Z</time>
      </trkpt>
      <trkpt lat="45.23676" lon="5.49024">
        <ele>126.04</ele>
        <time>2017-03-26T16:14:45Z</time>
      </trkpt>
      <trkpt lat="45.23695" lon="5.49061">
        <ele>125.89</ele>
        <time>2017-03-26T16:14:46Z</time>
      </trkpt>
      <trkpt lat="45.23715" lon="5.49097">
        <ele>125.78</ele>
        <time>2017-03-26T16:14:47Z</time>
      </trkpt>
      <trkpt lat="45.23735" lon="5.49134">
        <ele>125.91</ele>
        <time>2017-03-26T16:14:48Z</time>
      </trkpt>
      <trkpt lat="45.23755" lon="5.4917">
        <ele>126.02</ele>
        <time>2017-03-26T16:14:49Z</time>
      </trkpt>
      <trkpt lat="45.23775" lon="5.49206">
        <ele>126.12</ele>
        <time>2017-03-26T16:14:50Z</time>
      </trkpt>
      <trkpt lat="45.23795" lon="5.49242">
        <ele>126.3</ele>
        <time>2017-03-26T16:14:51Z</time>
      </trkpt>
      <trkpt lat="45.23815" lon="5.49278">
        <ele>126.42</ele>
        <time>2017-03-26T16:14:52Z</time>
      </trkpt>
      <trkpt lat="45.23835" lon="5.49314">
        <ele>126.6</ele>
        <time>2017-03-26T16:14:53Z</time>
      </trkpt>
      <trkpt lat="45.23856" lon="5.49351">
        <ele>127.04</ele>
        <time>2017-03-26T16:14:54Z</time>
      </trkpt>
      <trkpt lat="45.23876" lon="5.49387">
        <ele>127.05</ele>
        <time>2017-03-26T16:14:55Z</time>
      </trkpt>
      <trkpt lat="45.23896" lon="5.49425">
        <ele>127.05</ele>
        <time>2017-03-26T16:14:56Z</time>
      </trkpt>
      <trkpt lat="45.23916" lon="5.49462">
        <ele>127.05</ele>
        <time>2017-03-26T16:14:57Z</time>
      </trkpt>
      <trkpt lat="45.23937" lon="5.49499">
        <ele>127.13</ele>
        <time>2017-03-26T16:14:58Z</time>
      </trkpt>
      <trkpt lat="45.23957" lon="5.49536">
        <ele>127.22</ele>
        <time>2017-03-26T16:14:59Z</time>
      </trkpt>
      <trkpt lat="45.23977" lon="5.49572">
        <ele>127.4</ele>
        <time>2017-03-26T16:15:00Z</time>
      </trkpt>
      <trkpt lat="45.23998" lon="5.49608">
        <ele>127.52</ele>
        <time>2017-03-26T16:15:01Z</time>
      </trkpt>
      <trkpt lat="45.24019" lon="5.49643">
        <ele>127.7</ele>
        <time>2017-03-26T16:15:02Z</time>
      </trkpt>
      <trkpt lat="45.24041" lon="5.49678">
        <ele>127.82</ele>
        <time>2017-03-26T16:15:03Z</time>
      </trkpt>
      <trkpt lat="45.24063" lon="5.49711">
        <ele>127.92</ele>
        <time>2017-03-26T16:15:04Z</time>
      </trkpt>
      <trkpt lat="45.24086" lon="5.49744">
        <ele>127.86</ele>
        <time>2017-03-26T16:15:05Z</time>
      </trkpt>
      <trkpt lat="45.24108" lon="5.49777">
        <ele>127.37</ele>
        <time>2017-03-26T16:15:06Z</time>
      </trkpt>
      <trkpt lat="45.24132" lon="5.49809">
        <ele>127.11</ele>
        <time>2017-03-26T16:15:07Z</time>
      </trkpt>
      <trkpt lat="45.24156" lon="5.4984">
        <ele>127.14</ele>
        <time>2017-03-26T16:15:08Z</time>
      </trkpt>
      <trkpt lat="45.24181" lon="5.49871">
        <ele>127.15</ele>
        <time>2017-03-26T16:15:09Z</time>
      </trkpt>
      <trkpt lat="45.24206" lon="5.499">
        <ele>127.15</ele>
        <time>2017-03-26T16:15:10Z</time>
      </trkpt>
      <trkpt lat="45.24233" lon="5.49929">
        <ele>127.47</ele>
        <time>2017-03-26T16:15:11Z</time>
      </trkpt>
      <trkpt lat="45.24259" lon="5.49957">
        <ele>127.69</ele>
        <time>2017-03-26T16:15:12Z</time>
      </trkpt>
      <trkpt lat="45.24286" lon="5.49984">
        <ele>127.66</ele>
        <time>2017-03-26T16:15:13Z</time>
      </trkpt>
      <trkpt lat="45.24314" lon="5.5001">
        <ele>127.57</ele>
        <time>2017-03-26T16:15:14Z</time>
      </trkpt>
      <trkpt lat="45.24342" lon="5.50035">
        <ele>127.55</ele>
        <time>2017-03-26T16:15:15Z</time>
      </trkpt>
      <trkpt lat="45.2437" lon="5.5006">
        <ele>127.63</ele>
        <time>2017-03-26T16:15:16Z</time>
      </trkpt>
      <trkpt lat="45.24398" lon="5.50084">
        <ele>127.49</ele>
        <time>2017-03-26T16:15:17Z</time>
      </trkpt>
      <trkpt lat="45.24427" lon="5.50107">
        <ele>127.54</ele>
        <time>2017-03-26T16:15:18Z</time>
      </trkpt>
      <trkpt lat="45.24456" lon="5.5013">
        <ele>127.31</ele>
        <time>2017-03-26T16:15:19Z</time>
      </trkpt>
      <trkpt lat="45.24484" lon="5.50151">
        <ele>127.26</ele>
        <time>2017-03-26T16:15:20Z</time>
      </trkpt>
      <trkpt lat="45.24514" lon="5.50172">
        <ele>127.09</ele>
        <time>2017-03-26T16:15:21Z</time>
      </trkpt>
      <trkpt lat="45.24544" lon="5.50191">
        <ele>127.06</ele>
        <time>2017-03-26T16:15:22Z</time>
      </trkpt>
      <trkpt lat="45.24573" lon="5.5021">
        <ele>127.13</ele>
        <time>2017-03-26T16:15:23Z</time>
      </trkpt>
      <trkpt lat="45.24603" lon="5.50229">
        <ele>126.99</ele>
        <time>2017-03-26T16:15:24Z</time>
      </trkpt>
      <trkpt lat="45.24633" lon="5.50246">
        <ele>126.88</ele>
        <time>2017-03-26T16:15:25Z</time>
      </trkpt>
      <trkpt lat="45.24664" lon="5.50263">
        <ele>126.69</ele>
        <time>2017-03-26T16:15:26Z</time>
      </trkpt>
      <trkpt lat="45.24694" lon="5.50279">
        <ele>126.58</ele>
        <time>2017-03-26T16:15:27Z</time>
      </trkpt>
      <trkpt lat="45.24725" lon="5.50295">
        <ele>126.39</ele>
        <time>2017-03-26T16:15:28Z</time>
      </trkpt>
      <trkpt lat="45.24755" lon="5.50311">
        <ele>126.2</ele>
        <time>2017-03-26T16:15:29Z</time>
      </trkpt>
      <trkpt lat="45.24786" lon="5.50326">
        <ele>125.92</ele>
        <time>2017-03-26T16:15:30Z</time>
      </trkpt>
      <trkpt lat="45.24816" lon="5.50342">
        <ele>125.62</ele>
        <time>2017-03-26T16:15:31Z</time>
      </trkpt>
      <trkpt lat="45.24846" lon="5.50357">
        <ele>125.48</ele>
        <time>2017-03-26T16:15:32Z</time>
      </trkpt>
      <trkpt lat="45.24876" lon="5.50373">
        <ele>125.46</ele>
        <time>2017-03-26T16:15:33Z</time>
      </trkpt>
      <trkpt lat="45.24907" lon="5.50389">
        <ele>125.29</ele>
        <time>2017-03-26T16:15:34Z</time>
      </trkpt>
      <trkpt lat="45.24937" lon="5.50406">
        <ele>125.1</ele>
        <time>2017-03-26T16:15:35Z</time>
      </trkpt>
      <trkpt lat="45.24967" lon="5.50423">
        <ele>124.9</ele>
        <time>2017-03-26T16:15:36Z</time>
      </trkpt>
      <trkpt lat="45.24996" lon="5.50441">
        <ele>124.38</ele>
        <time>2017-03-26T16:15:37Z</time>
      </trkpt>
      <trkpt lat="45.25026" lon="5.5046">
        <ele>124.03</ele>
        <time>2017-03-26T16:15:38Z</time>
      </trkpt>
      <trkpt lat="45.25055" lon="5.5048">
        <ele>123.89</ele>
        <time>2017-03-26T16:15:39Z</time>
      </trkpt>
      <trkpt lat="45.25084" lon="5.50501">
        <ele>123.86</ele>
        <time>2017-03-26T16:15:40Z</time>
      </trkpt>
      <trkpt lat="45.25112" lon="5.50522">
        <ele>123.85</ele>
        <time>2017-03-26T16:15:41Z</time>
      </trkpt>
      <trkpt lat="45.25141" lon="5.50545">
        <ele>123.85</ele>
        <time>2017-03-26T16:15:42Z</time>
      </trkpt>
      <trkpt lat="45.25169" lon="5.50568">
        <ele>123.93</ele>
        <time>2017-03-26T16:15:43Z</time>
      </trkpt>
      <trkpt lat="45.25197" lon="5.50592">
        <ele>124.51</ele>
        <time>2017-03-26T16:15:44Z</time>
      </trkpt>
      <trkpt lat="45.25224" lon="5.50617">
        <ele>124.7</ele>
        <time>2017-03-26T16:15:45Z</time>
      </trkpt>
      <trkpt lat="45.25252" lon="5.50643">
        <ele>124.82</ele>
        <time>2017-03-26T16:15:46Z</time>
      </trkpt>
      <trkpt lat="45.2528" lon="5.50668">
        <ele>125.08</ele>
        <time>2017-03-26T16:15:47Z</time>
      </trkpt>
      <trkpt lat="45.25307" lon="5.50695">
        <ele>125.3</ele>
        <time>2017-03-26T16:15:48Z</time>
      </trkpt>
      <trkpt lat="45.25333" lon="5.50721">
        <ele>125.26</ele>
        <time>2017-03-26T16:15:49Z</time>
      </trkpt>
      <trkpt lat="45.2536" lon="5.50747">
        <ele>125.17</ele>
        <time>2017-03-26T16:15:50Z</time>
      </trkpt>
      <trkpt lat="45.25387" lon="5.50773">
        <ele>124.83</ele>
        <time>2017-03-26T16:15:51Z</time>
      </trkpt>
      <trkpt lat="45.25413" lon="5.50799">
        <ele>124.77</ele>
        <time>2017-03-26T16:15:52Z</time>
      </trkpt>
      <trkpt lat="45.2544" lon="5.50824">
        <ele>124.99</ele>
        <time>2017-03-26T16:15:53Z</time>
      </trkpt>
      <trkpt lat="45.25467" lon="5.5085">
        <ele>125.28</ele>
        <time>2017-03-26T16:15:54Z</time>
      </trkpt>
      <trkpt lat="45.25493" lon="5.50875">
        <ele>125.33</ele>
        <time>2017-03-26T16:15:55Z</time>
      </trkpt>
      <trkpt lat="45.2552" lon="5.50901">
        <ele>125.51</ele>
        <time>2017-03-26T16:15:56Z</time>
      </trkpt>
      <trkpt lat="45.25547" lon="5.50926">
        <ele>125.54</ele>
        <time>2017-03-26T16:15:57Z</time>
      </trkpt>
      <trkpt lat="45.25573" lon="5.50952">
        <ele>125.71</ele>
        <time>2017-03-26T16:15:58Z</time>
      </trkpt>
      <trkpt lat="45.256" lon="5.50978">
        <ele>125.66</ele>
        <time>2017-03-26T16:15:59Z</time>
      </trkpt>
      <trkpt lat="45.25627" lon="5.51005">
        <ele>125.65</ele>
        <time>2017-03-26T16:16:00Z</time>
      </trkpt>
      <trkpt lat="45.25653" lon="5.51031">
        <ele>125.65</ele>
        <time>2017-03-26T16:16:01Z</time>
      </trkpt>
      <trkpt lat="45.2568" lon="5.51057">
        <ele>125.81</ele>
        <time>2017-03-26T16:16:02Z</time>
      </trkpt>
      <trkpt lat="45.25707" lon="5.51083">
        <ele>125.36</ele>
        <time>2017-03-26T16:16:03Z</time>
      </trkpt>
      <trkpt lat="45.25734" lon="5.51109">
        <ele>125.19</ele>
        <time>2017-03-26T16:16:04Z</time>
      </trkpt>
      <trkpt lat="45.25761" lon="5.51135">
        <ele>125</ele>
        <time>2017-03-26T16:16:05Z</time>
      </trkpt>
      <trkpt lat="45.25788" lon="5.51161">
        <ele>124.96</ele>
        <time>2017-03-26T16:16:06Z</time>
      </trkpt>
      <trkpt lat="45.25815" lon="5.51186">
        <ele>124.79</ele>
        <time>2017-03-26T16:16:07Z</time>
      </trkpt>
      <trkpt lat="45.25842" lon="5.51211">
        <ele>124.92</ele>
        <time>2017-03-26T16:16:08Z</time>
      </trkpt>
      <trkpt lat="45.25869" lon="5.51236">
        <ele>124.7</ele>
        <time>2017-03-26T16:16:09Z</time>
      </trkpt>
      <trkpt lat="45.25896" lon="5.51261">
        <ele>124.66</ele>
        <time>2017-03-26T16:16:10Z</time>
      </trkpt>
      <trkpt lat="45.25922" lon="5.51287">
        <ele>124.65</ele>
        <time>2017-03-26T16:16:11Z</time>
      </trkpt>
      <trkpt lat="45.25948" lon="5.51313">
        <ele>125.13</ele>
        <time>2017-03-26T16:16:12Z</time>
      </trkpt>
      <trkpt lat="45.25975" lon="5.51339">
        <ele>125.15</ele>
        <time>2017-03-26T16:16:13Z</time>
      </trkpt>
      <trkpt lat="45.26001" lon="5.51364">
        <ele>125.07</ele>
        <time>2017-03-26T16:16:14Z</time>
      </trkpt>
      <trkpt lat="45.26028" lon="5.51389">
        <ele>124.97</ele>
        <time>2017-03-26T16:16:15Z</time>
      </trkpt>
      <trkpt lat="45.26055" lon="5.51415">
        <ele>124.95</ele>
        <time>2017-03-26T16:16:16Z</time>
      </trkpt>
      <trkpt lat="45.26081" lon="5.5144">
        <ele>125.19</ele>
        <time>2017-03-26T16:16:17Z</time>
      </trkpt>
      <trkpt lat="45.26108" lon="5.51466">
        <ele>125.4</ele>
        <time>2017-03-26T16:16:18Z</time>
      </trkpt>
      <trkpt lat="45.26134" lon="5.51491">
        <ele>125.44</ele>
        <time>2017-03-26T16:16:19Z</time>
      </trkpt>
      <trkpt lat="45.2616" lon="5.51517">
        <ele>125.37</ele>
        <time>2017-03-26T16:16:20Z</time>
      </trkpt>
      <trkpt lat="45.26187" lon="5.51544">
        <ele>125.19</ele>
        <time>2017-03-26T16:16:21Z</time>
      </trkpt>
      <trkpt lat="45.26213" lon="5.5157">
        <ele>125</ele>
        <time>2017-03-26T16:16:22Z</time>
      </trkpt>
      <trkpt lat="45.2624" lon="5.51596">
        <ele>124.8</ele>
        <time>2017-03-26T16:16:23Z</time>
      </trkpt>
      <trkpt lat="45.26267" lon="5.51622">
        <ele>124.52</ele>
        <time>2017-03-26T16:16:24Z</time>
      </trkpt>
      <trkpt lat="45.26294" lon="5.51647">
        <ele>124.46</ele>
        <time>2017-03-26T16:16:25Z</time>
      </trkpt>
      <trkpt lat="45.26321" lon="5.51672">
        <ele>124.29</ele>
        <time>2017-03-26T16:16:26Z</time>
      </trkpt>
      <trkpt lat="45.26349" lon="5.51696">
        <ele>124.02</ele>
        <time>2017-03-26T16:16:27Z</time>
      </trkpt>
      <trkpt lat="45.26377" lon="5.5172">
        <ele>123.64</ele>
        <time>2017-03-26T16:16:28Z</time>
      </trkpt>
      <trkpt lat="45.26406" lon="5.51743">
        <ele>123.41</ele>
        <time>2017-03-26T16:16:29Z</time>
      </trkpt>
      <trkpt lat="45.26435" lon="5.51764">
        <ele>123.04</ele>
        <time>2017-03-26T16:16:30Z</time>
      </trkpt>
      <trkpt lat="45.26464" lon="5.51786">
        <ele>123.13</ele>
        <time>2017-03-26T16:16:31Z</time>
      </trkpt>
      <trkpt lat="45.26493" lon="5.51805">
        <ele>122.98</ele>
        <time>2017-03-26T16:16:32Z</time>
      </trkpt>
      <trkpt lat="45.26523" lon="5.51824">
        <ele>122.96</ele>
        <time>2017-03-26T16:16:33Z</time>
      </trkpt>
      <trkpt lat="45.26553" lon="5.51842">
        <ele>122.55</ele>
        <time>2017-03-26T16:16:34Z</time>
      </trkpt>
      <trkpt lat="45.26583" lon="5.51859">
        <ele>122.47</ele>
        <time>2017-03-26T16:16:35Z</time>
      </trkpt>
      <trkpt lat="45.26613" lon="5.51876">
        <ele>122.37</ele>
        <time>2017-03-26T16:16:36Z</time>
      </trkpt>
      <trkpt lat="45.26643" lon="5.51892">
        <ele>122.51</ele>
        <time>2017-03-26T16:16:37Z</time>
      </trkpt>
      <trkpt lat="45.26674" lon="5.51907">
        <ele>122.54</ele>
        <time>2017-03-26T16:16:38Z</time>
      </trkpt>
      <trkpt lat="45.26705" lon="5.51921">
        <ele>122.39</ele>
        <time>2017-03-26T16:16:39Z</time>
      </trkpt>
      <trkpt lat="45.26737" lon="5.51934">
        <ele>122.12</ele>
        <time>2017-03-26T16:16:40Z</time>
      </trkpt>
      <trkpt lat="45.26769" lon="5.51947">
        <ele>121.74</ele>
        <time>2017-03-26T16:16:41Z</time>
      </trkpt>
      <trkpt lat="45.26802" lon="5.51958">
        <ele>121.11</ele>
        <time>2017-03-26T16:16:42Z</time>
      </trkpt>
      <trkpt lat="45.26833" lon="5.5197">
        <ele>120.26</ele>
        <time>2017-03-26T16:16:43Z</time>
      </trkpt>
      <trkpt lat="45.26866" lon="5.51981">
        <ele>119.53</ele>
        <time>2017-03-26T16:16:44Z</time>
      </trkpt>
      <trkpt lat="45.26898" lon="5.51992">
        <ele>118.91</ele>
        <time>2017-03-26T16:16:45Z</time>
      </trkpt>
      <trkpt lat="45.2693" lon="5.52002">
        <ele>118.54</ele>
        <time>2017-03-26T16:16:46Z</time>
      </trkpt>
      <trkpt lat="45.26962" lon="5.52013">
        <ele>118.23</ele>
        <time>2017-03-26T16:16:47Z</time>
      </trkpt>
      <trkpt lat="45.26994" lon="5.52024">
        <ele>118</ele>
        <time>2017-03-26T16:16:48Z</time>
      </trkpt>
      <trkpt lat="45.27026" lon="5.52035">
        <ele>117.96</ele>
        <time>2017-03-26T16:16:49Z</time>
      </trkpt>
      <trkpt lat="45.27058" lon="5.52046">
        <ele>117.79</ele>
        <time>2017-03-26T16:16:50Z</time>
      </trkpt>
      <trkpt lat="45.2709" lon="5.52056">
        <ele>117.76</ele>
        <time>2017-03-26T16:16:51Z</time>
      </trkpt>
      <trkpt lat="45.27122" lon="5.52067">
        <ele>117.67</ele>
        <time>2017-03-26T16:16:52Z</time>
      </trkpt>
      <trkpt lat="45.27153" lon="5.52078">
        <ele>117.33</ele>
        <time>2017-03-26T16:16:53Z</time>
      </trkpt>
      <trkpt lat="45.27185" lon="5.52089">
        <ele>117.19</ele>
        <time>2017-03-26T16:16:54Z</time>
      </trkpt>
      <trkpt lat="45.27217" lon="5.521">
        <ele>117.16</ele>
        <time>2017-03-26T16:16:55Z</time>
      </trkpt>
      <trkpt lat="45.27249" lon="5.52111">
        <ele>116.83</ele>
        <time>2017-03-26T16:16:56Z</time>
      </trkpt>
      <trkpt lat="45.27281" lon="5.52122">
        <ele>116.61</ele>
        <time>2017-03-26T16:16:57Z</time>
      </trkpt>
      <trkpt lat="45.27313" lon="5.52133">
        <ele>116.8</ele>
        <time>2017-03-26T16:16:58Z</time>
      </trkpt>
      <trkpt lat="45.27344" lon="5.52144">
        <ele>116.36</ele>
        <time>2017-03-26T16:16:59Z</time>
      </trkpt>
      <trkpt lat="45.27376" lon="5.52154">
        <ele>116.11</ele>
        <time>2017-03-26T16:17:00Z</time>
      </trkpt>
      <trkpt lat="45.27407" lon="5.52165">
        <ele>115.9</ele>
        <time>2017-03-26T16:17:01Z</time>
      </trkpt>
      <trkpt lat="45.27438" lon="5.52176">
        <ele>116.02</ele>
        <time>2017-03-26T16:17:02Z</time>
      </trkpt>
      <trkpt lat="45.27469" lon="5.52187">
        <ele>116.28</ele>
        <time>2017-03-26T16:17:03Z</time>
      </trkpt>
      <trkpt lat="45.275" lon="5.52198">
        <ele>116.42</ele>
        <time>2017-03-26T16:17:04Z</time>
      </trkpt>
      <trkpt lat="45.27531" lon="5.52209">
        <ele>116.84</ele>
        <time>2017-03-26T16:17:05Z</time>
      </trkpt>
      <trkpt lat="45.27562" lon="5.52219">
        <ele>117.09</ele>
        <time>2017-03-26T16:17:06Z</time>
      </trkpt>
      <trkpt lat="45.27593" lon="5.5223">
        <ele>117.06</ele>
        <time>2017-03-26T16:17:07Z</time>
      </trkpt>
      <trkpt lat="45.27623" lon="5.52241">
        <ele>117.85</ele>
        <time>2017-03-26T16:17:08Z</time>
      </trkpt>
      <trkpt lat="45.27654" lon="5.52251">
        <ele>118.09</ele>
        <time>2017-03-26T16:17:09Z</time>
      </trkpt>
      <trkpt lat="45.27684" lon="5.52262">
        <ele>118.3</ele>
        <time>2017-03-26T16:17:10Z</time>
      </trkpt>
      <trkpt lat="45.27715" lon="5.52272">
        <ele>118.26</ele>
        <time>2017-03-26T16:17:11Z</time>
      </trkpt>
      <trkpt lat="45.27746" lon="5.52283">
        <ele>118.57</ele>
        <time>2017-03-26T16:17:12Z</time>
      </trkpt>
      <trkpt lat="45.27777" lon="5.52293">
        <ele>118.95</ele>
        <time>2017-03-26T16:17:13Z</time>
      </trkpt>
      <trkpt lat="45.27807" lon="5.52304">
        <ele>119.43</ele>
        <time>2017-03-26T16:17:14Z</time>
      </trkpt>
      <trkpt lat="45.27838" lon="5.52313">
        <ele>119.93</ele>
        <time>2017-03-26T16:17:15Z</time>
      </trkpt>
      <trkpt lat="45.27869" lon="5.52322">
        <ele>121.06</ele>
        <time>2017-03-26T16:17:16Z</time>
      </trkpt>
      <trkpt lat="45.279" lon="5.52329">
        <ele>122.33</ele>
        <time>2017-03-26T16:17:17Z</time>
      </trkpt>
      <trkpt lat="45.27931" lon="5.52336">
        <ele>123.31</ele>
        <time>2017-03-26T16:17:18Z</time>
      </trkpt>
      <trkpt lat="45.27962" lon="5.52343">
        <ele>123.82</ele>
        <time>2017-03-26T16:17:19Z</time>
      </trkpt>
      <trkpt lat="45.27992" lon="5.52348">
        <ele>124.4</ele>
        <time>2017-03-26T16:17:20Z</time>
      </trkpt>
      <trkpt lat="45.28023" lon="5.52352">
        <ele>125.16</ele>
        <time>2017-03-26T16:17:21Z</time>
      </trkpt>
      <trkpt lat="45.28054" lon="5.52356">
        <ele>125.55</ele>
        <time>2017-03-26T16:17:22Z</time>
      </trkpt>
      <trkpt lat="45.28084" lon="5.5236">
        <ele>125.87</ele>
        <time>2017-03-26T16:17:23Z</time>
      </trkpt>
      <trkpt lat="45.28115" lon="5.52362">
        <ele>126.33</ele>
        <time>2017-03-26T16:17:24Z</time>
      </trkpt>
      <trkpt lat="45.28146" lon="5.52363">
        <ele>126.99</ele>
        <time>2017-03-26T16:17:25Z</time>
      </trkpt>
      <trkpt lat="45.28176" lon="5.52364">
        <ele>127.12</ele>
        <time>2017-03-26T16:17:26Z</time>
      </trkpt>
      <trkpt lat="45.28207" lon="5.52365">
        <ele>127.3</ele>
        <time>2017-03-26T16:17:27Z</time>
      </trkpt>
      <trkpt lat="45.28238" lon="5.52366">
        <ele>127.34</ele>
        <time>2017-03-26T16:17:28Z</time>
      </trkpt>
      <trkpt lat="45.28269" lon="5.52368">
        <ele>127.35</ele>
        <time>2017-03-26T16:17:29Z</time>
      </trkpt>
      <trkpt lat="45.283" lon="5.52369">
        <ele>127.83</ele>
        <time>2017-03-26T16:17:30Z</time>
      </trkpt>
      <trkpt lat="45.28331" lon="5.52371">
        <ele>128.16</ele>
        <time>2017-03-26T16:17:31Z</time>
      </trkpt>
      <trkpt lat="45.28362" lon="5.52374">
        <ele>128.47</ele>
        <time>2017-03-26T16:17:32Z</time>
      </trkpt>
      <trkpt lat="45.28393" lon="5.52377">
        <ele>128.69</ele>
        <time>2017-03-26T16:17:33Z</time>
      </trkpt>
      <trkpt lat="45.28424" lon="5.52381">
        <ele>128.98</ele>
        <time>2017-03-26T16:17:34Z</time>
      </trkpt>
      <trkpt lat="45.28455" lon="5.52387">
        <ele>129.43</ele>
        <time>2017-03-26T16:17:35Z</time>
      </trkpt>
      <trkpt lat="45.28485" lon="5.52394">
        <ele>130.01</ele>
        <time>2017-03-26T16:17:36Z</time>
      </trkpt>
      <trkpt lat="45.28516" lon="5.52402">
        <ele>130.04</ele>
        <time>2017-03-26T16:17:37Z</time>
      </trkpt>
      <trkpt lat="45.28547" lon="5.52412">
        <ele>129.97</ele>
        <time>2017-03-26T16:17:38Z</time>
      </trkpt>
      <trkpt lat="45.28577" lon="5.52424">
        <ele>130.11</ele>
        <time>2017-03-26T16:17:39Z</time>
      </trkpt>
      <trkpt lat="45.28607" lon="5.52437">
        <ele>130.14</ele>
        <time>2017-03-26T16:17:40Z</time>
      </trkpt>
      <trkpt lat="45.28637" lon="5.52451">
        <ele>130.39</ele>
        <time>2017-03-26T16:17:41Z</time>
      </trkpt>
      <trkpt lat="45.28667" lon="5.52466">
        <ele>130.52</ele>
        <time>2017-03-26T16:17:42Z</time>
      </trkpt>
      <trkpt lat="45.28697" lon="5.52483">
        <ele>130.86</ele>
        <time>2017-03-26T16:17:43Z</time>
      </trkpt>
      <trkpt lat="45.28726" lon="5.52501">
        <ele>130.93</ele>
        <time>2017-03-26T16:17:44Z</time>
      </trkpt>
      <trkpt lat="45.28755" lon="5.52521">
        <ele>131.11</ele>
        <time>2017-03-26T16:17:45Z</time>
      </trkpt>
      <trkpt lat="45.28784" lon="5.52541">
        <ele>130.9</ele>
        <time>2017-03-26T16:17:46Z</time>
      </trkpt>
      <trkpt lat="45.28812" lon="5.52563">
        <ele>130.7</ele>
        <time>2017-03-26T16:17:47Z</time>
      </trkpt>
      <trkpt lat="45.2884" lon="5.52586">
        <ele>130.74</ele>
        <time>2017-03-26T16:17:48Z</time>
      </trkpt>
      <trkpt lat="45.28867" lon="5.52611">
        <ele>130.67</ele>
        <time>2017-03-26T16:17:49Z</time>
      </trkpt>
      <trkpt lat="45.28894" lon="5.52637">
        <ele>130.65</ele>
        <time>2017-03-26T16:17:50Z</time>
      </trkpt>
      <trkpt lat="45.2892" lon="5.52664">
        <ele>130.81</ele>
        <time>2017-03-26T16:17:51Z</time>
      </trkpt>
      <trkpt lat="45.28946" lon="5.52691">
        <ele>130.68</ele>
        <time>2017-03-26T16:17:52Z</time>
      </trkpt>
      <trkpt lat="45.28972" lon="5.52721">
        <ele>130.82</ele>
        <time>2017-03-26T16:17:53Z</time>
      </trkpt>
      <trkpt lat="45.28997" lon="5.52752">
        <ele>130.52</ele>
        <time>2017-03-26T16:17:54Z</time>
      </trkpt>
      <trkpt lat="45.29021" lon="5.52784">
        <ele>130.14</ele>
        <time>2017-03-26T16:17:55Z</time>
      </trkpt>
      <trkpt lat="45.29044" lon="5.52818">
        <ele>129.91</ele>
        <time>2017-03-26T16:17:56Z</time>
      </trkpt>
      <trkpt lat="45.29066" lon="5.52854">
        <ele>129.62</ele>
        <time>2017-03-26T16:17:57Z</time>
      </trkpt>
      <trkpt lat="45.29087" lon="5.5289">
        <ele>129.48</ele>
        <time>2017-03-26T16:17:58Z</time>
      </trkpt>
      <trkpt lat="45.29108" lon="5.52928">
        <ele>129.54</ele>
        <time>2017-03-26T16:17:59Z</time>
      </trkpt>
      <trkpt lat="45.29128" lon="5.52966">
        <ele>129.55</ele>
        <time>2017-03-26T16:18:00Z</time>
      </trkpt>
      <trkpt lat="45.29147" lon="5.53006">
        <ele>129.15</ele>
        <time>2017-03-26T16:18:01Z</time>
      </trkpt>
      <trkpt lat="45.29165" lon="5.53045">
        <ele>128.67</ele>
        <time>2017-03-26T16:18:02Z</time>
      </trkpt>
      <trkpt lat="45.29183" lon="5.53085">
        <ele>127.85</ele>
        <time>2017-03-26T16:18:03Z</time>
      </trkpt>
      <trkpt lat="45.292" lon="5.53127">
        <ele>127.37</ele>
        <time>2017-03-26T16:18:04Z</time>
      </trkpt>
      <trkpt lat="45.29215" lon="5.53169">
        <ele>126.79</ele>
        <time>2017-03-26T16:18:05Z</time>
      </trkpt>
      <trkpt lat="45.29229" lon="5.53212">
        <ele>126.2</ele>
        <time>2017-03-26T16:18:06Z</time>
      </trkpt>
      <trkpt lat="45.29243" lon="5.53255">
        <ele>125.84</ele>
        <time>2017-03-26T16:18:07Z</time>
      </trkpt>
      <trkpt lat="45.29255" lon="5.53299">
        <ele>125.53</ele>
        <time>2017-03-26T16:18:08Z</time>
      </trkpt>
      <trkpt lat="45.29267" lon="5.53344">
        <ele>124.82</ele>
        <time>2017-03-26T16:18:09Z</time>
      </trkpt>
      <trkpt lat="45.29277" lon="5.53389">
        <ele>124.6</ele>
        <time>2017-03-26T16:18:10Z</time>
      </trkpt>
      <trkpt lat="45.29287" lon="5.53434">
        <ele>124.72</ele>
        <time>2017-03-26T16:18:11Z</time>
      </trkpt>
      <trkpt lat="45.29295" lon="5.5348">
        <ele>124.66</ele>
        <time>2017-03-26T16:18:12Z</time>
      </trkpt>
      <trkpt lat="45.29303" lon="5.53527">
        <ele>125.05</ele>
        <time>2017-03-26T16:18:13Z</time>
      </trkpt>
      <trkpt lat="45.2931" lon="5.53573">
        <ele>125.29</ele>
        <time>2017-03-26T16:18:14Z</time>
      </trkpt>
      <trkpt lat="45.29316" lon="5.5362">
        <ele>124.62</ele>
        <time>2017-03-26T16:18:15Z</time>
      </trkpt>
      <trkpt lat="45.29323" lon="5.53666">
        <ele>124.16</ele>
        <time>2017-03-26T16:18:16Z</time>
      </trkpt>
      <trkpt lat="45.29328" lon="5.53713">
        <ele>123.75</ele>
        <time>2017-03-26T16:18:17Z</time>
      </trkpt>
      <trkpt lat="45.29334" lon="5.53759">
        <ele>123.19</ele>
        <time>2017-03-26T16:18:18Z</time>
      </trkpt>
      <trkpt lat="45.2934" lon="5.53806">
        <ele>122.44</ele>
        <time>2017-03-26T16:18:19Z</time>
      </trkpt>
      <trkpt lat="45.29346" lon="5.53852">
        <ele>122.21</ele>
        <time>2017-03-26T16:18:20Z</time>
      </trkpt>
      <trkpt lat="45.29352" lon="5.53898">
        <ele>122.16</ele>
        <time>2017-03-26T16:18:21Z</time>
      </trkpt>
      <trkpt lat="45.29358" lon="5.53945">
        <ele>122.63</ele>
        <time>2017-03-26T16:18:22Z</time>
      </trkpt>
      <trkpt lat="45.29364" lon="5.53991">
        <ele>122.57</ele>
        <time>2017-03-26T16:18:23Z</time>
      </trkpt>
      <trkpt lat="45.29369" lon="5.54038">
        <ele>122.47</ele>
        <time>2017-03-26T16:18:24Z</time>
      </trkpt>
      <trkpt lat="45.29373" lon="5.54085">
        <ele>122.69</ele>
        <time>2017-03-26T16:18:25Z</time>
      </trkpt>
      <trkpt lat="45.29378" lon="5.54132">
        <ele>122.42</ele>
        <time>2017-03-26T16:18:26Z</time>
      </trkpt>
      <trkpt lat="45.29382" lon="5.54179">
        <ele>122.28</ele>
        <time>2017-03-26T16:18:27Z</time>
      </trkpt>
      <trkpt lat="45.29386" lon="5.54226">
        <ele>122.66</ele>
        <time>2017-03-26T16:18:28Z</time>
      </trkpt>
      <trkpt lat="45.29389" lon="5.54272">
        <ele>122.81</ele>
        <time>2017-03-26T16:18:29Z</time>
      </trkpt>
      <trkpt lat="45.29392" lon="5.54318">
        <ele>122.44</ele>
        <time>2017-03-26T16:18:30Z</time>
      </trkpt>
      <trkpt lat="45.29394" lon="5.54365">
        <ele>121.89</ele>
        <time>2017-03-26T16:18:31Z</time>
      </trkpt>
      <trkpt lat="45.29397" lon="5.54411">
        <ele>121.38</ele>
        <time>2017-03-26T16:18:32Z</time>
      </trkpt>
      <trkpt lat="45.29398" lon="5.54458">
        <ele>121.11</ele>
        <time>2017-03-26T16:18:33Z</time>
      </trkpt>
      <trkpt lat="45.294" lon="5.54504">
        <ele>120.82</ele>
        <time>2017-03-26T16:18:34Z</time>
      </trkpt>
      <trkpt lat="45.29401" lon="5.54552">
        <ele>120.44</ele>
        <time>2017-03-26T16:18:35Z</time>
      </trkpt>
      <trkpt lat="45.29402" lon="5.54599">
        <ele>120.29</ele>
        <time>2017-03-26T16:18:36Z</time>
      </trkpt>
      <trkpt lat="45.29403" lon="5.54647">
        <ele>120.5</ele>
        <time>2017-03-26T16:18:37Z</time>
      </trkpt>
      <trkpt lat="45.29405" lon="5.54694">
        <ele>120.46</ele>
        <time>2017-03-26T16:18:38Z</time>
      </trkpt>
      <trkpt lat="45.29407" lon="5.54742">
        <ele>120.45</ele>
        <time>2017-03-26T16:18:39Z</time>
      </trkpt>
      <trkpt lat="45.29409" lon="5.54789">
        <ele>120.69</ele>
        <time>2017-03-26T16:18:40Z</time>
      </trkpt>
      <trkpt lat="45.2941" lon="5.54837">
        <ele>121.14</ele>
        <time>2017-03-26T16:18:41Z</time>
      </trkpt>
      <trkpt lat="45.29412" lon="5.54884">
        <ele>121.23</ele>
        <time>2017-03-26T16:18:42Z</time>
      </trkpt>
      <trkpt lat="45.29414" lon="5.54932">
        <ele>120.76</ele>
        <time>2017-03-26T16:18:43Z</time>
      </trkpt>
      <trkpt lat="45.29415" lon="5.5498">
        <ele>120.51</ele>
        <time>2017-03-26T16:18:44Z</time>
      </trkpt>
      <trkpt lat="45.29417" lon="5.55027">
        <ele>120.7</ele>
        <time>2017-03-26T16:18:45Z</time>
      </trkpt>
      <trkpt lat="45.29419" lon="5.55074">
        <ele>121.22</ele>
        <time>2017-03-26T16:18:46Z</time>
      </trkpt>
      <trkpt lat="45.29421" lon="5.55122">
        <ele>121.24</ele>
        <time>2017-03-26T16:18:47Z</time>
      </trkpt>
      <trkpt lat="45.29424" lon="5.5517">
        <ele>121.25</ele>
        <time>2017-03-26T16:18:48Z</time>
      </trkpt>
      <trkpt lat="45.29429" lon="5.55217">
        <ele>121.17</ele>
        <time>2017-03-26T16:18:49Z</time>
      </trkpt>
      <trkpt lat="45.29434" lon="5.55264">
        <ele>121.07</ele>
        <time>2017-03-26T16:18:50Z</time>
      </trkpt>
      <trkpt lat="45.29441" lon="5.5531">
        <ele>120.65</ele>
        <time>2017-03-26T16:18:51Z</time>
      </trkpt>
      <trkpt lat="45.29448" lon="5.55356">
        <ele>120.65</ele>
        <time>2017-03-26T16:18:52Z</time>
      </trkpt>
      <trkpt lat="45.29457" lon="5.55401">
        <ele>121.29</ele>
        <time>2017-03-26T16:18:53Z</time>
      </trkpt>
      <trkpt lat="45.29467" lon="5.55447">
        <ele>121.82</ele>
        <time>2017-03-26T16:18:54Z</time>
      </trkpt>
      <trkpt lat="45.29478" lon="5.55491">
        <ele>122.08</ele>
        <time>2017-03-26T16:18:55Z</time>
      </trkpt>
      <trkpt lat="45.2949" lon="5.55536">
        <ele>122.3</ele>
        <time>2017-03-26T16:18:56Z</time>
      </trkpt>
      <trkpt lat="45.29504" lon="5.55579">
        <ele>123.14</ele>
        <time>2017-03-26T16:18:57Z</time>
      </trkpt>
      <trkpt lat="45.29519" lon="5.55622">
        <ele>123.31</ele>
        <time>2017-03-26T16:18:58Z</time>
      </trkpt>
      <trkpt lat="45.29534" lon="5.55664">
        <ele>123.34</ele>
        <time>2017-03-26T16:18:59Z</time>
      </trkpt>
      <trkpt lat="45.29551" lon="5.55705">
        <ele>123.67</ele>
        <time>2017-03-26T16:19:00Z</time>
      </trkpt>
      <trkpt lat="45.2957" lon="5.55745">
        <ele>123.49</ele>
        <time>2017-03-26T16:19:01Z</time>
      </trkpt>
      <trkpt lat="45.29588" lon="5.55785">
        <ele>123.22</ele>
        <time>2017-03-26T16:19:02Z</time>
      </trkpt>
      <trkpt lat="45.29607" lon="5.55824">
        <ele>122.84</ele>
        <time>2017-03-26T16:19:03Z</time>
      </trkpt>
      <trkpt lat="45.29627" lon="5.55862">
        <ele>122.61</ele>
        <time>2017-03-26T16:19:04Z</time>
      </trkpt>
      <trkpt lat="45.29648" lon="5.559">
        <ele>122.56</ele>
        <time>2017-03-26T16:19:05Z</time>
      </trkpt>
      <trkpt lat="45.29668" lon="5.55938">
        <ele>122.55</ele>
        <time>2017-03-26T16:19:06Z</time>
      </trkpt>
      <trkpt lat="45.29689" lon="5.55975">
        <ele>122.71</ele>
        <time>2017-03-26T16:19:07Z</time>
      </trkpt>
      <trkpt lat="45.2971" lon="5.56013">
        <ele>122.98</ele>
        <time>2017-03-26T16:19:08Z</time>
      </trkpt>
      <trkpt lat="45.29731" lon="5.56051">
        <ele>123.04</ele>
        <time>2017-03-26T16:19:09Z</time>
      </trkpt>
      <trkpt lat="45.29751" lon="5.56088">
        <ele>123.21</ele>
        <time>2017-03-26T16:19:10Z</time>
      </trkpt>
      <trkpt lat="45.29771" lon="5.56126">
        <ele>123.4</ele>
        <time>2017-03-26T16:19:11Z</time>
      </trkpt>
      <trkpt lat="45.2979" lon="5.56165">
        <ele>123.36</ele>
        <time>2017-03-26T16:19:12Z</time>
      </trkpt>
      <trkpt lat="45.29808" lon="5.56205">
        <ele>123.51</ele>
        <time>2017-03-26T16:19:13Z</time>
      </trkpt>
      <trkpt lat="45.29825" lon="5.56245">
        <ele>123.62</ele>
        <time>2017-03-26T16:19:14Z</time>
      </trkpt>
      <trkpt lat="45.29841" lon="5.56286">
        <ele>123.56</ele>
        <time>2017-03-26T16:19:15Z</time>
      </trkpt>
      <trkpt lat="45.29855" lon="5.56329">
        <ele>123.23</ele>
        <time>2017-03-26T16:19:16Z</time>
      </trkpt>
      <trkpt lat="45.29869" lon="5.56372">
        <ele>122.85</ele>
        <time>2017-03-26T16:19:17Z</time>
      </trkpt>
      <trkpt lat="45.29881" lon="5.56415">
        <ele>122.77</ele>
        <time>2017-03-26T16:19:18Z</time>
      </trkpt>
      <trkpt lat="45.29892" lon="5.5646">
        <ele>122.99</ele>
        <time>2017-03-26T16:19:19Z</time>
      </trkpt>
      <trkpt lat="45.29901" lon="5.56506">
        <ele>122.96</ele>
        <time>2017-03-26T16:19:20Z</time>
      </trkpt>
      <trkpt lat="45.29909" lon="5.56552">
        <ele>123.03</ele>
        <time>2017-03-26T16:19:21Z</time>
      </trkpt>
      <trkpt lat="45.29915" lon="5.56599">
        <ele>123.85</ele>
        <time>2017-03-26T16:19:22Z</time>
      </trkpt>
      <trkpt lat="45.2992" lon="5.56647">
        <ele>124.49</ele>
        <time>2017-03-26T16:19:23Z</time>
      </trkpt>
      <trkpt lat="45.29925" lon="5.56694">
        <ele>125.74</ele>
        <time>2017-03-26T16:19:24Z</time>
      </trkpt>
      <trkpt lat="45.29927" lon="5.56742">
        <ele>126.31</ele>
        <time>2017-03-26T16:19:25Z</time>
      </trkpt>
      <trkpt lat="45.29928" lon="5.5679">
        <ele>126.74</ele>
        <time>2017-03-26T16:19:26Z</time>
      </trkpt>
      <trkpt lat="45.29928" lon="5.56838">
        <ele>127.15</ele>
        <time>2017-03-26T16:19:27Z</time>
      </trkpt>
      <trkpt lat="45.29926" lon="5.56886">
        <ele>127.23</ele>
        <time>2017-03-26T16:19:28Z</time>
      </trkpt>
      <trkpt lat="45.29923" lon="5.56934">
        <ele>127.4</ele>
        <time>2017-03-26T16:19:29Z</time>
      </trkpt>
      <trkpt lat="45.29917" lon="5.56982">
        <ele>126.72</ele>
        <time>2017-03-26T16:19:30Z</time>
      </trkpt>
      <trkpt lat="45.29911" lon="5.5703">
        <ele>125.86</ele>
        <time>2017-03-26T16:19:31Z</time>
      </trkpt>
      <trkpt lat="45.29905" lon="5.57077">
        <ele>125.13</ele>
        <time>2017-03-26T16:19:32Z</time>
      </trkpt>
      <trkpt lat="45.29898" lon="5.57123">
        <ele>124.91</ele>
        <time>2017-03-26T16:19:33Z</time>
      </trkpt>
      <trkpt lat="45.2989" lon="5.5717">
        <ele>124.78</ele>
        <time>2017-03-26T16:19:34Z</time>
      </trkpt>
      <trkpt lat="45.29882" lon="5.57216">
        <ele>123.88</ele>
        <time>2017-03-26T16:19:35Z</time>
      </trkpt>
      <trkpt lat="45.29872" lon="5.57262">
        <ele>122.89</ele>
        <time>2017-03-26T16:19:36Z</time>
      </trkpt>
      <trkpt lat="45.29863" lon="5.57309">
        <ele>121.9</ele>
        <time>2017-03-26T16:19:37Z</time>
      </trkpt>
      <trkpt lat="45.29854" lon="5.57355">
        <ele>121.46</ele>
        <time>2017-03-26T16:19:38Z</time>
      </trkpt>
      <trkpt lat="45.29845" lon="5.57402">
        <ele>121.37</ele>
        <time>2017-03-26T16:19:39Z</time>
      </trkpt>
      <trkpt lat="45.29837" lon="5.57448">
        <ele>122.07</ele>
        <time>2017-03-26T16:19:40Z</time>
      </trkpt>
      <trkpt lat="45.29829" lon="5.57495">
        <ele>123.25</ele>
        <time>2017-03-26T16:19:41Z</time>
      </trkpt>
      <trkpt lat="45.29822" lon="5.57542">
        <ele>123.33</ele>
        <time>2017-03-26T16:19:42Z</time>
      </trkpt>
      <trkpt lat="45.29816" lon="5.5759">
        <ele>123.19</ele>
        <time>2017-03-26T16:19:43Z</time>
      </trkpt>
      <trkpt lat="45.29812" lon="5.57637">
        <ele>123</ele>
        <time>2017-03-26T16:19:44Z</time>
      </trkpt>
      <trkpt lat="45.29808" lon="5.57685">
        <ele>122.96</ele>
        <time>2017-03-26T16:19:45Z</time>
      </trkpt>
      <trkpt lat="45.29807" lon="5.57732">
        <ele>123.27</ele>
        <time>2017-03-26T16:19:46Z</time>
      </trkpt>
      <trkpt lat="45.29808" lon="5.57779">
        <ele>123.41</ele>
        <time>2017-03-26T16:19:47Z</time>
      </trkpt>
      <trkpt lat="45.2981" lon="5.57827">
        <ele>123.28</ele>
        <time>2017-03-26T16:19:48Z</time>
      </trkpt>
      <trkpt lat="45.29814" lon="5.57874">
        <ele>122.94</ele>
        <time>2017-03-26T16:19:49Z</time>
      </trkpt>
      <trkpt lat="45.29819" lon="5.57921">
        <ele>122.95</ele>
        <time>2017-03-26T16:19:50Z</time>
      </trkpt>
      <trkpt lat="45.29825" lon="5.57968">
        <ele>122.79</ele>
        <time>2017-03-26T16:19:51Z</time>
      </trkpt>
      <trkpt lat="45.29831" lon="5.58014">
        <ele>122.68</ele>
        <time>2017-03-26T16:19:52Z</time>
      </trkpt>
      <trkpt lat="45.29838" lon="5.58059">
        <ele>122.81</ele>
        <time>2017-03-26T16:19:53Z</time>
      </trkpt>
      <trkpt lat="45.29847" lon="5.58103">
        <ele>123.56</ele>
        <time>2017-03-26T16:19:54Z</time>
      </trkpt>
      <trkpt lat="45.29858" lon="5.58146">
        <ele>124.03</ele>
        <time>2017-03-26T16:19:55Z</time>
      </trkpt>
      <trkpt lat="45.2987" lon="5.58188">
        <ele>124.69</ele>
        <time>2017-03-26T16:19:56Z</time>
      </trkpt>
      <trkpt lat="45.29884" lon="5.58229">
        <ele>124.9</ele>
        <time>2017-03-26T16:19:57Z</time>
      </trkpt>
      <trkpt lat="45.29899" lon="5.5827">
        <ele>124.54</ele>
        <time>2017-03-26T16:19:58Z</time>
      </trkpt>
      <trkpt lat="45.29916" lon="5.58309">
        <ele>123.99</ele>
        <time>2017-03-26T16:19:59Z</time>
      </trkpt>
      <trkpt lat="45.29933" lon="5.58348">
        <ele>123.56</ele>
        <time>2017-03-26T16:20:00Z</time>
      </trkpt>
      <trkpt lat="45.29951" lon="5.58387">
        <ele>123.15</ele>
        <time>2017-03-26T16:20:01Z</time>
      </trkpt>
      <trkpt lat="45.29969" lon="5.58425">
        <ele>122.91</ele>
        <time>2017-03-26T16:20:02Z</time>
      </trkpt>
      <trkpt lat="45.29989" lon="5.58462">
        <ele>122.78</ele>
        <time>2017-03-26T16:20:03Z</time>
      </trkpt>
      <trkpt lat="45.30009" lon="5.58498">
        <ele>123.16</ele>
        <time>2017-03-26T16:20:04Z</time>
      </trkpt>
      <trkpt lat="45.3003" lon="5.58534">
        <ele>123.23</ele>
        <time>2017-03-26T16:20:05Z</time>
      </trkpt>
      <trkpt lat="45.30051" lon="5.5857">
        <ele>123.01</ele>
        <time>2017-03-26T16:20:06Z</time>
      </trkpt>
      <trkpt lat="45.30071" lon="5.58605">
        <ele>123.12</ele>
        <time>2017-03-26T16:20:07Z</time>
      </trkpt>
      <trkpt lat="45.30092" lon="5.58641">
        <ele>123.46</ele>
        <time>2017-03-26T16:20:08Z</time>
      </trkpt>
      <trkpt lat="45.30114" lon="5.58677">
        <ele>123.45</ele>
        <time>2017-03-26T16:20:09Z</time>
      </trkpt>
      <trkpt lat="45.30135" lon="5.58712">
        <ele>123.29</ele>
        <time>2017-03-26T16:20:10Z</time>
      </trkpt>
      <trkpt lat="45.30156" lon="5.58748">
        <ele>123.02</ele>
        <time>2017-03-26T16:20:11Z</time>
      </trkpt>
      <trkpt lat="45.30176" lon="5.58785">
        <ele>122.88</ele>
        <time>2017-03-26T16:20:12Z</time>
      </trkpt>
      <trkpt lat="45.30196" lon="5.58822">
        <ele>122.94</ele>
        <time>2017-03-26T16:20:13Z</time>
      </trkpt>
      <trkpt lat="45.30215" lon="5.5886">
        <ele>122.79</ele>
        <time>2017-03-26T16:20:14Z</time>
      </trkpt>
      <trkpt lat="45.30234" lon="5.58899">
        <ele>122.44</ele>
        <time>2017-03-26T16:20:15Z</time>
      </trkpt>
      <trkpt lat="45.30252" lon="5.58939">
        <ele>122.29</ele>
        <time>2017-03-26T16:20:16Z</time>
      </trkpt>
      <trkpt lat="45.3027" lon="5.58979">
        <ele>122.26</ele>
        <time>2017-03-26T16:20:17Z</time>
      </trkpt>
      <trkpt lat="45.30287" lon="5.59019">
        <ele>122.25</ele>
        <time>2017-03-26T16:20:18Z</time>
      </trkpt>
      <trkpt lat="45.30303" lon="5.5906">
        <ele>121.69</ele>
        <time>2017-03-26T16:20:19Z</time>
      </trkpt>
      <trkpt lat="45.30318" lon="5.59101">
        <ele>121.42</ele>
        <time>2017-03-26T16:20:20Z</time>
      </trkpt>
      <trkpt lat="45.30334" lon="5.59143">
        <ele>121.12</ele>
        <time>2017-03-26T16:20:21Z</time>
      </trkpt>
      <trkpt lat="45.30349" lon="5.59186">
        <ele>121.22</ele>
        <time>2017-03-26T16:20:22Z</time>
      </trkpt>
      <trkpt lat="45.30363" lon="5.59229">
        <ele>121.48</ele>
        <time>2017-03-26T16:20:23Z</time>
      </trkpt>
      <trkpt lat="45.30377" lon="5.59273">
        <ele>121.7</ele>
        <time>2017-03-26T16:20:24Z</time>
      </trkpt>
      <trkpt lat="45.3039" lon="5.59318">
        <ele>122.06</ele>
        <time>2017-03-26T16:20:25Z</time>
      </trkpt>
      <trkpt lat="45.30402" lon="5.59362">
        <ele>122.45</ele>
        <time>2017-03-26T16:20:26Z</time>
      </trkpt>
      <trkpt lat="45.30413" lon="5.59407">
        <ele>122.77</ele>
        <time>2017-03-26T16:20:27Z</time>
      </trkpt>
      <trkpt lat="45.30424" lon="5.59452">
        <ele>122.67</ele>
        <time>2017-03-26T16:20:28Z</time>
      </trkpt>
      <trkpt lat="45.30434" lon="5.59498">
        <ele>122.73</ele>
        <time>2017-03-26T16:20:29Z</time>
      </trkpt>
      <trkpt lat="45.30443" lon="5.59545">
        <ele>122.43</ele>
        <time>2017-03-26T16:20:30Z</time>
      </trkpt>
      <trkpt lat="45.30452" lon="5.59591">
        <ele>122.44</ele>
        <time>2017-03-26T16:20:31Z</time>
      </trkpt>
      <trkpt lat="45.3046" lon="5.59638">
        <ele>122.21</ele>
        <time>2017-03-26T16:20:32Z</time>
      </trkpt>
      <trkpt lat="45.30467" lon="5.59684">
        <ele>122.16</ele>
        <time>2017-03-26T16:20:33Z</time>
      </trkpt>
      <trkpt lat="45.30473" lon="5.5973">
        <ele>122.15</ele>
        <time>2017-03-26T16:20:34Z</time>
      </trkpt>
      <trkpt lat="45.30479" lon="5.59777">
        <ele>121.91</ele>
        <time>2017-03-26T16:20:35Z</time>
      </trkpt>
      <trkpt lat="45.30484" lon="5.59823">
        <ele>121.54</ele>
        <time>2017-03-26T16:20:36Z</time>
      </trkpt>
      <trkpt lat="45.30488" lon="5.5987">
        <ele>121.15</ele>
        <time>2017-03-26T16:20:37Z</time>
      </trkpt>
      <trkpt lat="45.30491" lon="5.59916">
        <ele>120.91</ele>
        <time>2017-03-26T16:20:38Z</time>
      </trkpt>
      <trkpt lat="45.30494" lon="5.59963">
        <ele>120.62</ele>
        <time>2017-03-26T16:20:39Z</time>
      </trkpt>
      <trkpt lat="45.30496" lon="5.60009">
        <ele>120.32</ele>
        <time>2017-03-26T16:20:40Z</time>
      </trkpt>
      <trkpt lat="45.30497" lon="5.60056">
        <ele>120.02</ele>
        <time>2017-03-26T16:20:41Z</time>
      </trkpt>
      <trkpt lat="45.30498" lon="5.60103">
        <ele>119.32</ele>
        <time>2017-03-26T16:20:42Z</time>
      </trkpt>
      <trkpt lat="45.30499" lon="5.6015">
        <ele>118.3</ele>
        <time>2017-03-26T16:20:43Z</time>
      </trkpt>
      <trkpt lat="45.30498" lon="5.60198">
        <ele>117.22</ele>
        <time>2017-03-26T16:20:44Z</time>
      </trkpt>
      <trkpt lat="45.30496" lon="5.60245">
        <ele>116.36</ele>
        <time>2017-03-26T16:20:45Z</time>
      </trkpt>
      <trkpt lat="45.30494" lon="5.60293">
        <ele>116.11</ele>
        <time>2017-03-26T16:20:46Z</time>
      </trkpt>
      <trkpt lat="45.30491" lon="5.6034">
        <ele>116.06</ele>
        <time>2017-03-26T16:20:47Z</time>
      </trkpt>
      <trkpt lat="45.30488" lon="5.60388">
        <ele>116.13</ele>
        <time>2017-03-26T16:20:48Z</time>
      </trkpt>
      <trkpt lat="45.30483" lon="5.60435">
        <ele>116.31</ele>
        <time>2017-03-26T16:20:49Z</time>
      </trkpt>
      <trkpt lat="45.30478" lon="5.60482">
        <ele>116.02</ele>
        <time>2017-03-26T16:20:50Z</time>
      </trkpt>
      <trkpt lat="45.30472" lon="5.6053">
        <ele>115</ele>
        <time>2017-03-26T16:20:51Z</time>
      </trkpt>
      <trkpt lat="45.30465" lon="5.60576">
        <ele>113.68</ele>
        <time>2017-03-26T16:20:52Z</time>
      </trkpt>
      <trkpt lat="45.30458" lon="5.60623">
        <ele>113.18</ele>
        <time>2017-03-26T16:20:53Z</time>
      </trkpt>
      <trkpt lat="45.30449" lon="5.6067">
        <ele>113.71</ele>
        <time>2017-03-26T16:20:54Z</time>
      </trkpt>
      <trkpt lat="45.30438" lon="5.60716">
        <ele>114.7</ele>
        <time>2017-03-26T16:20:55Z</time>
      </trkpt>
      <trkpt lat="45.30426" lon="5.60761">
        <ele>116.26</ele>
        <time>2017-03-26T16:20:56Z</time>
      </trkpt>
      <trkpt lat="45.30414" lon="5.60806">
        <ele>117.21</ele>
        <time>2017-03-26T16:20:57Z</time>
      </trkpt>
      <trkpt lat="45.30401" lon="5.6085">
        <ele>118.12</ele>
        <time>2017-03-26T16:20:58Z</time>
      </trkpt>
      <trkpt lat="45.30387" lon="5.60893">
        <ele>119.02</ele>
        <time>2017-03-26T16:20:59Z</time>
      </trkpt>
      <trkpt lat="45.30373" lon="5.60936">
        <ele>119.76</ele>
        <time>2017-03-26T16:21:00Z</time>
      </trkpt>
      <trkpt lat="45.30359" lon="5.60978">
        <ele>120.31</ele>
        <time>2017-03-26T16:21:01Z</time>
      </trkpt>
      <trkpt lat="45.30343" lon="5.6102">
        <ele>120.5</ele>
        <time>2017-03-26T16:21:02Z</time>
      </trkpt>
      <trkpt lat="45.30327" lon="5.61061">
        <ele>120.78</ele>
        <time>2017-03-26T16:21:03Z</time>
      </trkpt>
      <trkpt lat="45.30309" lon="5.61102">
        <ele>120.92</ele>
        <time>2017-03-26T16:21:04Z</time>
      </trkpt>
      <trkpt lat="45.30292" lon="5.61142">
        <ele>121.02</ele>
        <time>2017-03-26T16:21:05Z</time>
      </trkpt>
      <trkpt lat="45.30274" lon="5.61181">
        <ele>121.6</ele>
        <time>2017-03-26T16:21:06Z</time>
      </trkpt>
      <trkpt lat="45.30256" lon="5.61219">
        <ele>121.56</ele>
        <time>2017-03-26T16:21:07Z</time>
      </trkpt>
      <trkpt lat="45.30237" lon="5.61255">
        <ele>120.99</ele>
        <time>2017-03-26T16:21:08Z</time>
      </trkpt>
      <trkpt lat="45.30219" lon="5.61291">
        <ele>120.24</ele>
        <time>2017-03-26T16:21:09Z</time>
      </trkpt>
      <trkpt lat="45.302" lon="5.61326">
        <ele>120.01</ele>
        <time>2017-03-26T16:21:10Z</time>
      </trkpt>
      <trkpt lat="45.30181" lon="5.61361">
        <ele>120.52</ele>
        <time>2017-03-26T16:21:11Z</time>
      </trkpt>
      <trkpt lat="45.30163" lon="5.61395">
        <ele>120.86</ele>
        <time>2017-03-26T16:21:12Z</time>
      </trkpt>
      <trkpt lat="45.30145" lon="5.6143">
        <ele>121.81</ele>
        <time>2017-03-26T16:21:13Z</time>
      </trkpt>
      <trkpt lat="45.30127" lon="5.61464">
        <ele>122.64</ele>
        <time>2017-03-26T16:21:14Z</time>
      </trkpt>
      <trkpt lat="45.30109" lon="5.61498">
        <ele>123.37</ele>
        <time>2017-03-26T16:21:15Z</time>
      </trkpt>
      <trkpt lat="45.30091" lon="5.61532">
        <ele>123.67</ele>
        <time>2017-03-26T16:21:16Z</time>
      </trkpt>
      <trkpt lat="45.30073" lon="5.61565">
        <ele>123.97</ele>
        <time>2017-03-26T16:21:17Z</time>
      </trkpt>
      <trkpt lat="45.30056" lon="5.61597">
        <ele>123.87</ele>
        <time>2017-03-26T16:21:18Z</time>
      </trkpt>
      <trkpt lat="45.30038" lon="5.6163">
        <ele>123.93</ele>
        <time>2017-03-26T16:21:19Z</time>
      </trkpt>
      <trkpt lat="45.30021" lon="5.61662">
        <ele>123.71</ele>
        <time>2017-03-26T16:21:20Z</time>
      </trkpt>
      <trkpt lat="45.30004" lon="5.61695">
        <ele>123.5</ele>
        <time>2017-03-26T16:21:21Z</time>
      </trkpt>
      <trkpt lat="45.29986" lon="5.61727">
        <ele>123.22</ele>
        <time>2017-03-26T16:21:22Z</time>
      </trkpt>
      <trkpt lat="45.29968" lon="5.6176">
        <ele>123.72</ele>
        <time>2017-03-26T16:21:23Z</time>
      </trkpt>
      <trkpt lat="45.2995" lon="5.61791">
        <ele>124.06</ele>
        <time>2017-03-26T16:21:24Z</time>
      </trkpt>
      <trkpt lat="45.29931" lon="5.61822">
        <ele>124.53</ele>
        <time>2017-03-26T16:21:25Z</time>
      </trkpt>
      <trkpt lat="45.29912" lon="5.61851">
        <ele>124.47</ele>
        <time>2017-03-26T16:21:26Z</time>
      </trkpt>
      <trkpt lat="45.29891" lon="5.61879">
        <ele>124.93</ele>
        <time>2017-03-26T16:21:27Z</time>
      </trkpt>
      <trkpt lat="45.2987" lon="5.61904">
        <ele>126.63</ele>
        <time>2017-03-26T16:21:28Z</time>
      </trkpt>
      <trkpt lat="45.29847" lon="5.61928">
        <ele>128.96</ele>
        <time>2017-03-26T16:21:29Z</time>
      </trkpt>
      <trkpt lat="45.29824" lon="5.61951">
        <ele>129.83</ele>
        <time>2017-03-26T16:21:30Z</time>
      </trkpt>
      <trkpt lat="45.298" lon="5.61972">
        <ele>130.65</ele>
        <time>2017-03-26T16:21:31Z</time>
      </trkpt>
      <trkpt lat="45.29777" lon="5.61991">
        <ele>131.53</ele>
        <time>2017-03-26T16:21:32Z</time>
      </trkpt>
      <trkpt lat="45.29752" lon="5.62008">
        <ele>132.98</ele>
        <time>2017-03-26T16:21:33Z</time>
      </trkpt>
      <trkpt lat="45.29727" lon="5.62023">
        <ele>134.08</ele>
        <time>2017-03-26T16:21:34Z</time>
      </trkpt>
      <trkpt lat="45.29701" lon="5.62035">
        <ele>135.25</ele>
        <time>2017-03-26T16:21:35Z</time>
      </trkpt>
      <trkpt lat="45.29675" lon="5.62046">
        <ele>136.05</ele>
        <time>2017-03-26T16:21:36Z</time>
      </trkpt>
      <trkpt lat="45.29647" lon="5.62055">
        <ele>136.77</ele>
        <time>2017-03-26T16:21:37Z</time>
      </trkpt>
      <trkpt lat="45.29617" lon="5.62058">
        <ele>138.75</ele>
        <time>2017-03-26T16:21:38Z</time>
      </trkpt>
      <trkpt lat="45.29588" lon="5.6206">
        <ele>140.03</ele>
        <time>2017-03-26T16:21:39Z</time>
      </trkpt>
      <trkpt lat="45.29558" lon="5.62059">
        <ele>141.49</ele>
        <time>2017-03-26T16:21:40Z</time>
      </trkpt>
      <trkpt lat="45.29527" lon="5.62056">
        <ele>142.9</ele>
        <time>2017-03-26T16:21:41Z</time>
      </trkpt>
      <trkpt lat="45.29497" lon="5.62052">
        <ele>144.14</ele>
        <time>2017-03-26T16:21:42Z</time>
      </trkpt>
      <trkpt lat="45.29466" lon="5.62045">
        <ele>145.83</ele>
        <time>2017-03-26T16:21:43Z</time>
      </trkpt>
      <trkpt lat="45.29436" lon="5.6204">
        <ele>147.6</ele>
        <time>2017-03-26T16:21:44Z</time>
      </trkpt>
      <trkpt lat="45.29405" lon="5.62035">
        <ele>149.32</ele>
        <time>2017-03-26T16:21:45Z</time>
      </trkpt>
      <trkpt lat="45.29375" lon="5.6203">
        <ele>151.02</ele>
        <time>2017-03-26T16:21:46Z</time>
      </trkpt>
      <trkpt lat="45.29344" lon="5.62026">
        <ele>152.16</ele>
        <time>2017-03-26T16:21:47Z</time>
      </trkpt>
      <trkpt lat="45.29313" lon="5.62022">
        <ele>152.79</ele>
        <time>2017-03-26T16:21:48Z</time>
      </trkpt>
      <trkpt lat="45.29283" lon="5.62018">
        <ele>153.08</ele>
        <time>2017-03-26T16:21:49Z</time>
      </trkpt>
      <trkpt lat="45.29252" lon="5.62014">
        <ele>153.37</ele>
        <time>2017-03-26T16:21:50Z</time>
      </trkpt>
      <trkpt lat="45.29222" lon="5.62011">
        <ele>153.67</ele>
        <time>2017-03-26T16:21:51Z</time>
      </trkpt>
      <trkpt lat="45.29191" lon="5.62008">
        <ele>153.49</ele>
        <time>2017-03-26T16:21:52Z</time>
      </trkpt>
      <trkpt lat="45.2916" lon="5.62006">
        <ele>152.82</ele>
        <time>2017-03-26T16:21:53Z</time>
      </trkpt>
      <trkpt lat="45.29128" lon="5.62004">
        <ele>152.2</ele>
        <time>2017-03-26T16:21:54Z</time>
      </trkpt>
      <trkpt lat="45.29097" lon="5.62004">
        <ele>151.6</ele>
        <time>2017-03-26T16:21:55Z</time>
      </trkpt>
      <trkpt lat="45.29064" lon="5.62003">
        <ele>150.92</ele>
        <time>2017-03-26T16:21:56Z</time>
      </trkpt>
      <trkpt lat="45.29031" lon="5.62003">
        <ele>150.3</ele>
        <time>2017-03-26T16:21:57Z</time>
      </trkpt>
      <trkpt lat="45.28998" lon="5.62004">
        <ele>149.62</ele>
        <time>2017-03-26T16:21:58Z</time>
      </trkpt>
      <trkpt lat="45.28964" lon="5.62005">
        <ele>148.68</ele>
        <time>2017-03-26T16:21:59Z</time>
      </trkpt>
      <trkpt lat="45.28931" lon="5.62007">
        <ele>147.54</ele>
        <time>2017-03-26T16:22:00Z</time>
      </trkpt>
      <trkpt lat="45.28899" lon="5.62011">
        <ele>146.99</ele>
        <time>2017-03-26T16:22:01Z</time>
      </trkpt>
      <trkpt lat="45.28868" lon="5.62016">
        <ele>146.48</ele>
        <time>2017-03-26T16:22:02Z</time>
      </trkpt>
      <trkpt lat="45.28838" lon="5.62021">
        <ele>146.13</ele>
        <time>2017-03-26T16:22:03Z</time>
      </trkpt>
      <trkpt lat="45.28808" lon="5.62026">
        <ele>145.99</ele>
        <time>2017-03-26T16:22:04Z</time>
      </trkpt>
      <trkpt lat="45.28779" lon="5.62031">
        <ele>145.56</ele>
        <time>2017-03-26T16:22:05Z</time>
      </trkpt>
      <trkpt lat="45.28751" lon="5.62036">
        <ele>144.91</ele>
        <time>2017-03-26T16:22:06Z</time>
      </trkpt>
      <trkpt lat="45.28724" lon="5.62041">
        <ele>144.54</ele>
        <time>2017-03-26T16:22:07Z</time>
      </trkpt>
      <trkpt lat="45.28697" lon="5.62046">
        <ele>144.47</ele>
        <time>2017-03-26T16:22:08Z</time>
      </trkpt>
      <trkpt lat="45.28671" lon="5.62051">
        <ele>144.53</ele>
        <time>2017-03-26T16:22:09Z</time>
      </trkpt>
      <trkpt lat="45.28644" lon="5.62056">
        <ele>144.71</ele>
        <time>2017-03-26T16:22:10Z</time>
      </trkpt>
      <trkpt lat="45.28618" lon="5.6206">
        <ele>144.42</ele>
        <time>2017-03-26T16:22:11Z</time>
      </trkpt>
      <trkpt lat="45.28592" lon="5.62065">
        <ele>143.88</ele>
        <time>2017-03-26T16:22:12Z</time>
      </trkpt>
      <trkpt lat="45.28567" lon="5.6207">
        <ele>143.62</ele>
        <time>2017-03-26T16:22:13Z</time>
      </trkpt>
      <trkpt lat="45.28542" lon="5.62075">
        <ele>143.4</ele>
        <time>2017-03-26T16:22:14Z</time>
      </trkpt>
      <trkpt lat="45.28518" lon="5.62079">
        <ele>143.12</ele>
        <time>2017-03-26T16:22:15Z</time>
      </trkpt>
      <trkpt lat="45.28495" lon="5.62083">
        <ele>142.9</ele>
        <time>2017-03-26T16:22:16Z</time>
      </trkpt>
      <trkpt lat="45.28473" lon="5.62086">
        <ele>142.62</ele>
        <time>2017-03-26T16:22:17Z</time>
      </trkpt>
      <trkpt lat="45.28452" lon="5.62088">
        <ele>142.56</ele>
        <time>2017-03-26T16:22:18Z</time>
      </trkpt>
      <trkpt lat="45.28432" lon="5.6209">
        <ele>142.55</ele>
        <time>2017-03-26T16:22:19Z</time>
      </trkpt>
      <trkpt lat="45.28414" lon="5.62092">
        <ele>142.47</ele>
        <time>2017-03-26T16:22:20Z</time>
      </trkpt>
      <trkpt lat="45.28397" lon="5.62094">
        <ele>142.77</ele>
        <time>2017-03-26T16:22:21Z</time>
      </trkpt>
      <trkpt lat="45.28382" lon="5.62095">
        <ele>143.07</ele>
        <time>2017-03-26T16:22:22Z</time>
      </trkpt>
      <trkpt lat="45.28367" lon="5.62097">
        <ele>143.37</ele>
        <time>2017-03-26T16:22:23Z</time>
      </trkpt>
      <trkpt lat="45.28354" lon="5.62099">
        <ele>143.59</ele>
        <time>2017-03-26T16:22:24Z</time>
      </trkpt>
      <trkpt lat="45.28342" lon="5.62101">
        <ele>143.4</ele>
        <time>2017-03-26T16:22:25Z</time>
      </trkpt>
      <trkpt lat="45.28333" lon="5.62103">
        <ele>143.52</ele>
        <time>2017-03-26T16:22:26Z</time>
      </trkpt>
      <trkpt lat="45.28325" lon="5.62105">
        <ele>143.7</ele>
        <time>2017-03-26T16:22:27Z</time>
      </trkpt>
      <trkpt lat="45.2832" lon="5.62106">
        <ele>143.1</ele>
        <time>2017-03-26T16:22:28Z</time>
      </trkpt>
      <trkpt lat="45.28314" lon="5.62107">
        <ele>142.74</ele>
        <time>2017-03-26T16:22:29Z</time>
      </trkpt>
      <trkpt lat="45.28309" lon="5.62108">
        <ele>142.51</ele>
        <time>2017-03-26T16:22:30Z</time>
      </trkpt>
      <trkpt lat="45.28303" lon="5.62109">
        <ele>142.3</ele>
        <time>2017-03-26T16:22:31Z</time>
      </trkpt>
      <trkpt lat="45.283" lon="5.6211">
        <ele>142.9</ele>
        <time>2017-03-26T16:22:32Z</time>
      </trkpt>
      <trkpt lat="45.28297" lon="5.62111">
        <ele>143.58</ele>
        <time>2017-03-26T16:22:33Z</time>
      </trkpt>
      <trkpt lat="45.28295" lon="5.62112">
        <ele>144.12</ele>
        <time>2017-03-26T16:22:34Z</time>
      </trkpt>
      <trkpt lat="45.28293" lon="5.62112">
        <ele>144.7</ele>
        <time>2017-03-26T16:22:35Z</time>
      </trkpt>
      <trkpt lat="45.28293" lon="5.62111">
        <ele>145.38</ele>
        <time>2017-03-26T16:22:36Z</time>
      </trkpt>
      <trkpt lat="45.28291" lon="5.62111">
        <ele>146</ele>
        <time>2017-03-26T16:22:37Z</time>
      </trkpt>
      <trkpt lat="45.28289" lon="5.62111">
        <ele>146.28</ele>
        <time>2017-03-26T16:22:38Z</time>
      </trkpt>
      <trkpt lat="45.28284" lon="5.62112">
        <ele>146.65</ele>
        <time>2017-03-26T16:22:39Z</time>
      </trkpt>
      <trkpt lat="45.28278" lon="5.62115">
        <ele>146.73</ele>
        <time>2017-03-26T16:22:40Z</time>
      </trkpt>
      <trkpt lat="45.2827" lon="5.62118">
        <ele>146.83</ele>
        <time>2017-03-26T16:22:41Z</time>
      </trkpt>
      <trkpt lat="45.2826" lon="5.62123">
        <ele>146.84</ele>
        <time>2017-03-26T16:22:42Z</time>
      </trkpt>
      <trkpt lat="45.28247" lon="5.62131">
        <ele>146.77</ele>
        <time>2017-03-26T16:22:43Z</time>
      </trkpt>
      <trkpt lat="45.28234" lon="5.62139">
        <ele>146.91</ele>
        <time>2017-03-26T16:22:44Z</time>
      </trkpt>
      <trkpt lat="45.28221" lon="5.62147">
        <ele>146.78</ele>
        <time>2017-03-26T16:22:45Z</time>
      </trkpt>
      <trkpt lat="45.28208" lon="5.62154">
        <ele>146.6</ele>
        <time>2017-03-26T16:22:46Z</time>
      </trkpt>
      <trkpt lat="45.28194" lon="5.6216">
        <ele>146.32</ele>
        <time>2017-03-26T16:22:47Z</time>
      </trkpt>
      <trkpt lat="45.28181" lon="5.62166">
        <ele>145.94</ele>
        <time>2017-03-26T16:22:48Z</time>
      </trkpt>
      <trkpt lat="45.28168" lon="5.62172">
        <ele>145.55</ele>
        <time>2017-03-26T16:22:49Z</time>
      </trkpt>
      <trkpt lat="45.28154" lon="5.62177">
        <ele>144.91</ele>
        <time>2017-03-26T16:22:50Z</time>
      </trkpt>
      <trkpt lat="45.28142" lon="5.62183">
        <ele>144.3</ele>
        <time>2017-03-26T16:22:51Z</time>
      </trkpt>
      <trkpt lat="45.28128" lon="5.6219">
        <ele>143.54</ele>
        <time>2017-03-26T16:22:52Z</time>
      </trkpt>
      <trkpt lat="45.28114" lon="5.62197">
        <ele>143.23</ele>
        <time>2017-03-26T16:22:53Z</time>
      </trkpt>
      <trkpt lat="45.28099" lon="5.62205">
        <ele>142.68</ele>
        <time>2017-03-26T16:22:54Z</time>
      </trkpt>
      <trkpt lat="45.28082" lon="5.62213">
        <ele>142.02</ele>
        <time>2017-03-26T16:22:55Z</time>
      </trkpt>
      <trkpt lat="45.28064" lon="5.6222">
        <ele>141.08</ele>
        <time>2017-03-26T16:22:56Z</time>
      </trkpt>
      <trkpt lat="45.28045" lon="5.62227">
        <ele>140.18</ele>
        <time>2017-03-26T16:22:57Z</time>
      </trkpt>
      <trkpt lat="45.28025" lon="5.62236">
        <ele>140.55</ele>
        <time>2017-03-26T16:22:58Z</time>
      </trkpt>
      <trkpt lat="45.28004" lon="5.62244">
        <ele>140.79</ele>
        <time>2017-03-26T16:22:59Z</time>
      </trkpt>
      <trkpt lat="45.27982" lon="5.62252">
        <ele>140.92</ele>
        <time>2017-03-26T16:23:00Z</time>
      </trkpt>
      <trkpt lat="45.2796" lon="5.62261">
        <ele>141.34</ele>
        <time>2017-03-26T16:23:01Z</time>
      </trkpt>
      <trkpt lat="45.27937" lon="5.62269">
        <ele>141.51</ele>
        <time>2017-03-26T16:23:02Z</time>
      </trkpt>
      <trkpt lat="45.27914" lon="5.62278">
        <ele>141.46</ele>
        <time>2017-03-26T16:23:03Z</time>
      </trkpt>
      <trkpt lat="45.27891" lon="5.62287">
        <ele>141.45</ele>
        <time>2017-03-26T16:23:04Z</time>
      </trkpt>
      <trkpt lat="45.27867" lon="5.62298">
        <ele>142.41</ele>
        <time>2017-03-26T16:23:05Z</time>
      </trkpt>
      <trkpt lat="45.27842" lon="5.62308">
        <ele>142.68</ele>
        <time>2017-03-26T16:23:06Z</time>
      </trkpt>
      <trkpt lat="45.27818" lon="5.62318">
        <ele>143.14</ele>
        <time>2017-03-26T16:23:07Z</time>
      </trkpt>
      <trkpt lat="45.27793" lon="5.62329">
        <ele>143.31</ele>
        <time>2017-03-26T16:23:08Z</time>
      </trkpt>
      <trkpt lat="45.27768" lon="5.62341">
        <ele>142.94</ele>
        <time>2017-03-26T16:23:09Z</time>
      </trkpt>
      <trkpt lat="45.27743" lon="5.62352">
        <ele>142.47</ele>
        <time>2017-03-26T16:23:10Z</time>
      </trkpt>
      <trkpt lat="45.27718" lon="5.62363">
        <ele>141.89</ele>
        <time>2017-03-26T16:23:11Z</time>
      </trkpt>
      <trkpt lat="45.27693" lon="5.62375">
        <ele>141.14</ele>
        <time>2017-03-26T16:23:12Z</time>
      </trkpt>
      <trkpt lat="45.27667" lon="5.62386">
        <ele>140.51</ele>
        <time>2017-03-26T16:23:13Z</time>
      </trkpt>
      <trkpt lat="45.27641" lon="5.62398">
        <ele>140.22</ele>
        <time>2017-03-26T16:23:14Z</time>
      </trkpt>
      <trkpt lat="45.27615" lon="5.6241">
        <ele>140.16</ele>
        <time>2017-03-26T16:23:15Z</time>
      </trkpt>
      <trkpt lat="45.27589" lon="5.62422">
        <ele>140.23</ele>
        <time>2017-03-26T16:23:16Z</time>
      </trkpt>
      <trkpt lat="45.27564" lon="5.62434">
        <ele>140.17</ele>
        <time>2017-03-26T16:23:17Z</time>
      </trkpt>
      <trkpt lat="45.27537" lon="5.62446">
        <ele>139.99</ele>
        <time>2017-03-26T16:23:18Z</time>
      </trkpt>
      <trkpt lat="45.27511" lon="5.62458">
        <ele>140.28</ele>
        <time>2017-03-26T16:23:19Z</time>
      </trkpt>
      <trkpt lat="45.27485" lon="5.62471">
        <ele>140.89</ele>
        <time>2017-03-26T16:23:20Z</time>
      </trkpt>
      <trkpt lat="45.27459" lon="5.62484">
        <ele>141.02</ele>
        <time>2017-03-26T16:23:21Z</time>
      </trkpt>
      <trkpt lat="45.27433" lon="5.62497">
        <ele>140.96</ele>
        <time>2017-03-26T16:23:22Z</time>
      </trkpt>
      <trkpt lat="45.27407" lon="5.6251">
        <ele>140.87</ele>
        <time>2017-03-26T16:23:23Z</time>
      </trkpt>
      <trkpt lat="45.27381" lon="5.62524">
        <ele>141.41</ele>
        <time>2017-03-26T16:23:24Z</time>
      </trkpt>
      <trkpt lat="45.27356" lon="5.62537">
        <ele>141.92</ele>
        <time>2017-03-26T16:23:25Z</time>
      </trkpt>
      <trkpt lat="45.2733" lon="5.62549">
        <ele>142.26</ele>
        <time>2017-03-26T16:23:26Z</time>
      </trkpt>
      <trkpt lat="45.27305" lon="5.62561">
        <ele>142.81</ele>
        <time>2017-03-26T16:23:27Z</time>
      </trkpt>
      <trkpt lat="45.27281" lon="5.62573">
        <ele>143.4</ele>
        <time>2017-03-26T16:23:28Z</time>
      </trkpt>
      <trkpt lat="45.27257" lon="5.62586">
        <ele>144</ele>
        <time>2017-03-26T16:23:29Z</time>
      </trkpt>
      <trkpt lat="45.27233" lon="5.62599">
        <ele>143.96</ele>
        <time>2017-03-26T16:23:30Z</time>
      </trkpt>
      <trkpt lat="45.27209" lon="5.62613">
        <ele>144.99</ele>
        <time>2017-03-26T16:23:31Z</time>
      </trkpt>
      <trkpt lat="45.27183" lon="5.62626">
        <ele>145.6</ele>
        <time>2017-03-26T16:23:32Z</time>
      </trkpt>
      <trkpt lat="45.27156" lon="5.6264">
        <ele>145.8</ele>
        <time>2017-03-26T16:23:33Z</time>
      </trkpt>
      <trkpt lat="45.27129" lon="5.62653">
        <ele>145.6</ele>
        <time>2017-03-26T16:23:34Z</time>
      </trkpt>
      <trkpt lat="45.27102" lon="5.62667">
        <ele>145.4</ele>
        <time>2017-03-26T16:23:35Z</time>
      </trkpt>
      <trkpt lat="45.27075" lon="5.62679">
        <ele>145.36</ele>
        <time>2017-03-26T16:23:36Z</time>
      </trkpt>
      <trkpt lat="45.27048" lon="5.62693">
        <ele>145.11</ele>
        <time>2017-03-26T16:23:37Z</time>
      </trkpt>
      <trkpt lat="45.2702" lon="5.62706">
        <ele>144.82</ele>
        <time>2017-03-26T16:23:38Z</time>
      </trkpt>
      <trkpt lat="45.26993" lon="5.62719">
        <ele>144.36</ele>
        <time>2017-03-26T16:23:39Z</time>
      </trkpt>
      <trkpt lat="45.26965" lon="5.62733">
        <ele>143.71</ele>
        <time>2017-03-26T16:23:40Z</time>
      </trkpt>
      <trkpt lat="45.26937" lon="5.62747">
        <ele>143.02</ele>
        <time>2017-03-26T16:23:41Z</time>
      </trkpt>
      <trkpt lat="45.2691" lon="5.62761">
        <ele>142.32</ele>
        <time>2017-03-26T16:23:42Z</time>
      </trkpt>
      <trkpt lat="45.26882" lon="5.62776">
        <ele>141.78</ele>
        <time>2017-03-26T16:23:43Z</time>
      </trkpt>
      <trkpt lat="45.26856" lon="5.62791">
        <ele>141.44</ele>
        <time>2017-03-26T16:23:44Z</time>
      </trkpt>
      <trkpt lat="45.26829" lon="5.62806">
        <ele>140.89</ele>
        <time>2017-03-26T16:23:45Z</time>
      </trkpt>
      <trkpt lat="45.26803" lon="5.62822">
        <ele>140.3</ele>
        <time>2017-03-26T16:23:46Z</time>
      </trkpt>
      <trkpt lat="45.26778" lon="5.62838">
        <ele>139.46</ele>
        <time>2017-03-26T16:23:47Z</time>
      </trkpt>
      <trkpt lat="45.26753" lon="5.62856">
        <ele>138.49</ele>
        <time>2017-03-26T16:23:48Z</time>
      </trkpt>
      <trkpt lat="45.26727" lon="5.62874">
        <ele>138.3</ele>
        <time>2017-03-26T16:23:49Z</time>
      </trkpt>
      <trkpt lat="45.26702" lon="5.62893">
        <ele>137.62</ele>
        <time>2017-03-26T16:23:50Z</time>
      </trkpt>
      <trkpt lat="45.26677" lon="5.62914">
        <ele>137.24</ele>
        <time>2017-03-26T16:23:51Z</time>
      </trkpt>
      <trkpt lat="45.26653" lon="5.62935">
        <ele>136.77</ele>
        <time>2017-03-26T16:23:52Z</time>
      </trkpt>
      <trkpt lat="45.26629" lon="5.62956">
        <ele>136.35</ele>
        <time>2017-03-26T16:23:53Z</time>
      </trkpt>
      <trkpt lat="45.26605" lon="5.62978">
        <ele>136.03</ele>
        <time>2017-03-26T16:23:54Z</time>
      </trkpt>
      <trkpt lat="45.26581" lon="5.63">
        <ele>135.65</ele>
        <time>2017-03-26T16:23:55Z</time>
      </trkpt>
      <trkpt lat="45.26558" lon="5.63024">
        <ele>135.41</ele>
        <time>2017-03-26T16:23:56Z</time>
      </trkpt>
      <trkpt lat="45.26535" lon="5.63047">
        <ele>135.44</ele>
        <time>2017-03-26T16:23:57Z</time>
      </trkpt>
      <trkpt lat="45.26512" lon="5.63072">
        <ele>135.21</ele>
        <time>2017-03-26T16:23:58Z</time>
      </trkpt>
      <trkpt lat="45.26489" lon="5.63097">
        <ele>135.32</ele>
        <time>2017-03-26T16:23:59Z</time>
      </trkpt>
      <trkpt lat="45.26467" lon="5.63123">
        <ele>135.42</ele>
        <time>2017-03-26T16:24:00Z</time>
      </trkpt>
      <trkpt lat="45.26445" lon="5.63149">
        <ele>136.16</ele>
        <time>2017-03-26T16:24:01Z</time>
      </trkpt>
      <trkpt lat="45.26424" lon="5.63176">
        <ele>136.63</ele>
        <time>2017-03-26T16:24:02Z</time>
      </trkpt>
      <trkpt lat="45.26402" lon="5.63203">
        <ele>137.21</ele>
        <time>2017-03-26T16:24:03Z</time>
      </trkpt>
      <trkpt lat="45.2638" lon="5.6323">
        <ele>137.48</ele>
        <time>2017-03-26T16:24:04Z</time>
      </trkpt>
      <trkpt lat="45.26359" lon="5.63257">
        <ele>137.78</ele>
        <time>2017-03-26T16:24:05Z</time>
      </trkpt>
      <trkpt lat="45.26337" lon="5.63284">
        <ele>137.91</ele>
        <time>2017-03-26T16:24:06Z</time>
      </trkpt>
      <trkpt lat="45.26315" lon="5.63311">
        <ele>138.66</ele>
        <time>2017-03-26T16:24:07Z</time>
      </trkpt>
      <trkpt lat="45.26293" lon="5.63338">
        <ele>138.89</ele>
        <time>2017-03-26T16:24:08Z</time>
      </trkpt>
      <trkpt lat="45.26271" lon="5.63365">
        <ele>139.66</ele>
        <time>2017-03-26T16:24:09Z</time>
      </trkpt>
      <trkpt lat="45.26249" lon="5.63392">
        <ele>140.45</ele>
        <time>2017-03-26T16:24:10Z</time>
      </trkpt>
      <trkpt lat="45.26227" lon="5.63419">
        <ele>141.09</ele>
        <time>2017-03-26T16:24:11Z</time>
      </trkpt>
      <trkpt lat="45.26205" lon="5.63446">
        <ele>141.86</ele>
        <time>2017-03-26T16:24:12Z</time>
      </trkpt>
      <trkpt lat="45.26183" lon="5.63473">
        <ele>142.33</ele>
        <time>2017-03-26T16:24:13Z</time>
      </trkpt>
      <trkpt lat="45.26161" lon="5.63499">
        <ele>142.43</ele>
        <time>2017-03-26T16:24:14Z</time>
      </trkpt>
      <trkpt lat="45.2614" lon="5.63526">
        <ele>142.52</ele>
        <time>2017-03-26T16:24:15Z</time>
      </trkpt>
      <trkpt lat="45.26118" lon="5.63552">
        <ele>142.62</ele>
        <time>2017-03-26T16:24:16Z</time>
      </trkpt>
      <trkpt lat="45.26096" lon="5.63578">
        <ele>142.64</ele>
        <time>2017-03-26T16:24:17Z</time>
      </trkpt>
      <trkpt lat="45.26074" lon="5.63604">
        <ele>142.73</ele>
        <time>2017-03-26T16:24:18Z</time>
      </trkpt>
      <trkpt lat="45.26053" lon="5.63629">
        <ele>142.34</ele>
        <time>2017-03-26T16:24:19Z</time>
      </trkpt>
      <trkpt lat="45.26032" lon="5.63655">
        <ele>141.87</ele>
        <time>2017-03-26T16:24:20Z</time>
      </trkpt>
      <trkpt lat="45.26011" lon="5.63682">
        <ele>141.53</ele>
        <time>2017-03-26T16:24:21Z</time>
      </trkpt>
      <trkpt lat="45.25991" lon="5.63708">
        <ele>141.71</ele>
        <time>2017-03-26T16:24:22Z</time>
      </trkpt>
      <trkpt lat="45.25971" lon="5.63735">
        <ele>141.82</ele>
        <time>2017-03-26T16:24:23Z</time>
      </trkpt>
      <trkpt lat="45.25951" lon="5.63763">
        <ele>142</ele>
        <time>2017-03-26T16:24:24Z</time>
      </trkpt>
      <trkpt lat="45.25931" lon="5.6379">
        <ele>142.28</ele>
        <time>2017-03-26T16:24:25Z</time>
      </trkpt>
      <trkpt lat="45.25912" lon="5.63818">
        <ele>142.42</ele>
        <time>2017-03-26T16:24:26Z</time>
      </trkpt>
      <trkpt lat="45.25892" lon="5.63845">
        <ele>142.84</ele>
        <time>2017-03-26T16:24:27Z</time>
      </trkpt>
      <trkpt lat="45.25873" lon="5.63873">
        <ele>143.17</ele>
        <time>2017-03-26T16:24:28Z</time>
      </trkpt>
      <trkpt lat="45.25855" lon="5.63902">
        <ele>143.39</ele>
        <time>2017-03-26T16:24:29Z</time>
      </trkpt>
      <trkpt lat="45.25836" lon="5.63931">
        <ele>143.76</ele>
        <time>2017-03-26T16:24:30Z</time>
      </trkpt>
      <trkpt lat="45.25818" lon="5.6396">
        <ele>143.67</ele>
        <time>2017-03-26T16:24:31Z</time>
      </trkpt>
      <trkpt lat="45.258" lon="5.6399">
        <ele>143.09</ele>
        <time>2017-03-26T16:24:32Z</time>
      </trkpt>
      <trkpt lat="45.25783" lon="5.6402">
        <ele>142.9</ele>
        <time>2017-03-26T16:24:33Z</time>
      </trkpt>
      <trkpt lat="45.25766" lon="5.64051">
        <ele>142.7</ele>
        <time>2017-03-26T16:24:34Z</time>
      </trkpt>
      <trkpt lat="45.25749" lon="5.64082">
        <ele>142.5</ele>
        <time>2017-03-26T16:24:35Z</time>
      </trkpt>
      <trkpt lat="45.25732" lon="5.64113">
        <ele>142.38</ele>
        <time>2017-03-26T16:24:36Z</time>
      </trkpt>
      <trkpt lat="45.25716" lon="5.64144">
        <ele>142.35</ele>
        <time>2017-03-26T16:24:37Z</time>
      </trkpt>
      <trkpt lat="45.257" lon="5.64175">
        <ele>142.27</ele>
        <time>2017-03-26T16:24:38Z</time>
      </trkpt>
      <trkpt lat="45.25684" lon="5.64206">
        <ele>142.01</ele>
        <time>2017-03-26T16:24:39Z</time>
      </trkpt>
      <trkpt lat="45.25668" lon="5.64237">
        <ele>141.96</ele>
        <time>2017-03-26T16:24:40Z</time>
      </trkpt>
      <trkpt lat="45.25652" lon="5.64269">
        <ele>142.03</ele>
        <time>2017-03-26T16:24:41Z</time>
      </trkpt>
      <trkpt lat="45.25635" lon="5.64301">
        <ele>141.73</ele>
        <time>2017-03-26T16:24:42Z</time>
      </trkpt>
      <trkpt lat="45.25619" lon="5.64333">
        <ele>141.66</ele>
        <time>2017-03-26T16:24:43Z</time>
      </trkpt>
      <trkpt lat="45.25602" lon="5.64365">
        <ele>141.97</ele>
        <time>2017-03-26T16:24:44Z</time>
      </trkpt>
      <trkpt lat="45.25585" lon="5.64397">
        <ele>141.95</ele>
        <time>2017-03-26T16:24:45Z</time>
      </trkpt>
      <trkpt lat="45.25567" lon="5.64429">
        <ele>141.79</ele>
        <time>2017-03-26T16:24:46Z</time>
      </trkpt>
      <trkpt lat="45.25549" lon="5.64461">
        <ele>141.68</ele>
        <time>2017-03-26T16:24:47Z</time>
      </trkpt>
      <trkpt lat="45.25532" lon="5.64493">
        <ele>141.33</ele>
        <time>2017-03-26T16:24:48Z</time>
      </trkpt>
      <trkpt lat="45.25513" lon="5.64524">
        <ele>141.03</ele>
        <time>2017-03-26T16:24:49Z</time>
      </trkpt>
      <trkpt lat="45.25495" lon="5.64555">
        <ele>140.8</ele>
        <time>2017-03-26T16:24:50Z</time>
      </trkpt>
      <trkpt lat="45.25477" lon="5.64586">
        <ele>140.6</ele>
        <time>2017-03-26T16:24:51Z</time>
      </trkpt>
      <trkpt lat="45.25459" lon="5.64616">
        <ele>140.48</ele>
        <time>2017-03-26T16:24:52Z</time>
      </trkpt>
      <trkpt lat="45.2544" lon="5.64645">
        <ele>140.22</ele>
        <time>2017-03-26T16:24:53Z</time>
      </trkpt>
      <trkpt lat="45.25422" lon="5.64674">
        <ele>139.92</ele>
        <time>2017-03-26T16:24:54Z</time>
      </trkpt>
      <trkpt lat="45.25403" lon="5.64703">
        <ele>139.86</ele>
        <time>2017-03-26T16:24:55Z</time>
      </trkpt>
      <trkpt lat="45.25384" lon="5.64731">
        <ele>140.01</ele>
        <time>2017-03-26T16:24:56Z</time>
      </trkpt>
      <trkpt lat="45.25365" lon="5.64759">
        <ele>139.96</ele>
        <time>2017-03-26T16:24:57Z</time>
      </trkpt>
      <trkpt lat="45.25345" lon="5.64786">
        <ele>139.87</ele>
        <time>2017-03-26T16:24:58Z</time>
      </trkpt>
      <trkpt lat="45.25326" lon="5.64813">
        <ele>139.53</ele>
        <time>2017-03-26T16:24:59Z</time>
      </trkpt>
      <trkpt lat="45.25307" lon="5.6484">
        <ele>139.47</ele>
        <time>2017-03-26T16:25:00Z</time>
      </trkpt>
      <trkpt lat="45.25287" lon="5.64867">
        <ele>139.21</ele>
        <time>2017-03-26T16:25:01Z</time>
      </trkpt>
      <trkpt lat="45.25267" lon="5.64894">
        <ele>138.92</ele>
        <time>2017-03-26T16:25:02Z</time>
      </trkpt>
      <trkpt lat="45.25247" lon="5.64921">
        <ele>138.7</ele>
        <time>2017-03-26T16:25:03Z</time>
      </trkpt>
      <trkpt lat="45.25227" lon="5.64947">
        <ele>138.66</ele>
        <time>2017-03-26T16:25:04Z</time>
      </trkpt>
      <trkpt lat="45.25207" lon="5.64973">
        <ele>138.89</ele>
        <time>2017-03-26T16:25:05Z</time>
      </trkpt>
      <trkpt lat="45.25186" lon="5.64999">
        <ele>139.02</ele>
        <time>2017-03-26T16:25:06Z</time>
      </trkpt>
      <trkpt lat="45.25166" lon="5.65025">
        <ele>139.12</ele>
        <time>2017-03-26T16:25:07Z</time>
      </trkpt>
      <trkpt lat="45.25145" lon="5.65052">
        <ele>139.06</ele>
        <time>2017-03-26T16:25:08Z</time>
      </trkpt>
      <trkpt lat="45.25124" lon="5.65079">
        <ele>139.53</ele>
        <time>2017-03-26T16:25:09Z</time>
      </trkpt>
      <trkpt lat="45.25104" lon="5.65105">
        <ele>139.95</ele>
        <time>2017-03-26T16:25:10Z</time>
      </trkpt>
      <trkpt lat="45.25083" lon="5.65132">
        <ele>140.67</ele>
        <time>2017-03-26T16:25:11Z</time>
      </trkpt>
      <trkpt lat="45.25061" lon="5.6516">
        <ele>141.29</ele>
        <time>2017-03-26T16:25:12Z</time>
      </trkpt>
      <trkpt lat="45.2504" lon="5.65187">
        <ele>141.9</ele>
        <time>2017-03-26T16:25:13Z</time>
      </trkpt>
      <trkpt lat="45.25018" lon="5.65213">
        <ele>142.34</ele>
        <time>2017-03-26T16:25:14Z</time>
      </trkpt>
      <trkpt lat="45.24996" lon="5.6524">
        <ele>142.27</ele>
        <time>2017-03-26T16:25:15Z</time>
      </trkpt>
      <trkpt lat="45.24975" lon="5.65266">
        <ele>142.25</ele>
        <time>2017-03-26T16:25:16Z</time>
      </trkpt>
      <trkpt lat="45.24952" lon="5.65292">
        <ele>142.25</ele>
        <time>2017-03-26T16:25:17Z</time>
      </trkpt>
      <trkpt lat="45.2493" lon="5.65317">
        <ele>142.33</ele>
        <time>2017-03-26T16:25:18Z</time>
      </trkpt>
      <trkpt lat="45.24907" lon="5.65341">
        <ele>142.19</ele>
        <time>2017-03-26T16:25:19Z</time>
      </trkpt>
      <trkpt lat="45.24884" lon="5.65365">
        <ele>142.24</ele>
        <time>2017-03-26T16:25:20Z</time>
      </trkpt>
      <trkpt lat="45.24861" lon="5.65387">
        <ele>142.41</ele>
        <time>2017-03-26T16:25:21Z</time>
      </trkpt>
      <trkpt lat="45.24837" lon="5.65409">
        <ele>142.52</ele>
        <time>2017-03-26T16:25:22Z</time>
      </trkpt>
      <trkpt lat="45.24812" lon="5.6543">
        <ele>142.7</ele>
        <time>2017-03-26T16:25:23Z</time>
      </trkpt>
      <trkpt lat="45.24788" lon="5.65451">
        <ele>143.22</ele>
        <time>2017-03-26T16:25:24Z</time>
      </trkpt>
      <trkpt lat="45.24763" lon="5.6547">
        <ele>143.48</ele>
        <time>2017-03-26T16:25:25Z</time>
      </trkpt>
      <trkpt lat="45.24738" lon="5.65489">
        <ele>143.78</ele>
        <time>2017-03-26T16:25:26Z</time>
      </trkpt>
      <trkpt lat="45.24713" lon="5.65508">
        <ele>143.91</ele>
        <time>2017-03-26T16:25:27Z</time>
      </trkpt>
      <trkpt lat="45.24688" lon="5.65526">
        <ele>143.94</ele>
        <time>2017-03-26T16:25:28Z</time>
      </trkpt>
      <trkpt lat="45.24663" lon="5.65544">
        <ele>144.03</ele>
        <time>2017-03-26T16:25:29Z</time>
      </trkpt>
      <trkpt lat="45.24638" lon="5.65563">
        <ele>143.96</ele>
        <time>2017-03-26T16:25:30Z</time>
      </trkpt>
      <trkpt lat="45.24613" lon="5.65581">
        <ele>144.19</ele>
        <time>2017-03-26T16:25:31Z</time>
      </trkpt>
      <trkpt lat="45.24588" lon="5.65599">
        <ele>144.08</ele>
        <time>2017-03-26T16:25:32Z</time>
      </trkpt>
      <trkpt lat="45.24563" lon="5.65618">
        <ele>143.65</ele>
        <time>2017-03-26T16:25:33Z</time>
      </trkpt>
      <trkpt lat="45.24538" lon="5.65636">
        <ele>143.17</ele>
        <time>2017-03-26T16:25:34Z</time>
      </trkpt>
      <trkpt lat="45.24512" lon="5.65654">
        <ele>143.07</ele>
        <time>2017-03-26T16:25:35Z</time>
      </trkpt>
      <trkpt lat="45.24487" lon="5.65672">
        <ele>143.13</ele>
        <time>2017-03-26T16:25:36Z</time>
      </trkpt>
      <trkpt lat="45.24462" lon="5.6569">
        <ele>142.27</ele>
        <time>2017-03-26T16:25:37Z</time>
      </trkpt>
      <trkpt lat="45.24438" lon="5.65708">
        <ele>141.61</ele>
        <time>2017-03-26T16:25:38Z</time>
      </trkpt>
      <trkpt lat="45.24413" lon="5.65726">
        <ele>141.32</ele>
        <time>2017-03-26T16:25:39Z</time>
      </trkpt>
      <trkpt lat="45.24388" lon="5.65743">
        <ele>141.26</ele>
        <time>2017-03-26T16:25:40Z</time>
      </trkpt>
      <trkpt lat="45.24363" lon="5.65761">
        <ele>141.25</ele>
        <time>2017-03-26T16:25:41Z</time>
      </trkpt>
      <trkpt lat="45.24338" lon="5.65779">
        <ele>140.93</ele>
        <time>2017-03-26T16:25:42Z</time>
      </trkpt>
      <trkpt lat="45.24313" lon="5.65797">
        <ele>140.55</ele>
        <time>2017-03-26T16:25:43Z</time>
      </trkpt>
      <trkpt lat="45.24288" lon="5.65816">
        <ele>140.47</ele>
        <time>2017-03-26T16:25:44Z</time>
      </trkpt>
      <trkpt lat="45.24263" lon="5.65834">
        <ele>140.77</ele>
        <time>2017-03-26T16:25:45Z</time>
      </trkpt>
      <trkpt lat="45.24238" lon="5.65852">
        <ele>140.99</ele>
        <time>2017-03-26T16:25:46Z</time>
      </trkpt>
      <trkpt lat="45.24213" lon="5.6587">
        <ele>141.28</ele>
        <time>2017-03-26T16:25:47Z</time>
      </trkpt>
      <trkpt lat="45.24188" lon="5.65888">
        <ele>141.25</ele>
        <time>2017-03-26T16:25:48Z</time>
      </trkpt>
      <trkpt lat="45.24163" lon="5.65905">
        <ele>141.33</ele>
        <time>2017-03-26T16:25:49Z</time>
      </trkpt>
      <trkpt lat="45.24138" lon="5.65923">
        <ele>141.67</ele>
        <time>2017-03-26T16:25:50Z</time>
      </trkpt>
      <trkpt lat="45.24112" lon="5.65941">
        <ele>142.61</ele>
        <time>2017-03-26T16:25:51Z</time>
      </trkpt>
      <trkpt lat="45.24087" lon="5.65959">
        <ele>143.04</ele>
        <time>2017-03-26T16:25:52Z</time>
      </trkpt>
      <trkpt lat="45.24062" lon="5.65976">
        <ele>143.77</ele>
        <time>2017-03-26T16:25:53Z</time>
      </trkpt>
      <trkpt lat="45.24036" lon="5.65994">
        <ele>143.99</ele>
        <time>2017-03-26T16:25:54Z</time>
      </trkpt>
      <trkpt lat="45.24011" lon="5.66011">
        <ele>144.12</ele>
        <time>2017-03-26T16:25:55Z</time>
      </trkpt>
      <trkpt lat="45.23986" lon="5.66028">
        <ele>144.38</ele>
        <time>2017-03-26T16:25:56Z</time>
      </trkpt>
      <trkpt lat="45.2396" lon="5.66044">
        <ele>144.28</ele>
        <time>2017-03-26T16:25:57Z</time>
      </trkpt>
      <trkpt lat="45.23934" lon="5.66061">
        <ele>143.77</ele>
        <time>2017-03-26T16:25:58Z</time>
      </trkpt>
      <trkpt lat="45.23909" lon="5.66077">
        <ele>143.91</ele>
        <time>2017-03-26T16:25:59Z</time>
      </trkpt>
      <trkpt lat="45.23883" lon="5.66094">
        <ele>143.94</ele>
        <time>2017-03-26T16:26:00Z</time>
      </trkpt>
      <trkpt lat="45.23857" lon="5.6611">
        <ele>143.95</ele>
        <time>2017-03-26T16:26:01Z</time>
      </trkpt>
      <trkpt lat="45.23832" lon="5.66125">
        <ele>144.19</ele>
        <time>2017-03-26T16:26:02Z</time>
      </trkpt>
      <trkpt lat="45.23806" lon="5.66141">
        <ele>144</ele>
        <time>2017-03-26T16:26:03Z</time>
      </trkpt>
      <trkpt lat="45.23781" lon="5.66155">
        <ele>144.04</ele>
        <time>2017-03-26T16:26:04Z</time>
      </trkpt>
      <trkpt lat="45.23757" lon="5.6617">
        <ele>144.05</ele>
        <time>2017-03-26T16:26:05Z</time>
      </trkpt>
      <trkpt lat="45.23734" lon="5.66184">
        <ele>143.81</ele>
        <time>2017-03-26T16:26:06Z</time>
      </trkpt>
      <trkpt lat="45.2371" lon="5.66197">
        <ele>143.6</ele>
        <time>2017-03-26T16:26:07Z</time>
      </trkpt>
      <trkpt lat="45.23687" lon="5.66211">
        <ele>143.48</ele>
        <time>2017-03-26T16:26:08Z</time>
      </trkpt>
      <trkpt lat="45.23664" lon="5.66223">
        <ele>143.62</ele>
        <time>2017-03-26T16:26:09Z</time>
      </trkpt>
      <trkpt lat="45.23641" lon="5.66235">
        <ele>143.72</ele>
        <time>2017-03-26T16:26:10Z</time>
      </trkpt>
      <trkpt lat="45.23619" lon="5.66247">
        <ele>143.34</ele>
        <time>2017-03-26T16:26:11Z</time>
      </trkpt>
      <trkpt lat="45.23596" lon="5.66258">
        <ele>142.87</ele>
        <time>2017-03-26T16:26:12Z</time>
      </trkpt>
      <trkpt lat="45.23574" lon="5.66269">
        <ele>142.45</ele>
        <time>2017-03-26T16:26:13Z</time>
      </trkpt>
      <trkpt lat="45.23551" lon="5.66279">
        <ele>142.13</ele>
        <time>2017-03-26T16:26:14Z</time>
      </trkpt>
      <trkpt lat="45.23529" lon="5.6629">
        <ele>141.91</ele>
        <time>2017-03-26T16:26:15Z</time>
      </trkpt>
      <trkpt lat="45.23506" lon="5.66301">
        <ele>141.78</ele>
        <time>2017-03-26T16:26:16Z</time>
      </trkpt>
      <trkpt lat="45.23484" lon="5.66311">
        <ele>142</ele>
        <time>2017-03-26T16:26:17Z</time>
      </trkpt>
      <trkpt lat="45.23461" lon="5.66322">
        <ele>141.64</ele>
        <time>2017-03-26T16:26:18Z</time>
      </trkpt>
      <trkpt lat="45.23439" lon="5.66333">
        <ele>141.33</ele>
        <time>2017-03-26T16:26:19Z</time>
      </trkpt>
      <trkpt lat="45.23416" lon="5.66344">
        <ele>140.86</ele>
        <time>2017-03-26T16:26:20Z</time>
      </trkpt>
      <trkpt lat="45.23393" lon="5.66355">
        <ele>140.45</ele>
        <time>2017-03-26T16:26:21Z</time>
      </trkpt>
      <trkpt lat="45.23371" lon="5.66367">
        <ele>140.05</ele>
        <time>2017-03-26T16:26:22Z</time>
      </trkpt>
      <trkpt lat="45.23348" lon="5.66379">
        <ele>139.49</ele>
        <time>2017-03-26T16:26:23Z</time>
      </trkpt>
      <trkpt lat="45.23326" lon="5.66391">
        <ele>138.74</ele>
        <time>2017-03-26T16:26:24Z</time>
      </trkpt>
      <trkpt lat="45.23303" lon="5.66403">
        <ele>137.95</ele>
        <time>2017-03-26T16:26:25Z</time>
      </trkpt>
      <trkpt lat="45.23281" lon="5.66415">
        <ele>137.55</ele>
        <time>2017-03-26T16:26:26Z</time>
      </trkpt>
      <trkpt lat="45.23258" lon="5.66428">
        <ele>138.51</ele>
        <time>2017-03-26T16:26:27Z</time>
      </trkpt>
      <trkpt lat="45.23236" lon="5.66441">
        <ele>138.86</ele>
        <time>2017-03-26T16:26:28Z</time>
      </trkpt>
      <trkpt lat="45.23213" lon="5.66454">
        <ele>139.09</ele>
        <time>2017-03-26T16:26:29Z</time>
      </trkpt>
      <trkpt lat="45.23191" lon="5.66468">
        <ele>139.46</ele>
        <time>2017-03-26T16:26:30Z</time>
      </trkpt>
      <trkpt lat="45.23169" lon="5.66482">
        <ele>140.01</ele>
        <time>2017-03-26T16:26:31Z</time>
      </trkpt>
      <trkpt lat="45.23146" lon="5.66496">
        <ele>140.44</ele>
        <time>2017-03-26T16:26:32Z</time>
      </trkpt>
      <trkpt lat="45.23124" lon="5.6651">
        <ele>140.69</ele>
        <time>2017-03-26T16:26:33Z</time>
      </trkpt>
      <trkpt lat="45.23102" lon="5.66524">
        <ele>140.82</ele>
        <time>2017-03-26T16:26:34Z</time>
      </trkpt>
      <trkpt lat="45.2308" lon="5.66538">
        <ele>140.68</ele>
        <time>2017-03-26T16:26:35Z</time>
      </trkpt>
      <trkpt lat="45.23059" lon="5.66552">
        <ele>140.34</ele>
        <time>2017-03-26T16:26:36Z</time>
      </trkpt>
      <trkpt lat="45.23037" lon="5.66566">
        <ele>140.35</ele>
        <time>2017-03-26T16:26:37Z</time>
      </trkpt>
      <trkpt lat="45.23016" lon="5.6658">
        <ele>140.27</ele>
        <time>2017-03-26T16:26:38Z</time>
      </trkpt>
      <trkpt lat="45.22995" lon="5.66595">
        <ele>140.49</ele>
        <time>2017-03-26T16:26:39Z</time>
      </trkpt>
      <trkpt lat="45.22974" lon="5.66609">
        <ele>140.54</ele>
        <time>2017-03-26T16:26:40Z</time>
      </trkpt>
      <trkpt lat="45.22953" lon="5.66624">
        <ele>140.47</ele>
        <time>2017-03-26T16:26:41Z</time>
      </trkpt>
      <trkpt lat="45.22932" lon="5.66639">
        <ele>140.61</ele>
        <time>2017-03-26T16:26:42Z</time>
      </trkpt>
      <trkpt lat="45.22911" lon="5.66654">
        <ele>140.96</ele>
        <time>2017-03-26T16:26:43Z</time>
      </trkpt>
      <trkpt lat="45.2289" lon="5.66669">
        <ele>141.27</ele>
        <time>2017-03-26T16:26:44Z</time>
      </trkpt>
      <trkpt lat="45.22869" lon="5.66683">
        <ele>141.01</ele>
        <time>2017-03-26T16:26:45Z</time>
      </trkpt>
      <trkpt lat="45.22848" lon="5.66697">
        <ele>141.36</ele>
        <time>2017-03-26T16:26:46Z</time>
      </trkpt>
      <trkpt lat="45.22827" lon="5.66712">
        <ele>141.59</ele>
        <time>2017-03-26T16:26:47Z</time>
      </trkpt>
      <trkpt lat="45.22806" lon="5.66726">
        <ele>141.96</ele>
        <time>2017-03-26T16:26:48Z</time>
      </trkpt>
      <trkpt lat="45.22785" lon="5.66741">
        <ele>142.27</ele>
        <time>2017-03-26T16:26:49Z</time>
      </trkpt>
      <trkpt lat="45.22765" lon="5.66756">
        <ele>142.25</ele>
        <time>2017-03-26T16:26:50Z</time>
      </trkpt>
      <trkpt lat="45.22744" lon="5.66772">
        <ele>142.49</ele>
        <time>2017-03-26T16:26:51Z</time>
      </trkpt>
      <trkpt lat="45.22724" lon="5.66787">
        <ele>142.3</ele>
        <time>2017-03-26T16:26:52Z</time>
      </trkpt>
      <trkpt lat="45.22704" lon="5.66802">
        <ele>142.26</ele>
        <time>2017-03-26T16:26:53Z</time>
      </trkpt>
      <trkpt lat="45.22683" lon="5.66817">
        <ele>142.65</ele>
        <time>2017-03-26T16:26:54Z</time>
      </trkpt>
      <trkpt lat="45.22663" lon="5.66832">
        <ele>143.21</ele>
        <time>2017-03-26T16:26:55Z</time>
      </trkpt>
      <trkpt lat="45.22642" lon="5.66848">
        <ele>144.2</ele>
        <time>2017-03-26T16:26:56Z</time>
      </trkpt>
      <trkpt lat="45.22622" lon="5.66863">
        <ele>144.96</ele>
        <time>2017-03-26T16:26:57Z</time>
      </trkpt>
      <trkpt lat="45.22601" lon="5.66878">
        <ele>145.67</ele>
        <time>2017-03-26T16:26:58Z</time>
      </trkpt>
      <trkpt lat="45.22581" lon="5.66893">
        <ele>146.45</ele>
        <time>2017-03-26T16:26:59Z</time>
      </trkpt>
      <trkpt lat="45.22561" lon="5.66908">
        <ele>147.33</ele>
        <time>2017-03-26T16:27:00Z</time>
      </trkpt>
      <trkpt lat="45.22541" lon="5.66923">
        <ele>148.31</ele>
        <time>2017-03-26T16:27:01Z</time>
      </trkpt>
      <trkpt lat="45.22521" lon="5.66938">
        <ele>149.38</ele>
        <time>2017-03-26T16:27:02Z</time>
      </trkpt>
      <trkpt lat="45.22501" lon="5.66953">
        <ele>150.4</ele>
        <time>2017-03-26T16:27:03Z</time>
      </trkpt>
      <trkpt lat="45.22481" lon="5.66969">
        <ele>151</ele>
        <time>2017-03-26T16:27:04Z</time>
      </trkpt>
      <trkpt lat="45.22461" lon="5.66984">
        <ele>151.36</ele>
        <time>2017-03-26T16:27:05Z</time>
      </trkpt>
      <trkpt lat="45.22441" lon="5.67">
        <ele>151.99</ele>
        <time>2017-03-26T16:27:06Z</time>
      </trkpt>
      <trkpt lat="45.2242" lon="5.67015">
        <ele>152.52</ele>
        <time>2017-03-26T16:27:07Z</time>
      </trkpt>
      <trkpt lat="45.224" lon="5.67031">
        <ele>153.1</ele>
        <time>2017-03-26T16:27:08Z</time>
      </trkpt>
      <trkpt lat="45.2238" lon="5.67046">
        <ele>153.38</ele>
        <time>2017-03-26T16:27:09Z</time>
      </trkpt>
      <trkpt lat="45.22359" lon="5.67061">
        <ele>153.2</ele>
        <time>2017-03-26T16:27:10Z</time>
      </trkpt>
      <trkpt lat="45.22339" lon="5.67077">
        <ele>153.08</ele>
        <time>2017-03-26T16:27:11Z</time>
      </trkpt>
      <trkpt lat="45.22319" lon="5.67092">
        <ele>153.13</ele>
        <time>2017-03-26T16:27:12Z</time>
      </trkpt>
      <trkpt lat="45.22298" lon="5.67108">
        <ele>153.23</ele>
        <time>2017-03-26T16:27:13Z</time>
      </trkpt>
      <trkpt lat="45.22278" lon="5.67123">
        <ele>152.76</ele>
        <time>2017-03-26T16:27:14Z</time>
      </trkpt>
      <trkpt lat="45.22258" lon="5.67138">
        <ele>153.07</ele>
        <time>2017-03-26T16:27:15Z</time>
      </trkpt>
      <trkpt lat="45.22237" lon="5.67153">
        <ele>153.13</ele>
        <time>2017-03-26T16:27:16Z</time>
      </trkpt>
      <trkpt lat="45.22218" lon="5.67168">
        <ele>153.31</ele>
        <time>2017-03-26T16:27:17Z</time>
      </trkpt>
      <trkpt lat="45.22198" lon="5.67182">
        <ele>153.66</ele>
        <time>2017-03-26T16:27:18Z</time>
      </trkpt>
      <trkpt lat="45.22179" lon="5.67197">
        <ele>154.05</ele>
        <time>2017-03-26T16:27:19Z</time>
      </trkpt>
      <trkpt lat="45.22159" lon="5.67212">
        <ele>154.05</ele>
        <time>2017-03-26T16:27:20Z</time>
      </trkpt>
      <trkpt lat="45.22139" lon="5.67226">
        <ele>153.81</ele>
        <time>2017-03-26T16:27:21Z</time>
      </trkpt>
      <trkpt lat="45.22119" lon="5.67241">
        <ele>153.6</ele>
        <time>2017-03-26T16:27:22Z</time>
      </trkpt>
      <trkpt lat="45.22099" lon="5.67257">
        <ele>153.56</ele>
        <time>2017-03-26T16:27:23Z</time>
      </trkpt>
      <trkpt lat="45.22079" lon="5.67273">
        <ele>153.15</ele>
        <time>2017-03-26T16:27:24Z</time>
      </trkpt>
      <trkpt lat="45.22059" lon="5.67289">
        <ele>153.15</ele>
        <time>2017-03-26T16:27:25Z</time>
      </trkpt>
      <trkpt lat="45.22039" lon="5.67307">
        <ele>152.51</ele>
        <time>2017-03-26T16:27:26Z</time>
      </trkpt>
      <trkpt lat="45.22019" lon="5.67324">
        <ele>151.98</ele>
        <time>2017-03-26T16:27:27Z</time>
      </trkpt>
      <trkpt lat="45.21999" lon="5.67342">
        <ele>151.32</ele>
        <time>2017-03-26T16:27:28Z</time>
      </trkpt>
      <trkpt lat="45.21979" lon="5.6736">
        <ele>150.7</ele>
        <time>2017-03-26T16:27:29Z</time>
      </trkpt>
      <trkpt lat="45.2196" lon="5.67379">
        <ele>150.42</ele>
        <time>2017-03-26T16:27:30Z</time>
      </trkpt>
      <trkpt lat="45.21941" lon="5.67399">
        <ele>150.28</ele>
        <time>2017-03-26T16:27:31Z</time>
      </trkpt>
      <trkpt lat="45.21921" lon="5.67419">
        <ele>150.1</ele>
        <time>2017-03-26T16:27:32Z</time>
      </trkpt>
      <trkpt lat="45.21903" lon="5.6744">
        <ele>149.66</ele>
        <time>2017-03-26T16:27:33Z</time>
      </trkpt>
      <trkpt lat="45.21884" lon="5.67462">
        <ele>148.93</ele>
        <time>2017-03-26T16:27:34Z</time>
      </trkpt>
      <trkpt lat="45.21866" lon="5.67483">
        <ele>147.27</ele>
        <time>2017-03-26T16:27:35Z</time>
      </trkpt>
      <trkpt lat="45.21847" lon="5.67505">
        <ele>146.45</ele>
        <time>2017-03-26T16:27:36Z</time>
      </trkpt>
      <trkpt lat="45.2183" lon="5.67528">
        <ele>145.73</ele>
        <time>2017-03-26T16:27:37Z</time>
      </trkpt>
      <trkpt lat="45.21813" lon="5.67551">
        <ele>145.59</ele>
        <time>2017-03-26T16:27:38Z</time>
      </trkpt>
      <trkpt lat="45.21796" lon="5.67575">
        <ele>145.64</ele>
        <time>2017-03-26T16:27:39Z</time>
      </trkpt>
      <trkpt lat="45.21779" lon="5.67598">
        <ele>145.49</ele>
        <time>2017-03-26T16:27:40Z</time>
      </trkpt>
      <trkpt lat="45.21763" lon="5.67622">
        <ele>145.46</ele>
        <time>2017-03-26T16:27:41Z</time>
      </trkpt>
      <trkpt lat="45.21748" lon="5.67647">
        <ele>145.45</ele>
        <time>2017-03-26T16:27:42Z</time>
      </trkpt>
      <trkpt lat="45.21732" lon="5.67671">
        <ele>145.45</ele>
        <time>2017-03-26T16:27:43Z</time>
      </trkpt>
      <trkpt lat="45.21717" lon="5.67694">
        <ele>145.37</ele>
        <time>2017-03-26T16:27:44Z</time>
      </trkpt>
      <trkpt lat="45.21702" lon="5.67718">
        <ele>145.11</ele>
        <time>2017-03-26T16:27:45Z</time>
      </trkpt>
      <trkpt lat="45.21687" lon="5.67741">
        <ele>145.46</ele>
        <time>2017-03-26T16:27:46Z</time>
      </trkpt>
      <trkpt lat="45.21672" lon="5.67763">
        <ele>145.53</ele>
        <time>2017-03-26T16:27:47Z</time>
      </trkpt>
      <trkpt lat="45.21657" lon="5.67786">
        <ele>145.87</ele>
        <time>2017-03-26T16:27:48Z</time>
      </trkpt>
      <trkpt lat="45.21643" lon="5.67809">
        <ele>145.93</ele>
        <time>2017-03-26T16:27:49Z</time>
      </trkpt>
      <trkpt lat="45.21628" lon="5.67832">
        <ele>146.43</ele>
        <time>2017-03-26T16:27:50Z</time>
      </trkpt>
      <trkpt lat="45.21613" lon="5.67856">
        <ele>146.6</ele>
        <time>2017-03-26T16:27:51Z</time>
      </trkpt>
      <trkpt lat="45.21598" lon="5.67879">
        <ele>146.8</ele>
        <time>2017-03-26T16:27:52Z</time>
      </trkpt>
      <trkpt lat="45.21583" lon="5.67902">
        <ele>147.16</ele>
        <time>2017-03-26T16:27:53Z</time>
      </trkpt>
      <trkpt lat="45.21567" lon="5.67926">
        <ele>147.47</ele>
        <time>2017-03-26T16:27:54Z</time>
      </trkpt>
      <trkpt lat="45.21552" lon="5.6795">
        <ele>147.37</ele>
        <time>2017-03-26T16:27:55Z</time>
      </trkpt>
      <trkpt lat="45.21536" lon="5.67973">
        <ele>147.19</ele>
        <time>2017-03-26T16:27:56Z</time>
      </trkpt>
      <trkpt lat="45.21521" lon="5.67997">
        <ele>147.16</ele>
        <time>2017-03-26T16:27:57Z</time>
      </trkpt>
      <trkpt lat="45.21505" lon="5.6802">
        <ele>146.99</ele>
        <time>2017-03-26T16:27:58Z</time>
      </trkpt>
      <trkpt lat="45.2149" lon="5.68044">
        <ele>146.8</ele>
        <time>2017-03-26T16:27:59Z</time>
      </trkpt>
      <trkpt lat="45.21475" lon="5.68068">
        <ele>146.52</ele>
        <time>2017-03-26T16:28:00Z</time>
      </trkpt>
      <trkpt lat="45.2146" lon="5.68093">
        <ele>146.54</ele>
        <time>2017-03-26T16:28:01Z</time>
      </trkpt>
      <trkpt lat="45.21445" lon="5.68117">
        <ele>146.47</ele>
        <time>2017-03-26T16:28:02Z</time>
      </trkpt>
      <trkpt lat="45.21429" lon="5.68142">
        <ele>146.37</ele>
        <time>2017-03-26T16:28:03Z</time>
      </trkpt>
      <trkpt lat="45.21415" lon="5.68167">
        <ele>146.19</ele>
        <time>2017-03-26T16:28:04Z</time>
      </trkpt>
      <trkpt lat="45.214" lon="5.68193">
        <ele>146.08</ele>
        <time>2017-03-26T16:28:05Z</time>
      </trkpt>
      <trkpt lat="45.21386" lon="5.68219">
        <ele>146.05</ele>
        <time>2017-03-26T16:28:06Z</time>
      </trkpt>
      <trkpt lat="45.21371" lon="5.68246">
        <ele>146.05</ele>
        <time>2017-03-26T16:28:07Z</time>
      </trkpt>
      <trkpt lat="45.21357" lon="5.68273">
        <ele>145.97</ele>
        <time>2017-03-26T16:28:08Z</time>
      </trkpt>
      <trkpt lat="45.21344" lon="5.68301">
        <ele>145.79</ele>
        <time>2017-03-26T16:28:09Z</time>
      </trkpt>
      <trkpt lat="45.21331" lon="5.68329">
        <ele>145.6</ele>
        <time>2017-03-26T16:28:10Z</time>
      </trkpt>
      <trkpt lat="45.21318" lon="5.68357">
        <ele>145.16</ele>
        <time>2017-03-26T16:28:11Z</time>
      </trkpt>
      <trkpt lat="45.21305" lon="5.68386">
        <ele>144.59</ele>
        <time>2017-03-26T16:28:12Z</time>
      </trkpt>
      <trkpt lat="45.21293" lon="5.68413">
        <ele>144.32</ele>
        <time>2017-03-26T16:28:13Z</time>
      </trkpt>
      <trkpt lat="45.2128" lon="5.68441">
        <ele>144.18</ele>
        <time>2017-03-26T16:28:14Z</time>
      </trkpt>
      <trkpt lat="45.21268" lon="5.68469">
        <ele>143.76</ele>
        <time>2017-03-26T16:28:15Z</time>
      </trkpt>
      <trkpt lat="45.21256" lon="5.68498">
        <ele>143.35</ele>
        <time>2017-03-26T16:28:16Z</time>
      </trkpt>
      <trkpt lat="45.21245" lon="5.68528">
        <ele>143.19</ele>
        <time>2017-03-26T16:28:17Z</time>
      </trkpt>
      <trkpt lat="45.21235" lon="5.68559">
        <ele>143.08</ele>
        <time>2017-03-26T16:28:18Z</time>
      </trkpt>
      <trkpt lat="45.21226" lon="5.68591">
        <ele>142.81</ele>
        <time>2017-03-26T16:28:19Z</time>
      </trkpt>
      <trkpt lat="45.21218" lon="5.68624">
        <ele>142.52</ele>
        <time>2017-03-26T16:28:20Z</time>
      </trkpt>
      <trkpt lat="45.2121" lon="5.68657">
        <ele>142.38</ele>
        <time>2017-03-26T16:28:21Z</time>
      </trkpt>
      <trkpt lat="45.21203" lon="5.68689">
        <ele>141.96</ele>
        <time>2017-03-26T16:28:22Z</time>
      </trkpt>
      <trkpt lat="45.21195" lon="5.6872">
        <ele>141.87</ele>
        <time>2017-03-26T16:28:23Z</time>
      </trkpt>
      <trkpt lat="45.21186" lon="5.68752">
        <ele>141.69</ele>
        <time>2017-03-26T16:28:24Z</time>
      </trkpt>
      <trkpt lat="45.21178" lon="5.68784">
        <ele>141.58</ele>
        <time>2017-03-26T16:28:25Z</time>
      </trkpt>
      <trkpt lat="45.21171" lon="5.68816">
        <ele>141.63</ele>
        <time>2017-03-26T16:28:26Z</time>
      </trkpt>
      <trkpt lat="45.21164" lon="5.68848">
        <ele>141.17</ele>
        <time>2017-03-26T16:28:27Z</time>
      </trkpt>
      <trkpt lat="45.21158" lon="5.6888">
        <ele>140.99</ele>
        <time>2017-03-26T16:28:28Z</time>
      </trkpt>
      <trkpt lat="45.21152" lon="5.68913">
        <ele>141.28</ele>
        <time>2017-03-26T16:28:29Z</time>
      </trkpt>
      <trkpt lat="45.21146" lon="5.68945">
        <ele>141.09</ele>
        <time>2017-03-26T16:28:30Z</time>
      </trkpt>
      <trkpt lat="45.21141" lon="5.68978">
        <ele>140.74</ele>
        <time>2017-03-26T16:28:31Z</time>
      </trkpt>
      <trkpt lat="45.21136" lon="5.69011">
        <ele>141.07</ele>
        <time>2017-03-26T16:28:32Z</time>
      </trkpt>
      <trkpt lat="45.21131" lon="5.69044">
        <ele>141.13</ele>
        <time>2017-03-26T16:28:33Z</time>
      </trkpt>
      <trkpt lat="45.21125" lon="5.69077">
        <ele>140.75</ele>
        <time>2017-03-26T16:28:34Z</time>
      </trkpt>
      <trkpt lat="45.2112" lon="5.6911">
        <ele>140.43</ele>
        <time>2017-03-26T16:28:35Z</time>
      </trkpt>
      <trkpt lat="45.21116" lon="5.69143">
        <ele>139.96</ele>
        <time>2017-03-26T16:28:36Z</time>
      </trkpt>
      <trkpt lat="45.21111" lon="5.69176">
        <ele>139.63</ele>
        <time>2017-03-26T16:28:37Z</time>
      </trkpt>
      <trkpt lat="45.21106" lon="5.69208">
        <ele>139.65</ele>
        <time>2017-03-26T16:28:38Z</time>
      </trkpt>
      <trkpt lat="45.21102" lon="5.69241">
        <ele>139.49</ele>
        <time>2017-03-26T16:28:39Z</time>
      </trkpt>
      <trkpt lat="45.21098" lon="5.69274">
        <ele>139.38</ele>
        <time>2017-03-26T16:28:40Z</time>
      </trkpt>
      <trkpt lat="45.21094" lon="5.69306">
        <ele>139.83</ele>
        <time>2017-03-26T16:28:41Z</time>
      </trkpt>
      <trkpt lat="45.2109" lon="5.69339">
        <ele>140.09</ele>
        <time>2017-03-26T16:28:42Z</time>
      </trkpt>
      <trkpt lat="45.21085" lon="5.69372">
        <ele>140.06</ele>
        <time>2017-03-26T16:28:43Z</time>
      </trkpt>
      <trkpt lat="45.2108" lon="5.69404">
        <ele>140.21</ele>
        <time>2017-03-26T16:28:44Z</time>
      </trkpt>
      <trkpt lat="45.21075" lon="5.69436">
        <ele>139.84</ele>
        <time>2017-03-26T16:28:45Z</time>
      </trkpt>
      <trkpt lat="45.2107" lon="5.69468">
        <ele>139.77</ele>
        <time>2017-03-26T16:28:46Z</time>
      </trkpt>
      <trkpt lat="45.21064" lon="5.695">
        <ele>140.15</ele>
        <time>2017-03-26T16:28:47Z</time>
      </trkpt>
      <trkpt lat="45.21058" lon="5.69532">
        <ele>140.55</ele>
        <time>2017-03-26T16:28:48Z</time>
      </trkpt>
      <trkpt lat="45.21051" lon="5.69564">
        <ele>140.79</ele>
        <time>2017-03-26T16:28:49Z</time>
      </trkpt>
      <trkpt lat="45.21045" lon="5.69595">
        <ele>141.32</ele>
        <time>2017-03-26T16:28:50Z</time>
      </trkpt>
      <trkpt lat="45.21038" lon="5.69626">
        <ele>141.5</ele>
        <time>2017-03-26T16:28:51Z</time>
      </trkpt>
      <trkpt lat="45.2103" lon="5.69656">
        <ele>141.7</ele>
        <time>2017-03-26T16:28:52Z</time>
      </trkpt>
      <trkpt lat="45.21023" lon="5.69687">
        <ele>141.66</ele>
        <time>2017-03-26T16:28:53Z</time>
      </trkpt>
      <trkpt lat="45.21015" lon="5.69718">
        <ele>141.41</ele>
        <time>2017-03-26T16:28:54Z</time>
      </trkpt>
      <trkpt lat="45.21006" lon="5.69748">
        <ele>141.36</ele>
        <time>2017-03-26T16:28:55Z</time>
      </trkpt>
      <trkpt lat="45.20997" lon="5.69778">
        <ele>141.27</ele>
        <time>2017-03-26T16:28:56Z</time>
      </trkpt>
      <trkpt lat="45.20988" lon="5.69808">
        <ele>141.25</ele>
        <time>2017-03-26T16:28:57Z</time>
      </trkpt>
      <trkpt lat="45.20979" lon="5.69839">
        <ele>141.33</ele>
        <time>2017-03-26T16:28:58Z</time>
      </trkpt>
      <trkpt lat="45.2097" lon="5.69869">
        <ele>141.51</ele>
        <time>2017-03-26T16:28:59Z</time>
      </trkpt>
      <trkpt lat="45.20961" lon="5.69899">
        <ele>141.86</ele>
        <time>2017-03-26T16:29:00Z</time>
      </trkpt>
      <trkpt lat="45.20952" lon="5.69929">
        <ele>142.25</ele>
        <time>2017-03-26T16:29:01Z</time>
      </trkpt>
      <trkpt lat="45.20942" lon="5.69959">
        <ele>142.49</ele>
        <time>2017-03-26T16:29:02Z</time>
      </trkpt>
      <trkpt lat="45.20932" lon="5.69989">
        <ele>142.78</ele>
        <time>2017-03-26T16:29:03Z</time>
      </trkpt>
      <trkpt lat="45.20921" lon="5.70018">
        <ele>143.07</ele>
        <time>2017-03-26T16:29:04Z</time>
      </trkpt>
      <trkpt lat="45.20911" lon="5.70046">
        <ele>143.29</ele>
        <time>2017-03-26T16:29:05Z</time>
      </trkpt>
      <trkpt lat="45.209" lon="5.70075">
        <ele>143.58</ele>
        <time>2017-03-26T16:29:06Z</time>
      </trkpt>
      <trkpt lat="45.2089" lon="5.70103">
        <ele>143.87</ele>
        <time>2017-03-26T16:29:07Z</time>
      </trkpt>
      <trkpt lat="45.20879" lon="5.70131">
        <ele>144.09</ele>
        <time>2017-03-26T16:29:08Z</time>
      </trkpt>
      <trkpt lat="45.20869" lon="5.70159">
        <ele>144.3</ele>
        <time>2017-03-26T16:29:09Z</time>
      </trkpt>
      <trkpt lat="45.20858" lon="5.70187">
        <ele>144.5</ele>
        <time>2017-03-26T16:29:10Z</time>
      </trkpt>
      <trkpt lat="45.20847" lon="5.70214">
        <ele>144.78</ele>
        <time>2017-03-26T16:29:11Z</time>
      </trkpt>
      <trkpt lat="45.20836" lon="5.70243">
        <ele>145.07</ele>
        <time>2017-03-26T16:29:12Z</time>
      </trkpt>
      <trkpt lat="45.20825" lon="5.70271">
        <ele>145.21</ele>
        <time>2017-03-26T16:29:13Z</time>
      </trkpt>
      <trkpt lat="45.20814" lon="5.70298">
        <ele>145.48</ele>
        <time>2017-03-26T16:29:14Z</time>
      </trkpt>
      <trkpt lat="45.20803" lon="5.70326">
        <ele>145.94</ele>
        <time>2017-03-26T16:29:15Z</time>
      </trkpt>
      <trkpt lat="45.20792" lon="5.70354">
        <ele>146.51</ele>
        <time>2017-03-26T16:29:16Z</time>
      </trkpt>
      <trkpt lat="45.2078" lon="5.70382">
        <ele>146.94</ele>
        <time>2017-03-26T16:29:17Z</time>
      </trkpt>
      <trkpt lat="45.20769" lon="5.70411">
        <ele>147.19</ele>
        <time>2017-03-26T16:29:18Z</time>
      </trkpt>
      <trkpt lat="45.20758" lon="5.70439">
        <ele>147.8</ele>
        <time>2017-03-26T16:29:19Z</time>
      </trkpt>
      <trkpt lat="45.20746" lon="5.70467">
        <ele>148.16</ele>
        <time>2017-03-26T16:29:20Z</time>
      </trkpt>
      <trkpt lat="45.20735" lon="5.70495">
        <ele>148.55</ele>
        <time>2017-03-26T16:29:21Z</time>
      </trkpt>
      <trkpt lat="45.20723" lon="5.70523">
        <ele>148.87</ele>
        <time>2017-03-26T16:29:22Z</time>
      </trkpt>
      <trkpt lat="45.20711" lon="5.70551">
        <ele>148.93</ele>
        <time>2017-03-26T16:29:23Z</time>
      </trkpt>
      <trkpt lat="45.207" lon="5.7058">
        <ele>149.11</ele>
        <time>2017-03-26T16:29:24Z</time>
      </trkpt>
      <trkpt lat="45.20688" lon="5.70608">
        <ele>149.38</ele>
        <time>2017-03-26T16:29:25Z</time>
      </trkpt>
      <trkpt lat="45.20676" lon="5.70637">
        <ele>149.52</ele>
        <time>2017-03-26T16:29:26Z</time>
      </trkpt>
      <trkpt lat="45.20665" lon="5.70665">
        <ele>149.78</ele>
        <time>2017-03-26T16:29:27Z</time>
      </trkpt>
      <trkpt lat="45.20654" lon="5.70692">
        <ele>149.76</ele>
        <time>2017-03-26T16:29:28Z</time>
      </trkpt>
      <trkpt lat="45.20643" lon="5.70718">
        <ele>150.07</ele>
        <time>2017-03-26T16:29:29Z</time>
      </trkpt>
      <trkpt lat="45.20633" lon="5.70744">
        <ele>150.13</ele>
        <time>2017-03-26T16:29:30Z</time>
      </trkpt>
      <trkpt lat="45.20623" lon="5.70769">
        <ele>150.23</ele>
        <time>2017-03-26T16:29:31Z</time>
      </trkpt>
      <trkpt lat="45.20613" lon="5.70794">
        <ele>150.16</ele>
        <time>2017-03-26T16:29:32Z</time>
      </trkpt>
      <trkpt lat="45.20603" lon="5.70819">
        <ele>150.31</ele>
        <time>2017-03-26T16:29:33Z</time>
      </trkpt>
      <trkpt lat="45.20594" lon="5.70845">
        <ele>150.5</ele>
        <time>2017-03-26T16:29:34Z</time>
      </trkpt>
      <trkpt lat="45.20584" lon="5.70872">
        <ele>150.54</ele>
        <time>2017-03-26T16:29:35Z</time>
      </trkpt>
      <trkpt lat="45.20576" lon="5.70898">
        <ele>150.47</ele>
        <time>2017-03-26T16:29:36Z</time>
      </trkpt>
      <trkpt lat="45.20568" lon="5.70925">
        <ele>150.61</ele>
        <time>2017-03-26T16:29:37Z</time>
      </trkpt>
      <trkpt lat="45.2056" lon="5.70949">
        <ele>150.72</ele>
        <time>2017-03-26T16:29:38Z</time>
      </trkpt>
      <trkpt lat="45.20553" lon="5.70973">
        <ele>150.82</ele>
        <time>2017-03-26T16:29:39Z</time>
      </trkpt>
      <trkpt lat="45.20546" lon="5.70996">
        <ele>151</ele>
        <time>2017-03-26T16:29:40Z</time>
      </trkpt>
      <trkpt lat="45.20538" lon="5.71018">
        <ele>151.12</ele>
        <time>2017-03-26T16:29:41Z</time>
      </trkpt>
      <trkpt lat="45.20531" lon="5.7104">
        <ele>151.3</ele>
        <time>2017-03-26T16:29:42Z</time>
      </trkpt>
      <trkpt lat="45.20523" lon="5.71061">
        <ele>151.5</ele>
        <time>2017-03-26T16:29:43Z</time>
      </trkpt>
      <trkpt lat="45.20513" lon="5.71082">
        <ele>151.94</ele>
        <time>2017-03-26T16:29:44Z</time>
      </trkpt>
      <trkpt lat="45.20504" lon="5.71103">
        <ele>152.51</ele>
        <time>2017-03-26T16:29:45Z</time>
      </trkpt>
      <trkpt lat="45.20493" lon="5.71124">
        <ele>152.7</ele>
        <time>2017-03-26T16:29:46Z</time>
      </trkpt>
      <trkpt lat="45.20482" lon="5.71145">
        <ele>152.82</ele>
        <time>2017-03-26T16:29:47Z</time>
      </trkpt>
      <trkpt lat="45.20471" lon="5.71166">
        <ele>152.76</ele>
        <time>2017-03-26T16:29:48Z</time>
      </trkpt>
      <trkpt lat="45.20459" lon="5.71186">
        <ele>152.67</ele>
        <time>2017-03-26T16:29:49Z</time>
      </trkpt>
      <trkpt lat="45.20447" lon="5.71205">
        <ele>152.49</ele>
        <time>2017-03-26T16:29:50Z</time>
      </trkpt>
      <trkpt lat="45.20434" lon="5.71224">
        <ele>152.46</ele>
        <time>2017-03-26T16:29:51Z</time>
      </trkpt>
      <trkpt lat="45.2042" lon="5.71243">
        <ele>152.29</ele>
        <time>2017-03-26T16:29:52Z</time>
      </trkpt>
      <trkpt lat="45.20406" lon="5.71261">
        <ele>152.1</ele>
        <time>2017-03-26T16:29:53Z</time>
      </trkpt>
      <trkpt lat="45.20391" lon="5.71279">
        <ele>151.98</ele>
        <time>2017-03-26T16:29:54Z</time>
      </trkpt>
      <trkpt lat="45.20377" lon="5.71297">
        <ele>151.95</ele>
        <time>2017-03-26T16:29:55Z</time>
      </trkpt>
      <trkpt lat="45.20363" lon="5.71315">
        <ele>151.79</ele>
        <time>2017-03-26T16:29:56Z</time>
      </trkpt>
      <trkpt lat="45.20349" lon="5.71333">
        <ele>151.52</ele>
        <time>2017-03-26T16:29:57Z</time>
      </trkpt>
      <trkpt lat="45.20334" lon="5.71351">
        <ele>151.22</ele>
        <time>2017-03-26T16:29:58Z</time>
      </trkpt>
      <trkpt lat="45.2032" lon="5.71369">
        <ele>150.92</ele>
        <time>2017-03-26T16:29:59Z</time>
      </trkpt>
      <trkpt lat="45.20307" lon="5.71387">
        <ele>150.46</ele>
        <time>2017-03-26T16:30:00Z</time>
      </trkpt>
      <trkpt lat="45.20294" lon="5.71404">
        <ele>150.29</ele>
        <time>2017-03-26T16:30:01Z</time>
      </trkpt>
      <trkpt lat="45.20281" lon="5.7142">
        <ele>150.02</ele>
        <time>2017-03-26T16:30:02Z</time>
      </trkpt>
      <trkpt lat="45.20269" lon="5.71436">
        <ele>149.72</ele>
        <time>2017-03-26T16:30:03Z</time>
      </trkpt>
      <trkpt lat="45.20257" lon="5.71451">
        <ele>149.58</ele>
        <time>2017-03-26T16:30:04Z</time>
      </trkpt>
      <trkpt lat="45.20246" lon="5.71466">
        <ele>149.32</ele>
        <time>2017-03-26T16:30:05Z</time>
      </trkpt>
      <trkpt lat="45.20235" lon="5.7148">
        <ele>148.94</ele>
        <time>2017-03-26T16:30:06Z</time>
      </trkpt>
      <trkpt lat="45.20224" lon="5.71494">
        <ele>148.39</ele>
        <time>2017-03-26T16:30:07Z</time>
      </trkpt>
      <trkpt lat="45.20213" lon="5.71508">
        <ele>148.12</ele>
        <time>2017-03-26T16:30:08Z</time>
      </trkpt>
      <trkpt lat="45.20201" lon="5.7152">
        <ele>148.22</ele>
        <time>2017-03-26T16:30:09Z</time>
      </trkpt>
      <trkpt lat="45.2019" lon="5.71533">
        <ele>148.56</ele>
        <time>2017-03-26T16:30:10Z</time>
      </trkpt>
      <trkpt lat="45.20179" lon="5.71545">
        <ele>149.03</ele>
        <time>2017-03-26T16:30:11Z</time>
      </trkpt>
      <trkpt lat="45.20168" lon="5.71557">
        <ele>149.29</ele>
        <time>2017-03-26T16:30:12Z</time>
      </trkpt>
      <trkpt lat="45.20157" lon="5.71568">
        <ele>149.34</ele>
        <time>2017-03-26T16:30:13Z</time>
      </trkpt>
      <trkpt lat="45.20146" lon="5.71579">
        <ele>149.59</ele>
        <time>2017-03-26T16:30:14Z</time>
      </trkpt>
      <trkpt lat="45.20135" lon="5.71588">
        <ele>149.96</ele>
        <time>2017-03-26T16:30:15Z</time>
      </trkpt>
      <trkpt lat="45.20125" lon="5.71596">
        <ele>150.19</ele>
        <time>2017-03-26T16:30:16Z</time>
      </trkpt>
      <trkpt lat="45.20115" lon="5.71603">
        <ele>150.48</ele>
        <time>2017-03-26T16:30:17Z</time>
      </trkpt>
      <trkpt lat="45.20105" lon="5.7161">
        <ele>150.85</ele>
        <time>2017-03-26T16:30:18Z</time>
      </trkpt>
      <trkpt lat="45.20095" lon="5.71615">
        <ele>152.13</ele>
        <time>2017-03-26T16:30:19Z</time>
      </trkpt>
      <trkpt lat="45.20084" lon="5.7162">
        <ele>152.79</ele>
        <time>2017-03-26T16:30:20Z</time>
      </trkpt>
      <trkpt lat="45.20074" lon="5.71623">
        <ele>153.32</ele>
        <time>2017-03-26T16:30:21Z</time>
      </trkpt>
      <trkpt lat="45.20063" lon="5.71627">
        <ele>153.82</ele>
        <time>2017-03-26T16:30:22Z</time>
      </trkpt>
      <trkpt lat="45.20051" lon="5.71631">
        <ele>154.24</ele>
        <time>2017-03-26T16:30:23Z</time>
      </trkpt>
      <trkpt lat="45.2004" lon="5.71636">
        <ele>154.57</ele>
        <time>2017-03-26T16:30:24Z</time>
      </trkpt>
      <trkpt lat="45.20028" lon="5.7164">
        <ele>154.95</ele>
        <time>2017-03-26T16:30:25Z</time>
      </trkpt>
      <trkpt lat="45.20016" lon="5.71643">
        <ele>155.27</ele>
        <time>2017-03-26T16:30:26Z</time>
      </trkpt>
      <trkpt lat="45.20004" lon="5.71645">
        <ele>155.65</ele>
        <time>2017-03-26T16:30:27Z</time>
      </trkpt>
      <trkpt lat="45.19991" lon="5.71647">
        <ele>155.97</ele>
        <time>2017-03-26T16:30:28Z</time>
      </trkpt>
      <trkpt lat="45.19978" lon="5.71648">
        <ele>156.35</ele>
        <time>2017-03-26T16:30:29Z</time>
      </trkpt>
      <trkpt lat="45.19966" lon="5.71649">
        <ele>156.59</ele>
        <time>2017-03-26T16:30:30Z</time>
      </trkpt>
      <trkpt lat="45.19954" lon="5.71649">
        <ele>156.72</ele>
        <time>2017-03-26T16:30:31Z</time>
      </trkpt>
      <trkpt lat="45.19941" lon="5.71648">
        <ele>157.06</ele>
        <time>2017-03-26T16:30:32Z</time>
      </trkpt>
      <trkpt lat="45.19928" lon="5.71646">
        <ele>157.37</ele>
        <time>2017-03-26T16:30:33Z</time>
      </trkpt>
      <trkpt lat="45.19916" lon="5.71644">
        <ele>157.59</ele>
        <time>2017-03-26T16:30:34Z</time>
      </trkpt>
      <trkpt lat="45.19904" lon="5.71642">
        <ele>157.72</ele>
        <time>2017-03-26T16:30:35Z</time>
      </trkpt>
      <trkpt lat="45.19891" lon="5.7164">
        <ele>157.98</ele>
        <time>2017-03-26T16:30:36Z</time>
      </trkpt>
      <trkpt lat="45.19879" lon="5.71637">
        <ele>158.36</ele>
        <time>2017-03-26T16:30:37Z</time>
      </trkpt>
      <trkpt lat="45.19866" lon="5.71633">
        <ele>158.59</ele>
        <time>2017-03-26T16:30:38Z</time>
      </trkpt>
      <trkpt lat="45.19853" lon="5.71629">
        <ele>158.64</ele>
        <time>2017-03-26T16:30:39Z</time>
      </trkpt>
      <trkpt lat="45.19841" lon="5.71624">
        <ele>158.49</ele>
        <time>2017-03-26T16:30:40Z</time>
      </trkpt>
      <trkpt lat="45.19828" lon="5.7162">
        <ele>158.38</ele>
        <time>2017-03-26T16:30:41Z</time>
      </trkpt>
      <trkpt lat="45.19817" lon="5.71616">
        <ele>158.27</ele>
        <time>2017-03-26T16:30:42Z</time>
      </trkpt>
      <trkpt lat="45.19805" lon="5.71612">
        <ele>158.25</ele>
        <time>2017-03-26T16:30:43Z</time>
      </trkpt>
      <trkpt lat="45.19793" lon="5.71608">
        <ele>158.09</ele>
        <time>2017-03-26T16:30:44Z</time>
      </trkpt>
      <trkpt lat="45.19781" lon="5.71604">
        <ele>158.06</ele>
        <time>2017-03-26T16:30:45Z</time>
      </trkpt>
      <trkpt lat="45.1977" lon="5.716">
        <ele>157.97</ele>
        <time>2017-03-26T16:30:46Z</time>
      </trkpt>
      <trkpt lat="45.19759" lon="5.71596">
        <ele>157.71</ele>
        <time>2017-03-26T16:30:47Z</time>
      </trkpt>
      <trkpt lat="45.19747" lon="5.71593">
        <ele>157.58</ele>
        <time>2017-03-26T16:30:48Z</time>
      </trkpt>
      <trkpt lat="45.19736" lon="5.7159">
        <ele>157.56</ele>
        <time>2017-03-26T16:30:49Z</time>
      </trkpt>
      <trkpt lat="45.19724" lon="5.71587">
        <ele>157.55</ele>
        <time>2017-03-26T16:30:50Z</time>
      </trkpt>
      <trkpt lat="45.19712" lon="5.71585">
        <ele>157.55</ele>
        <time>2017-03-26T16:30:51Z</time>
      </trkpt>
      <trkpt lat="45.19701" lon="5.71584">
        <ele>157.63</ele>
        <time>2017-03-26T16:30:52Z</time>
      </trkpt>
      <trkpt lat="45.19689" lon="5.71583">
        <ele>157.73</ele>
        <time>2017-03-26T16:30:53Z</time>
      </trkpt>
      <trkpt lat="45.19678" lon="5.71582">
        <ele>157.5</ele>
        <time>2017-03-26T16:30:54Z</time>
      </trkpt>
      <trkpt lat="45.19666" lon="5.71582">
        <ele>157.3</ele>
        <time>2017-03-26T16:30:55Z</time>
      </trkpt>
      <trkpt lat="45.19654" lon="5.71582">
        <ele>157.02</ele>
        <time>2017-03-26T16:30:56Z</time>
      </trkpt>
      <trkpt lat="45.19642" lon="5.71582">
        <ele>156.56</ele>
        <time>2017-03-26T16:30:57Z</time>
      </trkpt>
      <trkpt lat="45.1963" lon="5.71583">
        <ele>156.07</ele>
        <time>2017-03-26T16:30:58Z</time>
      </trkpt>
      <trkpt lat="45.19618" lon="5.71585">
        <ele>155.65</ele>
        <time>2017-03-26T16:30:59Z</time>
      </trkpt>
      <trkpt lat="45.19607" lon="5.71587">
        <ele>155.33</ele>
        <time>2017-03-26T16:31:00Z</time>
      </trkpt>
      <trkpt lat="45.19596" lon="5.7159">
        <ele>155.11</ele>
        <time>2017-03-26T16:31:01Z</time>
      </trkpt>
      <trkpt lat="45.19585" lon="5.71593">
        <ele>154.74</ele>
        <time>2017-03-26T16:31:02Z</time>
      </trkpt>
      <trkpt lat="45.19574" lon="5.71597">
        <ele>154.59</ele>
        <time>2017-03-26T16:31:03Z</time>
      </trkpt>
      <trkpt lat="45.19563" lon="5.71602">
        <ele>154.4</ele>
        <time>2017-03-26T16:31:04Z</time>
      </trkpt>
      <trkpt lat="45.19552" lon="5.71606">
        <ele>154.36</ele>
        <time>2017-03-26T16:31:05Z</time>
      </trkpt>
      <trkpt lat="45.19542" lon="5.71611">
        <ele>154.19</ele>
        <time>2017-03-26T16:31:06Z</time>
      </trkpt>
      <trkpt lat="45.19532" lon="5.71616">
        <ele>154.16</ele>
        <time>2017-03-26T16:31:07Z</time>
      </trkpt>
      <trkpt lat="45.19523" lon="5.71622">
        <ele>154.07</ele>
        <time>2017-03-26T16:31:08Z</time>
      </trkpt>
      <trkpt lat="45.19513" lon="5.71628">
        <ele>153.97</ele>
        <time>2017-03-26T16:31:09Z</time>
      </trkpt>
      <trkpt lat="45.19504" lon="5.71634">
        <ele>153.87</ele>
        <time>2017-03-26T16:31:10Z</time>
      </trkpt>
      <trkpt lat="45.19495" lon="5.71641">
        <ele>153.69</ele>
        <time>2017-03-26T16:31:11Z</time>
      </trkpt>
      <trkpt lat="45.19487" lon="5.71647">
        <ele>153.58</ele>
        <time>2017-03-26T16:31:12Z</time>
      </trkpt>
      <trkpt lat="45.19479" lon="5.71654">
        <ele>153.47</ele>
        <time>2017-03-26T16:31:13Z</time>
      </trkpt>
      <trkpt lat="45.19472" lon="5.71661">
        <ele>153.45</ele>
        <time>2017-03-26T16:31:14Z</time>
      </trkpt>
      <trkpt lat="45.19465" lon="5.71668">
        <ele>153.85</ele>
        <time>2017-03-26T16:31:15Z</time>
      </trkpt>
      <trkpt lat="45.19458" lon="5.71674">
        <ele>153.93</ele>
        <time>2017-03-26T16:31:16Z</time>
      </trkpt>
      <trkpt lat="45.19452" lon="5.7168">
        <ele>154.03</ele>
        <time>2017-03-26T16:31:17Z</time>
      </trkpt>
      <trkpt lat="45.19447" lon="5.71686">
        <ele>154.12</ele>
        <time>2017-03-26T16:31:18Z</time>
      </trkpt>
      <trkpt lat="45.19442" lon="5.71692">
        <ele>154.06</ele>
        <time>2017-03-26T16:31:19Z</time>
      </trkpt>
      <trkpt lat="45.19437" lon="5.71698">
        <ele>154.05</ele>
        <time>2017-03-26T16:31:20Z</time>
      </trkpt>
      <trkpt lat="45.19432" lon="5.71703">
        <ele>153.89</ele>
        <time>2017-03-26T16:31:21Z</time>
      </trkpt>
      <trkpt lat="45.19427" lon="5.71709">
        <ele>153.86</ele>
        <time>2017-03-26T16:31:22Z</time>
      </trkpt>
      <trkpt lat="45.19422" lon="5.71714">
        <ele>153.93</ele>
        <time>2017-03-26T16:31:23Z</time>
      </trkpt>
      <trkpt lat="45.19418" lon="5.71719">
        <ele>154.11</ele>
        <time>2017-03-26T16:31:24Z</time>
      </trkpt>
      <trkpt lat="45.19414" lon="5.71725">
        <ele>154.14</ele>
        <time>2017-03-26T16:31:25Z</time>
      </trkpt>
      <trkpt lat="45.19411" lon="5.71731">
        <ele>153.91</ele>
        <time>2017-03-26T16:31:26Z</time>
      </trkpt>
      <trkpt lat="45.19409" lon="5.71737">
        <ele>153.62</ele>
        <time>2017-03-26T16:31:27Z</time>
      </trkpt>
      <trkpt lat="45.19407" lon="5.71743">
        <ele>153.16</ele>
        <time>2017-03-26T16:31:28Z</time>
      </trkpt>
      <trkpt lat="45.19405" lon="5.71749">
        <ele>152.91</ele>
        <time>2017-03-26T16:31:29Z</time>
      </trkpt>
      <trkpt lat="45.19402" lon="5.71756">
        <ele>152.62</ele>
        <time>2017-03-26T16:31:30Z</time>
      </trkpt>
      <trkpt lat="45.19399" lon="5.71764">
        <ele>152.24</ele>
        <time>2017-03-26T16:31:31Z</time>
      </trkpt>
      <trkpt lat="45.19396" lon="5.71772">
        <ele>151.93</ele>
        <time>2017-03-26T16:31:32Z</time>
      </trkpt>
      <trkpt lat="45.19392" lon="5.7178">
        <ele>151.7</ele>
        <time>2017-03-26T16:31:33Z</time>
      </trkpt>
      <trkpt lat="45.19389" lon="5.71787">
        <ele>151.18</ele>
        <time>2017-03-26T16:31:34Z</time>
      </trkpt>
      <trkpt lat="45.19386" lon="5.71794">
        <ele>150.68</ele>
        <time>2017-03-26T16:31:35Z</time>
      </trkpt>
      <trkpt lat="45.19385" lon="5.71801">
        <ele>150.25</ele>
        <time>2017-03-26T16:31:36Z</time>
      </trkpt>
      <trkpt lat="45.19383" lon="5.71808">
        <ele>149.85</ele>
        <time>2017-03-26T16:31:37Z</time>
      </trkpt>
      <trkpt lat="45.19382" lon="5.71814">
        <ele>149.61</ele>
        <time>2017-03-26T16:31:38Z</time>
      </trkpt>
      <trkpt lat="45.19381" lon="5.7182">
        <ele>149.56</ele>
        <time>2017-03-26T16:31:39Z</time>
      </trkpt>
      <trkpt lat="45.19379" lon="5.7183">
        <ele>149.55</ele>
        <time>2017-03-26T16:31:40Z</time>
      </trkpt>
      <trkpt lat="45.19377" lon="5.7184">
        <ele>149.79</ele>
        <time>2017-03-26T16:31:41Z</time>
      </trkpt>
      <trkpt lat="45.19375" lon="5.71849">
        <ele>149.92</ele>
        <time>2017-03-26T16:31:42Z</time>
      </trkpt>
      <trkpt lat="45.19373" lon="5.71858">
        <ele>150.1</ele>
        <time>2017-03-26T16:31:43Z</time>
      </trkpt>
      <trkpt lat="45.19371" lon="5.71867">
        <ele>150.3</ele>
        <time>2017-03-26T16:31:44Z</time>
      </trkpt>
      <trkpt lat="45.19369" lon="5.71875">
        <ele>150.5</ele>
        <time>2017-03-26T16:31:45Z</time>
      </trkpt>
      <trkpt lat="45.19368" lon="5.71883">
        <ele>150.7</ele>
        <time>2017-03-26T16:31:46Z</time>
      </trkpt>
      <trkpt lat="45.19369" lon="5.71892">
        <ele>150.74</ele>
        <time>2017-03-26T16:31:47Z</time>
      </trkpt>
      <trkpt lat="45.19371" lon="5.719">
        <ele>150.75</ele>
        <time>2017-03-26T16:31:48Z</time>
      </trkpt>
      <trkpt lat="45.19375" lon="5.71906">
        <ele>150.75</ele>
        <time>2017-03-26T16:31:49Z</time>
      </trkpt>
      <trkpt lat="45.19378" lon="5.71911">
        <ele>150.51</ele>
        <time>2017-03-26T16:31:50Z</time>
      </trkpt>
      <trkpt lat="45.19382" lon="5.71914">
        <ele>150.14</ele>
        <time>2017-03-26T16:31:51Z</time>
      </trkpt>
      <trkpt lat="45.19385" lon="5.71916">
        <ele>149.99</ele>
        <time>2017-03-26T16:31:52Z</time>
      </trkpt>
      <trkpt lat="45.19389" lon="5.71918">
        <ele>149.88</ele>
        <time>2017-03-26T16:31:53Z</time>
      </trkpt>
      <trkpt lat="45.19396" lon="5.71919">
        <ele>149.77</ele>
        <time>2017-03-26T16:31:54Z</time>
      </trkpt>
      <trkpt lat="45.19403" lon="5.7192">
        <ele>149.59</ele>
        <time>2017-03-26T16:31:55Z</time>
      </trkpt>
      <trkpt lat="45.19411" lon="5.7192">
        <ele>149.56</ele>
        <time>2017-03-26T16:31:56Z</time>
      </trkpt>
      <trkpt lat="45.19421" lon="5.7192">
        <ele>149.47</ele>
        <time>2017-03-26T16:31:57Z</time>
      </trkpt>
      <trkpt lat="45.19431" lon="5.7192">
        <ele>149.37</ele>
        <time>2017-03-26T16:31:58Z</time>
      </trkpt>
      <trkpt lat="45.19441" lon="5.7192">
        <ele>149.27</ele>
        <time>2017-03-26T16:31:59Z</time>
      </trkpt>
      <trkpt lat="45.19452" lon="5.7192">
        <ele>149.09</ele>
        <time>2017-03-26T16:32:00Z</time>
      </trkpt>
      <trkpt lat="45.19464" lon="5.71919">
        <ele>149.06</ele>
        <time>2017-03-26T16:32:01Z</time>
      </trkpt>
      <trkpt lat="45.19476" lon="5.71919">
        <ele>148.89</ele>
        <time>2017-03-26T16:32:02Z</time>
      </trkpt>
      <trkpt lat="45.19488" lon="5.71919">
        <ele>148.78</ele>
        <time>2017-03-26T16:32:03Z</time>
      </trkpt>
      <trkpt lat="45.19501" lon="5.71918">
        <ele>148.67</ele>
        <time>2017-03-26T16:32:04Z</time>
      </trkpt>
      <trkpt lat="45.19514" lon="5.71917">
        <ele>148.65</ele>
        <time>2017-03-26T16:32:05Z</time>
      </trkpt>
      <trkpt lat="45.19528" lon="5.71916">
        <ele>148.41</ele>
        <time>2017-03-26T16:32:06Z</time>
      </trkpt>
      <trkpt lat="45.19542" lon="5.71914">
        <ele>148.28</ele>
        <time>2017-03-26T16:32:07Z</time>
      </trkpt>
      <trkpt lat="45.19556" lon="5.71913">
        <ele>148.18</ele>
        <time>2017-03-26T16:32:08Z</time>
      </trkpt>
      <trkpt lat="45.19569" lon="5.7191">
        <ele>148.15</ele>
        <time>2017-03-26T16:32:09Z</time>
      </trkpt>
      <trkpt lat="45.19583" lon="5.71908">
        <ele>148.07</ele>
        <time>2017-03-26T16:32:10Z</time>
      </trkpt>
      <trkpt lat="45.19596" lon="5.71905">
        <ele>147.89</ele>
        <time>2017-03-26T16:32:11Z</time>
      </trkpt>
      <trkpt lat="45.19609" lon="5.71901">
        <ele>147.78</ele>
        <time>2017-03-26T16:32:12Z</time>
      </trkpt>
      <trkpt lat="45.19622" lon="5.71898">
        <ele>147.75</ele>
        <time>2017-03-26T16:32:13Z</time>
      </trkpt>
      <trkpt lat="45.19634" lon="5.71894">
        <ele>147.75</ele>
        <time>2017-03-26T16:32:14Z</time>
      </trkpt>
      <trkpt lat="45.19645" lon="5.7189">
        <ele>147.83</ele>
        <time>2017-03-26T16:32:15Z</time>
      </trkpt>
      <trkpt lat="45.19656" lon="5.71886">
        <ele>147.77</ele>
        <time>2017-03-26T16:32:16Z</time>
      </trkpt>
      <trkpt lat="45.19668" lon="5.71883">
        <ele>147.75</ele>
        <time>2017-03-26T16:32:17Z</time>
      </trkpt>
      <trkpt lat="45.1968" lon="5.71879">
        <ele>147.59</ele>
        <time>2017-03-26T16:32:18Z</time>
      </trkpt>
      <trkpt lat="45.19691" lon="5.71876">
        <ele>147.72</ele>
        <time>2017-03-26T16:32:19Z</time>
      </trkpt>
      <trkpt lat="45.19703" lon="5.71872">
        <ele>147.58</ele>
        <time>2017-03-26T16:32:20Z</time>
      </trkpt>
      <trkpt lat="45.19714" lon="5.71867">
        <ele>147.4</ele>
        <time>2017-03-26T16:32:21Z</time>
      </trkpt>
      <trkpt lat="45.19726" lon="5.71864">
        <ele>147.2</ele>
        <time>2017-03-26T16:32:22Z</time>
      </trkpt>
      <trkpt lat="45.19738" lon="5.7186">
        <ele>147</ele>
        <time>2017-03-26T16:32:23Z</time>
      </trkpt>
      <trkpt lat="45.19749" lon="5.71857">
        <ele>146.8</ele>
        <time>2017-03-26T16:32:24Z</time>
      </trkpt>
      <trkpt lat="45.19761" lon="5.71853">
        <ele>146.84</ele>
        <time>2017-03-26T16:32:25Z</time>
      </trkpt>
      <trkpt lat="45.19773" lon="5.71848">
        <ele>146.77</ele>
        <time>2017-03-26T16:32:26Z</time>
      </trkpt>
      <trkpt lat="45.19785" lon="5.71844">
        <ele>146.67</ele>
        <time>2017-03-26T16:32:27Z</time>
      </trkpt>
      <trkpt lat="45.19797" lon="5.71839">
        <ele>146.57</ele>
        <time>2017-03-26T16:32:28Z</time>
      </trkpt>
      <trkpt lat="45.19809" lon="5.71835">
        <ele>146.47</ele>
        <time>2017-03-26T16:32:29Z</time>
      </trkpt>
      <trkpt lat="45.19822" lon="5.7183">
        <ele>146.21</ele>
        <time>2017-03-26T16:32:30Z</time>
      </trkpt>
      <trkpt lat="45.19836" lon="5.71826">
        <ele>145.92</ele>
        <time>2017-03-26T16:32:31Z</time>
      </trkpt>
      <trkpt lat="45.1985" lon="5.71822">
        <ele>145.7</ele>
        <time>2017-03-26T16:32:32Z</time>
      </trkpt>
      <trkpt lat="45.19863" lon="5.71818">
        <ele>145.42</ele>
        <time>2017-03-26T16:32:33Z</time>
      </trkpt>
      <trkpt lat="45.19877" lon="5.71813">
        <ele>145.04</ele>
        <time>2017-03-26T16:32:34Z</time>
      </trkpt>
      <trkpt lat="45.19891" lon="5.71809">
        <ele>144.89</ele>
        <time>2017-03-26T16:32:35Z</time>
      </trkpt>
      <trkpt lat="45.19906" lon="5.71804">
        <ele>145.1</ele>
        <time>2017-03-26T16:32:36Z</time>
      </trkpt>
      <trkpt lat="45.1992" lon="5.718">
        <ele>145.06</ele>
        <time>2017-03-26T16:32:37Z</time>
      </trkpt>
      <trkpt lat="45.19933" lon="5.71795">
        <ele>145.05</ele>
        <time>2017-03-26T16:32:38Z</time>
      </trkpt>
      <trkpt lat="45.19947" lon="5.71791">
        <ele>145.05</ele>
        <time>2017-03-26T16:32:39Z</time>
      </trkpt>
      <trkpt lat="45.19961" lon="5.71787">
        <ele>144.97</ele>
        <time>2017-03-26T16:32:40Z</time>
      </trkpt>
      <trkpt lat="45.19976" lon="5.71783">
        <ele>144.95</ele>
        <time>2017-03-26T16:32:41Z</time>
      </trkpt>
      <trkpt lat="45.19992" lon="5.71778">
        <ele>144.79</ele>
        <time>2017-03-26T16:32:42Z</time>
      </trkpt>
      <trkpt lat="45.20011" lon="5.71775">
        <ele>144.84</ele>
        <time>2017-03-26T16:32:43Z</time>
      </trkpt>
      <trkpt lat="45.20029" lon="5.71772">
        <ele>144.77</ele>
        <time>2017-03-26T16:32:44Z</time>
      </trkpt>
      <trkpt lat="45.2005" lon="5.71771">
        <ele>144.43</ele>
        <time>2017-03-26T16:32:45Z</time>
      </trkpt>
      <trkpt lat="45.20067" lon="5.71766">
        <ele>144.29</ele>
        <time>2017-03-26T16:32:46Z</time>
      </trkpt>
      <trkpt lat="45.20082" lon="5.7176">
        <ele>144.26</ele>
        <time>2017-03-26T16:32:47Z</time>
      </trkpt>
      <trkpt lat="45.20095" lon="5.71753">
        <ele>144.17</ele>
        <time>2017-03-26T16:32:48Z</time>
      </trkpt>
      <trkpt lat="45.20105" lon="5.71746">
        <ele>144.15</ele>
        <time>2017-03-26T16:32:49Z</time>
      </trkpt>
      <trkpt lat="45.20114" lon="5.7174">
        <ele>144.15</ele>
        <time>2017-03-26T16:32:50Z</time>
      </trkpt>
      <trkpt lat="45.20119" lon="5.71735">
        <ele>144.55</ele>
        <time>2017-03-26T16:32:51Z</time>
      </trkpt>
      <trkpt lat="45.20124" lon="5.71732">
        <ele>145.43</ele>
        <time>2017-03-26T16:32:52Z</time>
      </trkpt>
      <trkpt lat="45.20127" lon="5.71734">
        <ele>145.61</ele>
        <time>2017-03-26T16:32:53Z</time>
      </trkpt>
      <trkpt lat="45.20125" lon="5.71737">
        <ele>145.88</ele>
        <time>2017-03-26T16:32:54Z</time>
      </trkpt>
      <trkpt lat="45.20124" lon="5.7174">
        <ele>146.02</ele>
        <time>2017-03-26T16:32:55Z</time>
      </trkpt>
      <trkpt lat="45.2012" lon="5.71743">
        <ele>146.28</ele>
        <time>2017-03-26T16:32:56Z</time>
      </trkpt>
      <trkpt lat="45.20116" lon="5.71748">
        <ele>146.34</ele>
        <time>2017-03-26T16:32:57Z</time>
      </trkpt>
      <trkpt lat="45.20111" lon="5.71752">
        <ele>146.59</ele>
        <time>2017-03-26T16:32:58Z</time>
      </trkpt>
      <trkpt lat="45.20106" lon="5.71759">
        <ele>147.28</ele>
        <time>2017-03-26T16:32:59Z</time>
      </trkpt>
      <trkpt lat="45.201" lon="5.71766">
        <ele>147.89</ele>
        <time>2017-03-26T16:33:00Z</time>
      </trkpt>
      <trkpt lat="45.20095" lon="5.71771">
        <ele>148.1</ele>
        <time>2017-03-26T16:33:01Z</time>
      </trkpt>
      <trkpt lat="45.20089" lon="5.71777">
        <ele>148.62</ele>
        <time>2017-03-26T16:33:02Z</time>
      </trkpt>
      <trkpt lat="45.20085" lon="5.71784">
        <ele>149.2</ele>
        <time>2017-03-26T16:33:03Z</time>
      </trkpt>
      <trkpt lat="45.20082" lon="5.71791">
        <ele>149.64</ele>
        <time>2017-03-26T16:33:04Z</time>
      </trkpt>
      <trkpt lat="45.20082" lon="5.71797">
        <ele>149.97</ele>
        <time>2017-03-26T16:33:05Z</time>
      </trkpt>
      <trkpt lat="45.20084" lon="5.71803">
        <ele>150.19</ele>
        <time>2017-03-26T16:33:06Z</time>
      </trkpt>
      <trkpt lat="45.20087" lon="5.71808">
        <ele>150.4</ele>
        <time>2017-03-26T16:33:07Z</time>
      </trkpt>
      <trkpt lat="45.20092" lon="5.71809">
        <ele>150.6</ele>
        <time>2017-03-26T16:33:08Z</time>
      </trkpt>
      <trkpt lat="45.20096" lon="5.71811">
        <ele>150.72</ele>
        <time>2017-03-26T16:33:09Z</time>
      </trkpt>
      <trkpt lat="45.20101" lon="5.7181">
        <ele>150.9</ele>
        <time>2017-03-26T16:33:10Z</time>
      </trkpt>
      <trkpt lat="45.20106" lon="5.71808">
        <ele>150.94</ele>
        <time>2017-03-26T16:33:11Z</time>
      </trkpt>
      <trkpt lat="45.20111" lon="5.71806">
        <ele>151.03</ele>
        <time>2017-03-26T16:33:12Z</time>
      </trkpt>
      <trkpt lat="45.20115" lon="5.71806">
        <ele>151.2</ele>
        <time>2017-03-26T16:33:13Z</time>
      </trkpt>
      <trkpt lat="45.20117" lon="5.71805">
        <ele>151.24</ele>
        <time>2017-03-26T16:33:14Z</time>
      </trkpt>
      <trkpt lat="45.20119" lon="5.71803">
        <ele>151.17</ele>
        <time>2017-03-26T16:33:15Z</time>
      </trkpt>
      <trkpt lat="45.2012" lon="5.71802">
        <ele>151.07</ele>
        <time>2017-03-26T16:33:16Z</time>
      </trkpt>
      <trkpt lat="45.2012" lon="5.71801">
        <ele>150.97</ele>
        <time>2017-03-26T16:33:17Z</time>
      </trkpt>
      <trkpt lat="45.2012" lon="5.718">
        <ele>150.95</ele>
        <time>2017-03-26T16:33:18Z</time>
      </trkpt>
      <trkpt lat="45.2012" lon="5.71799">
        <ele>150.95</ele>
        <time>2017-03-26T16:33:19Z</time>
      </trkpt>
      <trkpt lat="45.2012" lon="5.71799">
        <ele>150.95</ele>
        <time>2017-03-26T16:33:20Z</time>
      </trkpt>
      <trkpt lat="45.2012" lon="5.71799">
        <ele>150.95</ele>
        <time>2017-03-26T16:33:21Z</time>
      </trkpt>
      <trkpt lat="45.2012" lon="5.71799">
        <ele>150.95</ele>
        <time>2017-03-26T16:33:22Z</time>
      </trkpt>
      <trkpt lat="45.2012" lon="5.71799">
        <ele>150.95</ele>
        <time>2017-03-26T16:33:23Z</time>
      </trkpt>
      <trkpt lat="45.2012" lon="5.71799">
        <ele>150.95</ele>
        <time>2017-03-26T16:33:24Z</time>
      </trkpt>
      <trkpt lat="45.2012" lon="5.71799">
        <ele>150.95</ele>
        <time>2017-03-26T16:33:25Z</time>
      </trkpt>
      <trkpt lat="45.2012" lon="5.71799">
        <ele>150.95</ele>
        <time>2017-03-26T16:33:26Z</time>
      </trkpt>
      <trkpt lat="45.2012" lon="5.71799">
        <ele>150.95</ele>
        <time>2017-03-26T16:33:27Z</time>
      </trkpt>
      <trkpt lat="45.2012" lon="5.71799">
        <ele>150.95</ele>
        <time>2017-03-26T16:33:28Z</time>
      </trkpt>
      <trkpt lat="45.2012" lon="5.71799">
        <ele>150.95</ele>
        <time>2017-03-26T16:33:29Z</time>
      </trkpt>
      <trkpt lat="45.2012" lon="5.71799">
        <ele>150.95</ele>
        <time>2017-03-26T16:33:30Z</time>
      </trkpt>
      <trkpt lat="45.2012" lon="5.71799">
        <ele>150.95</ele>
        <time>2017-03-26T16:33:31Z</time>
      </trkpt>
      <trkpt lat="45.2012" lon="5.71799">
        <ele>150.95</ele>
        <time>2017-03-26T16:33:32Z</time>
      </trkpt>
      <trkpt lat="45.2012" lon="5.71799">
        <ele>150.95</ele>
        <time>2017-03-26T16:33:33Z</time>
      </trkpt>
      <trkpt lat="45.2012" lon="5.71799">
        <ele>150.95</ele>
        <time>2017-03-26T16:33:34Z</time>
      </trkpt>
      <trkpt lat="45.2012" lon="5.71799">
        <ele>150.95</ele>
        <time>2017-03-26T16:33:35Z</time>
      </trkpt>
      <trkpt lat="45.2012" lon="5.71799">
        <ele>150.95</ele>
        <time>2017-03-26T16:33:36Z</time>
      </trkpt>
      <trkpt lat="45.2012" lon="5.71799">
        <ele>150.95</ele>
        <time>2017-03-26T16:33:37Z</time>
      </trkpt>
      <trkpt lat="45.2012" lon="5.71799">
        <ele>150.95</ele>
        <time>2017-03-26T16:33:38Z</time>
      </trkpt>
      <trkpt lat="45.2012" lon="5.71799">
        <ele>150.95</ele>
        <time>2017-03-26T16:33:39Z</time>
      </trkpt>
      <trkpt lat="45.2012" lon="5.71799">
        <ele>150.95</ele>
        <time>2017-03-26T16:33:40Z</time>
      </trkpt>
      <trkpt lat="45.2012" lon="5.71799">
        <ele>150.95</ele>
        <time>2017-03-26T16:33:41Z</time>
      </trkpt>
      <trkpt lat="45.2012" lon="5.71799">
        <ele>150.95</ele>
        <time>2017-03-26T16:33:42Z</time>
      </trkpt>
      <trkpt lat="45.2012" lon="5.71799">
        <ele>150.95</ele>
        <time>2017-03-26T16:33:43Z</time>
      </trkpt>
      <trkpt lat="45.2012" lon="5.71799">
        <ele>150.95</ele>
        <time>2017-03-26T16:33:44Z</time>
      </trkpt>
      <trkpt lat="45.2012" lon="5.71799">
        <ele>150.95</ele>
        <time>2017-03-26T16:33:45Z</time>
      </trkpt>
      <trkpt lat="45.2012" lon="5.71799">
        <ele>150.95</ele>
        <time>2017-03-26T16:33:46Z</time>
      </trkpt>
      <trkpt lat="45.2012" lon="5.71799">
        <ele>150.95</ele>
        <time>2017-03-26T16:33:47Z</time>
      </trkpt>
      <trkpt lat="45.2012" lon="5.71799">
        <ele>150.95</ele>
        <time>2017-03-26T16:33:48Z</time>
      </trkpt>
      <trkpt lat="45.2012" lon="5.71799">
        <ele>150.95</ele>
        <time>2017-03-26T16:33:49Z</time>
      </trkpt>
      <trkpt lat="45.2012" lon="5.71799">
        <ele>150.95</ele>
        <time>2017-03-26T16:33:50Z</time>
      </trkpt>
      <trkpt lat="45.2012" lon="5.71799">
        <ele>150.95</ele>
        <time>2017-03-26T16:33:51Z</time>
      </trkpt>
      <trkpt lat="45.2012" lon="5.71799">
        <ele>150.95</ele>
        <time>2017-03-26T16:33:52Z</time>
      </trkpt>
      <trkpt lat="45.2012" lon="5.71799">
        <ele>150.95</ele>
        <time>2017-03-26T16:33:53Z</time>
      </trkpt>
      <trkpt lat="45.2012" lon="5.71799">
        <ele>150.95</ele>
        <time>2017-03-26T16:33:54Z</time>
      </trkpt>
      <trkpt lat="45.2012" lon="5.71799">
        <ele>150.95</ele>
        <time>2017-03-26T16:33:55Z</time>
      </trkpt>
      <trkpt lat="45.2012" lon="5.71799">
        <ele>150.95</ele>
        <time>2017-03-26T16:33:56Z</time>
      </trkpt>
      <trkpt lat="45.2012" lon="5.71799">
        <ele>150.95</ele>
        <time>2017-03-26T16:33:57Z</time>
      </trkpt>
      <trkpt lat="45.2012" lon="5.71799">
        <ele>150.95</ele>
        <time>2017-03-26T16:33:58Z</time>
      </trkpt>
      <trkpt lat="45.2012" lon="5.71799">
        <ele>150.95</ele>
        <time>2017-03-26T16:33:59Z</time>
      </trkpt>
      <trkpt lat="45.2012" lon="5.71799">
        <ele>150.95</ele>
        <time>2017-03-26T16:34:00Z</time>
      </trkpt>
      <trkpt lat="45.2012" lon="5.71799">
        <ele>150.95</ele>
        <time>2017-03-26T16:34:01Z</time>
      </trkpt>
      <trkpt lat="45.2012" lon="5.71799">
        <ele>150.95</ele>
        <time>2017-03-26T16:34:02Z</time>
      </trkpt>
      <trkpt lat="45.2012" lon="5.71799">
        <ele>150.95</ele>
        <time>2017-03-26T16:34:03Z</time>
      </trkpt>
      <trkpt lat="45.2012" lon="5.71799">
        <ele>150.95</ele>
        <time>2017-03-26T16:34:04Z</time>
      </trkpt>
      <trkpt lat="45.2012" lon="5.71799">
        <ele>150.95</ele>
        <time>2017-03-26T16:34:05Z</time>
      </trkpt>
      <trkpt lat="45.2012" lon="5.71799">
        <ele>150.95</ele>
        <time>2017-03-26T16:34:06Z</time>
      </trkpt>
      <trkpt lat="45.2012" lon="5.71799">
        <ele>150.95</ele>
        <time>2017-03-26T16:34:07Z</time>
      </trkpt>
      <trkpt lat="45.2012" lon="5.71799">
        <ele>150.95</ele>
        <time>2017-03-26T16:34:08Z</time>
      </trkpt>
      <trkpt lat="45.2012" lon="5.71799">
        <ele>150.95</ele>
        <time>2017-03-26T16:34:09Z</time>
      </trkpt>
      <trkpt lat="45.2012" lon="5.71799">
        <ele>150.95</ele>
        <time>2017-03-26T16:34:10Z</time>
      </trkpt>
      <trkpt lat="45.2012" lon="5.71799">
        <ele>150.95</ele>
        <time>2017-03-26T16:34:11Z</time>
      </trkpt>
      <trkpt lat="45.2012" lon="5.71799">
        <ele>150.95</ele>
        <time>2017-03-26T16:34:12Z</time>
      </trkpt>
      <trkpt lat="45.2012" lon="5.71799">
        <ele>150.95</ele>
        <time>2017-03-26T16:34:13Z</time>
      </trkpt>
      <trkpt lat="45.2012" lon="5.71799">
        <ele>150.95</ele>
        <time>2017-03-26T16:34:14Z</time>
      </trkpt>
      <trkpt lat="45.2012" lon="5.71799">
        <ele>150.95</ele>
        <time>2017-03-26T16:34:15Z</time>
      </trkpt>
      <trkpt lat="45.2012" lon="5.71799">
        <ele>150.95</ele>
        <time>2017-03-26T16:34:16Z</time>
      </trkpt>
      <trkpt lat="45.2012" lon="5.71799">
        <ele>150.95</ele>
        <time>2017-03-26T16:34:17Z</time>
      </trkpt>
      <trkpt lat="45.2012" lon="5.71799">
        <ele>150.95</ele>
        <time>2017-03-26T16:34:18Z</time>
      </trkpt>
      <trkpt lat="45.2012" lon="5.71799">
        <ele>150.95</ele>
        <time>2017-03-26T16:34:19Z</time>
      </trkpt>
      <trkpt lat="45.2012" lon="5.71799">
        <ele>150.95</ele>
        <time>2017-03-26T16:34:20Z</time>
      </trkpt>
      <trkpt lat="45.2012" lon="5.71799">
        <ele>150.95</ele>
        <time>2017-03-26T16:34:21Z</time>
      </trkpt>
      <trkpt lat="45.2012" lon="5.71799">
        <ele>150.95</ele>
        <time>2017-03-26T16:34:22Z</time>
      </trkpt>
      <trkpt lat="45.2012" lon="5.71799">
        <ele>150.95</ele>
        <time>2017-03-26T16:34:23Z</time>
      </trkpt>
      <trkpt lat="45.2012" lon="5.71799">
        <ele>150.95</ele>
        <time>2017-03-26T16:34:24Z</time>
      </trkpt>
      <trkpt lat="45.2012" lon="5.71799">
        <ele>150.95</ele>
        <time>2017-03-26T16:34:25Z</time>
      </trkpt>
      <trkpt lat="45.2012" lon="5.71799">
        <ele>150.95</ele>
        <time>2017-03-26T16:34:26Z</time>
      </trkpt>
      <trkpt lat="45.2012" lon="5.71799">
        <ele>150.95</ele>
        <time>2017-03-26T16:34:27Z</time>
      </trkpt>
      <trkpt lat="45.2012" lon="5.71799">
        <ele>150.95</ele>
        <time>2017-03-26T16:34:28Z</time>
      </trkpt>
      <trkpt lat="45.2012" lon="5.71799">
        <ele>150.95</ele>
        <time>2017-03-26T16:34:29Z</time>
      </trkpt>
      <trkpt lat="45.2012" lon="5.71799">
        <ele>150.95</ele>
        <time>2017-03-26T16:34:30Z</time>
      </trkpt>
      <trkpt lat="45.2012" lon="5.71799">
        <ele>150.95</ele>
        <time>2017-03-26T16:34:31Z</time>
      </trkpt>
      <trkpt lat="45.2012" lon="5.71799">
        <ele>150.95</ele>
        <time>2017-03-26T16:34:32Z</time>
      </trkpt>
      <trkpt lat="45.2012" lon="5.71799">
        <ele>150.95</ele>
        <time>2017-03-26T16:34:33Z</time>
      </trkpt>
      <trkpt lat="45.2012" lon="5.71799">
        <ele>150.95</ele>
        <time>2017-03-26T16:34:34Z</time>
      </trkpt>
      <trkpt lat="45.2012" lon="5.71799">
        <ele>150.95</ele>
        <time>2017-03-26T16:34:35Z</time>
      </trkpt>
      <trkpt lat="45.2012" lon="5.71799">
        <ele>150.95</ele>
        <time>2017-03-26T16:34:36Z</time>
      </trkpt>
      <trkpt lat="45.2012" lon="5.71799">
        <ele>150.95</ele>
        <time>2017-03-26T16:34:37Z</time>
      </trkpt>
      <trkpt lat="45.2012" lon="5.71799">
        <ele>150.95</ele>
        <time>2017-03-26T16:34:38Z</time>
      </trkpt>
      <trkpt lat="45.2012" lon="5.71799">
        <ele>150.95</ele>
        <time>2017-03-26T16:34:39Z</time>
      </trkpt>
      <trkpt lat="45.2012" lon="5.71799">
        <ele>150.95</ele>
        <time>2017-03-26T16:34:40Z</time>
      </trkpt>
      <trkpt lat="45.2012" lon="5.71799">
        <ele>150.95</ele>
        <time>2017-03-26T16:34:41Z</time>
      </trkpt>
      <trkpt lat="45.2012" lon="5.71799">
        <ele>150.95</ele>
        <time>2017-03-26T16:34:42Z</time>
      </trkpt>
      <trkpt lat="45.2012" lon="5.71799">
        <ele>150.95</ele>
        <time>2017-03-26T16:34:43Z</time>
      </trkpt>
      <trkpt lat="45.2012" lon="5.71799">
        <ele>150.95</ele>
        <time>2017-03-26T16:34:44Z</time>
      </trkpt>
      <trkpt lat="45.2012" lon="5.71799">
        <ele>150.95</ele>
        <time>2017-03-26T16:34:45Z</time>
      </trkpt>
      <trkpt lat="45.2012" lon="5.71799">
        <ele>150.95</ele>
        <time>2017-03-26T16:34:46Z</time>
      </trkpt>
      <trkpt lat="45.2012" lon="5.71799">
        <ele>150.95</ele>
        <time>2017-03-26T16:34:47Z</time>
      </trkpt>
      <trkpt lat="45.2012" lon="5.71799">
        <ele>150.95</ele>
        <time>2017-03-26T16:34:48Z</time>
      </trkpt>
      <trkpt lat="45.2012" lon="5.71799">
        <ele>150.95</ele>
        <time>2017-03-26T16:34:49Z</time>
      </trkpt>
      <trkpt lat="45.2012" lon="5.71799">
        <ele>150.95</ele>
        <time>2017-03-26T16:34:50Z</time>
      </trkpt>
      <trkpt lat="45.2012" lon="5.71799">
        <ele>150.95</ele>
        <time>2017-03-26T16:34:51Z</time>
      </trkpt>
      <trkpt lat="45.2012" lon="5.71799">
        <ele>150.95</ele>
        <time>2017-03-26T16:34:52Z</time>
      </trkpt>
      <trkpt lat="45.2012" lon="5.71799">
        <ele>150.95</ele>
        <time>2017-03-26T16:34:53Z</time>
      </trkpt>
      <trkpt lat="45.2012" lon="5.71799">
        <ele>150.95</ele>
        <time>2017-03-26T16:34:54Z</time>
      </trkpt>
      <trkpt lat="45.2012" lon="5.71799">
        <ele>150.95</ele>
        <time>2017-03-26T16:34:55Z</time>
      </trkpt>
      <trkpt lat="45.2012" lon="5.71799">
        <ele>150.95</ele>
        <time>2017-03-26T16:34:56Z</time>
      </trkpt>
      <trkpt lat="45.2012" lon="5.71799">
        <ele>150.95</ele>
        <time>2017-03-26T16:34:57Z</time>
      </trkpt>
      <trkpt lat="45.2012" lon="5.71799">
        <ele>150.95</ele>
        <time>2017-03-26T16:34:58Z</time>
      </trkpt>
      <trkpt lat="45.2012" lon="5.71799">
        <ele>150.95</ele>
        <time>2017-03-26T16:34:59Z</time>
      </trkpt>
      <trkpt lat="45.20126" lon="5.7181">
        <ele>151.19</ele>
        <time>2017-03-26T16:35:00Z</time>
      </trkpt>
      <trkpt lat="45.20126" lon="5.7181">
        <ele>151.24</ele>
        <time>2017-03-26T16:35:01Z</time>
      </trkpt>
      <trkpt lat="45.20126" lon="5.7181">
        <ele>151.25</ele>
        <time>2017-03-26T16:35:02Z</time>
      </trkpt>
      <trkpt lat="45.20126" lon="5.71809">
        <ele>151.25</ele>
        <time>2017-03-26T16:35:03Z</time>
      </trkpt>
      <trkpt lat="45.20126" lon="5.71809">
        <ele>151.25</ele>
        <time>2017-03-26T16:35:04Z</time>
      </trkpt>
      <trkpt lat="45.20126" lon="5.71809">
        <ele>151.25</ele>
        <time>2017-03-26T16:35:05Z</time>
      </trkpt>
      <trkpt lat="45.20126" lon="5.71809">
        <ele>151.25</ele>
        <time>2017-03-26T16:35:06Z</time>
      </trkpt>
      <trkpt lat="45.20126" lon="5.71809">
        <ele>151.25</ele>
        <time>2017-03-26T16:35:07Z</time>
      </trkpt>
      <trkpt lat="45.20126" lon="5.71809">
        <ele>151.25</ele>
        <time>2017-03-26T16:35:08Z</time>
      </trkpt>
      <trkpt lat="45.20126" lon="5.71809">
        <ele>151.25</ele>
        <time>2017-03-26T16:35:09Z</time>
      </trkpt>
    </trkseg>
  </trk>
</gpx>